<?xml version="1.0" encoding="UTF-8"?>
<gpx version="1.1" creator="https://www.youtrack.es" xsi:schemaLocation="http://www.topografix.com/GPX/1/1 http://www.topografix.com/GPX/1/1/gpx.xsd http://www.garmin.com/xmlschemas/GpxExtensions/v3 http://www.garmin.com/xmlschemas/GpxExtensionsv3.xsd http://www.garmin.com/xmlschemas/TrackPointExtension/v1 http://www.garmin.com/xmlschemas/TrackPointExtensionv1.xsd" xmlns:gpxtpx="http://www.garmin.com/xmlschemas/TrackPointExtension/v1" xmlns:gpxx="http://www.garmin.com/xmlschemas/GpxExtensions/v3" xmlns:xsi="http://www.w3.org/2001/XMLSchema-instance">
  <metadata>
    <link href="https://www.youtrack.es">
      <text>YouTrack.es</text>
    </link>
    <time>2026-05-09T01:19:46Z</time>
  </metadata>
  <trk>
    <src>https://www.youtrack.es</src>
    <link href="https://www.youtrack.es/ruta/7152-camino-salvador-y-primitivo">
      <text>YouTrack.es</text>
    </link>
    <trkseg>
      <trkpt lat="42.595060" lon="-5.568363">
        <ele>790.276</ele>
        <time>1999-07-20T09:15:20Z</time>
      </trkpt>
      <trkpt lat="42.595064" lon="-5.568359">
        <ele>790.090</ele>
        <time>1999-07-20T09:15:23Z</time>
      </trkpt>
      <trkpt lat="42.594998" lon="-5.568420">
        <ele>789.819</ele>
        <time>1999-07-20T09:15:33Z</time>
      </trkpt>
      <trkpt lat="42.594963" lon="-5.568420">
        <ele>790.008</ele>
        <time>1999-07-20T09:15:36Z</time>
      </trkpt>
      <trkpt lat="42.594928" lon="-5.568369">
        <ele>790.080</ele>
        <time>1999-07-20T09:15:43Z</time>
      </trkpt>
      <trkpt lat="42.594913" lon="-5.568348">
        <ele>790.095</ele>
        <time>1999-07-20T09:15:46Z</time>
      </trkpt>
      <trkpt lat="42.594901" lon="-5.568099">
        <ele>789.615</ele>
        <time>1999-07-20T09:18:22Z</time>
      </trkpt>
      <trkpt lat="42.594903" lon="-5.568120">
        <ele>789.613</ele>
        <time>1999-07-20T09:18:23Z</time>
      </trkpt>
      <trkpt lat="42.594876" lon="-5.568250">
        <ele>789.431</ele>
        <time>1999-07-20T09:18:27Z</time>
      </trkpt>
      <trkpt lat="42.594860" lon="-5.568281">
        <ele>789.497</ele>
        <time>1999-07-20T09:18:28Z</time>
      </trkpt>
      <trkpt lat="42.594831" lon="-5.568371">
        <ele>789.464</ele>
        <time>1999-07-20T09:18:31Z</time>
      </trkpt>
      <trkpt lat="42.594721" lon="-5.568467">
        <ele>789.239</ele>
        <time>1999-07-20T09:18:34Z</time>
      </trkpt>
      <trkpt lat="42.594662" lon="-5.568560">
        <ele>789.047</ele>
        <time>1999-07-20T09:18:37Z</time>
      </trkpt>
      <trkpt lat="42.594644" lon="-5.568820">
        <ele>788.829</ele>
        <time>1999-07-20T09:18:44Z</time>
      </trkpt>
      <trkpt lat="42.594661" lon="-5.568851">
        <ele>788.621</ele>
        <time>1999-07-20T09:18:45Z</time>
      </trkpt>
      <trkpt lat="42.594732" lon="-5.568924">
        <ele>788.608</ele>
        <time>1999-07-20T09:18:48Z</time>
      </trkpt>
      <trkpt lat="42.594798" lon="-5.568976">
        <ele>788.897</ele>
        <time>1999-07-20T09:18:50Z</time>
      </trkpt>
      <trkpt lat="42.594860" lon="-5.569044">
        <ele>788.822</ele>
        <time>1999-07-20T09:18:52Z</time>
      </trkpt>
      <trkpt lat="42.594918" lon="-5.569104">
        <ele>788.882</ele>
        <time>1999-07-20T09:18:54Z</time>
      </trkpt>
      <trkpt lat="42.594972" lon="-5.569167">
        <ele>788.860</ele>
        <time>1999-07-20T09:18:56Z</time>
      </trkpt>
      <trkpt lat="42.595017" lon="-5.569242">
        <ele>789.688</ele>
        <time>1999-07-20T09:18:59Z</time>
      </trkpt>
      <trkpt lat="42.595042" lon="-5.569274">
        <ele>789.864</ele>
        <time>1999-07-20T09:19:00Z</time>
      </trkpt>
      <trkpt lat="42.595106" lon="-5.569350">
        <ele>790.011</ele>
        <time>1999-07-20T09:19:02Z</time>
      </trkpt>
      <trkpt lat="42.595149" lon="-5.569387">
        <ele>790.236</ele>
        <time>1999-07-20T09:19:03Z</time>
      </trkpt>
      <trkpt lat="42.595189" lon="-5.569421">
        <ele>790.276</ele>
        <time>1999-07-20T09:19:04Z</time>
      </trkpt>
      <trkpt lat="42.595281" lon="-5.569516">
        <ele>790.490</ele>
        <time>1999-07-20T09:19:07Z</time>
      </trkpt>
      <trkpt lat="42.595296" lon="-5.569539">
        <ele>790.619</ele>
        <time>1999-07-20T09:19:08Z</time>
      </trkpt>
      <trkpt lat="42.595297" lon="-5.569563">
        <ele>790.808</ele>
        <time>1999-07-20T09:19:09Z</time>
      </trkpt>
      <trkpt lat="42.595295" lon="-5.569589">
        <ele>791.060</ele>
        <time>1999-07-20T09:19:10Z</time>
      </trkpt>
      <trkpt lat="42.595257" lon="-5.569594">
        <ele>791.275</ele>
        <time>1999-07-20T09:19:11Z</time>
      </trkpt>
      <trkpt lat="42.595206" lon="-5.569592">
        <ele>791.225</ele>
        <time>1999-07-20T09:19:12Z</time>
      </trkpt>
      <trkpt lat="42.595100" lon="-5.569605">
        <ele>791.493</ele>
        <time>1999-07-20T09:19:15Z</time>
      </trkpt>
      <trkpt lat="42.594985" lon="-5.569677">
        <ele>791.821</ele>
        <time>1999-07-20T09:19:19Z</time>
      </trkpt>
      <trkpt lat="42.594953" lon="-5.569705">
        <ele>791.817</ele>
        <time>1999-07-20T09:19:20Z</time>
      </trkpt>
      <trkpt lat="42.594710" lon="-5.569933">
        <ele>792.084</ele>
        <time>1999-07-20T09:19:26Z</time>
      </trkpt>
      <trkpt lat="42.594483" lon="-5.570145">
        <ele>791.899</ele>
        <time>1999-07-20T09:19:30Z</time>
      </trkpt>
      <trkpt lat="42.594427" lon="-5.570185">
        <ele>791.824</ele>
        <time>1999-07-20T09:19:31Z</time>
      </trkpt>
      <trkpt lat="42.594333" lon="-5.570273">
        <ele>791.404</ele>
        <time>1999-07-20T09:19:34Z</time>
      </trkpt>
      <trkpt lat="42.594265" lon="-5.570311">
        <ele>791.214</ele>
        <time>1999-07-20T09:19:36Z</time>
      </trkpt>
      <trkpt lat="42.594230" lon="-5.570341">
        <ele>791.008</ele>
        <time>1999-07-20T09:19:38Z</time>
      </trkpt>
      <trkpt lat="42.594224" lon="-5.570346">
        <ele>790.845</ele>
        <time>1999-07-20T09:19:39Z</time>
      </trkpt>
      <trkpt lat="42.594221" lon="-5.570346">
        <ele>790.830</ele>
        <time>1999-07-20T09:19:40Z</time>
      </trkpt>
      <trkpt lat="42.594137" lon="-5.570342">
        <ele>790.670</ele>
        <time>1999-07-20T09:19:48Z</time>
      </trkpt>
      <trkpt lat="42.594125" lon="-5.570376">
        <ele>790.678</ele>
        <time>1999-07-20T09:19:49Z</time>
      </trkpt>
      <trkpt lat="42.594108" lon="-5.570419">
        <ele>790.486</ele>
        <time>1999-07-20T09:19:50Z</time>
      </trkpt>
      <trkpt lat="42.594016" lon="-5.570524">
        <ele>790.652</ele>
        <time>1999-07-20T09:19:53Z</time>
      </trkpt>
      <trkpt lat="42.593995" lon="-5.570566">
        <ele>790.679</ele>
        <time>1999-07-20T09:19:54Z</time>
      </trkpt>
      <trkpt lat="42.593988" lon="-5.570684">
        <ele>790.634</ele>
        <time>1999-07-20T09:19:56Z</time>
      </trkpt>
      <trkpt lat="42.593985" lon="-5.570856">
        <ele>790.675</ele>
        <time>1999-07-20T09:19:58Z</time>
      </trkpt>
      <trkpt lat="42.593976" lon="-5.571036">
        <ele>790.628</ele>
        <time>1999-07-20T09:20:00Z</time>
      </trkpt>
      <trkpt lat="42.593983" lon="-5.571294">
        <ele>790.620</ele>
        <time>1999-07-20T09:20:04Z</time>
      </trkpt>
      <trkpt lat="42.593994" lon="-5.571451">
        <ele>790.608</ele>
        <time>1999-07-20T09:20:09Z</time>
      </trkpt>
      <trkpt lat="42.593985" lon="-5.571762">
        <ele>790.630</ele>
        <time>1999-07-20T09:20:14Z</time>
      </trkpt>
      <trkpt lat="42.593976" lon="-5.572216">
        <ele>790.665</ele>
        <time>1999-07-20T09:20:20Z</time>
      </trkpt>
      <trkpt lat="42.593958" lon="-5.572420">
        <ele>790.685</ele>
        <time>1999-07-20T09:20:24Z</time>
      </trkpt>
      <trkpt lat="42.593918" lon="-5.572682">
        <ele>790.813</ele>
        <time>1999-07-20T09:20:28Z</time>
      </trkpt>
      <trkpt lat="42.593912" lon="-5.572754">
        <ele>790.841</ele>
        <time>1999-07-20T09:20:29Z</time>
      </trkpt>
      <trkpt lat="42.593821" lon="-5.573066">
        <ele>790.857</ele>
        <time>1999-07-20T09:20:33Z</time>
      </trkpt>
      <trkpt lat="42.593808" lon="-5.573154">
        <ele>790.824</ele>
        <time>1999-07-20T09:20:34Z</time>
      </trkpt>
      <trkpt lat="42.593786" lon="-5.573323">
        <ele>790.819</ele>
        <time>1999-07-20T09:20:36Z</time>
      </trkpt>
      <trkpt lat="42.593767" lon="-5.573579">
        <ele>790.896</ele>
        <time>1999-07-20T09:20:39Z</time>
      </trkpt>
      <trkpt lat="42.593817" lon="-5.573939">
        <ele>791.031</ele>
        <time>1999-07-20T09:20:43Z</time>
      </trkpt>
      <trkpt lat="42.593905" lon="-5.574123">
        <ele>791.024</ele>
        <time>1999-07-20T09:20:45Z</time>
      </trkpt>
      <trkpt lat="42.593873" lon="-5.574380">
        <ele>791.008</ele>
        <time>1999-07-20T09:20:48Z</time>
      </trkpt>
      <trkpt lat="42.593845" lon="-5.574464">
        <ele>791.082</ele>
        <time>1999-07-20T09:20:49Z</time>
      </trkpt>
      <trkpt lat="42.593803" lon="-5.574640">
        <ele>791.037</ele>
        <time>1999-07-20T09:20:51Z</time>
      </trkpt>
      <trkpt lat="42.593777" lon="-5.574835">
        <ele>791.097</ele>
        <time>1999-07-20T09:20:53Z</time>
      </trkpt>
      <trkpt lat="42.593750" lon="-5.575458">
        <ele>791.025</ele>
        <time>1999-07-20T09:20:59Z</time>
      </trkpt>
      <trkpt lat="42.593744" lon="-5.575962">
        <ele>790.893</ele>
        <time>1999-07-20T09:21:04Z</time>
      </trkpt>
      <trkpt lat="42.593761" lon="-5.576259">
        <ele>791.019</ele>
        <time>1999-07-20T09:21:07Z</time>
      </trkpt>
      <trkpt lat="42.593810" lon="-5.576419">
        <ele>791.096</ele>
        <time>1999-07-20T09:21:09Z</time>
      </trkpt>
      <trkpt lat="42.593860" lon="-5.576515">
        <ele>790.861</ele>
        <time>1999-07-20T09:21:12Z</time>
      </trkpt>
      <trkpt lat="42.593910" lon="-5.576580">
        <ele>790.884</ele>
        <time>1999-07-20T09:21:15Z</time>
      </trkpt>
      <trkpt lat="42.594007" lon="-5.576694">
        <ele>790.807</ele>
        <time>1999-07-20T09:21:19Z</time>
      </trkpt>
      <trkpt lat="42.594047" lon="-5.576715">
        <ele>790.817</ele>
        <time>1999-07-20T09:21:20Z</time>
      </trkpt>
      <trkpt lat="42.594123" lon="-5.576767">
        <ele>790.808</ele>
        <time>1999-07-20T09:21:22Z</time>
      </trkpt>
      <trkpt lat="42.594183" lon="-5.576834">
        <ele>790.851</ele>
        <time>1999-07-20T09:21:24Z</time>
      </trkpt>
      <trkpt lat="42.594127" lon="-5.576982">
        <ele>790.676</ele>
        <time>1999-07-20T09:21:27Z</time>
      </trkpt>
      <trkpt lat="42.594077" lon="-5.577026">
        <ele>790.666</ele>
        <time>1999-07-20T09:21:29Z</time>
      </trkpt>
      <trkpt lat="42.594037" lon="-5.577002">
        <ele>790.654</ele>
        <time>1999-07-20T09:21:31Z</time>
      </trkpt>
      <trkpt lat="42.594022" lon="-5.577007">
        <ele>790.622</ele>
        <time>1999-07-20T09:21:33Z</time>
      </trkpt>
      <trkpt lat="42.594031" lon="-5.577015">
        <ele>790.678</ele>
        <time>1999-07-20T09:21:34Z</time>
      </trkpt>
      <trkpt lat="42.594113" lon="-5.577109">
        <ele>790.415</ele>
        <time>1999-07-20T09:21:38Z</time>
      </trkpt>
      <trkpt lat="42.594100" lon="-5.577269">
        <ele>789.830</ele>
        <time>1999-07-20T09:21:42Z</time>
      </trkpt>
      <trkpt lat="42.594078" lon="-5.577309">
        <ele>789.681</ele>
        <time>1999-07-20T09:21:43Z</time>
      </trkpt>
      <trkpt lat="42.594029" lon="-5.577330">
        <ele>789.061</ele>
        <time>1999-07-20T09:21:45Z</time>
      </trkpt>
      <trkpt lat="42.594005" lon="-5.577325">
        <ele>788.617</ele>
        <time>1999-07-20T09:21:47Z</time>
      </trkpt>
      <trkpt lat="42.593991" lon="-5.577306">
        <ele>788.408</ele>
        <time>1999-07-20T09:21:48Z</time>
      </trkpt>
      <trkpt lat="42.593854" lon="-5.577173">
        <ele>788.421</ele>
        <time>1999-07-20T09:21:52Z</time>
      </trkpt>
      <trkpt lat="42.593744" lon="-5.577100">
        <ele>788.496</ele>
        <time>1999-07-20T09:21:54Z</time>
      </trkpt>
      <trkpt lat="42.593630" lon="-5.577037">
        <ele>788.426</ele>
        <time>1999-07-20T09:21:56Z</time>
      </trkpt>
      <trkpt lat="42.593348" lon="-5.576852">
        <ele>788.484</ele>
        <time>1999-07-20T09:22:01Z</time>
      </trkpt>
      <trkpt lat="42.593288" lon="-5.576813">
        <ele>788.432</ele>
        <time>1999-07-20T09:22:02Z</time>
      </trkpt>
      <trkpt lat="42.592828" lon="-5.576520">
        <ele>788.468</ele>
        <time>1999-07-20T09:22:09Z</time>
      </trkpt>
      <trkpt lat="42.592325" lon="-5.576195">
        <ele>787.885</ele>
        <time>1999-07-20T09:22:17Z</time>
      </trkpt>
      <trkpt lat="42.592226" lon="-5.576124">
        <ele>787.610</ele>
        <time>1999-07-20T09:22:19Z</time>
      </trkpt>
      <trkpt lat="42.592074" lon="-5.576044">
        <ele>787.211</ele>
        <time>1999-07-20T09:22:22Z</time>
      </trkpt>
      <trkpt lat="42.591977" lon="-5.576007">
        <ele>787.221</ele>
        <time>1999-07-20T09:22:24Z</time>
      </trkpt>
      <trkpt lat="42.591891" lon="-5.575959">
        <ele>787.003</ele>
        <time>1999-07-20T09:22:26Z</time>
      </trkpt>
      <trkpt lat="42.591754" lon="-5.575877">
        <ele>786.808</ele>
        <time>1999-07-20T09:22:29Z</time>
      </trkpt>
      <trkpt lat="42.591668" lon="-5.575826">
        <ele>786.824</ele>
        <time>1999-07-20T09:22:31Z</time>
      </trkpt>
      <trkpt lat="42.591624" lon="-5.575806">
        <ele>786.879</ele>
        <time>1999-07-20T09:22:32Z</time>
      </trkpt>
      <trkpt lat="42.591572" lon="-5.575788">
        <ele>786.899</ele>
        <time>1999-07-20T09:22:33Z</time>
      </trkpt>
      <trkpt lat="42.591508" lon="-5.575839">
        <ele>786.667</ele>
        <time>1999-07-20T09:22:35Z</time>
      </trkpt>
      <trkpt lat="42.591486" lon="-5.575889">
        <ele>786.635</ele>
        <time>1999-07-20T09:22:36Z</time>
      </trkpt>
      <trkpt lat="42.591454" lon="-5.576091">
        <ele>786.271</ele>
        <time>1999-07-20T09:22:39Z</time>
      </trkpt>
      <trkpt lat="42.591410" lon="-5.576286">
        <ele>785.848</ele>
        <time>1999-07-20T09:22:42Z</time>
      </trkpt>
      <trkpt lat="42.591410" lon="-5.576398">
        <ele>785.813</ele>
        <time>1999-07-20T09:22:44Z</time>
      </trkpt>
      <trkpt lat="42.591482" lon="-5.576471">
        <ele>785.691</ele>
        <time>1999-07-20T09:22:47Z</time>
      </trkpt>
      <trkpt lat="42.591510" lon="-5.576478">
        <ele>785.681</ele>
        <time>1999-07-20T09:22:48Z</time>
      </trkpt>
      <trkpt lat="42.591640" lon="-5.576552">
        <ele>785.619</ele>
        <time>1999-07-20T09:22:52Z</time>
      </trkpt>
      <trkpt lat="42.591683" lon="-5.576580">
        <ele>785.608</ele>
        <time>1999-07-20T09:22:53Z</time>
      </trkpt>
      <trkpt lat="42.591835" lon="-5.576664">
        <ele>785.642</ele>
        <time>1999-07-20T09:22:56Z</time>
      </trkpt>
      <trkpt lat="42.591991" lon="-5.576745">
        <ele>785.677</ele>
        <time>1999-07-20T09:22:59Z</time>
      </trkpt>
      <trkpt lat="42.592268" lon="-5.576877">
        <ele>785.677</ele>
        <time>1999-07-20T09:23:04Z</time>
      </trkpt>
      <trkpt lat="42.592437" lon="-5.576958">
        <ele>785.885</ele>
        <time>1999-07-20T09:23:07Z</time>
      </trkpt>
      <trkpt lat="42.592602" lon="-5.577038">
        <ele>786.273</ele>
        <time>1999-07-20T09:23:10Z</time>
      </trkpt>
      <trkpt lat="42.592757" lon="-5.577149">
        <ele>786.289</ele>
        <time>1999-07-20T09:23:13Z</time>
      </trkpt>
      <trkpt lat="42.592967" lon="-5.577268">
        <ele>786.896</ele>
        <time>1999-07-20T09:23:17Z</time>
      </trkpt>
      <trkpt lat="42.593185" lon="-5.577380">
        <ele>787.811</ele>
        <time>1999-07-20T09:23:21Z</time>
      </trkpt>
      <trkpt lat="42.593474" lon="-5.577512">
        <ele>788.054</ele>
        <time>1999-07-20T09:23:27Z</time>
      </trkpt>
      <trkpt lat="42.593479" lon="-5.577571">
        <ele>788.056</ele>
        <time>1999-07-20T09:23:30Z</time>
      </trkpt>
      <trkpt lat="42.593463" lon="-5.577573">
        <ele>788.011</ele>
        <time>1999-07-20T09:23:32Z</time>
      </trkpt>
      <trkpt lat="42.593446" lon="-5.577557">
        <ele>787.808</ele>
        <time>1999-07-20T09:23:35Z</time>
      </trkpt>
      <trkpt lat="42.593447" lon="-5.577548">
        <ele>787.828</ele>
        <time>1999-07-20T09:23:36Z</time>
      </trkpt>
      <trkpt lat="42.593498" lon="-5.577533">
        <ele>787.873</ele>
        <time>1999-07-20T09:23:39Z</time>
      </trkpt>
      <trkpt lat="42.593528" lon="-5.577541">
        <ele>787.823</ele>
        <time>1999-07-20T09:23:40Z</time>
      </trkpt>
      <trkpt lat="42.593648" lon="-5.577595">
        <ele>787.811</ele>
        <time>1999-07-20T09:23:43Z</time>
      </trkpt>
      <trkpt lat="42.593741" lon="-5.577642">
        <ele>787.849</ele>
        <time>1999-07-20T09:23:45Z</time>
      </trkpt>
      <trkpt lat="42.594032" lon="-5.577821">
        <ele>788.095</ele>
        <time>1999-07-20T09:23:51Z</time>
      </trkpt>
      <trkpt lat="42.594083" lon="-5.577849">
        <ele>788.292</ele>
        <time>1999-07-20T09:23:52Z</time>
      </trkpt>
      <trkpt lat="42.594395" lon="-5.578028">
        <ele>788.647</ele>
        <time>1999-07-20T09:23:58Z</time>
      </trkpt>
      <trkpt lat="42.594611" lon="-5.578154">
        <ele>788.882</ele>
        <time>1999-07-20T09:24:02Z</time>
      </trkpt>
      <trkpt lat="42.594766" lon="-5.578253">
        <ele>788.843</ele>
        <time>1999-07-20T09:24:05Z</time>
      </trkpt>
      <trkpt lat="42.595027" lon="-5.578398">
        <ele>789.417</ele>
        <time>1999-07-20T09:24:10Z</time>
      </trkpt>
      <trkpt lat="42.595235" lon="-5.578488">
        <ele>789.408</ele>
        <time>1999-07-20T09:24:14Z</time>
      </trkpt>
      <trkpt lat="42.595334" lon="-5.578525">
        <ele>789.451</ele>
        <time>1999-07-20T09:24:16Z</time>
      </trkpt>
      <trkpt lat="42.595426" lon="-5.578587">
        <ele>789.436</ele>
        <time>1999-07-20T09:24:18Z</time>
      </trkpt>
      <trkpt lat="42.595473" lon="-5.578614">
        <ele>789.636</ele>
        <time>1999-07-20T09:24:19Z</time>
      </trkpt>
      <trkpt lat="42.595716" lon="-5.578744">
        <ele>789.614</ele>
        <time>1999-07-20T09:24:24Z</time>
      </trkpt>
      <trkpt lat="42.595807" lon="-5.578780">
        <ele>789.662</ele>
        <time>1999-07-20T09:24:26Z</time>
      </trkpt>
      <trkpt lat="42.595932" lon="-5.578814">
        <ele>789.818</ele>
        <time>1999-07-20T09:24:29Z</time>
      </trkpt>
      <trkpt lat="42.595951" lon="-5.578878">
        <ele>789.895</ele>
        <time>1999-07-20T09:24:32Z</time>
      </trkpt>
      <trkpt lat="42.595885" lon="-5.578863">
        <ele>789.830</ele>
        <time>1999-07-20T09:24:34Z</time>
      </trkpt>
      <trkpt lat="42.595858" lon="-5.578860">
        <ele>789.896</ele>
        <time>1999-07-20T09:24:35Z</time>
      </trkpt>
      <trkpt lat="42.595843" lon="-5.578873">
        <ele>789.831</ele>
        <time>1999-07-20T09:24:36Z</time>
      </trkpt>
      <trkpt lat="42.595858" lon="-5.578924">
        <ele>789.624</ele>
        <time>1999-07-20T09:24:38Z</time>
      </trkpt>
      <trkpt lat="42.595932" lon="-5.578983">
        <ele>789.608</ele>
        <time>1999-07-20T09:24:40Z</time>
      </trkpt>
      <trkpt lat="42.595980" lon="-5.579017">
        <ele>789.292</ele>
        <time>1999-07-20T09:24:41Z</time>
      </trkpt>
      <trkpt lat="42.596149" lon="-5.579127">
        <ele>788.027</ele>
        <time>1999-07-20T09:24:44Z</time>
      </trkpt>
      <trkpt lat="42.596342" lon="-5.579222">
        <ele>787.437</ele>
        <time>1999-07-20T09:24:47Z</time>
      </trkpt>
      <trkpt lat="42.596595" lon="-5.579377">
        <ele>787.055</ele>
        <time>1999-07-20T09:24:51Z</time>
      </trkpt>
      <trkpt lat="42.596658" lon="-5.579414">
        <ele>786.863</ele>
        <time>1999-07-20T09:24:52Z</time>
      </trkpt>
      <trkpt lat="42.597026" lon="-5.579617">
        <ele>786.819</ele>
        <time>1999-07-20T09:24:58Z</time>
      </trkpt>
      <trkpt lat="42.597090" lon="-5.579653">
        <ele>786.816</ele>
        <time>1999-07-20T09:24:59Z</time>
      </trkpt>
      <trkpt lat="42.597278" lon="-5.579739">
        <ele>786.831</ele>
        <time>1999-07-20T09:25:02Z</time>
      </trkpt>
      <trkpt lat="42.597342" lon="-5.579768">
        <ele>786.841</ele>
        <time>1999-07-20T09:25:03Z</time>
      </trkpt>
      <trkpt lat="42.597535" lon="-5.579867">
        <ele>786.881</ele>
        <time>1999-07-20T09:25:06Z</time>
      </trkpt>
      <trkpt lat="42.597776" lon="-5.580056">
        <ele>787.009</ele>
        <time>1999-07-20T09:25:10Z</time>
      </trkpt>
      <trkpt lat="42.598054" lon="-5.580328">
        <ele>787.008</ele>
        <time>1999-07-20T09:25:15Z</time>
      </trkpt>
      <trkpt lat="42.598102" lon="-5.580399">
        <ele>787.017</ele>
        <time>1999-07-20T09:25:16Z</time>
      </trkpt>
      <trkpt lat="42.598252" lon="-5.580611">
        <ele>787.072</ele>
        <time>1999-07-20T09:25:19Z</time>
      </trkpt>
      <trkpt lat="42.598365" lon="-5.580734">
        <ele>787.042</ele>
        <time>1999-07-20T09:25:21Z</time>
      </trkpt>
      <trkpt lat="42.598752" lon="-5.581095">
        <ele>787.280</ele>
        <time>1999-07-20T09:25:28Z</time>
      </trkpt>
      <trkpt lat="42.599174" lon="-5.581499">
        <ele>787.498</ele>
        <time>1999-07-20T09:25:36Z</time>
      </trkpt>
      <trkpt lat="42.599558" lon="-5.581815">
        <ele>787.454</ele>
        <time>1999-07-20T09:25:43Z</time>
      </trkpt>
      <trkpt lat="42.599964" lon="-5.582088">
        <ele>787.461</ele>
        <time>1999-07-20T09:25:50Z</time>
      </trkpt>
      <trkpt lat="42.600326" lon="-5.582301">
        <ele>787.626</ele>
        <time>1999-07-20T09:25:56Z</time>
      </trkpt>
      <trkpt lat="42.600665" lon="-5.582495">
        <ele>787.674</ele>
        <time>1999-07-20T09:26:02Z</time>
      </trkpt>
      <trkpt lat="42.600738" lon="-5.582529">
        <ele>787.656</ele>
        <time>1999-07-20T09:26:04Z</time>
      </trkpt>
      <trkpt lat="42.600763" lon="-5.582544">
        <ele>787.621</ele>
        <time>1999-07-20T09:26:05Z</time>
      </trkpt>
      <trkpt lat="42.600769" lon="-5.582557">
        <ele>787.608</ele>
        <time>1999-07-20T09:26:06Z</time>
      </trkpt>
      <trkpt lat="42.600757" lon="-5.582577">
        <ele>787.670</ele>
        <time>1999-07-20T09:26:08Z</time>
      </trkpt>
      <trkpt lat="42.600678" lon="-5.582542">
        <ele>787.495</ele>
        <time>1999-07-20T09:26:11Z</time>
      </trkpt>
      <trkpt lat="42.600570" lon="-5.582488">
        <ele>787.475</ele>
        <time>1999-07-20T09:26:14Z</time>
      </trkpt>
      <trkpt lat="42.600489" lon="-5.582442">
        <ele>787.413</ele>
        <time>1999-07-20T09:26:16Z</time>
      </trkpt>
      <trkpt lat="42.600465" lon="-5.582411">
        <ele>787.211</ele>
        <time>1999-07-20T09:26:17Z</time>
      </trkpt>
      <trkpt lat="42.600465" lon="-5.582363">
        <ele>787.227</ele>
        <time>1999-07-20T09:26:19Z</time>
      </trkpt>
      <trkpt lat="42.600507" lon="-5.582390">
        <ele>787.244</ele>
        <time>1999-07-20T09:26:22Z</time>
      </trkpt>
      <trkpt lat="42.600525" lon="-5.582400">
        <ele>787.249</ele>
        <time>1999-07-20T09:26:23Z</time>
      </trkpt>
      <trkpt lat="42.600532" lon="-5.582391">
        <ele>787.248</ele>
        <time>1999-07-20T09:26:24Z</time>
      </trkpt>
      <trkpt lat="42.600511" lon="-5.582377">
        <ele>787.261</ele>
        <time>1999-07-20T09:26:26Z</time>
      </trkpt>
      <trkpt lat="42.600461" lon="-5.582300">
        <ele>787.617</ele>
        <time>1999-07-20T09:26:30Z</time>
      </trkpt>
      <trkpt lat="42.600493" lon="-5.582225">
        <ele>788.008</ele>
        <time>1999-07-20T09:26:33Z</time>
      </trkpt>
      <trkpt lat="42.600516" lon="-5.582226">
        <ele>788.057</ele>
        <time>1999-07-20T09:26:34Z</time>
      </trkpt>
      <trkpt lat="42.600538" lon="-5.582234">
        <ele>788.272</ele>
        <time>1999-07-20T09:26:35Z</time>
      </trkpt>
      <trkpt lat="42.600652" lon="-5.582261">
        <ele>788.692</ele>
        <time>1999-07-20T09:26:39Z</time>
      </trkpt>
      <trkpt lat="42.600816" lon="-5.582343">
        <ele>789.280</ele>
        <time>1999-07-20T09:26:43Z</time>
      </trkpt>
      <trkpt lat="42.600893" lon="-5.582393">
        <ele>789.448</ele>
        <time>1999-07-20T09:26:45Z</time>
      </trkpt>
      <trkpt lat="42.601010" lon="-5.582466">
        <ele>789.674</ele>
        <time>1999-07-20T09:26:49Z</time>
      </trkpt>
      <trkpt lat="42.601029" lon="-5.582473">
        <ele>789.681</ele>
        <time>1999-07-20T09:26:50Z</time>
      </trkpt>
      <trkpt lat="42.601052" lon="-5.582466">
        <ele>789.666</ele>
        <time>1999-07-20T09:26:52Z</time>
      </trkpt>
      <trkpt lat="42.601054" lon="-5.582424">
        <ele>789.817</ele>
        <time>1999-07-20T09:26:54Z</time>
      </trkpt>
      <trkpt lat="42.601029" lon="-5.582325">
        <ele>790.087</ele>
        <time>1999-07-20T09:26:57Z</time>
      </trkpt>
      <trkpt lat="42.601005" lon="-5.582288">
        <ele>790.015</ele>
        <time>1999-07-20T09:26:59Z</time>
      </trkpt>
      <trkpt lat="42.600947" lon="-5.582241">
        <ele>790.008</ele>
        <time>1999-07-20T09:27:01Z</time>
      </trkpt>
      <trkpt lat="42.600917" lon="-5.582214">
        <ele>790.074</ele>
        <time>1999-07-20T09:27:02Z</time>
      </trkpt>
      <trkpt lat="42.600888" lon="-5.582190">
        <ele>790.229</ele>
        <time>1999-07-20T09:27:03Z</time>
      </trkpt>
      <trkpt lat="42.600819" lon="-5.582121">
        <ele>791.899</ele>
        <time>1999-07-20T09:27:06Z</time>
      </trkpt>
      <trkpt lat="42.600820" lon="-5.582106">
        <ele>792.497</ele>
        <time>1999-07-20T09:27:07Z</time>
      </trkpt>
      <trkpt lat="42.600825" lon="-5.582084">
        <ele>792.665</ele>
        <time>1999-07-20T09:27:08Z</time>
      </trkpt>
      <trkpt lat="42.600842" lon="-5.582055">
        <ele>793.021</ele>
        <time>1999-07-20T09:27:09Z</time>
      </trkpt>
      <trkpt lat="42.600895" lon="-5.582011">
        <ele>793.228</ele>
        <time>1999-07-20T09:27:11Z</time>
      </trkpt>
      <trkpt lat="42.600996" lon="-5.581991">
        <ele>793.493</ele>
        <time>1999-07-20T09:27:14Z</time>
      </trkpt>
      <trkpt lat="42.601070" lon="-5.581994">
        <ele>793.421</ele>
        <time>1999-07-20T09:27:16Z</time>
      </trkpt>
      <trkpt lat="42.601139" lon="-5.581979">
        <ele>793.441</ele>
        <time>1999-07-20T09:27:18Z</time>
      </trkpt>
      <trkpt lat="42.601211" lon="-5.581951">
        <ele>793.405</ele>
        <time>1999-07-20T09:27:21Z</time>
      </trkpt>
      <trkpt lat="42.601214" lon="-5.581945">
        <ele>793.408</ele>
        <time>1999-07-20T09:27:23Z</time>
      </trkpt>
      <trkpt lat="42.601219" lon="-5.581911">
        <ele>793.455</ele>
        <time>1999-07-20T09:27:37Z</time>
      </trkpt>
      <trkpt lat="42.601232" lon="-5.581894">
        <ele>793.480</ele>
        <time>1999-07-20T09:27:38Z</time>
      </trkpt>
      <trkpt lat="42.601275" lon="-5.581856">
        <ele>793.410</ele>
        <time>1999-07-20T09:27:40Z</time>
      </trkpt>
      <trkpt lat="42.601302" lon="-5.581831">
        <ele>793.468</ele>
        <time>1999-07-20T09:27:41Z</time>
      </trkpt>
      <trkpt lat="42.601362" lon="-5.581782">
        <ele>793.466</ele>
        <time>1999-07-20T09:27:43Z</time>
      </trkpt>
      <trkpt lat="42.601454" lon="-5.581710">
        <ele>793.692</ele>
        <time>1999-07-20T09:27:46Z</time>
      </trkpt>
      <trkpt lat="42.601504" lon="-5.581663">
        <ele>793.669</ele>
        <time>1999-07-20T09:27:48Z</time>
      </trkpt>
      <trkpt lat="42.601552" lon="-5.581630">
        <ele>793.624</ele>
        <time>1999-07-20T09:27:50Z</time>
      </trkpt>
      <trkpt lat="42.601636" lon="-5.581646">
        <ele>793.836</ele>
        <time>1999-07-20T09:27:54Z</time>
      </trkpt>
      <trkpt lat="42.601642" lon="-5.581656">
        <ele>794.017</ele>
        <time>1999-07-20T09:27:57Z</time>
      </trkpt>
      <trkpt lat="42.601593" lon="-5.581720">
        <ele>793.818</ele>
        <time>1999-07-20T09:29:29Z</time>
      </trkpt>
      <trkpt lat="42.601578" lon="-5.581771">
        <ele>793.808</ele>
        <time>1999-07-20T09:29:30Z</time>
      </trkpt>
      <trkpt lat="42.601552" lon="-5.581900">
        <ele>793.836</ele>
        <time>1999-07-20T09:29:32Z</time>
      </trkpt>
      <trkpt lat="42.601523" lon="-5.582101">
        <ele>793.821</ele>
        <time>1999-07-20T09:29:35Z</time>
      </trkpt>
      <trkpt lat="42.601508" lon="-5.582165">
        <ele>793.891</ele>
        <time>1999-07-20T09:29:36Z</time>
      </trkpt>
      <trkpt lat="42.601510" lon="-5.582309">
        <ele>793.859</ele>
        <time>1999-07-20T09:29:39Z</time>
      </trkpt>
      <trkpt lat="42.601581" lon="-5.582296">
        <ele>793.887</ele>
        <time>1999-07-20T09:29:42Z</time>
      </trkpt>
      <trkpt lat="42.601648" lon="-5.582142">
        <ele>793.883</ele>
        <time>1999-07-20T09:29:45Z</time>
      </trkpt>
      <trkpt lat="42.601672" lon="-5.582069">
        <ele>793.860</ele>
        <time>1999-07-20T09:29:46Z</time>
      </trkpt>
      <trkpt lat="42.601731" lon="-5.581909">
        <ele>793.845</ele>
        <time>1999-07-20T09:29:48Z</time>
      </trkpt>
      <trkpt lat="42.601800" lon="-5.581755">
        <ele>794.084</ele>
        <time>1999-07-20T09:29:50Z</time>
      </trkpt>
      <trkpt lat="42.601847" lon="-5.581580">
        <ele>794.007</ele>
        <time>1999-07-20T09:29:52Z</time>
      </trkpt>
      <trkpt lat="42.601910" lon="-5.581411">
        <ele>794.217</ele>
        <time>1999-07-20T09:29:54Z</time>
      </trkpt>
      <trkpt lat="42.601947" lon="-5.581328">
        <ele>794.408</ele>
        <time>1999-07-20T09:29:55Z</time>
      </trkpt>
      <trkpt lat="42.601976" lon="-5.581241">
        <ele>794.871</ele>
        <time>1999-07-20T09:29:56Z</time>
      </trkpt>
      <trkpt lat="42.602013" lon="-5.581066">
        <ele>795.096</ele>
        <time>1999-07-20T09:29:58Z</time>
      </trkpt>
      <trkpt lat="42.602023" lon="-5.580982">
        <ele>795.076</ele>
        <time>1999-07-20T09:29:59Z</time>
      </trkpt>
      <trkpt lat="42.602102" lon="-5.580826">
        <ele>795.224</ele>
        <time>1999-07-20T09:30:02Z</time>
      </trkpt>
      <trkpt lat="42.602287" lon="-5.580827">
        <ele>795.232</ele>
        <time>1999-07-20T09:30:06Z</time>
      </trkpt>
      <trkpt lat="42.602390" lon="-5.580877">
        <ele>795.448</ele>
        <time>1999-07-20T09:30:08Z</time>
      </trkpt>
      <trkpt lat="42.602639" lon="-5.581034">
        <ele>795.475</ele>
        <time>1999-07-20T09:30:13Z</time>
      </trkpt>
      <trkpt lat="42.602970" lon="-5.581347">
        <ele>795.420</ele>
        <time>1999-07-20T09:30:20Z</time>
      </trkpt>
      <trkpt lat="42.603199" lon="-5.581703">
        <ele>795.674</ele>
        <time>1999-07-20T09:30:26Z</time>
      </trkpt>
      <trkpt lat="42.603431" lon="-5.582157">
        <ele>795.656</ele>
        <time>1999-07-20T09:30:33Z</time>
      </trkpt>
      <trkpt lat="42.603460" lon="-5.582222">
        <ele>795.621</ele>
        <time>1999-07-20T09:30:34Z</time>
      </trkpt>
      <trkpt lat="42.603499" lon="-5.582452">
        <ele>795.808</ele>
        <time>1999-07-20T09:30:37Z</time>
      </trkpt>
      <trkpt lat="42.603503" lon="-5.582611">
        <ele>795.860</ele>
        <time>1999-07-20T09:30:39Z</time>
      </trkpt>
      <trkpt lat="42.603498" lon="-5.583108">
        <ele>795.875</ele>
        <time>1999-07-20T09:30:45Z</time>
      </trkpt>
      <trkpt lat="42.603583" lon="-5.583434">
        <ele>795.825</ele>
        <time>1999-07-20T09:30:49Z</time>
      </trkpt>
      <trkpt lat="42.603608" lon="-5.583511">
        <ele>795.843</ele>
        <time>1999-07-20T09:30:50Z</time>
      </trkpt>
      <trkpt lat="42.603655" lon="-5.583652">
        <ele>795.841</ele>
        <time>1999-07-20T09:30:52Z</time>
      </trkpt>
      <trkpt lat="42.603668" lon="-5.583712">
        <ele>795.837</ele>
        <time>1999-07-20T09:30:53Z</time>
      </trkpt>
      <trkpt lat="42.603678" lon="-5.583757">
        <ele>795.854</ele>
        <time>1999-07-20T09:30:54Z</time>
      </trkpt>
      <trkpt lat="42.603696" lon="-5.583804">
        <ele>795.439</ele>
        <time>1999-07-20T09:30:56Z</time>
      </trkpt>
      <trkpt lat="42.603727" lon="-5.583832">
        <ele>795.447</ele>
        <time>1999-07-20T09:30:58Z</time>
      </trkpt>
      <trkpt lat="42.603873" lon="-5.583860">
        <ele>794.629</ele>
        <time>1999-07-20T09:31:03Z</time>
      </trkpt>
      <trkpt lat="42.603951" lon="-5.583788">
        <ele>794.421</ele>
        <time>1999-07-20T09:31:05Z</time>
      </trkpt>
      <trkpt lat="42.603998" lon="-5.583756">
        <ele>794.408</ele>
        <time>1999-07-20T09:31:06Z</time>
      </trkpt>
      <trkpt lat="42.604048" lon="-5.583737">
        <ele>794.477</ele>
        <time>1999-07-20T09:31:07Z</time>
      </trkpt>
      <trkpt lat="42.604153" lon="-5.583764">
        <ele>794.472</ele>
        <time>1999-07-20T09:31:09Z</time>
      </trkpt>
      <trkpt lat="42.604199" lon="-5.583805">
        <ele>794.472</ele>
        <time>1999-07-20T09:31:10Z</time>
      </trkpt>
      <trkpt lat="42.604314" lon="-5.583972">
        <ele>794.440</ele>
        <time>1999-07-20T09:31:13Z</time>
      </trkpt>
      <trkpt lat="42.604438" lon="-5.584154">
        <ele>795.418</ele>
        <time>1999-07-20T09:31:16Z</time>
      </trkpt>
      <trkpt lat="42.604573" lon="-5.584337">
        <ele>796.244</ele>
        <time>1999-07-20T09:31:19Z</time>
      </trkpt>
      <trkpt lat="42.604691" lon="-5.584522">
        <ele>796.811</ele>
        <time>1999-07-20T09:31:22Z</time>
      </trkpt>
      <trkpt lat="42.604926" lon="-5.584919">
        <ele>797.466</ele>
        <time>1999-07-20T09:31:28Z</time>
      </trkpt>
      <trkpt lat="42.605000" lon="-5.585053">
        <ele>797.443</ele>
        <time>1999-07-20T09:31:30Z</time>
      </trkpt>
      <trkpt lat="42.605319" lon="-5.585546">
        <ele>797.864</ele>
        <time>1999-07-20T09:31:38Z</time>
      </trkpt>
      <trkpt lat="42.605711" lon="-5.586039">
        <ele>797.810</ele>
        <time>1999-07-20T09:31:47Z</time>
      </trkpt>
      <trkpt lat="42.605923" lon="-5.586303">
        <ele>798.008</ele>
        <time>1999-07-20T09:31:52Z</time>
      </trkpt>
      <trkpt lat="42.606058" lon="-5.586459">
        <ele>798.037</ele>
        <time>1999-07-20T09:31:55Z</time>
      </trkpt>
      <trkpt lat="42.606176" lon="-5.586611">
        <ele>798.072</ele>
        <time>1999-07-20T09:31:58Z</time>
      </trkpt>
      <trkpt lat="42.606236" lon="-5.586672">
        <ele>798.032</ele>
        <time>1999-07-20T09:32:00Z</time>
      </trkpt>
      <trkpt lat="42.606294" lon="-5.586721">
        <ele>798.030</ele>
        <time>1999-07-20T09:32:03Z</time>
      </trkpt>
      <trkpt lat="42.606294" lon="-5.586734">
        <ele>798.068</ele>
        <time>1999-07-20T09:32:04Z</time>
      </trkpt>
      <trkpt lat="42.606279" lon="-5.586736">
        <ele>798.044</ele>
        <time>1999-07-20T09:32:05Z</time>
      </trkpt>
      <trkpt lat="42.606235" lon="-5.586706">
        <ele>798.051</ele>
        <time>1999-07-20T09:32:07Z</time>
      </trkpt>
      <trkpt lat="42.606210" lon="-5.586667">
        <ele>797.846</ele>
        <time>1999-07-20T09:32:10Z</time>
      </trkpt>
      <trkpt lat="42.606205" lon="-5.586657">
        <ele>797.874</ele>
        <time>1999-07-20T09:32:11Z</time>
      </trkpt>
      <trkpt lat="42.606203" lon="-5.586652">
        <ele>797.856</ele>
        <time>1999-07-20T09:32:12Z</time>
      </trkpt>
      <trkpt lat="42.606177" lon="-5.586744">
        <ele>796.021</ele>
        <time>1999-07-20T09:32:32Z</time>
      </trkpt>
      <trkpt lat="42.606195" lon="-5.586765">
        <ele>795.808</ele>
        <time>1999-07-20T09:32:33Z</time>
      </trkpt>
      <trkpt lat="42.606219" lon="-5.586790">
        <ele>795.610</ele>
        <time>1999-07-20T09:32:34Z</time>
      </trkpt>
      <trkpt lat="42.606284" lon="-5.586852">
        <ele>794.865</ele>
        <time>1999-07-20T09:32:36Z</time>
      </trkpt>
      <trkpt lat="42.606364" lon="-5.586934">
        <ele>794.815</ele>
        <time>1999-07-20T09:32:38Z</time>
      </trkpt>
      <trkpt lat="42.606462" lon="-5.587046">
        <ele>794.613</ele>
        <time>1999-07-20T09:32:40Z</time>
      </trkpt>
      <trkpt lat="42.606567" lon="-5.587163">
        <ele>794.621</ele>
        <time>1999-07-20T09:32:42Z</time>
      </trkpt>
      <trkpt lat="42.606616" lon="-5.587219">
        <ele>794.697</ele>
        <time>1999-07-20T09:32:43Z</time>
      </trkpt>
      <trkpt lat="42.606715" lon="-5.587322">
        <ele>794.664</ele>
        <time>1999-07-20T09:32:45Z</time>
      </trkpt>
      <trkpt lat="42.606809" lon="-5.587435">
        <ele>794.649</ele>
        <time>1999-07-20T09:32:47Z</time>
      </trkpt>
      <trkpt lat="42.606907" lon="-5.587545">
        <ele>795.089</ele>
        <time>1999-07-20T09:32:49Z</time>
      </trkpt>
      <trkpt lat="42.607000" lon="-5.587648">
        <ele>795.206</ele>
        <time>1999-07-20T09:32:51Z</time>
      </trkpt>
      <trkpt lat="42.607131" lon="-5.587805">
        <ele>795.826</ele>
        <time>1999-07-20T09:32:54Z</time>
      </trkpt>
      <trkpt lat="42.607175" lon="-5.587857">
        <ele>796.008</ele>
        <time>1999-07-20T09:32:55Z</time>
      </trkpt>
      <trkpt lat="42.607218" lon="-5.587909">
        <ele>796.291</ele>
        <time>1999-07-20T09:32:56Z</time>
      </trkpt>
      <trkpt lat="42.607434" lon="-5.588143">
        <ele>797.086</ele>
        <time>1999-07-20T09:33:01Z</time>
      </trkpt>
      <trkpt lat="42.607471" lon="-5.588194">
        <ele>797.486</ele>
        <time>1999-07-20T09:33:02Z</time>
      </trkpt>
      <trkpt lat="42.607606" lon="-5.588459">
        <ele>798.094</ele>
        <time>1999-07-20T09:33:06Z</time>
      </trkpt>
      <trkpt lat="42.607905" lon="-5.588886">
        <ele>798.262</ele>
        <time>1999-07-20T09:33:12Z</time>
      </trkpt>
      <trkpt lat="42.608348" lon="-5.589448">
        <ele>797.478</ele>
        <time>1999-07-20T09:33:20Z</time>
      </trkpt>
      <trkpt lat="42.608395" lon="-5.589526">
        <ele>797.445</ele>
        <time>1999-07-20T09:33:21Z</time>
      </trkpt>
      <trkpt lat="42.608594" lon="-5.589821">
        <ele>797.030</ele>
        <time>1999-07-20T09:33:25Z</time>
      </trkpt>
      <trkpt lat="42.608712" lon="-5.589930">
        <ele>796.863</ele>
        <time>1999-07-20T09:33:27Z</time>
      </trkpt>
      <trkpt lat="42.609026" lon="-5.590088">
        <ele>796.844</ele>
        <time>1999-07-20T09:33:32Z</time>
      </trkpt>
      <trkpt lat="42.609091" lon="-5.590099">
        <ele>796.818</ele>
        <time>1999-07-20T09:33:33Z</time>
      </trkpt>
      <trkpt lat="42.609281" lon="-5.590109">
        <ele>796.808</ele>
        <time>1999-07-20T09:33:36Z</time>
      </trkpt>
      <trkpt lat="42.609335" lon="-5.590138">
        <ele>796.859</ele>
        <time>1999-07-20T09:33:37Z</time>
      </trkpt>
      <trkpt lat="42.609533" lon="-5.590239">
        <ele>797.084</ele>
        <time>1999-07-20T09:33:41Z</time>
      </trkpt>
      <trkpt lat="42.609718" lon="-5.590214">
        <ele>797.054</ele>
        <time>1999-07-20T09:33:44Z</time>
      </trkpt>
      <trkpt lat="42.609784" lon="-5.590207">
        <ele>797.092</ele>
        <time>1999-07-20T09:33:45Z</time>
      </trkpt>
      <trkpt lat="42.610054" lon="-5.590261">
        <ele>796.860</ele>
        <time>1999-07-20T09:33:49Z</time>
      </trkpt>
      <trkpt lat="42.610183" lon="-5.590340">
        <ele>796.616</ele>
        <time>1999-07-20T09:33:51Z</time>
      </trkpt>
      <trkpt lat="42.610314" lon="-5.590438">
        <ele>796.463</ele>
        <time>1999-07-20T09:33:53Z</time>
      </trkpt>
      <trkpt lat="42.610438" lon="-5.590540">
        <ele>796.228</ele>
        <time>1999-07-20T09:33:55Z</time>
      </trkpt>
      <trkpt lat="42.610808" lon="-5.590842">
        <ele>795.432</ele>
        <time>1999-07-20T09:34:01Z</time>
      </trkpt>
      <trkpt lat="42.611109" lon="-5.591072">
        <ele>795.492</ele>
        <time>1999-07-20T09:34:06Z</time>
      </trkpt>
      <trkpt lat="42.611163" lon="-5.591126">
        <ele>795.411</ele>
        <time>1999-07-20T09:34:07Z</time>
      </trkpt>
      <trkpt lat="42.611310" lon="-5.591259">
        <ele>795.408</ele>
        <time>1999-07-20T09:34:10Z</time>
      </trkpt>
      <trkpt lat="42.611364" lon="-5.591283">
        <ele>795.416</ele>
        <time>1999-07-20T09:34:11Z</time>
      </trkpt>
      <trkpt lat="42.611565" lon="-5.591341">
        <ele>795.811</ele>
        <time>1999-07-20T09:34:15Z</time>
      </trkpt>
      <trkpt lat="42.611664" lon="-5.591390">
        <ele>796.021</ele>
        <time>1999-07-20T09:34:17Z</time>
      </trkpt>
      <trkpt lat="42.611863" lon="-5.591497">
        <ele>796.689</ele>
        <time>1999-07-20T09:34:21Z</time>
      </trkpt>
      <trkpt lat="42.611959" lon="-5.591550">
        <ele>797.297</ele>
        <time>1999-07-20T09:34:23Z</time>
      </trkpt>
      <trkpt lat="42.612047" lon="-5.591602">
        <ele>798.083</ele>
        <time>1999-07-20T09:34:25Z</time>
      </trkpt>
      <trkpt lat="42.612091" lon="-5.591628">
        <ele>798.430</ele>
        <time>1999-07-20T09:34:26Z</time>
      </trkpt>
      <trkpt lat="42.612273" lon="-5.591734">
        <ele>799.285</ele>
        <time>1999-07-20T09:34:30Z</time>
      </trkpt>
      <trkpt lat="42.612321" lon="-5.591764">
        <ele>799.499</ele>
        <time>1999-07-20T09:34:31Z</time>
      </trkpt>
      <trkpt lat="42.612374" lon="-5.591799">
        <ele>799.607</ele>
        <time>1999-07-20T09:34:32Z</time>
      </trkpt>
      <trkpt lat="42.612425" lon="-5.591840">
        <ele>800.027</ele>
        <time>1999-07-20T09:34:33Z</time>
      </trkpt>
      <trkpt lat="42.612613" lon="-5.592010">
        <ele>800.608</ele>
        <time>1999-07-20T09:34:37Z</time>
      </trkpt>
      <trkpt lat="42.612667" lon="-5.592044">
        <ele>800.672</ele>
        <time>1999-07-20T09:34:38Z</time>
      </trkpt>
      <trkpt lat="42.613120" lon="-5.592330">
        <ele>801.047</ele>
        <time>1999-07-20T09:34:46Z</time>
      </trkpt>
      <trkpt lat="42.613525" lon="-5.592726">
        <ele>801.247</ele>
        <time>1999-07-20T09:34:54Z</time>
      </trkpt>
      <trkpt lat="42.613969" lon="-5.593165">
        <ele>801.645</ele>
        <time>1999-07-20T09:35:03Z</time>
      </trkpt>
      <trkpt lat="42.614166" lon="-5.593366">
        <ele>801.813</ele>
        <time>1999-07-20T09:35:07Z</time>
      </trkpt>
      <trkpt lat="42.614215" lon="-5.593416">
        <ele>801.819</ele>
        <time>1999-07-20T09:35:08Z</time>
      </trkpt>
      <trkpt lat="42.614456" lon="-5.593661">
        <ele>801.896</ele>
        <time>1999-07-20T09:35:13Z</time>
      </trkpt>
      <trkpt lat="42.614629" lon="-5.593833">
        <ele>802.031</ele>
        <time>1999-07-20T09:35:17Z</time>
      </trkpt>
      <trkpt lat="42.614671" lon="-5.594010">
        <ele>802.066</ele>
        <time>1999-07-20T09:35:20Z</time>
      </trkpt>
      <trkpt lat="42.614670" lon="-5.594066">
        <ele>802.029</ele>
        <time>1999-07-20T09:35:21Z</time>
      </trkpt>
      <trkpt lat="42.614669" lon="-5.594194">
        <ele>802.021</ele>
        <time>1999-07-20T09:35:25Z</time>
      </trkpt>
      <trkpt lat="42.614668" lon="-5.594190">
        <ele>802.008</ele>
        <time>1999-07-20T09:35:27Z</time>
      </trkpt>
      <trkpt lat="42.614712" lon="-5.594237">
        <ele>802.219</ele>
        <time>1999-07-20T09:35:45Z</time>
      </trkpt>
      <trkpt lat="42.614732" lon="-5.594256">
        <ele>802.234</ele>
        <time>1999-07-20T09:35:46Z</time>
      </trkpt>
      <trkpt lat="42.614838" lon="-5.594376">
        <ele>802.214</ele>
        <time>1999-07-20T09:35:50Z</time>
      </trkpt>
      <trkpt lat="42.614871" lon="-5.594413">
        <ele>802.222</ele>
        <time>1999-07-20T09:35:51Z</time>
      </trkpt>
      <trkpt lat="42.615015" lon="-5.594560">
        <ele>802.220</ele>
        <time>1999-07-20T09:35:55Z</time>
      </trkpt>
      <trkpt lat="42.615147" lon="-5.594649">
        <ele>802.426</ele>
        <time>1999-07-20T09:35:58Z</time>
      </trkpt>
      <trkpt lat="42.615339" lon="-5.594724">
        <ele>802.413</ele>
        <time>1999-07-20T09:36:02Z</time>
      </trkpt>
      <trkpt lat="42.615454" lon="-5.594740">
        <ele>802.498</ele>
        <time>1999-07-20T09:36:04Z</time>
      </trkpt>
      <trkpt lat="42.615633" lon="-5.594787">
        <ele>802.424</ele>
        <time>1999-07-20T09:36:07Z</time>
      </trkpt>
      <trkpt lat="42.615759" lon="-5.594813">
        <ele>802.404</ele>
        <time>1999-07-20T09:36:09Z</time>
      </trkpt>
      <trkpt lat="42.615881" lon="-5.594847">
        <ele>802.414</ele>
        <time>1999-07-20T09:36:11Z</time>
      </trkpt>
      <trkpt lat="42.616005" lon="-5.594916">
        <ele>802.608</ele>
        <time>1999-07-20T09:36:13Z</time>
      </trkpt>
      <trkpt lat="42.616265" lon="-5.595065">
        <ele>802.825</ele>
        <time>1999-07-20T09:36:17Z</time>
      </trkpt>
      <trkpt lat="42.616454" lon="-5.595188">
        <ele>803.040</ele>
        <time>1999-07-20T09:36:20Z</time>
      </trkpt>
      <trkpt lat="42.616699" lon="-5.595338">
        <ele>803.290</ele>
        <time>1999-07-20T09:36:24Z</time>
      </trkpt>
      <trkpt lat="42.616881" lon="-5.595459">
        <ele>803.238</ele>
        <time>1999-07-20T09:36:27Z</time>
      </trkpt>
      <trkpt lat="42.617374" lon="-5.595759">
        <ele>803.616</ele>
        <time>1999-07-20T09:36:35Z</time>
      </trkpt>
      <trkpt lat="42.617433" lon="-5.595796">
        <ele>803.672</ele>
        <time>1999-07-20T09:36:36Z</time>
      </trkpt>
      <trkpt lat="42.617845" lon="-5.596063">
        <ele>803.879</ele>
        <time>1999-07-20T09:36:43Z</time>
      </trkpt>
      <trkpt lat="42.618392" lon="-5.596406">
        <ele>804.014</ele>
        <time>1999-07-20T09:36:52Z</time>
      </trkpt>
      <trkpt lat="42.618452" lon="-5.596443">
        <ele>804.094</ele>
        <time>1999-07-20T09:36:53Z</time>
      </trkpt>
      <trkpt lat="42.618936" lon="-5.596743">
        <ele>804.257</ele>
        <time>1999-07-20T09:37:01Z</time>
      </trkpt>
      <trkpt lat="42.619363" lon="-5.596974">
        <ele>804.222</ele>
        <time>1999-07-20T09:37:08Z</time>
      </trkpt>
      <trkpt lat="42.619426" lon="-5.597003">
        <ele>804.208</ele>
        <time>1999-07-20T09:37:09Z</time>
      </trkpt>
      <trkpt lat="42.619919" lon="-5.597262">
        <ele>804.432</ele>
        <time>1999-07-20T09:37:17Z</time>
      </trkpt>
      <trkpt lat="42.620335" lon="-5.597484">
        <ele>804.837</ele>
        <time>1999-07-20T09:37:24Z</time>
      </trkpt>
      <trkpt lat="42.620499" lon="-5.597578">
        <ele>804.897</ele>
        <time>1999-07-20T09:37:27Z</time>
      </trkpt>
      <trkpt lat="42.620645" lon="-5.597645">
        <ele>805.035</ele>
        <time>1999-07-20T09:37:30Z</time>
      </trkpt>
      <trkpt lat="42.620755" lon="-5.597572">
        <ele>805.213</ele>
        <time>1999-07-20T09:37:33Z</time>
      </trkpt>
      <trkpt lat="42.620825" lon="-5.597512">
        <ele>805.259</ele>
        <time>1999-07-20T09:37:35Z</time>
      </trkpt>
      <trkpt lat="42.620870" lon="-5.597404">
        <ele>805.266</ele>
        <time>1999-07-20T09:37:37Z</time>
      </trkpt>
      <trkpt lat="42.620996" lon="-5.596934">
        <ele>805.471</ele>
        <time>1999-07-20T09:37:44Z</time>
      </trkpt>
      <trkpt lat="42.621013" lon="-5.596867">
        <ele>805.449</ele>
        <time>1999-07-20T09:37:45Z</time>
      </trkpt>
      <trkpt lat="42.621157" lon="-5.596455">
        <ele>806.002</ele>
        <time>1999-07-20T09:37:51Z</time>
      </trkpt>
      <trkpt lat="42.621286" lon="-5.596282">
        <ele>806.022</ele>
        <time>1999-07-20T09:37:54Z</time>
      </trkpt>
      <trkpt lat="42.621323" lon="-5.596218">
        <ele>806.008</ele>
        <time>1999-07-20T09:37:55Z</time>
      </trkpt>
      <trkpt lat="42.621565" lon="-5.595782">
        <ele>806.277</ele>
        <time>1999-07-20T09:38:02Z</time>
      </trkpt>
      <trkpt lat="42.621734" lon="-5.595465">
        <ele>806.422</ele>
        <time>1999-07-20T09:38:07Z</time>
      </trkpt>
      <trkpt lat="42.621832" lon="-5.595279">
        <ele>806.632</ele>
        <time>1999-07-20T09:38:10Z</time>
      </trkpt>
      <trkpt lat="42.621989" lon="-5.595012">
        <ele>807.210</ele>
        <time>1999-07-20T09:38:15Z</time>
      </trkpt>
      <trkpt lat="42.622050" lon="-5.594904">
        <ele>807.438</ele>
        <time>1999-07-20T09:38:17Z</time>
      </trkpt>
      <trkpt lat="42.622175" lon="-5.594677">
        <ele>808.294</ele>
        <time>1999-07-20T09:38:21Z</time>
      </trkpt>
      <trkpt lat="42.622235" lon="-5.594567">
        <ele>808.641</ele>
        <time>1999-07-20T09:38:23Z</time>
      </trkpt>
      <trkpt lat="42.622320" lon="-5.594411">
        <ele>809.246</ele>
        <time>1999-07-20T09:38:26Z</time>
      </trkpt>
      <trkpt lat="42.622374" lon="-5.594317">
        <ele>809.818</ele>
        <time>1999-07-20T09:38:28Z</time>
      </trkpt>
      <trkpt lat="42.622397" lon="-5.594271">
        <ele>810.098</ele>
        <time>1999-07-20T09:38:29Z</time>
      </trkpt>
      <trkpt lat="42.622478" lon="-5.594110">
        <ele>811.217</ele>
        <time>1999-07-20T09:38:33Z</time>
      </trkpt>
      <trkpt lat="42.622534" lon="-5.594028">
        <ele>811.808</ele>
        <time>1999-07-20T09:38:36Z</time>
      </trkpt>
      <trkpt lat="42.622595" lon="-5.594021">
        <ele>812.234</ele>
        <time>1999-07-20T09:38:38Z</time>
      </trkpt>
      <trkpt lat="42.622753" lon="-5.594140">
        <ele>813.499</ele>
        <time>1999-07-20T09:38:42Z</time>
      </trkpt>
      <trkpt lat="42.622791" lon="-5.594188">
        <ele>813.699</ele>
        <time>1999-07-20T09:38:43Z</time>
      </trkpt>
      <trkpt lat="42.622911" lon="-5.594340">
        <ele>814.497</ele>
        <time>1999-07-20T09:38:46Z</time>
      </trkpt>
      <trkpt lat="42.623084" lon="-5.594560">
        <ele>814.865</ele>
        <time>1999-07-20T09:38:50Z</time>
      </trkpt>
      <trkpt lat="42.623419" lon="-5.594926">
        <ele>815.051</ele>
        <time>1999-07-20T09:38:57Z</time>
      </trkpt>
      <trkpt lat="42.623803" lon="-5.595196">
        <ele>815.498</ele>
        <time>1999-07-20T09:39:04Z</time>
      </trkpt>
      <trkpt lat="42.624080" lon="-5.595358">
        <ele>815.493</ele>
        <time>1999-07-20T09:39:09Z</time>
      </trkpt>
      <trkpt lat="42.624316" lon="-5.595502">
        <ele>815.438</ele>
        <time>1999-07-20T09:39:13Z</time>
      </trkpt>
      <trkpt lat="42.624735" lon="-5.595750">
        <ele>815.270</ele>
        <time>1999-07-20T09:39:20Z</time>
      </trkpt>
      <trkpt lat="42.624778" lon="-5.595795">
        <ele>815.217</ele>
        <time>1999-07-20T09:39:21Z</time>
      </trkpt>
      <trkpt lat="42.624866" lon="-5.595908">
        <ele>815.208</ele>
        <time>1999-07-20T09:39:24Z</time>
      </trkpt>
      <trkpt lat="42.624946" lon="-5.595958">
        <ele>815.266</ele>
        <time>1999-07-20T09:39:26Z</time>
      </trkpt>
      <trkpt lat="42.625043" lon="-5.596012">
        <ele>815.251</ele>
        <time>1999-07-20T09:39:28Z</time>
      </trkpt>
      <trkpt lat="42.625445" lon="-5.596237">
        <ele>815.221</ele>
        <time>1999-07-20T09:39:36Z</time>
      </trkpt>
      <trkpt lat="42.625914" lon="-5.596502">
        <ele>815.479</ele>
        <time>1999-07-20T09:39:45Z</time>
      </trkpt>
      <trkpt lat="42.626220" lon="-5.596680">
        <ele>815.857</ele>
        <time>1999-07-20T09:39:51Z</time>
      </trkpt>
      <trkpt lat="42.626322" lon="-5.596736">
        <ele>816.293</ele>
        <time>1999-07-20T09:39:53Z</time>
      </trkpt>
      <trkpt lat="42.626648" lon="-5.596914">
        <ele>816.810</ele>
        <time>1999-07-20T09:39:59Z</time>
      </trkpt>
      <trkpt lat="42.626906" lon="-5.597056">
        <ele>816.845</ele>
        <time>1999-07-20T09:40:04Z</time>
      </trkpt>
      <trkpt lat="42.627100" lon="-5.597169">
        <ele>817.064</ele>
        <time>1999-07-20T09:40:08Z</time>
      </trkpt>
      <trkpt lat="42.627495" lon="-5.597399">
        <ele>817.206</ele>
        <time>1999-07-20T09:40:16Z</time>
      </trkpt>
      <trkpt lat="42.627867" lon="-5.597597">
        <ele>817.816</ele>
        <time>1999-07-20T09:40:23Z</time>
      </trkpt>
      <trkpt lat="42.627977" lon="-5.597654">
        <ele>818.208</ele>
        <time>1999-07-20T09:40:25Z</time>
      </trkpt>
      <trkpt lat="42.628338" lon="-5.597832">
        <ele>818.879</ele>
        <time>1999-07-20T09:40:32Z</time>
      </trkpt>
      <trkpt lat="42.628391" lon="-5.597854">
        <ele>818.894</ele>
        <time>1999-07-20T09:40:33Z</time>
      </trkpt>
      <trkpt lat="42.628556" lon="-5.597895">
        <ele>818.854</ele>
        <time>1999-07-20T09:40:36Z</time>
      </trkpt>
      <trkpt lat="42.628611" lon="-5.597908">
        <ele>818.892</ele>
        <time>1999-07-20T09:40:37Z</time>
      </trkpt>
      <trkpt lat="42.628666" lon="-5.597928">
        <ele>818.820</ele>
        <time>1999-07-20T09:40:38Z</time>
      </trkpt>
      <trkpt lat="42.628890" lon="-5.598005">
        <ele>818.836</ele>
        <time>1999-07-20T09:40:42Z</time>
      </trkpt>
      <trkpt lat="42.629398" lon="-5.598140">
        <ele>819.263</ele>
        <time>1999-07-20T09:40:51Z</time>
      </trkpt>
      <trkpt lat="42.629858" lon="-5.598258">
        <ele>819.238</ele>
        <time>1999-07-20T09:40:59Z</time>
      </trkpt>
      <trkpt lat="42.630430" lon="-5.598406">
        <ele>819.638</ele>
        <time>1999-07-20T09:41:09Z</time>
      </trkpt>
      <trkpt lat="42.630488" lon="-5.598424">
        <ele>819.870</ele>
        <time>1999-07-20T09:41:10Z</time>
      </trkpt>
      <trkpt lat="42.630656" lon="-5.598487">
        <ele>820.017</ele>
        <time>1999-07-20T09:41:13Z</time>
      </trkpt>
      <trkpt lat="42.630930" lon="-5.598628">
        <ele>820.008</ele>
        <time>1999-07-20T09:41:18Z</time>
      </trkpt>
      <trkpt lat="42.631320" lon="-5.598877">
        <ele>820.266</ele>
        <time>1999-07-20T09:41:26Z</time>
      </trkpt>
      <trkpt lat="42.631417" lon="-5.598944">
        <ele>820.211</ele>
        <time>1999-07-20T09:41:28Z</time>
      </trkpt>
      <trkpt lat="42.631511" lon="-5.599020">
        <ele>820.281</ele>
        <time>1999-07-20T09:41:30Z</time>
      </trkpt>
      <trkpt lat="42.631618" lon="-5.599071">
        <ele>820.269</ele>
        <time>1999-07-20T09:41:33Z</time>
      </trkpt>
      <trkpt lat="42.631642" lon="-5.599058">
        <ele>820.217</ele>
        <time>1999-07-20T09:41:34Z</time>
      </trkpt>
      <trkpt lat="42.631800" lon="-5.599042">
        <ele>820.093</ele>
        <time>1999-07-20T09:41:38Z</time>
      </trkpt>
      <trkpt lat="42.631907" lon="-5.599106">
        <ele>820.070</ele>
        <time>1999-07-20T09:41:40Z</time>
      </trkpt>
      <trkpt lat="42.632016" lon="-5.599186">
        <ele>820.055</ele>
        <time>1999-07-20T09:41:42Z</time>
      </trkpt>
      <trkpt lat="42.632421" lon="-5.599423">
        <ele>820.423</ele>
        <time>1999-07-20T09:41:49Z</time>
      </trkpt>
      <trkpt lat="42.632928" lon="-5.599605">
        <ele>820.483</ele>
        <time>1999-07-20T09:41:57Z</time>
      </trkpt>
      <trkpt lat="42.633471" lon="-5.599668">
        <ele>820.411</ele>
        <time>1999-07-20T09:42:05Z</time>
      </trkpt>
      <trkpt lat="42.633540" lon="-5.599672">
        <ele>820.408</ele>
        <time>1999-07-20T09:42:06Z</time>
      </trkpt>
      <trkpt lat="42.634077" lon="-5.599749">
        <ele>820.895</ele>
        <time>1999-07-20T09:42:14Z</time>
      </trkpt>
      <trkpt lat="42.634564" lon="-5.599942">
        <ele>820.890</ele>
        <time>1999-07-20T09:42:21Z</time>
      </trkpt>
      <trkpt lat="42.635142" lon="-5.600203">
        <ele>820.280</ele>
        <time>1999-07-20T09:42:29Z</time>
      </trkpt>
      <trkpt lat="42.635361" lon="-5.600305">
        <ele>819.838</ele>
        <time>1999-07-20T09:42:32Z</time>
      </trkpt>
      <trkpt lat="42.635484" lon="-5.600386">
        <ele>819.816</ele>
        <time>1999-07-20T09:42:34Z</time>
      </trkpt>
      <trkpt lat="42.635530" lon="-5.600418">
        <ele>819.662</ele>
        <time>1999-07-20T09:42:35Z</time>
      </trkpt>
      <trkpt lat="42.635651" lon="-5.600520">
        <ele>819.629</ele>
        <time>1999-07-20T09:42:39Z</time>
      </trkpt>
      <trkpt lat="42.635744" lon="-5.600557">
        <ele>819.464</ele>
        <time>1999-07-20T09:42:41Z</time>
      </trkpt>
      <trkpt lat="42.635898" lon="-5.600616">
        <ele>819.277</ele>
        <time>1999-07-20T09:42:44Z</time>
      </trkpt>
      <trkpt lat="42.636459" lon="-5.600868">
        <ele>819.461</ele>
        <time>1999-07-20T09:42:54Z</time>
      </trkpt>
      <trkpt lat="42.636870" lon="-5.601057">
        <ele>820.027</ele>
        <time>1999-07-20T09:43:01Z</time>
      </trkpt>
      <trkpt lat="42.637054" lon="-5.601139">
        <ele>820.008</ele>
        <time>1999-07-20T09:43:04Z</time>
      </trkpt>
      <trkpt lat="42.637616" lon="-5.601385">
        <ele>820.010</ele>
        <time>1999-07-20T09:43:13Z</time>
      </trkpt>
      <trkpt lat="42.637680" lon="-5.601413">
        <ele>820.215</ele>
        <time>1999-07-20T09:43:14Z</time>
      </trkpt>
      <trkpt lat="42.638202" lon="-5.601655">
        <ele>820.245</ele>
        <time>1999-07-20T09:43:22Z</time>
      </trkpt>
      <trkpt lat="42.638335" lon="-5.601717">
        <ele>820.253</ele>
        <time>1999-07-20T09:43:24Z</time>
      </trkpt>
      <trkpt lat="42.638851" lon="-5.601940">
        <ele>820.051</ele>
        <time>1999-07-20T09:43:32Z</time>
      </trkpt>
      <trkpt lat="42.639351" lon="-5.602163">
        <ele>819.297</ele>
        <time>1999-07-20T09:43:40Z</time>
      </trkpt>
      <trkpt lat="42.639482" lon="-5.602215">
        <ele>819.274</ele>
        <time>1999-07-20T09:43:42Z</time>
      </trkpt>
      <trkpt lat="42.639547" lon="-5.602243">
        <ele>819.089</ele>
        <time>1999-07-20T09:43:43Z</time>
      </trkpt>
      <trkpt lat="42.640065" lon="-5.602467">
        <ele>818.856</ele>
        <time>1999-07-20T09:43:51Z</time>
      </trkpt>
      <trkpt lat="42.640191" lon="-5.602529">
        <ele>818.859</ele>
        <time>1999-07-20T09:43:53Z</time>
      </trkpt>
      <trkpt lat="42.640548" lon="-5.602745">
        <ele>818.814</ele>
        <time>1999-07-20T09:43:59Z</time>
      </trkpt>
      <trkpt lat="42.640605" lon="-5.602782">
        <ele>818.808</ele>
        <time>1999-07-20T09:44:00Z</time>
      </trkpt>
      <trkpt lat="42.641074" lon="-5.603017">
        <ele>819.068</ele>
        <time>1999-07-20T09:44:08Z</time>
      </trkpt>
      <trkpt lat="42.641564" lon="-5.603175">
        <ele>819.293</ele>
        <time>1999-07-20T09:44:16Z</time>
      </trkpt>
      <trkpt lat="42.642110" lon="-5.603345">
        <ele>819.213</ele>
        <time>1999-07-20T09:44:25Z</time>
      </trkpt>
      <trkpt lat="42.642229" lon="-5.603383">
        <ele>819.211</ele>
        <time>1999-07-20T09:44:27Z</time>
      </trkpt>
      <trkpt lat="42.642766" lon="-5.603543">
        <ele>819.649</ele>
        <time>1999-07-20T09:44:36Z</time>
      </trkpt>
      <trkpt lat="42.643329" lon="-5.603710">
        <ele>820.025</ele>
        <time>1999-07-20T09:44:45Z</time>
      </trkpt>
      <trkpt lat="42.643451" lon="-5.603750">
        <ele>820.032</ele>
        <time>1999-07-20T09:44:47Z</time>
      </trkpt>
      <trkpt lat="42.644000" lon="-5.603923">
        <ele>820.077</ele>
        <time>1999-07-20T09:44:56Z</time>
      </trkpt>
      <trkpt lat="42.644063" lon="-5.603942">
        <ele>820.011</ele>
        <time>1999-07-20T09:44:57Z</time>
      </trkpt>
      <trkpt lat="42.644643" lon="-5.604125">
        <ele>819.821</ele>
        <time>1999-07-20T09:45:06Z</time>
      </trkpt>
      <trkpt lat="42.644708" lon="-5.604143">
        <ele>819.803</ele>
        <time>1999-07-20T09:45:07Z</time>
      </trkpt>
      <trkpt lat="42.645232" lon="-5.604245">
        <ele>819.808</ele>
        <time>1999-07-20T09:45:15Z</time>
      </trkpt>
      <trkpt lat="42.645777" lon="-5.604243">
        <ele>819.854</ele>
        <time>1999-07-20T09:45:23Z</time>
      </trkpt>
      <trkpt lat="42.646318" lon="-5.604207">
        <ele>819.869</ele>
        <time>1999-07-20T09:45:31Z</time>
      </trkpt>
      <trkpt lat="42.646910" lon="-5.604169">
        <ele>819.899</ele>
        <time>1999-07-20T09:45:40Z</time>
      </trkpt>
      <trkpt lat="42.647043" lon="-5.604161">
        <ele>819.837</ele>
        <time>1999-07-20T09:45:42Z</time>
      </trkpt>
      <trkpt lat="42.647634" lon="-5.604131">
        <ele>819.885</ele>
        <time>1999-07-20T09:45:51Z</time>
      </trkpt>
      <trkpt lat="42.648210" lon="-5.604187">
        <ele>819.861</ele>
        <time>1999-07-20T09:46:00Z</time>
      </trkpt>
      <trkpt lat="42.648477" lon="-5.604295">
        <ele>819.668</ele>
        <time>1999-07-20T09:46:05Z</time>
      </trkpt>
      <trkpt lat="42.648523" lon="-5.604327">
        <ele>819.653</ele>
        <time>1999-07-20T09:46:06Z</time>
      </trkpt>
      <trkpt lat="42.648607" lon="-5.604377">
        <ele>819.622</ele>
        <time>1999-07-20T09:46:08Z</time>
      </trkpt>
      <trkpt lat="42.648649" lon="-5.604394">
        <ele>819.662</ele>
        <time>1999-07-20T09:46:09Z</time>
      </trkpt>
      <trkpt lat="42.648735" lon="-5.604414">
        <ele>819.608</ele>
        <time>1999-07-20T09:46:11Z</time>
      </trkpt>
      <trkpt lat="42.648782" lon="-5.604425">
        <ele>819.608</ele>
        <time>1999-07-20T09:46:12Z</time>
      </trkpt>
      <trkpt lat="42.648969" lon="-5.604503">
        <ele>819.415</ele>
        <time>1999-07-20T09:46:16Z</time>
      </trkpt>
      <trkpt lat="42.649011" lon="-5.604519">
        <ele>819.430</ele>
        <time>1999-07-20T09:46:17Z</time>
      </trkpt>
      <trkpt lat="42.649336" lon="-5.604651">
        <ele>819.450</ele>
        <time>1999-07-20T09:46:24Z</time>
      </trkpt>
      <trkpt lat="42.649408" lon="-5.604656">
        <ele>819.458</ele>
        <time>1999-07-20T09:46:26Z</time>
      </trkpt>
      <trkpt lat="42.649442" lon="-5.604660">
        <ele>819.456</ele>
        <time>1999-07-20T09:46:28Z</time>
      </trkpt>
      <trkpt lat="42.649439" lon="-5.604658">
        <ele>819.472</ele>
        <time>1999-07-20T09:46:30Z</time>
      </trkpt>
      <trkpt lat="42.649453" lon="-5.604684">
        <ele>819.279</ele>
        <time>1999-07-20T09:48:42Z</time>
      </trkpt>
      <trkpt lat="42.649472" lon="-5.604697">
        <ele>819.244</ele>
        <time>1999-07-20T09:48:43Z</time>
      </trkpt>
      <trkpt lat="42.649493" lon="-5.604709">
        <ele>819.258</ele>
        <time>1999-07-20T09:48:44Z</time>
      </trkpt>
      <trkpt lat="42.649635" lon="-5.604767">
        <ele>819.252</ele>
        <time>1999-07-20T09:48:49Z</time>
      </trkpt>
      <trkpt lat="42.649831" lon="-5.604847">
        <ele>819.217</ele>
        <time>1999-07-20T09:48:54Z</time>
      </trkpt>
      <trkpt lat="42.649918" lon="-5.604890">
        <ele>819.208</ele>
        <time>1999-07-20T09:48:56Z</time>
      </trkpt>
      <trkpt lat="42.650102" lon="-5.604977">
        <ele>819.678</ele>
        <time>1999-07-20T09:49:00Z</time>
      </trkpt>
      <trkpt lat="42.650309" lon="-5.605058">
        <ele>819.833</ele>
        <time>1999-07-20T09:49:04Z</time>
      </trkpt>
      <trkpt lat="42.650413" lon="-5.605089">
        <ele>819.893</ele>
        <time>1999-07-20T09:49:06Z</time>
      </trkpt>
      <trkpt lat="42.650568" lon="-5.605141">
        <ele>820.091</ele>
        <time>1999-07-20T09:49:09Z</time>
      </trkpt>
      <trkpt lat="42.650779" lon="-5.605206">
        <ele>820.269</ele>
        <time>1999-07-20T09:49:13Z</time>
      </trkpt>
      <trkpt lat="42.650832" lon="-5.605222">
        <ele>820.215</ele>
        <time>1999-07-20T09:49:14Z</time>
      </trkpt>
      <trkpt lat="42.650938" lon="-5.605264">
        <ele>820.252</ele>
        <time>1999-07-20T09:49:16Z</time>
      </trkpt>
      <trkpt lat="42.651103" lon="-5.605341">
        <ele>820.257</ele>
        <time>1999-07-20T09:49:19Z</time>
      </trkpt>
      <trkpt lat="42.651215" lon="-5.605391">
        <ele>820.492</ele>
        <time>1999-07-20T09:49:21Z</time>
      </trkpt>
      <trkpt lat="42.651737" lon="-5.605582">
        <ele>821.073</ele>
        <time>1999-07-20T09:49:30Z</time>
      </trkpt>
      <trkpt lat="42.651794" lon="-5.605601">
        <ele>821.020</ele>
        <time>1999-07-20T09:49:31Z</time>
      </trkpt>
      <trkpt lat="42.652229" lon="-5.605711">
        <ele>821.208</ele>
        <time>1999-07-20T09:49:38Z</time>
      </trkpt>
      <trkpt lat="42.652290" lon="-5.605722">
        <ele>821.452</ele>
        <time>1999-07-20T09:49:39Z</time>
      </trkpt>
      <trkpt lat="42.652740" lon="-5.605834">
        <ele>821.677</ele>
        <time>1999-07-20T09:49:47Z</time>
      </trkpt>
      <trkpt lat="42.653131" lon="-5.605900">
        <ele>822.077</ele>
        <time>1999-07-20T09:49:54Z</time>
      </trkpt>
      <trkpt lat="42.653662" lon="-5.605976">
        <ele>822.435</ele>
        <time>1999-07-20T09:50:03Z</time>
      </trkpt>
      <trkpt lat="42.653897" lon="-5.606042">
        <ele>822.633</ele>
        <time>1999-07-20T09:50:07Z</time>
      </trkpt>
      <trkpt lat="42.654084" lon="-5.606091">
        <ele>822.619</ele>
        <time>1999-07-20T09:50:10Z</time>
      </trkpt>
      <trkpt lat="42.654492" lon="-5.606217">
        <ele>823.086</ele>
        <time>1999-07-20T09:50:17Z</time>
      </trkpt>
      <trkpt lat="42.654862" lon="-5.606341">
        <ele>823.021</ele>
        <time>1999-07-20T09:50:23Z</time>
      </trkpt>
      <trkpt lat="42.655086" lon="-5.606430">
        <ele>823.083</ele>
        <time>1999-07-20T09:50:27Z</time>
      </trkpt>
      <trkpt lat="42.655190" lon="-5.606490">
        <ele>823.225</ele>
        <time>1999-07-20T09:50:29Z</time>
      </trkpt>
      <trkpt lat="42.655552" lon="-5.606675">
        <ele>823.417</ele>
        <time>1999-07-20T09:50:36Z</time>
      </trkpt>
      <trkpt lat="42.655663" lon="-5.606722">
        <ele>823.608</ele>
        <time>1999-07-20T09:50:38Z</time>
      </trkpt>
      <trkpt lat="42.655949" lon="-5.606837">
        <ele>823.671</ele>
        <time>1999-07-20T09:50:43Z</time>
      </trkpt>
      <trkpt lat="42.656313" lon="-5.607033">
        <ele>823.876</ele>
        <time>1999-07-20T09:50:49Z</time>
      </trkpt>
      <trkpt lat="42.656725" lon="-5.607215">
        <ele>824.046</ele>
        <time>1999-07-20T09:50:56Z</time>
      </trkpt>
      <trkpt lat="42.657198" lon="-5.607386">
        <ele>823.874</ele>
        <time>1999-07-20T09:51:04Z</time>
      </trkpt>
      <trkpt lat="42.657676" lon="-5.607544">
        <ele>823.862</ele>
        <time>1999-07-20T09:51:12Z</time>
      </trkpt>
      <trkpt lat="42.658010" lon="-5.607665">
        <ele>824.068</ele>
        <time>1999-07-20T09:51:18Z</time>
      </trkpt>
      <trkpt lat="42.658312" lon="-5.607756">
        <ele>824.615</ele>
        <time>1999-07-20T09:51:24Z</time>
      </trkpt>
      <trkpt lat="42.658703" lon="-5.607860">
        <ele>825.680</ele>
        <time>1999-07-20T09:51:32Z</time>
      </trkpt>
      <trkpt lat="42.658756" lon="-5.607873">
        <ele>825.611</ele>
        <time>1999-07-20T09:51:33Z</time>
      </trkpt>
      <trkpt lat="42.658989" lon="-5.607928">
        <ele>826.021</ele>
        <time>1999-07-20T09:51:37Z</time>
      </trkpt>
      <trkpt lat="42.659046" lon="-5.607941">
        <ele>826.003</ele>
        <time>1999-07-20T09:51:38Z</time>
      </trkpt>
      <trkpt lat="42.659272" lon="-5.607991">
        <ele>826.208</ele>
        <time>1999-07-20T09:51:42Z</time>
      </trkpt>
      <trkpt lat="42.659396" lon="-5.607999">
        <ele>826.274</ele>
        <time>1999-07-20T09:51:44Z</time>
      </trkpt>
      <trkpt lat="42.659743" lon="-5.608035">
        <ele>826.479</ele>
        <time>1999-07-20T09:51:50Z</time>
      </trkpt>
      <trkpt lat="42.660094" lon="-5.608081">
        <ele>826.669</ele>
        <time>1999-07-20T09:51:56Z</time>
      </trkpt>
      <trkpt lat="42.660156" lon="-5.608089">
        <ele>826.857</ele>
        <time>1999-07-20T09:51:57Z</time>
      </trkpt>
      <trkpt lat="42.660748" lon="-5.608134">
        <ele>827.245</ele>
        <time>1999-07-20T09:52:06Z</time>
      </trkpt>
      <trkpt lat="42.661087" lon="-5.608190">
        <ele>827.211</ele>
        <time>1999-07-20T09:52:12Z</time>
      </trkpt>
      <trkpt lat="42.661139" lon="-5.608197">
        <ele>827.428</ele>
        <time>1999-07-20T09:52:13Z</time>
      </trkpt>
      <trkpt lat="42.661341" lon="-5.608238">
        <ele>827.823</ele>
        <time>1999-07-20T09:52:17Z</time>
      </trkpt>
      <trkpt lat="42.661495" lon="-5.608261">
        <ele>828.421</ele>
        <time>1999-07-20T09:52:20Z</time>
      </trkpt>
      <trkpt lat="42.661599" lon="-5.608267">
        <ele>829.041</ele>
        <time>1999-07-20T09:52:22Z</time>
      </trkpt>
      <trkpt lat="42.661753" lon="-5.608261">
        <ele>829.805</ele>
        <time>1999-07-20T09:52:25Z</time>
      </trkpt>
      <trkpt lat="42.661805" lon="-5.608254">
        <ele>830.208</ele>
        <time>1999-07-20T09:52:26Z</time>
      </trkpt>
      <trkpt lat="42.661856" lon="-5.608249">
        <ele>830.665</ele>
        <time>1999-07-20T09:52:27Z</time>
      </trkpt>
      <trkpt lat="42.662005" lon="-5.608249">
        <ele>831.620</ele>
        <time>1999-07-20T09:52:30Z</time>
      </trkpt>
      <trkpt lat="42.662150" lon="-5.608256">
        <ele>832.820</ele>
        <time>1999-07-20T09:52:33Z</time>
      </trkpt>
      <trkpt lat="42.662244" lon="-5.608263">
        <ele>833.618</ele>
        <time>1999-07-20T09:52:35Z</time>
      </trkpt>
      <trkpt lat="42.662289" lon="-5.608267">
        <ele>834.076</ele>
        <time>1999-07-20T09:52:36Z</time>
      </trkpt>
      <trkpt lat="42.662517" lon="-5.608303">
        <ele>835.442</ele>
        <time>1999-07-20T09:52:41Z</time>
      </trkpt>
      <trkpt lat="42.662659" lon="-5.608321">
        <ele>836.299</ele>
        <time>1999-07-20T09:52:44Z</time>
      </trkpt>
      <trkpt lat="42.662705" lon="-5.608329">
        <ele>836.494</ele>
        <time>1999-07-20T09:52:45Z</time>
      </trkpt>
      <trkpt lat="42.662892" lon="-5.608357">
        <ele>837.445</ele>
        <time>1999-07-20T09:52:49Z</time>
      </trkpt>
      <trkpt lat="42.663119" lon="-5.608392">
        <ele>838.647</ele>
        <time>1999-07-20T09:52:54Z</time>
      </trkpt>
      <trkpt lat="42.663394" lon="-5.608426">
        <ele>839.611</ele>
        <time>1999-07-20T09:53:00Z</time>
      </trkpt>
      <trkpt lat="42.663537" lon="-5.608432">
        <ele>840.008</ele>
        <time>1999-07-20T09:53:03Z</time>
      </trkpt>
      <trkpt lat="42.663636" lon="-5.608438">
        <ele>840.647</ele>
        <time>1999-07-20T09:53:05Z</time>
      </trkpt>
      <trkpt lat="42.663889" lon="-5.608452">
        <ele>841.822</ele>
        <time>1999-07-20T09:53:10Z</time>
      </trkpt>
      <trkpt lat="42.663936" lon="-5.608452">
        <ele>842.042</ele>
        <time>1999-07-20T09:53:11Z</time>
      </trkpt>
      <trkpt lat="42.664119" lon="-5.608441">
        <ele>843.250</ele>
        <time>1999-07-20T09:53:15Z</time>
      </trkpt>
      <trkpt lat="42.664259" lon="-5.608437">
        <ele>844.018</ele>
        <time>1999-07-20T09:53:18Z</time>
      </trkpt>
      <trkpt lat="42.664307" lon="-5.608438">
        <ele>844.244</ele>
        <time>1999-07-20T09:53:19Z</time>
      </trkpt>
      <trkpt lat="42.664547" lon="-5.608448">
        <ele>845.291</ele>
        <time>1999-07-20T09:53:24Z</time>
      </trkpt>
      <trkpt lat="42.664596" lon="-5.608452">
        <ele>845.266</ele>
        <time>1999-07-20T09:53:25Z</time>
      </trkpt>
      <trkpt lat="42.664643" lon="-5.608451">
        <ele>845.428</ele>
        <time>1999-07-20T09:53:26Z</time>
      </trkpt>
      <trkpt lat="42.664935" lon="-5.608394">
        <ele>846.289</ele>
        <time>1999-07-20T09:53:32Z</time>
      </trkpt>
      <trkpt lat="42.665032" lon="-5.608361">
        <ele>846.617</ele>
        <time>1999-07-20T09:53:34Z</time>
      </trkpt>
      <trkpt lat="42.665080" lon="-5.608339">
        <ele>846.808</ele>
        <time>1999-07-20T09:53:35Z</time>
      </trkpt>
      <trkpt lat="42.665207" lon="-5.608233">
        <ele>847.055</ele>
        <time>1999-07-20T09:53:38Z</time>
      </trkpt>
      <trkpt lat="42.665322" lon="-5.608090">
        <ele>847.440</ele>
        <time>1999-07-20T09:53:41Z</time>
      </trkpt>
      <trkpt lat="42.665357" lon="-5.608030">
        <ele>847.640</ele>
        <time>1999-07-20T09:53:42Z</time>
      </trkpt>
      <trkpt lat="42.665392" lon="-5.607963">
        <ele>847.628</ele>
        <time>1999-07-20T09:53:43Z</time>
      </trkpt>
      <trkpt lat="42.665538" lon="-5.607548">
        <ele>847.696</ele>
        <time>1999-07-20T09:53:48Z</time>
      </trkpt>
      <trkpt lat="42.665568" lon="-5.607465">
        <ele>847.632</ele>
        <time>1999-07-20T09:53:49Z</time>
      </trkpt>
      <trkpt lat="42.665701" lon="-5.607257">
        <ele>847.459</ele>
        <time>1999-07-20T09:53:52Z</time>
      </trkpt>
      <trkpt lat="42.665757" lon="-5.607201">
        <ele>847.274</ele>
        <time>1999-07-20T09:53:53Z</time>
      </trkpt>
      <trkpt lat="42.665985" lon="-5.606978">
        <ele>846.872</ele>
        <time>1999-07-20T09:53:57Z</time>
      </trkpt>
      <trkpt lat="42.666043" lon="-5.606929">
        <ele>846.613</ele>
        <time>1999-07-20T09:53:58Z</time>
      </trkpt>
      <trkpt lat="42.666156" lon="-5.606837">
        <ele>846.614</ele>
        <time>1999-07-20T09:54:00Z</time>
      </trkpt>
      <trkpt lat="42.666202" lon="-5.606793">
        <ele>846.408</ele>
        <time>1999-07-20T09:54:01Z</time>
      </trkpt>
      <trkpt lat="42.666272" lon="-5.606711">
        <ele>846.230</ele>
        <time>1999-07-20T09:54:03Z</time>
      </trkpt>
      <trkpt lat="42.666343" lon="-5.606624">
        <ele>846.225</ele>
        <time>1999-07-20T09:54:06Z</time>
      </trkpt>
      <trkpt lat="42.666386" lon="-5.606569">
        <ele>846.245</ele>
        <time>1999-07-20T09:54:08Z</time>
      </trkpt>
      <trkpt lat="42.666589" lon="-5.606449">
        <ele>846.683</ele>
        <time>1999-07-20T09:54:14Z</time>
      </trkpt>
      <trkpt lat="42.666746" lon="-5.606413">
        <ele>847.231</ele>
        <time>1999-07-20T09:54:18Z</time>
      </trkpt>
      <trkpt lat="42.666786" lon="-5.606406">
        <ele>847.667</ele>
        <time>1999-07-20T09:54:19Z</time>
      </trkpt>
      <trkpt lat="42.666865" lon="-5.606402">
        <ele>848.074</ele>
        <time>1999-07-20T09:54:21Z</time>
      </trkpt>
      <trkpt lat="42.666935" lon="-5.606392">
        <ele>848.899</ele>
        <time>1999-07-20T09:54:23Z</time>
      </trkpt>
      <trkpt lat="42.667084" lon="-5.606373">
        <ele>850.023</ele>
        <time>1999-07-20T09:54:27Z</time>
      </trkpt>
      <trkpt lat="42.667231" lon="-5.606365">
        <ele>851.083</ele>
        <time>1999-07-20T09:54:31Z</time>
      </trkpt>
      <trkpt lat="42.667351" lon="-5.606375">
        <ele>851.811</ele>
        <time>1999-07-20T09:54:34Z</time>
      </trkpt>
      <trkpt lat="42.667434" lon="-5.606388">
        <ele>852.408</ele>
        <time>1999-07-20T09:54:36Z</time>
      </trkpt>
      <trkpt lat="42.667600" lon="-5.606416">
        <ele>853.245</ele>
        <time>1999-07-20T09:54:40Z</time>
      </trkpt>
      <trkpt lat="42.667763" lon="-5.606439">
        <ele>854.070</ele>
        <time>1999-07-20T09:54:44Z</time>
      </trkpt>
      <trkpt lat="42.667802" lon="-5.606441">
        <ele>854.280</ele>
        <time>1999-07-20T09:54:45Z</time>
      </trkpt>
      <trkpt lat="42.667949" lon="-5.606451">
        <ele>855.658</ele>
        <time>1999-07-20T09:54:49Z</time>
      </trkpt>
      <trkpt lat="42.667988" lon="-5.606453">
        <ele>855.826</ele>
        <time>1999-07-20T09:54:50Z</time>
      </trkpt>
      <trkpt lat="42.668069" lon="-5.606452">
        <ele>856.852</ele>
        <time>1999-07-20T09:54:52Z</time>
      </trkpt>
      <trkpt lat="42.668205" lon="-5.606457">
        <ele>857.639</ele>
        <time>1999-07-20T09:54:55Z</time>
      </trkpt>
      <trkpt lat="42.668300" lon="-5.606486">
        <ele>858.034</ele>
        <time>1999-07-20T09:54:57Z</time>
      </trkpt>
      <trkpt lat="42.668386" lon="-5.606523">
        <ele>858.465</ele>
        <time>1999-07-20T09:54:59Z</time>
      </trkpt>
      <trkpt lat="42.668440" lon="-5.606571">
        <ele>858.668</ele>
        <time>1999-07-20T09:55:01Z</time>
      </trkpt>
      <trkpt lat="42.668491" lon="-5.606665">
        <ele>858.614</ele>
        <time>1999-07-20T09:55:04Z</time>
      </trkpt>
      <trkpt lat="42.668548" lon="-5.606785">
        <ele>858.808</ele>
        <time>1999-07-20T09:55:07Z</time>
      </trkpt>
      <trkpt lat="42.668707" lon="-5.607118">
        <ele>859.049</ele>
        <time>1999-07-20T09:55:14Z</time>
      </trkpt>
      <trkpt lat="42.668732" lon="-5.607153">
        <ele>859.034</ele>
        <time>1999-07-20T09:55:15Z</time>
      </trkpt>
      <trkpt lat="42.668756" lon="-5.607181">
        <ele>859.074</ele>
        <time>1999-07-20T09:55:16Z</time>
      </trkpt>
      <trkpt lat="42.668869" lon="-5.607251">
        <ele>859.472</ele>
        <time>1999-07-20T09:55:20Z</time>
      </trkpt>
      <trkpt lat="42.668992" lon="-5.607383">
        <ele>860.290</ele>
        <time>1999-07-20T09:55:25Z</time>
      </trkpt>
      <trkpt lat="42.669008" lon="-5.607418">
        <ele>860.636</ele>
        <time>1999-07-20T09:55:26Z</time>
      </trkpt>
      <trkpt lat="42.669043" lon="-5.607490">
        <ele>861.663</ele>
        <time>1999-07-20T09:55:28Z</time>
      </trkpt>
      <trkpt lat="42.669118" lon="-5.607645">
        <ele>862.858</ele>
        <time>1999-07-20T09:55:32Z</time>
      </trkpt>
      <trkpt lat="42.669200" lon="-5.607790">
        <ele>864.017</ele>
        <time>1999-07-20T09:55:36Z</time>
      </trkpt>
      <trkpt lat="42.669345" lon="-5.607892">
        <ele>864.887</ele>
        <time>1999-07-20T09:55:41Z</time>
      </trkpt>
      <trkpt lat="42.669409" lon="-5.607891">
        <ele>865.015</ele>
        <time>1999-07-20T09:55:43Z</time>
      </trkpt>
      <trkpt lat="42.669492" lon="-5.607869">
        <ele>865.808</ele>
        <time>1999-07-20T09:55:46Z</time>
      </trkpt>
      <trkpt lat="42.669544" lon="-5.607840">
        <ele>866.254</ele>
        <time>1999-07-20T09:55:48Z</time>
      </trkpt>
      <trkpt lat="42.669618" lon="-5.607805">
        <ele>867.219</ele>
        <time>1999-07-20T09:55:51Z</time>
      </trkpt>
      <trkpt lat="42.669689" lon="-5.607763">
        <ele>868.459</ele>
        <time>1999-07-20T09:55:54Z</time>
      </trkpt>
      <trkpt lat="42.669763" lon="-5.607720">
        <ele>869.677</ele>
        <time>1999-07-20T09:55:57Z</time>
      </trkpt>
      <trkpt lat="42.669836" lon="-5.607679">
        <ele>870.845</ele>
        <time>1999-07-20T09:56:00Z</time>
      </trkpt>
      <trkpt lat="42.669885" lon="-5.607649">
        <ele>872.091</ele>
        <time>1999-07-20T09:56:02Z</time>
      </trkpt>
      <trkpt lat="42.669938" lon="-5.607622">
        <ele>872.698</ele>
        <time>1999-07-20T09:56:04Z</time>
      </trkpt>
      <trkpt lat="42.669990" lon="-5.607598">
        <ele>873.293</ele>
        <time>1999-07-20T09:56:06Z</time>
      </trkpt>
      <trkpt lat="42.670091" lon="-5.607551">
        <ele>874.248</ele>
        <time>1999-07-20T09:56:10Z</time>
      </trkpt>
      <trkpt lat="42.670164" lon="-5.607505">
        <ele>875.261</ele>
        <time>1999-07-20T09:56:13Z</time>
      </trkpt>
      <trkpt lat="42.670188" lon="-5.607489">
        <ele>875.417</ele>
        <time>1999-07-20T09:56:14Z</time>
      </trkpt>
      <trkpt lat="42.670347" lon="-5.607373">
        <ele>876.608</ele>
        <time>1999-07-20T09:56:21Z</time>
      </trkpt>
      <trkpt lat="42.670411" lon="-5.607311">
        <ele>877.827</ele>
        <time>1999-07-20T09:56:24Z</time>
      </trkpt>
      <trkpt lat="42.670472" lon="-5.607253">
        <ele>878.632</ele>
        <time>1999-07-20T09:56:27Z</time>
      </trkpt>
      <trkpt lat="42.670497" lon="-5.607243">
        <ele>879.232</ele>
        <time>1999-07-20T09:56:28Z</time>
      </trkpt>
      <trkpt lat="42.670623" lon="-5.607212">
        <ele>880.470</ele>
        <time>1999-07-20T09:56:33Z</time>
      </trkpt>
      <trkpt lat="42.670696" lon="-5.607204">
        <ele>881.238</ele>
        <time>1999-07-20T09:56:36Z</time>
      </trkpt>
      <trkpt lat="42.670721" lon="-5.607207">
        <ele>881.494</ele>
        <time>1999-07-20T09:56:37Z</time>
      </trkpt>
      <trkpt lat="42.670820" lon="-5.607206">
        <ele>882.831</ele>
        <time>1999-07-20T09:56:41Z</time>
      </trkpt>
      <trkpt lat="42.670894" lon="-5.607220">
        <ele>883.686</ele>
        <time>1999-07-20T09:56:44Z</time>
      </trkpt>
      <trkpt lat="42.670919" lon="-5.607229">
        <ele>883.896</ele>
        <time>1999-07-20T09:56:45Z</time>
      </trkpt>
      <trkpt lat="42.671021" lon="-5.607269">
        <ele>885.031</ele>
        <time>1999-07-20T09:56:49Z</time>
      </trkpt>
      <trkpt lat="42.671120" lon="-5.607300">
        <ele>886.024</ele>
        <time>1999-07-20T09:56:53Z</time>
      </trkpt>
      <trkpt lat="42.671212" lon="-5.607337">
        <ele>887.608</ele>
        <time>1999-07-20T09:56:57Z</time>
      </trkpt>
      <trkpt lat="42.671279" lon="-5.607349">
        <ele>888.822</ele>
        <time>1999-07-20T09:57:00Z</time>
      </trkpt>
      <trkpt lat="42.671359" lon="-5.607382">
        <ele>890.027</ele>
        <time>1999-07-20T09:57:04Z</time>
      </trkpt>
      <trkpt lat="42.671425" lon="-5.607388">
        <ele>891.257</ele>
        <time>1999-07-20T09:57:07Z</time>
      </trkpt>
      <trkpt lat="42.671517" lon="-5.607392">
        <ele>892.235</ele>
        <time>1999-07-20T09:57:11Z</time>
      </trkpt>
      <trkpt lat="42.671637" lon="-5.607400">
        <ele>893.473</ele>
        <time>1999-07-20T09:57:16Z</time>
      </trkpt>
      <trkpt lat="42.671715" lon="-5.607383">
        <ele>894.479</ele>
        <time>1999-07-20T09:57:20Z</time>
      </trkpt>
      <trkpt lat="42.671773" lon="-5.607374">
        <ele>895.616</ele>
        <time>1999-07-20T09:57:23Z</time>
      </trkpt>
      <trkpt lat="42.671833" lon="-5.607376">
        <ele>896.841</ele>
        <time>1999-07-20T09:57:26Z</time>
      </trkpt>
      <trkpt lat="42.671919" lon="-5.607374">
        <ele>898.044</ele>
        <time>1999-07-20T09:57:30Z</time>
      </trkpt>
      <trkpt lat="42.671941" lon="-5.607374">
        <ele>898.205</ele>
        <time>1999-07-20T09:57:31Z</time>
      </trkpt>
      <trkpt lat="42.672075" lon="-5.607369">
        <ele>899.215</ele>
        <time>1999-07-20T09:57:37Z</time>
      </trkpt>
      <trkpt lat="42.672113" lon="-5.607362">
        <ele>899.608</ele>
        <time>1999-07-20T09:57:39Z</time>
      </trkpt>
      <trkpt lat="42.672170" lon="-5.607365">
        <ele>900.257</ele>
        <time>1999-07-20T09:57:42Z</time>
      </trkpt>
      <trkpt lat="42.672223" lon="-5.607362">
        <ele>900.812</ele>
        <time>1999-07-20T09:57:45Z</time>
      </trkpt>
      <trkpt lat="42.672261" lon="-5.607359">
        <ele>901.232</ele>
        <time>1999-07-20T09:57:47Z</time>
      </trkpt>
      <trkpt lat="42.672361" lon="-5.607366">
        <ele>902.450</ele>
        <time>1999-07-20T09:57:51Z</time>
      </trkpt>
      <trkpt lat="42.672551" lon="-5.607366">
        <ele>903.238</ele>
        <time>1999-07-20T09:57:58Z</time>
      </trkpt>
      <trkpt lat="42.672636" lon="-5.607383">
        <ele>903.494</ele>
        <time>1999-07-20T09:58:01Z</time>
      </trkpt>
      <trkpt lat="42.672832" lon="-5.607420">
        <ele>904.661</ele>
        <time>1999-07-20T09:58:08Z</time>
      </trkpt>
      <trkpt lat="42.672960" lon="-5.607492">
        <ele>905.886</ele>
        <time>1999-07-20T09:58:13Z</time>
      </trkpt>
      <trkpt lat="42.673007" lon="-5.607542">
        <ele>906.472</ele>
        <time>1999-07-20T09:58:15Z</time>
      </trkpt>
      <trkpt lat="42.673053" lon="-5.607592">
        <ele>907.013</ele>
        <time>1999-07-20T09:58:17Z</time>
      </trkpt>
      <trkpt lat="42.673171" lon="-5.607714">
        <ele>908.214</ele>
        <time>1999-07-20T09:58:22Z</time>
      </trkpt>
      <trkpt lat="42.673252" lon="-5.607790">
        <ele>908.808</ele>
        <time>1999-07-20T09:58:25Z</time>
      </trkpt>
      <trkpt lat="42.673314" lon="-5.607834">
        <ele>909.280</ele>
        <time>1999-07-20T09:58:27Z</time>
      </trkpt>
      <trkpt lat="42.673505" lon="-5.607975">
        <ele>910.485</ele>
        <time>1999-07-20T09:58:33Z</time>
      </trkpt>
      <trkpt lat="42.673537" lon="-5.607997">
        <ele>910.635</ele>
        <time>1999-07-20T09:58:34Z</time>
      </trkpt>
      <trkpt lat="42.673738" lon="-5.608104">
        <ele>911.473</ele>
        <time>1999-07-20T09:58:40Z</time>
      </trkpt>
      <trkpt lat="42.673809" lon="-5.608135">
        <ele>911.871</ele>
        <time>1999-07-20T09:58:42Z</time>
      </trkpt>
      <trkpt lat="42.673983" lon="-5.608212">
        <ele>912.687</ele>
        <time>1999-07-20T09:58:47Z</time>
      </trkpt>
      <trkpt lat="42.674082" lon="-5.608275">
        <ele>912.834</ele>
        <time>1999-07-20T09:58:50Z</time>
      </trkpt>
      <trkpt lat="42.674201" lon="-5.608376">
        <ele>913.629</ele>
        <time>1999-07-20T09:58:54Z</time>
      </trkpt>
      <trkpt lat="42.674305" lon="-5.608502">
        <ele>914.616</ele>
        <time>1999-07-20T09:58:58Z</time>
      </trkpt>
      <trkpt lat="42.674428" lon="-5.608660">
        <ele>915.876</ele>
        <time>1999-07-20T09:59:03Z</time>
      </trkpt>
      <trkpt lat="42.674541" lon="-5.608768">
        <ele>916.813</ele>
        <time>1999-07-20T09:59:07Z</time>
      </trkpt>
      <trkpt lat="42.674572" lon="-5.608792">
        <ele>917.008</ele>
        <time>1999-07-20T09:59:08Z</time>
      </trkpt>
      <trkpt lat="42.674748" lon="-5.608843">
        <ele>918.254</ele>
        <time>1999-07-20T09:59:13Z</time>
      </trkpt>
      <trkpt lat="42.674982" lon="-5.608802">
        <ele>919.449</ele>
        <time>1999-07-20T09:59:20Z</time>
      </trkpt>
      <trkpt lat="42.675155" lon="-5.608811">
        <ele>920.629</ele>
        <time>1999-07-20T09:59:25Z</time>
      </trkpt>
      <trkpt lat="42.675255" lon="-5.608837">
        <ele>921.297</ele>
        <time>1999-07-20T09:59:28Z</time>
      </trkpt>
      <trkpt lat="42.675356" lon="-5.608870">
        <ele>921.855</ele>
        <time>1999-07-20T09:59:31Z</time>
      </trkpt>
      <trkpt lat="42.675484" lon="-5.608930">
        <ele>923.041</ele>
        <time>1999-07-20T09:59:35Z</time>
      </trkpt>
      <trkpt lat="42.675517" lon="-5.608947">
        <ele>923.228</ele>
        <time>1999-07-20T09:59:36Z</time>
      </trkpt>
      <trkpt lat="42.675587" lon="-5.608951">
        <ele>923.853</ele>
        <time>1999-07-20T09:59:38Z</time>
      </trkpt>
      <trkpt lat="42.675623" lon="-5.608935">
        <ele>924.027</ele>
        <time>1999-07-20T09:59:39Z</time>
      </trkpt>
      <trkpt lat="42.675653" lon="-5.608911">
        <ele>924.268</ele>
        <time>1999-07-20T09:59:40Z</time>
      </trkpt>
      <trkpt lat="42.675807" lon="-5.608772">
        <ele>925.214</ele>
        <time>1999-07-20T09:59:45Z</time>
      </trkpt>
      <trkpt lat="42.675913" lon="-5.608716">
        <ele>925.808</ele>
        <time>1999-07-20T09:59:48Z</time>
      </trkpt>
      <trkpt lat="42.675985" lon="-5.608687">
        <ele>926.215</ele>
        <time>1999-07-20T09:59:50Z</time>
      </trkpt>
      <trkpt lat="42.676227" lon="-5.608603">
        <ele>926.650</ele>
        <time>1999-07-20T09:59:57Z</time>
      </trkpt>
      <trkpt lat="42.676369" lon="-5.608599">
        <ele>927.250</ele>
        <time>1999-07-20T10:00:01Z</time>
      </trkpt>
      <trkpt lat="42.676440" lon="-5.608600">
        <ele>927.628</ele>
        <time>1999-07-20T10:00:03Z</time>
      </trkpt>
      <trkpt lat="42.676581" lon="-5.608602">
        <ele>928.416</ele>
        <time>1999-07-20T10:00:07Z</time>
      </trkpt>
      <trkpt lat="42.676782" lon="-5.608628">
        <ele>929.082</ele>
        <time>1999-07-20T10:00:13Z</time>
      </trkpt>
      <trkpt lat="42.676883" lon="-5.608657">
        <ele>929.419</ele>
        <time>1999-07-20T10:00:16Z</time>
      </trkpt>
      <trkpt lat="42.677044" lon="-5.608712">
        <ele>930.664</ele>
        <time>1999-07-20T10:00:21Z</time>
      </trkpt>
      <trkpt lat="42.677077" lon="-5.608728">
        <ele>930.826</ele>
        <time>1999-07-20T10:00:22Z</time>
      </trkpt>
      <trkpt lat="42.677219" lon="-5.608816">
        <ele>931.847</ele>
        <time>1999-07-20T10:00:26Z</time>
      </trkpt>
      <trkpt lat="42.677291" lon="-5.608862">
        <ele>932.211</ele>
        <time>1999-07-20T10:00:28Z</time>
      </trkpt>
      <trkpt lat="42.677434" lon="-5.608963">
        <ele>932.408</ele>
        <time>1999-07-20T10:00:32Z</time>
      </trkpt>
      <trkpt lat="42.677502" lon="-5.609017">
        <ele>932.625</ele>
        <time>1999-07-20T10:00:34Z</time>
      </trkpt>
      <trkpt lat="42.677557" lon="-5.609067">
        <ele>932.620</ele>
        <time>1999-07-20T10:00:36Z</time>
      </trkpt>
      <trkpt lat="42.677580" lon="-5.609088">
        <ele>932.640</ele>
        <time>1999-07-20T10:00:37Z</time>
      </trkpt>
      <trkpt lat="42.677659" lon="-5.609155">
        <ele>932.828</ele>
        <time>1999-07-20T10:00:41Z</time>
      </trkpt>
      <trkpt lat="42.677740" lon="-5.609218">
        <ele>933.016</ele>
        <time>1999-07-20T10:00:44Z</time>
      </trkpt>
      <trkpt lat="42.677966" lon="-5.609380">
        <ele>933.822</ele>
        <time>1999-07-20T10:00:52Z</time>
      </trkpt>
      <trkpt lat="42.678100" lon="-5.609498">
        <ele>934.239</ele>
        <time>1999-07-20T10:00:58Z</time>
      </trkpt>
      <trkpt lat="42.678178" lon="-5.609608">
        <ele>935.034</ele>
        <time>1999-07-20T10:01:02Z</time>
      </trkpt>
      <trkpt lat="42.678281" lon="-5.609752">
        <ele>935.827</ele>
        <time>1999-07-20T10:01:07Z</time>
      </trkpt>
      <trkpt lat="42.678342" lon="-5.609823">
        <ele>936.068</ele>
        <time>1999-07-20T10:01:10Z</time>
      </trkpt>
      <trkpt lat="42.678396" lon="-5.609882">
        <ele>936.614</ele>
        <time>1999-07-20T10:01:13Z</time>
      </trkpt>
      <trkpt lat="42.678420" lon="-5.609899">
        <ele>936.608</ele>
        <time>1999-07-20T10:01:18Z</time>
      </trkpt>
      <trkpt lat="42.678423" lon="-5.609900">
        <ele>936.835</ele>
        <time>1999-07-20T10:01:20Z</time>
      </trkpt>
      <trkpt lat="42.678446" lon="-5.609949">
        <ele>937.090</ele>
        <time>1999-07-20T10:02:10Z</time>
      </trkpt>
      <trkpt lat="42.678469" lon="-5.609984">
        <ele>937.030</ele>
        <time>1999-07-20T10:02:11Z</time>
      </trkpt>
      <trkpt lat="42.678573" lon="-5.610121">
        <ele>937.028</ele>
        <time>1999-07-20T10:02:14Z</time>
      </trkpt>
      <trkpt lat="42.678620" lon="-5.610177">
        <ele>937.016</ele>
        <time>1999-07-20T10:02:15Z</time>
      </trkpt>
      <trkpt lat="42.678819" lon="-5.610349">
        <ele>936.622</ele>
        <time>1999-07-20T10:02:18Z</time>
      </trkpt>
      <trkpt lat="42.678904" lon="-5.610399">
        <ele>936.629</ele>
        <time>1999-07-20T10:02:19Z</time>
      </trkpt>
      <trkpt lat="42.679240" lon="-5.610586">
        <ele>935.284</ele>
        <time>1999-07-20T10:02:23Z</time>
      </trkpt>
      <trkpt lat="42.679302" lon="-5.610649">
        <ele>934.639</ele>
        <time>1999-07-20T10:02:24Z</time>
      </trkpt>
      <trkpt lat="42.679423" lon="-5.610786">
        <ele>933.401</ele>
        <time>1999-07-20T10:02:26Z</time>
      </trkpt>
      <trkpt lat="42.679482" lon="-5.610863">
        <ele>932.821</ele>
        <time>1999-07-20T10:02:27Z</time>
      </trkpt>
      <trkpt lat="42.679602" lon="-5.611019">
        <ele>932.208</ele>
        <time>1999-07-20T10:02:29Z</time>
      </trkpt>
      <trkpt lat="42.679803" lon="-5.611378">
        <ele>931.876</ele>
        <time>1999-07-20T10:02:33Z</time>
      </trkpt>
      <trkpt lat="42.679863" lon="-5.611461">
        <ele>931.661</ele>
        <time>1999-07-20T10:02:34Z</time>
      </trkpt>
      <trkpt lat="42.680001" lon="-5.611621">
        <ele>931.021</ele>
        <time>1999-07-20T10:02:36Z</time>
      </trkpt>
      <trkpt lat="42.680076" lon="-5.611699">
        <ele>930.829</ele>
        <time>1999-07-20T10:02:37Z</time>
      </trkpt>
      <trkpt lat="42.680229" lon="-5.611868">
        <ele>930.077</ele>
        <time>1999-07-20T10:02:39Z</time>
      </trkpt>
      <trkpt lat="42.680402" lon="-5.612070">
        <ele>928.653</ele>
        <time>1999-07-20T10:02:41Z</time>
      </trkpt>
      <trkpt lat="42.680505" lon="-5.612166">
        <ele>928.030</ele>
        <time>1999-07-20T10:02:42Z</time>
      </trkpt>
      <trkpt lat="42.680612" lon="-5.612250">
        <ele>927.465</ele>
        <time>1999-07-20T10:02:43Z</time>
      </trkpt>
      <trkpt lat="42.680853" lon="-5.612347">
        <ele>926.098</ele>
        <time>1999-07-20T10:02:45Z</time>
      </trkpt>
      <trkpt lat="42.680972" lon="-5.612401">
        <ele>925.215</ele>
        <time>1999-07-20T10:02:46Z</time>
      </trkpt>
      <trkpt lat="42.681089" lon="-5.612477">
        <ele>924.026</ele>
        <time>1999-07-20T10:02:47Z</time>
      </trkpt>
      <trkpt lat="42.681201" lon="-5.612572">
        <ele>923.008</ele>
        <time>1999-07-20T10:02:48Z</time>
      </trkpt>
      <trkpt lat="42.681308" lon="-5.612667">
        <ele>921.822</ele>
        <time>1999-07-20T10:02:49Z</time>
      </trkpt>
      <trkpt lat="42.681413" lon="-5.612751">
        <ele>920.267</ele>
        <time>1999-07-20T10:02:50Z</time>
      </trkpt>
      <trkpt lat="42.681521" lon="-5.612829">
        <ele>919.017</ele>
        <time>1999-07-20T10:02:51Z</time>
      </trkpt>
      <trkpt lat="42.681628" lon="-5.612898">
        <ele>917.485</ele>
        <time>1999-07-20T10:02:52Z</time>
      </trkpt>
      <trkpt lat="42.681730" lon="-5.612978">
        <ele>916.043</ele>
        <time>1999-07-20T10:02:53Z</time>
      </trkpt>
      <trkpt lat="42.681824" lon="-5.613079">
        <ele>915.019</ele>
        <time>1999-07-20T10:02:54Z</time>
      </trkpt>
      <trkpt lat="42.681923" lon="-5.613185">
        <ele>914.096</ele>
        <time>1999-07-20T10:02:55Z</time>
      </trkpt>
      <trkpt lat="42.682017" lon="-5.613299">
        <ele>912.861</ele>
        <time>1999-07-20T10:02:56Z</time>
      </trkpt>
      <trkpt lat="42.682113" lon="-5.613408">
        <ele>911.488</ele>
        <time>1999-07-20T10:02:57Z</time>
      </trkpt>
      <trkpt lat="42.682211" lon="-5.613510">
        <ele>910.224</ele>
        <time>1999-07-20T10:02:58Z</time>
      </trkpt>
      <trkpt lat="42.682307" lon="-5.613607">
        <ele>908.626</ele>
        <time>1999-07-20T10:02:59Z</time>
      </trkpt>
      <trkpt lat="42.682406" lon="-5.613697">
        <ele>906.808</ele>
        <time>1999-07-20T10:03:00Z</time>
      </trkpt>
      <trkpt lat="42.682503" lon="-5.613781">
        <ele>905.271</ele>
        <time>1999-07-20T10:03:01Z</time>
      </trkpt>
      <trkpt lat="42.682602" lon="-5.613858">
        <ele>903.626</ele>
        <time>1999-07-20T10:03:02Z</time>
      </trkpt>
      <trkpt lat="42.682702" lon="-5.613930">
        <ele>902.246</ele>
        <time>1999-07-20T10:03:03Z</time>
      </trkpt>
      <trkpt lat="42.682883" lon="-5.614075">
        <ele>900.224</ele>
        <time>1999-07-20T10:03:05Z</time>
      </trkpt>
      <trkpt lat="42.682970" lon="-5.614142">
        <ele>899.012</ele>
        <time>1999-07-20T10:03:06Z</time>
      </trkpt>
      <trkpt lat="42.683135" lon="-5.614248">
        <ele>896.618</ele>
        <time>1999-07-20T10:03:08Z</time>
      </trkpt>
      <trkpt lat="42.683212" lon="-5.614296">
        <ele>896.285</ele>
        <time>1999-07-20T10:03:09Z</time>
      </trkpt>
      <trkpt lat="42.683409" lon="-5.614447">
        <ele>895.620</ele>
        <time>1999-07-20T10:03:12Z</time>
      </trkpt>
      <trkpt lat="42.683466" lon="-5.614514">
        <ele>895.465</ele>
        <time>1999-07-20T10:03:13Z</time>
      </trkpt>
      <trkpt lat="42.683677" lon="-5.614851">
        <ele>895.268</ele>
        <time>1999-07-20T10:03:17Z</time>
      </trkpt>
      <trkpt lat="42.683733" lon="-5.614933">
        <ele>895.214</ele>
        <time>1999-07-20T10:03:18Z</time>
      </trkpt>
      <trkpt lat="42.683897" lon="-5.615151">
        <ele>895.008</ele>
        <time>1999-07-20T10:03:21Z</time>
      </trkpt>
      <trkpt lat="42.684028" lon="-5.615217">
        <ele>894.829</ele>
        <time>1999-07-20T10:03:23Z</time>
      </trkpt>
      <trkpt lat="42.684161" lon="-5.615237">
        <ele>894.824</ele>
        <time>1999-07-20T10:03:25Z</time>
      </trkpt>
      <trkpt lat="42.684282" lon="-5.615268">
        <ele>894.834</ele>
        <time>1999-07-20T10:03:27Z</time>
      </trkpt>
      <trkpt lat="42.684532" lon="-5.615340">
        <ele>894.812</ele>
        <time>1999-07-20T10:03:31Z</time>
      </trkpt>
      <trkpt lat="42.684683" lon="-5.615349">
        <ele>894.840</ele>
        <time>1999-07-20T10:03:33Z</time>
      </trkpt>
      <trkpt lat="42.685039" lon="-5.615407">
        <ele>895.076</ele>
        <time>1999-07-20T10:03:38Z</time>
      </trkpt>
      <trkpt lat="42.685120" lon="-5.615426">
        <ele>895.053</ele>
        <time>1999-07-20T10:03:39Z</time>
      </trkpt>
      <trkpt lat="42.685481" lon="-5.615449">
        <ele>894.888</ele>
        <time>1999-07-20T10:03:43Z</time>
      </trkpt>
      <trkpt lat="42.685671" lon="-5.615428">
        <ele>894.462</ele>
        <time>1999-07-20T10:03:45Z</time>
      </trkpt>
      <trkpt lat="42.685860" lon="-5.615414">
        <ele>893.683</ele>
        <time>1999-07-20T10:03:47Z</time>
      </trkpt>
      <trkpt lat="42.685954" lon="-5.615414">
        <ele>893.011</ele>
        <time>1999-07-20T10:03:48Z</time>
      </trkpt>
      <trkpt lat="42.686046" lon="-5.615411">
        <ele>892.208</ele>
        <time>1999-07-20T10:03:49Z</time>
      </trkpt>
      <trkpt lat="42.686135" lon="-5.615395">
        <ele>891.629</ele>
        <time>1999-07-20T10:03:50Z</time>
      </trkpt>
      <trkpt lat="42.686286" lon="-5.615325">
        <ele>890.034</ele>
        <time>1999-07-20T10:03:52Z</time>
      </trkpt>
      <trkpt lat="42.686392" lon="-5.615244">
        <ele>889.284</ele>
        <time>1999-07-20T10:03:54Z</time>
      </trkpt>
      <trkpt lat="42.686477" lon="-5.615181">
        <ele>889.032</ele>
        <time>1999-07-20T10:03:56Z</time>
      </trkpt>
      <trkpt lat="42.686519" lon="-5.615159">
        <ele>889.040</ele>
        <time>1999-07-20T10:03:57Z</time>
      </trkpt>
      <trkpt lat="42.686708" lon="-5.615134">
        <ele>889.076</ele>
        <time>1999-07-20T10:04:01Z</time>
      </trkpt>
      <trkpt lat="42.686964" lon="-5.615105">
        <ele>889.483</ele>
        <time>1999-07-20T10:04:05Z</time>
      </trkpt>
      <trkpt lat="42.687199" lon="-5.615074">
        <ele>889.818</ele>
        <time>1999-07-20T10:04:09Z</time>
      </trkpt>
      <trkpt lat="42.687258" lon="-5.615059">
        <ele>890.062</ele>
        <time>1999-07-20T10:04:10Z</time>
      </trkpt>
      <trkpt lat="42.687371" lon="-5.615015">
        <ele>890.083</ele>
        <time>1999-07-20T10:04:12Z</time>
      </trkpt>
      <trkpt lat="42.687470" lon="-5.614963">
        <ele>890.011</ele>
        <time>1999-07-20T10:04:14Z</time>
      </trkpt>
      <trkpt lat="42.687714" lon="-5.614832">
        <ele>890.008</ele>
        <time>1999-07-20T10:04:20Z</time>
      </trkpt>
      <trkpt lat="42.687992" lon="-5.614787">
        <ele>891.019</ele>
        <time>1999-07-20T10:04:26Z</time>
      </trkpt>
      <trkpt lat="42.688050" lon="-5.614770">
        <ele>891.234</ele>
        <time>1999-07-20T10:04:27Z</time>
      </trkpt>
      <trkpt lat="42.688340" lon="-5.614655">
        <ele>891.844</ele>
        <time>1999-07-20T10:04:32Z</time>
      </trkpt>
      <trkpt lat="42.688439" lon="-5.614637">
        <ele>891.812</ele>
        <time>1999-07-20T10:04:35Z</time>
      </trkpt>
      <trkpt lat="42.688523" lon="-5.614705">
        <ele>890.450</ele>
        <time>1999-07-20T10:04:40Z</time>
      </trkpt>
      <trkpt lat="42.688530" lon="-5.614736">
        <ele>889.886</ele>
        <time>1999-07-20T10:04:41Z</time>
      </trkpt>
      <trkpt lat="42.688525" lon="-5.614876">
        <ele>889.283</ele>
        <time>1999-07-20T10:04:44Z</time>
      </trkpt>
      <trkpt lat="42.688452" lon="-5.615211">
        <ele>888.818</ele>
        <time>1999-07-20T10:04:49Z</time>
      </trkpt>
      <trkpt lat="42.688434" lon="-5.615284">
        <ele>888.891</ele>
        <time>1999-07-20T10:04:50Z</time>
      </trkpt>
      <trkpt lat="42.688326" lon="-5.615732">
        <ele>888.881</ele>
        <time>1999-07-20T10:04:56Z</time>
      </trkpt>
      <trkpt lat="42.688307" lon="-5.615793">
        <ele>888.819</ele>
        <time>1999-07-20T10:04:57Z</time>
      </trkpt>
      <trkpt lat="42.688259" lon="-5.615899">
        <ele>889.008</ele>
        <time>1999-07-20T10:04:59Z</time>
      </trkpt>
      <trkpt lat="42.688191" lon="-5.616023">
        <ele>889.072</ele>
        <time>1999-07-20T10:05:02Z</time>
      </trkpt>
      <trkpt lat="42.688110" lon="-5.616164">
        <ele>889.857</ele>
        <time>1999-07-20T10:05:06Z</time>
      </trkpt>
      <trkpt lat="42.688090" lon="-5.616200">
        <ele>890.037</ele>
        <time>1999-07-20T10:05:07Z</time>
      </trkpt>
      <trkpt lat="42.688053" lon="-5.616304">
        <ele>890.865</ele>
        <time>1999-07-20T10:05:10Z</time>
      </trkpt>
      <trkpt lat="42.688044" lon="-5.616331">
        <ele>891.233</ele>
        <time>1999-07-20T10:05:11Z</time>
      </trkpt>
      <trkpt lat="42.688010" lon="-5.616417">
        <ele>892.449</ele>
        <time>1999-07-20T10:05:15Z</time>
      </trkpt>
      <trkpt lat="42.688001" lon="-5.616437">
        <ele>892.646</ele>
        <time>1999-07-20T10:05:16Z</time>
      </trkpt>
      <trkpt lat="42.687976" lon="-5.616498">
        <ele>893.671</ele>
        <time>1999-07-20T10:05:19Z</time>
      </trkpt>
      <trkpt lat="42.687939" lon="-5.616582">
        <ele>894.847</ele>
        <time>1999-07-20T10:05:23Z</time>
      </trkpt>
      <trkpt lat="42.687928" lon="-5.616604">
        <ele>895.229</ele>
        <time>1999-07-20T10:05:24Z</time>
      </trkpt>
      <trkpt lat="42.687888" lon="-5.616672">
        <ele>896.021</ele>
        <time>1999-07-20T10:05:27Z</time>
      </trkpt>
      <trkpt lat="42.687863" lon="-5.616757">
        <ele>897.008</ele>
        <time>1999-07-20T10:05:30Z</time>
      </trkpt>
      <trkpt lat="42.687861" lon="-5.616789">
        <ele>897.217</ele>
        <time>1999-07-20T10:05:31Z</time>
      </trkpt>
      <trkpt lat="42.687900" lon="-5.616893">
        <ele>897.812</ele>
        <time>1999-07-20T10:05:34Z</time>
      </trkpt>
      <trkpt lat="42.687939" lon="-5.616916">
        <ele>897.822</ele>
        <time>1999-07-20T10:05:35Z</time>
      </trkpt>
      <trkpt lat="42.688107" lon="-5.617095">
        <ele>897.820</ele>
        <time>1999-07-20T10:05:39Z</time>
      </trkpt>
      <trkpt lat="42.688151" lon="-5.617146">
        <ele>897.838</ele>
        <time>1999-07-20T10:05:40Z</time>
      </trkpt>
      <trkpt lat="42.688294" lon="-5.617251">
        <ele>897.844</ele>
        <time>1999-07-20T10:05:43Z</time>
      </trkpt>
      <trkpt lat="42.688338" lon="-5.617277">
        <ele>897.621</ele>
        <time>1999-07-20T10:05:44Z</time>
      </trkpt>
      <trkpt lat="42.688537" lon="-5.617412">
        <ele>896.616</ele>
        <time>1999-07-20T10:05:49Z</time>
      </trkpt>
      <trkpt lat="42.688787" lon="-5.617576">
        <ele>896.855</ele>
        <time>1999-07-20T10:05:56Z</time>
      </trkpt>
      <trkpt lat="42.688977" lon="-5.617708">
        <ele>898.007</ele>
        <time>1999-07-20T10:06:02Z</time>
      </trkpt>
      <trkpt lat="42.689011" lon="-5.617729">
        <ele>898.217</ele>
        <time>1999-07-20T10:06:03Z</time>
      </trkpt>
      <trkpt lat="42.689175" lon="-5.617810">
        <ele>898.608</ele>
        <time>1999-07-20T10:06:07Z</time>
      </trkpt>
      <trkpt lat="42.689388" lon="-5.617950">
        <ele>899.088</ele>
        <time>1999-07-20T10:06:13Z</time>
      </trkpt>
      <trkpt lat="42.689470" lon="-5.618004">
        <ele>899.253</ele>
        <time>1999-07-20T10:06:15Z</time>
      </trkpt>
      <trkpt lat="42.689517" lon="-5.618026">
        <ele>899.283</ele>
        <time>1999-07-20T10:06:16Z</time>
      </trkpt>
      <trkpt lat="42.689657" lon="-5.618066">
        <ele>899.211</ele>
        <time>1999-07-20T10:06:19Z</time>
      </trkpt>
      <trkpt lat="42.689744" lon="-5.618100">
        <ele>899.469</ele>
        <time>1999-07-20T10:06:21Z</time>
      </trkpt>
      <trkpt lat="42.689848" lon="-5.618170">
        <ele>899.435</ele>
        <time>1999-07-20T10:06:23Z</time>
      </trkpt>
      <trkpt lat="42.690157" lon="-5.618334">
        <ele>899.442</ele>
        <time>1999-07-20T10:06:28Z</time>
      </trkpt>
      <trkpt lat="42.690325" lon="-5.618408">
        <ele>899.057</ele>
        <time>1999-07-20T10:06:31Z</time>
      </trkpt>
      <trkpt lat="42.690429" lon="-5.618446">
        <ele>898.835</ele>
        <time>1999-07-20T10:06:33Z</time>
      </trkpt>
      <trkpt lat="42.690648" lon="-5.618526">
        <ele>898.886</ele>
        <time>1999-07-20T10:06:38Z</time>
      </trkpt>
      <trkpt lat="42.690815" lon="-5.618674">
        <ele>898.814</ele>
        <time>1999-07-20T10:06:42Z</time>
      </trkpt>
      <trkpt lat="42.690922" lon="-5.618743">
        <ele>899.008</ele>
        <time>1999-07-20T10:06:44Z</time>
      </trkpt>
      <trkpt lat="42.691044" lon="-5.618793">
        <ele>899.096</ele>
        <time>1999-07-20T10:06:46Z</time>
      </trkpt>
      <trkpt lat="42.691285" lon="-5.618855">
        <ele>899.021</ele>
        <time>1999-07-20T10:06:50Z</time>
      </trkpt>
      <trkpt lat="42.691395" lon="-5.618900">
        <ele>898.851</ele>
        <time>1999-07-20T10:06:52Z</time>
      </trkpt>
      <trkpt lat="42.691504" lon="-5.618913">
        <ele>898.639</ele>
        <time>1999-07-20T10:06:54Z</time>
      </trkpt>
      <trkpt lat="42.691599" lon="-5.618929">
        <ele>898.657</ele>
        <time>1999-07-20T10:06:56Z</time>
      </trkpt>
      <trkpt lat="42.691726" lon="-5.618949">
        <ele>898.673</ele>
        <time>1999-07-20T10:06:59Z</time>
      </trkpt>
      <trkpt lat="42.691978" lon="-5.618980">
        <ele>899.080</ele>
        <time>1999-07-20T10:07:05Z</time>
      </trkpt>
      <trkpt lat="42.692241" lon="-5.618980">
        <ele>900.235</ele>
        <time>1999-07-20T10:07:11Z</time>
      </trkpt>
      <trkpt lat="42.692417" lon="-5.618955">
        <ele>900.868</ele>
        <time>1999-07-20T10:07:16Z</time>
      </trkpt>
      <trkpt lat="42.692518" lon="-5.618979">
        <ele>901.242</ele>
        <time>1999-07-20T10:07:19Z</time>
      </trkpt>
      <trkpt lat="42.692595" lon="-5.619003">
        <ele>901.626</ele>
        <time>1999-07-20T10:07:21Z</time>
      </trkpt>
      <trkpt lat="42.692674" lon="-5.619023">
        <ele>902.408</ele>
        <time>1999-07-20T10:07:23Z</time>
      </trkpt>
      <trkpt lat="42.692819" lon="-5.619072">
        <ele>903.069</ele>
        <time>1999-07-20T10:07:27Z</time>
      </trkpt>
      <trkpt lat="42.692856" lon="-5.619081">
        <ele>903.034</ele>
        <time>1999-07-20T10:07:28Z</time>
      </trkpt>
      <trkpt lat="42.692979" lon="-5.619113">
        <ele>903.444</ele>
        <time>1999-07-20T10:07:31Z</time>
      </trkpt>
      <trkpt lat="42.693023" lon="-5.619129">
        <ele>903.672</ele>
        <time>1999-07-20T10:07:32Z</time>
      </trkpt>
      <trkpt lat="42.693059" lon="-5.619152">
        <ele>903.640</ele>
        <time>1999-07-20T10:07:33Z</time>
      </trkpt>
      <trkpt lat="42.693130" lon="-5.619190">
        <ele>903.656</ele>
        <time>1999-07-20T10:07:36Z</time>
      </trkpt>
      <trkpt lat="42.693157" lon="-5.619178">
        <ele>903.683</ele>
        <time>1999-07-20T10:07:37Z</time>
      </trkpt>
      <trkpt lat="42.693215" lon="-5.619154">
        <ele>903.648</ele>
        <time>1999-07-20T10:07:39Z</time>
      </trkpt>
      <trkpt lat="42.693262" lon="-5.619203">
        <ele>903.435</ele>
        <time>1999-07-20T10:07:41Z</time>
      </trkpt>
      <trkpt lat="42.693291" lon="-5.619218">
        <ele>903.486</ele>
        <time>1999-07-20T10:07:42Z</time>
      </trkpt>
      <trkpt lat="42.693361" lon="-5.619222">
        <ele>903.014</ele>
        <time>1999-07-20T10:07:44Z</time>
      </trkpt>
      <trkpt lat="42.693480" lon="-5.619253">
        <ele>902.808</ele>
        <time>1999-07-20T10:07:47Z</time>
      </trkpt>
      <trkpt lat="42.693523" lon="-5.619251">
        <ele>902.876</ele>
        <time>1999-07-20T10:07:48Z</time>
      </trkpt>
      <trkpt lat="42.693646" lon="-5.619266">
        <ele>902.831</ele>
        <time>1999-07-20T10:07:51Z</time>
      </trkpt>
      <trkpt lat="42.693686" lon="-5.619291">
        <ele>902.811</ele>
        <time>1999-07-20T10:07:52Z</time>
      </trkpt>
      <trkpt lat="42.693728" lon="-5.619308">
        <ele>902.889</ele>
        <time>1999-07-20T10:07:53Z</time>
      </trkpt>
      <trkpt lat="42.693838" lon="-5.619304">
        <ele>903.247</ele>
        <time>1999-07-20T10:07:56Z</time>
      </trkpt>
      <trkpt lat="42.693974" lon="-5.619256">
        <ele>903.493</ele>
        <time>1999-07-20T10:08:01Z</time>
      </trkpt>
      <trkpt lat="42.694056" lon="-5.619222">
        <ele>904.690</ele>
        <time>1999-07-20T10:08:05Z</time>
      </trkpt>
      <trkpt lat="42.694111" lon="-5.619201">
        <ele>905.495</ele>
        <time>1999-07-20T10:08:08Z</time>
      </trkpt>
      <trkpt lat="42.694134" lon="-5.619200">
        <ele>905.642</ele>
        <time>1999-07-20T10:08:09Z</time>
      </trkpt>
      <trkpt lat="42.694224" lon="-5.619192">
        <ele>906.822</ele>
        <time>1999-07-20T10:08:12Z</time>
      </trkpt>
      <trkpt lat="42.694263" lon="-5.619184">
        <ele>907.014</ele>
        <time>1999-07-20T10:08:13Z</time>
      </trkpt>
      <trkpt lat="42.694304" lon="-5.619169">
        <ele>907.808</ele>
        <time>1999-07-20T10:08:14Z</time>
      </trkpt>
      <trkpt lat="42.694507" lon="-5.619113">
        <ele>908.217</ele>
        <time>1999-07-20T10:08:18Z</time>
      </trkpt>
      <trkpt lat="42.694613" lon="-5.619093">
        <ele>908.242</ele>
        <time>1999-07-20T10:08:20Z</time>
      </trkpt>
      <trkpt lat="42.694723" lon="-5.619086">
        <ele>908.262</ele>
        <time>1999-07-20T10:08:22Z</time>
      </trkpt>
      <trkpt lat="42.694778" lon="-5.619091">
        <ele>908.280</ele>
        <time>1999-07-20T10:08:23Z</time>
      </trkpt>
      <trkpt lat="42.694939" lon="-5.619133">
        <ele>908.098</ele>
        <time>1999-07-20T10:08:26Z</time>
      </trkpt>
      <trkpt lat="42.695037" lon="-5.619185">
        <ele>907.884</ele>
        <time>1999-07-20T10:08:28Z</time>
      </trkpt>
      <trkpt lat="42.695125" lon="-5.619253">
        <ele>907.621</ele>
        <time>1999-07-20T10:08:30Z</time>
      </trkpt>
      <trkpt lat="42.695229" lon="-5.619382">
        <ele>907.486</ele>
        <time>1999-07-20T10:08:33Z</time>
      </trkpt>
      <trkpt lat="42.695379" lon="-5.619532">
        <ele>907.486</ele>
        <time>1999-07-20T10:08:38Z</time>
      </trkpt>
      <trkpt lat="42.695468" lon="-5.619658">
        <ele>908.060</ele>
        <time>1999-07-20T10:08:43Z</time>
      </trkpt>
      <trkpt lat="42.695556" lon="-5.619730">
        <ele>908.826</ele>
        <time>1999-07-20T10:08:47Z</time>
      </trkpt>
      <trkpt lat="42.695651" lon="-5.619746">
        <ele>909.408</ele>
        <time>1999-07-20T10:08:50Z</time>
      </trkpt>
      <trkpt lat="42.695720" lon="-5.619739">
        <ele>909.891</ele>
        <time>1999-07-20T10:08:52Z</time>
      </trkpt>
      <trkpt lat="42.695864" lon="-5.619684">
        <ele>910.226</ele>
        <time>1999-07-20T10:08:56Z</time>
      </trkpt>
      <trkpt lat="42.695998" lon="-5.619627">
        <ele>910.486</ele>
        <time>1999-07-20T10:08:59Z</time>
      </trkpt>
      <trkpt lat="42.696082" lon="-5.619580">
        <ele>910.614</ele>
        <time>1999-07-20T10:09:01Z</time>
      </trkpt>
      <trkpt lat="42.696250" lon="-5.619542">
        <ele>910.822</ele>
        <time>1999-07-20T10:09:06Z</time>
      </trkpt>
      <trkpt lat="42.696406" lon="-5.619521">
        <ele>910.858</ele>
        <time>1999-07-20T10:09:11Z</time>
      </trkpt>
      <trkpt lat="42.696485" lon="-5.619459">
        <ele>911.015</ele>
        <time>1999-07-20T10:09:14Z</time>
      </trkpt>
      <trkpt lat="42.696572" lon="-5.619374">
        <ele>911.420</ele>
        <time>1999-07-20T10:09:17Z</time>
      </trkpt>
      <trkpt lat="42.696607" lon="-5.619342">
        <ele>911.639</ele>
        <time>1999-07-20T10:09:18Z</time>
      </trkpt>
      <trkpt lat="42.696718" lon="-5.619310">
        <ele>911.601</ele>
        <time>1999-07-20T10:09:20Z</time>
      </trkpt>
      <trkpt lat="42.696927" lon="-5.619391">
        <ele>911.621</ele>
        <time>1999-07-20T10:09:23Z</time>
      </trkpt>
      <trkpt lat="42.696983" lon="-5.619422">
        <ele>911.608</ele>
        <time>1999-07-20T10:09:24Z</time>
      </trkpt>
      <trkpt lat="42.697059" lon="-5.619470">
        <ele>911.646</ele>
        <time>1999-07-20T10:09:26Z</time>
      </trkpt>
      <trkpt lat="42.697138" lon="-5.619534">
        <ele>910.021</ele>
        <time>1999-07-20T10:09:29Z</time>
      </trkpt>
      <trkpt lat="42.697167" lon="-5.619571">
        <ele>909.041</ele>
        <time>1999-07-20T10:09:30Z</time>
      </trkpt>
      <trkpt lat="42.697200" lon="-5.619606">
        <ele>908.099</ele>
        <time>1999-07-20T10:09:31Z</time>
      </trkpt>
      <trkpt lat="42.697259" lon="-5.619668">
        <ele>906.857</ele>
        <time>1999-07-20T10:09:33Z</time>
      </trkpt>
      <trkpt lat="42.697320" lon="-5.619758">
        <ele>906.463</ele>
        <time>1999-07-20T10:09:36Z</time>
      </trkpt>
      <trkpt lat="42.697374" lon="-5.619827">
        <ele>906.410</ele>
        <time>1999-07-20T10:09:39Z</time>
      </trkpt>
      <trkpt lat="42.697400" lon="-5.619855">
        <ele>906.425</ele>
        <time>1999-07-20T10:09:41Z</time>
      </trkpt>
      <trkpt lat="42.697440" lon="-5.619908">
        <ele>907.289</ele>
        <time>1999-07-20T10:09:44Z</time>
      </trkpt>
      <trkpt lat="42.697468" lon="-5.619938">
        <ele>908.006</ele>
        <time>1999-07-20T10:09:46Z</time>
      </trkpt>
      <trkpt lat="42.697509" lon="-5.619982">
        <ele>909.026</ele>
        <time>1999-07-20T10:09:49Z</time>
      </trkpt>
      <trkpt lat="42.697522" lon="-5.619996">
        <ele>909.208</ele>
        <time>1999-07-20T10:09:50Z</time>
      </trkpt>
      <trkpt lat="42.697575" lon="-5.620036">
        <ele>910.431</ele>
        <time>1999-07-20T10:09:53Z</time>
      </trkpt>
      <trkpt lat="42.697609" lon="-5.620073">
        <ele>911.296</ele>
        <time>1999-07-20T10:09:55Z</time>
      </trkpt>
      <trkpt lat="42.697626" lon="-5.620094">
        <ele>911.696</ele>
        <time>1999-07-20T10:09:56Z</time>
      </trkpt>
      <trkpt lat="42.697667" lon="-5.620163">
        <ele>912.894</ele>
        <time>1999-07-20T10:09:59Z</time>
      </trkpt>
      <trkpt lat="42.697685" lon="-5.620225">
        <ele>913.442</ele>
        <time>1999-07-20T10:10:01Z</time>
      </trkpt>
      <trkpt lat="42.697710" lon="-5.620297">
        <ele>914.268</ele>
        <time>1999-07-20T10:10:03Z</time>
      </trkpt>
      <trkpt lat="42.697733" lon="-5.620341">
        <ele>914.655</ele>
        <time>1999-07-20T10:10:04Z</time>
      </trkpt>
      <trkpt lat="42.697767" lon="-5.620385">
        <ele>915.060</ele>
        <time>1999-07-20T10:10:05Z</time>
      </trkpt>
      <trkpt lat="42.698020" lon="-5.620618">
        <ele>915.042</ele>
        <time>1999-07-20T10:10:10Z</time>
      </trkpt>
      <trkpt lat="42.698254" lon="-5.620715">
        <ele>914.822</ele>
        <time>1999-07-20T10:10:13Z</time>
      </trkpt>
      <trkpt lat="42.698329" lon="-5.620730">
        <ele>914.414</ele>
        <time>1999-07-20T10:10:14Z</time>
      </trkpt>
      <trkpt lat="42.698468" lon="-5.620762">
        <ele>912.808</ele>
        <time>1999-07-20T10:10:16Z</time>
      </trkpt>
      <trkpt lat="42.698543" lon="-5.620778">
        <ele>912.087</ele>
        <time>1999-07-20T10:10:17Z</time>
      </trkpt>
      <trkpt lat="42.698620" lon="-5.620794">
        <ele>910.862</ele>
        <time>1999-07-20T10:10:18Z</time>
      </trkpt>
      <trkpt lat="42.698696" lon="-5.620807">
        <ele>909.842</ele>
        <time>1999-07-20T10:10:19Z</time>
      </trkpt>
      <trkpt lat="42.698768" lon="-5.620817">
        <ele>908.440</ele>
        <time>1999-07-20T10:10:20Z</time>
      </trkpt>
      <trkpt lat="42.698833" lon="-5.620822">
        <ele>907.488</ele>
        <time>1999-07-20T10:10:21Z</time>
      </trkpt>
      <trkpt lat="42.698894" lon="-5.620826">
        <ele>906.474</ele>
        <time>1999-07-20T10:10:22Z</time>
      </trkpt>
      <trkpt lat="42.698959" lon="-5.620839">
        <ele>905.081</ele>
        <time>1999-07-20T10:10:23Z</time>
      </trkpt>
      <trkpt lat="42.699090" lon="-5.620908">
        <ele>903.636</ele>
        <time>1999-07-20T10:10:25Z</time>
      </trkpt>
      <trkpt lat="42.699216" lon="-5.621044">
        <ele>902.078</ele>
        <time>1999-07-20T10:10:27Z</time>
      </trkpt>
      <trkpt lat="42.699358" lon="-5.621177">
        <ele>900.033</ele>
        <time>1999-07-20T10:10:29Z</time>
      </trkpt>
      <trkpt lat="42.699509" lon="-5.621289">
        <ele>898.426</ele>
        <time>1999-07-20T10:10:31Z</time>
      </trkpt>
      <trkpt lat="42.699575" lon="-5.621336">
        <ele>896.608</ele>
        <time>1999-07-20T10:10:32Z</time>
      </trkpt>
      <trkpt lat="42.699636" lon="-5.621371">
        <ele>895.420</ele>
        <time>1999-07-20T10:10:33Z</time>
      </trkpt>
      <trkpt lat="42.699753" lon="-5.621412">
        <ele>894.275</ele>
        <time>1999-07-20T10:10:35Z</time>
      </trkpt>
      <trkpt lat="42.699855" lon="-5.621406">
        <ele>893.425</ele>
        <time>1999-07-20T10:10:37Z</time>
      </trkpt>
      <trkpt lat="42.699905" lon="-5.621402">
        <ele>893.073</ele>
        <time>1999-07-20T10:10:38Z</time>
      </trkpt>
      <trkpt lat="42.699952" lon="-5.621413">
        <ele>892.251</ele>
        <time>1999-07-20T10:10:39Z</time>
      </trkpt>
      <trkpt lat="42.700000" lon="-5.621431">
        <ele>891.647</ele>
        <time>1999-07-20T10:10:40Z</time>
      </trkpt>
      <trkpt lat="42.700051" lon="-5.621443">
        <ele>890.684</ele>
        <time>1999-07-20T10:10:41Z</time>
      </trkpt>
      <trkpt lat="42.700146" lon="-5.621465">
        <ele>889.049</ele>
        <time>1999-07-20T10:10:43Z</time>
      </trkpt>
      <trkpt lat="42.700190" lon="-5.621490">
        <ele>887.868</ele>
        <time>1999-07-20T10:10:44Z</time>
      </trkpt>
      <trkpt lat="42.700234" lon="-5.621529">
        <ele>886.842</ele>
        <time>1999-07-20T10:10:45Z</time>
      </trkpt>
      <trkpt lat="42.700284" lon="-5.621560">
        <ele>886.026</ele>
        <time>1999-07-20T10:10:46Z</time>
      </trkpt>
      <trkpt lat="42.700386" lon="-5.621586">
        <ele>884.408</ele>
        <time>1999-07-20T10:10:48Z</time>
      </trkpt>
      <trkpt lat="42.700446" lon="-5.621588">
        <ele>883.859</ele>
        <time>1999-07-20T10:10:49Z</time>
      </trkpt>
      <trkpt lat="42.700509" lon="-5.621593">
        <ele>883.494</ele>
        <time>1999-07-20T10:10:50Z</time>
      </trkpt>
      <trkpt lat="42.700633" lon="-5.621605">
        <ele>882.284</ele>
        <time>1999-07-20T10:10:52Z</time>
      </trkpt>
      <trkpt lat="42.700750" lon="-5.621598">
        <ele>881.292</ele>
        <time>1999-07-20T10:10:54Z</time>
      </trkpt>
      <trkpt lat="42.700875" lon="-5.621652">
        <ele>879.820</ele>
        <time>1999-07-20T10:10:56Z</time>
      </trkpt>
      <trkpt lat="42.700944" lon="-5.621696">
        <ele>879.076</ele>
        <time>1999-07-20T10:10:57Z</time>
      </trkpt>
      <trkpt lat="42.701020" lon="-5.621738">
        <ele>878.463</ele>
        <time>1999-07-20T10:10:58Z</time>
      </trkpt>
      <trkpt lat="42.701181" lon="-5.621831">
        <ele>877.238</ele>
        <time>1999-07-20T10:11:00Z</time>
      </trkpt>
      <trkpt lat="42.701346" lon="-5.621933">
        <ele>876.611</ele>
        <time>1999-07-20T10:11:02Z</time>
      </trkpt>
      <trkpt lat="42.701478" lon="-5.622013">
        <ele>876.021</ele>
        <time>1999-07-20T10:11:04Z</time>
      </trkpt>
      <trkpt lat="42.701504" lon="-5.622027">
        <ele>875.203</ele>
        <time>1999-07-20T10:11:05Z</time>
      </trkpt>
      <trkpt lat="42.701533" lon="-5.622032">
        <ele>874.608</ele>
        <time>1999-07-20T10:11:06Z</time>
      </trkpt>
      <trkpt lat="42.701592" lon="-5.622036">
        <ele>873.634</ele>
        <time>1999-07-20T10:11:08Z</time>
      </trkpt>
      <trkpt lat="42.701645" lon="-5.622034">
        <ele>872.819</ele>
        <time>1999-07-20T10:11:10Z</time>
      </trkpt>
      <trkpt lat="42.701670" lon="-5.622025">
        <ele>872.419</ele>
        <time>1999-07-20T10:11:11Z</time>
      </trkpt>
      <trkpt lat="42.701692" lon="-5.622010">
        <ele>872.087</ele>
        <time>1999-07-20T10:11:12Z</time>
      </trkpt>
      <trkpt lat="42.701740" lon="-5.621975">
        <ele>871.415</ele>
        <time>1999-07-20T10:11:14Z</time>
      </trkpt>
      <trkpt lat="42.701768" lon="-5.621957">
        <ele>871.231</ele>
        <time>1999-07-20T10:11:15Z</time>
      </trkpt>
      <trkpt lat="42.701909" lon="-5.621875">
        <ele>870.828</ele>
        <time>1999-07-20T10:11:20Z</time>
      </trkpt>
      <trkpt lat="42.702021" lon="-5.621802">
        <ele>870.243</ele>
        <time>1999-07-20T10:11:27Z</time>
      </trkpt>
      <trkpt lat="42.702037" lon="-5.621803">
        <ele>870.097</ele>
        <time>1999-07-20T10:11:31Z</time>
      </trkpt>
      <trkpt lat="42.702119" lon="-5.621798">
        <ele>870.023</ele>
        <time>1999-07-20T10:11:45Z</time>
      </trkpt>
      <trkpt lat="42.702172" lon="-5.621792">
        <ele>870.025</ele>
        <time>1999-07-20T10:11:47Z</time>
      </trkpt>
      <trkpt lat="42.702223" lon="-5.621794">
        <ele>869.808</ele>
        <time>1999-07-20T10:11:50Z</time>
      </trkpt>
      <trkpt lat="42.702248" lon="-5.621803">
        <ele>869.472</ele>
        <time>1999-07-20T10:11:52Z</time>
      </trkpt>
      <trkpt lat="42.702256" lon="-5.621810">
        <ele>869.277</ele>
        <time>1999-07-20T10:11:53Z</time>
      </trkpt>
      <trkpt lat="42.702251" lon="-5.621819">
        <ele>868.437</ele>
        <time>1999-07-20T10:11:55Z</time>
      </trkpt>
      <trkpt lat="42.702211" lon="-5.622022">
        <ele>871.845</ele>
        <time>1999-07-20T10:12:48Z</time>
      </trkpt>
      <trkpt lat="42.702214" lon="-5.622003">
        <ele>871.823</ele>
        <time>1999-07-20T10:12:49Z</time>
      </trkpt>
      <trkpt lat="42.702236" lon="-5.621962">
        <ele>871.839</ele>
        <time>1999-07-20T10:12:52Z</time>
      </trkpt>
      <trkpt lat="42.702239" lon="-5.621951">
        <ele>871.496</ele>
        <time>1999-07-20T10:12:54Z</time>
      </trkpt>
      <trkpt lat="42.702240" lon="-5.621950">
        <ele>871.281</ele>
        <time>1999-07-20T10:12:55Z</time>
      </trkpt>
      <trkpt lat="42.702052" lon="-5.622069">
        <ele>866.861</ele>
        <time>1999-07-20T10:13:35Z</time>
      </trkpt>
      <trkpt lat="42.702025" lon="-5.622101">
        <ele>866.821</ele>
        <time>1999-07-20T10:13:36Z</time>
      </trkpt>
      <trkpt lat="42.701903" lon="-5.622226">
        <ele>866.413</ele>
        <time>1999-07-20T10:13:41Z</time>
      </trkpt>
      <trkpt lat="42.701867" lon="-5.622263">
        <ele>866.008</ele>
        <time>1999-07-20T10:13:43Z</time>
      </trkpt>
      <trkpt lat="42.701856" lon="-5.622273">
        <ele>865.619</ele>
        <time>1999-07-20T10:13:44Z</time>
      </trkpt>
      <trkpt lat="42.701848" lon="-5.622274">
        <ele>864.694</ele>
        <time>1999-07-20T10:13:45Z</time>
      </trkpt>
      <trkpt lat="42.701845" lon="-5.622272">
        <ele>863.814</ele>
        <time>1999-07-20T10:13:46Z</time>
      </trkpt>
      <trkpt lat="42.701845" lon="-5.622268">
        <ele>863.262</ele>
        <time>1999-07-20T10:13:47Z</time>
      </trkpt>
      <trkpt lat="42.701970" lon="-5.622167">
        <ele>861.810</ele>
        <time>1999-07-20T10:14:01Z</time>
      </trkpt>
      <trkpt lat="42.701994" lon="-5.622141">
        <ele>862.226</ele>
        <time>1999-07-20T10:14:03Z</time>
      </trkpt>
      <trkpt lat="42.702007" lon="-5.622129">
        <ele>862.643</ele>
        <time>1999-07-20T10:14:04Z</time>
      </trkpt>
      <trkpt lat="42.702020" lon="-5.622114">
        <ele>862.818</ele>
        <time>1999-07-20T10:14:05Z</time>
      </trkpt>
      <trkpt lat="42.702047" lon="-5.622087">
        <ele>863.457</ele>
        <time>1999-07-20T10:14:07Z</time>
      </trkpt>
      <trkpt lat="42.702072" lon="-5.622054">
        <ele>864.000</ele>
        <time>1999-07-20T10:14:10Z</time>
      </trkpt>
      <trkpt lat="42.702078" lon="-5.622046">
        <ele>864.020</ele>
        <time>1999-07-20T10:14:11Z</time>
      </trkpt>
      <trkpt lat="42.702094" lon="-5.622017">
        <ele>864.808</ele>
        <time>1999-07-20T10:14:13Z</time>
      </trkpt>
      <trkpt lat="42.702127" lon="-5.621956">
        <ele>866.028</ele>
        <time>1999-07-20T10:14:17Z</time>
      </trkpt>
      <trkpt lat="42.702134" lon="-5.621940">
        <ele>866.253</ele>
        <time>1999-07-20T10:14:18Z</time>
      </trkpt>
      <trkpt lat="42.702166" lon="-5.621873">
        <ele>867.043</ele>
        <time>1999-07-20T10:14:23Z</time>
      </trkpt>
      <trkpt lat="42.702173" lon="-5.621867">
        <ele>867.031</ele>
        <time>1999-07-20T10:14:24Z</time>
      </trkpt>
      <trkpt lat="42.702185" lon="-5.621864">
        <ele>867.289</ele>
        <time>1999-07-20T10:14:25Z</time>
      </trkpt>
      <trkpt lat="42.702200" lon="-5.621885">
        <ele>867.495</ele>
        <time>1999-07-20T10:14:28Z</time>
      </trkpt>
      <trkpt lat="42.702200" lon="-5.621903">
        <ele>867.442</ele>
        <time>1999-07-20T10:14:30Z</time>
      </trkpt>
      <trkpt lat="42.702178" lon="-5.621963">
        <ele>868.237</ele>
        <time>1999-07-20T10:14:37Z</time>
      </trkpt>
      <trkpt lat="42.702167" lon="-5.622000">
        <ele>869.012</ele>
        <time>1999-07-20T10:14:40Z</time>
      </trkpt>
      <trkpt lat="42.702173" lon="-5.622019">
        <ele>869.432</ele>
        <time>1999-07-20T10:14:41Z</time>
      </trkpt>
      <trkpt lat="42.702181" lon="-5.622078">
        <ele>870.205</ele>
        <time>1999-07-20T10:14:45Z</time>
      </trkpt>
      <trkpt lat="42.702188" lon="-5.622100">
        <ele>870.608</ele>
        <time>1999-07-20T10:14:47Z</time>
      </trkpt>
      <trkpt lat="42.702194" lon="-5.622113">
        <ele>870.834</ele>
        <time>1999-07-20T10:14:48Z</time>
      </trkpt>
      <trkpt lat="42.702215" lon="-5.622171">
        <ele>871.889</ele>
        <time>1999-07-20T10:14:53Z</time>
      </trkpt>
      <trkpt lat="42.702221" lon="-5.622205">
        <ele>872.449</ele>
        <time>1999-07-20T10:14:55Z</time>
      </trkpt>
      <trkpt lat="42.702232" lon="-5.622259">
        <ele>873.097</ele>
        <time>1999-07-20T10:14:58Z</time>
      </trkpt>
      <trkpt lat="42.702254" lon="-5.622346">
        <ele>874.245</ele>
        <time>1999-07-20T10:15:04Z</time>
      </trkpt>
      <trkpt lat="42.702298" lon="-5.622469">
        <ele>875.251</ele>
        <time>1999-07-20T10:15:11Z</time>
      </trkpt>
      <trkpt lat="42.702304" lon="-5.622486">
        <ele>875.438</ele>
        <time>1999-07-20T10:15:12Z</time>
      </trkpt>
      <trkpt lat="42.702335" lon="-5.622573">
        <ele>876.283</ele>
        <time>1999-07-20T10:15:17Z</time>
      </trkpt>
      <trkpt lat="42.702352" lon="-5.622611">
        <ele>876.622</ele>
        <time>1999-07-20T10:15:20Z</time>
      </trkpt>
      <trkpt lat="42.702357" lon="-5.622620">
        <ele>876.862</ele>
        <time>1999-07-20T10:15:22Z</time>
      </trkpt>
      <trkpt lat="42.702409" lon="-5.622555">
        <ele>877.608</ele>
        <time>1999-07-20T10:16:34Z</time>
      </trkpt>
      <trkpt lat="42.702425" lon="-5.622546">
        <ele>877.608</ele>
        <time>1999-07-20T10:16:35Z</time>
      </trkpt>
      <trkpt lat="42.702452" lon="-5.622529">
        <ele>877.695</ele>
        <time>1999-07-20T10:16:37Z</time>
      </trkpt>
      <trkpt lat="42.702464" lon="-5.622519">
        <ele>877.830</ele>
        <time>1999-07-20T10:16:38Z</time>
      </trkpt>
      <trkpt lat="42.702489" lon="-5.622487">
        <ele>878.010</ele>
        <time>1999-07-20T10:16:40Z</time>
      </trkpt>
      <trkpt lat="42.702501" lon="-5.622471">
        <ele>878.278</ele>
        <time>1999-07-20T10:16:41Z</time>
      </trkpt>
      <trkpt lat="42.702525" lon="-5.622441">
        <ele>878.896</ele>
        <time>1999-07-20T10:16:43Z</time>
      </trkpt>
      <trkpt lat="42.702538" lon="-5.622428">
        <ele>879.242</ele>
        <time>1999-07-20T10:16:44Z</time>
      </trkpt>
      <trkpt lat="42.702590" lon="-5.622417">
        <ele>880.649</ele>
        <time>1999-07-20T10:16:47Z</time>
      </trkpt>
      <trkpt lat="42.702650" lon="-5.622396">
        <ele>881.454</ele>
        <time>1999-07-20T10:16:51Z</time>
      </trkpt>
      <trkpt lat="42.702680" lon="-5.622377">
        <ele>881.697</ele>
        <time>1999-07-20T10:16:53Z</time>
      </trkpt>
      <trkpt lat="42.702692" lon="-5.622367">
        <ele>881.823</ele>
        <time>1999-07-20T10:16:54Z</time>
      </trkpt>
      <trkpt lat="42.702713" lon="-5.622352">
        <ele>882.025</ele>
        <time>1999-07-20T10:16:56Z</time>
      </trkpt>
      <trkpt lat="42.702739" lon="-5.622351">
        <ele>882.808</ele>
        <time>1999-07-20T10:16:58Z</time>
      </trkpt>
      <trkpt lat="42.702769" lon="-5.622352">
        <ele>883.852</ele>
        <time>1999-07-20T10:17:00Z</time>
      </trkpt>
      <trkpt lat="42.702786" lon="-5.622355">
        <ele>884.037</ele>
        <time>1999-07-20T10:17:01Z</time>
      </trkpt>
      <trkpt lat="42.702818" lon="-5.622368">
        <ele>884.657</ele>
        <time>1999-07-20T10:17:03Z</time>
      </trkpt>
      <trkpt lat="42.702864" lon="-5.622396">
        <ele>885.275</ele>
        <time>1999-07-20T10:17:06Z</time>
      </trkpt>
      <trkpt lat="42.702896" lon="-5.622401">
        <ele>886.043</ele>
        <time>1999-07-20T10:17:08Z</time>
      </trkpt>
      <trkpt lat="42.702925" lon="-5.622404">
        <ele>886.819</ele>
        <time>1999-07-20T10:17:10Z</time>
      </trkpt>
      <trkpt lat="42.702953" lon="-5.622406">
        <ele>887.626</ele>
        <time>1999-07-20T10:17:12Z</time>
      </trkpt>
      <trkpt lat="42.702967" lon="-5.622405">
        <ele>888.051</ele>
        <time>1999-07-20T10:17:13Z</time>
      </trkpt>
      <trkpt lat="42.703010" lon="-5.622396">
        <ele>889.674</ele>
        <time>1999-07-20T10:17:16Z</time>
      </trkpt>
      <trkpt lat="42.703049" lon="-5.622394">
        <ele>890.856</ele>
        <time>1999-07-20T10:17:19Z</time>
      </trkpt>
      <trkpt lat="42.703091" lon="-5.622407">
        <ele>892.021</ele>
        <time>1999-07-20T10:17:22Z</time>
      </trkpt>
      <trkpt lat="42.703120" lon="-5.622411">
        <ele>892.608</ele>
        <time>1999-07-20T10:17:24Z</time>
      </trkpt>
      <trkpt lat="42.703136" lon="-5.622409">
        <ele>893.230</ele>
        <time>1999-07-20T10:17:25Z</time>
      </trkpt>
      <trkpt lat="42.703209" lon="-5.622393">
        <ele>894.465</ele>
        <time>1999-07-20T10:17:30Z</time>
      </trkpt>
      <trkpt lat="42.703238" lon="-5.622391">
        <ele>895.295</ele>
        <time>1999-07-20T10:17:32Z</time>
      </trkpt>
      <trkpt lat="42.703252" lon="-5.622393">
        <ele>895.673</ele>
        <time>1999-07-20T10:17:33Z</time>
      </trkpt>
      <trkpt lat="42.703299" lon="-5.622421">
        <ele>896.891</ele>
        <time>1999-07-20T10:17:36Z</time>
      </trkpt>
      <trkpt lat="42.703314" lon="-5.622426">
        <ele>897.697</ele>
        <time>1999-07-20T10:17:38Z</time>
      </trkpt>
      <trkpt lat="42.703319" lon="-5.622430">
        <ele>898.254</ele>
        <time>1999-07-20T10:17:40Z</time>
      </trkpt>
      <trkpt lat="42.703679" lon="-5.622278">
        <ele>907.099</ele>
        <time>1999-07-20T10:18:58Z</time>
      </trkpt>
      <trkpt lat="42.703703" lon="-5.622263">
        <ele>907.054</ele>
        <time>1999-07-20T10:18:59Z</time>
      </trkpt>
      <trkpt lat="42.703761" lon="-5.622178">
        <ele>907.056</ele>
        <time>1999-07-20T10:19:02Z</time>
      </trkpt>
      <trkpt lat="42.703773" lon="-5.622148">
        <ele>907.011</ele>
        <time>1999-07-20T10:19:03Z</time>
      </trkpt>
      <trkpt lat="42.703789" lon="-5.622128">
        <ele>907.008</ele>
        <time>1999-07-20T10:19:04Z</time>
      </trkpt>
      <trkpt lat="42.703854" lon="-5.622111">
        <ele>907.228</ele>
        <time>1999-07-20T10:19:07Z</time>
      </trkpt>
      <trkpt lat="42.703899" lon="-5.622110">
        <ele>908.083</ele>
        <time>1999-07-20T10:19:09Z</time>
      </trkpt>
      <trkpt lat="42.703943" lon="-5.622115">
        <ele>909.093</ele>
        <time>1999-07-20T10:19:11Z</time>
      </trkpt>
      <trkpt lat="42.703961" lon="-5.622120">
        <ele>909.491</ele>
        <time>1999-07-20T10:19:12Z</time>
      </trkpt>
      <trkpt lat="42.703994" lon="-5.622123">
        <ele>910.459</ele>
        <time>1999-07-20T10:19:14Z</time>
      </trkpt>
      <trkpt lat="42.704010" lon="-5.622123">
        <ele>911.095</ele>
        <time>1999-07-20T10:19:15Z</time>
      </trkpt>
      <trkpt lat="42.704064" lon="-5.622129">
        <ele>912.042</ele>
        <time>1999-07-20T10:19:18Z</time>
      </trkpt>
      <trkpt lat="42.704140" lon="-5.622131">
        <ele>913.217</ele>
        <time>1999-07-20T10:19:22Z</time>
      </trkpt>
      <trkpt lat="42.704225" lon="-5.622124">
        <ele>914.415</ele>
        <time>1999-07-20T10:19:27Z</time>
      </trkpt>
      <trkpt lat="42.704288" lon="-5.622108">
        <ele>915.465</ele>
        <time>1999-07-20T10:19:31Z</time>
      </trkpt>
      <trkpt lat="42.704352" lon="-5.622089">
        <ele>916.611</ele>
        <time>1999-07-20T10:19:35Z</time>
      </trkpt>
      <trkpt lat="42.704440" lon="-5.622061">
        <ele>917.408</ele>
        <time>1999-07-20T10:19:40Z</time>
      </trkpt>
      <trkpt lat="42.704472" lon="-5.622041">
        <ele>917.824</ele>
        <time>1999-07-20T10:19:42Z</time>
      </trkpt>
      <trkpt lat="42.704519" lon="-5.622016">
        <ele>919.049</ele>
        <time>1999-07-20T10:19:45Z</time>
      </trkpt>
      <trkpt lat="42.704535" lon="-5.622004">
        <ele>919.679</ele>
        <time>1999-07-20T10:19:46Z</time>
      </trkpt>
      <trkpt lat="42.704559" lon="-5.621986">
        <ele>920.827</ele>
        <time>1999-07-20T10:19:48Z</time>
      </trkpt>
      <trkpt lat="42.704580" lon="-5.621958">
        <ele>921.865</ele>
        <time>1999-07-20T10:19:50Z</time>
      </trkpt>
      <trkpt lat="42.704625" lon="-5.621924">
        <ele>922.891</ele>
        <time>1999-07-20T10:19:53Z</time>
      </trkpt>
      <trkpt lat="42.704705" lon="-5.621864">
        <ele>924.068</ele>
        <time>1999-07-20T10:19:58Z</time>
      </trkpt>
      <trkpt lat="42.704780" lon="-5.621796">
        <ele>924.843</ele>
        <time>1999-07-20T10:20:03Z</time>
      </trkpt>
      <trkpt lat="42.704814" lon="-5.621766">
        <ele>925.271</ele>
        <time>1999-07-20T10:20:05Z</time>
      </trkpt>
      <trkpt lat="42.704899" lon="-5.621692">
        <ele>925.841</ele>
        <time>1999-07-20T10:20:10Z</time>
      </trkpt>
      <trkpt lat="42.704953" lon="-5.621648">
        <ele>926.215</ele>
        <time>1999-07-20T10:20:13Z</time>
      </trkpt>
      <trkpt lat="42.705049" lon="-5.621595">
        <ele>927.208</ele>
        <time>1999-07-20T10:20:18Z</time>
      </trkpt>
      <trkpt lat="42.705079" lon="-5.621569">
        <ele>927.450</ele>
        <time>1999-07-20T10:20:20Z</time>
      </trkpt>
      <trkpt lat="42.705155" lon="-5.621535">
        <ele>928.065</ele>
        <time>1999-07-20T10:20:24Z</time>
      </trkpt>
      <trkpt lat="42.705211" lon="-5.621511">
        <ele>928.475</ele>
        <time>1999-07-20T10:20:27Z</time>
      </trkpt>
      <trkpt lat="42.705302" lon="-5.621485">
        <ele>929.473</ele>
        <time>1999-07-20T10:20:32Z</time>
      </trkpt>
      <trkpt lat="42.705318" lon="-5.621481">
        <ele>929.451</ele>
        <time>1999-07-20T10:20:33Z</time>
      </trkpt>
      <trkpt lat="42.705394" lon="-5.621429">
        <ele>930.477</ele>
        <time>1999-07-20T10:20:38Z</time>
      </trkpt>
      <trkpt lat="42.705408" lon="-5.621417">
        <ele>930.654</ele>
        <time>1999-07-20T10:20:39Z</time>
      </trkpt>
      <trkpt lat="42.705504" lon="-5.621362">
        <ele>931.619</ele>
        <time>1999-07-20T10:20:45Z</time>
      </trkpt>
      <trkpt lat="42.705543" lon="-5.621355">
        <ele>932.643</ele>
        <time>1999-07-20T10:20:47Z</time>
      </trkpt>
      <trkpt lat="42.705594" lon="-5.621334">
        <ele>934.064</ele>
        <time>1999-07-20T10:20:50Z</time>
      </trkpt>
      <trkpt lat="42.705634" lon="-5.621298">
        <ele>935.210</ele>
        <time>1999-07-20T10:20:53Z</time>
      </trkpt>
      <trkpt lat="42.705660" lon="-5.621277">
        <ele>936.008</ele>
        <time>1999-07-20T10:20:55Z</time>
      </trkpt>
      <trkpt lat="42.705673" lon="-5.621268">
        <ele>936.467</ele>
        <time>1999-07-20T10:20:56Z</time>
      </trkpt>
      <trkpt lat="42.705719" lon="-5.621237">
        <ele>937.672</ele>
        <time>1999-07-20T10:20:59Z</time>
      </trkpt>
      <trkpt lat="42.705758" lon="-5.621204">
        <ele>938.672</ele>
        <time>1999-07-20T10:21:02Z</time>
      </trkpt>
      <trkpt lat="42.705772" lon="-5.621197">
        <ele>939.040</ele>
        <time>1999-07-20T10:21:03Z</time>
      </trkpt>
      <trkpt lat="42.705831" lon="-5.621184">
        <ele>940.428</ele>
        <time>1999-07-20T10:21:07Z</time>
      </trkpt>
      <trkpt lat="42.705862" lon="-5.621194">
        <ele>941.064</ele>
        <time>1999-07-20T10:21:09Z</time>
      </trkpt>
      <trkpt lat="42.705878" lon="-5.621202">
        <ele>941.691</ele>
        <time>1999-07-20T10:21:10Z</time>
      </trkpt>
      <trkpt lat="42.705926" lon="-5.621215">
        <ele>942.696</ele>
        <time>1999-07-20T10:21:13Z</time>
      </trkpt>
      <trkpt lat="42.705974" lon="-5.621201">
        <ele>944.095</ele>
        <time>1999-07-20T10:21:16Z</time>
      </trkpt>
      <trkpt lat="42.705988" lon="-5.621195">
        <ele>944.249</ele>
        <time>1999-07-20T10:21:17Z</time>
      </trkpt>
      <trkpt lat="42.706059" lon="-5.621181">
        <ele>945.223</ele>
        <time>1999-07-20T10:21:20Z</time>
      </trkpt>
      <trkpt lat="42.706095" lon="-5.621171">
        <ele>945.408</ele>
        <time>1999-07-20T10:21:21Z</time>
      </trkpt>
      <trkpt lat="42.706231" lon="-5.621126">
        <ele>945.812</ele>
        <time>1999-07-20T10:21:24Z</time>
      </trkpt>
      <trkpt lat="42.706325" lon="-5.621063">
        <ele>945.827</ele>
        <time>1999-07-20T10:21:26Z</time>
      </trkpt>
      <trkpt lat="42.706555" lon="-5.620882">
        <ele>946.097</ele>
        <time>1999-07-20T10:21:32Z</time>
      </trkpt>
      <trkpt lat="42.706654" lon="-5.620805">
        <ele>946.085</ele>
        <time>1999-07-20T10:21:37Z</time>
      </trkpt>
      <trkpt lat="42.706718" lon="-5.620789">
        <ele>946.213</ele>
        <time>1999-07-20T10:21:41Z</time>
      </trkpt>
      <trkpt lat="42.706764" lon="-5.620778">
        <ele>947.039</ele>
        <time>1999-07-20T10:21:44Z</time>
      </trkpt>
      <trkpt lat="42.706778" lon="-5.620772">
        <ele>947.666</ele>
        <time>1999-07-20T10:21:45Z</time>
      </trkpt>
      <trkpt lat="42.706844" lon="-5.620756">
        <ele>948.611</ele>
        <time>1999-07-20T10:21:49Z</time>
      </trkpt>
      <trkpt lat="42.706861" lon="-5.620753">
        <ele>948.856</ele>
        <time>1999-07-20T10:21:50Z</time>
      </trkpt>
      <trkpt lat="42.706894" lon="-5.620750">
        <ele>949.459</ele>
        <time>1999-07-20T10:21:52Z</time>
      </trkpt>
      <trkpt lat="42.706941" lon="-5.620741">
        <ele>950.014</ele>
        <time>1999-07-20T10:21:55Z</time>
      </trkpt>
      <trkpt lat="42.707015" lon="-5.620721">
        <ele>951.208</ele>
        <time>1999-07-20T10:22:00Z</time>
      </trkpt>
      <trkpt lat="42.707029" lon="-5.620713">
        <ele>951.498</ele>
        <time>1999-07-20T10:22:01Z</time>
      </trkpt>
      <trkpt lat="42.707090" lon="-5.620693">
        <ele>952.083</ele>
        <time>1999-07-20T10:22:05Z</time>
      </trkpt>
      <trkpt lat="42.707150" lon="-5.620670">
        <ele>953.233</ele>
        <time>1999-07-20T10:22:09Z</time>
      </trkpt>
      <trkpt lat="42.707166" lon="-5.620666">
        <ele>953.251</ele>
        <time>1999-07-20T10:22:10Z</time>
      </trkpt>
      <trkpt lat="42.707245" lon="-5.620668">
        <ele>954.819</ele>
        <time>1999-07-20T10:22:15Z</time>
      </trkpt>
      <trkpt lat="42.707295" lon="-5.620689">
        <ele>955.235</ele>
        <time>1999-07-20T10:22:18Z</time>
      </trkpt>
      <trkpt lat="42.707344" lon="-5.620709">
        <ele>955.862</ele>
        <time>1999-07-20T10:22:21Z</time>
      </trkpt>
      <trkpt lat="42.707350" lon="-5.620718">
        <ele>956.237</ele>
        <time>1999-07-20T10:22:23Z</time>
      </trkpt>
      <trkpt lat="42.707430" lon="-5.620689">
        <ele>956.492</ele>
        <time>1999-07-20T10:22:39Z</time>
      </trkpt>
      <trkpt lat="42.707471" lon="-5.620654">
        <ele>956.473</ele>
        <time>1999-07-20T10:22:42Z</time>
      </trkpt>
      <trkpt lat="42.707518" lon="-5.620586">
        <ele>956.420</ele>
        <time>1999-07-20T10:22:45Z</time>
      </trkpt>
      <trkpt lat="42.707613" lon="-5.620493">
        <ele>956.408</ele>
        <time>1999-07-20T10:22:50Z</time>
      </trkpt>
      <trkpt lat="42.707651" lon="-5.620484">
        <ele>956.422</ele>
        <time>1999-07-20T10:22:51Z</time>
      </trkpt>
      <trkpt lat="42.707799" lon="-5.620441">
        <ele>956.857</ele>
        <time>1999-07-20T10:22:55Z</time>
      </trkpt>
      <trkpt lat="42.707857" lon="-5.620401">
        <ele>957.057</ele>
        <time>1999-07-20T10:22:57Z</time>
      </trkpt>
      <trkpt lat="42.707939" lon="-5.620292">
        <ele>957.445</ele>
        <time>1999-07-20T10:23:02Z</time>
      </trkpt>
      <trkpt lat="42.707990" lon="-5.620240">
        <ele>958.033</ele>
        <time>1999-07-20T10:23:05Z</time>
      </trkpt>
      <trkpt lat="42.708021" lon="-5.620167">
        <ele>958.889</ele>
        <time>1999-07-20T10:23:08Z</time>
      </trkpt>
      <trkpt lat="42.708053" lon="-5.620135">
        <ele>959.466</ele>
        <time>1999-07-20T10:23:10Z</time>
      </trkpt>
      <trkpt lat="42.708107" lon="-5.620093">
        <ele>960.681</ele>
        <time>1999-07-20T10:23:13Z</time>
      </trkpt>
      <trkpt lat="42.708149" lon="-5.620065">
        <ele>961.465</ele>
        <time>1999-07-20T10:23:15Z</time>
      </trkpt>
      <trkpt lat="42.708170" lon="-5.620049">
        <ele>961.668</ele>
        <time>1999-07-20T10:23:16Z</time>
      </trkpt>
      <trkpt lat="42.708275" lon="-5.619935">
        <ele>962.814</ele>
        <time>1999-07-20T10:23:22Z</time>
      </trkpt>
      <trkpt lat="42.708306" lon="-5.619907">
        <ele>962.808</ele>
        <time>1999-07-20T10:23:24Z</time>
      </trkpt>
      <trkpt lat="42.708321" lon="-5.619903">
        <ele>963.049</ele>
        <time>1999-07-20T10:23:25Z</time>
      </trkpt>
      <trkpt lat="42.708372" lon="-5.619915">
        <ele>963.244</ele>
        <time>1999-07-20T10:23:27Z</time>
      </trkpt>
      <trkpt lat="42.708567" lon="-5.619964">
        <ele>963.274</ele>
        <time>1999-07-20T10:23:31Z</time>
      </trkpt>
      <trkpt lat="42.708869" lon="-5.620050">
        <ele>963.292</ele>
        <time>1999-07-20T10:23:35Z</time>
      </trkpt>
      <trkpt lat="42.709021" lon="-5.620131">
        <ele>963.010</ele>
        <time>1999-07-20T10:23:37Z</time>
      </trkpt>
      <trkpt lat="42.709148" lon="-5.620238">
        <ele>961.266</ele>
        <time>1999-07-20T10:23:39Z</time>
      </trkpt>
      <trkpt lat="42.709204" lon="-5.620302">
        <ele>960.413</ele>
        <time>1999-07-20T10:23:40Z</time>
      </trkpt>
      <trkpt lat="42.709250" lon="-5.620377">
        <ele>959.848</ele>
        <time>1999-07-20T10:23:41Z</time>
      </trkpt>
      <trkpt lat="42.709286" lon="-5.620462">
        <ele>959.286</ele>
        <time>1999-07-20T10:23:42Z</time>
      </trkpt>
      <trkpt lat="42.709309" lon="-5.620556">
        <ele>958.260</ele>
        <time>1999-07-20T10:23:43Z</time>
      </trkpt>
      <trkpt lat="42.709329" lon="-5.620666">
        <ele>957.226</ele>
        <time>1999-07-20T10:23:44Z</time>
      </trkpt>
      <trkpt lat="42.709349" lon="-5.620785">
        <ele>956.208</ele>
        <time>1999-07-20T10:23:45Z</time>
      </trkpt>
      <trkpt lat="42.709372" lon="-5.620916">
        <ele>954.871</ele>
        <time>1999-07-20T10:23:46Z</time>
      </trkpt>
      <trkpt lat="42.709400" lon="-5.621048">
        <ele>953.286</ele>
        <time>1999-07-20T10:23:47Z</time>
      </trkpt>
      <trkpt lat="42.709433" lon="-5.621181">
        <ele>952.046</ele>
        <time>1999-07-20T10:23:48Z</time>
      </trkpt>
      <trkpt lat="42.709470" lon="-5.621319">
        <ele>950.844</ele>
        <time>1999-07-20T10:23:49Z</time>
      </trkpt>
      <trkpt lat="42.709512" lon="-5.621444">
        <ele>949.692</ele>
        <time>1999-07-20T10:23:50Z</time>
      </trkpt>
      <trkpt lat="42.709554" lon="-5.621558">
        <ele>948.268</ele>
        <time>1999-07-20T10:23:51Z</time>
      </trkpt>
      <trkpt lat="42.709594" lon="-5.621654">
        <ele>947.245</ele>
        <time>1999-07-20T10:23:52Z</time>
      </trkpt>
      <trkpt lat="42.709636" lon="-5.621726">
        <ele>946.090</ele>
        <time>1999-07-20T10:23:53Z</time>
      </trkpt>
      <trkpt lat="42.709672" lon="-5.621765">
        <ele>944.481</ele>
        <time>1999-07-20T10:23:54Z</time>
      </trkpt>
      <trkpt lat="42.709700" lon="-5.621781">
        <ele>943.461</ele>
        <time>1999-07-20T10:23:55Z</time>
      </trkpt>
      <trkpt lat="42.709718" lon="-5.621788">
        <ele>942.617</ele>
        <time>1999-07-20T10:23:56Z</time>
      </trkpt>
      <trkpt lat="42.709745" lon="-5.621796">
        <ele>941.608</ele>
        <time>1999-07-20T10:23:59Z</time>
      </trkpt>
      <trkpt lat="42.709744" lon="-5.621798">
        <ele>941.461</ele>
        <time>1999-07-20T10:24:01Z</time>
      </trkpt>
      <trkpt lat="42.709791" lon="-5.621840">
        <ele>939.846</ele>
        <time>1999-07-20T10:24:30Z</time>
      </trkpt>
      <trkpt lat="42.709824" lon="-5.621861">
        <ele>939.836</ele>
        <time>1999-07-20T10:24:32Z</time>
      </trkpt>
      <trkpt lat="42.709857" lon="-5.621883">
        <ele>939.874</ele>
        <time>1999-07-20T10:24:34Z</time>
      </trkpt>
      <trkpt lat="42.709870" lon="-5.621889">
        <ele>939.662</ele>
        <time>1999-07-20T10:24:35Z</time>
      </trkpt>
      <trkpt lat="42.709895" lon="-5.621900">
        <ele>938.848</ele>
        <time>1999-07-20T10:24:37Z</time>
      </trkpt>
      <trkpt lat="42.709906" lon="-5.621909">
        <ele>938.225</ele>
        <time>1999-07-20T10:24:38Z</time>
      </trkpt>
      <trkpt lat="42.709913" lon="-5.621913">
        <ele>937.640</ele>
        <time>1999-07-20T10:24:39Z</time>
      </trkpt>
      <trkpt lat="42.709916" lon="-5.621916">
        <ele>936.426</ele>
        <time>1999-07-20T10:24:41Z</time>
      </trkpt>
      <trkpt lat="42.709989" lon="-5.621931">
        <ele>932.847</ele>
        <time>1999-07-20T10:24:51Z</time>
      </trkpt>
      <trkpt lat="42.710076" lon="-5.621984">
        <ele>932.811</ele>
        <time>1999-07-20T10:24:53Z</time>
      </trkpt>
      <trkpt lat="42.710154" lon="-5.622030">
        <ele>932.608</ele>
        <time>1999-07-20T10:24:55Z</time>
      </trkpt>
      <trkpt lat="42.710198" lon="-5.622068">
        <ele>932.065</ele>
        <time>1999-07-20T10:24:57Z</time>
      </trkpt>
      <trkpt lat="42.710203" lon="-5.622071">
        <ele>931.610</ele>
        <time>1999-07-20T10:24:58Z</time>
      </trkpt>
      <trkpt lat="42.710205" lon="-5.622073">
        <ele>931.070</ele>
        <time>1999-07-20T10:24:59Z</time>
      </trkpt>
      <trkpt lat="42.710248" lon="-5.622140">
        <ele>924.638</ele>
        <time>1999-07-20T10:25:04Z</time>
      </trkpt>
      <trkpt lat="42.710269" lon="-5.622169">
        <ele>924.036</ele>
        <time>1999-07-20T10:25:05Z</time>
      </trkpt>
      <trkpt lat="42.710297" lon="-5.622201">
        <ele>923.852</ele>
        <time>1999-07-20T10:25:06Z</time>
      </trkpt>
      <trkpt lat="42.710328" lon="-5.622227">
        <ele>923.649</ele>
        <time>1999-07-20T10:25:07Z</time>
      </trkpt>
      <trkpt lat="42.710357" lon="-5.622254">
        <ele>923.414</ele>
        <time>1999-07-20T10:25:08Z</time>
      </trkpt>
      <trkpt lat="42.710431" lon="-5.622340">
        <ele>923.069</ele>
        <time>1999-07-20T10:25:11Z</time>
      </trkpt>
      <trkpt lat="42.710457" lon="-5.622365">
        <ele>922.604</ele>
        <time>1999-07-20T10:25:12Z</time>
      </trkpt>
      <trkpt lat="42.710527" lon="-5.622436">
        <ele>921.624</ele>
        <time>1999-07-20T10:25:14Z</time>
      </trkpt>
      <trkpt lat="42.710561" lon="-5.622490">
        <ele>921.208</ele>
        <time>1999-07-20T10:25:15Z</time>
      </trkpt>
      <trkpt lat="42.710593" lon="-5.622547">
        <ele>920.479</ele>
        <time>1999-07-20T10:25:16Z</time>
      </trkpt>
      <trkpt lat="42.710626" lon="-5.622597">
        <ele>919.614</ele>
        <time>1999-07-20T10:25:17Z</time>
      </trkpt>
      <trkpt lat="42.710688" lon="-5.622685">
        <ele>918.084</ele>
        <time>1999-07-20T10:25:19Z</time>
      </trkpt>
      <trkpt lat="42.710720" lon="-5.622735">
        <ele>917.292</ele>
        <time>1999-07-20T10:25:20Z</time>
      </trkpt>
      <trkpt lat="42.710754" lon="-5.622788">
        <ele>916.630</ele>
        <time>1999-07-20T10:25:21Z</time>
      </trkpt>
      <trkpt lat="42.710788" lon="-5.622833">
        <ele>916.046</ele>
        <time>1999-07-20T10:25:22Z</time>
      </trkpt>
      <trkpt lat="42.710824" lon="-5.622867">
        <ele>915.433</ele>
        <time>1999-07-20T10:25:23Z</time>
      </trkpt>
      <trkpt lat="42.710910" lon="-5.622936">
        <ele>914.018</ele>
        <time>1999-07-20T10:25:25Z</time>
      </trkpt>
      <trkpt lat="42.711009" lon="-5.623011">
        <ele>912.416</ele>
        <time>1999-07-20T10:25:27Z</time>
      </trkpt>
      <trkpt lat="42.711178" lon="-5.623128">
        <ele>911.076</ele>
        <time>1999-07-20T10:25:30Z</time>
      </trkpt>
      <trkpt lat="42.711239" lon="-5.623163">
        <ele>909.813</ele>
        <time>1999-07-20T10:25:31Z</time>
      </trkpt>
      <trkpt lat="42.711438" lon="-5.623220">
        <ele>908.408</ele>
        <time>1999-07-20T10:25:34Z</time>
      </trkpt>
      <trkpt lat="42.711502" lon="-5.623207">
        <ele>907.644</ele>
        <time>1999-07-20T10:25:35Z</time>
      </trkpt>
      <trkpt lat="42.711568" lon="-5.623179">
        <ele>906.869</ele>
        <time>1999-07-20T10:25:36Z</time>
      </trkpt>
      <trkpt lat="42.711632" lon="-5.623143">
        <ele>905.659</ele>
        <time>1999-07-20T10:25:37Z</time>
      </trkpt>
      <trkpt lat="42.711758" lon="-5.623050">
        <ele>904.037</ele>
        <time>1999-07-20T10:25:39Z</time>
      </trkpt>
      <trkpt lat="42.711845" lon="-5.622959">
        <ele>903.035</ele>
        <time>1999-07-20T10:25:41Z</time>
      </trkpt>
      <trkpt lat="42.711865" lon="-5.622922">
        <ele>902.821</ele>
        <time>1999-07-20T10:25:42Z</time>
      </trkpt>
      <trkpt lat="42.711893" lon="-5.622876">
        <ele>901.668</ele>
        <time>1999-07-20T10:25:45Z</time>
      </trkpt>
      <trkpt lat="42.711896" lon="-5.622874">
        <ele>901.233</ele>
        <time>1999-07-20T10:25:46Z</time>
      </trkpt>
      <trkpt lat="42.711899" lon="-5.622875">
        <ele>900.823</ele>
        <time>1999-07-20T10:25:47Z</time>
      </trkpt>
      <trkpt lat="42.711857" lon="-5.622949">
        <ele>898.083</ele>
        <time>1999-07-20T10:25:53Z</time>
      </trkpt>
      <trkpt lat="42.711824" lon="-5.622987">
        <ele>898.011</ele>
        <time>1999-07-20T10:25:55Z</time>
      </trkpt>
      <trkpt lat="42.711776" lon="-5.623039">
        <ele>898.008</ele>
        <time>1999-07-20T10:25:58Z</time>
      </trkpt>
      <trkpt lat="42.711758" lon="-5.623049">
        <ele>898.065</ele>
        <time>1999-07-20T10:26:01Z</time>
      </trkpt>
      <trkpt lat="42.711838" lon="-5.623053">
        <ele>898.630</ele>
        <time>1999-07-20T10:26:11Z</time>
      </trkpt>
      <trkpt lat="42.711870" lon="-5.623078">
        <ele>898.630</ele>
        <time>1999-07-20T10:26:12Z</time>
      </trkpt>
      <trkpt lat="42.711946" lon="-5.623173">
        <ele>898.638</ele>
        <time>1999-07-20T10:26:15Z</time>
      </trkpt>
      <trkpt lat="42.711955" lon="-5.623219">
        <ele>898.696</ele>
        <time>1999-07-20T10:26:16Z</time>
      </trkpt>
      <trkpt lat="42.711989" lon="-5.623452">
        <ele>896.232</ele>
        <time>1999-07-20T10:26:20Z</time>
      </trkpt>
      <trkpt lat="42.711986" lon="-5.623509">
        <ele>894.869</ele>
        <time>1999-07-20T10:26:21Z</time>
      </trkpt>
      <trkpt lat="42.711983" lon="-5.623553">
        <ele>893.824</ele>
        <time>1999-07-20T10:26:22Z</time>
      </trkpt>
      <trkpt lat="42.711980" lon="-5.623620">
        <ele>892.039</ele>
        <time>1999-07-20T10:26:24Z</time>
      </trkpt>
      <trkpt lat="42.711994" lon="-5.623678">
        <ele>890.401</ele>
        <time>1999-07-20T10:26:26Z</time>
      </trkpt>
      <trkpt lat="42.712019" lon="-5.623773">
        <ele>889.821</ele>
        <time>1999-07-20T10:26:29Z</time>
      </trkpt>
      <trkpt lat="42.712010" lon="-5.623969">
        <ele>889.808</ele>
        <time>1999-07-20T10:26:33Z</time>
      </trkpt>
      <trkpt lat="42.711982" lon="-5.624137">
        <ele>890.076</ele>
        <time>1999-07-20T10:26:36Z</time>
      </trkpt>
      <trkpt lat="42.711966" lon="-5.624307">
        <ele>890.821</ele>
        <time>1999-07-20T10:26:39Z</time>
      </trkpt>
      <trkpt lat="42.711953" lon="-5.624457">
        <ele>891.471</ele>
        <time>1999-07-20T10:26:42Z</time>
      </trkpt>
      <trkpt lat="42.711951" lon="-5.624712">
        <ele>891.889</ele>
        <time>1999-07-20T10:26:47Z</time>
      </trkpt>
      <trkpt lat="42.711941" lon="-5.624933">
        <ele>892.657</ele>
        <time>1999-07-20T10:26:51Z</time>
      </trkpt>
      <trkpt lat="42.711936" lon="-5.625063">
        <ele>892.843</ele>
        <time>1999-07-20T10:26:53Z</time>
      </trkpt>
      <trkpt lat="42.711928" lon="-5.625433">
        <ele>893.040</ele>
        <time>1999-07-20T10:26:57Z</time>
      </trkpt>
      <trkpt lat="42.711936" lon="-5.625527">
        <ele>893.095</ele>
        <time>1999-07-20T10:26:58Z</time>
      </trkpt>
      <trkpt lat="42.712000" lon="-5.625670">
        <ele>893.043</ele>
        <time>1999-07-20T10:27:00Z</time>
      </trkpt>
      <trkpt lat="42.712158" lon="-5.625768">
        <ele>892.464</ele>
        <time>1999-07-20T10:27:03Z</time>
      </trkpt>
      <trkpt lat="42.712216" lon="-5.625775">
        <ele>892.010</ele>
        <time>1999-07-20T10:27:04Z</time>
      </trkpt>
      <trkpt lat="42.712342" lon="-5.625784">
        <ele>891.608</ele>
        <time>1999-07-20T10:27:06Z</time>
      </trkpt>
      <trkpt lat="42.712515" lon="-5.625810">
        <ele>891.487</ele>
        <time>1999-07-20T10:27:09Z</time>
      </trkpt>
      <trkpt lat="42.712613" lon="-5.625829">
        <ele>891.272</ele>
        <time>1999-07-20T10:27:11Z</time>
      </trkpt>
      <trkpt lat="42.712756" lon="-5.625809">
        <ele>891.452</ele>
        <time>1999-07-20T10:27:14Z</time>
      </trkpt>
      <trkpt lat="42.712804" lon="-5.625804">
        <ele>891.420</ele>
        <time>1999-07-20T10:27:15Z</time>
      </trkpt>
      <trkpt lat="42.713049" lon="-5.625789">
        <ele>892.048</ele>
        <time>1999-07-20T10:27:20Z</time>
      </trkpt>
      <trkpt lat="42.713095" lon="-5.625787">
        <ele>892.244</ele>
        <time>1999-07-20T10:27:21Z</time>
      </trkpt>
      <trkpt lat="42.713226" lon="-5.625780">
        <ele>892.491</ele>
        <time>1999-07-20T10:27:24Z</time>
      </trkpt>
      <trkpt lat="42.713297" lon="-5.625769">
        <ele>892.666</ele>
        <time>1999-07-20T10:27:26Z</time>
      </trkpt>
      <trkpt lat="42.713327" lon="-5.625765">
        <ele>892.698</ele>
        <time>1999-07-20T10:27:27Z</time>
      </trkpt>
      <trkpt lat="42.713487" lon="-5.625756">
        <ele>893.615</ele>
        <time>1999-07-20T10:27:33Z</time>
      </trkpt>
      <trkpt lat="42.713515" lon="-5.625755">
        <ele>893.826</ele>
        <time>1999-07-20T10:27:34Z</time>
      </trkpt>
      <trkpt lat="42.713601" lon="-5.625751">
        <ele>894.808</ele>
        <time>1999-07-20T10:27:37Z</time>
      </trkpt>
      <trkpt lat="42.713694" lon="-5.625752">
        <ele>895.612</ele>
        <time>1999-07-20T10:27:40Z</time>
      </trkpt>
      <trkpt lat="42.713729" lon="-5.625762">
        <ele>895.827</ele>
        <time>1999-07-20T10:27:41Z</time>
      </trkpt>
      <trkpt lat="42.713848" lon="-5.625811">
        <ele>896.437</ele>
        <time>1999-07-20T10:27:45Z</time>
      </trkpt>
      <trkpt lat="42.713992" lon="-5.625817">
        <ele>896.885</ele>
        <time>1999-07-20T10:27:50Z</time>
      </trkpt>
      <trkpt lat="42.714054" lon="-5.625822">
        <ele>897.443</ele>
        <time>1999-07-20T10:27:52Z</time>
      </trkpt>
      <trkpt lat="42.714119" lon="-5.625825">
        <ele>898.029</ele>
        <time>1999-07-20T10:27:54Z</time>
      </trkpt>
      <trkpt lat="42.714321" lon="-5.625825">
        <ele>898.646</ele>
        <time>1999-07-20T10:27:59Z</time>
      </trkpt>
      <trkpt lat="42.714480" lon="-5.625776">
        <ele>899.261</ele>
        <time>1999-07-20T10:28:03Z</time>
      </trkpt>
      <trkpt lat="42.714539" lon="-5.625744">
        <ele>899.244</ele>
        <time>1999-07-20T10:28:05Z</time>
      </trkpt>
      <trkpt lat="42.714712" lon="-5.625698">
        <ele>899.805</ele>
        <time>1999-07-20T10:28:11Z</time>
      </trkpt>
      <trkpt lat="42.714767" lon="-5.625690">
        <ele>900.215</ele>
        <time>1999-07-20T10:28:13Z</time>
      </trkpt>
      <trkpt lat="42.714888" lon="-5.625666">
        <ele>901.408</ele>
        <time>1999-07-20T10:28:17Z</time>
      </trkpt>
      <trkpt lat="42.714923" lon="-5.625667">
        <ele>901.647</ele>
        <time>1999-07-20T10:28:18Z</time>
      </trkpt>
      <trkpt lat="42.715034" lon="-5.625675">
        <ele>902.442</ele>
        <time>1999-07-20T10:28:21Z</time>
      </trkpt>
      <trkpt lat="42.715233" lon="-5.625696">
        <ele>902.892</ele>
        <time>1999-07-20T10:28:26Z</time>
      </trkpt>
      <trkpt lat="42.715540" lon="-5.625729">
        <ele>903.030</ele>
        <time>1999-07-20T10:28:33Z</time>
      </trkpt>
      <trkpt lat="42.715675" lon="-5.625732">
        <ele>903.278</ele>
        <time>1999-07-20T10:28:37Z</time>
      </trkpt>
      <trkpt lat="42.715737" lon="-5.625735">
        <ele>903.294</ele>
        <time>1999-07-20T10:28:39Z</time>
      </trkpt>
      <trkpt lat="42.715831" lon="-5.625742">
        <ele>903.461</ele>
        <time>1999-07-20T10:28:42Z</time>
      </trkpt>
      <trkpt lat="42.715959" lon="-5.625746">
        <ele>904.246</ele>
        <time>1999-07-20T10:28:46Z</time>
      </trkpt>
      <trkpt lat="42.716018" lon="-5.625745">
        <ele>904.697</ele>
        <time>1999-07-20T10:28:48Z</time>
      </trkpt>
      <trkpt lat="42.716209" lon="-5.625716">
        <ele>905.423</ele>
        <time>1999-07-20T10:28:54Z</time>
      </trkpt>
      <trkpt lat="42.716276" lon="-5.625699">
        <ele>906.025</ele>
        <time>1999-07-20T10:28:56Z</time>
      </trkpt>
      <trkpt lat="42.716374" lon="-5.625679">
        <ele>906.608</ele>
        <time>1999-07-20T10:28:59Z</time>
      </trkpt>
      <trkpt lat="42.716527" lon="-5.625618">
        <ele>907.442</ele>
        <time>1999-07-20T10:29:04Z</time>
      </trkpt>
      <trkpt lat="42.716577" lon="-5.625570">
        <ele>907.697</ele>
        <time>1999-07-20T10:29:06Z</time>
      </trkpt>
      <trkpt lat="42.716669" lon="-5.625455">
        <ele>908.227</ele>
        <time>1999-07-20T10:29:10Z</time>
      </trkpt>
      <trkpt lat="42.716708" lon="-5.625396">
        <ele>908.885</ele>
        <time>1999-07-20T10:29:12Z</time>
      </trkpt>
      <trkpt lat="42.716771" lon="-5.625299">
        <ele>909.443</ele>
        <time>1999-07-20T10:29:16Z</time>
      </trkpt>
      <trkpt lat="42.716791" lon="-5.625266">
        <ele>909.889</ele>
        <time>1999-07-20T10:29:18Z</time>
      </trkpt>
      <trkpt lat="42.716826" lon="-5.625198">
        <ele>910.856</ele>
        <time>1999-07-20T10:29:22Z</time>
      </trkpt>
      <trkpt lat="42.716836" lon="-5.625183">
        <ele>911.011</ele>
        <time>1999-07-20T10:29:23Z</time>
      </trkpt>
      <trkpt lat="42.716882" lon="-5.625106">
        <ele>912.091</ele>
        <time>1999-07-20T10:29:27Z</time>
      </trkpt>
      <trkpt lat="42.716903" lon="-5.625064">
        <ele>912.681</ele>
        <time>1999-07-20T10:29:29Z</time>
      </trkpt>
      <trkpt lat="42.716924" lon="-5.625020">
        <ele>913.219</ele>
        <time>1999-07-20T10:29:31Z</time>
      </trkpt>
      <trkpt lat="42.716989" lon="-5.624911">
        <ele>914.408</ele>
        <time>1999-07-20T10:29:36Z</time>
      </trkpt>
      <trkpt lat="42.717007" lon="-5.624889">
        <ele>914.872</ele>
        <time>1999-07-20T10:29:37Z</time>
      </trkpt>
      <trkpt lat="42.717162" lon="-5.624802">
        <ele>915.627</ele>
        <time>1999-07-20T10:29:43Z</time>
      </trkpt>
      <trkpt lat="42.717287" lon="-5.624882">
        <ele>915.817</ele>
        <time>1999-07-20T10:29:47Z</time>
      </trkpt>
      <trkpt lat="42.717348" lon="-5.625132">
        <ele>915.875</ele>
        <time>1999-07-20T10:29:50Z</time>
      </trkpt>
      <trkpt lat="42.717370" lon="-5.625223">
        <ele>915.873</ele>
        <time>1999-07-20T10:29:51Z</time>
      </trkpt>
      <trkpt lat="42.717485" lon="-5.625486">
        <ele>915.889</ele>
        <time>1999-07-20T10:29:54Z</time>
      </trkpt>
      <trkpt lat="42.717649" lon="-5.625654">
        <ele>914.896</ele>
        <time>1999-07-20T10:29:57Z</time>
      </trkpt>
      <trkpt lat="42.717710" lon="-5.625681">
        <ele>914.261</ele>
        <time>1999-07-20T10:29:58Z</time>
      </trkpt>
      <trkpt lat="42.717826" lon="-5.625714">
        <ele>913.223</ele>
        <time>1999-07-20T10:30:00Z</time>
      </trkpt>
      <trkpt lat="42.717878" lon="-5.625730">
        <ele>913.083</ele>
        <time>1999-07-20T10:30:01Z</time>
      </trkpt>
      <trkpt lat="42.717925" lon="-5.625752">
        <ele>912.811</ele>
        <time>1999-07-20T10:30:02Z</time>
      </trkpt>
      <trkpt lat="42.718077" lon="-5.625809">
        <ele>912.208</ele>
        <time>1999-07-20T10:30:05Z</time>
      </trkpt>
      <trkpt lat="42.718177" lon="-5.625836">
        <ele>912.295</ele>
        <time>1999-07-20T10:30:07Z</time>
      </trkpt>
      <trkpt lat="42.718490" lon="-5.625875">
        <ele>912.020</ele>
        <time>1999-07-20T10:30:13Z</time>
      </trkpt>
      <trkpt lat="42.718536" lon="-5.625864">
        <ele>912.040</ele>
        <time>1999-07-20T10:30:14Z</time>
      </trkpt>
      <trkpt lat="42.718658" lon="-5.625806">
        <ele>912.268</ele>
        <time>1999-07-20T10:30:17Z</time>
      </trkpt>
      <trkpt lat="42.718744" lon="-5.625791">
        <ele>912.286</ele>
        <time>1999-07-20T10:30:19Z</time>
      </trkpt>
      <trkpt lat="42.718972" lon="-5.625811">
        <ele>912.282</ele>
        <time>1999-07-20T10:30:23Z</time>
      </trkpt>
      <trkpt lat="42.719041" lon="-5.625840">
        <ele>912.269</ele>
        <time>1999-07-20T10:30:24Z</time>
      </trkpt>
      <trkpt lat="42.719188" lon="-5.625901">
        <ele>912.064</ele>
        <time>1999-07-20T10:30:26Z</time>
      </trkpt>
      <trkpt lat="42.719340" lon="-5.625918">
        <ele>912.021</ele>
        <time>1999-07-20T10:30:28Z</time>
      </trkpt>
      <trkpt lat="42.719490" lon="-5.625919">
        <ele>912.041</ele>
        <time>1999-07-20T10:30:30Z</time>
      </trkpt>
      <trkpt lat="42.719567" lon="-5.625930">
        <ele>911.605</ele>
        <time>1999-07-20T10:30:31Z</time>
      </trkpt>
      <trkpt lat="42.719710" lon="-5.625965">
        <ele>910.608</ele>
        <time>1999-07-20T10:30:33Z</time>
      </trkpt>
      <trkpt lat="42.719816" lon="-5.625970">
        <ele>909.415</ele>
        <time>1999-07-20T10:30:35Z</time>
      </trkpt>
      <trkpt lat="42.719852" lon="-5.625965">
        <ele>909.030</ele>
        <time>1999-07-20T10:30:36Z</time>
      </trkpt>
      <trkpt lat="42.719924" lon="-5.625958">
        <ele>908.610</ele>
        <time>1999-07-20T10:30:38Z</time>
      </trkpt>
      <trkpt lat="42.720002" lon="-5.625962">
        <ele>908.688</ele>
        <time>1999-07-20T10:30:40Z</time>
      </trkpt>
      <trkpt lat="42.720082" lon="-5.625982">
        <ele>908.676</ele>
        <time>1999-07-20T10:30:42Z</time>
      </trkpt>
      <trkpt lat="42.720160" lon="-5.625994">
        <ele>908.612</ele>
        <time>1999-07-20T10:30:44Z</time>
      </trkpt>
      <trkpt lat="42.720285" lon="-5.626023">
        <ele>908.839</ele>
        <time>1999-07-20T10:30:47Z</time>
      </trkpt>
      <trkpt lat="42.720368" lon="-5.626039">
        <ele>909.464</ele>
        <time>1999-07-20T10:30:49Z</time>
      </trkpt>
      <trkpt lat="42.720482" lon="-5.626055">
        <ele>910.462</ele>
        <time>1999-07-20T10:30:52Z</time>
      </trkpt>
      <trkpt lat="42.720561" lon="-5.626061">
        <ele>911.283</ele>
        <time>1999-07-20T10:30:54Z</time>
      </trkpt>
      <trkpt lat="42.720600" lon="-5.626068">
        <ele>911.611</ele>
        <time>1999-07-20T10:30:55Z</time>
      </trkpt>
      <trkpt lat="42.720642" lon="-5.626069">
        <ele>911.608</ele>
        <time>1999-07-20T10:30:56Z</time>
      </trkpt>
      <trkpt lat="42.720797" lon="-5.626047">
        <ele>912.859</ele>
        <time>1999-07-20T10:31:00Z</time>
      </trkpt>
      <trkpt lat="42.720864" lon="-5.626030">
        <ele>913.834</ele>
        <time>1999-07-20T10:31:02Z</time>
      </trkpt>
      <trkpt lat="42.721002" lon="-5.625962">
        <ele>915.094</ele>
        <time>1999-07-20T10:31:06Z</time>
      </trkpt>
      <trkpt lat="42.721245" lon="-5.625818">
        <ele>916.032</ele>
        <time>1999-07-20T10:31:13Z</time>
      </trkpt>
      <trkpt lat="42.721398" lon="-5.625748">
        <ele>916.690</ele>
        <time>1999-07-20T10:31:19Z</time>
      </trkpt>
      <trkpt lat="42.721479" lon="-5.625718">
        <ele>917.286</ele>
        <time>1999-07-20T10:31:23Z</time>
      </trkpt>
      <trkpt lat="42.721524" lon="-5.625674">
        <ele>918.443</ele>
        <time>1999-07-20T10:31:26Z</time>
      </trkpt>
      <trkpt lat="42.721552" lon="-5.625603">
        <ele>919.438</ele>
        <time>1999-07-20T10:31:29Z</time>
      </trkpt>
      <trkpt lat="42.721567" lon="-5.625516">
        <ele>920.223</ele>
        <time>1999-07-20T10:31:32Z</time>
      </trkpt>
      <trkpt lat="42.721572" lon="-5.625482">
        <ele>920.483</ele>
        <time>1999-07-20T10:31:33Z</time>
      </trkpt>
      <trkpt lat="42.721600" lon="-5.625256">
        <ele>921.211</ele>
        <time>1999-07-20T10:31:39Z</time>
      </trkpt>
      <trkpt lat="42.721598" lon="-5.625162">
        <ele>921.608</ele>
        <time>1999-07-20T10:31:41Z</time>
      </trkpt>
      <trkpt lat="42.721561" lon="-5.624939">
        <ele>922.075</ele>
        <time>1999-07-20T10:31:46Z</time>
      </trkpt>
      <trkpt lat="42.721551" lon="-5.624670">
        <ele>922.290</ele>
        <time>1999-07-20T10:31:52Z</time>
      </trkpt>
      <trkpt lat="42.721539" lon="-5.624500">
        <ele>922.810</ele>
        <time>1999-07-20T10:31:55Z</time>
      </trkpt>
      <trkpt lat="42.721533" lon="-5.624353">
        <ele>922.838</ele>
        <time>1999-07-20T10:31:57Z</time>
      </trkpt>
      <trkpt lat="42.721521" lon="-5.624042">
        <ele>923.086</ele>
        <time>1999-07-20T10:32:01Z</time>
      </trkpt>
      <trkpt lat="42.721526" lon="-5.623989">
        <ele>923.042</ele>
        <time>1999-07-20T10:32:02Z</time>
      </trkpt>
      <trkpt lat="42.721558" lon="-5.623952">
        <ele>922.869</ele>
        <time>1999-07-20T10:32:04Z</time>
      </trkpt>
      <trkpt lat="42.721597" lon="-5.624002">
        <ele>921.844</ele>
        <time>1999-07-20T10:32:06Z</time>
      </trkpt>
      <trkpt lat="42.721604" lon="-5.624047">
        <ele>921.096</ele>
        <time>1999-07-20T10:32:07Z</time>
      </trkpt>
      <trkpt lat="42.721604" lon="-5.624094">
        <ele>920.631</ele>
        <time>1999-07-20T10:32:08Z</time>
      </trkpt>
      <trkpt lat="42.721607" lon="-5.624144">
        <ele>919.824</ele>
        <time>1999-07-20T10:32:09Z</time>
      </trkpt>
      <trkpt lat="42.721644" lon="-5.624242">
        <ele>918.408</ele>
        <time>1999-07-20T10:32:11Z</time>
      </trkpt>
      <trkpt lat="42.721673" lon="-5.624295">
        <ele>918.072</ele>
        <time>1999-07-20T10:32:12Z</time>
      </trkpt>
      <trkpt lat="42.721744" lon="-5.624472">
        <ele>917.277</ele>
        <time>1999-07-20T10:32:15Z</time>
      </trkpt>
      <trkpt lat="42.721800" lon="-5.624634">
        <ele>916.817</ele>
        <time>1999-07-20T10:32:17Z</time>
      </trkpt>
      <trkpt lat="42.721867" lon="-5.624827">
        <ele>916.635</ele>
        <time>1999-07-20T10:32:19Z</time>
      </trkpt>
      <trkpt lat="42.721933" lon="-5.625010">
        <ele>916.493</ele>
        <time>1999-07-20T10:32:21Z</time>
      </trkpt>
      <trkpt lat="42.721964" lon="-5.625100">
        <ele>916.299</ele>
        <time>1999-07-20T10:32:22Z</time>
      </trkpt>
      <trkpt lat="42.722030" lon="-5.625283">
        <ele>916.096</ele>
        <time>1999-07-20T10:32:24Z</time>
      </trkpt>
      <trkpt lat="42.722060" lon="-5.625372">
        <ele>915.021</ele>
        <time>1999-07-20T10:32:25Z</time>
      </trkpt>
      <trkpt lat="42.722089" lon="-5.625465">
        <ele>914.631</ele>
        <time>1999-07-20T10:32:26Z</time>
      </trkpt>
      <trkpt lat="42.722118" lon="-5.625560">
        <ele>914.061</ele>
        <time>1999-07-20T10:32:27Z</time>
      </trkpt>
      <trkpt lat="42.722149" lon="-5.625656">
        <ele>913.207</ele>
        <time>1999-07-20T10:32:28Z</time>
      </trkpt>
      <trkpt lat="42.722177" lon="-5.625761">
        <ele>912.008</ele>
        <time>1999-07-20T10:32:29Z</time>
      </trkpt>
      <trkpt lat="42.722200" lon="-5.625866">
        <ele>911.076</ele>
        <time>1999-07-20T10:32:30Z</time>
      </trkpt>
      <trkpt lat="42.722218" lon="-5.625967">
        <ele>910.031</ele>
        <time>1999-07-20T10:32:31Z</time>
      </trkpt>
      <trkpt lat="42.722239" lon="-5.626065">
        <ele>908.811</ele>
        <time>1999-07-20T10:32:32Z</time>
      </trkpt>
      <trkpt lat="42.722264" lon="-5.626153">
        <ele>907.249</ele>
        <time>1999-07-20T10:32:33Z</time>
      </trkpt>
      <trkpt lat="42.722298" lon="-5.626235">
        <ele>905.827</ele>
        <time>1999-07-20T10:32:34Z</time>
      </trkpt>
      <trkpt lat="42.722326" lon="-5.626324">
        <ele>904.873</ele>
        <time>1999-07-20T10:32:35Z</time>
      </trkpt>
      <trkpt lat="42.722345" lon="-5.626419">
        <ele>903.690</ele>
        <time>1999-07-20T10:32:36Z</time>
      </trkpt>
      <trkpt lat="42.722366" lon="-5.626528">
        <ele>902.445</ele>
        <time>1999-07-20T10:32:37Z</time>
      </trkpt>
      <trkpt lat="42.722385" lon="-5.626653">
        <ele>901.219</ele>
        <time>1999-07-20T10:32:38Z</time>
      </trkpt>
      <trkpt lat="42.722426" lon="-5.626923">
        <ele>899.209</ele>
        <time>1999-07-20T10:32:40Z</time>
      </trkpt>
      <trkpt lat="42.722446" lon="-5.627058">
        <ele>898.019</ele>
        <time>1999-07-20T10:32:41Z</time>
      </trkpt>
      <trkpt lat="42.722487" lon="-5.627311">
        <ele>896.208</ele>
        <time>1999-07-20T10:32:43Z</time>
      </trkpt>
      <trkpt lat="42.722513" lon="-5.627426">
        <ele>895.214</ele>
        <time>1999-07-20T10:32:44Z</time>
      </trkpt>
      <trkpt lat="42.722554" lon="-5.627638">
        <ele>893.429</ele>
        <time>1999-07-20T10:32:46Z</time>
      </trkpt>
      <trkpt lat="42.722591" lon="-5.627839">
        <ele>891.669</ele>
        <time>1999-07-20T10:32:48Z</time>
      </trkpt>
      <trkpt lat="42.722629" lon="-5.628047">
        <ele>890.467</ele>
        <time>1999-07-20T10:32:50Z</time>
      </trkpt>
      <trkpt lat="42.722650" lon="-5.628272">
        <ele>889.435</ele>
        <time>1999-07-20T10:32:52Z</time>
      </trkpt>
      <trkpt lat="42.722650" lon="-5.628392">
        <ele>888.821</ele>
        <time>1999-07-20T10:32:53Z</time>
      </trkpt>
      <trkpt lat="42.722619" lon="-5.628766">
        <ele>888.218</ele>
        <time>1999-07-20T10:32:56Z</time>
      </trkpt>
      <trkpt lat="42.722606" lon="-5.628871">
        <ele>887.623</ele>
        <time>1999-07-20T10:32:57Z</time>
      </trkpt>
      <trkpt lat="42.722599" lon="-5.628960">
        <ele>887.247</ele>
        <time>1999-07-20T10:32:58Z</time>
      </trkpt>
      <trkpt lat="42.722609" lon="-5.629035">
        <ele>887.029</ele>
        <time>1999-07-20T10:32:59Z</time>
      </trkpt>
      <trkpt lat="42.722632" lon="-5.629097">
        <ele>886.821</ele>
        <time>1999-07-20T10:33:00Z</time>
      </trkpt>
      <trkpt lat="42.722666" lon="-5.629154">
        <ele>885.608</ele>
        <time>1999-07-20T10:33:01Z</time>
      </trkpt>
      <trkpt lat="42.722773" lon="-5.629232">
        <ele>883.877</ele>
        <time>1999-07-20T10:33:03Z</time>
      </trkpt>
      <trkpt lat="42.722835" lon="-5.629255">
        <ele>882.662</ele>
        <time>1999-07-20T10:33:04Z</time>
      </trkpt>
      <trkpt lat="42.722905" lon="-5.629268">
        <ele>881.472</ele>
        <time>1999-07-20T10:33:05Z</time>
      </trkpt>
      <trkpt lat="42.722972" lon="-5.629277">
        <ele>880.440</ele>
        <time>1999-07-20T10:33:06Z</time>
      </trkpt>
      <trkpt lat="42.723030" lon="-5.629293">
        <ele>879.418</ele>
        <time>1999-07-20T10:33:07Z</time>
      </trkpt>
      <trkpt lat="42.723079" lon="-5.629322">
        <ele>878.894</ele>
        <time>1999-07-20T10:33:08Z</time>
      </trkpt>
      <trkpt lat="42.723157" lon="-5.629431">
        <ele>877.691</ele>
        <time>1999-07-20T10:33:10Z</time>
      </trkpt>
      <trkpt lat="42.723211" lon="-5.629587">
        <ele>876.416</ele>
        <time>1999-07-20T10:33:12Z</time>
      </trkpt>
      <trkpt lat="42.723233" lon="-5.629671">
        <ele>875.831</ele>
        <time>1999-07-20T10:33:13Z</time>
      </trkpt>
      <trkpt lat="42.723263" lon="-5.629755">
        <ele>875.461</ele>
        <time>1999-07-20T10:33:14Z</time>
      </trkpt>
      <trkpt lat="42.723360" lon="-5.629899">
        <ele>873.807</ele>
        <time>1999-07-20T10:33:16Z</time>
      </trkpt>
      <trkpt lat="42.723429" lon="-5.629938">
        <ele>873.008</ele>
        <time>1999-07-20T10:33:17Z</time>
      </trkpt>
      <trkpt lat="42.723504" lon="-5.629951">
        <ele>872.496</ele>
        <time>1999-07-20T10:33:18Z</time>
      </trkpt>
      <trkpt lat="42.723638" lon="-5.629922">
        <ele>871.071</ele>
        <time>1999-07-20T10:33:20Z</time>
      </trkpt>
      <trkpt lat="42.723701" lon="-5.629891">
        <ele>870.081</ele>
        <time>1999-07-20T10:33:21Z</time>
      </trkpt>
      <trkpt lat="42.723760" lon="-5.629860">
        <ele>869.869</ele>
        <time>1999-07-20T10:33:22Z</time>
      </trkpt>
      <trkpt lat="42.723815" lon="-5.629826">
        <ele>869.667</ele>
        <time>1999-07-20T10:33:23Z</time>
      </trkpt>
      <trkpt lat="42.723923" lon="-5.629748">
        <ele>869.063</ele>
        <time>1999-07-20T10:33:25Z</time>
      </trkpt>
      <trkpt lat="42.724108" lon="-5.629647">
        <ele>868.830</ele>
        <time>1999-07-20T10:33:28Z</time>
      </trkpt>
      <trkpt lat="42.724173" lon="-5.629632">
        <ele>868.635</ele>
        <time>1999-07-20T10:33:29Z</time>
      </trkpt>
      <trkpt lat="42.724426" lon="-5.629672">
        <ele>868.246</ele>
        <time>1999-07-20T10:33:33Z</time>
      </trkpt>
      <trkpt lat="42.724609" lon="-5.629743">
        <ele>867.688</ele>
        <time>1999-07-20T10:33:36Z</time>
      </trkpt>
      <trkpt lat="42.724849" lon="-5.629862">
        <ele>867.016</ele>
        <time>1999-07-20T10:33:40Z</time>
      </trkpt>
      <trkpt lat="42.725061" lon="-5.630005">
        <ele>866.608</ele>
        <time>1999-07-20T10:33:44Z</time>
      </trkpt>
      <trkpt lat="42.725157" lon="-5.630090">
        <ele>866.697</ele>
        <time>1999-07-20T10:33:46Z</time>
      </trkpt>
      <trkpt lat="42.725201" lon="-5.630136">
        <ele>866.662</ele>
        <time>1999-07-20T10:33:47Z</time>
      </trkpt>
      <trkpt lat="42.725355" lon="-5.630335">
        <ele>866.662</ele>
        <time>1999-07-20T10:33:51Z</time>
      </trkpt>
      <trkpt lat="42.725385" lon="-5.630383">
        <ele>866.660</ele>
        <time>1999-07-20T10:33:52Z</time>
      </trkpt>
      <trkpt lat="42.725477" lon="-5.630535">
        <ele>866.688</ele>
        <time>1999-07-20T10:33:55Z</time>
      </trkpt>
      <trkpt lat="42.725567" lon="-5.630631">
        <ele>866.824</ele>
        <time>1999-07-20T10:33:57Z</time>
      </trkpt>
      <trkpt lat="42.725854" lon="-5.630943">
        <ele>866.871</ele>
        <time>1999-07-20T10:34:03Z</time>
      </trkpt>
      <trkpt lat="42.725952" lon="-5.631028">
        <ele>866.616</ele>
        <time>1999-07-20T10:34:05Z</time>
      </trkpt>
      <trkpt lat="42.726110" lon="-5.631123">
        <ele>866.273</ele>
        <time>1999-07-20T10:34:08Z</time>
      </trkpt>
      <trkpt lat="42.726496" lon="-5.631279">
        <ele>866.085</ele>
        <time>1999-07-20T10:34:15Z</time>
      </trkpt>
      <trkpt lat="42.726869" lon="-5.631441">
        <ele>866.013</ele>
        <time>1999-07-20T10:34:22Z</time>
      </trkpt>
      <trkpt lat="42.727246" lon="-5.631648">
        <ele>866.208</ele>
        <time>1999-07-20T10:34:29Z</time>
      </trkpt>
      <trkpt lat="42.727517" lon="-5.631788">
        <ele>866.240</ele>
        <time>1999-07-20T10:34:34Z</time>
      </trkpt>
      <trkpt lat="42.727761" lon="-5.631917">
        <ele>866.245</ele>
        <time>1999-07-20T10:34:39Z</time>
      </trkpt>
      <trkpt lat="42.727808" lon="-5.631937">
        <ele>866.455</ele>
        <time>1999-07-20T10:34:40Z</time>
      </trkpt>
      <trkpt lat="42.727948" lon="-5.632002">
        <ele>866.463</ele>
        <time>1999-07-20T10:34:43Z</time>
      </trkpt>
      <trkpt lat="42.728122" lon="-5.632071">
        <ele>866.691</ele>
        <time>1999-07-20T10:34:47Z</time>
      </trkpt>
      <trkpt lat="42.728348" lon="-5.632059">
        <ele>867.037</ele>
        <time>1999-07-20T10:34:53Z</time>
      </trkpt>
      <trkpt lat="42.728396" lon="-5.632027">
        <ele>867.254</ele>
        <time>1999-07-20T10:34:56Z</time>
      </trkpt>
      <trkpt lat="42.728406" lon="-5.632019">
        <ele>867.499</ele>
        <time>1999-07-20T10:34:57Z</time>
      </trkpt>
      <trkpt lat="42.728415" lon="-5.632019">
        <ele>867.654</ele>
        <time>1999-07-20T10:34:59Z</time>
      </trkpt>
      <trkpt lat="42.728509" lon="-5.632066">
        <ele>868.456</ele>
        <time>1999-07-20T10:35:53Z</time>
      </trkpt>
      <trkpt lat="42.728521" lon="-5.632088">
        <ele>868.411</ele>
        <time>1999-07-20T10:35:54Z</time>
      </trkpt>
      <trkpt lat="42.728584" lon="-5.632226">
        <ele>868.608</ele>
        <time>1999-07-20T10:35:59Z</time>
      </trkpt>
      <trkpt lat="42.728599" lon="-5.632335">
        <ele>868.638</ele>
        <time>1999-07-20T10:36:02Z</time>
      </trkpt>
      <trkpt lat="42.728607" lon="-5.632444">
        <ele>869.013</ele>
        <time>1999-07-20T10:36:05Z</time>
      </trkpt>
      <trkpt lat="42.728626" lon="-5.632555">
        <ele>869.473</ele>
        <time>1999-07-20T10:36:09Z</time>
      </trkpt>
      <trkpt lat="42.728640" lon="-5.632571">
        <ele>869.461</ele>
        <time>1999-07-20T10:36:10Z</time>
      </trkpt>
      <trkpt lat="42.728705" lon="-5.632510">
        <ele>869.869</ele>
        <time>1999-07-20T10:36:13Z</time>
      </trkpt>
      <trkpt lat="42.728768" lon="-5.632453">
        <ele>870.075</ele>
        <time>1999-07-20T10:36:15Z</time>
      </trkpt>
      <trkpt lat="42.728829" lon="-5.632404">
        <ele>870.272</ele>
        <time>1999-07-20T10:36:17Z</time>
      </trkpt>
      <trkpt lat="42.728861" lon="-5.632384">
        <ele>870.227</ele>
        <time>1999-07-20T10:36:18Z</time>
      </trkpt>
      <trkpt lat="42.728979" lon="-5.632340">
        <ele>870.272</ele>
        <time>1999-07-20T10:36:22Z</time>
      </trkpt>
      <trkpt lat="42.729048" lon="-5.632314">
        <ele>870.613</ele>
        <time>1999-07-20T10:36:24Z</time>
      </trkpt>
      <trkpt lat="42.729135" lon="-5.632302">
        <ele>870.814</ele>
        <time>1999-07-20T10:36:27Z</time>
      </trkpt>
      <trkpt lat="42.729306" lon="-5.632295">
        <ele>871.208</ele>
        <time>1999-07-20T10:36:32Z</time>
      </trkpt>
      <trkpt lat="42.729432" lon="-5.632299">
        <ele>871.690</ele>
        <time>1999-07-20T10:36:35Z</time>
      </trkpt>
      <trkpt lat="42.729481" lon="-5.632299">
        <ele>871.655</ele>
        <time>1999-07-20T10:36:36Z</time>
      </trkpt>
      <trkpt lat="42.729533" lon="-5.632300">
        <ele>871.685</ele>
        <time>1999-07-20T10:36:37Z</time>
      </trkpt>
      <trkpt lat="42.729746" lon="-5.632297">
        <ele>871.823</ele>
        <time>1999-07-20T10:36:41Z</time>
      </trkpt>
      <trkpt lat="42.729853" lon="-5.632288">
        <ele>871.851</ele>
        <time>1999-07-20T10:36:43Z</time>
      </trkpt>
      <trkpt lat="42.729956" lon="-5.632280">
        <ele>871.687</ele>
        <time>1999-07-20T10:36:45Z</time>
      </trkpt>
      <trkpt lat="42.730103" lon="-5.632235">
        <ele>871.454</ele>
        <time>1999-07-20T10:36:48Z</time>
      </trkpt>
      <trkpt lat="42.730295" lon="-5.632170">
        <ele>871.249</ele>
        <time>1999-07-20T10:36:52Z</time>
      </trkpt>
      <trkpt lat="42.730396" lon="-5.632128">
        <ele>871.224</ele>
        <time>1999-07-20T10:36:54Z</time>
      </trkpt>
      <trkpt lat="42.730500" lon="-5.632099">
        <ele>871.004</ele>
        <time>1999-07-20T10:36:56Z</time>
      </trkpt>
      <trkpt lat="42.730765" lon="-5.632037">
        <ele>870.814</ele>
        <time>1999-07-20T10:37:01Z</time>
      </trkpt>
      <trkpt lat="42.731058" lon="-5.631941">
        <ele>870.808</ele>
        <time>1999-07-20T10:37:07Z</time>
      </trkpt>
      <trkpt lat="42.731319" lon="-5.631857">
        <ele>870.845</ele>
        <time>1999-07-20T10:37:12Z</time>
      </trkpt>
      <trkpt lat="42.731423" lon="-5.631831">
        <ele>870.830</ele>
        <time>1999-07-20T10:37:14Z</time>
      </trkpt>
      <trkpt lat="42.731677" lon="-5.631820">
        <ele>870.880</ele>
        <time>1999-07-20T10:37:19Z</time>
      </trkpt>
      <trkpt lat="42.732044" lon="-5.631871">
        <ele>870.828</ele>
        <time>1999-07-20T10:37:26Z</time>
      </trkpt>
      <trkpt lat="42.732337" lon="-5.631890">
        <ele>870.826</ele>
        <time>1999-07-20T10:37:32Z</time>
      </trkpt>
      <trkpt lat="42.732672" lon="-5.631906">
        <ele>871.232</ele>
        <time>1999-07-20T10:37:39Z</time>
      </trkpt>
      <trkpt lat="42.733041" lon="-5.631935">
        <ele>871.689</ele>
        <time>1999-07-20T10:37:47Z</time>
      </trkpt>
      <trkpt lat="42.733257" lon="-5.631932">
        <ele>871.894</ele>
        <time>1999-07-20T10:37:52Z</time>
      </trkpt>
      <trkpt lat="42.733337" lon="-5.631944">
        <ele>871.868</ele>
        <time>1999-07-20T10:37:54Z</time>
      </trkpt>
      <trkpt lat="42.733564" lon="-5.631990">
        <ele>872.642</ele>
        <time>1999-07-20T10:38:00Z</time>
      </trkpt>
      <trkpt lat="42.733600" lon="-5.632001">
        <ele>872.826</ele>
        <time>1999-07-20T10:38:01Z</time>
      </trkpt>
      <trkpt lat="42.733794" lon="-5.632063">
        <ele>873.808</ele>
        <time>1999-07-20T10:38:07Z</time>
      </trkpt>
      <trkpt lat="42.733978" lon="-5.632114">
        <ele>874.859</ele>
        <time>1999-07-20T10:38:13Z</time>
      </trkpt>
      <trkpt lat="42.734007" lon="-5.632117">
        <ele>875.034</ele>
        <time>1999-07-20T10:38:14Z</time>
      </trkpt>
      <trkpt lat="42.734170" lon="-5.632143">
        <ele>875.674</ele>
        <time>1999-07-20T10:38:19Z</time>
      </trkpt>
      <trkpt lat="42.734302" lon="-5.632158">
        <ele>876.072</ele>
        <time>1999-07-20T10:38:22Z</time>
      </trkpt>
      <trkpt lat="42.734412" lon="-5.632174">
        <ele>876.070</ele>
        <time>1999-07-20T10:38:24Z</time>
      </trkpt>
      <trkpt lat="42.734555" lon="-5.632197">
        <ele>876.076</ele>
        <time>1999-07-20T10:38:27Z</time>
      </trkpt>
      <trkpt lat="42.734580" lon="-5.632200">
        <ele>876.023</ele>
        <time>1999-07-20T10:38:28Z</time>
      </trkpt>
      <trkpt lat="42.734599" lon="-5.632201">
        <ele>876.098</ele>
        <time>1999-07-20T10:38:31Z</time>
      </trkpt>
      <trkpt lat="42.734648" lon="-5.632188">
        <ele>874.021</ele>
        <time>1999-07-20T10:38:41Z</time>
      </trkpt>
      <trkpt lat="42.734695" lon="-5.632200">
        <ele>874.041</ele>
        <time>1999-07-20T10:38:43Z</time>
      </trkpt>
      <trkpt lat="42.734793" lon="-5.632226">
        <ele>874.005</ele>
        <time>1999-07-20T10:38:46Z</time>
      </trkpt>
      <trkpt lat="42.734871" lon="-5.632252">
        <ele>873.808</ele>
        <time>1999-07-20T10:38:48Z</time>
      </trkpt>
      <trkpt lat="42.734915" lon="-5.632268">
        <ele>873.835</ele>
        <time>1999-07-20T10:38:50Z</time>
      </trkpt>
      <trkpt lat="42.735058" lon="-5.632350">
        <ele>873.470</ele>
        <time>1999-07-20T10:38:56Z</time>
      </trkpt>
      <trkpt lat="42.735126" lon="-5.632367">
        <ele>872.890</ele>
        <time>1999-07-20T10:38:58Z</time>
      </trkpt>
      <trkpt lat="42.735191" lon="-5.632325">
        <ele>872.618</ele>
        <time>1999-07-20T10:39:00Z</time>
      </trkpt>
      <trkpt lat="42.735294" lon="-5.632126">
        <ele>872.456</ele>
        <time>1999-07-20T10:39:05Z</time>
      </trkpt>
      <trkpt lat="42.735351" lon="-5.632012">
        <ele>872.492</ele>
        <time>1999-07-20T10:39:08Z</time>
      </trkpt>
      <trkpt lat="42.735402" lon="-5.631880">
        <ele>872.459</ele>
        <time>1999-07-20T10:39:12Z</time>
      </trkpt>
      <trkpt lat="42.735414" lon="-5.631851">
        <ele>872.494</ele>
        <time>1999-07-20T10:39:13Z</time>
      </trkpt>
      <trkpt lat="42.735456" lon="-5.631777">
        <ele>872.428</ele>
        <time>1999-07-20T10:39:16Z</time>
      </trkpt>
      <trkpt lat="42.735485" lon="-5.631746">
        <ele>872.489</ele>
        <time>1999-07-20T10:39:18Z</time>
      </trkpt>
      <trkpt lat="42.735535" lon="-5.631727">
        <ele>872.617</ele>
        <time>1999-07-20T10:39:21Z</time>
      </trkpt>
      <trkpt lat="42.735570" lon="-5.631731">
        <ele>873.008</ele>
        <time>1999-07-20T10:39:23Z</time>
      </trkpt>
      <trkpt lat="42.735632" lon="-5.631695">
        <ele>873.875</ele>
        <time>1999-07-20T10:39:27Z</time>
      </trkpt>
      <trkpt lat="42.735649" lon="-5.631689">
        <ele>873.860</ele>
        <time>1999-07-20T10:39:28Z</time>
      </trkpt>
      <trkpt lat="42.735729" lon="-5.631694">
        <ele>874.840</ele>
        <time>1999-07-20T10:39:34Z</time>
      </trkpt>
      <trkpt lat="42.735729" lon="-5.631693">
        <ele>875.098</ele>
        <time>1999-07-20T10:39:35Z</time>
      </trkpt>
      <trkpt lat="42.735848" lon="-5.631541">
        <ele>880.236</ele>
        <time>1999-07-20T10:40:12Z</time>
      </trkpt>
      <trkpt lat="42.735864" lon="-5.631540">
        <ele>880.212</ele>
        <time>1999-07-20T10:40:13Z</time>
      </trkpt>
      <trkpt lat="42.735882" lon="-5.631539">
        <ele>880.299</ele>
        <time>1999-07-20T10:40:14Z</time>
      </trkpt>
      <trkpt lat="42.736016" lon="-5.631532">
        <ele>880.684</ele>
        <time>1999-07-20T10:40:19Z</time>
      </trkpt>
      <trkpt lat="42.736164" lon="-5.631502">
        <ele>881.081</ele>
        <time>1999-07-20T10:40:24Z</time>
      </trkpt>
      <trkpt lat="42.736244" lon="-5.631499">
        <ele>881.061</ele>
        <time>1999-07-20T10:40:26Z</time>
      </trkpt>
      <trkpt lat="42.736378" lon="-5.631505">
        <ele>881.017</ele>
        <time>1999-07-20T10:40:29Z</time>
      </trkpt>
      <trkpt lat="42.736564" lon="-5.631537">
        <ele>881.208</ele>
        <time>1999-07-20T10:40:33Z</time>
      </trkpt>
      <trkpt lat="42.736666" lon="-5.631559">
        <ele>881.241</ele>
        <time>1999-07-20T10:40:35Z</time>
      </trkpt>
      <trkpt lat="42.736825" lon="-5.631599">
        <ele>881.286</ele>
        <time>1999-07-20T10:40:38Z</time>
      </trkpt>
      <trkpt lat="42.736988" lon="-5.631648">
        <ele>881.076</ele>
        <time>1999-07-20T10:40:41Z</time>
      </trkpt>
      <trkpt lat="42.737048" lon="-5.631670">
        <ele>880.844</ele>
        <time>1999-07-20T10:40:42Z</time>
      </trkpt>
      <trkpt lat="42.737109" lon="-5.631696">
        <ele>880.882</ele>
        <time>1999-07-20T10:40:43Z</time>
      </trkpt>
      <trkpt lat="42.737295" lon="-5.631786">
        <ele>880.468</ele>
        <time>1999-07-20T10:40:46Z</time>
      </trkpt>
      <trkpt lat="42.737341" lon="-5.631814">
        <ele>880.255</ele>
        <time>1999-07-20T10:40:47Z</time>
      </trkpt>
      <trkpt lat="42.737424" lon="-5.631854">
        <ele>879.810</ele>
        <time>1999-07-20T10:40:49Z</time>
      </trkpt>
      <trkpt lat="42.737470" lon="-5.631870">
        <ele>879.633</ele>
        <time>1999-07-20T10:40:50Z</time>
      </trkpt>
      <trkpt lat="42.737618" lon="-5.631894">
        <ele>879.223</ele>
        <time>1999-07-20T10:40:53Z</time>
      </trkpt>
      <trkpt lat="42.737805" lon="-5.631933">
        <ele>879.015</ele>
        <time>1999-07-20T10:40:58Z</time>
      </trkpt>
      <trkpt lat="42.737953" lon="-5.631984">
        <ele>879.208</ele>
        <time>1999-07-20T10:41:02Z</time>
      </trkpt>
      <trkpt lat="42.737991" lon="-5.631993">
        <ele>879.476</ele>
        <time>1999-07-20T10:41:03Z</time>
      </trkpt>
      <trkpt lat="42.738115" lon="-5.632037">
        <ele>880.281</ele>
        <time>1999-07-20T10:41:07Z</time>
      </trkpt>
      <trkpt lat="42.738149" lon="-5.632051">
        <ele>880.441</ele>
        <time>1999-07-20T10:41:08Z</time>
      </trkpt>
      <trkpt lat="42.738288" lon="-5.632098">
        <ele>881.099</ele>
        <time>1999-07-20T10:41:12Z</time>
      </trkpt>
      <trkpt lat="42.738404" lon="-5.632122">
        <ele>881.417</ele>
        <time>1999-07-20T10:41:15Z</time>
      </trkpt>
      <trkpt lat="42.738448" lon="-5.632126">
        <ele>881.483</ele>
        <time>1999-07-20T10:41:16Z</time>
      </trkpt>
      <trkpt lat="42.738557" lon="-5.632136">
        <ele>881.440</ele>
        <time>1999-07-20T10:41:19Z</time>
      </trkpt>
      <trkpt lat="42.738577" lon="-5.632133">
        <ele>881.475</ele>
        <time>1999-07-20T10:41:20Z</time>
      </trkpt>
      <trkpt lat="42.738648" lon="-5.632147">
        <ele>881.419</ele>
        <time>1999-07-20T10:41:24Z</time>
      </trkpt>
      <trkpt lat="42.738788" lon="-5.632173">
        <ele>881.209</ele>
        <time>1999-07-20T10:41:28Z</time>
      </trkpt>
      <trkpt lat="42.738824" lon="-5.632224">
        <ele>881.219</ele>
        <time>1999-07-20T10:41:30Z</time>
      </trkpt>
      <trkpt lat="42.738840" lon="-5.632312">
        <ele>881.008</ele>
        <time>1999-07-20T10:41:32Z</time>
      </trkpt>
      <trkpt lat="42.738893" lon="-5.632425">
        <ele>881.024</ele>
        <time>1999-07-20T10:41:35Z</time>
      </trkpt>
      <trkpt lat="42.738921" lon="-5.632439">
        <ele>880.819</ele>
        <time>1999-07-20T10:41:36Z</time>
      </trkpt>
      <trkpt lat="42.739103" lon="-5.632425">
        <ele>880.469</ele>
        <time>1999-07-20T10:41:40Z</time>
      </trkpt>
      <trkpt lat="42.739211" lon="-5.632417">
        <ele>879.677</ele>
        <time>1999-07-20T10:41:42Z</time>
      </trkpt>
      <trkpt lat="42.739261" lon="-5.632409">
        <ele>879.435</ele>
        <time>1999-07-20T10:41:43Z</time>
      </trkpt>
      <trkpt lat="42.739320" lon="-5.632389">
        <ele>878.651</ele>
        <time>1999-07-20T10:41:45Z</time>
      </trkpt>
      <trkpt lat="42.739345" lon="-5.632386">
        <ele>877.828</ele>
        <time>1999-07-20T10:41:48Z</time>
      </trkpt>
      <trkpt lat="42.739348" lon="-5.632388">
        <ele>877.663</ele>
        <time>1999-07-20T10:41:49Z</time>
      </trkpt>
      <trkpt lat="42.739493" lon="-5.632435">
        <ele>875.854</ele>
        <time>1999-07-20T10:42:35Z</time>
      </trkpt>
      <trkpt lat="42.739520" lon="-5.632444">
        <ele>875.856</ele>
        <time>1999-07-20T10:42:36Z</time>
      </trkpt>
      <trkpt lat="42.739551" lon="-5.632443">
        <ele>875.811</ele>
        <time>1999-07-20T10:42:37Z</time>
      </trkpt>
      <trkpt lat="42.739733" lon="-5.632436">
        <ele>875.808</ele>
        <time>1999-07-20T10:42:42Z</time>
      </trkpt>
      <trkpt lat="42.740011" lon="-5.632436">
        <ele>876.098</ele>
        <time>1999-07-20T10:42:48Z</time>
      </trkpt>
      <trkpt lat="42.740102" lon="-5.632437">
        <ele>876.033</ele>
        <time>1999-07-20T10:42:50Z</time>
      </trkpt>
      <trkpt lat="42.740147" lon="-5.632433">
        <ele>876.043</ele>
        <time>1999-07-20T10:42:51Z</time>
      </trkpt>
      <trkpt lat="42.740276" lon="-5.632436">
        <ele>876.291</ele>
        <time>1999-07-20T10:42:54Z</time>
      </trkpt>
      <trkpt lat="42.740505" lon="-5.632453">
        <ele>876.459</ele>
        <time>1999-07-20T10:43:00Z</time>
      </trkpt>
      <trkpt lat="42.740609" lon="-5.632469">
        <ele>876.635</ele>
        <time>1999-07-20T10:43:03Z</time>
      </trkpt>
      <trkpt lat="42.740684" lon="-5.632483">
        <ele>876.862</ele>
        <time>1999-07-20T10:43:05Z</time>
      </trkpt>
      <trkpt lat="42.740768" lon="-5.632510">
        <ele>877.027</ele>
        <time>1999-07-20T10:43:07Z</time>
      </trkpt>
      <trkpt lat="42.741014" lon="-5.632587">
        <ele>877.891</ele>
        <time>1999-07-20T10:43:13Z</time>
      </trkpt>
      <trkpt lat="42.741094" lon="-5.632614">
        <ele>878.081</ele>
        <time>1999-07-20T10:43:15Z</time>
      </trkpt>
      <trkpt lat="42.741239" lon="-5.632643">
        <ele>878.019</ele>
        <time>1999-07-20T10:43:18Z</time>
      </trkpt>
      <trkpt lat="42.741335" lon="-5.632650">
        <ele>878.008</ele>
        <time>1999-07-20T10:43:20Z</time>
      </trkpt>
      <trkpt lat="42.741460" lon="-5.632632">
        <ele>878.042</ele>
        <time>1999-07-20T10:43:23Z</time>
      </trkpt>
      <trkpt lat="42.741577" lon="-5.632614">
        <ele>878.277</ele>
        <time>1999-07-20T10:43:26Z</time>
      </trkpt>
      <trkpt lat="42.741641" lon="-5.632627">
        <ele>878.257</ele>
        <time>1999-07-20T10:43:28Z</time>
      </trkpt>
      <trkpt lat="42.741761" lon="-5.632647">
        <ele>878.635</ele>
        <time>1999-07-20T10:43:31Z</time>
      </trkpt>
      <trkpt lat="42.741807" lon="-5.632662">
        <ele>879.013</ele>
        <time>1999-07-20T10:43:32Z</time>
      </trkpt>
      <trkpt lat="42.741852" lon="-5.632681">
        <ele>879.229</ele>
        <time>1999-07-20T10:43:33Z</time>
      </trkpt>
      <trkpt lat="42.742075" lon="-5.632771">
        <ele>879.496</ele>
        <time>1999-07-20T10:43:37Z</time>
      </trkpt>
      <trkpt lat="42.742376" lon="-5.632860">
        <ele>879.421</ele>
        <time>1999-07-20T10:43:42Z</time>
      </trkpt>
      <trkpt lat="42.742427" lon="-5.632866">
        <ele>879.431</ele>
        <time>1999-07-20T10:43:43Z</time>
      </trkpt>
      <trkpt lat="42.742571" lon="-5.632866">
        <ele>879.261</ele>
        <time>1999-07-20T10:43:46Z</time>
      </trkpt>
      <trkpt lat="42.742619" lon="-5.632880">
        <ele>879.207</ele>
        <time>1999-07-20T10:43:47Z</time>
      </trkpt>
      <trkpt lat="42.742670" lon="-5.632899">
        <ele>879.208</ele>
        <time>1999-07-20T10:43:48Z</time>
      </trkpt>
      <trkpt lat="42.742720" lon="-5.632907">
        <ele>879.256</ele>
        <time>1999-07-20T10:43:49Z</time>
      </trkpt>
      <trkpt lat="42.742830" lon="-5.632917">
        <ele>879.271</ele>
        <time>1999-07-20T10:43:51Z</time>
      </trkpt>
      <trkpt lat="42.742987" lon="-5.632916">
        <ele>879.281</ele>
        <time>1999-07-20T10:43:54Z</time>
      </trkpt>
      <trkpt lat="42.743069" lon="-5.632903">
        <ele>879.259</ele>
        <time>1999-07-20T10:43:56Z</time>
      </trkpt>
      <trkpt lat="42.743274" lon="-5.632876">
        <ele>879.497</ele>
        <time>1999-07-20T10:44:02Z</time>
      </trkpt>
      <trkpt lat="42.743363" lon="-5.632882">
        <ele>880.023</ele>
        <time>1999-07-20T10:44:05Z</time>
      </trkpt>
      <trkpt lat="42.743443" lon="-5.632878">
        <ele>880.810</ele>
        <time>1999-07-20T10:44:08Z</time>
      </trkpt>
      <trkpt lat="42.743465" lon="-5.632874">
        <ele>881.065</ele>
        <time>1999-07-20T10:44:09Z</time>
      </trkpt>
      <trkpt lat="42.743531" lon="-5.632864">
        <ele>881.234</ele>
        <time>1999-07-20T10:44:12Z</time>
      </trkpt>
      <trkpt lat="42.743593" lon="-5.632844">
        <ele>882.055</ele>
        <time>1999-07-20T10:44:15Z</time>
      </trkpt>
      <trkpt lat="42.743616" lon="-5.632838">
        <ele>882.210</ele>
        <time>1999-07-20T10:44:16Z</time>
      </trkpt>
      <trkpt lat="42.743691" lon="-5.632835">
        <ele>883.008</ele>
        <time>1999-07-20T10:44:19Z</time>
      </trkpt>
      <trkpt lat="42.743783" lon="-5.632844">
        <ele>884.056</ele>
        <time>1999-07-20T10:44:23Z</time>
      </trkpt>
      <trkpt lat="42.743806" lon="-5.632847">
        <ele>884.421</ele>
        <time>1999-07-20T10:44:24Z</time>
      </trkpt>
      <trkpt lat="42.743875" lon="-5.632837">
        <ele>885.631</ele>
        <time>1999-07-20T10:44:27Z</time>
      </trkpt>
      <trkpt lat="42.743920" lon="-5.632830">
        <ele>886.259</ele>
        <time>1999-07-20T10:44:29Z</time>
      </trkpt>
      <trkpt lat="42.743967" lon="-5.632820">
        <ele>886.637</ele>
        <time>1999-07-20T10:44:31Z</time>
      </trkpt>
      <trkpt lat="42.744034" lon="-5.632810">
        <ele>887.893</ele>
        <time>1999-07-20T10:44:34Z</time>
      </trkpt>
      <trkpt lat="42.744073" lon="-5.632803">
        <ele>888.090</ele>
        <time>1999-07-20T10:44:36Z</time>
      </trkpt>
      <trkpt lat="42.744154" lon="-5.632783">
        <ele>889.035</ele>
        <time>1999-07-20T10:44:40Z</time>
      </trkpt>
      <trkpt lat="42.744220" lon="-5.632767">
        <ele>889.623</ele>
        <time>1999-07-20T10:44:43Z</time>
      </trkpt>
      <trkpt lat="42.744269" lon="-5.632752">
        <ele>890.083</ele>
        <time>1999-07-20T10:44:45Z</time>
      </trkpt>
      <trkpt lat="42.744373" lon="-5.632710">
        <ele>891.011</ele>
        <time>1999-07-20T10:44:49Z</time>
      </trkpt>
      <trkpt lat="42.744482" lon="-5.632662">
        <ele>891.808</ele>
        <time>1999-07-20T10:44:53Z</time>
      </trkpt>
      <trkpt lat="42.744509" lon="-5.632649">
        <ele>892.265</ele>
        <time>1999-07-20T10:44:54Z</time>
      </trkpt>
      <trkpt lat="42.744674" lon="-5.632641">
        <ele>892.840</ele>
        <time>1999-07-20T10:45:00Z</time>
      </trkpt>
      <trkpt lat="42.744784" lon="-5.632680">
        <ele>893.210</ele>
        <time>1999-07-20T10:45:03Z</time>
      </trkpt>
      <trkpt lat="42.744818" lon="-5.632718">
        <ele>893.218</ele>
        <time>1999-07-20T10:45:04Z</time>
      </trkpt>
      <trkpt lat="42.744852" lon="-5.632763">
        <ele>893.466</ele>
        <time>1999-07-20T10:45:05Z</time>
      </trkpt>
      <trkpt lat="42.744892" lon="-5.632806">
        <ele>893.612</ele>
        <time>1999-07-20T10:45:06Z</time>
      </trkpt>
      <trkpt lat="42.744937" lon="-5.632840">
        <ele>893.619</ele>
        <time>1999-07-20T10:45:07Z</time>
      </trkpt>
      <trkpt lat="42.745034" lon="-5.632885">
        <ele>893.614</ele>
        <time>1999-07-20T10:45:09Z</time>
      </trkpt>
      <trkpt lat="42.745127" lon="-5.632898">
        <ele>893.688</ele>
        <time>1999-07-20T10:45:11Z</time>
      </trkpt>
      <trkpt lat="42.745229" lon="-5.632855">
        <ele>893.424</ele>
        <time>1999-07-20T10:45:13Z</time>
      </trkpt>
      <trkpt lat="42.745281" lon="-5.632814">
        <ele>893.226</ele>
        <time>1999-07-20T10:45:14Z</time>
      </trkpt>
      <trkpt lat="42.745393" lon="-5.632744">
        <ele>891.808</ele>
        <time>1999-07-20T10:45:16Z</time>
      </trkpt>
      <trkpt lat="42.745447" lon="-5.632733">
        <ele>891.031</ele>
        <time>1999-07-20T10:45:17Z</time>
      </trkpt>
      <trkpt lat="42.745496" lon="-5.632740">
        <ele>890.266</ele>
        <time>1999-07-20T10:45:18Z</time>
      </trkpt>
      <trkpt lat="42.745599" lon="-5.632758">
        <ele>888.886</ele>
        <time>1999-07-20T10:45:20Z</time>
      </trkpt>
      <trkpt lat="42.745652" lon="-5.632755">
        <ele>888.454</ele>
        <time>1999-07-20T10:45:21Z</time>
      </trkpt>
      <trkpt lat="42.745707" lon="-5.632754">
        <ele>887.282</ele>
        <time>1999-07-20T10:45:22Z</time>
      </trkpt>
      <trkpt lat="42.745823" lon="-5.632793">
        <ele>886.848</ele>
        <time>1999-07-20T10:45:24Z</time>
      </trkpt>
      <trkpt lat="42.745879" lon="-5.632828">
        <ele>886.625</ele>
        <time>1999-07-20T10:45:25Z</time>
      </trkpt>
      <trkpt lat="42.745947" lon="-5.632861">
        <ele>886.420</ele>
        <time>1999-07-20T10:45:26Z</time>
      </trkpt>
      <trkpt lat="42.746022" lon="-5.632891">
        <ele>886.221</ele>
        <time>1999-07-20T10:45:27Z</time>
      </trkpt>
      <trkpt lat="42.746096" lon="-5.632917">
        <ele>886.241</ele>
        <time>1999-07-20T10:45:28Z</time>
      </trkpt>
      <trkpt lat="42.746164" lon="-5.632937">
        <ele>885.605</ele>
        <time>1999-07-20T10:45:29Z</time>
      </trkpt>
      <trkpt lat="42.746223" lon="-5.632956">
        <ele>885.008</ele>
        <time>1999-07-20T10:45:30Z</time>
      </trkpt>
      <trkpt lat="42.746267" lon="-5.632970">
        <ele>884.285</ele>
        <time>1999-07-20T10:45:31Z</time>
      </trkpt>
      <trkpt lat="42.746304" lon="-5.632983">
        <ele>883.450</ele>
        <time>1999-07-20T10:45:32Z</time>
      </trkpt>
      <trkpt lat="42.746356" lon="-5.632995">
        <ele>882.050</ele>
        <time>1999-07-20T10:45:34Z</time>
      </trkpt>
      <trkpt lat="42.746394" lon="-5.633000">
        <ele>880.898</ele>
        <time>1999-07-20T10:45:36Z</time>
      </trkpt>
      <trkpt lat="42.746407" lon="-5.633003">
        <ele>879.886</ele>
        <time>1999-07-20T10:45:38Z</time>
      </trkpt>
      <trkpt lat="42.746410" lon="-5.633004">
        <ele>879.242</ele>
        <time>1999-07-20T10:45:39Z</time>
      </trkpt>
      <trkpt lat="42.746382" lon="-5.633137">
        <ele>876.819</ele>
        <time>1999-07-20T10:48:13Z</time>
      </trkpt>
      <trkpt lat="42.746376" lon="-5.633158">
        <ele>876.834</ele>
        <time>1999-07-20T10:48:14Z</time>
      </trkpt>
      <trkpt lat="42.746345" lon="-5.633268">
        <ele>876.835</ele>
        <time>1999-07-20T10:48:20Z</time>
      </trkpt>
      <trkpt lat="42.746340" lon="-5.633283">
        <ele>877.086</ele>
        <time>1999-07-20T10:48:21Z</time>
      </trkpt>
      <trkpt lat="42.746318" lon="-5.633358">
        <ele>877.014</ele>
        <time>1999-07-20T10:48:26Z</time>
      </trkpt>
      <trkpt lat="42.746309" lon="-5.633381">
        <ele>877.008</ele>
        <time>1999-07-20T10:48:28Z</time>
      </trkpt>
      <trkpt lat="42.746297" lon="-5.633400">
        <ele>877.016</ele>
        <time>1999-07-20T10:48:33Z</time>
      </trkpt>
      <trkpt lat="42.746324" lon="-5.633318">
        <ele>877.091</ele>
        <time>1999-07-20T10:51:02Z</time>
      </trkpt>
      <trkpt lat="42.746385" lon="-5.633106">
        <ele>877.071</ele>
        <time>1999-07-20T10:51:09Z</time>
      </trkpt>
      <trkpt lat="42.746438" lon="-5.633069">
        <ele>877.089</ele>
        <time>1999-07-20T10:51:11Z</time>
      </trkpt>
      <trkpt lat="42.746477" lon="-5.633072">
        <ele>877.077</ele>
        <time>1999-07-20T10:51:12Z</time>
      </trkpt>
      <trkpt lat="42.746589" lon="-5.633125">
        <ele>877.053</ele>
        <time>1999-07-20T10:51:15Z</time>
      </trkpt>
      <trkpt lat="42.746653" lon="-5.633163">
        <ele>877.010</ele>
        <time>1999-07-20T10:51:17Z</time>
      </trkpt>
      <trkpt lat="42.746705" lon="-5.633190">
        <ele>877.065</ele>
        <time>1999-07-20T10:51:19Z</time>
      </trkpt>
      <trkpt lat="42.746749" lon="-5.633214">
        <ele>877.264</ele>
        <time>1999-07-20T10:51:21Z</time>
      </trkpt>
      <trkpt lat="42.746787" lon="-5.633236">
        <ele>877.206</ele>
        <time>1999-07-20T10:51:23Z</time>
      </trkpt>
      <trkpt lat="42.746828" lon="-5.633244">
        <ele>877.216</ele>
        <time>1999-07-20T10:51:25Z</time>
      </trkpt>
      <trkpt lat="42.746867" lon="-5.633253">
        <ele>877.608</ele>
        <time>1999-07-20T10:51:27Z</time>
      </trkpt>
      <trkpt lat="42.746904" lon="-5.633258">
        <ele>878.289</ele>
        <time>1999-07-20T10:51:29Z</time>
      </trkpt>
      <trkpt lat="42.746926" lon="-5.633260">
        <ele>878.654</ele>
        <time>1999-07-20T10:51:30Z</time>
      </trkpt>
      <trkpt lat="42.746994" lon="-5.633266">
        <ele>879.034</ele>
        <time>1999-07-20T10:51:33Z</time>
      </trkpt>
      <trkpt lat="42.747041" lon="-5.633260">
        <ele>879.472</ele>
        <time>1999-07-20T10:51:35Z</time>
      </trkpt>
      <trkpt lat="42.747094" lon="-5.633276">
        <ele>879.810</ele>
        <time>1999-07-20T10:51:37Z</time>
      </trkpt>
      <trkpt lat="42.747259" lon="-5.633385">
        <ele>880.246</ele>
        <time>1999-07-20T10:51:42Z</time>
      </trkpt>
      <trkpt lat="42.747523" lon="-5.633451">
        <ele>880.433</ele>
        <time>1999-07-20T10:51:48Z</time>
      </trkpt>
      <trkpt lat="42.747609" lon="-5.633464">
        <ele>880.478</ele>
        <time>1999-07-20T10:51:50Z</time>
      </trkpt>
      <trkpt lat="42.747773" lon="-5.633483">
        <ele>880.684</ele>
        <time>1999-07-20T10:51:54Z</time>
      </trkpt>
      <trkpt lat="42.747975" lon="-5.633508">
        <ele>880.807</ele>
        <time>1999-07-20T10:52:00Z</time>
      </trkpt>
      <trkpt lat="42.748006" lon="-5.633514">
        <ele>881.017</ele>
        <time>1999-07-20T10:52:01Z</time>
      </trkpt>
      <trkpt lat="42.748071" lon="-5.633528">
        <ele>881.408</ele>
        <time>1999-07-20T10:52:03Z</time>
      </trkpt>
      <trkpt lat="42.748205" lon="-5.633555">
        <ele>882.241</ele>
        <time>1999-07-20T10:52:07Z</time>
      </trkpt>
      <trkpt lat="42.748239" lon="-5.633569">
        <ele>882.626</ele>
        <time>1999-07-20T10:52:08Z</time>
      </trkpt>
      <trkpt lat="42.748469" lon="-5.633686">
        <ele>883.466</ele>
        <time>1999-07-20T10:52:14Z</time>
      </trkpt>
      <trkpt lat="42.748511" lon="-5.633713">
        <ele>883.484</ele>
        <time>1999-07-20T10:52:15Z</time>
      </trkpt>
      <trkpt lat="42.748696" lon="-5.633802">
        <ele>883.232</ele>
        <time>1999-07-20T10:52:19Z</time>
      </trkpt>
      <trkpt lat="42.748822" lon="-5.633847">
        <ele>883.418</ele>
        <time>1999-07-20T10:52:22Z</time>
      </trkpt>
      <trkpt lat="42.748975" lon="-5.633875">
        <ele>883.435</ele>
        <time>1999-07-20T10:52:26Z</time>
      </trkpt>
      <trkpt lat="42.749148" lon="-5.633898">
        <ele>883.850</ele>
        <time>1999-07-20T10:52:31Z</time>
      </trkpt>
      <trkpt lat="42.749242" lon="-5.633907">
        <ele>884.053</ele>
        <time>1999-07-20T10:52:34Z</time>
      </trkpt>
      <trkpt lat="42.749324" lon="-5.633947">
        <ele>884.404</ele>
        <time>1999-07-20T10:52:37Z</time>
      </trkpt>
      <trkpt lat="42.749373" lon="-5.633966">
        <ele>884.614</ele>
        <time>1999-07-20T10:52:39Z</time>
      </trkpt>
      <trkpt lat="42.749397" lon="-5.633973">
        <ele>884.608</ele>
        <time>1999-07-20T10:52:40Z</time>
      </trkpt>
      <trkpt lat="42.749470" lon="-5.633985">
        <ele>885.498</ele>
        <time>1999-07-20T10:52:43Z</time>
      </trkpt>
      <trkpt lat="42.749496" lon="-5.633995">
        <ele>885.873</ele>
        <time>1999-07-20T10:52:44Z</time>
      </trkpt>
      <trkpt lat="42.749559" lon="-5.634019">
        <ele>886.673</ele>
        <time>1999-07-20T10:52:47Z</time>
      </trkpt>
      <trkpt lat="42.749581" lon="-5.634024">
        <ele>887.031</ele>
        <time>1999-07-20T10:52:48Z</time>
      </trkpt>
      <trkpt lat="42.749660" lon="-5.634030">
        <ele>888.289</ele>
        <time>1999-07-20T10:52:52Z</time>
      </trkpt>
      <trkpt lat="42.749678" lon="-5.634036">
        <ele>888.685</ele>
        <time>1999-07-20T10:52:53Z</time>
      </trkpt>
      <trkpt lat="42.749748" lon="-5.634070">
        <ele>889.442</ele>
        <time>1999-07-20T10:52:57Z</time>
      </trkpt>
      <trkpt lat="42.749785" lon="-5.634083">
        <ele>890.057</ele>
        <time>1999-07-20T10:52:59Z</time>
      </trkpt>
      <trkpt lat="42.749804" lon="-5.634090">
        <ele>890.477</ele>
        <time>1999-07-20T10:53:00Z</time>
      </trkpt>
      <trkpt lat="42.749877" lon="-5.634108">
        <ele>891.461</ele>
        <time>1999-07-20T10:53:04Z</time>
      </trkpt>
      <trkpt lat="42.749913" lon="-5.634118">
        <ele>892.027</ele>
        <time>1999-07-20T10:53:06Z</time>
      </trkpt>
      <trkpt lat="42.749970" lon="-5.634122">
        <ele>892.608</ele>
        <time>1999-07-20T10:53:09Z</time>
      </trkpt>
      <trkpt lat="42.750050" lon="-5.634130">
        <ele>893.610</ele>
        <time>1999-07-20T10:53:13Z</time>
      </trkpt>
      <trkpt lat="42.750135" lon="-5.634145">
        <ele>894.625</ele>
        <time>1999-07-20T10:53:17Z</time>
      </trkpt>
      <trkpt lat="42.750155" lon="-5.634147">
        <ele>894.845</ele>
        <time>1999-07-20T10:53:18Z</time>
      </trkpt>
      <trkpt lat="42.750174" lon="-5.634149">
        <ele>895.273</ele>
        <time>1999-07-20T10:53:19Z</time>
      </trkpt>
      <trkpt lat="42.750210" lon="-5.634165">
        <ele>896.061</ele>
        <time>1999-07-20T10:53:21Z</time>
      </trkpt>
      <trkpt lat="42.750281" lon="-5.634198">
        <ele>897.077</ele>
        <time>1999-07-20T10:53:25Z</time>
      </trkpt>
      <trkpt lat="42.750365" lon="-5.634225">
        <ele>898.234</ele>
        <time>1999-07-20T10:53:29Z</time>
      </trkpt>
      <trkpt lat="42.750426" lon="-5.634262">
        <ele>898.489</ele>
        <time>1999-07-20T10:53:31Z</time>
      </trkpt>
      <trkpt lat="42.750504" lon="-5.634292">
        <ele>898.683</ele>
        <time>1999-07-20T10:53:33Z</time>
      </trkpt>
      <trkpt lat="42.750593" lon="-5.634284">
        <ele>898.625</ele>
        <time>1999-07-20T10:53:35Z</time>
      </trkpt>
      <trkpt lat="42.750733" lon="-5.634226">
        <ele>898.617</ele>
        <time>1999-07-20T10:53:38Z</time>
      </trkpt>
      <trkpt lat="42.750814" lon="-5.634150">
        <ele>898.208</ele>
        <time>1999-07-20T10:53:40Z</time>
      </trkpt>
      <trkpt lat="42.750902" lon="-5.634043">
        <ele>898.221</ele>
        <time>1999-07-20T10:53:43Z</time>
      </trkpt>
      <trkpt lat="42.750931" lon="-5.633998">
        <ele>898.256</ele>
        <time>1999-07-20T10:53:44Z</time>
      </trkpt>
      <trkpt lat="42.750958" lon="-5.633939">
        <ele>898.036</ele>
        <time>1999-07-20T10:53:45Z</time>
      </trkpt>
      <trkpt lat="42.751002" lon="-5.633804">
        <ele>897.644</ele>
        <time>1999-07-20T10:53:47Z</time>
      </trkpt>
      <trkpt lat="42.751031" lon="-5.633750">
        <ele>897.472</ele>
        <time>1999-07-20T10:53:48Z</time>
      </trkpt>
      <trkpt lat="42.751065" lon="-5.633725">
        <ele>897.028</ele>
        <time>1999-07-20T10:53:49Z</time>
      </trkpt>
      <trkpt lat="42.751139" lon="-5.633769">
        <ele>895.685</ele>
        <time>1999-07-20T10:53:52Z</time>
      </trkpt>
      <trkpt lat="42.751181" lon="-5.633807">
        <ele>894.460</ele>
        <time>1999-07-20T10:53:55Z</time>
      </trkpt>
      <trkpt lat="42.751210" lon="-5.633838">
        <ele>894.212</ele>
        <time>1999-07-20T10:53:57Z</time>
      </trkpt>
      <trkpt lat="42.751258" lon="-5.633886">
        <ele>894.232</ele>
        <time>1999-07-20T10:54:01Z</time>
      </trkpt>
      <trkpt lat="42.751283" lon="-5.633914">
        <ele>894.205</ele>
        <time>1999-07-20T10:54:03Z</time>
      </trkpt>
      <trkpt lat="42.751347" lon="-5.633938">
        <ele>895.408</ele>
        <time>1999-07-20T10:54:07Z</time>
      </trkpt>
      <trkpt lat="42.751362" lon="-5.633948">
        <ele>895.664</ele>
        <time>1999-07-20T10:54:08Z</time>
      </trkpt>
      <trkpt lat="42.751408" lon="-5.634013">
        <ele>896.629</ele>
        <time>1999-07-20T10:54:12Z</time>
      </trkpt>
      <trkpt lat="42.751427" lon="-5.634059">
        <ele>897.089</ele>
        <time>1999-07-20T10:54:14Z</time>
      </trkpt>
      <trkpt lat="42.751463" lon="-5.634113">
        <ele>897.857</ele>
        <time>1999-07-20T10:54:17Z</time>
      </trkpt>
      <trkpt lat="42.751502" lon="-5.634157">
        <ele>898.425</ele>
        <time>1999-07-20T10:54:20Z</time>
      </trkpt>
      <trkpt lat="42.751524" lon="-5.634181">
        <ele>898.861</ele>
        <time>1999-07-20T10:54:22Z</time>
      </trkpt>
      <trkpt lat="42.751591" lon="-5.634238">
        <ele>899.828</ele>
        <time>1999-07-20T10:54:27Z</time>
      </trkpt>
      <trkpt lat="42.751685" lon="-5.634258">
        <ele>901.053</ele>
        <time>1999-07-20T10:54:32Z</time>
      </trkpt>
      <trkpt lat="42.751753" lon="-5.634261">
        <ele>901.675</ele>
        <time>1999-07-20T10:54:35Z</time>
      </trkpt>
      <trkpt lat="42.751868" lon="-5.634252">
        <ele>902.028</ele>
        <time>1999-07-20T10:54:39Z</time>
      </trkpt>
      <trkpt lat="42.751943" lon="-5.634260">
        <ele>902.220</ele>
        <time>1999-07-20T10:54:41Z</time>
      </trkpt>
      <trkpt lat="42.752170" lon="-5.634339">
        <ele>902.208</ele>
        <time>1999-07-20T10:54:45Z</time>
      </trkpt>
      <trkpt lat="42.752304" lon="-5.634385">
        <ele>902.290</ele>
        <time>1999-07-20T10:54:47Z</time>
      </trkpt>
      <trkpt lat="42.752434" lon="-5.634409">
        <ele>902.235</ele>
        <time>1999-07-20T10:54:49Z</time>
      </trkpt>
      <trkpt lat="42.752497" lon="-5.634403">
        <ele>901.865</ele>
        <time>1999-07-20T10:54:50Z</time>
      </trkpt>
      <trkpt lat="42.752615" lon="-5.634417">
        <ele>900.813</ele>
        <time>1999-07-20T10:54:52Z</time>
      </trkpt>
      <trkpt lat="42.752735" lon="-5.634480">
        <ele>899.421</ele>
        <time>1999-07-20T10:54:54Z</time>
      </trkpt>
      <trkpt lat="42.752865" lon="-5.634528">
        <ele>898.277</ele>
        <time>1999-07-20T10:54:56Z</time>
      </trkpt>
      <trkpt lat="42.753004" lon="-5.634546">
        <ele>897.434</ele>
        <time>1999-07-20T10:54:58Z</time>
      </trkpt>
      <trkpt lat="42.753214" lon="-5.634606">
        <ele>897.059</ele>
        <time>1999-07-20T10:55:01Z</time>
      </trkpt>
      <trkpt lat="42.753283" lon="-5.634639">
        <ele>895.647</ele>
        <time>1999-07-20T10:55:02Z</time>
      </trkpt>
      <trkpt lat="42.753347" lon="-5.634669">
        <ele>895.429</ele>
        <time>1999-07-20T10:55:03Z</time>
      </trkpt>
      <trkpt lat="42.753450" lon="-5.634718">
        <ele>894.221</ele>
        <time>1999-07-20T10:55:05Z</time>
      </trkpt>
      <trkpt lat="42.753489" lon="-5.634766">
        <ele>893.808</ele>
        <time>1999-07-20T10:55:06Z</time>
      </trkpt>
      <trkpt lat="42.753520" lon="-5.634822">
        <ele>893.667</ele>
        <time>1999-07-20T10:55:07Z</time>
      </trkpt>
      <trkpt lat="42.753588" lon="-5.634931">
        <ele>892.892</ele>
        <time>1999-07-20T10:55:09Z</time>
      </trkpt>
      <trkpt lat="42.753677" lon="-5.634973">
        <ele>891.282</ele>
        <time>1999-07-20T10:55:11Z</time>
      </trkpt>
      <trkpt lat="42.753794" lon="-5.634974">
        <ele>889.890</ele>
        <time>1999-07-20T10:55:13Z</time>
      </trkpt>
      <trkpt lat="42.753862" lon="-5.634980">
        <ele>889.048</ele>
        <time>1999-07-20T10:55:14Z</time>
      </trkpt>
      <trkpt lat="42.753926" lon="-5.634988">
        <ele>888.044</ele>
        <time>1999-07-20T10:55:15Z</time>
      </trkpt>
      <trkpt lat="42.754047" lon="-5.635016">
        <ele>887.061</ele>
        <time>1999-07-20T10:55:17Z</time>
      </trkpt>
      <trkpt lat="42.754162" lon="-5.635080">
        <ele>886.236</ele>
        <time>1999-07-20T10:55:19Z</time>
      </trkpt>
      <trkpt lat="42.754219" lon="-5.635114">
        <ele>885.894</ele>
        <time>1999-07-20T10:55:20Z</time>
      </trkpt>
      <trkpt lat="42.754329" lon="-5.635195">
        <ele>884.057</ele>
        <time>1999-07-20T10:55:22Z</time>
      </trkpt>
      <trkpt lat="42.754487" lon="-5.635301">
        <ele>883.222</ele>
        <time>1999-07-20T10:55:25Z</time>
      </trkpt>
      <trkpt lat="42.754547" lon="-5.635341">
        <ele>883.208</ele>
        <time>1999-07-20T10:55:27Z</time>
      </trkpt>
      <trkpt lat="42.754551" lon="-5.635351">
        <ele>882.822</ele>
        <time>1999-07-20T10:55:28Z</time>
      </trkpt>
      <trkpt lat="42.754553" lon="-5.635358">
        <ele>882.637</ele>
        <time>1999-07-20T10:55:30Z</time>
      </trkpt>
      <trkpt lat="42.754642" lon="-5.635392">
        <ele>881.497</ele>
        <time>1999-07-20T10:55:57Z</time>
      </trkpt>
      <trkpt lat="42.754662" lon="-5.635395">
        <ele>881.835</ele>
        <time>1999-07-20T10:55:58Z</time>
      </trkpt>
      <trkpt lat="42.754822" lon="-5.635446">
        <ele>882.063</ele>
        <time>1999-07-20T10:56:04Z</time>
      </trkpt>
      <trkpt lat="42.754997" lon="-5.635538">
        <ele>882.099</ele>
        <time>1999-07-20T10:56:09Z</time>
      </trkpt>
      <trkpt lat="42.755134" lon="-5.635608">
        <ele>882.056</ele>
        <time>1999-07-20T10:56:13Z</time>
      </trkpt>
      <trkpt lat="42.755241" lon="-5.635641">
        <ele>882.281</ele>
        <time>1999-07-20T10:56:16Z</time>
      </trkpt>
      <trkpt lat="42.755341" lon="-5.635652">
        <ele>882.696</ele>
        <time>1999-07-20T10:56:19Z</time>
      </trkpt>
      <trkpt lat="42.755402" lon="-5.635662">
        <ele>882.631</ele>
        <time>1999-07-20T10:56:21Z</time>
      </trkpt>
      <trkpt lat="42.755505" lon="-5.635706">
        <ele>882.624</ele>
        <time>1999-07-20T10:56:24Z</time>
      </trkpt>
      <trkpt lat="42.755572" lon="-5.635729">
        <ele>882.808</ele>
        <time>1999-07-20T10:56:26Z</time>
      </trkpt>
      <trkpt lat="42.755780" lon="-5.635792">
        <ele>883.492</ele>
        <time>1999-07-20T10:56:32Z</time>
      </trkpt>
      <trkpt lat="42.755856" lon="-5.635790">
        <ele>883.647</ele>
        <time>1999-07-20T10:56:34Z</time>
      </trkpt>
      <trkpt lat="42.755995" lon="-5.635800">
        <ele>884.287</ele>
        <time>1999-07-20T10:56:38Z</time>
      </trkpt>
      <trkpt lat="42.756250" lon="-5.635841">
        <ele>884.875</ele>
        <time>1999-07-20T10:56:44Z</time>
      </trkpt>
      <trkpt lat="42.756296" lon="-5.635844">
        <ele>885.093</ele>
        <time>1999-07-20T10:56:45Z</time>
      </trkpt>
      <trkpt lat="42.756598" lon="-5.635876">
        <ele>885.229</ele>
        <time>1999-07-20T10:56:51Z</time>
      </trkpt>
      <trkpt lat="42.756937" lon="-5.635908">
        <ele>885.436</ele>
        <time>1999-07-20T10:56:58Z</time>
      </trkpt>
      <trkpt lat="42.756981" lon="-5.635910">
        <ele>885.471</ele>
        <time>1999-07-20T10:56:59Z</time>
      </trkpt>
      <trkpt lat="42.757178" lon="-5.635909">
        <ele>885.673</ele>
        <time>1999-07-20T10:57:04Z</time>
      </trkpt>
      <trkpt lat="42.757286" lon="-5.635905">
        <ele>886.085</ele>
        <time>1999-07-20T10:57:07Z</time>
      </trkpt>
      <trkpt lat="42.757423" lon="-5.635905">
        <ele>886.213</ele>
        <time>1999-07-20T10:57:10Z</time>
      </trkpt>
      <trkpt lat="42.757580" lon="-5.635906">
        <ele>886.208</ele>
        <time>1999-07-20T10:57:13Z</time>
      </trkpt>
      <trkpt lat="42.757676" lon="-5.635893">
        <ele>886.220</ele>
        <time>1999-07-20T10:57:15Z</time>
      </trkpt>
      <trkpt lat="42.757724" lon="-5.635894">
        <ele>886.285</ele>
        <time>1999-07-20T10:57:16Z</time>
      </trkpt>
      <trkpt lat="42.757905" lon="-5.635929">
        <ele>886.225</ele>
        <time>1999-07-20T10:57:19Z</time>
      </trkpt>
      <trkpt lat="42.758166" lon="-5.635968">
        <ele>885.823</ele>
        <time>1999-07-20T10:57:24Z</time>
      </trkpt>
      <trkpt lat="42.758225" lon="-5.635973">
        <ele>885.621</ele>
        <time>1999-07-20T10:57:26Z</time>
      </trkpt>
      <trkpt lat="42.758270" lon="-5.635985">
        <ele>885.627</ele>
        <time>1999-07-20T10:57:28Z</time>
      </trkpt>
      <trkpt lat="42.758401" lon="-5.636023">
        <ele>885.654</ele>
        <time>1999-07-20T10:57:33Z</time>
      </trkpt>
      <trkpt lat="42.758620" lon="-5.636057">
        <ele>885.649</ele>
        <time>1999-07-20T10:57:39Z</time>
      </trkpt>
      <trkpt lat="42.758889" lon="-5.636079">
        <ele>886.039</ele>
        <time>1999-07-20T10:57:45Z</time>
      </trkpt>
      <trkpt lat="42.759053" lon="-5.636087">
        <ele>886.001</ele>
        <time>1999-07-20T10:57:48Z</time>
      </trkpt>
      <trkpt lat="42.759154" lon="-5.636078">
        <ele>886.221</ele>
        <time>1999-07-20T10:57:50Z</time>
      </trkpt>
      <trkpt lat="42.759290" lon="-5.636102">
        <ele>886.208</ele>
        <time>1999-07-20T10:57:53Z</time>
      </trkpt>
      <trkpt lat="42.759477" lon="-5.636185">
        <ele>886.476</ele>
        <time>1999-07-20T10:57:57Z</time>
      </trkpt>
      <trkpt lat="42.759756" lon="-5.636296">
        <ele>886.481</ele>
        <time>1999-07-20T10:58:02Z</time>
      </trkpt>
      <trkpt lat="42.759812" lon="-5.636311">
        <ele>886.411</ele>
        <time>1999-07-20T10:58:03Z</time>
      </trkpt>
      <trkpt lat="42.759923" lon="-5.636335">
        <ele>886.499</ele>
        <time>1999-07-20T10:58:05Z</time>
      </trkpt>
      <trkpt lat="42.760186" lon="-5.636403">
        <ele>886.657</ele>
        <time>1999-07-20T10:58:10Z</time>
      </trkpt>
      <trkpt lat="42.760265" lon="-5.636421">
        <ele>886.813</ele>
        <time>1999-07-20T10:58:12Z</time>
      </trkpt>
      <trkpt lat="42.760333" lon="-5.636410">
        <ele>886.890</ele>
        <time>1999-07-20T10:58:15Z</time>
      </trkpt>
      <trkpt lat="42.760356" lon="-5.636384">
        <ele>886.885</ele>
        <time>1999-07-20T10:58:16Z</time>
      </trkpt>
      <trkpt lat="42.760426" lon="-5.636308">
        <ele>887.066</ele>
        <time>1999-07-20T10:58:19Z</time>
      </trkpt>
      <trkpt lat="42.760495" lon="-5.636275">
        <ele>887.429</ele>
        <time>1999-07-20T10:58:21Z</time>
      </trkpt>
      <trkpt lat="42.760667" lon="-5.636301">
        <ele>887.821</ele>
        <time>1999-07-20T10:58:25Z</time>
      </trkpt>
      <trkpt lat="42.760763" lon="-5.636318">
        <ele>887.808</ele>
        <time>1999-07-20T10:58:27Z</time>
      </trkpt>
      <trkpt lat="42.760980" lon="-5.636353">
        <ele>887.869</ele>
        <time>1999-07-20T10:58:31Z</time>
      </trkpt>
      <trkpt lat="42.761222" lon="-5.636397">
        <ele>888.064</ele>
        <time>1999-07-20T10:58:35Z</time>
      </trkpt>
      <trkpt lat="42.761342" lon="-5.636418">
        <ele>888.024</ele>
        <time>1999-07-20T10:58:37Z</time>
      </trkpt>
      <trkpt lat="42.761638" lon="-5.636458">
        <ele>888.092</ele>
        <time>1999-07-20T10:58:42Z</time>
      </trkpt>
      <trkpt lat="42.761817" lon="-5.636472">
        <ele>888.230</ele>
        <time>1999-07-20T10:58:45Z</time>
      </trkpt>
      <trkpt lat="42.762294" lon="-5.636517">
        <ele>888.686</ele>
        <time>1999-07-20T10:58:53Z</time>
      </trkpt>
      <trkpt lat="42.762743" lon="-5.636549">
        <ele>889.233</ele>
        <time>1999-07-20T10:59:01Z</time>
      </trkpt>
      <trkpt lat="42.763027" lon="-5.636586">
        <ele>889.628</ele>
        <time>1999-07-20T10:59:06Z</time>
      </trkpt>
      <trkpt lat="42.763143" lon="-5.636623">
        <ele>889.632</ele>
        <time>1999-07-20T10:59:08Z</time>
      </trkpt>
      <trkpt lat="42.763612" lon="-5.636819">
        <ele>889.892</ele>
        <time>1999-07-20T10:59:16Z</time>
      </trkpt>
      <trkpt lat="42.763998" lon="-5.637048">
        <ele>889.811</ele>
        <time>1999-07-20T10:59:23Z</time>
      </trkpt>
      <trkpt lat="42.764055" lon="-5.637067">
        <ele>889.808</ele>
        <time>1999-07-20T10:59:24Z</time>
      </trkpt>
      <trkpt lat="42.764230" lon="-5.637091">
        <ele>890.036</ele>
        <time>1999-07-20T10:59:27Z</time>
      </trkpt>
      <trkpt lat="42.764345" lon="-5.637115">
        <ele>890.221</ele>
        <time>1999-07-20T10:59:29Z</time>
      </trkpt>
      <trkpt lat="42.764680" lon="-5.637178">
        <ele>890.641</ele>
        <time>1999-07-20T10:59:35Z</time>
      </trkpt>
      <trkpt lat="42.765127" lon="-5.637308">
        <ele>890.649</ele>
        <time>1999-07-20T10:59:43Z</time>
      </trkpt>
      <trkpt lat="42.765412" lon="-5.637356">
        <ele>890.827</ele>
        <time>1999-07-20T10:59:48Z</time>
      </trkpt>
      <trkpt lat="42.765465" lon="-5.637375">
        <ele>890.853</ele>
        <time>1999-07-20T10:59:49Z</time>
      </trkpt>
      <trkpt lat="42.765672" lon="-5.637506">
        <ele>891.040</ele>
        <time>1999-07-20T10:59:53Z</time>
      </trkpt>
      <trkpt lat="42.765725" lon="-5.637544">
        <ele>891.055</ele>
        <time>1999-07-20T10:59:54Z</time>
      </trkpt>
      <trkpt lat="42.765836" lon="-5.637595">
        <ele>891.032</ele>
        <time>1999-07-20T10:59:56Z</time>
      </trkpt>
      <trkpt lat="42.766001" lon="-5.637660">
        <ele>891.092</ele>
        <time>1999-07-20T10:59:59Z</time>
      </trkpt>
      <trkpt lat="42.766108" lon="-5.637702">
        <ele>891.211</ele>
        <time>1999-07-20T11:00:01Z</time>
      </trkpt>
      <trkpt lat="42.766164" lon="-5.637713">
        <ele>891.208</ele>
        <time>1999-07-20T11:00:02Z</time>
      </trkpt>
      <trkpt lat="42.766272" lon="-5.637736">
        <ele>891.496</ele>
        <time>1999-07-20T11:00:04Z</time>
      </trkpt>
      <trkpt lat="42.766330" lon="-5.637734">
        <ele>891.411</ele>
        <time>1999-07-20T11:00:05Z</time>
      </trkpt>
      <trkpt lat="42.766573" lon="-5.637712">
        <ele>892.041</ele>
        <time>1999-07-20T11:00:09Z</time>
      </trkpt>
      <trkpt lat="42.766698" lon="-5.637690">
        <ele>892.289</ele>
        <time>1999-07-20T11:00:11Z</time>
      </trkpt>
      <trkpt lat="42.767005" lon="-5.637674">
        <ele>892.667</ele>
        <time>1999-07-20T11:00:16Z</time>
      </trkpt>
      <trkpt lat="42.767503" lon="-5.637614">
        <ele>893.013</ele>
        <time>1999-07-20T11:00:24Z</time>
      </trkpt>
      <trkpt lat="42.767816" lon="-5.637565">
        <ele>893.060</ele>
        <time>1999-07-20T11:00:29Z</time>
      </trkpt>
      <trkpt lat="42.767943" lon="-5.637552">
        <ele>893.215</ele>
        <time>1999-07-20T11:00:31Z</time>
      </trkpt>
      <trkpt lat="42.768136" lon="-5.637531">
        <ele>893.268</ele>
        <time>1999-07-20T11:00:34Z</time>
      </trkpt>
      <trkpt lat="42.768446" lon="-5.637489">
        <ele>893.442</ele>
        <time>1999-07-20T11:00:39Z</time>
      </trkpt>
      <trkpt lat="42.768951" lon="-5.637422">
        <ele>893.626</ele>
        <time>1999-07-20T11:00:47Z</time>
      </trkpt>
      <trkpt lat="42.769529" lon="-5.637414">
        <ele>894.208</ele>
        <time>1999-07-20T11:00:56Z</time>
      </trkpt>
      <trkpt lat="42.769840" lon="-5.637431">
        <ele>894.299</ele>
        <time>1999-07-20T11:01:01Z</time>
      </trkpt>
      <trkpt lat="42.770023" lon="-5.637447">
        <ele>894.264</ele>
        <time>1999-07-20T11:01:04Z</time>
      </trkpt>
      <trkpt lat="42.770085" lon="-5.637452">
        <ele>894.224</ele>
        <time>1999-07-20T11:01:05Z</time>
      </trkpt>
      <trkpt lat="42.770542" lon="-5.637481">
        <ele>894.492</ele>
        <time>1999-07-20T11:01:12Z</time>
      </trkpt>
      <trkpt lat="42.771130" lon="-5.637577">
        <ele>894.840</ele>
        <time>1999-07-20T11:01:21Z</time>
      </trkpt>
      <trkpt lat="42.771703" lon="-5.637666">
        <ele>895.066</ele>
        <time>1999-07-20T11:01:30Z</time>
      </trkpt>
      <trkpt lat="42.772017" lon="-5.637699">
        <ele>895.423</ele>
        <time>1999-07-20T11:01:35Z</time>
      </trkpt>
      <trkpt lat="42.772078" lon="-5.637686">
        <ele>895.478</ele>
        <time>1999-07-20T11:01:36Z</time>
      </trkpt>
      <trkpt lat="42.772135" lon="-5.637667">
        <ele>895.444</ele>
        <time>1999-07-20T11:01:37Z</time>
      </trkpt>
      <trkpt lat="42.772479" lon="-5.637534">
        <ele>895.605</ele>
        <time>1999-07-20T11:01:43Z</time>
      </trkpt>
      <trkpt lat="42.772771" lon="-5.637432">
        <ele>896.215</ele>
        <time>1999-07-20T11:01:48Z</time>
      </trkpt>
      <trkpt lat="42.772831" lon="-5.637417">
        <ele>896.408</ele>
        <time>1999-07-20T11:01:49Z</time>
      </trkpt>
      <trkpt lat="42.772892" lon="-5.637402">
        <ele>896.487</ele>
        <time>1999-07-20T11:01:50Z</time>
      </trkpt>
      <trkpt lat="42.773259" lon="-5.637296">
        <ele>896.892</ele>
        <time>1999-07-20T11:01:56Z</time>
      </trkpt>
      <trkpt lat="42.773664" lon="-5.637201">
        <ele>897.252</ele>
        <time>1999-07-20T11:02:03Z</time>
      </trkpt>
      <trkpt lat="42.773776" lon="-5.637177">
        <ele>897.210</ele>
        <time>1999-07-20T11:02:05Z</time>
      </trkpt>
      <trkpt lat="42.773998" lon="-5.637086">
        <ele>897.478</ele>
        <time>1999-07-20T11:02:09Z</time>
      </trkpt>
      <trkpt lat="42.774217" lon="-5.636959">
        <ele>897.694</ele>
        <time>1999-07-20T11:02:13Z</time>
      </trkpt>
      <trkpt lat="42.774320" lon="-5.636878">
        <ele>897.611</ele>
        <time>1999-07-20T11:02:15Z</time>
      </trkpt>
      <trkpt lat="42.774671" lon="-5.636534">
        <ele>898.046</ele>
        <time>1999-07-20T11:02:22Z</time>
      </trkpt>
      <trkpt lat="42.774761" lon="-5.636428">
        <ele>898.251</ele>
        <time>1999-07-20T11:02:24Z</time>
      </trkpt>
      <trkpt lat="42.774912" lon="-5.636297">
        <ele>898.201</ele>
        <time>1999-07-20T11:02:27Z</time>
      </trkpt>
      <trkpt lat="42.775293" lon="-5.636072">
        <ele>898.411</ele>
        <time>1999-07-20T11:02:34Z</time>
      </trkpt>
      <trkpt lat="42.775620" lon="-5.635941">
        <ele>898.608</ele>
        <time>1999-07-20T11:02:40Z</time>
      </trkpt>
      <trkpt lat="42.775905" lon="-5.635816">
        <ele>899.238</ele>
        <time>1999-07-20T11:02:46Z</time>
      </trkpt>
      <trkpt lat="42.776000" lon="-5.635782">
        <ele>899.683</ele>
        <time>1999-07-20T11:02:48Z</time>
      </trkpt>
      <trkpt lat="42.776124" lon="-5.635723">
        <ele>900.623</ele>
        <time>1999-07-20T11:02:51Z</time>
      </trkpt>
      <trkpt lat="42.776245" lon="-5.635662">
        <ele>901.641</ele>
        <time>1999-07-20T11:02:54Z</time>
      </trkpt>
      <trkpt lat="42.776283" lon="-5.635631">
        <ele>901.829</ele>
        <time>1999-07-20T11:02:55Z</time>
      </trkpt>
      <trkpt lat="42.776370" lon="-5.635511">
        <ele>902.665</ele>
        <time>1999-07-20T11:02:58Z</time>
      </trkpt>
      <trkpt lat="42.776395" lon="-5.635420">
        <ele>902.832</ele>
        <time>1999-07-20T11:03:00Z</time>
      </trkpt>
      <trkpt lat="42.776453" lon="-5.635298">
        <ele>903.467</ele>
        <time>1999-07-20T11:03:03Z</time>
      </trkpt>
      <trkpt lat="42.776488" lon="-5.635266">
        <ele>903.681</ele>
        <time>1999-07-20T11:03:04Z</time>
      </trkpt>
      <trkpt lat="42.776579" lon="-5.635218">
        <ele>903.861</ele>
        <time>1999-07-20T11:03:06Z</time>
      </trkpt>
      <trkpt lat="42.776631" lon="-5.635200">
        <ele>904.017</ele>
        <time>1999-07-20T11:03:07Z</time>
      </trkpt>
      <trkpt lat="42.776688" lon="-5.635184">
        <ele>904.008</ele>
        <time>1999-07-20T11:03:08Z</time>
      </trkpt>
      <trkpt lat="42.776946" lon="-5.635148">
        <ele>904.081</ele>
        <time>1999-07-20T11:03:12Z</time>
      </trkpt>
      <trkpt lat="42.777307" lon="-5.635087">
        <ele>904.096</ele>
        <time>1999-07-20T11:03:17Z</time>
      </trkpt>
      <trkpt lat="42.777523" lon="-5.635036">
        <ele>903.646</ele>
        <time>1999-07-20T11:03:20Z</time>
      </trkpt>
      <trkpt lat="42.777811" lon="-5.634949">
        <ele>903.214</ele>
        <time>1999-07-20T11:03:24Z</time>
      </trkpt>
      <trkpt lat="42.778032" lon="-5.634888">
        <ele>902.812</ele>
        <time>1999-07-20T11:03:27Z</time>
      </trkpt>
      <trkpt lat="42.778326" lon="-5.634820">
        <ele>902.678</ele>
        <time>1999-07-20T11:03:31Z</time>
      </trkpt>
      <trkpt lat="42.778544" lon="-5.634778">
        <ele>902.655</ele>
        <time>1999-07-20T11:03:34Z</time>
      </trkpt>
      <trkpt lat="42.779062" lon="-5.634685">
        <ele>902.290</ele>
        <time>1999-07-20T11:03:41Z</time>
      </trkpt>
      <trkpt lat="42.779448" lon="-5.634621">
        <ele>901.894</ele>
        <time>1999-07-20T11:03:46Z</time>
      </trkpt>
      <trkpt lat="42.779527" lon="-5.634602">
        <ele>901.857</ele>
        <time>1999-07-20T11:03:47Z</time>
      </trkpt>
      <trkpt lat="42.779915" lon="-5.634519">
        <ele>901.622</ele>
        <time>1999-07-20T11:03:52Z</time>
      </trkpt>
      <trkpt lat="42.779993" lon="-5.634505">
        <ele>901.608</ele>
        <time>1999-07-20T11:03:53Z</time>
      </trkpt>
      <trkpt lat="42.780588" lon="-5.634393">
        <ele>901.652</ele>
        <time>1999-07-20T11:04:01Z</time>
      </trkpt>
      <trkpt lat="42.780666" lon="-5.634381">
        <ele>901.877</ele>
        <time>1999-07-20T11:04:02Z</time>
      </trkpt>
      <trkpt lat="42.780959" lon="-5.634318">
        <ele>902.057</ele>
        <time>1999-07-20T11:04:06Z</time>
      </trkpt>
      <trkpt lat="42.781096" lon="-5.634280">
        <ele>902.215</ele>
        <time>1999-07-20T11:04:08Z</time>
      </trkpt>
      <trkpt lat="42.781290" lon="-5.634203">
        <ele>902.453</ele>
        <time>1999-07-20T11:04:11Z</time>
      </trkpt>
      <trkpt lat="42.781460" lon="-5.634109">
        <ele>903.029</ele>
        <time>1999-07-20T11:04:14Z</time>
      </trkpt>
      <trkpt lat="42.781624" lon="-5.633997">
        <ele>903.866</ele>
        <time>1999-07-20T11:04:17Z</time>
      </trkpt>
      <trkpt lat="42.781836" lon="-5.633835">
        <ele>904.671</ele>
        <time>1999-07-20T11:04:21Z</time>
      </trkpt>
      <trkpt lat="42.781887" lon="-5.633796">
        <ele>904.881</ele>
        <time>1999-07-20T11:04:22Z</time>
      </trkpt>
      <trkpt lat="42.782199" lon="-5.633586">
        <ele>906.061</ele>
        <time>1999-07-20T11:04:28Z</time>
      </trkpt>
      <trkpt lat="42.782249" lon="-5.633550">
        <ele>906.017</ele>
        <time>1999-07-20T11:04:29Z</time>
      </trkpt>
      <trkpt lat="42.782552" lon="-5.633349">
        <ele>907.008</ele>
        <time>1999-07-20T11:04:35Z</time>
      </trkpt>
      <trkpt lat="42.782711" lon="-5.633251">
        <ele>907.681</ele>
        <time>1999-07-20T11:04:38Z</time>
      </trkpt>
      <trkpt lat="42.782820" lon="-5.633185">
        <ele>908.226</ele>
        <time>1999-07-20T11:04:40Z</time>
      </trkpt>
      <trkpt lat="42.783112" lon="-5.633067">
        <ele>908.826</ele>
        <time>1999-07-20T11:04:45Z</time>
      </trkpt>
      <trkpt lat="42.783366" lon="-5.633035">
        <ele>909.274</ele>
        <time>1999-07-20T11:04:49Z</time>
      </trkpt>
      <trkpt lat="42.783498" lon="-5.633017">
        <ele>909.282</ele>
        <time>1999-07-20T11:04:51Z</time>
      </trkpt>
      <trkpt lat="42.783825" lon="-5.632889">
        <ele>909.298</ele>
        <time>1999-07-20T11:04:56Z</time>
      </trkpt>
      <trkpt lat="42.784167" lon="-5.632598">
        <ele>909.275</ele>
        <time>1999-07-20T11:05:02Z</time>
      </trkpt>
      <trkpt lat="42.784392" lon="-5.632414">
        <ele>909.240</ele>
        <time>1999-07-20T11:05:06Z</time>
      </trkpt>
      <trkpt lat="42.784569" lon="-5.632295">
        <ele>909.287</ele>
        <time>1999-07-20T11:05:09Z</time>
      </trkpt>
      <trkpt lat="42.784947" lon="-5.632105">
        <ele>909.442</ele>
        <time>1999-07-20T11:05:15Z</time>
      </trkpt>
      <trkpt lat="42.785282" lon="-5.631964">
        <ele>909.626</ele>
        <time>1999-07-20T11:05:20Z</time>
      </trkpt>
      <trkpt lat="42.785410" lon="-5.631925">
        <ele>909.608</ele>
        <time>1999-07-20T11:05:22Z</time>
      </trkpt>
      <trkpt lat="42.785597" lon="-5.631883">
        <ele>910.061</ele>
        <time>1999-07-20T11:05:25Z</time>
      </trkpt>
      <trkpt lat="42.785790" lon="-5.631849">
        <ele>910.676</ele>
        <time>1999-07-20T11:05:28Z</time>
      </trkpt>
      <trkpt lat="42.786061" lon="-5.631809">
        <ele>911.276</ele>
        <time>1999-07-20T11:05:32Z</time>
      </trkpt>
      <trkpt lat="42.786195" lon="-5.631811">
        <ele>911.484</ele>
        <time>1999-07-20T11:05:34Z</time>
      </trkpt>
      <trkpt lat="42.786394" lon="-5.631824">
        <ele>911.862</ele>
        <time>1999-07-20T11:05:37Z</time>
      </trkpt>
      <trkpt lat="42.786518" lon="-5.631840">
        <ele>912.298</ele>
        <time>1999-07-20T11:05:39Z</time>
      </trkpt>
      <trkpt lat="42.786578" lon="-5.631848">
        <ele>912.675</ele>
        <time>1999-07-20T11:05:40Z</time>
      </trkpt>
      <trkpt lat="42.786748" lon="-5.631883">
        <ele>913.490</ele>
        <time>1999-07-20T11:05:43Z</time>
      </trkpt>
      <trkpt lat="42.786902" lon="-5.631926">
        <ele>914.274</ele>
        <time>1999-07-20T11:05:46Z</time>
      </trkpt>
      <trkpt lat="42.786948" lon="-5.631954">
        <ele>914.456</ele>
        <time>1999-07-20T11:05:47Z</time>
      </trkpt>
      <trkpt lat="42.787134" lon="-5.632073">
        <ele>914.821</ele>
        <time>1999-07-20T11:05:51Z</time>
      </trkpt>
      <trkpt lat="42.787257" lon="-5.632105">
        <ele>914.808</ele>
        <time>1999-07-20T11:05:53Z</time>
      </trkpt>
      <trkpt lat="42.787395" lon="-5.632132">
        <ele>914.880</ele>
        <time>1999-07-20T11:05:55Z</time>
      </trkpt>
      <trkpt lat="42.787588" lon="-5.632166">
        <ele>915.085</ele>
        <time>1999-07-20T11:05:58Z</time>
      </trkpt>
      <trkpt lat="42.787654" lon="-5.632212">
        <ele>914.695</ele>
        <time>1999-07-20T11:05:59Z</time>
      </trkpt>
      <trkpt lat="42.787724" lon="-5.632265">
        <ele>914.483</ele>
        <time>1999-07-20T11:06:00Z</time>
      </trkpt>
      <trkpt lat="42.787798" lon="-5.632305">
        <ele>914.051</ele>
        <time>1999-07-20T11:06:01Z</time>
      </trkpt>
      <trkpt lat="42.787940" lon="-5.632358">
        <ele>913.247</ele>
        <time>1999-07-20T11:06:03Z</time>
      </trkpt>
      <trkpt lat="42.788011" lon="-5.632373">
        <ele>913.064</ele>
        <time>1999-07-20T11:06:04Z</time>
      </trkpt>
      <trkpt lat="42.788142" lon="-5.632386">
        <ele>912.449</ele>
        <time>1999-07-20T11:06:06Z</time>
      </trkpt>
      <trkpt lat="42.788267" lon="-5.632372">
        <ele>911.691</ele>
        <time>1999-07-20T11:06:08Z</time>
      </trkpt>
      <trkpt lat="42.788329" lon="-5.632361">
        <ele>911.481</ele>
        <time>1999-07-20T11:06:09Z</time>
      </trkpt>
      <trkpt lat="42.788389" lon="-5.632349">
        <ele>911.219</ele>
        <time>1999-07-20T11:06:10Z</time>
      </trkpt>
      <trkpt lat="42.788604" lon="-5.632327">
        <ele>911.008</ele>
        <time>1999-07-20T11:06:14Z</time>
      </trkpt>
      <trkpt lat="42.788655" lon="-5.632336">
        <ele>911.092</ele>
        <time>1999-07-20T11:06:15Z</time>
      </trkpt>
      <trkpt lat="42.789051" lon="-5.632416">
        <ele>911.837</ele>
        <time>1999-07-20T11:06:23Z</time>
      </trkpt>
      <trkpt lat="42.789097" lon="-5.632428">
        <ele>912.037</ele>
        <time>1999-07-20T11:06:24Z</time>
      </trkpt>
      <trkpt lat="42.789295" lon="-5.632456">
        <ele>912.215</ele>
        <time>1999-07-20T11:06:28Z</time>
      </trkpt>
      <trkpt lat="42.789405" lon="-5.632455">
        <ele>912.413</ele>
        <time>1999-07-20T11:06:30Z</time>
      </trkpt>
      <trkpt lat="42.789459" lon="-5.632449">
        <ele>912.649</ele>
        <time>1999-07-20T11:06:31Z</time>
      </trkpt>
      <trkpt lat="42.789742" lon="-5.632401">
        <ele>913.026</ele>
        <time>1999-07-20T11:06:36Z</time>
      </trkpt>
      <trkpt lat="42.790135" lon="-5.632356">
        <ele>913.431</ele>
        <time>1999-07-20T11:06:43Z</time>
      </trkpt>
      <trkpt lat="42.790194" lon="-5.632358">
        <ele>913.615</ele>
        <time>1999-07-20T11:06:44Z</time>
      </trkpt>
      <trkpt lat="42.790425" lon="-5.632319">
        <ele>913.865</ele>
        <time>1999-07-20T11:06:48Z</time>
      </trkpt>
      <trkpt lat="42.790854" lon="-5.632216">
        <ele>914.011</ele>
        <time>1999-07-20T11:06:56Z</time>
      </trkpt>
      <trkpt lat="42.791018" lon="-5.632184">
        <ele>914.008</ele>
        <time>1999-07-20T11:06:59Z</time>
      </trkpt>
      <trkpt lat="42.791185" lon="-5.632150">
        <ele>914.084</ele>
        <time>1999-07-20T11:07:02Z</time>
      </trkpt>
      <trkpt lat="42.791529" lon="-5.632117">
        <ele>914.039</ele>
        <time>1999-07-20T11:07:08Z</time>
      </trkpt>
      <trkpt lat="42.791840" lon="-5.632107">
        <ele>913.849</ele>
        <time>1999-07-20T11:07:13Z</time>
      </trkpt>
      <trkpt lat="42.792012" lon="-5.632104">
        <ele>913.637</ele>
        <time>1999-07-20T11:07:16Z</time>
      </trkpt>
      <trkpt lat="42.792122" lon="-5.632098">
        <ele>913.635</ele>
        <time>1999-07-20T11:07:18Z</time>
      </trkpt>
      <trkpt lat="42.792295" lon="-5.632094">
        <ele>913.611</ele>
        <time>1999-07-20T11:07:21Z</time>
      </trkpt>
      <trkpt lat="42.792434" lon="-5.632107">
        <ele>913.468</ele>
        <time>1999-07-20T11:07:23Z</time>
      </trkpt>
      <trkpt lat="42.792498" lon="-5.632114">
        <ele>913.423</ele>
        <time>1999-07-20T11:07:24Z</time>
      </trkpt>
      <trkpt lat="42.792552" lon="-5.632116">
        <ele>913.477</ele>
        <time>1999-07-20T11:07:25Z</time>
      </trkpt>
      <trkpt lat="42.792618" lon="-5.632105">
        <ele>913.461</ele>
        <time>1999-07-20T11:07:27Z</time>
      </trkpt>
      <trkpt lat="42.792644" lon="-5.632092">
        <ele>912.827</ele>
        <time>1999-07-20T11:07:29Z</time>
      </trkpt>
      <trkpt lat="42.792647" lon="-5.632093">
        <ele>912.408</ele>
        <time>1999-07-20T11:07:31Z</time>
      </trkpt>
      <trkpt lat="42.792647" lon="-5.632097">
        <ele>912.220</ele>
        <time>1999-07-20T11:07:32Z</time>
      </trkpt>
      <trkpt lat="42.792743" lon="-5.632053">
        <ele>911.635</ele>
        <time>1999-07-20T11:07:42Z</time>
      </trkpt>
      <trkpt lat="42.792774" lon="-5.632011">
        <ele>911.645</ele>
        <time>1999-07-20T11:07:43Z</time>
      </trkpt>
      <trkpt lat="42.792835" lon="-5.631901">
        <ele>911.693</ele>
        <time>1999-07-20T11:07:45Z</time>
      </trkpt>
      <trkpt lat="42.792896" lon="-5.631795">
        <ele>911.651</ele>
        <time>1999-07-20T11:07:47Z</time>
      </trkpt>
      <trkpt lat="42.792931" lon="-5.631748">
        <ele>911.667</ele>
        <time>1999-07-20T11:07:48Z</time>
      </trkpt>
      <trkpt lat="42.793003" lon="-5.631651">
        <ele>911.884</ele>
        <time>1999-07-20T11:07:50Z</time>
      </trkpt>
      <trkpt lat="42.793042" lon="-5.631605">
        <ele>911.819</ele>
        <time>1999-07-20T11:07:51Z</time>
      </trkpt>
      <trkpt lat="42.793153" lon="-5.631468">
        <ele>912.642</ele>
        <time>1999-07-20T11:07:54Z</time>
      </trkpt>
      <trkpt lat="42.793183" lon="-5.631419">
        <ele>913.422</ele>
        <time>1999-07-20T11:07:55Z</time>
      </trkpt>
      <trkpt lat="42.793241" lon="-5.631319">
        <ele>914.014</ele>
        <time>1999-07-20T11:07:57Z</time>
      </trkpt>
      <trkpt lat="42.793299" lon="-5.631224">
        <ele>914.408</ele>
        <time>1999-07-20T11:07:59Z</time>
      </trkpt>
      <trkpt lat="42.793346" lon="-5.631125">
        <ele>915.097</ele>
        <time>1999-07-20T11:08:01Z</time>
      </trkpt>
      <trkpt lat="42.793369" lon="-5.631077">
        <ele>915.292</ele>
        <time>1999-07-20T11:08:02Z</time>
      </trkpt>
      <trkpt lat="42.793411" lon="-5.631000">
        <ele>915.892</ele>
        <time>1999-07-20T11:08:04Z</time>
      </trkpt>
      <trkpt lat="42.793454" lon="-5.630908">
        <ele>916.630</ele>
        <time>1999-07-20T11:08:06Z</time>
      </trkpt>
      <trkpt lat="42.793477" lon="-5.630852">
        <ele>917.268</ele>
        <time>1999-07-20T11:08:07Z</time>
      </trkpt>
      <trkpt lat="42.793527" lon="-5.630733">
        <ele>917.894</ele>
        <time>1999-07-20T11:08:09Z</time>
      </trkpt>
      <trkpt lat="42.793558" lon="-5.630676">
        <ele>918.261</ele>
        <time>1999-07-20T11:08:10Z</time>
      </trkpt>
      <trkpt lat="42.793629" lon="-5.630566">
        <ele>918.856</ele>
        <time>1999-07-20T11:08:12Z</time>
      </trkpt>
      <trkpt lat="42.793915" lon="-5.630134">
        <ele>919.024</ele>
        <time>1999-07-20T11:08:19Z</time>
      </trkpt>
      <trkpt lat="42.794168" lon="-5.629730">
        <ele>919.004</ele>
        <time>1999-07-20T11:08:25Z</time>
      </trkpt>
      <trkpt lat="42.794197" lon="-5.629648">
        <ele>919.014</ele>
        <time>1999-07-20T11:08:26Z</time>
      </trkpt>
      <trkpt lat="42.794324" lon="-5.629433">
        <ele>919.008</ele>
        <time>1999-07-20T11:08:29Z</time>
      </trkpt>
      <trkpt lat="42.794588" lon="-5.629047">
        <ele>919.235</ele>
        <time>1999-07-20T11:08:35Z</time>
      </trkpt>
      <trkpt lat="42.794751" lon="-5.628808">
        <ele>919.440</ele>
        <time>1999-07-20T11:08:39Z</time>
      </trkpt>
      <trkpt lat="42.794832" lon="-5.628688">
        <ele>919.670</ele>
        <time>1999-07-20T11:08:41Z</time>
      </trkpt>
      <trkpt lat="42.795006" lon="-5.628406">
        <ele>919.898</ele>
        <time>1999-07-20T11:08:46Z</time>
      </trkpt>
      <trkpt lat="42.795024" lon="-5.628359">
        <ele>920.016</ele>
        <time>1999-07-20T11:08:47Z</time>
      </trkpt>
      <trkpt lat="42.795083" lon="-5.628266">
        <ele>920.252</ele>
        <time>1999-07-20T11:08:50Z</time>
      </trkpt>
      <trkpt lat="42.795117" lon="-5.628255">
        <ele>920.219</ele>
        <time>1999-07-20T11:08:51Z</time>
      </trkpt>
      <trkpt lat="42.795240" lon="-5.628210">
        <ele>920.414</ele>
        <time>1999-07-20T11:08:54Z</time>
      </trkpt>
      <trkpt lat="42.795345" lon="-5.628192">
        <ele>920.426</ele>
        <time>1999-07-20T11:08:56Z</time>
      </trkpt>
      <trkpt lat="42.795583" lon="-5.628168">
        <ele>920.447</ele>
        <time>1999-07-20T11:09:00Z</time>
      </trkpt>
      <trkpt lat="42.795840" lon="-5.628138">
        <ele>920.411</ele>
        <time>1999-07-20T11:09:04Z</time>
      </trkpt>
      <trkpt lat="42.796032" lon="-5.628123">
        <ele>920.208</ele>
        <time>1999-07-20T11:09:07Z</time>
      </trkpt>
      <trkpt lat="42.796229" lon="-5.628128">
        <ele>920.075</ele>
        <time>1999-07-20T11:09:10Z</time>
      </trkpt>
      <trkpt lat="42.796629" lon="-5.628137">
        <ele>919.860</ele>
        <time>1999-07-20T11:09:16Z</time>
      </trkpt>
      <trkpt lat="42.796885" lon="-5.628177">
        <ele>919.250</ele>
        <time>1999-07-20T11:09:20Z</time>
      </trkpt>
      <trkpt lat="42.796948" lon="-5.628186">
        <ele>919.268</ele>
        <time>1999-07-20T11:09:21Z</time>
      </trkpt>
      <trkpt lat="42.797009" lon="-5.628194">
        <ele>919.296</ele>
        <time>1999-07-20T11:09:22Z</time>
      </trkpt>
      <trkpt lat="42.797167" lon="-5.628216">
        <ele>918.872</ele>
        <time>1999-07-20T11:09:25Z</time>
      </trkpt>
      <trkpt lat="42.797240" lon="-5.628231">
        <ele>918.659</ele>
        <time>1999-07-20T11:09:27Z</time>
      </trkpt>
      <trkpt lat="42.797302" lon="-5.628244">
        <ele>918.644</ele>
        <time>1999-07-20T11:09:29Z</time>
      </trkpt>
      <trkpt lat="42.797419" lon="-5.628310">
        <ele>918.224</ele>
        <time>1999-07-20T11:09:33Z</time>
      </trkpt>
      <trkpt lat="42.797599" lon="-5.628339">
        <ele>918.004</ele>
        <time>1999-07-20T11:09:38Z</time>
      </trkpt>
      <trkpt lat="42.797850" lon="-5.628326">
        <ele>918.014</ele>
        <time>1999-07-20T11:09:44Z</time>
      </trkpt>
      <trkpt lat="42.797925" lon="-5.628321">
        <ele>918.208</ele>
        <time>1999-07-20T11:09:48Z</time>
      </trkpt>
      <trkpt lat="42.797865" lon="-5.628376">
        <ele>918.235</ele>
        <time>1999-07-20T11:09:51Z</time>
      </trkpt>
      <trkpt lat="42.797792" lon="-5.628352">
        <ele>918.290</ele>
        <time>1999-07-20T11:09:55Z</time>
      </trkpt>
      <trkpt lat="42.797847" lon="-5.628282">
        <ele>918.250</ele>
        <time>1999-07-20T11:09:58Z</time>
      </trkpt>
      <trkpt lat="42.797879" lon="-5.628257">
        <ele>918.288</ele>
        <time>1999-07-20T11:09:59Z</time>
      </trkpt>
      <trkpt lat="42.797939" lon="-5.628206">
        <ele>918.416</ele>
        <time>1999-07-20T11:10:01Z</time>
      </trkpt>
      <trkpt lat="42.798001" lon="-5.628142">
        <ele>918.472</ele>
        <time>1999-07-20T11:10:03Z</time>
      </trkpt>
      <trkpt lat="42.798034" lon="-5.628113">
        <ele>918.439</ele>
        <time>1999-07-20T11:10:04Z</time>
      </trkpt>
      <trkpt lat="42.798111" lon="-5.628070">
        <ele>918.414</ele>
        <time>1999-07-20T11:10:06Z</time>
      </trkpt>
      <trkpt lat="42.798187" lon="-5.628026">
        <ele>918.632</ele>
        <time>1999-07-20T11:10:08Z</time>
      </trkpt>
      <trkpt lat="42.798261" lon="-5.627974">
        <ele>919.292</ele>
        <time>1999-07-20T11:10:10Z</time>
      </trkpt>
      <trkpt lat="42.798296" lon="-5.627950">
        <ele>919.411</ele>
        <time>1999-07-20T11:10:11Z</time>
      </trkpt>
      <trkpt lat="42.798361" lon="-5.627897">
        <ele>920.808</ele>
        <time>1999-07-20T11:10:13Z</time>
      </trkpt>
      <trkpt lat="42.798430" lon="-5.627846">
        <ele>921.686</ele>
        <time>1999-07-20T11:10:15Z</time>
      </trkpt>
      <trkpt lat="42.798465" lon="-5.627828">
        <ele>922.051</ele>
        <time>1999-07-20T11:10:16Z</time>
      </trkpt>
      <trkpt lat="42.798524" lon="-5.627782">
        <ele>922.651</ele>
        <time>1999-07-20T11:10:18Z</time>
      </trkpt>
      <trkpt lat="42.798548" lon="-5.627765">
        <ele>923.069</ele>
        <time>1999-07-20T11:10:19Z</time>
      </trkpt>
      <trkpt lat="42.798591" lon="-5.627745">
        <ele>923.897</ele>
        <time>1999-07-20T11:10:21Z</time>
      </trkpt>
      <trkpt lat="42.798608" lon="-5.627757">
        <ele>924.423</ele>
        <time>1999-07-20T11:10:22Z</time>
      </trkpt>
      <trkpt lat="42.798646" lon="-5.627837">
        <ele>925.460</ele>
        <time>1999-07-20T11:10:25Z</time>
      </trkpt>
      <trkpt lat="42.798671" lon="-5.627906">
        <ele>926.035</ele>
        <time>1999-07-20T11:10:27Z</time>
      </trkpt>
      <trkpt lat="42.798702" lon="-5.627989">
        <ele>926.461</ele>
        <time>1999-07-20T11:10:29Z</time>
      </trkpt>
      <trkpt lat="42.798739" lon="-5.628144">
        <ele>926.621</ele>
        <time>1999-07-20T11:10:33Z</time>
      </trkpt>
      <trkpt lat="42.798609" lon="-5.628270">
        <ele>926.613</ele>
        <time>1999-07-20T11:10:37Z</time>
      </trkpt>
      <trkpt lat="42.798541" lon="-5.628392">
        <ele>926.608</ele>
        <time>1999-07-20T11:10:40Z</time>
      </trkpt>
      <trkpt lat="42.798566" lon="-5.628456">
        <ele>926.469</ele>
        <time>1999-07-20T11:10:42Z</time>
      </trkpt>
      <trkpt lat="42.798595" lon="-5.628483">
        <ele>926.254</ele>
        <time>1999-07-20T11:10:43Z</time>
      </trkpt>
      <trkpt lat="42.798661" lon="-5.628505">
        <ele>925.494</ele>
        <time>1999-07-20T11:10:45Z</time>
      </trkpt>
      <trkpt lat="42.798680" lon="-5.628494">
        <ele>925.052</ele>
        <time>1999-07-20T11:10:46Z</time>
      </trkpt>
      <trkpt lat="42.798689" lon="-5.628463">
        <ele>924.840</ele>
        <time>1999-07-20T11:10:47Z</time>
      </trkpt>
      <trkpt lat="42.798692" lon="-5.628392">
        <ele>924.066</ele>
        <time>1999-07-20T11:10:49Z</time>
      </trkpt>
      <trkpt lat="42.798673" lon="-5.628371">
        <ele>923.883</ele>
        <time>1999-07-20T11:10:50Z</time>
      </trkpt>
      <trkpt lat="42.798620" lon="-5.628366">
        <ele>923.078</ele>
        <time>1999-07-20T11:10:52Z</time>
      </trkpt>
      <trkpt lat="42.798595" lon="-5.628388">
        <ele>922.614</ele>
        <time>1999-07-20T11:10:53Z</time>
      </trkpt>
      <trkpt lat="42.798575" lon="-5.628420">
        <ele>922.254</ele>
        <time>1999-07-20T11:10:54Z</time>
      </trkpt>
      <trkpt lat="42.798563" lon="-5.628460">
        <ele>922.009</ele>
        <time>1999-07-20T11:10:55Z</time>
      </trkpt>
      <trkpt lat="42.798580" lon="-5.628552">
        <ele>921.608</ele>
        <time>1999-07-20T11:10:57Z</time>
      </trkpt>
      <trkpt lat="42.798611" lon="-5.628578">
        <ele>921.244</ele>
        <time>1999-07-20T11:10:58Z</time>
      </trkpt>
      <trkpt lat="42.798697" lon="-5.628608">
        <ele>920.639</ele>
        <time>1999-07-20T11:11:00Z</time>
      </trkpt>
      <trkpt lat="42.798745" lon="-5.628621">
        <ele>920.479</ele>
        <time>1999-07-20T11:11:01Z</time>
      </trkpt>
      <trkpt lat="42.798793" lon="-5.628635">
        <ele>920.047</ele>
        <time>1999-07-20T11:11:02Z</time>
      </trkpt>
      <trkpt lat="42.798939" lon="-5.628684">
        <ele>919.295</ele>
        <time>1999-07-20T11:11:05Z</time>
      </trkpt>
      <trkpt lat="42.798988" lon="-5.628702">
        <ele>919.031</ele>
        <time>1999-07-20T11:11:06Z</time>
      </trkpt>
      <trkpt lat="42.799084" lon="-5.628755">
        <ele>919.058</ele>
        <time>1999-07-20T11:11:08Z</time>
      </trkpt>
      <trkpt lat="42.799414" lon="-5.628865">
        <ele>919.093</ele>
        <time>1999-07-20T11:11:14Z</time>
      </trkpt>
      <trkpt lat="42.799473" lon="-5.628876">
        <ele>919.251</ele>
        <time>1999-07-20T11:11:15Z</time>
      </trkpt>
      <trkpt lat="42.799635" lon="-5.628939">
        <ele>919.201</ele>
        <time>1999-07-20T11:11:18Z</time>
      </trkpt>
      <trkpt lat="42.799808" lon="-5.628951">
        <ele>919.211</ele>
        <time>1999-07-20T11:11:21Z</time>
      </trkpt>
      <trkpt lat="42.800173" lon="-5.628994">
        <ele>919.208</ele>
        <time>1999-07-20T11:11:27Z</time>
      </trkpt>
      <trkpt lat="42.800465" lon="-5.629081">
        <ele>919.418</ele>
        <time>1999-07-20T11:11:32Z</time>
      </trkpt>
      <trkpt lat="42.800667" lon="-5.629154">
        <ele>919.483</ele>
        <time>1999-07-20T11:11:36Z</time>
      </trkpt>
      <trkpt lat="42.800771" lon="-5.629192">
        <ele>919.443</ele>
        <time>1999-07-20T11:11:38Z</time>
      </trkpt>
      <trkpt lat="42.800930" lon="-5.629189">
        <ele>919.431</ele>
        <time>1999-07-20T11:11:41Z</time>
      </trkpt>
      <trkpt lat="42.800984" lon="-5.629190">
        <ele>919.499</ele>
        <time>1999-07-20T11:11:42Z</time>
      </trkpt>
      <trkpt lat="42.801292" lon="-5.629104">
        <ele>919.495</ele>
        <time>1999-07-20T11:11:47Z</time>
      </trkpt>
      <trkpt lat="42.801654" lon="-5.629047">
        <ele>919.492</ele>
        <time>1999-07-20T11:11:53Z</time>
      </trkpt>
      <trkpt lat="42.801756" lon="-5.629044">
        <ele>919.457</ele>
        <time>1999-07-20T11:11:55Z</time>
      </trkpt>
      <trkpt lat="42.801924" lon="-5.629029">
        <ele>919.433</ele>
        <time>1999-07-20T11:11:58Z</time>
      </trkpt>
      <trkpt lat="42.801981" lon="-5.629013">
        <ele>919.423</ele>
        <time>1999-07-20T11:11:59Z</time>
      </trkpt>
      <trkpt lat="42.802160" lon="-5.628954">
        <ele>919.415</ele>
        <time>1999-07-20T11:12:02Z</time>
      </trkpt>
      <trkpt lat="42.802528" lon="-5.628892">
        <ele>919.608</ele>
        <time>1999-07-20T11:12:08Z</time>
      </trkpt>
      <trkpt lat="42.802903" lon="-5.628792">
        <ele>919.666</ele>
        <time>1999-07-20T11:12:14Z</time>
      </trkpt>
      <trkpt lat="42.802965" lon="-5.628784">
        <ele>919.671</ele>
        <time>1999-07-20T11:12:15Z</time>
      </trkpt>
      <trkpt lat="42.803135" lon="-5.628746">
        <ele>919.611</ele>
        <time>1999-07-20T11:12:18Z</time>
      </trkpt>
      <trkpt lat="42.803421" lon="-5.628699">
        <ele>919.689</ele>
        <time>1999-07-20T11:12:23Z</time>
      </trkpt>
      <trkpt lat="42.803482" lon="-5.628683">
        <ele>919.417</ele>
        <time>1999-07-20T11:12:24Z</time>
      </trkpt>
      <trkpt lat="42.803908" lon="-5.628548">
        <ele>919.673</ele>
        <time>1999-07-20T11:12:31Z</time>
      </trkpt>
      <trkpt lat="42.804247" lon="-5.628495">
        <ele>919.620</ele>
        <time>1999-07-20T11:12:37Z</time>
      </trkpt>
      <trkpt lat="42.804515" lon="-5.628410">
        <ele>919.845</ele>
        <time>1999-07-20T11:12:42Z</time>
      </trkpt>
      <trkpt lat="42.804926" lon="-5.628322">
        <ele>920.279</ele>
        <time>1999-07-20T11:12:49Z</time>
      </trkpt>
      <trkpt lat="42.804987" lon="-5.628311">
        <ele>920.205</ele>
        <time>1999-07-20T11:12:50Z</time>
      </trkpt>
      <trkpt lat="42.805380" lon="-5.628278">
        <ele>920.625</ele>
        <time>1999-07-20T11:12:57Z</time>
      </trkpt>
      <trkpt lat="42.805440" lon="-5.628264">
        <ele>920.608</ele>
        <time>1999-07-20T11:12:58Z</time>
      </trkpt>
      <trkpt lat="42.805726" lon="-5.628185">
        <ele>921.010</ele>
        <time>1999-07-20T11:13:03Z</time>
      </trkpt>
      <trkpt lat="42.806009" lon="-5.628157">
        <ele>921.255</ele>
        <time>1999-07-20T11:13:08Z</time>
      </trkpt>
      <trkpt lat="42.806065" lon="-5.628156">
        <ele>921.475</ele>
        <time>1999-07-20T11:13:09Z</time>
      </trkpt>
      <trkpt lat="42.806338" lon="-5.628099">
        <ele>921.613</ele>
        <time>1999-07-20T11:13:14Z</time>
      </trkpt>
      <trkpt lat="42.806547" lon="-5.628042">
        <ele>921.891</ele>
        <time>1999-07-20T11:13:18Z</time>
      </trkpt>
      <trkpt lat="42.806598" lon="-5.628041">
        <ele>921.897</ele>
        <time>1999-07-20T11:13:19Z</time>
      </trkpt>
      <trkpt lat="42.806768" lon="-5.628035">
        <ele>922.214</ele>
        <time>1999-07-20T11:13:22Z</time>
      </trkpt>
      <trkpt lat="42.806890" lon="-5.627999">
        <ele>922.489</ele>
        <time>1999-07-20T11:13:24Z</time>
      </trkpt>
      <trkpt lat="42.807331" lon="-5.627836">
        <ele>922.418</ele>
        <time>1999-07-20T11:13:31Z</time>
      </trkpt>
      <trkpt lat="42.807719" lon="-5.627774">
        <ele>922.898</ele>
        <time>1999-07-20T11:13:38Z</time>
      </trkpt>
      <trkpt lat="42.808128" lon="-5.627689">
        <ele>923.217</ele>
        <time>1999-07-20T11:13:46Z</time>
      </trkpt>
      <trkpt lat="42.808178" lon="-5.627675">
        <ele>923.408</ele>
        <time>1999-07-20T11:13:47Z</time>
      </trkpt>
      <trkpt lat="42.808525" lon="-5.627612">
        <ele>923.874</ele>
        <time>1999-07-20T11:13:54Z</time>
      </trkpt>
      <trkpt lat="42.808759" lon="-5.627555">
        <ele>924.679</ele>
        <time>1999-07-20T11:13:59Z</time>
      </trkpt>
      <trkpt lat="42.808948" lon="-5.627521">
        <ele>925.019</ele>
        <time>1999-07-20T11:14:03Z</time>
      </trkpt>
      <trkpt lat="42.809176" lon="-5.627487">
        <ele>925.697</ele>
        <time>1999-07-20T11:14:08Z</time>
      </trkpt>
      <trkpt lat="42.809312" lon="-5.627455">
        <ele>926.065</ele>
        <time>1999-07-20T11:14:11Z</time>
      </trkpt>
      <trkpt lat="42.809585" lon="-5.627400">
        <ele>926.651</ele>
        <time>1999-07-20T11:14:17Z</time>
      </trkpt>
      <trkpt lat="42.809966" lon="-5.627288">
        <ele>926.838</ele>
        <time>1999-07-20T11:14:24Z</time>
      </trkpt>
      <trkpt lat="42.810024" lon="-5.627276">
        <ele>926.873</ele>
        <time>1999-07-20T11:14:25Z</time>
      </trkpt>
      <trkpt lat="42.810397" lon="-5.627170">
        <ele>926.838</ele>
        <time>1999-07-20T11:14:31Z</time>
      </trkpt>
      <trkpt lat="42.810656" lon="-5.627082">
        <ele>926.670</ele>
        <time>1999-07-20T11:14:35Z</time>
      </trkpt>
      <trkpt lat="42.810785" lon="-5.627043">
        <ele>926.617</ele>
        <time>1999-07-20T11:14:37Z</time>
      </trkpt>
      <trkpt lat="42.810854" lon="-5.627013">
        <ele>926.608</ele>
        <time>1999-07-20T11:14:38Z</time>
      </trkpt>
      <trkpt lat="42.810968" lon="-5.626922">
        <ele>926.676</ele>
        <time>1999-07-20T11:14:40Z</time>
      </trkpt>
      <trkpt lat="42.811019" lon="-5.626875">
        <ele>926.491</ele>
        <time>1999-07-20T11:14:41Z</time>
      </trkpt>
      <trkpt lat="42.811075" lon="-5.626836">
        <ele>926.481</ele>
        <time>1999-07-20T11:14:42Z</time>
      </trkpt>
      <trkpt lat="42.811192" lon="-5.626783">
        <ele>926.229</ele>
        <time>1999-07-20T11:14:44Z</time>
      </trkpt>
      <trkpt lat="42.811250" lon="-5.626763">
        <ele>926.047</ele>
        <time>1999-07-20T11:14:45Z</time>
      </trkpt>
      <trkpt lat="42.811515" lon="-5.626690">
        <ele>925.883</ele>
        <time>1999-07-20T11:14:50Z</time>
      </trkpt>
      <trkpt lat="42.811571" lon="-5.626672">
        <ele>925.880</ele>
        <time>1999-07-20T11:14:51Z</time>
      </trkpt>
      <trkpt lat="42.811645" lon="-5.626657">
        <ele>925.615</ele>
        <time>1999-07-20T11:14:53Z</time>
      </trkpt>
      <trkpt lat="42.811656" lon="-5.626654">
        <ele>925.684</ele>
        <time>1999-07-20T11:14:54Z</time>
      </trkpt>
      <trkpt lat="42.811651" lon="-5.626658">
        <ele>925.607</ele>
        <time>1999-07-20T11:14:56Z</time>
      </trkpt>
      <trkpt lat="42.811598" lon="-5.626955">
        <ele>925.217</ele>
        <time>1999-07-20T11:24:57Z</time>
      </trkpt>
      <trkpt lat="42.811624" lon="-5.626937">
        <ele>925.408</ele>
        <time>1999-07-20T11:24:58Z</time>
      </trkpt>
      <trkpt lat="42.811719" lon="-5.626951">
        <ele>925.451</ele>
        <time>1999-07-20T11:25:01Z</time>
      </trkpt>
      <trkpt lat="42.811762" lon="-5.626932">
        <ele>925.486</ele>
        <time>1999-07-20T11:25:02Z</time>
      </trkpt>
      <trkpt lat="42.811852" lon="-5.626886">
        <ele>925.486</ele>
        <time>1999-07-20T11:25:04Z</time>
      </trkpt>
      <trkpt lat="42.811948" lon="-5.626830">
        <ele>925.484</ele>
        <time>1999-07-20T11:25:06Z</time>
      </trkpt>
      <trkpt lat="42.812045" lon="-5.626792">
        <ele>925.492</ele>
        <time>1999-07-20T11:25:08Z</time>
      </trkpt>
      <trkpt lat="42.812379" lon="-5.626657">
        <ele>925.448</ele>
        <time>1999-07-20T11:25:15Z</time>
      </trkpt>
      <trkpt lat="42.812586" lon="-5.626593">
        <ele>925.695</ele>
        <time>1999-07-20T11:25:19Z</time>
      </trkpt>
      <trkpt lat="42.812742" lon="-5.626537">
        <ele>925.680</ele>
        <time>1999-07-20T11:25:22Z</time>
      </trkpt>
      <trkpt lat="42.813038" lon="-5.626331">
        <ele>925.863</ele>
        <time>1999-07-20T11:25:28Z</time>
      </trkpt>
      <trkpt lat="42.813324" lon="-5.626075">
        <ele>925.644</ele>
        <time>1999-07-20T11:25:34Z</time>
      </trkpt>
      <trkpt lat="42.813662" lon="-5.625807">
        <ele>925.818</ele>
        <time>1999-07-20T11:25:41Z</time>
      </trkpt>
      <trkpt lat="42.814026" lon="-5.625541">
        <ele>926.008</ele>
        <time>1999-07-20T11:25:48Z</time>
      </trkpt>
      <trkpt lat="42.814423" lon="-5.625300">
        <ele>925.869</ele>
        <time>1999-07-20T11:25:55Z</time>
      </trkpt>
      <trkpt lat="42.814794" lon="-5.625104">
        <ele>925.474</ele>
        <time>1999-07-20T11:26:01Z</time>
      </trkpt>
      <trkpt lat="42.815172" lon="-5.624899">
        <ele>924.814</ele>
        <time>1999-07-20T11:26:07Z</time>
      </trkpt>
      <trkpt lat="42.815438" lon="-5.624753">
        <ele>924.622</ele>
        <time>1999-07-20T11:26:12Z</time>
      </trkpt>
      <trkpt lat="42.815492" lon="-5.624720">
        <ele>924.630</ele>
        <time>1999-07-20T11:26:13Z</time>
      </trkpt>
      <trkpt lat="42.815888" lon="-5.624509">
        <ele>924.626</ele>
        <time>1999-07-20T11:26:20Z</time>
      </trkpt>
      <trkpt lat="42.816277" lon="-5.624305">
        <ele>924.693</ele>
        <time>1999-07-20T11:26:27Z</time>
      </trkpt>
      <trkpt lat="42.816660" lon="-5.624155">
        <ele>924.838</ele>
        <time>1999-07-20T11:26:34Z</time>
      </trkpt>
      <trkpt lat="42.816714" lon="-5.624141">
        <ele>925.099</ele>
        <time>1999-07-20T11:26:35Z</time>
      </trkpt>
      <trkpt lat="42.817091" lon="-5.624064">
        <ele>925.207</ele>
        <time>1999-07-20T11:26:41Z</time>
      </trkpt>
      <trkpt lat="42.817433" lon="-5.624092">
        <ele>926.027</ele>
        <time>1999-07-20T11:26:49Z</time>
      </trkpt>
      <trkpt lat="42.817533" lon="-5.624109">
        <ele>926.408</ele>
        <time>1999-07-20T11:26:51Z</time>
      </trkpt>
      <trkpt lat="42.817680" lon="-5.624148">
        <ele>926.882</ele>
        <time>1999-07-20T11:26:54Z</time>
      </trkpt>
      <trkpt lat="42.817725" lon="-5.624171">
        <ele>927.057</ele>
        <time>1999-07-20T11:26:55Z</time>
      </trkpt>
      <trkpt lat="42.817890" lon="-5.624277">
        <ele>927.447</ele>
        <time>1999-07-20T11:26:58Z</time>
      </trkpt>
      <trkpt lat="42.817962" lon="-5.624348">
        <ele>928.085</ele>
        <time>1999-07-20T11:27:01Z</time>
      </trkpt>
      <trkpt lat="42.817993" lon="-5.624393">
        <ele>928.223</ele>
        <time>1999-07-20T11:27:02Z</time>
      </trkpt>
      <trkpt lat="42.818011" lon="-5.624542">
        <ele>928.699</ele>
        <time>1999-07-20T11:27:04Z</time>
      </trkpt>
      <trkpt lat="42.818001" lon="-5.624594">
        <ele>928.876</ele>
        <time>1999-07-20T11:27:05Z</time>
      </trkpt>
      <trkpt lat="42.817967" lon="-5.624706">
        <ele>929.291</ele>
        <time>1999-07-20T11:27:08Z</time>
      </trkpt>
      <trkpt lat="42.817952" lon="-5.624742">
        <ele>929.222</ele>
        <time>1999-07-20T11:27:10Z</time>
      </trkpt>
      <trkpt lat="42.817929" lon="-5.624801">
        <ele>929.262</ele>
        <time>1999-07-20T11:27:13Z</time>
      </trkpt>
      <trkpt lat="42.817901" lon="-5.624854">
        <ele>929.208</ele>
        <time>1999-07-20T11:27:15Z</time>
      </trkpt>
      <trkpt lat="42.817883" lon="-5.624894">
        <ele>929.208</ele>
        <time>1999-07-20T11:27:16Z</time>
      </trkpt>
      <trkpt lat="42.817854" lon="-5.624984">
        <ele>928.825</ele>
        <time>1999-07-20T11:27:18Z</time>
      </trkpt>
      <trkpt lat="42.817834" lon="-5.625107">
        <ele>928.490</ele>
        <time>1999-07-20T11:27:21Z</time>
      </trkpt>
      <trkpt lat="42.817827" lon="-5.625129">
        <ele>928.220</ele>
        <time>1999-07-20T11:27:22Z</time>
      </trkpt>
      <trkpt lat="42.817803" lon="-5.625124">
        <ele>928.068</ele>
        <time>1999-07-20T11:27:24Z</time>
      </trkpt>
      <trkpt lat="42.817804" lon="-5.625073">
        <ele>927.496</ele>
        <time>1999-07-20T11:27:26Z</time>
      </trkpt>
      <trkpt lat="42.817816" lon="-5.625039">
        <ele>927.212</ele>
        <time>1999-07-20T11:27:27Z</time>
      </trkpt>
      <trkpt lat="42.817884" lon="-5.624835">
        <ele>927.299</ele>
        <time>1999-07-20T11:27:32Z</time>
      </trkpt>
      <trkpt lat="42.817916" lon="-5.624758">
        <ele>927.284</ele>
        <time>1999-07-20T11:27:34Z</time>
      </trkpt>
      <trkpt lat="42.817960" lon="-5.624640">
        <ele>927.293</ele>
        <time>1999-07-20T11:27:37Z</time>
      </trkpt>
      <trkpt lat="42.818021" lon="-5.624506">
        <ele>928.065</ele>
        <time>1999-07-20T11:27:41Z</time>
      </trkpt>
      <trkpt lat="42.818060" lon="-5.624500">
        <ele>928.421</ele>
        <time>1999-07-20T11:27:43Z</time>
      </trkpt>
      <trkpt lat="42.818109" lon="-5.624529">
        <ele>928.808</ele>
        <time>1999-07-20T11:27:45Z</time>
      </trkpt>
      <trkpt lat="42.818140" lon="-5.624547">
        <ele>928.882</ele>
        <time>1999-07-20T11:27:46Z</time>
      </trkpt>
      <trkpt lat="42.818235" lon="-5.624670">
        <ele>929.087</ele>
        <time>1999-07-20T11:27:48Z</time>
      </trkpt>
      <trkpt lat="42.818235" lon="-5.624670">
        <ele>929.087</ele>
        <time>1999-07-20T11:27:49Z</time>
      </trkpt>
      <trkpt lat="42.818324" lon="-5.624887">
        <ele>929.285</ele>
        <time>1999-07-20T11:27:51Z</time>
      </trkpt>
      <trkpt lat="42.818355" lon="-5.624966">
        <ele>929.223</ele>
        <time>1999-07-20T11:27:53Z</time>
      </trkpt>
      <trkpt lat="42.818468" lon="-5.625312">
        <ele>929.269</ele>
        <time>1999-07-20T11:27:56Z</time>
      </trkpt>
      <trkpt lat="42.818557" lon="-5.625571">
        <ele>929.076</ele>
        <time>1999-07-20T11:28:00Z</time>
      </trkpt>
      <trkpt lat="42.818692" lon="-5.626069">
        <ele>929.011</ele>
        <time>1999-07-20T11:28:05Z</time>
      </trkpt>
      <trkpt lat="42.818803" lon="-5.626422">
        <ele>928.841</ele>
        <time>1999-07-20T11:28:09Z</time>
      </trkpt>
      <trkpt lat="42.819044" lon="-5.627121">
        <ele>928.681</ele>
        <time>1999-07-20T11:28:17Z</time>
      </trkpt>
      <trkpt lat="42.819229" lon="-5.627703">
        <ele>928.609</ele>
        <time>1999-07-20T11:28:24Z</time>
      </trkpt>
      <trkpt lat="42.819437" lon="-5.628422">
        <ele>928.608</ele>
        <time>1999-07-20T11:28:33Z</time>
      </trkpt>
      <trkpt lat="42.819605" lon="-5.628993">
        <ele>928.887</ele>
        <time>1999-07-20T11:28:40Z</time>
      </trkpt>
      <trkpt lat="42.819750" lon="-5.629654">
        <ele>929.212</ele>
        <time>1999-07-20T11:28:48Z</time>
      </trkpt>
      <trkpt lat="42.819793" lon="-5.629984">
        <ele>929.612</ele>
        <time>1999-07-20T11:28:52Z</time>
      </trkpt>
      <trkpt lat="42.819834" lon="-5.630405">
        <ele>930.040</ele>
        <time>1999-07-20T11:28:57Z</time>
      </trkpt>
      <trkpt lat="42.819845" lon="-5.630942">
        <ele>930.628</ele>
        <time>1999-07-20T11:29:03Z</time>
      </trkpt>
      <trkpt lat="42.819846" lon="-5.631121">
        <ele>930.644</ele>
        <time>1999-07-20T11:29:05Z</time>
      </trkpt>
      <trkpt lat="42.819833" lon="-5.631858">
        <ele>931.271</ele>
        <time>1999-07-20T11:29:13Z</time>
      </trkpt>
      <trkpt lat="42.819829" lon="-5.631953">
        <ele>931.226</ele>
        <time>1999-07-20T11:29:14Z</time>
      </trkpt>
      <trkpt lat="42.819809" lon="-5.632503">
        <ele>931.679</ele>
        <time>1999-07-20T11:29:20Z</time>
      </trkpt>
      <trkpt lat="42.819797" lon="-5.632759">
        <ele>931.805</ele>
        <time>1999-07-20T11:29:23Z</time>
      </trkpt>
      <trkpt lat="42.819806" lon="-5.632816">
        <ele>931.825</ele>
        <time>1999-07-20T11:29:24Z</time>
      </trkpt>
      <trkpt lat="42.819841" lon="-5.632873">
        <ele>932.008</ele>
        <time>1999-07-20T11:29:26Z</time>
      </trkpt>
      <trkpt lat="42.819862" lon="-5.632901">
        <ele>932.070</ele>
        <time>1999-07-20T11:29:28Z</time>
      </trkpt>
      <trkpt lat="42.819867" lon="-5.632972">
        <ele>932.245</ele>
        <time>1999-07-20T11:29:31Z</time>
      </trkpt>
      <trkpt lat="42.819905" lon="-5.633161">
        <ele>932.695</ele>
        <time>1999-07-20T11:29:36Z</time>
      </trkpt>
      <trkpt lat="42.819914" lon="-5.633206">
        <ele>932.833</ele>
        <time>1999-07-20T11:29:37Z</time>
      </trkpt>
      <trkpt lat="42.819952" lon="-5.633481">
        <ele>933.691</ele>
        <time>1999-07-20T11:29:43Z</time>
      </trkpt>
      <trkpt lat="42.819956" lon="-5.633529">
        <ele>933.877</ele>
        <time>1999-07-20T11:29:44Z</time>
      </trkpt>
      <trkpt lat="42.819989" lon="-5.633790">
        <ele>935.074</ele>
        <time>1999-07-20T11:29:50Z</time>
      </trkpt>
      <trkpt lat="42.820028" lon="-5.634077">
        <ele>936.029</ele>
        <time>1999-07-20T11:29:57Z</time>
      </trkpt>
      <trkpt lat="42.820057" lon="-5.634342">
        <ele>937.088</ele>
        <time>1999-07-20T11:30:03Z</time>
      </trkpt>
      <trkpt lat="42.820058" lon="-5.634388">
        <ele>937.224</ele>
        <time>1999-07-20T11:30:04Z</time>
      </trkpt>
      <trkpt lat="42.820091" lon="-5.634633">
        <ele>938.226</ele>
        <time>1999-07-20T11:30:09Z</time>
      </trkpt>
      <trkpt lat="42.820092" lon="-5.634683">
        <ele>938.208</ele>
        <time>1999-07-20T11:30:10Z</time>
      </trkpt>
      <trkpt lat="42.820144" lon="-5.634868">
        <ele>939.021</ele>
        <time>1999-07-20T11:30:14Z</time>
      </trkpt>
      <trkpt lat="42.820189" lon="-5.634947">
        <ele>939.476</ele>
        <time>1999-07-20T11:30:16Z</time>
      </trkpt>
      <trkpt lat="42.820283" lon="-5.635070">
        <ele>940.046</ele>
        <time>1999-07-20T11:30:20Z</time>
      </trkpt>
      <trkpt lat="42.820333" lon="-5.635118">
        <ele>940.694</ele>
        <time>1999-07-20T11:30:22Z</time>
      </trkpt>
      <trkpt lat="42.820443" lon="-5.635204">
        <ele>941.242</ele>
        <time>1999-07-20T11:30:25Z</time>
      </trkpt>
      <trkpt lat="42.820567" lon="-5.635274">
        <ele>941.698</ele>
        <time>1999-07-20T11:30:28Z</time>
      </trkpt>
      <trkpt lat="42.820743" lon="-5.635363">
        <ele>942.485</ele>
        <time>1999-07-20T11:30:32Z</time>
      </trkpt>
      <trkpt lat="42.820837" lon="-5.635415">
        <ele>942.630</ele>
        <time>1999-07-20T11:30:34Z</time>
      </trkpt>
      <trkpt lat="42.820932" lon="-5.635498">
        <ele>942.866</ele>
        <time>1999-07-20T11:30:36Z</time>
      </trkpt>
      <trkpt lat="42.821018" lon="-5.635604">
        <ele>942.829</ele>
        <time>1999-07-20T11:30:38Z</time>
      </trkpt>
      <trkpt lat="42.821059" lon="-5.635667">
        <ele>942.821</ele>
        <time>1999-07-20T11:30:39Z</time>
      </trkpt>
      <trkpt lat="42.821163" lon="-5.635902">
        <ele>943.008</ele>
        <time>1999-07-20T11:30:42Z</time>
      </trkpt>
      <trkpt lat="42.821191" lon="-5.635990">
        <ele>943.059</ele>
        <time>1999-07-20T11:30:43Z</time>
      </trkpt>
      <trkpt lat="42.821392" lon="-5.636448">
        <ele>942.614</ele>
        <time>1999-07-20T11:30:48Z</time>
      </trkpt>
      <trkpt lat="42.821495" lon="-5.636730">
        <ele>941.684</ele>
        <time>1999-07-20T11:30:51Z</time>
      </trkpt>
      <trkpt lat="42.821523" lon="-5.636827">
        <ele>941.492</ele>
        <time>1999-07-20T11:30:52Z</time>
      </trkpt>
      <trkpt lat="42.821587" lon="-5.637023">
        <ele>940.890</ele>
        <time>1999-07-20T11:30:54Z</time>
      </trkpt>
      <trkpt lat="42.821622" lon="-5.637120">
        <ele>940.866</ele>
        <time>1999-07-20T11:30:55Z</time>
      </trkpt>
      <trkpt lat="42.821702" lon="-5.637317">
        <ele>940.653</ele>
        <time>1999-07-20T11:30:57Z</time>
      </trkpt>
      <trkpt lat="42.821744" lon="-5.637417">
        <ele>940.668</ele>
        <time>1999-07-20T11:30:58Z</time>
      </trkpt>
      <trkpt lat="42.821843" lon="-5.637608">
        <ele>940.485</ele>
        <time>1999-07-20T11:31:00Z</time>
      </trkpt>
      <trkpt lat="42.822024" lon="-5.637849">
        <ele>940.089</ele>
        <time>1999-07-20T11:31:03Z</time>
      </trkpt>
      <trkpt lat="42.822209" lon="-5.638063">
        <ele>939.417</ele>
        <time>1999-07-20T11:31:06Z</time>
      </trkpt>
      <trkpt lat="42.822447" lon="-5.638331">
        <ele>938.808</ele>
        <time>1999-07-20T11:31:10Z</time>
      </trkpt>
      <trkpt lat="42.822506" lon="-5.638395">
        <ele>938.871</ele>
        <time>1999-07-20T11:31:11Z</time>
      </trkpt>
      <trkpt lat="42.822919" lon="-5.638851">
        <ele>938.816</ele>
        <time>1999-07-20T11:31:18Z</time>
      </trkpt>
      <trkpt lat="42.823155" lon="-5.639113">
        <ele>938.876</ele>
        <time>1999-07-20T11:31:22Z</time>
      </trkpt>
      <trkpt lat="42.823277" lon="-5.639232">
        <ele>938.814</ele>
        <time>1999-07-20T11:31:24Z</time>
      </trkpt>
      <trkpt lat="42.823511" lon="-5.639495">
        <ele>938.632</ele>
        <time>1999-07-20T11:31:28Z</time>
      </trkpt>
      <trkpt lat="42.823688" lon="-5.639691">
        <ele>939.018</ele>
        <time>1999-07-20T11:31:31Z</time>
      </trkpt>
      <trkpt lat="42.823861" lon="-5.639885">
        <ele>939.035</ele>
        <time>1999-07-20T11:31:34Z</time>
      </trkpt>
      <trkpt lat="42.824088" lon="-5.640136">
        <ele>939.050</ele>
        <time>1999-07-20T11:31:38Z</time>
      </trkpt>
      <trkpt lat="42.824466" lon="-5.640597">
        <ele>939.075</ele>
        <time>1999-07-20T11:31:45Z</time>
      </trkpt>
      <trkpt lat="42.824755" lon="-5.640968">
        <ele>939.028</ele>
        <time>1999-07-20T11:31:51Z</time>
      </trkpt>
      <trkpt lat="42.825007" lon="-5.641354">
        <ele>939.620</ele>
        <time>1999-07-20T11:31:57Z</time>
      </trkpt>
      <trkpt lat="42.825050" lon="-5.641412">
        <ele>939.608</ele>
        <time>1999-07-20T11:31:58Z</time>
      </trkpt>
      <trkpt lat="42.825346" lon="-5.641791">
        <ele>940.280</ele>
        <time>1999-07-20T11:32:05Z</time>
      </trkpt>
      <trkpt lat="42.825386" lon="-5.641848">
        <ele>940.455</ele>
        <time>1999-07-20T11:32:06Z</time>
      </trkpt>
      <trkpt lat="42.825600" lon="-5.642150">
        <ele>940.885</ele>
        <time>1999-07-20T11:32:11Z</time>
      </trkpt>
      <trkpt lat="42.826032" lon="-5.642714">
        <ele>941.233</ele>
        <time>1999-07-20T11:32:20Z</time>
      </trkpt>
      <trkpt lat="42.826077" lon="-5.642776">
        <ele>941.231</ele>
        <time>1999-07-20T11:32:21Z</time>
      </trkpt>
      <trkpt lat="42.826343" lon="-5.643126">
        <ele>941.487</ele>
        <time>1999-07-20T11:32:27Z</time>
      </trkpt>
      <trkpt lat="42.826430" lon="-5.643238">
        <ele>941.444</ele>
        <time>1999-07-20T11:32:29Z</time>
      </trkpt>
      <trkpt lat="42.826718" lon="-5.643617">
        <ele>942.469</ele>
        <time>1999-07-20T11:32:36Z</time>
      </trkpt>
      <trkpt lat="42.826759" lon="-5.643672">
        <ele>942.467</ele>
        <time>1999-07-20T11:32:37Z</time>
      </trkpt>
      <trkpt lat="42.826963" lon="-5.643936">
        <ele>943.681</ele>
        <time>1999-07-20T11:32:42Z</time>
      </trkpt>
      <trkpt lat="42.827126" lon="-5.644143">
        <ele>944.019</ele>
        <time>1999-07-20T11:32:46Z</time>
      </trkpt>
      <trkpt lat="42.827432" lon="-5.644560">
        <ele>944.608</ele>
        <time>1999-07-20T11:32:54Z</time>
      </trkpt>
      <trkpt lat="42.827503" lon="-5.644657">
        <ele>944.879</ele>
        <time>1999-07-20T11:32:56Z</time>
      </trkpt>
      <trkpt lat="42.827523" lon="-5.644818">
        <ele>945.484</ele>
        <time>1999-07-20T11:32:59Z</time>
      </trkpt>
      <trkpt lat="42.827476" lon="-5.644923">
        <ele>945.664</ele>
        <time>1999-07-20T11:33:01Z</time>
      </trkpt>
      <trkpt lat="42.827452" lon="-5.644982">
        <ele>945.892</ele>
        <time>1999-07-20T11:33:02Z</time>
      </trkpt>
      <trkpt lat="42.827427" lon="-5.645042">
        <ele>945.820</ele>
        <time>1999-07-20T11:33:03Z</time>
      </trkpt>
      <trkpt lat="42.827261" lon="-5.645368">
        <ele>945.876</ele>
        <time>1999-07-20T11:33:08Z</time>
      </trkpt>
      <trkpt lat="42.827228" lon="-5.645440">
        <ele>945.833</ele>
        <time>1999-07-20T11:33:09Z</time>
      </trkpt>
      <trkpt lat="42.827145" lon="-5.645668">
        <ele>945.618</ele>
        <time>1999-07-20T11:33:12Z</time>
      </trkpt>
      <trkpt lat="42.827079" lon="-5.645910">
        <ele>945.296</ele>
        <time>1999-07-20T11:33:15Z</time>
      </trkpt>
      <trkpt lat="42.827082" lon="-5.645995">
        <ele>945.031</ele>
        <time>1999-07-20T11:33:16Z</time>
      </trkpt>
      <trkpt lat="42.827111" lon="-5.646167">
        <ele>944.824</ele>
        <time>1999-07-20T11:33:18Z</time>
      </trkpt>
      <trkpt lat="42.827157" lon="-5.646321">
        <ele>944.608</ele>
        <time>1999-07-20T11:33:20Z</time>
      </trkpt>
      <trkpt lat="42.827245" lon="-5.646555">
        <ele>944.492</ele>
        <time>1999-07-20T11:33:23Z</time>
      </trkpt>
      <trkpt lat="42.827468" lon="-5.647129">
        <ele>943.867</ele>
        <time>1999-07-20T11:33:30Z</time>
      </trkpt>
      <trkpt lat="42.827752" lon="-5.647846">
        <ele>943.817</ele>
        <time>1999-07-20T11:33:39Z</time>
      </trkpt>
      <trkpt lat="42.828017" lon="-5.648511">
        <ele>943.875</ele>
        <time>1999-07-20T11:33:48Z</time>
      </trkpt>
      <trkpt lat="42.828205" lon="-5.648973">
        <ele>944.023</ele>
        <time>1999-07-20T11:33:54Z</time>
      </trkpt>
      <trkpt lat="42.828268" lon="-5.649128">
        <ele>944.219</ele>
        <time>1999-07-20T11:33:56Z</time>
      </trkpt>
      <trkpt lat="42.828550" lon="-5.649810">
        <ele>944.616</ele>
        <time>1999-07-20T11:34:05Z</time>
      </trkpt>
      <trkpt lat="42.828581" lon="-5.649884">
        <ele>944.631</ele>
        <time>1999-07-20T11:34:06Z</time>
      </trkpt>
      <trkpt lat="42.828860" lon="-5.650554">
        <ele>944.654</ele>
        <time>1999-07-20T11:34:15Z</time>
      </trkpt>
      <trkpt lat="42.828890" lon="-5.650629">
        <ele>944.656</ele>
        <time>1999-07-20T11:34:16Z</time>
      </trkpt>
      <trkpt lat="42.829149" lon="-5.651288">
        <ele>944.611</ele>
        <time>1999-07-20T11:34:25Z</time>
      </trkpt>
      <trkpt lat="42.829206" lon="-5.651431">
        <ele>944.808</ele>
        <time>1999-07-20T11:34:27Z</time>
      </trkpt>
      <trkpt lat="42.829383" lon="-5.651856">
        <ele>945.078</ele>
        <time>1999-07-20T11:34:33Z</time>
      </trkpt>
      <trkpt lat="42.829634" lon="-5.652453">
        <ele>945.663</ele>
        <time>1999-07-20T11:34:41Z</time>
      </trkpt>
      <trkpt lat="42.829665" lon="-5.652530">
        <ele>945.623</ele>
        <time>1999-07-20T11:34:42Z</time>
      </trkpt>
      <trkpt lat="42.829937" lon="-5.653094">
        <ele>946.281</ele>
        <time>1999-07-20T11:34:50Z</time>
      </trkpt>
      <trkpt lat="42.830004" lon="-5.653228">
        <ele>946.269</ele>
        <time>1999-07-20T11:34:52Z</time>
      </trkpt>
      <trkpt lat="42.830098" lon="-5.653438">
        <ele>946.875</ele>
        <time>1999-07-20T11:34:55Z</time>
      </trkpt>
      <trkpt lat="42.830208" lon="-5.653635">
        <ele>946.892</ele>
        <time>1999-07-20T11:34:58Z</time>
      </trkpt>
      <trkpt lat="42.830409" lon="-5.653945">
        <ele>947.057</ele>
        <time>1999-07-20T11:35:03Z</time>
      </trkpt>
      <trkpt lat="42.830657" lon="-5.654278">
        <ele>947.052</ele>
        <time>1999-07-20T11:35:09Z</time>
      </trkpt>
      <trkpt lat="42.830703" lon="-5.654318">
        <ele>947.053</ele>
        <time>1999-07-20T11:35:10Z</time>
      </trkpt>
      <trkpt lat="42.830842" lon="-5.654388">
        <ele>947.008</ele>
        <time>1999-07-20T11:35:13Z</time>
      </trkpt>
      <trkpt lat="42.830881" lon="-5.654403">
        <ele>946.808</ele>
        <time>1999-07-20T11:35:14Z</time>
      </trkpt>
      <trkpt lat="42.830978" lon="-5.654389">
        <ele>946.848</ele>
        <time>1999-07-20T11:35:17Z</time>
      </trkpt>
      <trkpt lat="42.831006" lon="-5.654372">
        <ele>946.853</ele>
        <time>1999-07-20T11:35:18Z</time>
      </trkpt>
      <trkpt lat="42.831051" lon="-5.654354">
        <ele>946.863</ele>
        <time>1999-07-20T11:35:20Z</time>
      </trkpt>
      <trkpt lat="42.831079" lon="-5.654360">
        <ele>946.851</ele>
        <time>1999-07-20T11:35:22Z</time>
      </trkpt>
      <trkpt lat="42.831091" lon="-5.654375">
        <ele>946.669</ele>
        <time>1999-07-20T11:35:25Z</time>
      </trkpt>
      <trkpt lat="42.831032" lon="-5.654400">
        <ele>946.615</ele>
        <time>1999-07-20T11:35:42Z</time>
      </trkpt>
      <trkpt lat="42.831033" lon="-5.654432">
        <ele>946.642</ele>
        <time>1999-07-20T11:35:43Z</time>
      </trkpt>
      <trkpt lat="42.831086" lon="-5.654488">
        <ele>946.627</ele>
        <time>1999-07-20T11:35:46Z</time>
      </trkpt>
      <trkpt lat="42.831125" lon="-5.654493">
        <ele>946.883</ele>
        <time>1999-07-20T11:35:48Z</time>
      </trkpt>
      <trkpt lat="42.831196" lon="-5.654516">
        <ele>946.825</ele>
        <time>1999-07-20T11:35:51Z</time>
      </trkpt>
      <trkpt lat="42.831332" lon="-5.654569">
        <ele>947.017</ele>
        <time>1999-07-20T11:35:57Z</time>
      </trkpt>
      <trkpt lat="42.831515" lon="-5.654473">
        <ele>947.208</ele>
        <time>1999-07-20T11:36:04Z</time>
      </trkpt>
      <trkpt lat="42.831627" lon="-5.654446">
        <ele>947.461</ele>
        <time>1999-07-20T11:36:09Z</time>
      </trkpt>
      <trkpt lat="42.831694" lon="-5.654422">
        <ele>947.856</ele>
        <time>1999-07-20T11:36:11Z</time>
      </trkpt>
      <trkpt lat="42.831736" lon="-5.654418">
        <ele>948.216</ele>
        <time>1999-07-20T11:36:12Z</time>
      </trkpt>
      <trkpt lat="42.831779" lon="-5.654422">
        <ele>948.224</ele>
        <time>1999-07-20T11:36:13Z</time>
      </trkpt>
      <trkpt lat="42.832019" lon="-5.654490">
        <ele>948.692</ele>
        <time>1999-07-20T11:36:18Z</time>
      </trkpt>
      <trkpt lat="42.832120" lon="-5.654520">
        <ele>948.628</ele>
        <time>1999-07-20T11:36:20Z</time>
      </trkpt>
      <trkpt lat="42.832583" lon="-5.654641">
        <ele>948.885</ele>
        <time>1999-07-20T11:36:29Z</time>
      </trkpt>
      <trkpt lat="42.832632" lon="-5.654653">
        <ele>948.880</ele>
        <time>1999-07-20T11:36:30Z</time>
      </trkpt>
      <trkpt lat="42.832773" lon="-5.654685">
        <ele>948.864</ele>
        <time>1999-07-20T11:36:33Z</time>
      </trkpt>
      <trkpt lat="42.832857" lon="-5.654704">
        <ele>948.806</ele>
        <time>1999-07-20T11:36:35Z</time>
      </trkpt>
      <trkpt lat="42.832897" lon="-5.654716">
        <ele>948.816</ele>
        <time>1999-07-20T11:36:36Z</time>
      </trkpt>
      <trkpt lat="42.833096" lon="-5.654773">
        <ele>948.808</ele>
        <time>1999-07-20T11:36:42Z</time>
      </trkpt>
      <trkpt lat="42.833123" lon="-5.654788">
        <ele>948.889</ele>
        <time>1999-07-20T11:36:43Z</time>
      </trkpt>
      <trkpt lat="42.833143" lon="-5.654823">
        <ele>948.824</ele>
        <time>1999-07-20T11:36:44Z</time>
      </trkpt>
      <trkpt lat="42.833141" lon="-5.654922">
        <ele>948.854</ele>
        <time>1999-07-20T11:36:46Z</time>
      </trkpt>
      <trkpt lat="42.833070" lon="-5.655292">
        <ele>948.882</ele>
        <time>1999-07-20T11:36:51Z</time>
      </trkpt>
      <trkpt lat="42.833034" lon="-5.655517">
        <ele>948.860</ele>
        <time>1999-07-20T11:36:54Z</time>
      </trkpt>
      <trkpt lat="42.832967" lon="-5.655863">
        <ele>948.876</ele>
        <time>1999-07-20T11:36:59Z</time>
      </trkpt>
      <trkpt lat="42.832954" lon="-5.655989">
        <ele>948.833</ele>
        <time>1999-07-20T11:37:01Z</time>
      </trkpt>
      <trkpt lat="42.832967" lon="-5.656215">
        <ele>948.848</ele>
        <time>1999-07-20T11:37:04Z</time>
      </trkpt>
      <trkpt lat="42.833017" lon="-5.656546">
        <ele>948.822</ele>
        <time>1999-07-20T11:37:08Z</time>
      </trkpt>
      <trkpt lat="42.833037" lon="-5.656706">
        <ele>948.862</ele>
        <time>1999-07-20T11:37:10Z</time>
      </trkpt>
      <trkpt lat="42.833044" lon="-5.656784">
        <ele>948.808</ele>
        <time>1999-07-20T11:37:11Z</time>
      </trkpt>
      <trkpt lat="42.833076" lon="-5.657266">
        <ele>948.808</ele>
        <time>1999-07-20T11:37:17Z</time>
      </trkpt>
      <trkpt lat="42.833086" lon="-5.657351">
        <ele>948.855</ele>
        <time>1999-07-20T11:37:18Z</time>
      </trkpt>
      <trkpt lat="42.833104" lon="-5.657435">
        <ele>948.820</ele>
        <time>1999-07-20T11:37:19Z</time>
      </trkpt>
      <trkpt lat="42.833164" lon="-5.657683">
        <ele>948.880</ele>
        <time>1999-07-20T11:37:22Z</time>
      </trkpt>
      <trkpt lat="42.833203" lon="-5.657919">
        <ele>948.898</ele>
        <time>1999-07-20T11:37:25Z</time>
      </trkpt>
      <trkpt lat="42.833290" lon="-5.658311">
        <ele>949.436</ele>
        <time>1999-07-20T11:37:31Z</time>
      </trkpt>
      <trkpt lat="42.833366" lon="-5.658550">
        <ele>950.082</ele>
        <time>1999-07-20T11:37:35Z</time>
      </trkpt>
      <trkpt lat="42.833441" lon="-5.658774">
        <ele>950.669</ele>
        <time>1999-07-20T11:37:39Z</time>
      </trkpt>
      <trkpt lat="42.833460" lon="-5.658827">
        <ele>950.854</ele>
        <time>1999-07-20T11:37:40Z</time>
      </trkpt>
      <trkpt lat="42.833481" lon="-5.658878">
        <ele>951.225</ele>
        <time>1999-07-20T11:37:41Z</time>
      </trkpt>
      <trkpt lat="42.833619" lon="-5.659161">
        <ele>952.026</ele>
        <time>1999-07-20T11:37:47Z</time>
      </trkpt>
      <trkpt lat="42.833640" lon="-5.659209">
        <ele>952.008</ele>
        <time>1999-07-20T11:37:48Z</time>
      </trkpt>
      <trkpt lat="42.833737" lon="-5.659512">
        <ele>953.208</ele>
        <time>1999-07-20T11:37:54Z</time>
      </trkpt>
      <trkpt lat="42.833747" lon="-5.659561">
        <ele>953.435</ele>
        <time>1999-07-20T11:37:55Z</time>
      </trkpt>
      <trkpt lat="42.833779" lon="-5.659694">
        <ele>953.860</ele>
        <time>1999-07-20T11:37:58Z</time>
      </trkpt>
      <trkpt lat="42.833806" lon="-5.659720">
        <ele>954.060</ele>
        <time>1999-07-20T11:37:59Z</time>
      </trkpt>
      <trkpt lat="42.833842" lon="-5.659724">
        <ele>954.298</ele>
        <time>1999-07-20T11:38:00Z</time>
      </trkpt>
      <trkpt lat="42.833928" lon="-5.659689">
        <ele>954.816</ele>
        <time>1999-07-20T11:38:02Z</time>
      </trkpt>
      <trkpt lat="42.834084" lon="-5.659558">
        <ele>955.422</ele>
        <time>1999-07-20T11:38:05Z</time>
      </trkpt>
      <trkpt lat="42.834135" lon="-5.659509">
        <ele>955.489</ele>
        <time>1999-07-20T11:38:06Z</time>
      </trkpt>
      <trkpt lat="42.834302" lon="-5.659365">
        <ele>955.444</ele>
        <time>1999-07-20T11:38:09Z</time>
      </trkpt>
      <trkpt lat="42.834493" lon="-5.659261">
        <ele>955.423</ele>
        <time>1999-07-20T11:38:12Z</time>
      </trkpt>
      <trkpt lat="42.834627" lon="-5.659219">
        <ele>955.283</ele>
        <time>1999-07-20T11:38:14Z</time>
      </trkpt>
      <trkpt lat="42.834822" lon="-5.659137">
        <ele>954.411</ele>
        <time>1999-07-20T11:38:17Z</time>
      </trkpt>
      <trkpt lat="42.834887" lon="-5.659101">
        <ele>954.208</ele>
        <time>1999-07-20T11:38:18Z</time>
      </trkpt>
      <trkpt lat="42.835150" lon="-5.658958">
        <ele>953.665</ele>
        <time>1999-07-20T11:38:22Z</time>
      </trkpt>
      <trkpt lat="42.835347" lon="-5.658864">
        <ele>953.060</ele>
        <time>1999-07-20T11:38:25Z</time>
      </trkpt>
      <trkpt lat="42.835542" lon="-5.658789">
        <ele>952.830</ele>
        <time>1999-07-20T11:38:28Z</time>
      </trkpt>
      <trkpt lat="42.835863" lon="-5.658683">
        <ele>952.488</ele>
        <time>1999-07-20T11:38:33Z</time>
      </trkpt>
      <trkpt lat="42.836359" lon="-5.658474">
        <ele>952.456</ele>
        <time>1999-07-20T11:38:41Z</time>
      </trkpt>
      <trkpt lat="42.836777" lon="-5.658239">
        <ele>952.622</ele>
        <time>1999-07-20T11:38:48Z</time>
      </trkpt>
      <trkpt lat="42.837140" lon="-5.657867">
        <ele>952.679</ele>
        <time>1999-07-20T11:38:55Z</time>
      </trkpt>
      <trkpt lat="42.837432" lon="-5.657555">
        <ele>952.624</ele>
        <time>1999-07-20T11:39:01Z</time>
      </trkpt>
      <trkpt lat="42.837824" lon="-5.657137">
        <ele>952.847</ele>
        <time>1999-07-20T11:39:09Z</time>
      </trkpt>
      <trkpt lat="42.837944" lon="-5.656963">
        <ele>952.829</ele>
        <time>1999-07-20T11:39:12Z</time>
      </trkpt>
      <trkpt lat="42.838048" lon="-5.656890">
        <ele>952.821</ele>
        <time>1999-07-20T11:39:14Z</time>
      </trkpt>
      <trkpt lat="42.838274" lon="-5.656851">
        <ele>953.408</ele>
        <time>1999-07-20T11:39:18Z</time>
      </trkpt>
      <trkpt lat="42.838377" lon="-5.656873">
        <ele>953.497</ele>
        <time>1999-07-20T11:39:20Z</time>
      </trkpt>
      <trkpt lat="42.838481" lon="-5.656888">
        <ele>953.642</ele>
        <time>1999-07-20T11:39:22Z</time>
      </trkpt>
      <trkpt lat="42.838579" lon="-5.656866">
        <ele>953.812</ele>
        <time>1999-07-20T11:39:24Z</time>
      </trkpt>
      <trkpt lat="42.838672" lon="-5.656828">
        <ele>953.840</ele>
        <time>1999-07-20T11:39:26Z</time>
      </trkpt>
      <trkpt lat="42.838807" lon="-5.656758">
        <ele>954.038</ele>
        <time>1999-07-20T11:39:29Z</time>
      </trkpt>
      <trkpt lat="42.838852" lon="-5.656742">
        <ele>954.224</ele>
        <time>1999-07-20T11:39:30Z</time>
      </trkpt>
      <trkpt lat="42.839101" lon="-5.656719">
        <ele>954.671</ele>
        <time>1999-07-20T11:39:35Z</time>
      </trkpt>
      <trkpt lat="42.839248" lon="-5.656726">
        <ele>955.216</ele>
        <time>1999-07-20T11:39:38Z</time>
      </trkpt>
      <trkpt lat="42.839398" lon="-5.656749">
        <ele>955.682</ele>
        <time>1999-07-20T11:39:41Z</time>
      </trkpt>
      <trkpt lat="42.839709" lon="-5.656831">
        <ele>956.043</ele>
        <time>1999-07-20T11:39:47Z</time>
      </trkpt>
      <trkpt lat="42.839818" lon="-5.656869">
        <ele>956.017</ele>
        <time>1999-07-20T11:39:49Z</time>
      </trkpt>
      <trkpt lat="42.840103" lon="-5.657015">
        <ele>956.208</ele>
        <time>1999-07-20T11:39:54Z</time>
      </trkpt>
      <trkpt lat="42.840430" lon="-5.657275">
        <ele>956.261</ele>
        <time>1999-07-20T11:40:00Z</time>
      </trkpt>
      <trkpt lat="42.840748" lon="-5.657660">
        <ele>956.226</ele>
        <time>1999-07-20T11:40:07Z</time>
      </trkpt>
      <trkpt lat="42.840938" lon="-5.658079">
        <ele>956.246</ele>
        <time>1999-07-20T11:40:13Z</time>
      </trkpt>
      <trkpt lat="42.841066" lon="-5.658593">
        <ele>956.044</ele>
        <time>1999-07-20T11:40:19Z</time>
      </trkpt>
      <trkpt lat="42.841088" lon="-5.658652">
        <ele>955.822</ele>
        <time>1999-07-20T11:40:20Z</time>
      </trkpt>
      <trkpt lat="42.841124" lon="-5.658777">
        <ele>955.888</ele>
        <time>1999-07-20T11:40:22Z</time>
      </trkpt>
      <trkpt lat="42.841193" lon="-5.658967">
        <ele>956.055</ele>
        <time>1999-07-20T11:40:25Z</time>
      </trkpt>
      <trkpt lat="42.841294" lon="-5.659227">
        <ele>957.030</ele>
        <time>1999-07-20T11:40:29Z</time>
      </trkpt>
      <trkpt lat="42.841362" lon="-5.659410">
        <ele>957.654</ele>
        <time>1999-07-20T11:40:32Z</time>
      </trkpt>
      <trkpt lat="42.841459" lon="-5.659677">
        <ele>957.856</ele>
        <time>1999-07-20T11:40:36Z</time>
      </trkpt>
      <trkpt lat="42.841494" lon="-5.659745">
        <ele>958.011</ele>
        <time>1999-07-20T11:40:37Z</time>
      </trkpt>
      <trkpt lat="42.841533" lon="-5.659815">
        <ele>958.008</ele>
        <time>1999-07-20T11:40:38Z</time>
      </trkpt>
      <trkpt lat="42.841703" lon="-5.660284">
        <ele>958.068</ele>
        <time>1999-07-20T11:40:44Z</time>
      </trkpt>
      <trkpt lat="42.841754" lon="-5.660533">
        <ele>958.043</ele>
        <time>1999-07-20T11:40:48Z</time>
      </trkpt>
      <trkpt lat="42.841787" lon="-5.660787">
        <ele>958.053</ele>
        <time>1999-07-20T11:40:51Z</time>
      </trkpt>
      <trkpt lat="42.841896" lon="-5.661393">
        <ele>958.221</ele>
        <time>1999-07-20T11:40:58Z</time>
      </trkpt>
      <trkpt lat="42.841960" lon="-5.661814">
        <ele>958.469</ele>
        <time>1999-07-20T11:41:03Z</time>
      </trkpt>
      <trkpt lat="42.842045" lon="-5.662326">
        <ele>958.615</ele>
        <time>1999-07-20T11:41:09Z</time>
      </trkpt>
      <trkpt lat="42.842100" lon="-5.662572">
        <ele>958.482</ele>
        <time>1999-07-20T11:41:12Z</time>
      </trkpt>
      <trkpt lat="42.842153" lon="-5.662738">
        <ele>958.657</ele>
        <time>1999-07-20T11:41:14Z</time>
      </trkpt>
      <trkpt lat="42.842322" lon="-5.663189">
        <ele>958.648</ele>
        <time>1999-07-20T11:41:20Z</time>
      </trkpt>
      <trkpt lat="42.842352" lon="-5.663261">
        <ele>958.661</ele>
        <time>1999-07-20T11:41:21Z</time>
      </trkpt>
      <trkpt lat="42.842481" lon="-5.663521">
        <ele>958.817</ele>
        <time>1999-07-20T11:41:25Z</time>
      </trkpt>
      <trkpt lat="42.842510" lon="-5.663592">
        <ele>958.808</ele>
        <time>1999-07-20T11:41:26Z</time>
      </trkpt>
      <trkpt lat="42.842642" lon="-5.663916">
        <ele>958.817</ele>
        <time>1999-07-20T11:41:31Z</time>
      </trkpt>
      <trkpt lat="42.842647" lon="-5.663978">
        <ele>959.042</ele>
        <time>1999-07-20T11:41:32Z</time>
      </trkpt>
      <trkpt lat="42.842674" lon="-5.664147">
        <ele>959.012</ele>
        <time>1999-07-20T11:41:36Z</time>
      </trkpt>
      <trkpt lat="42.842714" lon="-5.664240">
        <ele>959.230</ele>
        <time>1999-07-20T11:41:39Z</time>
      </trkpt>
      <trkpt lat="42.842750" lon="-5.664341">
        <ele>959.698</ele>
        <time>1999-07-20T11:41:42Z</time>
      </trkpt>
      <trkpt lat="42.842801" lon="-5.664469">
        <ele>960.644</ele>
        <time>1999-07-20T11:41:46Z</time>
      </trkpt>
      <trkpt lat="42.842825" lon="-5.664579">
        <ele>961.421</ele>
        <time>1999-07-20T11:41:49Z</time>
      </trkpt>
      <trkpt lat="42.842826" lon="-5.664691">
        <ele>962.086</ele>
        <time>1999-07-20T11:41:51Z</time>
      </trkpt>
      <trkpt lat="42.842833" lon="-5.664856">
        <ele>963.474</ele>
        <time>1999-07-20T11:41:54Z</time>
      </trkpt>
      <trkpt lat="42.842814" lon="-5.665124">
        <ele>964.656</ele>
        <time>1999-07-20T11:41:59Z</time>
      </trkpt>
      <trkpt lat="42.842806" lon="-5.665176">
        <ele>964.621</ele>
        <time>1999-07-20T11:42:00Z</time>
      </trkpt>
      <trkpt lat="42.842794" lon="-5.665423">
        <ele>965.208</ele>
        <time>1999-07-20T11:42:05Z</time>
      </trkpt>
      <trkpt lat="42.842793" lon="-5.665520">
        <ele>965.640</ele>
        <time>1999-07-20T11:42:07Z</time>
      </trkpt>
      <trkpt lat="42.842797" lon="-5.665644">
        <ele>966.065</ele>
        <time>1999-07-20T11:42:09Z</time>
      </trkpt>
      <trkpt lat="42.842805" lon="-5.665709">
        <ele>966.275</ele>
        <time>1999-07-20T11:42:10Z</time>
      </trkpt>
      <trkpt lat="42.842819" lon="-5.665775">
        <ele>966.233</ele>
        <time>1999-07-20T11:42:11Z</time>
      </trkpt>
      <trkpt lat="42.842873" lon="-5.665929">
        <ele>966.251</ele>
        <time>1999-07-20T11:42:13Z</time>
      </trkpt>
      <trkpt lat="42.842987" lon="-5.666183">
        <ele>966.287</ele>
        <time>1999-07-20T11:42:16Z</time>
      </trkpt>
      <trkpt lat="42.843049" lon="-5.666242">
        <ele>966.274</ele>
        <time>1999-07-20T11:42:17Z</time>
      </trkpt>
      <trkpt lat="42.843326" lon="-5.666460">
        <ele>965.039</ele>
        <time>1999-07-20T11:42:22Z</time>
      </trkpt>
      <trkpt lat="42.843431" lon="-5.666505">
        <ele>964.637</ele>
        <time>1999-07-20T11:42:24Z</time>
      </trkpt>
      <trkpt lat="42.843567" lon="-5.666577">
        <ele>964.249</ele>
        <time>1999-07-20T11:42:26Z</time>
      </trkpt>
      <trkpt lat="42.843700" lon="-5.666669">
        <ele>964.013</ele>
        <time>1999-07-20T11:42:28Z</time>
      </trkpt>
      <trkpt lat="42.843884" lon="-5.666837">
        <ele>963.608</ele>
        <time>1999-07-20T11:42:31Z</time>
      </trkpt>
      <trkpt lat="42.843927" lon="-5.666883">
        <ele>963.496</ele>
        <time>1999-07-20T11:42:32Z</time>
      </trkpt>
      <trkpt lat="42.843963" lon="-5.666934">
        <ele>963.251</ele>
        <time>1999-07-20T11:42:33Z</time>
      </trkpt>
      <trkpt lat="42.844036" lon="-5.667004">
        <ele>962.691</ele>
        <time>1999-07-20T11:42:35Z</time>
      </trkpt>
      <trkpt lat="42.844139" lon="-5.667078">
        <ele>962.069</ele>
        <time>1999-07-20T11:42:38Z</time>
      </trkpt>
      <trkpt lat="42.844180" lon="-5.667108">
        <ele>962.047</ele>
        <time>1999-07-20T11:42:39Z</time>
      </trkpt>
      <trkpt lat="42.844258" lon="-5.667171">
        <ele>962.093</ele>
        <time>1999-07-20T11:42:41Z</time>
      </trkpt>
      <trkpt lat="42.844337" lon="-5.667188">
        <ele>962.080</ele>
        <time>1999-07-20T11:42:43Z</time>
      </trkpt>
      <trkpt lat="42.844505" lon="-5.667190">
        <ele>962.055</ele>
        <time>1999-07-20T11:42:47Z</time>
      </trkpt>
      <trkpt lat="42.844585" lon="-5.667247">
        <ele>962.216</ele>
        <time>1999-07-20T11:42:50Z</time>
      </trkpt>
      <trkpt lat="42.844626" lon="-5.667284">
        <ele>962.476</ele>
        <time>1999-07-20T11:42:52Z</time>
      </trkpt>
      <trkpt lat="42.844716" lon="-5.667397">
        <ele>962.813</ele>
        <time>1999-07-20T11:42:57Z</time>
      </trkpt>
      <trkpt lat="42.844754" lon="-5.667442">
        <ele>963.008</ele>
        <time>1999-07-20T11:42:59Z</time>
      </trkpt>
      <trkpt lat="42.844769" lon="-5.667459">
        <ele>963.454</ele>
        <time>1999-07-20T11:43:00Z</time>
      </trkpt>
      <trkpt lat="42.844836" lon="-5.667537">
        <ele>964.669</ele>
        <time>1999-07-20T11:43:04Z</time>
      </trkpt>
      <trkpt lat="42.844855" lon="-5.667556">
        <ele>964.829</ele>
        <time>1999-07-20T11:43:05Z</time>
      </trkpt>
      <trkpt lat="42.844896" lon="-5.667629">
        <ele>965.827</ele>
        <time>1999-07-20T11:43:08Z</time>
      </trkpt>
      <trkpt lat="42.844918" lon="-5.667679">
        <ele>966.225</ele>
        <time>1999-07-20T11:43:10Z</time>
      </trkpt>
      <trkpt lat="42.844993" lon="-5.667756">
        <ele>966.821</ele>
        <time>1999-07-20T11:43:14Z</time>
      </trkpt>
      <trkpt lat="42.845030" lon="-5.667804">
        <ele>967.838</ele>
        <time>1999-07-20T11:43:16Z</time>
      </trkpt>
      <trkpt lat="42.845046" lon="-5.667829">
        <ele>968.233</ele>
        <time>1999-07-20T11:43:17Z</time>
      </trkpt>
      <trkpt lat="42.845123" lon="-5.667894">
        <ele>969.488</ele>
        <time>1999-07-20T11:43:21Z</time>
      </trkpt>
      <trkpt lat="42.845192" lon="-5.667878">
        <ele>970.224</ele>
        <time>1999-07-20T11:43:24Z</time>
      </trkpt>
      <trkpt lat="42.845211" lon="-5.667857">
        <ele>970.626</ele>
        <time>1999-07-20T11:43:25Z</time>
      </trkpt>
      <trkpt lat="42.845233" lon="-5.667830">
        <ele>970.808</ele>
        <time>1999-07-20T11:43:26Z</time>
      </trkpt>
      <trkpt lat="42.845357" lon="-5.667751">
        <ele>971.671</ele>
        <time>1999-07-20T11:43:29Z</time>
      </trkpt>
      <trkpt lat="42.845561" lon="-5.667787">
        <ele>971.866</ele>
        <time>1999-07-20T11:43:32Z</time>
      </trkpt>
      <trkpt lat="42.845679" lon="-5.667868">
        <ele>971.846</ele>
        <time>1999-07-20T11:43:34Z</time>
      </trkpt>
      <trkpt lat="42.845810" lon="-5.667904">
        <ele>971.834</ele>
        <time>1999-07-20T11:43:36Z</time>
      </trkpt>
      <trkpt lat="42.846072" lon="-5.668007">
        <ele>970.672</ele>
        <time>1999-07-20T11:43:40Z</time>
      </trkpt>
      <trkpt lat="42.846140" lon="-5.668041">
        <ele>970.438</ele>
        <time>1999-07-20T11:43:41Z</time>
      </trkpt>
      <trkpt lat="42.846351" lon="-5.668150">
        <ele>970.045</ele>
        <time>1999-07-20T11:43:44Z</time>
      </trkpt>
      <trkpt lat="42.846426" lon="-5.668187">
        <ele>970.070</ele>
        <time>1999-07-20T11:43:45Z</time>
      </trkpt>
      <trkpt lat="42.846500" lon="-5.668214">
        <ele>970.062</ele>
        <time>1999-07-20T11:43:46Z</time>
      </trkpt>
      <trkpt lat="42.846653" lon="-5.668257">
        <ele>969.683</ele>
        <time>1999-07-20T11:43:48Z</time>
      </trkpt>
      <trkpt lat="42.846803" lon="-5.668297">
        <ele>969.611</ele>
        <time>1999-07-20T11:43:50Z</time>
      </trkpt>
      <trkpt lat="42.846948" lon="-5.668328">
        <ele>969.008</ele>
        <time>1999-07-20T11:43:52Z</time>
      </trkpt>
      <trkpt lat="42.847088" lon="-5.668352">
        <ele>969.049</ele>
        <time>1999-07-20T11:43:54Z</time>
      </trkpt>
      <trkpt lat="42.847552" lon="-5.668434">
        <ele>968.824</ele>
        <time>1999-07-20T11:44:01Z</time>
      </trkpt>
      <trkpt lat="42.848000" lon="-5.668504">
        <ele>969.434</ele>
        <time>1999-07-20T11:44:08Z</time>
      </trkpt>
      <trkpt lat="42.848282" lon="-5.668545">
        <ele>969.882</ele>
        <time>1999-07-20T11:44:13Z</time>
      </trkpt>
      <trkpt lat="42.848330" lon="-5.668560">
        <ele>969.890</ele>
        <time>1999-07-20T11:44:14Z</time>
      </trkpt>
      <trkpt lat="42.848510" lon="-5.668632">
        <ele>970.616</ele>
        <time>1999-07-20T11:44:19Z</time>
      </trkpt>
      <trkpt lat="42.848542" lon="-5.668646">
        <ele>970.813</ele>
        <time>1999-07-20T11:44:20Z</time>
      </trkpt>
      <trkpt lat="42.848602" lon="-5.668644">
        <ele>971.638</ele>
        <time>1999-07-20T11:44:22Z</time>
      </trkpt>
      <trkpt lat="42.848634" lon="-5.668638">
        <ele>972.034</ele>
        <time>1999-07-20T11:44:23Z</time>
      </trkpt>
      <trkpt lat="42.848668" lon="-5.668631">
        <ele>972.455</ele>
        <time>1999-07-20T11:44:24Z</time>
      </trkpt>
      <trkpt lat="42.848736" lon="-5.668614">
        <ele>973.210</ele>
        <time>1999-07-20T11:44:26Z</time>
      </trkpt>
      <trkpt lat="42.848805" lon="-5.668595">
        <ele>974.208</ele>
        <time>1999-07-20T11:44:28Z</time>
      </trkpt>
      <trkpt lat="42.848839" lon="-5.668591">
        <ele>974.656</ele>
        <time>1999-07-20T11:44:29Z</time>
      </trkpt>
      <trkpt lat="42.848907" lon="-5.668598">
        <ele>975.641</ele>
        <time>1999-07-20T11:44:31Z</time>
      </trkpt>
      <trkpt lat="42.848941" lon="-5.668609">
        <ele>976.061</ele>
        <time>1999-07-20T11:44:32Z</time>
      </trkpt>
      <trkpt lat="42.849014" lon="-5.668633">
        <ele>976.819</ele>
        <time>1999-07-20T11:44:34Z</time>
      </trkpt>
      <trkpt lat="42.849119" lon="-5.668690">
        <ele>978.027</ele>
        <time>1999-07-20T11:44:37Z</time>
      </trkpt>
      <trkpt lat="42.849182" lon="-5.668729">
        <ele>979.283</ele>
        <time>1999-07-20T11:44:39Z</time>
      </trkpt>
      <trkpt lat="42.849326" lon="-5.668855">
        <ele>980.470</ele>
        <time>1999-07-20T11:44:43Z</time>
      </trkpt>
      <trkpt lat="42.849374" lon="-5.668900">
        <ele>980.425</ele>
        <time>1999-07-20T11:44:44Z</time>
      </trkpt>
      <trkpt lat="42.849493" lon="-5.669002">
        <ele>980.679</ele>
        <time>1999-07-20T11:44:46Z</time>
      </trkpt>
      <trkpt lat="42.849638" lon="-5.669074">
        <ele>980.605</ele>
        <time>1999-07-20T11:44:48Z</time>
      </trkpt>
      <trkpt lat="42.849786" lon="-5.669128">
        <ele>980.625</ele>
        <time>1999-07-20T11:44:50Z</time>
      </trkpt>
      <trkpt lat="42.849993" lon="-5.669229">
        <ele>980.408</ele>
        <time>1999-07-20T11:44:53Z</time>
      </trkpt>
      <trkpt lat="42.850125" lon="-5.669402">
        <ele>980.010</ele>
        <time>1999-07-20T11:44:56Z</time>
      </trkpt>
      <trkpt lat="42.850183" lon="-5.669527">
        <ele>979.865</ele>
        <time>1999-07-20T11:44:58Z</time>
      </trkpt>
      <trkpt lat="42.850250" lon="-5.669657">
        <ele>979.825</ele>
        <time>1999-07-20T11:45:00Z</time>
      </trkpt>
      <trkpt lat="42.850292" lon="-5.669730">
        <ele>979.813</ele>
        <time>1999-07-20T11:45:01Z</time>
      </trkpt>
      <trkpt lat="42.850345" lon="-5.669799">
        <ele>979.811</ele>
        <time>1999-07-20T11:45:02Z</time>
      </trkpt>
      <trkpt lat="42.850486" lon="-5.669882">
        <ele>979.697</ele>
        <time>1999-07-20T11:45:04Z</time>
      </trkpt>
      <trkpt lat="42.850765" lon="-5.669964">
        <ele>979.624</ele>
        <time>1999-07-20T11:45:07Z</time>
      </trkpt>
      <trkpt lat="42.850863" lon="-5.669984">
        <ele>979.469</ele>
        <time>1999-07-20T11:45:08Z</time>
      </trkpt>
      <trkpt lat="42.850963" lon="-5.669994">
        <ele>979.487</ele>
        <time>1999-07-20T11:45:09Z</time>
      </trkpt>
      <trkpt lat="42.851067" lon="-5.669999">
        <ele>979.242</ele>
        <time>1999-07-20T11:45:10Z</time>
      </trkpt>
      <trkpt lat="42.851278" lon="-5.670028">
        <ele>978.026</ele>
        <time>1999-07-20T11:45:12Z</time>
      </trkpt>
      <trkpt lat="42.851494" lon="-5.670087">
        <ele>977.008</ele>
        <time>1999-07-20T11:45:14Z</time>
      </trkpt>
      <trkpt lat="42.851699" lon="-5.670187">
        <ele>976.451</ele>
        <time>1999-07-20T11:45:16Z</time>
      </trkpt>
      <trkpt lat="42.851792" lon="-5.670258">
        <ele>976.056</ele>
        <time>1999-07-20T11:45:17Z</time>
      </trkpt>
      <trkpt lat="42.851873" lon="-5.670343">
        <ele>975.626</ele>
        <time>1999-07-20T11:45:18Z</time>
      </trkpt>
      <trkpt lat="42.851946" lon="-5.670437">
        <ele>974.824</ele>
        <time>1999-07-20T11:45:19Z</time>
      </trkpt>
      <trkpt lat="42.852014" lon="-5.670531">
        <ele>974.012</ele>
        <time>1999-07-20T11:45:20Z</time>
      </trkpt>
      <trkpt lat="42.852132" lon="-5.670727">
        <ele>972.648</ele>
        <time>1999-07-20T11:45:22Z</time>
      </trkpt>
      <trkpt lat="42.852239" lon="-5.670913">
        <ele>971.485</ele>
        <time>1999-07-20T11:45:24Z</time>
      </trkpt>
      <trkpt lat="42.852499" lon="-5.671279">
        <ele>970.820</ele>
        <time>1999-07-20T11:45:29Z</time>
      </trkpt>
      <trkpt lat="42.852545" lon="-5.671346">
        <ele>970.645</ele>
        <time>1999-07-20T11:45:30Z</time>
      </trkpt>
      <trkpt lat="42.852653" lon="-5.671581">
        <ele>970.647</ele>
        <time>1999-07-20T11:45:33Z</time>
      </trkpt>
      <trkpt lat="42.852739" lon="-5.671831">
        <ele>970.811</ele>
        <time>1999-07-20T11:45:36Z</time>
      </trkpt>
      <trkpt lat="42.852818" lon="-5.672066">
        <ele>970.808</ele>
        <time>1999-07-20T11:45:39Z</time>
      </trkpt>
      <trkpt lat="42.852853" lon="-5.672214">
        <ele>970.847</ele>
        <time>1999-07-20T11:45:41Z</time>
      </trkpt>
      <trkpt lat="42.852838" lon="-5.672363">
        <ele>970.812</ele>
        <time>1999-07-20T11:45:43Z</time>
      </trkpt>
      <trkpt lat="42.852720" lon="-5.672619">
        <ele>971.082</ele>
        <time>1999-07-20T11:45:47Z</time>
      </trkpt>
      <trkpt lat="42.852598" lon="-5.672866">
        <ele>971.070</ele>
        <time>1999-07-20T11:45:51Z</time>
      </trkpt>
      <trkpt lat="42.852573" lon="-5.672932">
        <ele>971.218</ele>
        <time>1999-07-20T11:45:52Z</time>
      </trkpt>
      <trkpt lat="42.852528" lon="-5.673056">
        <ele>971.614</ele>
        <time>1999-07-20T11:45:54Z</time>
      </trkpt>
      <trkpt lat="42.852539" lon="-5.673130">
        <ele>971.831</ele>
        <time>1999-07-20T11:45:56Z</time>
      </trkpt>
      <trkpt lat="42.852667" lon="-5.673169">
        <ele>971.896</ele>
        <time>1999-07-20T11:45:59Z</time>
      </trkpt>
      <trkpt lat="42.852720" lon="-5.673176">
        <ele>971.847</ele>
        <time>1999-07-20T11:46:00Z</time>
      </trkpt>
      <trkpt lat="42.852836" lon="-5.673192">
        <ele>971.829</ele>
        <time>1999-07-20T11:46:02Z</time>
      </trkpt>
      <trkpt lat="42.852968" lon="-5.673206">
        <ele>971.821</ele>
        <time>1999-07-20T11:46:04Z</time>
      </trkpt>
      <trkpt lat="42.853033" lon="-5.673225">
        <ele>971.808</ele>
        <time>1999-07-20T11:46:05Z</time>
      </trkpt>
      <trkpt lat="42.853140" lon="-5.673331">
        <ele>971.867</ele>
        <time>1999-07-20T11:46:07Z</time>
      </trkpt>
      <trkpt lat="42.853240" lon="-5.673583">
        <ele>971.632</ele>
        <time>1999-07-20T11:46:10Z</time>
      </trkpt>
      <trkpt lat="42.853273" lon="-5.673668">
        <ele>971.422</ele>
        <time>1999-07-20T11:46:11Z</time>
      </trkpt>
      <trkpt lat="42.853463" lon="-5.674147">
        <ele>970.850</ele>
        <time>1999-07-20T11:46:17Z</time>
      </trkpt>
      <trkpt lat="42.853587" lon="-5.674445">
        <ele>970.658</ele>
        <time>1999-07-20T11:46:22Z</time>
      </trkpt>
      <trkpt lat="42.853599" lon="-5.674478">
        <ele>970.624</ele>
        <time>1999-07-20T11:46:25Z</time>
      </trkpt>
      <trkpt lat="42.853614" lon="-5.674523">
        <ele>970.221</ele>
        <time>1999-07-20T11:47:18Z</time>
      </trkpt>
      <trkpt lat="42.853621" lon="-5.674555">
        <ele>970.256</ele>
        <time>1999-07-20T11:47:19Z</time>
      </trkpt>
      <trkpt lat="42.853631" lon="-5.674596">
        <ele>970.246</ele>
        <time>1999-07-20T11:47:20Z</time>
      </trkpt>
      <trkpt lat="42.853670" lon="-5.674763">
        <ele>970.288</ele>
        <time>1999-07-20T11:47:23Z</time>
      </trkpt>
      <trkpt lat="42.853692" lon="-5.674899">
        <ele>970.216</ele>
        <time>1999-07-20T11:47:25Z</time>
      </trkpt>
      <trkpt lat="42.853703" lon="-5.674974">
        <ele>970.208</ele>
        <time>1999-07-20T11:47:26Z</time>
      </trkpt>
      <trkpt lat="42.853729" lon="-5.675192">
        <ele>970.217</ele>
        <time>1999-07-20T11:47:29Z</time>
      </trkpt>
      <trkpt lat="42.853741" lon="-5.675339">
        <ele>970.412</ele>
        <time>1999-07-20T11:47:31Z</time>
      </trkpt>
      <trkpt lat="42.853750" lon="-5.675409">
        <ele>970.412</ele>
        <time>1999-07-20T11:47:32Z</time>
      </trkpt>
      <trkpt lat="42.853775" lon="-5.675546">
        <ele>970.620</ele>
        <time>1999-07-20T11:47:34Z</time>
      </trkpt>
      <trkpt lat="42.853816" lon="-5.675680">
        <ele>971.018</ele>
        <time>1999-07-20T11:47:36Z</time>
      </trkpt>
      <trkpt lat="42.853835" lon="-5.675747">
        <ele>971.454</ele>
        <time>1999-07-20T11:47:37Z</time>
      </trkpt>
      <trkpt lat="42.853856" lon="-5.675810">
        <ele>971.891</ele>
        <time>1999-07-20T11:47:38Z</time>
      </trkpt>
      <trkpt lat="42.853924" lon="-5.675913">
        <ele>972.686</ele>
        <time>1999-07-20T11:47:40Z</time>
      </trkpt>
      <trkpt lat="42.853966" lon="-5.675952">
        <ele>973.038</ele>
        <time>1999-07-20T11:47:41Z</time>
      </trkpt>
      <trkpt lat="42.854063" lon="-5.675991">
        <ele>973.870</ele>
        <time>1999-07-20T11:47:43Z</time>
      </trkpt>
      <trkpt lat="42.854119" lon="-5.675988">
        <ele>974.217</ele>
        <time>1999-07-20T11:47:44Z</time>
      </trkpt>
      <trkpt lat="42.854226" lon="-5.675959">
        <ele>975.008</ele>
        <time>1999-07-20T11:47:46Z</time>
      </trkpt>
      <trkpt lat="42.854317" lon="-5.675892">
        <ele>975.886</ele>
        <time>1999-07-20T11:47:48Z</time>
      </trkpt>
      <trkpt lat="42.854357" lon="-5.675844">
        <ele>976.281</ele>
        <time>1999-07-20T11:47:49Z</time>
      </trkpt>
      <trkpt lat="42.854394" lon="-5.675794">
        <ele>976.661</ele>
        <time>1999-07-20T11:47:50Z</time>
      </trkpt>
      <trkpt lat="42.854428" lon="-5.675740">
        <ele>977.049</ele>
        <time>1999-07-20T11:47:51Z</time>
      </trkpt>
      <trkpt lat="42.854453" lon="-5.675673">
        <ele>977.477</ele>
        <time>1999-07-20T11:47:52Z</time>
      </trkpt>
      <trkpt lat="42.854473" lon="-5.675591">
        <ele>978.083</ele>
        <time>1999-07-20T11:47:53Z</time>
      </trkpt>
      <trkpt lat="42.854419" lon="-5.675303">
        <ele>978.210</ele>
        <time>1999-07-20T11:47:56Z</time>
      </trkpt>
      <trkpt lat="42.854224" lon="-5.674915">
        <ele>978.265</ele>
        <time>1999-07-20T11:48:00Z</time>
      </trkpt>
      <trkpt lat="42.854163" lon="-5.674757">
        <ele>978.069</ele>
        <time>1999-07-20T11:48:03Z</time>
      </trkpt>
      <trkpt lat="42.854154" lon="-5.674732">
        <ele>977.404</ele>
        <time>1999-07-20T11:48:04Z</time>
      </trkpt>
      <trkpt lat="42.854137" lon="-5.674680">
        <ele>976.224</ele>
        <time>1999-07-20T11:48:06Z</time>
      </trkpt>
      <trkpt lat="42.854120" lon="-5.674607">
        <ele>974.408</ele>
        <time>1999-07-20T11:48:08Z</time>
      </trkpt>
      <trkpt lat="42.854111" lon="-5.674567">
        <ele>973.459</ele>
        <time>1999-07-20T11:48:09Z</time>
      </trkpt>
      <trkpt lat="42.854096" lon="-5.674485">
        <ele>971.844</ele>
        <time>1999-07-20T11:48:11Z</time>
      </trkpt>
      <trkpt lat="42.854077" lon="-5.674411">
        <ele>971.094</ele>
        <time>1999-07-20T11:48:13Z</time>
      </trkpt>
      <trkpt lat="42.854047" lon="-5.674363">
        <ele>970.812</ele>
        <time>1999-07-20T11:48:15Z</time>
      </trkpt>
      <trkpt lat="42.854029" lon="-5.674353">
        <ele>970.660</ele>
        <time>1999-07-20T11:48:16Z</time>
      </trkpt>
      <trkpt lat="42.854036" lon="-5.674391">
        <ele>970.686</ele>
        <time>1999-07-20T11:48:19Z</time>
      </trkpt>
      <trkpt lat="42.854109" lon="-5.674524">
        <ele>970.423</ele>
        <time>1999-07-20T11:48:23Z</time>
      </trkpt>
      <trkpt lat="42.854131" lon="-5.674568">
        <ele>970.448</ele>
        <time>1999-07-20T11:48:25Z</time>
      </trkpt>
      <trkpt lat="42.854148" lon="-5.674621">
        <ele>970.414</ele>
        <time>1999-07-20T11:48:27Z</time>
      </trkpt>
      <trkpt lat="42.854148" lon="-5.674685">
        <ele>970.454</ele>
        <time>1999-07-20T11:48:29Z</time>
      </trkpt>
      <trkpt lat="42.854116" lon="-5.674725">
        <ele>970.409</ele>
        <time>1999-07-20T11:48:31Z</time>
      </trkpt>
      <trkpt lat="42.854017" lon="-5.674751">
        <ele>970.608</ele>
        <time>1999-07-20T11:48:35Z</time>
      </trkpt>
      <trkpt lat="42.853999" lon="-5.674737">
        <ele>970.664</ele>
        <time>1999-07-20T11:48:36Z</time>
      </trkpt>
      <trkpt lat="42.853942" lon="-5.674631">
        <ele>971.049</ele>
        <time>1999-07-20T11:48:40Z</time>
      </trkpt>
      <trkpt lat="42.853931" lon="-5.674606">
        <ele>971.039</ele>
        <time>1999-07-20T11:48:41Z</time>
      </trkpt>
      <trkpt lat="42.853898" lon="-5.674518">
        <ele>971.247</ele>
        <time>1999-07-20T11:48:47Z</time>
      </trkpt>
      <trkpt lat="42.853899" lon="-5.674513">
        <ele>971.235</ele>
        <time>1999-07-20T11:48:49Z</time>
      </trkpt>
      <trkpt lat="42.853927" lon="-5.674483">
        <ele>971.471</ele>
        <time>1999-07-20T11:49:32Z</time>
      </trkpt>
      <trkpt lat="42.853951" lon="-5.674465">
        <ele>971.678</ele>
        <time>1999-07-20T11:49:33Z</time>
      </trkpt>
      <trkpt lat="42.853977" lon="-5.674449">
        <ele>971.693</ele>
        <time>1999-07-20T11:49:34Z</time>
      </trkpt>
      <trkpt lat="42.853998" lon="-5.674426">
        <ele>971.687</ele>
        <time>1999-07-20T11:49:35Z</time>
      </trkpt>
      <trkpt lat="42.854013" lon="-5.674397">
        <ele>971.642</ele>
        <time>1999-07-20T11:49:36Z</time>
      </trkpt>
      <trkpt lat="42.854009" lon="-5.674366">
        <ele>971.426</ele>
        <time>1999-07-20T11:49:37Z</time>
      </trkpt>
      <trkpt lat="42.853998" lon="-5.674318">
        <ele>971.408</ele>
        <time>1999-07-20T11:49:38Z</time>
      </trkpt>
      <trkpt lat="42.853962" lon="-5.674169">
        <ele>971.451</ele>
        <time>1999-07-20T11:49:40Z</time>
      </trkpt>
      <trkpt lat="42.853848" lon="-5.673702">
        <ele>971.246</ele>
        <time>1999-07-20T11:49:46Z</time>
      </trkpt>
      <trkpt lat="42.853820" lon="-5.673546">
        <ele>971.286</ele>
        <time>1999-07-20T11:49:48Z</time>
      </trkpt>
      <trkpt lat="42.853789" lon="-5.673322">
        <ele>971.214</ele>
        <time>1999-07-20T11:49:51Z</time>
      </trkpt>
      <trkpt lat="42.853780" lon="-5.673249">
        <ele>971.242</ele>
        <time>1999-07-20T11:49:52Z</time>
      </trkpt>
      <trkpt lat="42.853819" lon="-5.673031">
        <ele>971.288</ele>
        <time>1999-07-20T11:49:55Z</time>
      </trkpt>
      <trkpt lat="42.853911" lon="-5.672830">
        <ele>971.035</ele>
        <time>1999-07-20T11:49:58Z</time>
      </trkpt>
      <trkpt lat="42.853952" lon="-5.672772">
        <ele>971.060</ele>
        <time>1999-07-20T11:49:59Z</time>
      </trkpt>
      <trkpt lat="42.854120" lon="-5.672561">
        <ele>970.896</ele>
        <time>1999-07-20T11:50:03Z</time>
      </trkpt>
      <trkpt lat="42.854260" lon="-5.672417">
        <ele>970.831</ele>
        <time>1999-07-20T11:50:06Z</time>
      </trkpt>
      <trkpt lat="42.854624" lon="-5.672103">
        <ele>970.624</ele>
        <time>1999-07-20T11:50:14Z</time>
      </trkpt>
      <trkpt lat="42.854759" lon="-5.672123">
        <ele>970.608</ele>
        <time>1999-07-20T11:50:17Z</time>
      </trkpt>
      <trkpt lat="42.854845" lon="-5.672296">
        <ele>970.692</ele>
        <time>1999-07-20T11:50:20Z</time>
      </trkpt>
      <trkpt lat="42.854921" lon="-5.672533">
        <ele>970.257</ele>
        <time>1999-07-20T11:50:23Z</time>
      </trkpt>
      <trkpt lat="42.854965" lon="-5.672704">
        <ele>970.297</ele>
        <time>1999-07-20T11:50:25Z</time>
      </trkpt>
      <trkpt lat="42.855037" lon="-5.672955">
        <ele>970.065</ele>
        <time>1999-07-20T11:50:28Z</time>
      </trkpt>
      <trkpt lat="42.855109" lon="-5.673201">
        <ele>970.073</ele>
        <time>1999-07-20T11:50:31Z</time>
      </trkpt>
      <trkpt lat="42.855190" lon="-5.673496">
        <ele>970.089</ele>
        <time>1999-07-20T11:50:35Z</time>
      </trkpt>
      <trkpt lat="42.855216" lon="-5.673548">
        <ele>970.066</ele>
        <time>1999-07-20T11:50:36Z</time>
      </trkpt>
      <trkpt lat="42.855331" lon="-5.673604">
        <ele>970.061</ele>
        <time>1999-07-20T11:50:39Z</time>
      </trkpt>
      <trkpt lat="42.855377" lon="-5.673603">
        <ele>970.094</ele>
        <time>1999-07-20T11:50:40Z</time>
      </trkpt>
      <trkpt lat="42.855419" lon="-5.673593">
        <ele>970.057</ele>
        <time>1999-07-20T11:50:41Z</time>
      </trkpt>
      <trkpt lat="42.855504" lon="-5.673551">
        <ele>970.222</ele>
        <time>1999-07-20T11:50:43Z</time>
      </trkpt>
      <trkpt lat="42.855580" lon="-5.673509">
        <ele>970.208</ele>
        <time>1999-07-20T11:50:45Z</time>
      </trkpt>
      <trkpt lat="42.855665" lon="-5.673477">
        <ele>970.242</ele>
        <time>1999-07-20T11:50:47Z</time>
      </trkpt>
      <trkpt lat="42.855748" lon="-5.673569">
        <ele>970.297</ele>
        <time>1999-07-20T11:50:50Z</time>
      </trkpt>
      <trkpt lat="42.855834" lon="-5.673704">
        <ele>970.437</ele>
        <time>1999-07-20T11:50:53Z</time>
      </trkpt>
      <trkpt lat="42.855900" lon="-5.673802">
        <ele>970.635</ele>
        <time>1999-07-20T11:50:55Z</time>
      </trkpt>
      <trkpt lat="42.855928" lon="-5.673853">
        <ele>970.863</ele>
        <time>1999-07-20T11:50:56Z</time>
      </trkpt>
      <trkpt lat="42.855960" lon="-5.673907">
        <ele>971.059</ele>
        <time>1999-07-20T11:50:57Z</time>
      </trkpt>
      <trkpt lat="42.855994" lon="-5.673958">
        <ele>971.216</ele>
        <time>1999-07-20T11:50:58Z</time>
      </trkpt>
      <trkpt lat="42.856068" lon="-5.674047">
        <ele>971.461</ele>
        <time>1999-07-20T11:51:00Z</time>
      </trkpt>
      <trkpt lat="42.856315" lon="-5.674355">
        <ele>972.069</ele>
        <time>1999-07-20T11:51:07Z</time>
      </trkpt>
      <trkpt lat="42.856351" lon="-5.674407">
        <ele>972.004</ele>
        <time>1999-07-20T11:51:08Z</time>
      </trkpt>
      <trkpt lat="42.856386" lon="-5.674460">
        <ele>972.024</ele>
        <time>1999-07-20T11:51:09Z</time>
      </trkpt>
      <trkpt lat="42.856594" lon="-5.674772">
        <ele>972.608</ele>
        <time>1999-07-20T11:51:15Z</time>
      </trkpt>
      <trkpt lat="42.856656" lon="-5.674877">
        <ele>972.889</ele>
        <time>1999-07-20T11:51:17Z</time>
      </trkpt>
      <trkpt lat="42.856720" lon="-5.674979">
        <ele>973.254</ele>
        <time>1999-07-20T11:51:19Z</time>
      </trkpt>
      <trkpt lat="42.856814" lon="-5.675125">
        <ele>973.434</ele>
        <time>1999-07-20T11:51:22Z</time>
      </trkpt>
      <trkpt lat="42.856883" lon="-5.675222">
        <ele>973.682</ele>
        <time>1999-07-20T11:51:24Z</time>
      </trkpt>
      <trkpt lat="42.856918" lon="-5.675267">
        <ele>973.860</ele>
        <time>1999-07-20T11:51:25Z</time>
      </trkpt>
      <trkpt lat="42.856954" lon="-5.675310">
        <ele>974.246</ele>
        <time>1999-07-20T11:51:26Z</time>
      </trkpt>
      <trkpt lat="42.857055" lon="-5.675444">
        <ele>974.683</ele>
        <time>1999-07-20T11:51:29Z</time>
      </trkpt>
      <trkpt lat="42.857179" lon="-5.675618">
        <ele>975.088</ele>
        <time>1999-07-20T11:51:33Z</time>
      </trkpt>
      <trkpt lat="42.857226" lon="-5.675696">
        <ele>975.258</ele>
        <time>1999-07-20T11:51:35Z</time>
      </trkpt>
      <trkpt lat="42.857288" lon="-5.675802">
        <ele>975.852</ele>
        <time>1999-07-20T11:51:38Z</time>
      </trkpt>
      <trkpt lat="42.857386" lon="-5.675870">
        <ele>976.617</ele>
        <time>1999-07-20T11:51:41Z</time>
      </trkpt>
      <trkpt lat="42.857493" lon="-5.675934">
        <ele>977.608</ele>
        <time>1999-07-20T11:51:44Z</time>
      </trkpt>
      <trkpt lat="42.857681" lon="-5.675965">
        <ele>978.688</ele>
        <time>1999-07-20T11:51:49Z</time>
      </trkpt>
      <trkpt lat="42.857719" lon="-5.675960">
        <ele>978.833</ele>
        <time>1999-07-20T11:51:50Z</time>
      </trkpt>
      <trkpt lat="42.857943" lon="-5.675927">
        <ele>979.813</ele>
        <time>1999-07-20T11:51:56Z</time>
      </trkpt>
      <trkpt lat="42.858017" lon="-5.675909">
        <ele>980.281</ele>
        <time>1999-07-20T11:51:58Z</time>
      </trkpt>
      <trkpt lat="42.858091" lon="-5.675885">
        <ele>980.869</ele>
        <time>1999-07-20T11:52:00Z</time>
      </trkpt>
      <trkpt lat="42.858316" lon="-5.675806">
        <ele>982.035</ele>
        <time>1999-07-20T11:52:06Z</time>
      </trkpt>
      <trkpt lat="42.858496" lon="-5.675727">
        <ele>983.012</ele>
        <time>1999-07-20T11:52:11Z</time>
      </trkpt>
      <trkpt lat="42.858531" lon="-5.675713">
        <ele>983.417</ele>
        <time>1999-07-20T11:52:12Z</time>
      </trkpt>
      <trkpt lat="42.858706" lon="-5.675614">
        <ele>984.044</ele>
        <time>1999-07-20T11:52:17Z</time>
      </trkpt>
      <trkpt lat="42.858810" lon="-5.675536">
        <ele>984.605</ele>
        <time>1999-07-20T11:52:20Z</time>
      </trkpt>
      <trkpt lat="42.858947" lon="-5.675375">
        <ele>985.215</ele>
        <time>1999-07-20T11:52:24Z</time>
      </trkpt>
      <trkpt lat="42.858978" lon="-5.675312">
        <ele>985.208</ele>
        <time>1999-07-20T11:52:25Z</time>
      </trkpt>
      <trkpt lat="42.859034" lon="-5.675157">
        <ele>985.477</ele>
        <time>1999-07-20T11:52:27Z</time>
      </trkpt>
      <trkpt lat="42.859059" lon="-5.675074">
        <ele>985.472</ele>
        <time>1999-07-20T11:52:28Z</time>
      </trkpt>
      <trkpt lat="42.859081" lon="-5.674990">
        <ele>985.452</ele>
        <time>1999-07-20T11:52:29Z</time>
      </trkpt>
      <trkpt lat="42.859108" lon="-5.674905">
        <ele>985.460</ele>
        <time>1999-07-20T11:52:30Z</time>
      </trkpt>
      <trkpt lat="42.859217" lon="-5.674756">
        <ele>985.418</ele>
        <time>1999-07-20T11:52:32Z</time>
      </trkpt>
      <trkpt lat="42.859366" lon="-5.674674">
        <ele>985.224</ele>
        <time>1999-07-20T11:52:34Z</time>
      </trkpt>
      <trkpt lat="42.859445" lon="-5.674658">
        <ele>984.651</ele>
        <time>1999-07-20T11:52:35Z</time>
      </trkpt>
      <trkpt lat="42.859526" lon="-5.674648">
        <ele>984.266</ele>
        <time>1999-07-20T11:52:36Z</time>
      </trkpt>
      <trkpt lat="42.859682" lon="-5.674635">
        <ele>983.457</ele>
        <time>1999-07-20T11:52:38Z</time>
      </trkpt>
      <trkpt lat="42.859755" lon="-5.674625">
        <ele>983.000</ele>
        <time>1999-07-20T11:52:39Z</time>
      </trkpt>
      <trkpt lat="42.859895" lon="-5.674623">
        <ele>982.020</ele>
        <time>1999-07-20T11:52:41Z</time>
      </trkpt>
      <trkpt lat="42.860046" lon="-5.674578">
        <ele>980.808</ele>
        <time>1999-07-20T11:52:44Z</time>
      </trkpt>
      <trkpt lat="42.860129" lon="-5.674586">
        <ele>980.068</ele>
        <time>1999-07-20T11:52:47Z</time>
      </trkpt>
      <trkpt lat="42.860144" lon="-5.674625">
        <ele>979.493</ele>
        <time>1999-07-20T11:52:49Z</time>
      </trkpt>
      <trkpt lat="42.860142" lon="-5.674636">
        <ele>978.883</ele>
        <time>1999-07-20T11:52:51Z</time>
      </trkpt>
      <trkpt lat="42.860110" lon="-5.674708">
        <ele>977.041</ele>
        <time>1999-07-20T11:53:01Z</time>
      </trkpt>
      <trkpt lat="42.860081" lon="-5.674742">
        <ele>977.049</ele>
        <time>1999-07-20T11:53:02Z</time>
      </trkpt>
      <trkpt lat="42.860048" lon="-5.674779">
        <ele>977.055</ele>
        <time>1999-07-20T11:53:03Z</time>
      </trkpt>
      <trkpt lat="42.860016" lon="-5.674820">
        <ele>977.082</ele>
        <time>1999-07-20T11:53:04Z</time>
      </trkpt>
      <trkpt lat="42.859963" lon="-5.674938">
        <ele>977.027</ele>
        <time>1999-07-20T11:53:07Z</time>
      </trkpt>
      <trkpt lat="42.859966" lon="-5.675011">
        <ele>976.856</ele>
        <time>1999-07-20T11:53:09Z</time>
      </trkpt>
      <trkpt lat="42.859971" lon="-5.675035">
        <ele>976.459</ele>
        <time>1999-07-20T11:53:10Z</time>
      </trkpt>
      <trkpt lat="42.859986" lon="-5.675058">
        <ele>976.214</ele>
        <time>1999-07-20T11:53:11Z</time>
      </trkpt>
      <trkpt lat="42.860012" lon="-5.675081">
        <ele>975.808</ele>
        <time>1999-07-20T11:53:12Z</time>
      </trkpt>
      <trkpt lat="42.860056" lon="-5.675100">
        <ele>975.498</ele>
        <time>1999-07-20T11:53:14Z</time>
      </trkpt>
      <trkpt lat="42.860076" lon="-5.675100">
        <ele>975.253</ele>
        <time>1999-07-20T11:53:15Z</time>
      </trkpt>
      <trkpt lat="42.860101" lon="-5.675094">
        <ele>974.633</ele>
        <time>1999-07-20T11:53:16Z</time>
      </trkpt>
      <trkpt lat="42.860124" lon="-5.675082">
        <ele>974.441</ele>
        <time>1999-07-20T11:53:17Z</time>
      </trkpt>
      <trkpt lat="42.860147" lon="-5.675061">
        <ele>974.249</ele>
        <time>1999-07-20T11:53:18Z</time>
      </trkpt>
      <trkpt lat="42.860174" lon="-5.675028">
        <ele>974.295</ele>
        <time>1999-07-20T11:53:19Z</time>
      </trkpt>
      <trkpt lat="42.860204" lon="-5.675002">
        <ele>974.242</ele>
        <time>1999-07-20T11:53:20Z</time>
      </trkpt>
      <trkpt lat="42.860270" lon="-5.674935">
        <ele>974.057</ele>
        <time>1999-07-20T11:53:22Z</time>
      </trkpt>
      <trkpt lat="42.860307" lon="-5.674908">
        <ele>974.056</ele>
        <time>1999-07-20T11:53:23Z</time>
      </trkpt>
      <trkpt lat="42.860396" lon="-5.674942">
        <ele>974.459</ele>
        <time>1999-07-20T11:53:26Z</time>
      </trkpt>
      <trkpt lat="42.860445" lon="-5.675013">
        <ele>974.614</ele>
        <time>1999-07-20T11:53:28Z</time>
      </trkpt>
      <trkpt lat="42.860561" lon="-5.675184">
        <ele>975.208</ele>
        <time>1999-07-20T11:53:32Z</time>
      </trkpt>
      <trkpt lat="42.860636" lon="-5.675297">
        <ele>975.648</ele>
        <time>1999-07-20T11:53:36Z</time>
      </trkpt>
      <trkpt lat="42.860664" lon="-5.675311">
        <ele>975.683</ele>
        <time>1999-07-20T11:53:38Z</time>
      </trkpt>
      <trkpt lat="42.860691" lon="-5.675279">
        <ele>975.613</ele>
        <time>1999-07-20T11:53:40Z</time>
      </trkpt>
      <trkpt lat="42.860708" lon="-5.675247">
        <ele>975.671</ele>
        <time>1999-07-20T11:53:41Z</time>
      </trkpt>
      <trkpt lat="42.860843" lon="-5.675065">
        <ele>975.839</ele>
        <time>1999-07-20T11:53:46Z</time>
      </trkpt>
      <trkpt lat="42.861055" lon="-5.674823">
        <ele>976.235</ele>
        <time>1999-07-20T11:53:53Z</time>
      </trkpt>
      <trkpt lat="42.861085" lon="-5.674792">
        <ele>976.212</ele>
        <time>1999-07-20T11:53:54Z</time>
      </trkpt>
      <trkpt lat="42.861214" lon="-5.674692">
        <ele>976.627</ele>
        <time>1999-07-20T11:53:58Z</time>
      </trkpt>
      <trkpt lat="42.861252" lon="-5.674686">
        <ele>976.814</ele>
        <time>1999-07-20T11:53:59Z</time>
      </trkpt>
      <trkpt lat="42.861289" lon="-5.674686">
        <ele>977.054</ele>
        <time>1999-07-20T11:54:00Z</time>
      </trkpt>
      <trkpt lat="42.861380" lon="-5.674745">
        <ele>977.609</ele>
        <time>1999-07-20T11:54:03Z</time>
      </trkpt>
      <trkpt lat="42.861398" lon="-5.674793">
        <ele>978.008</ele>
        <time>1999-07-20T11:54:04Z</time>
      </trkpt>
      <trkpt lat="42.861448" lon="-5.674903">
        <ele>978.484</ele>
        <time>1999-07-20T11:54:06Z</time>
      </trkpt>
      <trkpt lat="42.861522" lon="-5.674991">
        <ele>978.899</ele>
        <time>1999-07-20T11:54:08Z</time>
      </trkpt>
      <trkpt lat="42.861602" lon="-5.675082">
        <ele>978.839</ele>
        <time>1999-07-20T11:54:10Z</time>
      </trkpt>
      <trkpt lat="42.861727" lon="-5.675281">
        <ele>979.087</ele>
        <time>1999-07-20T11:54:13Z</time>
      </trkpt>
      <trkpt lat="42.862066" lon="-5.675899">
        <ele>978.895</ele>
        <time>1999-07-20T11:54:22Z</time>
      </trkpt>
      <trkpt lat="42.862244" lon="-5.676177">
        <ele>979.071</ele>
        <time>1999-07-20T11:54:28Z</time>
      </trkpt>
      <trkpt lat="42.862275" lon="-5.676221">
        <ele>979.298</ele>
        <time>1999-07-20T11:54:29Z</time>
      </trkpt>
      <trkpt lat="42.862364" lon="-5.676370">
        <ele>980.023</ele>
        <time>1999-07-20T11:54:32Z</time>
      </trkpt>
      <trkpt lat="42.862455" lon="-5.676532">
        <ele>980.675</ele>
        <time>1999-07-20T11:54:35Z</time>
      </trkpt>
      <trkpt lat="42.862574" lon="-5.676760">
        <ele>981.028</ele>
        <time>1999-07-20T11:54:39Z</time>
      </trkpt>
      <trkpt lat="42.862671" lon="-5.677008">
        <ele>981.220</ele>
        <time>1999-07-20T11:54:43Z</time>
      </trkpt>
      <trkpt lat="42.862793" lon="-5.677494">
        <ele>981.608</ele>
        <time>1999-07-20T11:54:50Z</time>
      </trkpt>
      <trkpt lat="42.862832" lon="-5.677948">
        <ele>981.880</ele>
        <time>1999-07-20T11:54:56Z</time>
      </trkpt>
      <trkpt lat="42.862845" lon="-5.678257">
        <ele>982.055</ele>
        <time>1999-07-20T11:55:00Z</time>
      </trkpt>
      <trkpt lat="42.862856" lon="-5.678482">
        <ele>982.275</ele>
        <time>1999-07-20T11:55:03Z</time>
      </trkpt>
      <trkpt lat="42.862883" lon="-5.678696">
        <ele>982.263</ele>
        <time>1999-07-20T11:55:06Z</time>
      </trkpt>
      <trkpt lat="42.862944" lon="-5.678894">
        <ele>982.481</ele>
        <time>1999-07-20T11:55:09Z</time>
      </trkpt>
      <trkpt lat="42.863124" lon="-5.679240">
        <ele>982.617</ele>
        <time>1999-07-20T11:55:15Z</time>
      </trkpt>
      <trkpt lat="42.863231" lon="-5.679390">
        <ele>983.094</ele>
        <time>1999-07-20T11:55:18Z</time>
      </trkpt>
      <trkpt lat="42.863376" lon="-5.679595">
        <ele>983.649</ele>
        <time>1999-07-20T11:55:22Z</time>
      </trkpt>
      <trkpt lat="42.863709" lon="-5.680101">
        <ele>984.011</ele>
        <time>1999-07-20T11:55:31Z</time>
      </trkpt>
      <trkpt lat="42.863754" lon="-5.680152">
        <ele>984.021</ele>
        <time>1999-07-20T11:55:32Z</time>
      </trkpt>
      <trkpt lat="42.863947" lon="-5.680327">
        <ele>984.003</ele>
        <time>1999-07-20T11:55:36Z</time>
      </trkpt>
      <trkpt lat="42.863996" lon="-5.680366">
        <ele>984.208</ele>
        <time>1999-07-20T11:55:37Z</time>
      </trkpt>
      <trkpt lat="42.864100" lon="-5.680431">
        <ele>984.284</ele>
        <time>1999-07-20T11:55:39Z</time>
      </trkpt>
      <trkpt lat="42.864208" lon="-5.680494">
        <ele>984.249</ele>
        <time>1999-07-20T11:55:41Z</time>
      </trkpt>
      <trkpt lat="42.864660" lon="-5.680783">
        <ele>984.259</ele>
        <time>1999-07-20T11:55:49Z</time>
      </trkpt>
      <trkpt lat="42.864772" lon="-5.680858">
        <ele>984.237</ele>
        <time>1999-07-20T11:55:51Z</time>
      </trkpt>
      <trkpt lat="42.864938" lon="-5.680981">
        <ele>984.055</ele>
        <time>1999-07-20T11:55:54Z</time>
      </trkpt>
      <trkpt lat="42.864997" lon="-5.681015">
        <ele>984.091</ele>
        <time>1999-07-20T11:55:55Z</time>
      </trkpt>
      <trkpt lat="42.865339" lon="-5.681178">
        <ele>983.898</ele>
        <time>1999-07-20T11:56:00Z</time>
      </trkpt>
      <trkpt lat="42.865612" lon="-5.681312">
        <ele>984.043</ele>
        <time>1999-07-20T11:56:07Z</time>
      </trkpt>
      <trkpt lat="42.865857" lon="-5.681413">
        <ele>985.449</ele>
        <time>1999-07-20T11:56:12Z</time>
      </trkpt>
      <trkpt lat="42.865913" lon="-5.681431">
        <ele>985.402</ele>
        <time>1999-07-20T11:56:13Z</time>
      </trkpt>
      <trkpt lat="42.866346" lon="-5.681546">
        <ele>985.822</ele>
        <time>1999-07-20T11:56:20Z</time>
      </trkpt>
      <trkpt lat="42.866540" lon="-5.681563">
        <ele>985.808</ele>
        <time>1999-07-20T11:56:22Z</time>
      </trkpt>
      <trkpt lat="42.866795" lon="-5.681547">
        <ele>985.657</ele>
        <time>1999-07-20T11:56:27Z</time>
      </trkpt>
      <trkpt lat="42.867243" lon="-5.681475">
        <ele>985.682</ele>
        <time>1999-07-20T11:56:34Z</time>
      </trkpt>
      <trkpt lat="42.867671" lon="-5.681459">
        <ele>986.272</ele>
        <time>1999-07-20T11:56:40Z</time>
      </trkpt>
      <trkpt lat="42.867728" lon="-5.681459">
        <ele>986.290</ele>
        <time>1999-07-20T11:56:41Z</time>
      </trkpt>
      <trkpt lat="42.867791" lon="-5.681447">
        <ele>986.258</ele>
        <time>1999-07-20T11:56:42Z</time>
      </trkpt>
      <trkpt lat="42.868043" lon="-5.681429">
        <ele>986.434</ele>
        <time>1999-07-20T11:56:46Z</time>
      </trkpt>
      <trkpt lat="42.868097" lon="-5.681450">
        <ele>986.451</ele>
        <time>1999-07-20T11:56:47Z</time>
      </trkpt>
      <trkpt lat="42.868202" lon="-5.681517">
        <ele>986.416</ele>
        <time>1999-07-20T11:56:50Z</time>
      </trkpt>
      <trkpt lat="42.868245" lon="-5.681568">
        <ele>986.428</ele>
        <time>1999-07-20T11:56:51Z</time>
      </trkpt>
      <trkpt lat="42.868399" lon="-5.681685">
        <ele>986.489</ele>
        <time>1999-07-20T11:56:54Z</time>
      </trkpt>
      <trkpt lat="42.868496" lon="-5.681778">
        <ele>986.417</ele>
        <time>1999-07-20T11:56:56Z</time>
      </trkpt>
      <trkpt lat="42.868754" lon="-5.682085">
        <ele>986.808</ele>
        <time>1999-07-20T11:57:02Z</time>
      </trkpt>
      <trkpt lat="42.869036" lon="-5.682469">
        <ele>987.035</ele>
        <time>1999-07-20T11:57:09Z</time>
      </trkpt>
      <trkpt lat="42.869072" lon="-5.682521">
        <ele>987.040</ele>
        <time>1999-07-20T11:57:10Z</time>
      </trkpt>
      <trkpt lat="42.869278" lon="-5.682832">
        <ele>987.430</ele>
        <time>1999-07-20T11:57:16Z</time>
      </trkpt>
      <trkpt lat="42.869311" lon="-5.682885">
        <ele>987.688</ele>
        <time>1999-07-20T11:57:17Z</time>
      </trkpt>
      <trkpt lat="42.869372" lon="-5.683000">
        <ele>988.096</ele>
        <time>1999-07-20T11:57:19Z</time>
      </trkpt>
      <trkpt lat="42.869395" lon="-5.683064">
        <ele>988.242</ele>
        <time>1999-07-20T11:57:20Z</time>
      </trkpt>
      <trkpt lat="42.869454" lon="-5.683254">
        <ele>988.889</ele>
        <time>1999-07-20T11:57:23Z</time>
      </trkpt>
      <trkpt lat="42.869470" lon="-5.683319">
        <ele>989.094</ele>
        <time>1999-07-20T11:57:24Z</time>
      </trkpt>
      <trkpt lat="42.869520" lon="-5.683636">
        <ele>990.227</ele>
        <time>1999-07-20T11:57:29Z</time>
      </trkpt>
      <trkpt lat="42.869527" lon="-5.683700">
        <ele>990.468</ele>
        <time>1999-07-20T11:57:30Z</time>
      </trkpt>
      <trkpt lat="42.869531" lon="-5.683763">
        <ele>990.614</ele>
        <time>1999-07-20T11:57:31Z</time>
      </trkpt>
      <trkpt lat="42.869534" lon="-5.683893">
        <ele>991.208</ele>
        <time>1999-07-20T11:57:33Z</time>
      </trkpt>
      <trkpt lat="42.869526" lon="-5.684148">
        <ele>992.245</ele>
        <time>1999-07-20T11:57:37Z</time>
      </trkpt>
      <trkpt lat="42.869520" lon="-5.684210">
        <ele>992.460</ele>
        <time>1999-07-20T11:57:38Z</time>
      </trkpt>
      <trkpt lat="42.869481" lon="-5.684458">
        <ele>993.090</ele>
        <time>1999-07-20T11:57:42Z</time>
      </trkpt>
      <trkpt lat="42.869467" lon="-5.684519">
        <ele>993.418</ele>
        <time>1999-07-20T11:57:43Z</time>
      </trkpt>
      <trkpt lat="42.869455" lon="-5.684579">
        <ele>993.616</ele>
        <time>1999-07-20T11:57:44Z</time>
      </trkpt>
      <trkpt lat="42.869407" lon="-5.684825">
        <ele>994.692</ele>
        <time>1999-07-20T11:57:48Z</time>
      </trkpt>
      <trkpt lat="42.869407" lon="-5.685024">
        <ele>995.219</ele>
        <time>1999-07-20T11:57:51Z</time>
      </trkpt>
      <trkpt lat="42.869416" lon="-5.685091">
        <ele>995.414</ele>
        <time>1999-07-20T11:57:52Z</time>
      </trkpt>
      <trkpt lat="42.869428" lon="-5.685158">
        <ele>995.667</ele>
        <time>1999-07-20T11:57:53Z</time>
      </trkpt>
      <trkpt lat="42.869485" lon="-5.685356">
        <ele>996.281</ele>
        <time>1999-07-20T11:57:56Z</time>
      </trkpt>
      <trkpt lat="42.869511" lon="-5.685421">
        <ele>996.419</ele>
        <time>1999-07-20T11:57:57Z</time>
      </trkpt>
      <trkpt lat="42.869575" lon="-5.685541">
        <ele>996.808</ele>
        <time>1999-07-20T11:57:59Z</time>
      </trkpt>
      <trkpt lat="42.869701" lon="-5.685686">
        <ele>997.079</ele>
        <time>1999-07-20T11:58:02Z</time>
      </trkpt>
      <trkpt lat="42.869797" lon="-5.685762">
        <ele>997.014</ele>
        <time>1999-07-20T11:58:04Z</time>
      </trkpt>
      <trkpt lat="42.869972" lon="-5.685893">
        <ele>997.034</ele>
        <time>1999-07-20T11:58:08Z</time>
      </trkpt>
      <trkpt lat="42.870131" lon="-5.686033">
        <ele>997.042</ele>
        <time>1999-07-20T11:58:12Z</time>
      </trkpt>
      <trkpt lat="42.870223" lon="-5.686086">
        <ele>997.080</ele>
        <time>1999-07-20T11:58:14Z</time>
      </trkpt>
      <trkpt lat="42.870429" lon="-5.686129">
        <ele>997.066</ele>
        <time>1999-07-20T11:58:18Z</time>
      </trkpt>
      <trkpt lat="42.870585" lon="-5.686208">
        <ele>997.043</ele>
        <time>1999-07-20T11:58:21Z</time>
      </trkpt>
      <trkpt lat="42.870740" lon="-5.686321">
        <ele>997.028</ele>
        <time>1999-07-20T11:58:24Z</time>
      </trkpt>
      <trkpt lat="42.871090" lon="-5.686658">
        <ele>997.053</ele>
        <time>1999-07-20T11:58:31Z</time>
      </trkpt>
      <trkpt lat="42.871403" lon="-5.686827">
        <ele>997.204</ele>
        <time>1999-07-20T11:58:36Z</time>
      </trkpt>
      <trkpt lat="42.871537" lon="-5.686858">
        <ele>997.214</ele>
        <time>1999-07-20T11:58:38Z</time>
      </trkpt>
      <trkpt lat="42.871731" lon="-5.686880">
        <ele>997.208</ele>
        <time>1999-07-20T11:58:41Z</time>
      </trkpt>
      <trkpt lat="42.871845" lon="-5.686880">
        <ele>997.268</ele>
        <time>1999-07-20T11:58:43Z</time>
      </trkpt>
      <trkpt lat="42.871998" lon="-5.686847">
        <ele>997.013</ele>
        <time>1999-07-20T11:58:46Z</time>
      </trkpt>
      <trkpt lat="42.872240" lon="-5.686770">
        <ele>997.883</ele>
        <time>1999-07-20T11:58:51Z</time>
      </trkpt>
      <trkpt lat="42.872380" lon="-5.686722">
        <ele>998.491</ele>
        <time>1999-07-20T11:58:54Z</time>
      </trkpt>
      <trkpt lat="42.872536" lon="-5.686669">
        <ele>999.089</ele>
        <time>1999-07-20T11:58:57Z</time>
      </trkpt>
      <trkpt lat="42.872591" lon="-5.686659">
        <ele>999.255</ele>
        <time>1999-07-20T11:58:58Z</time>
      </trkpt>
      <trkpt lat="42.872757" lon="-5.686684">
        <ele>999.222</ele>
        <time>1999-07-20T11:59:00Z</time>
      </trkpt>
      <trkpt lat="42.872872" lon="-5.686722">
        <ele>999.617</ele>
        <time>1999-07-20T11:59:02Z</time>
      </trkpt>
      <trkpt lat="42.873033" lon="-5.686796">
        <ele>999.892</ele>
        <time>1999-07-20T11:59:05Z</time>
      </trkpt>
      <trkpt lat="42.873377" lon="-5.686964">
        <ele>1000.273</ele>
        <time>1999-07-20T11:59:12Z</time>
      </trkpt>
      <trkpt lat="42.873547" lon="-5.687060">
        <ele>1001.020</ele>
        <time>1999-07-20T11:59:17Z</time>
      </trkpt>
      <trkpt lat="42.873675" lon="-5.687139">
        <ele>1001.608</ele>
        <time>1999-07-20T11:59:20Z</time>
      </trkpt>
      <trkpt lat="42.873722" lon="-5.687160">
        <ele>1002.052</ele>
        <time>1999-07-20T11:59:21Z</time>
      </trkpt>
      <trkpt lat="42.873773" lon="-5.687174">
        <ele>1002.087</ele>
        <time>1999-07-20T11:59:22Z</time>
      </trkpt>
      <trkpt lat="42.873918" lon="-5.687206">
        <ele>1002.827</ele>
        <time>1999-07-20T11:59:25Z</time>
      </trkpt>
      <trkpt lat="42.873984" lon="-5.687258">
        <ele>1003.045</ele>
        <time>1999-07-20T11:59:27Z</time>
      </trkpt>
      <trkpt lat="42.874027" lon="-5.687253">
        <ele>1003.213</ele>
        <time>1999-07-20T11:59:28Z</time>
      </trkpt>
      <trkpt lat="42.874111" lon="-5.687225">
        <ele>1003.619</ele>
        <time>1999-07-20T11:59:30Z</time>
      </trkpt>
      <trkpt lat="42.874150" lon="-5.687211">
        <ele>1004.076</ele>
        <time>1999-07-20T11:59:31Z</time>
      </trkpt>
      <trkpt lat="42.874272" lon="-5.687172">
        <ele>1004.821</ele>
        <time>1999-07-20T11:59:34Z</time>
      </trkpt>
      <trkpt lat="42.874312" lon="-5.687167">
        <ele>1005.236</ele>
        <time>1999-07-20T11:59:35Z</time>
      </trkpt>
      <trkpt lat="42.874392" lon="-5.687165">
        <ele>1006.017</ele>
        <time>1999-07-20T11:59:37Z</time>
      </trkpt>
      <trkpt lat="42.874430" lon="-5.687169">
        <ele>1006.418</ele>
        <time>1999-07-20T11:59:38Z</time>
      </trkpt>
      <trkpt lat="42.874591" lon="-5.687212">
        <ele>1007.408</ele>
        <time>1999-07-20T11:59:42Z</time>
      </trkpt>
      <trkpt lat="42.874634" lon="-5.687228">
        <ele>1007.656</ele>
        <time>1999-07-20T11:59:43Z</time>
      </trkpt>
      <trkpt lat="42.874809" lon="-5.687292">
        <ele>1008.691</ele>
        <time>1999-07-20T11:59:47Z</time>
      </trkpt>
      <trkpt lat="42.874977" lon="-5.687310">
        <ele>1009.061</ele>
        <time>1999-07-20T11:59:51Z</time>
      </trkpt>
      <trkpt lat="42.875067" lon="-5.687305">
        <ele>1009.239</ele>
        <time>1999-07-20T11:59:53Z</time>
      </trkpt>
      <trkpt lat="42.875189" lon="-5.687289">
        <ele>1009.437</ele>
        <time>1999-07-20T11:59:56Z</time>
      </trkpt>
      <trkpt lat="42.875265" lon="-5.687271">
        <ele>1010.013</ele>
        <time>1999-07-20T11:59:58Z</time>
      </trkpt>
      <trkpt lat="42.875339" lon="-5.687255">
        <ele>1010.660</ele>
        <time>1999-07-20T12:00:00Z</time>
      </trkpt>
      <trkpt lat="42.875440" lon="-5.687225">
        <ele>1011.865</ele>
        <time>1999-07-20T12:00:03Z</time>
      </trkpt>
      <trkpt lat="42.875514" lon="-5.687163">
        <ele>1012.649</ele>
        <time>1999-07-20T12:00:05Z</time>
      </trkpt>
      <trkpt lat="42.875548" lon="-5.687130">
        <ele>1013.002</ele>
        <time>1999-07-20T12:00:06Z</time>
      </trkpt>
      <trkpt lat="42.875670" lon="-5.687019">
        <ele>1014.022</ele>
        <time>1999-07-20T12:00:10Z</time>
      </trkpt>
      <trkpt lat="42.875727" lon="-5.686978">
        <ele>1014.608</ele>
        <time>1999-07-20T12:00:12Z</time>
      </trkpt>
      <trkpt lat="42.875790" lon="-5.686946">
        <ele>1015.297</ele>
        <time>1999-07-20T12:00:14Z</time>
      </trkpt>
      <trkpt lat="42.875894" lon="-5.686924">
        <ele>1016.222</ele>
        <time>1999-07-20T12:00:17Z</time>
      </trkpt>
      <trkpt lat="42.876016" lon="-5.686931">
        <ele>1017.252</ele>
        <time>1999-07-20T12:00:20Z</time>
      </trkpt>
      <trkpt lat="42.876106" lon="-5.686966">
        <ele>1017.820</ele>
        <time>1999-07-20T12:00:21Z</time>
      </trkpt>
      <trkpt lat="42.876156" lon="-5.686986">
        <ele>1018.088</ele>
        <time>1999-07-20T12:00:22Z</time>
      </trkpt>
      <trkpt lat="42.876512" lon="-5.687189">
        <ele>1018.894</ele>
        <time>1999-07-20T12:00:29Z</time>
      </trkpt>
      <trkpt lat="42.876567" lon="-5.687219">
        <ele>1018.821</ele>
        <time>1999-07-20T12:00:30Z</time>
      </trkpt>
      <trkpt lat="42.876745" lon="-5.687285">
        <ele>1018.896</ele>
        <time>1999-07-20T12:00:34Z</time>
      </trkpt>
      <trkpt lat="42.876867" lon="-5.687274">
        <ele>1018.842</ele>
        <time>1999-07-20T12:00:36Z</time>
      </trkpt>
      <trkpt lat="42.876985" lon="-5.687248">
        <ele>1018.822</ele>
        <time>1999-07-20T12:00:38Z</time>
      </trkpt>
      <trkpt lat="42.877147" lon="-5.687220">
        <ele>1018.814</ele>
        <time>1999-07-20T12:00:41Z</time>
      </trkpt>
      <trkpt lat="42.877243" lon="-5.687209">
        <ele>1018.608</ele>
        <time>1999-07-20T12:00:43Z</time>
      </trkpt>
      <trkpt lat="42.877413" lon="-5.687192">
        <ele>1019.237</ele>
        <time>1999-07-20T12:00:47Z</time>
      </trkpt>
      <trkpt lat="42.877545" lon="-5.687165">
        <ele>1019.872</ele>
        <time>1999-07-20T12:00:50Z</time>
      </trkpt>
      <trkpt lat="42.877664" lon="-5.687159">
        <ele>1020.442</ele>
        <time>1999-07-20T12:00:53Z</time>
      </trkpt>
      <trkpt lat="42.877785" lon="-5.687141">
        <ele>1021.030</ele>
        <time>1999-07-20T12:00:56Z</time>
      </trkpt>
      <trkpt lat="42.877943" lon="-5.687136">
        <ele>1021.638</ele>
        <time>1999-07-20T12:01:00Z</time>
      </trkpt>
      <trkpt lat="42.878021" lon="-5.687145">
        <ele>1022.094</ele>
        <time>1999-07-20T12:01:02Z</time>
      </trkpt>
      <trkpt lat="42.878173" lon="-5.687152">
        <ele>1022.661</ele>
        <time>1999-07-20T12:01:06Z</time>
      </trkpt>
      <trkpt lat="42.878279" lon="-5.687137">
        <ele>1023.036</ele>
        <time>1999-07-20T12:01:09Z</time>
      </trkpt>
      <trkpt lat="42.878351" lon="-5.687097">
        <ele>1023.287</ele>
        <time>1999-07-20T12:01:11Z</time>
      </trkpt>
      <trkpt lat="42.878527" lon="-5.686978">
        <ele>1024.042</ele>
        <time>1999-07-20T12:01:16Z</time>
      </trkpt>
      <trkpt lat="42.878595" lon="-5.686932">
        <ele>1024.826</ele>
        <time>1999-07-20T12:01:18Z</time>
      </trkpt>
      <trkpt lat="42.878671" lon="-5.686876">
        <ele>1025.008</ele>
        <time>1999-07-20T12:01:20Z</time>
      </trkpt>
      <trkpt lat="42.878705" lon="-5.686845">
        <ele>1025.291</ele>
        <time>1999-07-20T12:01:21Z</time>
      </trkpt>
      <trkpt lat="42.878814" lon="-5.686723">
        <ele>1025.876</ele>
        <time>1999-07-20T12:01:24Z</time>
      </trkpt>
      <trkpt lat="42.878895" lon="-5.686574">
        <ele>1026.416</ele>
        <time>1999-07-20T12:01:27Z</time>
      </trkpt>
      <trkpt lat="42.878949" lon="-5.686483">
        <ele>1026.414</ele>
        <time>1999-07-20T12:01:29Z</time>
      </trkpt>
      <trkpt lat="42.879020" lon="-5.686410">
        <ele>1026.842</ele>
        <time>1999-07-20T12:01:31Z</time>
      </trkpt>
      <trkpt lat="42.879161" lon="-5.686360">
        <ele>1026.838</ele>
        <time>1999-07-20T12:01:33Z</time>
      </trkpt>
      <trkpt lat="42.879264" lon="-5.686355">
        <ele>1027.215</ele>
        <time>1999-07-20T12:01:35Z</time>
      </trkpt>
      <trkpt lat="42.879370" lon="-5.686360">
        <ele>1027.450</ele>
        <time>1999-07-20T12:01:37Z</time>
      </trkpt>
      <trkpt lat="42.879464" lon="-5.686404">
        <ele>1027.637</ele>
        <time>1999-07-20T12:01:39Z</time>
      </trkpt>
      <trkpt lat="42.879639" lon="-5.686504">
        <ele>1027.649</ele>
        <time>1999-07-20T12:01:43Z</time>
      </trkpt>
      <trkpt lat="42.879757" lon="-5.686624">
        <ele>1027.613</ele>
        <time>1999-07-20T12:01:46Z</time>
      </trkpt>
      <trkpt lat="42.879831" lon="-5.686713">
        <ele>1027.408</ele>
        <time>1999-07-20T12:01:48Z</time>
      </trkpt>
      <trkpt lat="42.879862" lon="-5.686768">
        <ele>1027.476</ele>
        <time>1999-07-20T12:01:49Z</time>
      </trkpt>
      <trkpt lat="42.879963" lon="-5.686950">
        <ele>1027.491</ele>
        <time>1999-07-20T12:01:52Z</time>
      </trkpt>
      <trkpt lat="42.880157" lon="-5.687349">
        <ele>1027.261</ele>
        <time>1999-07-20T12:01:59Z</time>
      </trkpt>
      <trkpt lat="42.880241" lon="-5.687557">
        <ele>1026.819</ele>
        <time>1999-07-20T12:02:02Z</time>
      </trkpt>
      <trkpt lat="42.880304" lon="-5.687680">
        <ele>1026.877</ele>
        <time>1999-07-20T12:02:04Z</time>
      </trkpt>
      <trkpt lat="42.880380" lon="-5.687744">
        <ele>1026.693</ele>
        <time>1999-07-20T12:02:06Z</time>
      </trkpt>
      <trkpt lat="42.880424" lon="-5.687823">
        <ele>1026.660</ele>
        <time>1999-07-20T12:02:08Z</time>
      </trkpt>
      <trkpt lat="42.880538" lon="-5.687852">
        <ele>1026.675</ele>
        <time>1999-07-20T12:02:11Z</time>
      </trkpt>
      <trkpt lat="42.880580" lon="-5.687853">
        <ele>1026.662</ele>
        <time>1999-07-20T12:02:12Z</time>
      </trkpt>
      <trkpt lat="42.880659" lon="-5.687849">
        <ele>1027.083</ele>
        <time>1999-07-20T12:02:14Z</time>
      </trkpt>
      <trkpt lat="42.880782" lon="-5.687794">
        <ele>1027.411</ele>
        <time>1999-07-20T12:02:17Z</time>
      </trkpt>
      <trkpt lat="42.880820" lon="-5.687767">
        <ele>1027.408</ele>
        <time>1999-07-20T12:02:18Z</time>
      </trkpt>
      <trkpt lat="42.880988" lon="-5.687630">
        <ele>1027.699</ele>
        <time>1999-07-20T12:02:23Z</time>
      </trkpt>
      <trkpt lat="42.881049" lon="-5.687586">
        <ele>1028.024</ele>
        <time>1999-07-20T12:02:25Z</time>
      </trkpt>
      <trkpt lat="42.881105" lon="-5.687544">
        <ele>1028.434</ele>
        <time>1999-07-20T12:02:27Z</time>
      </trkpt>
      <trkpt lat="42.881191" lon="-5.687483">
        <ele>1029.212</ele>
        <time>1999-07-20T12:02:30Z</time>
      </trkpt>
      <trkpt lat="42.881327" lon="-5.687416">
        <ele>1030.070</ele>
        <time>1999-07-20T12:02:34Z</time>
      </trkpt>
      <trkpt lat="42.881366" lon="-5.687410">
        <ele>1030.256</ele>
        <time>1999-07-20T12:02:35Z</time>
      </trkpt>
      <trkpt lat="42.881570" lon="-5.687430">
        <ele>1031.233</ele>
        <time>1999-07-20T12:02:40Z</time>
      </trkpt>
      <trkpt lat="42.881828" lon="-5.687462">
        <ele>1031.668</ele>
        <time>1999-07-20T12:02:47Z</time>
      </trkpt>
      <trkpt lat="42.882015" lon="-5.687450">
        <ele>1031.882</ele>
        <time>1999-07-20T12:02:52Z</time>
      </trkpt>
      <trkpt lat="42.882241" lon="-5.687401">
        <ele>1032.243</ele>
        <time>1999-07-20T12:02:58Z</time>
      </trkpt>
      <trkpt lat="42.882519" lon="-5.687435">
        <ele>1033.017</ele>
        <time>1999-07-20T12:03:04Z</time>
      </trkpt>
      <trkpt lat="42.882560" lon="-5.687461">
        <ele>1033.208</ele>
        <time>1999-07-20T12:03:05Z</time>
      </trkpt>
      <trkpt lat="42.882695" lon="-5.687508">
        <ele>1033.871</ele>
        <time>1999-07-20T12:03:08Z</time>
      </trkpt>
      <trkpt lat="42.882829" lon="-5.687495">
        <ele>1034.016</ele>
        <time>1999-07-20T12:03:11Z</time>
      </trkpt>
      <trkpt lat="42.882872" lon="-5.687486">
        <ele>1034.296</ele>
        <time>1999-07-20T12:03:12Z</time>
      </trkpt>
      <trkpt lat="42.882950" lon="-5.687476">
        <ele>1034.414</ele>
        <time>1999-07-20T12:03:14Z</time>
      </trkpt>
      <trkpt lat="42.883103" lon="-5.687458">
        <ele>1035.092</ele>
        <time>1999-07-20T12:03:18Z</time>
      </trkpt>
      <trkpt lat="42.883218" lon="-5.687417">
        <ele>1035.438</ele>
        <time>1999-07-20T12:03:21Z</time>
      </trkpt>
      <trkpt lat="42.883329" lon="-5.687372">
        <ele>1036.085</ele>
        <time>1999-07-20T12:03:24Z</time>
      </trkpt>
      <trkpt lat="42.883476" lon="-5.687340">
        <ele>1036.620</ele>
        <time>1999-07-20T12:03:28Z</time>
      </trkpt>
      <trkpt lat="42.883631" lon="-5.687326">
        <ele>1037.821</ele>
        <time>1999-07-20T12:03:32Z</time>
      </trkpt>
      <trkpt lat="42.883928" lon="-5.687347">
        <ele>1038.641</ele>
        <time>1999-07-20T12:03:40Z</time>
      </trkpt>
      <trkpt lat="42.884165" lon="-5.687391">
        <ele>1039.605</ele>
        <time>1999-07-20T12:03:47Z</time>
      </trkpt>
      <trkpt lat="42.884201" lon="-5.687388">
        <ele>1039.808</ele>
        <time>1999-07-20T12:03:48Z</time>
      </trkpt>
      <trkpt lat="42.884274" lon="-5.687387">
        <ele>1040.815</ele>
        <time>1999-07-20T12:03:50Z</time>
      </trkpt>
      <trkpt lat="42.884417" lon="-5.687366">
        <ele>1042.080</ele>
        <time>1999-07-20T12:03:54Z</time>
      </trkpt>
      <trkpt lat="42.884459" lon="-5.687351">
        <ele>1042.240</ele>
        <time>1999-07-20T12:03:55Z</time>
      </trkpt>
      <trkpt lat="42.884593" lon="-5.687312">
        <ele>1042.868</ele>
        <time>1999-07-20T12:03:58Z</time>
      </trkpt>
      <trkpt lat="42.884682" lon="-5.687252">
        <ele>1043.096</ele>
        <time>1999-07-20T12:04:00Z</time>
      </trkpt>
      <trkpt lat="42.884725" lon="-5.687221">
        <ele>1043.272</ele>
        <time>1999-07-20T12:04:01Z</time>
      </trkpt>
      <trkpt lat="42.884995" lon="-5.687051">
        <ele>1043.259</ele>
        <time>1999-07-20T12:04:07Z</time>
      </trkpt>
      <trkpt lat="42.885114" lon="-5.686911">
        <ele>1043.294</ele>
        <time>1999-07-20T12:04:10Z</time>
      </trkpt>
      <trkpt lat="42.885183" lon="-5.686791">
        <ele>1043.223</ele>
        <time>1999-07-20T12:04:12Z</time>
      </trkpt>
      <trkpt lat="42.885317" lon="-5.686543">
        <ele>1043.483</ele>
        <time>1999-07-20T12:04:17Z</time>
      </trkpt>
      <trkpt lat="42.885407" lon="-5.686380">
        <ele>1044.011</ele>
        <time>1999-07-20T12:04:21Z</time>
      </trkpt>
      <trkpt lat="42.885519" lon="-5.686175">
        <ele>1045.008</ele>
        <time>1999-07-20T12:04:26Z</time>
      </trkpt>
      <trkpt lat="42.885659" lon="-5.685924">
        <ele>1046.055</ele>
        <time>1999-07-20T12:04:32Z</time>
      </trkpt>
      <trkpt lat="42.885693" lon="-5.685821">
        <ele>1046.660</ele>
        <time>1999-07-20T12:04:34Z</time>
      </trkpt>
      <trkpt lat="42.885709" lon="-5.685712">
        <ele>1047.050</ele>
        <time>1999-07-20T12:04:36Z</time>
      </trkpt>
      <trkpt lat="42.885712" lon="-5.685549">
        <ele>1047.088</ele>
        <time>1999-07-20T12:04:39Z</time>
      </trkpt>
      <trkpt lat="42.885793" lon="-5.685349">
        <ele>1047.236</ele>
        <time>1999-07-20T12:04:43Z</time>
      </trkpt>
      <trkpt lat="42.885825" lon="-5.685307">
        <ele>1047.222</ele>
        <time>1999-07-20T12:04:44Z</time>
      </trkpt>
      <trkpt lat="42.885986" lon="-5.685132">
        <ele>1048.089</ele>
        <time>1999-07-20T12:04:49Z</time>
      </trkpt>
      <trkpt lat="42.886088" lon="-5.685023">
        <ele>1048.244</ele>
        <time>1999-07-20T12:04:51Z</time>
      </trkpt>
      <trkpt lat="42.886185" lon="-5.684916">
        <ele>1048.818</ele>
        <time>1999-07-20T12:04:55Z</time>
      </trkpt>
      <trkpt lat="42.886312" lon="-5.684806">
        <ele>1050.098</ele>
        <time>1999-07-20T12:04:59Z</time>
      </trkpt>
      <trkpt lat="42.886430" lon="-5.684747">
        <ele>1051.417</ele>
        <time>1999-07-20T12:05:02Z</time>
      </trkpt>
      <trkpt lat="42.886578" lon="-5.684712">
        <ele>1052.408</ele>
        <time>1999-07-20T12:05:06Z</time>
      </trkpt>
      <trkpt lat="42.886727" lon="-5.684704">
        <ele>1052.884</ele>
        <time>1999-07-20T12:05:12Z</time>
      </trkpt>
      <trkpt lat="42.886735" lon="-5.684698">
        <ele>1052.819</ele>
        <time>1999-07-20T12:05:14Z</time>
      </trkpt>
      <trkpt lat="42.886816" lon="-5.684609">
        <ele>1052.629</ele>
        <time>1999-07-20T12:06:05Z</time>
      </trkpt>
      <trkpt lat="42.886836" lon="-5.684591">
        <ele>1052.657</ele>
        <time>1999-07-20T12:06:06Z</time>
      </trkpt>
      <trkpt lat="42.886959" lon="-5.684434">
        <ele>1052.675</ele>
        <time>1999-07-20T12:06:12Z</time>
      </trkpt>
      <trkpt lat="42.887089" lon="-5.684266">
        <ele>1052.861</ele>
        <time>1999-07-20T12:06:18Z</time>
      </trkpt>
      <trkpt lat="42.887117" lon="-5.684241">
        <ele>1052.828</ele>
        <time>1999-07-20T12:06:19Z</time>
      </trkpt>
      <trkpt lat="42.887146" lon="-5.684216">
        <ele>1053.053</ele>
        <time>1999-07-20T12:06:20Z</time>
      </trkpt>
      <trkpt lat="42.887276" lon="-5.684129">
        <ele>1053.695</ele>
        <time>1999-07-20T12:06:24Z</time>
      </trkpt>
      <trkpt lat="42.887377" lon="-5.684085">
        <ele>1053.849</ele>
        <time>1999-07-20T12:06:27Z</time>
      </trkpt>
      <trkpt lat="42.887707" lon="-5.683937">
        <ele>1054.423</ele>
        <time>1999-07-20T12:06:36Z</time>
      </trkpt>
      <trkpt lat="42.887806" lon="-5.683895">
        <ele>1054.808</ele>
        <time>1999-07-20T12:06:40Z</time>
      </trkpt>
      <trkpt lat="42.887886" lon="-5.683870">
        <ele>1054.832</ele>
        <time>1999-07-20T12:06:41Z</time>
      </trkpt>
      <trkpt lat="42.887972" lon="-5.683853">
        <ele>1055.287</ele>
        <time>1999-07-20T12:06:44Z</time>
      </trkpt>
      <trkpt lat="42.888296" lon="-5.683905">
        <ele>1055.667</ele>
        <time>1999-07-20T12:06:51Z</time>
      </trkpt>
      <trkpt lat="42.888333" lon="-5.683920">
        <ele>1055.895</ele>
        <time>1999-07-20T12:06:52Z</time>
      </trkpt>
      <trkpt lat="42.888518" lon="-5.683944">
        <ele>1056.413</ele>
        <time>1999-07-20T12:06:57Z</time>
      </trkpt>
      <trkpt lat="42.888618" lon="-5.683928">
        <ele>1056.679</ele>
        <time>1999-07-20T12:07:00Z</time>
      </trkpt>
      <trkpt lat="42.888718" lon="-5.683904">
        <ele>1057.026</ele>
        <time>1999-07-20T12:07:03Z</time>
      </trkpt>
      <trkpt lat="42.888823" lon="-5.683886">
        <ele>1057.631</ele>
        <time>1999-07-20T12:07:06Z</time>
      </trkpt>
      <trkpt lat="42.888929" lon="-5.683893">
        <ele>1058.417</ele>
        <time>1999-07-20T12:07:09Z</time>
      </trkpt>
      <trkpt lat="42.888997" lon="-5.683922">
        <ele>1058.687</ele>
        <time>1999-07-20T12:07:11Z</time>
      </trkpt>
      <trkpt lat="42.889146" lon="-5.684057">
        <ele>1059.415</ele>
        <time>1999-07-20T12:07:16Z</time>
      </trkpt>
      <trkpt lat="42.889202" lon="-5.684124">
        <ele>1060.008</ele>
        <time>1999-07-20T12:07:18Z</time>
      </trkpt>
      <trkpt lat="42.889317" lon="-5.684352">
        <ele>1060.444</ele>
        <time>1999-07-20T12:07:23Z</time>
      </trkpt>
      <trkpt lat="42.889402" lon="-5.684499">
        <ele>1060.899</ele>
        <time>1999-07-20T12:07:26Z</time>
      </trkpt>
      <trkpt lat="42.889470" lon="-5.684585">
        <ele>1061.039</ele>
        <time>1999-07-20T12:07:28Z</time>
      </trkpt>
      <trkpt lat="42.889506" lon="-5.684621">
        <ele>1061.087</ele>
        <time>1999-07-20T12:07:29Z</time>
      </trkpt>
      <trkpt lat="42.889547" lon="-5.684648">
        <ele>1061.265</ele>
        <time>1999-07-20T12:07:31Z</time>
      </trkpt>
      <trkpt lat="42.889670" lon="-5.684694">
        <ele>1061.481</ele>
        <time>1999-07-20T12:07:34Z</time>
      </trkpt>
      <trkpt lat="42.889784" lon="-5.684681">
        <ele>1061.488</ele>
        <time>1999-07-20T12:07:37Z</time>
      </trkpt>
      <trkpt lat="42.889844" lon="-5.684677">
        <ele>1061.693</ele>
        <time>1999-07-20T12:07:39Z</time>
      </trkpt>
      <trkpt lat="42.889931" lon="-5.684683">
        <ele>1061.893</ele>
        <time>1999-07-20T12:07:42Z</time>
      </trkpt>
      <trkpt lat="42.890051" lon="-5.684703">
        <ele>1063.065</ele>
        <time>1999-07-20T12:07:46Z</time>
      </trkpt>
      <trkpt lat="42.890060" lon="-5.684745">
        <ele>1063.021</ele>
        <time>1999-07-20T12:07:47Z</time>
      </trkpt>
      <trkpt lat="42.890117" lon="-5.684818">
        <ele>1064.008</ele>
        <time>1999-07-20T12:07:50Z</time>
      </trkpt>
      <trkpt lat="42.890306" lon="-5.684860">
        <ele>1064.822</ele>
        <time>1999-07-20T12:07:56Z</time>
      </trkpt>
      <trkpt lat="42.890338" lon="-5.684866">
        <ele>1065.057</ele>
        <time>1999-07-20T12:07:57Z</time>
      </trkpt>
      <trkpt lat="42.890549" lon="-5.684944">
        <ele>1065.437</ele>
        <time>1999-07-20T12:08:04Z</time>
      </trkpt>
      <trkpt lat="42.890718" lon="-5.685053">
        <ele>1066.075</ele>
        <time>1999-07-20T12:08:10Z</time>
      </trkpt>
      <trkpt lat="42.890774" lon="-5.685091">
        <ele>1066.843</ele>
        <time>1999-07-20T12:08:12Z</time>
      </trkpt>
      <trkpt lat="42.890802" lon="-5.685110">
        <ele>1067.489</ele>
        <time>1999-07-20T12:08:13Z</time>
      </trkpt>
      <trkpt lat="42.890915" lon="-5.685197">
        <ele>1068.666</ele>
        <time>1999-07-20T12:08:17Z</time>
      </trkpt>
      <trkpt lat="42.891014" lon="-5.685253">
        <ele>1069.011</ele>
        <time>1999-07-20T12:08:20Z</time>
      </trkpt>
      <trkpt lat="42.891085" lon="-5.685291">
        <ele>1069.443</ele>
        <time>1999-07-20T12:08:22Z</time>
      </trkpt>
      <trkpt lat="42.891119" lon="-5.685313">
        <ele>1069.664</ele>
        <time>1999-07-20T12:08:23Z</time>
      </trkpt>
      <trkpt lat="42.891278" lon="-5.685438">
        <ele>1070.210</ele>
        <time>1999-07-20T12:08:28Z</time>
      </trkpt>
      <trkpt lat="42.891459" lon="-5.685608">
        <ele>1070.608</ele>
        <time>1999-07-20T12:08:34Z</time>
      </trkpt>
      <trkpt lat="42.891558" lon="-5.685686">
        <ele>1071.297</ele>
        <time>1999-07-20T12:08:37Z</time>
      </trkpt>
      <trkpt lat="42.891721" lon="-5.685825">
        <ele>1071.872</ele>
        <time>1999-07-20T12:08:42Z</time>
      </trkpt>
      <trkpt lat="42.891819" lon="-5.685912">
        <ele>1072.412</ele>
        <time>1999-07-20T12:08:45Z</time>
      </trkpt>
      <trkpt lat="42.891968" lon="-5.686056">
        <ele>1073.020</ele>
        <time>1999-07-20T12:08:50Z</time>
      </trkpt>
      <trkpt lat="42.892112" lon="-5.686203">
        <ele>1073.828</ele>
        <time>1999-07-20T12:08:55Z</time>
      </trkpt>
      <trkpt lat="42.892145" lon="-5.686231">
        <ele>1074.054</ele>
        <time>1999-07-20T12:08:56Z</time>
      </trkpt>
      <trkpt lat="42.892325" lon="-5.686303">
        <ele>1074.661</ele>
        <time>1999-07-20T12:09:01Z</time>
      </trkpt>
      <trkpt lat="42.892401" lon="-5.686315">
        <ele>1075.016</ele>
        <time>1999-07-20T12:09:03Z</time>
      </trkpt>
      <trkpt lat="42.892593" lon="-5.686353">
        <ele>1075.431</ele>
        <time>1999-07-20T12:09:08Z</time>
      </trkpt>
      <trkpt lat="42.892668" lon="-5.686388">
        <ele>1075.661</ele>
        <time>1999-07-20T12:09:10Z</time>
      </trkpt>
      <trkpt lat="42.892827" lon="-5.686453">
        <ele>1076.207</ele>
        <time>1999-07-20T12:09:14Z</time>
      </trkpt>
      <trkpt lat="42.893120" lon="-5.686618">
        <ele>1077.208</ele>
        <time>1999-07-20T12:09:22Z</time>
      </trkpt>
      <trkpt lat="42.893158" lon="-5.686624">
        <ele>1077.236</ele>
        <time>1999-07-20T12:09:23Z</time>
      </trkpt>
      <trkpt lat="42.893378" lon="-5.686621">
        <ele>1078.241</ele>
        <time>1999-07-20T12:09:29Z</time>
      </trkpt>
      <trkpt lat="42.893453" lon="-5.686609">
        <ele>1078.491</ele>
        <time>1999-07-20T12:09:31Z</time>
      </trkpt>
      <trkpt lat="42.893635" lon="-5.686617">
        <ele>1079.499</ele>
        <time>1999-07-20T12:09:37Z</time>
      </trkpt>
      <trkpt lat="42.893772" lon="-5.686634">
        <ele>1080.687</ele>
        <time>1999-07-20T12:09:42Z</time>
      </trkpt>
      <trkpt lat="42.893799" lon="-5.686646">
        <ele>1080.853</ele>
        <time>1999-07-20T12:09:43Z</time>
      </trkpt>
      <trkpt lat="42.893884" lon="-5.686687">
        <ele>1081.880</ele>
        <time>1999-07-20T12:09:46Z</time>
      </trkpt>
      <trkpt lat="42.894007" lon="-5.686718">
        <ele>1082.865</ele>
        <time>1999-07-20T12:09:50Z</time>
      </trkpt>
      <trkpt lat="42.894038" lon="-5.686714">
        <ele>1083.274</ele>
        <time>1999-07-20T12:09:51Z</time>
      </trkpt>
      <trkpt lat="42.894132" lon="-5.686706">
        <ele>1084.056</ele>
        <time>1999-07-20T12:09:54Z</time>
      </trkpt>
      <trkpt lat="42.894251" lon="-5.686687">
        <ele>1085.221</ele>
        <time>1999-07-20T12:09:58Z</time>
      </trkpt>
      <trkpt lat="42.894275" lon="-5.686673">
        <ele>1085.408</ele>
        <time>1999-07-20T12:09:59Z</time>
      </trkpt>
      <trkpt lat="42.894294" lon="-5.686655">
        <ele>1085.620</ele>
        <time>1999-07-20T12:10:00Z</time>
      </trkpt>
      <trkpt lat="42.894323" lon="-5.686629">
        <ele>1085.825</ele>
        <time>1999-07-20T12:10:02Z</time>
      </trkpt>
      <trkpt lat="42.894341" lon="-5.686620">
        <ele>1086.055</ele>
        <time>1999-07-20T12:10:03Z</time>
      </trkpt>
      <trkpt lat="42.894363" lon="-5.686610">
        <ele>1086.273</ele>
        <time>1999-07-20T12:10:04Z</time>
      </trkpt>
      <trkpt lat="42.894410" lon="-5.686601">
        <ele>1086.651</ele>
        <time>1999-07-20T12:10:06Z</time>
      </trkpt>
      <trkpt lat="42.894516" lon="-5.686582">
        <ele>1087.217</ele>
        <time>1999-07-20T12:10:10Z</time>
      </trkpt>
      <trkpt lat="42.894544" lon="-5.686578">
        <ele>1087.224</ele>
        <time>1999-07-20T12:10:11Z</time>
      </trkpt>
      <trkpt lat="42.894708" lon="-5.686543">
        <ele>1088.229</ele>
        <time>1999-07-20T12:10:17Z</time>
      </trkpt>
      <trkpt lat="42.894826" lon="-5.686528">
        <ele>1089.222</ele>
        <time>1999-07-20T12:10:22Z</time>
      </trkpt>
      <trkpt lat="42.894849" lon="-5.686550">
        <ele>1089.462</ele>
        <time>1999-07-20T12:10:23Z</time>
      </trkpt>
      <trkpt lat="42.894878" lon="-5.686639">
        <ele>1089.808</ele>
        <time>1999-07-20T12:10:26Z</time>
      </trkpt>
      <trkpt lat="42.894863" lon="-5.686722">
        <ele>1090.408</ele>
        <time>1999-07-20T12:10:29Z</time>
      </trkpt>
      <trkpt lat="42.894851" lon="-5.686757">
        <ele>1091.095</ele>
        <time>1999-07-20T12:10:31Z</time>
      </trkpt>
      <trkpt lat="42.894840" lon="-5.686780">
        <ele>1091.870</ele>
        <time>1999-07-20T12:10:33Z</time>
      </trkpt>
      <trkpt lat="42.894791" lon="-5.686818">
        <ele>1092.490</ele>
        <time>1999-07-20T12:10:37Z</time>
      </trkpt>
      <trkpt lat="42.894787" lon="-5.686858">
        <ele>1093.068</ele>
        <time>1999-07-20T12:10:39Z</time>
      </trkpt>
      <trkpt lat="42.894792" lon="-5.686905">
        <ele>1093.496</ele>
        <time>1999-07-20T12:10:41Z</time>
      </trkpt>
      <trkpt lat="42.894795" lon="-5.686928">
        <ele>1093.652</ele>
        <time>1999-07-20T12:10:42Z</time>
      </trkpt>
      <trkpt lat="42.894795" lon="-5.686972">
        <ele>1094.069</ele>
        <time>1999-07-20T12:10:44Z</time>
      </trkpt>
      <trkpt lat="42.894818" lon="-5.687089">
        <ele>1094.484</ele>
        <time>1999-07-20T12:10:50Z</time>
      </trkpt>
      <trkpt lat="42.894831" lon="-5.687097">
        <ele>1094.454</ele>
        <time>1999-07-20T12:10:51Z</time>
      </trkpt>
      <trkpt lat="42.894875" lon="-5.687185">
        <ele>1095.056</ele>
        <time>1999-07-20T12:10:55Z</time>
      </trkpt>
      <trkpt lat="42.894917" lon="-5.687308">
        <ele>1096.011</ele>
        <time>1999-07-20T12:11:00Z</time>
      </trkpt>
      <trkpt lat="42.894929" lon="-5.687332">
        <ele>1096.208</ele>
        <time>1999-07-20T12:11:01Z</time>
      </trkpt>
      <trkpt lat="42.894989" lon="-5.687401">
        <ele>1097.058</ele>
        <time>1999-07-20T12:11:05Z</time>
      </trkpt>
      <trkpt lat="42.895005" lon="-5.687412">
        <ele>1097.643</ele>
        <time>1999-07-20T12:11:06Z</time>
      </trkpt>
      <trkpt lat="42.895038" lon="-5.687434">
        <ele>1098.243</ele>
        <time>1999-07-20T12:11:08Z</time>
      </trkpt>
      <trkpt lat="42.895053" lon="-5.687449">
        <ele>1098.811</ele>
        <time>1999-07-20T12:11:09Z</time>
      </trkpt>
      <trkpt lat="42.895096" lon="-5.687495">
        <ele>1100.069</ele>
        <time>1999-07-20T12:11:12Z</time>
      </trkpt>
      <trkpt lat="42.895143" lon="-5.687520">
        <ele>1101.035</ele>
        <time>1999-07-20T12:11:15Z</time>
      </trkpt>
      <trkpt lat="42.895211" lon="-5.687507">
        <ele>1102.252</ele>
        <time>1999-07-20T12:11:19Z</time>
      </trkpt>
      <trkpt lat="42.895265" lon="-5.687493">
        <ele>1103.027</ele>
        <time>1999-07-20T12:11:22Z</time>
      </trkpt>
      <trkpt lat="42.895285" lon="-5.687489">
        <ele>1103.267</ele>
        <time>1999-07-20T12:11:23Z</time>
      </trkpt>
      <trkpt lat="42.895380" lon="-5.687485">
        <ele>1104.681</ele>
        <time>1999-07-20T12:11:28Z</time>
      </trkpt>
      <trkpt lat="42.895423" lon="-5.687484">
        <ele>1105.019</ele>
        <time>1999-07-20T12:11:30Z</time>
      </trkpt>
      <trkpt lat="42.895469" lon="-5.687483">
        <ele>1105.608</ele>
        <time>1999-07-20T12:11:32Z</time>
      </trkpt>
      <trkpt lat="42.895528" lon="-5.687492">
        <ele>1106.829</ele>
        <time>1999-07-20T12:11:35Z</time>
      </trkpt>
      <trkpt lat="42.895570" lon="-5.687504">
        <ele>1107.614</ele>
        <time>1999-07-20T12:11:37Z</time>
      </trkpt>
      <trkpt lat="42.895607" lon="-5.687512">
        <ele>1108.054</ele>
        <time>1999-07-20T12:11:39Z</time>
      </trkpt>
      <trkpt lat="42.895679" lon="-5.687540">
        <ele>1109.222</ele>
        <time>1999-07-20T12:11:43Z</time>
      </trkpt>
      <trkpt lat="42.895753" lon="-5.687570">
        <ele>1110.270</ele>
        <time>1999-07-20T12:11:47Z</time>
      </trkpt>
      <trkpt lat="42.895809" lon="-5.687599">
        <ele>1110.696</ele>
        <time>1999-07-20T12:11:50Z</time>
      </trkpt>
      <trkpt lat="42.895989" lon="-5.687679">
        <ele>1111.633</ele>
        <time>1999-07-20T12:11:58Z</time>
      </trkpt>
      <trkpt lat="42.896010" lon="-5.687688">
        <ele>1111.628</ele>
        <time>1999-07-20T12:11:59Z</time>
      </trkpt>
      <trkpt lat="42.896082" lon="-5.687715">
        <ele>1111.629</ele>
        <time>1999-07-20T12:12:02Z</time>
      </trkpt>
      <trkpt lat="42.896183" lon="-5.687755">
        <ele>1112.000</ele>
        <time>1999-07-20T12:12:07Z</time>
      </trkpt>
      <trkpt lat="42.896253" lon="-5.687784">
        <ele>1112.620</ele>
        <time>1999-07-20T12:12:11Z</time>
      </trkpt>
      <trkpt lat="42.896326" lon="-5.687841">
        <ele>1113.808</ele>
        <time>1999-07-20T12:12:16Z</time>
      </trkpt>
      <trkpt lat="42.896369" lon="-5.687897">
        <ele>1114.825</ele>
        <time>1999-07-20T12:12:20Z</time>
      </trkpt>
      <trkpt lat="42.896400" lon="-5.687939">
        <ele>1116.280</ele>
        <time>1999-07-20T12:12:23Z</time>
      </trkpt>
      <trkpt lat="42.896410" lon="-5.687953">
        <ele>1116.670</ele>
        <time>1999-07-20T12:12:24Z</time>
      </trkpt>
      <trkpt lat="42.896434" lon="-5.687979">
        <ele>1117.428</ele>
        <time>1999-07-20T12:12:26Z</time>
      </trkpt>
      <trkpt lat="42.896480" lon="-5.688026">
        <ele>1119.216</ele>
        <time>1999-07-20T12:12:30Z</time>
      </trkpt>
      <trkpt lat="42.896505" lon="-5.688056">
        <ele>1119.822</ele>
        <time>1999-07-20T12:12:32Z</time>
      </trkpt>
      <trkpt lat="42.896545" lon="-5.688100">
        <ele>1120.659</ele>
        <time>1999-07-20T12:12:35Z</time>
      </trkpt>
      <trkpt lat="42.896599" lon="-5.688148">
        <ele>1121.454</ele>
        <time>1999-07-20T12:12:39Z</time>
      </trkpt>
      <trkpt lat="42.896604" lon="-5.688157">
        <ele>1121.641</ele>
        <time>1999-07-20T12:12:41Z</time>
      </trkpt>
      <trkpt lat="42.896669" lon="-5.688174">
        <ele>1123.481</ele>
        <time>1999-07-20T12:13:22Z</time>
      </trkpt>
      <trkpt lat="42.896683" lon="-5.688176">
        <ele>1123.409</ele>
        <time>1999-07-20T12:13:23Z</time>
      </trkpt>
      <trkpt lat="42.896712" lon="-5.688178">
        <ele>1123.408</ele>
        <time>1999-07-20T12:13:25Z</time>
      </trkpt>
      <trkpt lat="42.896751" lon="-5.688183">
        <ele>1123.457</ele>
        <time>1999-07-20T12:13:27Z</time>
      </trkpt>
      <trkpt lat="42.896810" lon="-5.688192">
        <ele>1123.672</ele>
        <time>1999-07-20T12:13:30Z</time>
      </trkpt>
      <trkpt lat="42.896889" lon="-5.688221">
        <ele>1124.232</ele>
        <time>1999-07-20T12:13:35Z</time>
      </trkpt>
      <trkpt lat="42.896921" lon="-5.688234">
        <ele>1124.420</ele>
        <time>1999-07-20T12:13:37Z</time>
      </trkpt>
      <trkpt lat="42.896936" lon="-5.688242">
        <ele>1124.678</ele>
        <time>1999-07-20T12:13:38Z</time>
      </trkpt>
      <trkpt lat="42.897007" lon="-5.688256">
        <ele>1125.294</ele>
        <time>1999-07-20T12:13:42Z</time>
      </trkpt>
      <trkpt lat="42.897047" lon="-5.688257">
        <ele>1125.481</ele>
        <time>1999-07-20T12:13:44Z</time>
      </trkpt>
      <trkpt lat="42.897065" lon="-5.688258">
        <ele>1125.616</ele>
        <time>1999-07-20T12:13:45Z</time>
      </trkpt>
      <trkpt lat="42.897135" lon="-5.688253">
        <ele>1126.639</ele>
        <time>1999-07-20T12:13:49Z</time>
      </trkpt>
      <trkpt lat="42.897186" lon="-5.688269">
        <ele>1126.801</ele>
        <time>1999-07-20T12:13:52Z</time>
      </trkpt>
      <trkpt lat="42.897218" lon="-5.688284">
        <ele>1127.421</ele>
        <time>1999-07-20T12:13:54Z</time>
      </trkpt>
      <trkpt lat="42.897234" lon="-5.688283">
        <ele>1127.808</ele>
        <time>1999-07-20T12:13:55Z</time>
      </trkpt>
      <trkpt lat="42.897285" lon="-5.688278">
        <ele>1128.466</ele>
        <time>1999-07-20T12:13:58Z</time>
      </trkpt>
      <trkpt lat="42.897312" lon="-5.688265">
        <ele>1129.271</ele>
        <time>1999-07-20T12:14:00Z</time>
      </trkpt>
      <trkpt lat="42.897358" lon="-5.688216">
        <ele>1130.021</ele>
        <time>1999-07-20T12:14:04Z</time>
      </trkpt>
      <trkpt lat="42.897369" lon="-5.688201">
        <ele>1130.299</ele>
        <time>1999-07-20T12:14:05Z</time>
      </trkpt>
      <trkpt lat="42.897422" lon="-5.688158">
        <ele>1131.067</ele>
        <time>1999-07-20T12:14:09Z</time>
      </trkpt>
      <trkpt lat="42.897437" lon="-5.688157">
        <ele>1131.473</ele>
        <time>1999-07-20T12:14:10Z</time>
      </trkpt>
      <trkpt lat="42.897482" lon="-5.688136">
        <ele>1132.070</ele>
        <time>1999-07-20T12:14:13Z</time>
      </trkpt>
      <trkpt lat="42.897524" lon="-5.688118">
        <ele>1132.655</ele>
        <time>1999-07-20T12:14:16Z</time>
      </trkpt>
      <trkpt lat="42.897538" lon="-5.688111">
        <ele>1132.842</ele>
        <time>1999-07-20T12:14:17Z</time>
      </trkpt>
      <trkpt lat="42.897578" lon="-5.688099">
        <ele>1133.822</ele>
        <time>1999-07-20T12:14:20Z</time>
      </trkpt>
      <trkpt lat="42.897623" lon="-5.688090">
        <ele>1134.414</ele>
        <time>1999-07-20T12:14:23Z</time>
      </trkpt>
      <trkpt lat="42.897663" lon="-5.688129">
        <ele>1135.008</ele>
        <time>1999-07-20T12:14:26Z</time>
      </trkpt>
      <trkpt lat="42.897681" lon="-5.688176">
        <ele>1135.477</ele>
        <time>1999-07-20T12:14:28Z</time>
      </trkpt>
      <trkpt lat="42.897729" lon="-5.688222">
        <ele>1136.022</ele>
        <time>1999-07-20T12:14:32Z</time>
      </trkpt>
      <trkpt lat="42.897758" lon="-5.688252">
        <ele>1136.452</ele>
        <time>1999-07-20T12:14:34Z</time>
      </trkpt>
      <trkpt lat="42.897799" lon="-5.688313">
        <ele>1137.060</ele>
        <time>1999-07-20T12:14:37Z</time>
      </trkpt>
      <trkpt lat="42.897828" lon="-5.688409">
        <ele>1137.628</ele>
        <time>1999-07-20T12:14:40Z</time>
      </trkpt>
      <trkpt lat="42.897844" lon="-5.688585">
        <ele>1138.214</ele>
        <time>1999-07-20T12:14:45Z</time>
      </trkpt>
      <trkpt lat="42.897849" lon="-5.688653">
        <ele>1138.491</ele>
        <time>1999-07-20T12:14:47Z</time>
      </trkpt>
      <trkpt lat="42.897855" lon="-5.688752">
        <ele>1138.826</ele>
        <time>1999-07-20T12:14:50Z</time>
      </trkpt>
      <trkpt lat="42.897863" lon="-5.688854">
        <ele>1139.225</ele>
        <time>1999-07-20T12:14:53Z</time>
      </trkpt>
      <trkpt lat="42.897868" lon="-5.688887">
        <ele>1139.426</ele>
        <time>1999-07-20T12:14:54Z</time>
      </trkpt>
      <trkpt lat="42.897879" lon="-5.688954">
        <ele>1139.808</ele>
        <time>1999-07-20T12:14:56Z</time>
      </trkpt>
      <trkpt lat="42.897909" lon="-5.689088">
        <ele>1140.408</ele>
        <time>1999-07-20T12:15:00Z</time>
      </trkpt>
      <trkpt lat="42.897974" lon="-5.689186">
        <ele>1140.885</ele>
        <time>1999-07-20T12:15:04Z</time>
      </trkpt>
      <trkpt lat="42.898063" lon="-5.689186">
        <ele>1141.060</ele>
        <time>1999-07-20T12:15:09Z</time>
      </trkpt>
      <trkpt lat="42.898115" lon="-5.689153">
        <ele>1141.610</ele>
        <time>1999-07-20T12:15:12Z</time>
      </trkpt>
      <trkpt lat="42.898173" lon="-5.689139">
        <ele>1142.878</ele>
        <time>1999-07-20T12:15:15Z</time>
      </trkpt>
      <trkpt lat="42.898193" lon="-5.689134">
        <ele>1143.026</ele>
        <time>1999-07-20T12:15:16Z</time>
      </trkpt>
      <trkpt lat="42.898248" lon="-5.689125">
        <ele>1143.882</ele>
        <time>1999-07-20T12:15:19Z</time>
      </trkpt>
      <trkpt lat="42.898318" lon="-5.689119">
        <ele>1145.099</ele>
        <time>1999-07-20T12:15:23Z</time>
      </trkpt>
      <trkpt lat="42.898355" lon="-5.689116">
        <ele>1145.494</ele>
        <time>1999-07-20T12:15:25Z</time>
      </trkpt>
      <trkpt lat="42.898410" lon="-5.689119">
        <ele>1146.254</ele>
        <time>1999-07-20T12:15:28Z</time>
      </trkpt>
      <trkpt lat="42.898476" lon="-5.689154">
        <ele>1146.856</ele>
        <time>1999-07-20T12:15:32Z</time>
      </trkpt>
      <trkpt lat="42.898507" lon="-5.689177">
        <ele>1147.211</ele>
        <time>1999-07-20T12:15:34Z</time>
      </trkpt>
      <trkpt lat="42.898593" lon="-5.689232">
        <ele>1148.408</ele>
        <time>1999-07-20T12:15:39Z</time>
      </trkpt>
      <trkpt lat="42.898642" lon="-5.689266">
        <ele>1149.248</ele>
        <time>1999-07-20T12:15:42Z</time>
      </trkpt>
      <trkpt lat="42.898657" lon="-5.689281">
        <ele>1149.443</ele>
        <time>1999-07-20T12:15:43Z</time>
      </trkpt>
      <trkpt lat="42.898746" lon="-5.689354">
        <ele>1150.643</ele>
        <time>1999-07-20T12:15:49Z</time>
      </trkpt>
      <trkpt lat="42.898777" lon="-5.689372">
        <ele>1151.481</ele>
        <time>1999-07-20T12:15:51Z</time>
      </trkpt>
      <trkpt lat="42.898807" lon="-5.689392">
        <ele>1151.869</ele>
        <time>1999-07-20T12:15:53Z</time>
      </trkpt>
      <trkpt lat="42.898860" lon="-5.689455">
        <ele>1152.855</ele>
        <time>1999-07-20T12:15:57Z</time>
      </trkpt>
      <trkpt lat="42.898882" lon="-5.689489">
        <ele>1153.452</ele>
        <time>1999-07-20T12:15:59Z</time>
      </trkpt>
      <trkpt lat="42.898894" lon="-5.689502">
        <ele>1153.477</ele>
        <time>1999-07-20T12:16:00Z</time>
      </trkpt>
      <trkpt lat="42.898922" lon="-5.689525">
        <ele>1154.291</ele>
        <time>1999-07-20T12:16:02Z</time>
      </trkpt>
      <trkpt lat="42.898946" lon="-5.689563">
        <ele>1154.881</ele>
        <time>1999-07-20T12:16:04Z</time>
      </trkpt>
      <trkpt lat="42.898960" lon="-5.689581">
        <ele>1155.219</ele>
        <time>1999-07-20T12:16:05Z</time>
      </trkpt>
      <trkpt lat="42.899018" lon="-5.689664">
        <ele>1156.608</ele>
        <time>1999-07-20T12:16:10Z</time>
      </trkpt>
      <trkpt lat="42.899042" lon="-5.689694">
        <ele>1156.892</ele>
        <time>1999-07-20T12:16:12Z</time>
      </trkpt>
      <trkpt lat="42.899105" lon="-5.689767">
        <ele>1157.837</ele>
        <time>1999-07-20T12:16:17Z</time>
      </trkpt>
      <trkpt lat="42.899139" lon="-5.689820">
        <ele>1158.897</ele>
        <time>1999-07-20T12:16:20Z</time>
      </trkpt>
      <trkpt lat="42.899151" lon="-5.689838">
        <ele>1159.035</ele>
        <time>1999-07-20T12:16:21Z</time>
      </trkpt>
      <trkpt lat="42.899192" lon="-5.689900">
        <ele>1160.253</ele>
        <time>1999-07-20T12:16:25Z</time>
      </trkpt>
      <trkpt lat="42.899238" lon="-5.689951">
        <ele>1161.479</ele>
        <time>1999-07-20T12:16:29Z</time>
      </trkpt>
      <trkpt lat="42.899293" lon="-5.689991">
        <ele>1162.416</ele>
        <time>1999-07-20T12:16:33Z</time>
      </trkpt>
      <trkpt lat="42.899329" lon="-5.690028">
        <ele>1163.621</ele>
        <time>1999-07-20T12:16:36Z</time>
      </trkpt>
      <trkpt lat="42.899339" lon="-5.690041">
        <ele>1163.879</ele>
        <time>1999-07-20T12:16:37Z</time>
      </trkpt>
      <trkpt lat="42.899366" lon="-5.690061">
        <ele>1164.605</ele>
        <time>1999-07-20T12:16:39Z</time>
      </trkpt>
      <trkpt lat="42.899415" lon="-5.690066">
        <ele>1165.625</ele>
        <time>1999-07-20T12:16:42Z</time>
      </trkpt>
      <trkpt lat="42.899432" lon="-5.690057">
        <ele>1165.808</ele>
        <time>1999-07-20T12:16:43Z</time>
      </trkpt>
      <trkpt lat="42.899498" lon="-5.690025">
        <ele>1167.070</ele>
        <time>1999-07-20T12:16:47Z</time>
      </trkpt>
      <trkpt lat="42.899579" lon="-5.689998">
        <ele>1168.245</ele>
        <time>1999-07-20T12:16:52Z</time>
      </trkpt>
      <trkpt lat="42.899654" lon="-5.689936">
        <ele>1169.455</ele>
        <time>1999-07-20T12:16:57Z</time>
      </trkpt>
      <trkpt lat="42.899699" lon="-5.689897">
        <ele>1170.273</ele>
        <time>1999-07-20T12:17:00Z</time>
      </trkpt>
      <trkpt lat="42.899727" lon="-5.689866">
        <ele>1170.681</ele>
        <time>1999-07-20T12:17:02Z</time>
      </trkpt>
      <trkpt lat="42.899779" lon="-5.689769">
        <ele>1171.867</ele>
        <time>1999-07-20T12:17:07Z</time>
      </trkpt>
      <trkpt lat="42.899793" lon="-5.689751">
        <ele>1171.864</ele>
        <time>1999-07-20T12:17:08Z</time>
      </trkpt>
      <trkpt lat="42.899857" lon="-5.689612">
        <ele>1172.859</ele>
        <time>1999-07-20T12:17:14Z</time>
      </trkpt>
      <trkpt lat="42.899925" lon="-5.689447">
        <ele>1173.652</ele>
        <time>1999-07-20T12:17:20Z</time>
      </trkpt>
      <trkpt lat="42.899949" lon="-5.689396">
        <ele>1173.853</ele>
        <time>1999-07-20T12:17:22Z</time>
      </trkpt>
      <trkpt lat="42.899959" lon="-5.689371">
        <ele>1173.808</ele>
        <time>1999-07-20T12:17:23Z</time>
      </trkpt>
      <trkpt lat="42.900037" lon="-5.689195">
        <ele>1174.608</ele>
        <time>1999-07-20T12:17:30Z</time>
      </trkpt>
      <trkpt lat="42.900048" lon="-5.689174">
        <ele>1174.858</ele>
        <time>1999-07-20T12:17:31Z</time>
      </trkpt>
      <trkpt lat="42.900059" lon="-5.689152">
        <ele>1175.053</ele>
        <time>1999-07-20T12:17:32Z</time>
      </trkpt>
      <trkpt lat="42.900134" lon="-5.689085">
        <ele>1175.613</ele>
        <time>1999-07-20T12:17:37Z</time>
      </trkpt>
      <trkpt lat="42.900148" lon="-5.689086">
        <ele>1175.811</ele>
        <time>1999-07-20T12:17:38Z</time>
      </trkpt>
      <trkpt lat="42.900168" lon="-5.689108">
        <ele>1176.429</ele>
        <time>1999-07-20T12:17:41Z</time>
      </trkpt>
      <trkpt lat="42.900168" lon="-5.689109">
        <ele>1176.875</ele>
        <time>1999-07-20T12:17:42Z</time>
      </trkpt>
      <trkpt lat="42.900168" lon="-5.689142">
        <ele>1179.412</ele>
        <time>1999-07-20T12:19:29Z</time>
      </trkpt>
      <trkpt lat="42.900165" lon="-5.689160">
        <ele>1179.467</ele>
        <time>1999-07-20T12:19:30Z</time>
      </trkpt>
      <trkpt lat="42.900163" lon="-5.689181">
        <ele>1179.475</ele>
        <time>1999-07-20T12:19:31Z</time>
      </trkpt>
      <trkpt lat="42.900167" lon="-5.689201">
        <ele>1179.428</ele>
        <time>1999-07-20T12:19:32Z</time>
      </trkpt>
      <trkpt lat="42.900173" lon="-5.689214">
        <ele>1179.420</ele>
        <time>1999-07-20T12:19:33Z</time>
      </trkpt>
      <trkpt lat="42.900173" lon="-5.689226">
        <ele>1179.408</ele>
        <time>1999-07-20T12:19:35Z</time>
      </trkpt>
      <trkpt lat="42.900386" lon="-5.689409">
        <ele>1184.020</ele>
        <time>1999-07-20T12:20:41Z</time>
      </trkpt>
      <trkpt lat="42.900399" lon="-5.689418">
        <ele>1184.065</ele>
        <time>1999-07-20T12:20:42Z</time>
      </trkpt>
      <trkpt lat="42.900476" lon="-5.689456">
        <ele>1184.415</ele>
        <time>1999-07-20T12:20:48Z</time>
      </trkpt>
      <trkpt lat="42.900518" lon="-5.689478">
        <ele>1185.243</ele>
        <time>1999-07-20T12:20:51Z</time>
      </trkpt>
      <trkpt lat="42.900562" lon="-5.689491">
        <ele>1186.091</ele>
        <time>1999-07-20T12:20:54Z</time>
      </trkpt>
      <trkpt lat="42.900578" lon="-5.689494">
        <ele>1186.417</ele>
        <time>1999-07-20T12:20:55Z</time>
      </trkpt>
      <trkpt lat="42.900608" lon="-5.689498">
        <ele>1186.884</ele>
        <time>1999-07-20T12:20:57Z</time>
      </trkpt>
      <trkpt lat="42.900636" lon="-5.689500">
        <ele>1187.629</ele>
        <time>1999-07-20T12:20:59Z</time>
      </trkpt>
      <trkpt lat="42.900680" lon="-5.689509">
        <ele>1188.611</ele>
        <time>1999-07-20T12:21:02Z</time>
      </trkpt>
      <trkpt lat="42.900696" lon="-5.689510">
        <ele>1189.021</ele>
        <time>1999-07-20T12:21:03Z</time>
      </trkpt>
      <trkpt lat="42.900739" lon="-5.689517">
        <ele>1189.803</ele>
        <time>1999-07-20T12:21:06Z</time>
      </trkpt>
      <trkpt lat="42.900754" lon="-5.689512">
        <ele>1190.208</ele>
        <time>1999-07-20T12:21:07Z</time>
      </trkpt>
      <trkpt lat="42.900783" lon="-5.689502">
        <ele>1190.854</ele>
        <time>1999-07-20T12:21:09Z</time>
      </trkpt>
      <trkpt lat="42.900800" lon="-5.689497">
        <ele>1191.069</ele>
        <time>1999-07-20T12:21:10Z</time>
      </trkpt>
      <trkpt lat="42.900852" lon="-5.689473">
        <ele>1192.429</ele>
        <time>1999-07-20T12:21:14Z</time>
      </trkpt>
      <trkpt lat="42.900892" lon="-5.689451">
        <ele>1193.277</ele>
        <time>1999-07-20T12:21:17Z</time>
      </trkpt>
      <trkpt lat="42.900906" lon="-5.689443">
        <ele>1193.625</ele>
        <time>1999-07-20T12:21:18Z</time>
      </trkpt>
      <trkpt lat="42.900964" lon="-5.689411">
        <ele>1194.681</ele>
        <time>1999-07-20T12:21:22Z</time>
      </trkpt>
      <trkpt lat="42.900979" lon="-5.689403">
        <ele>1194.828</ele>
        <time>1999-07-20T12:21:23Z</time>
      </trkpt>
      <trkpt lat="42.901037" lon="-5.689376">
        <ele>1195.853</ele>
        <time>1999-07-20T12:21:27Z</time>
      </trkpt>
      <trkpt lat="42.901050" lon="-5.689370">
        <ele>1196.277</ele>
        <time>1999-07-20T12:21:28Z</time>
      </trkpt>
      <trkpt lat="42.901113" lon="-5.689334">
        <ele>1197.461</ele>
        <time>1999-07-20T12:21:33Z</time>
      </trkpt>
      <trkpt lat="42.901125" lon="-5.689327">
        <ele>1197.627</ele>
        <time>1999-07-20T12:21:34Z</time>
      </trkpt>
      <trkpt lat="42.901168" lon="-5.689306">
        <ele>1198.608</ele>
        <time>1999-07-20T12:21:37Z</time>
      </trkpt>
      <trkpt lat="42.901224" lon="-5.689285">
        <ele>1199.650</ele>
        <time>1999-07-20T12:21:41Z</time>
      </trkpt>
      <trkpt lat="42.901236" lon="-5.689282">
        <ele>1200.015</ele>
        <time>1999-07-20T12:21:42Z</time>
      </trkpt>
      <trkpt lat="42.901293" lon="-5.689268">
        <ele>1201.095</ele>
        <time>1999-07-20T12:21:46Z</time>
      </trkpt>
      <trkpt lat="42.901349" lon="-5.689244">
        <ele>1202.013</ele>
        <time>1999-07-20T12:21:50Z</time>
      </trkpt>
      <trkpt lat="42.901362" lon="-5.689241">
        <ele>1202.211</ele>
        <time>1999-07-20T12:21:51Z</time>
      </trkpt>
      <trkpt lat="42.901454" lon="-5.689197">
        <ele>1203.247</ele>
        <time>1999-07-20T12:21:58Z</time>
      </trkpt>
      <trkpt lat="42.901496" lon="-5.689177">
        <ele>1204.284</ele>
        <time>1999-07-20T12:22:01Z</time>
      </trkpt>
      <trkpt lat="42.901561" lon="-5.689150">
        <ele>1205.449</ele>
        <time>1999-07-20T12:22:06Z</time>
      </trkpt>
      <trkpt lat="42.901612" lon="-5.689126">
        <ele>1207.219</ele>
        <time>1999-07-20T12:22:10Z</time>
      </trkpt>
      <trkpt lat="42.901649" lon="-5.689103">
        <ele>1208.209</ele>
        <time>1999-07-20T12:22:13Z</time>
      </trkpt>
      <trkpt lat="42.901660" lon="-5.689097">
        <ele>1208.619</ele>
        <time>1999-07-20T12:22:14Z</time>
      </trkpt>
      <trkpt lat="42.901684" lon="-5.689086">
        <ele>1209.408</ele>
        <time>1999-07-20T12:22:16Z</time>
      </trkpt>
      <trkpt lat="42.901718" lon="-5.689073">
        <ele>1210.414</ele>
        <time>1999-07-20T12:22:19Z</time>
      </trkpt>
      <trkpt lat="42.901740" lon="-5.689061">
        <ele>1211.279</ele>
        <time>1999-07-20T12:22:21Z</time>
      </trkpt>
      <trkpt lat="42.901752" lon="-5.689057">
        <ele>1211.859</ele>
        <time>1999-07-20T12:22:22Z</time>
      </trkpt>
      <trkpt lat="42.901787" lon="-5.689041">
        <ele>1213.037</ele>
        <time>1999-07-20T12:22:25Z</time>
      </trkpt>
      <trkpt lat="42.901830" lon="-5.689023">
        <ele>1214.255</ele>
        <time>1999-07-20T12:22:29Z</time>
      </trkpt>
      <trkpt lat="42.901863" lon="-5.689013">
        <ele>1214.811</ele>
        <time>1999-07-20T12:22:32Z</time>
      </trkpt>
      <trkpt lat="42.901875" lon="-5.689013">
        <ele>1215.448</ele>
        <time>1999-07-20T12:22:33Z</time>
      </trkpt>
      <trkpt lat="42.901914" lon="-5.689006">
        <ele>1216.693</ele>
        <time>1999-07-20T12:22:36Z</time>
      </trkpt>
      <trkpt lat="42.901963" lon="-5.688976">
        <ele>1218.038</ele>
        <time>1999-07-20T12:22:40Z</time>
      </trkpt>
      <trkpt lat="42.901993" lon="-5.688943">
        <ele>1218.870</ele>
        <time>1999-07-20T12:22:43Z</time>
      </trkpt>
      <trkpt lat="42.902004" lon="-5.688937">
        <ele>1219.217</ele>
        <time>1999-07-20T12:22:44Z</time>
      </trkpt>
      <trkpt lat="42.902041" lon="-5.688908">
        <ele>1220.408</ele>
        <time>1999-07-20T12:22:47Z</time>
      </trkpt>
      <trkpt lat="42.902067" lon="-5.688871">
        <ele>1220.646</ele>
        <time>1999-07-20T12:22:50Z</time>
      </trkpt>
      <trkpt lat="42.902087" lon="-5.688854">
        <ele>1221.481</ele>
        <time>1999-07-20T12:22:52Z</time>
      </trkpt>
      <trkpt lat="42.902132" lon="-5.688825">
        <ele>1222.661</ele>
        <time>1999-07-20T12:22:56Z</time>
      </trkpt>
      <trkpt lat="42.902146" lon="-5.688815">
        <ele>1222.889</ele>
        <time>1999-07-20T12:22:57Z</time>
      </trkpt>
      <trkpt lat="42.902206" lon="-5.688777">
        <ele>1223.887</ele>
        <time>1999-07-20T12:23:02Z</time>
      </trkpt>
      <trkpt lat="42.902221" lon="-5.688771">
        <ele>1224.043</ele>
        <time>1999-07-20T12:23:03Z</time>
      </trkpt>
      <trkpt lat="42.902301" lon="-5.688750">
        <ele>1224.810</ele>
        <time>1999-07-20T12:23:08Z</time>
      </trkpt>
      <trkpt lat="42.902365" lon="-5.688745">
        <ele>1225.685</ele>
        <time>1999-07-20T12:23:12Z</time>
      </trkpt>
      <trkpt lat="42.902381" lon="-5.688742">
        <ele>1226.074</ele>
        <time>1999-07-20T12:23:13Z</time>
      </trkpt>
      <trkpt lat="42.902450" lon="-5.688702">
        <ele>1226.856</ele>
        <time>1999-07-20T12:23:18Z</time>
      </trkpt>
      <trkpt lat="42.902477" lon="-5.688679">
        <ele>1227.221</ele>
        <time>1999-07-20T12:23:20Z</time>
      </trkpt>
      <trkpt lat="42.902507" lon="-5.688656">
        <ele>1227.808</ele>
        <time>1999-07-20T12:23:22Z</time>
      </trkpt>
      <trkpt lat="42.902564" lon="-5.688596">
        <ele>1228.690</ele>
        <time>1999-07-20T12:23:26Z</time>
      </trkpt>
      <trkpt lat="42.902579" lon="-5.688581">
        <ele>1228.895</ele>
        <time>1999-07-20T12:23:27Z</time>
      </trkpt>
      <trkpt lat="42.902676" lon="-5.688513">
        <ele>1229.695</ele>
        <time>1999-07-20T12:23:33Z</time>
      </trkpt>
      <trkpt lat="42.902730" lon="-5.688491">
        <ele>1229.863</ele>
        <time>1999-07-20T12:23:36Z</time>
      </trkpt>
      <trkpt lat="42.902815" lon="-5.688473">
        <ele>1230.491</ele>
        <time>1999-07-20T12:23:41Z</time>
      </trkpt>
      <trkpt lat="42.902874" lon="-5.688478">
        <ele>1231.027</ele>
        <time>1999-07-20T12:23:45Z</time>
      </trkpt>
      <trkpt lat="42.902926" lon="-5.688476">
        <ele>1232.054</ele>
        <time>1999-07-20T12:23:49Z</time>
      </trkpt>
      <trkpt lat="42.902938" lon="-5.688476">
        <ele>1232.219</ele>
        <time>1999-07-20T12:23:50Z</time>
      </trkpt>
      <trkpt lat="42.902975" lon="-5.688471">
        <ele>1233.283</ele>
        <time>1999-07-20T12:23:53Z</time>
      </trkpt>
      <trkpt lat="42.903014" lon="-5.688472">
        <ele>1234.425</ele>
        <time>1999-07-20T12:23:56Z</time>
      </trkpt>
      <trkpt lat="42.903026" lon="-5.688471">
        <ele>1234.817</ele>
        <time>1999-07-20T12:23:57Z</time>
      </trkpt>
      <trkpt lat="42.903048" lon="-5.688454">
        <ele>1235.408</ele>
        <time>1999-07-20T12:23:59Z</time>
      </trkpt>
      <trkpt lat="42.903068" lon="-5.688442">
        <ele>1236.021</ele>
        <time>1999-07-20T12:24:01Z</time>
      </trkpt>
      <trkpt lat="42.903088" lon="-5.688451">
        <ele>1236.696</ele>
        <time>1999-07-20T12:24:03Z</time>
      </trkpt>
      <trkpt lat="42.903112" lon="-5.688457">
        <ele>1237.416</ele>
        <time>1999-07-20T12:24:05Z</time>
      </trkpt>
      <trkpt lat="42.903122" lon="-5.688454">
        <ele>1237.874</ele>
        <time>1999-07-20T12:24:06Z</time>
      </trkpt>
      <trkpt lat="42.903146" lon="-5.688441">
        <ele>1238.882</ele>
        <time>1999-07-20T12:24:08Z</time>
      </trkpt>
      <trkpt lat="42.903196" lon="-5.688415">
        <ele>1239.888</ele>
        <time>1999-07-20T12:24:12Z</time>
      </trkpt>
      <trkpt lat="42.903209" lon="-5.688411">
        <ele>1240.225</ele>
        <time>1999-07-20T12:24:13Z</time>
      </trkpt>
      <trkpt lat="42.903238" lon="-5.688404">
        <ele>1240.850</ele>
        <time>1999-07-20T12:24:15Z</time>
      </trkpt>
      <trkpt lat="42.903256" lon="-5.688398">
        <ele>1241.078</ele>
        <time>1999-07-20T12:24:16Z</time>
      </trkpt>
      <trkpt lat="42.903319" lon="-5.688375">
        <ele>1242.233</ele>
        <time>1999-07-20T12:24:19Z</time>
      </trkpt>
      <trkpt lat="42.903345" lon="-5.688362">
        <ele>1242.226</ele>
        <time>1999-07-20T12:24:20Z</time>
      </trkpt>
      <trkpt lat="42.903501" lon="-5.688249">
        <ele>1242.408</ele>
        <time>1999-07-20T12:24:25Z</time>
      </trkpt>
      <trkpt lat="42.903564" lon="-5.688160">
        <ele>1242.420</ele>
        <time>1999-07-20T12:24:29Z</time>
      </trkpt>
      <trkpt lat="42.903571" lon="-5.688022">
        <ele>1242.655</ele>
        <time>1999-07-20T12:24:35Z</time>
      </trkpt>
      <trkpt lat="42.903563" lon="-5.687993">
        <ele>1242.815</ele>
        <time>1999-07-20T12:24:36Z</time>
      </trkpt>
      <trkpt lat="42.903548" lon="-5.687928">
        <ele>1243.033</ele>
        <time>1999-07-20T12:24:38Z</time>
      </trkpt>
      <trkpt lat="42.903522" lon="-5.687784">
        <ele>1243.881</ele>
        <time>1999-07-20T12:24:42Z</time>
      </trkpt>
      <trkpt lat="42.903526" lon="-5.687743">
        <ele>1244.017</ele>
        <time>1999-07-20T12:24:43Z</time>
      </trkpt>
      <trkpt lat="42.903537" lon="-5.687705">
        <ele>1244.254</ele>
        <time>1999-07-20T12:24:44Z</time>
      </trkpt>
      <trkpt lat="42.903602" lon="-5.687575">
        <ele>1244.669</ele>
        <time>1999-07-20T12:24:48Z</time>
      </trkpt>
      <trkpt lat="42.903743" lon="-5.687455">
        <ele>1245.021</ele>
        <time>1999-07-20T12:24:55Z</time>
      </trkpt>
      <trkpt lat="42.903777" lon="-5.687435">
        <ele>1245.241</ele>
        <time>1999-07-20T12:24:57Z</time>
      </trkpt>
      <trkpt lat="42.903834" lon="-5.687404">
        <ele>1246.005</ele>
        <time>1999-07-20T12:25:01Z</time>
      </trkpt>
      <trkpt lat="42.903851" lon="-5.687394">
        <ele>1246.408</ele>
        <time>1999-07-20T12:25:02Z</time>
      </trkpt>
      <trkpt lat="42.903931" lon="-5.687339">
        <ele>1247.475</ele>
        <time>1999-07-20T12:25:07Z</time>
      </trkpt>
      <trkpt lat="42.904005" lon="-5.687291">
        <ele>1248.620</ele>
        <time>1999-07-20T12:25:12Z</time>
      </trkpt>
      <trkpt lat="42.904036" lon="-5.687273">
        <ele>1249.040</ele>
        <time>1999-07-20T12:25:14Z</time>
      </trkpt>
      <trkpt lat="42.904132" lon="-5.687219">
        <ele>1249.648</ele>
        <time>1999-07-20T12:25:19Z</time>
      </trkpt>
      <trkpt lat="42.904171" lon="-5.687195">
        <ele>1249.856</ele>
        <time>1999-07-20T12:25:21Z</time>
      </trkpt>
      <trkpt lat="42.904295" lon="-5.687143">
        <ele>1250.462</ele>
        <time>1999-07-20T12:25:27Z</time>
      </trkpt>
      <trkpt lat="42.904335" lon="-5.687124">
        <ele>1250.879</ele>
        <time>1999-07-20T12:25:29Z</time>
      </trkpt>
      <trkpt lat="42.904354" lon="-5.687114">
        <ele>1251.074</ele>
        <time>1999-07-20T12:25:30Z</time>
      </trkpt>
      <trkpt lat="42.904424" lon="-5.687094">
        <ele>1252.029</ele>
        <time>1999-07-20T12:25:34Z</time>
      </trkpt>
      <trkpt lat="42.904459" lon="-5.687093">
        <ele>1252.200</ele>
        <time>1999-07-20T12:25:36Z</time>
      </trkpt>
      <trkpt lat="42.904537" lon="-5.687115">
        <ele>1253.020</ele>
        <time>1999-07-20T12:25:41Z</time>
      </trkpt>
      <trkpt lat="42.904568" lon="-5.687115">
        <ele>1253.208</ele>
        <time>1999-07-20T12:25:43Z</time>
      </trkpt>
      <trkpt lat="42.904600" lon="-5.687118">
        <ele>1254.295</ele>
        <time>1999-07-20T12:25:45Z</time>
      </trkpt>
      <trkpt lat="42.904665" lon="-5.687146">
        <ele>1254.820</ele>
        <time>1999-07-20T12:25:49Z</time>
      </trkpt>
      <trkpt lat="42.904697" lon="-5.687153">
        <ele>1255.240</ele>
        <time>1999-07-20T12:25:51Z</time>
      </trkpt>
      <trkpt lat="42.904785" lon="-5.687204">
        <ele>1256.288</ele>
        <time>1999-07-20T12:25:57Z</time>
      </trkpt>
      <trkpt lat="42.904797" lon="-5.687218">
        <ele>1256.456</ele>
        <time>1999-07-20T12:25:58Z</time>
      </trkpt>
      <trkpt lat="42.904864" lon="-5.687271">
        <ele>1257.442</ele>
        <time>1999-07-20T12:26:03Z</time>
      </trkpt>
      <trkpt lat="42.904892" lon="-5.687281">
        <ele>1257.839</ele>
        <time>1999-07-20T12:26:05Z</time>
      </trkpt>
      <trkpt lat="42.904936" lon="-5.687285">
        <ele>1258.414</ele>
        <time>1999-07-20T12:26:08Z</time>
      </trkpt>
      <trkpt lat="42.904994" lon="-5.687276">
        <ele>1259.238</ele>
        <time>1999-07-20T12:26:12Z</time>
      </trkpt>
      <trkpt lat="42.905009" lon="-5.687274">
        <ele>1259.670</ele>
        <time>1999-07-20T12:26:13Z</time>
      </trkpt>
      <trkpt lat="42.905069" lon="-5.687267">
        <ele>1260.817</ele>
        <time>1999-07-20T12:26:17Z</time>
      </trkpt>
      <trkpt lat="42.905095" lon="-5.687258">
        <ele>1261.208</ele>
        <time>1999-07-20T12:26:19Z</time>
      </trkpt>
      <trkpt lat="42.905137" lon="-5.687247">
        <ele>1261.816</ele>
        <time>1999-07-20T12:26:22Z</time>
      </trkpt>
      <trkpt lat="42.905194" lon="-5.687226">
        <ele>1262.811</ele>
        <time>1999-07-20T12:26:26Z</time>
      </trkpt>
      <trkpt lat="42.905210" lon="-5.687225">
        <ele>1263.431</ele>
        <time>1999-07-20T12:26:27Z</time>
      </trkpt>
      <trkpt lat="42.905269" lon="-5.687205">
        <ele>1264.479</ele>
        <time>1999-07-20T12:26:31Z</time>
      </trkpt>
      <trkpt lat="42.905328" lon="-5.687192">
        <ele>1265.497</ele>
        <time>1999-07-20T12:26:35Z</time>
      </trkpt>
      <trkpt lat="42.905397" lon="-5.687165">
        <ele>1266.653</ele>
        <time>1999-07-20T12:26:40Z</time>
      </trkpt>
      <trkpt lat="42.905441" lon="-5.687169">
        <ele>1267.460</ele>
        <time>1999-07-20T12:26:43Z</time>
      </trkpt>
      <trkpt lat="42.905455" lon="-5.687173">
        <ele>1267.865</ele>
        <time>1999-07-20T12:26:44Z</time>
      </trkpt>
      <trkpt lat="42.905513" lon="-5.687186">
        <ele>1268.848</ele>
        <time>1999-07-20T12:26:48Z</time>
      </trkpt>
      <trkpt lat="42.905567" lon="-5.687162">
        <ele>1269.661</ele>
        <time>1999-07-20T12:26:52Z</time>
      </trkpt>
      <trkpt lat="42.905577" lon="-5.687142">
        <ele>1270.017</ele>
        <time>1999-07-20T12:26:53Z</time>
      </trkpt>
      <trkpt lat="42.905594" lon="-5.687103">
        <ele>1271.008</ele>
        <time>1999-07-20T12:26:55Z</time>
      </trkpt>
      <trkpt lat="42.905625" lon="-5.687052">
        <ele>1272.287</ele>
        <time>1999-07-20T12:26:58Z</time>
      </trkpt>
      <trkpt lat="42.905639" lon="-5.687041">
        <ele>1272.442</ele>
        <time>1999-07-20T12:26:59Z</time>
      </trkpt>
      <trkpt lat="42.905667" lon="-5.687029">
        <ele>1273.262</ele>
        <time>1999-07-20T12:27:01Z</time>
      </trkpt>
      <trkpt lat="42.905721" lon="-5.687010">
        <ele>1274.270</ele>
        <time>1999-07-20T12:27:05Z</time>
      </trkpt>
      <trkpt lat="42.905747" lon="-5.687010">
        <ele>1274.698</ele>
        <time>1999-07-20T12:27:07Z</time>
      </trkpt>
      <trkpt lat="42.905771" lon="-5.687017">
        <ele>1275.274</ele>
        <time>1999-07-20T12:27:09Z</time>
      </trkpt>
      <trkpt lat="42.905809" lon="-5.687057">
        <ele>1276.281</ele>
        <time>1999-07-20T12:27:14Z</time>
      </trkpt>
      <trkpt lat="42.905822" lon="-5.687063">
        <ele>1277.026</ele>
        <time>1999-07-20T12:27:17Z</time>
      </trkpt>
      <trkpt lat="42.906832" lon="-5.687570">
        <ele>1300.097</ele>
        <time>1999-07-20T12:32:28Z</time>
      </trkpt>
      <trkpt lat="42.906849" lon="-5.687578">
        <ele>1300.223</ele>
        <time>1999-07-20T12:32:29Z</time>
      </trkpt>
      <trkpt lat="42.906898" lon="-5.687613">
        <ele>1300.225</ele>
        <time>1999-07-20T12:32:32Z</time>
      </trkpt>
      <trkpt lat="42.906953" lon="-5.687634">
        <ele>1300.608</ele>
        <time>1999-07-20T12:32:35Z</time>
      </trkpt>
      <trkpt lat="42.907009" lon="-5.687663">
        <ele>1301.082</ele>
        <time>1999-07-20T12:32:38Z</time>
      </trkpt>
      <trkpt lat="42.907068" lon="-5.687722">
        <ele>1301.647</ele>
        <time>1999-07-20T12:32:42Z</time>
      </trkpt>
      <trkpt lat="42.907130" lon="-5.687784">
        <ele>1302.287</ele>
        <time>1999-07-20T12:32:47Z</time>
      </trkpt>
      <trkpt lat="42.907145" lon="-5.687792">
        <ele>1302.415</ele>
        <time>1999-07-20T12:32:48Z</time>
      </trkpt>
      <trkpt lat="42.907210" lon="-5.687833">
        <ele>1303.043</ele>
        <time>1999-07-20T12:32:52Z</time>
      </trkpt>
      <trkpt lat="42.907250" lon="-5.687874">
        <ele>1303.239</ele>
        <time>1999-07-20T12:32:55Z</time>
      </trkpt>
      <trkpt lat="42.907283" lon="-5.687915">
        <ele>1303.646</ele>
        <time>1999-07-20T12:32:58Z</time>
      </trkpt>
      <trkpt lat="42.907321" lon="-5.687957">
        <ele>1304.081</ele>
        <time>1999-07-20T12:33:01Z</time>
      </trkpt>
      <trkpt lat="42.907347" lon="-5.687989">
        <ele>1304.293</ele>
        <time>1999-07-20T12:33:03Z</time>
      </trkpt>
      <trkpt lat="42.907373" lon="-5.688049">
        <ele>1304.665</ele>
        <time>1999-07-20T12:33:06Z</time>
      </trkpt>
      <trkpt lat="42.907379" lon="-5.688094">
        <ele>1305.021</ele>
        <time>1999-07-20T12:33:08Z</time>
      </trkpt>
      <trkpt lat="42.907384" lon="-5.688134">
        <ele>1305.208</ele>
        <time>1999-07-20T12:33:10Z</time>
      </trkpt>
      <trkpt lat="42.907417" lon="-5.688274">
        <ele>1306.272</ele>
        <time>1999-07-20T12:33:17Z</time>
      </trkpt>
      <trkpt lat="42.907439" lon="-5.688373">
        <ele>1307.497</ele>
        <time>1999-07-20T12:33:21Z</time>
      </trkpt>
      <trkpt lat="42.907465" lon="-5.688455">
        <ele>1308.067</ele>
        <time>1999-07-20T12:33:24Z</time>
      </trkpt>
      <trkpt lat="42.907497" lon="-5.688508">
        <ele>1308.435</ele>
        <time>1999-07-20T12:33:26Z</time>
      </trkpt>
      <trkpt lat="42.907590" lon="-5.688634">
        <ele>1308.633</ele>
        <time>1999-07-20T12:33:29Z</time>
      </trkpt>
      <trkpt lat="42.907714" lon="-5.688792">
        <ele>1308.639</ele>
        <time>1999-07-20T12:33:33Z</time>
      </trkpt>
      <trkpt lat="42.907766" lon="-5.688828">
        <ele>1308.626</ele>
        <time>1999-07-20T12:33:35Z</time>
      </trkpt>
      <trkpt lat="42.907888" lon="-5.688833">
        <ele>1308.451</ele>
        <time>1999-07-20T12:33:41Z</time>
      </trkpt>
      <trkpt lat="42.908007" lon="-5.688776">
        <ele>1309.436</ele>
        <time>1999-07-20T12:33:48Z</time>
      </trkpt>
      <trkpt lat="42.908086" lon="-5.688752">
        <ele>1310.417</ele>
        <time>1999-07-20T12:33:53Z</time>
      </trkpt>
      <trkpt lat="42.908116" lon="-5.688759">
        <ele>1310.818</ele>
        <time>1999-07-20T12:33:55Z</time>
      </trkpt>
      <trkpt lat="42.908170" lon="-5.688750">
        <ele>1311.408</ele>
        <time>1999-07-20T12:33:59Z</time>
      </trkpt>
      <trkpt lat="42.908205" lon="-5.688740">
        <ele>1312.026</ele>
        <time>1999-07-20T12:34:02Z</time>
      </trkpt>
      <trkpt lat="42.908231" lon="-5.688729">
        <ele>1312.641</ele>
        <time>1999-07-20T12:34:04Z</time>
      </trkpt>
      <trkpt lat="42.908288" lon="-5.688715">
        <ele>1313.661</ele>
        <time>1999-07-20T12:34:08Z</time>
      </trkpt>
      <trkpt lat="42.908338" lon="-5.688679">
        <ele>1313.819</ele>
        <time>1999-07-20T12:34:12Z</time>
      </trkpt>
      <trkpt lat="42.908348" lon="-5.688660">
        <ele>1314.497</ele>
        <time>1999-07-20T12:34:14Z</time>
      </trkpt>
      <trkpt lat="42.908380" lon="-5.688623">
        <ele>1315.443</ele>
        <time>1999-07-20T12:34:17Z</time>
      </trkpt>
      <trkpt lat="42.908404" lon="-5.688575">
        <ele>1316.060</ele>
        <time>1999-07-20T12:34:20Z</time>
      </trkpt>
      <trkpt lat="42.908450" lon="-5.688516">
        <ele>1316.635</ele>
        <time>1999-07-20T12:34:24Z</time>
      </trkpt>
      <trkpt lat="42.908487" lon="-5.688480">
        <ele>1317.241</ele>
        <time>1999-07-20T12:34:27Z</time>
      </trkpt>
      <trkpt lat="42.908513" lon="-5.688457">
        <ele>1317.681</ele>
        <time>1999-07-20T12:34:29Z</time>
      </trkpt>
      <trkpt lat="42.908600" lon="-5.688414">
        <ele>1318.609</ele>
        <time>1999-07-20T12:34:35Z</time>
      </trkpt>
      <trkpt lat="42.908688" lon="-5.688375">
        <ele>1319.608</ele>
        <time>1999-07-20T12:34:41Z</time>
      </trkpt>
      <trkpt lat="42.908699" lon="-5.688369">
        <ele>1320.057</ele>
        <time>1999-07-20T12:34:42Z</time>
      </trkpt>
      <trkpt lat="42.908774" lon="-5.688349">
        <ele>1321.072</ele>
        <time>1999-07-20T12:34:48Z</time>
      </trkpt>
      <trkpt lat="42.908787" lon="-5.688339">
        <ele>1321.212</ele>
        <time>1999-07-20T12:34:49Z</time>
      </trkpt>
      <trkpt lat="42.908848" lon="-5.688285">
        <ele>1322.240</ele>
        <time>1999-07-20T12:34:54Z</time>
      </trkpt>
      <trkpt lat="42.908860" lon="-5.688271">
        <ele>1322.488</ele>
        <time>1999-07-20T12:34:55Z</time>
      </trkpt>
      <trkpt lat="42.908907" lon="-5.688225">
        <ele>1323.064</ele>
        <time>1999-07-20T12:34:58Z</time>
      </trkpt>
      <trkpt lat="42.908940" lon="-5.688188">
        <ele>1323.451</ele>
        <time>1999-07-20T12:35:00Z</time>
      </trkpt>
      <trkpt lat="42.908961" lon="-5.688166">
        <ele>1323.646</ele>
        <time>1999-07-20T12:35:01Z</time>
      </trkpt>
      <trkpt lat="42.909108" lon="-5.688014">
        <ele>1324.439</ele>
        <time>1999-07-20T12:35:08Z</time>
      </trkpt>
      <trkpt lat="42.909127" lon="-5.687992">
        <ele>1324.401</ele>
        <time>1999-07-20T12:35:09Z</time>
      </trkpt>
      <trkpt lat="42.909210" lon="-5.687930">
        <ele>1325.021</ele>
        <time>1999-07-20T12:35:14Z</time>
      </trkpt>
      <trkpt lat="42.909282" lon="-5.687858">
        <ele>1325.608</ele>
        <time>1999-07-20T12:35:19Z</time>
      </trkpt>
      <trkpt lat="42.909320" lon="-5.687818">
        <ele>1326.216</ele>
        <time>1999-07-20T12:35:21Z</time>
      </trkpt>
      <trkpt lat="42.909358" lon="-5.687788">
        <ele>1326.661</ele>
        <time>1999-07-20T12:35:23Z</time>
      </trkpt>
      <trkpt lat="42.909414" lon="-5.687735">
        <ele>1327.031</ele>
        <time>1999-07-20T12:35:27Z</time>
      </trkpt>
      <trkpt lat="42.909441" lon="-5.687699">
        <ele>1327.299</ele>
        <time>1999-07-20T12:35:29Z</time>
      </trkpt>
      <trkpt lat="42.909458" lon="-5.687687">
        <ele>1327.467</ele>
        <time>1999-07-20T12:35:30Z</time>
      </trkpt>
      <trkpt lat="42.909485" lon="-5.687653">
        <ele>1327.863</ele>
        <time>1999-07-20T12:35:32Z</time>
      </trkpt>
      <trkpt lat="42.909500" lon="-5.687638">
        <ele>1327.880</ele>
        <time>1999-07-20T12:35:33Z</time>
      </trkpt>
      <trkpt lat="42.909596" lon="-5.687537">
        <ele>1328.485</ele>
        <time>1999-07-20T12:35:40Z</time>
      </trkpt>
      <trkpt lat="42.909608" lon="-5.687525">
        <ele>1328.633</ele>
        <time>1999-07-20T12:35:41Z</time>
      </trkpt>
      <trkpt lat="42.909642" lon="-5.687501">
        <ele>1328.823</ele>
        <time>1999-07-20T12:35:46Z</time>
      </trkpt>
      <trkpt lat="42.909834" lon="-5.687517">
        <ele>1332.215</ele>
        <time>1999-07-20T12:37:48Z</time>
      </trkpt>
      <trkpt lat="42.909849" lon="-5.687527">
        <ele>1332.408</ele>
        <time>1999-07-20T12:37:49Z</time>
      </trkpt>
      <trkpt lat="42.909873" lon="-5.687551">
        <ele>1332.646</ele>
        <time>1999-07-20T12:37:51Z</time>
      </trkpt>
      <trkpt lat="42.909878" lon="-5.687555">
        <ele>1333.041</ele>
        <time>1999-07-20T12:37:53Z</time>
      </trkpt>
      <trkpt lat="42.910465" lon="-5.687538">
        <ele>1347.281</ele>
        <time>1999-07-20T12:39:21Z</time>
      </trkpt>
      <trkpt lat="42.910475" lon="-5.687537">
        <ele>1347.229</ele>
        <time>1999-07-20T12:39:22Z</time>
      </trkpt>
      <trkpt lat="42.910538" lon="-5.687563">
        <ele>1347.847</ele>
        <time>1999-07-20T12:39:28Z</time>
      </trkpt>
      <trkpt lat="42.910557" lon="-5.687587">
        <ele>1348.033</ele>
        <time>1999-07-20T12:39:31Z</time>
      </trkpt>
      <trkpt lat="42.910568" lon="-5.687612">
        <ele>1348.260</ele>
        <time>1999-07-20T12:39:33Z</time>
      </trkpt>
      <trkpt lat="42.910567" lon="-5.687625">
        <ele>1348.215</ele>
        <time>1999-07-20T12:39:34Z</time>
      </trkpt>
      <trkpt lat="42.910566" lon="-5.687639">
        <ele>1348.246</ele>
        <time>1999-07-20T12:39:35Z</time>
      </trkpt>
      <trkpt lat="42.910575" lon="-5.687723">
        <ele>1349.288</ele>
        <time>1999-07-20T12:39:41Z</time>
      </trkpt>
      <trkpt lat="42.910584" lon="-5.687747">
        <ele>1349.416</ele>
        <time>1999-07-20T12:39:43Z</time>
      </trkpt>
      <trkpt lat="42.910616" lon="-5.687784">
        <ele>1349.808</ele>
        <time>1999-07-20T12:39:47Z</time>
      </trkpt>
      <trkpt lat="42.910627" lon="-5.687810">
        <ele>1350.457</ele>
        <time>1999-07-20T12:39:49Z</time>
      </trkpt>
      <trkpt lat="42.910635" lon="-5.687843">
        <ele>1350.852</ele>
        <time>1999-07-20T12:39:53Z</time>
      </trkpt>
      <trkpt lat="42.910665" lon="-5.687908">
        <ele>1351.662</ele>
        <time>1999-07-20T12:40:07Z</time>
      </trkpt>
      <trkpt lat="42.910711" lon="-5.688092">
        <ele>1351.820</ele>
        <time>1999-07-20T12:40:15Z</time>
      </trkpt>
      <trkpt lat="42.910719" lon="-5.688243">
        <ele>1352.438</ele>
        <time>1999-07-20T12:40:21Z</time>
      </trkpt>
      <trkpt lat="42.910736" lon="-5.688290">
        <ele>1352.884</ele>
        <time>1999-07-20T12:40:23Z</time>
      </trkpt>
      <trkpt lat="42.910748" lon="-5.688339">
        <ele>1353.011</ele>
        <time>1999-07-20T12:40:25Z</time>
      </trkpt>
      <trkpt lat="42.910764" lon="-5.688410">
        <ele>1354.046</ele>
        <time>1999-07-20T12:40:28Z</time>
      </trkpt>
      <trkpt lat="42.910808" lon="-5.688537">
        <ele>1354.635</ele>
        <time>1999-07-20T12:40:34Z</time>
      </trkpt>
      <trkpt lat="42.910830" lon="-5.688570">
        <ele>1354.886</ele>
        <time>1999-07-20T12:40:36Z</time>
      </trkpt>
      <trkpt lat="42.910895" lon="-5.688665">
        <ele>1355.614</ele>
        <time>1999-07-20T12:40:42Z</time>
      </trkpt>
      <trkpt lat="42.910904" lon="-5.688678">
        <ele>1355.808</ele>
        <time>1999-07-20T12:40:43Z</time>
      </trkpt>
      <trkpt lat="42.910909" lon="-5.688695">
        <ele>1355.876</ele>
        <time>1999-07-20T12:40:44Z</time>
      </trkpt>
      <trkpt lat="42.910923" lon="-5.688728">
        <ele>1356.431</ele>
        <time>1999-07-20T12:40:48Z</time>
      </trkpt>
      <trkpt lat="42.911097" lon="-5.688900">
        <ele>1360.041</ele>
        <time>1999-07-20T12:41:37Z</time>
      </trkpt>
      <trkpt lat="42.911116" lon="-5.688903">
        <ele>1360.049</ele>
        <time>1999-07-20T12:41:38Z</time>
      </trkpt>
      <trkpt lat="42.911188" lon="-5.688953">
        <ele>1360.287</ele>
        <time>1999-07-20T12:41:43Z</time>
      </trkpt>
      <trkpt lat="42.911202" lon="-5.689057">
        <ele>1360.653</ele>
        <time>1999-07-20T12:41:48Z</time>
      </trkpt>
      <trkpt lat="42.911203" lon="-5.689081">
        <ele>1360.640</ele>
        <time>1999-07-20T12:41:49Z</time>
      </trkpt>
      <trkpt lat="42.911206" lon="-5.689106">
        <ele>1361.075</ele>
        <time>1999-07-20T12:41:50Z</time>
      </trkpt>
      <trkpt lat="42.911220" lon="-5.689179">
        <ele>1362.643</ele>
        <time>1999-07-20T12:41:53Z</time>
      </trkpt>
      <trkpt lat="42.911233" lon="-5.689248">
        <ele>1363.664</ele>
        <time>1999-07-20T12:41:56Z</time>
      </trkpt>
      <trkpt lat="42.911241" lon="-5.689288">
        <ele>1363.810</ele>
        <time>1999-07-20T12:41:58Z</time>
      </trkpt>
      <trkpt lat="42.911269" lon="-5.689369">
        <ele>1364.808</ele>
        <time>1999-07-20T12:42:02Z</time>
      </trkpt>
      <trkpt lat="42.911278" lon="-5.689388">
        <ele>1364.887</ele>
        <time>1999-07-20T12:42:03Z</time>
      </trkpt>
      <trkpt lat="42.911323" lon="-5.689503">
        <ele>1365.692</ele>
        <time>1999-07-20T12:42:09Z</time>
      </trkpt>
      <trkpt lat="42.911330" lon="-5.689517">
        <ele>1365.812</ele>
        <time>1999-07-20T12:42:10Z</time>
      </trkpt>
      <trkpt lat="42.911364" lon="-5.689600">
        <ele>1366.450</ele>
        <time>1999-07-20T12:42:15Z</time>
      </trkpt>
      <trkpt lat="42.911370" lon="-5.689617">
        <ele>1366.628</ele>
        <time>1999-07-20T12:42:16Z</time>
      </trkpt>
      <trkpt lat="42.911379" lon="-5.689660">
        <ele>1367.234</ele>
        <time>1999-07-20T12:42:18Z</time>
      </trkpt>
      <trkpt lat="42.911399" lon="-5.689721">
        <ele>1367.841</ele>
        <time>1999-07-20T12:42:21Z</time>
      </trkpt>
      <trkpt lat="42.911429" lon="-5.689778">
        <ele>1368.886</ele>
        <time>1999-07-20T12:42:24Z</time>
      </trkpt>
      <trkpt lat="42.911456" lon="-5.689811">
        <ele>1369.677</ele>
        <time>1999-07-20T12:42:26Z</time>
      </trkpt>
      <trkpt lat="42.911472" lon="-5.689828">
        <ele>1369.861</ele>
        <time>1999-07-20T12:42:27Z</time>
      </trkpt>
      <trkpt lat="42.911523" lon="-5.689920">
        <ele>1371.027</ele>
        <time>1999-07-20T12:42:32Z</time>
      </trkpt>
      <trkpt lat="42.911533" lon="-5.689937">
        <ele>1371.208</ele>
        <time>1999-07-20T12:42:33Z</time>
      </trkpt>
      <trkpt lat="42.911583" lon="-5.690022">
        <ele>1372.030</ele>
        <time>1999-07-20T12:42:38Z</time>
      </trkpt>
      <trkpt lat="42.911622" lon="-5.690099">
        <ele>1373.245</ele>
        <time>1999-07-20T12:42:42Z</time>
      </trkpt>
      <trkpt lat="42.911661" lon="-5.690227">
        <ele>1374.055</ele>
        <time>1999-07-20T12:42:48Z</time>
      </trkpt>
      <trkpt lat="42.911668" lon="-5.690247">
        <ele>1374.233</ele>
        <time>1999-07-20T12:42:49Z</time>
      </trkpt>
      <trkpt lat="42.911690" lon="-5.690325">
        <ele>1375.221</ele>
        <time>1999-07-20T12:42:53Z</time>
      </trkpt>
      <trkpt lat="42.911720" lon="-5.690368">
        <ele>1375.687</ele>
        <time>1999-07-20T12:42:56Z</time>
      </trkpt>
      <trkpt lat="42.911759" lon="-5.690405">
        <ele>1376.294</ele>
        <time>1999-07-20T12:42:59Z</time>
      </trkpt>
      <trkpt lat="42.911828" lon="-5.690479">
        <ele>1377.419</ele>
        <time>1999-07-20T12:43:05Z</time>
      </trkpt>
      <trkpt lat="42.911938" lon="-5.690540">
        <ele>1378.495</ele>
        <time>1999-07-20T12:43:12Z</time>
      </trkpt>
      <trkpt lat="42.911955" lon="-5.690554">
        <ele>1378.649</ele>
        <time>1999-07-20T12:43:13Z</time>
      </trkpt>
      <trkpt lat="42.912033" lon="-5.690602">
        <ele>1379.623</ele>
        <time>1999-07-20T12:43:17Z</time>
      </trkpt>
      <trkpt lat="42.912103" lon="-5.690655">
        <ele>1380.408</ele>
        <time>1999-07-20T12:43:21Z</time>
      </trkpt>
      <trkpt lat="42.912151" lon="-5.690714">
        <ele>1380.842</ele>
        <time>1999-07-20T12:43:24Z</time>
      </trkpt>
      <trkpt lat="42.912193" lon="-5.690768">
        <ele>1381.687</ele>
        <time>1999-07-20T12:43:27Z</time>
      </trkpt>
      <trkpt lat="42.912207" lon="-5.690790">
        <ele>1381.837</ele>
        <time>1999-07-20T12:43:28Z</time>
      </trkpt>
      <trkpt lat="42.912254" lon="-5.690926">
        <ele>1382.295</ele>
        <time>1999-07-20T12:43:33Z</time>
      </trkpt>
      <trkpt lat="42.912317" lon="-5.691035">
        <ele>1382.663</ele>
        <time>1999-07-20T12:43:38Z</time>
      </trkpt>
      <trkpt lat="42.912325" lon="-5.691057">
        <ele>1382.619</ele>
        <time>1999-07-20T12:43:39Z</time>
      </trkpt>
      <trkpt lat="42.912342" lon="-5.691152">
        <ele>1383.846</ele>
        <time>1999-07-20T12:43:43Z</time>
      </trkpt>
      <trkpt lat="42.912342" lon="-5.691231">
        <ele>1384.631</ele>
        <time>1999-07-20T12:43:46Z</time>
      </trkpt>
      <trkpt lat="42.912349" lon="-5.691276">
        <ele>1385.424</ele>
        <time>1999-07-20T12:43:48Z</time>
      </trkpt>
      <trkpt lat="42.912378" lon="-5.691353">
        <ele>1386.404</ele>
        <time>1999-07-20T12:43:52Z</time>
      </trkpt>
      <trkpt lat="42.912385" lon="-5.691377">
        <ele>1386.414</ele>
        <time>1999-07-20T12:43:53Z</time>
      </trkpt>
      <trkpt lat="42.912415" lon="-5.691459">
        <ele>1387.408</ele>
        <time>1999-07-20T12:43:57Z</time>
      </trkpt>
      <trkpt lat="42.912428" lon="-5.691507">
        <ele>1388.245</ele>
        <time>1999-07-20T12:44:00Z</time>
      </trkpt>
      <trkpt lat="42.912441" lon="-5.691542">
        <ele>1388.610</ele>
        <time>1999-07-20T12:44:02Z</time>
      </trkpt>
      <trkpt lat="42.912490" lon="-5.691638">
        <ele>1389.840</ele>
        <time>1999-07-20T12:44:07Z</time>
      </trkpt>
      <trkpt lat="42.912513" lon="-5.691675">
        <ele>1390.218</ele>
        <time>1999-07-20T12:44:09Z</time>
      </trkpt>
      <trkpt lat="42.912559" lon="-5.691751">
        <ele>1391.036</ele>
        <time>1999-07-20T12:44:13Z</time>
      </trkpt>
      <trkpt lat="42.912617" lon="-5.691823">
        <ele>1391.842</ele>
        <time>1999-07-20T12:44:17Z</time>
      </trkpt>
      <trkpt lat="42.912642" lon="-5.691861">
        <ele>1392.269</ele>
        <time>1999-07-20T12:44:19Z</time>
      </trkpt>
      <trkpt lat="42.912698" lon="-5.691939">
        <ele>1392.854</ele>
        <time>1999-07-20T12:44:23Z</time>
      </trkpt>
      <trkpt lat="42.912720" lon="-5.691988">
        <ele>1393.232</ele>
        <time>1999-07-20T12:44:25Z</time>
      </trkpt>
      <trkpt lat="42.912773" lon="-5.692109">
        <ele>1393.892</ele>
        <time>1999-07-20T12:44:30Z</time>
      </trkpt>
      <trkpt lat="42.912790" lon="-5.692158">
        <ele>1394.011</ele>
        <time>1999-07-20T12:44:32Z</time>
      </trkpt>
      <trkpt lat="42.912829" lon="-5.692333">
        <ele>1394.608</ele>
        <time>1999-07-20T12:44:39Z</time>
      </trkpt>
      <trkpt lat="42.912835" lon="-5.692384">
        <ele>1395.256</ele>
        <time>1999-07-20T12:44:41Z</time>
      </trkpt>
      <trkpt lat="42.912847" lon="-5.692496">
        <ele>1396.641</ele>
        <time>1999-07-20T12:44:45Z</time>
      </trkpt>
      <trkpt lat="42.912854" lon="-5.692521">
        <ele>1396.881</ele>
        <time>1999-07-20T12:44:46Z</time>
      </trkpt>
      <trkpt lat="42.912881" lon="-5.692701">
        <ele>1397.849</ele>
        <time>1999-07-20T12:44:53Z</time>
      </trkpt>
      <trkpt lat="42.912883" lon="-5.692728">
        <ele>1398.057</ele>
        <time>1999-07-20T12:44:54Z</time>
      </trkpt>
      <trkpt lat="42.912907" lon="-5.692828">
        <ele>1398.853</ele>
        <time>1999-07-20T12:44:58Z</time>
      </trkpt>
      <trkpt lat="42.912937" lon="-5.692891">
        <ele>1399.480</ele>
        <time>1999-07-20T12:45:01Z</time>
      </trkpt>
      <trkpt lat="42.912965" lon="-5.692931">
        <ele>1399.855</ele>
        <time>1999-07-20T12:45:03Z</time>
      </trkpt>
      <trkpt lat="42.913043" lon="-5.693021">
        <ele>1401.071</ele>
        <time>1999-07-20T12:45:08Z</time>
      </trkpt>
      <trkpt lat="42.913073" lon="-5.693056">
        <ele>1401.641</ele>
        <time>1999-07-20T12:45:10Z</time>
      </trkpt>
      <trkpt lat="42.913100" lon="-5.693093">
        <ele>1402.015</ele>
        <time>1999-07-20T12:45:12Z</time>
      </trkpt>
      <trkpt lat="42.913178" lon="-5.693169">
        <ele>1403.008</ele>
        <time>1999-07-20T12:45:17Z</time>
      </trkpt>
      <trkpt lat="42.913193" lon="-5.693185">
        <ele>1403.260</ele>
        <time>1999-07-20T12:45:18Z</time>
      </trkpt>
      <trkpt lat="42.913254" lon="-5.693286">
        <ele>1404.295</ele>
        <time>1999-07-20T12:45:23Z</time>
      </trkpt>
      <trkpt lat="42.913324" lon="-5.693382">
        <ele>1405.485</ele>
        <time>1999-07-20T12:45:28Z</time>
      </trkpt>
      <trkpt lat="42.913360" lon="-5.693434">
        <ele>1405.843</ele>
        <time>1999-07-20T12:45:31Z</time>
      </trkpt>
      <trkpt lat="42.913400" lon="-5.693484">
        <ele>1406.651</ele>
        <time>1999-07-20T12:45:34Z</time>
      </trkpt>
      <trkpt lat="42.913490" lon="-5.693577">
        <ele>1407.667</ele>
        <time>1999-07-20T12:45:40Z</time>
      </trkpt>
      <trkpt lat="42.913509" lon="-5.693591">
        <ele>1407.854</ele>
        <time>1999-07-20T12:45:41Z</time>
      </trkpt>
      <trkpt lat="42.913620" lon="-5.693656">
        <ele>1408.279</ele>
        <time>1999-07-20T12:45:45Z</time>
      </trkpt>
      <trkpt lat="42.913634" lon="-5.693666">
        <ele>1408.233</ele>
        <time>1999-07-20T12:45:48Z</time>
      </trkpt>
      <trkpt lat="42.913673" lon="-5.693690">
        <ele>1407.423</ele>
        <time>1999-07-20T12:46:37Z</time>
      </trkpt>
      <trkpt lat="42.913691" lon="-5.693719">
        <ele>1407.415</ele>
        <time>1999-07-20T12:46:38Z</time>
      </trkpt>
      <trkpt lat="42.913714" lon="-5.693748">
        <ele>1407.408</ele>
        <time>1999-07-20T12:46:39Z</time>
      </trkpt>
      <trkpt lat="42.913774" lon="-5.693808">
        <ele>1407.236</ele>
        <time>1999-07-20T12:46:41Z</time>
      </trkpt>
      <trkpt lat="42.913804" lon="-5.693842">
        <ele>1407.231</ele>
        <time>1999-07-20T12:46:42Z</time>
      </trkpt>
      <trkpt lat="42.913825" lon="-5.693881">
        <ele>1407.221</ele>
        <time>1999-07-20T12:46:43Z</time>
      </trkpt>
      <trkpt lat="42.913840" lon="-5.693925">
        <ele>1407.239</ele>
        <time>1999-07-20T12:46:44Z</time>
      </trkpt>
      <trkpt lat="42.913851" lon="-5.693970">
        <ele>1407.017</ele>
        <time>1999-07-20T12:46:45Z</time>
      </trkpt>
      <trkpt lat="42.913864" lon="-5.694012">
        <ele>1407.093</ele>
        <time>1999-07-20T12:46:46Z</time>
      </trkpt>
      <trkpt lat="42.913872" lon="-5.694115">
        <ele>1406.850</ele>
        <time>1999-07-20T12:46:48Z</time>
      </trkpt>
      <trkpt lat="42.913869" lon="-5.694173">
        <ele>1406.425</ele>
        <time>1999-07-20T12:46:49Z</time>
      </trkpt>
      <trkpt lat="42.913867" lon="-5.694233">
        <ele>1405.865</ele>
        <time>1999-07-20T12:46:50Z</time>
      </trkpt>
      <trkpt lat="42.913859" lon="-5.694367">
        <ele>1405.468</ele>
        <time>1999-07-20T12:46:52Z</time>
      </trkpt>
      <trkpt lat="42.913865" lon="-5.694432">
        <ele>1405.014</ele>
        <time>1999-07-20T12:46:53Z</time>
      </trkpt>
      <trkpt lat="42.913871" lon="-5.694493">
        <ele>1404.408</ele>
        <time>1999-07-20T12:46:54Z</time>
      </trkpt>
      <trkpt lat="42.913872" lon="-5.694602">
        <ele>1403.499</ele>
        <time>1999-07-20T12:46:56Z</time>
      </trkpt>
      <trkpt lat="42.913879" lon="-5.694708">
        <ele>1401.644</ele>
        <time>1999-07-20T12:46:58Z</time>
      </trkpt>
      <trkpt lat="42.913890" lon="-5.694764">
        <ele>1400.854</ele>
        <time>1999-07-20T12:46:59Z</time>
      </trkpt>
      <trkpt lat="42.913906" lon="-5.694829">
        <ele>1400.422</ele>
        <time>1999-07-20T12:47:00Z</time>
      </trkpt>
      <trkpt lat="42.913927" lon="-5.695001">
        <ele>1399.460</ele>
        <time>1999-07-20T12:47:02Z</time>
      </trkpt>
      <trkpt lat="42.913938" lon="-5.695099">
        <ele>1398.616</ele>
        <time>1999-07-20T12:47:03Z</time>
      </trkpt>
      <trkpt lat="42.913966" lon="-5.695301">
        <ele>1397.493</ele>
        <time>1999-07-20T12:47:05Z</time>
      </trkpt>
      <trkpt lat="42.913970" lon="-5.695407">
        <ele>1396.888</ele>
        <time>1999-07-20T12:47:06Z</time>
      </trkpt>
      <trkpt lat="42.913965" lon="-5.695518">
        <ele>1395.687</ele>
        <time>1999-07-20T12:47:07Z</time>
      </trkpt>
      <trkpt lat="42.913947" lon="-5.695722">
        <ele>1394.642</ele>
        <time>1999-07-20T12:47:09Z</time>
      </trkpt>
      <trkpt lat="42.913913" lon="-5.695829">
        <ele>1394.026</ele>
        <time>1999-07-20T12:47:10Z</time>
      </trkpt>
      <trkpt lat="42.913850" lon="-5.696017">
        <ele>1393.008</ele>
        <time>1999-07-20T12:47:11Z</time>
      </trkpt>
      <trkpt lat="42.913831" lon="-5.696099">
        <ele>1391.881</ele>
        <time>1999-07-20T12:47:12Z</time>
      </trkpt>
      <trkpt lat="42.913821" lon="-5.696171">
        <ele>1391.066</ele>
        <time>1999-07-20T12:47:13Z</time>
      </trkpt>
      <trkpt lat="42.913822" lon="-5.696234">
        <ele>1390.096</ele>
        <time>1999-07-20T12:47:14Z</time>
      </trkpt>
      <trkpt lat="42.913826" lon="-5.696293">
        <ele>1389.054</ele>
        <time>1999-07-20T12:47:15Z</time>
      </trkpt>
      <trkpt lat="42.913834" lon="-5.696346">
        <ele>1388.432</ele>
        <time>1999-07-20T12:47:16Z</time>
      </trkpt>
      <trkpt lat="42.913891" lon="-5.696407">
        <ele>1387.488</ele>
        <time>1999-07-20T12:47:18Z</time>
      </trkpt>
      <trkpt lat="42.913919" lon="-5.696440">
        <ele>1386.685</ele>
        <time>1999-07-20T12:47:19Z</time>
      </trkpt>
      <trkpt lat="42.913957" lon="-5.696480">
        <ele>1385.880</ele>
        <time>1999-07-20T12:47:20Z</time>
      </trkpt>
      <trkpt lat="42.913990" lon="-5.696534">
        <ele>1385.014</ele>
        <time>1999-07-20T12:47:21Z</time>
      </trkpt>
      <trkpt lat="42.914025" lon="-5.696595">
        <ele>1384.054</ele>
        <time>1999-07-20T12:47:22Z</time>
      </trkpt>
      <trkpt lat="42.914068" lon="-5.696657">
        <ele>1383.409</ele>
        <time>1999-07-20T12:47:23Z</time>
      </trkpt>
      <trkpt lat="42.914109" lon="-5.696733">
        <ele>1383.008</ele>
        <time>1999-07-20T12:47:24Z</time>
      </trkpt>
      <trkpt lat="42.914174" lon="-5.696885">
        <ele>1382.694</ele>
        <time>1999-07-20T12:47:26Z</time>
      </trkpt>
      <trkpt lat="42.914203" lon="-5.696954">
        <ele>1382.479</ele>
        <time>1999-07-20T12:47:27Z</time>
      </trkpt>
      <trkpt lat="42.914237" lon="-5.697010">
        <ele>1382.259</ele>
        <time>1999-07-20T12:47:28Z</time>
      </trkpt>
      <trkpt lat="42.914277" lon="-5.697048">
        <ele>1382.287</ele>
        <time>1999-07-20T12:47:30Z</time>
      </trkpt>
      <trkpt lat="42.914316" lon="-5.697068">
        <ele>1381.865</ele>
        <time>1999-07-20T12:47:31Z</time>
      </trkpt>
      <trkpt lat="42.914399" lon="-5.697026">
        <ele>1380.081</ele>
        <time>1999-07-20T12:47:33Z</time>
      </trkpt>
      <trkpt lat="42.914444" lon="-5.696980">
        <ele>1378.298</ele>
        <time>1999-07-20T12:47:34Z</time>
      </trkpt>
      <trkpt lat="42.914493" lon="-5.696923">
        <ele>1377.433</ele>
        <time>1999-07-20T12:47:35Z</time>
      </trkpt>
      <trkpt lat="42.914560" lon="-5.696854">
        <ele>1376.628</ele>
        <time>1999-07-20T12:47:36Z</time>
      </trkpt>
      <trkpt lat="42.914618" lon="-5.696784">
        <ele>1375.889</ele>
        <time>1999-07-20T12:47:37Z</time>
      </trkpt>
      <trkpt lat="42.914666" lon="-5.696716">
        <ele>1375.217</ele>
        <time>1999-07-20T12:47:38Z</time>
      </trkpt>
      <trkpt lat="42.914759" lon="-5.696575">
        <ele>1373.808</ele>
        <time>1999-07-20T12:47:40Z</time>
      </trkpt>
      <trkpt lat="42.914833" lon="-5.696503">
        <ele>1373.045</ele>
        <time>1999-07-20T12:47:41Z</time>
      </trkpt>
      <trkpt lat="42.914886" lon="-5.696440">
        <ele>1372.470</ele>
        <time>1999-07-20T12:47:42Z</time>
      </trkpt>
      <trkpt lat="42.914982" lon="-5.696344">
        <ele>1371.220</ele>
        <time>1999-07-20T12:47:44Z</time>
      </trkpt>
      <trkpt lat="42.915039" lon="-5.696320">
        <ele>1370.298</ele>
        <time>1999-07-20T12:47:45Z</time>
      </trkpt>
      <trkpt lat="42.915095" lon="-5.696305">
        <ele>1369.056</ele>
        <time>1999-07-20T12:47:46Z</time>
      </trkpt>
      <trkpt lat="42.915220" lon="-5.696255">
        <ele>1367.042</ele>
        <time>1999-07-20T12:47:48Z</time>
      </trkpt>
      <trkpt lat="42.915285" lon="-5.696227">
        <ele>1366.059</ele>
        <time>1999-07-20T12:47:49Z</time>
      </trkpt>
      <trkpt lat="42.915411" lon="-5.696230">
        <ele>1364.234</ele>
        <time>1999-07-20T12:47:51Z</time>
      </trkpt>
      <trkpt lat="42.915473" lon="-5.696256">
        <ele>1363.283</ele>
        <time>1999-07-20T12:47:52Z</time>
      </trkpt>
      <trkpt lat="42.915544" lon="-5.696287">
        <ele>1362.625</ele>
        <time>1999-07-20T12:47:53Z</time>
      </trkpt>
      <trkpt lat="42.915679" lon="-5.696351">
        <ele>1361.017</ele>
        <time>1999-07-20T12:47:55Z</time>
      </trkpt>
      <trkpt lat="42.915812" lon="-5.696394">
        <ele>1360.008</ele>
        <time>1999-07-20T12:47:57Z</time>
      </trkpt>
      <trkpt lat="42.915884" lon="-5.696388">
        <ele>1359.261</ele>
        <time>1999-07-20T12:47:58Z</time>
      </trkpt>
      <trkpt lat="42.915947" lon="-5.696374">
        <ele>1358.656</ele>
        <time>1999-07-20T12:47:59Z</time>
      </trkpt>
      <trkpt lat="42.916093" lon="-5.696351">
        <ele>1356.876</ele>
        <time>1999-07-20T12:48:01Z</time>
      </trkpt>
      <trkpt lat="42.916168" lon="-5.696361">
        <ele>1356.054</ele>
        <time>1999-07-20T12:48:02Z</time>
      </trkpt>
      <trkpt lat="42.916246" lon="-5.696381">
        <ele>1355.022</ele>
        <time>1999-07-20T12:48:03Z</time>
      </trkpt>
      <trkpt lat="42.916398" lon="-5.696430">
        <ele>1353.458</ele>
        <time>1999-07-20T12:48:05Z</time>
      </trkpt>
      <trkpt lat="42.916525" lon="-5.696509">
        <ele>1351.695</ele>
        <time>1999-07-20T12:48:07Z</time>
      </trkpt>
      <trkpt lat="42.916625" lon="-5.696660">
        <ele>1350.430</ele>
        <time>1999-07-20T12:48:09Z</time>
      </trkpt>
      <trkpt lat="42.916679" lon="-5.696749">
        <ele>1350.025</ele>
        <time>1999-07-20T12:48:10Z</time>
      </trkpt>
      <trkpt lat="42.916802" lon="-5.697054">
        <ele>1348.626</ele>
        <time>1999-07-20T12:48:13Z</time>
      </trkpt>
      <trkpt lat="42.916850" lon="-5.697154">
        <ele>1348.208</ele>
        <time>1999-07-20T12:48:14Z</time>
      </trkpt>
      <trkpt lat="42.916893" lon="-5.697247">
        <ele>1347.408</ele>
        <time>1999-07-20T12:48:15Z</time>
      </trkpt>
      <trkpt lat="42.917001" lon="-5.697400">
        <ele>1346.415</ele>
        <time>1999-07-20T12:48:17Z</time>
      </trkpt>
      <trkpt lat="42.917064" lon="-5.697477">
        <ele>1345.810</ele>
        <time>1999-07-20T12:48:18Z</time>
      </trkpt>
      <trkpt lat="42.917135" lon="-5.697559">
        <ele>1345.250</ele>
        <time>1999-07-20T12:48:19Z</time>
      </trkpt>
      <trkpt lat="42.917262" lon="-5.697718">
        <ele>1343.898</ele>
        <time>1999-07-20T12:48:21Z</time>
      </trkpt>
      <trkpt lat="42.917327" lon="-5.697781">
        <ele>1343.256</ele>
        <time>1999-07-20T12:48:22Z</time>
      </trkpt>
      <trkpt lat="42.917393" lon="-5.697835">
        <ele>1342.612</ele>
        <time>1999-07-20T12:48:23Z</time>
      </trkpt>
      <trkpt lat="42.917466" lon="-5.697868">
        <ele>1342.099</ele>
        <time>1999-07-20T12:48:24Z</time>
      </trkpt>
      <trkpt lat="42.917528" lon="-5.697898">
        <ele>1341.014</ele>
        <time>1999-07-20T12:48:25Z</time>
      </trkpt>
      <trkpt lat="42.917590" lon="-5.697920">
        <ele>1340.076</ele>
        <time>1999-07-20T12:48:26Z</time>
      </trkpt>
      <trkpt lat="42.917717" lon="-5.697989">
        <ele>1338.090</ele>
        <time>1999-07-20T12:48:28Z</time>
      </trkpt>
      <trkpt lat="42.917785" lon="-5.698053">
        <ele>1334.619</ele>
        <time>1999-07-20T12:48:29Z</time>
      </trkpt>
      <trkpt lat="42.917850" lon="-5.698141">
        <ele>1333.208</ele>
        <time>1999-07-20T12:48:30Z</time>
      </trkpt>
      <trkpt lat="42.917920" lon="-5.698235">
        <ele>1332.030</ele>
        <time>1999-07-20T12:48:31Z</time>
      </trkpt>
      <trkpt lat="42.918003" lon="-5.698336">
        <ele>1331.055</ele>
        <time>1999-07-20T12:48:32Z</time>
      </trkpt>
      <trkpt lat="42.918075" lon="-5.698422">
        <ele>1329.645</ele>
        <time>1999-07-20T12:48:33Z</time>
      </trkpt>
      <trkpt lat="42.918140" lon="-5.698494">
        <ele>1328.223</ele>
        <time>1999-07-20T12:48:34Z</time>
      </trkpt>
      <trkpt lat="42.918189" lon="-5.698572">
        <ele>1326.881</ele>
        <time>1999-07-20T12:48:35Z</time>
      </trkpt>
      <trkpt lat="42.918252" lon="-5.698628">
        <ele>1325.427</ele>
        <time>1999-07-20T12:48:36Z</time>
      </trkpt>
      <trkpt lat="42.918292" lon="-5.698679">
        <ele>1324.444</ele>
        <time>1999-07-20T12:48:37Z</time>
      </trkpt>
      <trkpt lat="42.918321" lon="-5.698733">
        <ele>1323.299</ele>
        <time>1999-07-20T12:48:38Z</time>
      </trkpt>
      <trkpt lat="42.918349" lon="-5.698781">
        <ele>1321.832</ele>
        <time>1999-07-20T12:48:39Z</time>
      </trkpt>
      <trkpt lat="42.918372" lon="-5.698835">
        <ele>1320.692</ele>
        <time>1999-07-20T12:48:40Z</time>
      </trkpt>
      <trkpt lat="42.918374" lon="-5.698913">
        <ele>1319.411</ele>
        <time>1999-07-20T12:48:41Z</time>
      </trkpt>
      <trkpt lat="42.918396" lon="-5.698987">
        <ele>1317.608</ele>
        <time>1999-07-20T12:48:42Z</time>
      </trkpt>
      <trkpt lat="42.918439" lon="-5.699054">
        <ele>1316.436</ele>
        <time>1999-07-20T12:48:43Z</time>
      </trkpt>
      <trkpt lat="42.918465" lon="-5.699242">
        <ele>1315.471</ele>
        <time>1999-07-20T12:48:45Z</time>
      </trkpt>
      <trkpt lat="42.918469" lon="-5.699343">
        <ele>1315.291</ele>
        <time>1999-07-20T12:48:46Z</time>
      </trkpt>
      <trkpt lat="42.918574" lon="-5.699591">
        <ele>1314.829</ele>
        <time>1999-07-20T12:48:50Z</time>
      </trkpt>
      <trkpt lat="42.918748" lon="-5.699688">
        <ele>1314.657</ele>
        <time>1999-07-20T12:48:53Z</time>
      </trkpt>
      <trkpt lat="42.918822" lon="-5.699714">
        <ele>1314.433</ele>
        <time>1999-07-20T12:48:54Z</time>
      </trkpt>
      <trkpt lat="42.918932" lon="-5.699777">
        <ele>1314.220</ele>
        <time>1999-07-20T12:48:56Z</time>
      </trkpt>
      <trkpt lat="42.918981" lon="-5.699821">
        <ele>1314.095</ele>
        <time>1999-07-20T12:48:57Z</time>
      </trkpt>
      <trkpt lat="42.919136" lon="-5.700021">
        <ele>1313.475</ele>
        <time>1999-07-20T12:49:00Z</time>
      </trkpt>
      <trkpt lat="42.919195" lon="-5.700099">
        <ele>1313.028</ele>
        <time>1999-07-20T12:49:01Z</time>
      </trkpt>
      <trkpt lat="42.919321" lon="-5.700247">
        <ele>1311.220</ele>
        <time>1999-07-20T12:49:03Z</time>
      </trkpt>
      <trkpt lat="42.919370" lon="-5.700330">
        <ele>1310.408</ele>
        <time>1999-07-20T12:49:04Z</time>
      </trkpt>
      <trkpt lat="42.919413" lon="-5.700411">
        <ele>1309.610</ele>
        <time>1999-07-20T12:49:05Z</time>
      </trkpt>
      <trkpt lat="42.919484" lon="-5.700587">
        <ele>1308.275</ele>
        <time>1999-07-20T12:49:07Z</time>
      </trkpt>
      <trkpt lat="42.919527" lon="-5.700684">
        <ele>1307.835</ele>
        <time>1999-07-20T12:49:08Z</time>
      </trkpt>
      <trkpt lat="42.919578" lon="-5.700788">
        <ele>1307.273</ele>
        <time>1999-07-20T12:49:09Z</time>
      </trkpt>
      <trkpt lat="42.919745" lon="-5.701141">
        <ele>1306.221</ele>
        <time>1999-07-20T12:49:12Z</time>
      </trkpt>
      <trkpt lat="42.919805" lon="-5.701258">
        <ele>1306.087</ele>
        <time>1999-07-20T12:49:13Z</time>
      </trkpt>
      <trkpt lat="42.919955" lon="-5.701580">
        <ele>1304.644</ele>
        <time>1999-07-20T12:49:16Z</time>
      </trkpt>
      <trkpt lat="42.919984" lon="-5.701679">
        <ele>1303.619</ele>
        <time>1999-07-20T12:49:17Z</time>
      </trkpt>
      <trkpt lat="42.920015" lon="-5.701771">
        <ele>1302.672</ele>
        <time>1999-07-20T12:49:18Z</time>
      </trkpt>
      <trkpt lat="42.920037" lon="-5.701862">
        <ele>1301.613</ele>
        <time>1999-07-20T12:49:19Z</time>
      </trkpt>
      <trkpt lat="42.920076" lon="-5.702034">
        <ele>1300.014</ele>
        <time>1999-07-20T12:49:21Z</time>
      </trkpt>
      <trkpt lat="42.920096" lon="-5.702116">
        <ele>1299.408</ele>
        <time>1999-07-20T12:49:22Z</time>
      </trkpt>
      <trkpt lat="42.920114" lon="-5.702190">
        <ele>1298.840</ele>
        <time>1999-07-20T12:49:23Z</time>
      </trkpt>
      <trkpt lat="42.920131" lon="-5.702252">
        <ele>1297.265</ele>
        <time>1999-07-20T12:49:24Z</time>
      </trkpt>
      <trkpt lat="42.920168" lon="-5.702357">
        <ele>1296.255</ele>
        <time>1999-07-20T12:49:26Z</time>
      </trkpt>
      <trkpt lat="42.920187" lon="-5.702401">
        <ele>1296.033</ele>
        <time>1999-07-20T12:49:27Z</time>
      </trkpt>
      <trkpt lat="42.920231" lon="-5.702441">
        <ele>1295.231</ele>
        <time>1999-07-20T12:49:29Z</time>
      </trkpt>
      <trkpt lat="42.920259" lon="-5.702435">
        <ele>1294.417</ele>
        <time>1999-07-20T12:49:30Z</time>
      </trkpt>
      <trkpt lat="42.920304" lon="-5.702398">
        <ele>1293.034</ele>
        <time>1999-07-20T12:49:32Z</time>
      </trkpt>
      <trkpt lat="42.920321" lon="-5.702360">
        <ele>1292.899</ele>
        <time>1999-07-20T12:49:33Z</time>
      </trkpt>
      <trkpt lat="42.920364" lon="-5.702133">
        <ele>1292.472</ele>
        <time>1999-07-20T12:49:37Z</time>
      </trkpt>
      <trkpt lat="42.920369" lon="-5.702058">
        <ele>1292.413</ele>
        <time>1999-07-20T12:49:38Z</time>
      </trkpt>
      <trkpt lat="42.920372" lon="-5.701884">
        <ele>1292.014</ele>
        <time>1999-07-20T12:49:40Z</time>
      </trkpt>
      <trkpt lat="42.920364" lon="-5.701787">
        <ele>1292.008</ele>
        <time>1999-07-20T12:49:41Z</time>
      </trkpt>
      <trkpt lat="42.920359" lon="-5.701599">
        <ele>1291.850</ele>
        <time>1999-07-20T12:49:43Z</time>
      </trkpt>
      <trkpt lat="42.920384" lon="-5.701395">
        <ele>1291.825</ele>
        <time>1999-07-20T12:49:45Z</time>
      </trkpt>
      <trkpt lat="42.920397" lon="-5.701199">
        <ele>1291.625</ele>
        <time>1999-07-20T12:49:47Z</time>
      </trkpt>
      <trkpt lat="42.920382" lon="-5.701017">
        <ele>1290.073</ele>
        <time>1999-07-20T12:49:49Z</time>
      </trkpt>
      <trkpt lat="42.920370" lon="-5.700952">
        <ele>1289.051</ele>
        <time>1999-07-20T12:49:50Z</time>
      </trkpt>
      <trkpt lat="42.920359" lon="-5.700905">
        <ele>1287.467</ele>
        <time>1999-07-20T12:49:51Z</time>
      </trkpt>
      <trkpt lat="42.920349" lon="-5.700868">
        <ele>1286.614</ele>
        <time>1999-07-20T12:49:52Z</time>
      </trkpt>
      <trkpt lat="42.920343" lon="-5.700836">
        <ele>1286.039</ele>
        <time>1999-07-20T12:49:53Z</time>
      </trkpt>
      <trkpt lat="42.920338" lon="-5.700781">
        <ele>1284.696</ele>
        <time>1999-07-20T12:49:55Z</time>
      </trkpt>
      <trkpt lat="42.920325" lon="-5.700728">
        <ele>1282.831</ele>
        <time>1999-07-20T12:49:57Z</time>
      </trkpt>
      <trkpt lat="42.920323" lon="-5.700702">
        <ele>1281.624</ele>
        <time>1999-07-20T12:49:58Z</time>
      </trkpt>
      <trkpt lat="42.920321" lon="-5.700684">
        <ele>1280.408</ele>
        <time>1999-07-20T12:49:59Z</time>
      </trkpt>
      <trkpt lat="42.920320" lon="-5.700677">
        <ele>1279.072</ele>
        <time>1999-07-20T12:50:01Z</time>
      </trkpt>
      <trkpt lat="42.920322" lon="-5.700676">
        <ele>1278.657</ele>
        <time>1999-07-20T12:50:02Z</time>
      </trkpt>
      <trkpt lat="42.920326" lon="-5.700813">
        <ele>1276.657</ele>
        <time>1999-07-20T12:50:31Z</time>
      </trkpt>
      <trkpt lat="42.920344" lon="-5.700855">
        <ele>1276.895</ele>
        <time>1999-07-20T12:50:33Z</time>
      </trkpt>
      <trkpt lat="42.920361" lon="-5.700901">
        <ele>1277.093</ele>
        <time>1999-07-20T12:50:35Z</time>
      </trkpt>
      <trkpt lat="42.920383" lon="-5.700944">
        <ele>1277.069</ele>
        <time>1999-07-20T12:50:37Z</time>
      </trkpt>
      <trkpt lat="42.920398" lon="-5.700990">
        <ele>1277.486</ele>
        <time>1999-07-20T12:50:39Z</time>
      </trkpt>
      <trkpt lat="42.920404" lon="-5.701014">
        <ele>1277.691</ele>
        <time>1999-07-20T12:50:40Z</time>
      </trkpt>
      <trkpt lat="42.920405" lon="-5.701041">
        <ele>1277.834</ele>
        <time>1999-07-20T12:50:41Z</time>
      </trkpt>
      <trkpt lat="42.920407" lon="-5.701154">
        <ele>1278.655</ele>
        <time>1999-07-20T12:50:45Z</time>
      </trkpt>
      <trkpt lat="42.920403" lon="-5.701235">
        <ele>1279.210</ele>
        <time>1999-07-20T12:50:48Z</time>
      </trkpt>
      <trkpt lat="42.920395" lon="-5.701287">
        <ele>1279.608</ele>
        <time>1999-07-20T12:50:50Z</time>
      </trkpt>
      <trkpt lat="42.920360" lon="-5.701389">
        <ele>1280.646</ele>
        <time>1999-07-20T12:50:54Z</time>
      </trkpt>
      <trkpt lat="42.920354" lon="-5.701412">
        <ele>1280.821</ele>
        <time>1999-07-20T12:50:55Z</time>
      </trkpt>
      <trkpt lat="42.920337" lon="-5.701499">
        <ele>1281.841</ele>
        <time>1999-07-20T12:50:59Z</time>
      </trkpt>
      <trkpt lat="42.920326" lon="-5.701540">
        <ele>1282.019</ele>
        <time>1999-07-20T12:51:02Z</time>
      </trkpt>
      <trkpt lat="42.920325" lon="-5.701539">
        <ele>1282.447</ele>
        <time>1999-07-20T12:51:03Z</time>
      </trkpt>
      <trkpt lat="42.920431" lon="-5.701316">
        <ele>1285.043</ele>
        <time>1999-07-20T12:51:39Z</time>
      </trkpt>
      <trkpt lat="42.920444" lon="-5.701251">
        <ele>1284.870</ele>
        <time>1999-07-20T12:51:41Z</time>
      </trkpt>
      <trkpt lat="42.920467" lon="-5.701058">
        <ele>1284.855</ele>
        <time>1999-07-20T12:51:46Z</time>
      </trkpt>
      <trkpt lat="42.920471" lon="-5.700998">
        <ele>1284.868</ele>
        <time>1999-07-20T12:51:47Z</time>
      </trkpt>
      <trkpt lat="42.920478" lon="-5.700939">
        <ele>1284.842</ele>
        <time>1999-07-20T12:51:48Z</time>
      </trkpt>
      <trkpt lat="42.920524" lon="-5.700723">
        <ele>1284.626</ele>
        <time>1999-07-20T12:51:52Z</time>
      </trkpt>
      <trkpt lat="42.920564" lon="-5.700526">
        <ele>1284.408</ele>
        <time>1999-07-20T12:51:56Z</time>
      </trkpt>
      <trkpt lat="42.920585" lon="-5.700466">
        <ele>1284.669</ele>
        <time>1999-07-20T12:51:58Z</time>
      </trkpt>
      <trkpt lat="42.920590" lon="-5.700442">
        <ele>1284.654</ele>
        <time>1999-07-20T12:51:59Z</time>
      </trkpt>
      <trkpt lat="42.920587" lon="-5.700332">
        <ele>1284.444</ele>
        <time>1999-07-20T12:52:02Z</time>
      </trkpt>
      <trkpt lat="42.920591" lon="-5.700282">
        <ele>1284.472</ele>
        <time>1999-07-20T12:52:03Z</time>
      </trkpt>
      <trkpt lat="42.920608" lon="-5.700071">
        <ele>1284.450</ele>
        <time>1999-07-20T12:52:07Z</time>
      </trkpt>
      <trkpt lat="42.920615" lon="-5.699926">
        <ele>1284.426</ele>
        <time>1999-07-20T12:52:10Z</time>
      </trkpt>
      <trkpt lat="42.920622" lon="-5.699810">
        <ele>1284.453</ele>
        <time>1999-07-20T12:52:12Z</time>
      </trkpt>
      <trkpt lat="42.920625" lon="-5.699686">
        <ele>1284.468</ele>
        <time>1999-07-20T12:52:14Z</time>
      </trkpt>
      <trkpt lat="42.920635" lon="-5.699502">
        <ele>1284.277</ele>
        <time>1999-07-20T12:52:17Z</time>
      </trkpt>
      <trkpt lat="42.920636" lon="-5.699443">
        <ele>1284.261</ele>
        <time>1999-07-20T12:52:18Z</time>
      </trkpt>
      <trkpt lat="42.920641" lon="-5.699381">
        <ele>1284.027</ele>
        <time>1999-07-20T12:52:19Z</time>
      </trkpt>
      <trkpt lat="42.920674" lon="-5.699126">
        <ele>1283.608</ele>
        <time>1999-07-20T12:52:23Z</time>
      </trkpt>
      <trkpt lat="42.920694" lon="-5.699009">
        <ele>1283.240</ele>
        <time>1999-07-20T12:52:25Z</time>
      </trkpt>
      <trkpt lat="42.920778" lon="-5.698726">
        <ele>1283.015</ele>
        <time>1999-07-20T12:52:30Z</time>
      </trkpt>
      <trkpt lat="42.920884" lon="-5.698577">
        <ele>1282.835</ele>
        <time>1999-07-20T12:52:34Z</time>
      </trkpt>
      <trkpt lat="42.920910" lon="-5.698547">
        <ele>1282.813</ele>
        <time>1999-07-20T12:52:35Z</time>
      </trkpt>
      <trkpt lat="42.920989" lon="-5.698422">
        <ele>1282.261</ele>
        <time>1999-07-20T12:52:39Z</time>
      </trkpt>
      <trkpt lat="42.921008" lon="-5.698387">
        <ele>1282.037</ele>
        <time>1999-07-20T12:52:40Z</time>
      </trkpt>
      <trkpt lat="42.921120" lon="-5.698248">
        <ele>1281.214</ele>
        <time>1999-07-20T12:52:45Z</time>
      </trkpt>
      <trkpt lat="42.921148" lon="-5.698219">
        <ele>1281.249</ele>
        <time>1999-07-20T12:52:46Z</time>
      </trkpt>
      <trkpt lat="42.921339" lon="-5.698054">
        <ele>1281.078</ele>
        <time>1999-07-20T12:52:52Z</time>
      </trkpt>
      <trkpt lat="42.921526" lon="-5.697918">
        <ele>1281.233</ele>
        <time>1999-07-20T12:52:58Z</time>
      </trkpt>
      <trkpt lat="42.921632" lon="-5.697716">
        <ele>1281.426</ele>
        <time>1999-07-20T12:53:02Z</time>
      </trkpt>
      <trkpt lat="42.921708" lon="-5.697617">
        <ele>1281.408</ele>
        <time>1999-07-20T12:53:04Z</time>
      </trkpt>
      <trkpt lat="42.921743" lon="-5.697579">
        <ele>1281.410</ele>
        <time>1999-07-20T12:53:05Z</time>
      </trkpt>
      <trkpt lat="42.921772" lon="-5.697555">
        <ele>1281.435</ele>
        <time>1999-07-20T12:53:06Z</time>
      </trkpt>
      <trkpt lat="42.921843" lon="-5.697466">
        <ele>1280.075</ele>
        <time>1999-07-20T12:53:10Z</time>
      </trkpt>
      <trkpt lat="42.921865" lon="-5.697450">
        <ele>1279.823</ele>
        <time>1999-07-20T12:53:11Z</time>
      </trkpt>
      <trkpt lat="42.921883" lon="-5.697440">
        <ele>1279.651</ele>
        <time>1999-07-20T12:53:12Z</time>
      </trkpt>
      <trkpt lat="42.921945" lon="-5.697376">
        <ele>1279.687</ele>
        <time>1999-07-20T12:53:16Z</time>
      </trkpt>
      <trkpt lat="42.922027" lon="-5.697293">
        <ele>1279.664</ele>
        <time>1999-07-20T12:53:20Z</time>
      </trkpt>
      <trkpt lat="42.922154" lon="-5.697144">
        <ele>1279.239</ele>
        <time>1999-07-20T12:53:25Z</time>
      </trkpt>
      <trkpt lat="42.922188" lon="-5.697100">
        <ele>1278.865</ele>
        <time>1999-07-20T12:53:28Z</time>
      </trkpt>
      <trkpt lat="42.922224" lon="-5.697063">
        <ele>1278.468</ele>
        <time>1999-07-20T12:53:31Z</time>
      </trkpt>
      <trkpt lat="42.922234" lon="-5.697056">
        <ele>1278.414</ele>
        <time>1999-07-20T12:53:34Z</time>
      </trkpt>
      <trkpt lat="42.922310" lon="-5.696923">
        <ele>1278.408</ele>
        <time>1999-07-20T12:54:04Z</time>
      </trkpt>
      <trkpt lat="42.922376" lon="-5.696812">
        <ele>1278.429</ele>
        <time>1999-07-20T12:54:08Z</time>
      </trkpt>
      <trkpt lat="42.922390" lon="-5.696783">
        <ele>1278.454</ele>
        <time>1999-07-20T12:54:09Z</time>
      </trkpt>
      <trkpt lat="42.922453" lon="-5.696689">
        <ele>1278.284</ele>
        <time>1999-07-20T12:54:12Z</time>
      </trkpt>
      <trkpt lat="42.922469" lon="-5.696664">
        <ele>1278.252</ele>
        <time>1999-07-20T12:54:13Z</time>
      </trkpt>
      <trkpt lat="42.922530" lon="-5.696602">
        <ele>1278.220</ele>
        <time>1999-07-20T12:54:17Z</time>
      </trkpt>
      <trkpt lat="42.922562" lon="-5.696577">
        <ele>1278.226</ele>
        <time>1999-07-20T12:54:19Z</time>
      </trkpt>
      <trkpt lat="42.922607" lon="-5.696535">
        <ele>1278.473</ele>
        <time>1999-07-20T12:54:22Z</time>
      </trkpt>
      <trkpt lat="42.922630" lon="-5.696508">
        <ele>1278.898</ele>
        <time>1999-07-20T12:54:24Z</time>
      </trkpt>
      <trkpt lat="42.922656" lon="-5.696483">
        <ele>1279.655</ele>
        <time>1999-07-20T12:54:26Z</time>
      </trkpt>
      <trkpt lat="42.922669" lon="-5.696471">
        <ele>1279.807</ele>
        <time>1999-07-20T12:54:27Z</time>
      </trkpt>
      <trkpt lat="42.922680" lon="-5.696464">
        <ele>1280.217</ele>
        <time>1999-07-20T12:54:28Z</time>
      </trkpt>
      <trkpt lat="42.922685" lon="-5.696463">
        <ele>1280.608</ele>
        <time>1999-07-20T12:54:29Z</time>
      </trkpt>
      <trkpt lat="42.922684" lon="-5.696463">
        <ele>1280.868</ele>
        <time>1999-07-20T12:54:30Z</time>
      </trkpt>
      <trkpt lat="42.922790" lon="-5.696493">
        <ele>1282.813</ele>
        <time>1999-07-20T12:56:59Z</time>
      </trkpt>
      <trkpt lat="42.922811" lon="-5.696491">
        <ele>1282.893</ele>
        <time>1999-07-20T12:57:00Z</time>
      </trkpt>
      <trkpt lat="42.922826" lon="-5.696502">
        <ele>1282.661</ele>
        <time>1999-07-20T12:57:03Z</time>
      </trkpt>
      <trkpt lat="42.922901" lon="-5.696561">
        <ele>1280.859</ele>
        <time>1999-07-20T12:57:23Z</time>
      </trkpt>
      <trkpt lat="42.922926" lon="-5.696586">
        <ele>1280.655</ele>
        <time>1999-07-20T12:57:24Z</time>
      </trkpt>
      <trkpt lat="42.923037" lon="-5.696742">
        <ele>1280.282</ele>
        <time>1999-07-20T12:57:29Z</time>
      </trkpt>
      <trkpt lat="42.923057" lon="-5.696774">
        <ele>1279.827</ele>
        <time>1999-07-20T12:57:30Z</time>
      </trkpt>
      <trkpt lat="42.923091" lon="-5.696844">
        <ele>1279.611</ele>
        <time>1999-07-20T12:57:32Z</time>
      </trkpt>
      <trkpt lat="42.923110" lon="-5.696907">
        <ele>1279.621</ele>
        <time>1999-07-20T12:57:34Z</time>
      </trkpt>
      <trkpt lat="42.923116" lon="-5.696936">
        <ele>1279.603</ele>
        <time>1999-07-20T12:57:35Z</time>
      </trkpt>
      <trkpt lat="42.923131" lon="-5.696981">
        <ele>1279.608</ele>
        <time>1999-07-20T12:57:37Z</time>
      </trkpt>
      <trkpt lat="42.923143" lon="-5.696996">
        <ele>1279.694</ele>
        <time>1999-07-20T12:57:39Z</time>
      </trkpt>
      <trkpt lat="42.923148" lon="-5.696999">
        <ele>1279.629</ele>
        <time>1999-07-20T12:57:40Z</time>
      </trkpt>
      <trkpt lat="42.923160" lon="-5.697004">
        <ele>1280.249</ele>
        <time>1999-07-20T12:57:42Z</time>
      </trkpt>
      <trkpt lat="42.923174" lon="-5.697018">
        <ele>1280.297</ele>
        <time>1999-07-20T12:57:43Z</time>
      </trkpt>
      <trkpt lat="42.923220" lon="-5.697064">
        <ele>1280.665</ele>
        <time>1999-07-20T12:57:45Z</time>
      </trkpt>
      <trkpt lat="42.923278" lon="-5.697132">
        <ele>1280.831</ele>
        <time>1999-07-20T12:57:47Z</time>
      </trkpt>
      <trkpt lat="42.923343" lon="-5.697254">
        <ele>1280.838</ele>
        <time>1999-07-20T12:57:50Z</time>
      </trkpt>
      <trkpt lat="42.923363" lon="-5.697310">
        <ele>1281.023</ele>
        <time>1999-07-20T12:57:52Z</time>
      </trkpt>
      <trkpt lat="42.923401" lon="-5.697382">
        <ele>1280.888</ele>
        <time>1999-07-20T12:57:54Z</time>
      </trkpt>
      <trkpt lat="42.923439" lon="-5.697536">
        <ele>1280.424</ele>
        <time>1999-07-20T12:57:58Z</time>
      </trkpt>
      <trkpt lat="42.923488" lon="-5.697653">
        <ele>1279.626</ele>
        <time>1999-07-20T12:58:01Z</time>
      </trkpt>
      <trkpt lat="42.923530" lon="-5.697730">
        <ele>1278.808</ele>
        <time>1999-07-20T12:58:03Z</time>
      </trkpt>
      <trkpt lat="42.923560" lon="-5.697752">
        <ele>1278.651</ele>
        <time>1999-07-20T12:58:04Z</time>
      </trkpt>
      <trkpt lat="42.923613" lon="-5.697809">
        <ele>1277.896</ele>
        <time>1999-07-20T12:58:06Z</time>
      </trkpt>
      <trkpt lat="42.923639" lon="-5.697850">
        <ele>1277.686</ele>
        <time>1999-07-20T12:58:07Z</time>
      </trkpt>
      <trkpt lat="42.923691" lon="-5.697947">
        <ele>1277.024</ele>
        <time>1999-07-20T12:58:09Z</time>
      </trkpt>
      <trkpt lat="42.923714" lon="-5.697990">
        <ele>1276.632</ele>
        <time>1999-07-20T12:58:10Z</time>
      </trkpt>
      <trkpt lat="42.923763" lon="-5.698047">
        <ele>1276.248</ele>
        <time>1999-07-20T12:58:12Z</time>
      </trkpt>
      <trkpt lat="42.923808" lon="-5.698112">
        <ele>1276.015</ele>
        <time>1999-07-20T12:58:14Z</time>
      </trkpt>
      <trkpt lat="42.923872" lon="-5.698156">
        <ele>1275.610</ele>
        <time>1999-07-20T12:58:16Z</time>
      </trkpt>
      <trkpt lat="42.924057" lon="-5.698264">
        <ele>1274.651</ele>
        <time>1999-07-20T12:58:21Z</time>
      </trkpt>
      <trkpt lat="42.924097" lon="-5.698275">
        <ele>1274.401</ele>
        <time>1999-07-20T12:58:22Z</time>
      </trkpt>
      <trkpt lat="42.924199" lon="-5.698292">
        <ele>1274.211</ele>
        <time>1999-07-20T12:58:25Z</time>
      </trkpt>
      <trkpt lat="42.924287" lon="-5.698297">
        <ele>1274.208</ele>
        <time>1999-07-20T12:58:28Z</time>
      </trkpt>
      <trkpt lat="42.924359" lon="-5.698293">
        <ele>1274.278</ele>
        <time>1999-07-20T12:58:31Z</time>
      </trkpt>
      <trkpt lat="42.924387" lon="-5.698306">
        <ele>1274.663</ele>
        <time>1999-07-20T12:58:33Z</time>
      </trkpt>
      <trkpt lat="42.924434" lon="-5.698317">
        <ele>1275.093</ele>
        <time>1999-07-20T12:58:36Z</time>
      </trkpt>
      <trkpt lat="42.924449" lon="-5.698322">
        <ele>1275.431</ele>
        <time>1999-07-20T12:58:37Z</time>
      </trkpt>
      <trkpt lat="42.924479" lon="-5.698332">
        <ele>1276.279</ele>
        <time>1999-07-20T12:58:39Z</time>
      </trkpt>
      <trkpt lat="42.924496" lon="-5.698337">
        <ele>1276.435</ele>
        <time>1999-07-20T12:58:40Z</time>
      </trkpt>
      <trkpt lat="42.924521" lon="-5.698350">
        <ele>1277.262</ele>
        <time>1999-07-20T12:58:43Z</time>
      </trkpt>
      <trkpt lat="42.924604" lon="-5.698300">
        <ele>1278.277</ele>
        <time>1999-07-20T12:59:23Z</time>
      </trkpt>
      <trkpt lat="42.924622" lon="-5.698283">
        <ele>1278.257</ele>
        <time>1999-07-20T12:59:24Z</time>
      </trkpt>
      <trkpt lat="42.924699" lon="-5.698186">
        <ele>1278.600</ele>
        <time>1999-07-20T12:59:29Z</time>
      </trkpt>
      <trkpt lat="42.924764" lon="-5.698062">
        <ele>1279.420</ele>
        <time>1999-07-20T12:59:35Z</time>
      </trkpt>
      <trkpt lat="42.924774" lon="-5.698040">
        <ele>1279.608</ele>
        <time>1999-07-20T12:59:36Z</time>
      </trkpt>
      <trkpt lat="42.924805" lon="-5.697982">
        <ele>1280.678</ele>
        <time>1999-07-20T12:59:39Z</time>
      </trkpt>
      <trkpt lat="42.924835" lon="-5.697899">
        <ele>1281.473</ele>
        <time>1999-07-20T12:59:43Z</time>
      </trkpt>
      <trkpt lat="42.924845" lon="-5.697876">
        <ele>1281.653</ele>
        <time>1999-07-20T12:59:44Z</time>
      </trkpt>
      <trkpt lat="42.924883" lon="-5.697807">
        <ele>1282.221</ele>
        <time>1999-07-20T12:59:47Z</time>
      </trkpt>
      <trkpt lat="42.924923" lon="-5.697741">
        <ele>1282.899</ele>
        <time>1999-07-20T12:59:50Z</time>
      </trkpt>
      <trkpt lat="42.924956" lon="-5.697681">
        <ele>1283.635</ele>
        <time>1999-07-20T12:59:53Z</time>
      </trkpt>
      <trkpt lat="42.924963" lon="-5.697662">
        <ele>1284.082</ele>
        <time>1999-07-20T12:59:54Z</time>
      </trkpt>
      <trkpt lat="42.924994" lon="-5.697547">
        <ele>1285.017</ele>
        <time>1999-07-20T12:59:58Z</time>
      </trkpt>
      <trkpt lat="42.925003" lon="-5.697503">
        <ele>1285.299</ele>
        <time>1999-07-20T12:59:59Z</time>
      </trkpt>
      <trkpt lat="42.925024" lon="-5.697459">
        <ele>1285.207</ele>
        <time>1999-07-20T13:00:00Z</time>
      </trkpt>
      <trkpt lat="42.925076" lon="-5.697391">
        <ele>1285.227</ele>
        <time>1999-07-20T13:00:02Z</time>
      </trkpt>
      <trkpt lat="42.925146" lon="-5.697343">
        <ele>1285.208</ele>
        <time>1999-07-20T13:00:05Z</time>
      </trkpt>
      <trkpt lat="42.925177" lon="-5.697325">
        <ele>1285.222</ele>
        <time>1999-07-20T13:00:06Z</time>
      </trkpt>
      <trkpt lat="42.925234" lon="-5.697298">
        <ele>1285.267</ele>
        <time>1999-07-20T13:00:08Z</time>
      </trkpt>
      <trkpt lat="42.925295" lon="-5.697285">
        <ele>1284.047</ele>
        <time>1999-07-20T13:00:11Z</time>
      </trkpt>
      <trkpt lat="42.925314" lon="-5.697291">
        <ele>1283.885</ele>
        <time>1999-07-20T13:00:12Z</time>
      </trkpt>
      <trkpt lat="42.925338" lon="-5.697311">
        <ele>1283.283</ele>
        <time>1999-07-20T13:00:15Z</time>
      </trkpt>
      <trkpt lat="42.925337" lon="-5.697314">
        <ele>1283.019</ele>
        <time>1999-07-20T13:00:16Z</time>
      </trkpt>
      <trkpt lat="42.925378" lon="-5.697346">
        <ele>1282.066</ele>
        <time>1999-07-20T13:00:24Z</time>
      </trkpt>
      <trkpt lat="42.925405" lon="-5.697378">
        <ele>1281.821</ele>
        <time>1999-07-20T13:00:25Z</time>
      </trkpt>
      <trkpt lat="42.925488" lon="-5.697513">
        <ele>1281.485</ele>
        <time>1999-07-20T13:00:29Z</time>
      </trkpt>
      <trkpt lat="42.925493" lon="-5.697527">
        <ele>1280.889</ele>
        <time>1999-07-20T13:00:31Z</time>
      </trkpt>
      <trkpt lat="42.925502" lon="-5.697622">
        <ele>1279.817</ele>
        <time>1999-07-20T13:00:34Z</time>
      </trkpt>
      <trkpt lat="42.925525" lon="-5.697723">
        <ele>1279.408</ele>
        <time>1999-07-20T13:00:36Z</time>
      </trkpt>
      <trkpt lat="42.925544" lon="-5.697887">
        <ele>1279.051</ele>
        <time>1999-07-20T13:00:39Z</time>
      </trkpt>
      <trkpt lat="42.925550" lon="-5.697947">
        <ele>1278.896</ele>
        <time>1999-07-20T13:00:40Z</time>
      </trkpt>
      <trkpt lat="42.925561" lon="-5.698072">
        <ele>1278.416</ele>
        <time>1999-07-20T13:00:42Z</time>
      </trkpt>
      <trkpt lat="42.925594" lon="-5.698191">
        <ele>1277.874</ele>
        <time>1999-07-20T13:00:44Z</time>
      </trkpt>
      <trkpt lat="42.925604" lon="-5.698248">
        <ele>1277.672</ele>
        <time>1999-07-20T13:00:45Z</time>
      </trkpt>
      <trkpt lat="42.925642" lon="-5.698378">
        <ele>1276.248</ele>
        <time>1999-07-20T13:00:48Z</time>
      </trkpt>
      <trkpt lat="42.925654" lon="-5.698425">
        <ele>1275.885</ele>
        <time>1999-07-20T13:00:49Z</time>
      </trkpt>
      <trkpt lat="42.925668" lon="-5.698474">
        <ele>1274.610</ele>
        <time>1999-07-20T13:00:50Z</time>
      </trkpt>
      <trkpt lat="42.925696" lon="-5.698570">
        <ele>1273.076</ele>
        <time>1999-07-20T13:00:52Z</time>
      </trkpt>
      <trkpt lat="42.925724" lon="-5.698667">
        <ele>1271.290</ele>
        <time>1999-07-20T13:00:54Z</time>
      </trkpt>
      <trkpt lat="42.925747" lon="-5.698793">
        <ele>1270.019</ele>
        <time>1999-07-20T13:00:57Z</time>
      </trkpt>
      <trkpt lat="42.925759" lon="-5.698826">
        <ele>1269.408</ele>
        <time>1999-07-20T13:00:58Z</time>
      </trkpt>
      <trkpt lat="42.925772" lon="-5.698857">
        <ele>1268.660</ele>
        <time>1999-07-20T13:00:59Z</time>
      </trkpt>
      <trkpt lat="42.925785" lon="-5.698893">
        <ele>1267.235</ele>
        <time>1999-07-20T13:01:01Z</time>
      </trkpt>
      <trkpt lat="42.925792" lon="-5.698911">
        <ele>1266.815</ele>
        <time>1999-07-20T13:01:02Z</time>
      </trkpt>
      <trkpt lat="42.925803" lon="-5.698992">
        <ele>1266.673</ele>
        <time>1999-07-20T13:01:05Z</time>
      </trkpt>
      <trkpt lat="42.925805" lon="-5.699023">
        <ele>1266.481</ele>
        <time>1999-07-20T13:01:06Z</time>
      </trkpt>
      <trkpt lat="42.925812" lon="-5.699053">
        <ele>1266.297</ele>
        <time>1999-07-20T13:01:07Z</time>
      </trkpt>
      <trkpt lat="42.925818" lon="-5.699166">
        <ele>1265.294</ele>
        <time>1999-07-20T13:01:11Z</time>
      </trkpt>
      <trkpt lat="42.925823" lon="-5.699199">
        <ele>1264.839</ele>
        <time>1999-07-20T13:01:12Z</time>
      </trkpt>
      <trkpt lat="42.925840" lon="-5.699298">
        <ele>1264.064</ele>
        <time>1999-07-20T13:01:15Z</time>
      </trkpt>
      <trkpt lat="42.925857" lon="-5.699405">
        <ele>1263.406</ele>
        <time>1999-07-20T13:01:17Z</time>
      </trkpt>
      <trkpt lat="42.925861" lon="-5.699472">
        <ele>1263.016</ele>
        <time>1999-07-20T13:01:18Z</time>
      </trkpt>
      <trkpt lat="42.925859" lon="-5.699773">
        <ele>1261.808</ele>
        <time>1999-07-20T13:01:22Z</time>
      </trkpt>
      <trkpt lat="42.925856" lon="-5.699844">
        <ele>1261.429</ele>
        <time>1999-07-20T13:01:23Z</time>
      </trkpt>
      <trkpt lat="42.925843" lon="-5.699943">
        <ele>1260.484</ele>
        <time>1999-07-20T13:01:25Z</time>
      </trkpt>
      <trkpt lat="42.925867" lon="-5.699970">
        <ele>1259.274</ele>
        <time>1999-07-20T13:01:27Z</time>
      </trkpt>
      <trkpt lat="42.925883" lon="-5.699976">
        <ele>1258.882</ele>
        <time>1999-07-20T13:01:28Z</time>
      </trkpt>
      <trkpt lat="42.925936" lon="-5.699989">
        <ele>1257.630</ele>
        <time>1999-07-20T13:01:30Z</time>
      </trkpt>
      <trkpt lat="42.925991" lon="-5.700007">
        <ele>1256.456</ele>
        <time>1999-07-20T13:01:32Z</time>
      </trkpt>
      <trkpt lat="42.926031" lon="-5.699999">
        <ele>1255.253</ele>
        <time>1999-07-20T13:01:34Z</time>
      </trkpt>
      <trkpt lat="42.926063" lon="-5.699967">
        <ele>1254.478</ele>
        <time>1999-07-20T13:01:36Z</time>
      </trkpt>
      <trkpt lat="42.926078" lon="-5.699959">
        <ele>1253.834</ele>
        <time>1999-07-20T13:01:37Z</time>
      </trkpt>
      <trkpt lat="42.926093" lon="-5.699959">
        <ele>1253.055</ele>
        <time>1999-07-20T13:01:38Z</time>
      </trkpt>
      <trkpt lat="42.926127" lon="-5.699990">
        <ele>1251.610</ele>
        <time>1999-07-20T13:01:40Z</time>
      </trkpt>
      <trkpt lat="42.926174" lon="-5.700065">
        <ele>1250.008</ele>
        <time>1999-07-20T13:01:42Z</time>
      </trkpt>
      <trkpt lat="42.926181" lon="-5.700111">
        <ele>1249.426</ele>
        <time>1999-07-20T13:01:43Z</time>
      </trkpt>
      <trkpt lat="42.926177" lon="-5.700161">
        <ele>1248.841</ele>
        <time>1999-07-20T13:01:44Z</time>
      </trkpt>
      <trkpt lat="42.926167" lon="-5.700213">
        <ele>1247.681</ele>
        <time>1999-07-20T13:01:45Z</time>
      </trkpt>
      <trkpt lat="42.926157" lon="-5.700266">
        <ele>1247.259</ele>
        <time>1999-07-20T13:01:46Z</time>
      </trkpt>
      <trkpt lat="42.926152" lon="-5.700314">
        <ele>1246.427</ele>
        <time>1999-07-20T13:01:47Z</time>
      </trkpt>
      <trkpt lat="42.926165" lon="-5.700396">
        <ele>1245.453</ele>
        <time>1999-07-20T13:01:49Z</time>
      </trkpt>
      <trkpt lat="42.926168" lon="-5.700494">
        <ele>1244.610</ele>
        <time>1999-07-20T13:01:51Z</time>
      </trkpt>
      <trkpt lat="42.926173" lon="-5.700556">
        <ele>1244.435</ele>
        <time>1999-07-20T13:01:52Z</time>
      </trkpt>
      <trkpt lat="42.926187" lon="-5.700697">
        <ele>1243.842</ele>
        <time>1999-07-20T13:01:54Z</time>
      </trkpt>
      <trkpt lat="42.926202" lon="-5.700755">
        <ele>1243.022</ele>
        <time>1999-07-20T13:01:56Z</time>
      </trkpt>
      <trkpt lat="42.926199" lon="-5.700760">
        <ele>1242.614</ele>
        <time>1999-07-20T13:01:57Z</time>
      </trkpt>
      <trkpt lat="42.926194" lon="-5.700770">
        <ele>1241.808</ele>
        <time>1999-07-20T13:01:59Z</time>
      </trkpt>
      <trkpt lat="42.926189" lon="-5.700778">
        <ele>1241.287</ele>
        <time>1999-07-20T13:02:01Z</time>
      </trkpt>
      <trkpt lat="42.926201" lon="-5.700835">
        <ele>1239.232</ele>
        <time>1999-07-20T13:02:31Z</time>
      </trkpt>
      <trkpt lat="42.926210" lon="-5.700856">
        <ele>1239.282</ele>
        <time>1999-07-20T13:02:32Z</time>
      </trkpt>
      <trkpt lat="42.926215" lon="-5.700882">
        <ele>1239.290</ele>
        <time>1999-07-20T13:02:33Z</time>
      </trkpt>
      <trkpt lat="42.926274" lon="-5.701035">
        <ele>1239.298</ele>
        <time>1999-07-20T13:02:38Z</time>
      </trkpt>
      <trkpt lat="42.926293" lon="-5.701080">
        <ele>1239.264</ele>
        <time>1999-07-20T13:02:39Z</time>
      </trkpt>
      <trkpt lat="42.926357" lon="-5.701213">
        <ele>1239.411</ele>
        <time>1999-07-20T13:02:42Z</time>
      </trkpt>
      <trkpt lat="42.926389" lon="-5.701279">
        <ele>1239.456</ele>
        <time>1999-07-20T13:02:44Z</time>
      </trkpt>
      <trkpt lat="42.926412" lon="-5.701304">
        <ele>1239.469</ele>
        <time>1999-07-20T13:02:45Z</time>
      </trkpt>
      <trkpt lat="42.926514" lon="-5.701397">
        <ele>1239.404</ele>
        <time>1999-07-20T13:02:48Z</time>
      </trkpt>
      <trkpt lat="42.926560" lon="-5.701431">
        <ele>1239.424</ele>
        <time>1999-07-20T13:02:49Z</time>
      </trkpt>
      <trkpt lat="42.926609" lon="-5.701459">
        <ele>1239.408</ele>
        <time>1999-07-20T13:02:50Z</time>
      </trkpt>
      <trkpt lat="42.926717" lon="-5.701531">
        <ele>1239.459</ele>
        <time>1999-07-20T13:02:53Z</time>
      </trkpt>
      <trkpt lat="42.926732" lon="-5.701552">
        <ele>1239.454</ele>
        <time>1999-07-20T13:02:54Z</time>
      </trkpt>
      <trkpt lat="42.926739" lon="-5.701567">
        <ele>1239.024</ele>
        <time>1999-07-20T13:02:57Z</time>
      </trkpt>
      <trkpt lat="42.926742" lon="-5.701565">
        <ele>1238.822</ele>
        <time>1999-07-20T13:02:58Z</time>
      </trkpt>
      <trkpt lat="42.926843" lon="-5.701590">
        <ele>1238.490</ele>
        <time>1999-07-20T13:03:11Z</time>
      </trkpt>
      <trkpt lat="42.926882" lon="-5.701623">
        <ele>1238.436</ele>
        <time>1999-07-20T13:03:13Z</time>
      </trkpt>
      <trkpt lat="42.927052" lon="-5.701755">
        <ele>1238.453</ele>
        <time>1999-07-20T13:03:18Z</time>
      </trkpt>
      <trkpt lat="42.927176" lon="-5.701845">
        <ele>1238.458</ele>
        <time>1999-07-20T13:03:21Z</time>
      </trkpt>
      <trkpt lat="42.927261" lon="-5.701902">
        <ele>1238.464</ele>
        <time>1999-07-20T13:03:23Z</time>
      </trkpt>
      <trkpt lat="42.927384" lon="-5.701983">
        <ele>1238.406</ele>
        <time>1999-07-20T13:03:26Z</time>
      </trkpt>
      <trkpt lat="42.927577" lon="-5.702097">
        <ele>1238.816</ele>
        <time>1999-07-20T13:03:31Z</time>
      </trkpt>
      <trkpt lat="42.927727" lon="-5.702186">
        <ele>1239.608</ele>
        <time>1999-07-20T13:03:35Z</time>
      </trkpt>
      <trkpt lat="42.927804" lon="-5.702227">
        <ele>1240.229</ele>
        <time>1999-07-20T13:03:37Z</time>
      </trkpt>
      <trkpt lat="42.928037" lon="-5.702363">
        <ele>1241.424</ele>
        <time>1999-07-20T13:03:43Z</time>
      </trkpt>
      <trkpt lat="42.928073" lon="-5.702385">
        <ele>1241.654</ele>
        <time>1999-07-20T13:03:44Z</time>
      </trkpt>
      <trkpt lat="42.928298" lon="-5.702525">
        <ele>1242.632</ele>
        <time>1999-07-20T13:03:50Z</time>
      </trkpt>
      <trkpt lat="42.928415" lon="-5.702590">
        <ele>1242.820</ele>
        <time>1999-07-20T13:03:53Z</time>
      </trkpt>
      <trkpt lat="42.928455" lon="-5.702608">
        <ele>1243.056</ele>
        <time>1999-07-20T13:03:54Z</time>
      </trkpt>
      <trkpt lat="42.928583" lon="-5.702663">
        <ele>1243.223</ele>
        <time>1999-07-20T13:03:57Z</time>
      </trkpt>
      <trkpt lat="42.928667" lon="-5.702701">
        <ele>1243.648</ele>
        <time>1999-07-20T13:03:59Z</time>
      </trkpt>
      <trkpt lat="42.928838" lon="-5.702770">
        <ele>1244.437</ele>
        <time>1999-07-20T13:04:03Z</time>
      </trkpt>
      <trkpt lat="42.928929" lon="-5.702806">
        <ele>1244.849</ele>
        <time>1999-07-20T13:04:05Z</time>
      </trkpt>
      <trkpt lat="42.929284" lon="-5.702941">
        <ele>1245.613</ele>
        <time>1999-07-20T13:04:12Z</time>
      </trkpt>
      <trkpt lat="42.929644" lon="-5.703097">
        <ele>1246.008</ele>
        <time>1999-07-20T13:04:18Z</time>
      </trkpt>
      <trkpt lat="42.930054" lon="-5.703229">
        <ele>1246.096</ele>
        <time>1999-07-20T13:04:24Z</time>
      </trkpt>
      <trkpt lat="42.930126" lon="-5.703253">
        <ele>1245.871</ele>
        <time>1999-07-20T13:04:25Z</time>
      </trkpt>
      <trkpt lat="42.930345" lon="-5.703345">
        <ele>1245.661</ele>
        <time>1999-07-20T13:04:28Z</time>
      </trkpt>
      <trkpt lat="42.930561" lon="-5.703441">
        <ele>1245.019</ele>
        <time>1999-07-20T13:04:31Z</time>
      </trkpt>
      <trkpt lat="42.930710" lon="-5.703504">
        <ele>1244.497</ele>
        <time>1999-07-20T13:04:33Z</time>
      </trkpt>
      <trkpt lat="42.930950" lon="-5.703601">
        <ele>1243.893</ele>
        <time>1999-07-20T13:04:36Z</time>
      </trkpt>
      <trkpt lat="42.931266" lon="-5.703733">
        <ele>1242.850</ele>
        <time>1999-07-20T13:04:40Z</time>
      </trkpt>
      <trkpt lat="42.931596" lon="-5.703810">
        <ele>1241.645</ele>
        <time>1999-07-20T13:04:44Z</time>
      </trkpt>
      <trkpt lat="42.931766" lon="-5.703845">
        <ele>1241.262</ele>
        <time>1999-07-20T13:04:46Z</time>
      </trkpt>
      <trkpt lat="42.932147" lon="-5.703916">
        <ele>1241.083</ele>
        <time>1999-07-20T13:04:51Z</time>
      </trkpt>
      <trkpt lat="42.932557" lon="-5.703926">
        <ele>1240.811</ele>
        <time>1999-07-20T13:04:57Z</time>
      </trkpt>
      <trkpt lat="42.932947" lon="-5.703987">
        <ele>1241.608</ele>
        <time>1999-07-20T13:05:04Z</time>
      </trkpt>
      <trkpt lat="42.933097" lon="-5.704057">
        <ele>1242.479</ele>
        <time>1999-07-20T13:05:07Z</time>
      </trkpt>
      <trkpt lat="42.933181" lon="-5.704124">
        <ele>1242.864</ele>
        <time>1999-07-20T13:05:09Z</time>
      </trkpt>
      <trkpt lat="42.933425" lon="-5.704390">
        <ele>1244.014</ele>
        <time>1999-07-20T13:05:15Z</time>
      </trkpt>
      <trkpt lat="42.933465" lon="-5.704457">
        <ele>1244.052</ele>
        <time>1999-07-20T13:05:16Z</time>
      </trkpt>
      <trkpt lat="42.933511" lon="-5.704530">
        <ele>1244.070</ele>
        <time>1999-07-20T13:05:17Z</time>
      </trkpt>
      <trkpt lat="42.933648" lon="-5.704788">
        <ele>1244.096</ele>
        <time>1999-07-20T13:05:20Z</time>
      </trkpt>
      <trkpt lat="42.933678" lon="-5.704899">
        <ele>1244.053</ele>
        <time>1999-07-20T13:05:21Z</time>
      </trkpt>
      <trkpt lat="42.933696" lon="-5.705142">
        <ele>1244.098</ele>
        <time>1999-07-20T13:05:23Z</time>
      </trkpt>
      <trkpt lat="42.933692" lon="-5.705269">
        <ele>1243.857</ele>
        <time>1999-07-20T13:05:24Z</time>
      </trkpt>
      <trkpt lat="42.933679" lon="-5.705538">
        <ele>1243.000</ele>
        <time>1999-07-20T13:05:26Z</time>
      </trkpt>
      <trkpt lat="42.933661" lon="-5.705805">
        <ele>1241.420</ele>
        <time>1999-07-20T13:05:28Z</time>
      </trkpt>
      <trkpt lat="42.933653" lon="-5.705925">
        <ele>1241.008</ele>
        <time>1999-07-20T13:05:29Z</time>
      </trkpt>
      <trkpt lat="42.933653" lon="-5.706044">
        <ele>1240.658</ele>
        <time>1999-07-20T13:05:30Z</time>
      </trkpt>
      <trkpt lat="42.933663" lon="-5.706164">
        <ele>1240.253</ele>
        <time>1999-07-20T13:05:31Z</time>
      </trkpt>
      <trkpt lat="42.933682" lon="-5.706283">
        <ele>1240.013</ele>
        <time>1999-07-20T13:05:32Z</time>
      </trkpt>
      <trkpt lat="42.933741" lon="-5.706484">
        <ele>1238.211</ele>
        <time>1999-07-20T13:05:34Z</time>
      </trkpt>
      <trkpt lat="42.933784" lon="-5.706561">
        <ele>1237.299</ele>
        <time>1999-07-20T13:05:35Z</time>
      </trkpt>
      <trkpt lat="42.933839" lon="-5.706623">
        <ele>1236.835</ele>
        <time>1999-07-20T13:05:36Z</time>
      </trkpt>
      <trkpt lat="42.933992" lon="-5.706668">
        <ele>1235.492</ele>
        <time>1999-07-20T13:05:38Z</time>
      </trkpt>
      <trkpt lat="42.934149" lon="-5.706607">
        <ele>1234.247</ele>
        <time>1999-07-20T13:05:40Z</time>
      </trkpt>
      <trkpt lat="42.934222" lon="-5.706562">
        <ele>1233.415</ele>
        <time>1999-07-20T13:05:41Z</time>
      </trkpt>
      <trkpt lat="42.934290" lon="-5.706521">
        <ele>1232.865</ele>
        <time>1999-07-20T13:05:42Z</time>
      </trkpt>
      <trkpt lat="42.934408" lon="-5.706467">
        <ele>1232.011</ele>
        <time>1999-07-20T13:05:44Z</time>
      </trkpt>
      <trkpt lat="42.934461" lon="-5.706456">
        <ele>1231.608</ele>
        <time>1999-07-20T13:05:45Z</time>
      </trkpt>
      <trkpt lat="42.934655" lon="-5.706457">
        <ele>1231.234</ele>
        <time>1999-07-20T13:05:49Z</time>
      </trkpt>
      <trkpt lat="42.934745" lon="-5.706472">
        <ele>1231.229</ele>
        <time>1999-07-20T13:05:51Z</time>
      </trkpt>
      <trkpt lat="42.934946" lon="-5.706564">
        <ele>1231.469</ele>
        <time>1999-07-20T13:05:55Z</time>
      </trkpt>
      <trkpt lat="42.934994" lon="-5.706603">
        <ele>1231.677</ele>
        <time>1999-07-20T13:05:56Z</time>
      </trkpt>
      <trkpt lat="42.935118" lon="-5.706746">
        <ele>1232.035</ele>
        <time>1999-07-20T13:05:59Z</time>
      </trkpt>
      <trkpt lat="42.935191" lon="-5.706847">
        <ele>1232.481</ele>
        <time>1999-07-20T13:06:01Z</time>
      </trkpt>
      <trkpt lat="42.935297" lon="-5.707017">
        <ele>1232.658</ele>
        <time>1999-07-20T13:06:04Z</time>
      </trkpt>
      <trkpt lat="42.935339" lon="-5.707163">
        <ele>1232.673</ele>
        <time>1999-07-20T13:06:06Z</time>
      </trkpt>
      <trkpt lat="42.935303" lon="-5.707428">
        <ele>1232.667</ele>
        <time>1999-07-20T13:06:09Z</time>
      </trkpt>
      <trkpt lat="42.935192" lon="-5.707627">
        <ele>1232.681</ele>
        <time>1999-07-20T13:06:11Z</time>
      </trkpt>
      <trkpt lat="42.935146" lon="-5.707709">
        <ele>1232.619</ele>
        <time>1999-07-20T13:06:12Z</time>
      </trkpt>
      <trkpt lat="42.935055" lon="-5.707880">
        <ele>1232.208</ele>
        <time>1999-07-20T13:06:14Z</time>
      </trkpt>
      <trkpt lat="42.935044" lon="-5.707962">
        <ele>1231.649</ele>
        <time>1999-07-20T13:06:15Z</time>
      </trkpt>
      <trkpt lat="42.935077" lon="-5.708082">
        <ele>1230.254</ele>
        <time>1999-07-20T13:06:17Z</time>
      </trkpt>
      <trkpt lat="42.935108" lon="-5.708116">
        <ele>1229.624</ele>
        <time>1999-07-20T13:06:18Z</time>
      </trkpt>
      <trkpt lat="42.935147" lon="-5.708133">
        <ele>1229.212</ele>
        <time>1999-07-20T13:06:19Z</time>
      </trkpt>
      <trkpt lat="42.935191" lon="-5.708145">
        <ele>1228.820</ele>
        <time>1999-07-20T13:06:20Z</time>
      </trkpt>
      <trkpt lat="42.935280" lon="-5.708175">
        <ele>1228.676</ele>
        <time>1999-07-20T13:06:22Z</time>
      </trkpt>
      <trkpt lat="42.935672" lon="-5.708335">
        <ele>1228.463</ele>
        <time>1999-07-20T13:06:30Z</time>
      </trkpt>
      <trkpt lat="42.935832" lon="-5.708403">
        <ele>1228.498</ele>
        <time>1999-07-20T13:06:33Z</time>
      </trkpt>
      <trkpt lat="42.935880" lon="-5.708449">
        <ele>1228.499</ele>
        <time>1999-07-20T13:06:34Z</time>
      </trkpt>
      <trkpt lat="42.936065" lon="-5.708751">
        <ele>1228.407</ele>
        <time>1999-07-20T13:06:39Z</time>
      </trkpt>
      <trkpt lat="42.936351" lon="-5.709209">
        <ele>1228.627</ele>
        <time>1999-07-20T13:06:47Z</time>
      </trkpt>
      <trkpt lat="42.936594" lon="-5.709524">
        <ele>1229.408</ele>
        <time>1999-07-20T13:06:53Z</time>
      </trkpt>
      <trkpt lat="42.936829" lon="-5.709815">
        <ele>1229.652</ele>
        <time>1999-07-20T13:07:00Z</time>
      </trkpt>
      <trkpt lat="42.936945" lon="-5.709963">
        <ele>1230.297</ele>
        <time>1999-07-20T13:07:04Z</time>
      </trkpt>
      <trkpt lat="42.937066" lon="-5.710091">
        <ele>1231.087</ele>
        <time>1999-07-20T13:07:08Z</time>
      </trkpt>
      <trkpt lat="42.937102" lon="-5.710123">
        <ele>1231.255</ele>
        <time>1999-07-20T13:07:09Z</time>
      </trkpt>
      <trkpt lat="42.937261" lon="-5.710255">
        <ele>1231.893</ele>
        <time>1999-07-20T13:07:13Z</time>
      </trkpt>
      <trkpt lat="42.937340" lon="-5.710321">
        <ele>1232.229</ele>
        <time>1999-07-20T13:07:15Z</time>
      </trkpt>
      <trkpt lat="42.937377" lon="-5.710353">
        <ele>1232.496</ele>
        <time>1999-07-20T13:07:16Z</time>
      </trkpt>
      <trkpt lat="42.937548" lon="-5.710480">
        <ele>1233.091</ele>
        <time>1999-07-20T13:07:21Z</time>
      </trkpt>
      <trkpt lat="42.937578" lon="-5.710499">
        <ele>1233.072</ele>
        <time>1999-07-20T13:07:22Z</time>
      </trkpt>
      <trkpt lat="42.937637" lon="-5.710534">
        <ele>1233.813</ele>
        <time>1999-07-20T13:07:24Z</time>
      </trkpt>
      <trkpt lat="42.937792" lon="-5.710606">
        <ele>1234.814</ele>
        <time>1999-07-20T13:07:28Z</time>
      </trkpt>
      <trkpt lat="42.937838" lon="-5.710622">
        <ele>1235.208</ele>
        <time>1999-07-20T13:07:29Z</time>
      </trkpt>
      <trkpt lat="42.937946" lon="-5.710649">
        <ele>1235.410</ele>
        <time>1999-07-20T13:07:31Z</time>
      </trkpt>
      <trkpt lat="42.938094" lon="-5.710672">
        <ele>1235.475</ele>
        <time>1999-07-20T13:07:33Z</time>
      </trkpt>
      <trkpt lat="42.938272" lon="-5.710684">
        <ele>1235.645</ele>
        <time>1999-07-20T13:07:35Z</time>
      </trkpt>
      <trkpt lat="42.938468" lon="-5.710658">
        <ele>1235.623</ele>
        <time>1999-07-20T13:07:37Z</time>
      </trkpt>
      <trkpt lat="42.938793" lon="-5.710610">
        <ele>1234.851</ele>
        <time>1999-07-20T13:07:40Z</time>
      </trkpt>
      <trkpt lat="42.938895" lon="-5.710602">
        <ele>1234.297</ele>
        <time>1999-07-20T13:07:41Z</time>
      </trkpt>
      <trkpt lat="42.938988" lon="-5.710599">
        <ele>1233.614</ele>
        <time>1999-07-20T13:07:42Z</time>
      </trkpt>
      <trkpt lat="42.939078" lon="-5.710602">
        <ele>1232.229</ele>
        <time>1999-07-20T13:07:43Z</time>
      </trkpt>
      <trkpt lat="42.939230" lon="-5.710626">
        <ele>1230.891</ele>
        <time>1999-07-20T13:07:45Z</time>
      </trkpt>
      <trkpt lat="42.939301" lon="-5.710641">
        <ele>1229.081</ele>
        <time>1999-07-20T13:07:47Z</time>
      </trkpt>
      <trkpt lat="42.939312" lon="-5.710643">
        <ele>1227.619</ele>
        <time>1999-07-20T13:07:48Z</time>
      </trkpt>
      <trkpt lat="42.939315" lon="-5.710645">
        <ele>1225.808</ele>
        <time>1999-07-20T13:07:49Z</time>
      </trkpt>
      <trkpt lat="42.939315" lon="-5.710647">
        <ele>1224.012</ele>
        <time>1999-07-20T13:07:50Z</time>
      </trkpt>
      <trkpt lat="42.939396" lon="-5.710615">
        <ele>1216.247</ele>
        <time>1999-07-20T13:08:07Z</time>
      </trkpt>
      <trkpt lat="42.939461" lon="-5.710613">
        <ele>1216.247</ele>
        <time>1999-07-20T13:08:09Z</time>
      </trkpt>
      <trkpt lat="42.939503" lon="-5.710615">
        <ele>1216.055</ele>
        <time>1999-07-20T13:08:12Z</time>
      </trkpt>
      <trkpt lat="42.939503" lon="-5.710615">
        <ele>1215.883</ele>
        <time>1999-07-20T13:08:14Z</time>
      </trkpt>
      <trkpt lat="42.939437" lon="-5.710610">
        <ele>1214.299</ele>
        <time>1999-07-20T13:08:39Z</time>
      </trkpt>
      <trkpt lat="42.939423" lon="-5.710609">
        <ele>1214.236</ele>
        <time>1999-07-20T13:08:40Z</time>
      </trkpt>
      <trkpt lat="42.939408" lon="-5.710608">
        <ele>1214.441</ele>
        <time>1999-07-20T13:08:41Z</time>
      </trkpt>
      <trkpt lat="42.939362" lon="-5.710611">
        <ele>1214.428</ele>
        <time>1999-07-20T13:08:44Z</time>
      </trkpt>
      <trkpt lat="42.939304" lon="-5.710615">
        <ele>1215.289</ele>
        <time>1999-07-20T13:08:50Z</time>
      </trkpt>
      <trkpt lat="42.939242" lon="-5.710603">
        <ele>1215.817</ele>
        <time>1999-07-20T13:08:57Z</time>
      </trkpt>
      <trkpt lat="42.939231" lon="-5.710600">
        <ele>1215.808</ele>
        <time>1999-07-20T13:08:58Z</time>
      </trkpt>
      <trkpt lat="42.939219" lon="-5.710597">
        <ele>1216.095</ele>
        <time>1999-07-20T13:09:00Z</time>
      </trkpt>
      <trkpt lat="42.939208" lon="-5.710595">
        <ele>1216.080</ele>
        <time>1999-07-20T13:09:03Z</time>
      </trkpt>
      <trkpt lat="42.939139" lon="-5.710582">
        <ele>1216.830</ele>
        <time>1999-07-20T13:09:17Z</time>
      </trkpt>
      <trkpt lat="42.939119" lon="-5.710576">
        <ele>1216.898</ele>
        <time>1999-07-20T13:09:18Z</time>
      </trkpt>
      <trkpt lat="42.939072" lon="-5.710568">
        <ele>1216.846</ele>
        <time>1999-07-20T13:09:20Z</time>
      </trkpt>
      <trkpt lat="42.939050" lon="-5.710565">
        <ele>1216.872</ele>
        <time>1999-07-20T13:09:21Z</time>
      </trkpt>
      <trkpt lat="42.939026" lon="-5.710562">
        <ele>1217.089</ele>
        <time>1999-07-20T13:09:22Z</time>
      </trkpt>
      <trkpt lat="42.938983" lon="-5.710559">
        <ele>1217.254</ele>
        <time>1999-07-20T13:09:24Z</time>
      </trkpt>
      <trkpt lat="42.938957" lon="-5.710555">
        <ele>1217.468</ele>
        <time>1999-07-20T13:09:25Z</time>
      </trkpt>
      <trkpt lat="42.938878" lon="-5.710559">
        <ele>1218.242</ele>
        <time>1999-07-20T13:09:28Z</time>
      </trkpt>
      <trkpt lat="42.938856" lon="-5.710559">
        <ele>1218.626</ele>
        <time>1999-07-20T13:09:29Z</time>
      </trkpt>
      <trkpt lat="42.938810" lon="-5.710561">
        <ele>1219.408</ele>
        <time>1999-07-20T13:09:31Z</time>
      </trkpt>
      <trkpt lat="42.938736" lon="-5.710566">
        <ele>1220.899</ele>
        <time>1999-07-20T13:09:34Z</time>
      </trkpt>
      <trkpt lat="42.938693" lon="-5.710571">
        <ele>1221.464</ele>
        <time>1999-07-20T13:09:36Z</time>
      </trkpt>
      <trkpt lat="42.938652" lon="-5.710578">
        <ele>1222.034</ele>
        <time>1999-07-20T13:09:38Z</time>
      </trkpt>
      <trkpt lat="42.938589" lon="-5.710589">
        <ele>1223.032</ele>
        <time>1999-07-20T13:09:41Z</time>
      </trkpt>
      <trkpt lat="42.938484" lon="-5.710618">
        <ele>1224.610</ele>
        <time>1999-07-20T13:09:46Z</time>
      </trkpt>
      <trkpt lat="42.938398" lon="-5.710638">
        <ele>1225.866</ele>
        <time>1999-07-20T13:09:50Z</time>
      </trkpt>
      <trkpt lat="42.938335" lon="-5.710645">
        <ele>1226.493</ele>
        <time>1999-07-20T13:09:53Z</time>
      </trkpt>
      <trkpt lat="42.938290" lon="-5.710646">
        <ele>1227.028</ele>
        <time>1999-07-20T13:09:55Z</time>
      </trkpt>
      <trkpt lat="42.938174" lon="-5.710652">
        <ele>1228.243</ele>
        <time>1999-07-20T13:10:00Z</time>
      </trkpt>
      <trkpt lat="42.938130" lon="-5.710652">
        <ele>1229.064</ele>
        <time>1999-07-20T13:10:02Z</time>
      </trkpt>
      <trkpt lat="42.938107" lon="-5.710651">
        <ele>1229.210</ele>
        <time>1999-07-20T13:10:03Z</time>
      </trkpt>
      <trkpt lat="42.938019" lon="-5.710633">
        <ele>1230.408</ele>
        <time>1999-07-20T13:10:07Z</time>
      </trkpt>
      <trkpt lat="42.937932" lon="-5.710620">
        <ele>1231.017</ele>
        <time>1999-07-20T13:10:11Z</time>
      </trkpt>
      <trkpt lat="42.937889" lon="-5.710617">
        <ele>1231.462</ele>
        <time>1999-07-20T13:10:13Z</time>
      </trkpt>
      <trkpt lat="42.937824" lon="-5.710616">
        <ele>1232.692</ele>
        <time>1999-07-20T13:10:17Z</time>
      </trkpt>
      <trkpt lat="42.937808" lon="-5.710612">
        <ele>1233.080</ele>
        <time>1999-07-20T13:10:18Z</time>
      </trkpt>
      <trkpt lat="42.937776" lon="-5.710586">
        <ele>1233.638</ele>
        <time>1999-07-20T13:10:20Z</time>
      </trkpt>
      <trkpt lat="42.937698" lon="-5.710541">
        <ele>1234.824</ele>
        <time>1999-07-20T13:10:24Z</time>
      </trkpt>
      <trkpt lat="42.937625" lon="-5.710507">
        <ele>1236.041</ele>
        <time>1999-07-20T13:10:30Z</time>
      </trkpt>
      <trkpt lat="42.937625" lon="-5.710507">
        <ele>1236.016</ele>
        <time>1999-07-20T13:10:31Z</time>
      </trkpt>
      <trkpt lat="42.937691" lon="-5.710535">
        <ele>1236.246</ele>
        <time>1999-07-20T13:10:42Z</time>
      </trkpt>
      <trkpt lat="42.937728" lon="-5.710549">
        <ele>1236.288</ele>
        <time>1999-07-20T13:10:44Z</time>
      </trkpt>
      <trkpt lat="42.937763" lon="-5.710562">
        <ele>1236.216</ele>
        <time>1999-07-20T13:10:46Z</time>
      </trkpt>
      <trkpt lat="42.937779" lon="-5.710571">
        <ele>1236.208</ele>
        <time>1999-07-20T13:10:47Z</time>
      </trkpt>
      <trkpt lat="42.937792" lon="-5.710581">
        <ele>1236.267</ele>
        <time>1999-07-20T13:10:50Z</time>
      </trkpt>
      <trkpt lat="42.937739" lon="-5.710548">
        <ele>1235.672</ele>
        <time>1999-07-20T13:11:08Z</time>
      </trkpt>
      <trkpt lat="42.937726" lon="-5.710540">
        <ele>1235.622</ele>
        <time>1999-07-20T13:11:09Z</time>
      </trkpt>
      <trkpt lat="42.937699" lon="-5.710525">
        <ele>1235.630</ele>
        <time>1999-07-20T13:11:11Z</time>
      </trkpt>
      <trkpt lat="42.937672" lon="-5.710510">
        <ele>1235.698</ele>
        <time>1999-07-20T13:11:13Z</time>
      </trkpt>
      <trkpt lat="42.937629" lon="-5.710478">
        <ele>1235.874</ele>
        <time>1999-07-20T13:11:19Z</time>
      </trkpt>
      <trkpt lat="42.937563" lon="-5.710447">
        <ele>1236.061</ele>
        <time>1999-07-20T13:11:24Z</time>
      </trkpt>
      <trkpt lat="42.937497" lon="-5.710402">
        <ele>1236.076</ele>
        <time>1999-07-20T13:11:26Z</time>
      </trkpt>
      <trkpt lat="42.937290" lon="-5.710247">
        <ele>1236.011</ele>
        <time>1999-07-20T13:11:31Z</time>
      </trkpt>
      <trkpt lat="42.937203" lon="-5.710222">
        <ele>1235.621</ele>
        <time>1999-07-20T13:11:35Z</time>
      </trkpt>
      <trkpt lat="42.937196" lon="-5.710224">
        <ele>1234.803</ele>
        <time>1999-07-20T13:11:37Z</time>
      </trkpt>
      <trkpt lat="42.937285" lon="-5.710483">
        <ele>1235.208</ele>
        <time>1999-07-20T13:12:45Z</time>
      </trkpt>
      <trkpt lat="42.937311" lon="-5.710507">
        <ele>1235.214</ele>
        <time>1999-07-20T13:12:47Z</time>
      </trkpt>
      <trkpt lat="42.937360" lon="-5.710549">
        <ele>1236.029</ele>
        <time>1999-07-20T13:12:51Z</time>
      </trkpt>
      <trkpt lat="42.937381" lon="-5.710568">
        <ele>1236.219</ele>
        <time>1999-07-20T13:12:53Z</time>
      </trkpt>
      <trkpt lat="42.937390" lon="-5.710576">
        <ele>1236.477</ele>
        <time>1999-07-20T13:12:54Z</time>
      </trkpt>
      <trkpt lat="42.937419" lon="-5.710606">
        <ele>1237.295</ele>
        <time>1999-07-20T13:12:57Z</time>
      </trkpt>
      <trkpt lat="42.937448" lon="-5.710640">
        <ele>1238.071</ele>
        <time>1999-07-20T13:13:00Z</time>
      </trkpt>
      <trkpt lat="42.937458" lon="-5.710648">
        <ele>1238.278</ele>
        <time>1999-07-20T13:13:01Z</time>
      </trkpt>
      <trkpt lat="42.937468" lon="-5.710657">
        <ele>1238.463</ele>
        <time>1999-07-20T13:13:02Z</time>
      </trkpt>
      <trkpt lat="42.937480" lon="-5.710672">
        <ele>1239.051</ele>
        <time>1999-07-20T13:13:06Z</time>
      </trkpt>
      <trkpt lat="42.937525" lon="-5.710717">
        <ele>1239.401</ele>
        <time>1999-07-20T13:13:12Z</time>
      </trkpt>
      <trkpt lat="42.937643" lon="-5.710855">
        <ele>1239.811</ele>
        <time>1999-07-20T13:13:19Z</time>
      </trkpt>
      <trkpt lat="42.937703" lon="-5.710997">
        <ele>1239.408</ele>
        <time>1999-07-20T13:13:26Z</time>
      </trkpt>
      <trkpt lat="42.937781" lon="-5.711093">
        <ele>1239.448</ele>
        <time>1999-07-20T13:13:32Z</time>
      </trkpt>
      <trkpt lat="42.937841" lon="-5.711162">
        <ele>1239.283</ele>
        <time>1999-07-20T13:13:36Z</time>
      </trkpt>
      <trkpt lat="42.937885" lon="-5.711218">
        <ele>1239.023</ele>
        <time>1999-07-20T13:13:39Z</time>
      </trkpt>
      <trkpt lat="42.937929" lon="-5.711263">
        <ele>1238.621</ele>
        <time>1999-07-20T13:13:42Z</time>
      </trkpt>
      <trkpt lat="42.938010" lon="-5.711333">
        <ele>1238.049</ele>
        <time>1999-07-20T13:13:47Z</time>
      </trkpt>
      <trkpt lat="42.938042" lon="-5.711351">
        <ele>1237.825</ele>
        <time>1999-07-20T13:13:51Z</time>
      </trkpt>
      <trkpt lat="42.938211" lon="-5.711890">
        <ele>1241.882</ele>
        <time>1999-07-20T13:15:51Z</time>
      </trkpt>
      <trkpt lat="42.938216" lon="-5.711904">
        <ele>1241.837</ele>
        <time>1999-07-20T13:15:52Z</time>
      </trkpt>
      <trkpt lat="42.938271" lon="-5.711978">
        <ele>1241.849</ele>
        <time>1999-07-20T13:15:56Z</time>
      </trkpt>
      <trkpt lat="42.938365" lon="-5.712047">
        <ele>1241.802</ele>
        <time>1999-07-20T13:16:03Z</time>
      </trkpt>
      <trkpt lat="42.938375" lon="-5.712057">
        <ele>1241.822</ele>
        <time>1999-07-20T13:16:04Z</time>
      </trkpt>
      <trkpt lat="42.938453" lon="-5.712092">
        <ele>1241.808</ele>
        <time>1999-07-20T13:16:10Z</time>
      </trkpt>
      <trkpt lat="42.938465" lon="-5.712105">
        <ele>1241.647</ele>
        <time>1999-07-20T13:16:11Z</time>
      </trkpt>
      <trkpt lat="42.938482" lon="-5.712135">
        <ele>1241.622</ele>
        <time>1999-07-20T13:16:14Z</time>
      </trkpt>
      <trkpt lat="42.938482" lon="-5.712135">
        <ele>1241.672</ele>
        <time>1999-07-20T13:16:15Z</time>
      </trkpt>
      <trkpt lat="42.938503" lon="-5.712204">
        <ele>1241.230</ele>
        <time>1999-07-20T13:16:37Z</time>
      </trkpt>
      <trkpt lat="42.938512" lon="-5.712235">
        <ele>1241.268</ele>
        <time>1999-07-20T13:16:39Z</time>
      </trkpt>
      <trkpt lat="42.938515" lon="-5.712252">
        <ele>1241.214</ele>
        <time>1999-07-20T13:16:40Z</time>
      </trkpt>
      <trkpt lat="42.938516" lon="-5.712269">
        <ele>1241.281</ele>
        <time>1999-07-20T13:16:41Z</time>
      </trkpt>
      <trkpt lat="42.938518" lon="-5.712286">
        <ele>1241.236</ele>
        <time>1999-07-20T13:16:42Z</time>
      </trkpt>
      <trkpt lat="42.938520" lon="-5.712303">
        <ele>1241.237</ele>
        <time>1999-07-20T13:16:43Z</time>
      </trkpt>
      <trkpt lat="42.938520" lon="-5.712317">
        <ele>1241.249</ele>
        <time>1999-07-20T13:16:44Z</time>
      </trkpt>
      <trkpt lat="42.938523" lon="-5.712324">
        <ele>1241.213</ele>
        <time>1999-07-20T13:16:46Z</time>
      </trkpt>
      <trkpt lat="42.938525" lon="-5.712322">
        <ele>1241.208</ele>
        <time>1999-07-20T13:16:47Z</time>
      </trkpt>
      <trkpt lat="42.938571" lon="-5.712388">
        <ele>1241.456</ele>
        <time>1999-07-20T13:17:25Z</time>
      </trkpt>
      <trkpt lat="42.938577" lon="-5.712418">
        <ele>1241.421</ele>
        <time>1999-07-20T13:17:26Z</time>
      </trkpt>
      <trkpt lat="42.938597" lon="-5.712482">
        <ele>1241.491</ele>
        <time>1999-07-20T13:17:28Z</time>
      </trkpt>
      <trkpt lat="42.938606" lon="-5.712514">
        <ele>1241.229</ele>
        <time>1999-07-20T13:17:29Z</time>
      </trkpt>
      <trkpt lat="42.938622" lon="-5.712575">
        <ele>1241.277</ele>
        <time>1999-07-20T13:17:31Z</time>
      </trkpt>
      <trkpt lat="42.938646" lon="-5.712657">
        <ele>1241.283</ele>
        <time>1999-07-20T13:17:34Z</time>
      </trkpt>
      <trkpt lat="42.938683" lon="-5.712759">
        <ele>1241.250</ele>
        <time>1999-07-20T13:17:38Z</time>
      </trkpt>
      <trkpt lat="42.938685" lon="-5.712788">
        <ele>1241.045</ele>
        <time>1999-07-20T13:17:39Z</time>
      </trkpt>
      <trkpt lat="42.938690" lon="-5.712849">
        <ele>1240.833</ele>
        <time>1999-07-20T13:17:41Z</time>
      </trkpt>
      <trkpt lat="42.938721" lon="-5.712942">
        <ele>1240.423</ele>
        <time>1999-07-20T13:17:44Z</time>
      </trkpt>
      <trkpt lat="42.938750" lon="-5.712997">
        <ele>1240.015</ele>
        <time>1999-07-20T13:17:46Z</time>
      </trkpt>
      <trkpt lat="42.938826" lon="-5.713173">
        <ele>1239.008</ele>
        <time>1999-07-20T13:17:52Z</time>
      </trkpt>
      <trkpt lat="42.938840" lon="-5.713203">
        <ele>1239.036</ele>
        <time>1999-07-20T13:17:53Z</time>
      </trkpt>
      <trkpt lat="42.938912" lon="-5.713342">
        <ele>1238.441</ele>
        <time>1999-07-20T13:17:58Z</time>
      </trkpt>
      <trkpt lat="42.938940" lon="-5.713408">
        <ele>1238.031</ele>
        <time>1999-07-20T13:18:00Z</time>
      </trkpt>
      <trkpt lat="42.939034" lon="-5.713534">
        <ele>1237.239</ele>
        <time>1999-07-20T13:18:04Z</time>
      </trkpt>
      <trkpt lat="42.939103" lon="-5.713599">
        <ele>1236.827</ele>
        <time>1999-07-20T13:18:07Z</time>
      </trkpt>
      <trkpt lat="42.939114" lon="-5.713621">
        <ele>1236.683</ele>
        <time>1999-07-20T13:18:09Z</time>
      </trkpt>
      <trkpt lat="42.939105" lon="-5.713641">
        <ele>1236.480</ele>
        <time>1999-07-20T13:18:10Z</time>
      </trkpt>
      <trkpt lat="42.939084" lon="-5.713680">
        <ele>1235.675</ele>
        <time>1999-07-20T13:18:12Z</time>
      </trkpt>
      <trkpt lat="42.939073" lon="-5.713703">
        <ele>1235.444</ele>
        <time>1999-07-20T13:18:13Z</time>
      </trkpt>
      <trkpt lat="42.939065" lon="-5.713730">
        <ele>1235.205</ele>
        <time>1999-07-20T13:18:14Z</time>
      </trkpt>
      <trkpt lat="42.939065" lon="-5.713790">
        <ele>1234.615</ele>
        <time>1999-07-20T13:18:16Z</time>
      </trkpt>
      <trkpt lat="42.939073" lon="-5.713822">
        <ele>1234.608</ele>
        <time>1999-07-20T13:18:17Z</time>
      </trkpt>
      <trkpt lat="42.939082" lon="-5.713857">
        <ele>1234.657</ele>
        <time>1999-07-20T13:18:18Z</time>
      </trkpt>
      <trkpt lat="42.939169" lon="-5.713957">
        <ele>1234.282</ele>
        <time>1999-07-20T13:18:22Z</time>
      </trkpt>
      <trkpt lat="42.939282" lon="-5.714021">
        <ele>1233.872</ele>
        <time>1999-07-20T13:18:27Z</time>
      </trkpt>
      <trkpt lat="42.939307" lon="-5.714026">
        <ele>1233.650</ele>
        <time>1999-07-20T13:18:28Z</time>
      </trkpt>
      <trkpt lat="42.939395" lon="-5.714047">
        <ele>1232.618</ele>
        <time>1999-07-20T13:18:31Z</time>
      </trkpt>
      <trkpt lat="42.939436" lon="-5.714052">
        <ele>1232.234</ele>
        <time>1999-07-20T13:18:33Z</time>
      </trkpt>
      <trkpt lat="42.939438" lon="-5.714054">
        <ele>1231.831</ele>
        <time>1999-07-20T13:18:35Z</time>
      </trkpt>
      <trkpt lat="42.939529" lon="-5.714149">
        <ele>1230.646</ele>
        <time>1999-07-20T13:19:29Z</time>
      </trkpt>
      <trkpt lat="42.939543" lon="-5.714171">
        <ele>1230.616</ele>
        <time>1999-07-20T13:19:30Z</time>
      </trkpt>
      <trkpt lat="42.939611" lon="-5.714291">
        <ele>1230.676</ele>
        <time>1999-07-20T13:19:34Z</time>
      </trkpt>
      <trkpt lat="42.939655" lon="-5.714363">
        <ele>1230.613</ele>
        <time>1999-07-20T13:19:36Z</time>
      </trkpt>
      <trkpt lat="42.939868" lon="-5.714599">
        <ele>1230.408</ele>
        <time>1999-07-20T13:19:43Z</time>
      </trkpt>
      <trkpt lat="42.939940" lon="-5.714664">
        <ele>1230.464</ele>
        <time>1999-07-20T13:19:45Z</time>
      </trkpt>
      <trkpt lat="42.940059" lon="-5.714754">
        <ele>1230.499</ele>
        <time>1999-07-20T13:19:48Z</time>
      </trkpt>
      <trkpt lat="42.940190" lon="-5.714858">
        <ele>1230.479</ele>
        <time>1999-07-20T13:19:52Z</time>
      </trkpt>
      <trkpt lat="42.940291" lon="-5.714931">
        <ele>1230.667</ele>
        <time>1999-07-20T13:19:55Z</time>
      </trkpt>
      <trkpt lat="42.940398" lon="-5.714999">
        <ele>1230.885</ele>
        <time>1999-07-20T13:19:58Z</time>
      </trkpt>
      <trkpt lat="42.940528" lon="-5.715101">
        <ele>1231.211</ele>
        <time>1999-07-20T13:20:02Z</time>
      </trkpt>
      <trkpt lat="42.940624" lon="-5.715169">
        <ele>1231.898</ele>
        <time>1999-07-20T13:20:05Z</time>
      </trkpt>
      <trkpt lat="42.940740" lon="-5.715255">
        <ele>1232.413</ele>
        <time>1999-07-20T13:20:09Z</time>
      </trkpt>
      <trkpt lat="42.940833" lon="-5.715391">
        <ele>1232.643</ele>
        <time>1999-07-20T13:20:13Z</time>
      </trkpt>
      <trkpt lat="42.940941" lon="-5.715566">
        <ele>1232.664</ele>
        <time>1999-07-20T13:20:16Z</time>
      </trkpt>
      <trkpt lat="42.940980" lon="-5.715648">
        <ele>1232.610</ele>
        <time>1999-07-20T13:20:17Z</time>
      </trkpt>
      <trkpt lat="42.941136" lon="-5.716093">
        <ele>1232.208</ele>
        <time>1999-07-20T13:20:22Z</time>
      </trkpt>
      <trkpt lat="42.941193" lon="-5.716261">
        <ele>1231.017</ele>
        <time>1999-07-20T13:20:24Z</time>
      </trkpt>
      <trkpt lat="42.941239" lon="-5.716333">
        <ele>1230.012</ele>
        <time>1999-07-20T13:20:25Z</time>
      </trkpt>
      <trkpt lat="42.941290" lon="-5.716402">
        <ele>1229.292</ele>
        <time>1999-07-20T13:20:26Z</time>
      </trkpt>
      <trkpt lat="42.941343" lon="-5.716472">
        <ele>1228.620</ele>
        <time>1999-07-20T13:20:27Z</time>
      </trkpt>
      <trkpt lat="42.941445" lon="-5.716592">
        <ele>1226.818</ele>
        <time>1999-07-20T13:20:29Z</time>
      </trkpt>
      <trkpt lat="42.941487" lon="-5.716636">
        <ele>1225.664</ele>
        <time>1999-07-20T13:20:30Z</time>
      </trkpt>
      <trkpt lat="42.941525" lon="-5.716669">
        <ele>1224.651</ele>
        <time>1999-07-20T13:20:31Z</time>
      </trkpt>
      <trkpt lat="42.941603" lon="-5.716703">
        <ele>1222.626</ele>
        <time>1999-07-20T13:20:33Z</time>
      </trkpt>
      <trkpt lat="42.941626" lon="-5.716704">
        <ele>1221.649</ele>
        <time>1999-07-20T13:20:34Z</time>
      </trkpt>
      <trkpt lat="42.941647" lon="-5.716697">
        <ele>1220.002</ele>
        <time>1999-07-20T13:20:35Z</time>
      </trkpt>
      <trkpt lat="42.941668" lon="-5.716686">
        <ele>1218.822</ele>
        <time>1999-07-20T13:20:36Z</time>
      </trkpt>
      <trkpt lat="42.941686" lon="-5.716675">
        <ele>1216.608</ele>
        <time>1999-07-20T13:20:37Z</time>
      </trkpt>
      <trkpt lat="42.941705" lon="-5.716671">
        <ele>1215.237</ele>
        <time>1999-07-20T13:20:39Z</time>
      </trkpt>
      <trkpt lat="42.941618" lon="-5.716682">
        <ele>1211.662</ele>
        <time>1999-07-20T13:20:54Z</time>
      </trkpt>
      <trkpt lat="42.941594" lon="-5.716686">
        <ele>1211.632</ele>
        <time>1999-07-20T13:20:57Z</time>
      </trkpt>
      <trkpt lat="42.941592" lon="-5.716686">
        <ele>1211.640</ele>
        <time>1999-07-20T13:20:58Z</time>
      </trkpt>
      <trkpt lat="42.941548" lon="-5.716685">
        <ele>1213.468</ele>
        <time>1999-07-20T13:21:13Z</time>
      </trkpt>
      <trkpt lat="42.941536" lon="-5.716689">
        <ele>1213.634</ele>
        <time>1999-07-20T13:21:14Z</time>
      </trkpt>
      <trkpt lat="42.941513" lon="-5.716705">
        <ele>1213.681</ele>
        <time>1999-07-20T13:21:16Z</time>
      </trkpt>
      <trkpt lat="42.941505" lon="-5.716716">
        <ele>1213.696</ele>
        <time>1999-07-20T13:21:17Z</time>
      </trkpt>
      <trkpt lat="42.941499" lon="-5.716738">
        <ele>1213.668</ele>
        <time>1999-07-20T13:21:19Z</time>
      </trkpt>
      <trkpt lat="42.941500" lon="-5.716733">
        <ele>1213.642</ele>
        <time>1999-07-20T13:21:21Z</time>
      </trkpt>
      <trkpt lat="42.941514" lon="-5.716803">
        <ele>1213.626</ele>
        <time>1999-07-20T13:21:26Z</time>
      </trkpt>
      <trkpt lat="42.941518" lon="-5.716870">
        <ele>1213.608</ele>
        <time>1999-07-20T13:21:28Z</time>
      </trkpt>
      <trkpt lat="42.941518" lon="-5.716969">
        <ele>1213.489</ele>
        <time>1999-07-20T13:21:31Z</time>
      </trkpt>
      <trkpt lat="42.941528" lon="-5.717065">
        <ele>1213.244</ele>
        <time>1999-07-20T13:21:33Z</time>
      </trkpt>
      <trkpt lat="42.941583" lon="-5.717294">
        <ele>1213.034</ele>
        <time>1999-07-20T13:21:38Z</time>
      </trkpt>
      <trkpt lat="42.941642" lon="-5.717468">
        <ele>1212.642</ele>
        <time>1999-07-20T13:21:43Z</time>
      </trkpt>
      <trkpt lat="42.941642" lon="-5.717484">
        <ele>1212.640</ele>
        <time>1999-07-20T13:21:44Z</time>
      </trkpt>
      <trkpt lat="42.941645" lon="-5.717513">
        <ele>1212.676</ele>
        <time>1999-07-20T13:21:46Z</time>
      </trkpt>
      <trkpt lat="42.941634" lon="-5.717559">
        <ele>1212.673</ele>
        <time>1999-07-20T13:21:49Z</time>
      </trkpt>
      <trkpt lat="42.941554" lon="-5.717663">
        <ele>1212.628</ele>
        <time>1999-07-20T13:21:53Z</time>
      </trkpt>
      <trkpt lat="42.941597" lon="-5.717775">
        <ele>1212.681</ele>
        <time>1999-07-20T13:21:56Z</time>
      </trkpt>
      <trkpt lat="42.941635" lon="-5.717867">
        <ele>1212.661</ele>
        <time>1999-07-20T13:21:58Z</time>
      </trkpt>
      <trkpt lat="42.941663" lon="-5.717920">
        <ele>1212.617</ele>
        <time>1999-07-20T13:21:59Z</time>
      </trkpt>
      <trkpt lat="42.941697" lon="-5.717975">
        <ele>1212.608</ele>
        <time>1999-07-20T13:22:00Z</time>
      </trkpt>
      <trkpt lat="42.941756" lon="-5.718173">
        <ele>1212.631</ele>
        <time>1999-07-20T13:22:03Z</time>
      </trkpt>
      <trkpt lat="42.941789" lon="-5.718269">
        <ele>1212.696</ele>
        <time>1999-07-20T13:22:05Z</time>
      </trkpt>
      <trkpt lat="42.941791" lon="-5.718293">
        <ele>1212.636</ele>
        <time>1999-07-20T13:22:06Z</time>
      </trkpt>
      <trkpt lat="42.941790" lon="-5.718297">
        <ele>1212.044</ele>
        <time>1999-07-20T13:22:08Z</time>
      </trkpt>
      <trkpt lat="42.941829" lon="-5.718302">
        <ele>1209.882</ele>
        <time>1999-07-20T13:22:16Z</time>
      </trkpt>
      <trkpt lat="42.941853" lon="-5.718303">
        <ele>1209.878</ele>
        <time>1999-07-20T13:22:17Z</time>
      </trkpt>
      <trkpt lat="42.941927" lon="-5.718329">
        <ele>1209.625</ele>
        <time>1999-07-20T13:22:20Z</time>
      </trkpt>
      <trkpt lat="42.941958" lon="-5.718364">
        <ele>1209.650</ele>
        <time>1999-07-20T13:22:22Z</time>
      </trkpt>
      <trkpt lat="42.941969" lon="-5.718383">
        <ele>1209.099</ele>
        <time>1999-07-20T13:22:25Z</time>
      </trkpt>
      <trkpt lat="42.942377" lon="-5.718594">
        <ele>1200.607</ele>
        <time>1999-07-20T13:23:26Z</time>
      </trkpt>
      <trkpt lat="42.942389" lon="-5.718602">
        <ele>1200.827</ele>
        <time>1999-07-20T13:23:27Z</time>
      </trkpt>
      <trkpt lat="42.942445" lon="-5.718630">
        <ele>1201.608</ele>
        <time>1999-07-20T13:23:32Z</time>
      </trkpt>
      <trkpt lat="42.942455" lon="-5.718638">
        <ele>1201.632</ele>
        <time>1999-07-20T13:23:33Z</time>
      </trkpt>
      <trkpt lat="42.942479" lon="-5.718659">
        <ele>1202.637</ele>
        <time>1999-07-20T13:23:38Z</time>
      </trkpt>
      <trkpt lat="42.942536" lon="-5.718715">
        <ele>1203.027</ele>
        <time>1999-07-20T13:23:48Z</time>
      </trkpt>
      <trkpt lat="42.942579" lon="-5.718766">
        <ele>1203.055</ele>
        <time>1999-07-20T13:23:50Z</time>
      </trkpt>
      <trkpt lat="42.942728" lon="-5.718959">
        <ele>1202.893</ele>
        <time>1999-07-20T13:23:56Z</time>
      </trkpt>
      <trkpt lat="42.942761" lon="-5.718990">
        <ele>1202.899</ele>
        <time>1999-07-20T13:23:57Z</time>
      </trkpt>
      <trkpt lat="42.942858" lon="-5.719086">
        <ele>1202.616</ele>
        <time>1999-07-20T13:24:00Z</time>
      </trkpt>
      <trkpt lat="42.942993" lon="-5.719195">
        <ele>1202.691</ele>
        <time>1999-07-20T13:24:04Z</time>
      </trkpt>
      <trkpt lat="42.943114" lon="-5.719253">
        <ele>1202.626</ele>
        <time>1999-07-20T13:24:09Z</time>
      </trkpt>
      <trkpt lat="42.943116" lon="-5.719266">
        <ele>1202.647</ele>
        <time>1999-07-20T13:24:12Z</time>
      </trkpt>
      <trkpt lat="42.943372" lon="-5.719340">
        <ele>1202.611</ele>
        <time>1999-07-20T13:28:20Z</time>
      </trkpt>
      <trkpt lat="42.943385" lon="-5.719346">
        <ele>1202.608</ele>
        <time>1999-07-20T13:28:21Z</time>
      </trkpt>
      <trkpt lat="42.943431" lon="-5.719364">
        <ele>1202.475</ele>
        <time>1999-07-20T13:28:24Z</time>
      </trkpt>
      <trkpt lat="42.943492" lon="-5.719390">
        <ele>1202.240</ele>
        <time>1999-07-20T13:28:28Z</time>
      </trkpt>
      <trkpt lat="42.943520" lon="-5.719399">
        <ele>1202.040</ele>
        <time>1999-07-20T13:28:30Z</time>
      </trkpt>
      <trkpt lat="42.943549" lon="-5.719416">
        <ele>1201.898</ele>
        <time>1999-07-20T13:28:32Z</time>
      </trkpt>
      <trkpt lat="42.943593" lon="-5.719435">
        <ele>1201.616</ele>
        <time>1999-07-20T13:28:35Z</time>
      </trkpt>
      <trkpt lat="42.943622" lon="-5.719450">
        <ele>1201.672</ele>
        <time>1999-07-20T13:28:37Z</time>
      </trkpt>
      <trkpt lat="42.943652" lon="-5.719479">
        <ele>1201.669</ele>
        <time>1999-07-20T13:28:40Z</time>
      </trkpt>
      <trkpt lat="42.943658" lon="-5.719488">
        <ele>1201.654</ele>
        <time>1999-07-20T13:28:41Z</time>
      </trkpt>
      <trkpt lat="42.943667" lon="-5.719495">
        <ele>1201.656</ele>
        <time>1999-07-20T13:28:42Z</time>
      </trkpt>
      <trkpt lat="42.943679" lon="-5.719502">
        <ele>1201.459</ele>
        <time>1999-07-20T13:28:43Z</time>
      </trkpt>
      <trkpt lat="42.943688" lon="-5.719515">
        <ele>1201.414</ele>
        <time>1999-07-20T13:28:44Z</time>
      </trkpt>
      <trkpt lat="42.943696" lon="-5.719525">
        <ele>1201.408</ele>
        <time>1999-07-20T13:28:45Z</time>
      </trkpt>
      <trkpt lat="42.943712" lon="-5.719546">
        <ele>1201.268</ele>
        <time>1999-07-20T13:28:47Z</time>
      </trkpt>
      <trkpt lat="42.943738" lon="-5.719582">
        <ele>1201.083</ele>
        <time>1999-07-20T13:28:50Z</time>
      </trkpt>
      <trkpt lat="42.943767" lon="-5.719610">
        <ele>1200.893</ele>
        <time>1999-07-20T13:28:52Z</time>
      </trkpt>
      <trkpt lat="42.943779" lon="-5.719627">
        <ele>1200.851</ele>
        <time>1999-07-20T13:28:53Z</time>
      </trkpt>
      <trkpt lat="42.943815" lon="-5.719663">
        <ele>1200.879</ele>
        <time>1999-07-20T13:28:56Z</time>
      </trkpt>
      <trkpt lat="42.943837" lon="-5.719672">
        <ele>1200.675</ele>
        <time>1999-07-20T13:28:58Z</time>
      </trkpt>
      <trkpt lat="42.943868" lon="-5.719702">
        <ele>1200.442</ele>
        <time>1999-07-20T13:29:01Z</time>
      </trkpt>
      <trkpt lat="42.943885" lon="-5.719713">
        <ele>1200.497</ele>
        <time>1999-07-20T13:29:02Z</time>
      </trkpt>
      <trkpt lat="42.943933" lon="-5.719762">
        <ele>1200.046</ele>
        <time>1999-07-20T13:29:06Z</time>
      </trkpt>
      <trkpt lat="42.943973" lon="-5.719796">
        <ele>1199.888</ele>
        <time>1999-07-20T13:29:09Z</time>
      </trkpt>
      <trkpt lat="42.944003" lon="-5.719819">
        <ele>1199.416</ele>
        <time>1999-07-20T13:29:13Z</time>
      </trkpt>
      <trkpt lat="42.944168" lon="-5.719829">
        <ele>1198.208</ele>
        <time>1999-07-20T13:29:36Z</time>
      </trkpt>
      <trkpt lat="42.944282" lon="-5.719939">
        <ele>1197.617</ele>
        <time>1999-07-20T13:29:46Z</time>
      </trkpt>
      <trkpt lat="42.944291" lon="-5.719949">
        <ele>1197.452</ele>
        <time>1999-07-20T13:29:47Z</time>
      </trkpt>
      <trkpt lat="42.944349" lon="-5.720015">
        <ele>1197.262</ele>
        <time>1999-07-20T13:29:53Z</time>
      </trkpt>
      <trkpt lat="42.944380" lon="-5.720045">
        <ele>1197.240</ele>
        <time>1999-07-20T13:29:56Z</time>
      </trkpt>
      <trkpt lat="42.944402" lon="-5.720067">
        <ele>1197.088</ele>
        <time>1999-07-20T13:29:58Z</time>
      </trkpt>
      <trkpt lat="42.944467" lon="-5.720232">
        <ele>1197.044</ele>
        <time>1999-07-20T13:30:06Z</time>
      </trkpt>
      <trkpt lat="42.944480" lon="-5.720249">
        <ele>1197.041</ele>
        <time>1999-07-20T13:30:09Z</time>
      </trkpt>
      <trkpt lat="42.944537" lon="-5.720290">
        <ele>1197.096</ele>
        <time>1999-07-20T13:30:21Z</time>
      </trkpt>
      <trkpt lat="42.944552" lon="-5.720298">
        <ele>1197.034</ele>
        <time>1999-07-20T13:30:22Z</time>
      </trkpt>
      <trkpt lat="42.944591" lon="-5.720314">
        <ele>1196.855</ele>
        <time>1999-07-20T13:30:25Z</time>
      </trkpt>
      <trkpt lat="42.944635" lon="-5.720337">
        <ele>1196.810</ele>
        <time>1999-07-20T13:30:28Z</time>
      </trkpt>
      <trkpt lat="42.944717" lon="-5.720383">
        <ele>1196.408</ele>
        <time>1999-07-20T13:30:35Z</time>
      </trkpt>
      <trkpt lat="42.944757" lon="-5.720409">
        <ele>1196.216</ele>
        <time>1999-07-20T13:30:38Z</time>
      </trkpt>
      <trkpt lat="42.944825" lon="-5.720478">
        <ele>1195.811</ele>
        <time>1999-07-20T13:30:44Z</time>
      </trkpt>
      <trkpt lat="42.944894" lon="-5.720503">
        <ele>1195.831</ele>
        <time>1999-07-20T13:30:48Z</time>
      </trkpt>
      <trkpt lat="42.944915" lon="-5.720539">
        <ele>1195.689</ele>
        <time>1999-07-20T13:30:50Z</time>
      </trkpt>
      <trkpt lat="42.944978" lon="-5.720620">
        <ele>1195.657</ele>
        <time>1999-07-20T13:30:55Z</time>
      </trkpt>
      <trkpt lat="42.944987" lon="-5.720634">
        <ele>1195.683</ele>
        <time>1999-07-20T13:30:56Z</time>
      </trkpt>
      <trkpt lat="42.945037" lon="-5.720724">
        <ele>1195.410</ele>
        <time>1999-07-20T13:31:02Z</time>
      </trkpt>
      <trkpt lat="42.945061" lon="-5.720725">
        <ele>1195.615</ele>
        <time>1999-07-20T13:31:03Z</time>
      </trkpt>
      <trkpt lat="42.945085" lon="-5.720755">
        <ele>1195.215</ele>
        <time>1999-07-20T13:31:05Z</time>
      </trkpt>
      <trkpt lat="42.945111" lon="-5.720816">
        <ele>1195.065</ele>
        <time>1999-07-20T13:31:08Z</time>
      </trkpt>
      <trkpt lat="42.945145" lon="-5.720881">
        <ele>1194.811</ele>
        <time>1999-07-20T13:31:11Z</time>
      </trkpt>
      <trkpt lat="42.945198" lon="-5.720993">
        <ele>1194.208</ele>
        <time>1999-07-20T13:31:16Z</time>
      </trkpt>
      <trkpt lat="42.945216" lon="-5.721019">
        <ele>1194.064</ele>
        <time>1999-07-20T13:31:17Z</time>
      </trkpt>
      <trkpt lat="42.945286" lon="-5.721139">
        <ele>1193.459</ele>
        <time>1999-07-20T13:31:21Z</time>
      </trkpt>
      <trkpt lat="42.945318" lon="-5.721160">
        <ele>1193.219</ele>
        <time>1999-07-20T13:31:23Z</time>
      </trkpt>
      <trkpt lat="42.945375" lon="-5.721213">
        <ele>1192.667</ele>
        <time>1999-07-20T13:31:26Z</time>
      </trkpt>
      <trkpt lat="42.945382" lon="-5.721246">
        <ele>1192.225</ele>
        <time>1999-07-20T13:31:27Z</time>
      </trkpt>
      <trkpt lat="42.945390" lon="-5.721275">
        <ele>1191.871</ele>
        <time>1999-07-20T13:31:28Z</time>
      </trkpt>
      <trkpt lat="42.945413" lon="-5.721319">
        <ele>1191.238</ele>
        <time>1999-07-20T13:31:30Z</time>
      </trkpt>
      <trkpt lat="42.945475" lon="-5.721339">
        <ele>1190.833</ele>
        <time>1999-07-20T13:31:34Z</time>
      </trkpt>
      <trkpt lat="42.945491" lon="-5.721351">
        <ele>1190.678</ele>
        <time>1999-07-20T13:31:35Z</time>
      </trkpt>
      <trkpt lat="42.945530" lon="-5.721382">
        <ele>1190.233</ele>
        <time>1999-07-20T13:31:38Z</time>
      </trkpt>
      <trkpt lat="42.945559" lon="-5.721373">
        <ele>1190.026</ele>
        <time>1999-07-20T13:31:40Z</time>
      </trkpt>
      <trkpt lat="42.945601" lon="-5.721343">
        <ele>1189.808</ele>
        <time>1999-07-20T13:31:43Z</time>
      </trkpt>
      <trkpt lat="42.945653" lon="-5.721338">
        <ele>1189.670</ele>
        <time>1999-07-20T13:31:47Z</time>
      </trkpt>
      <trkpt lat="42.945667" lon="-5.721342">
        <ele>1189.665</ele>
        <time>1999-07-20T13:31:48Z</time>
      </trkpt>
      <trkpt lat="42.945745" lon="-5.721407">
        <ele>1189.685</ele>
        <time>1999-07-20T13:31:55Z</time>
      </trkpt>
      <trkpt lat="42.945757" lon="-5.721431">
        <ele>1189.413</ele>
        <time>1999-07-20T13:31:57Z</time>
      </trkpt>
      <trkpt lat="42.945764" lon="-5.721480">
        <ele>1189.261</ele>
        <time>1999-07-20T13:32:00Z</time>
      </trkpt>
      <trkpt lat="42.945773" lon="-5.721497">
        <ele>1189.227</ele>
        <time>1999-07-20T13:32:01Z</time>
      </trkpt>
      <trkpt lat="42.945780" lon="-5.721527">
        <ele>1188.824</ele>
        <time>1999-07-20T13:32:04Z</time>
      </trkpt>
      <trkpt lat="42.945781" lon="-5.721527">
        <ele>1188.889</ele>
        <time>1999-07-20T13:32:05Z</time>
      </trkpt>
      <trkpt lat="42.945808" lon="-5.721559">
        <ele>1188.688</ele>
        <time>1999-07-20T13:32:29Z</time>
      </trkpt>
      <trkpt lat="42.945829" lon="-5.721591">
        <ele>1188.624</ele>
        <time>1999-07-20T13:32:31Z</time>
      </trkpt>
      <trkpt lat="42.945839" lon="-5.721604">
        <ele>1188.626</ele>
        <time>1999-07-20T13:32:32Z</time>
      </trkpt>
      <trkpt lat="42.945848" lon="-5.721615">
        <ele>1188.608</ele>
        <time>1999-07-20T13:32:33Z</time>
      </trkpt>
      <trkpt lat="42.945847" lon="-5.721651">
        <ele>1188.471</ele>
        <time>1999-07-20T13:32:36Z</time>
      </trkpt>
      <trkpt lat="42.945843" lon="-5.721682">
        <ele>1188.266</ele>
        <time>1999-07-20T13:32:38Z</time>
      </trkpt>
      <trkpt lat="42.945836" lon="-5.721689">
        <ele>1188.066</ele>
        <time>1999-07-20T13:32:41Z</time>
      </trkpt>
      <trkpt lat="42.945836" lon="-5.721689">
        <ele>1187.884</ele>
        <time>1999-07-20T13:32:42Z</time>
      </trkpt>
      <trkpt lat="42.945831" lon="-5.721696">
        <ele>1187.852</ele>
        <time>1999-07-20T13:32:43Z</time>
      </trkpt>
      <trkpt lat="42.945687" lon="-5.721778">
        <ele>1227.449</ele>
        <time>1999-07-21T09:00:20Z</time>
      </trkpt>
      <trkpt lat="42.945665" lon="-5.721768">
        <ele>1226.802</ele>
        <time>1999-07-21T09:00:23Z</time>
      </trkpt>
      <trkpt lat="42.945739" lon="-5.721563">
        <ele>1227.022</ele>
        <time>1999-07-21T09:03:08Z</time>
      </trkpt>
      <trkpt lat="42.945725" lon="-5.721521">
        <ele>1227.208</ele>
        <time>1999-07-21T09:03:10Z</time>
      </trkpt>
      <trkpt lat="42.945707" lon="-5.721484">
        <ele>1227.217</ele>
        <time>1999-07-21T09:03:12Z</time>
      </trkpt>
      <trkpt lat="42.945683" lon="-5.721437">
        <ele>1227.422</ele>
        <time>1999-07-21T09:03:14Z</time>
      </trkpt>
      <trkpt lat="42.945665" lon="-5.721411">
        <ele>1227.442</ele>
        <time>1999-07-21T09:03:15Z</time>
      </trkpt>
      <trkpt lat="42.945572" lon="-5.721355">
        <ele>1227.883</ele>
        <time>1999-07-21T09:03:18Z</time>
      </trkpt>
      <trkpt lat="42.945535" lon="-5.721360">
        <ele>1228.051</ele>
        <time>1999-07-21T09:03:19Z</time>
      </trkpt>
      <trkpt lat="42.945485" lon="-5.721428">
        <ele>1228.239</ele>
        <time>1999-07-21T09:03:21Z</time>
      </trkpt>
      <trkpt lat="42.945475" lon="-5.721478">
        <ele>1228.480</ele>
        <time>1999-07-21T09:03:22Z</time>
      </trkpt>
      <trkpt lat="42.945473" lon="-5.721555">
        <ele>1228.856</ele>
        <time>1999-07-21T09:03:24Z</time>
      </trkpt>
      <trkpt lat="42.945472" lon="-5.721593">
        <ele>1229.244</ele>
        <time>1999-07-21T09:03:26Z</time>
      </trkpt>
      <trkpt lat="42.945475" lon="-5.721603">
        <ele>1229.405</ele>
        <time>1999-07-21T09:03:28Z</time>
      </trkpt>
      <trkpt lat="42.945552" lon="-5.721537">
        <ele>1231.215</ele>
        <time>1999-07-21T09:06:35Z</time>
      </trkpt>
      <trkpt lat="42.945552" lon="-5.721488">
        <ele>1231.008</ele>
        <time>1999-07-21T09:06:36Z</time>
      </trkpt>
      <trkpt lat="42.945599" lon="-5.721404">
        <ele>1231.027</ele>
        <time>1999-07-21T09:06:38Z</time>
      </trkpt>
      <trkpt lat="42.945641" lon="-5.721389">
        <ele>1231.012</ele>
        <time>1999-07-21T09:06:39Z</time>
      </trkpt>
      <trkpt lat="42.945769" lon="-5.721489">
        <ele>1231.072</ele>
        <time>1999-07-21T09:06:42Z</time>
      </trkpt>
      <trkpt lat="42.945901" lon="-5.721719">
        <ele>1230.663</ele>
        <time>1999-07-21T09:06:45Z</time>
      </trkpt>
      <trkpt lat="42.946136" lon="-5.721854">
        <ele>1230.041</ele>
        <time>1999-07-21T09:06:48Z</time>
      </trkpt>
      <trkpt lat="42.946421" lon="-5.721894">
        <ele>1229.699</ele>
        <time>1999-07-21T09:06:51Z</time>
      </trkpt>
      <trkpt lat="42.946514" lon="-5.721890">
        <ele>1229.270</ele>
        <time>1999-07-21T09:06:52Z</time>
      </trkpt>
      <trkpt lat="42.946605" lon="-5.721872">
        <ele>1228.416</ele>
        <time>1999-07-21T09:06:53Z</time>
      </trkpt>
      <trkpt lat="42.946689" lon="-5.721850">
        <ele>1228.035</ele>
        <time>1999-07-21T09:06:54Z</time>
      </trkpt>
      <trkpt lat="42.946767" lon="-5.721846">
        <ele>1227.886</ele>
        <time>1999-07-21T09:06:55Z</time>
      </trkpt>
      <trkpt lat="42.946830" lon="-5.721867">
        <ele>1227.214</ele>
        <time>1999-07-21T09:06:56Z</time>
      </trkpt>
      <trkpt lat="42.946913" lon="-5.721902">
        <ele>1226.408</ele>
        <time>1999-07-21T09:06:58Z</time>
      </trkpt>
      <trkpt lat="42.946944" lon="-5.721923">
        <ele>1226.286</ele>
        <time>1999-07-21T09:06:59Z</time>
      </trkpt>
      <trkpt lat="42.946972" lon="-5.721961">
        <ele>1225.891</ele>
        <time>1999-07-21T09:07:00Z</time>
      </trkpt>
      <trkpt lat="42.947017" lon="-5.722057">
        <ele>1225.291</ele>
        <time>1999-07-21T09:07:02Z</time>
      </trkpt>
      <trkpt lat="42.947038" lon="-5.722116">
        <ele>1224.622</ele>
        <time>1999-07-21T09:07:03Z</time>
      </trkpt>
      <trkpt lat="42.947081" lon="-5.722248">
        <ele>1223.480</ele>
        <time>1999-07-21T09:07:05Z</time>
      </trkpt>
      <trkpt lat="42.947155" lon="-5.722456">
        <ele>1222.688</ele>
        <time>1999-07-21T09:07:08Z</time>
      </trkpt>
      <trkpt lat="42.947278" lon="-5.722611">
        <ele>1222.499</ele>
        <time>1999-07-21T09:07:11Z</time>
      </trkpt>
      <trkpt lat="42.947328" lon="-5.722652">
        <ele>1222.425</ele>
        <time>1999-07-21T09:07:12Z</time>
      </trkpt>
      <trkpt lat="42.947430" lon="-5.722742">
        <ele>1222.449</ele>
        <time>1999-07-21T09:07:14Z</time>
      </trkpt>
      <trkpt lat="42.947716" lon="-5.722985">
        <ele>1222.802</ele>
        <time>1999-07-21T09:07:20Z</time>
      </trkpt>
      <trkpt lat="42.947868" lon="-5.723113">
        <ele>1223.022</ele>
        <time>1999-07-21T09:07:24Z</time>
      </trkpt>
      <trkpt lat="42.947929" lon="-5.723167">
        <ele>1223.408</ele>
        <time>1999-07-21T09:07:26Z</time>
      </trkpt>
      <trkpt lat="42.948014" lon="-5.723241">
        <ele>1224.097</ele>
        <time>1999-07-21T09:07:29Z</time>
      </trkpt>
      <trkpt lat="42.948088" lon="-5.723316">
        <ele>1224.812</ele>
        <time>1999-07-21T09:07:32Z</time>
      </trkpt>
      <trkpt lat="42.948138" lon="-5.723363">
        <ele>1225.442</ele>
        <time>1999-07-21T09:07:34Z</time>
      </trkpt>
      <trkpt lat="42.948188" lon="-5.723396">
        <ele>1226.283</ele>
        <time>1999-07-21T09:07:36Z</time>
      </trkpt>
      <trkpt lat="42.948310" lon="-5.723443">
        <ele>1227.461</ele>
        <time>1999-07-21T09:07:40Z</time>
      </trkpt>
      <trkpt lat="42.948337" lon="-5.723457">
        <ele>1227.699</ele>
        <time>1999-07-21T09:07:41Z</time>
      </trkpt>
      <trkpt lat="42.948400" lon="-5.723507">
        <ele>1228.420</ele>
        <time>1999-07-21T09:07:44Z</time>
      </trkpt>
      <trkpt lat="42.948445" lon="-5.723554">
        <ele>1228.876</ele>
        <time>1999-07-21T09:07:47Z</time>
      </trkpt>
      <trkpt lat="42.948484" lon="-5.723636">
        <ele>1229.624</ele>
        <time>1999-07-21T09:07:51Z</time>
      </trkpt>
      <trkpt lat="42.948513" lon="-5.723693">
        <ele>1230.804</ele>
        <time>1999-07-21T09:07:54Z</time>
      </trkpt>
      <trkpt lat="42.948520" lon="-5.723712">
        <ele>1231.014</ele>
        <time>1999-07-21T09:07:55Z</time>
      </trkpt>
      <trkpt lat="42.948546" lon="-5.723788">
        <ele>1232.008</ele>
        <time>1999-07-21T09:07:59Z</time>
      </trkpt>
      <trkpt lat="42.948593" lon="-5.723879">
        <ele>1233.045</ele>
        <time>1999-07-21T09:08:04Z</time>
      </trkpt>
      <trkpt lat="42.948608" lon="-5.723915">
        <ele>1233.420</ele>
        <time>1999-07-21T09:08:06Z</time>
      </trkpt>
      <trkpt lat="42.948648" lon="-5.723984">
        <ele>1234.240</ele>
        <time>1999-07-21T09:08:10Z</time>
      </trkpt>
      <trkpt lat="42.948693" lon="-5.724069">
        <ele>1235.251</ele>
        <time>1999-07-21T09:08:15Z</time>
      </trkpt>
      <trkpt lat="42.948723" lon="-5.724111">
        <ele>1236.229</ele>
        <time>1999-07-21T09:08:18Z</time>
      </trkpt>
      <trkpt lat="42.948769" lon="-5.724186">
        <ele>1237.467</ele>
        <time>1999-07-21T09:08:23Z</time>
      </trkpt>
      <trkpt lat="42.948814" lon="-5.724274">
        <ele>1238.668</ele>
        <time>1999-07-21T09:08:28Z</time>
      </trkpt>
      <trkpt lat="42.948866" lon="-5.724347">
        <ele>1239.684</ele>
        <time>1999-07-21T09:08:33Z</time>
      </trkpt>
      <trkpt lat="42.948877" lon="-5.724359">
        <ele>1239.841</ele>
        <time>1999-07-21T09:08:34Z</time>
      </trkpt>
      <trkpt lat="42.948945" lon="-5.724439">
        <ele>1241.281</ele>
        <time>1999-07-21T09:08:40Z</time>
      </trkpt>
      <trkpt lat="42.948989" lon="-5.724487">
        <ele>1242.209</ele>
        <time>1999-07-21T09:08:44Z</time>
      </trkpt>
      <trkpt lat="42.948998" lon="-5.724499">
        <ele>1242.408</ele>
        <time>1999-07-21T09:08:45Z</time>
      </trkpt>
      <trkpt lat="42.949030" lon="-5.724542">
        <ele>1243.437</ele>
        <time>1999-07-21T09:08:48Z</time>
      </trkpt>
      <trkpt lat="42.949068" lon="-5.724600">
        <ele>1244.432</ele>
        <time>1999-07-21T09:08:52Z</time>
      </trkpt>
      <trkpt lat="42.949087" lon="-5.724630">
        <ele>1245.032</ele>
        <time>1999-07-21T09:08:54Z</time>
      </trkpt>
      <trkpt lat="42.949110" lon="-5.724682">
        <ele>1245.693</ele>
        <time>1999-07-21T09:08:57Z</time>
      </trkpt>
      <trkpt lat="42.949115" lon="-5.724695">
        <ele>1246.471</ele>
        <time>1999-07-21T09:09:00Z</time>
      </trkpt>
      <trkpt lat="42.949176" lon="-5.724798">
        <ele>1250.069</ele>
        <time>1999-07-21T09:09:34Z</time>
      </trkpt>
      <trkpt lat="42.949185" lon="-5.724817">
        <ele>1250.090</ele>
        <time>1999-07-21T09:09:35Z</time>
      </trkpt>
      <trkpt lat="42.949198" lon="-5.724857">
        <ele>1250.076</ele>
        <time>1999-07-21T09:09:37Z</time>
      </trkpt>
      <trkpt lat="42.949230" lon="-5.724902">
        <ele>1250.077</ele>
        <time>1999-07-21T09:09:40Z</time>
      </trkpt>
      <trkpt lat="42.949262" lon="-5.724941">
        <ele>1250.861</ele>
        <time>1999-07-21T09:09:43Z</time>
      </trkpt>
      <trkpt lat="42.949272" lon="-5.724956">
        <ele>1251.227</ele>
        <time>1999-07-21T09:09:44Z</time>
      </trkpt>
      <trkpt lat="42.949300" lon="-5.724995">
        <ele>1252.208</ele>
        <time>1999-07-21T09:09:47Z</time>
      </trkpt>
      <trkpt lat="42.949325" lon="-5.725065">
        <ele>1253.070</ele>
        <time>1999-07-21T09:09:51Z</time>
      </trkpt>
      <trkpt lat="42.949327" lon="-5.725085">
        <ele>1253.225</ele>
        <time>1999-07-21T09:09:52Z</time>
      </trkpt>
      <trkpt lat="42.949342" lon="-5.725155">
        <ele>1254.035</ele>
        <time>1999-07-21T09:09:56Z</time>
      </trkpt>
      <trkpt lat="42.949356" lon="-5.725189">
        <ele>1254.646</ele>
        <time>1999-07-21T09:09:58Z</time>
      </trkpt>
      <trkpt lat="42.949364" lon="-5.725208">
        <ele>1255.034</ele>
        <time>1999-07-21T09:09:59Z</time>
      </trkpt>
      <trkpt lat="42.949396" lon="-5.725271">
        <ele>1255.822</ele>
        <time>1999-07-21T09:10:02Z</time>
      </trkpt>
      <trkpt lat="42.949415" lon="-5.725302">
        <ele>1256.463</ele>
        <time>1999-07-21T09:10:04Z</time>
      </trkpt>
      <trkpt lat="42.949424" lon="-5.725316">
        <ele>1257.089</ele>
        <time>1999-07-21T09:10:05Z</time>
      </trkpt>
      <trkpt lat="42.949454" lon="-5.725364">
        <ele>1258.083</ele>
        <time>1999-07-21T09:10:08Z</time>
      </trkpt>
      <trkpt lat="42.949488" lon="-5.725408">
        <ele>1259.225</ele>
        <time>1999-07-21T09:10:11Z</time>
      </trkpt>
      <trkpt lat="42.949499" lon="-5.725421">
        <ele>1260.017</ele>
        <time>1999-07-21T09:10:12Z</time>
      </trkpt>
      <trkpt lat="42.949511" lon="-5.725434">
        <ele>1260.408</ele>
        <time>1999-07-21T09:10:13Z</time>
      </trkpt>
      <trkpt lat="42.949554" lon="-5.725482">
        <ele>1261.681</ele>
        <time>1999-07-21T09:10:17Z</time>
      </trkpt>
      <trkpt lat="42.949594" lon="-5.725527">
        <ele>1262.656</ele>
        <time>1999-07-21T09:10:20Z</time>
      </trkpt>
      <trkpt lat="42.949648" lon="-5.725591">
        <ele>1263.886</ele>
        <time>1999-07-21T09:10:24Z</time>
      </trkpt>
      <trkpt lat="42.949702" lon="-5.725666">
        <ele>1265.057</ele>
        <time>1999-07-21T09:10:29Z</time>
      </trkpt>
      <trkpt lat="42.949760" lon="-5.725726">
        <ele>1266.045</ele>
        <time>1999-07-21T09:10:33Z</time>
      </trkpt>
      <trkpt lat="42.949795" lon="-5.725766">
        <ele>1266.453</ele>
        <time>1999-07-21T09:10:35Z</time>
      </trkpt>
      <trkpt lat="42.949815" lon="-5.725845">
        <ele>1267.284</ele>
        <time>1999-07-21T09:10:39Z</time>
      </trkpt>
      <trkpt lat="42.949833" lon="-5.725877">
        <ele>1267.460</ele>
        <time>1999-07-21T09:10:41Z</time>
      </trkpt>
      <trkpt lat="42.949902" lon="-5.725971">
        <ele>1267.891</ele>
        <time>1999-07-21T09:10:47Z</time>
      </trkpt>
      <trkpt lat="42.949931" lon="-5.726016">
        <ele>1268.481</ele>
        <time>1999-07-21T09:10:50Z</time>
      </trkpt>
      <trkpt lat="42.949968" lon="-5.726082">
        <ele>1269.619</ele>
        <time>1999-07-21T09:10:54Z</time>
      </trkpt>
      <trkpt lat="42.949977" lon="-5.726097">
        <ele>1270.008</ele>
        <time>1999-07-21T09:10:55Z</time>
      </trkpt>
      <trkpt lat="42.950005" lon="-5.726150">
        <ele>1270.612</ele>
        <time>1999-07-21T09:10:58Z</time>
      </trkpt>
      <trkpt lat="42.950067" lon="-5.726240">
        <ele>1271.837</ele>
        <time>1999-07-21T09:11:02Z</time>
      </trkpt>
      <trkpt lat="42.950154" lon="-5.726399">
        <ele>1272.697</ele>
        <time>1999-07-21T09:11:06Z</time>
      </trkpt>
      <trkpt lat="42.950181" lon="-5.726449">
        <ele>1272.688</ele>
        <time>1999-07-21T09:11:07Z</time>
      </trkpt>
      <trkpt lat="42.950316" lon="-5.726723">
        <ele>1272.676</ele>
        <time>1999-07-21T09:11:11Z</time>
      </trkpt>
      <trkpt lat="42.950570" lon="-5.727181">
        <ele>1272.054</ele>
        <time>1999-07-21T09:11:17Z</time>
      </trkpt>
      <trkpt lat="42.950713" lon="-5.727441">
        <ele>1271.635</ele>
        <time>1999-07-21T09:11:22Z</time>
      </trkpt>
      <trkpt lat="42.950858" lon="-5.727822">
        <ele>1272.461</ele>
        <time>1999-07-21T09:11:30Z</time>
      </trkpt>
      <trkpt lat="42.950880" lon="-5.727911">
        <ele>1272.834</ele>
        <time>1999-07-21T09:11:32Z</time>
      </trkpt>
      <trkpt lat="42.950946" lon="-5.728175">
        <ele>1274.055</ele>
        <time>1999-07-21T09:11:37Z</time>
      </trkpt>
      <trkpt lat="42.951029" lon="-5.728486">
        <ele>1274.610</ele>
        <time>1999-07-21T09:11:42Z</time>
      </trkpt>
      <trkpt lat="42.951064" lon="-5.728626">
        <ele>1274.808</ele>
        <time>1999-07-21T09:11:44Z</time>
      </trkpt>
      <trkpt lat="42.951122" lon="-5.728833">
        <ele>1274.876</ele>
        <time>1999-07-21T09:11:47Z</time>
      </trkpt>
      <trkpt lat="42.951180" lon="-5.729067">
        <ele>1275.011</ele>
        <time>1999-07-21T09:11:51Z</time>
      </trkpt>
      <trkpt lat="42.951283" lon="-5.729429">
        <ele>1275.071</ele>
        <time>1999-07-21T09:11:59Z</time>
      </trkpt>
      <trkpt lat="42.951353" lon="-5.729656">
        <ele>1276.492</ele>
        <time>1999-07-21T09:12:05Z</time>
      </trkpt>
      <trkpt lat="42.951390" lon="-5.729768">
        <ele>1277.230</ele>
        <time>1999-07-21T09:12:08Z</time>
      </trkpt>
      <trkpt lat="42.951403" lon="-5.729804">
        <ele>1277.688</ele>
        <time>1999-07-21T09:12:09Z</time>
      </trkpt>
      <trkpt lat="42.951484" lon="-5.730027">
        <ele>1278.699</ele>
        <time>1999-07-21T09:12:15Z</time>
      </trkpt>
      <trkpt lat="42.951498" lon="-5.730066">
        <ele>1278.615</ele>
        <time>1999-07-21T09:12:16Z</time>
      </trkpt>
      <trkpt lat="42.951590" lon="-5.730303">
        <ele>1279.698</ele>
        <time>1999-07-21T09:12:22Z</time>
      </trkpt>
      <trkpt lat="42.951622" lon="-5.730386">
        <ele>1280.015</ele>
        <time>1999-07-21T09:12:24Z</time>
      </trkpt>
      <trkpt lat="42.951708" lon="-5.730587">
        <ele>1280.826</ele>
        <time>1999-07-21T09:12:29Z</time>
      </trkpt>
      <trkpt lat="42.951760" lon="-5.730708">
        <ele>1281.208</ele>
        <time>1999-07-21T09:12:32Z</time>
      </trkpt>
      <trkpt lat="42.951808" lon="-5.730830">
        <ele>1281.812</ele>
        <time>1999-07-21T09:12:35Z</time>
      </trkpt>
      <trkpt lat="42.951886" lon="-5.731025">
        <ele>1282.677</ele>
        <time>1999-07-21T09:12:40Z</time>
      </trkpt>
      <trkpt lat="42.951918" lon="-5.731098">
        <ele>1282.817</ele>
        <time>1999-07-21T09:12:42Z</time>
      </trkpt>
      <trkpt lat="42.951933" lon="-5.731134">
        <ele>1283.018</ele>
        <time>1999-07-21T09:12:43Z</time>
      </trkpt>
      <trkpt lat="42.951989" lon="-5.731284">
        <ele>1284.016</ele>
        <time>1999-07-21T09:12:47Z</time>
      </trkpt>
      <trkpt lat="42.952054" lon="-5.731466">
        <ele>1285.284</ele>
        <time>1999-07-21T09:12:52Z</time>
      </trkpt>
      <trkpt lat="42.952114" lon="-5.731658">
        <ele>1286.275</ele>
        <time>1999-07-21T09:12:57Z</time>
      </trkpt>
      <trkpt lat="42.952160" lon="-5.731805">
        <ele>1287.211</ele>
        <time>1999-07-21T09:13:01Z</time>
      </trkpt>
      <trkpt lat="42.952171" lon="-5.731839">
        <ele>1287.614</ele>
        <time>1999-07-21T09:13:02Z</time>
      </trkpt>
      <trkpt lat="42.952229" lon="-5.732024">
        <ele>1288.654</ele>
        <time>1999-07-21T09:13:08Z</time>
      </trkpt>
      <trkpt lat="42.952236" lon="-5.732054">
        <ele>1288.609</ele>
        <time>1999-07-21T09:13:09Z</time>
      </trkpt>
      <trkpt lat="42.952243" lon="-5.732083">
        <ele>1289.008</ele>
        <time>1999-07-21T09:13:10Z</time>
      </trkpt>
      <trkpt lat="42.952264" lon="-5.732175">
        <ele>1289.844</ele>
        <time>1999-07-21T09:13:13Z</time>
      </trkpt>
      <trkpt lat="42.952301" lon="-5.732281">
        <ele>1291.279</ele>
        <time>1999-07-21T09:13:17Z</time>
      </trkpt>
      <trkpt lat="42.952305" lon="-5.732288">
        <ele>1291.419</ele>
        <time>1999-07-21T09:13:18Z</time>
      </trkpt>
      <trkpt lat="42.952305" lon="-5.732289">
        <ele>1291.870</ele>
        <time>1999-07-21T09:13:19Z</time>
      </trkpt>
      <trkpt lat="42.952366" lon="-5.732370">
        <ele>1293.868</ele>
        <time>1999-07-21T09:13:26Z</time>
      </trkpt>
      <trkpt lat="42.952421" lon="-5.732411">
        <ele>1293.886</ele>
        <time>1999-07-21T09:13:28Z</time>
      </trkpt>
      <trkpt lat="42.952508" lon="-5.732490">
        <ele>1294.037</ele>
        <time>1999-07-21T09:13:31Z</time>
      </trkpt>
      <trkpt lat="42.952583" lon="-5.732588">
        <ele>1294.243</ele>
        <time>1999-07-21T09:13:34Z</time>
      </trkpt>
      <trkpt lat="42.952663" lon="-5.732698">
        <ele>1294.484</ele>
        <time>1999-07-21T09:13:39Z</time>
      </trkpt>
      <trkpt lat="42.952745" lon="-5.732753">
        <ele>1295.007</ele>
        <time>1999-07-21T09:13:44Z</time>
      </trkpt>
      <trkpt lat="42.952759" lon="-5.732769">
        <ele>1295.217</ele>
        <time>1999-07-21T09:13:45Z</time>
      </trkpt>
      <trkpt lat="42.952784" lon="-5.732792">
        <ele>1296.008</ele>
        <time>1999-07-21T09:13:47Z</time>
      </trkpt>
      <trkpt lat="42.952841" lon="-5.732805">
        <ele>1297.071</ele>
        <time>1999-07-21T09:13:51Z</time>
      </trkpt>
      <trkpt lat="42.952858" lon="-5.732807">
        <ele>1297.446</ele>
        <time>1999-07-21T09:13:52Z</time>
      </trkpt>
      <trkpt lat="42.952915" lon="-5.732829">
        <ele>1298.256</ele>
        <time>1999-07-21T09:13:56Z</time>
      </trkpt>
      <trkpt lat="42.952942" lon="-5.732836">
        <ele>1298.687</ele>
        <time>1999-07-21T09:13:58Z</time>
      </trkpt>
      <trkpt lat="42.952982" lon="-5.732839">
        <ele>1299.895</ele>
        <time>1999-07-21T09:14:01Z</time>
      </trkpt>
      <trkpt lat="42.953019" lon="-5.732834">
        <ele>1300.873</ele>
        <time>1999-07-21T09:14:04Z</time>
      </trkpt>
      <trkpt lat="42.953046" lon="-5.732834">
        <ele>1301.684</ele>
        <time>1999-07-21T09:14:06Z</time>
      </trkpt>
      <trkpt lat="42.953063" lon="-5.732830">
        <ele>1302.070</ele>
        <time>1999-07-21T09:14:07Z</time>
      </trkpt>
      <trkpt lat="42.953104" lon="-5.732806">
        <ele>1303.033</ele>
        <time>1999-07-21T09:14:10Z</time>
      </trkpt>
      <trkpt lat="42.953146" lon="-5.732789">
        <ele>1303.623</ele>
        <time>1999-07-21T09:14:13Z</time>
      </trkpt>
      <trkpt lat="42.953162" lon="-5.732788">
        <ele>1304.015</ele>
        <time>1999-07-21T09:14:14Z</time>
      </trkpt>
      <trkpt lat="42.953220" lon="-5.732773">
        <ele>1305.208</ele>
        <time>1999-07-21T09:14:18Z</time>
      </trkpt>
      <trkpt lat="42.953233" lon="-5.732769">
        <ele>1305.446</ele>
        <time>1999-07-21T09:14:19Z</time>
      </trkpt>
      <trkpt lat="42.953245" lon="-5.732764">
        <ele>1305.831</ele>
        <time>1999-07-21T09:14:20Z</time>
      </trkpt>
      <trkpt lat="42.953272" lon="-5.732758">
        <ele>1306.421</ele>
        <time>1999-07-21T09:14:22Z</time>
      </trkpt>
      <trkpt lat="42.953333" lon="-5.732755">
        <ele>1307.482</ele>
        <time>1999-07-21T09:14:26Z</time>
      </trkpt>
      <trkpt lat="42.953383" lon="-5.732751">
        <ele>1308.420</ele>
        <time>1999-07-21T09:14:29Z</time>
      </trkpt>
      <trkpt lat="42.953449" lon="-5.732750">
        <ele>1309.638</ele>
        <time>1999-07-21T09:14:33Z</time>
      </trkpt>
      <trkpt lat="42.953504" lon="-5.732747">
        <ele>1310.269</ele>
        <time>1999-07-21T09:14:36Z</time>
      </trkpt>
      <trkpt lat="42.953538" lon="-5.732743">
        <ele>1310.855</ele>
        <time>1999-07-21T09:14:38Z</time>
      </trkpt>
      <trkpt lat="42.953611" lon="-5.732732">
        <ele>1311.443</ele>
        <time>1999-07-21T09:14:42Z</time>
      </trkpt>
      <trkpt lat="42.953691" lon="-5.732723">
        <ele>1312.064</ele>
        <time>1999-07-21T09:14:45Z</time>
      </trkpt>
      <trkpt lat="42.953818" lon="-5.732697">
        <ele>1312.610</ele>
        <time>1999-07-21T09:14:49Z</time>
      </trkpt>
      <trkpt lat="42.953973" lon="-5.732611">
        <ele>1312.808</ele>
        <time>1999-07-21T09:14:54Z</time>
      </trkpt>
      <trkpt lat="42.954003" lon="-5.732595">
        <ele>1312.817</ele>
        <time>1999-07-21T09:14:55Z</time>
      </trkpt>
      <trkpt lat="42.954100" lon="-5.732554">
        <ele>1313.092</ele>
        <time>1999-07-21T09:14:58Z</time>
      </trkpt>
      <trkpt lat="42.954221" lon="-5.732518">
        <ele>1313.672</ele>
        <time>1999-07-21T09:15:02Z</time>
      </trkpt>
      <trkpt lat="42.954384" lon="-5.732584">
        <ele>1314.023</ele>
        <time>1999-07-21T09:15:08Z</time>
      </trkpt>
      <trkpt lat="42.954410" lon="-5.732610">
        <ele>1314.091</ele>
        <time>1999-07-21T09:15:09Z</time>
      </trkpt>
      <trkpt lat="42.954514" lon="-5.732718">
        <ele>1314.299</ele>
        <time>1999-07-21T09:15:13Z</time>
      </trkpt>
      <trkpt lat="42.954609" lon="-5.732825">
        <ele>1314.280</ele>
        <time>1999-07-21T09:15:17Z</time>
      </trkpt>
      <trkpt lat="42.954633" lon="-5.732848">
        <ele>1314.476</ele>
        <time>1999-07-21T09:15:18Z</time>
      </trkpt>
      <trkpt lat="42.954773" lon="-5.732949">
        <ele>1314.818</ele>
        <time>1999-07-21T09:15:25Z</time>
      </trkpt>
      <trkpt lat="42.954826" lon="-5.732980">
        <ele>1315.098</ele>
        <time>1999-07-21T09:15:28Z</time>
      </trkpt>
      <trkpt lat="42.954860" lon="-5.732998">
        <ele>1315.417</ele>
        <time>1999-07-21T09:15:30Z</time>
      </trkpt>
      <trkpt lat="42.954907" lon="-5.733020">
        <ele>1316.208</ele>
        <time>1999-07-21T09:15:33Z</time>
      </trkpt>
      <trkpt lat="42.955012" lon="-5.733075">
        <ele>1317.464</ele>
        <time>1999-07-21T09:15:40Z</time>
      </trkpt>
      <trkpt lat="42.955029" lon="-5.733084">
        <ele>1317.679</ele>
        <time>1999-07-21T09:15:41Z</time>
      </trkpt>
      <trkpt lat="42.955128" lon="-5.733143">
        <ele>1318.699</ele>
        <time>1999-07-21T09:15:47Z</time>
      </trkpt>
      <trkpt lat="42.955170" lon="-5.733166">
        <ele>1319.290</ele>
        <time>1999-07-21T09:15:50Z</time>
      </trkpt>
      <trkpt lat="42.955213" lon="-5.733191">
        <ele>1319.888</ele>
        <time>1999-07-21T09:15:53Z</time>
      </trkpt>
      <trkpt lat="42.955293" lon="-5.733234">
        <ele>1321.076</ele>
        <time>1999-07-21T09:15:58Z</time>
      </trkpt>
      <trkpt lat="42.955310" lon="-5.733243">
        <ele>1321.267</ele>
        <time>1999-07-21T09:15:59Z</time>
      </trkpt>
      <trkpt lat="42.955376" lon="-5.733279">
        <ele>1322.053</ele>
        <time>1999-07-21T09:16:03Z</time>
      </trkpt>
      <trkpt lat="42.955470" lon="-5.733331">
        <ele>1323.062</ele>
        <time>1999-07-21T09:16:09Z</time>
      </trkpt>
      <trkpt lat="42.955485" lon="-5.733340">
        <ele>1323.283</ele>
        <time>1999-07-21T09:16:10Z</time>
      </trkpt>
      <trkpt lat="42.955599" lon="-5.733403">
        <ele>1324.211</ele>
        <time>1999-07-21T09:16:17Z</time>
      </trkpt>
      <trkpt lat="42.955690" lon="-5.733460">
        <ele>1325.408</ele>
        <time>1999-07-21T09:16:23Z</time>
      </trkpt>
      <trkpt lat="42.955729" lon="-5.733503">
        <ele>1325.829</ele>
        <time>1999-07-21T09:16:26Z</time>
      </trkpt>
      <trkpt lat="42.955772" lon="-5.733565">
        <ele>1326.454</ele>
        <time>1999-07-21T09:16:30Z</time>
      </trkpt>
      <trkpt lat="42.955785" lon="-5.733567">
        <ele>1326.624</ele>
        <time>1999-07-21T09:16:31Z</time>
      </trkpt>
      <trkpt lat="42.955792" lon="-5.733567">
        <ele>1326.825</ele>
        <time>1999-07-21T09:16:32Z</time>
      </trkpt>
      <trkpt lat="42.955794" lon="-5.733568">
        <ele>1327.013</ele>
        <time>1999-07-21T09:16:33Z</time>
      </trkpt>
      <trkpt lat="42.955839" lon="-5.733641">
        <ele>1328.241</ele>
        <time>1999-07-21T09:17:07Z</time>
      </trkpt>
      <trkpt lat="42.955846" lon="-5.733657">
        <ele>1328.272</ele>
        <time>1999-07-21T09:17:08Z</time>
      </trkpt>
      <trkpt lat="42.955856" lon="-5.733672">
        <ele>1328.428</ele>
        <time>1999-07-21T09:17:09Z</time>
      </trkpt>
      <trkpt lat="42.955885" lon="-5.733720">
        <ele>1328.437</ele>
        <time>1999-07-21T09:17:12Z</time>
      </trkpt>
      <trkpt lat="42.955948" lon="-5.733798">
        <ele>1329.249</ele>
        <time>1999-07-21T09:17:18Z</time>
      </trkpt>
      <trkpt lat="42.955962" lon="-5.733808">
        <ele>1329.613</ele>
        <time>1999-07-21T09:17:19Z</time>
      </trkpt>
      <trkpt lat="42.956033" lon="-5.733866">
        <ele>1330.408</ele>
        <time>1999-07-21T09:17:24Z</time>
      </trkpt>
      <trkpt lat="42.956057" lon="-5.733897">
        <ele>1330.656</ele>
        <time>1999-07-21T09:17:26Z</time>
      </trkpt>
      <trkpt lat="42.956072" lon="-5.733908">
        <ele>1330.631</ele>
        <time>1999-07-21T09:17:27Z</time>
      </trkpt>
      <trkpt lat="42.956175" lon="-5.733996">
        <ele>1331.881</ele>
        <time>1999-07-21T09:17:34Z</time>
      </trkpt>
      <trkpt lat="42.956217" lon="-5.734029">
        <ele>1332.222</ele>
        <time>1999-07-21T09:17:37Z</time>
      </trkpt>
      <trkpt lat="42.956252" lon="-5.734060">
        <ele>1332.870</ele>
        <time>1999-07-21T09:17:40Z</time>
      </trkpt>
      <trkpt lat="42.956264" lon="-5.734070">
        <ele>1332.888</ele>
        <time>1999-07-21T09:17:41Z</time>
      </trkpt>
      <trkpt lat="42.956309" lon="-5.734106">
        <ele>1333.879</ele>
        <time>1999-07-21T09:17:45Z</time>
      </trkpt>
      <trkpt lat="42.956342" lon="-5.734137">
        <ele>1335.035</ele>
        <time>1999-07-21T09:17:48Z</time>
      </trkpt>
      <trkpt lat="42.956364" lon="-5.734155">
        <ele>1335.663</ele>
        <time>1999-07-21T09:17:50Z</time>
      </trkpt>
      <trkpt lat="42.956398" lon="-5.734184">
        <ele>1336.244</ele>
        <time>1999-07-21T09:17:53Z</time>
      </trkpt>
      <trkpt lat="42.956449" lon="-5.734218">
        <ele>1337.218</ele>
        <time>1999-07-21T09:17:57Z</time>
      </trkpt>
      <trkpt lat="42.956491" lon="-5.734237">
        <ele>1337.808</ele>
        <time>1999-07-21T09:18:00Z</time>
      </trkpt>
      <trkpt lat="42.956532" lon="-5.734260">
        <ele>1338.499</ele>
        <time>1999-07-21T09:18:03Z</time>
      </trkpt>
      <trkpt lat="42.956601" lon="-5.734292">
        <ele>1339.294</ele>
        <time>1999-07-21T09:18:08Z</time>
      </trkpt>
      <trkpt lat="42.956629" lon="-5.734297">
        <ele>1339.444</ele>
        <time>1999-07-21T09:18:10Z</time>
      </trkpt>
      <trkpt lat="42.956668" lon="-5.734317">
        <ele>1340.025</ele>
        <time>1999-07-21T09:18:13Z</time>
      </trkpt>
      <trkpt lat="42.956680" lon="-5.734325">
        <ele>1340.613</ele>
        <time>1999-07-21T09:18:14Z</time>
      </trkpt>
      <trkpt lat="42.956702" lon="-5.734339">
        <ele>1341.031</ele>
        <time>1999-07-21T09:18:16Z</time>
      </trkpt>
      <trkpt lat="42.956740" lon="-5.734366">
        <ele>1341.622</ele>
        <time>1999-07-21T09:18:19Z</time>
      </trkpt>
      <trkpt lat="42.956775" lon="-5.734386">
        <ele>1342.478</ele>
        <time>1999-07-21T09:18:22Z</time>
      </trkpt>
      <trkpt lat="42.956785" lon="-5.734394">
        <ele>1342.818</ele>
        <time>1999-07-21T09:18:23Z</time>
      </trkpt>
      <trkpt lat="42.956796" lon="-5.734404">
        <ele>1343.098</ele>
        <time>1999-07-21T09:18:24Z</time>
      </trkpt>
      <trkpt lat="42.956832" lon="-5.734425">
        <ele>1343.817</ele>
        <time>1999-07-21T09:18:27Z</time>
      </trkpt>
      <trkpt lat="42.956867" lon="-5.734441">
        <ele>1345.008</ele>
        <time>1999-07-21T09:18:30Z</time>
      </trkpt>
      <trkpt lat="42.956891" lon="-5.734454">
        <ele>1345.684</ele>
        <time>1999-07-21T09:18:32Z</time>
      </trkpt>
      <trkpt lat="42.956915" lon="-5.734469">
        <ele>1346.089</ele>
        <time>1999-07-21T09:18:34Z</time>
      </trkpt>
      <trkpt lat="42.956942" lon="-5.734493">
        <ele>1347.689</ele>
        <time>1999-07-21T09:18:37Z</time>
      </trkpt>
      <trkpt lat="42.956958" lon="-5.734512">
        <ele>1348.450</ele>
        <time>1999-07-21T09:18:39Z</time>
      </trkpt>
      <trkpt lat="42.956969" lon="-5.734517">
        <ele>1348.848</ele>
        <time>1999-07-21T09:18:40Z</time>
      </trkpt>
      <trkpt lat="42.957005" lon="-5.734528">
        <ele>1349.866</ele>
        <time>1999-07-21T09:18:43Z</time>
      </trkpt>
      <trkpt lat="42.957042" lon="-5.734549">
        <ele>1350.877</ele>
        <time>1999-07-21T09:18:47Z</time>
      </trkpt>
      <trkpt lat="42.957045" lon="-5.734555">
        <ele>1351.243</ele>
        <time>1999-07-21T09:18:48Z</time>
      </trkpt>
      <trkpt lat="42.957045" lon="-5.734556">
        <ele>1351.643</ele>
        <time>1999-07-21T09:18:49Z</time>
      </trkpt>
      <trkpt lat="42.958086" lon="-5.735245">
        <ele>1385.464</ele>
        <time>1999-07-21T09:21:53Z</time>
      </trkpt>
      <trkpt lat="42.958101" lon="-5.735250">
        <ele>1385.410</ele>
        <time>1999-07-21T09:21:54Z</time>
      </trkpt>
      <trkpt lat="42.958112" lon="-5.735258">
        <ele>1385.408</ele>
        <time>1999-07-21T09:21:55Z</time>
      </trkpt>
      <trkpt lat="42.958128" lon="-5.735279">
        <ele>1385.697</ele>
        <time>1999-07-21T09:21:57Z</time>
      </trkpt>
      <trkpt lat="42.958155" lon="-5.735310">
        <ele>1385.682</ele>
        <time>1999-07-21T09:22:00Z</time>
      </trkpt>
      <trkpt lat="42.958178" lon="-5.735347">
        <ele>1385.642</ele>
        <time>1999-07-21T09:22:03Z</time>
      </trkpt>
      <trkpt lat="42.958197" lon="-5.735380">
        <ele>1386.693</ele>
        <time>1999-07-21T09:22:06Z</time>
      </trkpt>
      <trkpt lat="42.958252" lon="-5.735434">
        <ele>1387.641</ele>
        <time>1999-07-21T09:22:12Z</time>
      </trkpt>
      <trkpt lat="42.958262" lon="-5.735437">
        <ele>1387.699</ele>
        <time>1999-07-21T09:22:13Z</time>
      </trkpt>
      <trkpt lat="42.958271" lon="-5.735442">
        <ele>1388.250</ele>
        <time>1999-07-21T09:22:15Z</time>
      </trkpt>
      <trkpt lat="42.958334" lon="-5.735536">
        <ele>1390.446</ele>
        <time>1999-07-21T09:22:42Z</time>
      </trkpt>
      <trkpt lat="42.958346" lon="-5.735552">
        <ele>1390.436</ele>
        <time>1999-07-21T09:22:43Z</time>
      </trkpt>
      <trkpt lat="42.958392" lon="-5.735607">
        <ele>1390.417</ele>
        <time>1999-07-21T09:22:47Z</time>
      </trkpt>
      <trkpt lat="42.958407" lon="-5.735614">
        <ele>1390.418</ele>
        <time>1999-07-21T09:22:48Z</time>
      </trkpt>
      <trkpt lat="42.958457" lon="-5.735608">
        <ele>1390.408</ele>
        <time>1999-07-21T09:22:51Z</time>
      </trkpt>
      <trkpt lat="42.958488" lon="-5.735607">
        <ele>1390.466</ele>
        <time>1999-07-21T09:22:53Z</time>
      </trkpt>
      <trkpt lat="42.958552" lon="-5.735602">
        <ele>1391.621</ele>
        <time>1999-07-21T09:22:57Z</time>
      </trkpt>
      <trkpt lat="42.958590" lon="-5.735584">
        <ele>1392.651</ele>
        <time>1999-07-21T09:23:00Z</time>
      </trkpt>
      <trkpt lat="42.958605" lon="-5.735580">
        <ele>1392.882</ele>
        <time>1999-07-21T09:23:01Z</time>
      </trkpt>
      <trkpt lat="42.958683" lon="-5.735546">
        <ele>1393.830</ele>
        <time>1999-07-21T09:23:06Z</time>
      </trkpt>
      <trkpt lat="42.958812" lon="-5.735540">
        <ele>1395.018</ele>
        <time>1999-07-21T09:23:12Z</time>
      </trkpt>
      <trkpt lat="42.958914" lon="-5.735550">
        <ele>1395.249</ele>
        <time>1999-07-21T09:23:16Z</time>
      </trkpt>
      <trkpt lat="42.958938" lon="-5.735535">
        <ele>1395.235</ele>
        <time>1999-07-21T09:23:17Z</time>
      </trkpt>
      <trkpt lat="42.959002" lon="-5.735480">
        <ele>1395.428</ele>
        <time>1999-07-21T09:23:20Z</time>
      </trkpt>
      <trkpt lat="42.959182" lon="-5.735347">
        <ele>1395.489</ele>
        <time>1999-07-21T09:23:27Z</time>
      </trkpt>
      <trkpt lat="42.959321" lon="-5.735274">
        <ele>1395.417</ele>
        <time>1999-07-21T09:23:32Z</time>
      </trkpt>
      <trkpt lat="42.959453" lon="-5.735181">
        <ele>1395.408</ele>
        <time>1999-07-21T09:23:37Z</time>
      </trkpt>
      <trkpt lat="42.959499" lon="-5.735136">
        <ele>1395.445</ele>
        <time>1999-07-21T09:23:39Z</time>
      </trkpt>
      <trkpt lat="42.959547" lon="-5.735099">
        <ele>1395.440</ele>
        <time>1999-07-21T09:23:41Z</time>
      </trkpt>
      <trkpt lat="42.959601" lon="-5.735065">
        <ele>1395.460</ele>
        <time>1999-07-21T09:23:43Z</time>
      </trkpt>
      <trkpt lat="42.959667" lon="-5.735004">
        <ele>1395.291</ele>
        <time>1999-07-21T09:23:47Z</time>
      </trkpt>
      <trkpt lat="42.959698" lon="-5.734980">
        <ele>1395.059</ele>
        <time>1999-07-21T09:23:51Z</time>
      </trkpt>
      <trkpt lat="42.959766" lon="-5.734908">
        <ele>1394.647</ele>
        <time>1999-07-21T09:23:58Z</time>
      </trkpt>
      <trkpt lat="42.959912" lon="-5.734774">
        <ele>1394.658</ele>
        <time>1999-07-21T09:24:06Z</time>
      </trkpt>
      <trkpt lat="42.959973" lon="-5.734707">
        <ele>1394.674</ele>
        <time>1999-07-21T09:24:10Z</time>
      </trkpt>
      <trkpt lat="42.960002" lon="-5.734673">
        <ele>1394.674</ele>
        <time>1999-07-21T09:24:12Z</time>
      </trkpt>
      <trkpt lat="42.960092" lon="-5.734571">
        <ele>1394.456</ele>
        <time>1999-07-21T09:24:17Z</time>
      </trkpt>
      <trkpt lat="42.960207" lon="-5.734474">
        <ele>1394.221</ele>
        <time>1999-07-21T09:24:21Z</time>
      </trkpt>
      <trkpt lat="42.960236" lon="-5.734444">
        <ele>1394.208</ele>
        <time>1999-07-21T09:24:22Z</time>
      </trkpt>
      <trkpt lat="42.960354" lon="-5.734339">
        <ele>1394.290</ele>
        <time>1999-07-21T09:24:26Z</time>
      </trkpt>
      <trkpt lat="42.960405" lon="-5.734276">
        <ele>1394.035</ele>
        <time>1999-07-21T09:24:28Z</time>
      </trkpt>
      <trkpt lat="42.960475" lon="-5.734214">
        <ele>1394.085</ele>
        <time>1999-07-21T09:24:32Z</time>
      </trkpt>
      <trkpt lat="42.960553" lon="-5.734110">
        <ele>1393.646</ele>
        <time>1999-07-21T09:24:37Z</time>
      </trkpt>
      <trkpt lat="42.960686" lon="-5.733951">
        <ele>1393.414</ele>
        <time>1999-07-21T09:24:43Z</time>
      </trkpt>
      <trkpt lat="42.960838" lon="-5.733822">
        <ele>1393.282</ele>
        <time>1999-07-21T09:24:49Z</time>
      </trkpt>
      <trkpt lat="42.960973" lon="-5.733809">
        <ele>1393.283</ele>
        <time>1999-07-21T09:24:54Z</time>
      </trkpt>
      <trkpt lat="42.960997" lon="-5.733814">
        <ele>1393.229</ele>
        <time>1999-07-21T09:24:55Z</time>
      </trkpt>
      <trkpt lat="42.961063" lon="-5.733837">
        <ele>1393.468</ele>
        <time>1999-07-21T09:24:58Z</time>
      </trkpt>
      <trkpt lat="42.961140" lon="-5.733863">
        <ele>1393.642</ele>
        <time>1999-07-21T09:25:02Z</time>
      </trkpt>
      <trkpt lat="42.961186" lon="-5.733895">
        <ele>1394.626</ele>
        <time>1999-07-21T09:25:05Z</time>
      </trkpt>
      <trkpt lat="42.961249" lon="-5.733956">
        <ele>1395.408</ele>
        <time>1999-07-21T09:25:09Z</time>
      </trkpt>
      <trkpt lat="42.961261" lon="-5.733976">
        <ele>1395.679</ele>
        <time>1999-07-21T09:25:10Z</time>
      </trkpt>
      <trkpt lat="42.961282" lon="-5.734022">
        <ele>1396.084</ele>
        <time>1999-07-21T09:25:12Z</time>
      </trkpt>
      <trkpt lat="42.961284" lon="-5.734074">
        <ele>1396.444</ele>
        <time>1999-07-21T09:25:14Z</time>
      </trkpt>
      <trkpt lat="42.961285" lon="-5.734112">
        <ele>1396.825</ele>
        <time>1999-07-21T09:25:16Z</time>
      </trkpt>
      <trkpt lat="42.961298" lon="-5.734131">
        <ele>1397.293</ele>
        <time>1999-07-21T09:25:18Z</time>
      </trkpt>
      <trkpt lat="42.961308" lon="-5.734141">
        <ele>1397.211</ele>
        <time>1999-07-21T09:25:19Z</time>
      </trkpt>
      <trkpt lat="42.961358" lon="-5.734266">
        <ele>1397.472</ele>
        <time>1999-07-21T09:25:24Z</time>
      </trkpt>
      <trkpt lat="42.961376" lon="-5.734373">
        <ele>1397.828</ele>
        <time>1999-07-21T09:25:28Z</time>
      </trkpt>
      <trkpt lat="42.961382" lon="-5.734449">
        <ele>1398.063</ele>
        <time>1999-07-21T09:25:31Z</time>
      </trkpt>
      <trkpt lat="42.961421" lon="-5.734567">
        <ele>1399.044</ele>
        <time>1999-07-21T09:25:37Z</time>
      </trkpt>
      <trkpt lat="42.961430" lon="-5.734601">
        <ele>1399.218</ele>
        <time>1999-07-21T09:25:39Z</time>
      </trkpt>
      <trkpt lat="42.961454" lon="-5.734650">
        <ele>1400.008</ele>
        <time>1999-07-21T09:25:42Z</time>
      </trkpt>
      <trkpt lat="42.961484" lon="-5.734727">
        <ele>1400.859</ele>
        <time>1999-07-21T09:25:46Z</time>
      </trkpt>
      <trkpt lat="42.961493" lon="-5.734743">
        <ele>1401.084</ele>
        <time>1999-07-21T09:25:47Z</time>
      </trkpt>
      <trkpt lat="42.961525" lon="-5.734811">
        <ele>1401.824</ele>
        <time>1999-07-21T09:25:51Z</time>
      </trkpt>
      <trkpt lat="42.961531" lon="-5.734829">
        <ele>1402.225</ele>
        <time>1999-07-21T09:25:52Z</time>
      </trkpt>
      <trkpt lat="42.961541" lon="-5.734860">
        <ele>1402.423</ele>
        <time>1999-07-21T09:25:54Z</time>
      </trkpt>
      <trkpt lat="42.961550" lon="-5.734895">
        <ele>1403.241</ele>
        <time>1999-07-21T09:25:56Z</time>
      </trkpt>
      <trkpt lat="42.961553" lon="-5.734927">
        <ele>1404.072</ele>
        <time>1999-07-21T09:26:00Z</time>
      </trkpt>
      <trkpt lat="42.961586" lon="-5.735030">
        <ele>1405.868</ele>
        <time>1999-07-21T09:26:09Z</time>
      </trkpt>
      <trkpt lat="42.961589" lon="-5.735083">
        <ele>1406.236</ele>
        <time>1999-07-21T09:26:12Z</time>
      </trkpt>
      <trkpt lat="42.961585" lon="-5.735110">
        <ele>1406.417</ele>
        <time>1999-07-21T09:26:14Z</time>
      </trkpt>
      <trkpt lat="42.961614" lon="-5.735175">
        <ele>1406.618</ele>
        <time>1999-07-21T09:26:19Z</time>
      </trkpt>
      <trkpt lat="42.961631" lon="-5.735216">
        <ele>1406.808</ele>
        <time>1999-07-21T09:26:22Z</time>
      </trkpt>
      <trkpt lat="42.961630" lon="-5.735260">
        <ele>1407.226</ele>
        <time>1999-07-21T09:26:25Z</time>
      </trkpt>
      <trkpt lat="42.961624" lon="-5.735267">
        <ele>1407.681</ele>
        <time>1999-07-21T09:26:27Z</time>
      </trkpt>
      <trkpt lat="42.961608" lon="-5.735323">
        <ele>1408.641</ele>
        <time>1999-07-21T09:26:36Z</time>
      </trkpt>
      <trkpt lat="42.961609" lon="-5.735348">
        <ele>1408.642</ele>
        <time>1999-07-21T09:26:37Z</time>
      </trkpt>
      <trkpt lat="42.961625" lon="-5.735527">
        <ele>1408.870</ele>
        <time>1999-07-21T09:26:44Z</time>
      </trkpt>
      <trkpt lat="42.961639" lon="-5.735629">
        <ele>1409.458</ele>
        <time>1999-07-21T09:26:48Z</time>
      </trkpt>
      <trkpt lat="42.961644" lon="-5.735678">
        <ele>1409.839</ele>
        <time>1999-07-21T09:26:50Z</time>
      </trkpt>
      <trkpt lat="42.961659" lon="-5.735744">
        <ele>1410.425</ele>
        <time>1999-07-21T09:26:53Z</time>
      </trkpt>
      <trkpt lat="42.961680" lon="-5.735789">
        <ele>1411.025</ele>
        <time>1999-07-21T09:26:56Z</time>
      </trkpt>
      <trkpt lat="42.961718" lon="-5.735893">
        <ele>1412.226</ele>
        <time>1999-07-21T09:27:01Z</time>
      </trkpt>
      <trkpt lat="42.961740" lon="-5.735970">
        <ele>1413.208</ele>
        <time>1999-07-21T09:27:05Z</time>
      </trkpt>
      <trkpt lat="42.961766" lon="-5.736035">
        <ele>1414.408</ele>
        <time>1999-07-21T09:27:09Z</time>
      </trkpt>
      <trkpt lat="42.961780" lon="-5.736081">
        <ele>1415.655</ele>
        <time>1999-07-21T09:27:12Z</time>
      </trkpt>
      <trkpt lat="42.961791" lon="-5.736112">
        <ele>1416.630</ele>
        <time>1999-07-21T09:27:14Z</time>
      </trkpt>
      <trkpt lat="42.961816" lon="-5.736171">
        <ele>1417.880</ele>
        <time>1999-07-21T09:27:18Z</time>
      </trkpt>
      <trkpt lat="42.961830" lon="-5.736199">
        <ele>1418.271</ele>
        <time>1999-07-21T09:27:20Z</time>
      </trkpt>
      <trkpt lat="42.961848" lon="-5.736243">
        <ele>1418.819</ele>
        <time>1999-07-21T09:27:23Z</time>
      </trkpt>
      <trkpt lat="42.961876" lon="-5.736296">
        <ele>1419.827</ele>
        <time>1999-07-21T09:27:27Z</time>
      </trkpt>
      <trkpt lat="42.961890" lon="-5.736317">
        <ele>1420.498</ele>
        <time>1999-07-21T09:27:29Z</time>
      </trkpt>
      <trkpt lat="42.961888" lon="-5.736326">
        <ele>1421.014</ele>
        <time>1999-07-21T09:27:31Z</time>
      </trkpt>
      <trkpt lat="42.961887" lon="-5.736326">
        <ele>1421.228</ele>
        <time>1999-07-21T09:27:32Z</time>
      </trkpt>
      <trkpt lat="42.962423" lon="-5.737258">
        <ele>1450.689</ele>
        <time>1999-07-21T09:38:08Z</time>
      </trkpt>
      <trkpt lat="42.962446" lon="-5.737262">
        <ele>1450.617</ele>
        <time>1999-07-21T09:38:09Z</time>
      </trkpt>
      <trkpt lat="42.962491" lon="-5.737264">
        <ele>1450.608</ele>
        <time>1999-07-21T09:38:11Z</time>
      </trkpt>
      <trkpt lat="42.962567" lon="-5.737268">
        <ele>1450.825</ele>
        <time>1999-07-21T09:38:14Z</time>
      </trkpt>
      <trkpt lat="42.962593" lon="-5.737268">
        <ele>1450.890</ele>
        <time>1999-07-21T09:38:15Z</time>
      </trkpt>
      <trkpt lat="42.962616" lon="-5.737268">
        <ele>1450.840</ele>
        <time>1999-07-21T09:38:16Z</time>
      </trkpt>
      <trkpt lat="42.962658" lon="-5.737269">
        <ele>1451.241</ele>
        <time>1999-07-21T09:38:18Z</time>
      </trkpt>
      <trkpt lat="42.962688" lon="-5.737273">
        <ele>1451.659</ele>
        <time>1999-07-21T09:38:20Z</time>
      </trkpt>
      <trkpt lat="42.962734" lon="-5.737300">
        <ele>1452.037</ele>
        <time>1999-07-21T09:38:23Z</time>
      </trkpt>
      <trkpt lat="42.962777" lon="-5.737323">
        <ele>1452.898</ele>
        <time>1999-07-21T09:38:26Z</time>
      </trkpt>
      <trkpt lat="42.962840" lon="-5.737348">
        <ele>1454.274</ele>
        <time>1999-07-21T09:38:30Z</time>
      </trkpt>
      <trkpt lat="42.962856" lon="-5.737351">
        <ele>1454.439</ele>
        <time>1999-07-21T09:38:31Z</time>
      </trkpt>
      <trkpt lat="42.962903" lon="-5.737354">
        <ele>1455.401</ele>
        <time>1999-07-21T09:38:34Z</time>
      </trkpt>
      <trkpt lat="42.962960" lon="-5.737350">
        <ele>1456.421</ele>
        <time>1999-07-21T09:38:38Z</time>
      </trkpt>
      <trkpt lat="42.963027" lon="-5.737370">
        <ele>1457.608</ele>
        <time>1999-07-21T09:38:43Z</time>
      </trkpt>
      <trkpt lat="42.963072" lon="-5.737366">
        <ele>1458.416</ele>
        <time>1999-07-21T09:38:46Z</time>
      </trkpt>
      <trkpt lat="42.963099" lon="-5.737355">
        <ele>1458.841</ele>
        <time>1999-07-21T09:38:48Z</time>
      </trkpt>
      <trkpt lat="42.963141" lon="-5.737313">
        <ele>1460.041</ele>
        <time>1999-07-21T09:38:52Z</time>
      </trkpt>
      <trkpt lat="42.963153" lon="-5.737305">
        <ele>1460.252</ele>
        <time>1999-07-21T09:38:53Z</time>
      </trkpt>
      <trkpt lat="42.963190" lon="-5.737287">
        <ele>1461.220</ele>
        <time>1999-07-21T09:38:56Z</time>
      </trkpt>
      <trkpt lat="42.963220" lon="-5.737278">
        <ele>1462.418</ele>
        <time>1999-07-21T09:38:59Z</time>
      </trkpt>
      <trkpt lat="42.963234" lon="-5.737267">
        <ele>1462.639</ele>
        <time>1999-07-21T09:39:00Z</time>
      </trkpt>
      <trkpt lat="42.963251" lon="-5.737237">
        <ele>1463.855</ele>
        <time>1999-07-21T09:39:02Z</time>
      </trkpt>
      <trkpt lat="42.963258" lon="-5.737220">
        <ele>1464.069</ele>
        <time>1999-07-21T09:39:03Z</time>
      </trkpt>
      <trkpt lat="42.963277" lon="-5.737173">
        <ele>1464.804</ele>
        <time>1999-07-21T09:39:06Z</time>
      </trkpt>
      <trkpt lat="42.963285" lon="-5.737142">
        <ele>1465.424</ele>
        <time>1999-07-21T09:39:08Z</time>
      </trkpt>
      <trkpt lat="42.963296" lon="-5.737111">
        <ele>1466.208</ele>
        <time>1999-07-21T09:39:10Z</time>
      </trkpt>
      <trkpt lat="42.963325" lon="-5.737070">
        <ele>1467.239</ele>
        <time>1999-07-21T09:39:13Z</time>
      </trkpt>
      <trkpt lat="42.963332" lon="-5.737054">
        <ele>1467.484</ele>
        <time>1999-07-21T09:39:14Z</time>
      </trkpt>
      <trkpt lat="42.963361" lon="-5.736994">
        <ele>1468.424</ele>
        <time>1999-07-21T09:39:18Z</time>
      </trkpt>
      <trkpt lat="42.963387" lon="-5.736941">
        <ele>1469.665</ele>
        <time>1999-07-21T09:39:21Z</time>
      </trkpt>
      <trkpt lat="42.963404" lon="-5.736909">
        <ele>1470.023</ele>
        <time>1999-07-21T09:39:23Z</time>
      </trkpt>
      <trkpt lat="42.963423" lon="-5.736878">
        <ele>1470.681</ele>
        <time>1999-07-21T09:39:25Z</time>
      </trkpt>
      <trkpt lat="42.963475" lon="-5.736785">
        <ele>1471.642</ele>
        <time>1999-07-21T09:39:31Z</time>
      </trkpt>
      <trkpt lat="42.963495" lon="-5.736752">
        <ele>1472.038</ele>
        <time>1999-07-21T09:39:33Z</time>
      </trkpt>
      <trkpt lat="42.963534" lon="-5.736698">
        <ele>1472.656</ele>
        <time>1999-07-21T09:39:37Z</time>
      </trkpt>
      <trkpt lat="42.963560" lon="-5.736671">
        <ele>1473.859</ele>
        <time>1999-07-21T09:39:40Z</time>
      </trkpt>
      <trkpt lat="42.963611" lon="-5.736625">
        <ele>1475.014</ele>
        <time>1999-07-21T09:39:44Z</time>
      </trkpt>
      <trkpt lat="42.963650" lon="-5.736590">
        <ele>1475.808</ele>
        <time>1999-07-21T09:39:47Z</time>
      </trkpt>
      <trkpt lat="42.963672" lon="-5.736563">
        <ele>1476.028</ele>
        <time>1999-07-21T09:39:49Z</time>
      </trkpt>
      <trkpt lat="42.963733" lon="-5.736485">
        <ele>1477.293</ele>
        <time>1999-07-21T09:39:55Z</time>
      </trkpt>
      <trkpt lat="42.963754" lon="-5.736463">
        <ele>1477.473</ele>
        <time>1999-07-21T09:39:57Z</time>
      </trkpt>
      <trkpt lat="42.963778" lon="-5.736439">
        <ele>1478.284</ele>
        <time>1999-07-21T09:39:59Z</time>
      </trkpt>
      <trkpt lat="42.963828" lon="-5.736371">
        <ele>1479.222</ele>
        <time>1999-07-21T09:40:04Z</time>
      </trkpt>
      <trkpt lat="42.963840" lon="-5.736337">
        <ele>1479.430</ele>
        <time>1999-07-21T09:40:06Z</time>
      </trkpt>
      <trkpt lat="42.963891" lon="-5.736247">
        <ele>1480.431</ele>
        <time>1999-07-21T09:40:12Z</time>
      </trkpt>
      <trkpt lat="42.963902" lon="-5.736236">
        <ele>1480.617</ele>
        <time>1999-07-21T09:40:13Z</time>
      </trkpt>
      <trkpt lat="42.963960" lon="-5.736199">
        <ele>1481.664</ele>
        <time>1999-07-21T09:40:17Z</time>
      </trkpt>
      <trkpt lat="42.964030" lon="-5.736151">
        <ele>1482.206</ele>
        <time>1999-07-21T09:40:22Z</time>
      </trkpt>
      <trkpt lat="42.964054" lon="-5.736131">
        <ele>1482.616</ele>
        <time>1999-07-21T09:40:24Z</time>
      </trkpt>
      <trkpt lat="42.964085" lon="-5.736081">
        <ele>1483.808</ele>
        <time>1999-07-21T09:40:28Z</time>
      </trkpt>
      <trkpt lat="42.964095" lon="-5.736069">
        <ele>1484.049</ele>
        <time>1999-07-21T09:40:29Z</time>
      </trkpt>
      <trkpt lat="42.964128" lon="-5.736044">
        <ele>1484.814</ele>
        <time>1999-07-21T09:40:32Z</time>
      </trkpt>
      <trkpt lat="42.964175" lon="-5.735994">
        <ele>1485.884</ele>
        <time>1999-07-21T09:40:36Z</time>
      </trkpt>
      <trkpt lat="42.964237" lon="-5.735951">
        <ele>1487.055</ele>
        <time>1999-07-21T09:40:41Z</time>
      </trkpt>
      <trkpt lat="42.964248" lon="-5.735942">
        <ele>1487.253</ele>
        <time>1999-07-21T09:40:42Z</time>
      </trkpt>
      <trkpt lat="42.964300" lon="-5.735910">
        <ele>1488.251</ele>
        <time>1999-07-21T09:40:46Z</time>
      </trkpt>
      <trkpt lat="42.964355" lon="-5.735869">
        <ele>1489.012</ele>
        <time>1999-07-21T09:40:51Z</time>
      </trkpt>
      <trkpt lat="42.964366" lon="-5.735858">
        <ele>1489.068</ele>
        <time>1999-07-21T09:40:52Z</time>
      </trkpt>
      <trkpt lat="42.964415" lon="-5.735819">
        <ele>1490.055</ele>
        <time>1999-07-21T09:40:56Z</time>
      </trkpt>
      <trkpt lat="42.964454" lon="-5.735804">
        <ele>1490.607</ele>
        <time>1999-07-21T09:40:59Z</time>
      </trkpt>
      <trkpt lat="42.964499" lon="-5.735807">
        <ele>1491.217</ele>
        <time>1999-07-21T09:41:02Z</time>
      </trkpt>
      <trkpt lat="42.964565" lon="-5.735826">
        <ele>1492.208</ele>
        <time>1999-07-21T09:41:07Z</time>
      </trkpt>
      <trkpt lat="42.964652" lon="-5.735842">
        <ele>1493.428</ele>
        <time>1999-07-21T09:41:13Z</time>
      </trkpt>
      <trkpt lat="42.964690" lon="-5.735848">
        <ele>1494.073</ele>
        <time>1999-07-21T09:41:16Z</time>
      </trkpt>
      <trkpt lat="42.964734" lon="-5.735875">
        <ele>1494.883</ele>
        <time>1999-07-21T09:41:19Z</time>
      </trkpt>
      <trkpt lat="42.964791" lon="-5.735906">
        <ele>1495.484</ele>
        <time>1999-07-21T09:41:23Z</time>
      </trkpt>
      <trkpt lat="42.964816" lon="-5.735917">
        <ele>1495.812</ele>
        <time>1999-07-21T09:41:25Z</time>
      </trkpt>
      <trkpt lat="42.964892" lon="-5.735941">
        <ele>1497.050</ele>
        <time>1999-07-21T09:41:30Z</time>
      </trkpt>
      <trkpt lat="42.964939" lon="-5.735955">
        <ele>1498.251</ele>
        <time>1999-07-21T09:41:34Z</time>
      </trkpt>
      <trkpt lat="42.964972" lon="-5.735968">
        <ele>1499.097</ele>
        <time>1999-07-21T09:41:37Z</time>
      </trkpt>
      <trkpt lat="42.964983" lon="-5.735973">
        <ele>1499.237</ele>
        <time>1999-07-21T09:41:38Z</time>
      </trkpt>
      <trkpt lat="42.965034" lon="-5.735996">
        <ele>1500.249</ele>
        <time>1999-07-21T09:41:42Z</time>
      </trkpt>
      <trkpt lat="42.965059" lon="-5.736007">
        <ele>1501.013</ele>
        <time>1999-07-21T09:41:44Z</time>
      </trkpt>
      <trkpt lat="42.965065" lon="-5.736011">
        <ele>1501.408</ele>
        <time>1999-07-21T09:41:46Z</time>
      </trkpt>
      <trkpt lat="42.965065" lon="-5.736014">
        <ele>1501.626</ele>
        <time>1999-07-21T09:41:47Z</time>
      </trkpt>
      <trkpt lat="42.965574" lon="-5.736337">
        <ele>1516.211</ele>
        <time>1999-07-21T09:44:24Z</time>
      </trkpt>
      <trkpt lat="42.965596" lon="-5.736340">
        <ele>1516.251</ele>
        <time>1999-07-21T09:44:25Z</time>
      </trkpt>
      <trkpt lat="42.965669" lon="-5.736340">
        <ele>1516.252</ele>
        <time>1999-07-21T09:44:28Z</time>
      </trkpt>
      <trkpt lat="42.965725" lon="-5.736337">
        <ele>1516.230</ele>
        <time>1999-07-21T09:44:30Z</time>
      </trkpt>
      <trkpt lat="42.965813" lon="-5.736318">
        <ele>1516.268</ele>
        <time>1999-07-21T09:44:33Z</time>
      </trkpt>
      <trkpt lat="42.965918" lon="-5.736278">
        <ele>1516.059</ele>
        <time>1999-07-21T09:44:36Z</time>
      </trkpt>
      <trkpt lat="42.966010" lon="-5.736213">
        <ele>1516.095</ele>
        <time>1999-07-21T09:44:39Z</time>
      </trkpt>
      <trkpt lat="42.966047" lon="-5.736163">
        <ele>1516.085</ele>
        <time>1999-07-21T09:44:41Z</time>
      </trkpt>
      <trkpt lat="42.966094" lon="-5.736096">
        <ele>1516.089</ele>
        <time>1999-07-21T09:44:44Z</time>
      </trkpt>
      <trkpt lat="42.966176" lon="-5.736040">
        <ele>1517.217</ele>
        <time>1999-07-21T09:44:48Z</time>
      </trkpt>
      <trkpt lat="42.966250" lon="-5.736004">
        <ele>1518.608</ele>
        <time>1999-07-21T09:44:52Z</time>
      </trkpt>
      <trkpt lat="42.966303" lon="-5.735977">
        <ele>1519.411</ele>
        <time>1999-07-21T09:44:55Z</time>
      </trkpt>
      <trkpt lat="42.966371" lon="-5.735911">
        <ele>1520.616</ele>
        <time>1999-07-21T09:45:00Z</time>
      </trkpt>
      <trkpt lat="42.966403" lon="-5.735894">
        <ele>1520.836</ele>
        <time>1999-07-21T09:45:02Z</time>
      </trkpt>
      <trkpt lat="42.966462" lon="-5.735853">
        <ele>1521.617</ele>
        <time>1999-07-21T09:45:06Z</time>
      </trkpt>
      <trkpt lat="42.966513" lon="-5.735832">
        <ele>1522.235</ele>
        <time>1999-07-21T09:45:09Z</time>
      </trkpt>
      <trkpt lat="42.966558" lon="-5.735816">
        <ele>1522.853</ele>
        <time>1999-07-21T09:45:12Z</time>
      </trkpt>
      <trkpt lat="42.966583" lon="-5.735779">
        <ele>1523.294</ele>
        <time>1999-07-21T09:45:14Z</time>
      </trkpt>
      <trkpt lat="42.966633" lon="-5.735729">
        <ele>1524.060</ele>
        <time>1999-07-21T09:45:17Z</time>
      </trkpt>
      <trkpt lat="42.966672" lon="-5.735672">
        <ele>1525.092</ele>
        <time>1999-07-21T09:45:20Z</time>
      </trkpt>
      <trkpt lat="42.966685" lon="-5.735655">
        <ele>1525.273</ele>
        <time>1999-07-21T09:45:21Z</time>
      </trkpt>
      <trkpt lat="42.966738" lon="-5.735590">
        <ele>1526.420</ele>
        <time>1999-07-21T09:45:25Z</time>
      </trkpt>
      <trkpt lat="42.966785" lon="-5.735541">
        <ele>1527.008</ele>
        <time>1999-07-21T09:45:28Z</time>
      </trkpt>
      <trkpt lat="42.966800" lon="-5.735522">
        <ele>1527.272</ele>
        <time>1999-07-21T09:45:29Z</time>
      </trkpt>
      <trkpt lat="42.966855" lon="-5.735456">
        <ele>1528.247</ele>
        <time>1999-07-21T09:45:33Z</time>
      </trkpt>
      <trkpt lat="42.966878" lon="-5.735424">
        <ele>1528.677</ele>
        <time>1999-07-21T09:45:35Z</time>
      </trkpt>
      <trkpt lat="42.966925" lon="-5.735333">
        <ele>1529.458</ele>
        <time>1999-07-21T09:45:40Z</time>
      </trkpt>
      <trkpt lat="42.966952" lon="-5.735320">
        <ele>1529.886</ele>
        <time>1999-07-21T09:45:42Z</time>
      </trkpt>
      <trkpt lat="42.966973" lon="-5.735309">
        <ele>1530.444</ele>
        <time>1999-07-21T09:45:44Z</time>
      </trkpt>
      <trkpt lat="42.967001" lon="-5.735273">
        <ele>1531.695</ele>
        <time>1999-07-21T09:45:47Z</time>
      </trkpt>
      <trkpt lat="42.967011" lon="-5.735258">
        <ele>1531.841</ele>
        <time>1999-07-21T09:45:48Z</time>
      </trkpt>
      <trkpt lat="42.967070" lon="-5.735192">
        <ele>1532.893</ele>
        <time>1999-07-21T09:45:53Z</time>
      </trkpt>
      <trkpt lat="42.967108" lon="-5.735164">
        <ele>1533.465</ele>
        <time>1999-07-21T09:45:56Z</time>
      </trkpt>
      <trkpt lat="42.967130" lon="-5.735136">
        <ele>1533.821</ele>
        <time>1999-07-21T09:45:58Z</time>
      </trkpt>
      <trkpt lat="42.967172" lon="-5.735068">
        <ele>1534.408</ele>
        <time>1999-07-21T09:46:02Z</time>
      </trkpt>
      <trkpt lat="42.967215" lon="-5.735007">
        <ele>1534.892</ele>
        <time>1999-07-21T09:46:06Z</time>
      </trkpt>
      <trkpt lat="42.967256" lon="-5.734951">
        <ele>1535.647</ele>
        <time>1999-07-21T09:46:10Z</time>
      </trkpt>
      <trkpt lat="42.967268" lon="-5.734939">
        <ele>1535.877</ele>
        <time>1999-07-21T09:46:11Z</time>
      </trkpt>
      <trkpt lat="42.967335" lon="-5.734859">
        <ele>1537.098</ele>
        <time>1999-07-21T09:46:17Z</time>
      </trkpt>
      <trkpt lat="42.967365" lon="-5.734778">
        <ele>1537.886</ele>
        <time>1999-07-21T09:46:22Z</time>
      </trkpt>
      <trkpt lat="42.967378" lon="-5.734744">
        <ele>1538.464</ele>
        <time>1999-07-21T09:46:24Z</time>
      </trkpt>
      <trkpt lat="42.967394" lon="-5.734715">
        <ele>1539.015</ele>
        <time>1999-07-21T09:46:26Z</time>
      </trkpt>
      <trkpt lat="42.967434" lon="-5.734655">
        <ele>1539.811</ele>
        <time>1999-07-21T09:46:30Z</time>
      </trkpt>
      <trkpt lat="42.967441" lon="-5.734636">
        <ele>1540.036</ele>
        <time>1999-07-21T09:46:31Z</time>
      </trkpt>
      <trkpt lat="42.967469" lon="-5.734587">
        <ele>1541.017</ele>
        <time>1999-07-21T09:46:34Z</time>
      </trkpt>
      <trkpt lat="42.967488" lon="-5.734558">
        <ele>1541.618</ele>
        <time>1999-07-21T09:46:36Z</time>
      </trkpt>
      <trkpt lat="42.967525" lon="-5.734517">
        <ele>1542.208</ele>
        <time>1999-07-21T09:46:39Z</time>
      </trkpt>
      <trkpt lat="42.967580" lon="-5.734453">
        <ele>1542.836</ele>
        <time>1999-07-21T09:46:44Z</time>
      </trkpt>
      <trkpt lat="42.967602" lon="-5.734426">
        <ele>1543.271</ele>
        <time>1999-07-21T09:46:46Z</time>
      </trkpt>
      <trkpt lat="42.967676" lon="-5.734372">
        <ele>1544.451</ele>
        <time>1999-07-21T09:46:52Z</time>
      </trkpt>
      <trkpt lat="42.967690" lon="-5.734365">
        <ele>1544.412</ele>
        <time>1999-07-21T09:46:53Z</time>
      </trkpt>
      <trkpt lat="42.967777" lon="-5.734286">
        <ele>1545.630</ele>
        <time>1999-07-21T09:46:59Z</time>
      </trkpt>
      <trkpt lat="42.967790" lon="-5.734266">
        <ele>1545.838</ele>
        <time>1999-07-21T09:47:00Z</time>
      </trkpt>
      <trkpt lat="42.967868" lon="-5.734173">
        <ele>1546.689</ele>
        <time>1999-07-21T09:47:07Z</time>
      </trkpt>
      <trkpt lat="42.967921" lon="-5.734102">
        <ele>1547.895</ele>
        <time>1999-07-21T09:47:12Z</time>
      </trkpt>
      <trkpt lat="42.967960" lon="-5.734051">
        <ele>1548.049</ele>
        <time>1999-07-21T09:47:16Z</time>
      </trkpt>
      <trkpt lat="42.968006" lon="-5.733994">
        <ele>1548.802</ele>
        <time>1999-07-21T09:47:20Z</time>
      </trkpt>
      <trkpt lat="42.968061" lon="-5.733917">
        <ele>1549.622</ele>
        <time>1999-07-21T09:47:25Z</time>
      </trkpt>
      <trkpt lat="42.968073" lon="-5.733903">
        <ele>1549.808</ele>
        <time>1999-07-21T09:47:26Z</time>
      </trkpt>
      <trkpt lat="42.968174" lon="-5.733794">
        <ele>1551.037</ele>
        <time>1999-07-21T09:47:34Z</time>
      </trkpt>
      <trkpt lat="42.968254" lon="-5.733695">
        <ele>1551.882</ele>
        <time>1999-07-21T09:47:41Z</time>
      </trkpt>
      <trkpt lat="42.968336" lon="-5.733618">
        <ele>1553.032</ele>
        <time>1999-07-21T09:47:48Z</time>
      </trkpt>
      <trkpt lat="42.968361" lon="-5.733597">
        <ele>1553.273</ele>
        <time>1999-07-21T09:47:50Z</time>
      </trkpt>
      <trkpt lat="42.968413" lon="-5.733522">
        <ele>1554.441</ele>
        <time>1999-07-21T09:47:54Z</time>
      </trkpt>
      <trkpt lat="42.968438" lon="-5.733485">
        <ele>1554.869</ele>
        <time>1999-07-21T09:47:56Z</time>
      </trkpt>
      <trkpt lat="42.968460" lon="-5.733466">
        <ele>1554.840</ele>
        <time>1999-07-21T09:48:00Z</time>
      </trkpt>
      <trkpt lat="42.968509" lon="-5.733391">
        <ele>1553.476</ele>
        <time>1999-07-21T09:51:14Z</time>
      </trkpt>
      <trkpt lat="42.968521" lon="-5.733366">
        <ele>1553.426</ele>
        <time>1999-07-21T09:51:15Z</time>
      </trkpt>
      <trkpt lat="42.968539" lon="-5.733343">
        <ele>1553.447</ele>
        <time>1999-07-21T09:51:16Z</time>
      </trkpt>
      <trkpt lat="42.968669" lon="-5.733206">
        <ele>1553.211</ele>
        <time>1999-07-21T09:51:21Z</time>
      </trkpt>
      <trkpt lat="42.968728" lon="-5.733152">
        <ele>1553.008</ele>
        <time>1999-07-21T09:51:23Z</time>
      </trkpt>
      <trkpt lat="42.968805" lon="-5.733063">
        <ele>1552.675</ele>
        <time>1999-07-21T09:51:25Z</time>
      </trkpt>
      <trkpt lat="42.968850" lon="-5.733017">
        <ele>1552.240</ele>
        <time>1999-07-21T09:51:26Z</time>
      </trkpt>
      <trkpt lat="42.968960" lon="-5.732936">
        <ele>1550.630</ele>
        <time>1999-07-21T09:51:29Z</time>
      </trkpt>
      <trkpt lat="42.968992" lon="-5.732928">
        <ele>1550.051</ele>
        <time>1999-07-21T09:51:30Z</time>
      </trkpt>
      <trkpt lat="42.969028" lon="-5.732933">
        <ele>1549.449</ele>
        <time>1999-07-21T09:51:31Z</time>
      </trkpt>
      <trkpt lat="42.969066" lon="-5.732948">
        <ele>1548.677</ele>
        <time>1999-07-21T09:51:32Z</time>
      </trkpt>
      <trkpt lat="42.969106" lon="-5.732967">
        <ele>1547.668</ele>
        <time>1999-07-21T09:51:33Z</time>
      </trkpt>
      <trkpt lat="42.969185" lon="-5.733017">
        <ele>1545.894</ele>
        <time>1999-07-21T09:51:35Z</time>
      </trkpt>
      <trkpt lat="42.969224" lon="-5.733040">
        <ele>1544.898</ele>
        <time>1999-07-21T09:51:36Z</time>
      </trkpt>
      <trkpt lat="42.969261" lon="-5.733061">
        <ele>1543.615</ele>
        <time>1999-07-21T09:51:37Z</time>
      </trkpt>
      <trkpt lat="42.969295" lon="-5.733081">
        <ele>1541.626</ele>
        <time>1999-07-21T09:51:38Z</time>
      </trkpt>
      <trkpt lat="42.969357" lon="-5.733119">
        <ele>1540.008</ele>
        <time>1999-07-21T09:51:40Z</time>
      </trkpt>
      <trkpt lat="42.969423" lon="-5.733181">
        <ele>1539.032</ele>
        <time>1999-07-21T09:51:42Z</time>
      </trkpt>
      <trkpt lat="42.969463" lon="-5.733213">
        <ele>1538.487</ele>
        <time>1999-07-21T09:51:43Z</time>
      </trkpt>
      <trkpt lat="42.969534" lon="-5.733253">
        <ele>1537.277</ele>
        <time>1999-07-21T09:51:45Z</time>
      </trkpt>
      <trkpt lat="42.969561" lon="-5.733267">
        <ele>1536.628</ele>
        <time>1999-07-21T09:51:46Z</time>
      </trkpt>
      <trkpt lat="42.969579" lon="-5.733280">
        <ele>1536.096</ele>
        <time>1999-07-21T09:51:47Z</time>
      </trkpt>
      <trkpt lat="42.969608" lon="-5.733303">
        <ele>1535.014</ele>
        <time>1999-07-21T09:51:49Z</time>
      </trkpt>
      <trkpt lat="42.969641" lon="-5.733320">
        <ele>1534.265</ele>
        <time>1999-07-21T09:51:51Z</time>
      </trkpt>
      <trkpt lat="42.969666" lon="-5.733324">
        <ele>1533.621</ele>
        <time>1999-07-21T09:51:52Z</time>
      </trkpt>
      <trkpt lat="42.969737" lon="-5.733353">
        <ele>1532.864</ele>
        <time>1999-07-21T09:51:55Z</time>
      </trkpt>
      <trkpt lat="42.969753" lon="-5.733361">
        <ele>1532.406</ele>
        <time>1999-07-21T09:51:56Z</time>
      </trkpt>
      <trkpt lat="42.969796" lon="-5.733381">
        <ele>1531.216</ele>
        <time>1999-07-21T09:52:01Z</time>
      </trkpt>
      <trkpt lat="42.969844" lon="-5.733397">
        <ele>1530.608</ele>
        <time>1999-07-21T09:52:07Z</time>
      </trkpt>
      <trkpt lat="42.969894" lon="-5.733426">
        <ele>1530.689</ele>
        <time>1999-07-21T09:52:10Z</time>
      </trkpt>
      <trkpt lat="42.969902" lon="-5.733457">
        <ele>1530.624</ele>
        <time>1999-07-21T09:52:12Z</time>
      </trkpt>
      <trkpt lat="42.969924" lon="-5.733526">
        <ele>1530.454</ele>
        <time>1999-07-21T09:52:15Z</time>
      </trkpt>
      <trkpt lat="42.969948" lon="-5.733599">
        <ele>1530.235</ele>
        <time>1999-07-21T09:52:18Z</time>
      </trkpt>
      <trkpt lat="42.969957" lon="-5.733700">
        <ele>1529.263</ele>
        <time>1999-07-21T09:52:23Z</time>
      </trkpt>
      <trkpt lat="42.969947" lon="-5.733821">
        <ele>1528.091</ele>
        <time>1999-07-21T09:52:28Z</time>
      </trkpt>
      <trkpt lat="42.969943" lon="-5.733857">
        <ele>1527.832</ele>
        <time>1999-07-21T09:52:29Z</time>
      </trkpt>
      <trkpt lat="42.969959" lon="-5.734095">
        <ele>1527.078</ele>
        <time>1999-07-21T09:52:36Z</time>
      </trkpt>
      <trkpt lat="42.969963" lon="-5.734145">
        <ele>1527.038</ele>
        <time>1999-07-21T09:52:38Z</time>
      </trkpt>
      <trkpt lat="42.969973" lon="-5.734270">
        <ele>1526.070</ele>
        <time>1999-07-21T09:52:42Z</time>
      </trkpt>
      <trkpt lat="42.969970" lon="-5.734373">
        <ele>1524.817</ele>
        <time>1999-07-21T09:52:45Z</time>
      </trkpt>
      <trkpt lat="42.969968" lon="-5.734449">
        <ele>1523.808</ele>
        <time>1999-07-21T09:52:48Z</time>
      </trkpt>
      <trkpt lat="42.969993" lon="-5.734586">
        <ele>1522.426</ele>
        <time>1999-07-21T09:52:53Z</time>
      </trkpt>
      <trkpt lat="42.969990" lon="-5.734640">
        <ele>1521.451</ele>
        <time>1999-07-21T09:52:56Z</time>
      </trkpt>
      <trkpt lat="42.969991" lon="-5.734644">
        <ele>1521.031</ele>
        <time>1999-07-21T09:52:57Z</time>
      </trkpt>
      <trkpt lat="42.970010" lon="-5.734737">
        <ele>1518.482</ele>
        <time>1999-07-21T09:53:10Z</time>
      </trkpt>
      <trkpt lat="42.970010" lon="-5.734913">
        <ele>1517.620</ele>
        <time>1999-07-21T09:53:16Z</time>
      </trkpt>
      <trkpt lat="42.970006" lon="-5.734963">
        <ele>1517.258</ele>
        <time>1999-07-21T09:53:18Z</time>
      </trkpt>
      <trkpt lat="42.969995" lon="-5.734990">
        <ele>1516.489</ele>
        <time>1999-07-21T09:53:21Z</time>
      </trkpt>
      <trkpt lat="42.969993" lon="-5.734990">
        <ele>1516.425</ele>
        <time>1999-07-21T09:53:22Z</time>
      </trkpt>
      <trkpt lat="42.970009" lon="-5.735083">
        <ele>1515.224</ele>
        <time>1999-07-21T09:53:35Z</time>
      </trkpt>
      <trkpt lat="42.970016" lon="-5.735129">
        <ele>1515.004</ele>
        <time>1999-07-21T09:53:38Z</time>
      </trkpt>
      <trkpt lat="42.970045" lon="-5.735201">
        <ele>1514.614</ele>
        <time>1999-07-21T09:53:42Z</time>
      </trkpt>
      <trkpt lat="42.970051" lon="-5.735219">
        <ele>1514.608</ele>
        <time>1999-07-21T09:53:43Z</time>
      </trkpt>
      <trkpt lat="42.970054" lon="-5.735254">
        <ele>1513.855</ele>
        <time>1999-07-21T09:53:47Z</time>
      </trkpt>
      <trkpt lat="42.970058" lon="-5.735302">
        <ele>1512.470</ele>
        <time>1999-07-21T09:53:51Z</time>
      </trkpt>
      <trkpt lat="42.970063" lon="-5.735355">
        <ele>1511.680</ele>
        <time>1999-07-21T09:53:54Z</time>
      </trkpt>
      <trkpt lat="42.970065" lon="-5.735390">
        <ele>1511.461</ele>
        <time>1999-07-21T09:53:56Z</time>
      </trkpt>
      <trkpt lat="42.970083" lon="-5.735460">
        <ele>1511.049</ele>
        <time>1999-07-21T09:54:01Z</time>
      </trkpt>
      <trkpt lat="42.970096" lon="-5.735486">
        <ele>1510.467</ele>
        <time>1999-07-21T09:54:03Z</time>
      </trkpt>
      <trkpt lat="42.970098" lon="-5.735500">
        <ele>1510.428</ele>
        <time>1999-07-21T09:54:04Z</time>
      </trkpt>
      <trkpt lat="42.970102" lon="-5.735530">
        <ele>1509.644</ele>
        <time>1999-07-21T09:54:08Z</time>
      </trkpt>
      <trkpt lat="42.970102" lon="-5.735585">
        <ele>1508.844</ele>
        <time>1999-07-21T09:54:11Z</time>
      </trkpt>
      <trkpt lat="42.970105" lon="-5.735657">
        <ele>1507.805</ele>
        <time>1999-07-21T09:54:14Z</time>
      </trkpt>
      <trkpt lat="42.970107" lon="-5.735693">
        <ele>1507.615</ele>
        <time>1999-07-21T09:54:16Z</time>
      </trkpt>
      <trkpt lat="42.970116" lon="-5.735860">
        <ele>1506.808</ele>
        <time>1999-07-21T09:54:21Z</time>
      </trkpt>
      <trkpt lat="42.970123" lon="-5.735908">
        <ele>1506.247</ele>
        <time>1999-07-21T09:54:22Z</time>
      </trkpt>
      <trkpt lat="42.970131" lon="-5.736041">
        <ele>1505.462</ele>
        <time>1999-07-21T09:54:26Z</time>
      </trkpt>
      <trkpt lat="42.970131" lon="-5.736063">
        <ele>1505.262</ele>
        <time>1999-07-21T09:54:27Z</time>
      </trkpt>
      <trkpt lat="42.970122" lon="-5.736139">
        <ele>1503.843</ele>
        <time>1999-07-21T09:54:31Z</time>
      </trkpt>
      <trkpt lat="42.970123" lon="-5.736145">
        <ele>1503.471</ele>
        <time>1999-07-21T09:54:32Z</time>
      </trkpt>
      <trkpt lat="42.970127" lon="-5.736149">
        <ele>1503.289</ele>
        <time>1999-07-21T09:54:33Z</time>
      </trkpt>
      <trkpt lat="42.970152" lon="-5.736340">
        <ele>1501.260</ele>
        <time>1999-07-21T09:55:03Z</time>
      </trkpt>
      <trkpt lat="42.970151" lon="-5.736407">
        <ele>1501.236</ele>
        <time>1999-07-21T09:55:05Z</time>
      </trkpt>
      <trkpt lat="42.970171" lon="-5.736519">
        <ele>1501.094</ele>
        <time>1999-07-21T09:55:09Z</time>
      </trkpt>
      <trkpt lat="42.970176" lon="-5.736548">
        <ele>1501.057</ele>
        <time>1999-07-21T09:55:10Z</time>
      </trkpt>
      <trkpt lat="42.970270" lon="-5.736720">
        <ele>1500.622</ele>
        <time>1999-07-21T09:55:16Z</time>
      </trkpt>
      <trkpt lat="42.970340" lon="-5.736796">
        <ele>1500.208</ele>
        <time>1999-07-21T09:55:20Z</time>
      </trkpt>
      <trkpt lat="42.970360" lon="-5.736807">
        <ele>1500.042</ele>
        <time>1999-07-21T09:55:21Z</time>
      </trkpt>
      <trkpt lat="42.970424" lon="-5.736803">
        <ele>1499.677</ele>
        <time>1999-07-21T09:55:24Z</time>
      </trkpt>
      <trkpt lat="42.970468" lon="-5.736764">
        <ele>1499.257</ele>
        <time>1999-07-21T09:55:26Z</time>
      </trkpt>
      <trkpt lat="42.970502" lon="-5.736717">
        <ele>1498.678</ele>
        <time>1999-07-21T09:55:28Z</time>
      </trkpt>
      <trkpt lat="42.970524" lon="-5.736664">
        <ele>1497.896</ele>
        <time>1999-07-21T09:55:30Z</time>
      </trkpt>
      <trkpt lat="42.970541" lon="-5.736637">
        <ele>1497.444</ele>
        <time>1999-07-21T09:55:31Z</time>
      </trkpt>
      <trkpt lat="42.970581" lon="-5.736564">
        <ele>1496.035</ele>
        <time>1999-07-21T09:55:34Z</time>
      </trkpt>
      <trkpt lat="42.970599" lon="-5.736526">
        <ele>1495.241</ele>
        <time>1999-07-21T09:55:36Z</time>
      </trkpt>
      <trkpt lat="42.970607" lon="-5.736506">
        <ele>1494.629</ele>
        <time>1999-07-21T09:55:37Z</time>
      </trkpt>
      <trkpt lat="42.970628" lon="-5.736466">
        <ele>1493.000</ele>
        <time>1999-07-21T09:55:39Z</time>
      </trkpt>
      <trkpt lat="42.970648" lon="-5.736422">
        <ele>1491.820</ele>
        <time>1999-07-21T09:55:41Z</time>
      </trkpt>
      <trkpt lat="42.970666" lon="-5.736382">
        <ele>1490.808</ele>
        <time>1999-07-21T09:55:43Z</time>
      </trkpt>
      <trkpt lat="42.970672" lon="-5.736367">
        <ele>1490.235</ele>
        <time>1999-07-21T09:55:44Z</time>
      </trkpt>
      <trkpt lat="42.970675" lon="-5.736346">
        <ele>1489.480</ele>
        <time>1999-07-21T09:55:45Z</time>
      </trkpt>
      <trkpt lat="42.970684" lon="-5.736290">
        <ele>1488.020</ele>
        <time>1999-07-21T09:55:47Z</time>
      </trkpt>
      <trkpt lat="42.970699" lon="-5.736272">
        <ele>1487.431</ele>
        <time>1999-07-21T09:55:48Z</time>
      </trkpt>
      <trkpt lat="42.970713" lon="-5.736264">
        <ele>1486.829</ele>
        <time>1999-07-21T09:55:49Z</time>
      </trkpt>
      <trkpt lat="42.970739" lon="-5.736240">
        <ele>1485.417</ele>
        <time>1999-07-21T09:55:51Z</time>
      </trkpt>
      <trkpt lat="42.970746" lon="-5.736212">
        <ele>1485.038</ele>
        <time>1999-07-21T09:55:52Z</time>
      </trkpt>
      <trkpt lat="42.970760" lon="-5.736151">
        <ele>1484.084</ele>
        <time>1999-07-21T09:55:54Z</time>
      </trkpt>
      <trkpt lat="42.970802" lon="-5.736098">
        <ele>1482.891</ele>
        <time>1999-07-21T09:55:56Z</time>
      </trkpt>
      <trkpt lat="42.970836" lon="-5.736065">
        <ele>1482.281</ele>
        <time>1999-07-21T09:55:57Z</time>
      </trkpt>
      <trkpt lat="42.970904" lon="-5.735980">
        <ele>1481.819</ele>
        <time>1999-07-21T09:55:59Z</time>
      </trkpt>
      <trkpt lat="42.970937" lon="-5.735927">
        <ele>1481.608</ele>
        <time>1999-07-21T09:56:00Z</time>
      </trkpt>
      <trkpt lat="42.970984" lon="-5.735823">
        <ele>1481.092</ele>
        <time>1999-07-21T09:56:02Z</time>
      </trkpt>
      <trkpt lat="42.971003" lon="-5.735726">
        <ele>1480.097</ele>
        <time>1999-07-21T09:56:04Z</time>
      </trkpt>
      <trkpt lat="42.971026" lon="-5.735647">
        <ele>1479.017</ele>
        <time>1999-07-21T09:56:06Z</time>
      </trkpt>
      <trkpt lat="42.971040" lon="-5.735613">
        <ele>1478.258</ele>
        <time>1999-07-21T09:56:07Z</time>
      </trkpt>
      <trkpt lat="42.971057" lon="-5.735580">
        <ele>1477.436</ele>
        <time>1999-07-21T09:56:08Z</time>
      </trkpt>
      <trkpt lat="42.971073" lon="-5.735546">
        <ele>1476.244</ele>
        <time>1999-07-21T09:56:09Z</time>
      </trkpt>
      <trkpt lat="42.971090" lon="-5.735513">
        <ele>1475.095</ele>
        <time>1999-07-21T09:56:10Z</time>
      </trkpt>
      <trkpt lat="42.971106" lon="-5.735484">
        <ele>1473.821</ele>
        <time>1999-07-21T09:56:11Z</time>
      </trkpt>
      <trkpt lat="42.971120" lon="-5.735461">
        <ele>1472.821</ele>
        <time>1999-07-21T09:56:12Z</time>
      </trkpt>
      <trkpt lat="42.971132" lon="-5.735440">
        <ele>1470.441</ele>
        <time>1999-07-21T09:56:13Z</time>
      </trkpt>
      <trkpt lat="42.971145" lon="-5.735425">
        <ele>1469.205</ele>
        <time>1999-07-21T09:56:14Z</time>
      </trkpt>
      <trkpt lat="42.971152" lon="-5.735419">
        <ele>1467.608</ele>
        <time>1999-07-21T09:56:16Z</time>
      </trkpt>
      <trkpt lat="42.971154" lon="-5.735419">
        <ele>1466.445</ele>
        <time>1999-07-21T09:56:17Z</time>
      </trkpt>
      <trkpt lat="42.971201" lon="-5.735438">
        <ele>1462.480</ele>
        <time>1999-07-21T09:56:22Z</time>
      </trkpt>
      <trkpt lat="42.971248" lon="-5.735460">
        <ele>1461.860</ele>
        <time>1999-07-21T09:56:25Z</time>
      </trkpt>
      <trkpt lat="42.971263" lon="-5.735469">
        <ele>1461.881</ele>
        <time>1999-07-21T09:56:26Z</time>
      </trkpt>
      <trkpt lat="42.971295" lon="-5.735491">
        <ele>1461.819</ele>
        <time>1999-07-21T09:56:28Z</time>
      </trkpt>
      <trkpt lat="42.971327" lon="-5.735511">
        <ele>1461.877</ele>
        <time>1999-07-21T09:56:30Z</time>
      </trkpt>
      <trkpt lat="42.971359" lon="-5.735521">
        <ele>1461.818</ele>
        <time>1999-07-21T09:56:32Z</time>
      </trkpt>
      <trkpt lat="42.971414" lon="-5.735542">
        <ele>1462.474</ele>
        <time>1999-07-21T09:56:35Z</time>
      </trkpt>
      <trkpt lat="42.971453" lon="-5.735556">
        <ele>1462.816</ele>
        <time>1999-07-21T09:56:37Z</time>
      </trkpt>
      <trkpt lat="42.971471" lon="-5.735560">
        <ele>1463.276</ele>
        <time>1999-07-21T09:56:38Z</time>
      </trkpt>
      <trkpt lat="42.971507" lon="-5.735567">
        <ele>1464.213</ele>
        <time>1999-07-21T09:56:40Z</time>
      </trkpt>
      <trkpt lat="42.971596" lon="-5.735566">
        <ele>1465.608</ele>
        <time>1999-07-21T09:56:45Z</time>
      </trkpt>
      <trkpt lat="42.971607" lon="-5.735566">
        <ele>1466.644</ele>
        <time>1999-07-21T09:56:48Z</time>
      </trkpt>
      <trkpt lat="42.971668" lon="-5.735567">
        <ele>1468.259</ele>
        <time>1999-07-21T09:57:06Z</time>
      </trkpt>
      <trkpt lat="42.971793" lon="-5.735527">
        <ele>1468.619</ele>
        <time>1999-07-21T09:57:12Z</time>
      </trkpt>
      <trkpt lat="42.971835" lon="-5.735509">
        <ele>1468.640</ele>
        <time>1999-07-21T09:57:14Z</time>
      </trkpt>
      <trkpt lat="42.971897" lon="-5.735491">
        <ele>1469.468</ele>
        <time>1999-07-21T09:57:17Z</time>
      </trkpt>
      <trkpt lat="42.971976" lon="-5.735475">
        <ele>1470.416</ele>
        <time>1999-07-21T09:57:21Z</time>
      </trkpt>
      <trkpt lat="42.971996" lon="-5.735471">
        <ele>1470.867</ele>
        <time>1999-07-21T09:57:22Z</time>
      </trkpt>
      <trkpt lat="42.972070" lon="-5.735459">
        <ele>1471.883</ele>
        <time>1999-07-21T09:57:26Z</time>
      </trkpt>
      <trkpt lat="42.972143" lon="-5.735443">
        <ele>1473.079</ele>
        <time>1999-07-21T09:57:30Z</time>
      </trkpt>
      <trkpt lat="42.972236" lon="-5.735417">
        <ele>1474.405</ele>
        <time>1999-07-21T09:57:35Z</time>
      </trkpt>
      <trkpt lat="42.972312" lon="-5.735406">
        <ele>1475.425</ele>
        <time>1999-07-21T09:57:39Z</time>
      </trkpt>
      <trkpt lat="42.972330" lon="-5.735404">
        <ele>1475.608</ele>
        <time>1999-07-21T09:57:40Z</time>
      </trkpt>
      <trkpt lat="42.972367" lon="-5.735391">
        <ele>1476.490</ele>
        <time>1999-07-21T09:57:45Z</time>
      </trkpt>
      <trkpt lat="42.972335" lon="-5.735396">
        <ele>1477.665</ele>
        <time>1999-07-21T09:57:50Z</time>
      </trkpt>
      <trkpt lat="42.972278" lon="-5.735418">
        <ele>1477.655</ele>
        <time>1999-07-21T09:57:52Z</time>
      </trkpt>
      <trkpt lat="42.972238" lon="-5.735429">
        <ele>1477.646</ele>
        <time>1999-07-21T09:57:53Z</time>
      </trkpt>
      <trkpt lat="42.972104" lon="-5.735451">
        <ele>1477.854</ele>
        <time>1999-07-21T09:57:56Z</time>
      </trkpt>
      <trkpt lat="42.972040" lon="-5.735465">
        <ele>1477.812</ele>
        <time>1999-07-21T09:57:59Z</time>
      </trkpt>
      <trkpt lat="42.972037" lon="-5.735468">
        <ele>1477.633</ele>
        <time>1999-07-21T09:58:00Z</time>
      </trkpt>
      <trkpt lat="42.972037" lon="-5.735467">
        <ele>1477.479</ele>
        <time>1999-07-21T09:58:01Z</time>
      </trkpt>
      <trkpt lat="42.972010" lon="-5.735494">
        <ele>1474.096</ele>
        <time>1999-07-21T09:58:16Z</time>
      </trkpt>
      <trkpt lat="42.971938" lon="-5.735507">
        <ele>1474.031</ele>
        <time>1999-07-21T09:58:18Z</time>
      </trkpt>
      <trkpt lat="42.971887" lon="-5.735519">
        <ele>1474.024</ele>
        <time>1999-07-21T09:58:19Z</time>
      </trkpt>
      <trkpt lat="42.971826" lon="-5.735540">
        <ele>1474.008</ele>
        <time>1999-07-21T09:58:20Z</time>
      </trkpt>
      <trkpt lat="42.971757" lon="-5.735566">
        <ele>1474.072</ele>
        <time>1999-07-21T09:58:21Z</time>
      </trkpt>
      <trkpt lat="42.971531" lon="-5.735604">
        <ele>1473.857</ele>
        <time>1999-07-21T09:58:24Z</time>
      </trkpt>
      <trkpt lat="42.971460" lon="-5.735588">
        <ele>1473.687</ele>
        <time>1999-07-21T09:58:25Z</time>
      </trkpt>
      <trkpt lat="42.971397" lon="-5.735565">
        <ele>1473.478</ele>
        <time>1999-07-21T09:58:26Z</time>
      </trkpt>
      <trkpt lat="42.971344" lon="-5.735543">
        <ele>1473.296</ele>
        <time>1999-07-21T09:58:27Z</time>
      </trkpt>
      <trkpt lat="42.971301" lon="-5.735528">
        <ele>1473.054</ele>
        <time>1999-07-21T09:58:28Z</time>
      </trkpt>
      <trkpt lat="42.971265" lon="-5.735514">
        <ele>1472.685</ele>
        <time>1999-07-21T09:58:29Z</time>
      </trkpt>
      <trkpt lat="42.971233" lon="-5.735500">
        <ele>1471.421</ele>
        <time>1999-07-21T09:58:30Z</time>
      </trkpt>
      <trkpt lat="42.971203" lon="-5.735491">
        <ele>1470.482</ele>
        <time>1999-07-21T09:58:31Z</time>
      </trkpt>
      <trkpt lat="42.971165" lon="-5.735466">
        <ele>1468.843</ele>
        <time>1999-07-21T09:58:33Z</time>
      </trkpt>
      <trkpt lat="42.971161" lon="-5.735443">
        <ele>1467.817</ele>
        <time>1999-07-21T09:58:34Z</time>
      </trkpt>
      <trkpt lat="42.971163" lon="-5.735415">
        <ele>1466.608</ele>
        <time>1999-07-21T09:58:35Z</time>
      </trkpt>
      <trkpt lat="42.971169" lon="-5.735361">
        <ele>1464.821</ele>
        <time>1999-07-21T09:58:37Z</time>
      </trkpt>
      <trkpt lat="42.971182" lon="-5.735323">
        <ele>1463.446</ele>
        <time>1999-07-21T09:58:39Z</time>
      </trkpt>
      <trkpt lat="42.971194" lon="-5.735308">
        <ele>1462.816</ele>
        <time>1999-07-21T09:58:40Z</time>
      </trkpt>
      <trkpt lat="42.971202" lon="-5.735301">
        <ele>1462.257</ele>
        <time>1999-07-21T09:58:41Z</time>
      </trkpt>
      <trkpt lat="42.971199" lon="-5.735299">
        <ele>1461.855</ele>
        <time>1999-07-21T09:58:43Z</time>
      </trkpt>
      <trkpt lat="42.971219" lon="-5.735259">
        <ele>1459.233</ele>
        <time>1999-07-21T09:59:05Z</time>
      </trkpt>
      <trkpt lat="42.971353" lon="-5.735099">
        <ele>1459.234</ele>
        <time>1999-07-21T09:59:10Z</time>
      </trkpt>
      <trkpt lat="42.971404" lon="-5.735026">
        <ele>1459.080</ele>
        <time>1999-07-21T09:59:12Z</time>
      </trkpt>
      <trkpt lat="42.971454" lon="-5.734955">
        <ele>1458.856</ele>
        <time>1999-07-21T09:59:14Z</time>
      </trkpt>
      <trkpt lat="42.971504" lon="-5.734887">
        <ele>1457.859</ele>
        <time>1999-07-21T09:59:16Z</time>
      </trkpt>
      <trkpt lat="42.971567" lon="-5.734807">
        <ele>1456.214</ele>
        <time>1999-07-21T09:59:18Z</time>
      </trkpt>
      <trkpt lat="42.971639" lon="-5.734697">
        <ele>1454.608</ele>
        <time>1999-07-21T09:59:20Z</time>
      </trkpt>
      <trkpt lat="42.971732" lon="-5.734560">
        <ele>1453.228</ele>
        <time>1999-07-21T09:59:22Z</time>
      </trkpt>
      <trkpt lat="42.971788" lon="-5.734489">
        <ele>1452.413</ele>
        <time>1999-07-21T09:59:23Z</time>
      </trkpt>
      <trkpt lat="42.971852" lon="-5.734419">
        <ele>1451.693</ele>
        <time>1999-07-21T09:59:24Z</time>
      </trkpt>
      <trkpt lat="42.971922" lon="-5.734349">
        <ele>1450.474</ele>
        <time>1999-07-21T09:59:25Z</time>
      </trkpt>
      <trkpt lat="42.972079" lon="-5.734225">
        <ele>1449.242</ele>
        <time>1999-07-21T09:59:27Z</time>
      </trkpt>
      <trkpt lat="42.972246" lon="-5.734119">
        <ele>1447.840</ele>
        <time>1999-07-21T09:59:29Z</time>
      </trkpt>
      <trkpt lat="42.972415" lon="-5.734024">
        <ele>1446.481</ele>
        <time>1999-07-21T09:59:31Z</time>
      </trkpt>
      <trkpt lat="42.972580" lon="-5.733924">
        <ele>1445.487</ele>
        <time>1999-07-21T09:59:33Z</time>
      </trkpt>
      <trkpt lat="42.972750" lon="-5.733826">
        <ele>1444.492</ele>
        <time>1999-07-21T09:59:35Z</time>
      </trkpt>
      <trkpt lat="42.972842" lon="-5.733780">
        <ele>1443.673</ele>
        <time>1999-07-21T09:59:36Z</time>
      </trkpt>
      <trkpt lat="42.973026" lon="-5.733696">
        <ele>1442.620</ele>
        <time>1999-07-21T09:59:38Z</time>
      </trkpt>
      <trkpt lat="42.973192" lon="-5.733620">
        <ele>1441.208</ele>
        <time>1999-07-21T09:59:40Z</time>
      </trkpt>
      <trkpt lat="42.973269" lon="-5.733580">
        <ele>1440.292</ele>
        <time>1999-07-21T09:59:41Z</time>
      </trkpt>
      <trkpt lat="42.973347" lon="-5.733536">
        <ele>1439.457</ele>
        <time>1999-07-21T09:59:42Z</time>
      </trkpt>
      <trkpt lat="42.973427" lon="-5.733489">
        <ele>1438.277</ele>
        <time>1999-07-21T09:59:43Z</time>
      </trkpt>
      <trkpt lat="42.973601" lon="-5.733384">
        <ele>1436.628</ele>
        <time>1999-07-21T09:59:45Z</time>
      </trkpt>
      <trkpt lat="42.973692" lon="-5.733328">
        <ele>1436.066</ele>
        <time>1999-07-21T09:59:46Z</time>
      </trkpt>
      <trkpt lat="42.973784" lon="-5.733270">
        <ele>1435.064</ele>
        <time>1999-07-21T09:59:47Z</time>
      </trkpt>
      <trkpt lat="42.973879" lon="-5.733211">
        <ele>1434.095</ele>
        <time>1999-07-21T09:59:48Z</time>
      </trkpt>
      <trkpt lat="42.974065" lon="-5.733101">
        <ele>1432.881</ele>
        <time>1999-07-21T09:59:50Z</time>
      </trkpt>
      <trkpt lat="42.974236" lon="-5.732984">
        <ele>1431.026</ele>
        <time>1999-07-21T09:59:52Z</time>
      </trkpt>
      <trkpt lat="42.974322" lon="-5.732926">
        <ele>1429.647</ele>
        <time>1999-07-21T09:59:53Z</time>
      </trkpt>
      <trkpt lat="42.974499" lon="-5.732812">
        <ele>1428.211</ele>
        <time>1999-07-21T09:59:55Z</time>
      </trkpt>
      <trkpt lat="42.974640" lon="-5.732722">
        <ele>1427.008</ele>
        <time>1999-07-21T09:59:57Z</time>
      </trkpt>
      <trkpt lat="42.974684" lon="-5.732690">
        <ele>1425.875</ele>
        <time>1999-07-21T09:59:58Z</time>
      </trkpt>
      <trkpt lat="42.974715" lon="-5.732668">
        <ele>1424.640</ele>
        <time>1999-07-21T09:59:59Z</time>
      </trkpt>
      <trkpt lat="42.974731" lon="-5.732658">
        <ele>1423.470</ele>
        <time>1999-07-21T10:00:00Z</time>
      </trkpt>
      <trkpt lat="42.974733" lon="-5.732653">
        <ele>1422.271</ele>
        <time>1999-07-21T10:00:02Z</time>
      </trkpt>
      <trkpt lat="42.974729" lon="-5.732652">
        <ele>1421.429</ele>
        <time>1999-07-21T10:00:03Z</time>
      </trkpt>
      <trkpt lat="42.974761" lon="-5.732596">
        <ele>1414.847</ele>
        <time>1999-07-21T10:00:18Z</time>
      </trkpt>
      <trkpt lat="42.974881" lon="-5.732415">
        <ele>1414.838</ele>
        <time>1999-07-21T10:00:22Z</time>
      </trkpt>
      <trkpt lat="42.974945" lon="-5.732308">
        <ele>1414.854</ele>
        <time>1999-07-21T10:00:24Z</time>
      </trkpt>
      <trkpt lat="42.974968" lon="-5.732255">
        <ele>1414.664</ele>
        <time>1999-07-21T10:00:25Z</time>
      </trkpt>
      <trkpt lat="42.975034" lon="-5.732142">
        <ele>1414.406</ele>
        <time>1999-07-21T10:00:27Z</time>
      </trkpt>
      <trkpt lat="42.975122" lon="-5.732025">
        <ele>1413.816</ele>
        <time>1999-07-21T10:00:29Z</time>
      </trkpt>
      <trkpt lat="42.975246" lon="-5.731859">
        <ele>1412.808</ele>
        <time>1999-07-21T10:00:32Z</time>
      </trkpt>
      <trkpt lat="42.975272" lon="-5.731809">
        <ele>1412.019</ele>
        <time>1999-07-21T10:00:33Z</time>
      </trkpt>
      <trkpt lat="42.975295" lon="-5.731758">
        <ele>1411.674</ele>
        <time>1999-07-21T10:00:34Z</time>
      </trkpt>
      <trkpt lat="42.975341" lon="-5.731645">
        <ele>1410.454</ele>
        <time>1999-07-21T10:00:36Z</time>
      </trkpt>
      <trkpt lat="42.975368" lon="-5.731589">
        <ele>1409.275</ele>
        <time>1999-07-21T10:00:37Z</time>
      </trkpt>
      <trkpt lat="42.975426" lon="-5.731473">
        <ele>1407.643</ele>
        <time>1999-07-21T10:00:39Z</time>
      </trkpt>
      <trkpt lat="42.975452" lon="-5.731418">
        <ele>1406.491</ele>
        <time>1999-07-21T10:00:40Z</time>
      </trkpt>
      <trkpt lat="42.975478" lon="-5.731376">
        <ele>1405.462</ele>
        <time>1999-07-21T10:00:41Z</time>
      </trkpt>
      <trkpt lat="42.975512" lon="-5.731325">
        <ele>1403.828</ele>
        <time>1999-07-21T10:00:43Z</time>
      </trkpt>
      <trkpt lat="42.975525" lon="-5.731305">
        <ele>1401.886</ele>
        <time>1999-07-21T10:00:45Z</time>
      </trkpt>
      <trkpt lat="42.975528" lon="-5.731306">
        <ele>1400.260</ele>
        <time>1999-07-21T10:00:47Z</time>
      </trkpt>
      <trkpt lat="42.975527" lon="-5.731308">
        <ele>1399.026</ele>
        <time>1999-07-21T10:00:48Z</time>
      </trkpt>
      <trkpt lat="42.975596" lon="-5.731198">
        <ele>1394.608</ele>
        <time>1999-07-21T10:02:05Z</time>
      </trkpt>
      <trkpt lat="42.975625" lon="-5.731161">
        <ele>1394.661</ele>
        <time>1999-07-21T10:02:06Z</time>
      </trkpt>
      <trkpt lat="42.975817" lon="-5.731026">
        <ele>1394.676</ele>
        <time>1999-07-21T10:02:10Z</time>
      </trkpt>
      <trkpt lat="42.975960" lon="-5.730984">
        <ele>1394.416</ele>
        <time>1999-07-21T10:02:12Z</time>
      </trkpt>
      <trkpt lat="42.976038" lon="-5.730952">
        <ele>1394.417</ele>
        <time>1999-07-21T10:02:13Z</time>
      </trkpt>
      <trkpt lat="42.976240" lon="-5.730762">
        <ele>1393.275</ele>
        <time>1999-07-21T10:02:16Z</time>
      </trkpt>
      <trkpt lat="42.976303" lon="-5.730682">
        <ele>1392.673</ele>
        <time>1999-07-21T10:02:17Z</time>
      </trkpt>
      <trkpt lat="42.976432" lon="-5.730528">
        <ele>1391.874</ele>
        <time>1999-07-21T10:02:19Z</time>
      </trkpt>
      <trkpt lat="42.976567" lon="-5.730368">
        <ele>1390.240</ele>
        <time>1999-07-21T10:02:21Z</time>
      </trkpt>
      <trkpt lat="42.976640" lon="-5.730295">
        <ele>1389.429</ele>
        <time>1999-07-21T10:02:22Z</time>
      </trkpt>
      <trkpt lat="42.976717" lon="-5.730241">
        <ele>1389.000</ele>
        <time>1999-07-21T10:02:23Z</time>
      </trkpt>
      <trkpt lat="42.976871" lon="-5.730151">
        <ele>1388.220</ele>
        <time>1999-07-21T10:02:25Z</time>
      </trkpt>
      <trkpt lat="42.976936" lon="-5.730094">
        <ele>1387.608</ele>
        <time>1999-07-21T10:02:26Z</time>
      </trkpt>
      <trkpt lat="42.977037" lon="-5.729936">
        <ele>1385.825</ele>
        <time>1999-07-21T10:02:28Z</time>
      </trkpt>
      <trkpt lat="42.977101" lon="-5.729736">
        <ele>1383.890</ele>
        <time>1999-07-21T10:02:30Z</time>
      </trkpt>
      <trkpt lat="42.977130" lon="-5.729631">
        <ele>1382.820</ele>
        <time>1999-07-21T10:02:31Z</time>
      </trkpt>
      <trkpt lat="42.977166" lon="-5.729534">
        <ele>1381.851</ele>
        <time>1999-07-21T10:02:32Z</time>
      </trkpt>
      <trkpt lat="42.977206" lon="-5.729449">
        <ele>1380.829</ele>
        <time>1999-07-21T10:02:33Z</time>
      </trkpt>
      <trkpt lat="42.977252" lon="-5.729374">
        <ele>1379.637</ele>
        <time>1999-07-21T10:02:34Z</time>
      </trkpt>
      <trkpt lat="42.977310" lon="-5.729299">
        <ele>1379.078</ele>
        <time>1999-07-21T10:02:35Z</time>
      </trkpt>
      <trkpt lat="42.977371" lon="-5.729223">
        <ele>1378.444</ele>
        <time>1999-07-21T10:02:36Z</time>
      </trkpt>
      <trkpt lat="42.977495" lon="-5.729064">
        <ele>1377.468</ele>
        <time>1999-07-21T10:02:38Z</time>
      </trkpt>
      <trkpt lat="42.977617" lon="-5.728889">
        <ele>1375.642</ele>
        <time>1999-07-21T10:02:40Z</time>
      </trkpt>
      <trkpt lat="42.977675" lon="-5.728812">
        <ele>1374.826</ele>
        <time>1999-07-21T10:02:41Z</time>
      </trkpt>
      <trkpt lat="42.977734" lon="-5.728738">
        <ele>1374.008</ele>
        <time>1999-07-21T10:02:42Z</time>
      </trkpt>
      <trkpt lat="42.977853" lon="-5.728560">
        <ele>1372.059</ele>
        <time>1999-07-21T10:02:44Z</time>
      </trkpt>
      <trkpt lat="42.977916" lon="-5.728449">
        <ele>1371.264</ele>
        <time>1999-07-21T10:02:45Z</time>
      </trkpt>
      <trkpt lat="42.977982" lon="-5.728335">
        <ele>1370.624</ele>
        <time>1999-07-21T10:02:46Z</time>
      </trkpt>
      <trkpt lat="42.978115" lon="-5.728128">
        <ele>1368.665</ele>
        <time>1999-07-21T10:02:48Z</time>
      </trkpt>
      <trkpt lat="42.978175" lon="-5.728032">
        <ele>1367.423</ele>
        <time>1999-07-21T10:02:49Z</time>
      </trkpt>
      <trkpt lat="42.978234" lon="-5.727935">
        <ele>1366.211</ele>
        <time>1999-07-21T10:02:50Z</time>
      </trkpt>
      <trkpt lat="42.978287" lon="-5.727843">
        <ele>1365.082</ele>
        <time>1999-07-21T10:02:51Z</time>
      </trkpt>
      <trkpt lat="42.978335" lon="-5.727752">
        <ele>1363.868</ele>
        <time>1999-07-21T10:02:52Z</time>
      </trkpt>
      <trkpt lat="42.978381" lon="-5.727656">
        <ele>1363.035</ele>
        <time>1999-07-21T10:02:53Z</time>
      </trkpt>
      <trkpt lat="42.978429" lon="-5.727554">
        <ele>1361.686</ele>
        <time>1999-07-21T10:02:54Z</time>
      </trkpt>
      <trkpt lat="42.978477" lon="-5.727448">
        <ele>1360.214</ele>
        <time>1999-07-21T10:02:55Z</time>
      </trkpt>
      <trkpt lat="42.978522" lon="-5.727347">
        <ele>1359.008</ele>
        <time>1999-07-21T10:02:56Z</time>
      </trkpt>
      <trkpt lat="42.978564" lon="-5.727248">
        <ele>1357.266</ele>
        <time>1999-07-21T10:02:57Z</time>
      </trkpt>
      <trkpt lat="42.978604" lon="-5.727147">
        <ele>1356.051</ele>
        <time>1999-07-21T10:02:58Z</time>
      </trkpt>
      <trkpt lat="42.978645" lon="-5.727040">
        <ele>1354.851</ele>
        <time>1999-07-21T10:02:59Z</time>
      </trkpt>
      <trkpt lat="42.978688" lon="-5.726932">
        <ele>1353.032</ele>
        <time>1999-07-21T10:03:00Z</time>
      </trkpt>
      <trkpt lat="42.978730" lon="-5.726833">
        <ele>1351.820</ele>
        <time>1999-07-21T10:03:01Z</time>
      </trkpt>
      <trkpt lat="42.978769" lon="-5.726739">
        <ele>1350.688</ele>
        <time>1999-07-21T10:03:02Z</time>
      </trkpt>
      <trkpt lat="42.978807" lon="-5.726648">
        <ele>1349.039</ele>
        <time>1999-07-21T10:03:03Z</time>
      </trkpt>
      <trkpt lat="42.978875" lon="-5.726476">
        <ele>1346.675</ele>
        <time>1999-07-21T10:03:05Z</time>
      </trkpt>
      <trkpt lat="42.978903" lon="-5.726402">
        <ele>1344.031</ele>
        <time>1999-07-21T10:03:06Z</time>
      </trkpt>
      <trkpt lat="42.978923" lon="-5.726332">
        <ele>1342.061</ele>
        <time>1999-07-21T10:03:07Z</time>
      </trkpt>
      <trkpt lat="42.978946" lon="-5.726258">
        <ele>1340.807</ele>
        <time>1999-07-21T10:03:08Z</time>
      </trkpt>
      <trkpt lat="42.978977" lon="-5.726178">
        <ele>1339.008</ele>
        <time>1999-07-21T10:03:09Z</time>
      </trkpt>
      <trkpt lat="42.979012" lon="-5.726089">
        <ele>1337.656</ele>
        <time>1999-07-21T10:03:10Z</time>
      </trkpt>
      <trkpt lat="42.979049" lon="-5.725997">
        <ele>1336.221</ele>
        <time>1999-07-21T10:03:11Z</time>
      </trkpt>
      <trkpt lat="42.979086" lon="-5.725908">
        <ele>1334.891</ele>
        <time>1999-07-21T10:03:12Z</time>
      </trkpt>
      <trkpt lat="42.979123" lon="-5.725815">
        <ele>1333.672</ele>
        <time>1999-07-21T10:03:13Z</time>
      </trkpt>
      <trkpt lat="42.979159" lon="-5.725712">
        <ele>1332.450</ele>
        <time>1999-07-21T10:03:14Z</time>
      </trkpt>
      <trkpt lat="42.979227" lon="-5.725496">
        <ele>1331.038</ele>
        <time>1999-07-21T10:03:16Z</time>
      </trkpt>
      <trkpt lat="42.979281" lon="-5.725270">
        <ele>1329.239</ele>
        <time>1999-07-21T10:03:18Z</time>
      </trkpt>
      <trkpt lat="42.979311" lon="-5.725155">
        <ele>1328.085</ele>
        <time>1999-07-21T10:03:19Z</time>
      </trkpt>
      <trkpt lat="42.979340" lon="-5.725041">
        <ele>1326.268</ele>
        <time>1999-07-21T10:03:20Z</time>
      </trkpt>
      <trkpt lat="42.979369" lon="-5.724931">
        <ele>1324.842</ele>
        <time>1999-07-21T10:03:21Z</time>
      </trkpt>
      <trkpt lat="42.979399" lon="-5.724823">
        <ele>1323.226</ele>
        <time>1999-07-21T10:03:22Z</time>
      </trkpt>
      <trkpt lat="42.979425" lon="-5.724726">
        <ele>1322.008</ele>
        <time>1999-07-21T10:03:23Z</time>
      </trkpt>
      <trkpt lat="42.979452" lon="-5.724636">
        <ele>1320.229</ele>
        <time>1999-07-21T10:03:24Z</time>
      </trkpt>
      <trkpt lat="42.979485" lon="-5.724552">
        <ele>1318.854</ele>
        <time>1999-07-21T10:03:25Z</time>
      </trkpt>
      <trkpt lat="42.979529" lon="-5.724475">
        <ele>1317.644</ele>
        <time>1999-07-21T10:03:26Z</time>
      </trkpt>
      <trkpt lat="42.979578" lon="-5.724404">
        <ele>1316.285</ele>
        <time>1999-07-21T10:03:27Z</time>
      </trkpt>
      <trkpt lat="42.979627" lon="-5.724328">
        <ele>1315.053</ele>
        <time>1999-07-21T10:03:28Z</time>
      </trkpt>
      <trkpt lat="42.979674" lon="-5.724241">
        <ele>1313.661</ele>
        <time>1999-07-21T10:03:29Z</time>
      </trkpt>
      <trkpt lat="42.979718" lon="-5.724138">
        <ele>1312.492</ele>
        <time>1999-07-21T10:03:30Z</time>
      </trkpt>
      <trkpt lat="42.979759" lon="-5.724022">
        <ele>1311.048</ele>
        <time>1999-07-21T10:03:31Z</time>
      </trkpt>
      <trkpt lat="42.979798" lon="-5.723902">
        <ele>1309.882</ele>
        <time>1999-07-21T10:03:32Z</time>
      </trkpt>
      <trkpt lat="42.979841" lon="-5.723782">
        <ele>1308.443</ele>
        <time>1999-07-21T10:03:33Z</time>
      </trkpt>
      <trkpt lat="42.979888" lon="-5.723668">
        <ele>1306.417</ele>
        <time>1999-07-21T10:03:34Z</time>
      </trkpt>
      <trkpt lat="42.979978" lon="-5.723468">
        <ele>1304.208</ele>
        <time>1999-07-21T10:03:36Z</time>
      </trkpt>
      <trkpt lat="42.980021" lon="-5.723375">
        <ele>1303.281</ele>
        <time>1999-07-21T10:03:37Z</time>
      </trkpt>
      <trkpt lat="42.980059" lon="-5.723276">
        <ele>1302.216</ele>
        <time>1999-07-21T10:03:38Z</time>
      </trkpt>
      <trkpt lat="42.980095" lon="-5.723178">
        <ele>1301.216</ele>
        <time>1999-07-21T10:03:39Z</time>
      </trkpt>
      <trkpt lat="42.980137" lon="-5.723081">
        <ele>1300.277</ele>
        <time>1999-07-21T10:03:40Z</time>
      </trkpt>
      <trkpt lat="42.980181" lon="-5.722983">
        <ele>1298.625</ele>
        <time>1999-07-21T10:03:41Z</time>
      </trkpt>
      <trkpt lat="42.980233" lon="-5.722886">
        <ele>1297.253</ele>
        <time>1999-07-21T10:03:42Z</time>
      </trkpt>
      <trkpt lat="42.980291" lon="-5.722790">
        <ele>1295.484</ele>
        <time>1999-07-21T10:03:43Z</time>
      </trkpt>
      <trkpt lat="42.980357" lon="-5.722699">
        <ele>1293.660</ele>
        <time>1999-07-21T10:03:44Z</time>
      </trkpt>
      <trkpt lat="42.980428" lon="-5.722619">
        <ele>1292.483</ele>
        <time>1999-07-21T10:03:45Z</time>
      </trkpt>
      <trkpt lat="42.980493" lon="-5.722554">
        <ele>1290.825</ele>
        <time>1999-07-21T10:03:46Z</time>
      </trkpt>
      <trkpt lat="42.980549" lon="-5.722501">
        <ele>1289.217</ele>
        <time>1999-07-21T10:03:47Z</time>
      </trkpt>
      <trkpt lat="42.980599" lon="-5.722455">
        <ele>1288.208</ele>
        <time>1999-07-21T10:03:48Z</time>
      </trkpt>
      <trkpt lat="42.980713" lon="-5.722357">
        <ele>1286.471</ele>
        <time>1999-07-21T10:03:50Z</time>
      </trkpt>
      <trkpt lat="42.980839" lon="-5.722239">
        <ele>1284.256</ele>
        <time>1999-07-21T10:03:52Z</time>
      </trkpt>
      <trkpt lat="42.980891" lon="-5.722180">
        <ele>1282.696</ele>
        <time>1999-07-21T10:03:53Z</time>
      </trkpt>
      <trkpt lat="42.980937" lon="-5.722124">
        <ele>1280.817</ele>
        <time>1999-07-21T10:03:54Z</time>
      </trkpt>
      <trkpt lat="42.980978" lon="-5.722069">
        <ele>1279.025</ele>
        <time>1999-07-21T10:03:55Z</time>
      </trkpt>
      <trkpt lat="42.981014" lon="-5.722024">
        <ele>1277.473</ele>
        <time>1999-07-21T10:03:56Z</time>
      </trkpt>
      <trkpt lat="42.981048" lon="-5.721982">
        <ele>1276.034</ele>
        <time>1999-07-21T10:03:57Z</time>
      </trkpt>
      <trkpt lat="42.981087" lon="-5.721944">
        <ele>1275.240</ele>
        <time>1999-07-21T10:03:58Z</time>
      </trkpt>
      <trkpt lat="42.981136" lon="-5.721919">
        <ele>1274.494</ele>
        <time>1999-07-21T10:03:59Z</time>
      </trkpt>
      <trkpt lat="42.981239" lon="-5.721909">
        <ele>1272.057</ele>
        <time>1999-07-21T10:04:01Z</time>
      </trkpt>
      <trkpt lat="42.981282" lon="-5.721897">
        <ele>1268.822</ele>
        <time>1999-07-21T10:04:02Z</time>
      </trkpt>
      <trkpt lat="42.981310" lon="-5.721861">
        <ele>1267.608</ele>
        <time>1999-07-21T10:04:03Z</time>
      </trkpt>
      <trkpt lat="42.981322" lon="-5.721810">
        <ele>1266.452</ele>
        <time>1999-07-21T10:04:04Z</time>
      </trkpt>
      <trkpt lat="42.981324" lon="-5.721750">
        <ele>1265.287</ele>
        <time>1999-07-21T10:04:05Z</time>
      </trkpt>
      <trkpt lat="42.981323" lon="-5.721686">
        <ele>1264.277</ele>
        <time>1999-07-21T10:04:06Z</time>
      </trkpt>
      <trkpt lat="42.981321" lon="-5.721617">
        <ele>1263.668</ele>
        <time>1999-07-21T10:04:07Z</time>
      </trkpt>
      <trkpt lat="42.981320" lon="-5.721466">
        <ele>1261.696</ele>
        <time>1999-07-21T10:04:09Z</time>
      </trkpt>
      <trkpt lat="42.981321" lon="-5.721386">
        <ele>1260.814</ele>
        <time>1999-07-21T10:04:10Z</time>
      </trkpt>
      <trkpt lat="42.981323" lon="-5.721301">
        <ele>1260.015</ele>
        <time>1999-07-21T10:04:11Z</time>
      </trkpt>
      <trkpt lat="42.981331" lon="-5.721119">
        <ele>1259.211</ele>
        <time>1999-07-21T10:04:13Z</time>
      </trkpt>
      <trkpt lat="42.981349" lon="-5.720926">
        <ele>1258.825</ele>
        <time>1999-07-21T10:04:15Z</time>
      </trkpt>
      <trkpt lat="42.981363" lon="-5.720829">
        <ele>1258.626</ele>
        <time>1999-07-21T10:04:16Z</time>
      </trkpt>
      <trkpt lat="42.981474" lon="-5.720253">
        <ele>1257.808</ele>
        <time>1999-07-21T10:04:22Z</time>
      </trkpt>
      <trkpt lat="42.981520" lon="-5.720079">
        <ele>1257.408</ele>
        <time>1999-07-21T10:04:24Z</time>
      </trkpt>
      <trkpt lat="42.981640" lon="-5.719714">
        <ele>1256.885</ele>
        <time>1999-07-21T10:04:29Z</time>
      </trkpt>
      <trkpt lat="42.981650" lon="-5.719684">
        <ele>1256.640</ele>
        <time>1999-07-21T10:04:30Z</time>
      </trkpt>
      <trkpt lat="42.981661" lon="-5.719662">
        <ele>1255.870</ele>
        <time>1999-07-21T10:04:34Z</time>
      </trkpt>
      <trkpt lat="42.981792" lon="-5.719727">
        <ele>1253.831</ele>
        <time>1999-07-21T10:05:45Z</time>
      </trkpt>
      <trkpt lat="42.981817" lon="-5.719773">
        <ele>1253.849</ele>
        <time>1999-07-21T10:05:46Z</time>
      </trkpt>
      <trkpt lat="42.981903" lon="-5.719888">
        <ele>1253.837</ele>
        <time>1999-07-21T10:05:49Z</time>
      </trkpt>
      <trkpt lat="42.981992" lon="-5.719929">
        <ele>1253.658</ele>
        <time>1999-07-21T10:05:51Z</time>
      </trkpt>
      <trkpt lat="42.982250" lon="-5.719961">
        <ele>1253.034</ele>
        <time>1999-07-21T10:05:56Z</time>
      </trkpt>
      <trkpt lat="42.982302" lon="-5.719961">
        <ele>1252.837</ele>
        <time>1999-07-21T10:05:58Z</time>
      </trkpt>
      <trkpt lat="42.982309" lon="-5.719963">
        <ele>1252.649</ele>
        <time>1999-07-21T10:05:59Z</time>
      </trkpt>
      <trkpt lat="42.982266" lon="-5.719999">
        <ele>1252.013</ele>
        <time>1999-07-21T10:06:05Z</time>
      </trkpt>
      <trkpt lat="42.982258" lon="-5.720004">
        <ele>1251.808</ele>
        <time>1999-07-21T10:06:06Z</time>
      </trkpt>
      <trkpt lat="42.982252" lon="-5.720009">
        <ele>1252.036</ele>
        <time>1999-07-21T10:06:07Z</time>
      </trkpt>
      <trkpt lat="42.982253" lon="-5.720011">
        <ele>1251.891</ele>
        <time>1999-07-21T10:06:09Z</time>
      </trkpt>
      <trkpt lat="42.982385" lon="-5.719976">
        <ele>1262.231</ele>
        <time>1999-07-21T10:10:22Z</time>
      </trkpt>
      <trkpt lat="42.982400" lon="-5.719974">
        <ele>1262.082</ele>
        <time>1999-07-21T10:10:23Z</time>
      </trkpt>
      <trkpt lat="42.982434" lon="-5.719956">
        <ele>1262.620</ele>
        <time>1999-07-21T10:10:25Z</time>
      </trkpt>
      <trkpt lat="42.982506" lon="-5.719893">
        <ele>1263.268</ele>
        <time>1999-07-21T10:10:28Z</time>
      </trkpt>
      <trkpt lat="42.982560" lon="-5.719806">
        <ele>1263.649</ele>
        <time>1999-07-21T10:10:30Z</time>
      </trkpt>
      <trkpt lat="42.982602" lon="-5.719700">
        <ele>1264.275</ele>
        <time>1999-07-21T10:10:32Z</time>
      </trkpt>
      <trkpt lat="42.982630" lon="-5.719620">
        <ele>1265.234</ele>
        <time>1999-07-21T10:10:35Z</time>
      </trkpt>
      <trkpt lat="42.982630" lon="-5.719621">
        <ele>1265.455</ele>
        <time>1999-07-21T10:10:36Z</time>
      </trkpt>
      <trkpt lat="42.982631" lon="-5.719621">
        <ele>1265.610</ele>
        <time>1999-07-21T10:10:37Z</time>
      </trkpt>
      <trkpt lat="42.982673" lon="-5.719540">
        <ele>1269.008</ele>
        <time>1999-07-21T10:10:49Z</time>
      </trkpt>
      <trkpt lat="42.982690" lon="-5.719510">
        <ele>1269.846</ele>
        <time>1999-07-21T10:10:50Z</time>
      </trkpt>
      <trkpt lat="42.982711" lon="-5.719475">
        <ele>1270.091</ele>
        <time>1999-07-21T10:10:51Z</time>
      </trkpt>
      <trkpt lat="42.982812" lon="-5.719274">
        <ele>1271.411</ele>
        <time>1999-07-21T10:10:55Z</time>
      </trkpt>
      <trkpt lat="42.982841" lon="-5.719218">
        <ele>1271.642</ele>
        <time>1999-07-21T10:10:56Z</time>
      </trkpt>
      <trkpt lat="42.982933" lon="-5.719033">
        <ele>1272.630</ele>
        <time>1999-07-21T10:10:59Z</time>
      </trkpt>
      <trkpt lat="42.983027" lon="-5.718828">
        <ele>1273.218</ele>
        <time>1999-07-21T10:11:02Z</time>
      </trkpt>
      <trkpt lat="42.983123" lon="-5.718599">
        <ele>1273.629</ele>
        <time>1999-07-21T10:11:05Z</time>
      </trkpt>
      <trkpt lat="42.983231" lon="-5.718361">
        <ele>1274.695</ele>
        <time>1999-07-21T10:11:08Z</time>
      </trkpt>
      <trkpt lat="42.983383" lon="-5.718023">
        <ele>1275.064</ele>
        <time>1999-07-21T10:11:12Z</time>
      </trkpt>
      <trkpt lat="42.983457" lon="-5.717885">
        <ele>1275.406</ele>
        <time>1999-07-21T10:11:14Z</time>
      </trkpt>
      <trkpt lat="42.983496" lon="-5.717839">
        <ele>1275.616</ele>
        <time>1999-07-21T10:11:15Z</time>
      </trkpt>
      <trkpt lat="42.983537" lon="-5.717810">
        <ele>1275.808</ele>
        <time>1999-07-21T10:11:16Z</time>
      </trkpt>
      <trkpt lat="42.983576" lon="-5.717793">
        <ele>1276.269</ele>
        <time>1999-07-21T10:11:17Z</time>
      </trkpt>
      <trkpt lat="42.983626" lon="-5.717765">
        <ele>1276.874</ele>
        <time>1999-07-21T10:11:19Z</time>
      </trkpt>
      <trkpt lat="42.983651" lon="-5.717768">
        <ele>1277.414</ele>
        <time>1999-07-21T10:11:21Z</time>
      </trkpt>
      <trkpt lat="42.983624" lon="-5.717822">
        <ele>1278.495</ele>
        <time>1999-07-21T10:11:25Z</time>
      </trkpt>
      <trkpt lat="42.983611" lon="-5.717816">
        <ele>1278.693</ele>
        <time>1999-07-21T10:11:26Z</time>
      </trkpt>
      <trkpt lat="42.983587" lon="-5.717734">
        <ele>1279.691</ele>
        <time>1999-07-21T10:11:29Z</time>
      </trkpt>
      <trkpt lat="42.983595" lon="-5.717691">
        <ele>1279.892</ele>
        <time>1999-07-21T10:11:30Z</time>
      </trkpt>
      <trkpt lat="42.983624" lon="-5.717597">
        <ele>1280.248</ele>
        <time>1999-07-21T10:11:32Z</time>
      </trkpt>
      <trkpt lat="42.983658" lon="-5.717498">
        <ele>1280.644</ele>
        <time>1999-07-21T10:11:34Z</time>
      </trkpt>
      <trkpt lat="42.983674" lon="-5.717452">
        <ele>1281.205</ele>
        <time>1999-07-21T10:11:35Z</time>
      </trkpt>
      <trkpt lat="42.983689" lon="-5.717407">
        <ele>1281.815</ele>
        <time>1999-07-21T10:11:38Z</time>
      </trkpt>
      <trkpt lat="42.983692" lon="-5.717342">
        <ele>1248.208</ele>
        <time>1999-07-21T10:14:54Z</time>
      </trkpt>
      <trkpt lat="42.983729" lon="-5.717255">
        <ele>1248.247</ele>
        <time>1999-07-21T10:14:56Z</time>
      </trkpt>
      <trkpt lat="42.983779" lon="-5.717137">
        <ele>1248.022</ele>
        <time>1999-07-21T10:14:58Z</time>
      </trkpt>
      <trkpt lat="42.983862" lon="-5.716921">
        <ele>1248.082</ele>
        <time>1999-07-21T10:15:01Z</time>
      </trkpt>
      <trkpt lat="42.983942" lon="-5.716663">
        <ele>1247.843</ele>
        <time>1999-07-21T10:15:04Z</time>
      </trkpt>
      <trkpt lat="42.984024" lon="-5.716373">
        <ele>1247.641</ele>
        <time>1999-07-21T10:15:07Z</time>
      </trkpt>
      <trkpt lat="42.984142" lon="-5.715951">
        <ele>1247.079</ele>
        <time>1999-07-21T10:15:11Z</time>
      </trkpt>
      <trkpt lat="42.984232" lon="-5.715623">
        <ele>1246.610</ele>
        <time>1999-07-21T10:15:14Z</time>
      </trkpt>
      <trkpt lat="42.984336" lon="-5.715159">
        <ele>1246.046</ele>
        <time>1999-07-21T10:15:18Z</time>
      </trkpt>
      <trkpt lat="42.984355" lon="-5.715038">
        <ele>1246.042</ele>
        <time>1999-07-21T10:15:19Z</time>
      </trkpt>
      <trkpt lat="42.984372" lon="-5.714917">
        <ele>1245.822</ele>
        <time>1999-07-21T10:15:20Z</time>
      </trkpt>
      <trkpt lat="42.984408" lon="-5.714418">
        <ele>1245.214</ele>
        <time>1999-07-21T10:15:24Z</time>
      </trkpt>
      <trkpt lat="42.984415" lon="-5.714166">
        <ele>1244.808</ele>
        <time>1999-07-21T10:15:26Z</time>
      </trkpt>
      <trkpt lat="42.984430" lon="-5.713526">
        <ele>1244.287</ele>
        <time>1999-07-21T10:15:31Z</time>
      </trkpt>
      <trkpt lat="42.984448" lon="-5.713136">
        <ele>1243.812</ele>
        <time>1999-07-21T10:15:34Z</time>
      </trkpt>
      <trkpt lat="42.984486" lon="-5.712348">
        <ele>1242.492</ele>
        <time>1999-07-21T10:15:40Z</time>
      </trkpt>
      <trkpt lat="42.984498" lon="-5.712081">
        <ele>1242.223</ele>
        <time>1999-07-21T10:15:42Z</time>
      </trkpt>
      <trkpt lat="42.984519" lon="-5.711272">
        <ele>1241.451</ele>
        <time>1999-07-21T10:15:48Z</time>
      </trkpt>
      <trkpt lat="42.984515" lon="-5.710878">
        <ele>1241.089</ele>
        <time>1999-07-21T10:15:51Z</time>
      </trkpt>
      <trkpt lat="42.984503" lon="-5.710497">
        <ele>1240.820</ele>
        <time>1999-07-21T10:15:54Z</time>
      </trkpt>
      <trkpt lat="42.984494" lon="-5.710249">
        <ele>1240.496</ele>
        <time>1999-07-21T10:15:56Z</time>
      </trkpt>
      <trkpt lat="42.984474" lon="-5.709746">
        <ele>1239.441</ele>
        <time>1999-07-21T10:16:00Z</time>
      </trkpt>
      <trkpt lat="42.984445" lon="-5.709097">
        <ele>1238.281</ele>
        <time>1999-07-21T10:16:05Z</time>
      </trkpt>
      <trkpt lat="42.984430" lon="-5.708565">
        <ele>1237.209</ele>
        <time>1999-07-21T10:16:09Z</time>
      </trkpt>
      <trkpt lat="42.984426" lon="-5.708433">
        <ele>1237.208</ele>
        <time>1999-07-21T10:16:10Z</time>
      </trkpt>
      <trkpt lat="42.984397" lon="-5.707626">
        <ele>1236.417</ele>
        <time>1999-07-21T10:16:16Z</time>
      </trkpt>
      <trkpt lat="42.984388" lon="-5.707353">
        <ele>1235.682</ele>
        <time>1999-07-21T10:16:18Z</time>
      </trkpt>
      <trkpt lat="42.984371" lon="-5.706696">
        <ele>1234.812</ele>
        <time>1999-07-21T10:16:23Z</time>
      </trkpt>
      <trkpt lat="42.984375" lon="-5.706447">
        <ele>1234.613</ele>
        <time>1999-07-21T10:16:25Z</time>
      </trkpt>
      <trkpt lat="42.984388" lon="-5.706204">
        <ele>1234.221</ele>
        <time>1999-07-21T10:16:27Z</time>
      </trkpt>
      <trkpt lat="42.984410" lon="-5.705966">
        <ele>1234.299</ele>
        <time>1999-07-21T10:16:29Z</time>
      </trkpt>
      <trkpt lat="42.984450" lon="-5.705610">
        <ele>1233.490</ele>
        <time>1999-07-21T10:16:32Z</time>
      </trkpt>
      <trkpt lat="42.984494" lon="-5.705130">
        <ele>1232.266</ele>
        <time>1999-07-21T10:16:36Z</time>
      </trkpt>
      <trkpt lat="42.984526" lon="-5.704791">
        <ele>1231.829</ele>
        <time>1999-07-21T10:16:39Z</time>
      </trkpt>
      <trkpt lat="42.984551" lon="-5.704579">
        <ele>1231.600</ele>
        <time>1999-07-21T10:16:41Z</time>
      </trkpt>
      <trkpt lat="42.984614" lon="-5.704162">
        <ele>1231.220</ele>
        <time>1999-07-21T10:16:45Z</time>
      </trkpt>
      <trkpt lat="42.984638" lon="-5.704058">
        <ele>1231.008</ele>
        <time>1999-07-21T10:16:46Z</time>
      </trkpt>
      <trkpt lat="42.984755" lon="-5.703661">
        <ele>1230.665</ele>
        <time>1999-07-21T10:16:50Z</time>
      </trkpt>
      <trkpt lat="42.984828" lon="-5.703478">
        <ele>1230.250</ele>
        <time>1999-07-21T10:16:52Z</time>
      </trkpt>
      <trkpt lat="42.984918" lon="-5.703297">
        <ele>1230.030</ele>
        <time>1999-07-21T10:16:54Z</time>
      </trkpt>
      <trkpt lat="42.985024" lon="-5.703117">
        <ele>1229.691</ele>
        <time>1999-07-21T10:16:56Z</time>
      </trkpt>
      <trkpt lat="42.985130" lon="-5.702932">
        <ele>1229.259</ele>
        <time>1999-07-21T10:16:58Z</time>
      </trkpt>
      <trkpt lat="42.985240" lon="-5.702741">
        <ele>1229.097</ele>
        <time>1999-07-21T10:17:00Z</time>
      </trkpt>
      <trkpt lat="42.985432" lon="-5.702340">
        <ele>1228.498</ele>
        <time>1999-07-21T10:17:04Z</time>
      </trkpt>
      <trkpt lat="42.985465" lon="-5.702227">
        <ele>1228.414</ele>
        <time>1999-07-21T10:17:05Z</time>
      </trkpt>
      <trkpt lat="42.985569" lon="-5.701750">
        <ele>1227.615</ele>
        <time>1999-07-21T10:17:09Z</time>
      </trkpt>
      <trkpt lat="42.985594" lon="-5.701496">
        <ele>1227.265</ele>
        <time>1999-07-21T10:17:11Z</time>
      </trkpt>
      <trkpt lat="42.985590" lon="-5.701232">
        <ele>1226.411</ele>
        <time>1999-07-21T10:17:13Z</time>
      </trkpt>
      <trkpt lat="42.985549" lon="-5.700839">
        <ele>1226.008</ele>
        <time>1999-07-21T10:17:16Z</time>
      </trkpt>
      <trkpt lat="42.985412" lon="-5.700329">
        <ele>1225.684</ele>
        <time>1999-07-21T10:17:20Z</time>
      </trkpt>
      <trkpt lat="42.985318" lon="-5.700083">
        <ele>1225.469</ele>
        <time>1999-07-21T10:17:22Z</time>
      </trkpt>
      <trkpt lat="42.985125" lon="-5.699587">
        <ele>1224.829</ele>
        <time>1999-07-21T10:17:26Z</time>
      </trkpt>
      <trkpt lat="42.985077" lon="-5.699460">
        <ele>1224.620</ele>
        <time>1999-07-21T10:17:27Z</time>
      </trkpt>
      <trkpt lat="42.984978" lon="-5.699203">
        <ele>1224.228</ele>
        <time>1999-07-21T10:17:29Z</time>
      </trkpt>
      <trkpt lat="42.984827" lon="-5.698811">
        <ele>1222.626</ele>
        <time>1999-07-21T10:17:32Z</time>
      </trkpt>
      <trkpt lat="42.984646" lon="-5.698293">
        <ele>1221.817</ele>
        <time>1999-07-21T10:17:36Z</time>
      </trkpt>
      <trkpt lat="42.984606" lon="-5.698163">
        <ele>1221.463</ele>
        <time>1999-07-21T10:17:37Z</time>
      </trkpt>
      <trkpt lat="42.984440" lon="-5.697526">
        <ele>1220.687</ele>
        <time>1999-07-21T10:17:42Z</time>
      </trkpt>
      <trkpt lat="42.984418" lon="-5.697396">
        <ele>1220.442</ele>
        <time>1999-07-21T10:17:43Z</time>
      </trkpt>
      <trkpt lat="42.984366" lon="-5.696882">
        <ele>1219.426</ele>
        <time>1999-07-21T10:17:47Z</time>
      </trkpt>
      <trkpt lat="42.984359" lon="-5.696756">
        <ele>1219.008</ele>
        <time>1999-07-21T10:17:48Z</time>
      </trkpt>
      <trkpt lat="42.984360" lon="-5.696506">
        <ele>1218.281</ele>
        <time>1999-07-21T10:17:50Z</time>
      </trkpt>
      <trkpt lat="42.984379" lon="-5.696128">
        <ele>1217.696</ele>
        <time>1999-07-21T10:17:53Z</time>
      </trkpt>
      <trkpt lat="42.984400" lon="-5.695871">
        <ele>1217.286</ele>
        <time>1999-07-21T10:17:55Z</time>
      </trkpt>
      <trkpt lat="42.984411" lon="-5.695741">
        <ele>1217.057</ele>
        <time>1999-07-21T10:17:56Z</time>
      </trkpt>
      <trkpt lat="42.984423" lon="-5.695609">
        <ele>1216.855</ele>
        <time>1999-07-21T10:17:57Z</time>
      </trkpt>
      <trkpt lat="42.984459" lon="-5.695210">
        <ele>1216.453</ele>
        <time>1999-07-21T10:18:00Z</time>
      </trkpt>
      <trkpt lat="42.984483" lon="-5.694938">
        <ele>1216.244</ele>
        <time>1999-07-21T10:18:02Z</time>
      </trkpt>
      <trkpt lat="42.984494" lon="-5.694800">
        <ele>1216.030</ele>
        <time>1999-07-21T10:18:03Z</time>
      </trkpt>
      <trkpt lat="42.984542" lon="-5.694242">
        <ele>1214.666</ele>
        <time>1999-07-21T10:18:07Z</time>
      </trkpt>
      <trkpt lat="42.984569" lon="-5.693666">
        <ele>1214.029</ele>
        <time>1999-07-21T10:18:11Z</time>
      </trkpt>
      <trkpt lat="42.984547" lon="-5.693375">
        <ele>1213.421</ele>
        <time>1999-07-21T10:18:13Z</time>
      </trkpt>
      <trkpt lat="42.984498" lon="-5.693089">
        <ele>1212.808</ele>
        <time>1999-07-21T10:18:15Z</time>
      </trkpt>
      <trkpt lat="42.984430" lon="-5.692811">
        <ele>1212.259</ele>
        <time>1999-07-21T10:18:17Z</time>
      </trkpt>
      <trkpt lat="42.984253" lon="-5.692279">
        <ele>1211.844</ele>
        <time>1999-07-21T10:18:21Z</time>
      </trkpt>
      <trkpt lat="42.984196" lon="-5.692155">
        <ele>1211.494</ele>
        <time>1999-07-21T10:18:22Z</time>
      </trkpt>
      <trkpt lat="42.984132" lon="-5.692041">
        <ele>1211.065</ele>
        <time>1999-07-21T10:18:23Z</time>
      </trkpt>
      <trkpt lat="42.984061" lon="-5.691938">
        <ele>1210.853</ele>
        <time>1999-07-21T10:18:24Z</time>
      </trkpt>
      <trkpt lat="42.983903" lon="-5.691757">
        <ele>1210.461</ele>
        <time>1999-07-21T10:18:26Z</time>
      </trkpt>
      <trkpt lat="42.983735" lon="-5.691604">
        <ele>1209.642</ele>
        <time>1999-07-21T10:18:28Z</time>
      </trkpt>
      <trkpt lat="42.983651" lon="-5.691534">
        <ele>1209.698</ele>
        <time>1999-07-21T10:18:29Z</time>
      </trkpt>
      <trkpt lat="42.983309" lon="-5.691285">
        <ele>1209.271</ele>
        <time>1999-07-21T10:18:33Z</time>
      </trkpt>
      <trkpt lat="42.983225" lon="-5.691226">
        <ele>1208.641</ele>
        <time>1999-07-21T10:18:34Z</time>
      </trkpt>
      <trkpt lat="42.983063" lon="-5.691107">
        <ele>1207.815</ele>
        <time>1999-07-21T10:18:36Z</time>
      </trkpt>
      <trkpt lat="42.982907" lon="-5.690981">
        <ele>1207.608</ele>
        <time>1999-07-21T10:18:38Z</time>
      </trkpt>
      <trkpt lat="42.982832" lon="-5.690916">
        <ele>1207.430</ele>
        <time>1999-07-21T10:18:39Z</time>
      </trkpt>
      <trkpt lat="42.982633" lon="-5.690702">
        <ele>1207.245</ele>
        <time>1999-07-21T10:18:42Z</time>
      </trkpt>
      <trkpt lat="42.982515" lon="-5.690545">
        <ele>1206.665</ele>
        <time>1999-07-21T10:18:44Z</time>
      </trkpt>
      <trkpt lat="42.982458" lon="-5.690469">
        <ele>1206.476</ele>
        <time>1999-07-21T10:18:45Z</time>
      </trkpt>
      <trkpt lat="42.982408" lon="-5.690389">
        <ele>1206.214</ele>
        <time>1999-07-21T10:18:46Z</time>
      </trkpt>
      <trkpt lat="42.982378" lon="-5.690303">
        <ele>1206.082</ele>
        <time>1999-07-21T10:18:47Z</time>
      </trkpt>
      <trkpt lat="42.982397" lon="-5.690126">
        <ele>1205.893</ele>
        <time>1999-07-21T10:18:49Z</time>
      </trkpt>
      <trkpt lat="42.982492" lon="-5.689979">
        <ele>1205.659</ele>
        <time>1999-07-21T10:18:51Z</time>
      </trkpt>
      <trkpt lat="42.982551" lon="-5.689921">
        <ele>1205.669</ele>
        <time>1999-07-21T10:18:52Z</time>
      </trkpt>
      <trkpt lat="42.982611" lon="-5.689868">
        <ele>1205.204</ele>
        <time>1999-07-21T10:18:53Z</time>
      </trkpt>
      <trkpt lat="42.982805" lon="-5.689745">
        <ele>1204.824</ele>
        <time>1999-07-21T10:18:56Z</time>
      </trkpt>
      <trkpt lat="42.982872" lon="-5.689712">
        <ele>1204.408</ele>
        <time>1999-07-21T10:18:57Z</time>
      </trkpt>
      <trkpt lat="42.982935" lon="-5.689683">
        <ele>1204.219</ele>
        <time>1999-07-21T10:18:58Z</time>
      </trkpt>
      <trkpt lat="42.983177" lon="-5.689603">
        <ele>1204.084</ele>
        <time>1999-07-21T10:19:02Z</time>
      </trkpt>
      <trkpt lat="42.983233" lon="-5.689591">
        <ele>1204.034</ele>
        <time>1999-07-21T10:19:03Z</time>
      </trkpt>
      <trkpt lat="42.983479" lon="-5.689544">
        <ele>1204.465</ele>
        <time>1999-07-21T10:19:08Z</time>
      </trkpt>
      <trkpt lat="42.983563" lon="-5.689525">
        <ele>1205.083</ele>
        <time>1999-07-21T10:19:10Z</time>
      </trkpt>
      <trkpt lat="42.983645" lon="-5.689509">
        <ele>1205.271</ele>
        <time>1999-07-21T10:19:12Z</time>
      </trkpt>
      <trkpt lat="42.983848" lon="-5.689470">
        <ele>1206.452</ele>
        <time>1999-07-21T10:19:17Z</time>
      </trkpt>
      <trkpt lat="42.983930" lon="-5.689443">
        <ele>1206.868</ele>
        <time>1999-07-21T10:19:19Z</time>
      </trkpt>
      <trkpt lat="42.984053" lon="-5.689405">
        <ele>1207.463</ele>
        <time>1999-07-21T10:19:22Z</time>
      </trkpt>
      <trkpt lat="42.984302" lon="-5.689340">
        <ele>1208.844</ele>
        <time>1999-07-21T10:19:28Z</time>
      </trkpt>
      <trkpt lat="42.984342" lon="-5.689323">
        <ele>1209.018</ele>
        <time>1999-07-21T10:19:29Z</time>
      </trkpt>
      <trkpt lat="42.984499" lon="-5.689238">
        <ele>1209.608</ele>
        <time>1999-07-21T10:19:33Z</time>
      </trkpt>
      <trkpt lat="42.984567" lon="-5.689169">
        <ele>1210.049</ele>
        <time>1999-07-21T10:19:35Z</time>
      </trkpt>
      <trkpt lat="42.984720" lon="-5.688993">
        <ele>1210.214</ele>
        <time>1999-07-21T10:19:40Z</time>
      </trkpt>
      <trkpt lat="42.984893" lon="-5.688863">
        <ele>1210.654</ele>
        <time>1999-07-21T10:19:45Z</time>
      </trkpt>
      <trkpt lat="42.984930" lon="-5.688838">
        <ele>1210.895</ele>
        <time>1999-07-21T10:19:46Z</time>
      </trkpt>
      <trkpt lat="42.985231" lon="-5.688689">
        <ele>1211.843</ele>
        <time>1999-07-21T10:19:54Z</time>
      </trkpt>
      <trkpt lat="42.985269" lon="-5.688671">
        <ele>1212.081</ele>
        <time>1999-07-21T10:19:55Z</time>
      </trkpt>
      <trkpt lat="42.985561" lon="-5.688512">
        <ele>1213.082</ele>
        <time>1999-07-21T10:20:02Z</time>
      </trkpt>
      <trkpt lat="42.985650" lon="-5.688449">
        <ele>1213.428</ele>
        <time>1999-07-21T10:20:04Z</time>
      </trkpt>
      <trkpt lat="42.985806" lon="-5.688292">
        <ele>1213.895</ele>
        <time>1999-07-21T10:20:08Z</time>
      </trkpt>
      <trkpt lat="42.985927" lon="-5.688141">
        <ele>1213.849</ele>
        <time>1999-07-21T10:20:11Z</time>
      </trkpt>
      <trkpt lat="42.986039" lon="-5.688077">
        <ele>1213.823</ele>
        <time>1999-07-21T10:20:13Z</time>
      </trkpt>
      <trkpt lat="42.986168" lon="-5.688052">
        <ele>1213.808</ele>
        <time>1999-07-21T10:20:15Z</time>
      </trkpt>
      <trkpt lat="42.986229" lon="-5.688021">
        <ele>1213.892</ele>
        <time>1999-07-21T10:20:16Z</time>
      </trkpt>
      <trkpt lat="42.986281" lon="-5.687962">
        <ele>1213.857</ele>
        <time>1999-07-21T10:20:17Z</time>
      </trkpt>
      <trkpt lat="42.986363" lon="-5.687720">
        <ele>1213.237</ele>
        <time>1999-07-21T10:20:20Z</time>
      </trkpt>
      <trkpt lat="42.986385" lon="-5.687549">
        <ele>1212.638</ele>
        <time>1999-07-21T10:20:22Z</time>
      </trkpt>
      <trkpt lat="42.986407" lon="-5.687384">
        <ele>1211.836</ele>
        <time>1999-07-21T10:20:24Z</time>
      </trkpt>
      <trkpt lat="42.986422" lon="-5.687305">
        <ele>1211.854</ele>
        <time>1999-07-21T10:20:25Z</time>
      </trkpt>
      <trkpt lat="42.986534" lon="-5.687137">
        <ele>1211.615</ele>
        <time>1999-07-21T10:20:28Z</time>
      </trkpt>
      <trkpt lat="42.986698" lon="-5.687151">
        <ele>1211.031</ele>
        <time>1999-07-21T10:20:31Z</time>
      </trkpt>
      <trkpt lat="42.986755" lon="-5.687170">
        <ele>1211.049</ele>
        <time>1999-07-21T10:20:32Z</time>
      </trkpt>
      <trkpt lat="42.986870" lon="-5.687207">
        <ele>1210.802</ele>
        <time>1999-07-21T10:20:34Z</time>
      </trkpt>
      <trkpt lat="42.987091" lon="-5.687276">
        <ele>1210.822</ele>
        <time>1999-07-21T10:20:38Z</time>
      </trkpt>
      <trkpt lat="42.987147" lon="-5.687286">
        <ele>1210.808</ele>
        <time>1999-07-21T10:20:39Z</time>
      </trkpt>
      <trkpt lat="42.987433" lon="-5.687313">
        <ele>1210.897</ele>
        <time>1999-07-21T10:20:44Z</time>
      </trkpt>
      <trkpt lat="42.987539" lon="-5.687335">
        <ele>1210.862</ele>
        <time>1999-07-21T10:20:46Z</time>
      </trkpt>
      <trkpt lat="42.987881" lon="-5.687477">
        <ele>1211.862</ele>
        <time>1999-07-21T10:20:52Z</time>
      </trkpt>
      <trkpt lat="42.987944" lon="-5.687516">
        <ele>1212.033</ele>
        <time>1999-07-21T10:20:53Z</time>
      </trkpt>
      <trkpt lat="42.988182" lon="-5.687662">
        <ele>1212.211</ele>
        <time>1999-07-21T10:20:57Z</time>
      </trkpt>
      <trkpt lat="42.988292" lon="-5.687732">
        <ele>1212.289</ele>
        <time>1999-07-21T10:20:59Z</time>
      </trkpt>
      <trkpt lat="42.988555" lon="-5.687867">
        <ele>1212.680</ele>
        <time>1999-07-21T10:21:04Z</time>
      </trkpt>
      <trkpt lat="42.988604" lon="-5.687893">
        <ele>1212.676</ele>
        <time>1999-07-21T10:21:05Z</time>
      </trkpt>
      <trkpt lat="42.988654" lon="-5.687923">
        <ele>1212.654</ele>
        <time>1999-07-21T10:21:06Z</time>
      </trkpt>
      <trkpt lat="42.988751" lon="-5.687981">
        <ele>1213.056</ele>
        <time>1999-07-21T10:21:08Z</time>
      </trkpt>
      <trkpt lat="42.988971" lon="-5.688170">
        <ele>1213.811</ele>
        <time>1999-07-21T10:21:13Z</time>
      </trkpt>
      <trkpt lat="42.989098" lon="-5.688300">
        <ele>1214.208</ele>
        <time>1999-07-21T10:21:16Z</time>
      </trkpt>
      <trkpt lat="42.989292" lon="-5.688532">
        <ele>1214.698</ele>
        <time>1999-07-21T10:21:21Z</time>
      </trkpt>
      <trkpt lat="42.989331" lon="-5.688577">
        <ele>1214.613</ele>
        <time>1999-07-21T10:21:22Z</time>
      </trkpt>
      <trkpt lat="42.989560" lon="-5.688847">
        <ele>1215.253</ele>
        <time>1999-07-21T10:21:28Z</time>
      </trkpt>
      <trkpt lat="42.989706" lon="-5.689014">
        <ele>1215.614</ele>
        <time>1999-07-21T10:21:32Z</time>
      </trkpt>
      <trkpt lat="42.989832" lon="-5.689115">
        <ele>1216.032</ele>
        <time>1999-07-21T10:21:35Z</time>
      </trkpt>
      <trkpt lat="42.989876" lon="-5.689142">
        <ele>1216.250</ele>
        <time>1999-07-21T10:21:36Z</time>
      </trkpt>
      <trkpt lat="42.990018" lon="-5.689203">
        <ele>1216.411</ele>
        <time>1999-07-21T10:21:39Z</time>
      </trkpt>
      <trkpt lat="42.990117" lon="-5.689233">
        <ele>1216.477</ele>
        <time>1999-07-21T10:21:41Z</time>
      </trkpt>
      <trkpt lat="42.990298" lon="-5.689327">
        <ele>1216.889</ele>
        <time>1999-07-21T10:21:45Z</time>
      </trkpt>
      <trkpt lat="42.990380" lon="-5.689397">
        <ele>1217.206</ele>
        <time>1999-07-21T10:21:47Z</time>
      </trkpt>
      <trkpt lat="42.990418" lon="-5.689436">
        <ele>1217.226</ele>
        <time>1999-07-21T10:21:48Z</time>
      </trkpt>
      <trkpt lat="42.990664" lon="-5.689741">
        <ele>1217.808</ele>
        <time>1999-07-21T10:21:55Z</time>
      </trkpt>
      <trkpt lat="42.990775" lon="-5.689857">
        <ele>1218.041</ele>
        <time>1999-07-21T10:21:58Z</time>
      </trkpt>
      <trkpt lat="42.990913" lon="-5.689931">
        <ele>1218.436</ele>
        <time>1999-07-21T10:22:01Z</time>
      </trkpt>
      <trkpt lat="42.991234" lon="-5.690132">
        <ele>1219.056</ele>
        <time>1999-07-21T10:22:08Z</time>
      </trkpt>
      <trkpt lat="42.991274" lon="-5.690167">
        <ele>1219.217</ele>
        <time>1999-07-21T10:22:09Z</time>
      </trkpt>
      <trkpt lat="42.991314" lon="-5.690203">
        <ele>1219.495</ele>
        <time>1999-07-21T10:22:10Z</time>
      </trkpt>
      <trkpt lat="42.991590" lon="-5.690510">
        <ele>1220.423</ele>
        <time>1999-07-21T10:22:17Z</time>
      </trkpt>
      <trkpt lat="42.991629" lon="-5.690556">
        <ele>1220.434</ele>
        <time>1999-07-21T10:22:18Z</time>
      </trkpt>
      <trkpt lat="42.991884" lon="-5.690885">
        <ele>1221.090</ele>
        <time>1999-07-21T10:22:25Z</time>
      </trkpt>
      <trkpt lat="42.992063" lon="-5.691115">
        <ele>1221.637</ele>
        <time>1999-07-21T10:22:30Z</time>
      </trkpt>
      <trkpt lat="42.992209" lon="-5.691302">
        <ele>1221.849</ele>
        <time>1999-07-21T10:22:34Z</time>
      </trkpt>
      <trkpt lat="42.992556" lon="-5.691621">
        <ele>1222.613</ele>
        <time>1999-07-21T10:22:42Z</time>
      </trkpt>
      <trkpt lat="42.992917" lon="-5.691747">
        <ele>1223.008</ele>
        <time>1999-07-21T10:22:49Z</time>
      </trkpt>
      <trkpt lat="42.993322" lon="-5.691883">
        <ele>1223.486</ele>
        <time>1999-07-21T10:22:57Z</time>
      </trkpt>
      <trkpt lat="42.993513" lon="-5.691903">
        <ele>1223.611</ele>
        <time>1999-07-21T10:23:01Z</time>
      </trkpt>
      <trkpt lat="42.993650" lon="-5.691891">
        <ele>1223.821</ele>
        <time>1999-07-21T10:23:04Z</time>
      </trkpt>
      <trkpt lat="42.993696" lon="-5.691881">
        <ele>1224.052</ele>
        <time>1999-07-21T10:23:05Z</time>
      </trkpt>
      <trkpt lat="42.993869" lon="-5.691834">
        <ele>1224.420</ele>
        <time>1999-07-21T10:23:09Z</time>
      </trkpt>
      <trkpt lat="42.993913" lon="-5.691829">
        <ele>1224.438</ele>
        <time>1999-07-21T10:23:10Z</time>
      </trkpt>
      <trkpt lat="42.993998" lon="-5.691828">
        <ele>1224.649</ele>
        <time>1999-07-21T10:23:12Z</time>
      </trkpt>
      <trkpt lat="42.994125" lon="-5.691847">
        <ele>1225.425</ele>
        <time>1999-07-21T10:23:15Z</time>
      </trkpt>
      <trkpt lat="42.994168" lon="-5.691858">
        <ele>1225.428</ele>
        <time>1999-07-21T10:23:16Z</time>
      </trkpt>
      <trkpt lat="42.994384" lon="-5.691900">
        <ele>1225.889</ele>
        <time>1999-07-21T10:23:21Z</time>
      </trkpt>
      <trkpt lat="42.994466" lon="-5.691922">
        <ele>1226.017</ele>
        <time>1999-07-21T10:23:23Z</time>
      </trkpt>
      <trkpt lat="42.994836" lon="-5.691982">
        <ele>1226.808</ele>
        <time>1999-07-21T10:23:32Z</time>
      </trkpt>
      <trkpt lat="42.995087" lon="-5.691908">
        <ele>1227.855</ele>
        <time>1999-07-21T10:23:38Z</time>
      </trkpt>
      <trkpt lat="42.995255" lon="-5.691826">
        <ele>1228.210</ele>
        <time>1999-07-21T10:23:42Z</time>
      </trkpt>
      <trkpt lat="42.995423" lon="-5.691742">
        <ele>1228.490</ele>
        <time>1999-07-21T10:23:46Z</time>
      </trkpt>
      <trkpt lat="42.995667" lon="-5.691607">
        <ele>1228.491</ele>
        <time>1999-07-21T10:23:52Z</time>
      </trkpt>
      <trkpt lat="42.995780" lon="-5.691531">
        <ele>1228.699</ele>
        <time>1999-07-21T10:23:55Z</time>
      </trkpt>
      <trkpt lat="42.995973" lon="-5.691405">
        <ele>1229.027</ele>
        <time>1999-07-21T10:24:00Z</time>
      </trkpt>
      <trkpt lat="42.996049" lon="-5.691350">
        <ele>1229.298</ele>
        <time>1999-07-21T10:24:02Z</time>
      </trkpt>
      <trkpt lat="42.996274" lon="-5.691180">
        <ele>1230.054</ele>
        <time>1999-07-21T10:24:08Z</time>
      </trkpt>
      <trkpt lat="42.996386" lon="-5.691104">
        <ele>1230.448</ele>
        <time>1999-07-21T10:24:11Z</time>
      </trkpt>
      <trkpt lat="42.996533" lon="-5.691020">
        <ele>1230.661</ele>
        <time>1999-07-21T10:24:15Z</time>
      </trkpt>
      <trkpt lat="42.996797" lon="-5.690869">
        <ele>1231.217</ele>
        <time>1999-07-21T10:24:22Z</time>
      </trkpt>
      <trkpt lat="42.996832" lon="-5.690851">
        <ele>1231.208</ele>
        <time>1999-07-21T10:24:23Z</time>
      </trkpt>
      <trkpt lat="42.997012" lon="-5.690755">
        <ele>1231.877</ele>
        <time>1999-07-21T10:24:28Z</time>
      </trkpt>
      <trkpt lat="42.997165" lon="-5.690722">
        <ele>1232.452</ele>
        <time>1999-07-21T10:24:32Z</time>
      </trkpt>
      <trkpt lat="42.997279" lon="-5.690705">
        <ele>1232.862</ele>
        <time>1999-07-21T10:24:35Z</time>
      </trkpt>
      <trkpt lat="42.997318" lon="-5.690706">
        <ele>1233.013</ele>
        <time>1999-07-21T10:24:36Z</time>
      </trkpt>
      <trkpt lat="42.997444" lon="-5.690702">
        <ele>1233.691</ele>
        <time>1999-07-21T10:24:39Z</time>
      </trkpt>
      <trkpt lat="42.997491" lon="-5.690700">
        <ele>1233.629</ele>
        <time>1999-07-21T10:24:40Z</time>
      </trkpt>
      <trkpt lat="42.997640" lon="-5.690726">
        <ele>1234.270</ele>
        <time>1999-07-21T10:24:43Z</time>
      </trkpt>
      <trkpt lat="42.997693" lon="-5.690746">
        <ele>1234.476</ele>
        <time>1999-07-21T10:24:44Z</time>
      </trkpt>
      <trkpt lat="42.997803" lon="-5.690798">
        <ele>1234.681</ele>
        <time>1999-07-21T10:24:46Z</time>
      </trkpt>
      <trkpt lat="42.998007" lon="-5.690910">
        <ele>1234.661</ele>
        <time>1999-07-21T10:24:50Z</time>
      </trkpt>
      <trkpt lat="42.998347" lon="-5.691082">
        <ele>1234.417</ele>
        <time>1999-07-21T10:24:57Z</time>
      </trkpt>
      <trkpt lat="42.998661" lon="-5.691241">
        <ele>1234.608</ele>
        <time>1999-07-21T10:25:04Z</time>
      </trkpt>
      <trkpt lat="42.998882" lon="-5.691353">
        <ele>1235.691</ele>
        <time>1999-07-21T10:25:09Z</time>
      </trkpt>
      <trkpt lat="42.999012" lon="-5.691415">
        <ele>1235.876</ele>
        <time>1999-07-21T10:25:12Z</time>
      </trkpt>
      <trkpt lat="42.999185" lon="-5.691501">
        <ele>1236.826</ele>
        <time>1999-07-21T10:25:16Z</time>
      </trkpt>
      <trkpt lat="42.999397" lon="-5.691618">
        <ele>1237.477</ele>
        <time>1999-07-21T10:25:21Z</time>
      </trkpt>
      <trkpt lat="42.999531" lon="-5.691671">
        <ele>1237.815</ele>
        <time>1999-07-21T10:25:24Z</time>
      </trkpt>
      <trkpt lat="42.999772" lon="-5.691738">
        <ele>1238.613</ele>
        <time>1999-07-21T10:25:29Z</time>
      </trkpt>
      <trkpt lat="42.999867" lon="-5.691750">
        <ele>1239.014</ele>
        <time>1999-07-21T10:25:31Z</time>
      </trkpt>
      <trkpt lat="43.000093" lon="-5.691807">
        <ele>1239.460</ele>
        <time>1999-07-21T10:25:36Z</time>
      </trkpt>
      <trkpt lat="43.000301" lon="-5.691881">
        <ele>1240.025</ele>
        <time>1999-07-21T10:25:40Z</time>
      </trkpt>
      <trkpt lat="43.000360" lon="-5.691898">
        <ele>1240.026</ele>
        <time>1999-07-21T10:25:41Z</time>
      </trkpt>
      <trkpt lat="43.000482" lon="-5.691932">
        <ele>1240.008</ele>
        <time>1999-07-21T10:25:43Z</time>
      </trkpt>
      <trkpt lat="43.000603" lon="-5.691974">
        <ele>1240.008</ele>
        <time>1999-07-21T10:25:45Z</time>
      </trkpt>
      <trkpt lat="43.000662" lon="-5.692006">
        <ele>1240.065</ele>
        <time>1999-07-21T10:25:46Z</time>
      </trkpt>
      <trkpt lat="43.000715" lon="-5.692050">
        <ele>1240.070</ele>
        <time>1999-07-21T10:25:47Z</time>
      </trkpt>
      <trkpt lat="43.000862" lon="-5.692308">
        <ele>1240.060</ele>
        <time>1999-07-21T10:25:51Z</time>
      </trkpt>
      <trkpt lat="43.000909" lon="-5.692464">
        <ele>1239.891</ele>
        <time>1999-07-21T10:25:53Z</time>
      </trkpt>
      <trkpt lat="43.000968" lon="-5.692614">
        <ele>1239.669</ele>
        <time>1999-07-21T10:25:55Z</time>
      </trkpt>
      <trkpt lat="43.001009" lon="-5.692679">
        <ele>1239.647</ele>
        <time>1999-07-21T10:25:56Z</time>
      </trkpt>
      <trkpt lat="43.001198" lon="-5.692831">
        <ele>1239.488</ele>
        <time>1999-07-21T10:26:00Z</time>
      </trkpt>
      <trkpt lat="43.001384" lon="-5.692931">
        <ele>1239.484</ele>
        <time>1999-07-21T10:26:04Z</time>
      </trkpt>
      <trkpt lat="43.001468" lon="-5.692981">
        <ele>1239.684</ele>
        <time>1999-07-21T10:26:06Z</time>
      </trkpt>
      <trkpt lat="43.001546" lon="-5.693025">
        <ele>1240.007</ele>
        <time>1999-07-21T10:26:08Z</time>
      </trkpt>
      <trkpt lat="43.001704" lon="-5.693117">
        <ele>1240.817</ele>
        <time>1999-07-21T10:26:12Z</time>
      </trkpt>
      <trkpt lat="43.001742" lon="-5.693142">
        <ele>1241.008</ele>
        <time>1999-07-21T10:26:13Z</time>
      </trkpt>
      <trkpt lat="43.001923" lon="-5.693268">
        <ele>1241.841</ele>
        <time>1999-07-21T10:26:18Z</time>
      </trkpt>
      <trkpt lat="43.002030" lon="-5.693337">
        <ele>1242.416</ele>
        <time>1999-07-21T10:26:21Z</time>
      </trkpt>
      <trkpt lat="43.002134" lon="-5.693398">
        <ele>1243.046</ele>
        <time>1999-07-21T10:26:24Z</time>
      </trkpt>
      <trkpt lat="43.002199" lon="-5.693430">
        <ele>1243.427</ele>
        <time>1999-07-21T10:26:26Z</time>
      </trkpt>
      <trkpt lat="43.002354" lon="-5.693519">
        <ele>1244.495</ele>
        <time>1999-07-21T10:26:31Z</time>
      </trkpt>
      <trkpt lat="43.002488" lon="-5.693608">
        <ele>1245.423</ele>
        <time>1999-07-21T10:26:35Z</time>
      </trkpt>
      <trkpt lat="43.002555" lon="-5.693650">
        <ele>1245.674</ele>
        <time>1999-07-21T10:26:37Z</time>
      </trkpt>
      <trkpt lat="43.002666" lon="-5.693723">
        <ele>1246.490</ele>
        <time>1999-07-21T10:26:40Z</time>
      </trkpt>
      <trkpt lat="43.002825" lon="-5.693825">
        <ele>1247.283</ele>
        <time>1999-07-21T10:26:44Z</time>
      </trkpt>
      <trkpt lat="43.002908" lon="-5.693858">
        <ele>1247.625</ele>
        <time>1999-07-21T10:26:46Z</time>
      </trkpt>
      <trkpt lat="43.003119" lon="-5.693905">
        <ele>1248.017</ele>
        <time>1999-07-21T10:26:51Z</time>
      </trkpt>
      <trkpt lat="43.003250" lon="-5.693917">
        <ele>1248.408</ele>
        <time>1999-07-21T10:26:54Z</time>
      </trkpt>
      <trkpt lat="43.003523" lon="-5.693953">
        <ele>1249.251</ele>
        <time>1999-07-21T10:27:00Z</time>
      </trkpt>
      <trkpt lat="43.003568" lon="-5.693966">
        <ele>1249.286</ele>
        <time>1999-07-21T10:27:01Z</time>
      </trkpt>
      <trkpt lat="43.003832" lon="-5.694058">
        <ele>1249.226</ele>
        <time>1999-07-21T10:27:07Z</time>
      </trkpt>
      <trkpt lat="43.004003" lon="-5.694115">
        <ele>1249.647</ele>
        <time>1999-07-21T10:27:11Z</time>
      </trkpt>
      <trkpt lat="43.004048" lon="-5.694134">
        <ele>1249.895</ele>
        <time>1999-07-21T10:27:12Z</time>
      </trkpt>
      <trkpt lat="43.004134" lon="-5.694184">
        <ele>1250.273</ele>
        <time>1999-07-21T10:27:14Z</time>
      </trkpt>
      <trkpt lat="43.004373" lon="-5.694391">
        <ele>1250.464</ele>
        <time>1999-07-21T10:27:20Z</time>
      </trkpt>
      <trkpt lat="43.004453" lon="-5.694468">
        <ele>1250.670</ele>
        <time>1999-07-21T10:27:22Z</time>
      </trkpt>
      <trkpt lat="43.004651" lon="-5.694664">
        <ele>1250.891</ele>
        <time>1999-07-21T10:27:27Z</time>
      </trkpt>
      <trkpt lat="43.004717" lon="-5.694749">
        <ele>1251.081</ele>
        <time>1999-07-21T10:27:29Z</time>
      </trkpt>
      <trkpt lat="43.004794" lon="-5.694901">
        <ele>1251.219</ele>
        <time>1999-07-21T10:27:32Z</time>
      </trkpt>
      <trkpt lat="43.004816" lon="-5.694958">
        <ele>1251.208</ele>
        <time>1999-07-21T10:27:33Z</time>
      </trkpt>
      <trkpt lat="43.004942" lon="-5.695334">
        <ele>1251.212</ele>
        <time>1999-07-21T10:27:39Z</time>
      </trkpt>
      <trkpt lat="43.005034" lon="-5.695585">
        <ele>1251.247</ele>
        <time>1999-07-21T10:27:43Z</time>
      </trkpt>
      <trkpt lat="43.005069" lon="-5.695721">
        <ele>1251.497</ele>
        <time>1999-07-21T10:27:45Z</time>
      </trkpt>
      <trkpt lat="43.005101" lon="-5.695851">
        <ele>1251.498</ele>
        <time>1999-07-21T10:27:47Z</time>
      </trkpt>
      <trkpt lat="43.005156" lon="-5.696104">
        <ele>1251.496</ele>
        <time>1999-07-21T10:27:51Z</time>
      </trkpt>
      <trkpt lat="43.005221" lon="-5.696405">
        <ele>1251.664</ele>
        <time>1999-07-21T10:27:56Z</time>
      </trkpt>
      <trkpt lat="43.005244" lon="-5.696519">
        <ele>1252.275</ele>
        <time>1999-07-21T10:27:58Z</time>
      </trkpt>
      <trkpt lat="43.005294" lon="-5.696735">
        <ele>1252.811</ele>
        <time>1999-07-21T10:28:02Z</time>
      </trkpt>
      <trkpt lat="43.005353" lon="-5.696956">
        <ele>1253.618</ele>
        <time>1999-07-21T10:28:06Z</time>
      </trkpt>
      <trkpt lat="43.005365" lon="-5.697016">
        <ele>1253.898</ele>
        <time>1999-07-21T10:28:07Z</time>
      </trkpt>
      <trkpt lat="43.005416" lon="-5.697340">
        <ele>1254.617</ele>
        <time>1999-07-21T10:28:12Z</time>
      </trkpt>
      <trkpt lat="43.005428" lon="-5.697469">
        <ele>1254.808</ele>
        <time>1999-07-21T10:28:14Z</time>
      </trkpt>
      <trkpt lat="43.005461" lon="-5.697819">
        <ele>1254.684</ele>
        <time>1999-07-21T10:28:19Z</time>
      </trkpt>
      <trkpt lat="43.005484" lon="-5.698033">
        <ele>1254.689</ele>
        <time>1999-07-21T10:28:22Z</time>
      </trkpt>
      <trkpt lat="43.005509" lon="-5.698330">
        <ele>1254.659</ele>
        <time>1999-07-21T10:28:26Z</time>
      </trkpt>
      <trkpt lat="43.005446" lon="-5.698585">
        <ele>1254.640</ele>
        <time>1999-07-21T10:28:30Z</time>
      </trkpt>
      <trkpt lat="43.005400" lon="-5.698693">
        <ele>1254.668</ele>
        <time>1999-07-21T10:28:32Z</time>
      </trkpt>
      <trkpt lat="43.005361" lon="-5.698858">
        <ele>1254.646</ele>
        <time>1999-07-21T10:28:35Z</time>
      </trkpt>
      <trkpt lat="43.005356" lon="-5.698915">
        <ele>1254.887</ele>
        <time>1999-07-21T10:28:36Z</time>
      </trkpt>
      <trkpt lat="43.005386" lon="-5.699109">
        <ele>1255.453</ele>
        <time>1999-07-21T10:28:40Z</time>
      </trkpt>
      <trkpt lat="43.005401" lon="-5.699151">
        <ele>1255.683</ele>
        <time>1999-07-21T10:28:41Z</time>
      </trkpt>
      <trkpt lat="43.005420" lon="-5.699193">
        <ele>1255.625</ele>
        <time>1999-07-21T10:28:42Z</time>
      </trkpt>
      <trkpt lat="43.005506" lon="-5.699345">
        <ele>1256.417</ele>
        <time>1999-07-21T10:28:46Z</time>
      </trkpt>
      <trkpt lat="43.005527" lon="-5.699377">
        <ele>1256.808</ele>
        <time>1999-07-21T10:28:47Z</time>
      </trkpt>
      <trkpt lat="43.005552" lon="-5.699409">
        <ele>1257.051</ele>
        <time>1999-07-21T10:28:48Z</time>
      </trkpt>
      <trkpt lat="43.005634" lon="-5.699495">
        <ele>1258.096</ele>
        <time>1999-07-21T10:28:51Z</time>
      </trkpt>
      <trkpt lat="43.005725" lon="-5.699583">
        <ele>1259.236</ele>
        <time>1999-07-21T10:28:54Z</time>
      </trkpt>
      <trkpt lat="43.005756" lon="-5.699610">
        <ele>1259.427</ele>
        <time>1999-07-21T10:28:55Z</time>
      </trkpt>
      <trkpt lat="43.005875" lon="-5.699716">
        <ele>1260.295</ele>
        <time>1999-07-21T10:28:59Z</time>
      </trkpt>
      <trkpt lat="43.005935" lon="-5.699765">
        <ele>1260.243</ele>
        <time>1999-07-21T10:29:01Z</time>
      </trkpt>
      <trkpt lat="43.006117" lon="-5.699927">
        <ele>1261.024</ele>
        <time>1999-07-21T10:29:07Z</time>
      </trkpt>
      <trkpt lat="43.006148" lon="-5.699950">
        <ele>1261.260</ele>
        <time>1999-07-21T10:29:08Z</time>
      </trkpt>
      <trkpt lat="43.006385" lon="-5.700096">
        <ele>1262.292</ele>
        <time>1999-07-21T10:29:15Z</time>
      </trkpt>
      <trkpt lat="43.006420" lon="-5.700115">
        <ele>1262.273</ele>
        <time>1999-07-21T10:29:16Z</time>
      </trkpt>
      <trkpt lat="43.006625" lon="-5.700216">
        <ele>1263.220</ele>
        <time>1999-07-21T10:29:22Z</time>
      </trkpt>
      <trkpt lat="43.006660" lon="-5.700232">
        <ele>1263.408</ele>
        <time>1999-07-21T10:29:23Z</time>
      </trkpt>
      <trkpt lat="43.006902" lon="-5.700344">
        <ele>1264.052</ele>
        <time>1999-07-21T10:29:30Z</time>
      </trkpt>
      <trkpt lat="43.006971" lon="-5.700371">
        <ele>1264.217</ele>
        <time>1999-07-21T10:29:32Z</time>
      </trkpt>
      <trkpt lat="43.007215" lon="-5.700479">
        <ele>1265.267</ele>
        <time>1999-07-21T10:29:39Z</time>
      </trkpt>
      <trkpt lat="43.007286" lon="-5.700509">
        <ele>1265.498</ele>
        <time>1999-07-21T10:29:41Z</time>
      </trkpt>
      <trkpt lat="43.007481" lon="-5.700578">
        <ele>1266.076</ele>
        <time>1999-07-21T10:29:46Z</time>
      </trkpt>
      <trkpt lat="43.007787" lon="-5.700627">
        <ele>1266.484</ele>
        <time>1999-07-21T10:29:53Z</time>
      </trkpt>
      <trkpt lat="43.007831" lon="-5.700632">
        <ele>1266.665</ele>
        <time>1999-07-21T10:29:54Z</time>
      </trkpt>
      <trkpt lat="43.008017" lon="-5.700662">
        <ele>1266.881</ele>
        <time>1999-07-21T10:29:58Z</time>
      </trkpt>
      <trkpt lat="43.008203" lon="-5.700717">
        <ele>1267.017</ele>
        <time>1999-07-21T10:30:02Z</time>
      </trkpt>
      <trkpt lat="43.008594" lon="-5.700847">
        <ele>1267.087</ele>
        <time>1999-07-21T10:30:10Z</time>
      </trkpt>
      <trkpt lat="43.008813" lon="-5.700944">
        <ele>1267.215</ele>
        <time>1999-07-21T10:30:15Z</time>
      </trkpt>
      <trkpt lat="43.009005" lon="-5.701034">
        <ele>1267.608</ele>
        <time>1999-07-21T10:30:20Z</time>
      </trkpt>
      <trkpt lat="43.009086" lon="-5.701075">
        <ele>1267.894</ele>
        <time>1999-07-21T10:30:22Z</time>
      </trkpt>
      <trkpt lat="43.009248" lon="-5.701150">
        <ele>1268.449</ele>
        <time>1999-07-21T10:30:26Z</time>
      </trkpt>
      <trkpt lat="43.009290" lon="-5.701163">
        <ele>1268.699</ele>
        <time>1999-07-21T10:30:27Z</time>
      </trkpt>
      <trkpt lat="43.009331" lon="-5.701174">
        <ele>1268.840</ele>
        <time>1999-07-21T10:30:28Z</time>
      </trkpt>
      <trkpt lat="43.009572" lon="-5.701180">
        <ele>1269.668</ele>
        <time>1999-07-21T10:30:34Z</time>
      </trkpt>
      <trkpt lat="43.009816" lon="-5.701189">
        <ele>1270.656</ele>
        <time>1999-07-21T10:30:40Z</time>
      </trkpt>
      <trkpt lat="43.009854" lon="-5.701188">
        <ele>1270.887</ele>
        <time>1999-07-21T10:30:41Z</time>
      </trkpt>
      <trkpt lat="43.010097" lon="-5.701182">
        <ele>1271.663</ele>
        <time>1999-07-21T10:30:47Z</time>
      </trkpt>
      <trkpt lat="43.010136" lon="-5.701178">
        <ele>1271.899</ele>
        <time>1999-07-21T10:30:48Z</time>
      </trkpt>
      <trkpt lat="43.010329" lon="-5.701178">
        <ele>1272.807</ele>
        <time>1999-07-21T10:30:53Z</time>
      </trkpt>
      <trkpt lat="43.010371" lon="-5.701183">
        <ele>1273.227</ele>
        <time>1999-07-21T10:30:54Z</time>
      </trkpt>
      <trkpt lat="43.010611" lon="-5.701256">
        <ele>1274.008</ele>
        <time>1999-07-21T10:30:59Z</time>
      </trkpt>
      <trkpt lat="43.010723" lon="-5.701313">
        <ele>1274.042</ele>
        <time>1999-07-21T10:31:01Z</time>
      </trkpt>
      <trkpt lat="43.010783" lon="-5.701335">
        <ele>1274.077</ele>
        <time>1999-07-21T10:31:02Z</time>
      </trkpt>
      <trkpt lat="43.010910" lon="-5.701339">
        <ele>1274.037</ele>
        <time>1999-07-21T10:31:04Z</time>
      </trkpt>
      <trkpt lat="43.011026" lon="-5.701297">
        <ele>1274.038</ele>
        <time>1999-07-21T10:31:06Z</time>
      </trkpt>
      <trkpt lat="43.011182" lon="-5.701251">
        <ele>1273.676</ele>
        <time>1999-07-21T10:31:09Z</time>
      </trkpt>
      <trkpt lat="43.011277" lon="-5.701236">
        <ele>1273.294</ele>
        <time>1999-07-21T10:31:11Z</time>
      </trkpt>
      <trkpt lat="43.011412" lon="-5.701243">
        <ele>1273.215</ele>
        <time>1999-07-21T10:31:14Z</time>
      </trkpt>
      <trkpt lat="43.011621" lon="-5.701287">
        <ele>1273.251</ele>
        <time>1999-07-21T10:31:19Z</time>
      </trkpt>
      <trkpt lat="43.011909" lon="-5.701365">
        <ele>1274.252</ele>
        <time>1999-07-21T10:31:26Z</time>
      </trkpt>
      <trkpt lat="43.012067" lon="-5.701378">
        <ele>1274.653</ele>
        <time>1999-07-21T10:31:30Z</time>
      </trkpt>
      <trkpt lat="43.012106" lon="-5.701375">
        <ele>1274.808</ele>
        <time>1999-07-21T10:31:31Z</time>
      </trkpt>
      <trkpt lat="43.012145" lon="-5.701369">
        <ele>1275.008</ele>
        <time>1999-07-21T10:31:32Z</time>
      </trkpt>
      <trkpt lat="43.012306" lon="-5.701355">
        <ele>1275.868</ele>
        <time>1999-07-21T10:31:36Z</time>
      </trkpt>
      <trkpt lat="43.012348" lon="-5.701356">
        <ele>1276.023</ele>
        <time>1999-07-21T10:31:37Z</time>
      </trkpt>
      <trkpt lat="43.012426" lon="-5.701365">
        <ele>1276.243</ele>
        <time>1999-07-21T10:31:39Z</time>
      </trkpt>
      <trkpt lat="43.012616" lon="-5.701381">
        <ele>1276.884</ele>
        <time>1999-07-21T10:31:44Z</time>
      </trkpt>
      <trkpt lat="43.012693" lon="-5.701397">
        <ele>1277.262</ele>
        <time>1999-07-21T10:31:46Z</time>
      </trkpt>
      <trkpt lat="43.012917" lon="-5.701438">
        <ele>1278.280</ele>
        <time>1999-07-21T10:31:52Z</time>
      </trkpt>
      <trkpt lat="43.013201" lon="-5.701438">
        <ele>1279.481</ele>
        <time>1999-07-21T10:31:59Z</time>
      </trkpt>
      <trkpt lat="43.013243" lon="-5.701438">
        <ele>1279.627</ele>
        <time>1999-07-21T10:32:00Z</time>
      </trkpt>
      <trkpt lat="43.013407" lon="-5.701455">
        <ele>1280.278</ele>
        <time>1999-07-21T10:32:04Z</time>
      </trkpt>
      <trkpt lat="43.013489" lon="-5.701462">
        <ele>1280.433</ele>
        <time>1999-07-21T10:32:06Z</time>
      </trkpt>
      <trkpt lat="43.013608" lon="-5.701473">
        <ele>1280.626</ele>
        <time>1999-07-21T10:32:09Z</time>
      </trkpt>
      <trkpt lat="43.013812" lon="-5.701479">
        <ele>1280.808</ele>
        <time>1999-07-21T10:32:14Z</time>
      </trkpt>
      <trkpt lat="43.014022" lon="-5.701491">
        <ele>1281.430</ele>
        <time>1999-07-21T10:32:19Z</time>
      </trkpt>
      <trkpt lat="43.014147" lon="-5.701496">
        <ele>1281.415</ele>
        <time>1999-07-21T10:32:22Z</time>
      </trkpt>
      <trkpt lat="43.014406" lon="-5.701517">
        <ele>1281.895</ele>
        <time>1999-07-21T10:32:28Z</time>
      </trkpt>
      <trkpt lat="43.014661" lon="-5.701531">
        <ele>1282.426</ele>
        <time>1999-07-21T10:32:34Z</time>
      </trkpt>
      <trkpt lat="43.014745" lon="-5.701544">
        <ele>1282.424</ele>
        <time>1999-07-21T10:32:36Z</time>
      </trkpt>
      <trkpt lat="43.015039" lon="-5.701526">
        <ele>1283.272</ele>
        <time>1999-07-21T10:32:43Z</time>
      </trkpt>
      <trkpt lat="43.015116" lon="-5.701492">
        <ele>1283.473</ele>
        <time>1999-07-21T10:32:45Z</time>
      </trkpt>
      <trkpt lat="43.015155" lon="-5.701470">
        <ele>1283.699</ele>
        <time>1999-07-21T10:32:46Z</time>
      </trkpt>
      <trkpt lat="43.015276" lon="-5.701418">
        <ele>1284.028</ele>
        <time>1999-07-21T10:32:49Z</time>
      </trkpt>
      <trkpt lat="43.015372" lon="-5.701393">
        <ele>1284.289</ele>
        <time>1999-07-21T10:32:51Z</time>
      </trkpt>
      <trkpt lat="43.015520" lon="-5.701377">
        <ele>1284.417</ele>
        <time>1999-07-21T10:32:54Z</time>
      </trkpt>
      <trkpt lat="43.015752" lon="-5.701366">
        <ele>1284.408</ele>
        <time>1999-07-21T10:32:59Z</time>
      </trkpt>
      <trkpt lat="43.015848" lon="-5.701353">
        <ele>1284.425</ele>
        <time>1999-07-21T10:33:01Z</time>
      </trkpt>
      <trkpt lat="43.015895" lon="-5.701342">
        <ele>1284.470</ele>
        <time>1999-07-21T10:33:02Z</time>
      </trkpt>
      <trkpt lat="43.016060" lon="-5.701274">
        <ele>1284.690</ele>
        <time>1999-07-21T10:33:06Z</time>
      </trkpt>
      <trkpt lat="43.016101" lon="-5.701265">
        <ele>1284.641</ele>
        <time>1999-07-21T10:33:07Z</time>
      </trkpt>
      <trkpt lat="43.016308" lon="-5.701255">
        <ele>1285.039</ele>
        <time>1999-07-21T10:33:12Z</time>
      </trkpt>
      <trkpt lat="43.016389" lon="-5.701257">
        <ele>1285.417</ele>
        <time>1999-07-21T10:33:14Z</time>
      </trkpt>
      <trkpt lat="43.016631" lon="-5.701266">
        <ele>1286.268</ele>
        <time>1999-07-21T10:33:20Z</time>
      </trkpt>
      <trkpt lat="43.016712" lon="-5.701275">
        <ele>1286.694</ele>
        <time>1999-07-21T10:33:22Z</time>
      </trkpt>
      <trkpt lat="43.017000" lon="-5.701308">
        <ele>1287.433</ele>
        <time>1999-07-21T10:33:29Z</time>
      </trkpt>
      <trkpt lat="43.017119" lon="-5.701310">
        <ele>1287.823</ele>
        <time>1999-07-21T10:33:32Z</time>
      </trkpt>
      <trkpt lat="43.017323" lon="-5.701299">
        <ele>1288.215</ele>
        <time>1999-07-21T10:33:37Z</time>
      </trkpt>
      <trkpt lat="43.017447" lon="-5.701291">
        <ele>1288.608</ele>
        <time>1999-07-21T10:33:40Z</time>
      </trkpt>
      <trkpt lat="43.017614" lon="-5.701268">
        <ele>1288.886</ele>
        <time>1999-07-21T10:33:44Z</time>
      </trkpt>
      <trkpt lat="43.017790" lon="-5.701223">
        <ele>1289.611</ele>
        <time>1999-07-21T10:33:49Z</time>
      </trkpt>
      <trkpt lat="43.017858" lon="-5.701203">
        <ele>1290.061</ele>
        <time>1999-07-21T10:33:51Z</time>
      </trkpt>
      <trkpt lat="43.017979" lon="-5.701137">
        <ele>1290.612</ele>
        <time>1999-07-21T10:33:55Z</time>
      </trkpt>
      <trkpt lat="43.018067" lon="-5.701097">
        <ele>1291.620</ele>
        <time>1999-07-21T10:33:58Z</time>
      </trkpt>
      <trkpt lat="43.018097" lon="-5.701083">
        <ele>1291.898</ele>
        <time>1999-07-21T10:33:59Z</time>
      </trkpt>
      <trkpt lat="43.018187" lon="-5.701042">
        <ele>1292.859</ele>
        <time>1999-07-21T10:34:02Z</time>
      </trkpt>
      <trkpt lat="43.018282" lon="-5.701028">
        <ele>1293.655</ele>
        <time>1999-07-21T10:34:05Z</time>
      </trkpt>
      <trkpt lat="43.018344" lon="-5.701034">
        <ele>1294.097</ele>
        <time>1999-07-21T10:34:07Z</time>
      </trkpt>
      <trkpt lat="43.018495" lon="-5.701065">
        <ele>1295.223</ele>
        <time>1999-07-21T10:34:12Z</time>
      </trkpt>
      <trkpt lat="43.018608" lon="-5.701076">
        <ele>1296.225</ele>
        <time>1999-07-21T10:34:16Z</time>
      </trkpt>
      <trkpt lat="43.018667" lon="-5.701069">
        <ele>1296.608</ele>
        <time>1999-07-21T10:34:18Z</time>
      </trkpt>
      <trkpt lat="43.018761" lon="-5.701043">
        <ele>1297.482</ele>
        <time>1999-07-21T10:34:21Z</time>
      </trkpt>
      <trkpt lat="43.018873" lon="-5.701034">
        <ele>1298.217</ele>
        <time>1999-07-21T10:34:24Z</time>
      </trkpt>
      <trkpt lat="43.018915" lon="-5.701032">
        <ele>1298.417</ele>
        <time>1999-07-21T10:34:25Z</time>
      </trkpt>
      <trkpt lat="43.019192" lon="-5.701031">
        <ele>1299.298</ele>
        <time>1999-07-21T10:34:31Z</time>
      </trkpt>
      <trkpt lat="43.019357" lon="-5.701036">
        <ele>1299.286</ele>
        <time>1999-07-21T10:34:34Z</time>
      </trkpt>
      <trkpt lat="43.019467" lon="-5.701059">
        <ele>1299.234</ele>
        <time>1999-07-21T10:34:36Z</time>
      </trkpt>
      <trkpt lat="43.019518" lon="-5.701076">
        <ele>1299.285</ele>
        <time>1999-07-21T10:34:37Z</time>
      </trkpt>
      <trkpt lat="43.019620" lon="-5.701115">
        <ele>1299.221</ele>
        <time>1999-07-21T10:34:39Z</time>
      </trkpt>
      <trkpt lat="43.019802" lon="-5.701192">
        <ele>1298.862</ele>
        <time>1999-07-21T10:34:43Z</time>
      </trkpt>
      <trkpt lat="43.019882" lon="-5.701232">
        <ele>1298.683</ele>
        <time>1999-07-21T10:34:45Z</time>
      </trkpt>
      <trkpt lat="43.019999" lon="-5.701277">
        <ele>1298.211</ele>
        <time>1999-07-21T10:34:48Z</time>
      </trkpt>
      <trkpt lat="43.020073" lon="-5.701306">
        <ele>1298.208</ele>
        <time>1999-07-21T10:34:50Z</time>
      </trkpt>
      <trkpt lat="43.020147" lon="-5.701344">
        <ele>1298.029</ele>
        <time>1999-07-21T10:34:52Z</time>
      </trkpt>
      <trkpt lat="43.020416" lon="-5.701516">
        <ele>1298.074</ele>
        <time>1999-07-21T10:34:58Z</time>
      </trkpt>
      <trkpt lat="43.020537" lon="-5.701692">
        <ele>1297.824</ele>
        <time>1999-07-21T10:35:01Z</time>
      </trkpt>
      <trkpt lat="43.020572" lon="-5.701762">
        <ele>1297.855</ele>
        <time>1999-07-21T10:35:02Z</time>
      </trkpt>
      <trkpt lat="43.020709" lon="-5.702042">
        <ele>1297.623</ele>
        <time>1999-07-21T10:35:06Z</time>
      </trkpt>
      <trkpt lat="43.020743" lon="-5.702104">
        <ele>1297.641</ele>
        <time>1999-07-21T10:35:07Z</time>
      </trkpt>
      <trkpt lat="43.020783" lon="-5.702157">
        <ele>1297.632</ele>
        <time>1999-07-21T10:35:08Z</time>
      </trkpt>
      <trkpt lat="43.020907" lon="-5.702238">
        <ele>1297.498</ele>
        <time>1999-07-21T10:35:11Z</time>
      </trkpt>
      <trkpt lat="43.020945" lon="-5.702247">
        <ele>1297.433</ele>
        <time>1999-07-21T10:35:12Z</time>
      </trkpt>
      <trkpt lat="43.021016" lon="-5.702254">
        <ele>1297.423</ele>
        <time>1999-07-21T10:35:14Z</time>
      </trkpt>
      <trkpt lat="43.021108" lon="-5.702258">
        <ele>1297.415</ele>
        <time>1999-07-21T10:35:17Z</time>
      </trkpt>
      <trkpt lat="43.021230" lon="-5.702273">
        <ele>1298.208</ele>
        <time>1999-07-21T10:35:21Z</time>
      </trkpt>
      <trkpt lat="43.021319" lon="-5.702291">
        <ele>1299.046</ele>
        <time>1999-07-21T10:35:24Z</time>
      </trkpt>
      <trkpt lat="43.021380" lon="-5.702300">
        <ele>1299.651</ele>
        <time>1999-07-21T10:35:26Z</time>
      </trkpt>
      <trkpt lat="43.021500" lon="-5.702319">
        <ele>1300.841</ele>
        <time>1999-07-21T10:35:30Z</time>
      </trkpt>
      <trkpt lat="43.021558" lon="-5.702334">
        <ele>1301.432</ele>
        <time>1999-07-21T10:35:32Z</time>
      </trkpt>
      <trkpt lat="43.021647" lon="-5.702355">
        <ele>1302.060</ele>
        <time>1999-07-21T10:35:35Z</time>
      </trkpt>
      <trkpt lat="43.021773" lon="-5.702372">
        <ele>1302.218</ele>
        <time>1999-07-21T10:35:39Z</time>
      </trkpt>
      <trkpt lat="43.021839" lon="-5.702375">
        <ele>1302.839</ele>
        <time>1999-07-21T10:35:41Z</time>
      </trkpt>
      <trkpt lat="43.022000" lon="-5.702373">
        <ele>1303.675</ele>
        <time>1999-07-21T10:35:46Z</time>
      </trkpt>
      <trkpt lat="43.022063" lon="-5.702373">
        <ele>1303.885</ele>
        <time>1999-07-21T10:35:48Z</time>
      </trkpt>
      <trkpt lat="43.022288" lon="-5.702365">
        <ele>1304.889</ele>
        <time>1999-07-21T10:35:55Z</time>
      </trkpt>
      <trkpt lat="43.022495" lon="-5.702365">
        <ele>1306.017</ele>
        <time>1999-07-21T10:36:02Z</time>
      </trkpt>
      <trkpt lat="43.022523" lon="-5.702366">
        <ele>1306.208</ele>
        <time>1999-07-21T10:36:03Z</time>
      </trkpt>
      <trkpt lat="43.022619" lon="-5.702369">
        <ele>1307.261</ele>
        <time>1999-07-21T10:36:06Z</time>
      </trkpt>
      <trkpt lat="43.022753" lon="-5.702428">
        <ele>1307.836</ele>
        <time>1999-07-21T10:36:10Z</time>
      </trkpt>
      <trkpt lat="43.022827" lon="-5.702470">
        <ele>1308.236</ele>
        <time>1999-07-21T10:36:12Z</time>
      </trkpt>
      <trkpt lat="43.022966" lon="-5.702587">
        <ele>1308.437</ele>
        <time>1999-07-21T10:36:16Z</time>
      </trkpt>
      <trkpt lat="43.023096" lon="-5.702712">
        <ele>1308.495</ele>
        <time>1999-07-21T10:36:20Z</time>
      </trkpt>
      <trkpt lat="43.023210" lon="-5.702824">
        <ele>1308.433</ele>
        <time>1999-07-21T10:36:23Z</time>
      </trkpt>
      <trkpt lat="43.023250" lon="-5.702859">
        <ele>1308.454</ele>
        <time>1999-07-21T10:36:24Z</time>
      </trkpt>
      <trkpt lat="43.023408" lon="-5.702948">
        <ele>1308.470</ele>
        <time>1999-07-21T10:36:28Z</time>
      </trkpt>
      <trkpt lat="43.023620" lon="-5.703094">
        <ele>1308.667</ele>
        <time>1999-07-21T10:36:33Z</time>
      </trkpt>
      <trkpt lat="43.023664" lon="-5.703123">
        <ele>1308.681</ele>
        <time>1999-07-21T10:36:34Z</time>
      </trkpt>
      <trkpt lat="43.023750" lon="-5.703181">
        <ele>1308.419</ele>
        <time>1999-07-21T10:36:36Z</time>
      </trkpt>
      <trkpt lat="43.024028" lon="-5.703360">
        <ele>1308.208</ele>
        <time>1999-07-21T10:36:42Z</time>
      </trkpt>
      <trkpt lat="43.024176" lon="-5.703468">
        <ele>1307.839</ele>
        <time>1999-07-21T10:36:45Z</time>
      </trkpt>
      <trkpt lat="43.024264" lon="-5.703561">
        <ele>1307.684</ele>
        <time>1999-07-21T10:36:47Z</time>
      </trkpt>
      <trkpt lat="43.024303" lon="-5.703609">
        <ele>1307.484</ele>
        <time>1999-07-21T10:36:48Z</time>
      </trkpt>
      <trkpt lat="43.024377" lon="-5.703699">
        <ele>1307.075</ele>
        <time>1999-07-21T10:36:50Z</time>
      </trkpt>
      <trkpt lat="43.024494" lon="-5.703820">
        <ele>1306.813</ele>
        <time>1999-07-21T10:36:53Z</time>
      </trkpt>
      <trkpt lat="43.024574" lon="-5.703882">
        <ele>1306.891</ele>
        <time>1999-07-21T10:36:55Z</time>
      </trkpt>
      <trkpt lat="43.024886" lon="-5.704036">
        <ele>1307.472</ele>
        <time>1999-07-21T10:37:03Z</time>
      </trkpt>
      <trkpt lat="43.025015" lon="-5.704092">
        <ele>1308.278</ele>
        <time>1999-07-21T10:37:07Z</time>
      </trkpt>
      <trkpt lat="43.025061" lon="-5.704124">
        <ele>1308.412</ele>
        <time>1999-07-21T10:37:09Z</time>
      </trkpt>
      <trkpt lat="43.025072" lon="-5.704151">
        <ele>1308.432</ele>
        <time>1999-07-21T10:37:10Z</time>
      </trkpt>
      <trkpt lat="43.025085" lon="-5.704368">
        <ele>1309.005</ele>
        <time>1999-07-21T10:37:15Z</time>
      </trkpt>
      <trkpt lat="43.025079" lon="-5.704464">
        <ele>1309.408</ele>
        <time>1999-07-21T10:37:17Z</time>
      </trkpt>
      <trkpt lat="43.025046" lon="-5.704586">
        <ele>1309.854</ele>
        <time>1999-07-21T10:37:20Z</time>
      </trkpt>
      <trkpt lat="43.024981" lon="-5.704720">
        <ele>1310.259</ele>
        <time>1999-07-21T10:37:26Z</time>
      </trkpt>
      <trkpt lat="43.024969" lon="-5.704747">
        <ele>1310.239</ele>
        <time>1999-07-21T10:37:28Z</time>
      </trkpt>
      <trkpt lat="43.024966" lon="-5.704751">
        <ele>1310.430</ele>
        <time>1999-07-21T10:37:29Z</time>
      </trkpt>
      <trkpt lat="43.024985" lon="-5.704924">
        <ele>1311.468</ele>
        <time>1999-07-21T10:40:02Z</time>
      </trkpt>
      <trkpt lat="43.025020" lon="-5.704998">
        <ele>1311.416</ele>
        <time>1999-07-21T10:40:05Z</time>
      </trkpt>
      <trkpt lat="43.025048" lon="-5.705083">
        <ele>1311.697</ele>
        <time>1999-07-21T10:40:08Z</time>
      </trkpt>
      <trkpt lat="43.025084" lon="-5.705206">
        <ele>1311.863</ele>
        <time>1999-07-21T10:40:12Z</time>
      </trkpt>
      <trkpt lat="43.025100" lon="-5.705268">
        <ele>1312.452</ele>
        <time>1999-07-21T10:40:14Z</time>
      </trkpt>
      <trkpt lat="43.025109" lon="-5.705296">
        <ele>1312.653</ele>
        <time>1999-07-21T10:40:15Z</time>
      </trkpt>
      <trkpt lat="43.025157" lon="-5.705411">
        <ele>1313.408</ele>
        <time>1999-07-21T10:40:19Z</time>
      </trkpt>
      <trkpt lat="43.025192" lon="-5.705458">
        <ele>1313.608</ele>
        <time>1999-07-21T10:40:21Z</time>
      </trkpt>
      <trkpt lat="43.025273" lon="-5.705575">
        <ele>1314.488</ele>
        <time>1999-07-21T10:40:26Z</time>
      </trkpt>
      <trkpt lat="43.025290" lon="-5.705602">
        <ele>1314.483</ele>
        <time>1999-07-21T10:40:27Z</time>
      </trkpt>
      <trkpt lat="43.025337" lon="-5.705680">
        <ele>1314.813</ele>
        <time>1999-07-21T10:40:30Z</time>
      </trkpt>
      <trkpt lat="43.025408" lon="-5.705781">
        <ele>1315.614</ele>
        <time>1999-07-21T10:40:34Z</time>
      </trkpt>
      <trkpt lat="43.025475" lon="-5.705874">
        <ele>1316.062</ele>
        <time>1999-07-21T10:40:38Z</time>
      </trkpt>
      <trkpt lat="43.025507" lon="-5.705922">
        <ele>1316.470</ele>
        <time>1999-07-21T10:40:40Z</time>
      </trkpt>
      <trkpt lat="43.025559" lon="-5.706008">
        <ele>1317.281</ele>
        <time>1999-07-21T10:40:44Z</time>
      </trkpt>
      <trkpt lat="43.025584" lon="-5.706056">
        <ele>1317.637</ele>
        <time>1999-07-21T10:40:46Z</time>
      </trkpt>
      <trkpt lat="43.025642" lon="-5.706155">
        <ele>1318.279</ele>
        <time>1999-07-21T10:40:50Z</time>
      </trkpt>
      <trkpt lat="43.025671" lon="-5.706208">
        <ele>1318.605</ele>
        <time>1999-07-21T10:40:52Z</time>
      </trkpt>
      <trkpt lat="43.025716" lon="-5.706317">
        <ele>1319.625</ele>
        <time>1999-07-21T10:40:56Z</time>
      </trkpt>
      <trkpt lat="43.025789" lon="-5.706492">
        <ele>1320.608</ele>
        <time>1999-07-21T10:41:02Z</time>
      </trkpt>
      <trkpt lat="43.025808" lon="-5.706523">
        <ele>1320.840</ele>
        <time>1999-07-21T10:41:03Z</time>
      </trkpt>
      <trkpt lat="43.025914" lon="-5.706657">
        <ele>1321.825</ele>
        <time>1999-07-21T10:41:08Z</time>
      </trkpt>
      <trkpt lat="43.026011" lon="-5.706750">
        <ele>1321.875</ele>
        <time>1999-07-21T10:41:12Z</time>
      </trkpt>
      <trkpt lat="43.026089" lon="-5.706820">
        <ele>1322.016</ele>
        <time>1999-07-21T10:41:15Z</time>
      </trkpt>
      <trkpt lat="43.026252" lon="-5.706976">
        <ele>1322.234</ele>
        <time>1999-07-21T10:41:22Z</time>
      </trkpt>
      <trkpt lat="43.026370" lon="-5.707079">
        <ele>1322.412</ele>
        <time>1999-07-21T10:41:27Z</time>
      </trkpt>
      <trkpt lat="43.026432" lon="-5.707143">
        <ele>1322.663</ele>
        <time>1999-07-21T10:41:30Z</time>
      </trkpt>
      <trkpt lat="43.026452" lon="-5.707169">
        <ele>1322.869</ele>
        <time>1999-07-21T10:41:31Z</time>
      </trkpt>
      <trkpt lat="43.026542" lon="-5.707367">
        <ele>1323.818</ele>
        <time>1999-07-21T10:41:37Z</time>
      </trkpt>
      <trkpt lat="43.026582" lon="-5.707467">
        <ele>1324.098</ele>
        <time>1999-07-21T10:41:40Z</time>
      </trkpt>
      <trkpt lat="43.026633" lon="-5.707594">
        <ele>1324.617</ele>
        <time>1999-07-21T10:41:44Z</time>
      </trkpt>
      <trkpt lat="43.026660" lon="-5.707658">
        <ele>1324.808</ele>
        <time>1999-07-21T10:41:46Z</time>
      </trkpt>
      <trkpt lat="43.026742" lon="-5.707811">
        <ele>1325.464</ele>
        <time>1999-07-21T10:41:51Z</time>
      </trkpt>
      <trkpt lat="43.026760" lon="-5.707841">
        <ele>1325.499</ele>
        <time>1999-07-21T10:41:52Z</time>
      </trkpt>
      <trkpt lat="43.026886" lon="-5.707998">
        <ele>1325.869</ele>
        <time>1999-07-21T10:41:58Z</time>
      </trkpt>
      <trkpt lat="43.026910" lon="-5.708027">
        <ele>1326.040</ele>
        <time>1999-07-21T10:41:59Z</time>
      </trkpt>
      <trkpt lat="43.026996" lon="-5.708137">
        <ele>1326.298</ele>
        <time>1999-07-21T10:42:03Z</time>
      </trkpt>
      <trkpt lat="43.027036" lon="-5.708188">
        <ele>1326.486</ele>
        <time>1999-07-21T10:42:05Z</time>
      </trkpt>
      <trkpt lat="43.027117" lon="-5.708313">
        <ele>1326.877</ele>
        <time>1999-07-21T10:42:09Z</time>
      </trkpt>
      <trkpt lat="43.027194" lon="-5.708446">
        <ele>1327.883</ele>
        <time>1999-07-21T10:42:13Z</time>
      </trkpt>
      <trkpt lat="43.027301" lon="-5.708646">
        <ele>1328.255</ele>
        <time>1999-07-21T10:42:18Z</time>
      </trkpt>
      <trkpt lat="43.027459" lon="-5.708882">
        <ele>1328.607</ele>
        <time>1999-07-21T10:42:25Z</time>
      </trkpt>
      <trkpt lat="43.027571" lon="-5.709165">
        <ele>1329.017</ele>
        <time>1999-07-21T10:42:33Z</time>
      </trkpt>
      <trkpt lat="43.027605" lon="-5.709333">
        <ele>1329.608</ele>
        <time>1999-07-21T10:42:37Z</time>
      </trkpt>
      <trkpt lat="43.027631" lon="-5.709455">
        <ele>1330.028</ele>
        <time>1999-07-21T10:42:40Z</time>
      </trkpt>
      <trkpt lat="43.027640" lon="-5.709493">
        <ele>1330.013</ele>
        <time>1999-07-21T10:42:41Z</time>
      </trkpt>
      <trkpt lat="43.027718" lon="-5.709730">
        <ele>1330.633</ele>
        <time>1999-07-21T10:42:47Z</time>
      </trkpt>
      <trkpt lat="43.027781" lon="-5.709882">
        <ele>1331.254</ele>
        <time>1999-07-21T10:42:51Z</time>
      </trkpt>
      <trkpt lat="43.027850" lon="-5.709969">
        <ele>1331.472</ele>
        <time>1999-07-21T10:42:54Z</time>
      </trkpt>
      <trkpt lat="43.028047" lon="-5.710138">
        <ele>1331.890</ele>
        <time>1999-07-21T10:43:02Z</time>
      </trkpt>
      <trkpt lat="43.028134" lon="-5.710222">
        <ele>1332.091</ele>
        <time>1999-07-21T10:43:06Z</time>
      </trkpt>
      <trkpt lat="43.028203" lon="-5.710292">
        <ele>1332.447</ele>
        <time>1999-07-21T10:43:09Z</time>
      </trkpt>
      <trkpt lat="43.028394" lon="-5.710478">
        <ele>1332.852</ele>
        <time>1999-07-21T10:43:17Z</time>
      </trkpt>
      <trkpt lat="43.028439" lon="-5.710516">
        <ele>1333.053</ele>
        <time>1999-07-21T10:43:19Z</time>
      </trkpt>
      <trkpt lat="43.028509" lon="-5.710583">
        <ele>1333.608</ele>
        <time>1999-07-21T10:43:22Z</time>
      </trkpt>
      <trkpt lat="43.028573" lon="-5.710637">
        <ele>1334.208</ele>
        <time>1999-07-21T10:43:25Z</time>
      </trkpt>
      <trkpt lat="43.028679" lon="-5.710711">
        <ele>1334.828</ele>
        <time>1999-07-21T10:43:29Z</time>
      </trkpt>
      <trkpt lat="43.028772" lon="-5.710783">
        <ele>1335.263</ele>
        <time>1999-07-21T10:43:32Z</time>
      </trkpt>
      <trkpt lat="43.028960" lon="-5.710829">
        <ele>1336.063</ele>
        <time>1999-07-21T10:43:37Z</time>
      </trkpt>
      <trkpt lat="43.029084" lon="-5.710887">
        <ele>1336.294</ele>
        <time>1999-07-21T10:43:40Z</time>
      </trkpt>
      <trkpt lat="43.029168" lon="-5.710935">
        <ele>1336.452</ele>
        <time>1999-07-21T10:43:42Z</time>
      </trkpt>
      <trkpt lat="43.029210" lon="-5.710958">
        <ele>1336.440</ele>
        <time>1999-07-21T10:43:43Z</time>
      </trkpt>
      <trkpt lat="43.029442" lon="-5.711047">
        <ele>1336.431</ele>
        <time>1999-07-21T10:43:48Z</time>
      </trkpt>
      <trkpt lat="43.029554" lon="-5.711064">
        <ele>1336.437</ele>
        <time>1999-07-21T10:43:50Z</time>
      </trkpt>
      <trkpt lat="43.029673" lon="-5.711099">
        <ele>1336.424</ele>
        <time>1999-07-21T10:43:52Z</time>
      </trkpt>
      <trkpt lat="43.029730" lon="-5.711111">
        <ele>1336.404</ele>
        <time>1999-07-21T10:43:53Z</time>
      </trkpt>
      <trkpt lat="43.029842" lon="-5.711104">
        <ele>1336.214</ele>
        <time>1999-07-21T10:43:55Z</time>
      </trkpt>
      <trkpt lat="43.029990" lon="-5.711068">
        <ele>1335.408</ele>
        <time>1999-07-21T10:43:58Z</time>
      </trkpt>
      <trkpt lat="43.030038" lon="-5.711063">
        <ele>1335.215</ele>
        <time>1999-07-21T10:43:59Z</time>
      </trkpt>
      <trkpt lat="43.030128" lon="-5.711056">
        <ele>1335.010</ele>
        <time>1999-07-21T10:44:01Z</time>
      </trkpt>
      <trkpt lat="43.030256" lon="-5.711051">
        <ele>1335.060</ele>
        <time>1999-07-21T10:44:04Z</time>
      </trkpt>
      <trkpt lat="43.030419" lon="-5.711025">
        <ele>1335.041</ele>
        <time>1999-07-21T10:44:08Z</time>
      </trkpt>
      <trkpt lat="43.030639" lon="-5.711014">
        <ele>1335.829</ele>
        <time>1999-07-21T10:44:14Z</time>
      </trkpt>
      <trkpt lat="43.030902" lon="-5.711020">
        <ele>1335.857</ele>
        <time>1999-07-21T10:44:22Z</time>
      </trkpt>
      <trkpt lat="43.031009" lon="-5.711027">
        <ele>1336.068</ele>
        <time>1999-07-21T10:44:26Z</time>
      </trkpt>
      <trkpt lat="43.031062" lon="-5.711031">
        <ele>1336.444</ele>
        <time>1999-07-21T10:44:28Z</time>
      </trkpt>
      <trkpt lat="43.031157" lon="-5.711040">
        <ele>1336.849</ele>
        <time>1999-07-21T10:44:32Z</time>
      </trkpt>
      <trkpt lat="43.031184" lon="-5.711039">
        <ele>1337.202</ele>
        <time>1999-07-21T10:44:33Z</time>
      </trkpt>
      <trkpt lat="43.031294" lon="-5.711038">
        <ele>1338.222</ele>
        <time>1999-07-21T10:44:37Z</time>
      </trkpt>
      <trkpt lat="43.031421" lon="-5.711042">
        <ele>1339.208</ele>
        <time>1999-07-21T10:44:41Z</time>
      </trkpt>
      <trkpt lat="43.031515" lon="-5.711040">
        <ele>1339.867</ele>
        <time>1999-07-21T10:44:44Z</time>
      </trkpt>
      <trkpt lat="43.031691" lon="-5.710983">
        <ele>1340.462</ele>
        <time>1999-07-21T10:44:50Z</time>
      </trkpt>
      <trkpt lat="43.031721" lon="-5.710966">
        <ele>1340.492</ele>
        <time>1999-07-21T10:44:51Z</time>
      </trkpt>
      <trkpt lat="43.031890" lon="-5.710912">
        <ele>1341.463</ele>
        <time>1999-07-21T10:44:57Z</time>
      </trkpt>
      <trkpt lat="43.031914" lon="-5.710907">
        <ele>1341.471</ele>
        <time>1999-07-21T10:44:58Z</time>
      </trkpt>
      <trkpt lat="43.032018" lon="-5.710846">
        <ele>1342.669</ele>
        <time>1999-07-21T10:45:03Z</time>
      </trkpt>
      <trkpt lat="43.032144" lon="-5.710771">
        <ele>1343.840</ele>
        <time>1999-07-21T10:45:09Z</time>
      </trkpt>
      <trkpt lat="43.032164" lon="-5.710756">
        <ele>1344.066</ele>
        <time>1999-07-21T10:45:10Z</time>
      </trkpt>
      <trkpt lat="43.032272" lon="-5.710702">
        <ele>1344.853</ele>
        <time>1999-07-21T10:45:15Z</time>
      </trkpt>
      <trkpt lat="43.032318" lon="-5.710692">
        <ele>1345.404</ele>
        <time>1999-07-21T10:45:17Z</time>
      </trkpt>
      <trkpt lat="43.032382" lon="-5.710691">
        <ele>1345.814</ele>
        <time>1999-07-21T10:45:20Z</time>
      </trkpt>
      <trkpt lat="43.032443" lon="-5.710721">
        <ele>1346.208</ele>
        <time>1999-07-21T10:45:24Z</time>
      </trkpt>
      <trkpt lat="43.032493" lon="-5.710738">
        <ele>1346.898</ele>
        <time>1999-07-21T10:45:27Z</time>
      </trkpt>
      <trkpt lat="43.032550" lon="-5.710749">
        <ele>1347.453</ele>
        <time>1999-07-21T10:45:30Z</time>
      </trkpt>
      <trkpt lat="43.032628" lon="-5.710745">
        <ele>1348.013</ele>
        <time>1999-07-21T10:45:34Z</time>
      </trkpt>
      <trkpt lat="43.032685" lon="-5.710744">
        <ele>1348.254</ele>
        <time>1999-07-21T10:45:37Z</time>
      </trkpt>
      <trkpt lat="43.032809" lon="-5.710736">
        <ele>1348.882</ele>
        <time>1999-07-21T10:45:43Z</time>
      </trkpt>
      <trkpt lat="43.032835" lon="-5.710729">
        <ele>1349.010</ele>
        <time>1999-07-21T10:45:44Z</time>
      </trkpt>
      <trkpt lat="43.033035" lon="-5.710695">
        <ele>1349.641</ele>
        <time>1999-07-21T10:45:52Z</time>
      </trkpt>
      <trkpt lat="43.033131" lon="-5.710696">
        <ele>1349.657</ele>
        <time>1999-07-21T10:45:56Z</time>
      </trkpt>
      <trkpt lat="43.033178" lon="-5.710688">
        <ele>1349.678</ele>
        <time>1999-07-21T10:45:58Z</time>
      </trkpt>
      <trkpt lat="43.033243" lon="-5.710673">
        <ele>1349.833</ele>
        <time>1999-07-21T10:46:00Z</time>
      </trkpt>
      <trkpt lat="43.033310" lon="-5.710650">
        <ele>1349.826</ele>
        <time>1999-07-21T10:46:02Z</time>
      </trkpt>
      <trkpt lat="43.033340" lon="-5.710640">
        <ele>1349.808</ele>
        <time>1999-07-21T10:46:03Z</time>
      </trkpt>
      <trkpt lat="43.033485" lon="-5.710586">
        <ele>1349.680</ele>
        <time>1999-07-21T10:46:09Z</time>
      </trkpt>
      <trkpt lat="43.033501" lon="-5.710566">
        <ele>1349.685</ele>
        <time>1999-07-21T10:46:11Z</time>
      </trkpt>
      <trkpt lat="43.033518" lon="-5.710546">
        <ele>1349.645</ele>
        <time>1999-07-21T10:46:14Z</time>
      </trkpt>
      <trkpt lat="43.033516" lon="-5.710545">
        <ele>1349.446</ele>
        <time>1999-07-21T10:46:15Z</time>
      </trkpt>
      <trkpt lat="43.033514" lon="-5.710692">
        <ele>1349.484</ele>
        <time>1999-07-21T10:48:03Z</time>
      </trkpt>
      <trkpt lat="43.033532" lon="-5.710691">
        <ele>1349.492</ele>
        <time>1999-07-21T10:48:04Z</time>
      </trkpt>
      <trkpt lat="43.033550" lon="-5.710688">
        <ele>1349.493</ele>
        <time>1999-07-21T10:48:05Z</time>
      </trkpt>
      <trkpt lat="43.033566" lon="-5.710695">
        <ele>1349.699</ele>
        <time>1999-07-21T10:48:08Z</time>
      </trkpt>
      <trkpt lat="43.033579" lon="-5.710694">
        <ele>1349.635</ele>
        <time>1999-07-21T10:48:09Z</time>
      </trkpt>
      <trkpt lat="43.033591" lon="-5.710686">
        <ele>1349.886</ele>
        <time>1999-07-21T10:48:13Z</time>
      </trkpt>
      <trkpt lat="43.033671" lon="-5.710651">
        <ele>1350.214</ele>
        <time>1999-07-21T10:48:23Z</time>
      </trkpt>
      <trkpt lat="43.033690" lon="-5.710650">
        <ele>1350.208</ele>
        <time>1999-07-21T10:48:24Z</time>
      </trkpt>
      <trkpt lat="43.033721" lon="-5.710648">
        <ele>1350.466</ele>
        <time>1999-07-21T10:48:26Z</time>
      </trkpt>
      <trkpt lat="43.033752" lon="-5.710642">
        <ele>1350.691</ele>
        <time>1999-07-21T10:48:28Z</time>
      </trkpt>
      <trkpt lat="43.033788" lon="-5.710641">
        <ele>1351.261</ele>
        <time>1999-07-21T10:48:30Z</time>
      </trkpt>
      <trkpt lat="43.033809" lon="-5.710643">
        <ele>1351.412</ele>
        <time>1999-07-21T10:48:31Z</time>
      </trkpt>
      <trkpt lat="43.033890" lon="-5.710670">
        <ele>1352.630</ele>
        <time>1999-07-21T10:48:35Z</time>
      </trkpt>
      <trkpt lat="43.033942" lon="-5.710713">
        <ele>1353.048</ele>
        <time>1999-07-21T10:48:38Z</time>
      </trkpt>
      <trkpt lat="43.033991" lon="-5.710768">
        <ele>1353.619</ele>
        <time>1999-07-21T10:48:41Z</time>
      </trkpt>
      <trkpt lat="43.034056" lon="-5.710849">
        <ele>1354.225</ele>
        <time>1999-07-21T10:48:45Z</time>
      </trkpt>
      <trkpt lat="43.034102" lon="-5.710903">
        <ele>1354.845</ele>
        <time>1999-07-21T10:48:48Z</time>
      </trkpt>
      <trkpt lat="43.034115" lon="-5.710937">
        <ele>1355.247</ele>
        <time>1999-07-21T10:48:51Z</time>
      </trkpt>
      <trkpt lat="43.034114" lon="-5.710937">
        <ele>1355.411</ele>
        <time>1999-07-21T10:48:52Z</time>
      </trkpt>
      <trkpt lat="43.034233" lon="-5.710862">
        <ele>1357.008</ele>
        <time>1999-07-21T10:49:30Z</time>
      </trkpt>
      <trkpt lat="43.034246" lon="-5.710852">
        <ele>1357.057</ele>
        <time>1999-07-21T10:49:31Z</time>
      </trkpt>
      <trkpt lat="43.034265" lon="-5.710827">
        <ele>1356.852</ele>
        <time>1999-07-21T10:49:33Z</time>
      </trkpt>
      <trkpt lat="43.034293" lon="-5.710708">
        <ele>1357.032</ele>
        <time>1999-07-21T10:49:40Z</time>
      </trkpt>
      <trkpt lat="43.034273" lon="-5.710599">
        <ele>1357.633</ele>
        <time>1999-07-21T10:49:46Z</time>
      </trkpt>
      <trkpt lat="43.034270" lon="-5.710579">
        <ele>1357.641</ele>
        <time>1999-07-21T10:49:47Z</time>
      </trkpt>
      <trkpt lat="43.034267" lon="-5.710559">
        <ele>1357.869</ele>
        <time>1999-07-21T10:49:48Z</time>
      </trkpt>
      <trkpt lat="43.034287" lon="-5.710424">
        <ele>1358.620</ele>
        <time>1999-07-21T10:49:55Z</time>
      </trkpt>
      <trkpt lat="43.034316" lon="-5.710358">
        <ele>1359.066</ele>
        <time>1999-07-21T10:49:59Z</time>
      </trkpt>
      <trkpt lat="43.034358" lon="-5.710302">
        <ele>1359.472</ele>
        <time>1999-07-21T10:50:04Z</time>
      </trkpt>
      <trkpt lat="43.034432" lon="-5.710260">
        <ele>1359.813</ele>
        <time>1999-07-21T10:50:10Z</time>
      </trkpt>
      <trkpt lat="43.034446" lon="-5.710266">
        <ele>1360.014</ele>
        <time>1999-07-21T10:50:11Z</time>
      </trkpt>
      <trkpt lat="43.034457" lon="-5.710273">
        <ele>1360.208</ele>
        <time>1999-07-21T10:50:12Z</time>
      </trkpt>
      <trkpt lat="43.034496" lon="-5.710276">
        <ele>1360.630</ele>
        <time>1999-07-21T10:50:17Z</time>
      </trkpt>
      <trkpt lat="43.034590" lon="-5.710241">
        <ele>1361.685</ele>
        <time>1999-07-21T10:50:25Z</time>
      </trkpt>
      <trkpt lat="43.034612" lon="-5.710238">
        <ele>1361.675</ele>
        <time>1999-07-21T10:50:26Z</time>
      </trkpt>
      <trkpt lat="43.034635" lon="-5.710237">
        <ele>1361.696</ele>
        <time>1999-07-21T10:50:27Z</time>
      </trkpt>
      <trkpt lat="43.034656" lon="-5.710239">
        <ele>1361.614</ele>
        <time>1999-07-21T10:50:28Z</time>
      </trkpt>
      <trkpt lat="43.034677" lon="-5.710240">
        <ele>1361.632</ele>
        <time>1999-07-21T10:50:29Z</time>
      </trkpt>
      <trkpt lat="43.034733" lon="-5.710230">
        <ele>1362.093</ele>
        <time>1999-07-21T10:50:32Z</time>
      </trkpt>
      <trkpt lat="43.034785" lon="-5.710207">
        <ele>1362.849</ele>
        <time>1999-07-21T10:50:35Z</time>
      </trkpt>
      <trkpt lat="43.034843" lon="-5.710163">
        <ele>1363.817</ele>
        <time>1999-07-21T10:50:39Z</time>
      </trkpt>
      <trkpt lat="43.034859" lon="-5.710154">
        <ele>1363.887</ele>
        <time>1999-07-21T10:50:40Z</time>
      </trkpt>
      <trkpt lat="43.034936" lon="-5.710119">
        <ele>1364.815</ele>
        <time>1999-07-21T10:50:44Z</time>
      </trkpt>
      <trkpt lat="43.034979" lon="-5.710096">
        <ele>1365.808</ele>
        <time>1999-07-21T10:50:46Z</time>
      </trkpt>
      <trkpt lat="43.035004" lon="-5.710078">
        <ele>1366.084</ele>
        <time>1999-07-21T10:50:47Z</time>
      </trkpt>
      <trkpt lat="43.035121" lon="-5.709974">
        <ele>1366.879</ele>
        <time>1999-07-21T10:50:51Z</time>
      </trkpt>
      <trkpt lat="43.035186" lon="-5.709919">
        <ele>1366.819</ele>
        <time>1999-07-21T10:50:53Z</time>
      </trkpt>
      <trkpt lat="43.035360" lon="-5.709784">
        <ele>1367.230</ele>
        <time>1999-07-21T10:50:58Z</time>
      </trkpt>
      <trkpt lat="43.035563" lon="-5.709675">
        <ele>1367.228</ele>
        <time>1999-07-21T10:51:04Z</time>
      </trkpt>
      <trkpt lat="43.035697" lon="-5.709615">
        <ele>1367.456</ele>
        <time>1999-07-21T10:51:09Z</time>
      </trkpt>
      <trkpt lat="43.035798" lon="-5.709577">
        <ele>1368.017</ele>
        <time>1999-07-21T10:51:13Z</time>
      </trkpt>
      <trkpt lat="43.035921" lon="-5.709534">
        <ele>1369.273</ele>
        <time>1999-07-21T10:51:18Z</time>
      </trkpt>
      <trkpt lat="43.036061" lon="-5.709465">
        <ele>1370.267</ele>
        <time>1999-07-21T10:51:23Z</time>
      </trkpt>
      <trkpt lat="43.036093" lon="-5.709447">
        <ele>1370.481</ele>
        <time>1999-07-21T10:51:24Z</time>
      </trkpt>
      <trkpt lat="43.036298" lon="-5.709400">
        <ele>1371.219</ele>
        <time>1999-07-21T10:51:30Z</time>
      </trkpt>
      <trkpt lat="43.036330" lon="-5.709397">
        <ele>1371.208</ele>
        <time>1999-07-21T10:51:31Z</time>
      </trkpt>
      <trkpt lat="43.036364" lon="-5.709397">
        <ele>1371.269</ele>
        <time>1999-07-21T10:51:32Z</time>
      </trkpt>
      <trkpt lat="43.036485" lon="-5.709389">
        <ele>1371.434</ele>
        <time>1999-07-21T10:51:35Z</time>
      </trkpt>
      <trkpt lat="43.036583" lon="-5.709391">
        <ele>1371.414</ele>
        <time>1999-07-21T10:51:37Z</time>
      </trkpt>
      <trkpt lat="43.036686" lon="-5.709415">
        <ele>1371.455</ele>
        <time>1999-07-21T10:51:39Z</time>
      </trkpt>
      <trkpt lat="43.036793" lon="-5.709417">
        <ele>1371.453</ele>
        <time>1999-07-21T10:51:41Z</time>
      </trkpt>
      <trkpt lat="43.036901" lon="-5.709387">
        <ele>1371.251</ele>
        <time>1999-07-21T10:51:43Z</time>
      </trkpt>
      <trkpt lat="43.036951" lon="-5.709363">
        <ele>1371.022</ele>
        <time>1999-07-21T10:51:44Z</time>
      </trkpt>
      <trkpt lat="43.037033" lon="-5.709330">
        <ele>1370.028</ele>
        <time>1999-07-21T10:51:46Z</time>
      </trkpt>
      <trkpt lat="43.037078" lon="-5.709306">
        <ele>1369.869</ele>
        <time>1999-07-21T10:51:48Z</time>
      </trkpt>
      <trkpt lat="43.037191" lon="-5.709279">
        <ele>1369.204</ele>
        <time>1999-07-21T10:51:54Z</time>
      </trkpt>
      <trkpt lat="43.037270" lon="-5.709271">
        <ele>1369.024</ele>
        <time>1999-07-21T10:51:58Z</time>
      </trkpt>
      <trkpt lat="43.037321" lon="-5.709275">
        <ele>1369.008</ele>
        <time>1999-07-21T10:52:01Z</time>
      </trkpt>
      <trkpt lat="43.037357" lon="-5.709286">
        <ele>1369.029</ele>
        <time>1999-07-21T10:52:03Z</time>
      </trkpt>
      <trkpt lat="43.037394" lon="-5.709281">
        <ele>1368.894</ele>
        <time>1999-07-21T10:52:05Z</time>
      </trkpt>
      <trkpt lat="43.037425" lon="-5.709279">
        <ele>1369.264</ele>
        <time>1999-07-21T10:52:07Z</time>
      </trkpt>
      <trkpt lat="43.037457" lon="-5.709277">
        <ele>1369.825</ele>
        <time>1999-07-21T10:52:09Z</time>
      </trkpt>
      <trkpt lat="43.037472" lon="-5.709275">
        <ele>1370.233</ele>
        <time>1999-07-21T10:52:10Z</time>
      </trkpt>
      <trkpt lat="43.037505" lon="-5.709272">
        <ele>1370.621</ele>
        <time>1999-07-21T10:52:12Z</time>
      </trkpt>
      <trkpt lat="43.037538" lon="-5.709265">
        <ele>1371.412</ele>
        <time>1999-07-21T10:52:14Z</time>
      </trkpt>
      <trkpt lat="43.037552" lon="-5.709260">
        <ele>1371.688</ele>
        <time>1999-07-21T10:52:15Z</time>
      </trkpt>
      <trkpt lat="43.037594" lon="-5.709245">
        <ele>1372.448</ele>
        <time>1999-07-21T10:52:18Z</time>
      </trkpt>
      <trkpt lat="43.037643" lon="-5.709213">
        <ele>1373.061</ele>
        <time>1999-07-21T10:52:22Z</time>
      </trkpt>
      <trkpt lat="43.037665" lon="-5.709192">
        <ele>1373.417</ele>
        <time>1999-07-21T10:52:24Z</time>
      </trkpt>
      <trkpt lat="43.037715" lon="-5.709134">
        <ele>1374.608</ele>
        <time>1999-07-21T10:52:28Z</time>
      </trkpt>
      <trkpt lat="43.037785" lon="-5.709048">
        <ele>1375.627</ele>
        <time>1999-07-21T10:52:34Z</time>
      </trkpt>
      <trkpt lat="43.037797" lon="-5.709038">
        <ele>1376.072</ele>
        <time>1999-07-21T10:52:35Z</time>
      </trkpt>
      <trkpt lat="43.037830" lon="-5.709020">
        <ele>1376.692</ele>
        <time>1999-07-21T10:52:38Z</time>
      </trkpt>
      <trkpt lat="43.037880" lon="-5.708993">
        <ele>1378.093</ele>
        <time>1999-07-21T10:52:42Z</time>
      </trkpt>
      <trkpt lat="43.037931" lon="-5.708955">
        <ele>1379.041</ele>
        <time>1999-07-21T10:52:46Z</time>
      </trkpt>
      <trkpt lat="43.037952" lon="-5.708929">
        <ele>1379.429</ele>
        <time>1999-07-21T10:52:48Z</time>
      </trkpt>
      <trkpt lat="43.037986" lon="-5.708863">
        <ele>1380.240</ele>
        <time>1999-07-21T10:52:52Z</time>
      </trkpt>
      <trkpt lat="43.038002" lon="-5.708827">
        <ele>1380.646</ele>
        <time>1999-07-21T10:52:54Z</time>
      </trkpt>
      <trkpt lat="43.038025" lon="-5.708769">
        <ele>1381.292</ele>
        <time>1999-07-21T10:52:57Z</time>
      </trkpt>
      <trkpt lat="43.038074" lon="-5.708690">
        <ele>1382.073</ele>
        <time>1999-07-21T10:53:01Z</time>
      </trkpt>
      <trkpt lat="43.038098" lon="-5.708649">
        <ele>1382.420</ele>
        <time>1999-07-21T10:53:03Z</time>
      </trkpt>
      <trkpt lat="43.038183" lon="-5.708497">
        <ele>1383.208</ele>
        <time>1999-07-21T10:53:09Z</time>
      </trkpt>
      <trkpt lat="43.038197" lon="-5.708474">
        <ele>1383.472</ele>
        <time>1999-07-21T10:53:10Z</time>
      </trkpt>
      <trkpt lat="43.038225" lon="-5.708428">
        <ele>1383.657</ele>
        <time>1999-07-21T10:53:12Z</time>
      </trkpt>
      <trkpt lat="43.038270" lon="-5.708361">
        <ele>1384.027</ele>
        <time>1999-07-21T10:53:15Z</time>
      </trkpt>
      <trkpt lat="43.038289" lon="-5.708342">
        <ele>1384.098</ele>
        <time>1999-07-21T10:53:16Z</time>
      </trkpt>
      <trkpt lat="43.038363" lon="-5.708230">
        <ele>1384.456</ele>
        <time>1999-07-21T10:53:21Z</time>
      </trkpt>
      <trkpt lat="43.038380" lon="-5.708208">
        <ele>1384.444</ele>
        <time>1999-07-21T10:53:22Z</time>
      </trkpt>
      <trkpt lat="43.038508" lon="-5.708042">
        <ele>1385.285</ele>
        <time>1999-07-21T10:53:28Z</time>
      </trkpt>
      <trkpt lat="43.038560" lon="-5.707976">
        <ele>1385.631</ele>
        <time>1999-07-21T10:53:30Z</time>
      </trkpt>
      <trkpt lat="43.038690" lon="-5.707781">
        <ele>1385.813</ele>
        <time>1999-07-21T10:53:35Z</time>
      </trkpt>
      <trkpt lat="43.038735" lon="-5.707712">
        <ele>1385.843</ele>
        <time>1999-07-21T10:53:37Z</time>
      </trkpt>
      <trkpt lat="43.038759" lon="-5.707618">
        <ele>1385.807</ele>
        <time>1999-07-21T10:53:40Z</time>
      </trkpt>
      <trkpt lat="43.038815" lon="-5.707451">
        <ele>1385.608</ele>
        <time>1999-07-21T10:53:46Z</time>
      </trkpt>
      <trkpt lat="43.038927" lon="-5.707304">
        <ele>1385.834</ele>
        <time>1999-07-21T10:53:52Z</time>
      </trkpt>
      <trkpt lat="43.038984" lon="-5.707195">
        <ele>1386.279</ele>
        <time>1999-07-21T10:53:56Z</time>
      </trkpt>
      <trkpt lat="43.039015" lon="-5.707104">
        <ele>1386.629</ele>
        <time>1999-07-21T10:53:59Z</time>
      </trkpt>
      <trkpt lat="43.039023" lon="-5.707076">
        <ele>1386.840</ele>
        <time>1999-07-21T10:54:00Z</time>
      </trkpt>
      <trkpt lat="43.039056" lon="-5.706939">
        <ele>1387.648</ele>
        <time>1999-07-21T10:54:05Z</time>
      </trkpt>
      <trkpt lat="43.039071" lon="-5.706885">
        <ele>1388.216</ele>
        <time>1999-07-21T10:54:07Z</time>
      </trkpt>
      <trkpt lat="43.039101" lon="-5.706804">
        <ele>1388.897</ele>
        <time>1999-07-21T10:54:10Z</time>
      </trkpt>
      <trkpt lat="43.039136" lon="-5.706724">
        <ele>1389.843</ele>
        <time>1999-07-21T10:54:13Z</time>
      </trkpt>
      <trkpt lat="43.039148" lon="-5.706695">
        <ele>1390.074</ele>
        <time>1999-07-21T10:54:14Z</time>
      </trkpt>
      <trkpt lat="43.039205" lon="-5.706535">
        <ele>1391.056</ele>
        <time>1999-07-21T10:54:20Z</time>
      </trkpt>
      <trkpt lat="43.039212" lon="-5.706510">
        <ele>1391.221</ele>
        <time>1999-07-21T10:54:21Z</time>
      </trkpt>
      <trkpt lat="43.039241" lon="-5.706411">
        <ele>1392.208</ele>
        <time>1999-07-21T10:54:25Z</time>
      </trkpt>
      <trkpt lat="43.039286" lon="-5.706300">
        <ele>1393.090</ele>
        <time>1999-07-21T10:54:29Z</time>
      </trkpt>
      <trkpt lat="43.039296" lon="-5.706274">
        <ele>1393.445</ele>
        <time>1999-07-21T10:54:30Z</time>
      </trkpt>
      <trkpt lat="43.039351" lon="-5.706138">
        <ele>1394.665</ele>
        <time>1999-07-21T10:54:35Z</time>
      </trkpt>
      <trkpt lat="43.039391" lon="-5.706051">
        <ele>1395.076</ele>
        <time>1999-07-21T10:54:38Z</time>
      </trkpt>
      <trkpt lat="43.039445" lon="-5.705924">
        <ele>1395.624</ele>
        <time>1999-07-21T10:54:43Z</time>
      </trkpt>
      <trkpt lat="43.039478" lon="-5.705878">
        <ele>1396.012</ele>
        <time>1999-07-21T10:54:46Z</time>
      </trkpt>
      <trkpt lat="43.039558" lon="-5.705724">
        <ele>1396.463</ele>
        <time>1999-07-21T10:54:52Z</time>
      </trkpt>
      <trkpt lat="43.039651" lon="-5.705546">
        <ele>1396.659</ele>
        <time>1999-07-21T10:54:59Z</time>
      </trkpt>
      <trkpt lat="43.039665" lon="-5.705519">
        <ele>1396.887</ele>
        <time>1999-07-21T10:55:00Z</time>
      </trkpt>
      <trkpt lat="43.039758" lon="-5.705342">
        <ele>1397.642</ele>
        <time>1999-07-21T10:55:07Z</time>
      </trkpt>
      <trkpt lat="43.039791" lon="-5.705290">
        <ele>1397.626</ele>
        <time>1999-07-21T10:55:09Z</time>
      </trkpt>
      <trkpt lat="43.039867" lon="-5.705187">
        <ele>1398.208</ele>
        <time>1999-07-21T10:55:13Z</time>
      </trkpt>
      <trkpt lat="43.039922" lon="-5.705114">
        <ele>1398.691</ele>
        <time>1999-07-21T10:55:16Z</time>
      </trkpt>
      <trkpt lat="43.040004" lon="-5.704993">
        <ele>1399.886</ele>
        <time>1999-07-21T10:55:21Z</time>
      </trkpt>
      <trkpt lat="43.040145" lon="-5.704819">
        <ele>1400.686</ele>
        <time>1999-07-21T10:55:29Z</time>
      </trkpt>
      <trkpt lat="43.040165" lon="-5.704801">
        <ele>1401.087</ele>
        <time>1999-07-21T10:55:30Z</time>
      </trkpt>
      <trkpt lat="43.040315" lon="-5.704654">
        <ele>1401.655</ele>
        <time>1999-07-21T10:55:37Z</time>
      </trkpt>
      <trkpt lat="43.040432" lon="-5.704559">
        <ele>1402.223</ele>
        <time>1999-07-21T10:55:41Z</time>
      </trkpt>
      <trkpt lat="43.040496" lon="-5.704532">
        <ele>1402.234</ele>
        <time>1999-07-21T10:55:43Z</time>
      </trkpt>
      <trkpt lat="43.040698" lon="-5.704456">
        <ele>1402.860</ele>
        <time>1999-07-21T10:55:51Z</time>
      </trkpt>
      <trkpt lat="43.040783" lon="-5.704424">
        <ele>1403.044</ele>
        <time>1999-07-21T10:55:55Z</time>
      </trkpt>
      <trkpt lat="43.040848" lon="-5.704405">
        <ele>1403.205</ele>
        <time>1999-07-21T10:55:58Z</time>
      </trkpt>
      <trkpt lat="43.040905" lon="-5.704396">
        <ele>1404.215</ele>
        <time>1999-07-21T10:56:01Z</time>
      </trkpt>
      <trkpt lat="43.040990" lon="-5.704401">
        <ele>1405.008</ele>
        <time>1999-07-21T10:56:05Z</time>
      </trkpt>
      <trkpt lat="43.041053" lon="-5.704402">
        <ele>1405.417</ele>
        <time>1999-07-21T10:56:08Z</time>
      </trkpt>
      <trkpt lat="43.041149" lon="-5.704398">
        <ele>1406.022</ele>
        <time>1999-07-21T10:56:13Z</time>
      </trkpt>
      <trkpt lat="43.041263" lon="-5.704419">
        <ele>1406.452</ele>
        <time>1999-07-21T10:56:18Z</time>
      </trkpt>
      <trkpt lat="43.041304" lon="-5.704425">
        <ele>1406.623</ele>
        <time>1999-07-21T10:56:20Z</time>
      </trkpt>
      <trkpt lat="43.041429" lon="-5.704417">
        <ele>1407.061</ele>
        <time>1999-07-21T10:56:26Z</time>
      </trkpt>
      <trkpt lat="43.041472" lon="-5.704419">
        <ele>1407.669</ele>
        <time>1999-07-21T10:56:28Z</time>
      </trkpt>
      <trkpt lat="43.041492" lon="-5.704417">
        <ele>1407.630</ele>
        <time>1999-07-21T10:56:29Z</time>
      </trkpt>
      <trkpt lat="43.041602" lon="-5.704403">
        <ele>1408.216</ele>
        <time>1999-07-21T10:56:35Z</time>
      </trkpt>
      <trkpt lat="43.041660" lon="-5.704373">
        <ele>1408.681</ele>
        <time>1999-07-21T10:56:38Z</time>
      </trkpt>
      <trkpt lat="43.041707" lon="-5.704340">
        <ele>1409.261</ele>
        <time>1999-07-21T10:56:41Z</time>
      </trkpt>
      <trkpt lat="43.041745" lon="-5.704326">
        <ele>1409.617</ele>
        <time>1999-07-21T10:56:43Z</time>
      </trkpt>
      <trkpt lat="43.041830" lon="-5.704300">
        <ele>1410.608</ele>
        <time>1999-07-21T10:56:48Z</time>
      </trkpt>
      <trkpt lat="43.041925" lon="-5.704275">
        <ele>1411.421</ele>
        <time>1999-07-21T10:56:53Z</time>
      </trkpt>
      <trkpt lat="43.041944" lon="-5.704268">
        <ele>1411.696</ele>
        <time>1999-07-21T10:56:54Z</time>
      </trkpt>
      <trkpt lat="43.042006" lon="-5.704256">
        <ele>1412.456</ele>
        <time>1999-07-21T10:56:57Z</time>
      </trkpt>
      <trkpt lat="43.042098" lon="-5.704235">
        <ele>1413.487</ele>
        <time>1999-07-21T10:57:02Z</time>
      </trkpt>
      <trkpt lat="43.042117" lon="-5.704230">
        <ele>1413.645</ele>
        <time>1999-07-21T10:57:03Z</time>
      </trkpt>
      <trkpt lat="43.042238" lon="-5.704161">
        <ele>1414.833</ele>
        <time>1999-07-21T10:57:10Z</time>
      </trkpt>
      <trkpt lat="43.042298" lon="-5.704095">
        <ele>1416.064</ele>
        <time>1999-07-21T10:57:14Z</time>
      </trkpt>
      <trkpt lat="43.042377" lon="-5.704039">
        <ele>1417.220</ele>
        <time>1999-07-21T10:57:19Z</time>
      </trkpt>
      <trkpt lat="43.042475" lon="-5.703982">
        <ele>1418.897</ele>
        <time>1999-07-21T10:57:25Z</time>
      </trkpt>
      <trkpt lat="43.042508" lon="-5.703958">
        <ele>1419.223</ele>
        <time>1999-07-21T10:57:27Z</time>
      </trkpt>
      <trkpt lat="43.042554" lon="-5.703937">
        <ele>1419.825</ele>
        <time>1999-07-21T10:57:30Z</time>
      </trkpt>
      <trkpt lat="43.042625" lon="-5.703907">
        <ele>1421.008</ele>
        <time>1999-07-21T10:57:34Z</time>
      </trkpt>
      <trkpt lat="43.042641" lon="-5.703895">
        <ele>1421.292</ele>
        <time>1999-07-21T10:57:35Z</time>
      </trkpt>
      <trkpt lat="43.042724" lon="-5.703861">
        <ele>1422.277</ele>
        <time>1999-07-21T10:57:40Z</time>
      </trkpt>
      <trkpt lat="43.042772" lon="-5.703846">
        <ele>1422.427</ele>
        <time>1999-07-21T10:57:43Z</time>
      </trkpt>
      <trkpt lat="43.042837" lon="-5.703832">
        <ele>1423.258</ele>
        <time>1999-07-21T10:57:47Z</time>
      </trkpt>
      <trkpt lat="43.042885" lon="-5.703818">
        <ele>1423.896</ele>
        <time>1999-07-21T10:57:50Z</time>
      </trkpt>
      <trkpt lat="43.042920" lon="-5.703808">
        <ele>1424.874</ele>
        <time>1999-07-21T10:57:52Z</time>
      </trkpt>
      <trkpt lat="43.043007" lon="-5.703795">
        <ele>1425.835</ele>
        <time>1999-07-21T10:57:57Z</time>
      </trkpt>
      <trkpt lat="43.043025" lon="-5.703794">
        <ele>1426.031</ele>
        <time>1999-07-21T10:57:58Z</time>
      </trkpt>
      <trkpt lat="43.043093" lon="-5.703764">
        <ele>1427.026</ele>
        <time>1999-07-21T10:58:02Z</time>
      </trkpt>
      <trkpt lat="43.043177" lon="-5.703750">
        <ele>1428.047</ele>
        <time>1999-07-21T10:58:07Z</time>
      </trkpt>
      <trkpt lat="43.043261" lon="-5.703725">
        <ele>1429.211</ele>
        <time>1999-07-21T10:58:12Z</time>
      </trkpt>
      <trkpt lat="43.043295" lon="-5.703716">
        <ele>1429.408</ele>
        <time>1999-07-21T10:58:14Z</time>
      </trkpt>
      <trkpt lat="43.043357" lon="-5.703707">
        <ele>1430.495</ele>
        <time>1999-07-21T10:58:18Z</time>
      </trkpt>
      <trkpt lat="43.043405" lon="-5.703706">
        <ele>1431.210</ele>
        <time>1999-07-21T10:58:21Z</time>
      </trkpt>
      <trkpt lat="43.043418" lon="-5.703709">
        <ele>1431.410</ele>
        <time>1999-07-21T10:58:22Z</time>
      </trkpt>
      <trkpt lat="43.043433" lon="-5.703711">
        <ele>1431.641</ele>
        <time>1999-07-21T10:58:23Z</time>
      </trkpt>
      <trkpt lat="43.043477" lon="-5.703694">
        <ele>1432.289</ele>
        <time>1999-07-21T10:58:26Z</time>
      </trkpt>
      <trkpt lat="43.043493" lon="-5.703692">
        <ele>1432.617</ele>
        <time>1999-07-21T10:58:27Z</time>
      </trkpt>
      <trkpt lat="43.043584" lon="-5.703672">
        <ele>1433.658</ele>
        <time>1999-07-21T10:58:33Z</time>
      </trkpt>
      <trkpt lat="43.043599" lon="-5.703670">
        <ele>1433.694</ele>
        <time>1999-07-21T10:58:34Z</time>
      </trkpt>
      <trkpt lat="43.043668" lon="-5.703668">
        <ele>1434.666</ele>
        <time>1999-07-21T10:58:39Z</time>
      </trkpt>
      <trkpt lat="43.043720" lon="-5.703669">
        <ele>1435.629</ele>
        <time>1999-07-21T10:58:43Z</time>
      </trkpt>
      <trkpt lat="43.043734" lon="-5.703674">
        <ele>1436.021</ele>
        <time>1999-07-21T10:58:44Z</time>
      </trkpt>
      <trkpt lat="43.043800" lon="-5.703692">
        <ele>1437.008</ele>
        <time>1999-07-21T10:58:49Z</time>
      </trkpt>
      <trkpt lat="43.043830" lon="-5.703702">
        <ele>1437.619</ele>
        <time>1999-07-21T10:58:51Z</time>
      </trkpt>
      <trkpt lat="43.043876" lon="-5.703719">
        <ele>1438.294</ele>
        <time>1999-07-21T10:58:54Z</time>
      </trkpt>
      <trkpt lat="43.043945" lon="-5.703757">
        <ele>1439.234</ele>
        <time>1999-07-21T10:58:59Z</time>
      </trkpt>
      <trkpt lat="43.043960" lon="-5.703759">
        <ele>1439.265</ele>
        <time>1999-07-21T10:59:00Z</time>
      </trkpt>
      <trkpt lat="43.044051" lon="-5.703785">
        <ele>1440.263</ele>
        <time>1999-07-21T10:59:06Z</time>
      </trkpt>
      <trkpt lat="43.044068" lon="-5.703787">
        <ele>1440.491</ele>
        <time>1999-07-21T10:59:07Z</time>
      </trkpt>
      <trkpt lat="43.044159" lon="-5.703804">
        <ele>1441.472</ele>
        <time>1999-07-21T10:59:13Z</time>
      </trkpt>
      <trkpt lat="43.044174" lon="-5.703809">
        <ele>1441.648</ele>
        <time>1999-07-21T10:59:14Z</time>
      </trkpt>
      <trkpt lat="43.044267" lon="-5.703873">
        <ele>1442.656</ele>
        <time>1999-07-21T10:59:20Z</time>
      </trkpt>
      <trkpt lat="43.044297" lon="-5.703898">
        <ele>1443.059</ele>
        <time>1999-07-21T10:59:22Z</time>
      </trkpt>
      <trkpt lat="43.044358" lon="-5.703946">
        <ele>1443.614</ele>
        <time>1999-07-21T10:59:26Z</time>
      </trkpt>
      <trkpt lat="43.044440" lon="-5.703996">
        <ele>1444.208</ele>
        <time>1999-07-21T10:59:31Z</time>
      </trkpt>
      <trkpt lat="43.044477" lon="-5.704010">
        <ele>1444.668</ele>
        <time>1999-07-21T10:59:33Z</time>
      </trkpt>
      <trkpt lat="43.044579" lon="-5.704040">
        <ele>1445.663</ele>
        <time>1999-07-21T10:59:39Z</time>
      </trkpt>
      <trkpt lat="43.044597" lon="-5.704039">
        <ele>1445.623</ele>
        <time>1999-07-21T10:59:40Z</time>
      </trkpt>
      <trkpt lat="43.044663" lon="-5.704056">
        <ele>1446.494</ele>
        <time>1999-07-21T10:59:44Z</time>
      </trkpt>
      <trkpt lat="43.044680" lon="-5.704063">
        <ele>1446.872</ele>
        <time>1999-07-21T10:59:45Z</time>
      </trkpt>
      <trkpt lat="43.044753" lon="-5.704100">
        <ele>1447.830</ele>
        <time>1999-07-21T10:59:49Z</time>
      </trkpt>
      <trkpt lat="43.044829" lon="-5.704144">
        <ele>1448.891</ele>
        <time>1999-07-21T10:59:53Z</time>
      </trkpt>
      <trkpt lat="43.044895" lon="-5.704173">
        <ele>1449.887</ele>
        <time>1999-07-21T10:59:57Z</time>
      </trkpt>
      <trkpt lat="43.044944" lon="-5.704171">
        <ele>1450.631</ele>
        <time>1999-07-21T11:00:00Z</time>
      </trkpt>
      <trkpt lat="43.044976" lon="-5.704155">
        <ele>1451.061</ele>
        <time>1999-07-21T11:00:02Z</time>
      </trkpt>
      <trkpt lat="43.045023" lon="-5.704082">
        <ele>1451.807</ele>
        <time>1999-07-21T11:00:06Z</time>
      </trkpt>
      <trkpt lat="43.045034" lon="-5.704032">
        <ele>1452.208</ele>
        <time>1999-07-21T11:00:08Z</time>
      </trkpt>
      <trkpt lat="43.045026" lon="-5.703928">
        <ele>1452.886</ele>
        <time>1999-07-21T11:00:12Z</time>
      </trkpt>
      <trkpt lat="43.045018" lon="-5.703881">
        <ele>1453.251</ele>
        <time>1999-07-21T11:00:14Z</time>
      </trkpt>
      <trkpt lat="43.045012" lon="-5.703722">
        <ele>1454.261</ele>
        <time>1999-07-21T11:00:20Z</time>
      </trkpt>
      <trkpt lat="43.045025" lon="-5.703585">
        <ele>1455.282</ele>
        <time>1999-07-21T11:00:26Z</time>
      </trkpt>
      <trkpt lat="43.045030" lon="-5.703540">
        <ele>1455.620</ele>
        <time>1999-07-21T11:00:28Z</time>
      </trkpt>
      <trkpt lat="43.045039" lon="-5.703470">
        <ele>1456.258</ele>
        <time>1999-07-21T11:00:31Z</time>
      </trkpt>
      <trkpt lat="43.045060" lon="-5.703374">
        <ele>1457.259</ele>
        <time>1999-07-21T11:00:35Z</time>
      </trkpt>
      <trkpt lat="43.045065" lon="-5.703351">
        <ele>1457.435</ele>
        <time>1999-07-21T11:00:36Z</time>
      </trkpt>
      <trkpt lat="43.045076" lon="-5.703237">
        <ele>1459.044</ele>
        <time>1999-07-21T11:00:41Z</time>
      </trkpt>
      <trkpt lat="43.045079" lon="-5.703214">
        <ele>1459.205</ele>
        <time>1999-07-21T11:00:42Z</time>
      </trkpt>
      <trkpt lat="43.045091" lon="-5.703098">
        <ele>1460.215</ele>
        <time>1999-07-21T11:00:47Z</time>
      </trkpt>
      <trkpt lat="43.045097" lon="-5.703034">
        <ele>1460.808</ele>
        <time>1999-07-21T11:00:50Z</time>
      </trkpt>
      <trkpt lat="43.045098" lon="-5.702968">
        <ele>1461.477</ele>
        <time>1999-07-21T11:00:53Z</time>
      </trkpt>
      <trkpt lat="43.045101" lon="-5.702904">
        <ele>1462.082</ele>
        <time>1999-07-21T11:00:56Z</time>
      </trkpt>
      <trkpt lat="43.045102" lon="-5.702881">
        <ele>1462.422</ele>
        <time>1999-07-21T11:00:57Z</time>
      </trkpt>
      <trkpt lat="43.045117" lon="-5.702766">
        <ele>1463.443</ele>
        <time>1999-07-21T11:01:02Z</time>
      </trkpt>
      <trkpt lat="43.045126" lon="-5.702690">
        <ele>1464.281</ele>
        <time>1999-07-21T11:01:05Z</time>
      </trkpt>
      <trkpt lat="43.045130" lon="-5.702668">
        <ele>1464.639</ele>
        <time>1999-07-21T11:01:06Z</time>
      </trkpt>
      <trkpt lat="43.045147" lon="-5.702556">
        <ele>1465.860</ele>
        <time>1999-07-21T11:01:11Z</time>
      </trkpt>
      <trkpt lat="43.045148" lon="-5.702531">
        <ele>1466.096</ele>
        <time>1999-07-21T11:01:12Z</time>
      </trkpt>
      <trkpt lat="43.045158" lon="-5.702417">
        <ele>1466.858</ele>
        <time>1999-07-21T11:01:17Z</time>
      </trkpt>
      <trkpt lat="43.045163" lon="-5.702395">
        <ele>1467.252</ele>
        <time>1999-07-21T11:01:18Z</time>
      </trkpt>
      <trkpt lat="43.045179" lon="-5.702326">
        <ele>1468.017</ele>
        <time>1999-07-21T11:01:21Z</time>
      </trkpt>
      <trkpt lat="43.045203" lon="-5.702239">
        <ele>1469.008</ele>
        <time>1999-07-21T11:01:25Z</time>
      </trkpt>
      <trkpt lat="43.045214" lon="-5.702194">
        <ele>1469.678</ele>
        <time>1999-07-21T11:01:27Z</time>
      </trkpt>
      <trkpt lat="43.045230" lon="-5.702131">
        <ele>1470.273</ele>
        <time>1999-07-21T11:01:30Z</time>
      </trkpt>
      <trkpt lat="43.045264" lon="-5.702019">
        <ele>1471.453</ele>
        <time>1999-07-21T11:01:35Z</time>
      </trkpt>
      <trkpt lat="43.045325" lon="-5.701894">
        <ele>1472.414</ele>
        <time>1999-07-21T11:01:41Z</time>
      </trkpt>
      <trkpt lat="43.045339" lon="-5.701851">
        <ele>1472.632</ele>
        <time>1999-07-21T11:01:43Z</time>
      </trkpt>
      <trkpt lat="43.045376" lon="-5.701737">
        <ele>1473.640</ele>
        <time>1999-07-21T11:01:48Z</time>
      </trkpt>
      <trkpt lat="43.045402" lon="-5.701652">
        <ele>1474.661</ele>
        <time>1999-07-21T11:01:52Z</time>
      </trkpt>
      <trkpt lat="43.045409" lon="-5.701633">
        <ele>1474.897</ele>
        <time>1999-07-21T11:01:53Z</time>
      </trkpt>
      <trkpt lat="43.045448" lon="-5.701533">
        <ele>1475.859</ele>
        <time>1999-07-21T11:01:58Z</time>
      </trkpt>
      <trkpt lat="43.045478" lon="-5.701450">
        <ele>1476.603</ele>
        <time>1999-07-21T11:02:02Z</time>
      </trkpt>
      <trkpt lat="43.045486" lon="-5.701428">
        <ele>1476.823</ele>
        <time>1999-07-21T11:02:03Z</time>
      </trkpt>
      <trkpt lat="43.045530" lon="-5.701317">
        <ele>1477.608</ele>
        <time>1999-07-21T11:02:08Z</time>
      </trkpt>
      <trkpt lat="43.045543" lon="-5.701271">
        <ele>1478.098</ele>
        <time>1999-07-21T11:02:10Z</time>
      </trkpt>
      <trkpt lat="43.045565" lon="-5.701179">
        <ele>1478.883</ele>
        <time>1999-07-21T11:02:14Z</time>
      </trkpt>
      <trkpt lat="43.045568" lon="-5.701132">
        <ele>1479.013</ele>
        <time>1999-07-21T11:02:16Z</time>
      </trkpt>
      <trkpt lat="43.045572" lon="-5.701008">
        <ele>1480.054</ele>
        <time>1999-07-21T11:02:21Z</time>
      </trkpt>
      <trkpt lat="43.045570" lon="-5.700983">
        <ele>1480.212</ele>
        <time>1999-07-21T11:02:22Z</time>
      </trkpt>
      <trkpt lat="43.045567" lon="-5.700839">
        <ele>1481.290</ele>
        <time>1999-07-21T11:02:28Z</time>
      </trkpt>
      <trkpt lat="43.045580" lon="-5.700753">
        <ele>1481.661</ele>
        <time>1999-07-21T11:02:32Z</time>
      </trkpt>
      <trkpt lat="43.045592" lon="-5.700710">
        <ele>1482.247</ele>
        <time>1999-07-21T11:02:34Z</time>
      </trkpt>
      <trkpt lat="43.045614" lon="-5.700571">
        <ele>1483.232</ele>
        <time>1999-07-21T11:02:40Z</time>
      </trkpt>
      <trkpt lat="43.045639" lon="-5.700472">
        <ele>1484.492</ele>
        <time>1999-07-21T11:02:45Z</time>
      </trkpt>
      <trkpt lat="43.045668" lon="-5.700367">
        <ele>1485.611</ele>
        <time>1999-07-21T11:02:50Z</time>
      </trkpt>
      <trkpt lat="43.045679" lon="-5.700326">
        <ele>1486.608</ele>
        <time>1999-07-21T11:02:52Z</time>
      </trkpt>
      <trkpt lat="43.045685" lon="-5.700308">
        <ele>1486.886</ele>
        <time>1999-07-21T11:02:53Z</time>
      </trkpt>
      <trkpt lat="43.045709" lon="-5.700201">
        <ele>1488.061</ele>
        <time>1999-07-21T11:02:58Z</time>
      </trkpt>
      <trkpt lat="43.045719" lon="-5.700159">
        <ele>1488.481</ele>
        <time>1999-07-21T11:03:00Z</time>
      </trkpt>
      <trkpt lat="43.045728" lon="-5.700116">
        <ele>1489.072</ele>
        <time>1999-07-21T11:03:02Z</time>
      </trkpt>
      <trkpt lat="43.045743" lon="-5.700026">
        <ele>1490.010</ele>
        <time>1999-07-21T11:03:06Z</time>
      </trkpt>
      <trkpt lat="43.045753" lon="-5.699980">
        <ele>1490.448</ele>
        <time>1999-07-21T11:03:08Z</time>
      </trkpt>
      <trkpt lat="43.045768" lon="-5.699915">
        <ele>1491.269</ele>
        <time>1999-07-21T11:03:11Z</time>
      </trkpt>
      <trkpt lat="43.045790" lon="-5.699805">
        <ele>1492.445</ele>
        <time>1999-07-21T11:03:16Z</time>
      </trkpt>
      <trkpt lat="43.045813" lon="-5.699698">
        <ele>1493.484</ele>
        <time>1999-07-21T11:03:21Z</time>
      </trkpt>
      <trkpt lat="43.045823" lon="-5.699636">
        <ele>1494.207</ele>
        <time>1999-07-21T11:03:24Z</time>
      </trkpt>
      <trkpt lat="43.045826" lon="-5.699616">
        <ele>1494.417</ele>
        <time>1999-07-21T11:03:25Z</time>
      </trkpt>
      <trkpt lat="43.045837" lon="-5.699537">
        <ele>1495.408</ele>
        <time>1999-07-21T11:03:29Z</time>
      </trkpt>
      <trkpt lat="43.045843" lon="-5.699473">
        <ele>1496.821</ele>
        <time>1999-07-21T11:03:32Z</time>
      </trkpt>
      <trkpt lat="43.045843" lon="-5.699452">
        <ele>1497.016</ele>
        <time>1999-07-21T11:03:33Z</time>
      </trkpt>
      <trkpt lat="43.045845" lon="-5.699388">
        <ele>1497.876</ele>
        <time>1999-07-21T11:03:36Z</time>
      </trkpt>
      <trkpt lat="43.045850" lon="-5.699307">
        <ele>1498.857</ele>
        <time>1999-07-21T11:03:40Z</time>
      </trkpt>
      <trkpt lat="43.045852" lon="-5.699286">
        <ele>1499.045</ele>
        <time>1999-07-21T11:03:41Z</time>
      </trkpt>
      <trkpt lat="43.045858" lon="-5.699227">
        <ele>1499.873</ele>
        <time>1999-07-21T11:03:44Z</time>
      </trkpt>
      <trkpt lat="43.045865" lon="-5.699132">
        <ele>1501.084</ele>
        <time>1999-07-21T11:03:49Z</time>
      </trkpt>
      <trkpt lat="43.045872" lon="-5.699062">
        <ele>1502.060</ele>
        <time>1999-07-21T11:03:53Z</time>
      </trkpt>
      <trkpt lat="43.045878" lon="-5.698989">
        <ele>1502.882</ele>
        <time>1999-07-21T11:03:57Z</time>
      </trkpt>
      <trkpt lat="43.045877" lon="-5.698972">
        <ele>1503.043</ele>
        <time>1999-07-21T11:03:58Z</time>
      </trkpt>
      <trkpt lat="43.045887" lon="-5.698880">
        <ele>1504.217</ele>
        <time>1999-07-21T11:04:03Z</time>
      </trkpt>
      <trkpt lat="43.045898" lon="-5.698808">
        <ele>1505.208</ele>
        <time>1999-07-21T11:04:07Z</time>
      </trkpt>
      <trkpt lat="43.045902" lon="-5.698789">
        <ele>1505.291</ele>
        <time>1999-07-21T11:04:08Z</time>
      </trkpt>
      <trkpt lat="43.045912" lon="-5.698719">
        <ele>1506.226</ele>
        <time>1999-07-21T11:04:12Z</time>
      </trkpt>
      <trkpt lat="43.045918" lon="-5.698703">
        <ele>1506.446</ele>
        <time>1999-07-21T11:04:13Z</time>
      </trkpt>
      <trkpt lat="43.045927" lon="-5.698695">
        <ele>1506.657</ele>
        <time>1999-07-21T11:04:14Z</time>
      </trkpt>
      <trkpt lat="43.045968" lon="-5.698714">
        <ele>1507.235</ele>
        <time>1999-07-21T11:04:17Z</time>
      </trkpt>
      <trkpt lat="43.045976" lon="-5.698730">
        <ele>1507.233</ele>
        <time>1999-07-21T11:04:18Z</time>
      </trkpt>
      <trkpt lat="43.045991" lon="-5.698828">
        <ele>1508.294</ele>
        <time>1999-07-21T11:04:23Z</time>
      </trkpt>
      <trkpt lat="43.045995" lon="-5.698884">
        <ele>1508.640</ele>
        <time>1999-07-21T11:04:26Z</time>
      </trkpt>
      <trkpt lat="43.046002" lon="-5.698925">
        <ele>1509.082</ele>
        <time>1999-07-21T11:04:28Z</time>
      </trkpt>
      <trkpt lat="43.046005" lon="-5.698967">
        <ele>1509.843</ele>
        <time>1999-07-21T11:04:30Z</time>
      </trkpt>
      <trkpt lat="43.046018" lon="-5.699072">
        <ele>1510.817</ele>
        <time>1999-07-21T11:04:35Z</time>
      </trkpt>
      <trkpt lat="43.046026" lon="-5.699111">
        <ele>1511.208</ele>
        <time>1999-07-21T11:04:37Z</time>
      </trkpt>
      <trkpt lat="43.046050" lon="-5.699175">
        <ele>1512.011</ele>
        <time>1999-07-21T11:04:41Z</time>
      </trkpt>
      <trkpt lat="43.046089" lon="-5.699282">
        <ele>1512.886</ele>
        <time>1999-07-21T11:04:47Z</time>
      </trkpt>
      <trkpt lat="43.046102" lon="-5.699320">
        <ele>1513.056</ele>
        <time>1999-07-21T11:04:49Z</time>
      </trkpt>
      <trkpt lat="43.046140" lon="-5.699433">
        <ele>1514.287</ele>
        <time>1999-07-21T11:04:55Z</time>
      </trkpt>
      <trkpt lat="43.046153" lon="-5.699470">
        <ele>1514.675</ele>
        <time>1999-07-21T11:04:57Z</time>
      </trkpt>
      <trkpt lat="43.046176" lon="-5.699545">
        <ele>1515.263</ele>
        <time>1999-07-21T11:05:01Z</time>
      </trkpt>
      <trkpt lat="43.046211" lon="-5.699653">
        <ele>1516.454</ele>
        <time>1999-07-21T11:05:07Z</time>
      </trkpt>
      <trkpt lat="43.046230" lon="-5.699791">
        <ele>1517.610</ele>
        <time>1999-07-21T11:05:14Z</time>
      </trkpt>
      <trkpt lat="43.046263" lon="-5.699879">
        <ele>1518.617</ele>
        <time>1999-07-21T11:05:19Z</time>
      </trkpt>
      <trkpt lat="43.046286" lon="-5.699940">
        <ele>1519.087</ele>
        <time>1999-07-21T11:05:22Z</time>
      </trkpt>
      <trkpt lat="43.046307" lon="-5.699998">
        <ele>1519.615</ele>
        <time>1999-07-21T11:05:25Z</time>
      </trkpt>
      <trkpt lat="43.046344" lon="-5.700089">
        <ele>1521.008</ele>
        <time>1999-07-21T11:05:30Z</time>
      </trkpt>
      <trkpt lat="43.046391" lon="-5.700186">
        <ele>1522.044</ele>
        <time>1999-07-21T11:05:36Z</time>
      </trkpt>
      <trkpt lat="43.046400" lon="-5.700218">
        <ele>1522.279</ele>
        <time>1999-07-21T11:05:38Z</time>
      </trkpt>
      <trkpt lat="43.046422" lon="-5.700273">
        <ele>1523.099</ele>
        <time>1999-07-21T11:05:41Z</time>
      </trkpt>
      <trkpt lat="43.046432" lon="-5.700292">
        <ele>1523.010</ele>
        <time>1999-07-21T11:05:42Z</time>
      </trkpt>
      <trkpt lat="43.046479" lon="-5.700388">
        <ele>1524.058</ele>
        <time>1999-07-21T11:05:47Z</time>
      </trkpt>
      <trkpt lat="43.046491" lon="-5.700408">
        <ele>1524.256</ele>
        <time>1999-07-21T11:05:48Z</time>
      </trkpt>
      <trkpt lat="43.046552" lon="-5.700533">
        <ele>1525.227</ele>
        <time>1999-07-21T11:05:54Z</time>
      </trkpt>
      <trkpt lat="43.046562" lon="-5.700553">
        <ele>1525.483</ele>
        <time>1999-07-21T11:05:55Z</time>
      </trkpt>
      <trkpt lat="43.046630" lon="-5.700692">
        <ele>1526.468</ele>
        <time>1999-07-21T11:06:02Z</time>
      </trkpt>
      <trkpt lat="43.046673" lon="-5.700783">
        <ele>1527.442</ele>
        <time>1999-07-21T11:06:06Z</time>
      </trkpt>
      <trkpt lat="43.046704" lon="-5.700902">
        <ele>1528.426</ele>
        <time>1999-07-21T11:06:11Z</time>
      </trkpt>
      <trkpt lat="43.046738" lon="-5.701036">
        <ele>1529.408</ele>
        <time>1999-07-21T11:06:17Z</time>
      </trkpt>
      <trkpt lat="43.046755" lon="-5.701100">
        <ele>1529.829</ele>
        <time>1999-07-21T11:06:20Z</time>
      </trkpt>
      <trkpt lat="43.046770" lon="-5.701171">
        <ele>1530.864</ele>
        <time>1999-07-21T11:06:23Z</time>
      </trkpt>
      <trkpt lat="43.046794" lon="-5.701285">
        <ele>1531.864</ele>
        <time>1999-07-21T11:06:28Z</time>
      </trkpt>
      <trkpt lat="43.046848" lon="-5.701402">
        <ele>1533.015</ele>
        <time>1999-07-21T11:06:34Z</time>
      </trkpt>
      <trkpt lat="43.046855" lon="-5.701424">
        <ele>1533.273</ele>
        <time>1999-07-21T11:06:35Z</time>
      </trkpt>
      <trkpt lat="43.046878" lon="-5.701541">
        <ele>1534.011</ele>
        <time>1999-07-21T11:06:40Z</time>
      </trkpt>
      <trkpt lat="43.046897" lon="-5.701657">
        <ele>1534.862</ele>
        <time>1999-07-21T11:06:45Z</time>
      </trkpt>
      <trkpt lat="43.046896" lon="-5.701709">
        <ele>1535.438</ele>
        <time>1999-07-21T11:06:47Z</time>
      </trkpt>
      <trkpt lat="43.046897" lon="-5.701779">
        <ele>1536.021</ele>
        <time>1999-07-21T11:06:50Z</time>
      </trkpt>
      <trkpt lat="43.046914" lon="-5.701817">
        <ele>1536.641</ele>
        <time>1999-07-21T11:06:52Z</time>
      </trkpt>
      <trkpt lat="43.046946" lon="-5.701892">
        <ele>1537.205</ele>
        <time>1999-07-21T11:06:56Z</time>
      </trkpt>
      <trkpt lat="43.046955" lon="-5.701911">
        <ele>1537.608</ele>
        <time>1999-07-21T11:06:57Z</time>
      </trkpt>
      <trkpt lat="43.047001" lon="-5.702001">
        <ele>1538.825</ele>
        <time>1999-07-21T11:07:02Z</time>
      </trkpt>
      <trkpt lat="43.047031" lon="-5.702059">
        <ele>1539.210</ele>
        <time>1999-07-21T11:07:05Z</time>
      </trkpt>
      <trkpt lat="43.047056" lon="-5.702092">
        <ele>1539.840</ele>
        <time>1999-07-21T11:07:07Z</time>
      </trkpt>
      <trkpt lat="43.047107" lon="-5.702149">
        <ele>1541.081</ele>
        <time>1999-07-21T11:07:11Z</time>
      </trkpt>
      <trkpt lat="43.047120" lon="-5.702162">
        <ele>1541.249</ele>
        <time>1999-07-21T11:07:12Z</time>
      </trkpt>
      <trkpt lat="43.047177" lon="-5.702209">
        <ele>1541.837</ele>
        <time>1999-07-21T11:07:16Z</time>
      </trkpt>
      <trkpt lat="43.047233" lon="-5.702258">
        <ele>1542.848</ele>
        <time>1999-07-21T11:07:20Z</time>
      </trkpt>
      <trkpt lat="43.047247" lon="-5.702270">
        <ele>1543.244</ele>
        <time>1999-07-21T11:07:21Z</time>
      </trkpt>
      <trkpt lat="43.047348" lon="-5.702343">
        <ele>1544.299</ele>
        <time>1999-07-21T11:07:28Z</time>
      </trkpt>
      <trkpt lat="43.047432" lon="-5.702415">
        <ele>1545.407</ele>
        <time>1999-07-21T11:07:34Z</time>
      </trkpt>
      <trkpt lat="43.047517" lon="-5.702501">
        <ele>1546.427</ele>
        <time>1999-07-21T11:07:40Z</time>
      </trkpt>
      <trkpt lat="43.047556" lon="-5.702555">
        <ele>1547.208</ele>
        <time>1999-07-21T11:07:43Z</time>
      </trkpt>
      <trkpt lat="43.047576" lon="-5.702597">
        <ele>1547.682</ele>
        <time>1999-07-21T11:07:45Z</time>
      </trkpt>
      <trkpt lat="43.047604" lon="-5.702663">
        <ele>1548.057</ele>
        <time>1999-07-21T11:07:48Z</time>
      </trkpt>
      <trkpt lat="43.047626" lon="-5.702697">
        <ele>1548.677</ele>
        <time>1999-07-21T11:07:50Z</time>
      </trkpt>
      <trkpt lat="43.047693" lon="-5.702778">
        <ele>1549.288</ele>
        <time>1999-07-21T11:07:55Z</time>
      </trkpt>
      <trkpt lat="43.047721" lon="-5.702807">
        <ele>1549.846</ele>
        <time>1999-07-21T11:07:57Z</time>
      </trkpt>
      <trkpt lat="43.047805" lon="-5.702895">
        <ele>1550.834</ele>
        <time>1999-07-21T11:08:03Z</time>
      </trkpt>
      <trkpt lat="43.047818" lon="-5.702915">
        <ele>1551.065</ele>
        <time>1999-07-21T11:08:04Z</time>
      </trkpt>
      <trkpt lat="43.047895" lon="-5.703027">
        <ele>1551.871</ele>
        <time>1999-07-21T11:08:10Z</time>
      </trkpt>
      <trkpt lat="43.047908" lon="-5.703043">
        <ele>1552.039</ele>
        <time>1999-07-21T11:08:11Z</time>
      </trkpt>
      <trkpt lat="43.047975" lon="-5.703128">
        <ele>1552.801</ele>
        <time>1999-07-21T11:08:16Z</time>
      </trkpt>
      <trkpt lat="43.048029" lon="-5.703188">
        <ele>1554.021</ele>
        <time>1999-07-21T11:08:20Z</time>
      </trkpt>
      <trkpt lat="43.048109" lon="-5.703269">
        <ele>1555.208</ele>
        <time>1999-07-21T11:08:26Z</time>
      </trkpt>
      <trkpt lat="43.048151" lon="-5.703312">
        <ele>1555.616</ele>
        <time>1999-07-21T11:08:29Z</time>
      </trkpt>
      <trkpt lat="43.048198" lon="-5.703350">
        <ele>1556.441</ele>
        <time>1999-07-21T11:08:32Z</time>
      </trkpt>
      <trkpt lat="43.048257" lon="-5.703408">
        <ele>1557.261</ele>
        <time>1999-07-21T11:08:36Z</time>
      </trkpt>
      <trkpt lat="43.048271" lon="-5.703424">
        <ele>1557.412</ele>
        <time>1999-07-21T11:08:37Z</time>
      </trkpt>
      <trkpt lat="43.048358" lon="-5.703511">
        <ele>1558.630</ele>
        <time>1999-07-21T11:08:43Z</time>
      </trkpt>
      <trkpt lat="43.048373" lon="-5.703524">
        <ele>1558.698</ele>
        <time>1999-07-21T11:08:44Z</time>
      </trkpt>
      <trkpt lat="43.048421" lon="-5.703562">
        <ele>1559.649</ele>
        <time>1999-07-21T11:08:47Z</time>
      </trkpt>
      <trkpt lat="43.048452" lon="-5.703584">
        <ele>1559.855</ele>
        <time>1999-07-21T11:08:49Z</time>
      </trkpt>
      <trkpt lat="43.048505" lon="-5.703608">
        <ele>1560.455</ele>
        <time>1999-07-21T11:08:52Z</time>
      </trkpt>
      <trkpt lat="43.048587" lon="-5.703660">
        <ele>1561.407</ele>
        <time>1999-07-21T11:08:57Z</time>
      </trkpt>
      <trkpt lat="43.048636" lon="-5.703691">
        <ele>1561.817</ele>
        <time>1999-07-21T11:09:00Z</time>
      </trkpt>
      <trkpt lat="43.048668" lon="-5.703716">
        <ele>1562.408</ele>
        <time>1999-07-21T11:09:02Z</time>
      </trkpt>
      <trkpt lat="43.048730" lon="-5.703759">
        <ele>1563.438</ele>
        <time>1999-07-21T11:09:06Z</time>
      </trkpt>
      <trkpt lat="43.048792" lon="-5.703815">
        <ele>1564.473</ele>
        <time>1999-07-21T11:09:10Z</time>
      </trkpt>
      <trkpt lat="43.048866" lon="-5.703881">
        <ele>1565.663</ele>
        <time>1999-07-21T11:09:15Z</time>
      </trkpt>
      <trkpt lat="43.048923" lon="-5.703937">
        <ele>1566.844</ele>
        <time>1999-07-21T11:09:19Z</time>
      </trkpt>
      <trkpt lat="43.048938" lon="-5.703950">
        <ele>1567.012</ele>
        <time>1999-07-21T11:09:20Z</time>
      </trkpt>
      <trkpt lat="43.048981" lon="-5.703998">
        <ele>1567.850</ele>
        <time>1999-07-21T11:09:23Z</time>
      </trkpt>
      <trkpt lat="43.049039" lon="-5.704058">
        <ele>1568.821</ele>
        <time>1999-07-21T11:09:27Z</time>
      </trkpt>
      <trkpt lat="43.049055" lon="-5.704069">
        <ele>1569.047</ele>
        <time>1999-07-21T11:09:28Z</time>
      </trkpt>
      <trkpt lat="43.049134" lon="-5.704117">
        <ele>1569.895</ele>
        <time>1999-07-21T11:09:33Z</time>
      </trkpt>
      <trkpt lat="43.049197" lon="-5.704147">
        <ele>1571.049</ele>
        <time>1999-07-21T11:09:37Z</time>
      </trkpt>
      <trkpt lat="43.049212" lon="-5.704154">
        <ele>1571.223</ele>
        <time>1999-07-21T11:09:38Z</time>
      </trkpt>
      <trkpt lat="43.049292" lon="-5.704196">
        <ele>1572.008</ele>
        <time>1999-07-21T11:09:43Z</time>
      </trkpt>
      <trkpt lat="43.049346" lon="-5.704206">
        <ele>1573.222</ele>
        <time>1999-07-21T11:09:46Z</time>
      </trkpt>
      <trkpt lat="43.049363" lon="-5.704205">
        <ele>1573.457</ele>
        <time>1999-07-21T11:09:47Z</time>
      </trkpt>
      <trkpt lat="43.049412" lon="-5.704212">
        <ele>1574.247</ele>
        <time>1999-07-21T11:09:50Z</time>
      </trkpt>
      <trkpt lat="43.049475" lon="-5.704241">
        <ele>1574.848</ele>
        <time>1999-07-21T11:09:54Z</time>
      </trkpt>
      <trkpt lat="43.049512" lon="-5.704248">
        <ele>1575.266</ele>
        <time>1999-07-21T11:09:56Z</time>
      </trkpt>
      <trkpt lat="43.049600" lon="-5.704277">
        <ele>1576.444</ele>
        <time>1999-07-21T11:10:01Z</time>
      </trkpt>
      <trkpt lat="43.049687" lon="-5.704288">
        <ele>1577.645</ele>
        <time>1999-07-21T11:10:06Z</time>
      </trkpt>
      <trkpt lat="43.049739" lon="-5.704303">
        <ele>1578.021</ele>
        <time>1999-07-21T11:10:09Z</time>
      </trkpt>
      <trkpt lat="43.049803" lon="-5.704321">
        <ele>1578.872</ele>
        <time>1999-07-21T11:10:13Z</time>
      </trkpt>
      <trkpt lat="43.049849" lon="-5.704334">
        <ele>1579.413</ele>
        <time>1999-07-21T11:10:16Z</time>
      </trkpt>
      <trkpt lat="43.049882" lon="-5.704339">
        <ele>1580.014</ele>
        <time>1999-07-21T11:10:18Z</time>
      </trkpt>
      <trkpt lat="43.049959" lon="-5.704365">
        <ele>1581.008</ele>
        <time>1999-07-21T11:10:23Z</time>
      </trkpt>
      <trkpt lat="43.049991" lon="-5.704370">
        <ele>1581.620</ele>
        <time>1999-07-21T11:10:25Z</time>
      </trkpt>
      <trkpt lat="43.050052" lon="-5.704376">
        <ele>1582.255</ele>
        <time>1999-07-21T11:10:29Z</time>
      </trkpt>
      <trkpt lat="43.050085" lon="-5.704391">
        <ele>1582.655</ele>
        <time>1999-07-21T11:10:32Z</time>
      </trkpt>
      <trkpt lat="43.050094" lon="-5.704398">
        <ele>1583.056</ele>
        <time>1999-07-21T11:10:35Z</time>
      </trkpt>
      <trkpt lat="43.050178" lon="-5.704354">
        <ele>1584.654</ele>
        <time>1999-07-21T11:11:43Z</time>
      </trkpt>
      <trkpt lat="43.050190" lon="-5.704341">
        <ele>1584.662</ele>
        <time>1999-07-21T11:11:44Z</time>
      </trkpt>
      <trkpt lat="43.050295" lon="-5.704265">
        <ele>1584.843</ele>
        <time>1999-07-21T11:11:51Z</time>
      </trkpt>
      <trkpt lat="43.050346" lon="-5.704208">
        <ele>1585.419</ele>
        <time>1999-07-21T11:11:55Z</time>
      </trkpt>
      <trkpt lat="43.050373" lon="-5.704186">
        <ele>1585.677</ele>
        <time>1999-07-21T11:11:57Z</time>
      </trkpt>
      <trkpt lat="43.050386" lon="-5.704175">
        <ele>1585.661</ele>
        <time>1999-07-21T11:11:58Z</time>
      </trkpt>
      <trkpt lat="43.050425" lon="-5.704146">
        <ele>1586.227</ele>
        <time>1999-07-21T11:12:01Z</time>
      </trkpt>
      <trkpt lat="43.050469" lon="-5.704125">
        <ele>1586.808</ele>
        <time>1999-07-21T11:12:04Z</time>
      </trkpt>
      <trkpt lat="43.050484" lon="-5.704118">
        <ele>1586.870</ele>
        <time>1999-07-21T11:12:05Z</time>
      </trkpt>
      <trkpt lat="43.050515" lon="-5.704099">
        <ele>1587.685</ele>
        <time>1999-07-21T11:12:07Z</time>
      </trkpt>
      <trkpt lat="43.050575" lon="-5.704062">
        <ele>1588.285</ele>
        <time>1999-07-21T11:12:11Z</time>
      </trkpt>
      <trkpt lat="43.050621" lon="-5.704043">
        <ele>1588.866</ele>
        <time>1999-07-21T11:12:14Z</time>
      </trkpt>
      <trkpt lat="43.050691" lon="-5.704044">
        <ele>1589.644</ele>
        <time>1999-07-21T11:12:19Z</time>
      </trkpt>
      <trkpt lat="43.050705" lon="-5.704041">
        <ele>1589.872</ele>
        <time>1999-07-21T11:12:20Z</time>
      </trkpt>
      <trkpt lat="43.050718" lon="-5.704037">
        <ele>1589.813</ele>
        <time>1999-07-21T11:12:21Z</time>
      </trkpt>
      <trkpt lat="43.050773" lon="-5.704015">
        <ele>1590.849</ele>
        <time>1999-07-21T11:12:25Z</time>
      </trkpt>
      <trkpt lat="43.050831" lon="-5.704009">
        <ele>1591.859</ele>
        <time>1999-07-21T11:12:29Z</time>
      </trkpt>
      <trkpt lat="43.050846" lon="-5.704006">
        <ele>1592.003</ele>
        <time>1999-07-21T11:12:30Z</time>
      </trkpt>
      <trkpt lat="43.050906" lon="-5.703983">
        <ele>1592.823</ele>
        <time>1999-07-21T11:12:34Z</time>
      </trkpt>
      <trkpt lat="43.050948" lon="-5.703971">
        <ele>1593.608</ele>
        <time>1999-07-21T11:12:37Z</time>
      </trkpt>
      <trkpt lat="43.050964" lon="-5.703966">
        <ele>1594.068</ele>
        <time>1999-07-21T11:12:38Z</time>
      </trkpt>
      <trkpt lat="43.051047" lon="-5.703949">
        <ele>1594.823</ele>
        <time>1999-07-21T11:12:43Z</time>
      </trkpt>
      <trkpt lat="43.051079" lon="-5.703944">
        <ele>1595.283</ele>
        <time>1999-07-21T11:12:45Z</time>
      </trkpt>
      <trkpt lat="43.051143" lon="-5.703933">
        <ele>1596.044</ele>
        <time>1999-07-21T11:12:49Z</time>
      </trkpt>
      <trkpt lat="43.051212" lon="-5.703922">
        <ele>1597.062</ele>
        <time>1999-07-21T11:12:53Z</time>
      </trkpt>
      <trkpt lat="43.051231" lon="-5.703917">
        <ele>1597.270</ele>
        <time>1999-07-21T11:12:54Z</time>
      </trkpt>
      <trkpt lat="43.051303" lon="-5.703913">
        <ele>1598.451</ele>
        <time>1999-07-21T11:12:58Z</time>
      </trkpt>
      <trkpt lat="43.051337" lon="-5.703906">
        <ele>1598.637</ele>
        <time>1999-07-21T11:13:00Z</time>
      </trkpt>
      <trkpt lat="43.051371" lon="-5.703896">
        <ele>1599.457</ele>
        <time>1999-07-21T11:13:02Z</time>
      </trkpt>
      <trkpt lat="43.051438" lon="-5.703885">
        <ele>1600.600</ele>
        <time>1999-07-21T11:13:06Z</time>
      </trkpt>
      <trkpt lat="43.051520" lon="-5.703868">
        <ele>1601.420</ele>
        <time>1999-07-21T11:13:11Z</time>
      </trkpt>
      <trkpt lat="43.051537" lon="-5.703863">
        <ele>1601.608</ele>
        <time>1999-07-21T11:13:12Z</time>
      </trkpt>
      <trkpt lat="43.051637" lon="-5.703831">
        <ele>1602.828</ele>
        <time>1999-07-21T11:13:18Z</time>
      </trkpt>
      <trkpt lat="43.051654" lon="-5.703830">
        <ele>1603.033</ele>
        <time>1999-07-21T11:13:19Z</time>
      </trkpt>
      <trkpt lat="43.051748" lon="-5.703817">
        <ele>1603.873</ele>
        <time>1999-07-21T11:13:24Z</time>
      </trkpt>
      <trkpt lat="43.051781" lon="-5.703809">
        <ele>1604.244</ele>
        <time>1999-07-21T11:13:26Z</time>
      </trkpt>
      <trkpt lat="43.051872" lon="-5.703793">
        <ele>1605.262</ele>
        <time>1999-07-21T11:13:31Z</time>
      </trkpt>
      <trkpt lat="43.051944" lon="-5.703777">
        <ele>1605.880</ele>
        <time>1999-07-21T11:13:35Z</time>
      </trkpt>
      <trkpt lat="43.051977" lon="-5.703772">
        <ele>1606.641</ele>
        <time>1999-07-21T11:13:37Z</time>
      </trkpt>
      <trkpt lat="43.052052" lon="-5.703782">
        <ele>1607.637</ele>
        <time>1999-07-21T11:13:41Z</time>
      </trkpt>
      <trkpt lat="43.052086" lon="-5.703778">
        <ele>1608.075</ele>
        <time>1999-07-21T11:13:43Z</time>
      </trkpt>
      <trkpt lat="43.052168" lon="-5.703758">
        <ele>1608.828</ele>
        <time>1999-07-21T11:13:48Z</time>
      </trkpt>
      <trkpt lat="43.052237" lon="-5.703736">
        <ele>1609.420</ele>
        <time>1999-07-21T11:13:52Z</time>
      </trkpt>
      <trkpt lat="43.052285" lon="-5.703708">
        <ele>1609.608</ele>
        <time>1999-07-21T11:13:55Z</time>
      </trkpt>
      <trkpt lat="43.052356" lon="-5.703661">
        <ele>1610.890</ele>
        <time>1999-07-21T11:13:59Z</time>
      </trkpt>
      <trkpt lat="43.052390" lon="-5.703643">
        <ele>1611.075</ele>
        <time>1999-07-21T11:14:01Z</time>
      </trkpt>
      <trkpt lat="43.052482" lon="-5.703560">
        <ele>1611.845</ele>
        <time>1999-07-21T11:14:07Z</time>
      </trkpt>
      <trkpt lat="43.052509" lon="-5.703531">
        <ele>1612.426</ele>
        <time>1999-07-21T11:14:09Z</time>
      </trkpt>
      <trkpt lat="43.052554" lon="-5.703509">
        <ele>1613.264</ele>
        <time>1999-07-21T11:14:12Z</time>
      </trkpt>
      <trkpt lat="43.052618" lon="-5.703479">
        <ele>1614.232</ele>
        <time>1999-07-21T11:14:16Z</time>
      </trkpt>
      <trkpt lat="43.052700" lon="-5.703429">
        <ele>1615.493</ele>
        <time>1999-07-21T11:14:21Z</time>
      </trkpt>
      <trkpt lat="43.052761" lon="-5.703376">
        <ele>1616.249</ele>
        <time>1999-07-21T11:14:25Z</time>
      </trkpt>
      <trkpt lat="43.052774" lon="-5.703360">
        <ele>1616.874</ele>
        <time>1999-07-21T11:14:26Z</time>
      </trkpt>
      <trkpt lat="43.052840" lon="-5.703300">
        <ele>1617.856</ele>
        <time>1999-07-21T11:14:31Z</time>
      </trkpt>
      <trkpt lat="43.052852" lon="-5.703286">
        <ele>1618.221</ele>
        <time>1999-07-21T11:14:32Z</time>
      </trkpt>
      <trkpt lat="43.052904" lon="-5.703231">
        <ele>1619.208</ele>
        <time>1999-07-21T11:14:36Z</time>
      </trkpt>
      <trkpt lat="43.052930" lon="-5.703207">
        <ele>1619.640</ele>
        <time>1999-07-21T11:14:38Z</time>
      </trkpt>
      <trkpt lat="43.052972" lon="-5.703167">
        <ele>1620.225</ele>
        <time>1999-07-21T11:14:41Z</time>
      </trkpt>
      <trkpt lat="43.053058" lon="-5.703086">
        <ele>1621.295</ele>
        <time>1999-07-21T11:14:47Z</time>
      </trkpt>
      <trkpt lat="43.053074" lon="-5.703072">
        <ele>1621.486</ele>
        <time>1999-07-21T11:14:48Z</time>
      </trkpt>
      <trkpt lat="43.053155" lon="-5.703014">
        <ele>1622.654</ele>
        <time>1999-07-21T11:14:53Z</time>
      </trkpt>
      <trkpt lat="43.053221" lon="-5.702980">
        <ele>1623.282</ele>
        <time>1999-07-21T11:14:57Z</time>
      </trkpt>
      <trkpt lat="43.053274" lon="-5.702959">
        <ele>1623.643</ele>
        <time>1999-07-21T11:15:00Z</time>
      </trkpt>
      <trkpt lat="43.053382" lon="-5.702941">
        <ele>1624.869</ele>
        <time>1999-07-21T11:15:05Z</time>
      </trkpt>
      <trkpt lat="43.053475" lon="-5.702933">
        <ele>1625.443</ele>
        <time>1999-07-21T11:15:09Z</time>
      </trkpt>
      <trkpt lat="43.053559" lon="-5.702925">
        <ele>1625.864</ele>
        <time>1999-07-21T11:15:12Z</time>
      </trkpt>
      <trkpt lat="43.053691" lon="-5.702912">
        <ele>1626.410</ele>
        <time>1999-07-21T11:15:16Z</time>
      </trkpt>
      <trkpt lat="43.053766" lon="-5.702910">
        <ele>1626.608</ele>
        <time>1999-07-21T11:15:18Z</time>
      </trkpt>
      <trkpt lat="43.053802" lon="-5.702910">
        <ele>1626.897</ele>
        <time>1999-07-21T11:15:19Z</time>
      </trkpt>
      <trkpt lat="43.054094" lon="-5.702900">
        <ele>1626.892</ele>
        <time>1999-07-21T11:15:26Z</time>
      </trkpt>
      <trkpt lat="43.054289" lon="-5.702992">
        <ele>1626.862</ele>
        <time>1999-07-21T11:15:31Z</time>
      </trkpt>
      <trkpt lat="43.054368" lon="-5.703010">
        <ele>1626.883</ele>
        <time>1999-07-21T11:15:33Z</time>
      </trkpt>
      <trkpt lat="43.054512" lon="-5.703044">
        <ele>1626.861</ele>
        <time>1999-07-21T11:15:37Z</time>
      </trkpt>
      <trkpt lat="43.054703" lon="-5.703122">
        <ele>1626.839</ele>
        <time>1999-07-21T11:15:42Z</time>
      </trkpt>
      <trkpt lat="43.054790" lon="-5.703151">
        <ele>1627.030</ele>
        <time>1999-07-21T11:15:44Z</time>
      </trkpt>
      <trkpt lat="43.055090" lon="-5.703253">
        <ele>1627.416</ele>
        <time>1999-07-21T11:15:50Z</time>
      </trkpt>
      <trkpt lat="43.055355" lon="-5.703259">
        <ele>1627.445</ele>
        <time>1999-07-21T11:15:55Z</time>
      </trkpt>
      <trkpt lat="43.055458" lon="-5.703273">
        <ele>1627.447</ele>
        <time>1999-07-21T11:15:57Z</time>
      </trkpt>
      <trkpt lat="43.055591" lon="-5.703339">
        <ele>1627.411</ele>
        <time>1999-07-21T11:16:00Z</time>
      </trkpt>
      <trkpt lat="43.055842" lon="-5.703482">
        <ele>1627.208</ele>
        <time>1999-07-21T11:16:05Z</time>
      </trkpt>
      <trkpt lat="43.055966" lon="-5.703546">
        <ele>1627.097</ele>
        <time>1999-07-21T11:16:07Z</time>
      </trkpt>
      <trkpt lat="43.056147" lon="-5.703658">
        <ele>1627.062</ele>
        <time>1999-07-21T11:16:10Z</time>
      </trkpt>
      <trkpt lat="43.056575" lon="-5.703895">
        <ele>1625.872</ele>
        <time>1999-07-21T11:16:17Z</time>
      </trkpt>
      <trkpt lat="43.056783" lon="-5.704005">
        <ele>1624.813</ele>
        <time>1999-07-21T11:16:20Z</time>
      </trkpt>
      <trkpt lat="43.056918" lon="-5.704075">
        <ele>1624.481</ele>
        <time>1999-07-21T11:16:22Z</time>
      </trkpt>
      <trkpt lat="43.056985" lon="-5.704102">
        <ele>1624.459</ele>
        <time>1999-07-21T11:16:23Z</time>
      </trkpt>
      <trkpt lat="43.057179" lon="-5.704149">
        <ele>1624.040</ele>
        <time>1999-07-21T11:16:26Z</time>
      </trkpt>
      <trkpt lat="43.057239" lon="-5.704162">
        <ele>1623.626</ele>
        <time>1999-07-21T11:16:27Z</time>
      </trkpt>
      <trkpt lat="43.057350" lon="-5.704183">
        <ele>1623.292</ele>
        <time>1999-07-21T11:16:29Z</time>
      </trkpt>
      <trkpt lat="43.057540" lon="-5.704235">
        <ele>1623.073</ele>
        <time>1999-07-21T11:16:33Z</time>
      </trkpt>
      <trkpt lat="43.057578" lon="-5.704243">
        <ele>1623.020</ele>
        <time>1999-07-21T11:16:34Z</time>
      </trkpt>
      <trkpt lat="43.057681" lon="-5.704261">
        <ele>1623.008</ele>
        <time>1999-07-21T11:16:38Z</time>
      </trkpt>
      <trkpt lat="43.057681" lon="-5.704261">
        <ele>1623.032</ele>
        <time>1999-07-21T11:16:40Z</time>
      </trkpt>
      <trkpt lat="43.057666" lon="-5.704222">
        <ele>1622.427</ele>
        <time>1999-07-21T11:21:56Z</time>
      </trkpt>
      <trkpt lat="43.057659" lon="-5.704203">
        <ele>1622.477</ele>
        <time>1999-07-21T11:21:57Z</time>
      </trkpt>
      <trkpt lat="43.057650" lon="-5.704178">
        <ele>1622.438</ele>
        <time>1999-07-21T11:21:58Z</time>
      </trkpt>
      <trkpt lat="43.057632" lon="-5.704070">
        <ele>1622.456</ele>
        <time>1999-07-21T11:22:01Z</time>
      </trkpt>
      <trkpt lat="43.057609" lon="-5.703982">
        <ele>1622.474</ele>
        <time>1999-07-21T11:22:03Z</time>
      </trkpt>
      <trkpt lat="43.057536" lon="-5.703785">
        <ele>1622.435</ele>
        <time>1999-07-21T11:22:07Z</time>
      </trkpt>
      <trkpt lat="43.057520" lon="-5.703733">
        <ele>1622.481</ele>
        <time>1999-07-21T11:22:08Z</time>
      </trkpt>
      <trkpt lat="43.057506" lon="-5.703678">
        <ele>1622.421</ele>
        <time>1999-07-21T11:22:09Z</time>
      </trkpt>
      <trkpt lat="43.057450" lon="-5.703428">
        <ele>1622.041</ele>
        <time>1999-07-21T11:22:13Z</time>
      </trkpt>
      <trkpt lat="43.057424" lon="-5.703280">
        <ele>1621.605</ele>
        <time>1999-07-21T11:22:15Z</time>
      </trkpt>
      <trkpt lat="43.057394" lon="-5.702847">
        <ele>1621.408</ele>
        <time>1999-07-21T11:22:20Z</time>
      </trkpt>
      <trkpt lat="43.057401" lon="-5.702658">
        <ele>1621.275</ele>
        <time>1999-07-21T11:22:22Z</time>
      </trkpt>
      <trkpt lat="43.057444" lon="-5.702265">
        <ele>1620.860</ele>
        <time>1999-07-21T11:22:26Z</time>
      </trkpt>
      <trkpt lat="43.057496" lon="-5.701837">
        <ele>1620.070</ele>
        <time>1999-07-21T11:22:30Z</time>
      </trkpt>
      <trkpt lat="43.057523" lon="-5.701614">
        <ele>1619.881</ele>
        <time>1999-07-21T11:22:32Z</time>
      </trkpt>
      <trkpt lat="43.057548" lon="-5.701391">
        <ele>1618.839</ele>
        <time>1999-07-21T11:22:34Z</time>
      </trkpt>
      <trkpt lat="43.057558" lon="-5.701058">
        <ele>1618.247</ele>
        <time>1999-07-21T11:22:37Z</time>
      </trkpt>
      <trkpt lat="43.057549" lon="-5.700838">
        <ele>1617.898</ele>
        <time>1999-07-21T11:22:39Z</time>
      </trkpt>
      <trkpt lat="43.057535" lon="-5.700546">
        <ele>1617.014</ele>
        <time>1999-07-21T11:22:42Z</time>
      </trkpt>
      <trkpt lat="43.057541" lon="-5.700461">
        <ele>1616.858</ele>
        <time>1999-07-21T11:22:43Z</time>
      </trkpt>
      <trkpt lat="43.057556" lon="-5.700382">
        <ele>1616.452</ele>
        <time>1999-07-21T11:22:44Z</time>
      </trkpt>
      <trkpt lat="43.057606" lon="-5.700241">
        <ele>1615.817</ele>
        <time>1999-07-21T11:22:46Z</time>
      </trkpt>
      <trkpt lat="43.057632" lon="-5.700164">
        <ele>1615.608</ele>
        <time>1999-07-21T11:22:47Z</time>
      </trkpt>
      <trkpt lat="43.057655" lon="-5.700078">
        <ele>1615.498</ele>
        <time>1999-07-21T11:22:48Z</time>
      </trkpt>
      <trkpt lat="43.057745" lon="-5.699812">
        <ele>1614.483</ele>
        <time>1999-07-21T11:22:51Z</time>
      </trkpt>
      <trkpt lat="43.057772" lon="-5.699730">
        <ele>1614.253</ele>
        <time>1999-07-21T11:22:52Z</time>
      </trkpt>
      <trkpt lat="43.057880" lon="-5.699526">
        <ele>1613.484</ele>
        <time>1999-07-21T11:22:55Z</time>
      </trkpt>
      <trkpt lat="43.057931" lon="-5.699465">
        <ele>1613.262</ele>
        <time>1999-07-21T11:22:56Z</time>
      </trkpt>
      <trkpt lat="43.057987" lon="-5.699397">
        <ele>1612.830</ele>
        <time>1999-07-21T11:22:57Z</time>
      </trkpt>
      <trkpt lat="43.058112" lon="-5.699262">
        <ele>1612.671</ele>
        <time>1999-07-21T11:22:59Z</time>
      </trkpt>
      <trkpt lat="43.058258" lon="-5.699155">
        <ele>1612.657</ele>
        <time>1999-07-21T11:23:01Z</time>
      </trkpt>
      <trkpt lat="43.058413" lon="-5.699086">
        <ele>1611.863</ele>
        <time>1999-07-21T11:23:03Z</time>
      </trkpt>
      <trkpt lat="43.058653" lon="-5.698986">
        <ele>1610.444</ele>
        <time>1999-07-21T11:23:06Z</time>
      </trkpt>
      <trkpt lat="43.058801" lon="-5.698944">
        <ele>1609.418</ele>
        <time>1999-07-21T11:23:08Z</time>
      </trkpt>
      <trkpt lat="43.058913" lon="-5.698914">
        <ele>1608.608</ele>
        <time>1999-07-21T11:23:10Z</time>
      </trkpt>
      <trkpt lat="43.058950" lon="-5.698902">
        <ele>1608.239</ele>
        <time>1999-07-21T11:23:11Z</time>
      </trkpt>
      <trkpt lat="43.058980" lon="-5.698892">
        <ele>1608.054</ele>
        <time>1999-07-21T11:23:12Z</time>
      </trkpt>
      <trkpt lat="43.059047" lon="-5.698860">
        <ele>1606.894</ele>
        <time>1999-07-21T11:23:15Z</time>
      </trkpt>
      <trkpt lat="43.059056" lon="-5.698857">
        <ele>1606.635</ele>
        <time>1999-07-21T11:23:16Z</time>
      </trkpt>
      <trkpt lat="43.059058" lon="-5.698864">
        <ele>1605.473</ele>
        <time>1999-07-21T11:23:18Z</time>
      </trkpt>
      <trkpt lat="43.059133" lon="-5.698839">
        <ele>1603.661</ele>
        <time>1999-07-21T11:24:24Z</time>
      </trkpt>
      <trkpt lat="43.059162" lon="-5.698841">
        <ele>1603.672</ele>
        <time>1999-07-21T11:24:25Z</time>
      </trkpt>
      <trkpt lat="43.059278" lon="-5.698846">
        <ele>1603.658</ele>
        <time>1999-07-21T11:24:28Z</time>
      </trkpt>
      <trkpt lat="43.059380" lon="-5.698841">
        <ele>1603.683</ele>
        <time>1999-07-21T11:24:30Z</time>
      </trkpt>
      <trkpt lat="43.059434" lon="-5.698830">
        <ele>1603.625</ele>
        <time>1999-07-21T11:24:31Z</time>
      </trkpt>
      <trkpt lat="43.059588" lon="-5.698783">
        <ele>1603.617</ele>
        <time>1999-07-21T11:24:34Z</time>
      </trkpt>
      <trkpt lat="43.059634" lon="-5.698761">
        <ele>1603.608</ele>
        <time>1999-07-21T11:24:35Z</time>
      </trkpt>
      <trkpt lat="43.059726" lon="-5.698707">
        <ele>1603.621</ele>
        <time>1999-07-21T11:24:37Z</time>
      </trkpt>
      <trkpt lat="43.059824" lon="-5.698630">
        <ele>1603.216</ele>
        <time>1999-07-21T11:24:39Z</time>
      </trkpt>
      <trkpt lat="43.059872" lon="-5.698581">
        <ele>1603.076</ele>
        <time>1999-07-21T11:24:40Z</time>
      </trkpt>
      <trkpt lat="43.059919" lon="-5.698527">
        <ele>1602.617</ele>
        <time>1999-07-21T11:24:41Z</time>
      </trkpt>
      <trkpt lat="43.060041" lon="-5.698322">
        <ele>1602.075</ele>
        <time>1999-07-21T11:24:44Z</time>
      </trkpt>
      <trkpt lat="43.060079" lon="-5.698247">
        <ele>1601.853</ele>
        <time>1999-07-21T11:24:45Z</time>
      </trkpt>
      <trkpt lat="43.060149" lon="-5.698092">
        <ele>1601.484</ele>
        <time>1999-07-21T11:24:47Z</time>
      </trkpt>
      <trkpt lat="43.060212" lon="-5.697835">
        <ele>1600.650</ele>
        <time>1999-07-21T11:24:50Z</time>
      </trkpt>
      <trkpt lat="43.060226" lon="-5.697748">
        <ele>1600.423</ele>
        <time>1999-07-21T11:24:51Z</time>
      </trkpt>
      <trkpt lat="43.060326" lon="-5.697382">
        <ele>1599.883</ele>
        <time>1999-07-21T11:24:56Z</time>
      </trkpt>
      <trkpt lat="43.060456" lon="-5.697196">
        <ele>1599.811</ele>
        <time>1999-07-21T11:25:00Z</time>
      </trkpt>
      <trkpt lat="43.060479" lon="-5.697144">
        <ele>1599.808</ele>
        <time>1999-07-21T11:25:01Z</time>
      </trkpt>
      <trkpt lat="43.060502" lon="-5.696941">
        <ele>1599.835</ele>
        <time>1999-07-21T11:25:05Z</time>
      </trkpt>
      <trkpt lat="43.060498" lon="-5.696896">
        <ele>1600.020</ele>
        <time>1999-07-21T11:25:06Z</time>
      </trkpt>
      <trkpt lat="43.060468" lon="-5.696737">
        <ele>1600.670</ele>
        <time>1999-07-21T11:25:10Z</time>
      </trkpt>
      <trkpt lat="43.060454" lon="-5.696668">
        <ele>1601.061</ele>
        <time>1999-07-21T11:25:12Z</time>
      </trkpt>
      <trkpt lat="43.060442" lon="-5.696603">
        <ele>1601.689</ele>
        <time>1999-07-21T11:25:14Z</time>
      </trkpt>
      <trkpt lat="43.060428" lon="-5.696496">
        <ele>1602.867</ele>
        <time>1999-07-21T11:25:17Z</time>
      </trkpt>
      <trkpt lat="43.060412" lon="-5.696336">
        <ele>1603.838</ele>
        <time>1999-07-21T11:25:21Z</time>
      </trkpt>
      <trkpt lat="43.060402" lon="-5.696209">
        <ele>1604.414</ele>
        <time>1999-07-21T11:25:24Z</time>
      </trkpt>
      <trkpt lat="43.060394" lon="-5.696136">
        <ele>1604.884</ele>
        <time>1999-07-21T11:25:26Z</time>
      </trkpt>
      <trkpt lat="43.060369" lon="-5.695978">
        <ele>1605.407</ele>
        <time>1999-07-21T11:25:30Z</time>
      </trkpt>
      <trkpt lat="43.060359" lon="-5.695891">
        <ele>1605.817</ele>
        <time>1999-07-21T11:25:32Z</time>
      </trkpt>
      <trkpt lat="43.060368" lon="-5.695754">
        <ele>1606.408</ele>
        <time>1999-07-21T11:25:35Z</time>
      </trkpt>
      <trkpt lat="43.060396" lon="-5.695719">
        <ele>1606.621</ele>
        <time>1999-07-21T11:25:36Z</time>
      </trkpt>
      <trkpt lat="43.060530" lon="-5.695665">
        <ele>1606.826</ele>
        <time>1999-07-21T11:25:39Z</time>
      </trkpt>
      <trkpt lat="43.060578" lon="-5.695635">
        <ele>1606.846</ele>
        <time>1999-07-21T11:25:40Z</time>
      </trkpt>
      <trkpt lat="43.060706" lon="-5.695511">
        <ele>1606.847</ele>
        <time>1999-07-21T11:25:43Z</time>
      </trkpt>
      <trkpt lat="43.060789" lon="-5.695426">
        <ele>1606.895</ele>
        <time>1999-07-21T11:25:45Z</time>
      </trkpt>
      <trkpt lat="43.060837" lon="-5.695394">
        <ele>1606.883</ele>
        <time>1999-07-21T11:25:46Z</time>
      </trkpt>
      <trkpt lat="43.060941" lon="-5.695354">
        <ele>1606.844</ele>
        <time>1999-07-21T11:25:48Z</time>
      </trkpt>
      <trkpt lat="43.061251" lon="-5.695262">
        <ele>1605.820</ele>
        <time>1999-07-21T11:25:54Z</time>
      </trkpt>
      <trkpt lat="43.061365" lon="-5.695240">
        <ele>1605.612</ele>
        <time>1999-07-21T11:25:56Z</time>
      </trkpt>
      <trkpt lat="43.061472" lon="-5.695202">
        <ele>1605.432</ele>
        <time>1999-07-21T11:25:58Z</time>
      </trkpt>
      <trkpt lat="43.061574" lon="-5.695149">
        <ele>1605.205</ele>
        <time>1999-07-21T11:26:00Z</time>
      </trkpt>
      <trkpt lat="43.061727" lon="-5.695102">
        <ele>1604.808</ele>
        <time>1999-07-21T11:26:03Z</time>
      </trkpt>
      <trkpt lat="43.061832" lon="-5.695086">
        <ele>1604.614</ele>
        <time>1999-07-21T11:26:05Z</time>
      </trkpt>
      <trkpt lat="43.061988" lon="-5.695087">
        <ele>1604.669</ele>
        <time>1999-07-21T11:26:08Z</time>
      </trkpt>
      <trkpt lat="43.062151" lon="-5.695080">
        <ele>1604.619</ele>
        <time>1999-07-21T11:26:11Z</time>
      </trkpt>
      <trkpt lat="43.062209" lon="-5.695065">
        <ele>1604.490</ele>
        <time>1999-07-21T11:26:12Z</time>
      </trkpt>
      <trkpt lat="43.062373" lon="-5.694963">
        <ele>1604.438</ele>
        <time>1999-07-21T11:26:15Z</time>
      </trkpt>
      <trkpt lat="43.062423" lon="-5.694928">
        <ele>1604.216</ele>
        <time>1999-07-21T11:26:16Z</time>
      </trkpt>
      <trkpt lat="43.062471" lon="-5.694898">
        <ele>1604.287</ele>
        <time>1999-07-21T11:26:17Z</time>
      </trkpt>
      <trkpt lat="43.062600" lon="-5.694846">
        <ele>1603.633</ele>
        <time>1999-07-21T11:26:20Z</time>
      </trkpt>
      <trkpt lat="43.062614" lon="-5.694844">
        <ele>1603.238</ele>
        <time>1999-07-21T11:26:23Z</time>
      </trkpt>
      <trkpt lat="43.062609" lon="-5.694845">
        <ele>1601.270</ele>
        <time>1999-07-21T11:28:30Z</time>
      </trkpt>
      <trkpt lat="43.062673" lon="-5.694857">
        <ele>1601.217</ele>
        <time>1999-07-21T11:28:32Z</time>
      </trkpt>
      <trkpt lat="43.062752" lon="-5.694892">
        <ele>1601.208</ele>
        <time>1999-07-21T11:28:34Z</time>
      </trkpt>
      <trkpt lat="43.062831" lon="-5.694975">
        <ele>1601.266</ele>
        <time>1999-07-21T11:28:36Z</time>
      </trkpt>
      <trkpt lat="43.062917" lon="-5.695077">
        <ele>1601.231</ele>
        <time>1999-07-21T11:28:38Z</time>
      </trkpt>
      <trkpt lat="43.063053" lon="-5.695268">
        <ele>1601.211</ele>
        <time>1999-07-21T11:28:41Z</time>
      </trkpt>
      <trkpt lat="43.063348" lon="-5.695535">
        <ele>1601.062</ele>
        <time>1999-07-21T11:28:46Z</time>
      </trkpt>
      <trkpt lat="43.063499" lon="-5.695584">
        <ele>1600.690</ele>
        <time>1999-07-21T11:28:48Z</time>
      </trkpt>
      <trkpt lat="43.063652" lon="-5.695620">
        <ele>1599.868</ele>
        <time>1999-07-21T11:28:50Z</time>
      </trkpt>
      <trkpt lat="43.063797" lon="-5.695663">
        <ele>1599.419</ele>
        <time>1999-07-21T11:28:52Z</time>
      </trkpt>
      <trkpt lat="43.064086" lon="-5.695744">
        <ele>1598.285</ele>
        <time>1999-07-21T11:28:56Z</time>
      </trkpt>
      <trkpt lat="43.064158" lon="-5.695759">
        <ele>1598.065</ele>
        <time>1999-07-21T11:28:57Z</time>
      </trkpt>
      <trkpt lat="43.064366" lon="-5.695806">
        <ele>1597.268</ele>
        <time>1999-07-21T11:29:00Z</time>
      </trkpt>
      <trkpt lat="43.064625" lon="-5.695858">
        <ele>1596.814</ele>
        <time>1999-07-21T11:29:04Z</time>
      </trkpt>
      <trkpt lat="43.064986" lon="-5.695918">
        <ele>1596.608</ele>
        <time>1999-07-21T11:29:10Z</time>
      </trkpt>
      <trkpt lat="43.065205" lon="-5.695970">
        <ele>1596.669</ele>
        <time>1999-07-21T11:29:14Z</time>
      </trkpt>
      <trkpt lat="43.065257" lon="-5.695980">
        <ele>1596.614</ele>
        <time>1999-07-21T11:29:15Z</time>
      </trkpt>
      <trkpt lat="43.065355" lon="-5.696000">
        <ele>1596.684</ele>
        <time>1999-07-21T11:29:17Z</time>
      </trkpt>
      <trkpt lat="43.065545" lon="-5.696032">
        <ele>1597.095</ele>
        <time>1999-07-21T11:29:21Z</time>
      </trkpt>
      <trkpt lat="43.065679" lon="-5.696010">
        <ele>1597.243</ele>
        <time>1999-07-21T11:29:24Z</time>
      </trkpt>
      <trkpt lat="43.065786" lon="-5.695963">
        <ele>1597.671</ele>
        <time>1999-07-21T11:29:27Z</time>
      </trkpt>
      <trkpt lat="43.065872" lon="-5.695906">
        <ele>1598.012</ele>
        <time>1999-07-21T11:29:30Z</time>
      </trkpt>
      <trkpt lat="43.065918" lon="-5.695870">
        <ele>1598.628</ele>
        <time>1999-07-21T11:29:32Z</time>
      </trkpt>
      <trkpt lat="43.066009" lon="-5.695794">
        <ele>1599.886</ele>
        <time>1999-07-21T11:29:36Z</time>
      </trkpt>
      <trkpt lat="43.066051" lon="-5.695754">
        <ele>1600.460</ele>
        <time>1999-07-21T11:29:38Z</time>
      </trkpt>
      <trkpt lat="43.066095" lon="-5.695708">
        <ele>1601.026</ele>
        <time>1999-07-21T11:29:40Z</time>
      </trkpt>
      <trkpt lat="43.066175" lon="-5.695632">
        <ele>1602.008</ele>
        <time>1999-07-21T11:29:44Z</time>
      </trkpt>
      <trkpt lat="43.066192" lon="-5.695611">
        <ele>1602.221</ele>
        <time>1999-07-21T11:29:45Z</time>
      </trkpt>
      <trkpt lat="43.066257" lon="-5.695522">
        <ele>1603.256</ele>
        <time>1999-07-21T11:29:49Z</time>
      </trkpt>
      <trkpt lat="43.066336" lon="-5.695408">
        <ele>1604.426</ele>
        <time>1999-07-21T11:29:54Z</time>
      </trkpt>
      <trkpt lat="43.066396" lon="-5.695269">
        <ele>1605.697</ele>
        <time>1999-07-21T11:29:59Z</time>
      </trkpt>
      <trkpt lat="43.066444" lon="-5.695051">
        <ele>1606.625</ele>
        <time>1999-07-21T11:30:05Z</time>
      </trkpt>
      <trkpt lat="43.066464" lon="-5.694950">
        <ele>1606.853</ele>
        <time>1999-07-21T11:30:08Z</time>
      </trkpt>
      <trkpt lat="43.066516" lon="-5.694774">
        <ele>1607.414</ele>
        <time>1999-07-21T11:30:13Z</time>
      </trkpt>
      <trkpt lat="43.066587" lon="-5.694657">
        <ele>1607.880</ele>
        <time>1999-07-21T11:30:17Z</time>
      </trkpt>
      <trkpt lat="43.066623" lon="-5.694598">
        <ele>1608.225</ele>
        <time>1999-07-21T11:30:19Z</time>
      </trkpt>
      <trkpt lat="43.066681" lon="-5.694454">
        <ele>1608.426</ele>
        <time>1999-07-21T11:30:24Z</time>
      </trkpt>
      <trkpt lat="43.066692" lon="-5.694324">
        <ele>1608.808</ele>
        <time>1999-07-21T11:30:28Z</time>
      </trkpt>
      <trkpt lat="43.066714" lon="-5.694242">
        <ele>1609.408</ele>
        <time>1999-07-21T11:30:31Z</time>
      </trkpt>
      <trkpt lat="43.066727" lon="-5.694219">
        <ele>1609.425</ele>
        <time>1999-07-21T11:30:32Z</time>
      </trkpt>
      <trkpt lat="43.066787" lon="-5.694165">
        <ele>1610.030</ele>
        <time>1999-07-21T11:30:35Z</time>
      </trkpt>
      <trkpt lat="43.066809" lon="-5.694151">
        <ele>1610.250</ele>
        <time>1999-07-21T11:30:36Z</time>
      </trkpt>
      <trkpt lat="43.066859" lon="-5.694141">
        <ele>1610.221</ele>
        <time>1999-07-21T11:30:38Z</time>
      </trkpt>
      <trkpt lat="43.066900" lon="-5.694168">
        <ele>1610.479</ele>
        <time>1999-07-21T11:30:40Z</time>
      </trkpt>
      <trkpt lat="43.066982" lon="-5.694291">
        <ele>1610.647</ele>
        <time>1999-07-21T11:30:44Z</time>
      </trkpt>
      <trkpt lat="43.067008" lon="-5.694331">
        <ele>1610.698</ele>
        <time>1999-07-21T11:30:45Z</time>
      </trkpt>
      <trkpt lat="43.067057" lon="-5.694425">
        <ele>1610.684</ele>
        <time>1999-07-21T11:30:47Z</time>
      </trkpt>
      <trkpt lat="43.067106" lon="-5.694546">
        <ele>1610.696</ele>
        <time>1999-07-21T11:30:49Z</time>
      </trkpt>
      <trkpt lat="43.067133" lon="-5.694614">
        <ele>1610.631</ele>
        <time>1999-07-21T11:30:50Z</time>
      </trkpt>
      <trkpt lat="43.067167" lon="-5.694679">
        <ele>1610.624</ele>
        <time>1999-07-21T11:30:51Z</time>
      </trkpt>
      <trkpt lat="43.067306" lon="-5.694885">
        <ele>1610.608</ele>
        <time>1999-07-21T11:30:54Z</time>
      </trkpt>
      <trkpt lat="43.067473" lon="-5.695086">
        <ele>1609.842</ele>
        <time>1999-07-21T11:30:57Z</time>
      </trkpt>
      <trkpt lat="43.067535" lon="-5.695129">
        <ele>1609.887</ele>
        <time>1999-07-21T11:30:58Z</time>
      </trkpt>
      <trkpt lat="43.067657" lon="-5.695140">
        <ele>1609.087</ele>
        <time>1999-07-21T11:31:00Z</time>
      </trkpt>
      <trkpt lat="43.067719" lon="-5.695125">
        <ele>1608.458</ele>
        <time>1999-07-21T11:31:01Z</time>
      </trkpt>
      <trkpt lat="43.067784" lon="-5.695106">
        <ele>1608.056</ele>
        <time>1999-07-21T11:31:02Z</time>
      </trkpt>
      <trkpt lat="43.067851" lon="-5.695085">
        <ele>1607.434</ele>
        <time>1999-07-21T11:31:03Z</time>
      </trkpt>
      <trkpt lat="43.067919" lon="-5.695054">
        <ele>1607.035</ele>
        <time>1999-07-21T11:31:04Z</time>
      </trkpt>
      <trkpt lat="43.067986" lon="-5.695004">
        <ele>1606.471</ele>
        <time>1999-07-21T11:31:05Z</time>
      </trkpt>
      <trkpt lat="43.068053" lon="-5.694945">
        <ele>1605.857</ele>
        <time>1999-07-21T11:31:06Z</time>
      </trkpt>
      <trkpt lat="43.068124" lon="-5.694899">
        <ele>1605.200</ele>
        <time>1999-07-21T11:31:07Z</time>
      </trkpt>
      <trkpt lat="43.068194" lon="-5.694868">
        <ele>1604.620</ele>
        <time>1999-07-21T11:31:08Z</time>
      </trkpt>
      <trkpt lat="43.068255" lon="-5.694838">
        <ele>1604.208</ele>
        <time>1999-07-21T11:31:09Z</time>
      </trkpt>
      <trkpt lat="43.068349" lon="-5.694785">
        <ele>1603.678</ele>
        <time>1999-07-21T11:31:11Z</time>
      </trkpt>
      <trkpt lat="43.068391" lon="-5.694773">
        <ele>1603.063</ele>
        <time>1999-07-21T11:31:12Z</time>
      </trkpt>
      <trkpt lat="43.068435" lon="-5.694760">
        <ele>1602.663</ele>
        <time>1999-07-21T11:31:13Z</time>
      </trkpt>
      <trkpt lat="43.068480" lon="-5.694738">
        <ele>1602.064</ele>
        <time>1999-07-21T11:31:14Z</time>
      </trkpt>
      <trkpt lat="43.068577" lon="-5.694669">
        <ele>1601.442</ele>
        <time>1999-07-21T11:31:16Z</time>
      </trkpt>
      <trkpt lat="43.068634" lon="-5.694636">
        <ele>1600.640</ele>
        <time>1999-07-21T11:31:17Z</time>
      </trkpt>
      <trkpt lat="43.068763" lon="-5.694596">
        <ele>1598.851</ele>
        <time>1999-07-21T11:31:19Z</time>
      </trkpt>
      <trkpt lat="43.068911" lon="-5.694592">
        <ele>1597.837</ele>
        <time>1999-07-21T11:31:21Z</time>
      </trkpt>
      <trkpt lat="43.068982" lon="-5.694613">
        <ele>1597.697</ele>
        <time>1999-07-21T11:31:22Z</time>
      </trkpt>
      <trkpt lat="43.069076" lon="-5.694659">
        <ele>1597.223</ele>
        <time>1999-07-21T11:31:24Z</time>
      </trkpt>
      <trkpt lat="43.069099" lon="-5.694667">
        <ele>1596.825</ele>
        <time>1999-07-21T11:31:25Z</time>
      </trkpt>
      <trkpt lat="43.069139" lon="-5.694675">
        <ele>1596.408</ele>
        <time>1999-07-21T11:31:27Z</time>
      </trkpt>
      <trkpt lat="43.069160" lon="-5.694675">
        <ele>1595.292</ele>
        <time>1999-07-21T11:31:28Z</time>
      </trkpt>
      <trkpt lat="43.069181" lon="-5.694685">
        <ele>1594.647</ele>
        <time>1999-07-21T11:31:29Z</time>
      </trkpt>
      <trkpt lat="43.069222" lon="-5.694718">
        <ele>1594.077</ele>
        <time>1999-07-21T11:31:31Z</time>
      </trkpt>
      <trkpt lat="43.069291" lon="-5.694804">
        <ele>1593.668</ele>
        <time>1999-07-21T11:31:34Z</time>
      </trkpt>
      <trkpt lat="43.069313" lon="-5.694882">
        <ele>1593.436</ele>
        <time>1999-07-21T11:31:36Z</time>
      </trkpt>
      <trkpt lat="43.069316" lon="-5.694935">
        <ele>1593.444</ele>
        <time>1999-07-21T11:31:38Z</time>
      </trkpt>
      <trkpt lat="43.069320" lon="-5.694981">
        <ele>1593.485</ele>
        <time>1999-07-21T11:31:40Z</time>
      </trkpt>
      <trkpt lat="43.069319" lon="-5.695052">
        <ele>1593.491</ele>
        <time>1999-07-21T11:31:42Z</time>
      </trkpt>
      <trkpt lat="43.069315" lon="-5.695100">
        <ele>1594.028</ele>
        <time>1999-07-21T11:31:44Z</time>
      </trkpt>
      <trkpt lat="43.069312" lon="-5.695147">
        <ele>1594.489</ele>
        <time>1999-07-21T11:31:46Z</time>
      </trkpt>
      <trkpt lat="43.069316" lon="-5.695193">
        <ele>1594.817</ele>
        <time>1999-07-21T11:31:48Z</time>
      </trkpt>
      <trkpt lat="43.069321" lon="-5.695214">
        <ele>1594.808</ele>
        <time>1999-07-21T11:31:49Z</time>
      </trkpt>
      <trkpt lat="43.069328" lon="-5.695233">
        <ele>1595.295</ele>
        <time>1999-07-21T11:31:50Z</time>
      </trkpt>
      <trkpt lat="43.069351" lon="-5.695297">
        <ele>1596.220</ele>
        <time>1999-07-21T11:31:53Z</time>
      </trkpt>
      <trkpt lat="43.069378" lon="-5.695365">
        <ele>1597.810</ele>
        <time>1999-07-21T11:31:56Z</time>
      </trkpt>
      <trkpt lat="43.069386" lon="-5.695389">
        <ele>1598.031</ele>
        <time>1999-07-21T11:31:57Z</time>
      </trkpt>
      <trkpt lat="43.069407" lon="-5.695479">
        <ele>1598.869</ele>
        <time>1999-07-21T11:32:01Z</time>
      </trkpt>
      <trkpt lat="43.069420" lon="-5.695545">
        <ele>1599.497</ele>
        <time>1999-07-21T11:32:04Z</time>
      </trkpt>
      <trkpt lat="43.069438" lon="-5.695601">
        <ele>1599.838</ele>
        <time>1999-07-21T11:32:07Z</time>
      </trkpt>
      <trkpt lat="43.069477" lon="-5.695691">
        <ele>1601.044</ele>
        <time>1999-07-21T11:32:12Z</time>
      </trkpt>
      <trkpt lat="43.069485" lon="-5.695709">
        <ele>1601.232</ele>
        <time>1999-07-21T11:32:13Z</time>
      </trkpt>
      <trkpt lat="43.069528" lon="-5.695769">
        <ele>1602.292</ele>
        <time>1999-07-21T11:32:17Z</time>
      </trkpt>
      <trkpt lat="43.069579" lon="-5.695835">
        <ele>1603.011</ele>
        <time>1999-07-21T11:32:21Z</time>
      </trkpt>
      <trkpt lat="43.069606" lon="-5.695862">
        <ele>1603.408</ele>
        <time>1999-07-21T11:32:23Z</time>
      </trkpt>
      <trkpt lat="43.069649" lon="-5.695898">
        <ele>1604.666</ele>
        <time>1999-07-21T11:32:26Z</time>
      </trkpt>
      <trkpt lat="43.069690" lon="-5.695944">
        <ele>1605.211</ele>
        <time>1999-07-21T11:32:29Z</time>
      </trkpt>
      <trkpt lat="43.069719" lon="-5.695976">
        <ele>1605.621</ele>
        <time>1999-07-21T11:32:31Z</time>
      </trkpt>
      <trkpt lat="43.069807" lon="-5.696066">
        <ele>1606.822</ele>
        <time>1999-07-21T11:32:37Z</time>
      </trkpt>
      <trkpt lat="43.069841" lon="-5.696070">
        <ele>1607.230</ele>
        <time>1999-07-21T11:32:39Z</time>
      </trkpt>
      <trkpt lat="43.069874" lon="-5.696018">
        <ele>1608.088</ele>
        <time>1999-07-21T11:32:42Z</time>
      </trkpt>
      <trkpt lat="43.069840" lon="-5.695927">
        <ele>1608.679</ele>
        <time>1999-07-21T11:32:46Z</time>
      </trkpt>
      <trkpt lat="43.069823" lon="-5.695912">
        <ele>1608.895</ele>
        <time>1999-07-21T11:32:47Z</time>
      </trkpt>
      <trkpt lat="43.069807" lon="-5.695901">
        <ele>1609.018</ele>
        <time>1999-07-21T11:32:48Z</time>
      </trkpt>
      <trkpt lat="43.069761" lon="-5.695832">
        <ele>1609.898</ele>
        <time>1999-07-21T11:32:52Z</time>
      </trkpt>
      <trkpt lat="43.069752" lon="-5.695810">
        <ele>1610.217</ele>
        <time>1999-07-21T11:32:53Z</time>
      </trkpt>
      <trkpt lat="43.069714" lon="-5.695700">
        <ele>1611.208</ele>
        <time>1999-07-21T11:32:58Z</time>
      </trkpt>
      <trkpt lat="43.069691" lon="-5.695576">
        <ele>1612.244</ele>
        <time>1999-07-21T11:33:03Z</time>
      </trkpt>
      <trkpt lat="43.069670" lon="-5.695462">
        <ele>1613.449</ele>
        <time>1999-07-21T11:33:08Z</time>
      </trkpt>
      <trkpt lat="43.069655" lon="-5.695324">
        <ele>1614.419</ele>
        <time>1999-07-21T11:33:13Z</time>
      </trkpt>
      <trkpt lat="43.069647" lon="-5.695217">
        <ele>1615.230</ele>
        <time>1999-07-21T11:33:17Z</time>
      </trkpt>
      <trkpt lat="43.069646" lon="-5.695165">
        <ele>1615.668</ele>
        <time>1999-07-21T11:33:19Z</time>
      </trkpt>
      <trkpt lat="43.069661" lon="-5.695010">
        <ele>1616.836</ele>
        <time>1999-07-21T11:33:25Z</time>
      </trkpt>
      <trkpt lat="43.069672" lon="-5.694963">
        <ele>1617.257</ele>
        <time>1999-07-21T11:33:27Z</time>
      </trkpt>
      <trkpt lat="43.069691" lon="-5.694893">
        <ele>1617.813</ele>
        <time>1999-07-21T11:33:30Z</time>
      </trkpt>
      <trkpt lat="43.069710" lon="-5.694799">
        <ele>1619.089</ele>
        <time>1999-07-21T11:33:34Z</time>
      </trkpt>
      <trkpt lat="43.069715" lon="-5.694777">
        <ele>1619.006</ele>
        <time>1999-07-21T11:33:35Z</time>
      </trkpt>
      <trkpt lat="43.069745" lon="-5.694699">
        <ele>1620.026</ele>
        <time>1999-07-21T11:33:39Z</time>
      </trkpt>
      <trkpt lat="43.069770" lon="-5.694643">
        <ele>1620.808</ele>
        <time>1999-07-21T11:33:42Z</time>
      </trkpt>
      <trkpt lat="43.069788" lon="-5.694611">
        <ele>1621.421</ele>
        <time>1999-07-21T11:33:44Z</time>
      </trkpt>
      <trkpt lat="43.069801" lon="-5.694603">
        <ele>1621.636</ele>
        <time>1999-07-21T11:33:45Z</time>
      </trkpt>
      <trkpt lat="43.069834" lon="-5.694619">
        <ele>1622.466</ele>
        <time>1999-07-21T11:33:47Z</time>
      </trkpt>
      <trkpt lat="43.069834" lon="-5.694687">
        <ele>1623.497</ele>
        <time>1999-07-21T11:33:50Z</time>
      </trkpt>
      <trkpt lat="43.069826" lon="-5.694711">
        <ele>1623.655</ele>
        <time>1999-07-21T11:33:51Z</time>
      </trkpt>
      <trkpt lat="43.069806" lon="-5.694829">
        <ele>1624.483</ele>
        <time>1999-07-21T11:33:56Z</time>
      </trkpt>
      <trkpt lat="43.069807" lon="-5.694853">
        <ele>1624.894</ele>
        <time>1999-07-21T11:33:57Z</time>
      </trkpt>
      <trkpt lat="43.069808" lon="-5.694933">
        <ele>1625.630</ele>
        <time>1999-07-21T11:34:00Z</time>
      </trkpt>
      <trkpt lat="43.069834" lon="-5.695074">
        <ele>1626.472</ele>
        <time>1999-07-21T11:34:05Z</time>
      </trkpt>
      <trkpt lat="43.069857" lon="-5.695121">
        <ele>1626.613</ele>
        <time>1999-07-21T11:34:07Z</time>
      </trkpt>
      <trkpt lat="43.069916" lon="-5.695191">
        <ele>1627.214</ele>
        <time>1999-07-21T11:34:11Z</time>
      </trkpt>
      <trkpt lat="43.069963" lon="-5.695254">
        <ele>1628.008</ele>
        <time>1999-07-21T11:34:15Z</time>
      </trkpt>
      <trkpt lat="43.070013" lon="-5.695319">
        <ele>1629.080</ele>
        <time>1999-07-21T11:34:19Z</time>
      </trkpt>
      <trkpt lat="43.070062" lon="-5.695366">
        <ele>1630.245</ele>
        <time>1999-07-21T11:34:23Z</time>
      </trkpt>
      <trkpt lat="43.070115" lon="-5.695428">
        <ele>1631.225</ele>
        <time>1999-07-21T11:34:28Z</time>
      </trkpt>
      <trkpt lat="43.070125" lon="-5.695441">
        <ele>1631.486</ele>
        <time>1999-07-21T11:34:29Z</time>
      </trkpt>
      <trkpt lat="43.070175" lon="-5.695506">
        <ele>1632.454</ele>
        <time>1999-07-21T11:34:34Z</time>
      </trkpt>
      <trkpt lat="43.070192" lon="-5.695530">
        <ele>1632.862</ele>
        <time>1999-07-21T11:34:36Z</time>
      </trkpt>
      <trkpt lat="43.070210" lon="-5.695553">
        <ele>1633.483</ele>
        <time>1999-07-21T11:34:38Z</time>
      </trkpt>
      <trkpt lat="43.070248" lon="-5.695628">
        <ele>1634.659</ele>
        <time>1999-07-21T11:34:43Z</time>
      </trkpt>
      <trkpt lat="43.070258" lon="-5.695645">
        <ele>1634.815</ele>
        <time>1999-07-21T11:34:44Z</time>
      </trkpt>
      <trkpt lat="43.070289" lon="-5.695683">
        <ele>1635.865</ele>
        <time>1999-07-21T11:34:47Z</time>
      </trkpt>
      <trkpt lat="43.070318" lon="-5.695720">
        <ele>1636.411</ele>
        <time>1999-07-21T11:34:50Z</time>
      </trkpt>
      <trkpt lat="43.070336" lon="-5.695750">
        <ele>1637.008</ele>
        <time>1999-07-21T11:34:52Z</time>
      </trkpt>
      <trkpt lat="43.070384" lon="-5.695810">
        <ele>1638.284</ele>
        <time>1999-07-21T11:34:57Z</time>
      </trkpt>
      <trkpt lat="43.070394" lon="-5.695822">
        <ele>1638.459</ele>
        <time>1999-07-21T11:34:58Z</time>
      </trkpt>
      <trkpt lat="43.070426" lon="-5.695850">
        <ele>1639.279</ele>
        <time>1999-07-21T11:35:01Z</time>
      </trkpt>
      <trkpt lat="43.070455" lon="-5.695871">
        <ele>1640.090</ele>
        <time>1999-07-21T11:35:04Z</time>
      </trkpt>
      <trkpt lat="43.070464" lon="-5.695886">
        <ele>1640.278</ele>
        <time>1999-07-21T11:35:05Z</time>
      </trkpt>
      <trkpt lat="43.070473" lon="-5.695900">
        <ele>1640.446</ele>
        <time>1999-07-21T11:35:06Z</time>
      </trkpt>
      <trkpt lat="43.070526" lon="-5.695988">
        <ele>1641.487</ele>
        <time>1999-07-21T11:35:12Z</time>
      </trkpt>
      <trkpt lat="43.070536" lon="-5.696001">
        <ele>1641.643</ele>
        <time>1999-07-21T11:35:13Z</time>
      </trkpt>
      <trkpt lat="43.070560" lon="-5.696086">
        <ele>1642.428</ele>
        <time>1999-07-21T11:35:17Z</time>
      </trkpt>
      <trkpt lat="43.070570" lon="-5.696105">
        <ele>1642.689</ele>
        <time>1999-07-21T11:35:18Z</time>
      </trkpt>
      <trkpt lat="43.070578" lon="-5.696123">
        <ele>1643.017</ele>
        <time>1999-07-21T11:35:19Z</time>
      </trkpt>
      <trkpt lat="43.070634" lon="-5.696233">
        <ele>1644.208</ele>
        <time>1999-07-21T11:35:26Z</time>
      </trkpt>
      <trkpt lat="43.070640" lon="-5.696252">
        <ele>1644.295</ele>
        <time>1999-07-21T11:35:27Z</time>
      </trkpt>
      <trkpt lat="43.070697" lon="-5.696357">
        <ele>1645.270</ele>
        <time>1999-07-21T11:35:33Z</time>
      </trkpt>
      <trkpt lat="43.070712" lon="-5.696392">
        <ele>1645.690</ele>
        <time>1999-07-21T11:35:35Z</time>
      </trkpt>
      <trkpt lat="43.070739" lon="-5.696441">
        <ele>1646.091</ele>
        <time>1999-07-21T11:35:38Z</time>
      </trkpt>
      <trkpt lat="43.070775" lon="-5.696526">
        <ele>1647.089</ele>
        <time>1999-07-21T11:35:43Z</time>
      </trkpt>
      <trkpt lat="43.070782" lon="-5.696544">
        <ele>1647.277</ele>
        <time>1999-07-21T11:35:44Z</time>
      </trkpt>
      <trkpt lat="43.070838" lon="-5.696639">
        <ele>1648.278</ele>
        <time>1999-07-21T11:35:50Z</time>
      </trkpt>
      <trkpt lat="43.070847" lon="-5.696655">
        <ele>1648.414</ele>
        <time>1999-07-21T11:35:51Z</time>
      </trkpt>
      <trkpt lat="43.070920" lon="-5.696750">
        <ele>1649.462</ele>
        <time>1999-07-21T11:35:57Z</time>
      </trkpt>
      <trkpt lat="43.070934" lon="-5.696765">
        <ele>1649.883</ele>
        <time>1999-07-21T11:35:58Z</time>
      </trkpt>
      <trkpt lat="43.071015" lon="-5.696774">
        <ele>1650.411</ele>
        <time>1999-07-21T11:36:03Z</time>
      </trkpt>
      <trkpt lat="43.071107" lon="-5.696705">
        <ele>1651.808</ele>
        <time>1999-07-21T11:36:09Z</time>
      </trkpt>
      <trkpt lat="43.071143" lon="-5.696680">
        <ele>1652.699</ele>
        <time>1999-07-21T11:36:11Z</time>
      </trkpt>
      <trkpt lat="43.071159" lon="-5.696668">
        <ele>1652.824</ele>
        <time>1999-07-21T11:36:12Z</time>
      </trkpt>
      <trkpt lat="43.071264" lon="-5.696599">
        <ele>1653.814</ele>
        <time>1999-07-21T11:36:18Z</time>
      </trkpt>
      <trkpt lat="43.071301" lon="-5.696576">
        <ele>1654.035</ele>
        <time>1999-07-21T11:36:20Z</time>
      </trkpt>
      <trkpt lat="43.071393" lon="-5.696545">
        <ele>1655.093</ele>
        <time>1999-07-21T11:36:25Z</time>
      </trkpt>
      <trkpt lat="43.071413" lon="-5.696539">
        <ele>1655.221</ele>
        <time>1999-07-21T11:36:26Z</time>
      </trkpt>
      <trkpt lat="43.071540" lon="-5.696502">
        <ele>1656.032</ele>
        <time>1999-07-21T11:36:33Z</time>
      </trkpt>
      <trkpt lat="43.071558" lon="-5.696497">
        <ele>1656.218</ele>
        <time>1999-07-21T11:36:34Z</time>
      </trkpt>
      <trkpt lat="43.071632" lon="-5.696464">
        <ele>1657.638</ele>
        <time>1999-07-21T11:36:39Z</time>
      </trkpt>
      <trkpt lat="43.071718" lon="-5.696430">
        <ele>1658.670</ele>
        <time>1999-07-21T11:36:44Z</time>
      </trkpt>
      <trkpt lat="43.071793" lon="-5.696408">
        <ele>1659.417</ele>
        <time>1999-07-21T11:36:48Z</time>
      </trkpt>
      <trkpt lat="43.071812" lon="-5.696402">
        <ele>1659.608</ele>
        <time>1999-07-21T11:36:49Z</time>
      </trkpt>
      <trkpt lat="43.071950" lon="-5.696367">
        <ele>1660.696</ele>
        <time>1999-07-21T11:36:56Z</time>
      </trkpt>
      <trkpt lat="43.071971" lon="-5.696357">
        <ele>1660.831</ele>
        <time>1999-07-21T11:36:57Z</time>
      </trkpt>
      <trkpt lat="43.072091" lon="-5.696296">
        <ele>1661.861</ele>
        <time>1999-07-21T11:37:02Z</time>
      </trkpt>
      <trkpt lat="43.072113" lon="-5.696287">
        <ele>1662.052</ele>
        <time>1999-07-21T11:37:03Z</time>
      </trkpt>
      <trkpt lat="43.072227" lon="-5.696254">
        <ele>1662.240</ele>
        <time>1999-07-21T11:37:08Z</time>
      </trkpt>
      <trkpt lat="43.072380" lon="-5.696177">
        <ele>1663.078</ele>
        <time>1999-07-21T11:37:15Z</time>
      </trkpt>
      <trkpt lat="43.072402" lon="-5.696167">
        <ele>1663.049</ele>
        <time>1999-07-21T11:37:16Z</time>
      </trkpt>
      <trkpt lat="43.072530" lon="-5.696097">
        <ele>1664.015</ele>
        <time>1999-07-21T11:37:22Z</time>
      </trkpt>
      <trkpt lat="43.072674" lon="-5.696072">
        <ele>1665.068</ele>
        <time>1999-07-21T11:37:28Z</time>
      </trkpt>
      <trkpt lat="43.072699" lon="-5.696070">
        <ele>1665.242</ele>
        <time>1999-07-21T11:37:29Z</time>
      </trkpt>
      <trkpt lat="43.072778" lon="-5.696073">
        <ele>1666.226</ele>
        <time>1999-07-21T11:37:34Z</time>
      </trkpt>
      <trkpt lat="43.072778" lon="-5.696072">
        <ele>1666.408</ele>
        <time>1999-07-21T11:37:35Z</time>
      </trkpt>
      <trkpt lat="43.072831" lon="-5.696090">
        <ele>1667.289</ele>
        <time>1999-07-21T11:38:56Z</time>
      </trkpt>
      <trkpt lat="43.072863" lon="-5.696100">
        <ele>1667.044</ele>
        <time>1999-07-21T11:38:57Z</time>
      </trkpt>
      <trkpt lat="43.072953" lon="-5.696120">
        <ele>1666.824</ele>
        <time>1999-07-21T11:38:59Z</time>
      </trkpt>
      <trkpt lat="43.073061" lon="-5.696165">
        <ele>1666.825</ele>
        <time>1999-07-21T11:39:01Z</time>
      </trkpt>
      <trkpt lat="43.073119" lon="-5.696200">
        <ele>1666.613</ele>
        <time>1999-07-21T11:39:02Z</time>
      </trkpt>
      <trkpt lat="43.073282" lon="-5.696326">
        <ele>1666.441</ele>
        <time>1999-07-21T11:39:05Z</time>
      </trkpt>
      <trkpt lat="43.073394" lon="-5.696421">
        <ele>1666.012</ele>
        <time>1999-07-21T11:39:07Z</time>
      </trkpt>
      <trkpt lat="43.073453" lon="-5.696460">
        <ele>1665.688</ele>
        <time>1999-07-21T11:39:08Z</time>
      </trkpt>
      <trkpt lat="43.073509" lon="-5.696478">
        <ele>1665.496</ele>
        <time>1999-07-21T11:39:09Z</time>
      </trkpt>
      <trkpt lat="43.073704" lon="-5.696478">
        <ele>1665.031</ele>
        <time>1999-07-21T11:39:12Z</time>
      </trkpt>
      <trkpt lat="43.073767" lon="-5.696501">
        <ele>1664.824</ele>
        <time>1999-07-21T11:39:13Z</time>
      </trkpt>
      <trkpt lat="43.073863" lon="-5.696556">
        <ele>1663.408</ele>
        <time>1999-07-21T11:39:16Z</time>
      </trkpt>
      <trkpt lat="43.073871" lon="-5.696553">
        <ele>1662.422</ele>
        <time>1999-07-21T11:39:18Z</time>
      </trkpt>
      <trkpt lat="43.073872" lon="-5.696555">
        <ele>1662.087</ele>
        <time>1999-07-21T11:39:19Z</time>
      </trkpt>
      <trkpt lat="43.073889" lon="-5.696636">
        <ele>1660.657</ele>
        <time>1999-07-21T11:41:51Z</time>
      </trkpt>
      <trkpt lat="43.073904" lon="-5.696666">
        <ele>1660.688</ele>
        <time>1999-07-21T11:41:52Z</time>
      </trkpt>
      <trkpt lat="43.073983" lon="-5.696780">
        <ele>1660.656</ele>
        <time>1999-07-21T11:41:55Z</time>
      </trkpt>
      <trkpt lat="43.074022" lon="-5.696827">
        <ele>1660.644</ele>
        <time>1999-07-21T11:41:56Z</time>
      </trkpt>
      <trkpt lat="43.074249" lon="-5.697031">
        <ele>1660.295</ele>
        <time>1999-07-21T11:42:00Z</time>
      </trkpt>
      <trkpt lat="43.074608" lon="-5.697324">
        <ele>1659.451</ele>
        <time>1999-07-21T11:42:05Z</time>
      </trkpt>
      <trkpt lat="43.074786" lon="-5.697487">
        <ele>1658.068</ele>
        <time>1999-07-21T11:42:08Z</time>
      </trkpt>
      <trkpt lat="43.074880" lon="-5.697581">
        <ele>1657.242</ele>
        <time>1999-07-21T11:42:10Z</time>
      </trkpt>
      <trkpt lat="43.074928" lon="-5.697609">
        <ele>1656.826</ele>
        <time>1999-07-21T11:42:11Z</time>
      </trkpt>
      <trkpt lat="43.075003" lon="-5.697650">
        <ele>1654.608</ele>
        <time>1999-07-21T11:42:13Z</time>
      </trkpt>
      <trkpt lat="43.075033" lon="-5.697663">
        <ele>1653.489</ele>
        <time>1999-07-21T11:42:14Z</time>
      </trkpt>
      <trkpt lat="43.075102" lon="-5.697688">
        <ele>1651.874</ele>
        <time>1999-07-21T11:42:16Z</time>
      </trkpt>
      <trkpt lat="43.075146" lon="-5.697692">
        <ele>1650.834</ele>
        <time>1999-07-21T11:42:17Z</time>
      </trkpt>
      <trkpt lat="43.075194" lon="-5.697708">
        <ele>1649.215</ele>
        <time>1999-07-21T11:42:18Z</time>
      </trkpt>
      <trkpt lat="43.075250" lon="-5.697723">
        <ele>1648.273</ele>
        <time>1999-07-21T11:42:19Z</time>
      </trkpt>
      <trkpt lat="43.075378" lon="-5.697757">
        <ele>1646.261</ele>
        <time>1999-07-21T11:42:21Z</time>
      </trkpt>
      <trkpt lat="43.075455" lon="-5.697796">
        <ele>1645.072</ele>
        <time>1999-07-21T11:42:22Z</time>
      </trkpt>
      <trkpt lat="43.075602" lon="-5.697921">
        <ele>1643.618</ele>
        <time>1999-07-21T11:42:24Z</time>
      </trkpt>
      <trkpt lat="43.075665" lon="-5.698003">
        <ele>1643.247</ele>
        <time>1999-07-21T11:42:25Z</time>
      </trkpt>
      <trkpt lat="43.075719" lon="-5.698095">
        <ele>1642.629</ele>
        <time>1999-07-21T11:42:26Z</time>
      </trkpt>
      <trkpt lat="43.075797" lon="-5.698300">
        <ele>1641.021</ele>
        <time>1999-07-21T11:42:28Z</time>
      </trkpt>
      <trkpt lat="43.075851" lon="-5.698487">
        <ele>1639.608</ele>
        <time>1999-07-21T11:42:30Z</time>
      </trkpt>
      <trkpt lat="43.075897" lon="-5.698660">
        <ele>1638.627</ele>
        <time>1999-07-21T11:42:32Z</time>
      </trkpt>
      <trkpt lat="43.075933" lon="-5.698744">
        <ele>1637.862</ele>
        <time>1999-07-21T11:42:33Z</time>
      </trkpt>
      <trkpt lat="43.076072" lon="-5.698992">
        <ele>1636.452</ele>
        <time>1999-07-21T11:42:36Z</time>
      </trkpt>
      <trkpt lat="43.076194" lon="-5.699108">
        <ele>1635.293</ele>
        <time>1999-07-21T11:42:38Z</time>
      </trkpt>
      <trkpt lat="43.076268" lon="-5.699142">
        <ele>1634.281</ele>
        <time>1999-07-21T11:42:39Z</time>
      </trkpt>
      <trkpt lat="43.076347" lon="-5.699159">
        <ele>1633.089</ele>
        <time>1999-07-21T11:42:40Z</time>
      </trkpt>
      <trkpt lat="43.076433" lon="-5.699169">
        <ele>1631.220</ele>
        <time>1999-07-21T11:42:41Z</time>
      </trkpt>
      <trkpt lat="43.076610" lon="-5.699209">
        <ele>1629.646</ele>
        <time>1999-07-21T11:42:43Z</time>
      </trkpt>
      <trkpt lat="43.076795" lon="-5.699290">
        <ele>1628.089</ele>
        <time>1999-07-21T11:42:45Z</time>
      </trkpt>
      <trkpt lat="43.076979" lon="-5.699379">
        <ele>1626.606</ele>
        <time>1999-07-21T11:42:47Z</time>
      </trkpt>
      <trkpt lat="43.077063" lon="-5.699430">
        <ele>1626.026</ele>
        <time>1999-07-21T11:42:48Z</time>
      </trkpt>
      <trkpt lat="43.077150" lon="-5.699484">
        <ele>1625.208</ele>
        <time>1999-07-21T11:42:49Z</time>
      </trkpt>
      <trkpt lat="43.077322" lon="-5.699608">
        <ele>1623.451</ele>
        <time>1999-07-21T11:42:51Z</time>
      </trkpt>
      <trkpt lat="43.077491" lon="-5.699720">
        <ele>1622.646</ele>
        <time>1999-07-21T11:42:53Z</time>
      </trkpt>
      <trkpt lat="43.077576" lon="-5.699768">
        <ele>1622.236</ele>
        <time>1999-07-21T11:42:54Z</time>
      </trkpt>
      <trkpt lat="43.077741" lon="-5.699856">
        <ele>1621.217</ele>
        <time>1999-07-21T11:42:56Z</time>
      </trkpt>
      <trkpt lat="43.077903" lon="-5.699948">
        <ele>1619.685</ele>
        <time>1999-07-21T11:42:58Z</time>
      </trkpt>
      <trkpt lat="43.078063" lon="-5.700032">
        <ele>1618.413</ele>
        <time>1999-07-21T11:43:00Z</time>
      </trkpt>
      <trkpt lat="43.078206" lon="-5.700118">
        <ele>1617.214</ele>
        <time>1999-07-21T11:43:02Z</time>
      </trkpt>
      <trkpt lat="43.078277" lon="-5.700159">
        <ele>1616.650</ele>
        <time>1999-07-21T11:43:03Z</time>
      </trkpt>
      <trkpt lat="43.078359" lon="-5.700192">
        <ele>1616.086</ele>
        <time>1999-07-21T11:43:04Z</time>
      </trkpt>
      <trkpt lat="43.078579" lon="-5.700346">
        <ele>1614.860</ele>
        <time>1999-07-21T11:43:07Z</time>
      </trkpt>
      <trkpt lat="43.078638" lon="-5.700395">
        <ele>1613.226</ele>
        <time>1999-07-21T11:43:08Z</time>
      </trkpt>
      <trkpt lat="43.078751" lon="-5.700492">
        <ele>1611.208</ele>
        <time>1999-07-21T11:43:10Z</time>
      </trkpt>
      <trkpt lat="43.078817" lon="-5.700513">
        <ele>1610.031</ele>
        <time>1999-07-21T11:43:11Z</time>
      </trkpt>
      <trkpt lat="43.078945" lon="-5.700513">
        <ele>1608.476</ele>
        <time>1999-07-21T11:43:13Z</time>
      </trkpt>
      <trkpt lat="43.079006" lon="-5.700504">
        <ele>1607.256</ele>
        <time>1999-07-21T11:43:14Z</time>
      </trkpt>
      <trkpt lat="43.079081" lon="-5.700483">
        <ele>1605.897</ele>
        <time>1999-07-21T11:43:15Z</time>
      </trkpt>
      <trkpt lat="43.079160" lon="-5.700459">
        <ele>1604.435</ele>
        <time>1999-07-21T11:43:16Z</time>
      </trkpt>
      <trkpt lat="43.079317" lon="-5.700379">
        <ele>1603.063</ele>
        <time>1999-07-21T11:43:18Z</time>
      </trkpt>
      <trkpt lat="43.079444" lon="-5.700257">
        <ele>1601.244</ele>
        <time>1999-07-21T11:43:20Z</time>
      </trkpt>
      <trkpt lat="43.079499" lon="-5.700197">
        <ele>1600.270</ele>
        <time>1999-07-21T11:43:21Z</time>
      </trkpt>
      <trkpt lat="43.079550" lon="-5.700149">
        <ele>1599.496</ele>
        <time>1999-07-21T11:43:22Z</time>
      </trkpt>
      <trkpt lat="43.079602" lon="-5.700111">
        <ele>1598.831</ele>
        <time>1999-07-21T11:43:23Z</time>
      </trkpt>
      <trkpt lat="43.079653" lon="-5.700080">
        <ele>1597.624</ele>
        <time>1999-07-21T11:43:24Z</time>
      </trkpt>
      <trkpt lat="43.079744" lon="-5.700039">
        <ele>1595.408</ele>
        <time>1999-07-21T11:43:26Z</time>
      </trkpt>
      <trkpt lat="43.079787" lon="-5.700015">
        <ele>1594.242</ele>
        <time>1999-07-21T11:43:27Z</time>
      </trkpt>
      <trkpt lat="43.079873" lon="-5.699944">
        <ele>1593.087</ele>
        <time>1999-07-21T11:43:29Z</time>
      </trkpt>
      <trkpt lat="43.079961" lon="-5.699870">
        <ele>1592.637</ele>
        <time>1999-07-21T11:43:31Z</time>
      </trkpt>
      <trkpt lat="43.080048" lon="-5.699814">
        <ele>1592.658</ele>
        <time>1999-07-21T11:43:33Z</time>
      </trkpt>
      <trkpt lat="43.080143" lon="-5.699763">
        <ele>1592.456</ele>
        <time>1999-07-21T11:43:35Z</time>
      </trkpt>
      <trkpt lat="43.080204" lon="-5.699747">
        <ele>1592.414</ele>
        <time>1999-07-21T11:43:36Z</time>
      </trkpt>
      <trkpt lat="43.080398" lon="-5.699747">
        <ele>1592.295</ele>
        <time>1999-07-21T11:43:39Z</time>
      </trkpt>
      <trkpt lat="43.080854" lon="-5.699799">
        <ele>1592.291</ele>
        <time>1999-07-21T11:43:45Z</time>
      </trkpt>
      <trkpt lat="43.081022" lon="-5.699813">
        <ele>1592.099</ele>
        <time>1999-07-21T11:43:47Z</time>
      </trkpt>
      <trkpt lat="43.081153" lon="-5.699826">
        <ele>1591.607</ele>
        <time>1999-07-21T11:43:49Z</time>
      </trkpt>
      <trkpt lat="43.081265" lon="-5.699841">
        <ele>1590.827</ele>
        <time>1999-07-21T11:43:52Z</time>
      </trkpt>
      <trkpt lat="43.081339" lon="-5.699852">
        <ele>1589.608</ele>
        <time>1999-07-21T11:43:56Z</time>
      </trkpt>
      <trkpt lat="43.081339" lon="-5.699867">
        <ele>1589.212</ele>
        <time>1999-07-21T11:43:57Z</time>
      </trkpt>
      <trkpt lat="43.081329" lon="-5.699877">
        <ele>1588.437</ele>
        <time>1999-07-21T11:43:58Z</time>
      </trkpt>
      <trkpt lat="43.081296" lon="-5.699879">
        <ele>1587.627</ele>
        <time>1999-07-21T11:44:00Z</time>
      </trkpt>
      <trkpt lat="43.081277" lon="-5.699880">
        <ele>1587.688</ele>
        <time>1999-07-21T11:44:01Z</time>
      </trkpt>
      <trkpt lat="43.081243" lon="-5.699879">
        <ele>1587.426</ele>
        <time>1999-07-21T11:44:03Z</time>
      </trkpt>
      <trkpt lat="43.081224" lon="-5.699873">
        <ele>1587.424</ele>
        <time>1999-07-21T11:44:06Z</time>
      </trkpt>
      <trkpt lat="43.081151" lon="-5.699892">
        <ele>1586.845</ele>
        <time>1999-07-21T11:50:16Z</time>
      </trkpt>
      <trkpt lat="43.081110" lon="-5.699904">
        <ele>1586.851</ele>
        <time>1999-07-21T11:50:17Z</time>
      </trkpt>
      <trkpt lat="43.080891" lon="-5.699929">
        <ele>1587.075</ele>
        <time>1999-07-21T11:50:21Z</time>
      </trkpt>
      <trkpt lat="43.080633" lon="-5.699981">
        <ele>1586.828</ele>
        <time>1999-07-21T11:50:24Z</time>
      </trkpt>
      <trkpt lat="43.080533" lon="-5.700004">
        <ele>1585.820</ele>
        <time>1999-07-21T11:50:25Z</time>
      </trkpt>
      <trkpt lat="43.080274" lon="-5.700057">
        <ele>1584.208</ele>
        <time>1999-07-21T11:50:28Z</time>
      </trkpt>
      <trkpt lat="43.080182" lon="-5.700087">
        <ele>1583.060</ele>
        <time>1999-07-21T11:50:30Z</time>
      </trkpt>
      <trkpt lat="43.080169" lon="-5.700116">
        <ele>1581.815</ele>
        <time>1999-07-21T11:50:31Z</time>
      </trkpt>
      <trkpt lat="43.080171" lon="-5.700176">
        <ele>1579.855</ele>
        <time>1999-07-21T11:50:33Z</time>
      </trkpt>
      <trkpt lat="43.080176" lon="-5.700191">
        <ele>1578.626</ele>
        <time>1999-07-21T11:50:34Z</time>
      </trkpt>
      <trkpt lat="43.080180" lon="-5.700196">
        <ele>1577.044</ele>
        <time>1999-07-21T11:50:35Z</time>
      </trkpt>
      <trkpt lat="43.080181" lon="-5.700189">
        <ele>1575.822</ele>
        <time>1999-07-21T11:50:36Z</time>
      </trkpt>
      <trkpt lat="43.080183" lon="-5.700186">
        <ele>1574.853</ele>
        <time>1999-07-21T11:50:37Z</time>
      </trkpt>
      <trkpt lat="43.080260" lon="-5.700055">
        <ele>1571.059</ele>
        <time>1999-07-21T11:51:00Z</time>
      </trkpt>
      <trkpt lat="43.080298" lon="-5.700046">
        <ele>1570.899</ele>
        <time>1999-07-21T11:51:01Z</time>
      </trkpt>
      <trkpt lat="43.080353" lon="-5.700027">
        <ele>1570.807</ele>
        <time>1999-07-21T11:51:02Z</time>
      </trkpt>
      <trkpt lat="43.080468" lon="-5.700002">
        <ele>1570.827</ele>
        <time>1999-07-21T11:51:04Z</time>
      </trkpt>
      <trkpt lat="43.080529" lon="-5.700001">
        <ele>1570.608</ele>
        <time>1999-07-21T11:51:05Z</time>
      </trkpt>
      <trkpt lat="43.080611" lon="-5.700045">
        <ele>1570.612</ele>
        <time>1999-07-21T11:51:07Z</time>
      </trkpt>
      <trkpt lat="43.080662" lon="-5.700109">
        <ele>1570.217</ele>
        <time>1999-07-21T11:51:09Z</time>
      </trkpt>
      <trkpt lat="43.080684" lon="-5.700117">
        <ele>1569.847</ele>
        <time>1999-07-21T11:51:10Z</time>
      </trkpt>
      <trkpt lat="43.080705" lon="-5.700120">
        <ele>1569.488</ele>
        <time>1999-07-21T11:51:11Z</time>
      </trkpt>
      <trkpt lat="43.080760" lon="-5.700106">
        <ele>1568.666</ele>
        <time>1999-07-21T11:51:13Z</time>
      </trkpt>
      <trkpt lat="43.080825" lon="-5.700106">
        <ele>1567.634</ele>
        <time>1999-07-21T11:51:15Z</time>
      </trkpt>
      <trkpt lat="43.080865" lon="-5.700109">
        <ele>1567.065</ele>
        <time>1999-07-21T11:51:16Z</time>
      </trkpt>
      <trkpt lat="43.080964" lon="-5.700109">
        <ele>1566.811</ele>
        <time>1999-07-21T11:51:18Z</time>
      </trkpt>
      <trkpt lat="43.081010" lon="-5.700128">
        <ele>1566.822</ele>
        <time>1999-07-21T11:51:19Z</time>
      </trkpt>
      <trkpt lat="43.081054" lon="-5.700164">
        <ele>1566.662</ele>
        <time>1999-07-21T11:51:21Z</time>
      </trkpt>
      <trkpt lat="43.081056" lon="-5.700176">
        <ele>1566.608</ele>
        <time>1999-07-21T11:51:22Z</time>
      </trkpt>
      <trkpt lat="43.081052" lon="-5.700189">
        <ele>1566.208</ele>
        <time>1999-07-21T11:51:24Z</time>
      </trkpt>
      <trkpt lat="43.081139" lon="-5.700160">
        <ele>1565.625</ele>
        <time>1999-07-21T11:52:52Z</time>
      </trkpt>
      <trkpt lat="43.081168" lon="-5.700177">
        <ele>1565.670</ele>
        <time>1999-07-21T11:52:53Z</time>
      </trkpt>
      <trkpt lat="43.081202" lon="-5.700204">
        <ele>1565.620</ele>
        <time>1999-07-21T11:52:54Z</time>
      </trkpt>
      <trkpt lat="43.081291" lon="-5.700269">
        <ele>1565.631</ele>
        <time>1999-07-21T11:52:56Z</time>
      </trkpt>
      <trkpt lat="43.081346" lon="-5.700307">
        <ele>1565.649</ele>
        <time>1999-07-21T11:52:57Z</time>
      </trkpt>
      <trkpt lat="43.081409" lon="-5.700345">
        <ele>1565.687</ele>
        <time>1999-07-21T11:52:58Z</time>
      </trkpt>
      <trkpt lat="43.081539" lon="-5.700437">
        <ele>1565.448</ele>
        <time>1999-07-21T11:53:00Z</time>
      </trkpt>
      <trkpt lat="43.081676" lon="-5.700549">
        <ele>1565.254</ele>
        <time>1999-07-21T11:53:02Z</time>
      </trkpt>
      <trkpt lat="43.081812" lon="-5.700671">
        <ele>1565.074</ele>
        <time>1999-07-21T11:53:04Z</time>
      </trkpt>
      <trkpt lat="43.082016" lon="-5.700855">
        <ele>1564.456</ele>
        <time>1999-07-21T11:53:07Z</time>
      </trkpt>
      <trkpt lat="43.082155" lon="-5.700961">
        <ele>1564.221</ele>
        <time>1999-07-21T11:53:09Z</time>
      </trkpt>
      <trkpt lat="43.082301" lon="-5.701040">
        <ele>1564.008</ele>
        <time>1999-07-21T11:53:11Z</time>
      </trkpt>
      <trkpt lat="43.082580" lon="-5.701172">
        <ele>1563.230</ele>
        <time>1999-07-21T11:53:15Z</time>
      </trkpt>
      <trkpt lat="43.082709" lon="-5.701238">
        <ele>1562.845</ele>
        <time>1999-07-21T11:53:17Z</time>
      </trkpt>
      <trkpt lat="43.082949" lon="-5.701396">
        <ele>1561.665</ele>
        <time>1999-07-21T11:53:21Z</time>
      </trkpt>
      <trkpt lat="43.082994" lon="-5.701466">
        <ele>1561.486</ele>
        <time>1999-07-21T11:53:22Z</time>
      </trkpt>
      <trkpt lat="43.083131" lon="-5.701693">
        <ele>1560.844</ele>
        <time>1999-07-21T11:53:26Z</time>
      </trkpt>
      <trkpt lat="43.083158" lon="-5.701751">
        <ele>1560.682</ele>
        <time>1999-07-21T11:53:27Z</time>
      </trkpt>
      <trkpt lat="43.083191" lon="-5.701810">
        <ele>1560.483</ele>
        <time>1999-07-21T11:53:28Z</time>
      </trkpt>
      <trkpt lat="43.083232" lon="-5.701879">
        <ele>1560.429</ele>
        <time>1999-07-21T11:53:29Z</time>
      </trkpt>
      <trkpt lat="43.083405" lon="-5.702042">
        <ele>1559.419</ele>
        <time>1999-07-21T11:53:32Z</time>
      </trkpt>
      <trkpt lat="43.083467" lon="-5.702101">
        <ele>1559.009</ele>
        <time>1999-07-21T11:53:33Z</time>
      </trkpt>
      <trkpt lat="43.083533" lon="-5.702155">
        <ele>1558.219</ele>
        <time>1999-07-21T11:53:34Z</time>
      </trkpt>
      <trkpt lat="43.083645" lon="-5.702272">
        <ele>1557.408</ele>
        <time>1999-07-21T11:53:36Z</time>
      </trkpt>
      <trkpt lat="43.083697" lon="-5.702335">
        <ele>1555.464</ele>
        <time>1999-07-21T11:53:37Z</time>
      </trkpt>
      <trkpt lat="43.083750" lon="-5.702399">
        <ele>1554.489</ele>
        <time>1999-07-21T11:53:38Z</time>
      </trkpt>
      <trkpt lat="43.083803" lon="-5.702468">
        <ele>1553.499</ele>
        <time>1999-07-21T11:53:39Z</time>
      </trkpt>
      <trkpt lat="43.083910" lon="-5.702615">
        <ele>1552.290</ele>
        <time>1999-07-21T11:53:41Z</time>
      </trkpt>
      <trkpt lat="43.084017" lon="-5.702762">
        <ele>1550.488</ele>
        <time>1999-07-21T11:53:43Z</time>
      </trkpt>
      <trkpt lat="43.084065" lon="-5.702832">
        <ele>1549.636</ele>
        <time>1999-07-21T11:53:44Z</time>
      </trkpt>
      <trkpt lat="43.084109" lon="-5.702901">
        <ele>1549.267</ele>
        <time>1999-07-21T11:53:45Z</time>
      </trkpt>
      <trkpt lat="43.084181" lon="-5.703027">
        <ele>1548.813</ele>
        <time>1999-07-21T11:53:47Z</time>
      </trkpt>
      <trkpt lat="43.084250" lon="-5.703143">
        <ele>1547.813</ele>
        <time>1999-07-21T11:53:49Z</time>
      </trkpt>
      <trkpt lat="43.084322" lon="-5.703334">
        <ele>1546.843</ele>
        <time>1999-07-21T11:53:52Z</time>
      </trkpt>
      <trkpt lat="43.084343" lon="-5.703390">
        <ele>1546.807</ele>
        <time>1999-07-21T11:53:53Z</time>
      </trkpt>
      <trkpt lat="43.084367" lon="-5.703439">
        <ele>1546.608</ele>
        <time>1999-07-21T11:53:54Z</time>
      </trkpt>
      <trkpt lat="43.084420" lon="-5.703619">
        <ele>1546.474</ele>
        <time>1999-07-21T11:53:58Z</time>
      </trkpt>
      <trkpt lat="43.084488" lon="-5.703793">
        <ele>1546.229</ele>
        <time>1999-07-21T11:54:03Z</time>
      </trkpt>
      <trkpt lat="43.084526" lon="-5.703879">
        <ele>1546.039</ele>
        <time>1999-07-21T11:54:06Z</time>
      </trkpt>
      <trkpt lat="43.084566" lon="-5.703966">
        <ele>1546.080</ele>
        <time>1999-07-21T11:54:09Z</time>
      </trkpt>
      <trkpt lat="43.084595" lon="-5.704021">
        <ele>1546.098</ele>
        <time>1999-07-21T11:54:11Z</time>
      </trkpt>
      <trkpt lat="43.084621" lon="-5.704083">
        <ele>1546.476</ele>
        <time>1999-07-21T11:54:13Z</time>
      </trkpt>
      <trkpt lat="43.084663" lon="-5.704172">
        <ele>1547.037</ele>
        <time>1999-07-21T11:54:16Z</time>
      </trkpt>
      <trkpt lat="43.084694" lon="-5.704232">
        <ele>1547.273</ele>
        <time>1999-07-21T11:54:18Z</time>
      </trkpt>
      <trkpt lat="43.084738" lon="-5.704321">
        <ele>1548.063</ele>
        <time>1999-07-21T11:54:21Z</time>
      </trkpt>
      <trkpt lat="43.084789" lon="-5.704404">
        <ele>1548.844</ele>
        <time>1999-07-21T11:54:24Z</time>
      </trkpt>
      <trkpt lat="43.084829" lon="-5.704444">
        <ele>1549.018</ele>
        <time>1999-07-21T11:54:26Z</time>
      </trkpt>
      <trkpt lat="43.084869" lon="-5.704478">
        <ele>1549.208</ele>
        <time>1999-07-21T11:54:28Z</time>
      </trkpt>
      <trkpt lat="43.084931" lon="-5.704531">
        <ele>1550.299</ele>
        <time>1999-07-21T11:54:31Z</time>
      </trkpt>
      <trkpt lat="43.085022" lon="-5.704613">
        <ele>1551.464</ele>
        <time>1999-07-21T11:54:36Z</time>
      </trkpt>
      <trkpt lat="43.085104" lon="-5.704666">
        <ele>1552.654</ele>
        <time>1999-07-21T11:54:40Z</time>
      </trkpt>
      <trkpt lat="43.085149" lon="-5.704687">
        <ele>1553.295</ele>
        <time>1999-07-21T11:54:42Z</time>
      </trkpt>
      <trkpt lat="43.085199" lon="-5.704695">
        <ele>1553.823</ele>
        <time>1999-07-21T11:54:44Z</time>
      </trkpt>
      <trkpt lat="43.085326" lon="-5.704705">
        <ele>1554.841</ele>
        <time>1999-07-21T11:54:49Z</time>
      </trkpt>
      <trkpt lat="43.085353" lon="-5.704709">
        <ele>1555.042</ele>
        <time>1999-07-21T11:54:50Z</time>
      </trkpt>
      <trkpt lat="43.085471" lon="-5.704725">
        <ele>1555.838</ele>
        <time>1999-07-21T11:54:55Z</time>
      </trkpt>
      <trkpt lat="43.085496" lon="-5.704727">
        <ele>1556.094</ele>
        <time>1999-07-21T11:54:56Z</time>
      </trkpt>
      <trkpt lat="43.085600" lon="-5.704734">
        <ele>1557.057</ele>
        <time>1999-07-21T11:55:00Z</time>
      </trkpt>
      <trkpt lat="43.085714" lon="-5.704775">
        <ele>1557.822</ele>
        <time>1999-07-21T11:55:05Z</time>
      </trkpt>
      <trkpt lat="43.085735" lon="-5.704784">
        <ele>1558.008</ele>
        <time>1999-07-21T11:55:06Z</time>
      </trkpt>
      <trkpt lat="43.085833" lon="-5.704821">
        <ele>1559.042</ele>
        <time>1999-07-21T11:55:10Z</time>
      </trkpt>
      <trkpt lat="43.085858" lon="-5.704838">
        <ele>1559.427</ele>
        <time>1999-07-21T11:55:11Z</time>
      </trkpt>
      <trkpt lat="43.085985" lon="-5.704936">
        <ele>1560.297</ele>
        <time>1999-07-21T11:55:15Z</time>
      </trkpt>
      <trkpt lat="43.086019" lon="-5.704959">
        <ele>1560.258</ele>
        <time>1999-07-21T11:55:16Z</time>
      </trkpt>
      <trkpt lat="43.086236" lon="-5.705073">
        <ele>1560.686</ele>
        <time>1999-07-21T11:55:23Z</time>
      </trkpt>
      <trkpt lat="43.086379" lon="-5.705147">
        <ele>1561.034</ele>
        <time>1999-07-21T11:55:28Z</time>
      </trkpt>
      <trkpt lat="43.086463" lon="-5.705190">
        <ele>1561.245</ele>
        <time>1999-07-21T11:55:31Z</time>
      </trkpt>
      <trkpt lat="43.086493" lon="-5.705204">
        <ele>1561.221</ele>
        <time>1999-07-21T11:55:32Z</time>
      </trkpt>
      <trkpt lat="43.086650" lon="-5.705282">
        <ele>1562.267</ele>
        <time>1999-07-21T11:55:37Z</time>
      </trkpt>
      <trkpt lat="43.086710" lon="-5.705337">
        <ele>1562.481</ele>
        <time>1999-07-21T11:55:39Z</time>
      </trkpt>
      <trkpt lat="43.086777" lon="-5.705404">
        <ele>1562.819</ele>
        <time>1999-07-21T11:55:41Z</time>
      </trkpt>
      <trkpt lat="43.086864" lon="-5.705485">
        <ele>1562.808</ele>
        <time>1999-07-21T11:55:43Z</time>
      </trkpt>
      <trkpt lat="43.087012" lon="-5.705646">
        <ele>1562.879</ele>
        <time>1999-07-21T11:55:46Z</time>
      </trkpt>
      <trkpt lat="43.087080" lon="-5.705742">
        <ele>1562.844</ele>
        <time>1999-07-21T11:55:48Z</time>
      </trkpt>
      <trkpt lat="43.087097" lon="-5.705778">
        <ele>1562.814</ele>
        <time>1999-07-21T11:55:49Z</time>
      </trkpt>
      <trkpt lat="43.087119" lon="-5.705837">
        <ele>1562.455</ele>
        <time>1999-07-21T11:55:51Z</time>
      </trkpt>
      <trkpt lat="43.087130" lon="-5.705854">
        <ele>1562.223</ele>
        <time>1999-07-21T11:55:52Z</time>
      </trkpt>
      <trkpt lat="43.087156" lon="-5.705890">
        <ele>1560.621</ele>
        <time>1999-07-21T11:55:54Z</time>
      </trkpt>
      <trkpt lat="43.087186" lon="-5.705935">
        <ele>1559.662</ele>
        <time>1999-07-21T11:55:56Z</time>
      </trkpt>
      <trkpt lat="43.087215" lon="-5.705979">
        <ele>1559.098</ele>
        <time>1999-07-21T11:55:58Z</time>
      </trkpt>
      <trkpt lat="43.087228" lon="-5.705998">
        <ele>1558.863</ele>
        <time>1999-07-21T11:55:59Z</time>
      </trkpt>
      <trkpt lat="43.087275" lon="-5.706054">
        <ele>1558.644</ele>
        <time>1999-07-21T11:56:02Z</time>
      </trkpt>
      <trkpt lat="43.087315" lon="-5.706104">
        <ele>1558.218</ele>
        <time>1999-07-21T11:56:04Z</time>
      </trkpt>
      <trkpt lat="43.087337" lon="-5.706131">
        <ele>1558.008</ele>
        <time>1999-07-21T11:56:05Z</time>
      </trkpt>
      <trkpt lat="43.087417" lon="-5.706208">
        <ele>1557.689</ele>
        <time>1999-07-21T11:56:08Z</time>
      </trkpt>
      <trkpt lat="43.087474" lon="-5.706251">
        <ele>1557.424</ele>
        <time>1999-07-21T11:56:10Z</time>
      </trkpt>
      <trkpt lat="43.087528" lon="-5.706282">
        <ele>1557.284</ele>
        <time>1999-07-21T11:56:12Z</time>
      </trkpt>
      <trkpt lat="43.087580" lon="-5.706310">
        <ele>1557.045</ele>
        <time>1999-07-21T11:56:14Z</time>
      </trkpt>
      <trkpt lat="43.087605" lon="-5.706321">
        <ele>1557.023</ele>
        <time>1999-07-21T11:56:15Z</time>
      </trkpt>
      <trkpt lat="43.087691" lon="-5.706351">
        <ele>1556.851</ele>
        <time>1999-07-21T11:56:18Z</time>
      </trkpt>
      <trkpt lat="43.087726" lon="-5.706363">
        <ele>1556.812</ele>
        <time>1999-07-21T11:56:19Z</time>
      </trkpt>
      <trkpt lat="43.087923" lon="-5.706428">
        <ele>1556.248</ele>
        <time>1999-07-21T11:56:24Z</time>
      </trkpt>
      <trkpt lat="43.087970" lon="-5.706467">
        <ele>1555.834</ele>
        <time>1999-07-21T11:56:26Z</time>
      </trkpt>
      <trkpt lat="43.088047" lon="-5.706532">
        <ele>1555.055</ele>
        <time>1999-07-21T11:56:29Z</time>
      </trkpt>
      <trkpt lat="43.088073" lon="-5.706557">
        <ele>1554.610</ele>
        <time>1999-07-21T11:56:30Z</time>
      </trkpt>
      <trkpt lat="43.088133" lon="-5.706626">
        <ele>1553.808</ele>
        <time>1999-07-21T11:56:32Z</time>
      </trkpt>
      <trkpt lat="43.088210" lon="-5.706696">
        <ele>1552.816</ele>
        <time>1999-07-21T11:56:34Z</time>
      </trkpt>
      <trkpt lat="43.088263" lon="-5.706721">
        <ele>1552.441</ele>
        <time>1999-07-21T11:56:35Z</time>
      </trkpt>
      <trkpt lat="43.088407" lon="-5.706794">
        <ele>1551.811</ele>
        <time>1999-07-21T11:56:38Z</time>
      </trkpt>
      <trkpt lat="43.088500" lon="-5.706830">
        <ele>1551.662</ele>
        <time>1999-07-21T11:56:40Z</time>
      </trkpt>
      <trkpt lat="43.088588" lon="-5.706876">
        <ele>1551.280</ele>
        <time>1999-07-21T11:56:42Z</time>
      </trkpt>
      <trkpt lat="43.088676" lon="-5.706928">
        <ele>1550.858</ele>
        <time>1999-07-21T11:56:44Z</time>
      </trkpt>
      <trkpt lat="43.088722" lon="-5.706955">
        <ele>1550.699</ele>
        <time>1999-07-21T11:56:45Z</time>
      </trkpt>
      <trkpt lat="43.088854" lon="-5.707025">
        <ele>1550.445</ele>
        <time>1999-07-21T11:56:48Z</time>
      </trkpt>
      <trkpt lat="43.088899" lon="-5.707037">
        <ele>1550.497</ele>
        <time>1999-07-21T11:56:49Z</time>
      </trkpt>
      <trkpt lat="43.088995" lon="-5.707063">
        <ele>1550.423</ele>
        <time>1999-07-21T11:56:51Z</time>
      </trkpt>
      <trkpt lat="43.089088" lon="-5.707113">
        <ele>1550.625</ele>
        <time>1999-07-21T11:56:53Z</time>
      </trkpt>
      <trkpt lat="43.089184" lon="-5.707176">
        <ele>1550.608</ele>
        <time>1999-07-21T11:56:55Z</time>
      </trkpt>
      <trkpt lat="43.089237" lon="-5.707206">
        <ele>1550.842</ele>
        <time>1999-07-21T11:56:56Z</time>
      </trkpt>
      <trkpt lat="43.089407" lon="-5.707280">
        <ele>1550.857</ele>
        <time>1999-07-21T11:56:59Z</time>
      </trkpt>
      <trkpt lat="43.089640" lon="-5.707335">
        <ele>1550.827</ele>
        <time>1999-07-21T11:57:03Z</time>
      </trkpt>
      <trkpt lat="43.090026" lon="-5.707354">
        <ele>1550.828</ele>
        <time>1999-07-21T11:57:09Z</time>
      </trkpt>
      <trkpt lat="43.090366" lon="-5.707390">
        <ele>1550.446</ele>
        <time>1999-07-21T11:57:15Z</time>
      </trkpt>
      <trkpt lat="43.090621" lon="-5.707394">
        <ele>1550.424</ele>
        <time>1999-07-21T11:57:21Z</time>
      </trkpt>
      <trkpt lat="43.090709" lon="-5.707397">
        <ele>1550.435</ele>
        <time>1999-07-21T11:57:23Z</time>
      </trkpt>
      <trkpt lat="43.090754" lon="-5.707387">
        <ele>1550.671</ele>
        <time>1999-07-21T11:57:24Z</time>
      </trkpt>
      <trkpt lat="43.090878" lon="-5.707309">
        <ele>1551.255</ele>
        <time>1999-07-21T11:57:27Z</time>
      </trkpt>
      <trkpt lat="43.090919" lon="-5.707268">
        <ele>1551.407</ele>
        <time>1999-07-21T11:57:28Z</time>
      </trkpt>
      <trkpt lat="43.091010" lon="-5.707175">
        <ele>1551.417</ele>
        <time>1999-07-21T11:57:30Z</time>
      </trkpt>
      <trkpt lat="43.091065" lon="-5.707127">
        <ele>1551.608</ele>
        <time>1999-07-21T11:57:31Z</time>
      </trkpt>
      <trkpt lat="43.091122" lon="-5.707086">
        <ele>1551.618</ele>
        <time>1999-07-21T11:57:32Z</time>
      </trkpt>
      <trkpt lat="43.091242" lon="-5.707021">
        <ele>1551.673</ele>
        <time>1999-07-21T11:57:34Z</time>
      </trkpt>
      <trkpt lat="43.091287" lon="-5.706996">
        <ele>1551.693</ele>
        <time>1999-07-21T11:57:35Z</time>
      </trkpt>
      <trkpt lat="43.091343" lon="-5.706962">
        <ele>1551.274</ele>
        <time>1999-07-21T11:57:37Z</time>
      </trkpt>
      <trkpt lat="43.091385" lon="-5.706945">
        <ele>1550.812</ele>
        <time>1999-07-21T11:57:39Z</time>
      </trkpt>
      <trkpt lat="43.091424" lon="-5.706935">
        <ele>1549.850</ele>
        <time>1999-07-21T11:57:41Z</time>
      </trkpt>
      <trkpt lat="43.091472" lon="-5.706915">
        <ele>1548.441</ele>
        <time>1999-07-21T11:57:43Z</time>
      </trkpt>
      <trkpt lat="43.091524" lon="-5.706894">
        <ele>1548.067</ele>
        <time>1999-07-21T11:57:45Z</time>
      </trkpt>
      <trkpt lat="43.091666" lon="-5.706869">
        <ele>1548.034</ele>
        <time>1999-07-21T11:57:49Z</time>
      </trkpt>
      <trkpt lat="43.091799" lon="-5.706891">
        <ele>1548.055</ele>
        <time>1999-07-21T11:57:53Z</time>
      </trkpt>
      <trkpt lat="43.091832" lon="-5.706898">
        <ele>1548.010</ele>
        <time>1999-07-21T11:57:54Z</time>
      </trkpt>
      <trkpt lat="43.091925" lon="-5.706927">
        <ele>1548.208</ele>
        <time>1999-07-21T11:57:57Z</time>
      </trkpt>
      <trkpt lat="43.092030" lon="-5.706937">
        <ele>1548.886</ele>
        <time>1999-07-21T11:58:00Z</time>
      </trkpt>
      <trkpt lat="43.092065" lon="-5.706946">
        <ele>1548.861</ele>
        <time>1999-07-21T11:58:01Z</time>
      </trkpt>
      <trkpt lat="43.092162" lon="-5.706957">
        <ele>1549.451</ele>
        <time>1999-07-21T11:58:04Z</time>
      </trkpt>
      <trkpt lat="43.092225" lon="-5.706947">
        <ele>1550.012</ele>
        <time>1999-07-21T11:58:06Z</time>
      </trkpt>
      <trkpt lat="43.092313" lon="-5.706951">
        <ele>1550.840</ele>
        <time>1999-07-21T11:58:09Z</time>
      </trkpt>
      <trkpt lat="43.092413" lon="-5.706988">
        <ele>1551.828</ele>
        <time>1999-07-21T11:58:13Z</time>
      </trkpt>
      <trkpt lat="43.092520" lon="-5.707035">
        <ele>1552.819</ele>
        <time>1999-07-21T11:58:18Z</time>
      </trkpt>
      <trkpt lat="43.092556" lon="-5.707073">
        <ele>1553.645</ele>
        <time>1999-07-21T11:58:20Z</time>
      </trkpt>
      <trkpt lat="43.092580" lon="-5.707083">
        <ele>1554.016</ele>
        <time>1999-07-21T11:58:21Z</time>
      </trkpt>
      <trkpt lat="43.092659" lon="-5.707148">
        <ele>1555.076</ele>
        <time>1999-07-21T11:58:25Z</time>
      </trkpt>
      <trkpt lat="43.092702" lon="-5.707215">
        <ele>1555.613</ele>
        <time>1999-07-21T11:58:28Z</time>
      </trkpt>
      <trkpt lat="43.092739" lon="-5.707249">
        <ele>1556.008</ele>
        <time>1999-07-21T11:58:30Z</time>
      </trkpt>
      <trkpt lat="43.092819" lon="-5.707305">
        <ele>1557.034</ele>
        <time>1999-07-21T11:58:34Z</time>
      </trkpt>
      <trkpt lat="43.092839" lon="-5.707320">
        <ele>1557.269</ele>
        <time>1999-07-21T11:58:35Z</time>
      </trkpt>
      <trkpt lat="43.092914" lon="-5.707374">
        <ele>1558.249</ele>
        <time>1999-07-21T11:58:39Z</time>
      </trkpt>
      <trkpt lat="43.092981" lon="-5.707428">
        <ele>1559.470</ele>
        <time>1999-07-21T11:58:43Z</time>
      </trkpt>
      <trkpt lat="43.093053" lon="-5.707488">
        <ele>1560.478</ele>
        <time>1999-07-21T11:58:47Z</time>
      </trkpt>
      <trkpt lat="43.093119" lon="-5.707554">
        <ele>1561.246</ele>
        <time>1999-07-21T11:58:51Z</time>
      </trkpt>
      <trkpt lat="43.093158" lon="-5.707575">
        <ele>1561.447</ele>
        <time>1999-07-21T11:58:53Z</time>
      </trkpt>
      <trkpt lat="43.093222" lon="-5.707622">
        <ele>1562.253</ele>
        <time>1999-07-21T11:58:57Z</time>
      </trkpt>
      <trkpt lat="43.093236" lon="-5.707644">
        <ele>1562.448</ele>
        <time>1999-07-21T11:58:58Z</time>
      </trkpt>
      <trkpt lat="43.093251" lon="-5.707666">
        <ele>1562.861</ele>
        <time>1999-07-21T11:58:59Z</time>
      </trkpt>
      <trkpt lat="43.093284" lon="-5.707707">
        <ele>1563.217</ele>
        <time>1999-07-21T11:59:01Z</time>
      </trkpt>
      <trkpt lat="43.093303" lon="-5.707727">
        <ele>1563.608</ele>
        <time>1999-07-21T11:59:02Z</time>
      </trkpt>
      <trkpt lat="43.093360" lon="-5.707783">
        <ele>1564.457</ele>
        <time>1999-07-21T11:59:05Z</time>
      </trkpt>
      <trkpt lat="43.093400" lon="-5.707830">
        <ele>1564.692</ele>
        <time>1999-07-21T11:59:07Z</time>
      </trkpt>
      <trkpt lat="43.093472" lon="-5.707953">
        <ele>1565.042</ele>
        <time>1999-07-21T11:59:11Z</time>
      </trkpt>
      <trkpt lat="43.093599" lon="-5.708205">
        <ele>1565.443</ele>
        <time>1999-07-21T11:59:18Z</time>
      </trkpt>
      <trkpt lat="43.093635" lon="-5.708274">
        <ele>1565.411</ele>
        <time>1999-07-21T11:59:20Z</time>
      </trkpt>
      <trkpt lat="43.093685" lon="-5.708383">
        <ele>1565.639</ele>
        <time>1999-07-21T11:59:23Z</time>
      </trkpt>
      <trkpt lat="43.093714" lon="-5.708461">
        <ele>1565.620</ele>
        <time>1999-07-21T11:59:25Z</time>
      </trkpt>
      <trkpt lat="43.093757" lon="-5.708585">
        <ele>1565.886</ele>
        <time>1999-07-21T11:59:28Z</time>
      </trkpt>
      <trkpt lat="43.093831" lon="-5.708752">
        <ele>1565.853</ele>
        <time>1999-07-21T11:59:32Z</time>
      </trkpt>
      <trkpt lat="43.093952" lon="-5.709063">
        <ele>1566.004</ele>
        <time>1999-07-21T11:59:39Z</time>
      </trkpt>
      <trkpt lat="43.094021" lon="-5.709270">
        <ele>1566.014</ele>
        <time>1999-07-21T11:59:43Z</time>
      </trkpt>
      <trkpt lat="43.094069" lon="-5.709379">
        <ele>1566.008</ele>
        <time>1999-07-21T11:59:45Z</time>
      </trkpt>
      <trkpt lat="43.094247" lon="-5.709734">
        <ele>1566.248</ele>
        <time>1999-07-21T11:59:52Z</time>
      </trkpt>
      <trkpt lat="43.094269" lon="-5.709790">
        <ele>1566.283</ele>
        <time>1999-07-21T11:59:53Z</time>
      </trkpt>
      <trkpt lat="43.094290" lon="-5.709852">
        <ele>1566.253</ele>
        <time>1999-07-21T11:59:54Z</time>
      </trkpt>
      <trkpt lat="43.094330" lon="-5.710076">
        <ele>1566.224</ele>
        <time>1999-07-21T11:59:57Z</time>
      </trkpt>
      <trkpt lat="43.094409" lon="-5.710417">
        <ele>1566.032</ele>
        <time>1999-07-21T12:00:01Z</time>
      </trkpt>
      <trkpt lat="43.094460" lon="-5.710594">
        <ele>1565.670</ele>
        <time>1999-07-21T12:00:03Z</time>
      </trkpt>
      <trkpt lat="43.094529" lon="-5.710772">
        <ele>1565.061</ele>
        <time>1999-07-21T12:00:05Z</time>
      </trkpt>
      <trkpt lat="43.094569" lon="-5.710858">
        <ele>1564.857</ele>
        <time>1999-07-21T12:00:06Z</time>
      </trkpt>
      <trkpt lat="43.094659" lon="-5.711018">
        <ele>1564.088</ele>
        <time>1999-07-21T12:00:08Z</time>
      </trkpt>
      <trkpt lat="43.094709" lon="-5.711087">
        <ele>1563.624</ele>
        <time>1999-07-21T12:00:09Z</time>
      </trkpt>
      <trkpt lat="43.094815" lon="-5.711211">
        <ele>1562.826</ele>
        <time>1999-07-21T12:00:11Z</time>
      </trkpt>
      <trkpt lat="43.094870" lon="-5.711268">
        <ele>1562.608</ele>
        <time>1999-07-21T12:00:12Z</time>
      </trkpt>
      <trkpt lat="43.094923" lon="-5.711324">
        <ele>1562.041</ele>
        <time>1999-07-21T12:00:13Z</time>
      </trkpt>
      <trkpt lat="43.095022" lon="-5.711433">
        <ele>1561.446</ele>
        <time>1999-07-21T12:00:15Z</time>
      </trkpt>
      <trkpt lat="43.095072" lon="-5.711481">
        <ele>1561.296</ele>
        <time>1999-07-21T12:00:16Z</time>
      </trkpt>
      <trkpt lat="43.095217" lon="-5.711612">
        <ele>1560.867</ele>
        <time>1999-07-21T12:00:19Z</time>
      </trkpt>
      <trkpt lat="43.095266" lon="-5.711651">
        <ele>1560.635</ele>
        <time>1999-07-21T12:00:20Z</time>
      </trkpt>
      <trkpt lat="43.095416" lon="-5.711749">
        <ele>1560.423</ele>
        <time>1999-07-21T12:00:23Z</time>
      </trkpt>
      <trkpt lat="43.095502" lon="-5.711812">
        <ele>1560.484</ele>
        <time>1999-07-21T12:00:25Z</time>
      </trkpt>
      <trkpt lat="43.095623" lon="-5.711886">
        <ele>1560.410</ele>
        <time>1999-07-21T12:00:28Z</time>
      </trkpt>
      <trkpt lat="43.095660" lon="-5.711913">
        <ele>1560.453</ele>
        <time>1999-07-21T12:00:29Z</time>
      </trkpt>
      <trkpt lat="43.095727" lon="-5.711975">
        <ele>1560.604</ele>
        <time>1999-07-21T12:00:31Z</time>
      </trkpt>
      <trkpt lat="43.095773" lon="-5.712049">
        <ele>1560.814</ele>
        <time>1999-07-21T12:00:33Z</time>
      </trkpt>
      <trkpt lat="43.095799" lon="-5.712161">
        <ele>1561.208</ele>
        <time>1999-07-21T12:00:35Z</time>
      </trkpt>
      <trkpt lat="43.095809" lon="-5.712235">
        <ele>1561.458</ele>
        <time>1999-07-21T12:00:36Z</time>
      </trkpt>
      <trkpt lat="43.095818" lon="-5.712317">
        <ele>1561.843</ele>
        <time>1999-07-21T12:00:37Z</time>
      </trkpt>
      <trkpt lat="43.095824" lon="-5.712503">
        <ele>1562.093</ele>
        <time>1999-07-21T12:00:39Z</time>
      </trkpt>
      <trkpt lat="43.095789" lon="-5.713016">
        <ele>1562.054</ele>
        <time>1999-07-21T12:00:44Z</time>
      </trkpt>
      <trkpt lat="43.095796" lon="-5.713516">
        <ele>1561.472</ele>
        <time>1999-07-21T12:00:49Z</time>
      </trkpt>
      <trkpt lat="43.095837" lon="-5.713783">
        <ele>1560.430</ele>
        <time>1999-07-21T12:00:52Z</time>
      </trkpt>
      <trkpt lat="43.095854" lon="-5.713967">
        <ele>1559.471</ele>
        <time>1999-07-21T12:00:54Z</time>
      </trkpt>
      <trkpt lat="43.095862" lon="-5.714060">
        <ele>1559.097</ele>
        <time>1999-07-21T12:00:55Z</time>
      </trkpt>
      <trkpt lat="43.095907" lon="-5.714326">
        <ele>1558.695</ele>
        <time>1999-07-21T12:00:58Z</time>
      </trkpt>
      <trkpt lat="43.095930" lon="-5.714407">
        <ele>1558.649</ele>
        <time>1999-07-21T12:00:59Z</time>
      </trkpt>
      <trkpt lat="43.096002" lon="-5.714632">
        <ele>1558.023</ele>
        <time>1999-07-21T12:01:02Z</time>
      </trkpt>
      <trkpt lat="43.096055" lon="-5.714832">
        <ele>1557.808</ele>
        <time>1999-07-21T12:01:05Z</time>
      </trkpt>
      <trkpt lat="43.096101" lon="-5.715071">
        <ele>1557.652</ele>
        <time>1999-07-21T12:01:09Z</time>
      </trkpt>
      <trkpt lat="43.096161" lon="-5.715275">
        <ele>1557.677</ele>
        <time>1999-07-21T12:01:13Z</time>
      </trkpt>
      <trkpt lat="43.096288" lon="-5.715466">
        <ele>1558.667</ele>
        <time>1999-07-21T12:01:18Z</time>
      </trkpt>
      <trkpt lat="43.096294" lon="-5.715559">
        <ele>1558.858</ele>
        <time>1999-07-21T12:01:20Z</time>
      </trkpt>
      <trkpt lat="43.096278" lon="-5.715631">
        <ele>1559.066</ele>
        <time>1999-07-21T12:01:22Z</time>
      </trkpt>
      <trkpt lat="43.096276" lon="-5.715666">
        <ele>1559.224</ele>
        <time>1999-07-21T12:01:23Z</time>
      </trkpt>
      <trkpt lat="43.096250" lon="-5.715821">
        <ele>1559.815</ele>
        <time>1999-07-21T12:01:27Z</time>
      </trkpt>
      <trkpt lat="43.096194" lon="-5.715953">
        <ele>1560.491</ele>
        <time>1999-07-21T12:01:30Z</time>
      </trkpt>
      <trkpt lat="43.096143" lon="-5.716034">
        <ele>1561.262</ele>
        <time>1999-07-21T12:01:32Z</time>
      </trkpt>
      <trkpt lat="43.096117" lon="-5.716074">
        <ele>1561.683</ele>
        <time>1999-07-21T12:01:33Z</time>
      </trkpt>
      <trkpt lat="43.095991" lon="-5.716314">
        <ele>1562.611</ele>
        <time>1999-07-21T12:01:39Z</time>
      </trkpt>
      <trkpt lat="43.095911" lon="-5.716470">
        <ele>1563.208</ele>
        <time>1999-07-21T12:01:44Z</time>
      </trkpt>
      <trkpt lat="43.095922" lon="-5.716492">
        <ele>1563.259</ele>
        <time>1999-07-21T12:01:45Z</time>
      </trkpt>
      <trkpt lat="43.095959" lon="-5.716573">
        <ele>1563.244</ele>
        <time>1999-07-21T12:01:47Z</time>
      </trkpt>
      <trkpt lat="43.096048" lon="-5.716749">
        <ele>1563.234</ele>
        <time>1999-07-21T12:01:51Z</time>
      </trkpt>
      <trkpt lat="43.096055" lon="-5.716771">
        <ele>1563.295</ele>
        <time>1999-07-21T12:01:52Z</time>
      </trkpt>
      <trkpt lat="43.096058" lon="-5.716775">
        <ele>1563.053</ele>
        <time>1999-07-21T12:01:54Z</time>
      </trkpt>
      <trkpt lat="43.096106" lon="-5.716791">
        <ele>1558.811</ele>
        <time>1999-07-21T12:02:46Z</time>
      </trkpt>
      <trkpt lat="43.096138" lon="-5.716809">
        <ele>1558.872</ele>
        <time>1999-07-21T12:02:47Z</time>
      </trkpt>
      <trkpt lat="43.096268" lon="-5.716924">
        <ele>1558.858</ele>
        <time>1999-07-21T12:02:50Z</time>
      </trkpt>
      <trkpt lat="43.096531" lon="-5.717130">
        <ele>1558.858</ele>
        <time>1999-07-21T12:02:54Z</time>
      </trkpt>
      <trkpt lat="43.096746" lon="-5.717273">
        <ele>1557.852</ele>
        <time>1999-07-21T12:02:57Z</time>
      </trkpt>
      <trkpt lat="43.096877" lon="-5.717378">
        <ele>1556.417</ele>
        <time>1999-07-21T12:02:59Z</time>
      </trkpt>
      <trkpt lat="43.096937" lon="-5.717440">
        <ele>1555.808</ele>
        <time>1999-07-21T12:03:00Z</time>
      </trkpt>
      <trkpt lat="43.096996" lon="-5.717503">
        <ele>1555.288</ele>
        <time>1999-07-21T12:03:01Z</time>
      </trkpt>
      <trkpt lat="43.097117" lon="-5.717620">
        <ele>1554.243</ele>
        <time>1999-07-21T12:03:03Z</time>
      </trkpt>
      <trkpt lat="43.097183" lon="-5.717666">
        <ele>1553.833</ele>
        <time>1999-07-21T12:03:04Z</time>
      </trkpt>
      <trkpt lat="43.097310" lon="-5.717764">
        <ele>1553.224</ele>
        <time>1999-07-21T12:03:06Z</time>
      </trkpt>
      <trkpt lat="43.097421" lon="-5.717873">
        <ele>1552.842</ele>
        <time>1999-07-21T12:03:08Z</time>
      </trkpt>
      <trkpt lat="43.097534" lon="-5.717977">
        <ele>1552.480</ele>
        <time>1999-07-21T12:03:10Z</time>
      </trkpt>
      <trkpt lat="43.097586" lon="-5.718043">
        <ele>1552.221</ele>
        <time>1999-07-21T12:03:11Z</time>
      </trkpt>
      <trkpt lat="43.097741" lon="-5.718368">
        <ele>1552.097</ele>
        <time>1999-07-21T12:03:15Z</time>
      </trkpt>
      <trkpt lat="43.097762" lon="-5.718442">
        <ele>1551.835</ele>
        <time>1999-07-21T12:03:16Z</time>
      </trkpt>
      <trkpt lat="43.097802" lon="-5.718595">
        <ele>1551.686</ele>
        <time>1999-07-21T12:03:18Z</time>
      </trkpt>
      <trkpt lat="43.097835" lon="-5.718753">
        <ele>1551.414</ele>
        <time>1999-07-21T12:03:20Z</time>
      </trkpt>
      <trkpt lat="43.097843" lon="-5.718828">
        <ele>1551.208</ele>
        <time>1999-07-21T12:03:21Z</time>
      </trkpt>
      <trkpt lat="43.097843" lon="-5.718979">
        <ele>1549.866</ele>
        <time>1999-07-21T12:03:23Z</time>
      </trkpt>
      <trkpt lat="43.097850" lon="-5.719132">
        <ele>1548.641</ele>
        <time>1999-07-21T12:03:25Z</time>
      </trkpt>
      <trkpt lat="43.097856" lon="-5.719201">
        <ele>1548.491</ele>
        <time>1999-07-21T12:03:26Z</time>
      </trkpt>
      <trkpt lat="43.097862" lon="-5.719264">
        <ele>1547.482</ele>
        <time>1999-07-21T12:03:27Z</time>
      </trkpt>
      <trkpt lat="43.097875" lon="-5.719376">
        <ele>1545.690</ele>
        <time>1999-07-21T12:03:29Z</time>
      </trkpt>
      <trkpt lat="43.097890" lon="-5.719503">
        <ele>1544.218</ele>
        <time>1999-07-21T12:03:31Z</time>
      </trkpt>
      <trkpt lat="43.097891" lon="-5.719650">
        <ele>1543.039</ele>
        <time>1999-07-21T12:03:33Z</time>
      </trkpt>
      <trkpt lat="43.097887" lon="-5.719810">
        <ele>1541.265</ele>
        <time>1999-07-21T12:03:35Z</time>
      </trkpt>
      <trkpt lat="43.097884" lon="-5.719894">
        <ele>1540.486</ele>
        <time>1999-07-21T12:03:36Z</time>
      </trkpt>
      <trkpt lat="43.097880" lon="-5.719969">
        <ele>1539.660</ele>
        <time>1999-07-21T12:03:37Z</time>
      </trkpt>
      <trkpt lat="43.097887" lon="-5.720083">
        <ele>1537.826</ele>
        <time>1999-07-21T12:03:39Z</time>
      </trkpt>
      <trkpt lat="43.097878" lon="-5.720204">
        <ele>1536.008</ele>
        <time>1999-07-21T12:03:41Z</time>
      </trkpt>
      <trkpt lat="43.097854" lon="-5.720346">
        <ele>1534.631</ele>
        <time>1999-07-21T12:03:43Z</time>
      </trkpt>
      <trkpt lat="43.097833" lon="-5.720516">
        <ele>1533.066</ele>
        <time>1999-07-21T12:03:45Z</time>
      </trkpt>
      <trkpt lat="43.097840" lon="-5.720719">
        <ele>1532.066</ele>
        <time>1999-07-21T12:03:47Z</time>
      </trkpt>
      <trkpt lat="43.097859" lon="-5.720819">
        <ele>1531.697</ele>
        <time>1999-07-21T12:03:48Z</time>
      </trkpt>
      <trkpt lat="43.097925" lon="-5.720997">
        <ele>1530.685</ele>
        <time>1999-07-21T12:03:50Z</time>
      </trkpt>
      <trkpt lat="43.098016" lon="-5.721139">
        <ele>1529.423</ele>
        <time>1999-07-21T12:03:52Z</time>
      </trkpt>
      <trkpt lat="43.098102" lon="-5.721249">
        <ele>1528.244</ele>
        <time>1999-07-21T12:03:54Z</time>
      </trkpt>
      <trkpt lat="43.098317" lon="-5.721438">
        <ele>1527.220</ele>
        <time>1999-07-21T12:03:59Z</time>
      </trkpt>
      <trkpt lat="43.098365" lon="-5.721462">
        <ele>1527.217</ele>
        <time>1999-07-21T12:04:00Z</time>
      </trkpt>
      <trkpt lat="43.098411" lon="-5.721481">
        <ele>1527.287</ele>
        <time>1999-07-21T12:04:01Z</time>
      </trkpt>
      <trkpt lat="43.098496" lon="-5.721500">
        <ele>1527.015</ele>
        <time>1999-07-21T12:04:03Z</time>
      </trkpt>
      <trkpt lat="43.098545" lon="-5.721510">
        <ele>1527.008</ele>
        <time>1999-07-21T12:04:04Z</time>
      </trkpt>
      <trkpt lat="43.098846" lon="-5.721629">
        <ele>1526.244</ele>
        <time>1999-07-21T12:04:09Z</time>
      </trkpt>
      <trkpt lat="43.098917" lon="-5.721650">
        <ele>1525.819</ele>
        <time>1999-07-21T12:04:10Z</time>
      </trkpt>
      <trkpt lat="43.098990" lon="-5.721663">
        <ele>1525.289</ele>
        <time>1999-07-21T12:04:11Z</time>
      </trkpt>
      <trkpt lat="43.099140" lon="-5.721693">
        <ele>1524.420</ele>
        <time>1999-07-21T12:04:13Z</time>
      </trkpt>
      <trkpt lat="43.099223" lon="-5.721716">
        <ele>1523.618</ele>
        <time>1999-07-21T12:04:14Z</time>
      </trkpt>
      <trkpt lat="43.099308" lon="-5.721740">
        <ele>1522.646</ele>
        <time>1999-07-21T12:04:15Z</time>
      </trkpt>
      <trkpt lat="43.099394" lon="-5.721753">
        <ele>1521.697</ele>
        <time>1999-07-21T12:04:16Z</time>
      </trkpt>
      <trkpt lat="43.099563" lon="-5.721749">
        <ele>1519.623</ele>
        <time>1999-07-21T12:04:18Z</time>
      </trkpt>
      <trkpt lat="43.099640" lon="-5.721739">
        <ele>1518.664</ele>
        <time>1999-07-21T12:04:19Z</time>
      </trkpt>
      <trkpt lat="43.099764" lon="-5.721711">
        <ele>1516.606</ele>
        <time>1999-07-21T12:04:21Z</time>
      </trkpt>
      <trkpt lat="43.099807" lon="-5.721696">
        <ele>1515.616</ele>
        <time>1999-07-21T12:04:22Z</time>
      </trkpt>
      <trkpt lat="43.099839" lon="-5.721683">
        <ele>1514.608</ele>
        <time>1999-07-21T12:04:23Z</time>
      </trkpt>
      <trkpt lat="43.099860" lon="-5.721678">
        <ele>1513.889</ele>
        <time>1999-07-21T12:04:24Z</time>
      </trkpt>
      <trkpt lat="43.099870" lon="-5.721675">
        <ele>1513.234</ele>
        <time>1999-07-21T12:04:25Z</time>
      </trkpt>
      <trkpt lat="43.099870" lon="-5.721668">
        <ele>1511.654</ele>
        <time>1999-07-21T12:04:27Z</time>
      </trkpt>
      <trkpt lat="43.099948" lon="-5.721647">
        <ele>1504.245</ele>
        <time>1999-07-21T12:04:37Z</time>
      </trkpt>
      <trkpt lat="43.099990" lon="-5.721644">
        <ele>1504.213</ele>
        <time>1999-07-21T12:04:38Z</time>
      </trkpt>
      <trkpt lat="43.100170" lon="-5.721642">
        <ele>1504.481</ele>
        <time>1999-07-21T12:04:41Z</time>
      </trkpt>
      <trkpt lat="43.100323" lon="-5.721613">
        <ele>1504.222</ele>
        <time>1999-07-21T12:04:43Z</time>
      </trkpt>
      <trkpt lat="43.100483" lon="-5.721590">
        <ele>1503.878</ele>
        <time>1999-07-21T12:04:45Z</time>
      </trkpt>
      <trkpt lat="43.100557" lon="-5.721569">
        <ele>1503.441</ele>
        <time>1999-07-21T12:04:46Z</time>
      </trkpt>
      <trkpt lat="43.100701" lon="-5.721517">
        <ele>1502.481</ele>
        <time>1999-07-21T12:04:48Z</time>
      </trkpt>
      <trkpt lat="43.100775" lon="-5.721485">
        <ele>1501.809</ele>
        <time>1999-07-21T12:04:49Z</time>
      </trkpt>
      <trkpt lat="43.100848" lon="-5.721450">
        <ele>1500.408</ele>
        <time>1999-07-21T12:04:50Z</time>
      </trkpt>
      <trkpt lat="43.100919" lon="-5.721414">
        <ele>1499.877</ele>
        <time>1999-07-21T12:04:51Z</time>
      </trkpt>
      <trkpt lat="43.101000" lon="-5.721366">
        <ele>1499.042</ele>
        <time>1999-07-21T12:04:52Z</time>
      </trkpt>
      <trkpt lat="43.101144" lon="-5.721279">
        <ele>1497.872</ele>
        <time>1999-07-21T12:04:54Z</time>
      </trkpt>
      <trkpt lat="43.101210" lon="-5.721239">
        <ele>1496.883</ele>
        <time>1999-07-21T12:04:55Z</time>
      </trkpt>
      <trkpt lat="43.101277" lon="-5.721201">
        <ele>1495.841</ele>
        <time>1999-07-21T12:04:56Z</time>
      </trkpt>
      <trkpt lat="43.101348" lon="-5.721154">
        <ele>1494.839</ele>
        <time>1999-07-21T12:04:57Z</time>
      </trkpt>
      <trkpt lat="43.101410" lon="-5.721111">
        <ele>1493.840</ele>
        <time>1999-07-21T12:04:58Z</time>
      </trkpt>
      <trkpt lat="43.101471" lon="-5.721059">
        <ele>1493.046</ele>
        <time>1999-07-21T12:04:59Z</time>
      </trkpt>
      <trkpt lat="43.101527" lon="-5.721007">
        <ele>1492.078</ele>
        <time>1999-07-21T12:05:00Z</time>
      </trkpt>
      <trkpt lat="43.101571" lon="-5.720961">
        <ele>1490.833</ele>
        <time>1999-07-21T12:05:01Z</time>
      </trkpt>
      <trkpt lat="43.101604" lon="-5.720920">
        <ele>1488.226</ele>
        <time>1999-07-21T12:05:02Z</time>
      </trkpt>
      <trkpt lat="43.101628" lon="-5.720885">
        <ele>1486.608</ele>
        <time>1999-07-21T12:05:03Z</time>
      </trkpt>
      <trkpt lat="43.101648" lon="-5.720852">
        <ele>1485.290</ele>
        <time>1999-07-21T12:05:04Z</time>
      </trkpt>
      <trkpt lat="43.101670" lon="-5.720828">
        <ele>1483.885</ele>
        <time>1999-07-21T12:05:05Z</time>
      </trkpt>
      <trkpt lat="43.101693" lon="-5.720816">
        <ele>1482.485</ele>
        <time>1999-07-21T12:05:06Z</time>
      </trkpt>
      <trkpt lat="43.101713" lon="-5.720814">
        <ele>1481.096</ele>
        <time>1999-07-21T12:05:07Z</time>
      </trkpt>
      <trkpt lat="43.101734" lon="-5.720819">
        <ele>1479.674</ele>
        <time>1999-07-21T12:05:08Z</time>
      </trkpt>
      <trkpt lat="43.101746" lon="-5.720838">
        <ele>1478.262</ele>
        <time>1999-07-21T12:05:09Z</time>
      </trkpt>
      <trkpt lat="43.101756" lon="-5.720870">
        <ele>1476.893</ele>
        <time>1999-07-21T12:05:10Z</time>
      </trkpt>
      <trkpt lat="43.101762" lon="-5.720905">
        <ele>1475.829</ele>
        <time>1999-07-21T12:05:11Z</time>
      </trkpt>
      <trkpt lat="43.101774" lon="-5.721008">
        <ele>1474.079</ele>
        <time>1999-07-21T12:05:13Z</time>
      </trkpt>
      <trkpt lat="43.101784" lon="-5.721146">
        <ele>1472.405</ele>
        <time>1999-07-21T12:05:15Z</time>
      </trkpt>
      <trkpt lat="43.101799" lon="-5.721383">
        <ele>1471.025</ele>
        <time>1999-07-21T12:05:18Z</time>
      </trkpt>
      <trkpt lat="43.101804" lon="-5.721621">
        <ele>1470.008</ele>
        <time>1999-07-21T12:05:20Z</time>
      </trkpt>
      <trkpt lat="43.101808" lon="-5.721847">
        <ele>1468.630</ele>
        <time>1999-07-21T12:05:22Z</time>
      </trkpt>
      <trkpt lat="43.101814" lon="-5.722033">
        <ele>1466.665</ele>
        <time>1999-07-21T12:05:24Z</time>
      </trkpt>
      <trkpt lat="43.101823" lon="-5.722119">
        <ele>1465.035</ele>
        <time>1999-07-21T12:05:25Z</time>
      </trkpt>
      <trkpt lat="43.101828" lon="-5.722198">
        <ele>1463.646</ele>
        <time>1999-07-21T12:05:26Z</time>
      </trkpt>
      <trkpt lat="43.101829" lon="-5.722268">
        <ele>1462.074</ele>
        <time>1999-07-21T12:05:27Z</time>
      </trkpt>
      <trkpt lat="43.101835" lon="-5.722343">
        <ele>1460.892</ele>
        <time>1999-07-21T12:05:28Z</time>
      </trkpt>
      <trkpt lat="43.101845" lon="-5.722426">
        <ele>1459.433</ele>
        <time>1999-07-21T12:05:29Z</time>
      </trkpt>
      <trkpt lat="43.101854" lon="-5.722512">
        <ele>1457.699</ele>
        <time>1999-07-21T12:05:30Z</time>
      </trkpt>
      <trkpt lat="43.101867" lon="-5.722593">
        <ele>1454.658</ele>
        <time>1999-07-21T12:05:31Z</time>
      </trkpt>
      <trkpt lat="43.101887" lon="-5.722674">
        <ele>1452.852</ele>
        <time>1999-07-21T12:05:32Z</time>
      </trkpt>
      <trkpt lat="43.101911" lon="-5.722764">
        <ele>1451.417</ele>
        <time>1999-07-21T12:05:33Z</time>
      </trkpt>
      <trkpt lat="43.101940" lon="-5.722862">
        <ele>1450.208</ele>
        <time>1999-07-21T12:05:34Z</time>
      </trkpt>
      <trkpt lat="43.102016" lon="-5.723073">
        <ele>1448.248</ele>
        <time>1999-07-21T12:05:36Z</time>
      </trkpt>
      <trkpt lat="43.102056" lon="-5.723184">
        <ele>1447.263</ele>
        <time>1999-07-21T12:05:37Z</time>
      </trkpt>
      <trkpt lat="43.102121" lon="-5.723411">
        <ele>1445.493</ele>
        <time>1999-07-21T12:05:39Z</time>
      </trkpt>
      <trkpt lat="43.102169" lon="-5.723639">
        <ele>1443.884</ele>
        <time>1999-07-21T12:05:41Z</time>
      </trkpt>
      <trkpt lat="43.102218" lon="-5.723866">
        <ele>1442.282</ele>
        <time>1999-07-21T12:05:43Z</time>
      </trkpt>
      <trkpt lat="43.102277" lon="-5.724089">
        <ele>1440.490</ele>
        <time>1999-07-21T12:05:45Z</time>
      </trkpt>
      <trkpt lat="43.102308" lon="-5.724200">
        <ele>1439.811</ele>
        <time>1999-07-21T12:05:46Z</time>
      </trkpt>
      <trkpt lat="43.102342" lon="-5.724308">
        <ele>1439.287</ele>
        <time>1999-07-21T12:05:47Z</time>
      </trkpt>
      <trkpt lat="43.102489" lon="-5.724730">
        <ele>1438.254</ele>
        <time>1999-07-21T12:05:51Z</time>
      </trkpt>
      <trkpt lat="43.102527" lon="-5.724837">
        <ele>1438.056</ele>
        <time>1999-07-21T12:05:52Z</time>
      </trkpt>
      <trkpt lat="43.102642" lon="-5.725149">
        <ele>1437.011</ele>
        <time>1999-07-21T12:05:55Z</time>
      </trkpt>
      <trkpt lat="43.102745" lon="-5.725429">
        <ele>1436.008</ele>
        <time>1999-07-21T12:05:58Z</time>
      </trkpt>
      <trkpt lat="43.102773" lon="-5.725519">
        <ele>1435.638</ele>
        <time>1999-07-21T12:05:59Z</time>
      </trkpt>
      <trkpt lat="43.102845" lon="-5.725783">
        <ele>1435.483</ele>
        <time>1999-07-21T12:06:02Z</time>
      </trkpt>
      <trkpt lat="43.102914" lon="-5.726016">
        <ele>1435.273</ele>
        <time>1999-07-21T12:06:05Z</time>
      </trkpt>
      <trkpt lat="43.102982" lon="-5.726205">
        <ele>1435.284</ele>
        <time>1999-07-21T12:06:08Z</time>
      </trkpt>
      <trkpt lat="43.103043" lon="-5.726362">
        <ele>1436.022</ele>
        <time>1999-07-21T12:06:11Z</time>
      </trkpt>
      <trkpt lat="43.103066" lon="-5.726411">
        <ele>1436.230</ele>
        <time>1999-07-21T12:06:12Z</time>
      </trkpt>
      <trkpt lat="43.103158" lon="-5.726605">
        <ele>1437.291</ele>
        <time>1999-07-21T12:06:16Z</time>
      </trkpt>
      <trkpt lat="43.103178" lon="-5.726656">
        <ele>1437.487</ele>
        <time>1999-07-21T12:06:17Z</time>
      </trkpt>
      <trkpt lat="43.103250" lon="-5.726857">
        <ele>1438.446</ele>
        <time>1999-07-21T12:06:21Z</time>
      </trkpt>
      <trkpt lat="43.103289" lon="-5.726953">
        <ele>1438.888</ele>
        <time>1999-07-21T12:06:23Z</time>
      </trkpt>
      <trkpt lat="43.103304" lon="-5.727004">
        <ele>1439.016</ele>
        <time>1999-07-21T12:06:24Z</time>
      </trkpt>
      <trkpt lat="43.103334" lon="-5.727109">
        <ele>1439.408</ele>
        <time>1999-07-21T12:06:26Z</time>
      </trkpt>
      <trkpt lat="43.103407" lon="-5.727318">
        <ele>1440.687</ele>
        <time>1999-07-21T12:06:30Z</time>
      </trkpt>
      <trkpt lat="43.103458" lon="-5.727422">
        <ele>1440.892</ele>
        <time>1999-07-21T12:06:32Z</time>
      </trkpt>
      <trkpt lat="43.103546" lon="-5.727646">
        <ele>1441.622</ele>
        <time>1999-07-21T12:06:36Z</time>
      </trkpt>
      <trkpt lat="43.103624" lon="-5.727812">
        <ele>1441.893</ele>
        <time>1999-07-21T12:06:39Z</time>
      </trkpt>
      <trkpt lat="43.103713" lon="-5.727966">
        <ele>1441.851</ele>
        <time>1999-07-21T12:06:42Z</time>
      </trkpt>
      <trkpt lat="43.103783" lon="-5.728126">
        <ele>1442.029</ele>
        <time>1999-07-21T12:06:45Z</time>
      </trkpt>
      <trkpt lat="43.103922" lon="-5.728601">
        <ele>1442.210</ele>
        <time>1999-07-21T12:06:53Z</time>
      </trkpt>
      <trkpt lat="43.104052" lon="-5.729093">
        <ele>1442.686</ele>
        <time>1999-07-21T12:07:01Z</time>
      </trkpt>
      <trkpt lat="43.104093" lon="-5.729217">
        <ele>1442.865</ele>
        <time>1999-07-21T12:07:03Z</time>
      </trkpt>
      <trkpt lat="43.104168" lon="-5.729406">
        <ele>1443.068</ele>
        <time>1999-07-21T12:07:06Z</time>
      </trkpt>
      <trkpt lat="43.104268" lon="-5.729599">
        <ele>1443.014</ele>
        <time>1999-07-21T12:07:09Z</time>
      </trkpt>
      <trkpt lat="43.104335" lon="-5.729743">
        <ele>1443.008</ele>
        <time>1999-07-21T12:07:11Z</time>
      </trkpt>
      <trkpt lat="43.104433" lon="-5.729979">
        <ele>1443.079</ele>
        <time>1999-07-21T12:07:14Z</time>
      </trkpt>
      <trkpt lat="43.104496" lon="-5.730138">
        <ele>1443.054</ele>
        <time>1999-07-21T12:07:16Z</time>
      </trkpt>
      <trkpt lat="43.104594" lon="-5.730365">
        <ele>1442.654</ele>
        <time>1999-07-21T12:07:19Z</time>
      </trkpt>
      <trkpt lat="43.104666" lon="-5.730509">
        <ele>1441.825</ele>
        <time>1999-07-21T12:07:21Z</time>
      </trkpt>
      <trkpt lat="43.104707" lon="-5.730582">
        <ele>1441.263</ele>
        <time>1999-07-21T12:07:22Z</time>
      </trkpt>
      <trkpt lat="43.104748" lon="-5.730659">
        <ele>1441.221</ele>
        <time>1999-07-21T12:07:23Z</time>
      </trkpt>
      <trkpt lat="43.104838" lon="-5.730815">
        <ele>1441.072</ele>
        <time>1999-07-21T12:07:25Z</time>
      </trkpt>
      <trkpt lat="43.104948" lon="-5.730960">
        <ele>1440.688</ele>
        <time>1999-07-21T12:07:27Z</time>
      </trkpt>
      <trkpt lat="43.105008" lon="-5.731029">
        <ele>1440.495</ele>
        <time>1999-07-21T12:07:28Z</time>
      </trkpt>
      <trkpt lat="43.105139" lon="-5.731158">
        <ele>1440.049</ele>
        <time>1999-07-21T12:07:30Z</time>
      </trkpt>
      <trkpt lat="43.105270" lon="-5.731294">
        <ele>1439.223</ele>
        <time>1999-07-21T12:07:32Z</time>
      </trkpt>
      <trkpt lat="43.105327" lon="-5.731371">
        <ele>1438.808</ele>
        <time>1999-07-21T12:07:33Z</time>
      </trkpt>
      <trkpt lat="43.105380" lon="-5.731447">
        <ele>1438.252</ele>
        <time>1999-07-21T12:07:34Z</time>
      </trkpt>
      <trkpt lat="43.105423" lon="-5.731528">
        <ele>1437.887</ele>
        <time>1999-07-21T12:07:35Z</time>
      </trkpt>
      <trkpt lat="43.105492" lon="-5.731683">
        <ele>1436.827</ele>
        <time>1999-07-21T12:07:37Z</time>
      </trkpt>
      <trkpt lat="43.105512" lon="-5.731768">
        <ele>1436.428</ele>
        <time>1999-07-21T12:07:38Z</time>
      </trkpt>
      <trkpt lat="43.105529" lon="-5.731932">
        <ele>1435.866</ele>
        <time>1999-07-21T12:07:40Z</time>
      </trkpt>
      <trkpt lat="43.105536" lon="-5.732003">
        <ele>1435.454</ele>
        <time>1999-07-21T12:07:41Z</time>
      </trkpt>
      <trkpt lat="43.105569" lon="-5.732281">
        <ele>1434.825</ele>
        <time>1999-07-21T12:07:46Z</time>
      </trkpt>
      <trkpt lat="43.105569" lon="-5.732449">
        <ele>1435.011</ele>
        <time>1999-07-21T12:07:50Z</time>
      </trkpt>
      <trkpt lat="43.105567" lon="-5.732521">
        <ele>1435.646</ele>
        <time>1999-07-21T12:07:52Z</time>
      </trkpt>
      <trkpt lat="43.105559" lon="-5.732614">
        <ele>1436.088</ele>
        <time>1999-07-21T12:07:55Z</time>
      </trkpt>
      <trkpt lat="43.105553" lon="-5.732683">
        <ele>1436.416</ele>
        <time>1999-07-21T12:07:58Z</time>
      </trkpt>
      <trkpt lat="43.105549" lon="-5.732701">
        <ele>1436.808</ele>
        <time>1999-07-21T12:07:59Z</time>
      </trkpt>
      <trkpt lat="43.105533" lon="-5.732772">
        <ele>1437.647</ele>
        <time>1999-07-21T12:08:02Z</time>
      </trkpt>
      <trkpt lat="43.105499" lon="-5.732858">
        <ele>1438.492</ele>
        <time>1999-07-21T12:08:05Z</time>
      </trkpt>
      <trkpt lat="43.105477" lon="-5.732903">
        <ele>1438.882</ele>
        <time>1999-07-21T12:08:07Z</time>
      </trkpt>
      <trkpt lat="43.105468" lon="-5.732920">
        <ele>1438.893</ele>
        <time>1999-07-21T12:08:08Z</time>
      </trkpt>
      <trkpt lat="43.105466" lon="-5.732925">
        <ele>1439.071</ele>
        <time>1999-07-21T12:08:09Z</time>
      </trkpt>
      <trkpt lat="43.105465" lon="-5.732924">
        <ele>1439.019</ele>
        <time>1999-07-21T12:08:10Z</time>
      </trkpt>
      <trkpt lat="43.105433" lon="-5.732992">
        <ele>1440.460</ele>
        <time>1999-07-21T12:08:33Z</time>
      </trkpt>
      <trkpt lat="43.105421" lon="-5.733019">
        <ele>1440.446</ele>
        <time>1999-07-21T12:08:34Z</time>
      </trkpt>
      <trkpt lat="43.105408" lon="-5.733048">
        <ele>1440.412</ele>
        <time>1999-07-21T12:08:35Z</time>
      </trkpt>
      <trkpt lat="43.105309" lon="-5.733303">
        <ele>1441.032</ele>
        <time>1999-07-21T12:08:43Z</time>
      </trkpt>
      <trkpt lat="43.105275" lon="-5.733400">
        <ele>1441.605</ele>
        <time>1999-07-21T12:08:46Z</time>
      </trkpt>
      <trkpt lat="43.105244" lon="-5.733462">
        <ele>1441.808</ele>
        <time>1999-07-21T12:08:48Z</time>
      </trkpt>
      <trkpt lat="43.105214" lon="-5.733525">
        <ele>1442.294</ele>
        <time>1999-07-21T12:08:50Z</time>
      </trkpt>
      <trkpt lat="43.105184" lon="-5.733584">
        <ele>1442.669</ele>
        <time>1999-07-21T12:08:52Z</time>
      </trkpt>
      <trkpt lat="43.105117" lon="-5.733704">
        <ele>1443.839</ele>
        <time>1999-07-21T12:08:56Z</time>
      </trkpt>
      <trkpt lat="43.105107" lon="-5.733739">
        <ele>1444.030</ele>
        <time>1999-07-21T12:08:57Z</time>
      </trkpt>
      <trkpt lat="43.105138" lon="-5.733881">
        <ele>1444.868</ele>
        <time>1999-07-21T12:09:01Z</time>
      </trkpt>
      <trkpt lat="43.105191" lon="-5.733931">
        <ele>1445.026</ele>
        <time>1999-07-21T12:09:03Z</time>
      </trkpt>
      <trkpt lat="43.105282" lon="-5.733989">
        <ele>1445.827</ele>
        <time>1999-07-21T12:09:06Z</time>
      </trkpt>
      <trkpt lat="43.105410" lon="-5.734100">
        <ele>1446.213</ele>
        <time>1999-07-21T12:09:10Z</time>
      </trkpt>
      <trkpt lat="43.105524" lon="-5.734207">
        <ele>1446.217</ele>
        <time>1999-07-21T12:09:13Z</time>
      </trkpt>
      <trkpt lat="43.105792" lon="-5.734424">
        <ele>1446.487</ele>
        <time>1999-07-21T12:09:19Z</time>
      </trkpt>
      <trkpt lat="43.105888" lon="-5.734496">
        <ele>1446.415</ele>
        <time>1999-07-21T12:09:21Z</time>
      </trkpt>
      <trkpt lat="43.106035" lon="-5.734619">
        <ele>1446.408</ele>
        <time>1999-07-21T12:09:24Z</time>
      </trkpt>
      <trkpt lat="43.106134" lon="-5.734695">
        <ele>1446.274</ele>
        <time>1999-07-21T12:09:26Z</time>
      </trkpt>
      <trkpt lat="43.106184" lon="-5.734731">
        <ele>1446.279</ele>
        <time>1999-07-21T12:09:27Z</time>
      </trkpt>
      <trkpt lat="43.106421" lon="-5.734963">
        <ele>1445.469</ele>
        <time>1999-07-21T12:09:32Z</time>
      </trkpt>
      <trkpt lat="43.106557" lon="-5.735109">
        <ele>1445.010</ele>
        <time>1999-07-21T12:09:35Z</time>
      </trkpt>
      <trkpt lat="43.106681" lon="-5.735234">
        <ele>1445.098</ele>
        <time>1999-07-21T12:09:38Z</time>
      </trkpt>
      <trkpt lat="43.106830" lon="-5.735391">
        <ele>1445.086</ele>
        <time>1999-07-21T12:09:42Z</time>
      </trkpt>
      <trkpt lat="43.106933" lon="-5.735518">
        <ele>1445.027</ele>
        <time>1999-07-21T12:09:45Z</time>
      </trkpt>
      <trkpt lat="43.107124" lon="-5.735744">
        <ele>1446.263</ele>
        <time>1999-07-21T12:09:50Z</time>
      </trkpt>
      <trkpt lat="43.107208" lon="-5.735847">
        <ele>1446.488</ele>
        <time>1999-07-21T12:09:52Z</time>
      </trkpt>
      <trkpt lat="43.107249" lon="-5.735904">
        <ele>1446.424</ele>
        <time>1999-07-21T12:09:53Z</time>
      </trkpt>
      <trkpt lat="43.107388" lon="-5.736081">
        <ele>1446.626</ele>
        <time>1999-07-21T12:09:56Z</time>
      </trkpt>
      <trkpt lat="43.107515" lon="-5.736294">
        <ele>1446.608</ele>
        <time>1999-07-21T12:09:59Z</time>
      </trkpt>
      <trkpt lat="43.107640" lon="-5.736490">
        <ele>1446.221</ele>
        <time>1999-07-21T12:10:02Z</time>
      </trkpt>
      <trkpt lat="43.107711" lon="-5.736626">
        <ele>1445.856</ele>
        <time>1999-07-21T12:10:04Z</time>
      </trkpt>
      <trkpt lat="43.107764" lon="-5.736775">
        <ele>1445.016</ele>
        <time>1999-07-21T12:10:06Z</time>
      </trkpt>
      <trkpt lat="43.107783" lon="-5.736854">
        <ele>1444.427</ele>
        <time>1999-07-21T12:10:07Z</time>
      </trkpt>
      <trkpt lat="43.107803" lon="-5.736929">
        <ele>1444.255</ele>
        <time>1999-07-21T12:10:08Z</time>
      </trkpt>
      <trkpt lat="43.107826" lon="-5.737001">
        <ele>1443.833</ele>
        <time>1999-07-21T12:10:09Z</time>
      </trkpt>
      <trkpt lat="43.107898" lon="-5.737169">
        <ele>1443.634</ele>
        <time>1999-07-21T12:10:12Z</time>
      </trkpt>
      <trkpt lat="43.108026" lon="-5.737308">
        <ele>1443.620</ele>
        <time>1999-07-21T12:10:17Z</time>
      </trkpt>
      <trkpt lat="43.108115" lon="-5.737377">
        <ele>1444.068</ele>
        <time>1999-07-21T12:10:21Z</time>
      </trkpt>
      <trkpt lat="43.108155" lon="-5.737409">
        <ele>1444.642</ele>
        <time>1999-07-21T12:10:23Z</time>
      </trkpt>
      <trkpt lat="43.108190" lon="-5.737440">
        <ele>1445.026</ele>
        <time>1999-07-21T12:10:25Z</time>
      </trkpt>
      <trkpt lat="43.108243" lon="-5.737479">
        <ele>1445.808</ele>
        <time>1999-07-21T12:10:28Z</time>
      </trkpt>
      <trkpt lat="43.108261" lon="-5.737490">
        <ele>1446.299</ele>
        <time>1999-07-21T12:10:29Z</time>
      </trkpt>
      <trkpt lat="43.108297" lon="-5.737513">
        <ele>1447.054</ele>
        <time>1999-07-21T12:10:31Z</time>
      </trkpt>
      <trkpt lat="43.108316" lon="-5.737525">
        <ele>1447.214</ele>
        <time>1999-07-21T12:10:32Z</time>
      </trkpt>
      <trkpt lat="43.108390" lon="-5.737558">
        <ele>1448.415</ele>
        <time>1999-07-21T12:10:36Z</time>
      </trkpt>
      <trkpt lat="43.108410" lon="-5.737563">
        <ele>1449.053</ele>
        <time>1999-07-21T12:10:37Z</time>
      </trkpt>
      <trkpt lat="43.108450" lon="-5.737567">
        <ele>1449.621</ele>
        <time>1999-07-21T12:10:39Z</time>
      </trkpt>
      <trkpt lat="43.108511" lon="-5.737564">
        <ele>1450.262</ele>
        <time>1999-07-21T12:10:42Z</time>
      </trkpt>
      <trkpt lat="43.108533" lon="-5.737559">
        <ele>1450.438</ele>
        <time>1999-07-21T12:10:43Z</time>
      </trkpt>
      <trkpt lat="43.108553" lon="-5.737555">
        <ele>1450.682</ele>
        <time>1999-07-21T12:10:44Z</time>
      </trkpt>
      <trkpt lat="43.108635" lon="-5.737519">
        <ele>1451.843</ele>
        <time>1999-07-21T12:10:48Z</time>
      </trkpt>
      <trkpt lat="43.108700" lon="-5.737507">
        <ele>1453.217</ele>
        <time>1999-07-21T12:10:51Z</time>
      </trkpt>
      <trkpt lat="43.108778" lon="-5.737493">
        <ele>1454.208</ele>
        <time>1999-07-21T12:10:54Z</time>
      </trkpt>
      <trkpt lat="43.108914" lon="-5.737433">
        <ele>1454.841</ele>
        <time>1999-07-21T12:10:58Z</time>
      </trkpt>
      <trkpt lat="43.109039" lon="-5.737232">
        <ele>1454.846</ele>
        <time>1999-07-21T12:11:02Z</time>
      </trkpt>
      <trkpt lat="43.109128" lon="-5.737032">
        <ele>1455.026</ele>
        <time>1999-07-21T12:11:05Z</time>
      </trkpt>
      <trkpt lat="43.109176" lon="-5.736881">
        <ele>1454.867</ele>
        <time>1999-07-21T12:11:07Z</time>
      </trkpt>
      <trkpt lat="43.109212" lon="-5.736606">
        <ele>1454.295</ele>
        <time>1999-07-21T12:11:10Z</time>
      </trkpt>
      <trkpt lat="43.109213" lon="-5.736501">
        <ele>1454.063</ele>
        <time>1999-07-21T12:11:11Z</time>
      </trkpt>
      <trkpt lat="43.109222" lon="-5.736392">
        <ele>1454.084</ele>
        <time>1999-07-21T12:11:12Z</time>
      </trkpt>
      <trkpt lat="43.109242" lon="-5.736293">
        <ele>1453.880</ele>
        <time>1999-07-21T12:11:13Z</time>
      </trkpt>
      <trkpt lat="43.109266" lon="-5.736200">
        <ele>1453.634</ele>
        <time>1999-07-21T12:11:14Z</time>
      </trkpt>
      <trkpt lat="43.109298" lon="-5.736103">
        <ele>1453.455</ele>
        <time>1999-07-21T12:11:15Z</time>
      </trkpt>
      <trkpt lat="43.109360" lon="-5.735927">
        <ele>1452.810</ele>
        <time>1999-07-21T12:11:17Z</time>
      </trkpt>
      <trkpt lat="43.109388" lon="-5.735836">
        <ele>1452.208</ele>
        <time>1999-07-21T12:11:18Z</time>
      </trkpt>
      <trkpt lat="43.109417" lon="-5.735741">
        <ele>1451.286</ele>
        <time>1999-07-21T12:11:19Z</time>
      </trkpt>
      <trkpt lat="43.109442" lon="-5.735650">
        <ele>1450.661</ele>
        <time>1999-07-21T12:11:20Z</time>
      </trkpt>
      <trkpt lat="43.109468" lon="-5.735561">
        <ele>1449.811</ele>
        <time>1999-07-21T12:11:21Z</time>
      </trkpt>
      <trkpt lat="43.109485" lon="-5.735474">
        <ele>1449.052</ele>
        <time>1999-07-21T12:11:22Z</time>
      </trkpt>
      <trkpt lat="43.109500" lon="-5.735394">
        <ele>1448.280</ele>
        <time>1999-07-21T12:11:23Z</time>
      </trkpt>
      <trkpt lat="43.109512" lon="-5.735320">
        <ele>1447.248</ele>
        <time>1999-07-21T12:11:24Z</time>
      </trkpt>
      <trkpt lat="43.109518" lon="-5.735253">
        <ele>1446.089</ele>
        <time>1999-07-21T12:11:25Z</time>
      </trkpt>
      <trkpt lat="43.109525" lon="-5.735195">
        <ele>1444.625</ele>
        <time>1999-07-21T12:11:26Z</time>
      </trkpt>
      <trkpt lat="43.109527" lon="-5.735147">
        <ele>1443.244</ele>
        <time>1999-07-21T12:11:27Z</time>
      </trkpt>
      <trkpt lat="43.109542" lon="-5.735118">
        <ele>1441.205</ele>
        <time>1999-07-21T12:11:28Z</time>
      </trkpt>
      <trkpt lat="43.109563" lon="-5.735111">
        <ele>1439.415</ele>
        <time>1999-07-21T12:11:29Z</time>
      </trkpt>
      <trkpt lat="43.109586" lon="-5.735123">
        <ele>1437.808</ele>
        <time>1999-07-21T12:11:30Z</time>
      </trkpt>
      <trkpt lat="43.109604" lon="-5.735155">
        <ele>1436.227</ele>
        <time>1999-07-21T12:11:31Z</time>
      </trkpt>
      <trkpt lat="43.109618" lon="-5.735197">
        <ele>1434.842</ele>
        <time>1999-07-21T12:11:32Z</time>
      </trkpt>
      <trkpt lat="43.109638" lon="-5.735250">
        <ele>1433.262</ele>
        <time>1999-07-21T12:11:33Z</time>
      </trkpt>
      <trkpt lat="43.109669" lon="-5.735311">
        <ele>1430.493</ele>
        <time>1999-07-21T12:11:34Z</time>
      </trkpt>
      <trkpt lat="43.109707" lon="-5.735375">
        <ele>1429.481</ele>
        <time>1999-07-21T12:11:35Z</time>
      </trkpt>
      <trkpt lat="43.109739" lon="-5.735443">
        <ele>1428.819</ele>
        <time>1999-07-21T12:11:36Z</time>
      </trkpt>
      <trkpt lat="43.109810" lon="-5.735591">
        <ele>1427.470</ele>
        <time>1999-07-21T12:11:38Z</time>
      </trkpt>
      <trkpt lat="43.109879" lon="-5.735694">
        <ele>1426.246</ele>
        <time>1999-07-21T12:11:40Z</time>
      </trkpt>
      <trkpt lat="43.109921" lon="-5.735694">
        <ele>1425.897</ele>
        <time>1999-07-21T12:11:41Z</time>
      </trkpt>
      <trkpt lat="43.109953" lon="-5.735663">
        <ele>1425.023</ele>
        <time>1999-07-21T12:11:42Z</time>
      </trkpt>
      <trkpt lat="43.109968" lon="-5.735616">
        <ele>1424.025</ele>
        <time>1999-07-21T12:11:43Z</time>
      </trkpt>
      <trkpt lat="43.109971" lon="-5.735557">
        <ele>1422.608</ele>
        <time>1999-07-21T12:11:44Z</time>
      </trkpt>
      <trkpt lat="43.109974" lon="-5.735483">
        <ele>1421.412</ele>
        <time>1999-07-21T12:11:45Z</time>
      </trkpt>
      <trkpt lat="43.109978" lon="-5.735399">
        <ele>1420.047</ele>
        <time>1999-07-21T12:11:46Z</time>
      </trkpt>
      <trkpt lat="43.109991" lon="-5.735318">
        <ele>1418.657</ele>
        <time>1999-07-21T12:11:47Z</time>
      </trkpt>
      <trkpt lat="43.109998" lon="-5.735242">
        <ele>1417.298</ele>
        <time>1999-07-21T12:11:48Z</time>
      </trkpt>
      <trkpt lat="43.110002" lon="-5.735173">
        <ele>1416.236</ele>
        <time>1999-07-21T12:11:49Z</time>
      </trkpt>
      <trkpt lat="43.110002" lon="-5.735112">
        <ele>1415.244</ele>
        <time>1999-07-21T12:11:50Z</time>
      </trkpt>
      <trkpt lat="43.109998" lon="-5.735060">
        <ele>1414.255</ele>
        <time>1999-07-21T12:11:51Z</time>
      </trkpt>
      <trkpt lat="43.110002" lon="-5.734961">
        <ele>1412.421</ele>
        <time>1999-07-21T12:11:53Z</time>
      </trkpt>
      <trkpt lat="43.110001" lon="-5.734904">
        <ele>1411.253</ele>
        <time>1999-07-21T12:11:54Z</time>
      </trkpt>
      <trkpt lat="43.110001" lon="-5.734845">
        <ele>1410.004</ele>
        <time>1999-07-21T12:11:55Z</time>
      </trkpt>
      <trkpt lat="43.109999" lon="-5.734794">
        <ele>1408.814</ele>
        <time>1999-07-21T12:11:56Z</time>
      </trkpt>
      <trkpt lat="43.110011" lon="-5.734757">
        <ele>1407.608</ele>
        <time>1999-07-21T12:11:57Z</time>
      </trkpt>
      <trkpt lat="43.110031" lon="-5.734723">
        <ele>1406.468</ele>
        <time>1999-07-21T12:11:58Z</time>
      </trkpt>
      <trkpt lat="43.110075" lon="-5.734688">
        <ele>1405.253</ele>
        <time>1999-07-21T12:11:59Z</time>
      </trkpt>
      <trkpt lat="43.110173" lon="-5.734619">
        <ele>1403.243</ele>
        <time>1999-07-21T12:12:01Z</time>
      </trkpt>
      <trkpt lat="43.110218" lon="-5.734585">
        <ele>1401.264</ele>
        <time>1999-07-21T12:12:02Z</time>
      </trkpt>
      <trkpt lat="43.110254" lon="-5.734545">
        <ele>1400.272</ele>
        <time>1999-07-21T12:12:03Z</time>
      </trkpt>
      <trkpt lat="43.110312" lon="-5.734446">
        <ele>1398.660</ele>
        <time>1999-07-21T12:12:05Z</time>
      </trkpt>
      <trkpt lat="43.110362" lon="-5.734306">
        <ele>1397.211</ele>
        <time>1999-07-21T12:12:07Z</time>
      </trkpt>
      <trkpt lat="43.110439" lon="-5.734125">
        <ele>1395.227</ele>
        <time>1999-07-21T12:12:09Z</time>
      </trkpt>
      <trkpt lat="43.110499" lon="-5.734037">
        <ele>1394.239</ele>
        <time>1999-07-21T12:12:10Z</time>
      </trkpt>
      <trkpt lat="43.110572" lon="-5.733955">
        <ele>1393.001</ele>
        <time>1999-07-21T12:12:11Z</time>
      </trkpt>
      <trkpt lat="43.110654" lon="-5.733888">
        <ele>1391.821</ele>
        <time>1999-07-21T12:12:12Z</time>
      </trkpt>
      <trkpt lat="43.110729" lon="-5.733820">
        <ele>1390.608</ele>
        <time>1999-07-21T12:12:13Z</time>
      </trkpt>
      <trkpt lat="43.110795" lon="-5.733740">
        <ele>1389.446</ele>
        <time>1999-07-21T12:12:14Z</time>
      </trkpt>
      <trkpt lat="43.110854" lon="-5.733648">
        <ele>1388.431</ele>
        <time>1999-07-21T12:12:15Z</time>
      </trkpt>
      <trkpt lat="43.110901" lon="-5.733550">
        <ele>1387.281</ele>
        <time>1999-07-21T12:12:16Z</time>
      </trkpt>
      <trkpt lat="43.110939" lon="-5.733450">
        <ele>1386.062</ele>
        <time>1999-07-21T12:12:17Z</time>
      </trkpt>
      <trkpt lat="43.110987" lon="-5.733364">
        <ele>1384.870</ele>
        <time>1999-07-21T12:12:18Z</time>
      </trkpt>
      <trkpt lat="43.111045" lon="-5.733301">
        <ele>1383.688</ele>
        <time>1999-07-21T12:12:19Z</time>
      </trkpt>
      <trkpt lat="43.111108" lon="-5.733261">
        <ele>1382.499</ele>
        <time>1999-07-21T12:12:20Z</time>
      </trkpt>
      <trkpt lat="43.111241" lon="-5.733224">
        <ele>1380.815</ele>
        <time>1999-07-21T12:12:22Z</time>
      </trkpt>
      <trkpt lat="43.111306" lon="-5.733211">
        <ele>1380.445</ele>
        <time>1999-07-21T12:12:23Z</time>
      </trkpt>
      <trkpt lat="43.111368" lon="-5.733191">
        <ele>1380.247</ele>
        <time>1999-07-21T12:12:24Z</time>
      </trkpt>
      <trkpt lat="43.111557" lon="-5.733128">
        <ele>1380.011</ele>
        <time>1999-07-21T12:12:27Z</time>
      </trkpt>
      <trkpt lat="43.111620" lon="-5.733120">
        <ele>1380.008</ele>
        <time>1999-07-21T12:12:28Z</time>
      </trkpt>
      <trkpt lat="43.111753" lon="-5.733115">
        <ele>1379.857</ele>
        <time>1999-07-21T12:12:30Z</time>
      </trkpt>
      <trkpt lat="43.111887" lon="-5.733135">
        <ele>1379.652</ele>
        <time>1999-07-21T12:12:32Z</time>
      </trkpt>
      <trkpt lat="43.111952" lon="-5.733131">
        <ele>1379.612</ele>
        <time>1999-07-21T12:12:33Z</time>
      </trkpt>
      <trkpt lat="43.112119" lon="-5.733108">
        <ele>1379.213</ele>
        <time>1999-07-21T12:12:36Z</time>
      </trkpt>
      <trkpt lat="43.112184" lon="-5.733104">
        <ele>1379.031</ele>
        <time>1999-07-21T12:12:37Z</time>
      </trkpt>
      <trkpt lat="43.112246" lon="-5.733095">
        <ele>1379.019</ele>
        <time>1999-07-21T12:12:38Z</time>
      </trkpt>
      <trkpt lat="43.112307" lon="-5.733058">
        <ele>1378.660</ele>
        <time>1999-07-21T12:12:39Z</time>
      </trkpt>
      <trkpt lat="43.112365" lon="-5.732993">
        <ele>1378.426</ele>
        <time>1999-07-21T12:12:40Z</time>
      </trkpt>
      <trkpt lat="43.112473" lon="-5.732834">
        <ele>1376.849</ele>
        <time>1999-07-21T12:12:42Z</time>
      </trkpt>
      <trkpt lat="43.112524" lon="-5.732757">
        <ele>1375.602</ele>
        <time>1999-07-21T12:12:43Z</time>
      </trkpt>
      <trkpt lat="43.112611" lon="-5.732594">
        <ele>1373.822</ele>
        <time>1999-07-21T12:12:45Z</time>
      </trkpt>
      <trkpt lat="43.112641" lon="-5.732501">
        <ele>1372.808</ele>
        <time>1999-07-21T12:12:46Z</time>
      </trkpt>
      <trkpt lat="43.112687" lon="-5.732284">
        <ele>1371.097</ele>
        <time>1999-07-21T12:12:48Z</time>
      </trkpt>
      <trkpt lat="43.112708" lon="-5.732174">
        <ele>1370.272</ele>
        <time>1999-07-21T12:12:49Z</time>
      </trkpt>
      <trkpt lat="43.112724" lon="-5.732079">
        <ele>1369.212</ele>
        <time>1999-07-21T12:12:50Z</time>
      </trkpt>
      <trkpt lat="43.112737" lon="-5.731993">
        <ele>1368.093</ele>
        <time>1999-07-21T12:12:51Z</time>
      </trkpt>
      <trkpt lat="43.112754" lon="-5.731924">
        <ele>1367.021</ele>
        <time>1999-07-21T12:12:52Z</time>
      </trkpt>
      <trkpt lat="43.112776" lon="-5.731887">
        <ele>1365.849</ele>
        <time>1999-07-21T12:12:53Z</time>
      </trkpt>
      <trkpt lat="43.112820" lon="-5.731905">
        <ele>1364.090</ele>
        <time>1999-07-21T12:12:55Z</time>
      </trkpt>
      <trkpt lat="43.112833" lon="-5.731954">
        <ele>1362.876</ele>
        <time>1999-07-21T12:12:56Z</time>
      </trkpt>
      <trkpt lat="43.112836" lon="-5.732013">
        <ele>1360.238</ele>
        <time>1999-07-21T12:12:57Z</time>
      </trkpt>
      <trkpt lat="43.112836" lon="-5.732080">
        <ele>1359.270</ele>
        <time>1999-07-21T12:12:58Z</time>
      </trkpt>
      <trkpt lat="43.112842" lon="-5.732154">
        <ele>1357.817</ele>
        <time>1999-07-21T12:12:59Z</time>
      </trkpt>
      <trkpt lat="43.112856" lon="-5.732233">
        <ele>1356.808</ele>
        <time>1999-07-21T12:13:00Z</time>
      </trkpt>
      <trkpt lat="43.112903" lon="-5.732397">
        <ele>1355.476</ele>
        <time>1999-07-21T12:13:02Z</time>
      </trkpt>
      <trkpt lat="43.112920" lon="-5.732481">
        <ele>1355.241</ele>
        <time>1999-07-21T12:13:03Z</time>
      </trkpt>
      <trkpt lat="43.112934" lon="-5.732566">
        <ele>1355.031</ele>
        <time>1999-07-21T12:13:04Z</time>
      </trkpt>
      <trkpt lat="43.112944" lon="-5.732746">
        <ele>1354.642</ele>
        <time>1999-07-21T12:13:06Z</time>
      </trkpt>
      <trkpt lat="43.112922" lon="-5.732929">
        <ele>1354.230</ele>
        <time>1999-07-21T12:13:08Z</time>
      </trkpt>
      <trkpt lat="43.112877" lon="-5.733115">
        <ele>1353.688</ele>
        <time>1999-07-21T12:13:10Z</time>
      </trkpt>
      <trkpt lat="43.112861" lon="-5.733217">
        <ele>1353.459</ele>
        <time>1999-07-21T12:13:11Z</time>
      </trkpt>
      <trkpt lat="43.112840" lon="-5.733413">
        <ele>1353.295</ele>
        <time>1999-07-21T12:13:13Z</time>
      </trkpt>
      <trkpt lat="43.112832" lon="-5.733512">
        <ele>1353.034</ele>
        <time>1999-07-21T12:13:14Z</time>
      </trkpt>
      <trkpt lat="43.112831" lon="-5.733728">
        <ele>1352.055</ele>
        <time>1999-07-21T12:13:16Z</time>
      </trkpt>
      <trkpt lat="43.112856" lon="-5.733950">
        <ele>1351.210</ele>
        <time>1999-07-21T12:13:18Z</time>
      </trkpt>
      <trkpt lat="43.112864" lon="-5.734049">
        <ele>1350.808</ele>
        <time>1999-07-21T12:13:19Z</time>
      </trkpt>
      <trkpt lat="43.112847" lon="-5.734224">
        <ele>1349.476</ele>
        <time>1999-07-21T12:13:21Z</time>
      </trkpt>
      <trkpt lat="43.112804" lon="-5.734393">
        <ele>1347.411</ele>
        <time>1999-07-21T12:13:23Z</time>
      </trkpt>
      <trkpt lat="43.112801" lon="-5.734479">
        <ele>1346.031</ele>
        <time>1999-07-21T12:13:24Z</time>
      </trkpt>
      <trkpt lat="43.112806" lon="-5.734562">
        <ele>1345.292</ele>
        <time>1999-07-21T12:13:25Z</time>
      </trkpt>
      <trkpt lat="43.112798" lon="-5.734645">
        <ele>1344.860</ele>
        <time>1999-07-21T12:13:26Z</time>
      </trkpt>
      <trkpt lat="43.112746" lon="-5.734803">
        <ele>1343.678</ele>
        <time>1999-07-21T12:13:28Z</time>
      </trkpt>
      <trkpt lat="43.112673" lon="-5.734965">
        <ele>1342.449</ele>
        <time>1999-07-21T12:13:30Z</time>
      </trkpt>
      <trkpt lat="43.112537" lon="-5.735212">
        <ele>1341.215</ele>
        <time>1999-07-21T12:13:33Z</time>
      </trkpt>
      <trkpt lat="43.112334" lon="-5.735457">
        <ele>1339.421</ele>
        <time>1999-07-21T12:13:37Z</time>
      </trkpt>
      <trkpt lat="43.112293" lon="-5.735508">
        <ele>1338.841</ele>
        <time>1999-07-21T12:13:38Z</time>
      </trkpt>
      <trkpt lat="43.112260" lon="-5.735558">
        <ele>1338.605</ele>
        <time>1999-07-21T12:13:39Z</time>
      </trkpt>
      <trkpt lat="43.112203" lon="-5.735651">
        <ele>1337.808</ele>
        <time>1999-07-21T12:13:41Z</time>
      </trkpt>
      <trkpt lat="43.112144" lon="-5.735721">
        <ele>1336.225</ele>
        <time>1999-07-21T12:13:43Z</time>
      </trkpt>
      <trkpt lat="43.111978" lon="-5.735874">
        <ele>1335.460</ele>
        <time>1999-07-21T12:13:49Z</time>
      </trkpt>
      <trkpt lat="43.111947" lon="-5.735906">
        <ele>1335.220</ele>
        <time>1999-07-21T12:13:50Z</time>
      </trkpt>
      <trkpt lat="43.111915" lon="-5.735939">
        <ele>1335.271</ele>
        <time>1999-07-21T12:13:51Z</time>
      </trkpt>
      <trkpt lat="43.111881" lon="-5.735971">
        <ele>1335.239</ele>
        <time>1999-07-21T12:13:52Z</time>
      </trkpt>
      <trkpt lat="43.111845" lon="-5.736010">
        <ele>1335.247</ele>
        <time>1999-07-21T12:13:53Z</time>
      </trkpt>
      <trkpt lat="43.111806" lon="-5.736132">
        <ele>1335.298</ele>
        <time>1999-07-21T12:13:55Z</time>
      </trkpt>
      <trkpt lat="43.111808" lon="-5.736211">
        <ele>1335.224</ele>
        <time>1999-07-21T12:13:56Z</time>
      </trkpt>
      <trkpt lat="43.111851" lon="-5.736350">
        <ele>1335.021</ele>
        <time>1999-07-21T12:13:58Z</time>
      </trkpt>
      <trkpt lat="43.111997" lon="-5.736415">
        <ele>1334.441</ele>
        <time>1999-07-21T12:14:01Z</time>
      </trkpt>
      <trkpt lat="43.112046" lon="-5.736423">
        <ele>1334.205</ele>
        <time>1999-07-21T12:14:02Z</time>
      </trkpt>
      <trkpt lat="43.112137" lon="-5.736458">
        <ele>1333.008</ele>
        <time>1999-07-21T12:14:04Z</time>
      </trkpt>
      <trkpt lat="43.112173" lon="-5.736479">
        <ele>1332.875</ele>
        <time>1999-07-21T12:14:05Z</time>
      </trkpt>
      <trkpt lat="43.112208" lon="-5.736501">
        <ele>1332.280</ele>
        <time>1999-07-21T12:14:06Z</time>
      </trkpt>
      <trkpt lat="43.112243" lon="-5.736532">
        <ele>1331.890</ele>
        <time>1999-07-21T12:14:07Z</time>
      </trkpt>
      <trkpt lat="43.112298" lon="-5.736623">
        <ele>1330.421</ele>
        <time>1999-07-21T12:14:09Z</time>
      </trkpt>
      <trkpt lat="43.112308" lon="-5.736677">
        <ele>1329.469</ele>
        <time>1999-07-21T12:14:10Z</time>
      </trkpt>
      <trkpt lat="43.112301" lon="-5.736731">
        <ele>1328.497</ele>
        <time>1999-07-21T12:14:11Z</time>
      </trkpt>
      <trkpt lat="43.112284" lon="-5.736777">
        <ele>1327.218</ele>
        <time>1999-07-21T12:14:12Z</time>
      </trkpt>
      <trkpt lat="43.112263" lon="-5.736820">
        <ele>1326.244</ele>
        <time>1999-07-21T12:14:13Z</time>
      </trkpt>
      <trkpt lat="43.112243" lon="-5.736867">
        <ele>1325.463</ele>
        <time>1999-07-21T12:14:14Z</time>
      </trkpt>
      <trkpt lat="43.112224" lon="-5.736970">
        <ele>1324.644</ele>
        <time>1999-07-21T12:14:16Z</time>
      </trkpt>
      <trkpt lat="43.112250" lon="-5.737014">
        <ele>1324.418</ele>
        <time>1999-07-21T12:14:17Z</time>
      </trkpt>
      <trkpt lat="43.112316" lon="-5.737056">
        <ele>1324.408</ele>
        <time>1999-07-21T12:14:19Z</time>
      </trkpt>
      <trkpt lat="43.112346" lon="-5.737065">
        <ele>1324.259</ele>
        <time>1999-07-21T12:14:20Z</time>
      </trkpt>
      <trkpt lat="43.112399" lon="-5.737085">
        <ele>1324.214</ele>
        <time>1999-07-21T12:14:22Z</time>
      </trkpt>
      <trkpt lat="43.112453" lon="-5.737099">
        <ele>1324.424</ele>
        <time>1999-07-21T12:14:24Z</time>
      </trkpt>
      <trkpt lat="43.112553" lon="-5.737167">
        <ele>1325.625</ele>
        <time>1999-07-21T12:14:28Z</time>
      </trkpt>
      <trkpt lat="43.112683" lon="-5.737318">
        <ele>1326.423</ele>
        <time>1999-07-21T12:14:33Z</time>
      </trkpt>
      <trkpt lat="43.112740" lon="-5.737364">
        <ele>1326.831</ele>
        <time>1999-07-21T12:14:35Z</time>
      </trkpt>
      <trkpt lat="43.112947" lon="-5.737507">
        <ele>1327.452</ele>
        <time>1999-07-21T12:14:42Z</time>
      </trkpt>
      <trkpt lat="43.112976" lon="-5.737530">
        <ele>1327.698</ele>
        <time>1999-07-21T12:14:43Z</time>
      </trkpt>
      <trkpt lat="43.113112" lon="-5.737653">
        <ele>1328.248</ele>
        <time>1999-07-21T12:14:48Z</time>
      </trkpt>
      <trkpt lat="43.113138" lon="-5.737664">
        <ele>1328.461</ele>
        <time>1999-07-21T12:14:49Z</time>
      </trkpt>
      <trkpt lat="43.113291" lon="-5.737700">
        <ele>1329.017</ele>
        <time>1999-07-21T12:14:54Z</time>
      </trkpt>
      <trkpt lat="43.113352" lon="-5.737711">
        <ele>1329.608</ele>
        <time>1999-07-21T12:14:56Z</time>
      </trkpt>
      <trkpt lat="43.113454" lon="-5.737775">
        <ele>1330.217</ele>
        <time>1999-07-21T12:15:00Z</time>
      </trkpt>
      <trkpt lat="43.113478" lon="-5.737794">
        <ele>1330.692</ele>
        <time>1999-07-21T12:15:01Z</time>
      </trkpt>
      <trkpt lat="43.113622" lon="-5.737876">
        <ele>1331.282</ele>
        <time>1999-07-21T12:15:07Z</time>
      </trkpt>
      <trkpt lat="43.113644" lon="-5.737898">
        <ele>1331.443</ele>
        <time>1999-07-21T12:15:08Z</time>
      </trkpt>
      <trkpt lat="43.113743" lon="-5.738016">
        <ele>1332.691</ele>
        <time>1999-07-21T12:15:13Z</time>
      </trkpt>
      <trkpt lat="43.113777" lon="-5.738064">
        <ele>1333.069</ele>
        <time>1999-07-21T12:15:15Z</time>
      </trkpt>
      <trkpt lat="43.113813" lon="-5.738105">
        <ele>1333.850</ele>
        <time>1999-07-21T12:15:17Z</time>
      </trkpt>
      <trkpt lat="43.113883" lon="-5.738195">
        <ele>1335.066</ele>
        <time>1999-07-21T12:15:21Z</time>
      </trkpt>
      <trkpt lat="43.113920" lon="-5.738242">
        <ele>1335.487</ele>
        <time>1999-07-21T12:15:23Z</time>
      </trkpt>
      <trkpt lat="43.113994" lon="-5.738326">
        <ele>1336.042</ele>
        <time>1999-07-21T12:15:27Z</time>
      </trkpt>
      <trkpt lat="43.114059" lon="-5.738418">
        <ele>1337.026</ele>
        <time>1999-07-21T12:15:31Z</time>
      </trkpt>
      <trkpt lat="43.114074" lon="-5.738446">
        <ele>1337.208</ele>
        <time>1999-07-21T12:15:32Z</time>
      </trkpt>
      <trkpt lat="43.114172" lon="-5.738586">
        <ele>1338.051</ele>
        <time>1999-07-21T12:15:38Z</time>
      </trkpt>
      <trkpt lat="43.114205" lon="-5.738632">
        <ele>1338.446</ele>
        <time>1999-07-21T12:15:40Z</time>
      </trkpt>
      <trkpt lat="43.114275" lon="-5.738766">
        <ele>1339.296</ele>
        <time>1999-07-21T12:15:45Z</time>
      </trkpt>
      <trkpt lat="43.114301" lon="-5.738817">
        <ele>1339.687</ele>
        <time>1999-07-21T12:15:47Z</time>
      </trkpt>
      <trkpt lat="43.114350" lon="-5.738914">
        <ele>1340.255</ele>
        <time>1999-07-21T12:15:51Z</time>
      </trkpt>
      <trkpt lat="43.114358" lon="-5.738946">
        <ele>1340.433</ele>
        <time>1999-07-21T12:15:52Z</time>
      </trkpt>
      <trkpt lat="43.114411" lon="-5.739047">
        <ele>1340.854</ele>
        <time>1999-07-21T12:15:56Z</time>
      </trkpt>
      <trkpt lat="43.114420" lon="-5.739075">
        <ele>1341.020</ele>
        <time>1999-07-21T12:15:57Z</time>
      </trkpt>
      <trkpt lat="43.114456" lon="-5.739219">
        <ele>1342.081</ele>
        <time>1999-07-21T12:16:02Z</time>
      </trkpt>
      <trkpt lat="43.114493" lon="-5.739267">
        <ele>1342.261</ele>
        <time>1999-07-21T12:16:04Z</time>
      </trkpt>
      <trkpt lat="43.114576" lon="-5.739410">
        <ele>1342.817</ele>
        <time>1999-07-21T12:16:09Z</time>
      </trkpt>
      <trkpt lat="43.114586" lon="-5.739438">
        <ele>1343.208</ele>
        <time>1999-07-21T12:16:10Z</time>
      </trkpt>
      <trkpt lat="43.114611" lon="-5.739520">
        <ele>1344.031</ele>
        <time>1999-07-21T12:16:14Z</time>
      </trkpt>
      <trkpt lat="43.114671" lon="-5.739587">
        <ele>1344.246</ele>
        <time>1999-07-21T12:16:17Z</time>
      </trkpt>
      <trkpt lat="43.114758" lon="-5.739709">
        <ele>1344.826</ele>
        <time>1999-07-21T12:16:22Z</time>
      </trkpt>
      <trkpt lat="43.114820" lon="-5.739763">
        <ele>1345.277</ele>
        <time>1999-07-21T12:16:25Z</time>
      </trkpt>
      <trkpt lat="43.114903" lon="-5.739839">
        <ele>1346.285</ele>
        <time>1999-07-21T12:16:29Z</time>
      </trkpt>
      <trkpt lat="43.114939" lon="-5.739899">
        <ele>1346.443</ele>
        <time>1999-07-21T12:16:31Z</time>
      </trkpt>
      <trkpt lat="43.114997" lon="-5.739997">
        <ele>1346.864</ele>
        <time>1999-07-21T12:16:35Z</time>
      </trkpt>
      <trkpt lat="43.115051" lon="-5.740066">
        <ele>1347.480</ele>
        <time>1999-07-21T12:16:38Z</time>
      </trkpt>
      <trkpt lat="43.115128" lon="-5.740166">
        <ele>1348.244</ele>
        <time>1999-07-21T12:16:42Z</time>
      </trkpt>
      <trkpt lat="43.115150" lon="-5.740185">
        <ele>1348.405</ele>
        <time>1999-07-21T12:16:43Z</time>
      </trkpt>
      <trkpt lat="43.115275" lon="-5.740290">
        <ele>1349.015</ele>
        <time>1999-07-21T12:16:48Z</time>
      </trkpt>
      <trkpt lat="43.115322" lon="-5.740335">
        <ele>1349.608</ele>
        <time>1999-07-21T12:16:50Z</time>
      </trkpt>
      <trkpt lat="43.115459" lon="-5.740467">
        <ele>1350.217</ele>
        <time>1999-07-21T12:16:56Z</time>
      </trkpt>
      <trkpt lat="43.115627" lon="-5.740590">
        <ele>1350.652</ele>
        <time>1999-07-21T12:17:03Z</time>
      </trkpt>
      <trkpt lat="43.115653" lon="-5.740593">
        <ele>1350.842</ele>
        <time>1999-07-21T12:17:04Z</time>
      </trkpt>
      <trkpt lat="43.115872" lon="-5.740648">
        <ele>1351.633</ele>
        <time>1999-07-21T12:17:11Z</time>
      </trkpt>
      <trkpt lat="43.116085" lon="-5.740719">
        <ele>1352.011</ele>
        <time>1999-07-21T12:17:17Z</time>
      </trkpt>
      <trkpt lat="43.116120" lon="-5.740734">
        <ele>1352.289</ele>
        <time>1999-07-21T12:17:18Z</time>
      </trkpt>
      <trkpt lat="43.116358" lon="-5.740852">
        <ele>1352.490</ele>
        <time>1999-07-21T12:17:24Z</time>
      </trkpt>
      <trkpt lat="43.116646" lon="-5.741029">
        <ele>1352.416</ele>
        <time>1999-07-21T12:17:31Z</time>
      </trkpt>
      <trkpt lat="43.116862" lon="-5.741148">
        <ele>1352.496</ele>
        <time>1999-07-21T12:17:36Z</time>
      </trkpt>
      <trkpt lat="43.116956" lon="-5.741185">
        <ele>1352.231</ele>
        <time>1999-07-21T12:17:38Z</time>
      </trkpt>
      <trkpt lat="43.117202" lon="-5.741272">
        <ele>1352.224</ele>
        <time>1999-07-21T12:17:43Z</time>
      </trkpt>
      <trkpt lat="43.117253" lon="-5.741282">
        <ele>1352.208</ele>
        <time>1999-07-21T12:17:44Z</time>
      </trkpt>
      <trkpt lat="43.117563" lon="-5.741393">
        <ele>1352.032</ele>
        <time>1999-07-21T12:17:50Z</time>
      </trkpt>
      <trkpt lat="43.117769" lon="-5.741628">
        <ele>1351.697</ele>
        <time>1999-07-21T12:17:55Z</time>
      </trkpt>
      <trkpt lat="43.117829" lon="-5.741751">
        <ele>1351.417</ele>
        <time>1999-07-21T12:17:57Z</time>
      </trkpt>
      <trkpt lat="43.117930" lon="-5.742019">
        <ele>1351.078</ele>
        <time>1999-07-21T12:18:01Z</time>
      </trkpt>
      <trkpt lat="43.118011" lon="-5.742306">
        <ele>1351.066</ele>
        <time>1999-07-21T12:18:05Z</time>
      </trkpt>
      <trkpt lat="43.118017" lon="-5.742372">
        <ele>1350.854</ele>
        <time>1999-07-21T12:18:06Z</time>
      </trkpt>
      <trkpt lat="43.117978" lon="-5.742488">
        <ele>1350.835</ele>
        <time>1999-07-21T12:18:08Z</time>
      </trkpt>
      <trkpt lat="43.117942" lon="-5.742526">
        <ele>1350.871</ele>
        <time>1999-07-21T12:18:09Z</time>
      </trkpt>
      <trkpt lat="43.117817" lon="-5.742596">
        <ele>1350.619</ele>
        <time>1999-07-21T12:18:12Z</time>
      </trkpt>
      <trkpt lat="43.117777" lon="-5.742620">
        <ele>1350.609</ele>
        <time>1999-07-21T12:18:13Z</time>
      </trkpt>
      <trkpt lat="43.117743" lon="-5.742659">
        <ele>1350.619</ele>
        <time>1999-07-21T12:18:14Z</time>
      </trkpt>
      <trkpt lat="43.117657" lon="-5.742811">
        <ele>1350.608</ele>
        <time>1999-07-21T12:18:17Z</time>
      </trkpt>
      <trkpt lat="43.117579" lon="-5.742974">
        <ele>1350.664</ele>
        <time>1999-07-21T12:18:20Z</time>
      </trkpt>
      <trkpt lat="43.117360" lon="-5.743341">
        <ele>1350.669</ele>
        <time>1999-07-21T12:18:27Z</time>
      </trkpt>
      <trkpt lat="43.117262" lon="-5.743474">
        <ele>1350.449</ele>
        <time>1999-07-21T12:18:30Z</time>
      </trkpt>
      <trkpt lat="43.117202" lon="-5.743576">
        <ele>1350.450</ele>
        <time>1999-07-21T12:18:32Z</time>
      </trkpt>
      <trkpt lat="43.117068" lon="-5.743783">
        <ele>1350.418</ele>
        <time>1999-07-21T12:18:36Z</time>
      </trkpt>
      <trkpt lat="43.116999" lon="-5.743881">
        <ele>1350.496</ele>
        <time>1999-07-21T12:18:38Z</time>
      </trkpt>
      <trkpt lat="43.116829" lon="-5.744131">
        <ele>1350.247</ele>
        <time>1999-07-21T12:18:43Z</time>
      </trkpt>
      <trkpt lat="43.116659" lon="-5.744379">
        <ele>1349.833</ele>
        <time>1999-07-21T12:18:48Z</time>
      </trkpt>
      <trkpt lat="43.116609" lon="-5.744436">
        <ele>1349.888</ele>
        <time>1999-07-21T12:18:49Z</time>
      </trkpt>
      <trkpt lat="43.116423" lon="-5.744692">
        <ele>1349.224</ele>
        <time>1999-07-21T12:18:53Z</time>
      </trkpt>
      <trkpt lat="43.116326" lon="-5.744804">
        <ele>1348.826</ele>
        <time>1999-07-21T12:18:55Z</time>
      </trkpt>
      <trkpt lat="43.116289" lon="-5.744860">
        <ele>1348.608</ele>
        <time>1999-07-21T12:18:56Z</time>
      </trkpt>
      <trkpt lat="43.116132" lon="-5.745100">
        <ele>1348.051</ele>
        <time>1999-07-21T12:19:00Z</time>
      </trkpt>
      <trkpt lat="43.116044" lon="-5.745227">
        <ele>1347.416</ele>
        <time>1999-07-21T12:19:02Z</time>
      </trkpt>
      <trkpt lat="43.115955" lon="-5.745366">
        <ele>1347.076</ele>
        <time>1999-07-21T12:19:04Z</time>
      </trkpt>
      <trkpt lat="43.115868" lon="-5.745515">
        <ele>1346.647</ele>
        <time>1999-07-21T12:19:06Z</time>
      </trkpt>
      <trkpt lat="43.115822" lon="-5.745586">
        <ele>1346.425</ele>
        <time>1999-07-21T12:19:07Z</time>
      </trkpt>
      <trkpt lat="43.115786" lon="-5.745637">
        <ele>1346.273</ele>
        <time>1999-07-21T12:19:08Z</time>
      </trkpt>
      <trkpt lat="43.115717" lon="-5.745696">
        <ele>1345.864</ele>
        <time>1999-07-21T12:19:10Z</time>
      </trkpt>
      <trkpt lat="43.115657" lon="-5.745774">
        <ele>1345.210</ele>
        <time>1999-07-21T12:19:13Z</time>
      </trkpt>
      <trkpt lat="43.115628" lon="-5.745801">
        <ele>1345.099</ele>
        <time>1999-07-21T12:19:14Z</time>
      </trkpt>
      <trkpt lat="43.115570" lon="-5.745865">
        <ele>1344.807</ele>
        <time>1999-07-21T12:19:16Z</time>
      </trkpt>
      <trkpt lat="43.115462" lon="-5.745957">
        <ele>1344.427</ele>
        <time>1999-07-21T12:19:20Z</time>
      </trkpt>
      <trkpt lat="43.115316" lon="-5.746069">
        <ele>1344.208</ele>
        <time>1999-07-21T12:19:24Z</time>
      </trkpt>
      <trkpt lat="43.115208" lon="-5.746211">
        <ele>1344.222</ele>
        <time>1999-07-21T12:19:28Z</time>
      </trkpt>
      <trkpt lat="43.115229" lon="-5.746429">
        <ele>1344.217</ele>
        <time>1999-07-21T12:19:32Z</time>
      </trkpt>
      <trkpt lat="43.115239" lon="-5.746598">
        <ele>1344.257</ele>
        <time>1999-07-21T12:19:34Z</time>
      </trkpt>
      <trkpt lat="43.115218" lon="-5.746785">
        <ele>1344.298</ele>
        <time>1999-07-21T12:19:36Z</time>
      </trkpt>
      <trkpt lat="43.115266" lon="-5.747032">
        <ele>1344.076</ele>
        <time>1999-07-21T12:19:39Z</time>
      </trkpt>
      <trkpt lat="43.115302" lon="-5.747127">
        <ele>1343.874</ele>
        <time>1999-07-21T12:19:40Z</time>
      </trkpt>
      <trkpt lat="43.115378" lon="-5.747314">
        <ele>1343.055</ele>
        <time>1999-07-21T12:19:42Z</time>
      </trkpt>
      <trkpt lat="43.115452" lon="-5.747510">
        <ele>1341.891</ele>
        <time>1999-07-21T12:19:44Z</time>
      </trkpt>
      <trkpt lat="43.115486" lon="-5.747611">
        <ele>1341.012</ele>
        <time>1999-07-21T12:19:45Z</time>
      </trkpt>
      <trkpt lat="43.115515" lon="-5.747723">
        <ele>1340.232</ele>
        <time>1999-07-21T12:19:46Z</time>
      </trkpt>
      <trkpt lat="43.115579" lon="-5.747941">
        <ele>1339.005</ele>
        <time>1999-07-21T12:19:48Z</time>
      </trkpt>
      <trkpt lat="43.115624" lon="-5.748047">
        <ele>1338.608</ele>
        <time>1999-07-21T12:19:49Z</time>
      </trkpt>
      <trkpt lat="43.115658" lon="-5.748153">
        <ele>1338.034</ele>
        <time>1999-07-21T12:19:50Z</time>
      </trkpt>
      <trkpt lat="43.115697" lon="-5.748257">
        <ele>1336.249</ele>
        <time>1999-07-21T12:19:51Z</time>
      </trkpt>
      <trkpt lat="43.115736" lon="-5.748361">
        <ele>1334.869</ele>
        <time>1999-07-21T12:19:52Z</time>
      </trkpt>
      <trkpt lat="43.115764" lon="-5.748470">
        <ele>1333.810</ele>
        <time>1999-07-21T12:19:53Z</time>
      </trkpt>
      <trkpt lat="43.115791" lon="-5.748581">
        <ele>1332.618</ele>
        <time>1999-07-21T12:19:54Z</time>
      </trkpt>
      <trkpt lat="43.115823" lon="-5.748690">
        <ele>1331.686</ele>
        <time>1999-07-21T12:19:55Z</time>
      </trkpt>
      <trkpt lat="43.115857" lon="-5.748800">
        <ele>1330.447</ele>
        <time>1999-07-21T12:19:56Z</time>
      </trkpt>
      <trkpt lat="43.115878" lon="-5.748930">
        <ele>1329.253</ele>
        <time>1999-07-21T12:19:57Z</time>
      </trkpt>
      <trkpt lat="43.115895" lon="-5.749069">
        <ele>1328.087</ele>
        <time>1999-07-21T12:19:58Z</time>
      </trkpt>
      <trkpt lat="43.115913" lon="-5.749206">
        <ele>1326.842</ele>
        <time>1999-07-21T12:19:59Z</time>
      </trkpt>
      <trkpt lat="43.115945" lon="-5.749450">
        <ele>1324.826</ele>
        <time>1999-07-21T12:20:01Z</time>
      </trkpt>
      <trkpt lat="43.115956" lon="-5.749561">
        <ele>1323.808</ele>
        <time>1999-07-21T12:20:02Z</time>
      </trkpt>
      <trkpt lat="43.115974" lon="-5.749662">
        <ele>1322.851</ele>
        <time>1999-07-21T12:20:03Z</time>
      </trkpt>
      <trkpt lat="43.115995" lon="-5.749756">
        <ele>1322.246</ele>
        <time>1999-07-21T12:20:04Z</time>
      </trkpt>
      <trkpt lat="43.115998" lon="-5.749845">
        <ele>1321.026</ele>
        <time>1999-07-21T12:20:05Z</time>
      </trkpt>
      <trkpt lat="43.116024" lon="-5.749921">
        <ele>1320.037</ele>
        <time>1999-07-21T12:20:06Z</time>
      </trkpt>
      <trkpt lat="43.116077" lon="-5.749999">
        <ele>1319.235</ele>
        <time>1999-07-21T12:20:07Z</time>
      </trkpt>
      <trkpt lat="43.116132" lon="-5.750083">
        <ele>1318.063</ele>
        <time>1999-07-21T12:20:08Z</time>
      </trkpt>
      <trkpt lat="43.116201" lon="-5.750159">
        <ele>1316.814</ele>
        <time>1999-07-21T12:20:09Z</time>
      </trkpt>
      <trkpt lat="43.116274" lon="-5.750226">
        <ele>1315.640</ele>
        <time>1999-07-21T12:20:10Z</time>
      </trkpt>
      <trkpt lat="43.116362" lon="-5.750271">
        <ele>1314.268</ele>
        <time>1999-07-21T12:20:11Z</time>
      </trkpt>
      <trkpt lat="43.116433" lon="-5.750321">
        <ele>1312.642</ele>
        <time>1999-07-21T12:20:12Z</time>
      </trkpt>
      <trkpt lat="43.116516" lon="-5.750404">
        <ele>1310.826</ele>
        <time>1999-07-21T12:20:14Z</time>
      </trkpt>
      <trkpt lat="43.116521" lon="-5.750516">
        <ele>1309.608</ele>
        <time>1999-07-21T12:20:16Z</time>
      </trkpt>
      <trkpt lat="43.116508" lon="-5.750580">
        <ele>1309.049</ele>
        <time>1999-07-21T12:20:17Z</time>
      </trkpt>
      <trkpt lat="43.116490" lon="-5.750643">
        <ele>1308.024</ele>
        <time>1999-07-21T12:20:18Z</time>
      </trkpt>
      <trkpt lat="43.116472" lon="-5.750705">
        <ele>1305.844</ele>
        <time>1999-07-21T12:20:19Z</time>
      </trkpt>
      <trkpt lat="43.116436" lon="-5.750820">
        <ele>1303.625</ele>
        <time>1999-07-21T12:20:21Z</time>
      </trkpt>
      <trkpt lat="43.116405" lon="-5.750921">
        <ele>1302.663</ele>
        <time>1999-07-21T12:20:23Z</time>
      </trkpt>
      <trkpt lat="43.116318" lon="-5.751237">
        <ele>1302.271</ele>
        <time>1999-07-21T12:20:29Z</time>
      </trkpt>
      <trkpt lat="43.116294" lon="-5.751470">
        <ele>1302.422</ele>
        <time>1999-07-21T12:20:33Z</time>
      </trkpt>
      <trkpt lat="43.116287" lon="-5.751584">
        <ele>1302.648</ele>
        <time>1999-07-21T12:20:35Z</time>
      </trkpt>
      <trkpt lat="43.116309" lon="-5.751753">
        <ele>1302.857</ele>
        <time>1999-07-21T12:20:38Z</time>
      </trkpt>
      <trkpt lat="43.116343" lon="-5.751920">
        <ele>1303.000</ele>
        <time>1999-07-21T12:20:41Z</time>
      </trkpt>
      <trkpt lat="43.116373" lon="-5.752035">
        <ele>1303.220</ele>
        <time>1999-07-21T12:20:43Z</time>
      </trkpt>
      <trkpt lat="43.116429" lon="-5.752197">
        <ele>1303.608</ele>
        <time>1999-07-21T12:20:46Z</time>
      </trkpt>
      <trkpt lat="43.116516" lon="-5.752324">
        <ele>1304.058</ele>
        <time>1999-07-21T12:20:50Z</time>
      </trkpt>
      <trkpt lat="43.116547" lon="-5.752364">
        <ele>1304.093</ele>
        <time>1999-07-21T12:20:51Z</time>
      </trkpt>
      <trkpt lat="43.116664" lon="-5.752484">
        <ele>1304.083</ele>
        <time>1999-07-21T12:20:54Z</time>
      </trkpt>
      <trkpt lat="43.116719" lon="-5.752524">
        <ele>1304.044</ele>
        <time>1999-07-21T12:20:55Z</time>
      </trkpt>
      <trkpt lat="43.116866" lon="-5.752687">
        <ele>1304.012</ele>
        <time>1999-07-21T12:20:58Z</time>
      </trkpt>
      <trkpt lat="43.116905" lon="-5.752759">
        <ele>1304.060</ele>
        <time>1999-07-21T12:20:59Z</time>
      </trkpt>
      <trkpt lat="43.117017" lon="-5.752995">
        <ele>1303.611</ele>
        <time>1999-07-21T12:21:02Z</time>
      </trkpt>
      <trkpt lat="43.117096" lon="-5.753192">
        <ele>1303.027</ele>
        <time>1999-07-21T12:21:04Z</time>
      </trkpt>
      <trkpt lat="43.117124" lon="-5.753290">
        <ele>1302.626</ele>
        <time>1999-07-21T12:21:05Z</time>
      </trkpt>
      <trkpt lat="43.117188" lon="-5.753483">
        <ele>1301.447</ele>
        <time>1999-07-21T12:21:07Z</time>
      </trkpt>
      <trkpt lat="43.117217" lon="-5.753581">
        <ele>1300.811</ele>
        <time>1999-07-21T12:21:08Z</time>
      </trkpt>
      <trkpt lat="43.117291" lon="-5.753789">
        <ele>1300.008</ele>
        <time>1999-07-21T12:21:10Z</time>
      </trkpt>
      <trkpt lat="43.117425" lon="-5.754070">
        <ele>1298.275</ele>
        <time>1999-07-21T12:21:13Z</time>
      </trkpt>
      <trkpt lat="43.117512" lon="-5.754240">
        <ele>1296.450</ele>
        <time>1999-07-21T12:21:15Z</time>
      </trkpt>
      <trkpt lat="43.117552" lon="-5.754326">
        <ele>1295.420</ele>
        <time>1999-07-21T12:21:16Z</time>
      </trkpt>
      <trkpt lat="43.117621" lon="-5.754485">
        <ele>1293.621</ele>
        <time>1999-07-21T12:21:18Z</time>
      </trkpt>
      <trkpt lat="43.117664" lon="-5.754656">
        <ele>1291.859</ele>
        <time>1999-07-21T12:21:20Z</time>
      </trkpt>
      <trkpt lat="43.117671" lon="-5.754742">
        <ele>1290.627</ele>
        <time>1999-07-21T12:21:21Z</time>
      </trkpt>
      <trkpt lat="43.117673" lon="-5.754837">
        <ele>1289.488</ele>
        <time>1999-07-21T12:21:22Z</time>
      </trkpt>
      <trkpt lat="43.117675" lon="-5.754932">
        <ele>1288.024</ele>
        <time>1999-07-21T12:21:23Z</time>
      </trkpt>
      <trkpt lat="43.117680" lon="-5.755024">
        <ele>1286.897</ele>
        <time>1999-07-21T12:21:24Z</time>
      </trkpt>
      <trkpt lat="43.117692" lon="-5.755113">
        <ele>1285.623</ele>
        <time>1999-07-21T12:21:25Z</time>
      </trkpt>
      <trkpt lat="43.117705" lon="-5.755199">
        <ele>1284.225</ele>
        <time>1999-07-21T12:21:26Z</time>
      </trkpt>
      <trkpt lat="43.117725" lon="-5.755282">
        <ele>1283.008</ele>
        <time>1999-07-21T12:21:27Z</time>
      </trkpt>
      <trkpt lat="43.117752" lon="-5.755367">
        <ele>1282.052</ele>
        <time>1999-07-21T12:21:28Z</time>
      </trkpt>
      <trkpt lat="43.117821" lon="-5.755547">
        <ele>1280.857</ele>
        <time>1999-07-21T12:21:30Z</time>
      </trkpt>
      <trkpt lat="43.117860" lon="-5.755635">
        <ele>1280.297</ele>
        <time>1999-07-21T12:21:31Z</time>
      </trkpt>
      <trkpt lat="43.117901" lon="-5.755721">
        <ele>1279.278</ele>
        <time>1999-07-21T12:21:32Z</time>
      </trkpt>
      <trkpt lat="43.117943" lon="-5.755808">
        <ele>1278.096</ele>
        <time>1999-07-21T12:21:33Z</time>
      </trkpt>
      <trkpt lat="43.117984" lon="-5.755886">
        <ele>1277.044</ele>
        <time>1999-07-21T12:21:34Z</time>
      </trkpt>
      <trkpt lat="43.118061" lon="-5.756015">
        <ele>1275.055</ele>
        <time>1999-07-21T12:21:36Z</time>
      </trkpt>
      <trkpt lat="43.118125" lon="-5.756119">
        <ele>1273.461</ele>
        <time>1999-07-21T12:21:38Z</time>
      </trkpt>
      <trkpt lat="43.118155" lon="-5.756157">
        <ele>1272.239</ele>
        <time>1999-07-21T12:21:39Z</time>
      </trkpt>
      <trkpt lat="43.118184" lon="-5.756192">
        <ele>1269.001</ele>
        <time>1999-07-21T12:21:40Z</time>
      </trkpt>
      <trkpt lat="43.118218" lon="-5.756227">
        <ele>1267.821</ele>
        <time>1999-07-21T12:21:41Z</time>
      </trkpt>
      <trkpt lat="43.118256" lon="-5.756267">
        <ele>1266.808</ele>
        <time>1999-07-21T12:21:42Z</time>
      </trkpt>
      <trkpt lat="43.118295" lon="-5.756314">
        <ele>1265.856</ele>
        <time>1999-07-21T12:21:43Z</time>
      </trkpt>
      <trkpt lat="43.118333" lon="-5.756364">
        <ele>1264.661</ele>
        <time>1999-07-21T12:21:44Z</time>
      </trkpt>
      <trkpt lat="43.118369" lon="-5.756413">
        <ele>1263.481</ele>
        <time>1999-07-21T12:21:45Z</time>
      </trkpt>
      <trkpt lat="43.118402" lon="-5.756463">
        <ele>1262.022</ele>
        <time>1999-07-21T12:21:46Z</time>
      </trkpt>
      <trkpt lat="43.118437" lon="-5.756511">
        <ele>1260.830</ele>
        <time>1999-07-21T12:21:47Z</time>
      </trkpt>
      <trkpt lat="43.118520" lon="-5.756582">
        <ele>1259.258</ele>
        <time>1999-07-21T12:21:49Z</time>
      </trkpt>
      <trkpt lat="43.118566" lon="-5.756611">
        <ele>1258.469</ele>
        <time>1999-07-21T12:21:50Z</time>
      </trkpt>
      <trkpt lat="43.118612" lon="-5.756641">
        <ele>1257.695</ele>
        <time>1999-07-21T12:21:51Z</time>
      </trkpt>
      <trkpt lat="43.118659" lon="-5.756675">
        <ele>1256.661</ele>
        <time>1999-07-21T12:21:52Z</time>
      </trkpt>
      <trkpt lat="43.118705" lon="-5.756715">
        <ele>1256.021</ele>
        <time>1999-07-21T12:21:53Z</time>
      </trkpt>
      <trkpt lat="43.118788" lon="-5.756807">
        <ele>1254.213</ele>
        <time>1999-07-21T12:21:55Z</time>
      </trkpt>
      <trkpt lat="43.118822" lon="-5.756855">
        <ele>1253.208</ele>
        <time>1999-07-21T12:21:56Z</time>
      </trkpt>
      <trkpt lat="43.118850" lon="-5.756908">
        <ele>1252.489</ele>
        <time>1999-07-21T12:21:57Z</time>
      </trkpt>
      <trkpt lat="43.118871" lon="-5.756966">
        <ele>1251.244</ele>
        <time>1999-07-21T12:21:58Z</time>
      </trkpt>
      <trkpt lat="43.118888" lon="-5.757031">
        <ele>1250.054</ele>
        <time>1999-07-21T12:21:59Z</time>
      </trkpt>
      <trkpt lat="43.118924" lon="-5.757170">
        <ele>1248.495</ele>
        <time>1999-07-21T12:22:01Z</time>
      </trkpt>
      <trkpt lat="43.118956" lon="-5.757326">
        <ele>1246.653</ele>
        <time>1999-07-21T12:22:03Z</time>
      </trkpt>
      <trkpt lat="43.118977" lon="-5.757464">
        <ele>1245.021</ele>
        <time>1999-07-21T12:22:05Z</time>
      </trkpt>
      <trkpt lat="43.118978" lon="-5.757570">
        <ele>1244.082</ele>
        <time>1999-07-21T12:22:07Z</time>
      </trkpt>
      <trkpt lat="43.118966" lon="-5.757626">
        <ele>1242.698</ele>
        <time>1999-07-21T12:22:08Z</time>
      </trkpt>
      <trkpt lat="43.118953" lon="-5.757688">
        <ele>1241.828</ele>
        <time>1999-07-21T12:22:09Z</time>
      </trkpt>
      <trkpt lat="43.118934" lon="-5.757761">
        <ele>1241.089</ele>
        <time>1999-07-21T12:22:10Z</time>
      </trkpt>
      <trkpt lat="43.118885" lon="-5.757938">
        <ele>1239.417</ele>
        <time>1999-07-21T12:22:12Z</time>
      </trkpt>
      <trkpt lat="43.118840" lon="-5.758032">
        <ele>1238.608</ele>
        <time>1999-07-21T12:22:13Z</time>
      </trkpt>
      <trkpt lat="43.118780" lon="-5.758126">
        <ele>1237.845</ele>
        <time>1999-07-21T12:22:14Z</time>
      </trkpt>
      <trkpt lat="43.118712" lon="-5.758313">
        <ele>1236.410</ele>
        <time>1999-07-21T12:22:16Z</time>
      </trkpt>
      <trkpt lat="43.118673" lon="-5.758468">
        <ele>1235.470</ele>
        <time>1999-07-21T12:22:18Z</time>
      </trkpt>
      <trkpt lat="43.118664" lon="-5.758629">
        <ele>1234.241</ele>
        <time>1999-07-21T12:22:20Z</time>
      </trkpt>
      <trkpt lat="43.118705" lon="-5.758769">
        <ele>1232.469</ele>
        <time>1999-07-21T12:22:22Z</time>
      </trkpt>
      <trkpt lat="43.118733" lon="-5.758817">
        <ele>1231.687</ele>
        <time>1999-07-21T12:22:23Z</time>
      </trkpt>
      <trkpt lat="43.118768" lon="-5.758868">
        <ele>1231.078</ele>
        <time>1999-07-21T12:22:24Z</time>
      </trkpt>
      <trkpt lat="43.118804" lon="-5.758923">
        <ele>1230.414</ele>
        <time>1999-07-21T12:22:25Z</time>
      </trkpt>
      <trkpt lat="43.118840" lon="-5.758981">
        <ele>1229.871</ele>
        <time>1999-07-21T12:22:26Z</time>
      </trkpt>
      <trkpt lat="43.118944" lon="-5.759171">
        <ele>1229.241</ele>
        <time>1999-07-21T12:22:29Z</time>
      </trkpt>
      <trkpt lat="43.119062" lon="-5.759396">
        <ele>1228.815</ele>
        <time>1999-07-21T12:22:32Z</time>
      </trkpt>
      <trkpt lat="43.119168" lon="-5.759528">
        <ele>1228.408</ele>
        <time>1999-07-21T12:22:34Z</time>
      </trkpt>
      <trkpt lat="43.119350" lon="-5.759699">
        <ele>1227.670</ele>
        <time>1999-07-21T12:22:37Z</time>
      </trkpt>
      <trkpt lat="43.119406" lon="-5.759744">
        <ele>1227.485</ele>
        <time>1999-07-21T12:22:38Z</time>
      </trkpt>
      <trkpt lat="43.119619" lon="-5.759946">
        <ele>1226.425</ele>
        <time>1999-07-21T12:22:42Z</time>
      </trkpt>
      <trkpt lat="43.119670" lon="-5.759988">
        <ele>1226.096</ele>
        <time>1999-07-21T12:22:43Z</time>
      </trkpt>
      <trkpt lat="43.119722" lon="-5.760023">
        <ele>1225.274</ele>
        <time>1999-07-21T12:22:44Z</time>
      </trkpt>
      <trkpt lat="43.119770" lon="-5.760055">
        <ele>1224.042</ele>
        <time>1999-07-21T12:22:45Z</time>
      </trkpt>
      <trkpt lat="43.119865" lon="-5.760120">
        <ele>1222.223</ele>
        <time>1999-07-21T12:22:47Z</time>
      </trkpt>
      <trkpt lat="43.119908" lon="-5.760146">
        <ele>1221.059</ele>
        <time>1999-07-21T12:22:48Z</time>
      </trkpt>
      <trkpt lat="43.119988" lon="-5.760203">
        <ele>1219.268</ele>
        <time>1999-07-21T12:22:50Z</time>
      </trkpt>
      <trkpt lat="43.120092" lon="-5.760284">
        <ele>1217.642</ele>
        <time>1999-07-21T12:22:52Z</time>
      </trkpt>
      <trkpt lat="43.120145" lon="-5.760318">
        <ele>1216.626</ele>
        <time>1999-07-21T12:22:53Z</time>
      </trkpt>
      <trkpt lat="43.120241" lon="-5.760372">
        <ele>1215.008</ele>
        <time>1999-07-21T12:22:55Z</time>
      </trkpt>
      <trkpt lat="43.120343" lon="-5.760421">
        <ele>1212.859</ele>
        <time>1999-07-21T12:22:57Z</time>
      </trkpt>
      <trkpt lat="43.120397" lon="-5.760444">
        <ele>1211.864</ele>
        <time>1999-07-21T12:22:58Z</time>
      </trkpt>
      <trkpt lat="43.120446" lon="-5.760454">
        <ele>1211.054</ele>
        <time>1999-07-21T12:22:59Z</time>
      </trkpt>
      <trkpt lat="43.120486" lon="-5.760451">
        <ele>1210.675</ele>
        <time>1999-07-21T12:23:00Z</time>
      </trkpt>
      <trkpt lat="43.120547" lon="-5.760440">
        <ele>1207.663</ele>
        <time>1999-07-21T12:23:02Z</time>
      </trkpt>
      <trkpt lat="43.120574" lon="-5.760437">
        <ele>1206.871</ele>
        <time>1999-07-21T12:23:03Z</time>
      </trkpt>
      <trkpt lat="43.120622" lon="-5.760429">
        <ele>1204.852</ele>
        <time>1999-07-21T12:23:05Z</time>
      </trkpt>
      <trkpt lat="43.120679" lon="-5.760435">
        <ele>1203.468</ele>
        <time>1999-07-21T12:23:07Z</time>
      </trkpt>
      <trkpt lat="43.120753" lon="-5.760453">
        <ele>1202.227</ele>
        <time>1999-07-21T12:23:09Z</time>
      </trkpt>
      <trkpt lat="43.120794" lon="-5.760449">
        <ele>1201.868</ele>
        <time>1999-07-21T12:23:10Z</time>
      </trkpt>
      <trkpt lat="43.120876" lon="-5.760400">
        <ele>1201.014</ele>
        <time>1999-07-21T12:23:12Z</time>
      </trkpt>
      <trkpt lat="43.120973" lon="-5.760338">
        <ele>1200.408</ele>
        <time>1999-07-21T12:23:14Z</time>
      </trkpt>
      <trkpt lat="43.121083" lon="-5.760282">
        <ele>1200.015</ele>
        <time>1999-07-21T12:23:16Z</time>
      </trkpt>
      <trkpt lat="43.121254" lon="-5.760297">
        <ele>1199.490</ele>
        <time>1999-07-21T12:23:19Z</time>
      </trkpt>
      <trkpt lat="43.121360" lon="-5.760359">
        <ele>1198.880</ele>
        <time>1999-07-21T12:23:21Z</time>
      </trkpt>
      <trkpt lat="43.121411" lon="-5.760399">
        <ele>1198.651</ele>
        <time>1999-07-21T12:23:22Z</time>
      </trkpt>
      <trkpt lat="43.121511" lon="-5.760495">
        <ele>1197.689</ele>
        <time>1999-07-21T12:23:24Z</time>
      </trkpt>
      <trkpt lat="43.121660" lon="-5.760649">
        <ele>1196.247</ele>
        <time>1999-07-21T12:23:27Z</time>
      </trkpt>
      <trkpt lat="43.121769" lon="-5.760748">
        <ele>1195.258</ele>
        <time>1999-07-21T12:23:29Z</time>
      </trkpt>
      <trkpt lat="43.121827" lon="-5.760791">
        <ele>1194.844</ele>
        <time>1999-07-21T12:23:30Z</time>
      </trkpt>
      <trkpt lat="43.122063" lon="-5.760982">
        <ele>1194.069</ele>
        <time>1999-07-21T12:23:34Z</time>
      </trkpt>
      <trkpt lat="43.122133" lon="-5.761018">
        <ele>1193.604</ele>
        <time>1999-07-21T12:23:35Z</time>
      </trkpt>
      <trkpt lat="43.122286" lon="-5.761021">
        <ele>1192.624</ele>
        <time>1999-07-21T12:23:37Z</time>
      </trkpt>
      <trkpt lat="43.122362" lon="-5.760992">
        <ele>1192.408</ele>
        <time>1999-07-21T12:23:38Z</time>
      </trkpt>
      <trkpt lat="43.122509" lon="-5.760909">
        <ele>1191.849</ele>
        <time>1999-07-21T12:23:40Z</time>
      </trkpt>
      <trkpt lat="43.122584" lon="-5.760868">
        <ele>1191.624</ele>
        <time>1999-07-21T12:23:41Z</time>
      </trkpt>
      <trkpt lat="43.122658" lon="-5.760835">
        <ele>1191.494</ele>
        <time>1999-07-21T12:23:42Z</time>
      </trkpt>
      <trkpt lat="43.122732" lon="-5.760822">
        <ele>1191.015</ele>
        <time>1999-07-21T12:23:43Z</time>
      </trkpt>
      <trkpt lat="43.122884" lon="-5.760848">
        <ele>1190.243</ele>
        <time>1999-07-21T12:23:45Z</time>
      </trkpt>
      <trkpt lat="43.123049" lon="-5.760890">
        <ele>1189.091</ele>
        <time>1999-07-21T12:23:47Z</time>
      </trkpt>
      <trkpt lat="43.123298" lon="-5.760944">
        <ele>1188.092</ele>
        <time>1999-07-21T12:23:50Z</time>
      </trkpt>
      <trkpt lat="43.123373" lon="-5.760969">
        <ele>1187.838</ele>
        <time>1999-07-21T12:23:51Z</time>
      </trkpt>
      <trkpt lat="43.123559" lon="-5.761143">
        <ele>1186.218</ele>
        <time>1999-07-21T12:23:54Z</time>
      </trkpt>
      <trkpt lat="43.123697" lon="-5.761287">
        <ele>1184.898</ele>
        <time>1999-07-21T12:23:56Z</time>
      </trkpt>
      <trkpt lat="43.123774" lon="-5.761352">
        <ele>1182.817</ele>
        <time>1999-07-21T12:23:57Z</time>
      </trkpt>
      <trkpt lat="43.123854" lon="-5.761413">
        <ele>1182.008</ele>
        <time>1999-07-21T12:23:58Z</time>
      </trkpt>
      <trkpt lat="43.123934" lon="-5.761472">
        <ele>1181.044</ele>
        <time>1999-07-21T12:23:59Z</time>
      </trkpt>
      <trkpt lat="43.124083" lon="-5.761588">
        <ele>1179.849</ele>
        <time>1999-07-21T12:24:01Z</time>
      </trkpt>
      <trkpt lat="43.124220" lon="-5.761687">
        <ele>1178.099</ele>
        <time>1999-07-21T12:24:03Z</time>
      </trkpt>
      <trkpt lat="43.124288" lon="-5.761741">
        <ele>1177.240</ele>
        <time>1999-07-21T12:24:04Z</time>
      </trkpt>
      <trkpt lat="43.124353" lon="-5.761793">
        <ele>1176.428</ele>
        <time>1999-07-21T12:24:05Z</time>
      </trkpt>
      <trkpt lat="43.124423" lon="-5.761843">
        <ele>1175.216</ele>
        <time>1999-07-21T12:24:06Z</time>
      </trkpt>
      <trkpt lat="43.124498" lon="-5.761893">
        <ele>1174.287</ele>
        <time>1999-07-21T12:24:07Z</time>
      </trkpt>
      <trkpt lat="43.124573" lon="-5.761943">
        <ele>1173.013</ele>
        <time>1999-07-21T12:24:08Z</time>
      </trkpt>
      <trkpt lat="43.124646" lon="-5.761993">
        <ele>1171.845</ele>
        <time>1999-07-21T12:24:09Z</time>
      </trkpt>
      <trkpt lat="43.124711" lon="-5.762041">
        <ele>1170.447</ele>
        <time>1999-07-21T12:24:10Z</time>
      </trkpt>
      <trkpt lat="43.124767" lon="-5.762084">
        <ele>1169.211</ele>
        <time>1999-07-21T12:24:11Z</time>
      </trkpt>
      <trkpt lat="43.124819" lon="-5.762128">
        <ele>1168.208</ele>
        <time>1999-07-21T12:24:12Z</time>
      </trkpt>
      <trkpt lat="43.124864" lon="-5.762175">
        <ele>1167.287</ele>
        <time>1999-07-21T12:24:13Z</time>
      </trkpt>
      <trkpt lat="43.124903" lon="-5.762224">
        <ele>1166.092</ele>
        <time>1999-07-21T12:24:14Z</time>
      </trkpt>
      <trkpt lat="43.124936" lon="-5.762273">
        <ele>1165.052</ele>
        <time>1999-07-21T12:24:15Z</time>
      </trkpt>
      <trkpt lat="43.124965" lon="-5.762316">
        <ele>1163.663</ele>
        <time>1999-07-21T12:24:16Z</time>
      </trkpt>
      <trkpt lat="43.124987" lon="-5.762359">
        <ele>1162.451</ele>
        <time>1999-07-21T12:24:17Z</time>
      </trkpt>
      <trkpt lat="43.125014" lon="-5.762438">
        <ele>1160.659</ele>
        <time>1999-07-21T12:24:19Z</time>
      </trkpt>
      <trkpt lat="43.125039" lon="-5.762503">
        <ele>1160.080</ele>
        <time>1999-07-21T12:24:21Z</time>
      </trkpt>
      <trkpt lat="43.125052" lon="-5.762534">
        <ele>1160.056</ele>
        <time>1999-07-21T12:24:22Z</time>
      </trkpt>
      <trkpt lat="43.125078" lon="-5.762586">
        <ele>1159.894</ele>
        <time>1999-07-21T12:24:24Z</time>
      </trkpt>
      <trkpt lat="43.125100" lon="-5.762634">
        <ele>1159.857</ele>
        <time>1999-07-21T12:24:26Z</time>
      </trkpt>
      <trkpt lat="43.125127" lon="-5.762668">
        <ele>1159.822</ele>
        <time>1999-07-21T12:24:28Z</time>
      </trkpt>
      <trkpt lat="43.125163" lon="-5.762726">
        <ele>1161.008</ele>
        <time>1999-07-21T12:24:31Z</time>
      </trkpt>
      <trkpt lat="43.125194" lon="-5.762783">
        <ele>1161.852</ele>
        <time>1999-07-21T12:24:34Z</time>
      </trkpt>
      <trkpt lat="43.125217" lon="-5.762822">
        <ele>1162.447</ele>
        <time>1999-07-21T12:24:36Z</time>
      </trkpt>
      <trkpt lat="43.125255" lon="-5.762873">
        <ele>1163.227</ele>
        <time>1999-07-21T12:24:39Z</time>
      </trkpt>
      <trkpt lat="43.125324" lon="-5.762952">
        <ele>1164.228</ele>
        <time>1999-07-21T12:24:44Z</time>
      </trkpt>
      <trkpt lat="43.125341" lon="-5.762963">
        <ele>1164.686</ele>
        <time>1999-07-21T12:24:45Z</time>
      </trkpt>
      <trkpt lat="43.125418" lon="-5.762980">
        <ele>1165.484</ele>
        <time>1999-07-21T12:24:49Z</time>
      </trkpt>
      <trkpt lat="43.125470" lon="-5.762989">
        <ele>1166.265</ele>
        <time>1999-07-21T12:24:52Z</time>
      </trkpt>
      <trkpt lat="43.125535" lon="-5.763032">
        <ele>1166.621</ele>
        <time>1999-07-21T12:24:56Z</time>
      </trkpt>
      <trkpt lat="43.125587" lon="-5.763055">
        <ele>1167.024</ele>
        <time>1999-07-21T12:24:59Z</time>
      </trkpt>
      <trkpt lat="43.125646" lon="-5.763075">
        <ele>1167.604</ele>
        <time>1999-07-21T12:25:02Z</time>
      </trkpt>
      <trkpt lat="43.125719" lon="-5.763111">
        <ele>1168.614</ele>
        <time>1999-07-21T12:25:06Z</time>
      </trkpt>
      <trkpt lat="43.125737" lon="-5.763121">
        <ele>1168.808</ele>
        <time>1999-07-21T12:25:07Z</time>
      </trkpt>
      <trkpt lat="43.125815" lon="-5.763168">
        <ele>1169.875</ele>
        <time>1999-07-21T12:25:12Z</time>
      </trkpt>
      <trkpt lat="43.125844" lon="-5.763196">
        <ele>1170.440</ele>
        <time>1999-07-21T12:25:14Z</time>
      </trkpt>
      <trkpt lat="43.125867" lon="-5.763214">
        <ele>1171.010</ele>
        <time>1999-07-21T12:25:16Z</time>
      </trkpt>
      <trkpt lat="43.125866" lon="-5.763217">
        <ele>1171.461</ele>
        <time>1999-07-21T12:25:18Z</time>
      </trkpt>
      <trkpt lat="43.125925" lon="-5.763249">
        <ele>1173.039</ele>
        <time>1999-07-21T12:26:03Z</time>
      </trkpt>
      <trkpt lat="43.125938" lon="-5.763259">
        <ele>1173.267</ele>
        <time>1999-07-21T12:26:04Z</time>
      </trkpt>
      <trkpt lat="43.125964" lon="-5.763283">
        <ele>1173.288</ele>
        <time>1999-07-21T12:26:06Z</time>
      </trkpt>
      <trkpt lat="43.126040" lon="-5.763364">
        <ele>1174.034</ele>
        <time>1999-07-21T12:26:12Z</time>
      </trkpt>
      <trkpt lat="43.126065" lon="-5.763398">
        <ele>1174.478</ele>
        <time>1999-07-21T12:26:14Z</time>
      </trkpt>
      <trkpt lat="43.126094" lon="-5.763423">
        <ele>1175.033</ele>
        <time>1999-07-21T12:26:16Z</time>
      </trkpt>
      <trkpt lat="43.126114" lon="-5.763456">
        <ele>1175.626</ele>
        <time>1999-07-21T12:26:18Z</time>
      </trkpt>
      <trkpt lat="43.126124" lon="-5.763476">
        <ele>1175.808</ele>
        <time>1999-07-21T12:26:19Z</time>
      </trkpt>
      <trkpt lat="43.126156" lon="-5.763529">
        <ele>1176.890</ele>
        <time>1999-07-21T12:26:22Z</time>
      </trkpt>
      <trkpt lat="43.126198" lon="-5.763604">
        <ele>1177.815</ele>
        <time>1999-07-21T12:26:26Z</time>
      </trkpt>
      <trkpt lat="43.126208" lon="-5.763624">
        <ele>1178.035</ele>
        <time>1999-07-21T12:26:27Z</time>
      </trkpt>
      <trkpt lat="43.126254" lon="-5.763708">
        <ele>1178.826</ele>
        <time>1999-07-21T12:26:31Z</time>
      </trkpt>
      <trkpt lat="43.126277" lon="-5.763754">
        <ele>1179.434</ele>
        <time>1999-07-21T12:26:33Z</time>
      </trkpt>
      <trkpt lat="43.126313" lon="-5.763826">
        <ele>1180.012</ele>
        <time>1999-07-21T12:26:36Z</time>
      </trkpt>
      <trkpt lat="43.126341" lon="-5.763876">
        <ele>1180.493</ele>
        <time>1999-07-21T12:26:38Z</time>
      </trkpt>
      <trkpt lat="43.126435" lon="-5.764035">
        <ele>1181.479</ele>
        <time>1999-07-21T12:26:44Z</time>
      </trkpt>
      <trkpt lat="43.126579" lon="-5.764212">
        <ele>1182.482</ele>
        <time>1999-07-21T12:26:50Z</time>
      </trkpt>
      <trkpt lat="43.126643" lon="-5.764180">
        <ele>1182.843</ele>
        <time>1999-07-21T12:26:52Z</time>
      </trkpt>
      <trkpt lat="43.126675" lon="-5.764139">
        <ele>1182.817</ele>
        <time>1999-07-21T12:26:53Z</time>
      </trkpt>
      <trkpt lat="43.126731" lon="-5.764036">
        <ele>1182.808</ele>
        <time>1999-07-21T12:26:55Z</time>
      </trkpt>
      <trkpt lat="43.126804" lon="-5.763929">
        <ele>1182.881</ele>
        <time>1999-07-21T12:26:57Z</time>
      </trkpt>
      <trkpt lat="43.126993" lon="-5.763814">
        <ele>1182.456</ele>
        <time>1999-07-21T12:27:00Z</time>
      </trkpt>
      <trkpt lat="43.127126" lon="-5.763745">
        <ele>1182.076</ele>
        <time>1999-07-21T12:27:02Z</time>
      </trkpt>
      <trkpt lat="43.127182" lon="-5.763711">
        <ele>1181.087</ele>
        <time>1999-07-21T12:27:03Z</time>
      </trkpt>
      <trkpt lat="43.127283" lon="-5.763647">
        <ele>1179.485</ele>
        <time>1999-07-21T12:27:05Z</time>
      </trkpt>
      <trkpt lat="43.127332" lon="-5.763620">
        <ele>1178.653</ele>
        <time>1999-07-21T12:27:06Z</time>
      </trkpt>
      <trkpt lat="43.127372" lon="-5.763604">
        <ele>1178.094</ele>
        <time>1999-07-21T12:27:07Z</time>
      </trkpt>
      <trkpt lat="43.127440" lon="-5.763647">
        <ele>1176.610</ele>
        <time>1999-07-21T12:27:09Z</time>
      </trkpt>
      <trkpt lat="43.127459" lon="-5.763699">
        <ele>1175.898</ele>
        <time>1999-07-21T12:27:10Z</time>
      </trkpt>
      <trkpt lat="43.127466" lon="-5.763755">
        <ele>1174.015</ele>
        <time>1999-07-21T12:27:11Z</time>
      </trkpt>
      <trkpt lat="43.127469" lon="-5.763814">
        <ele>1172.826</ele>
        <time>1999-07-21T12:27:12Z</time>
      </trkpt>
      <trkpt lat="43.127460" lon="-5.763888">
        <ele>1171.608</ele>
        <time>1999-07-21T12:27:13Z</time>
      </trkpt>
      <trkpt lat="43.127441" lon="-5.763970">
        <ele>1170.642</ele>
        <time>1999-07-21T12:27:14Z</time>
      </trkpt>
      <trkpt lat="43.127414" lon="-5.764048">
        <ele>1169.647</ele>
        <time>1999-07-21T12:27:15Z</time>
      </trkpt>
      <trkpt lat="43.127376" lon="-5.764112">
        <ele>1168.697</ele>
        <time>1999-07-21T12:27:16Z</time>
      </trkpt>
      <trkpt lat="43.127339" lon="-5.764167">
        <ele>1167.888</ele>
        <time>1999-07-21T12:27:17Z</time>
      </trkpt>
      <trkpt lat="43.127302" lon="-5.764218">
        <ele>1167.096</ele>
        <time>1999-07-21T12:27:18Z</time>
      </trkpt>
      <trkpt lat="43.127278" lon="-5.764270">
        <ele>1166.054</ele>
        <time>1999-07-21T12:27:19Z</time>
      </trkpt>
      <trkpt lat="43.127279" lon="-5.764315">
        <ele>1165.275</ele>
        <time>1999-07-21T12:27:20Z</time>
      </trkpt>
      <trkpt lat="43.127302" lon="-5.764345">
        <ele>1164.611</ele>
        <time>1999-07-21T12:27:21Z</time>
      </trkpt>
      <trkpt lat="43.127350" lon="-5.764351">
        <ele>1163.877</ele>
        <time>1999-07-21T12:27:22Z</time>
      </trkpt>
      <trkpt lat="43.127412" lon="-5.764334">
        <ele>1163.061</ele>
        <time>1999-07-21T12:27:23Z</time>
      </trkpt>
      <trkpt lat="43.127477" lon="-5.764313">
        <ele>1162.027</ele>
        <time>1999-07-21T12:27:24Z</time>
      </trkpt>
      <trkpt lat="43.127548" lon="-5.764304">
        <ele>1161.008</ele>
        <time>1999-07-21T12:27:25Z</time>
      </trkpt>
      <trkpt lat="43.127626" lon="-5.764317">
        <ele>1160.070</ele>
        <time>1999-07-21T12:27:26Z</time>
      </trkpt>
      <trkpt lat="43.127713" lon="-5.764357">
        <ele>1159.215</ele>
        <time>1999-07-21T12:27:27Z</time>
      </trkpt>
      <trkpt lat="43.127884" lon="-5.764492">
        <ele>1157.625</ele>
        <time>1999-07-21T12:27:29Z</time>
      </trkpt>
      <trkpt lat="43.127959" lon="-5.764564">
        <ele>1157.036</ele>
        <time>1999-07-21T12:27:30Z</time>
      </trkpt>
      <trkpt lat="43.128022" lon="-5.764629">
        <ele>1156.424</ele>
        <time>1999-07-21T12:27:31Z</time>
      </trkpt>
      <trkpt lat="43.128078" lon="-5.764683">
        <ele>1156.072</ele>
        <time>1999-07-21T12:27:32Z</time>
      </trkpt>
      <trkpt lat="43.128214" lon="-5.764720">
        <ele>1154.833</ele>
        <time>1999-07-21T12:27:34Z</time>
      </trkpt>
      <trkpt lat="43.128297" lon="-5.764698">
        <ele>1153.819</ele>
        <time>1999-07-21T12:27:35Z</time>
      </trkpt>
      <trkpt lat="43.128378" lon="-5.764663">
        <ele>1153.099</ele>
        <time>1999-07-21T12:27:36Z</time>
      </trkpt>
      <trkpt lat="43.128456" lon="-5.764641">
        <ele>1151.807</ele>
        <time>1999-07-21T12:27:37Z</time>
      </trkpt>
      <trkpt lat="43.128535" lon="-5.764630">
        <ele>1148.827</ele>
        <time>1999-07-21T12:27:38Z</time>
      </trkpt>
      <trkpt lat="43.128620" lon="-5.764625">
        <ele>1147.608</ele>
        <time>1999-07-21T12:27:39Z</time>
      </trkpt>
      <trkpt lat="43.128705" lon="-5.764608">
        <ele>1146.872</ele>
        <time>1999-07-21T12:27:40Z</time>
      </trkpt>
      <trkpt lat="43.128782" lon="-5.764577">
        <ele>1146.047</ele>
        <time>1999-07-21T12:27:41Z</time>
      </trkpt>
      <trkpt lat="43.128847" lon="-5.764539">
        <ele>1145.487</ele>
        <time>1999-07-21T12:27:42Z</time>
      </trkpt>
      <trkpt lat="43.128895" lon="-5.764489">
        <ele>1144.678</ele>
        <time>1999-07-21T12:27:43Z</time>
      </trkpt>
      <trkpt lat="43.128970" lon="-5.764381">
        <ele>1143.696</ele>
        <time>1999-07-21T12:27:45Z</time>
      </trkpt>
      <trkpt lat="43.129030" lon="-5.764269">
        <ele>1143.084</ele>
        <time>1999-07-21T12:27:47Z</time>
      </trkpt>
      <trkpt lat="43.129055" lon="-5.764212">
        <ele>1143.065</ele>
        <time>1999-07-21T12:27:48Z</time>
      </trkpt>
      <trkpt lat="43.129111" lon="-5.764105">
        <ele>1143.061</ele>
        <time>1999-07-21T12:27:50Z</time>
      </trkpt>
      <trkpt lat="43.129143" lon="-5.764058">
        <ele>1142.817</ele>
        <time>1999-07-21T12:27:51Z</time>
      </trkpt>
      <trkpt lat="43.129245" lon="-5.763932">
        <ele>1142.887</ele>
        <time>1999-07-21T12:27:54Z</time>
      </trkpt>
      <trkpt lat="43.129282" lon="-5.763894">
        <ele>1142.815</ele>
        <time>1999-07-21T12:27:55Z</time>
      </trkpt>
      <trkpt lat="43.129361" lon="-5.763827">
        <ele>1143.208</ele>
        <time>1999-07-21T12:27:57Z</time>
      </trkpt>
      <trkpt lat="43.129438" lon="-5.763751">
        <ele>1143.614</ele>
        <time>1999-07-21T12:27:59Z</time>
      </trkpt>
      <trkpt lat="43.129584" lon="-5.763580">
        <ele>1144.019</ele>
        <time>1999-07-21T12:28:03Z</time>
      </trkpt>
      <trkpt lat="43.129664" lon="-5.763510">
        <ele>1144.079</ele>
        <time>1999-07-21T12:28:05Z</time>
      </trkpt>
      <trkpt lat="43.129802" lon="-5.763471">
        <ele>1144.230</ele>
        <time>1999-07-21T12:28:08Z</time>
      </trkpt>
      <trkpt lat="43.129896" lon="-5.763487">
        <ele>1144.278</ele>
        <time>1999-07-21T12:28:10Z</time>
      </trkpt>
      <trkpt lat="43.129945" lon="-5.763503">
        <ele>1144.266</ele>
        <time>1999-07-21T12:28:11Z</time>
      </trkpt>
      <trkpt lat="43.130042" lon="-5.763560">
        <ele>1144.217</ele>
        <time>1999-07-21T12:28:13Z</time>
      </trkpt>
      <trkpt lat="43.130194" lon="-5.763690">
        <ele>1144.283</ele>
        <time>1999-07-21T12:28:16Z</time>
      </trkpt>
      <trkpt lat="43.130250" lon="-5.763735">
        <ele>1144.293</ele>
        <time>1999-07-21T12:28:17Z</time>
      </trkpt>
      <trkpt lat="43.130311" lon="-5.763770">
        <ele>1144.265</ele>
        <time>1999-07-21T12:28:18Z</time>
      </trkpt>
      <trkpt lat="43.130571" lon="-5.763784">
        <ele>1144.221</ele>
        <time>1999-07-21T12:28:22Z</time>
      </trkpt>
      <trkpt lat="43.130670" lon="-5.763689">
        <ele>1144.008</ele>
        <time>1999-07-21T12:28:24Z</time>
      </trkpt>
      <trkpt lat="43.130718" lon="-5.763652">
        <ele>1143.662</ele>
        <time>1999-07-21T12:28:25Z</time>
      </trkpt>
      <trkpt lat="43.130966" lon="-5.763556">
        <ele>1143.247</ele>
        <time>1999-07-21T12:28:30Z</time>
      </trkpt>
      <trkpt lat="43.131190" lon="-5.763448">
        <ele>1143.247</ele>
        <time>1999-07-21T12:28:36Z</time>
      </trkpt>
      <trkpt lat="43.131305" lon="-5.763395">
        <ele>1143.648</ele>
        <time>1999-07-21T12:28:40Z</time>
      </trkpt>
      <trkpt lat="43.131382" lon="-5.763363">
        <ele>1144.216</ele>
        <time>1999-07-21T12:28:43Z</time>
      </trkpt>
      <trkpt lat="43.131428" lon="-5.763335">
        <ele>1145.044</ele>
        <time>1999-07-21T12:28:45Z</time>
      </trkpt>
      <trkpt lat="43.131507" lon="-5.763245">
        <ele>1145.895</ele>
        <time>1999-07-21T12:28:49Z</time>
      </trkpt>
      <trkpt lat="43.131531" lon="-5.763228">
        <ele>1146.011</ele>
        <time>1999-07-21T12:28:50Z</time>
      </trkpt>
      <trkpt lat="43.131598" lon="-5.763169">
        <ele>1147.047</ele>
        <time>1999-07-21T12:28:53Z</time>
      </trkpt>
      <trkpt lat="43.131710" lon="-5.763079">
        <ele>1148.229</ele>
        <time>1999-07-21T12:28:58Z</time>
      </trkpt>
      <trkpt lat="43.131799" lon="-5.762995">
        <ele>1149.621</ele>
        <time>1999-07-21T12:29:02Z</time>
      </trkpt>
      <trkpt lat="43.131836" lon="-5.762936">
        <ele>1149.808</ele>
        <time>1999-07-21T12:29:04Z</time>
      </trkpt>
      <trkpt lat="43.131925" lon="-5.762823">
        <ele>1150.627</ele>
        <time>1999-07-21T12:29:08Z</time>
      </trkpt>
      <trkpt lat="43.132005" lon="-5.762736">
        <ele>1151.082</ele>
        <time>1999-07-21T12:29:11Z</time>
      </trkpt>
      <trkpt lat="43.132251" lon="-5.762487">
        <ele>1151.412</ele>
        <time>1999-07-21T12:29:20Z</time>
      </trkpt>
      <trkpt lat="43.132352" lon="-5.762396">
        <ele>1151.623</ele>
        <time>1999-07-21T12:29:24Z</time>
      </trkpt>
      <trkpt lat="43.132378" lon="-5.762375">
        <ele>1151.821</ele>
        <time>1999-07-21T12:29:25Z</time>
      </trkpt>
      <trkpt lat="43.132480" lon="-5.762297">
        <ele>1152.899</ele>
        <time>1999-07-21T12:29:29Z</time>
      </trkpt>
      <trkpt lat="43.132551" lon="-5.762257">
        <ele>1153.640</ele>
        <time>1999-07-21T12:29:32Z</time>
      </trkpt>
      <trkpt lat="43.132622" lon="-5.762231">
        <ele>1153.846</ele>
        <time>1999-07-21T12:29:35Z</time>
      </trkpt>
      <trkpt lat="43.132668" lon="-5.762237">
        <ele>1154.092</ele>
        <time>1999-07-21T12:29:37Z</time>
      </trkpt>
      <trkpt lat="43.132689" lon="-5.762250">
        <ele>1154.073</ele>
        <time>1999-07-21T12:29:38Z</time>
      </trkpt>
      <trkpt lat="43.132752" lon="-5.762349">
        <ele>1155.020</ele>
        <time>1999-07-21T12:29:42Z</time>
      </trkpt>
      <trkpt lat="43.132759" lon="-5.762381">
        <ele>1155.208</ele>
        <time>1999-07-21T12:29:43Z</time>
      </trkpt>
      <trkpt lat="43.132767" lon="-5.762554">
        <ele>1156.222</ele>
        <time>1999-07-21T12:29:48Z</time>
      </trkpt>
      <trkpt lat="43.132768" lon="-5.762589">
        <ele>1156.257</ele>
        <time>1999-07-21T12:29:49Z</time>
      </trkpt>
      <trkpt lat="43.132802" lon="-5.762732">
        <ele>1157.427</ele>
        <time>1999-07-21T12:29:54Z</time>
      </trkpt>
      <trkpt lat="43.132810" lon="-5.762758">
        <ele>1157.648</ele>
        <time>1999-07-21T12:29:55Z</time>
      </trkpt>
      <trkpt lat="43.132838" lon="-5.762839">
        <ele>1159.066</ele>
        <time>1999-07-21T12:29:58Z</time>
      </trkpt>
      <trkpt lat="43.132889" lon="-5.762922">
        <ele>1160.054</ele>
        <time>1999-07-21T12:30:02Z</time>
      </trkpt>
      <trkpt lat="43.132900" lon="-5.762940">
        <ele>1160.495</ele>
        <time>1999-07-21T12:30:03Z</time>
      </trkpt>
      <trkpt lat="43.132905" lon="-5.762965">
        <ele>1161.031</ele>
        <time>1999-07-21T12:30:06Z</time>
      </trkpt>
      <trkpt lat="43.132954" lon="-5.763015">
        <ele>1162.282</ele>
        <time>1999-07-21T12:32:50Z</time>
      </trkpt>
      <trkpt lat="43.132965" lon="-5.763037">
        <ele>1162.443</ele>
        <time>1999-07-21T12:32:51Z</time>
      </trkpt>
      <trkpt lat="43.133044" lon="-5.763141">
        <ele>1162.817</ele>
        <time>1999-07-21T12:32:57Z</time>
      </trkpt>
      <trkpt lat="43.133079" lon="-5.763192">
        <ele>1163.208</ele>
        <time>1999-07-21T12:33:00Z</time>
      </trkpt>
      <trkpt lat="43.133098" lon="-5.763236">
        <ele>1163.821</ele>
        <time>1999-07-21T12:33:02Z</time>
      </trkpt>
      <trkpt lat="43.133101" lon="-5.763259">
        <ele>1164.016</ele>
        <time>1999-07-21T12:33:03Z</time>
      </trkpt>
      <trkpt lat="43.133096" lon="-5.763305">
        <ele>1164.656</ele>
        <time>1999-07-21T12:33:05Z</time>
      </trkpt>
      <trkpt lat="43.133086" lon="-5.763325">
        <ele>1164.897</ele>
        <time>1999-07-21T12:33:06Z</time>
      </trkpt>
      <trkpt lat="43.133055" lon="-5.763344">
        <ele>1165.215</ele>
        <time>1999-07-21T12:33:08Z</time>
      </trkpt>
      <trkpt lat="43.133037" lon="-5.763350">
        <ele>1165.883</ele>
        <time>1999-07-21T12:33:09Z</time>
      </trkpt>
      <trkpt lat="43.133001" lon="-5.763359">
        <ele>1166.444</ele>
        <time>1999-07-21T12:33:11Z</time>
      </trkpt>
      <trkpt lat="43.132959" lon="-5.763365">
        <ele>1167.090</ele>
        <time>1999-07-21T12:33:13Z</time>
      </trkpt>
      <trkpt lat="43.132937" lon="-5.763363">
        <ele>1167.463</ele>
        <time>1999-07-21T12:33:14Z</time>
      </trkpt>
      <trkpt lat="43.132920" lon="-5.763354">
        <ele>1167.644</ele>
        <time>1999-07-21T12:33:15Z</time>
      </trkpt>
      <trkpt lat="43.132884" lon="-5.763335">
        <ele>1168.218</ele>
        <time>1999-07-21T12:33:17Z</time>
      </trkpt>
      <trkpt lat="43.132789" lon="-5.763301">
        <ele>1169.208</ele>
        <time>1999-07-21T12:33:22Z</time>
      </trkpt>
      <trkpt lat="43.132770" lon="-5.763296">
        <ele>1169.429</ele>
        <time>1999-07-21T12:33:23Z</time>
      </trkpt>
      <trkpt lat="43.132697" lon="-5.763279">
        <ele>1170.444</ele>
        <time>1999-07-21T12:33:27Z</time>
      </trkpt>
      <trkpt lat="43.132629" lon="-5.763271">
        <ele>1171.444</ele>
        <time>1999-07-21T12:33:31Z</time>
      </trkpt>
      <trkpt lat="43.132612" lon="-5.763271">
        <ele>1171.815</ele>
        <time>1999-07-21T12:33:32Z</time>
      </trkpt>
      <trkpt lat="43.132561" lon="-5.763264">
        <ele>1172.693</ele>
        <time>1999-07-21T12:33:35Z</time>
      </trkpt>
      <trkpt lat="43.132517" lon="-5.763279">
        <ele>1174.041</ele>
        <time>1999-07-21T12:33:38Z</time>
      </trkpt>
      <trkpt lat="43.132504" lon="-5.763292">
        <ele>1174.212</ele>
        <time>1999-07-21T12:33:39Z</time>
      </trkpt>
      <trkpt lat="43.132487" lon="-5.763329">
        <ele>1174.888</ele>
        <time>1999-07-21T12:33:41Z</time>
      </trkpt>
      <trkpt lat="43.132485" lon="-5.763352">
        <ele>1175.096</ele>
        <time>1999-07-21T12:33:42Z</time>
      </trkpt>
      <trkpt lat="43.132480" lon="-5.763403">
        <ele>1175.431</ele>
        <time>1999-07-21T12:33:44Z</time>
      </trkpt>
      <trkpt lat="43.132485" lon="-5.763454">
        <ele>1175.824</ele>
        <time>1999-07-21T12:33:46Z</time>
      </trkpt>
      <trkpt lat="43.132489" lon="-5.763479">
        <ele>1176.008</ele>
        <time>1999-07-21T12:33:47Z</time>
      </trkpt>
      <trkpt lat="43.132506" lon="-5.763570">
        <ele>1176.622</ele>
        <time>1999-07-21T12:33:51Z</time>
      </trkpt>
      <trkpt lat="43.132539" lon="-5.763675">
        <ele>1177.227</ele>
        <time>1999-07-21T12:33:56Z</time>
      </trkpt>
      <trkpt lat="43.132559" lon="-5.763732">
        <ele>1178.037</ele>
        <time>1999-07-21T12:33:59Z</time>
      </trkpt>
      <trkpt lat="43.132594" lon="-5.763792">
        <ele>1178.668</ele>
        <time>1999-07-21T12:34:02Z</time>
      </trkpt>
      <trkpt lat="43.132615" lon="-5.763832">
        <ele>1179.656</ele>
        <time>1999-07-21T12:34:04Z</time>
      </trkpt>
      <trkpt lat="43.132636" lon="-5.763869">
        <ele>1180.034</ele>
        <time>1999-07-21T12:34:06Z</time>
      </trkpt>
      <trkpt lat="43.132677" lon="-5.763917">
        <ele>1180.815</ele>
        <time>1999-07-21T12:34:09Z</time>
      </trkpt>
      <trkpt lat="43.132726" lon="-5.763941">
        <ele>1181.451</ele>
        <time>1999-07-21T12:34:12Z</time>
      </trkpt>
      <trkpt lat="43.132757" lon="-5.763963">
        <ele>1182.045</ele>
        <time>1999-07-21T12:34:14Z</time>
      </trkpt>
      <trkpt lat="43.132861" lon="-5.764015">
        <ele>1183.047</ele>
        <time>1999-07-21T12:34:20Z</time>
      </trkpt>
      <trkpt lat="43.132935" lon="-5.764036">
        <ele>1184.211</ele>
        <time>1999-07-21T12:34:24Z</time>
      </trkpt>
      <trkpt lat="43.133005" lon="-5.764045">
        <ele>1185.008</ele>
        <time>1999-07-21T12:34:28Z</time>
      </trkpt>
      <trkpt lat="43.133023" lon="-5.764047">
        <ele>1185.277</ele>
        <time>1999-07-21T12:34:29Z</time>
      </trkpt>
      <trkpt lat="43.133110" lon="-5.764029">
        <ele>1186.482</ele>
        <time>1999-07-21T12:34:34Z</time>
      </trkpt>
      <trkpt lat="43.133127" lon="-5.764025">
        <ele>1186.872</ele>
        <time>1999-07-21T12:34:35Z</time>
      </trkpt>
      <trkpt lat="43.133180" lon="-5.764013">
        <ele>1187.453</ele>
        <time>1999-07-21T12:34:38Z</time>
      </trkpt>
      <trkpt lat="43.133244" lon="-5.764004">
        <ele>1188.411</ele>
        <time>1999-07-21T12:34:42Z</time>
      </trkpt>
      <trkpt lat="43.133334" lon="-5.763989">
        <ele>1189.829</ele>
        <time>1999-07-21T12:34:47Z</time>
      </trkpt>
      <trkpt lat="43.133411" lon="-5.763981">
        <ele>1190.830</ele>
        <time>1999-07-21T12:34:51Z</time>
      </trkpt>
      <trkpt lat="43.133430" lon="-5.763977">
        <ele>1191.056</ele>
        <time>1999-07-21T12:34:52Z</time>
      </trkpt>
      <trkpt lat="43.133524" lon="-5.763981">
        <ele>1192.037</ele>
        <time>1999-07-21T12:34:57Z</time>
      </trkpt>
      <trkpt lat="43.133579" lon="-5.763982">
        <ele>1192.649</ele>
        <time>1999-07-21T12:35:00Z</time>
      </trkpt>
      <trkpt lat="43.133594" lon="-5.763975">
        <ele>1192.813</ele>
        <time>1999-07-21T12:35:01Z</time>
      </trkpt>
      <trkpt lat="43.133607" lon="-5.763960">
        <ele>1193.208</ele>
        <time>1999-07-21T12:35:02Z</time>
      </trkpt>
      <trkpt lat="43.133655" lon="-5.763931">
        <ele>1193.656</ele>
        <time>1999-07-21T12:35:05Z</time>
      </trkpt>
      <trkpt lat="43.133689" lon="-5.763929">
        <ele>1194.231</ele>
        <time>1999-07-21T12:35:07Z</time>
      </trkpt>
      <trkpt lat="43.133792" lon="-5.763908">
        <ele>1195.291</ele>
        <time>1999-07-21T12:35:13Z</time>
      </trkpt>
      <trkpt lat="43.133810" lon="-5.763903">
        <ele>1195.442</ele>
        <time>1999-07-21T12:35:14Z</time>
      </trkpt>
      <trkpt lat="43.133939" lon="-5.763880">
        <ele>1196.460</ele>
        <time>1999-07-21T12:35:21Z</time>
      </trkpt>
      <trkpt lat="43.133979" lon="-5.763876">
        <ele>1196.888</ele>
        <time>1999-07-21T12:35:23Z</time>
      </trkpt>
      <trkpt lat="43.134034" lon="-5.763864">
        <ele>1197.639</ele>
        <time>1999-07-21T12:35:26Z</time>
      </trkpt>
      <trkpt lat="43.134119" lon="-5.763842">
        <ele>1198.485</ele>
        <time>1999-07-21T12:35:31Z</time>
      </trkpt>
      <trkpt lat="43.134153" lon="-5.763838">
        <ele>1198.824</ele>
        <time>1999-07-21T12:35:33Z</time>
      </trkpt>
      <trkpt lat="43.134256" lon="-5.763819">
        <ele>1199.804</ele>
        <time>1999-07-21T12:35:39Z</time>
      </trkpt>
      <trkpt lat="43.134345" lon="-5.763809">
        <ele>1200.814</ele>
        <time>1999-07-21T12:35:44Z</time>
      </trkpt>
      <trkpt lat="43.134403" lon="-5.763799">
        <ele>1201.408</ele>
        <time>1999-07-21T12:35:47Z</time>
      </trkpt>
      <trkpt lat="43.134440" lon="-5.763798">
        <ele>1202.055</ele>
        <time>1999-07-21T12:35:49Z</time>
      </trkpt>
      <trkpt lat="43.134525" lon="-5.763809">
        <ele>1203.060</ele>
        <time>1999-07-21T12:35:54Z</time>
      </trkpt>
      <trkpt lat="43.134555" lon="-5.763833">
        <ele>1203.620</ele>
        <time>1999-07-21T12:35:56Z</time>
      </trkpt>
      <trkpt lat="43.134593" lon="-5.763894">
        <ele>1204.221</ele>
        <time>1999-07-21T12:35:59Z</time>
      </trkpt>
      <trkpt lat="43.134608" lon="-5.763971">
        <ele>1204.699</ele>
        <time>1999-07-21T12:36:02Z</time>
      </trkpt>
      <trkpt lat="43.134620" lon="-5.764060">
        <ele>1205.497</ele>
        <time>1999-07-21T12:36:06Z</time>
      </trkpt>
      <trkpt lat="43.134638" lon="-5.764145">
        <ele>1205.838</ele>
        <time>1999-07-21T12:36:10Z</time>
      </trkpt>
      <trkpt lat="43.134655" lon="-5.764224">
        <ele>1206.424</ele>
        <time>1999-07-21T12:36:14Z</time>
      </trkpt>
      <trkpt lat="43.134669" lon="-5.764283">
        <ele>1207.217</ele>
        <time>1999-07-21T12:36:17Z</time>
      </trkpt>
      <trkpt lat="43.134674" lon="-5.764329">
        <ele>1207.487</ele>
        <time>1999-07-21T12:36:19Z</time>
      </trkpt>
      <trkpt lat="43.134692" lon="-5.764502">
        <ele>1208.815</ele>
        <time>1999-07-21T12:36:26Z</time>
      </trkpt>
      <trkpt lat="43.134706" lon="-5.764649">
        <ele>1209.808</ele>
        <time>1999-07-21T12:36:32Z</time>
      </trkpt>
      <trkpt lat="43.134723" lon="-5.764720">
        <ele>1210.484</ele>
        <time>1999-07-21T12:36:35Z</time>
      </trkpt>
      <trkpt lat="43.134742" lon="-5.764758">
        <ele>1211.059</ele>
        <time>1999-07-21T12:36:37Z</time>
      </trkpt>
      <trkpt lat="43.134754" lon="-5.764769">
        <ele>1211.099</ele>
        <time>1999-07-21T12:36:38Z</time>
      </trkpt>
      <trkpt lat="43.134787" lon="-5.764778">
        <ele>1211.650</ele>
        <time>1999-07-21T12:36:40Z</time>
      </trkpt>
      <trkpt lat="43.134805" lon="-5.764783">
        <ele>1212.018</ele>
        <time>1999-07-21T12:36:41Z</time>
      </trkpt>
      <trkpt lat="43.134898" lon="-5.764783">
        <ele>1213.276</ele>
        <time>1999-07-21T12:36:46Z</time>
      </trkpt>
      <trkpt lat="43.134933" lon="-5.764779">
        <ele>1213.647</ele>
        <time>1999-07-21T12:36:48Z</time>
      </trkpt>
      <trkpt lat="43.135001" lon="-5.764782">
        <ele>1214.463</ele>
        <time>1999-07-21T12:36:51Z</time>
      </trkpt>
      <trkpt lat="43.135086" lon="-5.764776">
        <ele>1215.224</ele>
        <time>1999-07-21T12:36:55Z</time>
      </trkpt>
      <trkpt lat="43.135106" lon="-5.764776">
        <ele>1215.404</ele>
        <time>1999-07-21T12:36:56Z</time>
      </trkpt>
      <trkpt lat="43.135232" lon="-5.764755">
        <ele>1216.414</ele>
        <time>1999-07-21T12:37:03Z</time>
      </trkpt>
      <trkpt lat="43.135249" lon="-5.764753">
        <ele>1216.608</ele>
        <time>1999-07-21T12:37:04Z</time>
      </trkpt>
      <trkpt lat="43.135368" lon="-5.764728">
        <ele>1217.635</ele>
        <time>1999-07-21T12:37:11Z</time>
      </trkpt>
      <trkpt lat="43.135418" lon="-5.764718">
        <ele>1219.080</ele>
        <time>1999-07-21T12:37:14Z</time>
      </trkpt>
      <trkpt lat="43.135504" lon="-5.764707">
        <ele>1220.050</ele>
        <time>1999-07-21T12:37:19Z</time>
      </trkpt>
      <trkpt lat="43.135537" lon="-5.764699">
        <ele>1220.491</ele>
        <time>1999-07-21T12:37:21Z</time>
      </trkpt>
      <trkpt lat="43.135586" lon="-5.764677">
        <ele>1221.289</ele>
        <time>1999-07-21T12:37:24Z</time>
      </trkpt>
      <trkpt lat="43.135666" lon="-5.764642">
        <ele>1222.297</ele>
        <time>1999-07-21T12:37:29Z</time>
      </trkpt>
      <trkpt lat="43.135766" lon="-5.764627">
        <ele>1223.488</ele>
        <time>1999-07-21T12:37:35Z</time>
      </trkpt>
      <trkpt lat="43.135782" lon="-5.764627">
        <ele>1223.454</ele>
        <time>1999-07-21T12:37:36Z</time>
      </trkpt>
      <trkpt lat="43.135857" lon="-5.764635">
        <ele>1224.467</ele>
        <time>1999-07-21T12:37:41Z</time>
      </trkpt>
      <trkpt lat="43.135909" lon="-5.764658">
        <ele>1225.081</ele>
        <time>1999-07-21T12:37:45Z</time>
      </trkpt>
      <trkpt lat="43.135951" lon="-5.764674">
        <ele>1225.619</ele>
        <time>1999-07-21T12:37:48Z</time>
      </trkpt>
      <trkpt lat="43.136022" lon="-5.764700">
        <ele>1226.808</ele>
        <time>1999-07-21T12:37:53Z</time>
      </trkpt>
      <trkpt lat="43.136062" lon="-5.764723">
        <ele>1227.479</ele>
        <time>1999-07-21T12:37:56Z</time>
      </trkpt>
      <trkpt lat="43.136086" lon="-5.764741">
        <ele>1227.864</ele>
        <time>1999-07-21T12:37:58Z</time>
      </trkpt>
      <trkpt lat="43.136160" lon="-5.764793">
        <ele>1229.084</ele>
        <time>1999-07-21T12:38:04Z</time>
      </trkpt>
      <trkpt lat="43.136188" lon="-5.764809">
        <ele>1229.485</ele>
        <time>1999-07-21T12:38:06Z</time>
      </trkpt>
      <trkpt lat="43.136230" lon="-5.764836">
        <ele>1230.233</ele>
        <time>1999-07-21T12:38:09Z</time>
      </trkpt>
      <trkpt lat="43.136301" lon="-5.764873">
        <ele>1231.421</ele>
        <time>1999-07-21T12:38:14Z</time>
      </trkpt>
      <trkpt lat="43.136369" lon="-5.764914">
        <ele>1232.482</ele>
        <time>1999-07-21T12:38:19Z</time>
      </trkpt>
      <trkpt lat="43.136411" lon="-5.764936">
        <ele>1232.888</ele>
        <time>1999-07-21T12:38:22Z</time>
      </trkpt>
      <trkpt lat="43.136464" lon="-5.764966">
        <ele>1233.431</ele>
        <time>1999-07-21T12:38:26Z</time>
      </trkpt>
      <trkpt lat="43.136505" lon="-5.764992">
        <ele>1234.461</ele>
        <time>1999-07-21T12:38:29Z</time>
      </trkpt>
      <trkpt lat="43.136519" lon="-5.764998">
        <ele>1234.607</ele>
        <time>1999-07-21T12:38:30Z</time>
      </trkpt>
      <trkpt lat="43.136599" lon="-5.765045">
        <ele>1235.808</ele>
        <time>1999-07-21T12:38:36Z</time>
      </trkpt>
      <trkpt lat="43.136612" lon="-5.765053">
        <ele>1236.046</ele>
        <time>1999-07-21T12:38:37Z</time>
      </trkpt>
      <trkpt lat="43.136667" lon="-5.765089">
        <ele>1236.841</ele>
        <time>1999-07-21T12:38:41Z</time>
      </trkpt>
      <trkpt lat="43.136728" lon="-5.765120">
        <ele>1237.651</ele>
        <time>1999-07-21T12:38:45Z</time>
      </trkpt>
      <trkpt lat="43.136761" lon="-5.765136">
        <ele>1238.232</ele>
        <time>1999-07-21T12:38:47Z</time>
      </trkpt>
      <trkpt lat="43.136849" lon="-5.765162">
        <ele>1239.450</ele>
        <time>1999-07-21T12:38:52Z</time>
      </trkpt>
      <trkpt lat="43.136914" lon="-5.765173">
        <ele>1240.428</ele>
        <time>1999-07-21T12:38:56Z</time>
      </trkpt>
      <trkpt lat="43.137000" lon="-5.765178">
        <ele>1241.699</ele>
        <time>1999-07-21T12:39:01Z</time>
      </trkpt>
      <trkpt lat="43.137034" lon="-5.765173">
        <ele>1242.245</ele>
        <time>1999-07-21T12:39:03Z</time>
      </trkpt>
      <trkpt lat="43.137069" lon="-5.765171">
        <ele>1242.899</ele>
        <time>1999-07-21T12:39:05Z</time>
      </trkpt>
      <trkpt lat="43.137173" lon="-5.765160">
        <ele>1243.807</ele>
        <time>1999-07-21T12:39:11Z</time>
      </trkpt>
      <trkpt lat="43.137190" lon="-5.765156">
        <ele>1244.227</ele>
        <time>1999-07-21T12:39:12Z</time>
      </trkpt>
      <trkpt lat="43.137224" lon="-5.765151">
        <ele>1244.808</ele>
        <time>1999-07-21T12:39:14Z</time>
      </trkpt>
      <trkpt lat="43.137309" lon="-5.765147">
        <ele>1246.072</ele>
        <time>1999-07-21T12:39:19Z</time>
      </trkpt>
      <trkpt lat="43.137324" lon="-5.765147">
        <ele>1246.447</ele>
        <time>1999-07-21T12:39:20Z</time>
      </trkpt>
      <trkpt lat="43.137359" lon="-5.765149">
        <ele>1247.047</ele>
        <time>1999-07-21T12:39:22Z</time>
      </trkpt>
      <trkpt lat="43.137379" lon="-5.765150">
        <ele>1247.298</ele>
        <time>1999-07-21T12:39:23Z</time>
      </trkpt>
      <trkpt lat="43.137448" lon="-5.765137">
        <ele>1247.826</ele>
        <time>1999-07-21T12:39:27Z</time>
      </trkpt>
      <trkpt lat="43.137480" lon="-5.765134">
        <ele>1248.254</ele>
        <time>1999-07-21T12:39:29Z</time>
      </trkpt>
      <trkpt lat="43.137530" lon="-5.765129">
        <ele>1249.275</ele>
        <time>1999-07-21T12:39:32Z</time>
      </trkpt>
      <trkpt lat="43.137600" lon="-5.765123">
        <ele>1250.031</ele>
        <time>1999-07-21T12:39:36Z</time>
      </trkpt>
      <trkpt lat="43.137634" lon="-5.765121">
        <ele>1250.473</ele>
        <time>1999-07-21T12:39:38Z</time>
      </trkpt>
      <trkpt lat="43.137720" lon="-5.765120">
        <ele>1251.485</ele>
        <time>1999-07-21T12:39:43Z</time>
      </trkpt>
      <trkpt lat="43.137757" lon="-5.765116">
        <ele>1251.813</ele>
        <time>1999-07-21T12:39:45Z</time>
      </trkpt>
      <trkpt lat="43.137807" lon="-5.765100">
        <ele>1252.408</ele>
        <time>1999-07-21T12:39:48Z</time>
      </trkpt>
      <trkpt lat="43.137892" lon="-5.765088">
        <ele>1253.480</ele>
        <time>1999-07-21T12:39:53Z</time>
      </trkpt>
      <trkpt lat="43.137910" lon="-5.765084">
        <ele>1253.825</ele>
        <time>1999-07-21T12:39:54Z</time>
      </trkpt>
      <trkpt lat="43.137983" lon="-5.765066">
        <ele>1255.215</ele>
        <time>1999-07-21T12:39:58Z</time>
      </trkpt>
      <trkpt lat="43.138034" lon="-5.765045">
        <ele>1256.066</ele>
        <time>1999-07-21T12:40:01Z</time>
      </trkpt>
      <trkpt lat="43.138068" lon="-5.765034">
        <ele>1256.274</ele>
        <time>1999-07-21T12:40:03Z</time>
      </trkpt>
      <trkpt lat="43.138166" lon="-5.764991">
        <ele>1256.872</ele>
        <time>1999-07-21T12:40:08Z</time>
      </trkpt>
      <trkpt lat="43.138225" lon="-5.764963">
        <ele>1257.253</ele>
        <time>1999-07-21T12:40:11Z</time>
      </trkpt>
      <trkpt lat="43.138308" lon="-5.764914">
        <ele>1258.269</ele>
        <time>1999-07-21T12:40:16Z</time>
      </trkpt>
      <trkpt lat="43.138322" lon="-5.764901">
        <ele>1258.663</ele>
        <time>1999-07-21T12:40:17Z</time>
      </trkpt>
      <trkpt lat="43.138411" lon="-5.764820">
        <ele>1259.644</ele>
        <time>1999-07-21T12:40:23Z</time>
      </trkpt>
      <trkpt lat="43.138444" lon="-5.764794">
        <ele>1260.218</ele>
        <time>1999-07-21T12:40:25Z</time>
      </trkpt>
      <trkpt lat="43.138481" lon="-5.764770">
        <ele>1260.608</ele>
        <time>1999-07-21T12:40:27Z</time>
      </trkpt>
      <trkpt lat="43.138562" lon="-5.764740">
        <ele>1261.679</ele>
        <time>1999-07-21T12:40:31Z</time>
      </trkpt>
      <trkpt lat="43.138582" lon="-5.764735">
        <ele>1262.064</ele>
        <time>1999-07-21T12:40:32Z</time>
      </trkpt>
      <trkpt lat="43.138662" lon="-5.764692">
        <ele>1262.834</ele>
        <time>1999-07-21T12:40:36Z</time>
      </trkpt>
      <trkpt lat="43.138721" lon="-5.764659">
        <ele>1263.055</ele>
        <time>1999-07-21T12:40:39Z</time>
      </trkpt>
      <trkpt lat="43.138834" lon="-5.764593">
        <ele>1263.873</ele>
        <time>1999-07-21T12:40:45Z</time>
      </trkpt>
      <trkpt lat="43.138853" lon="-5.764582">
        <ele>1263.821</ele>
        <time>1999-07-21T12:40:46Z</time>
      </trkpt>
      <trkpt lat="43.139006" lon="-5.764512">
        <ele>1265.032</ele>
        <time>1999-07-21T12:40:54Z</time>
      </trkpt>
      <trkpt lat="43.139063" lon="-5.764508">
        <ele>1265.438</ele>
        <time>1999-07-21T12:40:57Z</time>
      </trkpt>
      <trkpt lat="43.139104" lon="-5.764550">
        <ele>1265.864</ele>
        <time>1999-07-21T12:40:59Z</time>
      </trkpt>
      <trkpt lat="43.139140" lon="-5.764594">
        <ele>1266.206</ele>
        <time>1999-07-21T12:41:01Z</time>
      </trkpt>
      <trkpt lat="43.139190" lon="-5.764698">
        <ele>1267.016</ele>
        <time>1999-07-21T12:41:05Z</time>
      </trkpt>
      <trkpt lat="43.139196" lon="-5.764807">
        <ele>1267.008</ele>
        <time>1999-07-21T12:41:08Z</time>
      </trkpt>
      <trkpt lat="43.139201" lon="-5.764926">
        <ele>1267.059</ele>
        <time>1999-07-21T12:41:11Z</time>
      </trkpt>
      <trkpt lat="43.139179" lon="-5.765104">
        <ele>1267.014</ele>
        <time>1999-07-21T12:41:15Z</time>
      </trkpt>
      <trkpt lat="43.139151" lon="-5.765239">
        <ele>1266.884</ele>
        <time>1999-07-21T12:41:18Z</time>
      </trkpt>
      <trkpt lat="43.139138" lon="-5.765290">
        <ele>1266.845</ele>
        <time>1999-07-21T12:41:19Z</time>
      </trkpt>
      <trkpt lat="43.139120" lon="-5.765399">
        <ele>1266.493</ele>
        <time>1999-07-21T12:41:21Z</time>
      </trkpt>
      <trkpt lat="43.139106" lon="-5.765519">
        <ele>1266.251</ele>
        <time>1999-07-21T12:41:23Z</time>
      </trkpt>
      <trkpt lat="43.139086" lon="-5.765794">
        <ele>1265.612</ele>
        <time>1999-07-21T12:41:27Z</time>
      </trkpt>
      <trkpt lat="43.139078" lon="-5.765958">
        <ele>1265.458</ele>
        <time>1999-07-21T12:41:29Z</time>
      </trkpt>
      <trkpt lat="43.139075" lon="-5.766043">
        <ele>1265.067</ele>
        <time>1999-07-21T12:41:30Z</time>
      </trkpt>
      <trkpt lat="43.139058" lon="-5.766379">
        <ele>1264.481</ele>
        <time>1999-07-21T12:41:34Z</time>
      </trkpt>
      <trkpt lat="43.139062" lon="-5.766571">
        <ele>1263.819</ele>
        <time>1999-07-21T12:41:36Z</time>
      </trkpt>
      <trkpt lat="43.139095" lon="-5.766867">
        <ele>1263.008</ele>
        <time>1999-07-21T12:41:39Z</time>
      </trkpt>
      <trkpt lat="43.139097" lon="-5.766988">
        <ele>1262.819</ele>
        <time>1999-07-21T12:41:40Z</time>
      </trkpt>
      <trkpt lat="43.139084" lon="-5.767245">
        <ele>1261.854</ele>
        <time>1999-07-21T12:41:42Z</time>
      </trkpt>
      <trkpt lat="43.139088" lon="-5.767486">
        <ele>1261.024</ele>
        <time>1999-07-21T12:41:44Z</time>
      </trkpt>
      <trkpt lat="43.139089" lon="-5.767611">
        <ele>1261.065</ele>
        <time>1999-07-21T12:41:45Z</time>
      </trkpt>
      <trkpt lat="43.139087" lon="-5.767737">
        <ele>1260.693</ele>
        <time>1999-07-21T12:41:46Z</time>
      </trkpt>
      <trkpt lat="43.139101" lon="-5.767987">
        <ele>1259.271</ele>
        <time>1999-07-21T12:41:48Z</time>
      </trkpt>
      <trkpt lat="43.139106" lon="-5.768244">
        <ele>1258.232</ele>
        <time>1999-07-21T12:41:50Z</time>
      </trkpt>
      <trkpt lat="43.139109" lon="-5.768365">
        <ele>1257.668</ele>
        <time>1999-07-21T12:41:51Z</time>
      </trkpt>
      <trkpt lat="43.139109" lon="-5.768495">
        <ele>1257.085</ele>
        <time>1999-07-21T12:41:52Z</time>
      </trkpt>
      <trkpt lat="43.139110" lon="-5.768883">
        <ele>1256.089</ele>
        <time>1999-07-21T12:41:55Z</time>
      </trkpt>
      <trkpt lat="43.139111" lon="-5.769128">
        <ele>1255.017</ele>
        <time>1999-07-21T12:41:57Z</time>
      </trkpt>
      <trkpt lat="43.139129" lon="-5.769357">
        <ele>1253.408</ele>
        <time>1999-07-21T12:41:59Z</time>
      </trkpt>
      <trkpt lat="43.139159" lon="-5.769560">
        <ele>1252.461</ele>
        <time>1999-07-21T12:42:01Z</time>
      </trkpt>
      <trkpt lat="43.139192" lon="-5.769643">
        <ele>1252.046</ele>
        <time>1999-07-21T12:42:02Z</time>
      </trkpt>
      <trkpt lat="43.139265" lon="-5.769785">
        <ele>1251.656</ele>
        <time>1999-07-21T12:42:04Z</time>
      </trkpt>
      <trkpt lat="43.139328" lon="-5.769875">
        <ele>1251.447</ele>
        <time>1999-07-21T12:42:06Z</time>
      </trkpt>
      <trkpt lat="43.139422" lon="-5.769968">
        <ele>1251.475</ele>
        <time>1999-07-21T12:42:09Z</time>
      </trkpt>
      <trkpt lat="43.139507" lon="-5.770053">
        <ele>1251.633</ele>
        <time>1999-07-21T12:42:12Z</time>
      </trkpt>
      <trkpt lat="43.139601" lon="-5.770132">
        <ele>1252.074</ele>
        <time>1999-07-21T12:42:15Z</time>
      </trkpt>
      <trkpt lat="43.139704" lon="-5.770231">
        <ele>1253.040</ele>
        <time>1999-07-21T12:42:18Z</time>
      </trkpt>
      <trkpt lat="43.139767" lon="-5.770313">
        <ele>1253.491</ele>
        <time>1999-07-21T12:42:20Z</time>
      </trkpt>
      <trkpt lat="43.139824" lon="-5.770467">
        <ele>1253.881</ele>
        <time>1999-07-21T12:42:23Z</time>
      </trkpt>
      <trkpt lat="43.139862" lon="-5.770573">
        <ele>1253.819</ele>
        <time>1999-07-21T12:42:25Z</time>
      </trkpt>
      <trkpt lat="43.139902" lon="-5.770720">
        <ele>1253.808</ele>
        <time>1999-07-21T12:42:28Z</time>
      </trkpt>
      <trkpt lat="43.139940" lon="-5.770900">
        <ele>1253.832</ele>
        <time>1999-07-21T12:42:31Z</time>
      </trkpt>
      <trkpt lat="43.139953" lon="-5.770968">
        <ele>1253.847</ele>
        <time>1999-07-21T12:42:32Z</time>
      </trkpt>
      <trkpt lat="43.139950" lon="-5.771043">
        <ele>1253.847</ele>
        <time>1999-07-21T12:42:33Z</time>
      </trkpt>
      <trkpt lat="43.139947" lon="-5.771359">
        <ele>1253.498</ele>
        <time>1999-07-21T12:42:37Z</time>
      </trkpt>
      <trkpt lat="43.139926" lon="-5.771676">
        <ele>1253.246</ele>
        <time>1999-07-21T12:42:40Z</time>
      </trkpt>
      <trkpt lat="43.139931" lon="-5.771789">
        <ele>1253.024</ele>
        <time>1999-07-21T12:42:41Z</time>
      </trkpt>
      <trkpt lat="43.139958" lon="-5.772025">
        <ele>1252.685</ele>
        <time>1999-07-21T12:42:43Z</time>
      </trkpt>
      <trkpt lat="43.139997" lon="-5.772139">
        <ele>1252.031</ele>
        <time>1999-07-21T12:42:44Z</time>
      </trkpt>
      <trkpt lat="43.140059" lon="-5.772241">
        <ele>1251.426</ele>
        <time>1999-07-21T12:42:45Z</time>
      </trkpt>
      <trkpt lat="43.140131" lon="-5.772334">
        <ele>1250.647</ele>
        <time>1999-07-21T12:42:46Z</time>
      </trkpt>
      <trkpt lat="43.140198" lon="-5.772426">
        <ele>1250.211</ele>
        <time>1999-07-21T12:42:47Z</time>
      </trkpt>
      <trkpt lat="43.140263" lon="-5.772512">
        <ele>1249.608</ele>
        <time>1999-07-21T12:42:48Z</time>
      </trkpt>
      <trkpt lat="43.140335" lon="-5.772588">
        <ele>1249.075</ele>
        <time>1999-07-21T12:42:49Z</time>
      </trkpt>
      <trkpt lat="43.140403" lon="-5.772662">
        <ele>1247.820</ele>
        <time>1999-07-21T12:42:50Z</time>
      </trkpt>
      <trkpt lat="43.140524" lon="-5.772804">
        <ele>1245.810</ele>
        <time>1999-07-21T12:42:52Z</time>
      </trkpt>
      <trkpt lat="43.140574" lon="-5.772890">
        <ele>1244.871</ele>
        <time>1999-07-21T12:42:53Z</time>
      </trkpt>
      <trkpt lat="43.140628" lon="-5.772980">
        <ele>1243.669</ele>
        <time>1999-07-21T12:42:54Z</time>
      </trkpt>
      <trkpt lat="43.140773" lon="-5.773106">
        <ele>1241.447</ele>
        <time>1999-07-21T12:42:56Z</time>
      </trkpt>
      <trkpt lat="43.140861" lon="-5.773129">
        <ele>1240.088</ele>
        <time>1999-07-21T12:42:57Z</time>
      </trkpt>
      <trkpt lat="43.140966" lon="-5.773123">
        <ele>1238.854</ele>
        <time>1999-07-21T12:42:58Z</time>
      </trkpt>
      <trkpt lat="43.141069" lon="-5.773092">
        <ele>1237.851</ele>
        <time>1999-07-21T12:42:59Z</time>
      </trkpt>
      <trkpt lat="43.141165" lon="-5.773045">
        <ele>1236.401</ele>
        <time>1999-07-21T12:43:00Z</time>
      </trkpt>
      <trkpt lat="43.141238" lon="-5.773015">
        <ele>1235.411</ele>
        <time>1999-07-21T12:43:01Z</time>
      </trkpt>
      <trkpt lat="43.141397" lon="-5.772944">
        <ele>1234.008</ele>
        <time>1999-07-21T12:43:03Z</time>
      </trkpt>
      <trkpt lat="43.141553" lon="-5.772893">
        <ele>1232.648</ele>
        <time>1999-07-21T12:43:05Z</time>
      </trkpt>
      <trkpt lat="43.141615" lon="-5.772883">
        <ele>1231.673</ele>
        <time>1999-07-21T12:43:06Z</time>
      </trkpt>
      <trkpt lat="43.141676" lon="-5.772881">
        <ele>1230.063</ele>
        <time>1999-07-21T12:43:07Z</time>
      </trkpt>
      <trkpt lat="43.141742" lon="-5.772877">
        <ele>1229.094</ele>
        <time>1999-07-21T12:43:08Z</time>
      </trkpt>
      <trkpt lat="43.141870" lon="-5.772870">
        <ele>1227.082</ele>
        <time>1999-07-21T12:43:10Z</time>
      </trkpt>
      <trkpt lat="43.141925" lon="-5.772873">
        <ele>1226.010</ele>
        <time>1999-07-21T12:43:11Z</time>
      </trkpt>
      <trkpt lat="43.141976" lon="-5.772880">
        <ele>1224.081</ele>
        <time>1999-07-21T12:43:12Z</time>
      </trkpt>
      <trkpt lat="43.142027" lon="-5.772902">
        <ele>1222.477</ele>
        <time>1999-07-21T12:43:13Z</time>
      </trkpt>
      <trkpt lat="43.142083" lon="-5.772941">
        <ele>1221.492</ele>
        <time>1999-07-21T12:43:14Z</time>
      </trkpt>
      <trkpt lat="43.142148" lon="-5.772992">
        <ele>1220.473</ele>
        <time>1999-07-21T12:43:15Z</time>
      </trkpt>
      <trkpt lat="43.142211" lon="-5.773064">
        <ele>1219.820</ele>
        <time>1999-07-21T12:43:16Z</time>
      </trkpt>
      <trkpt lat="43.142312" lon="-5.773245">
        <ele>1217.808</ele>
        <time>1999-07-21T12:43:18Z</time>
      </trkpt>
      <trkpt lat="43.142347" lon="-5.773332">
        <ele>1216.852</ele>
        <time>1999-07-21T12:43:19Z</time>
      </trkpt>
      <trkpt lat="43.142366" lon="-5.773421">
        <ele>1215.637</ele>
        <time>1999-07-21T12:43:20Z</time>
      </trkpt>
      <trkpt lat="43.142389" lon="-5.773511">
        <ele>1214.697</ele>
        <time>1999-07-21T12:43:21Z</time>
      </trkpt>
      <trkpt lat="43.142420" lon="-5.773600">
        <ele>1214.038</ele>
        <time>1999-07-21T12:43:22Z</time>
      </trkpt>
      <trkpt lat="43.142520" lon="-5.773760">
        <ele>1212.466</ele>
        <time>1999-07-21T12:43:24Z</time>
      </trkpt>
      <trkpt lat="43.142583" lon="-5.773830">
        <ele>1211.444</ele>
        <time>1999-07-21T12:43:25Z</time>
      </trkpt>
      <trkpt lat="43.142653" lon="-5.773897">
        <ele>1210.495</ele>
        <time>1999-07-21T12:43:26Z</time>
      </trkpt>
      <trkpt lat="43.142728" lon="-5.773961">
        <ele>1209.261</ele>
        <time>1999-07-21T12:43:27Z</time>
      </trkpt>
      <trkpt lat="43.142878" lon="-5.774080">
        <ele>1207.645</ele>
        <time>1999-07-21T12:43:29Z</time>
      </trkpt>
      <trkpt lat="43.142957" lon="-5.774136">
        <ele>1206.847</ele>
        <time>1999-07-21T12:43:30Z</time>
      </trkpt>
      <trkpt lat="43.143040" lon="-5.774193">
        <ele>1206.411</ele>
        <time>1999-07-21T12:43:31Z</time>
      </trkpt>
      <trkpt lat="43.143203" lon="-5.774335">
        <ele>1206.008</ele>
        <time>1999-07-21T12:43:33Z</time>
      </trkpt>
      <trkpt lat="43.143267" lon="-5.774416">
        <ele>1205.047</ele>
        <time>1999-07-21T12:43:34Z</time>
      </trkpt>
      <trkpt lat="43.143361" lon="-5.774591">
        <ele>1203.462</ele>
        <time>1999-07-21T12:43:36Z</time>
      </trkpt>
      <trkpt lat="43.143401" lon="-5.774677">
        <ele>1202.032</ele>
        <time>1999-07-21T12:43:37Z</time>
      </trkpt>
      <trkpt lat="43.143467" lon="-5.774839">
        <ele>1200.263</ele>
        <time>1999-07-21T12:43:39Z</time>
      </trkpt>
      <trkpt lat="43.143499" lon="-5.774913">
        <ele>1198.651</ele>
        <time>1999-07-21T12:43:40Z</time>
      </trkpt>
      <trkpt lat="43.143560" lon="-5.775060">
        <ele>1197.499</ele>
        <time>1999-07-21T12:43:42Z</time>
      </trkpt>
      <trkpt lat="43.143593" lon="-5.775131">
        <ele>1196.690</ele>
        <time>1999-07-21T12:43:43Z</time>
      </trkpt>
      <trkpt lat="43.143625" lon="-5.775202">
        <ele>1196.066</ele>
        <time>1999-07-21T12:43:44Z</time>
      </trkpt>
      <trkpt lat="43.143723" lon="-5.775505">
        <ele>1195.669</ele>
        <time>1999-07-21T12:43:48Z</time>
      </trkpt>
      <trkpt lat="43.143735" lon="-5.775582">
        <ele>1195.604</ele>
        <time>1999-07-21T12:43:49Z</time>
      </trkpt>
      <trkpt lat="43.143735" lon="-5.775801">
        <ele>1195.624</ele>
        <time>1999-07-21T12:43:52Z</time>
      </trkpt>
      <trkpt lat="43.143736" lon="-5.775931">
        <ele>1195.608</ele>
        <time>1999-07-21T12:43:54Z</time>
      </trkpt>
      <trkpt lat="43.143741" lon="-5.776270">
        <ele>1195.659</ele>
        <time>1999-07-21T12:44:00Z</time>
      </trkpt>
      <trkpt lat="43.143741" lon="-5.776323">
        <ele>1195.884</ele>
        <time>1999-07-21T12:44:01Z</time>
      </trkpt>
      <trkpt lat="43.143740" lon="-5.776571">
        <ele>1196.424</ele>
        <time>1999-07-21T12:44:06Z</time>
      </trkpt>
      <trkpt lat="43.143742" lon="-5.776670">
        <ele>1197.015</ele>
        <time>1999-07-21T12:44:08Z</time>
      </trkpt>
      <trkpt lat="43.143745" lon="-5.776717">
        <ele>1197.263</ele>
        <time>1999-07-21T12:44:09Z</time>
      </trkpt>
      <trkpt lat="43.143775" lon="-5.776830">
        <ele>1197.641</ele>
        <time>1999-07-21T12:44:12Z</time>
      </trkpt>
      <trkpt lat="43.143788" lon="-5.776873">
        <ele>1197.832</ele>
        <time>1999-07-21T12:44:13Z</time>
      </trkpt>
      <trkpt lat="43.143834" lon="-5.777030">
        <ele>1198.698</ele>
        <time>1999-07-21T12:44:17Z</time>
      </trkpt>
      <trkpt lat="43.143836" lon="-5.777078">
        <ele>1198.846</ele>
        <time>1999-07-21T12:44:18Z</time>
      </trkpt>
      <trkpt lat="43.143879" lon="-5.777371">
        <ele>1199.688</ele>
        <time>1999-07-21T12:44:23Z</time>
      </trkpt>
      <trkpt lat="43.143893" lon="-5.777438">
        <ele>1199.816</ele>
        <time>1999-07-21T12:44:24Z</time>
      </trkpt>
      <trkpt lat="43.143920" lon="-5.777570">
        <ele>1199.808</ele>
        <time>1999-07-21T12:44:26Z</time>
      </trkpt>
      <trkpt lat="43.143977" lon="-5.777771">
        <ele>1200.027</ele>
        <time>1999-07-21T12:44:29Z</time>
      </trkpt>
      <trkpt lat="43.144081" lon="-5.778244">
        <ele>1200.022</ele>
        <time>1999-07-21T12:44:35Z</time>
      </trkpt>
      <trkpt lat="43.144212" lon="-5.778861">
        <ele>1199.812</ele>
        <time>1999-07-21T12:44:42Z</time>
      </trkpt>
      <trkpt lat="43.144251" lon="-5.779195">
        <ele>1199.463</ele>
        <time>1999-07-21T12:44:46Z</time>
      </trkpt>
      <trkpt lat="43.144265" lon="-5.779260">
        <ele>1199.291</ele>
        <time>1999-07-21T12:44:47Z</time>
      </trkpt>
      <trkpt lat="43.144282" lon="-5.779318">
        <ele>1199.069</ele>
        <time>1999-07-21T12:44:48Z</time>
      </trkpt>
      <trkpt lat="43.144328" lon="-5.779437">
        <ele>1198.620</ele>
        <time>1999-07-21T12:44:50Z</time>
      </trkpt>
      <trkpt lat="43.144363" lon="-5.779499">
        <ele>1198.266</ele>
        <time>1999-07-21T12:44:51Z</time>
      </trkpt>
      <trkpt lat="43.144406" lon="-5.779566">
        <ele>1197.885</ele>
        <time>1999-07-21T12:44:52Z</time>
      </trkpt>
      <trkpt lat="43.144456" lon="-5.779630">
        <ele>1197.689</ele>
        <time>1999-07-21T12:44:53Z</time>
      </trkpt>
      <trkpt lat="43.144684" lon="-5.779810">
        <ele>1196.417</ele>
        <time>1999-07-21T12:44:56Z</time>
      </trkpt>
      <trkpt lat="43.144945" lon="-5.779964">
        <ele>1195.208</ele>
        <time>1999-07-21T12:44:59Z</time>
      </trkpt>
      <trkpt lat="43.145018" lon="-5.780019">
        <ele>1194.841</ele>
        <time>1999-07-21T12:45:00Z</time>
      </trkpt>
      <trkpt lat="43.145077" lon="-5.780070">
        <ele>1194.246</ele>
        <time>1999-07-21T12:45:01Z</time>
      </trkpt>
      <trkpt lat="43.145192" lon="-5.780160">
        <ele>1192.226</ele>
        <time>1999-07-21T12:45:03Z</time>
      </trkpt>
      <trkpt lat="43.145253" lon="-5.780196">
        <ele>1190.297</ele>
        <time>1999-07-21T12:45:04Z</time>
      </trkpt>
      <trkpt lat="43.145384" lon="-5.780246">
        <ele>1188.415</ele>
        <time>1999-07-21T12:45:06Z</time>
      </trkpt>
      <trkpt lat="43.145515" lon="-5.780283">
        <ele>1187.023</ele>
        <time>1999-07-21T12:45:08Z</time>
      </trkpt>
      <trkpt lat="43.145646" lon="-5.780331">
        <ele>1185.284</ele>
        <time>1999-07-21T12:45:10Z</time>
      </trkpt>
      <trkpt lat="43.145778" lon="-5.780365">
        <ele>1183.690</ele>
        <time>1999-07-21T12:45:12Z</time>
      </trkpt>
      <trkpt lat="43.145906" lon="-5.780400">
        <ele>1182.479</ele>
        <time>1999-07-21T12:45:14Z</time>
      </trkpt>
      <trkpt lat="43.146037" lon="-5.780424">
        <ele>1181.405</ele>
        <time>1999-07-21T12:45:16Z</time>
      </trkpt>
      <trkpt lat="43.146102" lon="-5.780435">
        <ele>1181.025</ele>
        <time>1999-07-21T12:45:17Z</time>
      </trkpt>
      <trkpt lat="43.146230" lon="-5.780432">
        <ele>1180.408</ele>
        <time>1999-07-21T12:45:19Z</time>
      </trkpt>
      <trkpt lat="43.146421" lon="-5.780388">
        <ele>1179.870</ele>
        <time>1999-07-21T12:45:22Z</time>
      </trkpt>
      <trkpt lat="43.146489" lon="-5.780367">
        <ele>1179.635</ele>
        <time>1999-07-21T12:45:23Z</time>
      </trkpt>
      <trkpt lat="43.146555" lon="-5.780338">
        <ele>1179.485</ele>
        <time>1999-07-21T12:45:24Z</time>
      </trkpt>
      <trkpt lat="43.146624" lon="-5.780304">
        <ele>1179.256</ele>
        <time>1999-07-21T12:45:25Z</time>
      </trkpt>
      <trkpt lat="43.146768" lon="-5.780232">
        <ele>1178.654</ele>
        <time>1999-07-21T12:45:27Z</time>
      </trkpt>
      <trkpt lat="43.146841" lon="-5.780191">
        <ele>1178.432</ele>
        <time>1999-07-21T12:45:28Z</time>
      </trkpt>
      <trkpt lat="43.146991" lon="-5.780078">
        <ele>1177.863</ele>
        <time>1999-07-21T12:45:30Z</time>
      </trkpt>
      <trkpt lat="43.147130" lon="-5.779931">
        <ele>1177.239</ele>
        <time>1999-07-21T12:45:32Z</time>
      </trkpt>
      <trkpt lat="43.147260" lon="-5.779763">
        <ele>1176.266</ele>
        <time>1999-07-21T12:45:34Z</time>
      </trkpt>
      <trkpt lat="43.147369" lon="-5.779575">
        <ele>1175.229</ele>
        <time>1999-07-21T12:45:36Z</time>
      </trkpt>
      <trkpt lat="43.147416" lon="-5.779474">
        <ele>1174.421</ele>
        <time>1999-07-21T12:45:37Z</time>
      </trkpt>
      <trkpt lat="43.147505" lon="-5.779263">
        <ele>1172.808</ele>
        <time>1999-07-21T12:45:39Z</time>
      </trkpt>
      <trkpt lat="43.147588" lon="-5.779040">
        <ele>1171.819</ele>
        <time>1999-07-21T12:45:41Z</time>
      </trkpt>
      <trkpt lat="43.147662" lon="-5.778810">
        <ele>1170.634</ele>
        <time>1999-07-21T12:45:43Z</time>
      </trkpt>
      <trkpt lat="43.147687" lon="-5.778700">
        <ele>1170.034</ele>
        <time>1999-07-21T12:45:44Z</time>
      </trkpt>
      <trkpt lat="43.147704" lon="-5.778595">
        <ele>1169.435</ele>
        <time>1999-07-21T12:45:45Z</time>
      </trkpt>
      <trkpt lat="43.147713" lon="-5.778492">
        <ele>1169.083</ele>
        <time>1999-07-21T12:45:46Z</time>
      </trkpt>
      <trkpt lat="43.147712" lon="-5.778394">
        <ele>1168.451</ele>
        <time>1999-07-21T12:45:47Z</time>
      </trkpt>
      <trkpt lat="43.147712" lon="-5.778234">
        <ele>1166.692</ele>
        <time>1999-07-21T12:45:49Z</time>
      </trkpt>
      <trkpt lat="43.147710" lon="-5.778169">
        <ele>1166.248</ele>
        <time>1999-07-21T12:45:50Z</time>
      </trkpt>
      <trkpt lat="43.147704" lon="-5.778117">
        <ele>1165.624</ele>
        <time>1999-07-21T12:45:51Z</time>
      </trkpt>
      <trkpt lat="43.147697" lon="-5.778055">
        <ele>1163.404</ele>
        <time>1999-07-21T12:45:53Z</time>
      </trkpt>
      <trkpt lat="43.147697" lon="-5.778035">
        <ele>1162.014</ele>
        <time>1999-07-21T12:45:55Z</time>
      </trkpt>
      <trkpt lat="43.147696" lon="-5.778035">
        <ele>1161.408</ele>
        <time>1999-07-21T12:45:56Z</time>
      </trkpt>
      <trkpt lat="43.147724" lon="-5.778049">
        <ele>1157.025</ele>
        <time>1999-07-21T12:46:43Z</time>
      </trkpt>
      <trkpt lat="43.147742" lon="-5.778070">
        <ele>1157.040</ele>
        <time>1999-07-21T12:46:44Z</time>
      </trkpt>
      <trkpt lat="43.147839" lon="-5.778209">
        <ele>1156.840</ele>
        <time>1999-07-21T12:46:48Z</time>
      </trkpt>
      <trkpt lat="43.147859" lon="-5.778324">
        <ele>1156.831</ele>
        <time>1999-07-21T12:46:50Z</time>
      </trkpt>
      <trkpt lat="43.147861" lon="-5.778386">
        <ele>1156.629</ele>
        <time>1999-07-21T12:46:51Z</time>
      </trkpt>
      <trkpt lat="43.147861" lon="-5.778454">
        <ele>1156.627</ele>
        <time>1999-07-21T12:46:52Z</time>
      </trkpt>
      <trkpt lat="43.147864" lon="-5.778525">
        <ele>1156.668</ele>
        <time>1999-07-21T12:46:53Z</time>
      </trkpt>
      <trkpt lat="43.147884" lon="-5.778771">
        <ele>1156.044</ele>
        <time>1999-07-21T12:46:56Z</time>
      </trkpt>
      <trkpt lat="43.147881" lon="-5.778961">
        <ele>1155.616</ele>
        <time>1999-07-21T12:46:58Z</time>
      </trkpt>
      <trkpt lat="43.147861" lon="-5.779260">
        <ele>1155.276</ele>
        <time>1999-07-21T12:47:01Z</time>
      </trkpt>
      <trkpt lat="43.147848" lon="-5.779371">
        <ele>1155.013</ele>
        <time>1999-07-21T12:47:02Z</time>
      </trkpt>
      <trkpt lat="43.147838" lon="-5.779485">
        <ele>1154.608</ele>
        <time>1999-07-21T12:47:03Z</time>
      </trkpt>
      <trkpt lat="43.147833" lon="-5.779702">
        <ele>1153.624</ele>
        <time>1999-07-21T12:47:05Z</time>
      </trkpt>
      <trkpt lat="43.147842" lon="-5.779799">
        <ele>1153.049</ele>
        <time>1999-07-21T12:47:06Z</time>
      </trkpt>
      <trkpt lat="43.147873" lon="-5.779979">
        <ele>1152.019</ele>
        <time>1999-07-21T12:47:08Z</time>
      </trkpt>
      <trkpt lat="43.147918" lon="-5.780261">
        <ele>1150.690</ele>
        <time>1999-07-21T12:47:11Z</time>
      </trkpt>
      <trkpt lat="43.147949" lon="-5.780416">
        <ele>1149.228</ele>
        <time>1999-07-21T12:47:13Z</time>
      </trkpt>
      <trkpt lat="43.147979" lon="-5.780588">
        <ele>1148.096</ele>
        <time>1999-07-21T12:47:15Z</time>
      </trkpt>
      <trkpt lat="43.147997" lon="-5.780687">
        <ele>1147.447</ele>
        <time>1999-07-21T12:47:16Z</time>
      </trkpt>
      <trkpt lat="43.148015" lon="-5.780797">
        <ele>1146.443</ele>
        <time>1999-07-21T12:47:17Z</time>
      </trkpt>
      <trkpt lat="43.148059" lon="-5.781015">
        <ele>1144.826</ele>
        <time>1999-07-21T12:47:19Z</time>
      </trkpt>
      <trkpt lat="43.148082" lon="-5.781112">
        <ele>1144.047</ele>
        <time>1999-07-21T12:47:20Z</time>
      </trkpt>
      <trkpt lat="43.148099" lon="-5.781215">
        <ele>1142.811</ele>
        <time>1999-07-21T12:47:21Z</time>
      </trkpt>
      <trkpt lat="43.148128" lon="-5.781434">
        <ele>1141.008</ele>
        <time>1999-07-21T12:47:23Z</time>
      </trkpt>
      <trkpt lat="43.148138" lon="-5.781541">
        <ele>1139.865</ele>
        <time>1999-07-21T12:47:24Z</time>
      </trkpt>
      <trkpt lat="43.148147" lon="-5.781737">
        <ele>1138.890</ele>
        <time>1999-07-21T12:47:26Z</time>
      </trkpt>
      <trkpt lat="43.148123" lon="-5.781926">
        <ele>1137.490</ele>
        <time>1999-07-21T12:47:28Z</time>
      </trkpt>
      <trkpt lat="43.148102" lon="-5.782019">
        <ele>1136.231</ele>
        <time>1999-07-21T12:47:29Z</time>
      </trkpt>
      <trkpt lat="43.148032" lon="-5.782168">
        <ele>1134.469</ele>
        <time>1999-07-21T12:47:31Z</time>
      </trkpt>
      <trkpt lat="43.147985" lon="-5.782225">
        <ele>1133.257</ele>
        <time>1999-07-21T12:47:32Z</time>
      </trkpt>
      <trkpt lat="43.147867" lon="-5.782291">
        <ele>1131.228</ele>
        <time>1999-07-21T12:47:34Z</time>
      </trkpt>
      <trkpt lat="43.147733" lon="-5.782319">
        <ele>1129.624</ele>
        <time>1999-07-21T12:47:36Z</time>
      </trkpt>
      <trkpt lat="43.147672" lon="-5.782334">
        <ele>1128.833</ele>
        <time>1999-07-21T12:47:37Z</time>
      </trkpt>
      <trkpt lat="43.147625" lon="-5.782358">
        <ele>1128.023</ele>
        <time>1999-07-21T12:47:38Z</time>
      </trkpt>
      <trkpt lat="43.147580" lon="-5.782424">
        <ele>1127.015</ele>
        <time>1999-07-21T12:47:40Z</time>
      </trkpt>
      <trkpt lat="43.147572" lon="-5.782470">
        <ele>1126.208</ele>
        <time>1999-07-21T12:47:41Z</time>
      </trkpt>
      <trkpt lat="43.147572" lon="-5.782520">
        <ele>1125.876</ele>
        <time>1999-07-21T12:47:42Z</time>
      </trkpt>
      <trkpt lat="43.147593" lon="-5.782615">
        <ele>1124.221</ele>
        <time>1999-07-21T12:47:44Z</time>
      </trkpt>
      <trkpt lat="43.147629" lon="-5.782660">
        <ele>1123.411</ele>
        <time>1999-07-21T12:47:45Z</time>
      </trkpt>
      <trkpt lat="43.147677" lon="-5.782712">
        <ele>1122.672</ele>
        <time>1999-07-21T12:47:46Z</time>
      </trkpt>
      <trkpt lat="43.147795" lon="-5.782828">
        <ele>1121.260</ele>
        <time>1999-07-21T12:47:48Z</time>
      </trkpt>
      <trkpt lat="43.147862" lon="-5.782885">
        <ele>1120.678</ele>
        <time>1999-07-21T12:47:49Z</time>
      </trkpt>
      <trkpt lat="43.147937" lon="-5.782932">
        <ele>1120.229</ele>
        <time>1999-07-21T12:47:50Z</time>
      </trkpt>
      <trkpt lat="43.148110" lon="-5.782980">
        <ele>1118.825</ele>
        <time>1999-07-21T12:47:52Z</time>
      </trkpt>
      <trkpt lat="43.148368" lon="-5.782964">
        <ele>1117.476</ele>
        <time>1999-07-21T12:47:55Z</time>
      </trkpt>
      <trkpt lat="43.148451" lon="-5.782959">
        <ele>1116.890</ele>
        <time>1999-07-21T12:47:56Z</time>
      </trkpt>
      <trkpt lat="43.148532" lon="-5.782961">
        <ele>1116.219</ele>
        <time>1999-07-21T12:47:57Z</time>
      </trkpt>
      <trkpt lat="43.148606" lon="-5.782978">
        <ele>1115.808</ele>
        <time>1999-07-21T12:47:58Z</time>
      </trkpt>
      <trkpt lat="43.148768" lon="-5.783043">
        <ele>1115.010</ele>
        <time>1999-07-21T12:48:00Z</time>
      </trkpt>
      <trkpt lat="43.148938" lon="-5.783128">
        <ele>1113.855</ele>
        <time>1999-07-21T12:48:02Z</time>
      </trkpt>
      <trkpt lat="43.149082" lon="-5.783246">
        <ele>1112.295</ele>
        <time>1999-07-21T12:48:04Z</time>
      </trkpt>
      <trkpt lat="43.149205" lon="-5.783371">
        <ele>1109.866</ele>
        <time>1999-07-21T12:48:06Z</time>
      </trkpt>
      <trkpt lat="43.149261" lon="-5.783428">
        <ele>1108.474</ele>
        <time>1999-07-21T12:48:07Z</time>
      </trkpt>
      <trkpt lat="43.149310" lon="-5.783481">
        <ele>1107.472</ele>
        <time>1999-07-21T12:48:08Z</time>
      </trkpt>
      <trkpt lat="43.149356" lon="-5.783537">
        <ele>1106.633</ele>
        <time>1999-07-21T12:48:09Z</time>
      </trkpt>
      <trkpt lat="43.149462" lon="-5.783651">
        <ele>1105.059</ele>
        <time>1999-07-21T12:48:11Z</time>
      </trkpt>
      <trkpt lat="43.149521" lon="-5.783709">
        <ele>1103.649</ele>
        <time>1999-07-21T12:48:12Z</time>
      </trkpt>
      <trkpt lat="43.149582" lon="-5.783765">
        <ele>1102.602</ele>
        <time>1999-07-21T12:48:13Z</time>
      </trkpt>
      <trkpt lat="43.149651" lon="-5.783814">
        <ele>1101.422</ele>
        <time>1999-07-21T12:48:14Z</time>
      </trkpt>
      <trkpt lat="43.149725" lon="-5.783861">
        <ele>1100.008</ele>
        <time>1999-07-21T12:48:15Z</time>
      </trkpt>
      <trkpt lat="43.149806" lon="-5.783908">
        <ele>1099.097</ele>
        <time>1999-07-21T12:48:16Z</time>
      </trkpt>
      <trkpt lat="43.149892" lon="-5.783955">
        <ele>1098.252</ele>
        <time>1999-07-21T12:48:17Z</time>
      </trkpt>
      <trkpt lat="43.149981" lon="-5.784000">
        <ele>1098.062</ele>
        <time>1999-07-21T12:48:18Z</time>
      </trkpt>
      <trkpt lat="43.150071" lon="-5.784045">
        <ele>1096.453</ele>
        <time>1999-07-21T12:48:19Z</time>
      </trkpt>
      <trkpt lat="43.150161" lon="-5.784089">
        <ele>1095.251</ele>
        <time>1999-07-21T12:48:20Z</time>
      </trkpt>
      <trkpt lat="43.150252" lon="-5.784130">
        <ele>1093.879</ele>
        <time>1999-07-21T12:48:21Z</time>
      </trkpt>
      <trkpt lat="43.150421" lon="-5.784196">
        <ele>1092.250</ele>
        <time>1999-07-21T12:48:23Z</time>
      </trkpt>
      <trkpt lat="43.150563" lon="-5.784231">
        <ele>1091.016</ele>
        <time>1999-07-21T12:48:25Z</time>
      </trkpt>
      <trkpt lat="43.150685" lon="-5.784229">
        <ele>1089.462</ele>
        <time>1999-07-21T12:48:27Z</time>
      </trkpt>
      <trkpt lat="43.150784" lon="-5.784191">
        <ele>1087.683</ele>
        <time>1999-07-21T12:48:29Z</time>
      </trkpt>
      <trkpt lat="43.150872" lon="-5.784125">
        <ele>1086.811</ele>
        <time>1999-07-21T12:48:31Z</time>
      </trkpt>
      <trkpt lat="43.150915" lon="-5.784089">
        <ele>1086.608</ele>
        <time>1999-07-21T12:48:32Z</time>
      </trkpt>
      <trkpt lat="43.151040" lon="-5.783976">
        <ele>1086.449</ele>
        <time>1999-07-21T12:48:35Z</time>
      </trkpt>
      <trkpt lat="43.151072" lon="-5.783943">
        <ele>1086.214</ele>
        <time>1999-07-21T12:48:36Z</time>
      </trkpt>
      <trkpt lat="43.151146" lon="-5.783909">
        <ele>1086.034</ele>
        <time>1999-07-21T12:48:39Z</time>
      </trkpt>
      <trkpt lat="43.151164" lon="-5.783906">
        <ele>1085.675</ele>
        <time>1999-07-21T12:48:43Z</time>
      </trkpt>
      <trkpt lat="43.151253" lon="-5.783871">
        <ele>1081.423</ele>
        <time>1999-07-21T12:49:19Z</time>
      </trkpt>
      <trkpt lat="43.151276" lon="-5.783876">
        <ele>1081.461</ele>
        <time>1999-07-21T12:49:20Z</time>
      </trkpt>
      <trkpt lat="43.151411" lon="-5.783880">
        <ele>1081.452</ele>
        <time>1999-07-21T12:49:24Z</time>
      </trkpt>
      <trkpt lat="43.151632" lon="-5.783875">
        <ele>1081.248</ele>
        <time>1999-07-21T12:49:28Z</time>
      </trkpt>
      <trkpt lat="43.151699" lon="-5.783879">
        <ele>1081.224</ele>
        <time>1999-07-21T12:49:29Z</time>
      </trkpt>
      <trkpt lat="43.151769" lon="-5.783888">
        <ele>1081.004</ele>
        <time>1999-07-21T12:49:30Z</time>
      </trkpt>
      <trkpt lat="43.151913" lon="-5.783912">
        <ele>1080.614</ele>
        <time>1999-07-21T12:49:32Z</time>
      </trkpt>
      <trkpt lat="43.151988" lon="-5.783928">
        <ele>1080.408</ele>
        <time>1999-07-21T12:49:33Z</time>
      </trkpt>
      <trkpt lat="43.152153" lon="-5.783973">
        <ele>1079.635</ele>
        <time>1999-07-21T12:49:35Z</time>
      </trkpt>
      <trkpt lat="43.152319" lon="-5.784033">
        <ele>1079.220</ele>
        <time>1999-07-21T12:49:37Z</time>
      </trkpt>
      <trkpt lat="43.152568" lon="-5.784160">
        <ele>1078.270</ele>
        <time>1999-07-21T12:49:40Z</time>
      </trkpt>
      <trkpt lat="43.152649" lon="-5.784208">
        <ele>1077.471</ele>
        <time>1999-07-21T12:49:41Z</time>
      </trkpt>
      <trkpt lat="43.152728" lon="-5.784258">
        <ele>1076.869</ele>
        <time>1999-07-21T12:49:42Z</time>
      </trkpt>
      <trkpt lat="43.152805" lon="-5.784316">
        <ele>1076.277</ele>
        <time>1999-07-21T12:49:43Z</time>
      </trkpt>
      <trkpt lat="43.152952" lon="-5.784428">
        <ele>1075.658</ele>
        <time>1999-07-21T12:49:45Z</time>
      </trkpt>
      <trkpt lat="43.153027" lon="-5.784474">
        <ele>1075.024</ele>
        <time>1999-07-21T12:49:46Z</time>
      </trkpt>
      <trkpt lat="43.153183" lon="-5.784558">
        <ele>1074.218</ele>
        <time>1999-07-21T12:49:48Z</time>
      </trkpt>
      <trkpt lat="43.153338" lon="-5.784625">
        <ele>1073.298</ele>
        <time>1999-07-21T12:49:50Z</time>
      </trkpt>
      <trkpt lat="43.153420" lon="-5.784648">
        <ele>1072.617</ele>
        <time>1999-07-21T12:49:51Z</time>
      </trkpt>
      <trkpt lat="43.153505" lon="-5.784670">
        <ele>1072.208</ele>
        <time>1999-07-21T12:49:52Z</time>
      </trkpt>
      <trkpt lat="43.153591" lon="-5.784692">
        <ele>1071.624</ele>
        <time>1999-07-21T12:49:53Z</time>
      </trkpt>
      <trkpt lat="43.153764" lon="-5.784735">
        <ele>1070.299</ele>
        <time>1999-07-21T12:49:55Z</time>
      </trkpt>
      <trkpt lat="43.153943" lon="-5.784768">
        <ele>1069.049</ele>
        <time>1999-07-21T12:49:57Z</time>
      </trkpt>
      <trkpt lat="43.154128" lon="-5.784783">
        <ele>1068.650</ele>
        <time>1999-07-21T12:49:59Z</time>
      </trkpt>
      <trkpt lat="43.154316" lon="-5.784800">
        <ele>1067.888</ele>
        <time>1999-07-21T12:50:01Z</time>
      </trkpt>
      <trkpt lat="43.154495" lon="-5.784812">
        <ele>1066.896</ele>
        <time>1999-07-21T12:50:03Z</time>
      </trkpt>
      <trkpt lat="43.154582" lon="-5.784824">
        <ele>1066.657</ele>
        <time>1999-07-21T12:50:04Z</time>
      </trkpt>
      <trkpt lat="43.154754" lon="-5.784853">
        <ele>1065.463</ele>
        <time>1999-07-21T12:50:06Z</time>
      </trkpt>
      <trkpt lat="43.154926" lon="-5.784902">
        <ele>1063.845</ele>
        <time>1999-07-21T12:50:08Z</time>
      </trkpt>
      <trkpt lat="43.155015" lon="-5.784935">
        <ele>1063.247</ele>
        <time>1999-07-21T12:50:09Z</time>
      </trkpt>
      <trkpt lat="43.155102" lon="-5.784973">
        <ele>1061.811</ele>
        <time>1999-07-21T12:50:10Z</time>
      </trkpt>
      <trkpt lat="43.155268" lon="-5.785065">
        <ele>1060.608</ele>
        <time>1999-07-21T12:50:12Z</time>
      </trkpt>
      <trkpt lat="43.155443" lon="-5.785142">
        <ele>1060.047</ele>
        <time>1999-07-21T12:50:14Z</time>
      </trkpt>
      <trkpt lat="43.155534" lon="-5.785182">
        <ele>1059.442</ele>
        <time>1999-07-21T12:50:15Z</time>
      </trkpt>
      <trkpt lat="43.155627" lon="-5.785219">
        <ele>1058.482</ele>
        <time>1999-07-21T12:50:16Z</time>
      </trkpt>
      <trkpt lat="43.155721" lon="-5.785251">
        <ele>1057.223</ele>
        <time>1999-07-21T12:50:17Z</time>
      </trkpt>
      <trkpt lat="43.155902" lon="-5.785330">
        <ele>1056.081</ele>
        <time>1999-07-21T12:50:19Z</time>
      </trkpt>
      <trkpt lat="43.155989" lon="-5.785382">
        <ele>1055.619</ele>
        <time>1999-07-21T12:50:20Z</time>
      </trkpt>
      <trkpt lat="43.156154" lon="-5.785517">
        <ele>1054.690</ele>
        <time>1999-07-21T12:50:22Z</time>
      </trkpt>
      <trkpt lat="43.156303" lon="-5.785698">
        <ele>1053.216</ele>
        <time>1999-07-21T12:50:24Z</time>
      </trkpt>
      <trkpt lat="43.156437" lon="-5.785904">
        <ele>1051.675</ele>
        <time>1999-07-21T12:50:26Z</time>
      </trkpt>
      <trkpt lat="43.156565" lon="-5.786106">
        <ele>1050.228</ele>
        <time>1999-07-21T12:50:28Z</time>
      </trkpt>
      <trkpt lat="43.156625" lon="-5.786204">
        <ele>1049.220</ele>
        <time>1999-07-21T12:50:29Z</time>
      </trkpt>
      <trkpt lat="43.156684" lon="-5.786302">
        <ele>1048.208</ele>
        <time>1999-07-21T12:50:30Z</time>
      </trkpt>
      <trkpt lat="43.156793" lon="-5.786511">
        <ele>1046.480</ele>
        <time>1999-07-21T12:50:32Z</time>
      </trkpt>
      <trkpt lat="43.156884" lon="-5.786745">
        <ele>1045.055</ele>
        <time>1999-07-21T12:50:34Z</time>
      </trkpt>
      <trkpt lat="43.156914" lon="-5.786871">
        <ele>1044.445</ele>
        <time>1999-07-21T12:50:35Z</time>
      </trkpt>
      <trkpt lat="43.156941" lon="-5.787000">
        <ele>1043.286</ele>
        <time>1999-07-21T12:50:36Z</time>
      </trkpt>
      <trkpt lat="43.157011" lon="-5.787217">
        <ele>1041.464</ele>
        <time>1999-07-21T12:50:38Z</time>
      </trkpt>
      <trkpt lat="43.157056" lon="-5.787316">
        <ele>1040.452</ele>
        <time>1999-07-21T12:50:39Z</time>
      </trkpt>
      <trkpt lat="43.157106" lon="-5.787410">
        <ele>1039.243</ele>
        <time>1999-07-21T12:50:40Z</time>
      </trkpt>
      <trkpt lat="43.157162" lon="-5.787493">
        <ele>1038.459</ele>
        <time>1999-07-21T12:50:41Z</time>
      </trkpt>
      <trkpt lat="43.157228" lon="-5.787564">
        <ele>1037.846</ele>
        <time>1999-07-21T12:50:42Z</time>
      </trkpt>
      <trkpt lat="43.157386" lon="-5.787671">
        <ele>1035.888</ele>
        <time>1999-07-21T12:50:44Z</time>
      </trkpt>
      <trkpt lat="43.157497" lon="-5.787664">
        <ele>1035.016</ele>
        <time>1999-07-21T12:50:45Z</time>
      </trkpt>
      <trkpt lat="43.157596" lon="-5.787636">
        <ele>1034.208</ele>
        <time>1999-07-21T12:50:46Z</time>
      </trkpt>
      <trkpt lat="43.157686" lon="-5.787572">
        <ele>1033.467</ele>
        <time>1999-07-21T12:50:47Z</time>
      </trkpt>
      <trkpt lat="43.157768" lon="-5.787501">
        <ele>1032.692</ele>
        <time>1999-07-21T12:50:48Z</time>
      </trkpt>
      <trkpt lat="43.157843" lon="-5.787437">
        <ele>1031.652</ele>
        <time>1999-07-21T12:50:49Z</time>
      </trkpt>
      <trkpt lat="43.157921" lon="-5.787387">
        <ele>1030.613</ele>
        <time>1999-07-21T12:50:50Z</time>
      </trkpt>
      <trkpt lat="43.158003" lon="-5.787345">
        <ele>1030.091</ele>
        <time>1999-07-21T12:50:51Z</time>
      </trkpt>
      <trkpt lat="43.158084" lon="-5.787315">
        <ele>1029.459</ele>
        <time>1999-07-21T12:50:52Z</time>
      </trkpt>
      <trkpt lat="43.158239" lon="-5.787297">
        <ele>1028.810</ele>
        <time>1999-07-21T12:50:54Z</time>
      </trkpt>
      <trkpt lat="43.158317" lon="-5.787292">
        <ele>1028.226</ele>
        <time>1999-07-21T12:50:55Z</time>
      </trkpt>
      <trkpt lat="43.158390" lon="-5.787279">
        <ele>1027.654</ele>
        <time>1999-07-21T12:50:56Z</time>
      </trkpt>
      <trkpt lat="43.158456" lon="-5.787260">
        <ele>1027.256</ele>
        <time>1999-07-21T12:50:57Z</time>
      </trkpt>
      <trkpt lat="43.158518" lon="-5.787226">
        <ele>1026.611</ele>
        <time>1999-07-21T12:50:58Z</time>
      </trkpt>
      <trkpt lat="43.158620" lon="-5.787119">
        <ele>1026.008</ele>
        <time>1999-07-21T12:51:00Z</time>
      </trkpt>
      <trkpt lat="43.158728" lon="-5.787019">
        <ele>1025.038</ele>
        <time>1999-07-21T12:51:02Z</time>
      </trkpt>
      <trkpt lat="43.158785" lon="-5.786994">
        <ele>1024.413</ele>
        <time>1999-07-21T12:51:03Z</time>
      </trkpt>
      <trkpt lat="43.158972" lon="-5.786928">
        <ele>1023.843</ele>
        <time>1999-07-21T12:51:06Z</time>
      </trkpt>
      <trkpt lat="43.159122" lon="-5.786815">
        <ele>1023.644</ele>
        <time>1999-07-21T12:51:09Z</time>
      </trkpt>
      <trkpt lat="43.159226" lon="-5.786774">
        <ele>1023.622</ele>
        <time>1999-07-21T12:51:11Z</time>
      </trkpt>
      <trkpt lat="43.159394" lon="-5.786738">
        <ele>1023.610</ele>
        <time>1999-07-21T12:51:14Z</time>
      </trkpt>
      <trkpt lat="43.159532" lon="-5.786732">
        <ele>1023.631</ele>
        <time>1999-07-21T12:51:16Z</time>
      </trkpt>
      <trkpt lat="43.159680" lon="-5.786750">
        <ele>1023.647</ele>
        <time>1999-07-21T12:51:18Z</time>
      </trkpt>
      <trkpt lat="43.159751" lon="-5.786758">
        <ele>1023.463</ele>
        <time>1999-07-21T12:51:19Z</time>
      </trkpt>
      <trkpt lat="43.160029" lon="-5.786812">
        <ele>1022.644</ele>
        <time>1999-07-21T12:51:23Z</time>
      </trkpt>
      <trkpt lat="43.160086" lon="-5.786826">
        <ele>1022.218</ele>
        <time>1999-07-21T12:51:24Z</time>
      </trkpt>
      <trkpt lat="43.160152" lon="-5.786845">
        <ele>1021.408</ele>
        <time>1999-07-21T12:51:25Z</time>
      </trkpt>
      <trkpt lat="43.160222" lon="-5.786876">
        <ele>1020.889</ele>
        <time>1999-07-21T12:51:26Z</time>
      </trkpt>
      <trkpt lat="43.160292" lon="-5.786915">
        <ele>1020.234</ele>
        <time>1999-07-21T12:51:27Z</time>
      </trkpt>
      <trkpt lat="43.160355" lon="-5.786960">
        <ele>1019.644</ele>
        <time>1999-07-21T12:51:28Z</time>
      </trkpt>
      <trkpt lat="43.160465" lon="-5.787081">
        <ele>1017.885</ele>
        <time>1999-07-21T12:51:30Z</time>
      </trkpt>
      <trkpt lat="43.160563" lon="-5.787240">
        <ele>1015.043</ele>
        <time>1999-07-21T12:51:32Z</time>
      </trkpt>
      <trkpt lat="43.160653" lon="-5.787420">
        <ele>1013.411</ele>
        <time>1999-07-21T12:51:34Z</time>
      </trkpt>
      <trkpt lat="43.160698" lon="-5.787510">
        <ele>1012.632</ele>
        <time>1999-07-21T12:51:35Z</time>
      </trkpt>
      <trkpt lat="43.160739" lon="-5.787599">
        <ele>1011.678</ele>
        <time>1999-07-21T12:51:36Z</time>
      </trkpt>
      <trkpt lat="43.160795" lon="-5.787650">
        <ele>1010.452</ele>
        <time>1999-07-21T12:51:37Z</time>
      </trkpt>
      <trkpt lat="43.160847" lon="-5.787693">
        <ele>1009.453</ele>
        <time>1999-07-21T12:51:38Z</time>
      </trkpt>
      <trkpt lat="43.160906" lon="-5.787727">
        <ele>1008.608</ele>
        <time>1999-07-21T12:51:39Z</time>
      </trkpt>
      <trkpt lat="43.161048" lon="-5.787784">
        <ele>1007.208</ele>
        <time>1999-07-21T12:51:41Z</time>
      </trkpt>
      <trkpt lat="43.161133" lon="-5.787811">
        <ele>1006.898</ele>
        <time>1999-07-21T12:51:42Z</time>
      </trkpt>
      <trkpt lat="43.161220" lon="-5.787836">
        <ele>1006.283</ele>
        <time>1999-07-21T12:51:43Z</time>
      </trkpt>
      <trkpt lat="43.161451" lon="-5.787917">
        <ele>1005.233</ele>
        <time>1999-07-21T12:51:46Z</time>
      </trkpt>
      <trkpt lat="43.161607" lon="-5.787991">
        <ele>1004.244</ele>
        <time>1999-07-21T12:51:48Z</time>
      </trkpt>
      <trkpt lat="43.161749" lon="-5.788109">
        <ele>1002.832</ele>
        <time>1999-07-21T12:51:50Z</time>
      </trkpt>
      <trkpt lat="43.161880" lon="-5.788269">
        <ele>1000.830</ele>
        <time>1999-07-21T12:51:52Z</time>
      </trkpt>
      <trkpt lat="43.161950" lon="-5.788348">
        <ele>999.621</ele>
        <time>1999-07-21T12:51:53Z</time>
      </trkpt>
      <trkpt lat="43.162020" lon="-5.788424">
        <ele>998.287</ele>
        <time>1999-07-21T12:51:54Z</time>
      </trkpt>
      <trkpt lat="43.162095" lon="-5.788486">
        <ele>997.255</ele>
        <time>1999-07-21T12:51:55Z</time>
      </trkpt>
      <trkpt lat="43.162247" lon="-5.788584">
        <ele>995.607</ele>
        <time>1999-07-21T12:51:57Z</time>
      </trkpt>
      <trkpt lat="43.162324" lon="-5.788608">
        <ele>994.617</ele>
        <time>1999-07-21T12:51:58Z</time>
      </trkpt>
      <trkpt lat="43.162406" lon="-5.788615">
        <ele>993.808</ele>
        <time>1999-07-21T12:51:59Z</time>
      </trkpt>
      <trkpt lat="43.162494" lon="-5.788604">
        <ele>992.658</ele>
        <time>1999-07-21T12:52:00Z</time>
      </trkpt>
      <trkpt lat="43.162680" lon="-5.788554">
        <ele>991.413</ele>
        <time>1999-07-21T12:52:02Z</time>
      </trkpt>
      <trkpt lat="43.162779" lon="-5.788531">
        <ele>991.073</ele>
        <time>1999-07-21T12:52:03Z</time>
      </trkpt>
      <trkpt lat="43.162879" lon="-5.788520">
        <ele>989.844</ele>
        <time>1999-07-21T12:52:04Z</time>
      </trkpt>
      <trkpt lat="43.162979" lon="-5.788524">
        <ele>989.272</ele>
        <time>1999-07-21T12:52:05Z</time>
      </trkpt>
      <trkpt lat="43.163073" lon="-5.788539">
        <ele>988.690</ele>
        <time>1999-07-21T12:52:06Z</time>
      </trkpt>
      <trkpt lat="43.163159" lon="-5.788544">
        <ele>988.021</ele>
        <time>1999-07-21T12:52:07Z</time>
      </trkpt>
      <trkpt lat="43.163247" lon="-5.788536">
        <ele>987.237</ele>
        <time>1999-07-21T12:52:08Z</time>
      </trkpt>
      <trkpt lat="43.163497" lon="-5.788444">
        <ele>985.698</ele>
        <time>1999-07-21T12:52:11Z</time>
      </trkpt>
      <trkpt lat="43.163647" lon="-5.788319">
        <ele>983.815</ele>
        <time>1999-07-21T12:52:13Z</time>
      </trkpt>
      <trkpt lat="43.163719" lon="-5.788250">
        <ele>982.826</ele>
        <time>1999-07-21T12:52:14Z</time>
      </trkpt>
      <trkpt lat="43.163788" lon="-5.788178">
        <ele>982.208</ele>
        <time>1999-07-21T12:52:15Z</time>
      </trkpt>
      <trkpt lat="43.163857" lon="-5.788107">
        <ele>981.652</ele>
        <time>1999-07-21T12:52:16Z</time>
      </trkpt>
      <trkpt lat="43.164080" lon="-5.787916">
        <ele>980.017</ele>
        <time>1999-07-21T12:52:19Z</time>
      </trkpt>
      <trkpt lat="43.164161" lon="-5.787867">
        <ele>979.277</ele>
        <time>1999-07-21T12:52:20Z</time>
      </trkpt>
      <trkpt lat="43.164243" lon="-5.787824">
        <ele>978.848</ele>
        <time>1999-07-21T12:52:21Z</time>
      </trkpt>
      <trkpt lat="43.164393" lon="-5.787744">
        <ele>978.076</ele>
        <time>1999-07-21T12:52:23Z</time>
      </trkpt>
      <trkpt lat="43.164463" lon="-5.787698">
        <ele>977.464</ele>
        <time>1999-07-21T12:52:24Z</time>
      </trkpt>
      <trkpt lat="43.164596" lon="-5.787615">
        <ele>976.095</ele>
        <time>1999-07-21T12:52:26Z</time>
      </trkpt>
      <trkpt lat="43.164734" lon="-5.787540">
        <ele>974.211</ele>
        <time>1999-07-21T12:52:28Z</time>
      </trkpt>
      <trkpt lat="43.164800" lon="-5.787492">
        <ele>974.039</ele>
        <time>1999-07-21T12:52:29Z</time>
      </trkpt>
      <trkpt lat="43.164921" lon="-5.787372">
        <ele>973.401</ele>
        <time>1999-07-21T12:52:31Z</time>
      </trkpt>
      <trkpt lat="43.165092" lon="-5.787147">
        <ele>972.621</ele>
        <time>1999-07-21T12:52:34Z</time>
      </trkpt>
      <trkpt lat="43.165147" lon="-5.787061">
        <ele>972.208</ele>
        <time>1999-07-21T12:52:35Z</time>
      </trkpt>
      <trkpt lat="43.165196" lon="-5.786967">
        <ele>971.896</ele>
        <time>1999-07-21T12:52:36Z</time>
      </trkpt>
      <trkpt lat="43.165284" lon="-5.786790">
        <ele>971.261</ele>
        <time>1999-07-21T12:52:38Z</time>
      </trkpt>
      <trkpt lat="43.165349" lon="-5.786690">
        <ele>970.641</ele>
        <time>1999-07-21T12:52:40Z</time>
      </trkpt>
      <trkpt lat="43.165386" lon="-5.786651">
        <ele>970.292</ele>
        <time>1999-07-21T12:52:41Z</time>
      </trkpt>
      <trkpt lat="43.165420" lon="-5.786607">
        <ele>969.820</ele>
        <time>1999-07-21T12:52:42Z</time>
      </trkpt>
      <trkpt lat="43.165475" lon="-5.786497">
        <ele>968.458</ele>
        <time>1999-07-21T12:52:44Z</time>
      </trkpt>
      <trkpt lat="43.165506" lon="-5.786438">
        <ele>968.279</ele>
        <time>1999-07-21T12:52:45Z</time>
      </trkpt>
      <trkpt lat="43.165534" lon="-5.786373">
        <ele>967.425</ele>
        <time>1999-07-21T12:52:46Z</time>
      </trkpt>
      <trkpt lat="43.165556" lon="-5.786299">
        <ele>966.444</ele>
        <time>1999-07-21T12:52:47Z</time>
      </trkpt>
      <trkpt lat="43.165604" lon="-5.786135">
        <ele>965.205</ele>
        <time>1999-07-21T12:52:49Z</time>
      </trkpt>
      <trkpt lat="43.165652" lon="-5.785960">
        <ele>964.615</ele>
        <time>1999-07-21T12:52:52Z</time>
      </trkpt>
      <trkpt lat="43.165673" lon="-5.785914">
        <ele>964.208</ele>
        <time>1999-07-21T12:52:54Z</time>
      </trkpt>
      <trkpt lat="43.165675" lon="-5.785912">
        <ele>963.267</ele>
        <time>1999-07-21T12:52:55Z</time>
      </trkpt>
      <trkpt lat="43.165678" lon="-5.785911">
        <ele>962.812</ele>
        <time>1999-07-21T12:52:56Z</time>
      </trkpt>
      <trkpt lat="43.165757" lon="-5.785884">
        <ele>959.492</ele>
        <time>1999-07-21T12:54:40Z</time>
      </trkpt>
      <trkpt lat="43.165792" lon="-5.785881">
        <ele>959.433</ele>
        <time>1999-07-21T12:54:41Z</time>
      </trkpt>
      <trkpt lat="43.165998" lon="-5.785897">
        <ele>959.211</ele>
        <time>1999-07-21T12:54:45Z</time>
      </trkpt>
      <trkpt lat="43.166251" lon="-5.785897">
        <ele>959.029</ele>
        <time>1999-07-21T12:54:49Z</time>
      </trkpt>
      <trkpt lat="43.166309" lon="-5.785893">
        <ele>958.650</ele>
        <time>1999-07-21T12:54:50Z</time>
      </trkpt>
      <trkpt lat="43.166367" lon="-5.785890">
        <ele>958.216</ele>
        <time>1999-07-21T12:54:51Z</time>
      </trkpt>
      <trkpt lat="43.166428" lon="-5.785878">
        <ele>957.883</ele>
        <time>1999-07-21T12:54:52Z</time>
      </trkpt>
      <trkpt lat="43.166556" lon="-5.785805">
        <ele>956.625</ele>
        <time>1999-07-21T12:54:54Z</time>
      </trkpt>
      <trkpt lat="43.166622" lon="-5.785751">
        <ele>955.817</ele>
        <time>1999-07-21T12:54:55Z</time>
      </trkpt>
      <trkpt lat="43.166690" lon="-5.785690">
        <ele>954.808</ele>
        <time>1999-07-21T12:54:56Z</time>
      </trkpt>
      <trkpt lat="43.166756" lon="-5.785622">
        <ele>953.671</ele>
        <time>1999-07-21T12:54:57Z</time>
      </trkpt>
      <trkpt lat="43.166823" lon="-5.785554">
        <ele>952.846</ele>
        <time>1999-07-21T12:54:58Z</time>
      </trkpt>
      <trkpt lat="43.166892" lon="-5.785486">
        <ele>952.036</ele>
        <time>1999-07-21T12:54:59Z</time>
      </trkpt>
      <trkpt lat="43.167116" lon="-5.785267">
        <ele>951.067</ele>
        <time>1999-07-21T12:55:02Z</time>
      </trkpt>
      <trkpt lat="43.167189" lon="-5.785199">
        <ele>950.265</ele>
        <time>1999-07-21T12:55:03Z</time>
      </trkpt>
      <trkpt lat="43.167256" lon="-5.785140">
        <ele>949.613</ele>
        <time>1999-07-21T12:55:04Z</time>
      </trkpt>
      <trkpt lat="43.167379" lon="-5.785038">
        <ele>948.244</ele>
        <time>1999-07-21T12:55:06Z</time>
      </trkpt>
      <trkpt lat="43.167440" lon="-5.784982">
        <ele>947.430</ele>
        <time>1999-07-21T12:55:07Z</time>
      </trkpt>
      <trkpt lat="43.167501" lon="-5.784917">
        <ele>946.889</ele>
        <time>1999-07-21T12:55:08Z</time>
      </trkpt>
      <trkpt lat="43.167617" lon="-5.784795">
        <ele>945.406</ele>
        <time>1999-07-21T12:55:10Z</time>
      </trkpt>
      <trkpt lat="43.167728" lon="-5.784690">
        <ele>944.026</ele>
        <time>1999-07-21T12:55:12Z</time>
      </trkpt>
      <trkpt lat="43.167791" lon="-5.784645">
        <ele>942.008</ele>
        <time>1999-07-21T12:55:13Z</time>
      </trkpt>
      <trkpt lat="43.167852" lon="-5.784599">
        <ele>940.831</ele>
        <time>1999-07-21T12:55:14Z</time>
      </trkpt>
      <trkpt lat="43.167919" lon="-5.784554">
        <ele>939.646</ele>
        <time>1999-07-21T12:55:15Z</time>
      </trkpt>
      <trkpt lat="43.168059" lon="-5.784457">
        <ele>938.436</ele>
        <time>1999-07-21T12:55:17Z</time>
      </trkpt>
      <trkpt lat="43.168132" lon="-5.784406">
        <ele>937.627</ele>
        <time>1999-07-21T12:55:18Z</time>
      </trkpt>
      <trkpt lat="43.168214" lon="-5.784362">
        <ele>937.225</ele>
        <time>1999-07-21T12:55:19Z</time>
      </trkpt>
      <trkpt lat="43.168378" lon="-5.784292">
        <ele>936.093</ele>
        <time>1999-07-21T12:55:21Z</time>
      </trkpt>
      <trkpt lat="43.168459" lon="-5.784266">
        <ele>935.054</ele>
        <time>1999-07-21T12:55:22Z</time>
      </trkpt>
      <trkpt lat="43.168533" lon="-5.784238">
        <ele>934.480</ele>
        <time>1999-07-21T12:55:23Z</time>
      </trkpt>
      <trkpt lat="43.168611" lon="-5.784213">
        <ele>933.861</ele>
        <time>1999-07-21T12:55:24Z</time>
      </trkpt>
      <trkpt lat="43.168692" lon="-5.784187">
        <ele>932.821</ele>
        <time>1999-07-21T12:55:25Z</time>
      </trkpt>
      <trkpt lat="43.168865" lon="-5.784136">
        <ele>931.013</ele>
        <time>1999-07-21T12:55:27Z</time>
      </trkpt>
      <trkpt lat="43.168959" lon="-5.784109">
        <ele>930.608</ele>
        <time>1999-07-21T12:55:28Z</time>
      </trkpt>
      <trkpt lat="43.169051" lon="-5.784076">
        <ele>929.849</ele>
        <time>1999-07-21T12:55:29Z</time>
      </trkpt>
      <trkpt lat="43.169148" lon="-5.784047">
        <ele>928.854</ele>
        <time>1999-07-21T12:55:30Z</time>
      </trkpt>
      <trkpt lat="43.169235" lon="-5.784016">
        <ele>928.034</ele>
        <time>1999-07-21T12:55:31Z</time>
      </trkpt>
      <trkpt lat="43.169320" lon="-5.783981">
        <ele>927.435</ele>
        <time>1999-07-21T12:55:32Z</time>
      </trkpt>
      <trkpt lat="43.169408" lon="-5.783949">
        <ele>926.813</ele>
        <time>1999-07-21T12:55:33Z</time>
      </trkpt>
      <trkpt lat="43.169491" lon="-5.783918">
        <ele>925.881</ele>
        <time>1999-07-21T12:55:34Z</time>
      </trkpt>
      <trkpt lat="43.169661" lon="-5.783867">
        <ele>924.052</ele>
        <time>1999-07-21T12:55:36Z</time>
      </trkpt>
      <trkpt lat="43.169832" lon="-5.783797">
        <ele>922.868</ele>
        <time>1999-07-21T12:55:38Z</time>
      </trkpt>
      <trkpt lat="43.169906" lon="-5.783751">
        <ele>921.637</ele>
        <time>1999-07-21T12:55:39Z</time>
      </trkpt>
      <trkpt lat="43.169984" lon="-5.783708">
        <ele>918.249</ele>
        <time>1999-07-21T12:55:40Z</time>
      </trkpt>
      <trkpt lat="43.170140" lon="-5.783646">
        <ele>916.813</ele>
        <time>1999-07-21T12:55:42Z</time>
      </trkpt>
      <trkpt lat="43.170215" lon="-5.783623">
        <ele>915.208</ele>
        <time>1999-07-21T12:55:43Z</time>
      </trkpt>
      <trkpt lat="43.170345" lon="-5.783572">
        <ele>913.626</ele>
        <time>1999-07-21T12:55:45Z</time>
      </trkpt>
      <trkpt lat="43.170385" lon="-5.783531">
        <ele>912.681</ele>
        <time>1999-07-21T12:55:46Z</time>
      </trkpt>
      <trkpt lat="43.170417" lon="-5.783477">
        <ele>911.681</ele>
        <time>1999-07-21T12:55:47Z</time>
      </trkpt>
      <trkpt lat="43.170401" lon="-5.783384">
        <ele>910.282</ele>
        <time>1999-07-21T12:55:49Z</time>
      </trkpt>
      <trkpt lat="43.170304" lon="-5.783336">
        <ele>908.040</ele>
        <time>1999-07-21T12:55:51Z</time>
      </trkpt>
      <trkpt lat="43.170170" lon="-5.783346">
        <ele>906.048</ele>
        <time>1999-07-21T12:55:53Z</time>
      </trkpt>
      <trkpt lat="43.170097" lon="-5.783353">
        <ele>904.869</ele>
        <time>1999-07-21T12:55:54Z</time>
      </trkpt>
      <trkpt lat="43.170022" lon="-5.783356">
        <ele>903.855</ele>
        <time>1999-07-21T12:55:55Z</time>
      </trkpt>
      <trkpt lat="43.169854" lon="-5.783357">
        <ele>902.432</ele>
        <time>1999-07-21T12:55:57Z</time>
      </trkpt>
      <trkpt lat="43.169671" lon="-5.783344">
        <ele>901.492</ele>
        <time>1999-07-21T12:55:59Z</time>
      </trkpt>
      <trkpt lat="43.169578" lon="-5.783331">
        <ele>900.611</ele>
        <time>1999-07-21T12:56:00Z</time>
      </trkpt>
      <trkpt lat="43.169482" lon="-5.783319">
        <ele>900.208</ele>
        <time>1999-07-21T12:56:01Z</time>
      </trkpt>
      <trkpt lat="43.169223" lon="-5.783273">
        <ele>898.616</ele>
        <time>1999-07-21T12:56:04Z</time>
      </trkpt>
      <trkpt lat="43.169136" lon="-5.783260">
        <ele>898.041</ele>
        <time>1999-07-21T12:56:05Z</time>
      </trkpt>
      <trkpt lat="43.169052" lon="-5.783248">
        <ele>897.421</ele>
        <time>1999-07-21T12:56:06Z</time>
      </trkpt>
      <trkpt lat="43.168835" lon="-5.783230">
        <ele>896.692</ele>
        <time>1999-07-21T12:56:09Z</time>
      </trkpt>
      <trkpt lat="43.168788" lon="-5.783217">
        <ele>896.030</ele>
        <time>1999-07-21T12:56:10Z</time>
      </trkpt>
      <trkpt lat="43.168751" lon="-5.783147">
        <ele>894.418</ele>
        <time>1999-07-21T12:56:12Z</time>
      </trkpt>
      <trkpt lat="43.168795" lon="-5.783065">
        <ele>893.489</ele>
        <time>1999-07-21T12:56:14Z</time>
      </trkpt>
      <trkpt lat="43.168843" lon="-5.783044">
        <ele>892.485</ele>
        <time>1999-07-21T12:56:15Z</time>
      </trkpt>
      <trkpt lat="43.168904" lon="-5.783032">
        <ele>891.469</ele>
        <time>1999-07-21T12:56:16Z</time>
      </trkpt>
      <trkpt lat="43.168971" lon="-5.783016">
        <ele>890.804</ele>
        <time>1999-07-21T12:56:17Z</time>
      </trkpt>
      <trkpt lat="43.169046" lon="-5.782999">
        <ele>889.824</ele>
        <time>1999-07-21T12:56:18Z</time>
      </trkpt>
      <trkpt lat="43.169126" lon="-5.782982">
        <ele>889.008</ele>
        <time>1999-07-21T12:56:19Z</time>
      </trkpt>
      <trkpt lat="43.169209" lon="-5.782968">
        <ele>888.439</ele>
        <time>1999-07-21T12:56:20Z</time>
      </trkpt>
      <trkpt lat="43.169379" lon="-5.782940">
        <ele>887.294</ele>
        <time>1999-07-21T12:56:22Z</time>
      </trkpt>
      <trkpt lat="43.169558" lon="-5.782892">
        <ele>886.024</ele>
        <time>1999-07-21T12:56:24Z</time>
      </trkpt>
      <trkpt lat="43.169646" lon="-5.782862">
        <ele>885.415</ele>
        <time>1999-07-21T12:56:25Z</time>
      </trkpt>
      <trkpt lat="43.169736" lon="-5.782828">
        <ele>884.853</ele>
        <time>1999-07-21T12:56:26Z</time>
      </trkpt>
      <trkpt lat="43.170014" lon="-5.782698">
        <ele>883.421</ele>
        <time>1999-07-21T12:56:29Z</time>
      </trkpt>
      <trkpt lat="43.170208" lon="-5.782590">
        <ele>882.272</ele>
        <time>1999-07-21T12:56:31Z</time>
      </trkpt>
      <trkpt lat="43.170499" lon="-5.782362">
        <ele>880.878</ele>
        <time>1999-07-21T12:56:34Z</time>
      </trkpt>
      <trkpt lat="43.170591" lon="-5.782269">
        <ele>880.287</ele>
        <time>1999-07-21T12:56:35Z</time>
      </trkpt>
      <trkpt lat="43.170680" lon="-5.782175">
        <ele>879.642</ele>
        <time>1999-07-21T12:56:36Z</time>
      </trkpt>
      <trkpt lat="43.170837" lon="-5.781997">
        <ele>878.426</ele>
        <time>1999-07-21T12:56:38Z</time>
      </trkpt>
      <trkpt lat="43.170907" lon="-5.781915">
        <ele>877.008</ele>
        <time>1999-07-21T12:56:39Z</time>
      </trkpt>
      <trkpt lat="43.170969" lon="-5.781837">
        <ele>875.811</ele>
        <time>1999-07-21T12:56:40Z</time>
      </trkpt>
      <trkpt lat="43.171067" lon="-5.781687">
        <ele>874.426</ele>
        <time>1999-07-21T12:56:42Z</time>
      </trkpt>
      <trkpt lat="43.171107" lon="-5.781610">
        <ele>873.236</ele>
        <time>1999-07-21T12:56:43Z</time>
      </trkpt>
      <trkpt lat="43.171147" lon="-5.781533">
        <ele>872.057</ele>
        <time>1999-07-21T12:56:44Z</time>
      </trkpt>
      <trkpt lat="43.171198" lon="-5.781462">
        <ele>870.845</ele>
        <time>1999-07-21T12:56:45Z</time>
      </trkpt>
      <trkpt lat="43.171262" lon="-5.781400">
        <ele>869.813</ele>
        <time>1999-07-21T12:56:46Z</time>
      </trkpt>
      <trkpt lat="43.171334" lon="-5.781347">
        <ele>868.464</ele>
        <time>1999-07-21T12:56:47Z</time>
      </trkpt>
      <trkpt lat="43.171407" lon="-5.781306">
        <ele>867.220</ele>
        <time>1999-07-21T12:56:48Z</time>
      </trkpt>
      <trkpt lat="43.171475" lon="-5.781282">
        <ele>866.011</ele>
        <time>1999-07-21T12:56:49Z</time>
      </trkpt>
      <trkpt lat="43.171542" lon="-5.781270">
        <ele>865.021</ele>
        <time>1999-07-21T12:56:50Z</time>
      </trkpt>
      <trkpt lat="43.171601" lon="-5.781266">
        <ele>864.003</ele>
        <time>1999-07-21T12:56:51Z</time>
      </trkpt>
      <trkpt lat="43.171658" lon="-5.781251">
        <ele>863.208</ele>
        <time>1999-07-21T12:56:52Z</time>
      </trkpt>
      <trkpt lat="43.171700" lon="-5.781212">
        <ele>862.644</ele>
        <time>1999-07-21T12:56:53Z</time>
      </trkpt>
      <trkpt lat="43.171713" lon="-5.781153">
        <ele>861.859</ele>
        <time>1999-07-21T12:56:54Z</time>
      </trkpt>
      <trkpt lat="43.171697" lon="-5.781096">
        <ele>861.099</ele>
        <time>1999-07-21T12:56:55Z</time>
      </trkpt>
      <trkpt lat="43.171648" lon="-5.781061">
        <ele>860.220</ele>
        <time>1999-07-21T12:56:56Z</time>
      </trkpt>
      <trkpt lat="43.171586" lon="-5.781043">
        <ele>859.078</ele>
        <time>1999-07-21T12:56:57Z</time>
      </trkpt>
      <trkpt lat="43.171435" lon="-5.781055">
        <ele>857.496</ele>
        <time>1999-07-21T12:56:59Z</time>
      </trkpt>
      <trkpt lat="43.171359" lon="-5.781072">
        <ele>856.657</ele>
        <time>1999-07-21T12:57:00Z</time>
      </trkpt>
      <trkpt lat="43.171286" lon="-5.781096">
        <ele>854.493</ele>
        <time>1999-07-21T12:57:01Z</time>
      </trkpt>
      <trkpt lat="43.171135" lon="-5.781143">
        <ele>852.687</ele>
        <time>1999-07-21T12:57:03Z</time>
      </trkpt>
      <trkpt lat="43.171069" lon="-5.781154">
        <ele>852.042</ele>
        <time>1999-07-21T12:57:04Z</time>
      </trkpt>
      <trkpt lat="43.171016" lon="-5.781142">
        <ele>851.626</ele>
        <time>1999-07-21T12:57:05Z</time>
      </trkpt>
      <trkpt lat="43.170979" lon="-5.781103">
        <ele>851.208</ele>
        <time>1999-07-21T12:57:06Z</time>
      </trkpt>
      <trkpt lat="43.170969" lon="-5.781044">
        <ele>851.061</ele>
        <time>1999-07-21T12:57:07Z</time>
      </trkpt>
      <trkpt lat="43.170978" lon="-5.780987">
        <ele>850.876</ele>
        <time>1999-07-21T12:57:08Z</time>
      </trkpt>
      <trkpt lat="43.171001" lon="-5.780937">
        <ele>850.436</ele>
        <time>1999-07-21T12:57:09Z</time>
      </trkpt>
      <trkpt lat="43.171097" lon="-5.780867">
        <ele>850.027</ele>
        <time>1999-07-21T12:57:11Z</time>
      </trkpt>
      <trkpt lat="43.171161" lon="-5.780830">
        <ele>849.235</ele>
        <time>1999-07-21T12:57:12Z</time>
      </trkpt>
      <trkpt lat="43.171234" lon="-5.780797">
        <ele>848.643</ele>
        <time>1999-07-21T12:57:13Z</time>
      </trkpt>
      <trkpt lat="43.171310" lon="-5.780773">
        <ele>848.054</ele>
        <time>1999-07-21T12:57:14Z</time>
      </trkpt>
      <trkpt lat="43.171386" lon="-5.780749">
        <ele>847.410</ele>
        <time>1999-07-21T12:57:15Z</time>
      </trkpt>
      <trkpt lat="43.171542" lon="-5.780703">
        <ele>846.644</ele>
        <time>1999-07-21T12:57:17Z</time>
      </trkpt>
      <trkpt lat="43.171705" lon="-5.780677">
        <ele>845.605</ele>
        <time>1999-07-21T12:57:19Z</time>
      </trkpt>
      <trkpt lat="43.171782" lon="-5.780670">
        <ele>844.815</ele>
        <time>1999-07-21T12:57:20Z</time>
      </trkpt>
      <trkpt lat="43.171856" lon="-5.780670">
        <ele>844.008</ele>
        <time>1999-07-21T12:57:21Z</time>
      </trkpt>
      <trkpt lat="43.171983" lon="-5.780652">
        <ele>842.457</ele>
        <time>1999-07-21T12:57:23Z</time>
      </trkpt>
      <trkpt lat="43.172025" lon="-5.780618">
        <ele>841.852</ele>
        <time>1999-07-21T12:57:24Z</time>
      </trkpt>
      <trkpt lat="43.172043" lon="-5.780571">
        <ele>841.222</ele>
        <time>1999-07-21T12:57:25Z</time>
      </trkpt>
      <trkpt lat="43.172035" lon="-5.780517">
        <ele>840.613</ele>
        <time>1999-07-21T12:57:26Z</time>
      </trkpt>
      <trkpt lat="43.172005" lon="-5.780467">
        <ele>840.241</ele>
        <time>1999-07-21T12:57:27Z</time>
      </trkpt>
      <trkpt lat="43.171956" lon="-5.780430">
        <ele>838.479</ele>
        <time>1999-07-21T12:57:28Z</time>
      </trkpt>
      <trkpt lat="43.171889" lon="-5.780407">
        <ele>837.290</ele>
        <time>1999-07-21T12:57:29Z</time>
      </trkpt>
      <trkpt lat="43.171754" lon="-5.780376">
        <ele>835.256</ele>
        <time>1999-07-21T12:57:31Z</time>
      </trkpt>
      <trkpt lat="43.171682" lon="-5.780364">
        <ele>834.661</ele>
        <time>1999-07-21T12:57:32Z</time>
      </trkpt>
      <trkpt lat="43.171607" lon="-5.780351">
        <ele>834.021</ele>
        <time>1999-07-21T12:57:33Z</time>
      </trkpt>
      <trkpt lat="43.171531" lon="-5.780335">
        <ele>833.413</ele>
        <time>1999-07-21T12:57:34Z</time>
      </trkpt>
      <trkpt lat="43.171457" lon="-5.780313">
        <ele>833.008</ele>
        <time>1999-07-21T12:57:35Z</time>
      </trkpt>
      <trkpt lat="43.171338" lon="-5.780245">
        <ele>832.079</ele>
        <time>1999-07-21T12:57:37Z</time>
      </trkpt>
      <trkpt lat="43.171296" lon="-5.780196">
        <ele>831.664</ele>
        <time>1999-07-21T12:57:38Z</time>
      </trkpt>
      <trkpt lat="43.171271" lon="-5.780067">
        <ele>831.234</ele>
        <time>1999-07-21T12:57:40Z</time>
      </trkpt>
      <trkpt lat="43.171333" lon="-5.779955">
        <ele>830.455</ele>
        <time>1999-07-21T12:57:42Z</time>
      </trkpt>
      <trkpt lat="43.171389" lon="-5.779920">
        <ele>830.063</ele>
        <time>1999-07-21T12:57:43Z</time>
      </trkpt>
      <trkpt lat="43.171458" lon="-5.779894">
        <ele>829.411</ele>
        <time>1999-07-21T12:57:44Z</time>
      </trkpt>
      <trkpt lat="43.171532" lon="-5.779870">
        <ele>828.842</ele>
        <time>1999-07-21T12:57:45Z</time>
      </trkpt>
      <trkpt lat="43.171610" lon="-5.779849">
        <ele>828.238</ele>
        <time>1999-07-21T12:57:46Z</time>
      </trkpt>
      <trkpt lat="43.171700" lon="-5.779831">
        <ele>827.684</ele>
        <time>1999-07-21T12:57:47Z</time>
      </trkpt>
      <trkpt lat="43.171793" lon="-5.779817">
        <ele>827.007</ele>
        <time>1999-07-21T12:57:48Z</time>
      </trkpt>
      <trkpt lat="43.171970" lon="-5.779799">
        <ele>825.617</ele>
        <time>1999-07-21T12:57:50Z</time>
      </trkpt>
      <trkpt lat="43.172134" lon="-5.779788">
        <ele>824.408</ele>
        <time>1999-07-21T12:57:52Z</time>
      </trkpt>
      <trkpt lat="43.172268" lon="-5.779770">
        <ele>823.251</ele>
        <time>1999-07-21T12:57:54Z</time>
      </trkpt>
      <trkpt lat="43.172325" lon="-5.779749">
        <ele>821.896</ele>
        <time>1999-07-21T12:57:55Z</time>
      </trkpt>
      <trkpt lat="43.172382" lon="-5.779717">
        <ele>821.066</ele>
        <time>1999-07-21T12:57:56Z</time>
      </trkpt>
      <trkpt lat="43.172433" lon="-5.779675">
        <ele>820.027</ele>
        <time>1999-07-21T12:57:57Z</time>
      </trkpt>
      <trkpt lat="43.172475" lon="-5.779618">
        <ele>818.895</ele>
        <time>1999-07-21T12:57:58Z</time>
      </trkpt>
      <trkpt lat="43.172510" lon="-5.779553">
        <ele>817.493</ele>
        <time>1999-07-21T12:57:59Z</time>
      </trkpt>
      <trkpt lat="43.172545" lon="-5.779487">
        <ele>816.254</ele>
        <time>1999-07-21T12:58:00Z</time>
      </trkpt>
      <trkpt lat="43.172591" lon="-5.779424">
        <ele>814.890</ele>
        <time>1999-07-21T12:58:01Z</time>
      </trkpt>
      <trkpt lat="43.172643" lon="-5.779367">
        <ele>813.626</ele>
        <time>1999-07-21T12:58:02Z</time>
      </trkpt>
      <trkpt lat="43.172706" lon="-5.779320">
        <ele>812.447</ele>
        <time>1999-07-21T12:58:03Z</time>
      </trkpt>
      <trkpt lat="43.172832" lon="-5.779273">
        <ele>811.011</ele>
        <time>1999-07-21T12:58:05Z</time>
      </trkpt>
      <trkpt lat="43.172966" lon="-5.779261">
        <ele>809.008</ele>
        <time>1999-07-21T12:58:07Z</time>
      </trkpt>
      <trkpt lat="43.173091" lon="-5.779277">
        <ele>807.645</ele>
        <time>1999-07-21T12:58:09Z</time>
      </trkpt>
      <trkpt lat="43.173218" lon="-5.779329">
        <ele>806.830</ele>
        <time>1999-07-21T12:58:11Z</time>
      </trkpt>
      <trkpt lat="43.173275" lon="-5.779346">
        <ele>806.660</ele>
        <time>1999-07-21T12:58:12Z</time>
      </trkpt>
      <trkpt lat="43.173331" lon="-5.779345">
        <ele>806.291</ele>
        <time>1999-07-21T12:58:13Z</time>
      </trkpt>
      <trkpt lat="43.173434" lon="-5.779273">
        <ele>805.629</ele>
        <time>1999-07-21T12:58:15Z</time>
      </trkpt>
      <trkpt lat="43.173483" lon="-5.779212">
        <ele>805.657</ele>
        <time>1999-07-21T12:58:16Z</time>
      </trkpt>
      <trkpt lat="43.173531" lon="-5.779143">
        <ele>805.218</ele>
        <time>1999-07-21T12:58:17Z</time>
      </trkpt>
      <trkpt lat="43.173609" lon="-5.778992">
        <ele>803.644</ele>
        <time>1999-07-21T12:58:19Z</time>
      </trkpt>
      <trkpt lat="43.173660" lon="-5.778830">
        <ele>802.282</ele>
        <time>1999-07-21T12:58:21Z</time>
      </trkpt>
      <trkpt lat="43.173669" lon="-5.778749">
        <ele>800.443</ele>
        <time>1999-07-21T12:58:22Z</time>
      </trkpt>
      <trkpt lat="43.173676" lon="-5.778669">
        <ele>799.617</ele>
        <time>1999-07-21T12:58:23Z</time>
      </trkpt>
      <trkpt lat="43.173685" lon="-5.778594">
        <ele>798.808</ele>
        <time>1999-07-21T12:58:24Z</time>
      </trkpt>
      <trkpt lat="43.173705" lon="-5.778527">
        <ele>797.691</ele>
        <time>1999-07-21T12:58:25Z</time>
      </trkpt>
      <trkpt lat="43.173741" lon="-5.778467">
        <ele>796.046</ele>
        <time>1999-07-21T12:58:26Z</time>
      </trkpt>
      <trkpt lat="43.173790" lon="-5.778411">
        <ele>795.036</ele>
        <time>1999-07-21T12:58:27Z</time>
      </trkpt>
      <trkpt lat="43.173905" lon="-5.778301">
        <ele>793.237</ele>
        <time>1999-07-21T12:58:29Z</time>
      </trkpt>
      <trkpt lat="43.173959" lon="-5.778241">
        <ele>792.235</ele>
        <time>1999-07-21T12:58:30Z</time>
      </trkpt>
      <trkpt lat="43.174016" lon="-5.778183">
        <ele>791.443</ele>
        <time>1999-07-21T12:58:31Z</time>
      </trkpt>
      <trkpt lat="43.174128" lon="-5.778086">
        <ele>790.024</ele>
        <time>1999-07-21T12:58:33Z</time>
      </trkpt>
      <trkpt lat="43.174235" lon="-5.778001">
        <ele>789.460</ele>
        <time>1999-07-21T12:58:35Z</time>
      </trkpt>
      <trkpt lat="43.174291" lon="-5.777951">
        <ele>788.844</ele>
        <time>1999-07-21T12:58:36Z</time>
      </trkpt>
      <trkpt lat="43.174349" lon="-5.777904">
        <ele>788.405</ele>
        <time>1999-07-21T12:58:37Z</time>
      </trkpt>
      <trkpt lat="43.174414" lon="-5.777873">
        <ele>787.415</ele>
        <time>1999-07-21T12:58:38Z</time>
      </trkpt>
      <trkpt lat="43.174490" lon="-5.777869">
        <ele>786.408</ele>
        <time>1999-07-21T12:58:39Z</time>
      </trkpt>
      <trkpt lat="43.174643" lon="-5.777938">
        <ele>784.097</ele>
        <time>1999-07-21T12:58:41Z</time>
      </trkpt>
      <trkpt lat="43.174716" lon="-5.778004">
        <ele>782.652</ele>
        <time>1999-07-21T12:58:42Z</time>
      </trkpt>
      <trkpt lat="43.174833" lon="-5.778179">
        <ele>781.022</ele>
        <time>1999-07-21T12:58:44Z</time>
      </trkpt>
      <trkpt lat="43.174873" lon="-5.778274">
        <ele>780.243</ele>
        <time>1999-07-21T12:58:45Z</time>
      </trkpt>
      <trkpt lat="43.174904" lon="-5.778373">
        <ele>779.441</ele>
        <time>1999-07-21T12:58:46Z</time>
      </trkpt>
      <trkpt lat="43.174945" lon="-5.778590">
        <ele>777.479</ele>
        <time>1999-07-21T12:58:48Z</time>
      </trkpt>
      <trkpt lat="43.174961" lon="-5.778707">
        <ele>777.010</ele>
        <time>1999-07-21T12:58:49Z</time>
      </trkpt>
      <trkpt lat="43.174980" lon="-5.778827">
        <ele>775.856</ele>
        <time>1999-07-21T12:58:50Z</time>
      </trkpt>
      <trkpt lat="43.175037" lon="-5.779062">
        <ele>774.446</ele>
        <time>1999-07-21T12:58:52Z</time>
      </trkpt>
      <trkpt lat="43.175074" lon="-5.779171">
        <ele>773.688</ele>
        <time>1999-07-21T12:58:53Z</time>
      </trkpt>
      <trkpt lat="43.175116" lon="-5.779274">
        <ele>772.416</ele>
        <time>1999-07-21T12:58:54Z</time>
      </trkpt>
      <trkpt lat="43.175227" lon="-5.779454">
        <ele>770.808</ele>
        <time>1999-07-21T12:58:56Z</time>
      </trkpt>
      <trkpt lat="43.175296" lon="-5.779521">
        <ele>770.047</ele>
        <time>1999-07-21T12:58:57Z</time>
      </trkpt>
      <trkpt lat="43.175364" lon="-5.779577">
        <ele>769.412</ele>
        <time>1999-07-21T12:58:58Z</time>
      </trkpt>
      <trkpt lat="43.175427" lon="-5.779627">
        <ele>769.022</ele>
        <time>1999-07-21T12:58:59Z</time>
      </trkpt>
      <trkpt lat="43.175491" lon="-5.779672">
        <ele>768.433</ele>
        <time>1999-07-21T12:59:00Z</time>
      </trkpt>
      <trkpt lat="43.175567" lon="-5.779703">
        <ele>768.021</ele>
        <time>1999-07-21T12:59:01Z</time>
      </trkpt>
      <trkpt lat="43.175723" lon="-5.779788">
        <ele>766.459</ele>
        <time>1999-07-21T12:59:03Z</time>
      </trkpt>
      <trkpt lat="43.175876" lon="-5.779900">
        <ele>765.060</ele>
        <time>1999-07-21T12:59:05Z</time>
      </trkpt>
      <trkpt lat="43.176014" lon="-5.780039">
        <ele>764.256</ele>
        <time>1999-07-21T12:59:07Z</time>
      </trkpt>
      <trkpt lat="43.176140" lon="-5.780186">
        <ele>762.258</ele>
        <time>1999-07-21T12:59:09Z</time>
      </trkpt>
      <trkpt lat="43.176196" lon="-5.780254">
        <ele>761.452</ele>
        <time>1999-07-21T12:59:10Z</time>
      </trkpt>
      <trkpt lat="43.176250" lon="-5.780325">
        <ele>760.417</ele>
        <time>1999-07-21T12:59:11Z</time>
      </trkpt>
      <trkpt lat="43.176305" lon="-5.780395">
        <ele>759.208</ele>
        <time>1999-07-21T12:59:12Z</time>
      </trkpt>
      <trkpt lat="43.176364" lon="-5.780464">
        <ele>757.818</ele>
        <time>1999-07-21T12:59:13Z</time>
      </trkpt>
      <trkpt lat="43.176432" lon="-5.780528">
        <ele>756.263</ele>
        <time>1999-07-21T12:59:14Z</time>
      </trkpt>
      <trkpt lat="43.176502" lon="-5.780580">
        <ele>754.483</ele>
        <time>1999-07-21T12:59:15Z</time>
      </trkpt>
      <trkpt lat="43.176568" lon="-5.780613">
        <ele>752.474</ele>
        <time>1999-07-21T12:59:16Z</time>
      </trkpt>
      <trkpt lat="43.176633" lon="-5.780628">
        <ele>750.462</ele>
        <time>1999-07-21T12:59:17Z</time>
      </trkpt>
      <trkpt lat="43.176695" lon="-5.780621">
        <ele>746.670</ele>
        <time>1999-07-21T12:59:18Z</time>
      </trkpt>
      <trkpt lat="43.176749" lon="-5.780585">
        <ele>745.021</ele>
        <time>1999-07-21T12:59:19Z</time>
      </trkpt>
      <trkpt lat="43.176788" lon="-5.780520">
        <ele>743.667</ele>
        <time>1999-07-21T12:59:20Z</time>
      </trkpt>
      <trkpt lat="43.176819" lon="-5.780437">
        <ele>742.235</ele>
        <time>1999-07-21T12:59:21Z</time>
      </trkpt>
      <trkpt lat="43.176844" lon="-5.780352">
        <ele>740.686</ele>
        <time>1999-07-21T12:59:22Z</time>
      </trkpt>
      <trkpt lat="43.176874" lon="-5.780263">
        <ele>739.014</ele>
        <time>1999-07-21T12:59:23Z</time>
      </trkpt>
      <trkpt lat="43.176906" lon="-5.780175">
        <ele>737.808</ele>
        <time>1999-07-21T12:59:24Z</time>
      </trkpt>
      <trkpt lat="43.176943" lon="-5.780088">
        <ele>736.636</ele>
        <time>1999-07-21T12:59:25Z</time>
      </trkpt>
      <trkpt lat="43.176976" lon="-5.780001">
        <ele>735.481</ele>
        <time>1999-07-21T12:59:26Z</time>
      </trkpt>
      <trkpt lat="43.177008" lon="-5.779915">
        <ele>734.471</ele>
        <time>1999-07-21T12:59:27Z</time>
      </trkpt>
      <trkpt lat="43.177069" lon="-5.779764">
        <ele>732.882</ele>
        <time>1999-07-21T12:59:29Z</time>
      </trkpt>
      <trkpt lat="43.177108" lon="-5.779697">
        <ele>732.220</ele>
        <time>1999-07-21T12:59:30Z</time>
      </trkpt>
      <trkpt lat="43.177164" lon="-5.779640">
        <ele>731.488</ele>
        <time>1999-07-21T12:59:31Z</time>
      </trkpt>
      <trkpt lat="43.177234" lon="-5.779588">
        <ele>730.659</ele>
        <time>1999-07-21T12:59:32Z</time>
      </trkpt>
      <trkpt lat="43.177316" lon="-5.779533">
        <ele>729.665</ele>
        <time>1999-07-21T12:59:33Z</time>
      </trkpt>
      <trkpt lat="43.177402" lon="-5.779480">
        <ele>728.239</ele>
        <time>1999-07-21T12:59:34Z</time>
      </trkpt>
      <trkpt lat="43.177494" lon="-5.779437">
        <ele>726.601</ele>
        <time>1999-07-21T12:59:35Z</time>
      </trkpt>
      <trkpt lat="43.177581" lon="-5.779407">
        <ele>725.421</ele>
        <time>1999-07-21T12:59:36Z</time>
      </trkpt>
      <trkpt lat="43.177664" lon="-5.779392">
        <ele>723.808</ele>
        <time>1999-07-21T12:59:37Z</time>
      </trkpt>
      <trkpt lat="43.177734" lon="-5.779407">
        <ele>722.636</ele>
        <time>1999-07-21T12:59:38Z</time>
      </trkpt>
      <trkpt lat="43.177802" lon="-5.779434">
        <ele>721.871</ele>
        <time>1999-07-21T12:59:39Z</time>
      </trkpt>
      <trkpt lat="43.177865" lon="-5.779478">
        <ele>720.631</ele>
        <time>1999-07-21T12:59:40Z</time>
      </trkpt>
      <trkpt lat="43.177923" lon="-5.779531">
        <ele>719.212</ele>
        <time>1999-07-21T12:59:41Z</time>
      </trkpt>
      <trkpt lat="43.177981" lon="-5.779593">
        <ele>718.010</ele>
        <time>1999-07-21T12:59:42Z</time>
      </trkpt>
      <trkpt lat="43.178088" lon="-5.779744">
        <ele>716.498</ele>
        <time>1999-07-21T12:59:44Z</time>
      </trkpt>
      <trkpt lat="43.178169" lon="-5.779916">
        <ele>713.819</ele>
        <time>1999-07-21T12:59:46Z</time>
      </trkpt>
      <trkpt lat="43.178209" lon="-5.779997">
        <ele>713.455</ele>
        <time>1999-07-21T12:59:47Z</time>
      </trkpt>
      <trkpt lat="43.178297" lon="-5.780134">
        <ele>713.289</ele>
        <time>1999-07-21T12:59:49Z</time>
      </trkpt>
      <trkpt lat="43.178343" lon="-5.780169">
        <ele>712.806</ele>
        <time>1999-07-21T12:59:50Z</time>
      </trkpt>
      <trkpt lat="43.178445" lon="-5.780161">
        <ele>711.426</ele>
        <time>1999-07-21T12:59:52Z</time>
      </trkpt>
      <trkpt lat="43.178494" lon="-5.780131">
        <ele>710.808</ele>
        <time>1999-07-21T12:59:53Z</time>
      </trkpt>
      <trkpt lat="43.178544" lon="-5.780096">
        <ele>710.211</ele>
        <time>1999-07-21T12:59:54Z</time>
      </trkpt>
      <trkpt lat="43.178634" lon="-5.780047">
        <ele>708.656</ele>
        <time>1999-07-21T12:59:56Z</time>
      </trkpt>
      <trkpt lat="43.178668" lon="-5.780063">
        <ele>707.666</ele>
        <time>1999-07-21T12:59:57Z</time>
      </trkpt>
      <trkpt lat="43.178706" lon="-5.780090">
        <ele>706.887</ele>
        <time>1999-07-21T12:59:58Z</time>
      </trkpt>
      <trkpt lat="43.178797" lon="-5.780143">
        <ele>705.055</ele>
        <time>1999-07-21T13:00:00Z</time>
      </trkpt>
      <trkpt lat="43.178854" lon="-5.780141">
        <ele>704.023</ele>
        <time>1999-07-21T13:00:01Z</time>
      </trkpt>
      <trkpt lat="43.178919" lon="-5.780115">
        <ele>702.874</ele>
        <time>1999-07-21T13:00:02Z</time>
      </trkpt>
      <trkpt lat="43.178980" lon="-5.780065">
        <ele>701.250</ele>
        <time>1999-07-21T13:00:03Z</time>
      </trkpt>
      <trkpt lat="43.179043" lon="-5.779995">
        <ele>700.065</ele>
        <time>1999-07-21T13:00:04Z</time>
      </trkpt>
      <trkpt lat="43.179101" lon="-5.779923">
        <ele>698.868</ele>
        <time>1999-07-21T13:00:05Z</time>
      </trkpt>
      <trkpt lat="43.179218" lon="-5.779797">
        <ele>697.014</ele>
        <time>1999-07-21T13:00:07Z</time>
      </trkpt>
      <trkpt lat="43.179349" lon="-5.779684">
        <ele>695.408</ele>
        <time>1999-07-21T13:00:09Z</time>
      </trkpt>
      <trkpt lat="43.179415" lon="-5.779619">
        <ele>694.669</ele>
        <time>1999-07-21T13:00:10Z</time>
      </trkpt>
      <trkpt lat="43.179481" lon="-5.779553">
        <ele>693.654</ele>
        <time>1999-07-21T13:00:11Z</time>
      </trkpt>
      <trkpt lat="43.179620" lon="-5.779432">
        <ele>692.444</ele>
        <time>1999-07-21T13:00:13Z</time>
      </trkpt>
      <trkpt lat="43.179697" lon="-5.779377">
        <ele>691.645</ele>
        <time>1999-07-21T13:00:14Z</time>
      </trkpt>
      <trkpt lat="43.179769" lon="-5.779335">
        <ele>691.213</ele>
        <time>1999-07-21T13:00:15Z</time>
      </trkpt>
      <trkpt lat="43.179827" lon="-5.779308">
        <ele>690.851</ele>
        <time>1999-07-21T13:00:16Z</time>
      </trkpt>
      <trkpt lat="43.179863" lon="-5.779300">
        <ele>690.492</ele>
        <time>1999-07-21T13:00:17Z</time>
      </trkpt>
      <trkpt lat="43.179891" lon="-5.779312">
        <ele>689.878</ele>
        <time>1999-07-21T13:00:18Z</time>
      </trkpt>
      <trkpt lat="43.179917" lon="-5.779356">
        <ele>688.829</ele>
        <time>1999-07-21T13:00:20Z</time>
      </trkpt>
      <trkpt lat="43.179925" lon="-5.779380">
        <ele>688.400</ele>
        <time>1999-07-21T13:00:21Z</time>
      </trkpt>
      <trkpt lat="43.179947" lon="-5.779430">
        <ele>687.220</ele>
        <time>1999-07-21T13:00:23Z</time>
      </trkpt>
      <trkpt lat="43.179960" lon="-5.779456">
        <ele>686.008</ele>
        <time>1999-07-21T13:00:24Z</time>
      </trkpt>
      <trkpt lat="43.179990" lon="-5.779503">
        <ele>685.085</ele>
        <time>1999-07-21T13:00:26Z</time>
      </trkpt>
      <trkpt lat="43.180019" lon="-5.779562">
        <ele>684.890</ele>
        <time>1999-07-21T13:00:28Z</time>
      </trkpt>
      <trkpt lat="43.180064" lon="-5.779661">
        <ele>684.620</ele>
        <time>1999-07-21T13:00:31Z</time>
      </trkpt>
      <trkpt lat="43.180132" lon="-5.779764">
        <ele>684.611</ele>
        <time>1999-07-21T13:00:34Z</time>
      </trkpt>
      <trkpt lat="43.180224" lon="-5.779868">
        <ele>685.029</ele>
        <time>1999-07-21T13:00:37Z</time>
      </trkpt>
      <trkpt lat="43.180310" lon="-5.779972">
        <ele>685.257</ele>
        <time>1999-07-21T13:00:40Z</time>
      </trkpt>
      <trkpt lat="43.180370" lon="-5.780043">
        <ele>685.218</ele>
        <time>1999-07-21T13:00:42Z</time>
      </trkpt>
      <trkpt lat="43.180408" lon="-5.780077">
        <ele>685.434</ele>
        <time>1999-07-21T13:00:43Z</time>
      </trkpt>
      <trkpt lat="43.180504" lon="-5.780147">
        <ele>685.645</ele>
        <time>1999-07-21T13:00:45Z</time>
      </trkpt>
      <trkpt lat="43.180734" lon="-5.780335">
        <ele>685.847</ele>
        <time>1999-07-21T13:00:49Z</time>
      </trkpt>
      <trkpt lat="43.180779" lon="-5.780403">
        <ele>685.811</ele>
        <time>1999-07-21T13:00:50Z</time>
      </trkpt>
      <trkpt lat="43.180837" lon="-5.780536">
        <ele>685.808</ele>
        <time>1999-07-21T13:00:52Z</time>
      </trkpt>
      <trkpt lat="43.180859" lon="-5.780599">
        <ele>685.817</ele>
        <time>1999-07-21T13:00:53Z</time>
      </trkpt>
      <trkpt lat="43.180886" lon="-5.780652">
        <ele>685.832</ele>
        <time>1999-07-21T13:00:54Z</time>
      </trkpt>
      <trkpt lat="43.180999" lon="-5.780736">
        <ele>684.892</ele>
        <time>1999-07-21T13:00:57Z</time>
      </trkpt>
      <trkpt lat="43.181051" lon="-5.780761">
        <ele>684.413</ele>
        <time>1999-07-21T13:00:58Z</time>
      </trkpt>
      <trkpt lat="43.181114" lon="-5.780792">
        <ele>683.421</ele>
        <time>1999-07-21T13:00:59Z</time>
      </trkpt>
      <trkpt lat="43.181267" lon="-5.780864">
        <ele>681.679</ele>
        <time>1999-07-21T13:01:01Z</time>
      </trkpt>
      <trkpt lat="43.181353" lon="-5.780906">
        <ele>680.650</ele>
        <time>1999-07-21T13:01:02Z</time>
      </trkpt>
      <trkpt lat="43.181517" lon="-5.780972">
        <ele>678.856</ele>
        <time>1999-07-21T13:01:04Z</time>
      </trkpt>
      <trkpt lat="43.181588" lon="-5.780987">
        <ele>678.265</ele>
        <time>1999-07-21T13:01:05Z</time>
      </trkpt>
      <trkpt lat="43.181648" lon="-5.780988">
        <ele>677.668</ele>
        <time>1999-07-21T13:01:06Z</time>
      </trkpt>
      <trkpt lat="43.181702" lon="-5.780975">
        <ele>676.414</ele>
        <time>1999-07-21T13:01:07Z</time>
      </trkpt>
      <trkpt lat="43.181749" lon="-5.780943">
        <ele>673.808</ele>
        <time>1999-07-21T13:01:08Z</time>
      </trkpt>
      <trkpt lat="43.181794" lon="-5.780895">
        <ele>672.639</ele>
        <time>1999-07-21T13:01:09Z</time>
      </trkpt>
      <trkpt lat="43.181837" lon="-5.780834">
        <ele>671.434</ele>
        <time>1999-07-21T13:01:10Z</time>
      </trkpt>
      <trkpt lat="43.181882" lon="-5.780770">
        <ele>670.244</ele>
        <time>1999-07-21T13:01:11Z</time>
      </trkpt>
      <trkpt lat="43.181930" lon="-5.780699">
        <ele>669.045</ele>
        <time>1999-07-21T13:01:12Z</time>
      </trkpt>
      <trkpt lat="43.181980" lon="-5.780629">
        <ele>667.893</ele>
        <time>1999-07-21T13:01:13Z</time>
      </trkpt>
      <trkpt lat="43.182036" lon="-5.780565">
        <ele>666.671</ele>
        <time>1999-07-21T13:01:14Z</time>
      </trkpt>
      <trkpt lat="43.182150" lon="-5.780462">
        <ele>665.442</ele>
        <time>1999-07-21T13:01:16Z</time>
      </trkpt>
      <trkpt lat="43.182198" lon="-5.780416">
        <ele>664.868</ele>
        <time>1999-07-21T13:01:17Z</time>
      </trkpt>
      <trkpt lat="43.182251" lon="-5.780368">
        <ele>664.211</ele>
        <time>1999-07-21T13:01:18Z</time>
      </trkpt>
      <trkpt lat="43.182470" lon="-5.780174">
        <ele>663.221</ele>
        <time>1999-07-21T13:01:22Z</time>
      </trkpt>
      <trkpt lat="43.182535" lon="-5.780119">
        <ele>662.403</ele>
        <time>1999-07-21T13:01:23Z</time>
      </trkpt>
      <trkpt lat="43.182609" lon="-5.780056">
        <ele>661.808</ele>
        <time>1999-07-21T13:01:24Z</time>
      </trkpt>
      <trkpt lat="43.182775" lon="-5.779889">
        <ele>660.464</ele>
        <time>1999-07-21T13:01:26Z</time>
      </trkpt>
      <trkpt lat="43.182859" lon="-5.779801">
        <ele>659.469</ele>
        <time>1999-07-21T13:01:27Z</time>
      </trkpt>
      <trkpt lat="43.182936" lon="-5.779716">
        <ele>658.619</ele>
        <time>1999-07-21T13:01:28Z</time>
      </trkpt>
      <trkpt lat="43.183077" lon="-5.779573">
        <ele>657.090</ele>
        <time>1999-07-21T13:01:30Z</time>
      </trkpt>
      <trkpt lat="43.183143" lon="-5.779518">
        <ele>656.048</ele>
        <time>1999-07-21T13:01:31Z</time>
      </trkpt>
      <trkpt lat="43.183193" lon="-5.779474">
        <ele>655.096</ele>
        <time>1999-07-21T13:01:32Z</time>
      </trkpt>
      <trkpt lat="43.183234" lon="-5.779443">
        <ele>654.057</ele>
        <time>1999-07-21T13:01:33Z</time>
      </trkpt>
      <trkpt lat="43.183276" lon="-5.779419">
        <ele>653.273</ele>
        <time>1999-07-21T13:01:34Z</time>
      </trkpt>
      <trkpt lat="43.183316" lon="-5.779392">
        <ele>651.862</ele>
        <time>1999-07-21T13:01:35Z</time>
      </trkpt>
      <trkpt lat="43.183386" lon="-5.779344">
        <ele>650.283</ele>
        <time>1999-07-21T13:01:37Z</time>
      </trkpt>
      <trkpt lat="43.183417" lon="-5.779345">
        <ele>649.411</ele>
        <time>1999-07-21T13:01:38Z</time>
      </trkpt>
      <trkpt lat="43.183446" lon="-5.779365">
        <ele>649.008</ele>
        <time>1999-07-21T13:01:39Z</time>
      </trkpt>
      <trkpt lat="43.183482" lon="-5.779424">
        <ele>647.659</ele>
        <time>1999-07-21T13:01:41Z</time>
      </trkpt>
      <trkpt lat="43.183503" lon="-5.779478">
        <ele>645.814</ele>
        <time>1999-07-21T13:01:43Z</time>
      </trkpt>
      <trkpt lat="43.183509" lon="-5.779502">
        <ele>644.834</ele>
        <time>1999-07-21T13:01:44Z</time>
      </trkpt>
      <trkpt lat="43.183509" lon="-5.779524">
        <ele>644.065</ele>
        <time>1999-07-21T13:01:45Z</time>
      </trkpt>
      <trkpt lat="43.183492" lon="-5.779566">
        <ele>642.873</ele>
        <time>1999-07-21T13:01:47Z</time>
      </trkpt>
      <trkpt lat="43.183455" lon="-5.779645">
        <ele>641.671</ele>
        <time>1999-07-21T13:01:49Z</time>
      </trkpt>
      <trkpt lat="43.183385" lon="-5.779773">
        <ele>640.872</ele>
        <time>1999-07-21T13:01:51Z</time>
      </trkpt>
      <trkpt lat="43.183349" lon="-5.779836">
        <ele>640.448</ele>
        <time>1999-07-21T13:01:52Z</time>
      </trkpt>
      <trkpt lat="43.183228" lon="-5.780051">
        <ele>639.635</ele>
        <time>1999-07-21T13:01:55Z</time>
      </trkpt>
      <trkpt lat="43.183183" lon="-5.780133">
        <ele>639.286</ele>
        <time>1999-07-21T13:01:56Z</time>
      </trkpt>
      <trkpt lat="43.183139" lon="-5.780221">
        <ele>638.814</ele>
        <time>1999-07-21T13:01:57Z</time>
      </trkpt>
      <trkpt lat="43.183063" lon="-5.780397">
        <ele>638.008</ele>
        <time>1999-07-21T13:01:59Z</time>
      </trkpt>
      <trkpt lat="43.183035" lon="-5.780490">
        <ele>637.656</ele>
        <time>1999-07-21T13:02:00Z</time>
      </trkpt>
      <trkpt lat="43.183013" lon="-5.780583">
        <ele>637.411</ele>
        <time>1999-07-21T13:02:01Z</time>
      </trkpt>
      <trkpt lat="43.182994" lon="-5.780672">
        <ele>636.861</ele>
        <time>1999-07-21T13:02:02Z</time>
      </trkpt>
      <trkpt lat="43.182960" lon="-5.780890">
        <ele>635.882</ele>
        <time>1999-07-21T13:02:05Z</time>
      </trkpt>
      <trkpt lat="43.182925" lon="-5.781018">
        <ele>634.490</ele>
        <time>1999-07-21T13:02:07Z</time>
      </trkpt>
      <trkpt lat="43.182890" lon="-5.781086">
        <ele>634.028</ele>
        <time>1999-07-21T13:02:08Z</time>
      </trkpt>
      <trkpt lat="43.182852" lon="-5.781154">
        <ele>632.819</ele>
        <time>1999-07-21T13:02:09Z</time>
      </trkpt>
      <trkpt lat="43.182808" lon="-5.781220">
        <ele>631.885</ele>
        <time>1999-07-21T13:02:10Z</time>
      </trkpt>
      <trkpt lat="43.182760" lon="-5.781294">
        <ele>630.669</ele>
        <time>1999-07-21T13:02:11Z</time>
      </trkpt>
      <trkpt lat="43.182708" lon="-5.781372">
        <ele>629.604</ele>
        <time>1999-07-21T13:02:12Z</time>
      </trkpt>
      <trkpt lat="43.182610" lon="-5.781526">
        <ele>628.024</ele>
        <time>1999-07-21T13:02:14Z</time>
      </trkpt>
      <trkpt lat="43.182570" lon="-5.781601">
        <ele>627.408</ele>
        <time>1999-07-21T13:02:15Z</time>
      </trkpt>
      <trkpt lat="43.182537" lon="-5.781673">
        <ele>626.889</ele>
        <time>1999-07-21T13:02:16Z</time>
      </trkpt>
      <trkpt lat="43.182508" lon="-5.781741">
        <ele>625.844</ele>
        <time>1999-07-21T13:02:17Z</time>
      </trkpt>
      <trkpt lat="43.182491" lon="-5.781802">
        <ele>624.824</ele>
        <time>1999-07-21T13:02:18Z</time>
      </trkpt>
      <trkpt lat="43.182490" lon="-5.781864">
        <ele>624.095</ele>
        <time>1999-07-21T13:02:19Z</time>
      </trkpt>
      <trkpt lat="43.182549" lon="-5.781929">
        <ele>622.033</ele>
        <time>1999-07-21T13:02:21Z</time>
      </trkpt>
      <trkpt lat="43.182641" lon="-5.781902">
        <ele>620.081</ele>
        <time>1999-07-21T13:02:23Z</time>
      </trkpt>
      <trkpt lat="43.182685" lon="-5.781867">
        <ele>619.092</ele>
        <time>1999-07-21T13:02:24Z</time>
      </trkpt>
      <trkpt lat="43.182723" lon="-5.781829">
        <ele>618.078</ele>
        <time>1999-07-21T13:02:25Z</time>
      </trkpt>
      <trkpt lat="43.182761" lon="-5.781791">
        <ele>617.096</ele>
        <time>1999-07-21T13:02:26Z</time>
      </trkpt>
      <trkpt lat="43.182801" lon="-5.781755">
        <ele>616.031</ele>
        <time>1999-07-21T13:02:27Z</time>
      </trkpt>
      <trkpt lat="43.182883" lon="-5.781703">
        <ele>614.224</ele>
        <time>1999-07-21T13:02:29Z</time>
      </trkpt>
      <trkpt lat="43.182970" lon="-5.781686">
        <ele>613.008</ele>
        <time>1999-07-21T13:02:31Z</time>
      </trkpt>
      <trkpt lat="43.183070" lon="-5.781688">
        <ele>611.412</ele>
        <time>1999-07-21T13:02:33Z</time>
      </trkpt>
      <trkpt lat="43.183127" lon="-5.781694">
        <ele>610.647</ele>
        <time>1999-07-21T13:02:34Z</time>
      </trkpt>
      <trkpt lat="43.183188" lon="-5.781686">
        <ele>609.627</ele>
        <time>1999-07-21T13:02:35Z</time>
      </trkpt>
      <trkpt lat="43.183251" lon="-5.781664">
        <ele>608.498</ele>
        <time>1999-07-21T13:02:36Z</time>
      </trkpt>
      <trkpt lat="43.183297" lon="-5.781634">
        <ele>607.816</ele>
        <time>1999-07-21T13:02:37Z</time>
      </trkpt>
      <trkpt lat="43.183346" lon="-5.781605">
        <ele>607.064</ele>
        <time>1999-07-21T13:02:38Z</time>
      </trkpt>
      <trkpt lat="43.183448" lon="-5.781547">
        <ele>605.095</ele>
        <time>1999-07-21T13:02:40Z</time>
      </trkpt>
      <trkpt lat="43.183518" lon="-5.781518">
        <ele>603.811</ele>
        <time>1999-07-21T13:02:41Z</time>
      </trkpt>
      <trkpt lat="43.183573" lon="-5.781490">
        <ele>602.842</ele>
        <time>1999-07-21T13:02:42Z</time>
      </trkpt>
      <trkpt lat="43.183628" lon="-5.781461">
        <ele>601.622</ele>
        <time>1999-07-21T13:02:43Z</time>
      </trkpt>
      <trkpt lat="43.183692" lon="-5.781434">
        <ele>600.414</ele>
        <time>1999-07-21T13:02:44Z</time>
      </trkpt>
      <trkpt lat="43.183741" lon="-5.781408">
        <ele>599.008</ele>
        <time>1999-07-21T13:02:45Z</time>
      </trkpt>
      <trkpt lat="43.183781" lon="-5.781385">
        <ele>598.077</ele>
        <time>1999-07-21T13:02:46Z</time>
      </trkpt>
      <trkpt lat="43.183822" lon="-5.781375">
        <ele>596.822</ele>
        <time>1999-07-21T13:02:47Z</time>
      </trkpt>
      <trkpt lat="43.183867" lon="-5.781376">
        <ele>595.482</ele>
        <time>1999-07-21T13:02:48Z</time>
      </trkpt>
      <trkpt lat="43.183904" lon="-5.781386">
        <ele>594.233</ele>
        <time>1999-07-21T13:02:49Z</time>
      </trkpt>
      <trkpt lat="43.183935" lon="-5.781412">
        <ele>592.691</ele>
        <time>1999-07-21T13:02:50Z</time>
      </trkpt>
      <trkpt lat="43.183965" lon="-5.781452">
        <ele>591.289</ele>
        <time>1999-07-21T13:02:51Z</time>
      </trkpt>
      <trkpt lat="43.183995" lon="-5.781517">
        <ele>589.820</ele>
        <time>1999-07-21T13:02:52Z</time>
      </trkpt>
      <trkpt lat="43.184031" lon="-5.781605">
        <ele>588.616</ele>
        <time>1999-07-21T13:02:53Z</time>
      </trkpt>
      <trkpt lat="43.184065" lon="-5.781712">
        <ele>587.682</ele>
        <time>1999-07-21T13:02:54Z</time>
      </trkpt>
      <trkpt lat="43.184106" lon="-5.781814">
        <ele>586.443</ele>
        <time>1999-07-21T13:02:55Z</time>
      </trkpt>
      <trkpt lat="43.184147" lon="-5.781910">
        <ele>584.217</ele>
        <time>1999-07-21T13:02:56Z</time>
      </trkpt>
      <trkpt lat="43.184220" lon="-5.782096">
        <ele>582.808</ele>
        <time>1999-07-21T13:02:58Z</time>
      </trkpt>
      <trkpt lat="43.184283" lon="-5.782270">
        <ele>581.611</ele>
        <time>1999-07-21T13:03:00Z</time>
      </trkpt>
      <trkpt lat="43.184301" lon="-5.782361">
        <ele>580.656</ele>
        <time>1999-07-21T13:03:01Z</time>
      </trkpt>
      <trkpt lat="43.184306" lon="-5.782456">
        <ele>579.656</ele>
        <time>1999-07-21T13:03:02Z</time>
      </trkpt>
      <trkpt lat="43.184312" lon="-5.782635">
        <ele>577.847</ele>
        <time>1999-07-21T13:03:04Z</time>
      </trkpt>
      <trkpt lat="43.184282" lon="-5.782776">
        <ele>575.885</ele>
        <time>1999-07-21T13:03:06Z</time>
      </trkpt>
      <trkpt lat="43.184253" lon="-5.782836">
        <ele>574.413</ele>
        <time>1999-07-21T13:03:07Z</time>
      </trkpt>
      <trkpt lat="43.184218" lon="-5.782895">
        <ele>573.284</ele>
        <time>1999-07-21T13:03:08Z</time>
      </trkpt>
      <trkpt lat="43.184182" lon="-5.782959">
        <ele>571.630</ele>
        <time>1999-07-21T13:03:09Z</time>
      </trkpt>
      <trkpt lat="43.184127" lon="-5.783033">
        <ele>570.298</ele>
        <time>1999-07-21T13:03:10Z</time>
      </trkpt>
      <trkpt lat="43.184068" lon="-5.783104">
        <ele>569.015</ele>
        <time>1999-07-21T13:03:11Z</time>
      </trkpt>
      <trkpt lat="43.183958" lon="-5.783229">
        <ele>566.826</ele>
        <time>1999-07-21T13:03:13Z</time>
      </trkpt>
      <trkpt lat="43.183893" lon="-5.783282">
        <ele>566.008</ele>
        <time>1999-07-21T13:03:14Z</time>
      </trkpt>
      <trkpt lat="43.183833" lon="-5.783328">
        <ele>565.012</ele>
        <time>1999-07-21T13:03:15Z</time>
      </trkpt>
      <trkpt lat="43.183772" lon="-5.783382">
        <ele>564.037</ele>
        <time>1999-07-21T13:03:16Z</time>
      </trkpt>
      <trkpt lat="43.183675" lon="-5.783486">
        <ele>562.677</ele>
        <time>1999-07-21T13:03:18Z</time>
      </trkpt>
      <trkpt lat="43.183628" lon="-5.783541">
        <ele>561.458</ele>
        <time>1999-07-21T13:03:19Z</time>
      </trkpt>
      <trkpt lat="43.183586" lon="-5.783623">
        <ele>560.286</ele>
        <time>1999-07-21T13:03:20Z</time>
      </trkpt>
      <trkpt lat="43.183570" lon="-5.783712">
        <ele>558.624</ele>
        <time>1999-07-21T13:03:21Z</time>
      </trkpt>
      <trkpt lat="43.183566" lon="-5.783814">
        <ele>557.035</ele>
        <time>1999-07-21T13:03:22Z</time>
      </trkpt>
      <trkpt lat="43.183573" lon="-5.783914">
        <ele>555.451</ele>
        <time>1999-07-21T13:03:23Z</time>
      </trkpt>
      <trkpt lat="43.183600" lon="-5.784013">
        <ele>553.638</ele>
        <time>1999-07-21T13:03:24Z</time>
      </trkpt>
      <trkpt lat="43.183662" lon="-5.784228">
        <ele>551.670</ele>
        <time>1999-07-21T13:03:26Z</time>
      </trkpt>
      <trkpt lat="43.183707" lon="-5.784316">
        <ele>550.417</ele>
        <time>1999-07-21T13:03:27Z</time>
      </trkpt>
      <trkpt lat="43.183747" lon="-5.784385">
        <ele>549.208</ele>
        <time>1999-07-21T13:03:28Z</time>
      </trkpt>
      <trkpt lat="43.183786" lon="-5.784445">
        <ele>548.246</ele>
        <time>1999-07-21T13:03:29Z</time>
      </trkpt>
      <trkpt lat="43.183811" lon="-5.784509">
        <ele>547.471</ele>
        <time>1999-07-21T13:03:30Z</time>
      </trkpt>
      <trkpt lat="43.183828" lon="-5.784645">
        <ele>546.291</ele>
        <time>1999-07-21T13:03:32Z</time>
      </trkpt>
      <trkpt lat="43.183823" lon="-5.784724">
        <ele>545.682</ele>
        <time>1999-07-21T13:03:33Z</time>
      </trkpt>
      <trkpt lat="43.183820" lon="-5.784801">
        <ele>544.810</ele>
        <time>1999-07-21T13:03:34Z</time>
      </trkpt>
      <trkpt lat="43.183819" lon="-5.784868">
        <ele>543.468</ele>
        <time>1999-07-21T13:03:35Z</time>
      </trkpt>
      <trkpt lat="43.183818" lon="-5.784927">
        <ele>542.289</ele>
        <time>1999-07-21T13:03:36Z</time>
      </trkpt>
      <trkpt lat="43.183807" lon="-5.785004">
        <ele>541.245</ele>
        <time>1999-07-21T13:03:37Z</time>
      </trkpt>
      <trkpt lat="43.183777" lon="-5.785178">
        <ele>539.449</ele>
        <time>1999-07-21T13:03:39Z</time>
      </trkpt>
      <trkpt lat="43.183760" lon="-5.785266">
        <ele>538.402</ele>
        <time>1999-07-21T13:03:40Z</time>
      </trkpt>
      <trkpt lat="43.183738" lon="-5.785340">
        <ele>537.822</ele>
        <time>1999-07-21T13:03:41Z</time>
      </trkpt>
      <trkpt lat="43.183690" lon="-5.785435">
        <ele>536.208</ele>
        <time>1999-07-21T13:03:43Z</time>
      </trkpt>
      <trkpt lat="43.183683" lon="-5.785472">
        <ele>535.217</ele>
        <time>1999-07-21T13:03:44Z</time>
      </trkpt>
      <trkpt lat="43.183685" lon="-5.785511">
        <ele>534.242</ele>
        <time>1999-07-21T13:03:45Z</time>
      </trkpt>
      <trkpt lat="43.183687" lon="-5.785528">
        <ele>533.282</ele>
        <time>1999-07-21T13:03:46Z</time>
      </trkpt>
      <trkpt lat="43.183688" lon="-5.785536">
        <ele>532.263</ele>
        <time>1999-07-21T13:03:47Z</time>
      </trkpt>
      <trkpt lat="43.183689" lon="-5.785546">
        <ele>530.251</ele>
        <time>1999-07-21T13:03:49Z</time>
      </trkpt>
      <trkpt lat="43.183755" lon="-5.785495">
        <ele>525.299</ele>
        <time>1999-07-21T13:04:13Z</time>
      </trkpt>
      <trkpt lat="43.183785" lon="-5.785457">
        <ele>525.290</ele>
        <time>1999-07-21T13:04:14Z</time>
      </trkpt>
      <trkpt lat="43.183921" lon="-5.785296">
        <ele>525.266</ele>
        <time>1999-07-21T13:04:17Z</time>
      </trkpt>
      <trkpt lat="43.183980" lon="-5.785232">
        <ele>525.295</ele>
        <time>1999-07-21T13:04:18Z</time>
      </trkpt>
      <trkpt lat="43.184046" lon="-5.785175">
        <ele>525.249</ele>
        <time>1999-07-21T13:04:19Z</time>
      </trkpt>
      <trkpt lat="43.184175" lon="-5.785075">
        <ele>525.023</ele>
        <time>1999-07-21T13:04:21Z</time>
      </trkpt>
      <trkpt lat="43.184293" lon="-5.784949">
        <ele>524.008</ele>
        <time>1999-07-21T13:04:23Z</time>
      </trkpt>
      <trkpt lat="43.184398" lon="-5.784780">
        <ele>523.272</ele>
        <time>1999-07-21T13:04:25Z</time>
      </trkpt>
      <trkpt lat="43.184446" lon="-5.784711">
        <ele>522.487</ele>
        <time>1999-07-21T13:04:26Z</time>
      </trkpt>
      <trkpt lat="43.184483" lon="-5.784664">
        <ele>521.247</ele>
        <time>1999-07-21T13:04:27Z</time>
      </trkpt>
      <trkpt lat="43.184529" lon="-5.784635">
        <ele>519.858</ele>
        <time>1999-07-21T13:04:28Z</time>
      </trkpt>
      <trkpt lat="43.184576" lon="-5.784639">
        <ele>518.666</ele>
        <time>1999-07-21T13:04:29Z</time>
      </trkpt>
      <trkpt lat="43.184693" lon="-5.784704">
        <ele>516.474</ele>
        <time>1999-07-21T13:04:31Z</time>
      </trkpt>
      <trkpt lat="43.184753" lon="-5.784746">
        <ele>515.255</ele>
        <time>1999-07-21T13:04:32Z</time>
      </trkpt>
      <trkpt lat="43.184815" lon="-5.784787">
        <ele>513.891</ele>
        <time>1999-07-21T13:04:33Z</time>
      </trkpt>
      <trkpt lat="43.184884" lon="-5.784820">
        <ele>512.063</ele>
        <time>1999-07-21T13:04:34Z</time>
      </trkpt>
      <trkpt lat="43.184960" lon="-5.784837">
        <ele>510.844</ele>
        <time>1999-07-21T13:04:35Z</time>
      </trkpt>
      <trkpt lat="43.185029" lon="-5.784845">
        <ele>509.818</ele>
        <time>1999-07-21T13:04:36Z</time>
      </trkpt>
      <trkpt lat="43.185129" lon="-5.784851">
        <ele>508.208</ele>
        <time>1999-07-21T13:04:38Z</time>
      </trkpt>
      <trkpt lat="43.185163" lon="-5.784851">
        <ele>507.839</ele>
        <time>1999-07-21T13:04:39Z</time>
      </trkpt>
      <trkpt lat="43.185230" lon="-5.784850">
        <ele>506.644</ele>
        <time>1999-07-21T13:04:41Z</time>
      </trkpt>
      <trkpt lat="43.185309" lon="-5.784820">
        <ele>505.424</ele>
        <time>1999-07-21T13:04:43Z</time>
      </trkpt>
      <trkpt lat="43.185356" lon="-5.784796">
        <ele>504.875</ele>
        <time>1999-07-21T13:04:44Z</time>
      </trkpt>
      <trkpt lat="43.185408" lon="-5.784772">
        <ele>504.493</ele>
        <time>1999-07-21T13:04:45Z</time>
      </trkpt>
      <trkpt lat="43.185526" lon="-5.784725">
        <ele>503.091</ele>
        <time>1999-07-21T13:04:47Z</time>
      </trkpt>
      <trkpt lat="43.185594" lon="-5.784711">
        <ele>502.832</ele>
        <time>1999-07-21T13:04:48Z</time>
      </trkpt>
      <trkpt lat="43.185751" lon="-5.784714">
        <ele>501.818</ele>
        <time>1999-07-21T13:04:51Z</time>
      </trkpt>
      <trkpt lat="43.185803" lon="-5.784716">
        <ele>501.647</ele>
        <time>1999-07-21T13:04:52Z</time>
      </trkpt>
      <trkpt lat="43.185934" lon="-5.784705">
        <ele>500.829</ele>
        <time>1999-07-21T13:04:54Z</time>
      </trkpt>
      <trkpt lat="43.186063" lon="-5.784672">
        <ele>499.421</ele>
        <time>1999-07-21T13:04:56Z</time>
      </trkpt>
      <trkpt lat="43.186170" lon="-5.784646">
        <ele>498.208</ele>
        <time>1999-07-21T13:04:58Z</time>
      </trkpt>
      <trkpt lat="43.186233" lon="-5.784623">
        <ele>496.877</ele>
        <time>1999-07-21T13:05:00Z</time>
      </trkpt>
      <trkpt lat="43.186253" lon="-5.784618">
        <ele>495.822</ele>
        <time>1999-07-21T13:05:01Z</time>
      </trkpt>
      <trkpt lat="43.186292" lon="-5.784619">
        <ele>493.862</ele>
        <time>1999-07-21T13:05:03Z</time>
      </trkpt>
      <trkpt lat="43.186319" lon="-5.784622">
        <ele>492.623</ele>
        <time>1999-07-21T13:05:04Z</time>
      </trkpt>
      <trkpt lat="43.186345" lon="-5.784623">
        <ele>491.411</ele>
        <time>1999-07-21T13:05:05Z</time>
      </trkpt>
      <trkpt lat="43.186358" lon="-5.784625">
        <ele>490.049</ele>
        <time>1999-07-21T13:05:06Z</time>
      </trkpt>
      <trkpt lat="43.186358" lon="-5.784627">
        <ele>488.660</ele>
        <time>1999-07-21T13:05:07Z</time>
      </trkpt>
      <trkpt lat="43.186353" lon="-5.784631">
        <ele>487.616</ele>
        <time>1999-07-21T13:05:08Z</time>
      </trkpt>
      <trkpt lat="43.186251" lon="-5.784712">
        <ele>484.455</ele>
        <time>1999-07-21T13:05:19Z</time>
      </trkpt>
      <trkpt lat="43.186236" lon="-5.784758">
        <ele>484.407</ele>
        <time>1999-07-21T13:05:20Z</time>
      </trkpt>
      <trkpt lat="43.186176" lon="-5.784945">
        <ele>484.217</ele>
        <time>1999-07-21T13:05:24Z</time>
      </trkpt>
      <trkpt lat="43.186160" lon="-5.784987">
        <ele>484.208</ele>
        <time>1999-07-21T13:05:25Z</time>
      </trkpt>
      <trkpt lat="43.186145" lon="-5.785031">
        <ele>484.218</ele>
        <time>1999-07-21T13:05:26Z</time>
      </trkpt>
      <trkpt lat="43.186131" lon="-5.785068">
        <ele>484.043</ele>
        <time>1999-07-21T13:05:27Z</time>
      </trkpt>
      <trkpt lat="43.186100" lon="-5.785127">
        <ele>483.023</ele>
        <time>1999-07-21T13:05:29Z</time>
      </trkpt>
      <trkpt lat="43.186073" lon="-5.785181">
        <ele>481.424</ele>
        <time>1999-07-21T13:05:31Z</time>
      </trkpt>
      <trkpt lat="43.186034" lon="-5.785237">
        <ele>479.892</ele>
        <time>1999-07-21T13:05:33Z</time>
      </trkpt>
      <trkpt lat="43.186011" lon="-5.785268">
        <ele>479.060</ele>
        <time>1999-07-21T13:05:34Z</time>
      </trkpt>
      <trkpt lat="43.185991" lon="-5.785291">
        <ele>478.461</ele>
        <time>1999-07-21T13:05:35Z</time>
      </trkpt>
      <trkpt lat="43.185971" lon="-5.785324">
        <ele>477.667</ele>
        <time>1999-07-21T13:05:37Z</time>
      </trkpt>
      <trkpt lat="43.185973" lon="-5.785336">
        <ele>477.231</ele>
        <time>1999-07-21T13:05:38Z</time>
      </trkpt>
      <trkpt lat="43.185982" lon="-5.785346">
        <ele>476.861</ele>
        <time>1999-07-21T13:05:39Z</time>
      </trkpt>
      <trkpt lat="43.185997" lon="-5.785355">
        <ele>476.407</ele>
        <time>1999-07-21T13:05:40Z</time>
      </trkpt>
      <trkpt lat="43.186048" lon="-5.785388">
        <ele>475.208</ele>
        <time>1999-07-21T13:05:42Z</time>
      </trkpt>
      <trkpt lat="43.186078" lon="-5.785452">
        <ele>474.276</ele>
        <time>1999-07-21T13:05:44Z</time>
      </trkpt>
      <trkpt lat="43.186071" lon="-5.785496">
        <ele>473.481</ele>
        <time>1999-07-21T13:05:46Z</time>
      </trkpt>
      <trkpt lat="43.186068" lon="-5.785504">
        <ele>473.011</ele>
        <time>1999-07-21T13:05:48Z</time>
      </trkpt>
      <trkpt lat="43.186102" lon="-5.785550">
        <ele>470.412</ele>
        <time>1999-07-21T13:07:06Z</time>
      </trkpt>
      <trkpt lat="43.186124" lon="-5.785561">
        <ele>470.430</ele>
        <time>1999-07-21T13:07:07Z</time>
      </trkpt>
      <trkpt lat="43.186206" lon="-5.785586">
        <ele>470.468</ele>
        <time>1999-07-21T13:07:10Z</time>
      </trkpt>
      <trkpt lat="43.186287" lon="-5.785632">
        <ele>470.479</ele>
        <time>1999-07-21T13:07:13Z</time>
      </trkpt>
      <trkpt lat="43.186365" lon="-5.785687">
        <ele>470.295</ele>
        <time>1999-07-21T13:07:16Z</time>
      </trkpt>
      <trkpt lat="43.186413" lon="-5.785714">
        <ele>470.287</ele>
        <time>1999-07-21T13:07:18Z</time>
      </trkpt>
      <trkpt lat="43.186434" lon="-5.785738">
        <ele>470.242</ele>
        <time>1999-07-21T13:07:19Z</time>
      </trkpt>
      <trkpt lat="43.186456" lon="-5.785795">
        <ele>470.426</ele>
        <time>1999-07-21T13:07:23Z</time>
      </trkpt>
      <trkpt lat="43.186488" lon="-5.785842">
        <ele>470.408</ele>
        <time>1999-07-21T13:08:09Z</time>
      </trkpt>
      <trkpt lat="43.186546" lon="-5.785887">
        <ele>470.491</ele>
        <time>1999-07-21T13:08:11Z</time>
      </trkpt>
      <trkpt lat="43.186718" lon="-5.785936">
        <ele>470.686</ele>
        <time>1999-07-21T13:08:15Z</time>
      </trkpt>
      <trkpt lat="43.186767" lon="-5.785951">
        <ele>470.496</ele>
        <time>1999-07-21T13:08:16Z</time>
      </trkpt>
      <trkpt lat="43.186821" lon="-5.785965">
        <ele>470.477</ele>
        <time>1999-07-21T13:08:17Z</time>
      </trkpt>
      <trkpt lat="43.186875" lon="-5.785975">
        <ele>470.445</ele>
        <time>1999-07-21T13:08:18Z</time>
      </trkpt>
      <trkpt lat="43.186984" lon="-5.786005">
        <ele>470.213</ele>
        <time>1999-07-21T13:08:20Z</time>
      </trkpt>
      <trkpt lat="43.187098" lon="-5.786039">
        <ele>470.084</ele>
        <time>1999-07-21T13:08:22Z</time>
      </trkpt>
      <trkpt lat="43.187151" lon="-5.786066">
        <ele>469.850</ele>
        <time>1999-07-21T13:08:23Z</time>
      </trkpt>
      <trkpt lat="43.187266" lon="-5.786134">
        <ele>469.615</ele>
        <time>1999-07-21T13:08:25Z</time>
      </trkpt>
      <trkpt lat="43.187324" lon="-5.786183">
        <ele>469.265</ele>
        <time>1999-07-21T13:08:26Z</time>
      </trkpt>
      <trkpt lat="43.187424" lon="-5.786315">
        <ele>468.611</ele>
        <time>1999-07-21T13:08:28Z</time>
      </trkpt>
      <trkpt lat="43.187457" lon="-5.786400">
        <ele>468.608</ele>
        <time>1999-07-21T13:08:29Z</time>
      </trkpt>
      <trkpt lat="43.187514" lon="-5.786575">
        <ele>468.224</ele>
        <time>1999-07-21T13:08:31Z</time>
      </trkpt>
      <trkpt lat="43.187542" lon="-5.786661">
        <ele>468.249</ele>
        <time>1999-07-21T13:08:32Z</time>
      </trkpt>
      <trkpt lat="43.187575" lon="-5.786744">
        <ele>468.069</ele>
        <time>1999-07-21T13:08:33Z</time>
      </trkpt>
      <trkpt lat="43.187614" lon="-5.786825">
        <ele>467.640</ele>
        <time>1999-07-21T13:08:34Z</time>
      </trkpt>
      <trkpt lat="43.187658" lon="-5.786904">
        <ele>467.468</ele>
        <time>1999-07-21T13:08:35Z</time>
      </trkpt>
      <trkpt lat="43.187707" lon="-5.786979">
        <ele>467.496</ele>
        <time>1999-07-21T13:08:36Z</time>
      </trkpt>
      <trkpt lat="43.187895" lon="-5.787153">
        <ele>467.087</ele>
        <time>1999-07-21T13:08:39Z</time>
      </trkpt>
      <trkpt lat="43.188138" lon="-5.787199">
        <ele>466.823</ele>
        <time>1999-07-21T13:08:42Z</time>
      </trkpt>
      <trkpt lat="43.188414" lon="-5.787132">
        <ele>466.468</ele>
        <time>1999-07-21T13:08:45Z</time>
      </trkpt>
      <trkpt lat="43.188512" lon="-5.787098">
        <ele>466.042</ele>
        <time>1999-07-21T13:08:46Z</time>
      </trkpt>
      <trkpt lat="43.188612" lon="-5.787061">
        <ele>465.826</ele>
        <time>1999-07-21T13:08:47Z</time>
      </trkpt>
      <trkpt lat="43.188934" lon="-5.786962">
        <ele>464.408</ele>
        <time>1999-07-21T13:08:50Z</time>
      </trkpt>
      <trkpt lat="43.189160" lon="-5.786895">
        <ele>463.499</ele>
        <time>1999-07-21T13:08:52Z</time>
      </trkpt>
      <trkpt lat="43.189273" lon="-5.786869">
        <ele>462.414</ele>
        <time>1999-07-21T13:08:53Z</time>
      </trkpt>
      <trkpt lat="43.189505" lon="-5.786834">
        <ele>460.824</ele>
        <time>1999-07-21T13:08:55Z</time>
      </trkpt>
      <trkpt lat="43.189617" lon="-5.786805">
        <ele>460.285</ele>
        <time>1999-07-21T13:08:56Z</time>
      </trkpt>
      <trkpt lat="43.189725" lon="-5.786763">
        <ele>459.233</ele>
        <time>1999-07-21T13:08:57Z</time>
      </trkpt>
      <trkpt lat="43.189830" lon="-5.786708">
        <ele>458.281</ele>
        <time>1999-07-21T13:08:58Z</time>
      </trkpt>
      <trkpt lat="43.189933" lon="-5.786643">
        <ele>457.262</ele>
        <time>1999-07-21T13:08:59Z</time>
      </trkpt>
      <trkpt lat="43.190029" lon="-5.786577">
        <ele>456.298</ele>
        <time>1999-07-21T13:09:00Z</time>
      </trkpt>
      <trkpt lat="43.190121" lon="-5.786515">
        <ele>455.095</ele>
        <time>1999-07-21T13:09:01Z</time>
      </trkpt>
      <trkpt lat="43.190288" lon="-5.786392">
        <ele>453.249</ele>
        <time>1999-07-21T13:09:03Z</time>
      </trkpt>
      <trkpt lat="43.190359" lon="-5.786316">
        <ele>452.223</ele>
        <time>1999-07-21T13:09:04Z</time>
      </trkpt>
      <trkpt lat="43.190426" lon="-5.786225">
        <ele>451.408</ele>
        <time>1999-07-21T13:09:05Z</time>
      </trkpt>
      <trkpt lat="43.190533" lon="-5.786004">
        <ele>449.882</ele>
        <time>1999-07-21T13:09:07Z</time>
      </trkpt>
      <trkpt lat="43.190579" lon="-5.785880">
        <ele>448.817</ele>
        <time>1999-07-21T13:09:08Z</time>
      </trkpt>
      <trkpt lat="43.190619" lon="-5.785749">
        <ele>447.677</ele>
        <time>1999-07-21T13:09:09Z</time>
      </trkpt>
      <trkpt lat="43.190665" lon="-5.785616">
        <ele>446.488</ele>
        <time>1999-07-21T13:09:10Z</time>
      </trkpt>
      <trkpt lat="43.190716" lon="-5.785478">
        <ele>445.416</ele>
        <time>1999-07-21T13:09:11Z</time>
      </trkpt>
      <trkpt lat="43.190771" lon="-5.785343">
        <ele>444.834</ele>
        <time>1999-07-21T13:09:12Z</time>
      </trkpt>
      <trkpt lat="43.190830" lon="-5.785216">
        <ele>443.835</ele>
        <time>1999-07-21T13:09:13Z</time>
      </trkpt>
      <trkpt lat="43.190952" lon="-5.784993">
        <ele>442.221</ele>
        <time>1999-07-21T13:09:15Z</time>
      </trkpt>
      <trkpt lat="43.191120" lon="-5.784835">
        <ele>440.418</ele>
        <time>1999-07-21T13:09:17Z</time>
      </trkpt>
      <trkpt lat="43.191224" lon="-5.784783">
        <ele>439.498</ele>
        <time>1999-07-21T13:09:18Z</time>
      </trkpt>
      <trkpt lat="43.191333" lon="-5.784739">
        <ele>438.417</ele>
        <time>1999-07-21T13:09:19Z</time>
      </trkpt>
      <trkpt lat="43.191445" lon="-5.784699">
        <ele>436.808</ele>
        <time>1999-07-21T13:09:20Z</time>
      </trkpt>
      <trkpt lat="43.191552" lon="-5.784655">
        <ele>434.484</ele>
        <time>1999-07-21T13:09:21Z</time>
      </trkpt>
      <trkpt lat="43.191654" lon="-5.784607">
        <ele>432.659</ele>
        <time>1999-07-21T13:09:22Z</time>
      </trkpt>
      <trkpt lat="43.191744" lon="-5.784540">
        <ele>430.869</ele>
        <time>1999-07-21T13:09:23Z</time>
      </trkpt>
      <trkpt lat="43.191819" lon="-5.784449">
        <ele>430.090</ele>
        <time>1999-07-21T13:09:24Z</time>
      </trkpt>
      <trkpt lat="43.191880" lon="-5.784332">
        <ele>429.078</ele>
        <time>1999-07-21T13:09:25Z</time>
      </trkpt>
      <trkpt lat="43.191957" lon="-5.784070">
        <ele>427.226</ele>
        <time>1999-07-21T13:09:27Z</time>
      </trkpt>
      <trkpt lat="43.191993" lon="-5.783945">
        <ele>426.267</ele>
        <time>1999-07-21T13:09:28Z</time>
      </trkpt>
      <trkpt lat="43.192043" lon="-5.783825">
        <ele>424.873</ele>
        <time>1999-07-21T13:09:29Z</time>
      </trkpt>
      <trkpt lat="43.192103" lon="-5.783714">
        <ele>423.445</ele>
        <time>1999-07-21T13:09:30Z</time>
      </trkpt>
      <trkpt lat="43.192175" lon="-5.783614">
        <ele>422.247</ele>
        <time>1999-07-21T13:09:31Z</time>
      </trkpt>
      <trkpt lat="43.192250" lon="-5.783516">
        <ele>420.811</ele>
        <time>1999-07-21T13:09:32Z</time>
      </trkpt>
      <trkpt lat="43.192409" lon="-5.783319">
        <ele>419.408</ele>
        <time>1999-07-21T13:09:34Z</time>
      </trkpt>
      <trkpt lat="43.192482" lon="-5.783217">
        <ele>418.427</ele>
        <time>1999-07-21T13:09:35Z</time>
      </trkpt>
      <trkpt lat="43.192548" lon="-5.783108">
        <ele>417.222</ele>
        <time>1999-07-21T13:09:36Z</time>
      </trkpt>
      <trkpt lat="43.192601" lon="-5.782996">
        <ele>416.032</ele>
        <time>1999-07-21T13:09:37Z</time>
      </trkpt>
      <trkpt lat="43.192632" lon="-5.782885">
        <ele>414.813</ele>
        <time>1999-07-21T13:09:38Z</time>
      </trkpt>
      <trkpt lat="43.192635" lon="-5.782677">
        <ele>413.021</ele>
        <time>1999-07-21T13:09:40Z</time>
      </trkpt>
      <trkpt lat="43.192654" lon="-5.782538">
        <ele>411.429</ele>
        <time>1999-07-21T13:09:42Z</time>
      </trkpt>
      <trkpt lat="43.192691" lon="-5.782525">
        <ele>410.440</ele>
        <time>1999-07-21T13:09:43Z</time>
      </trkpt>
      <trkpt lat="43.192728" lon="-5.782558">
        <ele>409.236</ele>
        <time>1999-07-21T13:09:44Z</time>
      </trkpt>
      <trkpt lat="43.192760" lon="-5.782628">
        <ele>408.231</ele>
        <time>1999-07-21T13:09:45Z</time>
      </trkpt>
      <trkpt lat="43.192781" lon="-5.782721">
        <ele>407.061</ele>
        <time>1999-07-21T13:09:46Z</time>
      </trkpt>
      <trkpt lat="43.192796" lon="-5.782828">
        <ele>405.407</ele>
        <time>1999-07-21T13:09:47Z</time>
      </trkpt>
      <trkpt lat="43.192811" lon="-5.782944">
        <ele>402.808</ele>
        <time>1999-07-21T13:09:48Z</time>
      </trkpt>
      <trkpt lat="43.192819" lon="-5.783067">
        <ele>401.826</ele>
        <time>1999-07-21T13:09:49Z</time>
      </trkpt>
      <trkpt lat="43.192817" lon="-5.783189">
        <ele>400.671</ele>
        <time>1999-07-21T13:09:50Z</time>
      </trkpt>
      <trkpt lat="43.192795" lon="-5.783322">
        <ele>399.641</ele>
        <time>1999-07-21T13:09:51Z</time>
      </trkpt>
      <trkpt lat="43.192760" lon="-5.783460">
        <ele>399.062</ele>
        <time>1999-07-21T13:09:52Z</time>
      </trkpt>
      <trkpt lat="43.192691" lon="-5.783771">
        <ele>398.030</ele>
        <time>1999-07-21T13:09:54Z</time>
      </trkpt>
      <trkpt lat="43.192662" lon="-5.784096">
        <ele>396.698</ele>
        <time>1999-07-21T13:09:56Z</time>
      </trkpt>
      <trkpt lat="43.192643" lon="-5.784429">
        <ele>395.479</ele>
        <time>1999-07-21T13:09:58Z</time>
      </trkpt>
      <trkpt lat="43.192630" lon="-5.784599">
        <ele>394.655</ele>
        <time>1999-07-21T13:09:59Z</time>
      </trkpt>
      <trkpt lat="43.192620" lon="-5.784761">
        <ele>393.673</ele>
        <time>1999-07-21T13:10:00Z</time>
      </trkpt>
      <trkpt lat="43.192620" lon="-5.785045">
        <ele>392.085</ele>
        <time>1999-07-21T13:10:02Z</time>
      </trkpt>
      <trkpt lat="43.192641" lon="-5.785176">
        <ele>391.213</ele>
        <time>1999-07-21T13:10:03Z</time>
      </trkpt>
      <trkpt lat="43.192683" lon="-5.785297">
        <ele>390.208</ele>
        <time>1999-07-21T13:10:04Z</time>
      </trkpt>
      <trkpt lat="43.192732" lon="-5.785399">
        <ele>389.290</ele>
        <time>1999-07-21T13:10:05Z</time>
      </trkpt>
      <trkpt lat="43.192780" lon="-5.785478">
        <ele>388.255</ele>
        <time>1999-07-21T13:10:06Z</time>
      </trkpt>
      <trkpt lat="43.192848" lon="-5.785577">
        <ele>386.015</ele>
        <time>1999-07-21T13:10:08Z</time>
      </trkpt>
      <trkpt lat="43.192856" lon="-5.785594">
        <ele>384.666</ele>
        <time>1999-07-21T13:10:09Z</time>
      </trkpt>
      <trkpt lat="43.192860" lon="-5.785593">
        <ele>382.834</ele>
        <time>1999-07-21T13:10:10Z</time>
      </trkpt>
      <trkpt lat="43.192857" lon="-5.785592">
        <ele>381.432</ele>
        <time>1999-07-21T13:10:11Z</time>
      </trkpt>
      <trkpt lat="43.192870" lon="-5.785633">
        <ele>376.613</ele>
        <time>1999-07-21T13:10:15Z</time>
      </trkpt>
      <trkpt lat="43.192883" lon="-5.785665">
        <ele>374.469</ele>
        <time>1999-07-21T13:10:16Z</time>
      </trkpt>
      <trkpt lat="43.192893" lon="-5.785712">
        <ele>373.635</ele>
        <time>1999-07-21T13:10:17Z</time>
      </trkpt>
      <trkpt lat="43.192915" lon="-5.785770">
        <ele>373.286</ele>
        <time>1999-07-21T13:10:18Z</time>
      </trkpt>
      <trkpt lat="43.192944" lon="-5.785835">
        <ele>373.014</ele>
        <time>1999-07-21T13:10:19Z</time>
      </trkpt>
      <trkpt lat="43.193087" lon="-5.786045">
        <ele>372.408</ele>
        <time>1999-07-21T13:10:22Z</time>
      </trkpt>
      <trkpt lat="43.193150" lon="-5.786132">
        <ele>372.226</ele>
        <time>1999-07-21T13:10:23Z</time>
      </trkpt>
      <trkpt lat="43.193216" lon="-5.786226">
        <ele>372.061</ele>
        <time>1999-07-21T13:10:24Z</time>
      </trkpt>
      <trkpt lat="43.193373" lon="-5.786578">
        <ele>371.421</ele>
        <time>1999-07-21T13:10:27Z</time>
      </trkpt>
      <trkpt lat="43.193411" lon="-5.786688">
        <ele>371.032</ele>
        <time>1999-07-21T13:10:28Z</time>
      </trkpt>
      <trkpt lat="43.193468" lon="-5.786764">
        <ele>370.810</ele>
        <time>1999-07-21T13:10:29Z</time>
      </trkpt>
      <trkpt lat="43.193528" lon="-5.786808">
        <ele>370.228</ele>
        <time>1999-07-21T13:10:30Z</time>
      </trkpt>
      <trkpt lat="43.193579" lon="-5.786813">
        <ele>369.649</ele>
        <time>1999-07-21T13:10:31Z</time>
      </trkpt>
      <trkpt lat="43.193617" lon="-5.786774">
        <ele>368.825</ele>
        <time>1999-07-21T13:10:32Z</time>
      </trkpt>
      <trkpt lat="43.193633" lon="-5.786711">
        <ele>367.879</ele>
        <time>1999-07-21T13:10:33Z</time>
      </trkpt>
      <trkpt lat="43.193632" lon="-5.786631">
        <ele>367.005</ele>
        <time>1999-07-21T13:10:34Z</time>
      </trkpt>
      <trkpt lat="43.193613" lon="-5.786536">
        <ele>366.025</ele>
        <time>1999-07-21T13:10:35Z</time>
      </trkpt>
      <trkpt lat="43.193590" lon="-5.786427">
        <ele>365.008</ele>
        <time>1999-07-21T13:10:36Z</time>
      </trkpt>
      <trkpt lat="43.193568" lon="-5.786313">
        <ele>363.810</ele>
        <time>1999-07-21T13:10:37Z</time>
      </trkpt>
      <trkpt lat="43.193557" lon="-5.786188">
        <ele>362.675</ele>
        <time>1999-07-21T13:10:38Z</time>
      </trkpt>
      <trkpt lat="43.193542" lon="-5.786064">
        <ele>361.455</ele>
        <time>1999-07-21T13:10:39Z</time>
      </trkpt>
      <trkpt lat="43.193505" lon="-5.785946">
        <ele>360.266</ele>
        <time>1999-07-21T13:10:40Z</time>
      </trkpt>
      <trkpt lat="43.193459" lon="-5.785832">
        <ele>359.274</ele>
        <time>1999-07-21T13:10:41Z</time>
      </trkpt>
      <trkpt lat="43.193420" lon="-5.785709">
        <ele>358.662</ele>
        <time>1999-07-21T13:10:42Z</time>
      </trkpt>
      <trkpt lat="43.193392" lon="-5.785443">
        <ele>356.633</ele>
        <time>1999-07-21T13:10:44Z</time>
      </trkpt>
      <trkpt lat="43.193465" lon="-5.785172">
        <ele>355.219</ele>
        <time>1999-07-21T13:10:46Z</time>
      </trkpt>
      <trkpt lat="43.193521" lon="-5.785036">
        <ele>354.626</ele>
        <time>1999-07-21T13:10:47Z</time>
      </trkpt>
      <trkpt lat="43.193582" lon="-5.784904">
        <ele>353.847</ele>
        <time>1999-07-21T13:10:48Z</time>
      </trkpt>
      <trkpt lat="43.193645" lon="-5.784769">
        <ele>352.611</ele>
        <time>1999-07-21T13:10:49Z</time>
      </trkpt>
      <trkpt lat="43.193704" lon="-5.784634">
        <ele>351.208</ele>
        <time>1999-07-21T13:10:50Z</time>
      </trkpt>
      <trkpt lat="43.193755" lon="-5.784515">
        <ele>350.085</ele>
        <time>1999-07-21T13:10:51Z</time>
      </trkpt>
      <trkpt lat="43.193803" lon="-5.784417">
        <ele>348.830</ele>
        <time>1999-07-21T13:10:52Z</time>
      </trkpt>
      <trkpt lat="43.193853" lon="-5.784349">
        <ele>347.670</ele>
        <time>1999-07-21T13:10:53Z</time>
      </trkpt>
      <trkpt lat="43.193920" lon="-5.784309">
        <ele>346.611</ele>
        <time>1999-07-21T13:10:54Z</time>
      </trkpt>
      <trkpt lat="43.194076" lon="-5.784341">
        <ele>344.869</ele>
        <time>1999-07-21T13:10:56Z</time>
      </trkpt>
      <trkpt lat="43.194166" lon="-5.784375">
        <ele>344.087</ele>
        <time>1999-07-21T13:10:57Z</time>
      </trkpt>
      <trkpt lat="43.194255" lon="-5.784417">
        <ele>343.458</ele>
        <time>1999-07-21T13:10:58Z</time>
      </trkpt>
      <trkpt lat="43.194349" lon="-5.784469">
        <ele>341.844</ele>
        <time>1999-07-21T13:10:59Z</time>
      </trkpt>
      <trkpt lat="43.194437" lon="-5.784531">
        <ele>340.291</ele>
        <time>1999-07-21T13:11:00Z</time>
      </trkpt>
      <trkpt lat="43.194502" lon="-5.784618">
        <ele>338.881</ele>
        <time>1999-07-21T13:11:01Z</time>
      </trkpt>
      <trkpt lat="43.194541" lon="-5.784719">
        <ele>337.619</ele>
        <time>1999-07-21T13:11:02Z</time>
      </trkpt>
      <trkpt lat="43.194561" lon="-5.784817">
        <ele>336.208</ele>
        <time>1999-07-21T13:11:03Z</time>
      </trkpt>
      <trkpt lat="43.194525" lon="-5.785025">
        <ele>334.482</ele>
        <time>1999-07-21T13:11:05Z</time>
      </trkpt>
      <trkpt lat="43.194472" lon="-5.785121">
        <ele>333.297</ele>
        <time>1999-07-21T13:11:06Z</time>
      </trkpt>
      <trkpt lat="43.194413" lon="-5.785214">
        <ele>332.467</ele>
        <time>1999-07-21T13:11:07Z</time>
      </trkpt>
      <trkpt lat="43.194365" lon="-5.785309">
        <ele>331.668</ele>
        <time>1999-07-21T13:11:08Z</time>
      </trkpt>
      <trkpt lat="43.194338" lon="-5.785411">
        <ele>330.866</ele>
        <time>1999-07-21T13:11:09Z</time>
      </trkpt>
      <trkpt lat="43.194348" lon="-5.785625">
        <ele>327.214</ele>
        <time>1999-07-21T13:11:11Z</time>
      </trkpt>
      <trkpt lat="43.194380" lon="-5.785727">
        <ele>325.885</ele>
        <time>1999-07-21T13:11:12Z</time>
      </trkpt>
      <trkpt lat="43.194419" lon="-5.785818">
        <ele>324.811</ele>
        <time>1999-07-21T13:11:13Z</time>
      </trkpt>
      <trkpt lat="43.194474" lon="-5.785879">
        <ele>323.828</ele>
        <time>1999-07-21T13:11:14Z</time>
      </trkpt>
      <trkpt lat="43.194545" lon="-5.785912">
        <ele>322.689</ele>
        <time>1999-07-21T13:11:15Z</time>
      </trkpt>
      <trkpt lat="43.194616" lon="-5.785916">
        <ele>321.217</ele>
        <time>1999-07-21T13:11:16Z</time>
      </trkpt>
      <trkpt lat="43.194689" lon="-5.785877">
        <ele>320.008</ele>
        <time>1999-07-21T13:11:17Z</time>
      </trkpt>
      <trkpt lat="43.194744" lon="-5.785799">
        <ele>319.075</ele>
        <time>1999-07-21T13:11:18Z</time>
      </trkpt>
      <trkpt lat="43.194815" lon="-5.785589">
        <ele>317.480</ele>
        <time>1999-07-21T13:11:20Z</time>
      </trkpt>
      <trkpt lat="43.194833" lon="-5.785478">
        <ele>316.440</ele>
        <time>1999-07-21T13:11:21Z</time>
      </trkpt>
      <trkpt lat="43.194841" lon="-5.785370">
        <ele>315.421</ele>
        <time>1999-07-21T13:11:22Z</time>
      </trkpt>
      <trkpt lat="43.194842" lon="-5.785269">
        <ele>314.249</ele>
        <time>1999-07-21T13:11:23Z</time>
      </trkpt>
      <trkpt lat="43.194846" lon="-5.785185">
        <ele>313.277</ele>
        <time>1999-07-21T13:11:24Z</time>
      </trkpt>
      <trkpt lat="43.194895" lon="-5.785092">
        <ele>311.648</ele>
        <time>1999-07-21T13:11:26Z</time>
      </trkpt>
      <trkpt lat="43.194931" lon="-5.785097">
        <ele>311.094</ele>
        <time>1999-07-21T13:11:27Z</time>
      </trkpt>
      <trkpt lat="43.194968" lon="-5.785146">
        <ele>310.447</ele>
        <time>1999-07-21T13:11:28Z</time>
      </trkpt>
      <trkpt lat="43.195002" lon="-5.785225">
        <ele>309.829</ele>
        <time>1999-07-21T13:11:29Z</time>
      </trkpt>
      <trkpt lat="43.195036" lon="-5.785320">
        <ele>309.021</ele>
        <time>1999-07-21T13:11:30Z</time>
      </trkpt>
      <trkpt lat="43.195042" lon="-5.785454">
        <ele>308.008</ele>
        <time>1999-07-21T13:11:31Z</time>
      </trkpt>
      <trkpt lat="43.195048" lon="-5.785584">
        <ele>306.697</ele>
        <time>1999-07-21T13:11:32Z</time>
      </trkpt>
      <trkpt lat="43.195058" lon="-5.785704">
        <ele>305.482</ele>
        <time>1999-07-21T13:11:33Z</time>
      </trkpt>
      <trkpt lat="43.195095" lon="-5.785879">
        <ele>303.632</ele>
        <time>1999-07-21T13:11:35Z</time>
      </trkpt>
      <trkpt lat="43.195120" lon="-5.785922">
        <ele>303.293</ele>
        <time>1999-07-21T13:11:36Z</time>
      </trkpt>
      <trkpt lat="43.195145" lon="-5.785923">
        <ele>302.411</ele>
        <time>1999-07-21T13:11:37Z</time>
      </trkpt>
      <trkpt lat="43.195161" lon="-5.785892">
        <ele>300.669</ele>
        <time>1999-07-21T13:11:38Z</time>
      </trkpt>
      <trkpt lat="43.195167" lon="-5.785806">
        <ele>298.830</ele>
        <time>1999-07-21T13:11:40Z</time>
      </trkpt>
      <trkpt lat="43.195165" lon="-5.785748">
        <ele>297.666</ele>
        <time>1999-07-21T13:11:41Z</time>
      </trkpt>
      <trkpt lat="43.195169" lon="-5.785678">
        <ele>296.224</ele>
        <time>1999-07-21T13:11:42Z</time>
      </trkpt>
      <trkpt lat="43.195181" lon="-5.785599">
        <ele>294.604</ele>
        <time>1999-07-21T13:11:43Z</time>
      </trkpt>
      <trkpt lat="43.195197" lon="-5.785511">
        <ele>293.214</ele>
        <time>1999-07-21T13:11:44Z</time>
      </trkpt>
      <trkpt lat="43.195210" lon="-5.785412">
        <ele>292.208</ele>
        <time>1999-07-21T13:11:45Z</time>
      </trkpt>
      <trkpt lat="43.195232" lon="-5.785179">
        <ele>290.835</ele>
        <time>1999-07-21T13:11:47Z</time>
      </trkpt>
      <trkpt lat="43.195250" lon="-5.785052">
        <ele>290.240</ele>
        <time>1999-07-21T13:11:48Z</time>
      </trkpt>
      <trkpt lat="43.195273" lon="-5.784920">
        <ele>289.420</ele>
        <time>1999-07-21T13:11:49Z</time>
      </trkpt>
      <trkpt lat="43.195312" lon="-5.784649">
        <ele>288.481</ele>
        <time>1999-07-21T13:11:51Z</time>
      </trkpt>
      <trkpt lat="43.195340" lon="-5.784400">
        <ele>287.239</ele>
        <time>1999-07-21T13:11:53Z</time>
      </trkpt>
      <trkpt lat="43.195345" lon="-5.784300">
        <ele>286.467</ele>
        <time>1999-07-21T13:11:54Z</time>
      </trkpt>
      <trkpt lat="43.195341" lon="-5.784215">
        <ele>286.058</ele>
        <time>1999-07-21T13:11:55Z</time>
      </trkpt>
      <trkpt lat="43.195336" lon="-5.784144">
        <ele>285.464</ele>
        <time>1999-07-21T13:11:56Z</time>
      </trkpt>
      <trkpt lat="43.195333" lon="-5.784087">
        <ele>284.644</ele>
        <time>1999-07-21T13:11:57Z</time>
      </trkpt>
      <trkpt lat="43.195342" lon="-5.784047">
        <ele>283.805</ele>
        <time>1999-07-21T13:11:58Z</time>
      </trkpt>
      <trkpt lat="43.195363" lon="-5.784033">
        <ele>283.015</ele>
        <time>1999-07-21T13:11:59Z</time>
      </trkpt>
      <trkpt lat="43.195407" lon="-5.784087">
        <ele>281.008</ele>
        <time>1999-07-21T13:12:01Z</time>
      </trkpt>
      <trkpt lat="43.195423" lon="-5.784133">
        <ele>279.697</ele>
        <time>1999-07-21T13:12:02Z</time>
      </trkpt>
      <trkpt lat="43.195435" lon="-5.784182">
        <ele>278.252</ele>
        <time>1999-07-21T13:12:03Z</time>
      </trkpt>
      <trkpt lat="43.195445" lon="-5.784242">
        <ele>277.072</ele>
        <time>1999-07-21T13:12:04Z</time>
      </trkpt>
      <trkpt lat="43.195454" lon="-5.784308">
        <ele>275.873</ele>
        <time>1999-07-21T13:12:05Z</time>
      </trkpt>
      <trkpt lat="43.195456" lon="-5.784384">
        <ele>274.411</ele>
        <time>1999-07-21T13:12:06Z</time>
      </trkpt>
      <trkpt lat="43.195457" lon="-5.784461">
        <ele>274.059</ele>
        <time>1999-07-21T13:12:07Z</time>
      </trkpt>
      <trkpt lat="43.195459" lon="-5.784535">
        <ele>274.020</ele>
        <time>1999-07-21T13:12:08Z</time>
      </trkpt>
      <trkpt lat="43.195473" lon="-5.784686">
        <ele>273.696</ele>
        <time>1999-07-21T13:12:10Z</time>
      </trkpt>
      <trkpt lat="43.195487" lon="-5.784763">
        <ele>273.674</ele>
        <time>1999-07-21T13:12:11Z</time>
      </trkpt>
      <trkpt lat="43.195493" lon="-5.784945">
        <ele>273.456</ele>
        <time>1999-07-21T13:12:13Z</time>
      </trkpt>
      <trkpt lat="43.195480" lon="-5.785052">
        <ele>273.421</ele>
        <time>1999-07-21T13:12:14Z</time>
      </trkpt>
      <trkpt lat="43.195481" lon="-5.785258">
        <ele>273.208</ele>
        <time>1999-07-21T13:12:16Z</time>
      </trkpt>
      <trkpt lat="43.195485" lon="-5.785451">
        <ele>273.030</ele>
        <time>1999-07-21T13:12:18Z</time>
      </trkpt>
      <trkpt lat="43.195550" lon="-5.785872">
        <ele>272.835</ele>
        <time>1999-07-21T13:12:23Z</time>
      </trkpt>
      <trkpt lat="43.195571" lon="-5.786068">
        <ele>272.825</ele>
        <time>1999-07-21T13:12:25Z</time>
      </trkpt>
      <trkpt lat="43.195608" lon="-5.786369">
        <ele>272.876</ele>
        <time>1999-07-21T13:12:28Z</time>
      </trkpt>
      <trkpt lat="43.195623" lon="-5.786579">
        <ele>272.664</ele>
        <time>1999-07-21T13:12:30Z</time>
      </trkpt>
      <trkpt lat="43.195636" lon="-5.786979">
        <ele>271.622</ele>
        <time>1999-07-21T13:12:34Z</time>
      </trkpt>
      <trkpt lat="43.195632" lon="-5.787075">
        <ele>271.473</ele>
        <time>1999-07-21T13:12:35Z</time>
      </trkpt>
      <trkpt lat="43.195644" lon="-5.787533">
        <ele>271.269</ele>
        <time>1999-07-21T13:12:40Z</time>
      </trkpt>
      <trkpt lat="43.195659" lon="-5.787624">
        <ele>271.095</ele>
        <time>1999-07-21T13:12:41Z</time>
      </trkpt>
      <trkpt lat="43.195727" lon="-5.787977">
        <ele>271.049</ele>
        <time>1999-07-21T13:12:45Z</time>
      </trkpt>
      <trkpt lat="43.195743" lon="-5.788409">
        <ele>271.023</ele>
        <time>1999-07-21T13:12:50Z</time>
      </trkpt>
      <trkpt lat="43.195688" lon="-5.788924">
        <ele>271.008</ele>
        <time>1999-07-21T13:12:56Z</time>
      </trkpt>
      <trkpt lat="43.195626" lon="-5.789244">
        <ele>270.892</ele>
        <time>1999-07-21T13:13:00Z</time>
      </trkpt>
      <trkpt lat="43.195586" lon="-5.789393">
        <ele>270.837</ele>
        <time>1999-07-21T13:13:02Z</time>
      </trkpt>
      <trkpt lat="43.195565" lon="-5.789468">
        <ele>270.867</ele>
        <time>1999-07-21T13:13:03Z</time>
      </trkpt>
      <trkpt lat="43.195414" lon="-5.789890">
        <ele>270.898</ele>
        <time>1999-07-21T13:13:09Z</time>
      </trkpt>
      <trkpt lat="43.195400" lon="-5.789946">
        <ele>270.866</ele>
        <time>1999-07-21T13:13:10Z</time>
      </trkpt>
      <trkpt lat="43.195426" lon="-5.790003">
        <ele>270.834</ele>
        <time>1999-07-21T13:13:12Z</time>
      </trkpt>
      <trkpt lat="43.195515" lon="-5.789936">
        <ele>270.855</ele>
        <time>1999-07-21T13:13:15Z</time>
      </trkpt>
      <trkpt lat="43.195552" lon="-5.789901">
        <ele>270.891</ele>
        <time>1999-07-21T13:13:16Z</time>
      </trkpt>
      <trkpt lat="43.195766" lon="-5.789714">
        <ele>270.622</ele>
        <time>1999-07-21T13:13:21Z</time>
      </trkpt>
      <trkpt lat="43.195863" lon="-5.789634">
        <ele>270.662</ele>
        <time>1999-07-21T13:13:23Z</time>
      </trkpt>
      <trkpt lat="43.195996" lon="-5.789535">
        <ele>270.408</ele>
        <time>1999-07-21T13:13:26Z</time>
      </trkpt>
      <trkpt lat="43.196030" lon="-5.789502">
        <ele>270.208</ele>
        <time>1999-07-21T13:13:27Z</time>
      </trkpt>
      <trkpt lat="43.196061" lon="-5.789466">
        <ele>270.285</ele>
        <time>1999-07-21T13:13:28Z</time>
      </trkpt>
      <trkpt lat="43.196105" lon="-5.789379">
        <ele>269.820</ele>
        <time>1999-07-21T13:13:30Z</time>
      </trkpt>
      <trkpt lat="43.196156" lon="-5.789302">
        <ele>269.020</ele>
        <time>1999-07-21T13:13:32Z</time>
      </trkpt>
      <trkpt lat="43.196187" lon="-5.789270">
        <ele>268.691</ele>
        <time>1999-07-21T13:13:33Z</time>
      </trkpt>
      <trkpt lat="43.196267" lon="-5.789201">
        <ele>268.039</ele>
        <time>1999-07-21T13:13:36Z</time>
      </trkpt>
      <trkpt lat="43.196325" lon="-5.789163">
        <ele>268.037</ele>
        <time>1999-07-21T13:13:38Z</time>
      </trkpt>
      <trkpt lat="43.196407" lon="-5.789118">
        <ele>268.018</ele>
        <time>1999-07-21T13:13:40Z</time>
      </trkpt>
      <trkpt lat="43.196503" lon="-5.789105">
        <ele>267.884</ele>
        <time>1999-07-21T13:13:42Z</time>
      </trkpt>
      <trkpt lat="43.196602" lon="-5.789107">
        <ele>267.854</ele>
        <time>1999-07-21T13:13:44Z</time>
      </trkpt>
      <trkpt lat="43.196760" lon="-5.789101">
        <ele>267.856</ele>
        <time>1999-07-21T13:13:47Z</time>
      </trkpt>
      <trkpt lat="43.196813" lon="-5.789080">
        <ele>267.811</ele>
        <time>1999-07-21T13:13:48Z</time>
      </trkpt>
      <trkpt lat="43.197243" lon="-5.788860">
        <ele>268.008</ele>
        <time>1999-07-21T13:13:56Z</time>
      </trkpt>
      <trkpt lat="43.197469" lon="-5.788759">
        <ele>267.898</ele>
        <time>1999-07-21T13:14:00Z</time>
      </trkpt>
      <trkpt lat="43.197579" lon="-5.788723">
        <ele>267.813</ele>
        <time>1999-07-21T13:14:02Z</time>
      </trkpt>
      <trkpt lat="43.197631" lon="-5.788709">
        <ele>267.883</ele>
        <time>1999-07-21T13:14:03Z</time>
      </trkpt>
      <trkpt lat="43.197816" lon="-5.788668">
        <ele>268.074</ele>
        <time>1999-07-21T13:14:07Z</time>
      </trkpt>
      <trkpt lat="43.198081" lon="-5.788629">
        <ele>268.082</ele>
        <time>1999-07-21T13:14:13Z</time>
      </trkpt>
      <trkpt lat="43.198114" lon="-5.788663">
        <ele>268.090</ele>
        <time>1999-07-21T13:14:14Z</time>
      </trkpt>
      <trkpt lat="43.198241" lon="-5.788842">
        <ele>268.051</ele>
        <time>1999-07-21T13:14:18Z</time>
      </trkpt>
      <trkpt lat="43.198277" lon="-5.788917">
        <ele>268.067</ele>
        <time>1999-07-21T13:14:19Z</time>
      </trkpt>
      <trkpt lat="43.198354" lon="-5.789112">
        <ele>268.093</ele>
        <time>1999-07-21T13:14:22Z</time>
      </trkpt>
      <trkpt lat="43.198379" lon="-5.789158">
        <ele>267.865</ele>
        <time>1999-07-21T13:14:23Z</time>
      </trkpt>
      <trkpt lat="43.198501" lon="-5.789245">
        <ele>267.821</ele>
        <time>1999-07-21T13:14:27Z</time>
      </trkpt>
      <trkpt lat="43.198539" lon="-5.789258">
        <ele>267.808</ele>
        <time>1999-07-21T13:14:28Z</time>
      </trkpt>
      <trkpt lat="43.198650" lon="-5.789283">
        <ele>267.852</ele>
        <time>1999-07-21T13:14:31Z</time>
      </trkpt>
      <trkpt lat="43.198740" lon="-5.789294">
        <ele>268.287</ele>
        <time>1999-07-21T13:14:33Z</time>
      </trkpt>
      <trkpt lat="43.198887" lon="-5.789306">
        <ele>268.817</ele>
        <time>1999-07-21T13:14:36Z</time>
      </trkpt>
      <trkpt lat="43.199033" lon="-5.789323">
        <ele>269.218</ele>
        <time>1999-07-21T13:14:39Z</time>
      </trkpt>
      <trkpt lat="43.199138" lon="-5.789321">
        <ele>269.426</ele>
        <time>1999-07-21T13:14:41Z</time>
      </trkpt>
      <trkpt lat="43.199645" lon="-5.789339">
        <ele>269.454</ele>
        <time>1999-07-21T13:14:50Z</time>
      </trkpt>
      <trkpt lat="43.200043" lon="-5.789310">
        <ele>269.475</ele>
        <time>1999-07-21T13:14:57Z</time>
      </trkpt>
      <trkpt lat="43.200428" lon="-5.789202">
        <ele>269.641</ele>
        <time>1999-07-21T13:15:04Z</time>
      </trkpt>
      <trkpt lat="43.200792" lon="-5.789060">
        <ele>269.673</ele>
        <time>1999-07-21T13:15:11Z</time>
      </trkpt>
      <trkpt lat="43.200975" lon="-5.789012">
        <ele>269.885</ele>
        <time>1999-07-21T13:15:15Z</time>
      </trkpt>
      <trkpt lat="43.201062" lon="-5.789010">
        <ele>269.813</ele>
        <time>1999-07-21T13:15:17Z</time>
      </trkpt>
      <trkpt lat="43.201217" lon="-5.789005">
        <ele>270.008</ele>
        <time>1999-07-21T13:15:21Z</time>
      </trkpt>
      <trkpt lat="43.201283" lon="-5.788998">
        <ele>270.240</ele>
        <time>1999-07-21T13:15:23Z</time>
      </trkpt>
      <trkpt lat="43.201304" lon="-5.788995">
        <ele>270.255</ele>
        <time>1999-07-21T13:15:24Z</time>
      </trkpt>
      <trkpt lat="43.201349" lon="-5.788983">
        <ele>270.235</ele>
        <time>1999-07-21T13:15:29Z</time>
      </trkpt>
      <trkpt lat="43.201401" lon="-5.788967">
        <ele>269.236</ele>
        <time>1999-07-21T13:15:34Z</time>
      </trkpt>
      <trkpt lat="43.201432" lon="-5.788946">
        <ele>269.064</ele>
        <time>1999-07-21T13:15:35Z</time>
      </trkpt>
      <trkpt lat="43.201469" lon="-5.788920">
        <ele>269.022</ele>
        <time>1999-07-21T13:15:36Z</time>
      </trkpt>
      <trkpt lat="43.201516" lon="-5.788893">
        <ele>269.023</ele>
        <time>1999-07-21T13:15:37Z</time>
      </trkpt>
      <trkpt lat="43.201625" lon="-5.788823">
        <ele>268.859</ele>
        <time>1999-07-21T13:15:39Z</time>
      </trkpt>
      <trkpt lat="43.202086" lon="-5.788498">
        <ele>268.683</ele>
        <time>1999-07-21T13:15:47Z</time>
      </trkpt>
      <trkpt lat="43.202255" lon="-5.788364">
        <ele>267.625</ele>
        <time>1999-07-21T13:15:52Z</time>
      </trkpt>
      <trkpt lat="43.202413" lon="-5.788223">
        <ele>266.217</ele>
        <time>1999-07-21T13:15:55Z</time>
      </trkpt>
      <trkpt lat="43.202479" lon="-5.788169">
        <ele>265.408</ele>
        <time>1999-07-21T13:15:56Z</time>
      </trkpt>
      <trkpt lat="43.202544" lon="-5.788111">
        <ele>265.021</ele>
        <time>1999-07-21T13:15:57Z</time>
      </trkpt>
      <trkpt lat="43.202789" lon="-5.787884">
        <ele>263.896</ele>
        <time>1999-07-21T13:16:01Z</time>
      </trkpt>
      <trkpt lat="43.202853" lon="-5.787831">
        <ele>263.876</ele>
        <time>1999-07-21T13:16:02Z</time>
      </trkpt>
      <trkpt lat="43.203278" lon="-5.787587">
        <ele>263.017</ele>
        <time>1999-07-21T13:16:08Z</time>
      </trkpt>
      <trkpt lat="43.203571" lon="-5.787485">
        <ele>262.855</ele>
        <time>1999-07-21T13:16:12Z</time>
      </trkpt>
      <trkpt lat="43.203785" lon="-5.787432">
        <ele>263.013</ele>
        <time>1999-07-21T13:16:15Z</time>
      </trkpt>
      <trkpt lat="43.204054" lon="-5.787415">
        <ele>263.024</ele>
        <time>1999-07-21T13:16:19Z</time>
      </trkpt>
      <trkpt lat="43.204120" lon="-5.787417">
        <ele>263.030</ele>
        <time>1999-07-21T13:16:20Z</time>
      </trkpt>
      <trkpt lat="43.204385" lon="-5.787419">
        <ele>263.078</ele>
        <time>1999-07-21T13:16:24Z</time>
      </trkpt>
      <trkpt lat="43.204653" lon="-5.787443">
        <ele>263.033</ele>
        <time>1999-07-21T13:16:28Z</time>
      </trkpt>
      <trkpt lat="43.205117" lon="-5.787521">
        <ele>263.226</ele>
        <time>1999-07-21T13:16:35Z</time>
      </trkpt>
      <trkpt lat="43.205570" lon="-5.787608">
        <ele>262.808</ele>
        <time>1999-07-21T13:16:42Z</time>
      </trkpt>
      <trkpt lat="43.206067" lon="-5.787703">
        <ele>262.680</ele>
        <time>1999-07-21T13:16:50Z</time>
      </trkpt>
      <trkpt lat="43.206327" lon="-5.787749">
        <ele>262.415</ele>
        <time>1999-07-21T13:16:54Z</time>
      </trkpt>
      <trkpt lat="43.206527" lon="-5.787783">
        <ele>262.235</ele>
        <time>1999-07-21T13:16:57Z</time>
      </trkpt>
      <trkpt lat="43.206959" lon="-5.787882">
        <ele>261.826</ele>
        <time>1999-07-21T13:17:04Z</time>
      </trkpt>
      <trkpt lat="43.207312" lon="-5.788066">
        <ele>261.294</ele>
        <time>1999-07-21T13:17:10Z</time>
      </trkpt>
      <trkpt lat="43.207658" lon="-5.788276">
        <ele>260.682</ele>
        <time>1999-07-21T13:17:16Z</time>
      </trkpt>
      <trkpt lat="43.207773" lon="-5.788329">
        <ele>260.463</ele>
        <time>1999-07-21T13:17:18Z</time>
      </trkpt>
      <trkpt lat="43.208248" lon="-5.788552">
        <ele>260.019</ele>
        <time>1999-07-21T13:17:26Z</time>
      </trkpt>
      <trkpt lat="43.208742" lon="-5.788774">
        <ele>260.057</ele>
        <time>1999-07-21T13:17:34Z</time>
      </trkpt>
      <trkpt lat="43.209067" lon="-5.788870">
        <ele>259.600</ele>
        <time>1999-07-21T13:17:39Z</time>
      </trkpt>
      <trkpt lat="43.209131" lon="-5.788871">
        <ele>259.420</ele>
        <time>1999-07-21T13:17:40Z</time>
      </trkpt>
      <trkpt lat="43.209260" lon="-5.788847">
        <ele>259.408</ele>
        <time>1999-07-21T13:17:42Z</time>
      </trkpt>
      <trkpt lat="43.209382" lon="-5.788760">
        <ele>259.248</ele>
        <time>1999-07-21T13:17:44Z</time>
      </trkpt>
      <trkpt lat="43.209581" lon="-5.788537">
        <ele>259.263</ele>
        <time>1999-07-21T13:17:48Z</time>
      </trkpt>
      <trkpt lat="43.209626" lon="-5.788482">
        <ele>259.263</ele>
        <time>1999-07-21T13:17:49Z</time>
      </trkpt>
      <trkpt lat="43.209877" lon="-5.788163">
        <ele>259.224</ele>
        <time>1999-07-21T13:17:55Z</time>
      </trkpt>
      <trkpt lat="43.210108" lon="-5.787826">
        <ele>260.092</ele>
        <time>1999-07-21T13:18:01Z</time>
      </trkpt>
      <trkpt lat="43.210394" lon="-5.787358">
        <ele>260.230</ele>
        <time>1999-07-21T13:18:09Z</time>
      </trkpt>
      <trkpt lat="43.210634" lon="-5.786945">
        <ele>260.631</ele>
        <time>1999-07-21T13:18:16Z</time>
      </trkpt>
      <trkpt lat="43.210670" lon="-5.786890">
        <ele>260.647</ele>
        <time>1999-07-21T13:18:17Z</time>
      </trkpt>
      <trkpt lat="43.210791" lon="-5.786777">
        <ele>260.824</ele>
        <time>1999-07-21T13:18:20Z</time>
      </trkpt>
      <trkpt lat="43.210874" lon="-5.786752">
        <ele>261.004</ele>
        <time>1999-07-21T13:18:22Z</time>
      </trkpt>
      <trkpt lat="43.210914" lon="-5.786744">
        <ele>261.014</ele>
        <time>1999-07-21T13:18:23Z</time>
      </trkpt>
      <trkpt lat="43.210956" lon="-5.786744">
        <ele>261.008</ele>
        <time>1999-07-21T13:18:24Z</time>
      </trkpt>
      <trkpt lat="43.210993" lon="-5.786758">
        <ele>261.055</ele>
        <time>1999-07-21T13:18:25Z</time>
      </trkpt>
      <trkpt lat="43.211118" lon="-5.786876">
        <ele>261.860</ele>
        <time>1999-07-21T13:18:29Z</time>
      </trkpt>
      <trkpt lat="43.211143" lon="-5.786916">
        <ele>261.870</ele>
        <time>1999-07-21T13:18:30Z</time>
      </trkpt>
      <trkpt lat="43.211205" lon="-5.786988">
        <ele>262.031</ele>
        <time>1999-07-21T13:18:32Z</time>
      </trkpt>
      <trkpt lat="43.211261" lon="-5.787077">
        <ele>262.059</ele>
        <time>1999-07-21T13:18:34Z</time>
      </trkpt>
      <trkpt lat="43.211318" lon="-5.787167">
        <ele>262.277</ele>
        <time>1999-07-21T13:18:36Z</time>
      </trkpt>
      <trkpt lat="43.211386" lon="-5.787260">
        <ele>262.298</ele>
        <time>1999-07-21T13:18:39Z</time>
      </trkpt>
      <trkpt lat="43.211399" lon="-5.787279">
        <ele>262.214</ele>
        <time>1999-07-21T13:18:40Z</time>
      </trkpt>
      <trkpt lat="43.211416" lon="-5.787294">
        <ele>262.015</ele>
        <time>1999-07-21T13:18:44Z</time>
      </trkpt>
      <trkpt lat="43.211444" lon="-5.787431">
        <ele>261.265</ele>
        <time>1999-07-21T13:20:24Z</time>
      </trkpt>
      <trkpt lat="43.211464" lon="-5.787465">
        <ele>261.211</ele>
        <time>1999-07-21T13:20:25Z</time>
      </trkpt>
      <trkpt lat="43.211488" lon="-5.787498">
        <ele>261.208</ele>
        <time>1999-07-21T13:20:26Z</time>
      </trkpt>
      <trkpt lat="43.211543" lon="-5.787562">
        <ele>261.274</ele>
        <time>1999-07-21T13:20:28Z</time>
      </trkpt>
      <trkpt lat="43.211645" lon="-5.787663">
        <ele>261.229</ele>
        <time>1999-07-21T13:20:31Z</time>
      </trkpt>
      <trkpt lat="43.211678" lon="-5.787701">
        <ele>261.239</ele>
        <time>1999-07-21T13:20:32Z</time>
      </trkpt>
      <trkpt lat="43.211744" lon="-5.787782">
        <ele>261.460</ele>
        <time>1999-07-21T13:20:34Z</time>
      </trkpt>
      <trkpt lat="43.211813" lon="-5.787863">
        <ele>261.418</ele>
        <time>1999-07-21T13:20:36Z</time>
      </trkpt>
      <trkpt lat="43.211886" lon="-5.787942">
        <ele>261.486</ele>
        <time>1999-07-21T13:20:38Z</time>
      </trkpt>
      <trkpt lat="43.212063" lon="-5.788132">
        <ele>261.617</ele>
        <time>1999-07-21T13:20:43Z</time>
      </trkpt>
      <trkpt lat="43.212104" lon="-5.788159">
        <ele>261.633</ele>
        <time>1999-07-21T13:20:44Z</time>
      </trkpt>
      <trkpt lat="43.212143" lon="-5.788170">
        <ele>261.835</ele>
        <time>1999-07-21T13:20:45Z</time>
      </trkpt>
      <trkpt lat="43.212273" lon="-5.788140">
        <ele>261.886</ele>
        <time>1999-07-21T13:20:48Z</time>
      </trkpt>
      <trkpt lat="43.212323" lon="-5.788126">
        <ele>261.814</ele>
        <time>1999-07-21T13:20:49Z</time>
      </trkpt>
      <trkpt lat="43.212648" lon="-5.788040">
        <ele>262.008</ele>
        <time>1999-07-21T13:20:55Z</time>
      </trkpt>
      <trkpt lat="43.213133" lon="-5.787925">
        <ele>261.856</ele>
        <time>1999-07-21T13:21:04Z</time>
      </trkpt>
      <trkpt lat="43.213409" lon="-5.787853">
        <ele>261.821</ele>
        <time>1999-07-21T13:21:09Z</time>
      </trkpt>
      <trkpt lat="43.213524" lon="-5.787821">
        <ele>261.821</ele>
        <time>1999-07-21T13:21:11Z</time>
      </trkpt>
      <trkpt lat="43.213760" lon="-5.787765">
        <ele>261.692</ele>
        <time>1999-07-21T13:21:15Z</time>
      </trkpt>
      <trkpt lat="43.213936" lon="-5.787716">
        <ele>261.680</ele>
        <time>1999-07-21T13:21:18Z</time>
      </trkpt>
      <trkpt lat="43.214270" lon="-5.787592">
        <ele>261.428</ele>
        <time>1999-07-21T13:21:24Z</time>
      </trkpt>
      <trkpt lat="43.214645" lon="-5.787416">
        <ele>261.099</ele>
        <time>1999-07-21T13:21:31Z</time>
      </trkpt>
      <trkpt lat="43.215033" lon="-5.787180">
        <ele>260.685</ele>
        <time>1999-07-21T13:21:38Z</time>
      </trkpt>
      <trkpt lat="43.215097" lon="-5.787145">
        <ele>260.627</ele>
        <time>1999-07-21T13:21:39Z</time>
      </trkpt>
      <trkpt lat="43.215271" lon="-5.787070">
        <ele>260.468</ele>
        <time>1999-07-21T13:21:42Z</time>
      </trkpt>
      <trkpt lat="43.215645" lon="-5.786831">
        <ele>260.414</ele>
        <time>1999-07-21T13:21:49Z</time>
      </trkpt>
      <trkpt lat="43.216156" lon="-5.786507">
        <ele>260.008</ele>
        <time>1999-07-21T13:21:58Z</time>
      </trkpt>
      <trkpt lat="43.216436" lon="-5.786325">
        <ele>259.895</ele>
        <time>1999-07-21T13:22:03Z</time>
      </trkpt>
      <trkpt lat="43.216659" lon="-5.786181">
        <ele>259.820</ele>
        <time>1999-07-21T13:22:07Z</time>
      </trkpt>
      <trkpt lat="43.216828" lon="-5.786069">
        <ele>259.660</ele>
        <time>1999-07-21T13:22:10Z</time>
      </trkpt>
      <trkpt lat="43.217246" lon="-5.785815">
        <ele>259.281</ele>
        <time>1999-07-21T13:22:17Z</time>
      </trkpt>
      <trkpt lat="43.217546" lon="-5.785642">
        <ele>258.699</ele>
        <time>1999-07-21T13:22:22Z</time>
      </trkpt>
      <trkpt lat="43.217792" lon="-5.785505">
        <ele>258.497</ele>
        <time>1999-07-21T13:22:26Z</time>
      </trkpt>
      <trkpt lat="43.218170" lon="-5.785351">
        <ele>258.268</ele>
        <time>1999-07-21T13:22:32Z</time>
      </trkpt>
      <trkpt lat="43.218224" lon="-5.785324">
        <ele>258.064</ele>
        <time>1999-07-21T13:22:33Z</time>
      </trkpt>
      <trkpt lat="43.218296" lon="-5.785249">
        <ele>258.093</ele>
        <time>1999-07-21T13:22:35Z</time>
      </trkpt>
      <trkpt lat="43.218334" lon="-5.785178">
        <ele>258.065</ele>
        <time>1999-07-21T13:22:38Z</time>
      </trkpt>
      <trkpt lat="43.218337" lon="-5.785151">
        <ele>257.821</ele>
        <time>1999-07-21T13:22:39Z</time>
      </trkpt>
      <trkpt lat="43.218335" lon="-5.785122">
        <ele>257.608</ele>
        <time>1999-07-21T13:22:40Z</time>
      </trkpt>
      <trkpt lat="43.218325" lon="-5.785056">
        <ele>257.242</ele>
        <time>1999-07-21T13:22:42Z</time>
      </trkpt>
      <trkpt lat="43.218293" lon="-5.784966">
        <ele>256.897</ele>
        <time>1999-07-21T13:22:45Z</time>
      </trkpt>
      <trkpt lat="43.218259" lon="-5.784916">
        <ele>256.627</ele>
        <time>1999-07-21T13:22:47Z</time>
      </trkpt>
      <trkpt lat="43.218209" lon="-5.784877">
        <ele>256.478</ele>
        <time>1999-07-21T13:22:49Z</time>
      </trkpt>
      <trkpt lat="43.218178" lon="-5.784871">
        <ele>256.286</ele>
        <time>1999-07-21T13:22:50Z</time>
      </trkpt>
      <trkpt lat="43.218074" lon="-5.784883">
        <ele>255.884</ele>
        <time>1999-07-21T13:22:54Z</time>
      </trkpt>
      <trkpt lat="43.218070" lon="-5.784867">
        <ele>255.845</ele>
        <time>1999-07-21T13:22:55Z</time>
      </trkpt>
      <trkpt lat="43.218127" lon="-5.784849">
        <ele>255.871</ele>
        <time>1999-07-21T13:22:58Z</time>
      </trkpt>
      <trkpt lat="43.218224" lon="-5.784907">
        <ele>255.898</ele>
        <time>1999-07-21T13:23:01Z</time>
      </trkpt>
      <trkpt lat="43.218247" lon="-5.784947">
        <ele>255.815</ele>
        <time>1999-07-21T13:23:02Z</time>
      </trkpt>
      <trkpt lat="43.218303" lon="-5.785134">
        <ele>255.826</ele>
        <time>1999-07-21T13:23:06Z</time>
      </trkpt>
      <trkpt lat="43.218363" lon="-5.785214">
        <ele>255.808</ele>
        <time>1999-07-21T13:23:09Z</time>
      </trkpt>
      <trkpt lat="43.218525" lon="-5.785129">
        <ele>255.882</ele>
        <time>1999-07-21T13:23:13Z</time>
      </trkpt>
      <trkpt lat="43.218568" lon="-5.785102">
        <ele>255.857</ele>
        <time>1999-07-21T13:23:14Z</time>
      </trkpt>
      <trkpt lat="43.218612" lon="-5.785078">
        <ele>255.857</ele>
        <time>1999-07-21T13:23:15Z</time>
      </trkpt>
      <trkpt lat="43.218731" lon="-5.785015">
        <ele>255.868</ele>
        <time>1999-07-21T13:23:18Z</time>
      </trkpt>
      <trkpt lat="43.218773" lon="-5.784983">
        <ele>256.086</ele>
        <time>1999-07-21T13:23:19Z</time>
      </trkpt>
      <trkpt lat="43.218922" lon="-5.784901">
        <ele>256.014</ele>
        <time>1999-07-21T13:23:22Z</time>
      </trkpt>
      <trkpt lat="43.219138" lon="-5.784858">
        <ele>256.035</ele>
        <time>1999-07-21T13:23:26Z</time>
      </trkpt>
      <trkpt lat="43.219197" lon="-5.784865">
        <ele>256.041</ele>
        <time>1999-07-21T13:23:27Z</time>
      </trkpt>
      <trkpt lat="43.219496" lon="-5.784923">
        <ele>255.653</ele>
        <time>1999-07-21T13:23:32Z</time>
      </trkpt>
      <trkpt lat="43.219558" lon="-5.784934">
        <ele>255.604</ele>
        <time>1999-07-21T13:23:33Z</time>
      </trkpt>
      <trkpt lat="43.219822" lon="-5.784974">
        <ele>255.614</ele>
        <time>1999-07-21T13:23:37Z</time>
      </trkpt>
      <trkpt lat="43.220094" lon="-5.785029">
        <ele>255.608</ele>
        <time>1999-07-21T13:23:41Z</time>
      </trkpt>
      <trkpt lat="43.220637" lon="-5.785112">
        <ele>255.278</ele>
        <time>1999-07-21T13:23:49Z</time>
      </trkpt>
      <trkpt lat="43.220832" lon="-5.785155">
        <ele>255.283</ele>
        <time>1999-07-21T13:23:52Z</time>
      </trkpt>
      <trkpt lat="43.221082" lon="-5.785226">
        <ele>255.063</ele>
        <time>1999-07-21T13:23:56Z</time>
      </trkpt>
      <trkpt lat="43.221526" lon="-5.785354">
        <ele>254.854</ele>
        <time>1999-07-21T13:24:03Z</time>
      </trkpt>
      <trkpt lat="43.221882" lon="-5.785457">
        <ele>254.242</ele>
        <time>1999-07-21T13:24:09Z</time>
      </trkpt>
      <trkpt lat="43.221943" lon="-5.785472">
        <ele>254.280</ele>
        <time>1999-07-21T13:24:10Z</time>
      </trkpt>
      <trkpt lat="43.222261" lon="-5.785589">
        <ele>253.841</ele>
        <time>1999-07-21T13:24:15Z</time>
      </trkpt>
      <trkpt lat="43.222359" lon="-5.785620">
        <ele>253.247</ele>
        <time>1999-07-21T13:24:17Z</time>
      </trkpt>
      <trkpt lat="43.222429" lon="-5.785616">
        <ele>253.098</ele>
        <time>1999-07-21T13:24:19Z</time>
      </trkpt>
      <trkpt lat="43.222530" lon="-5.785582">
        <ele>252.815</ele>
        <time>1999-07-21T13:24:23Z</time>
      </trkpt>
      <trkpt lat="43.222582" lon="-5.785570">
        <ele>252.826</ele>
        <time>1999-07-21T13:24:25Z</time>
      </trkpt>
      <trkpt lat="43.222777" lon="-5.785574">
        <ele>254.008</ele>
        <time>1999-07-21T13:24:31Z</time>
      </trkpt>
      <trkpt lat="43.222909" lon="-5.785547">
        <ele>254.282</ele>
        <time>1999-07-21T13:24:34Z</time>
      </trkpt>
      <trkpt lat="43.223005" lon="-5.785528">
        <ele>254.237</ele>
        <time>1999-07-21T13:24:36Z</time>
      </trkpt>
      <trkpt lat="43.223312" lon="-5.785538">
        <ele>253.697</ele>
        <time>1999-07-21T13:24:42Z</time>
      </trkpt>
      <trkpt lat="43.223671" lon="-5.785486">
        <ele>253.258</ele>
        <time>1999-07-21T13:24:48Z</time>
      </trkpt>
      <trkpt lat="43.224033" lon="-5.785438">
        <ele>253.056</ele>
        <time>1999-07-21T13:24:54Z</time>
      </trkpt>
      <trkpt lat="43.224361" lon="-5.785422">
        <ele>253.094</ele>
        <time>1999-07-21T13:24:59Z</time>
      </trkpt>
      <trkpt lat="43.224683" lon="-5.785333">
        <ele>253.065</ele>
        <time>1999-07-21T13:25:04Z</time>
      </trkpt>
      <trkpt lat="43.224892" lon="-5.785297">
        <ele>252.471</ele>
        <time>1999-07-21T13:25:07Z</time>
      </trkpt>
      <trkpt lat="43.225037" lon="-5.785280">
        <ele>252.086</ele>
        <time>1999-07-21T13:25:09Z</time>
      </trkpt>
      <trkpt lat="43.225178" lon="-5.785247">
        <ele>251.660</ele>
        <time>1999-07-21T13:25:11Z</time>
      </trkpt>
      <trkpt lat="43.225252" lon="-5.785222">
        <ele>251.426</ele>
        <time>1999-07-21T13:25:12Z</time>
      </trkpt>
      <trkpt lat="43.225411" lon="-5.785190">
        <ele>251.008</ele>
        <time>1999-07-21T13:25:14Z</time>
      </trkpt>
      <trkpt lat="43.225646" lon="-5.785146">
        <ele>250.611</ele>
        <time>1999-07-21T13:25:17Z</time>
      </trkpt>
      <trkpt lat="43.225816" lon="-5.785118">
        <ele>250.236</ele>
        <time>1999-07-21T13:25:19Z</time>
      </trkpt>
      <trkpt lat="43.226066" lon="-5.785074">
        <ele>249.636</ele>
        <time>1999-07-21T13:25:22Z</time>
      </trkpt>
      <trkpt lat="43.226310" lon="-5.785006">
        <ele>248.857</ele>
        <time>1999-07-21T13:25:25Z</time>
      </trkpt>
      <trkpt lat="43.226387" lon="-5.784980">
        <ele>248.495</ele>
        <time>1999-07-21T13:25:26Z</time>
      </trkpt>
      <trkpt lat="43.226721" lon="-5.784890">
        <ele>246.823</ele>
        <time>1999-07-21T13:25:30Z</time>
      </trkpt>
      <trkpt lat="43.226804" lon="-5.784866">
        <ele>246.234</ele>
        <time>1999-07-21T13:25:31Z</time>
      </trkpt>
      <trkpt lat="43.226964" lon="-5.784820">
        <ele>245.610</ele>
        <time>1999-07-21T13:25:33Z</time>
      </trkpt>
      <trkpt lat="43.227296" lon="-5.784710">
        <ele>244.617</ele>
        <time>1999-07-21T13:25:37Z</time>
      </trkpt>
      <trkpt lat="43.227378" lon="-5.784696">
        <ele>244.487</ele>
        <time>1999-07-21T13:25:38Z</time>
      </trkpt>
      <trkpt lat="43.227538" lon="-5.784643">
        <ele>244.015</ele>
        <time>1999-07-21T13:25:40Z</time>
      </trkpt>
      <trkpt lat="43.227699" lon="-5.784567">
        <ele>243.608</ele>
        <time>1999-07-21T13:25:42Z</time>
      </trkpt>
      <trkpt lat="43.227776" lon="-5.784533">
        <ele>243.674</ele>
        <time>1999-07-21T13:25:43Z</time>
      </trkpt>
      <trkpt lat="43.228224" lon="-5.784325">
        <ele>243.269</ele>
        <time>1999-07-21T13:25:49Z</time>
      </trkpt>
      <trkpt lat="43.228632" lon="-5.784053">
        <ele>242.659</ele>
        <time>1999-07-21T13:25:55Z</time>
      </trkpt>
      <trkpt lat="43.228771" lon="-5.783963">
        <ele>242.440</ele>
        <time>1999-07-21T13:25:57Z</time>
      </trkpt>
      <trkpt lat="43.229322" lon="-5.783637">
        <ele>241.858</ele>
        <time>1999-07-21T13:26:05Z</time>
      </trkpt>
      <trkpt lat="43.229750" lon="-5.783394">
        <ele>241.676</ele>
        <time>1999-07-21T13:26:11Z</time>
      </trkpt>
      <trkpt lat="43.229902" lon="-5.783305">
        <ele>241.627</ele>
        <time>1999-07-21T13:26:13Z</time>
      </trkpt>
      <trkpt lat="43.230331" lon="-5.783043">
        <ele>241.423</ele>
        <time>1999-07-21T13:26:19Z</time>
      </trkpt>
      <trkpt lat="43.230811" lon="-5.782735">
        <ele>241.083</ele>
        <time>1999-07-21T13:26:26Z</time>
      </trkpt>
      <trkpt lat="43.231219" lon="-5.782475">
        <ele>240.825</ele>
        <time>1999-07-21T13:26:32Z</time>
      </trkpt>
      <trkpt lat="43.231619" lon="-5.782232">
        <ele>240.617</ele>
        <time>1999-07-21T13:26:38Z</time>
      </trkpt>
      <trkpt lat="43.232020" lon="-5.782013">
        <ele>240.208</ele>
        <time>1999-07-21T13:26:44Z</time>
      </trkpt>
      <trkpt lat="43.232483" lon="-5.781815">
        <ele>240.071</ele>
        <time>1999-07-21T13:26:51Z</time>
      </trkpt>
      <trkpt lat="43.232951" lon="-5.781650">
        <ele>239.676</ele>
        <time>1999-07-21T13:26:58Z</time>
      </trkpt>
      <trkpt lat="43.233352" lon="-5.781535">
        <ele>239.486</ele>
        <time>1999-07-21T13:27:04Z</time>
      </trkpt>
      <trkpt lat="43.233833" lon="-5.781443">
        <ele>239.097</ele>
        <time>1999-07-21T13:27:11Z</time>
      </trkpt>
      <trkpt lat="43.233899" lon="-5.781434">
        <ele>239.075</ele>
        <time>1999-07-21T13:27:12Z</time>
      </trkpt>
      <trkpt lat="43.234239" lon="-5.781394">
        <ele>238.623</ele>
        <time>1999-07-21T13:27:17Z</time>
      </trkpt>
      <trkpt lat="43.234621" lon="-5.781382">
        <ele>238.224</ele>
        <time>1999-07-21T13:27:23Z</time>
      </trkpt>
      <trkpt lat="43.234750" lon="-5.781383">
        <ele>237.830</ele>
        <time>1999-07-21T13:27:25Z</time>
      </trkpt>
      <trkpt lat="43.235089" lon="-5.781377">
        <ele>237.699</ele>
        <time>1999-07-21T13:27:30Z</time>
      </trkpt>
      <trkpt lat="43.235547" lon="-5.781365">
        <ele>237.407</ele>
        <time>1999-07-21T13:27:37Z</time>
      </trkpt>
      <trkpt lat="43.235953" lon="-5.781336">
        <ele>237.027</ele>
        <time>1999-07-21T13:27:43Z</time>
      </trkpt>
      <trkpt lat="43.236025" lon="-5.781333">
        <ele>236.808</ele>
        <time>1999-07-21T13:27:44Z</time>
      </trkpt>
      <trkpt lat="43.236434" lon="-5.781304">
        <ele>236.412</ele>
        <time>1999-07-21T13:27:50Z</time>
      </trkpt>
      <trkpt lat="43.236923" lon="-5.781228">
        <ele>236.297</ele>
        <time>1999-07-21T13:27:57Z</time>
      </trkpt>
      <trkpt lat="43.237213" lon="-5.781186">
        <ele>236.297</ele>
        <time>1999-07-21T13:28:01Z</time>
      </trkpt>
      <trkpt lat="43.237356" lon="-5.781176">
        <ele>236.078</ele>
        <time>1999-07-21T13:28:03Z</time>
      </trkpt>
      <trkpt lat="43.237789" lon="-5.781079">
        <ele>235.836</ele>
        <time>1999-07-21T13:28:09Z</time>
      </trkpt>
      <trkpt lat="43.238240" lon="-5.780920">
        <ele>235.464</ele>
        <time>1999-07-21T13:28:15Z</time>
      </trkpt>
      <trkpt lat="43.238665" lon="-5.780801">
        <ele>235.415</ele>
        <time>1999-07-21T13:28:21Z</time>
      </trkpt>
      <trkpt lat="43.238860" lon="-5.780754">
        <ele>235.261</ele>
        <time>1999-07-21T13:28:24Z</time>
      </trkpt>
      <trkpt lat="43.238985" lon="-5.780720">
        <ele>235.297</ele>
        <time>1999-07-21T13:28:26Z</time>
      </trkpt>
      <trkpt lat="43.239430" lon="-5.780595">
        <ele>234.823</ele>
        <time>1999-07-21T13:28:33Z</time>
      </trkpt>
      <trkpt lat="43.239873" lon="-5.780505">
        <ele>234.425</ele>
        <time>1999-07-21T13:28:40Z</time>
      </trkpt>
      <trkpt lat="43.240014" lon="-5.780478">
        <ele>234.208</ele>
        <time>1999-07-21T13:28:42Z</time>
      </trkpt>
      <trkpt lat="43.240276" lon="-5.780462">
        <ele>233.812</ele>
        <time>1999-07-21T13:28:46Z</time>
      </trkpt>
      <trkpt lat="43.240755" lon="-5.780421">
        <ele>233.697</ele>
        <time>1999-07-21T13:28:53Z</time>
      </trkpt>
      <trkpt lat="43.241162" lon="-5.780408">
        <ele>233.677</ele>
        <time>1999-07-21T13:28:59Z</time>
      </trkpt>
      <trkpt lat="43.241549" lon="-5.780397">
        <ele>233.648</ele>
        <time>1999-07-21T13:29:05Z</time>
      </trkpt>
      <trkpt lat="43.241613" lon="-5.780402">
        <ele>233.446</ele>
        <time>1999-07-21T13:29:06Z</time>
      </trkpt>
      <trkpt lat="43.241931" lon="-5.780430">
        <ele>233.274</ele>
        <time>1999-07-21T13:29:11Z</time>
      </trkpt>
      <trkpt lat="43.242300" lon="-5.780472">
        <ele>233.055</ele>
        <time>1999-07-21T13:29:17Z</time>
      </trkpt>
      <trkpt lat="43.242659" lon="-5.780549">
        <ele>232.891</ele>
        <time>1999-07-21T13:29:23Z</time>
      </trkpt>
      <trkpt lat="43.242973" lon="-5.780613">
        <ele>232.443</ele>
        <time>1999-07-21T13:29:28Z</time>
      </trkpt>
      <trkpt lat="43.243380" lon="-5.780668">
        <ele>232.464</ele>
        <time>1999-07-21T13:29:34Z</time>
      </trkpt>
      <trkpt lat="43.243690" lon="-5.780729">
        <ele>232.210</ele>
        <time>1999-07-21T13:29:39Z</time>
      </trkpt>
      <trkpt lat="43.243752" lon="-5.780758">
        <ele>232.008</ele>
        <time>1999-07-21T13:29:40Z</time>
      </trkpt>
      <trkpt lat="43.244035" lon="-5.780857">
        <ele>231.887</ele>
        <time>1999-07-21T13:29:45Z</time>
      </trkpt>
      <trkpt lat="43.244368" lon="-5.780863">
        <ele>231.812</ele>
        <time>1999-07-21T13:29:50Z</time>
      </trkpt>
      <trkpt lat="43.244560" lon="-5.780900">
        <ele>231.682</ele>
        <time>1999-07-21T13:29:53Z</time>
      </trkpt>
      <trkpt lat="43.244757" lon="-5.780951">
        <ele>231.693</ele>
        <time>1999-07-21T13:29:56Z</time>
      </trkpt>
      <trkpt lat="43.245075" lon="-5.780990">
        <ele>231.031</ele>
        <time>1999-07-21T13:30:01Z</time>
      </trkpt>
      <trkpt lat="43.245272" lon="-5.781017">
        <ele>230.899</ele>
        <time>1999-07-21T13:30:04Z</time>
      </trkpt>
      <trkpt lat="43.245467" lon="-5.781051">
        <ele>230.680</ele>
        <time>1999-07-21T13:30:07Z</time>
      </trkpt>
      <trkpt lat="43.245728" lon="-5.781126">
        <ele>230.286</ele>
        <time>1999-07-21T13:30:11Z</time>
      </trkpt>
      <trkpt lat="43.245793" lon="-5.781136">
        <ele>230.213</ele>
        <time>1999-07-21T13:30:12Z</time>
      </trkpt>
      <trkpt lat="43.246142" lon="-5.781195">
        <ele>229.843</ele>
        <time>1999-07-21T13:30:17Z</time>
      </trkpt>
      <trkpt lat="43.246277" lon="-5.781221">
        <ele>229.607</ele>
        <time>1999-07-21T13:30:19Z</time>
      </trkpt>
      <trkpt lat="43.246697" lon="-5.781294">
        <ele>229.408</ele>
        <time>1999-07-21T13:30:25Z</time>
      </trkpt>
      <trkpt lat="43.247019" lon="-5.781346">
        <ele>229.674</ele>
        <time>1999-07-21T13:30:30Z</time>
      </trkpt>
      <trkpt lat="43.247084" lon="-5.781355">
        <ele>229.689</ele>
        <time>1999-07-21T13:30:31Z</time>
      </trkpt>
      <trkpt lat="43.247530" lon="-5.781422">
        <ele>229.469</ele>
        <time>1999-07-21T13:30:38Z</time>
      </trkpt>
      <trkpt lat="43.247823" lon="-5.781481">
        <ele>229.030</ele>
        <time>1999-07-21T13:30:43Z</time>
      </trkpt>
      <trkpt lat="43.247882" lon="-5.781499">
        <ele>228.898</ele>
        <time>1999-07-21T13:30:44Z</time>
      </trkpt>
      <trkpt lat="43.248191" lon="-5.781555">
        <ele>228.616</ele>
        <time>1999-07-21T13:30:49Z</time>
      </trkpt>
      <trkpt lat="43.248289" lon="-5.781587">
        <ele>228.457</ele>
        <time>1999-07-21T13:30:51Z</time>
      </trkpt>
      <trkpt lat="43.248353" lon="-5.781628">
        <ele>228.273</ele>
        <time>1999-07-21T13:30:53Z</time>
      </trkpt>
      <trkpt lat="43.248478" lon="-5.781637">
        <ele>228.216</ele>
        <time>1999-07-21T13:30:56Z</time>
      </trkpt>
      <trkpt lat="43.248522" lon="-5.781647">
        <ele>227.876</ele>
        <time>1999-07-21T13:30:57Z</time>
      </trkpt>
      <trkpt lat="43.248566" lon="-5.781657">
        <ele>227.613</ele>
        <time>1999-07-21T13:30:58Z</time>
      </trkpt>
      <trkpt lat="43.248809" lon="-5.781718">
        <ele>227.208</ele>
        <time>1999-07-21T13:31:03Z</time>
      </trkpt>
      <trkpt lat="43.248860" lon="-5.781727">
        <ele>227.284</ele>
        <time>1999-07-21T13:31:04Z</time>
      </trkpt>
      <trkpt lat="43.249134" lon="-5.781770">
        <ele>227.449</ele>
        <time>1999-07-21T13:31:09Z</time>
      </trkpt>
      <trkpt lat="43.249462" lon="-5.781834">
        <ele>227.439</ele>
        <time>1999-07-21T13:31:15Z</time>
      </trkpt>
      <trkpt lat="43.249626" lon="-5.781860">
        <ele>227.470</ele>
        <time>1999-07-21T13:31:18Z</time>
      </trkpt>
      <trkpt lat="43.249880" lon="-5.781909">
        <ele>227.678</ele>
        <time>1999-07-21T13:31:23Z</time>
      </trkpt>
      <trkpt lat="43.250033" lon="-5.781908">
        <ele>228.016</ele>
        <time>1999-07-21T13:31:27Z</time>
      </trkpt>
      <trkpt lat="43.250261" lon="-5.781965">
        <ele>228.457</ele>
        <time>1999-07-21T13:31:32Z</time>
      </trkpt>
      <trkpt lat="43.250359" lon="-5.781966">
        <ele>228.453</ele>
        <time>1999-07-21T13:31:34Z</time>
      </trkpt>
      <trkpt lat="43.250505" lon="-5.781982">
        <ele>228.686</ele>
        <time>1999-07-21T13:31:37Z</time>
      </trkpt>
      <trkpt lat="43.250553" lon="-5.781995">
        <ele>228.660</ele>
        <time>1999-07-21T13:31:38Z</time>
      </trkpt>
      <trkpt lat="43.250689" lon="-5.782069">
        <ele>229.226</ele>
        <time>1999-07-21T13:31:41Z</time>
      </trkpt>
      <trkpt lat="43.250783" lon="-5.782069">
        <ele>229.608</ele>
        <time>1999-07-21T13:31:44Z</time>
      </trkpt>
      <trkpt lat="43.250801" lon="-5.782052">
        <ele>229.821</ele>
        <time>1999-07-21T13:31:45Z</time>
      </trkpt>
      <trkpt lat="43.250814" lon="-5.781957">
        <ele>229.896</ele>
        <time>1999-07-21T13:31:48Z</time>
      </trkpt>
      <trkpt lat="43.250807" lon="-5.781862">
        <ele>229.876</ele>
        <time>1999-07-21T13:31:50Z</time>
      </trkpt>
      <trkpt lat="43.250789" lon="-5.781637">
        <ele>229.627</ele>
        <time>1999-07-21T13:31:54Z</time>
      </trkpt>
      <trkpt lat="43.250750" lon="-5.781092">
        <ele>229.455</ele>
        <time>1999-07-21T13:32:03Z</time>
      </trkpt>
      <trkpt lat="43.250745" lon="-5.781046">
        <ele>229.483</ele>
        <time>1999-07-21T13:32:04Z</time>
      </trkpt>
      <trkpt lat="43.250744" lon="-5.780979">
        <ele>229.424</ele>
        <time>1999-07-21T13:32:07Z</time>
      </trkpt>
      <trkpt lat="43.250749" lon="-5.780974">
        <ele>229.410</ele>
        <time>1999-07-21T13:32:08Z</time>
      </trkpt>
      <trkpt lat="43.250754" lon="-5.780970">
        <ele>229.487</ele>
        <time>1999-07-21T13:32:10Z</time>
      </trkpt>
      <trkpt lat="43.250839" lon="-5.780825">
        <ele>226.042</ele>
        <time>1999-07-21T13:32:38Z</time>
      </trkpt>
      <trkpt lat="43.250834" lon="-5.780760">
        <ele>226.226</ele>
        <time>1999-07-21T13:32:39Z</time>
      </trkpt>
      <trkpt lat="43.250780" lon="-5.780671">
        <ele>225.808</ele>
        <time>1999-07-21T13:32:41Z</time>
      </trkpt>
      <trkpt lat="43.250778" lon="-5.780632">
        <ele>225.881</ele>
        <time>1999-07-21T13:32:43Z</time>
      </trkpt>
      <trkpt lat="43.250753" lon="-5.780589">
        <ele>225.876</ele>
        <time>1999-07-21T13:32:48Z</time>
      </trkpt>
      <trkpt lat="43.250757" lon="-5.780590">
        <ele>225.886</ele>
        <time>1999-07-21T13:32:49Z</time>
      </trkpt>
      <trkpt lat="43.250705" lon="-5.780522">
        <ele>231.267</ele>
        <time>1999-07-21T13:38:50Z</time>
      </trkpt>
      <trkpt lat="43.250713" lon="-5.780538">
        <ele>231.275</ele>
        <time>1999-07-21T13:38:51Z</time>
      </trkpt>
      <trkpt lat="43.250724" lon="-5.780547">
        <ele>231.253</ele>
        <time>1999-07-21T13:38:52Z</time>
      </trkpt>
      <trkpt lat="43.250761" lon="-5.780552">
        <ele>230.284</ele>
        <time>1999-07-21T13:38:55Z</time>
      </trkpt>
      <trkpt lat="43.250770" lon="-5.780554">
        <ele>230.050</ele>
        <time>1999-07-21T13:38:56Z</time>
      </trkpt>
      <trkpt lat="43.250788" lon="-5.780560">
        <ele>228.836</ele>
        <time>1999-07-21T13:38:58Z</time>
      </trkpt>
      <trkpt lat="43.250816" lon="-5.780581">
        <ele>228.217</ele>
        <time>1999-07-21T13:39:01Z</time>
      </trkpt>
      <trkpt lat="43.250821" lon="-5.780598">
        <ele>228.018</ele>
        <time>1999-07-21T13:39:03Z</time>
      </trkpt>
      <trkpt lat="43.250820" lon="-5.780607">
        <ele>227.808</ele>
        <time>1999-07-21T13:39:04Z</time>
      </trkpt>
      <trkpt lat="43.250822" lon="-5.780652">
        <ele>226.656</ele>
        <time>1999-07-21T13:39:07Z</time>
      </trkpt>
      <trkpt lat="43.250869" lon="-5.780729">
        <ele>226.051</ele>
        <time>1999-07-21T13:39:11Z</time>
      </trkpt>
      <trkpt lat="43.250928" lon="-5.780847">
        <ele>225.821</ele>
        <time>1999-07-21T13:39:17Z</time>
      </trkpt>
      <trkpt lat="43.250890" lon="-5.780909">
        <ele>225.812</ele>
        <time>1999-07-21T13:39:19Z</time>
      </trkpt>
      <trkpt lat="43.250739" lon="-5.781083">
        <ele>228.650</ele>
        <time>1999-07-21T13:39:44Z</time>
      </trkpt>
      <trkpt lat="43.250741" lon="-5.781120">
        <ele>228.868</ele>
        <time>1999-07-21T13:39:45Z</time>
      </trkpt>
      <trkpt lat="43.250753" lon="-5.781254">
        <ele>229.059</ele>
        <time>1999-07-21T13:39:48Z</time>
      </trkpt>
      <trkpt lat="43.250759" lon="-5.781406">
        <ele>229.045</ele>
        <time>1999-07-21T13:39:51Z</time>
      </trkpt>
      <trkpt lat="43.250782" lon="-5.781790">
        <ele>229.252</ele>
        <time>1999-07-21T13:39:58Z</time>
      </trkpt>
      <trkpt lat="43.250785" lon="-5.781846">
        <ele>229.253</ele>
        <time>1999-07-21T13:39:59Z</time>
      </trkpt>
      <trkpt lat="43.250797" lon="-5.782051">
        <ele>229.208</ele>
        <time>1999-07-21T13:40:04Z</time>
      </trkpt>
      <trkpt lat="43.250796" lon="-5.782058">
        <ele>229.208</ele>
        <time>1999-07-21T13:40:06Z</time>
      </trkpt>
      <trkpt lat="43.250732" lon="-5.782063">
        <ele>228.888</ele>
        <time>1999-07-21T13:42:17Z</time>
      </trkpt>
      <trkpt lat="43.250720" lon="-5.782062">
        <ele>228.813</ele>
        <time>1999-07-21T13:42:18Z</time>
      </trkpt>
      <trkpt lat="43.250706" lon="-5.782061">
        <ele>228.623</ele>
        <time>1999-07-21T13:42:19Z</time>
      </trkpt>
      <trkpt lat="43.250644" lon="-5.782024">
        <ele>228.684</ele>
        <time>1999-07-21T13:42:24Z</time>
      </trkpt>
      <trkpt lat="43.250619" lon="-5.782017">
        <ele>228.862</ele>
        <time>1999-07-21T13:42:26Z</time>
      </trkpt>
      <trkpt lat="43.250549" lon="-5.781997">
        <ele>228.810</ele>
        <time>1999-07-21T13:42:32Z</time>
      </trkpt>
      <trkpt lat="43.250540" lon="-5.781992">
        <ele>228.891</ele>
        <time>1999-07-21T13:42:33Z</time>
      </trkpt>
      <trkpt lat="43.250521" lon="-5.781983">
        <ele>228.677</ele>
        <time>1999-07-21T13:42:36Z</time>
      </trkpt>
      <trkpt lat="43.250431" lon="-5.782060">
        <ele>229.217</ele>
        <time>1999-07-21T13:43:53Z</time>
      </trkpt>
      <trkpt lat="43.250404" lon="-5.782053">
        <ele>229.087</ele>
        <time>1999-07-21T13:43:55Z</time>
      </trkpt>
      <trkpt lat="43.250361" lon="-5.782040">
        <ele>229.015</ele>
        <time>1999-07-21T13:44:01Z</time>
      </trkpt>
      <trkpt lat="43.250749" lon="-5.781890">
        <ele>225.608</ele>
        <time>1999-07-21T14:25:23Z</time>
      </trkpt>
      <trkpt lat="43.250740" lon="-5.781841">
        <ele>225.644</ele>
        <time>1999-07-21T14:25:25Z</time>
      </trkpt>
      <trkpt lat="43.250730" lon="-5.781735">
        <ele>225.629</ele>
        <time>1999-07-21T14:25:28Z</time>
      </trkpt>
      <trkpt lat="43.250715" lon="-5.781603">
        <ele>225.679</ele>
        <time>1999-07-21T14:25:31Z</time>
      </trkpt>
      <trkpt lat="43.250684" lon="-5.781183">
        <ele>225.630</ele>
        <time>1999-07-21T14:25:39Z</time>
      </trkpt>
      <trkpt lat="43.250675" lon="-5.781078">
        <ele>225.658</ele>
        <time>1999-07-21T14:25:42Z</time>
      </trkpt>
      <trkpt lat="43.250675" lon="-5.781054">
        <ele>225.696</ele>
        <time>1999-07-21T14:25:43Z</time>
      </trkpt>
      <trkpt lat="43.250716" lon="-5.780989">
        <ele>225.637</ele>
        <time>1999-07-21T14:25:47Z</time>
      </trkpt>
      <trkpt lat="43.250720" lon="-5.781010">
        <ele>225.693</ele>
        <time>1999-07-21T14:25:49Z</time>
      </trkpt>
      <trkpt lat="43.250714" lon="-5.781030">
        <ele>225.674</ele>
        <time>1999-07-21T14:25:50Z</time>
      </trkpt>
      <trkpt lat="43.250692" lon="-5.781260">
        <ele>226.056</ele>
        <time>1999-07-21T14:27:33Z</time>
      </trkpt>
      <trkpt lat="43.250686" lon="-5.781198">
        <ele>226.021</ele>
        <time>1999-07-21T14:27:34Z</time>
      </trkpt>
      <trkpt lat="43.250680" lon="-5.781139">
        <ele>226.008</ele>
        <time>1999-07-21T14:27:35Z</time>
      </trkpt>
      <trkpt lat="43.250683" lon="-5.781006">
        <ele>226.060</ele>
        <time>1999-07-21T14:27:38Z</time>
      </trkpt>
      <trkpt lat="43.250705" lon="-5.780992">
        <ele>226.055</ele>
        <time>1999-07-21T14:27:42Z</time>
      </trkpt>
      <trkpt lat="43.250714" lon="-5.780990">
        <ele>226.075</ele>
        <time>1999-07-21T14:27:43Z</time>
      </trkpt>
      <trkpt lat="43.250771" lon="-5.781001">
        <ele>225.856</ele>
        <time>1999-07-21T14:27:49Z</time>
      </trkpt>
      <trkpt lat="43.250777" lon="-5.781000">
        <ele>225.634</ele>
        <time>1999-07-21T14:27:51Z</time>
      </trkpt>
      <trkpt lat="43.250693" lon="-5.780846">
        <ele>222.822</ele>
        <time>1999-07-21T14:28:02Z</time>
      </trkpt>
      <trkpt lat="43.250700" lon="-5.780779">
        <ele>222.813</ele>
        <time>1999-07-21T14:28:03Z</time>
      </trkpt>
      <trkpt lat="43.250716" lon="-5.780693">
        <ele>222.659</ele>
        <time>1999-07-21T14:28:06Z</time>
      </trkpt>
      <trkpt lat="43.250718" lon="-5.780668">
        <ele>222.655</ele>
        <time>1999-07-21T14:28:07Z</time>
      </trkpt>
      <trkpt lat="43.250728" lon="-5.780613">
        <ele>222.607</ele>
        <time>1999-07-21T14:28:10Z</time>
      </trkpt>
      <trkpt lat="43.250722" lon="-5.780583">
        <ele>222.817</ele>
        <time>1999-07-21T14:28:14Z</time>
      </trkpt>
      <trkpt lat="43.250705" lon="-5.780574">
        <ele>223.208</ele>
        <time>1999-07-21T14:28:18Z</time>
      </trkpt>
      <trkpt lat="43.250696" lon="-5.780569">
        <ele>223.468</ele>
        <time>1999-07-21T14:28:20Z</time>
      </trkpt>
      <trkpt lat="43.250683" lon="-5.780567">
        <ele>224.093</ele>
        <time>1999-07-21T14:28:22Z</time>
      </trkpt>
      <trkpt lat="43.250663" lon="-5.780556">
        <ele>224.263</ele>
        <time>1999-07-21T14:28:24Z</time>
      </trkpt>
      <trkpt lat="43.250652" lon="-5.780521">
        <ele>224.624</ele>
        <time>1999-07-21T14:28:26Z</time>
      </trkpt>
      <trkpt lat="43.250652" lon="-5.780496">
        <ele>224.882</ele>
        <time>1999-07-21T14:28:28Z</time>
      </trkpt>
      <trkpt lat="43.250650" lon="-5.780481">
        <ele>225.040</ele>
        <time>1999-07-21T14:28:31Z</time>
      </trkpt>
      <trkpt lat="43.250661" lon="-5.780443">
        <ele>225.821</ele>
        <time>1999-07-21T14:28:37Z</time>
      </trkpt>
      <trkpt lat="43.250652" lon="-5.780369">
        <ele>227.687</ele>
        <time>1999-07-21T14:28:43Z</time>
      </trkpt>
      <trkpt lat="43.250655" lon="-5.780335">
        <ele>227.658</ele>
        <time>1999-07-21T14:28:44Z</time>
      </trkpt>
      <trkpt lat="43.250650" lon="-5.780170">
        <ele>228.052</ele>
        <time>1999-07-21T14:28:49Z</time>
      </trkpt>
      <trkpt lat="43.250651" lon="-5.780160">
        <ele>228.217</ele>
        <time>1999-07-21T14:28:51Z</time>
      </trkpt>
      <trkpt lat="43.250602" lon="-5.779979">
        <ele>225.408</ele>
        <time>1999-07-21T14:29:10Z</time>
      </trkpt>
      <trkpt lat="43.250587" lon="-5.779949">
        <ele>224.898</ele>
        <time>1999-07-21T14:29:11Z</time>
      </trkpt>
      <trkpt lat="43.250576" lon="-5.779904">
        <ele>224.433</ele>
        <time>1999-07-21T14:29:12Z</time>
      </trkpt>
      <trkpt lat="43.250567" lon="-5.779781">
        <ele>224.053</ele>
        <time>1999-07-21T14:29:14Z</time>
      </trkpt>
      <trkpt lat="43.250565" lon="-5.779715">
        <ele>223.864</ele>
        <time>1999-07-21T14:29:15Z</time>
      </trkpt>
      <trkpt lat="43.250556" lon="-5.779464">
        <ele>223.862</ele>
        <time>1999-07-21T14:29:19Z</time>
      </trkpt>
      <trkpt lat="43.250537" lon="-5.779340">
        <ele>223.620</ele>
        <time>1999-07-21T14:29:21Z</time>
      </trkpt>
      <trkpt lat="43.250511" lon="-5.779163">
        <ele>223.641</ele>
        <time>1999-07-21T14:29:24Z</time>
      </trkpt>
      <trkpt lat="43.250498" lon="-5.778981">
        <ele>223.637</ele>
        <time>1999-07-21T14:29:27Z</time>
      </trkpt>
      <trkpt lat="43.250498" lon="-5.778797">
        <ele>223.439</ele>
        <time>1999-07-21T14:29:30Z</time>
      </trkpt>
      <trkpt lat="43.250512" lon="-5.778741">
        <ele>223.201</ele>
        <time>1999-07-21T14:29:31Z</time>
      </trkpt>
      <trkpt lat="43.250536" lon="-5.778688">
        <ele>223.221</ele>
        <time>1999-07-21T14:29:32Z</time>
      </trkpt>
      <trkpt lat="43.250557" lon="-5.778585">
        <ele>223.208</ele>
        <time>1999-07-21T14:29:34Z</time>
      </trkpt>
      <trkpt lat="43.250524" lon="-5.778518">
        <ele>223.066</ele>
        <time>1999-07-21T14:29:36Z</time>
      </trkpt>
      <trkpt lat="43.250510" lon="-5.778488">
        <ele>223.051</ele>
        <time>1999-07-21T14:29:38Z</time>
      </trkpt>
      <trkpt lat="43.250446" lon="-5.778413">
        <ele>221.671</ele>
        <time>1999-07-21T14:31:15Z</time>
      </trkpt>
      <trkpt lat="43.250421" lon="-5.778402">
        <ele>221.612</ele>
        <time>1999-07-21T14:31:16Z</time>
      </trkpt>
      <trkpt lat="43.250357" lon="-5.778387">
        <ele>221.670</ele>
        <time>1999-07-21T14:31:20Z</time>
      </trkpt>
      <trkpt lat="43.250347" lon="-5.778385">
        <ele>221.668</ele>
        <time>1999-07-21T14:31:21Z</time>
      </trkpt>
      <trkpt lat="43.250350" lon="-5.778373">
        <ele>221.699</ele>
        <time>1999-07-21T14:31:22Z</time>
      </trkpt>
      <trkpt lat="43.250394" lon="-5.778318">
        <ele>221.675</ele>
        <time>1999-07-21T14:31:24Z</time>
      </trkpt>
      <trkpt lat="43.250530" lon="-5.778245">
        <ele>221.665</ele>
        <time>1999-07-21T14:31:28Z</time>
      </trkpt>
      <trkpt lat="43.250569" lon="-5.778223">
        <ele>221.668</ele>
        <time>1999-07-21T14:31:29Z</time>
      </trkpt>
      <trkpt lat="43.250660" lon="-5.778179">
        <ele>221.614</ele>
        <time>1999-07-21T14:31:32Z</time>
      </trkpt>
      <trkpt lat="43.250693" lon="-5.778176">
        <ele>221.608</ele>
        <time>1999-07-21T14:31:33Z</time>
      </trkpt>
      <trkpt lat="43.250839" lon="-5.778137">
        <ele>221.889</ele>
        <time>1999-07-21T14:31:38Z</time>
      </trkpt>
      <trkpt lat="43.250866" lon="-5.778134">
        <ele>221.854</ele>
        <time>1999-07-21T14:31:39Z</time>
      </trkpt>
      <trkpt lat="43.251000" lon="-5.778134">
        <ele>221.854</ele>
        <time>1999-07-21T14:31:43Z</time>
      </trkpt>
      <trkpt lat="43.251036" lon="-5.778127">
        <ele>221.675</ele>
        <time>1999-07-21T14:31:44Z</time>
      </trkpt>
      <trkpt lat="43.251219" lon="-5.778099">
        <ele>221.653</ele>
        <time>1999-07-21T14:31:48Z</time>
      </trkpt>
      <trkpt lat="43.251262" lon="-5.778107">
        <ele>221.631</ele>
        <time>1999-07-21T14:31:49Z</time>
      </trkpt>
      <trkpt lat="43.251385" lon="-5.778065">
        <ele>221.472</ele>
        <time>1999-07-21T14:31:52Z</time>
      </trkpt>
      <trkpt lat="43.251500" lon="-5.777911">
        <ele>221.438</ele>
        <time>1999-07-21T14:31:55Z</time>
      </trkpt>
      <trkpt lat="43.251548" lon="-5.777872">
        <ele>221.462</ele>
        <time>1999-07-21T14:31:56Z</time>
      </trkpt>
      <trkpt lat="43.251588" lon="-5.777857">
        <ele>221.283</ele>
        <time>1999-07-21T14:31:57Z</time>
      </trkpt>
      <trkpt lat="43.251699" lon="-5.777901">
        <ele>220.811</ele>
        <time>1999-07-21T14:32:00Z</time>
      </trkpt>
      <trkpt lat="43.251741" lon="-5.777930">
        <ele>220.808</ele>
        <time>1999-07-21T14:32:01Z</time>
      </trkpt>
      <trkpt lat="43.251841" lon="-5.777967">
        <ele>220.859</ele>
        <time>1999-07-21T14:32:03Z</time>
      </trkpt>
      <trkpt lat="43.251896" lon="-5.777971">
        <ele>220.884</ele>
        <time>1999-07-21T14:32:04Z</time>
      </trkpt>
      <trkpt lat="43.252000" lon="-5.777966">
        <ele>220.874</ele>
        <time>1999-07-21T14:32:06Z</time>
      </trkpt>
      <trkpt lat="43.252093" lon="-5.777942">
        <ele>220.815</ele>
        <time>1999-07-21T14:32:08Z</time>
      </trkpt>
      <trkpt lat="43.252203" lon="-5.777940">
        <ele>220.623</ele>
        <time>1999-07-21T14:32:10Z</time>
      </trkpt>
      <trkpt lat="43.252373" lon="-5.777948">
        <ele>220.651</ele>
        <time>1999-07-21T14:32:13Z</time>
      </trkpt>
      <trkpt lat="43.252556" lon="-5.777972">
        <ele>220.422</ele>
        <time>1999-07-21T14:32:17Z</time>
      </trkpt>
      <trkpt lat="43.252601" lon="-5.777976">
        <ele>220.478</ele>
        <time>1999-07-21T14:32:18Z</time>
      </trkpt>
      <trkpt lat="43.252807" lon="-5.777969">
        <ele>220.067</ele>
        <time>1999-07-21T14:32:22Z</time>
      </trkpt>
      <trkpt lat="43.253101" lon="-5.777949">
        <ele>220.081</ele>
        <time>1999-07-21T14:32:27Z</time>
      </trkpt>
      <trkpt lat="43.253156" lon="-5.777946">
        <ele>219.819</ele>
        <time>1999-07-21T14:32:28Z</time>
      </trkpt>
      <trkpt lat="43.253555" lon="-5.777910">
        <ele>219.808</ele>
        <time>1999-07-21T14:32:35Z</time>
      </trkpt>
      <trkpt lat="43.253729" lon="-5.777891">
        <ele>219.499</ele>
        <time>1999-07-21T14:32:38Z</time>
      </trkpt>
      <trkpt lat="43.254013" lon="-5.777821">
        <ele>219.074</ele>
        <time>1999-07-21T14:32:43Z</time>
      </trkpt>
      <trkpt lat="43.254184" lon="-5.777780">
        <ele>219.074</ele>
        <time>1999-07-21T14:32:47Z</time>
      </trkpt>
      <trkpt lat="43.254204" lon="-5.777776">
        <ele>219.055</ele>
        <time>1999-07-21T14:32:48Z</time>
      </trkpt>
      <trkpt lat="43.254257" lon="-5.777743">
        <ele>218.843</ele>
        <time>1999-07-21T14:32:53Z</time>
      </trkpt>
      <trkpt lat="43.254393" lon="-5.777700">
        <ele>218.411</ele>
        <time>1999-07-21T14:32:58Z</time>
      </trkpt>
      <trkpt lat="43.254443" lon="-5.777689">
        <ele>218.252</ele>
        <time>1999-07-21T14:32:59Z</time>
      </trkpt>
      <trkpt lat="43.254679" lon="-5.777687">
        <ele>218.298</ele>
        <time>1999-07-21T14:33:04Z</time>
      </trkpt>
      <trkpt lat="43.254727" lon="-5.777689">
        <ele>218.218</ele>
        <time>1999-07-21T14:33:05Z</time>
      </trkpt>
      <trkpt lat="43.254938" lon="-5.777695">
        <ele>218.298</ele>
        <time>1999-07-21T14:33:09Z</time>
      </trkpt>
      <trkpt lat="43.255247" lon="-5.777708">
        <ele>218.217</ele>
        <time>1999-07-21T14:33:14Z</time>
      </trkpt>
      <trkpt lat="43.255521" lon="-5.777827">
        <ele>218.208</ele>
        <time>1999-07-21T14:33:19Z</time>
      </trkpt>
      <trkpt lat="43.255575" lon="-5.777851">
        <ele>218.294</ele>
        <time>1999-07-21T14:33:20Z</time>
      </trkpt>
      <trkpt lat="43.255683" lon="-5.777894">
        <ele>218.079</ele>
        <time>1999-07-21T14:33:22Z</time>
      </trkpt>
      <trkpt lat="43.255875" lon="-5.777963">
        <ele>217.829</ele>
        <time>1999-07-21T14:33:26Z</time>
      </trkpt>
      <trkpt lat="43.256021" lon="-5.778043">
        <ele>217.690</ele>
        <time>1999-07-21T14:33:29Z</time>
      </trkpt>
      <trkpt lat="43.256171" lon="-5.778125">
        <ele>217.238</ele>
        <time>1999-07-21T14:33:32Z</time>
      </trkpt>
      <trkpt lat="43.256222" lon="-5.778152">
        <ele>217.276</ele>
        <time>1999-07-21T14:33:33Z</time>
      </trkpt>
      <trkpt lat="43.256476" lon="-5.778272">
        <ele>217.067</ele>
        <time>1999-07-21T14:33:38Z</time>
      </trkpt>
      <trkpt lat="43.256523" lon="-5.778281">
        <ele>217.043</ele>
        <time>1999-07-21T14:33:39Z</time>
      </trkpt>
      <trkpt lat="43.256559" lon="-5.778273">
        <ele>217.057</ele>
        <time>1999-07-21T14:33:40Z</time>
      </trkpt>
      <trkpt lat="43.256652" lon="-5.778133">
        <ele>216.800</ele>
        <time>1999-07-21T14:33:43Z</time>
      </trkpt>
      <trkpt lat="43.256689" lon="-5.778018">
        <ele>216.820</ele>
        <time>1999-07-21T14:33:45Z</time>
      </trkpt>
      <trkpt lat="43.256745" lon="-5.777852">
        <ele>216.808</ele>
        <time>1999-07-21T14:33:48Z</time>
      </trkpt>
      <trkpt lat="43.256771" lon="-5.777766">
        <ele>216.868</ele>
        <time>1999-07-21T14:33:50Z</time>
      </trkpt>
      <trkpt lat="43.256804" lon="-5.777662">
        <ele>216.683</ele>
        <time>1999-07-21T14:33:55Z</time>
      </trkpt>
      <trkpt lat="43.256808" lon="-5.777654">
        <ele>216.653</ele>
        <time>1999-07-21T14:33:57Z</time>
      </trkpt>
      <trkpt lat="43.256801" lon="-5.777492">
        <ele>218.624</ele>
        <time>1999-07-21T14:35:14Z</time>
      </trkpt>
      <trkpt lat="43.256794" lon="-5.777470">
        <ele>218.612</ele>
        <time>1999-07-21T14:35:15Z</time>
      </trkpt>
      <trkpt lat="43.256731" lon="-5.777425">
        <ele>218.650</ele>
        <time>1999-07-21T14:35:18Z</time>
      </trkpt>
      <trkpt lat="43.256698" lon="-5.777415">
        <ele>218.621</ele>
        <time>1999-07-21T14:35:19Z</time>
      </trkpt>
      <trkpt lat="43.256531" lon="-5.777353">
        <ele>218.637</ele>
        <time>1999-07-21T14:35:23Z</time>
      </trkpt>
      <trkpt lat="43.256439" lon="-5.777316">
        <ele>218.671</ele>
        <time>1999-07-21T14:35:25Z</time>
      </trkpt>
      <trkpt lat="43.256295" lon="-5.777267">
        <ele>218.441</ele>
        <time>1999-07-21T14:35:28Z</time>
      </trkpt>
      <trkpt lat="43.256246" lon="-5.777253">
        <ele>218.415</ele>
        <time>1999-07-21T14:35:29Z</time>
      </trkpt>
      <trkpt lat="43.256047" lon="-5.777186">
        <ele>218.408</ele>
        <time>1999-07-21T14:35:33Z</time>
      </trkpt>
      <trkpt lat="43.255847" lon="-5.777106">
        <ele>218.420</ele>
        <time>1999-07-21T14:35:37Z</time>
      </trkpt>
      <trkpt lat="43.255701" lon="-5.777057">
        <ele>218.465</ele>
        <time>1999-07-21T14:35:40Z</time>
      </trkpt>
      <trkpt lat="43.255566" lon="-5.776997">
        <ele>218.635</ele>
        <time>1999-07-21T14:35:43Z</time>
      </trkpt>
      <trkpt lat="43.255406" lon="-5.776924">
        <ele>218.676</ele>
        <time>1999-07-21T14:35:47Z</time>
      </trkpt>
      <trkpt lat="43.255207" lon="-5.776858">
        <ele>218.614</ele>
        <time>1999-07-21T14:35:52Z</time>
      </trkpt>
      <trkpt lat="43.255126" lon="-5.776841">
        <ele>218.682</ele>
        <time>1999-07-21T14:35:54Z</time>
      </trkpt>
      <trkpt lat="43.255022" lon="-5.776813">
        <ele>218.463</ele>
        <time>1999-07-21T14:35:57Z</time>
      </trkpt>
      <trkpt lat="43.254955" lon="-5.776794">
        <ele>218.239</ele>
        <time>1999-07-21T14:35:59Z</time>
      </trkpt>
      <trkpt lat="43.254828" lon="-5.776741">
        <ele>218.225</ele>
        <time>1999-07-21T14:36:03Z</time>
      </trkpt>
      <trkpt lat="43.254656" lon="-5.776650">
        <ele>218.026</ele>
        <time>1999-07-21T14:36:09Z</time>
      </trkpt>
      <trkpt lat="43.254641" lon="-5.776639">
        <ele>218.008</ele>
        <time>1999-07-21T14:36:10Z</time>
      </trkpt>
      <trkpt lat="43.254612" lon="-5.776587">
        <ele>218.008</ele>
        <time>1999-07-21T14:36:12Z</time>
      </trkpt>
      <trkpt lat="43.254585" lon="-5.776427">
        <ele>218.075</ele>
        <time>1999-07-21T14:36:15Z</time>
      </trkpt>
      <trkpt lat="43.254581" lon="-5.776368">
        <ele>218.040</ele>
        <time>1999-07-21T14:36:16Z</time>
      </trkpt>
      <trkpt lat="43.254574" lon="-5.776310">
        <ele>218.050</ele>
        <time>1999-07-21T14:36:17Z</time>
      </trkpt>
      <trkpt lat="43.254565" lon="-5.776133">
        <ele>218.061</ele>
        <time>1999-07-21T14:36:20Z</time>
      </trkpt>
      <trkpt lat="43.254562" lon="-5.776073">
        <ele>218.239</ele>
        <time>1999-07-21T14:36:21Z</time>
      </trkpt>
      <trkpt lat="43.254546" lon="-5.775840">
        <ele>218.247</ele>
        <time>1999-07-21T14:36:25Z</time>
      </trkpt>
      <trkpt lat="43.254529" lon="-5.775714">
        <ele>218.628</ele>
        <time>1999-07-21T14:36:27Z</time>
      </trkpt>
      <trkpt lat="43.254586" lon="-5.775588">
        <ele>219.234</ele>
        <time>1999-07-21T14:36:30Z</time>
      </trkpt>
      <trkpt lat="43.254727" lon="-5.775622">
        <ele>219.459</ele>
        <time>1999-07-21T14:36:33Z</time>
      </trkpt>
      <trkpt lat="43.254784" lon="-5.775633">
        <ele>219.603</ele>
        <time>1999-07-21T14:36:34Z</time>
      </trkpt>
      <trkpt lat="43.254932" lon="-5.775630">
        <ele>219.823</ele>
        <time>1999-07-21T14:36:37Z</time>
      </trkpt>
      <trkpt lat="43.254979" lon="-5.775628">
        <ele>219.808</ele>
        <time>1999-07-21T14:36:38Z</time>
      </trkpt>
      <trkpt lat="43.255190" lon="-5.775619">
        <ele>220.038</ele>
        <time>1999-07-21T14:36:43Z</time>
      </trkpt>
      <trkpt lat="43.255275" lon="-5.775615">
        <ele>220.293</ele>
        <time>1999-07-21T14:36:45Z</time>
      </trkpt>
      <trkpt lat="43.255463" lon="-5.775604">
        <ele>220.493</ele>
        <time>1999-07-21T14:36:49Z</time>
      </trkpt>
      <trkpt lat="43.255609" lon="-5.775598">
        <ele>220.474</ele>
        <time>1999-07-21T14:36:52Z</time>
      </trkpt>
      <trkpt lat="43.255895" lon="-5.775587">
        <ele>220.632</ele>
        <time>1999-07-21T14:36:58Z</time>
      </trkpt>
      <trkpt lat="43.255938" lon="-5.775586">
        <ele>220.620</ele>
        <time>1999-07-21T14:36:59Z</time>
      </trkpt>
      <trkpt lat="43.255979" lon="-5.775579">
        <ele>220.691</ele>
        <time>1999-07-21T14:37:00Z</time>
      </trkpt>
      <trkpt lat="43.256087" lon="-5.775533">
        <ele>220.667</ele>
        <time>1999-07-21T14:37:03Z</time>
      </trkpt>
      <trkpt lat="43.256097" lon="-5.775508">
        <ele>220.614</ele>
        <time>1999-07-21T14:37:04Z</time>
      </trkpt>
      <trkpt lat="43.256143" lon="-5.775460">
        <ele>220.654</ele>
        <time>1999-07-21T14:37:08Z</time>
      </trkpt>
      <trkpt lat="43.256170" lon="-5.775489">
        <ele>220.609</ele>
        <time>1999-07-21T14:37:09Z</time>
      </trkpt>
      <trkpt lat="43.256279" lon="-5.775589">
        <ele>220.608</ele>
        <time>1999-07-21T14:37:12Z</time>
      </trkpt>
      <trkpt lat="43.256323" lon="-5.775618">
        <ele>220.664</ele>
        <time>1999-07-21T14:37:13Z</time>
      </trkpt>
      <trkpt lat="43.256515" lon="-5.775770">
        <ele>220.649</ele>
        <time>1999-07-21T14:37:17Z</time>
      </trkpt>
      <trkpt lat="43.256793" lon="-5.776120">
        <ele>220.619</ele>
        <time>1999-07-21T14:37:23Z</time>
      </trkpt>
      <trkpt lat="43.256933" lon="-5.776289">
        <ele>220.690</ele>
        <time>1999-07-21T14:37:26Z</time>
      </trkpt>
      <trkpt lat="43.257022" lon="-5.776351">
        <ele>220.458</ele>
        <time>1999-07-21T14:37:28Z</time>
      </trkpt>
      <trkpt lat="43.257081" lon="-5.776398">
        <ele>220.096</ele>
        <time>1999-07-21T14:37:32Z</time>
      </trkpt>
      <trkpt lat="43.257077" lon="-5.776404">
        <ele>220.057</ele>
        <time>1999-07-21T14:37:33Z</time>
      </trkpt>
      <trkpt lat="43.257077" lon="-5.776530">
        <ele>218.863</ele>
        <time>1999-07-21T14:39:33Z</time>
      </trkpt>
      <trkpt lat="43.257089" lon="-5.776556">
        <ele>218.898</ele>
        <time>1999-07-21T14:39:34Z</time>
      </trkpt>
      <trkpt lat="43.257110" lon="-5.776571">
        <ele>218.615</ele>
        <time>1999-07-21T14:39:35Z</time>
      </trkpt>
      <trkpt lat="43.257178" lon="-5.776569">
        <ele>218.626</ele>
        <time>1999-07-21T14:39:37Z</time>
      </trkpt>
      <trkpt lat="43.257258" lon="-5.776645">
        <ele>218.608</ele>
        <time>1999-07-21T14:39:40Z</time>
      </trkpt>
      <trkpt lat="43.257311" lon="-5.776712">
        <ele>218.672</ele>
        <time>1999-07-21T14:39:42Z</time>
      </trkpt>
      <trkpt lat="43.257462" lon="-5.776888">
        <ele>218.877</ele>
        <time>1999-07-21T14:39:47Z</time>
      </trkpt>
      <trkpt lat="43.257491" lon="-5.776932">
        <ele>218.817</ele>
        <time>1999-07-21T14:39:48Z</time>
      </trkpt>
      <trkpt lat="43.257714" lon="-5.777190">
        <ele>219.088</ele>
        <time>1999-07-21T14:39:54Z</time>
      </trkpt>
      <trkpt lat="43.257846" lon="-5.777320">
        <ele>219.066</ele>
        <time>1999-07-21T14:39:57Z</time>
      </trkpt>
      <trkpt lat="43.257986" lon="-5.777435">
        <ele>219.034</ele>
        <time>1999-07-21T14:40:00Z</time>
      </trkpt>
      <trkpt lat="43.258032" lon="-5.777478">
        <ele>219.255</ele>
        <time>1999-07-21T14:40:01Z</time>
      </trkpt>
      <trkpt lat="43.258167" lon="-5.777603">
        <ele>219.411</ele>
        <time>1999-07-21T14:40:04Z</time>
      </trkpt>
      <trkpt lat="43.258266" lon="-5.777684">
        <ele>219.421</ele>
        <time>1999-07-21T14:40:06Z</time>
      </trkpt>
      <trkpt lat="43.258320" lon="-5.777715">
        <ele>219.441</ele>
        <time>1999-07-21T14:40:07Z</time>
      </trkpt>
      <trkpt lat="43.258672" lon="-5.777900">
        <ele>219.805</ele>
        <time>1999-07-21T14:40:13Z</time>
      </trkpt>
      <trkpt lat="43.258784" lon="-5.777956">
        <ele>219.808</ele>
        <time>1999-07-21T14:40:15Z</time>
      </trkpt>
      <trkpt lat="43.259059" lon="-5.778087">
        <ele>220.065</ele>
        <time>1999-07-21T14:40:20Z</time>
      </trkpt>
      <trkpt lat="43.259454" lon="-5.778230">
        <ele>220.220</ele>
        <time>1999-07-21T14:40:27Z</time>
      </trkpt>
      <trkpt lat="43.259839" lon="-5.778404">
        <ele>220.270</ele>
        <time>1999-07-21T14:40:33Z</time>
      </trkpt>
      <trkpt lat="43.260164" lon="-5.778608">
        <ele>219.851</ele>
        <time>1999-07-21T14:40:38Z</time>
      </trkpt>
      <trkpt lat="43.260287" lon="-5.778696">
        <ele>219.679</ele>
        <time>1999-07-21T14:40:40Z</time>
      </trkpt>
      <trkpt lat="43.260525" lon="-5.778867">
        <ele>218.847</ele>
        <time>1999-07-21T14:40:44Z</time>
      </trkpt>
      <trkpt lat="43.260642" lon="-5.778950">
        <ele>218.498</ele>
        <time>1999-07-21T14:40:46Z</time>
      </trkpt>
      <trkpt lat="43.260989" lon="-5.779164">
        <ele>217.694</ele>
        <time>1999-07-21T14:40:52Z</time>
      </trkpt>
      <trkpt lat="43.261048" lon="-5.779187">
        <ele>217.458</ele>
        <time>1999-07-21T14:40:53Z</time>
      </trkpt>
      <trkpt lat="43.261381" lon="-5.779313">
        <ele>217.052</ele>
        <time>1999-07-21T14:40:59Z</time>
      </trkpt>
      <trkpt lat="43.261434" lon="-5.779338">
        <ele>217.017</ele>
        <time>1999-07-21T14:41:00Z</time>
      </trkpt>
      <trkpt lat="43.261672" lon="-5.779544">
        <ele>217.008</ele>
        <time>1999-07-21T14:41:05Z</time>
      </trkpt>
      <trkpt lat="43.261843" lon="-5.779844">
        <ele>217.638</ele>
        <time>1999-07-21T14:41:10Z</time>
      </trkpt>
      <trkpt lat="43.261877" lon="-5.779898">
        <ele>218.023</ele>
        <time>1999-07-21T14:41:11Z</time>
      </trkpt>
      <trkpt lat="43.262080" lon="-5.780221">
        <ele>217.883</ele>
        <time>1999-07-21T14:41:17Z</time>
      </trkpt>
      <trkpt lat="43.262119" lon="-5.780277">
        <ele>217.814</ele>
        <time>1999-07-21T14:41:18Z</time>
      </trkpt>
      <trkpt lat="43.262252" lon="-5.780440">
        <ele>217.852</ele>
        <time>1999-07-21T14:41:21Z</time>
      </trkpt>
      <trkpt lat="43.262391" lon="-5.780597">
        <ele>217.670</ele>
        <time>1999-07-21T14:41:24Z</time>
      </trkpt>
      <trkpt lat="43.262671" lon="-5.780944">
        <ele>216.851</ele>
        <time>1999-07-21T14:41:31Z</time>
      </trkpt>
      <trkpt lat="43.262706" lon="-5.780984">
        <ele>216.627</ele>
        <time>1999-07-21T14:41:32Z</time>
      </trkpt>
      <trkpt lat="43.262766" lon="-5.781052">
        <ele>216.688</ele>
        <time>1999-07-21T14:41:34Z</time>
      </trkpt>
      <trkpt lat="43.262788" lon="-5.781079">
        <ele>216.624</ele>
        <time>1999-07-21T14:41:35Z</time>
      </trkpt>
      <trkpt lat="43.262828" lon="-5.781102">
        <ele>216.626</ele>
        <time>1999-07-21T14:41:37Z</time>
      </trkpt>
      <trkpt lat="43.262875" lon="-5.781113">
        <ele>216.408</ele>
        <time>1999-07-21T14:41:39Z</time>
      </trkpt>
      <trkpt lat="43.262871" lon="-5.781160">
        <ele>216.451</ele>
        <time>1999-07-21T14:41:40Z</time>
      </trkpt>
      <trkpt lat="43.262873" lon="-5.781204">
        <ele>216.416</ele>
        <time>1999-07-21T14:41:41Z</time>
      </trkpt>
      <trkpt lat="43.262947" lon="-5.781312">
        <ele>216.246</ele>
        <time>1999-07-21T14:41:44Z</time>
      </trkpt>
      <trkpt lat="43.263092" lon="-5.781478">
        <ele>216.057</ele>
        <time>1999-07-21T14:41:48Z</time>
      </trkpt>
      <trkpt lat="43.263150" lon="-5.781591">
        <ele>216.065</ele>
        <time>1999-07-21T14:41:50Z</time>
      </trkpt>
      <trkpt lat="43.263207" lon="-5.781881">
        <ele>216.083</ele>
        <time>1999-07-21T14:41:54Z</time>
      </trkpt>
      <trkpt lat="43.263207" lon="-5.781964">
        <ele>216.224</ele>
        <time>1999-07-21T14:41:55Z</time>
      </trkpt>
      <trkpt lat="43.263197" lon="-5.782208">
        <ele>216.420</ele>
        <time>1999-07-21T14:41:58Z</time>
      </trkpt>
      <trkpt lat="43.263189" lon="-5.782294">
        <ele>216.482</ele>
        <time>1999-07-21T14:41:59Z</time>
      </trkpt>
      <trkpt lat="43.263145" lon="-5.782767">
        <ele>216.443</ele>
        <time>1999-07-21T14:42:05Z</time>
      </trkpt>
      <trkpt lat="43.263120" lon="-5.782954">
        <ele>216.417</ele>
        <time>1999-07-21T14:42:08Z</time>
      </trkpt>
      <trkpt lat="43.263099" lon="-5.783085">
        <ele>216.208</ele>
        <time>1999-07-21T14:42:10Z</time>
      </trkpt>
      <trkpt lat="43.263126" lon="-5.783229">
        <ele>215.851</ele>
        <time>1999-07-21T14:42:12Z</time>
      </trkpt>
      <trkpt lat="43.263235" lon="-5.783414">
        <ele>215.616</ele>
        <time>1999-07-21T14:42:15Z</time>
      </trkpt>
      <trkpt lat="43.263275" lon="-5.783460">
        <ele>215.666</ele>
        <time>1999-07-21T14:42:16Z</time>
      </trkpt>
      <trkpt lat="43.263316" lon="-5.783494">
        <ele>215.487</ele>
        <time>1999-07-21T14:42:17Z</time>
      </trkpt>
      <trkpt lat="43.263383" lon="-5.783557">
        <ele>215.425</ele>
        <time>1999-07-21T14:42:19Z</time>
      </trkpt>
      <trkpt lat="43.263435" lon="-5.783614">
        <ele>215.263</ele>
        <time>1999-07-21T14:42:21Z</time>
      </trkpt>
      <trkpt lat="43.263591" lon="-5.783801">
        <ele>215.214</ele>
        <time>1999-07-21T14:42:26Z</time>
      </trkpt>
      <trkpt lat="43.263697" lon="-5.783945">
        <ele>215.220</ele>
        <time>1999-07-21T14:42:29Z</time>
      </trkpt>
      <trkpt lat="43.263761" lon="-5.784072">
        <ele>215.277</ele>
        <time>1999-07-21T14:42:31Z</time>
      </trkpt>
      <trkpt lat="43.263791" lon="-5.784139">
        <ele>215.261</ele>
        <time>1999-07-21T14:42:32Z</time>
      </trkpt>
      <trkpt lat="43.263878" lon="-5.784344">
        <ele>215.427</ele>
        <time>1999-07-21T14:42:35Z</time>
      </trkpt>
      <trkpt lat="43.263927" lon="-5.784489">
        <ele>215.408</ele>
        <time>1999-07-21T14:42:37Z</time>
      </trkpt>
      <trkpt lat="43.263969" lon="-5.784634">
        <ele>215.870</ele>
        <time>1999-07-21T14:42:39Z</time>
      </trkpt>
      <trkpt lat="43.263987" lon="-5.784702">
        <ele>216.085</ele>
        <time>1999-07-21T14:42:40Z</time>
      </trkpt>
      <trkpt lat="43.264026" lon="-5.784902">
        <ele>216.285</ele>
        <time>1999-07-21T14:42:43Z</time>
      </trkpt>
      <trkpt lat="43.264059" lon="-5.785116">
        <ele>216.446</ele>
        <time>1999-07-21T14:42:46Z</time>
      </trkpt>
      <trkpt lat="43.264095" lon="-5.785476">
        <ele>217.234</ele>
        <time>1999-07-21T14:42:51Z</time>
      </trkpt>
      <trkpt lat="43.264105" lon="-5.785614">
        <ele>217.642</ele>
        <time>1999-07-21T14:42:53Z</time>
      </trkpt>
      <trkpt lat="43.264117" lon="-5.785821">
        <ele>218.613</ele>
        <time>1999-07-21T14:42:56Z</time>
      </trkpt>
      <trkpt lat="43.264149" lon="-5.786086">
        <ele>218.899</ele>
        <time>1999-07-21T14:43:00Z</time>
      </trkpt>
      <trkpt lat="43.264174" lon="-5.786210">
        <ele>219.436</ele>
        <time>1999-07-21T14:43:02Z</time>
      </trkpt>
      <trkpt lat="43.264188" lon="-5.786269">
        <ele>219.617</ele>
        <time>1999-07-21T14:43:03Z</time>
      </trkpt>
      <trkpt lat="43.264261" lon="-5.786624">
        <ele>220.818</ele>
        <time>1999-07-21T14:43:09Z</time>
      </trkpt>
      <trkpt lat="43.264293" lon="-5.786794">
        <ele>221.808</ele>
        <time>1999-07-21T14:43:12Z</time>
      </trkpt>
      <trkpt lat="43.264304" lon="-5.786853">
        <ele>222.096</ele>
        <time>1999-07-21T14:43:13Z</time>
      </trkpt>
      <trkpt lat="43.264333" lon="-5.787014">
        <ele>223.071</ele>
        <time>1999-07-21T14:43:16Z</time>
      </trkpt>
      <trkpt lat="43.264357" lon="-5.787116">
        <ele>223.661</ele>
        <time>1999-07-21T14:43:18Z</time>
      </trkpt>
      <trkpt lat="43.264398" lon="-5.787267">
        <ele>224.222</ele>
        <time>1999-07-21T14:43:21Z</time>
      </trkpt>
      <trkpt lat="43.264488" lon="-5.787572">
        <ele>225.440</ele>
        <time>1999-07-21T14:43:27Z</time>
      </trkpt>
      <trkpt lat="43.264583" lon="-5.787929">
        <ele>226.288</ele>
        <time>1999-07-21T14:43:34Z</time>
      </trkpt>
      <trkpt lat="43.264596" lon="-5.787982">
        <ele>226.499</ele>
        <time>1999-07-21T14:43:35Z</time>
      </trkpt>
      <trkpt lat="43.264706" lon="-5.788274">
        <ele>227.225</ele>
        <time>1999-07-21T14:43:41Z</time>
      </trkpt>
      <trkpt lat="43.264732" lon="-5.788316">
        <ele>227.244</ele>
        <time>1999-07-21T14:43:42Z</time>
      </trkpt>
      <trkpt lat="43.264897" lon="-5.788605">
        <ele>228.405</ele>
        <time>1999-07-21T14:43:49Z</time>
      </trkpt>
      <trkpt lat="43.264916" lon="-5.788644">
        <ele>228.615</ele>
        <time>1999-07-21T14:43:50Z</time>
      </trkpt>
      <trkpt lat="43.264964" lon="-5.788761">
        <ele>229.408</ele>
        <time>1999-07-21T14:43:53Z</time>
      </trkpt>
      <trkpt lat="43.265053" lon="-5.788901">
        <ele>230.237</ele>
        <time>1999-07-21T14:43:57Z</time>
      </trkpt>
      <trkpt lat="43.265116" lon="-5.788935">
        <ele>230.492</ele>
        <time>1999-07-21T14:43:59Z</time>
      </trkpt>
      <trkpt lat="43.265209" lon="-5.788992">
        <ele>231.252</ele>
        <time>1999-07-21T14:44:02Z</time>
      </trkpt>
      <trkpt lat="43.265267" lon="-5.789054">
        <ele>231.883</ele>
        <time>1999-07-21T14:44:04Z</time>
      </trkpt>
      <trkpt lat="43.265347" lon="-5.789167">
        <ele>232.691</ele>
        <time>1999-07-21T14:44:07Z</time>
      </trkpt>
      <trkpt lat="43.265368" lon="-5.789209">
        <ele>233.019</ele>
        <time>1999-07-21T14:44:08Z</time>
      </trkpt>
      <trkpt lat="43.265487" lon="-5.789440">
        <ele>234.040</ele>
        <time>1999-07-21T14:44:14Z</time>
      </trkpt>
      <trkpt lat="43.265525" lon="-5.789520">
        <ele>234.456</ele>
        <time>1999-07-21T14:44:16Z</time>
      </trkpt>
      <trkpt lat="43.265600" lon="-5.789693">
        <ele>234.874</ele>
        <time>1999-07-21T14:44:20Z</time>
      </trkpt>
      <trkpt lat="43.265682" lon="-5.789856">
        <ele>235.856</ele>
        <time>1999-07-21T14:44:24Z</time>
      </trkpt>
      <trkpt lat="43.265702" lon="-5.789894">
        <ele>236.021</ele>
        <time>1999-07-21T14:44:25Z</time>
      </trkpt>
      <trkpt lat="43.265820" lon="-5.790142">
        <ele>237.008</ele>
        <time>1999-07-21T14:44:31Z</time>
      </trkpt>
      <trkpt lat="43.265862" lon="-5.790222">
        <ele>237.420</ele>
        <time>1999-07-21T14:44:33Z</time>
      </trkpt>
      <trkpt lat="43.265928" lon="-5.790340">
        <ele>238.215</ele>
        <time>1999-07-21T14:44:36Z</time>
      </trkpt>
      <trkpt lat="43.265987" lon="-5.790522">
        <ele>239.245</ele>
        <time>1999-07-21T14:44:40Z</time>
      </trkpt>
      <trkpt lat="43.266044" lon="-5.790721">
        <ele>240.476</ele>
        <time>1999-07-21T14:44:45Z</time>
      </trkpt>
      <trkpt lat="43.266051" lon="-5.790760">
        <ele>240.674</ele>
        <time>1999-07-21T14:44:46Z</time>
      </trkpt>
      <trkpt lat="43.266080" lon="-5.790931">
        <ele>241.682</ele>
        <time>1999-07-21T14:44:50Z</time>
      </trkpt>
      <trkpt lat="43.266107" lon="-5.791049">
        <ele>242.413</ele>
        <time>1999-07-21T14:44:53Z</time>
      </trkpt>
      <trkpt lat="43.266113" lon="-5.791092">
        <ele>242.819</ele>
        <time>1999-07-21T14:44:54Z</time>
      </trkpt>
      <trkpt lat="43.266196" lon="-5.791326">
        <ele>243.823</ele>
        <time>1999-07-21T14:45:00Z</time>
      </trkpt>
      <trkpt lat="43.266341" lon="-5.791430">
        <ele>244.883</ele>
        <time>1999-07-21T14:45:05Z</time>
      </trkpt>
      <trkpt lat="43.266374" lon="-5.791439">
        <ele>245.011</ele>
        <time>1999-07-21T14:45:06Z</time>
      </trkpt>
      <trkpt lat="43.266535" lon="-5.791496">
        <ele>246.008</ele>
        <time>1999-07-21T14:45:11Z</time>
      </trkpt>
      <trkpt lat="43.266656" lon="-5.791558">
        <ele>247.075</ele>
        <time>1999-07-21T14:45:15Z</time>
      </trkpt>
      <trkpt lat="43.266782" lon="-5.791607">
        <ele>248.020</ele>
        <time>1999-07-21T14:45:19Z</time>
      </trkpt>
      <trkpt lat="43.266813" lon="-5.791619">
        <ele>248.270</ele>
        <time>1999-07-21T14:45:20Z</time>
      </trkpt>
      <trkpt lat="43.266903" lon="-5.791660">
        <ele>249.251</ele>
        <time>1999-07-21T14:45:23Z</time>
      </trkpt>
      <trkpt lat="43.267010" lon="-5.791742">
        <ele>250.499</ele>
        <time>1999-07-21T14:45:27Z</time>
      </trkpt>
      <trkpt lat="43.267035" lon="-5.791770">
        <ele>250.697</ele>
        <time>1999-07-21T14:45:28Z</time>
      </trkpt>
      <trkpt lat="43.267101" lon="-5.791870">
        <ele>251.458</ele>
        <time>1999-07-21T14:45:31Z</time>
      </trkpt>
      <trkpt lat="43.267175" lon="-5.792015">
        <ele>252.494</ele>
        <time>1999-07-21T14:45:35Z</time>
      </trkpt>
      <trkpt lat="43.267251" lon="-5.792194">
        <ele>253.633</ele>
        <time>1999-07-21T14:45:40Z</time>
      </trkpt>
      <trkpt lat="43.267270" lon="-5.792265">
        <ele>254.223</ele>
        <time>1999-07-21T14:45:42Z</time>
      </trkpt>
      <trkpt lat="43.267295" lon="-5.792374">
        <ele>254.815</ele>
        <time>1999-07-21T14:45:45Z</time>
      </trkpt>
      <trkpt lat="43.267357" lon="-5.792535">
        <ele>256.208</ele>
        <time>1999-07-21T14:45:50Z</time>
      </trkpt>
      <trkpt lat="43.267381" lon="-5.792651">
        <ele>257.246</ele>
        <time>1999-07-21T14:45:54Z</time>
      </trkpt>
      <trkpt lat="43.267370" lon="-5.792678">
        <ele>257.661</ele>
        <time>1999-07-21T14:45:55Z</time>
      </trkpt>
      <trkpt lat="43.267372" lon="-5.792689">
        <ele>258.251</ele>
        <time>1999-07-21T14:45:58Z</time>
      </trkpt>
      <trkpt lat="43.267413" lon="-5.792706">
        <ele>259.062</ele>
        <time>1999-07-21T14:47:25Z</time>
      </trkpt>
      <trkpt lat="43.267437" lon="-5.792712">
        <ele>259.070</ele>
        <time>1999-07-21T14:47:26Z</time>
      </trkpt>
      <trkpt lat="43.267513" lon="-5.792748">
        <ele>259.098</ele>
        <time>1999-07-21T14:47:29Z</time>
      </trkpt>
      <trkpt lat="43.267568" lon="-5.792767">
        <ele>259.269</ele>
        <time>1999-07-21T14:47:31Z</time>
      </trkpt>
      <trkpt lat="43.267622" lon="-5.792779">
        <ele>259.275</ele>
        <time>1999-07-21T14:47:33Z</time>
      </trkpt>
      <trkpt lat="43.267781" lon="-5.792804">
        <ele>260.453</ele>
        <time>1999-07-21T14:47:39Z</time>
      </trkpt>
      <trkpt lat="43.267889" lon="-5.792807">
        <ele>261.204</ele>
        <time>1999-07-21T14:47:43Z</time>
      </trkpt>
      <trkpt lat="43.267916" lon="-5.792805">
        <ele>261.414</ele>
        <time>1999-07-21T14:47:44Z</time>
      </trkpt>
      <trkpt lat="43.267969" lon="-5.792769">
        <ele>262.008</ele>
        <time>1999-07-21T14:47:46Z</time>
      </trkpt>
      <trkpt lat="43.268007" lon="-5.792711">
        <ele>262.288</ele>
        <time>1999-07-21T14:47:48Z</time>
      </trkpt>
      <trkpt lat="43.268035" lon="-5.792655">
        <ele>262.663</ele>
        <time>1999-07-21T14:47:50Z</time>
      </trkpt>
      <trkpt lat="43.268048" lon="-5.792624">
        <ele>262.813</ele>
        <time>1999-07-21T14:47:51Z</time>
      </trkpt>
      <trkpt lat="43.268080" lon="-5.792564">
        <ele>263.844</ele>
        <time>1999-07-21T14:47:53Z</time>
      </trkpt>
      <trkpt lat="43.268129" lon="-5.792480">
        <ele>264.672</ele>
        <time>1999-07-21T14:47:56Z</time>
      </trkpt>
      <trkpt lat="43.268149" lon="-5.792454">
        <ele>264.870</ele>
        <time>1999-07-21T14:47:57Z</time>
      </trkpt>
      <trkpt lat="43.268192" lon="-5.792408">
        <ele>265.481</ele>
        <time>1999-07-21T14:47:59Z</time>
      </trkpt>
      <trkpt lat="43.268265" lon="-5.792377">
        <ele>266.067</ele>
        <time>1999-07-21T14:48:02Z</time>
      </trkpt>
      <trkpt lat="43.268314" lon="-5.792382">
        <ele>266.857</ele>
        <time>1999-07-21T14:48:04Z</time>
      </trkpt>
      <trkpt lat="43.268338" lon="-5.792387">
        <ele>267.200</ele>
        <time>1999-07-21T14:48:05Z</time>
      </trkpt>
      <trkpt lat="43.268463" lon="-5.792411">
        <ele>268.420</ele>
        <time>1999-07-21T14:48:10Z</time>
      </trkpt>
      <trkpt lat="43.268534" lon="-5.792425">
        <ele>269.008</ele>
        <time>1999-07-21T14:48:13Z</time>
      </trkpt>
      <trkpt lat="43.268582" lon="-5.792425">
        <ele>269.418</ele>
        <time>1999-07-21T14:48:15Z</time>
      </trkpt>
      <trkpt lat="43.268680" lon="-5.792431">
        <ele>270.473</ele>
        <time>1999-07-21T14:48:19Z</time>
      </trkpt>
      <trkpt lat="43.268706" lon="-5.792435">
        <ele>270.683</ele>
        <time>1999-07-21T14:48:20Z</time>
      </trkpt>
      <trkpt lat="43.268780" lon="-5.792438">
        <ele>271.694</ele>
        <time>1999-07-21T14:48:23Z</time>
      </trkpt>
      <trkpt lat="43.268880" lon="-5.792464">
        <ele>272.652</ele>
        <time>1999-07-21T14:48:27Z</time>
      </trkpt>
      <trkpt lat="43.268905" lon="-5.792473">
        <ele>272.890</ele>
        <time>1999-07-21T14:48:28Z</time>
      </trkpt>
      <trkpt lat="43.269057" lon="-5.792546">
        <ele>274.011</ele>
        <time>1999-07-21T14:48:34Z</time>
      </trkpt>
      <trkpt lat="43.269108" lon="-5.792577">
        <ele>274.457</ele>
        <time>1999-07-21T14:48:36Z</time>
      </trkpt>
      <trkpt lat="43.269158" lon="-5.792610">
        <ele>275.041</ele>
        <time>1999-07-21T14:48:38Z</time>
      </trkpt>
      <trkpt lat="43.269259" lon="-5.792665">
        <ele>276.281</ele>
        <time>1999-07-21T14:48:42Z</time>
      </trkpt>
      <trkpt lat="43.269336" lon="-5.792709">
        <ele>276.809</ele>
        <time>1999-07-21T14:48:45Z</time>
      </trkpt>
      <trkpt lat="43.269414" lon="-5.792745">
        <ele>277.408</ele>
        <time>1999-07-21T14:48:48Z</time>
      </trkpt>
      <trkpt lat="43.269512" lon="-5.792800">
        <ele>278.447</ele>
        <time>1999-07-21T14:48:52Z</time>
      </trkpt>
      <trkpt lat="43.269559" lon="-5.792833">
        <ele>279.082</ele>
        <time>1999-07-21T14:48:54Z</time>
      </trkpt>
      <trkpt lat="43.269633" lon="-5.792880">
        <ele>279.672</ele>
        <time>1999-07-21T14:48:57Z</time>
      </trkpt>
      <trkpt lat="43.269754" lon="-5.792945">
        <ele>280.653</ele>
        <time>1999-07-21T14:49:02Z</time>
      </trkpt>
      <trkpt lat="43.269869" lon="-5.792961">
        <ele>282.081</ele>
        <time>1999-07-21T14:49:07Z</time>
      </trkpt>
      <trkpt lat="43.269919" lon="-5.792945">
        <ele>282.459</ele>
        <time>1999-07-21T14:49:09Z</time>
      </trkpt>
      <trkpt lat="43.269982" lon="-5.792889">
        <ele>283.050</ele>
        <time>1999-07-21T14:49:12Z</time>
      </trkpt>
      <trkpt lat="43.270052" lon="-5.792824">
        <ele>283.636</ele>
        <time>1999-07-21T14:49:15Z</time>
      </trkpt>
      <trkpt lat="43.270096" lon="-5.792785">
        <ele>284.072</ele>
        <time>1999-07-21T14:49:17Z</time>
      </trkpt>
      <trkpt lat="43.270183" lon="-5.792695">
        <ele>285.213</ele>
        <time>1999-07-21T14:49:21Z</time>
      </trkpt>
      <trkpt lat="43.270232" lon="-5.792642">
        <ele>285.614</ele>
        <time>1999-07-21T14:49:23Z</time>
      </trkpt>
      <trkpt lat="43.270278" lon="-5.792595">
        <ele>286.208</ele>
        <time>1999-07-21T14:49:25Z</time>
      </trkpt>
      <trkpt lat="43.270391" lon="-5.792510">
        <ele>287.290</ele>
        <time>1999-07-21T14:49:30Z</time>
      </trkpt>
      <trkpt lat="43.270418" lon="-5.792501">
        <ele>287.415</ele>
        <time>1999-07-21T14:49:31Z</time>
      </trkpt>
      <trkpt lat="43.270499" lon="-5.792513">
        <ele>288.425</ele>
        <time>1999-07-21T14:49:34Z</time>
      </trkpt>
      <trkpt lat="43.270542" lon="-5.792569">
        <ele>289.046</ele>
        <time>1999-07-21T14:49:36Z</time>
      </trkpt>
      <trkpt lat="43.270567" lon="-5.792641">
        <ele>289.654</ele>
        <time>1999-07-21T14:49:38Z</time>
      </trkpt>
      <trkpt lat="43.270599" lon="-5.792790">
        <ele>290.472</ele>
        <time>1999-07-21T14:49:42Z</time>
      </trkpt>
      <trkpt lat="43.270604" lon="-5.792831">
        <ele>290.893</ele>
        <time>1999-07-21T14:49:43Z</time>
      </trkpt>
      <trkpt lat="43.270647" lon="-5.793046">
        <ele>292.059</ele>
        <time>1999-07-21T14:49:49Z</time>
      </trkpt>
      <trkpt lat="43.270727" lon="-5.793256">
        <ele>292.877</ele>
        <time>1999-07-21T14:49:56Z</time>
      </trkpt>
      <trkpt lat="43.270740" lon="-5.793280">
        <ele>293.061</ele>
        <time>1999-07-21T14:49:57Z</time>
      </trkpt>
      <trkpt lat="43.270769" lon="-5.793320">
        <ele>293.427</ele>
        <time>1999-07-21T14:49:59Z</time>
      </trkpt>
      <trkpt lat="43.270788" lon="-5.793330">
        <ele>293.808</ele>
        <time>1999-07-21T14:50:00Z</time>
      </trkpt>
      <trkpt lat="43.270827" lon="-5.793324">
        <ele>294.680</ele>
        <time>1999-07-21T14:50:02Z</time>
      </trkpt>
      <trkpt lat="43.270842" lon="-5.793303">
        <ele>295.215</ele>
        <time>1999-07-21T14:50:03Z</time>
      </trkpt>
      <trkpt lat="43.270855" lon="-5.793215">
        <ele>295.855</ele>
        <time>1999-07-21T14:50:06Z</time>
      </trkpt>
      <trkpt lat="43.270841" lon="-5.793152">
        <ele>296.266</ele>
        <time>1999-07-21T14:50:08Z</time>
      </trkpt>
      <trkpt lat="43.270821" lon="-5.793000">
        <ele>297.254</ele>
        <time>1999-07-21T14:50:13Z</time>
      </trkpt>
      <trkpt lat="43.270818" lon="-5.792970">
        <ele>297.452</ele>
        <time>1999-07-21T14:50:14Z</time>
      </trkpt>
      <trkpt lat="43.270815" lon="-5.792881">
        <ele>298.223</ele>
        <time>1999-07-21T14:50:18Z</time>
      </trkpt>
      <trkpt lat="43.270810" lon="-5.792843">
        <ele>298.819</ele>
        <time>1999-07-21T14:50:20Z</time>
      </trkpt>
      <trkpt lat="43.270814" lon="-5.792822">
        <ele>299.016</ele>
        <time>1999-07-21T14:50:21Z</time>
      </trkpt>
      <trkpt lat="43.270845" lon="-5.792794">
        <ele>299.476</ele>
        <time>1999-07-21T14:50:23Z</time>
      </trkpt>
      <trkpt lat="43.270869" lon="-5.792794">
        <ele>299.613</ele>
        <time>1999-07-21T14:50:24Z</time>
      </trkpt>
      <trkpt lat="43.270912" lon="-5.792828">
        <ele>300.208</ele>
        <time>1999-07-21T14:50:26Z</time>
      </trkpt>
      <trkpt lat="43.270957" lon="-5.792881">
        <ele>300.484</ele>
        <time>1999-07-21T14:50:28Z</time>
      </trkpt>
      <trkpt lat="43.271007" lon="-5.793051">
        <ele>301.279</ele>
        <time>1999-07-21T14:50:33Z</time>
      </trkpt>
      <trkpt lat="43.271016" lon="-5.793121">
        <ele>301.479</ele>
        <time>1999-07-21T14:50:35Z</time>
      </trkpt>
      <trkpt lat="43.271024" lon="-5.793232">
        <ele>302.410</ele>
        <time>1999-07-21T14:50:38Z</time>
      </trkpt>
      <trkpt lat="43.271042" lon="-5.793362">
        <ele>303.678</ele>
        <time>1999-07-21T14:50:42Z</time>
      </trkpt>
      <trkpt lat="43.271054" lon="-5.793538">
        <ele>304.646</ele>
        <time>1999-07-21T14:50:48Z</time>
      </trkpt>
      <trkpt lat="43.271051" lon="-5.793559">
        <ele>304.877</ele>
        <time>1999-07-21T14:50:49Z</time>
      </trkpt>
      <trkpt lat="43.271046" lon="-5.793642">
        <ele>305.873</ele>
        <time>1999-07-21T14:50:53Z</time>
      </trkpt>
      <trkpt lat="43.271048" lon="-5.793723">
        <ele>306.883</ele>
        <time>1999-07-21T14:50:56Z</time>
      </trkpt>
      <trkpt lat="43.271050" lon="-5.793751">
        <ele>306.825</ele>
        <time>1999-07-21T14:50:57Z</time>
      </trkpt>
      <trkpt lat="43.271056" lon="-5.793921">
        <ele>307.417</ele>
        <time>1999-07-21T14:51:03Z</time>
      </trkpt>
      <trkpt lat="43.271062" lon="-5.794035">
        <ele>308.008</ele>
        <time>1999-07-21T14:51:07Z</time>
      </trkpt>
      <trkpt lat="43.271045" lon="-5.794164">
        <ele>309.281</ele>
        <time>1999-07-21T14:51:11Z</time>
      </trkpt>
      <trkpt lat="43.270988" lon="-5.794393">
        <ele>310.296</ele>
        <time>1999-07-21T14:51:18Z</time>
      </trkpt>
      <trkpt lat="43.270977" lon="-5.794424">
        <ele>310.416</ele>
        <time>1999-07-21T14:51:19Z</time>
      </trkpt>
      <trkpt lat="43.270922" lon="-5.794545">
        <ele>311.617</ele>
        <time>1999-07-21T14:51:23Z</time>
      </trkpt>
      <trkpt lat="43.270875" lon="-5.794635">
        <ele>312.255</ele>
        <time>1999-07-21T14:51:26Z</time>
      </trkpt>
      <trkpt lat="43.270846" lon="-5.794733">
        <ele>312.823</ele>
        <time>1999-07-21T14:51:29Z</time>
      </trkpt>
      <trkpt lat="43.270860" lon="-5.794835">
        <ele>313.444</ele>
        <time>1999-07-21T14:51:32Z</time>
      </trkpt>
      <trkpt lat="43.270926" lon="-5.794896">
        <ele>313.830</ele>
        <time>1999-07-21T14:51:35Z</time>
      </trkpt>
      <trkpt lat="43.270951" lon="-5.794909">
        <ele>314.039</ele>
        <time>1999-07-21T14:51:36Z</time>
      </trkpt>
      <trkpt lat="43.270978" lon="-5.794920">
        <ele>314.201</ele>
        <time>1999-07-21T14:51:37Z</time>
      </trkpt>
      <trkpt lat="43.271060" lon="-5.794933">
        <ele>315.021</ele>
        <time>1999-07-21T14:51:40Z</time>
      </trkpt>
      <trkpt lat="43.271147" lon="-5.794896">
        <ele>315.808</ele>
        <time>1999-07-21T14:51:43Z</time>
      </trkpt>
      <trkpt lat="43.271204" lon="-5.794882">
        <ele>316.436</ele>
        <time>1999-07-21T14:51:45Z</time>
      </trkpt>
      <trkpt lat="43.271320" lon="-5.794900">
        <ele>317.481</ele>
        <time>1999-07-21T14:51:49Z</time>
      </trkpt>
      <trkpt lat="43.271350" lon="-5.794911">
        <ele>317.661</ele>
        <time>1999-07-21T14:51:50Z</time>
      </trkpt>
      <trkpt lat="43.271455" lon="-5.794968">
        <ele>318.662</ele>
        <time>1999-07-21T14:51:54Z</time>
      </trkpt>
      <trkpt lat="43.271478" lon="-5.794985">
        <ele>318.810</ele>
        <time>1999-07-21T14:51:55Z</time>
      </trkpt>
      <trkpt lat="43.271611" lon="-5.795121">
        <ele>319.698</ele>
        <time>1999-07-21T14:52:01Z</time>
      </trkpt>
      <trkpt lat="43.271631" lon="-5.795146">
        <ele>319.819</ele>
        <time>1999-07-21T14:52:02Z</time>
      </trkpt>
      <trkpt lat="43.271721" lon="-5.795250">
        <ele>320.825</ele>
        <time>1999-07-21T14:52:06Z</time>
      </trkpt>
      <trkpt lat="43.271808" lon="-5.795336">
        <ele>321.683</ele>
        <time>1999-07-21T14:52:10Z</time>
      </trkpt>
      <trkpt lat="43.271829" lon="-5.795354">
        <ele>321.825</ele>
        <time>1999-07-21T14:52:11Z</time>
      </trkpt>
      <trkpt lat="43.271999" lon="-5.795495">
        <ele>323.017</ele>
        <time>1999-07-21T14:52:18Z</time>
      </trkpt>
      <trkpt lat="43.272050" lon="-5.795532">
        <ele>323.408</ele>
        <time>1999-07-21T14:52:20Z</time>
      </trkpt>
      <trkpt lat="43.272171" lon="-5.795621">
        <ele>324.031</ele>
        <time>1999-07-21T14:52:25Z</time>
      </trkpt>
      <trkpt lat="43.272265" lon="-5.795691">
        <ele>324.296</ele>
        <time>1999-07-21T14:52:29Z</time>
      </trkpt>
      <trkpt lat="43.272373" lon="-5.795801">
        <ele>324.836</ele>
        <time>1999-07-21T14:52:34Z</time>
      </trkpt>
      <trkpt lat="43.272411" lon="-5.795858">
        <ele>325.457</ele>
        <time>1999-07-21T14:52:36Z</time>
      </trkpt>
      <trkpt lat="43.272456" lon="-5.795963">
        <ele>326.055</ele>
        <time>1999-07-21T14:52:39Z</time>
      </trkpt>
      <trkpt lat="43.272484" lon="-5.796090">
        <ele>326.463</ele>
        <time>1999-07-21T14:52:42Z</time>
      </trkpt>
      <trkpt lat="43.272504" lon="-5.796208">
        <ele>327.044</ele>
        <time>1999-07-21T14:52:45Z</time>
      </trkpt>
      <trkpt lat="43.272520" lon="-5.796387">
        <ele>327.470</ele>
        <time>1999-07-21T14:52:49Z</time>
      </trkpt>
      <trkpt lat="43.272546" lon="-5.796598">
        <ele>328.042</ele>
        <time>1999-07-21T14:52:54Z</time>
      </trkpt>
      <trkpt lat="43.272557" lon="-5.796735">
        <ele>328.622</ele>
        <time>1999-07-21T14:52:57Z</time>
      </trkpt>
      <trkpt lat="43.272581" lon="-5.796966">
        <ele>329.214</ele>
        <time>1999-07-21T14:53:02Z</time>
      </trkpt>
      <trkpt lat="43.272628" lon="-5.797138">
        <ele>329.808</ele>
        <time>1999-07-21T14:53:06Z</time>
      </trkpt>
      <trkpt lat="43.272662" lon="-5.797224">
        <ele>330.227</ele>
        <time>1999-07-21T14:53:08Z</time>
      </trkpt>
      <trkpt lat="43.272701" lon="-5.797400">
        <ele>330.622</ele>
        <time>1999-07-21T14:53:12Z</time>
      </trkpt>
      <trkpt lat="43.272717" lon="-5.797524">
        <ele>331.242</ele>
        <time>1999-07-21T14:53:15Z</time>
      </trkpt>
      <trkpt lat="43.272734" lon="-5.797711">
        <ele>332.053</ele>
        <time>1999-07-21T14:53:19Z</time>
      </trkpt>
      <trkpt lat="43.272759" lon="-5.797848">
        <ele>332.231</ele>
        <time>1999-07-21T14:53:22Z</time>
      </trkpt>
      <trkpt lat="43.272767" lon="-5.797983">
        <ele>332.849</ele>
        <time>1999-07-21T14:53:25Z</time>
      </trkpt>
      <trkpt lat="43.272747" lon="-5.798240">
        <ele>333.270</ele>
        <time>1999-07-21T14:53:30Z</time>
      </trkpt>
      <trkpt lat="43.272739" lon="-5.798305">
        <ele>333.436</ele>
        <time>1999-07-21T14:53:31Z</time>
      </trkpt>
      <trkpt lat="43.272707" lon="-5.798618">
        <ele>333.865</ele>
        <time>1999-07-21T14:53:36Z</time>
      </trkpt>
      <trkpt lat="43.272708" lon="-5.798675">
        <ele>333.868</ele>
        <time>1999-07-21T14:53:37Z</time>
      </trkpt>
      <trkpt lat="43.272731" lon="-5.798905">
        <ele>334.014</ele>
        <time>1999-07-21T14:53:41Z</time>
      </trkpt>
      <trkpt lat="43.272760" lon="-5.799098">
        <ele>333.808</ele>
        <time>1999-07-21T14:53:44Z</time>
      </trkpt>
      <trkpt lat="43.272774" lon="-5.799164">
        <ele>333.819</ele>
        <time>1999-07-21T14:53:45Z</time>
      </trkpt>
      <trkpt lat="43.272864" lon="-5.799408">
        <ele>333.854</ele>
        <time>1999-07-21T14:53:49Z</time>
      </trkpt>
      <trkpt lat="43.272938" lon="-5.799500">
        <ele>333.814</ele>
        <time>1999-07-21T14:53:51Z</time>
      </trkpt>
      <trkpt lat="43.273079" lon="-5.799645">
        <ele>334.025</ele>
        <time>1999-07-21T14:53:55Z</time>
      </trkpt>
      <trkpt lat="43.273204" lon="-5.799775">
        <ele>334.253</ele>
        <time>1999-07-21T14:54:00Z</time>
      </trkpt>
      <trkpt lat="43.273209" lon="-5.799773">
        <ele>334.281</ele>
        <time>1999-07-21T14:54:02Z</time>
      </trkpt>
      <trkpt lat="43.273257" lon="-5.799811">
        <ele>334.432</ele>
        <time>1999-07-21T14:54:20Z</time>
      </trkpt>
      <trkpt lat="43.273276" lon="-5.799829">
        <ele>334.468</ele>
        <time>1999-07-21T14:54:21Z</time>
      </trkpt>
      <trkpt lat="43.273465" lon="-5.799975">
        <ele>334.428</ele>
        <time>1999-07-21T14:54:28Z</time>
      </trkpt>
      <trkpt lat="43.273639" lon="-5.800050">
        <ele>334.889</ele>
        <time>1999-07-21T14:54:33Z</time>
      </trkpt>
      <trkpt lat="43.273706" lon="-5.800067">
        <ele>335.017</ele>
        <time>1999-07-21T14:54:35Z</time>
      </trkpt>
      <trkpt lat="43.273738" lon="-5.800077">
        <ele>335.208</ele>
        <time>1999-07-21T14:54:36Z</time>
      </trkpt>
      <trkpt lat="43.273845" lon="-5.800085">
        <ele>335.655</ele>
        <time>1999-07-21T14:54:39Z</time>
      </trkpt>
      <trkpt lat="43.273944" lon="-5.800073">
        <ele>336.090</ele>
        <time>1999-07-21T14:54:42Z</time>
      </trkpt>
      <trkpt lat="43.273976" lon="-5.800060">
        <ele>336.260</ele>
        <time>1999-07-21T14:54:43Z</time>
      </trkpt>
      <trkpt lat="43.274153" lon="-5.799956">
        <ele>337.281</ele>
        <time>1999-07-21T14:54:49Z</time>
      </trkpt>
      <trkpt lat="43.274178" lon="-5.799937">
        <ele>337.229</ele>
        <time>1999-07-21T14:54:50Z</time>
      </trkpt>
      <trkpt lat="43.274298" lon="-5.799827">
        <ele>338.427</ele>
        <time>1999-07-21T14:54:55Z</time>
      </trkpt>
      <trkpt lat="43.274467" lon="-5.799747">
        <ele>338.858</ele>
        <time>1999-07-21T14:55:00Z</time>
      </trkpt>
      <trkpt lat="43.274505" lon="-5.799740">
        <ele>338.844</ele>
        <time>1999-07-21T14:55:01Z</time>
      </trkpt>
      <trkpt lat="43.274644" lon="-5.799796">
        <ele>339.487</ele>
        <time>1999-07-21T14:55:05Z</time>
      </trkpt>
      <trkpt lat="43.274912" lon="-5.800023">
        <ele>340.442</ele>
        <time>1999-07-21T14:55:12Z</time>
      </trkpt>
      <trkpt lat="43.274953" lon="-5.800059">
        <ele>340.426</ele>
        <time>1999-07-21T14:55:13Z</time>
      </trkpt>
      <trkpt lat="43.275170" lon="-5.800260">
        <ele>341.208</ele>
        <time>1999-07-21T14:55:18Z</time>
      </trkpt>
      <trkpt lat="43.275255" lon="-5.800342">
        <ele>341.661</ele>
        <time>1999-07-21T14:55:20Z</time>
      </trkpt>
      <trkpt lat="43.275488" lon="-5.800548">
        <ele>342.616</ele>
        <time>1999-07-21T14:55:26Z</time>
      </trkpt>
      <trkpt lat="43.275645" lon="-5.800647">
        <ele>343.226</ele>
        <time>1999-07-21T14:55:30Z</time>
      </trkpt>
      <trkpt lat="43.275807" lon="-5.800719">
        <ele>343.617</ele>
        <time>1999-07-21T14:55:34Z</time>
      </trkpt>
      <trkpt lat="43.275846" lon="-5.800733">
        <ele>343.835</ele>
        <time>1999-07-21T14:55:35Z</time>
      </trkpt>
      <trkpt lat="43.276119" lon="-5.800805">
        <ele>344.883</ele>
        <time>1999-07-21T14:55:42Z</time>
      </trkpt>
      <trkpt lat="43.276440" lon="-5.800760">
        <ele>345.864</ele>
        <time>1999-07-21T14:55:50Z</time>
      </trkpt>
      <trkpt lat="43.276479" lon="-5.800740">
        <ele>345.830</ele>
        <time>1999-07-21T14:55:51Z</time>
      </trkpt>
      <trkpt lat="43.276657" lon="-5.800591">
        <ele>346.811</ele>
        <time>1999-07-21T14:55:56Z</time>
      </trkpt>
      <trkpt lat="43.276689" lon="-5.800553">
        <ele>347.221</ele>
        <time>1999-07-21T14:55:57Z</time>
      </trkpt>
      <trkpt lat="43.276828" lon="-5.800349">
        <ele>348.003</ele>
        <time>1999-07-21T14:56:02Z</time>
      </trkpt>
      <trkpt lat="43.276849" lon="-5.800309">
        <ele>348.208</ele>
        <time>1999-07-21T14:56:03Z</time>
      </trkpt>
      <trkpt lat="43.276868" lon="-5.800269">
        <ele>348.454</ele>
        <time>1999-07-21T14:56:04Z</time>
      </trkpt>
      <trkpt lat="43.276939" lon="-5.800110">
        <ele>349.269</ele>
        <time>1999-07-21T14:56:08Z</time>
      </trkpt>
      <trkpt lat="43.276982" lon="-5.799983">
        <ele>349.859</ele>
        <time>1999-07-21T14:56:11Z</time>
      </trkpt>
      <trkpt lat="43.277006" lon="-5.799895">
        <ele>350.490</ele>
        <time>1999-07-21T14:56:13Z</time>
      </trkpt>
      <trkpt lat="43.277045" lon="-5.799708">
        <ele>351.488</ele>
        <time>1999-07-21T14:56:17Z</time>
      </trkpt>
      <trkpt lat="43.277055" lon="-5.799658">
        <ele>351.686</ele>
        <time>1999-07-21T14:56:18Z</time>
      </trkpt>
      <trkpt lat="43.277096" lon="-5.799402">
        <ele>352.667</ele>
        <time>1999-07-21T14:56:23Z</time>
      </trkpt>
      <trkpt lat="43.277105" lon="-5.799354">
        <ele>352.653</ele>
        <time>1999-07-21T14:56:24Z</time>
      </trkpt>
      <trkpt lat="43.277156" lon="-5.799150">
        <ele>353.659</ele>
        <time>1999-07-21T14:56:28Z</time>
      </trkpt>
      <trkpt lat="43.277198" lon="-5.799046">
        <ele>353.803</ele>
        <time>1999-07-21T14:56:30Z</time>
      </trkpt>
      <trkpt lat="43.277219" lon="-5.798998">
        <ele>354.023</ele>
        <time>1999-07-21T14:56:31Z</time>
      </trkpt>
      <trkpt lat="43.277305" lon="-5.798872">
        <ele>354.608</ele>
        <time>1999-07-21T14:56:34Z</time>
      </trkpt>
      <trkpt lat="43.277332" lon="-5.798822">
        <ele>354.898</ele>
        <time>1999-07-21T14:56:35Z</time>
      </trkpt>
      <trkpt lat="43.277358" lon="-5.798778">
        <ele>354.883</ele>
        <time>1999-07-21T14:56:36Z</time>
      </trkpt>
      <trkpt lat="43.277530" lon="-5.798542">
        <ele>354.823</ele>
        <time>1999-07-21T14:56:41Z</time>
      </trkpt>
      <trkpt lat="43.277567" lon="-5.798496">
        <ele>354.834</ele>
        <time>1999-07-21T14:56:42Z</time>
      </trkpt>
      <trkpt lat="43.277723" lon="-5.798322">
        <ele>354.862</ele>
        <time>1999-07-21T14:56:46Z</time>
      </trkpt>
      <trkpt lat="43.277873" lon="-5.798238">
        <ele>354.890</ele>
        <time>1999-07-21T14:56:49Z</time>
      </trkpt>
      <trkpt lat="43.278027" lon="-5.798266">
        <ele>355.081</ele>
        <time>1999-07-21T14:56:52Z</time>
      </trkpt>
      <trkpt lat="43.278193" lon="-5.798417">
        <ele>355.247</ele>
        <time>1999-07-21T14:56:56Z</time>
      </trkpt>
      <trkpt lat="43.278280" lon="-5.798445">
        <ele>355.423</ele>
        <time>1999-07-21T14:56:58Z</time>
      </trkpt>
      <trkpt lat="43.278357" lon="-5.798452">
        <ele>355.683</ele>
        <time>1999-07-21T14:57:00Z</time>
      </trkpt>
      <trkpt lat="43.278394" lon="-5.798452">
        <ele>355.811</ele>
        <time>1999-07-21T14:57:01Z</time>
      </trkpt>
      <trkpt lat="43.278556" lon="-5.798413">
        <ele>356.608</ele>
        <time>1999-07-21T14:57:06Z</time>
      </trkpt>
      <trkpt lat="43.278589" lon="-5.798404">
        <ele>356.835</ele>
        <time>1999-07-21T14:57:07Z</time>
      </trkpt>
      <trkpt lat="43.278652" lon="-5.798425">
        <ele>357.660</ele>
        <time>1999-07-21T14:57:09Z</time>
      </trkpt>
      <trkpt lat="43.278712" lon="-5.798478">
        <ele>358.050</ele>
        <time>1999-07-21T14:57:11Z</time>
      </trkpt>
      <trkpt lat="43.278793" lon="-5.798606">
        <ele>358.871</ele>
        <time>1999-07-21T14:57:14Z</time>
      </trkpt>
      <trkpt lat="43.278840" lon="-5.798707">
        <ele>359.499</ele>
        <time>1999-07-21T14:57:16Z</time>
      </trkpt>
      <trkpt lat="43.278889" lon="-5.798808">
        <ele>359.687</ele>
        <time>1999-07-21T14:57:18Z</time>
      </trkpt>
      <trkpt lat="43.278962" lon="-5.798959">
        <ele>359.838</ele>
        <time>1999-07-21T14:57:21Z</time>
      </trkpt>
      <trkpt lat="43.279043" lon="-5.799108">
        <ele>359.814</ele>
        <time>1999-07-21T14:57:24Z</time>
      </trkpt>
      <trkpt lat="43.279112" lon="-5.799196">
        <ele>360.098</ele>
        <time>1999-07-21T14:57:26Z</time>
      </trkpt>
      <trkpt lat="43.279263" lon="-5.799340">
        <ele>360.215</ele>
        <time>1999-07-21T14:57:30Z</time>
      </trkpt>
      <trkpt lat="43.279384" lon="-5.799530">
        <ele>360.426</ele>
        <time>1999-07-21T14:57:34Z</time>
      </trkpt>
      <trkpt lat="43.279423" lon="-5.799643">
        <ele>360.808</ele>
        <time>1999-07-21T14:57:36Z</time>
      </trkpt>
      <trkpt lat="43.279485" lon="-5.799811">
        <ele>361.272</ele>
        <time>1999-07-21T14:57:39Z</time>
      </trkpt>
      <trkpt lat="43.279572" lon="-5.799930">
        <ele>361.877</ele>
        <time>1999-07-21T14:57:42Z</time>
      </trkpt>
      <trkpt lat="43.279606" lon="-5.799957">
        <ele>361.897</ele>
        <time>1999-07-21T14:57:43Z</time>
      </trkpt>
      <trkpt lat="43.279712" lon="-5.800027">
        <ele>362.468</ele>
        <time>1999-07-21T14:57:46Z</time>
      </trkpt>
      <trkpt lat="43.279782" lon="-5.800075">
        <ele>362.676</ele>
        <time>1999-07-21T14:57:48Z</time>
      </trkpt>
      <trkpt lat="43.279854" lon="-5.800114">
        <ele>363.074</ele>
        <time>1999-07-21T14:57:50Z</time>
      </trkpt>
      <trkpt lat="43.280000" lon="-5.800293">
        <ele>364.035</ele>
        <time>1999-07-21T14:57:55Z</time>
      </trkpt>
      <trkpt lat="43.280030" lon="-5.800492">
        <ele>364.641</ele>
        <time>1999-07-21T14:57:59Z</time>
      </trkpt>
      <trkpt lat="43.280014" lon="-5.800548">
        <ele>364.821</ele>
        <time>1999-07-21T14:58:00Z</time>
      </trkpt>
      <trkpt lat="43.279966" lon="-5.800653">
        <ele>365.041</ele>
        <time>1999-07-21T14:58:02Z</time>
      </trkpt>
      <trkpt lat="43.279942" lon="-5.800703">
        <ele>365.005</ele>
        <time>1999-07-21T14:58:03Z</time>
      </trkpt>
      <trkpt lat="43.279853" lon="-5.800908">
        <ele>365.808</ele>
        <time>1999-07-21T14:58:07Z</time>
      </trkpt>
      <trkpt lat="43.279823" lon="-5.801020">
        <ele>366.075</ele>
        <time>1999-07-21T14:58:09Z</time>
      </trkpt>
      <trkpt lat="43.279811" lon="-5.801076">
        <ele>366.250</ele>
        <time>1999-07-21T14:58:10Z</time>
      </trkpt>
      <trkpt lat="43.279735" lon="-5.801512">
        <ele>367.280</ele>
        <time>1999-07-21T14:58:18Z</time>
      </trkpt>
      <trkpt lat="43.279659" lon="-5.801902">
        <ele>368.281</ele>
        <time>1999-07-21T14:58:26Z</time>
      </trkpt>
      <trkpt lat="43.279622" lon="-5.802188">
        <ele>369.259</ele>
        <time>1999-07-21T14:58:32Z</time>
      </trkpt>
      <trkpt lat="43.279617" lon="-5.802334">
        <ele>369.817</ele>
        <time>1999-07-21T14:58:35Z</time>
      </trkpt>
      <trkpt lat="43.279619" lon="-5.802481">
        <ele>370.478</ele>
        <time>1999-07-21T14:58:38Z</time>
      </trkpt>
      <trkpt lat="43.279652" lon="-5.802748">
        <ele>371.664</ele>
        <time>1999-07-21T14:58:44Z</time>
      </trkpt>
      <trkpt lat="43.279751" lon="-5.802912">
        <ele>372.892</ele>
        <time>1999-07-21T14:58:49Z</time>
      </trkpt>
      <trkpt lat="43.279903" lon="-5.802953">
        <ele>373.873</ele>
        <time>1999-07-21T14:58:54Z</time>
      </trkpt>
      <trkpt lat="43.279934" lon="-5.802956">
        <ele>374.220</ele>
        <time>1999-07-21T14:58:55Z</time>
      </trkpt>
      <trkpt lat="43.279994" lon="-5.802960">
        <ele>375.008</ele>
        <time>1999-07-21T14:58:57Z</time>
      </trkpt>
      <trkpt lat="43.280163" lon="-5.802965">
        <ele>376.042</ele>
        <time>1999-07-21T14:59:02Z</time>
      </trkpt>
      <trkpt lat="43.280196" lon="-5.802968">
        <ele>376.277</ele>
        <time>1999-07-21T14:59:03Z</time>
      </trkpt>
      <trkpt lat="43.280361" lon="-5.802971">
        <ele>377.097</ele>
        <time>1999-07-21T14:59:08Z</time>
      </trkpt>
      <trkpt lat="43.280458" lon="-5.802974">
        <ele>377.678</ele>
        <time>1999-07-21T14:59:11Z</time>
      </trkpt>
      <trkpt lat="43.280584" lon="-5.802986">
        <ele>378.036</ele>
        <time>1999-07-21T14:59:15Z</time>
      </trkpt>
      <trkpt lat="43.280683" lon="-5.803010">
        <ele>378.464</ele>
        <time>1999-07-21T14:59:18Z</time>
      </trkpt>
      <trkpt lat="43.280904" lon="-5.803084">
        <ele>379.235</ele>
        <time>1999-07-21T14:59:24Z</time>
      </trkpt>
      <trkpt lat="43.280980" lon="-5.803112">
        <ele>379.411</ele>
        <time>1999-07-21T14:59:26Z</time>
      </trkpt>
      <trkpt lat="43.281249" lon="-5.803220">
        <ele>380.462</ele>
        <time>1999-07-21T14:59:33Z</time>
      </trkpt>
      <trkpt lat="43.281285" lon="-5.803248">
        <ele>380.683</ele>
        <time>1999-07-21T14:59:34Z</time>
      </trkpt>
      <trkpt lat="43.281318" lon="-5.803283">
        <ele>380.611</ele>
        <time>1999-07-21T14:59:35Z</time>
      </trkpt>
      <trkpt lat="43.281413" lon="-5.803405">
        <ele>381.208</ele>
        <time>1999-07-21T14:59:38Z</time>
      </trkpt>
      <trkpt lat="43.281444" lon="-5.803447">
        <ele>381.459</ele>
        <time>1999-07-21T14:59:39Z</time>
      </trkpt>
      <trkpt lat="43.281501" lon="-5.803542">
        <ele>381.874</ele>
        <time>1999-07-21T14:59:41Z</time>
      </trkpt>
      <trkpt lat="43.281608" lon="-5.803755">
        <ele>382.424</ele>
        <time>1999-07-21T14:59:45Z</time>
      </trkpt>
      <trkpt lat="43.281698" lon="-5.803924">
        <ele>382.635</ele>
        <time>1999-07-21T14:59:48Z</time>
      </trkpt>
      <trkpt lat="43.281973" lon="-5.804362">
        <ele>382.843</ele>
        <time>1999-07-21T14:59:56Z</time>
      </trkpt>
      <trkpt lat="43.282038" lon="-5.804462">
        <ele>383.031</ele>
        <time>1999-07-21T14:59:58Z</time>
      </trkpt>
      <trkpt lat="43.282108" lon="-5.804534">
        <ele>383.092</ele>
        <time>1999-07-21T15:00:00Z</time>
      </trkpt>
      <trkpt lat="43.282227" lon="-5.804609">
        <ele>383.248</ele>
        <time>1999-07-21T15:00:03Z</time>
      </trkpt>
      <trkpt lat="43.282355" lon="-5.804719">
        <ele>383.262</ele>
        <time>1999-07-21T15:00:06Z</time>
      </trkpt>
      <trkpt lat="43.282396" lon="-5.804763">
        <ele>383.483</ele>
        <time>1999-07-21T15:00:07Z</time>
      </trkpt>
      <trkpt lat="43.282434" lon="-5.804815">
        <ele>383.411</ele>
        <time>1999-07-21T15:00:08Z</time>
      </trkpt>
      <trkpt lat="43.282568" lon="-5.805115">
        <ele>383.808</ele>
        <time>1999-07-21T15:00:13Z</time>
      </trkpt>
      <trkpt lat="43.282583" lon="-5.805364">
        <ele>384.219</ele>
        <time>1999-07-21T15:00:17Z</time>
      </trkpt>
      <trkpt lat="43.282578" lon="-5.805428">
        <ele>384.654</ele>
        <time>1999-07-21T15:00:18Z</time>
      </trkpt>
      <trkpt lat="43.282559" lon="-5.805668">
        <ele>385.874</ele>
        <time>1999-07-21T15:00:22Z</time>
      </trkpt>
      <trkpt lat="43.282562" lon="-5.805724">
        <ele>385.865</ele>
        <time>1999-07-21T15:00:23Z</time>
      </trkpt>
      <trkpt lat="43.282572" lon="-5.805778">
        <ele>386.063</ele>
        <time>1999-07-21T15:00:24Z</time>
      </trkpt>
      <trkpt lat="43.282628" lon="-5.805941">
        <ele>386.641</ele>
        <time>1999-07-21T15:00:27Z</time>
      </trkpt>
      <trkpt lat="43.282650" lon="-5.805998">
        <ele>386.832</ele>
        <time>1999-07-21T15:00:28Z</time>
      </trkpt>
      <trkpt lat="43.282672" lon="-5.806056">
        <ele>387.048</ele>
        <time>1999-07-21T15:00:29Z</time>
      </trkpt>
      <trkpt lat="43.282767" lon="-5.806273">
        <ele>387.885</ele>
        <time>1999-07-21T15:00:33Z</time>
      </trkpt>
      <trkpt lat="43.282830" lon="-5.806370">
        <ele>388.289</ele>
        <time>1999-07-21T15:00:35Z</time>
      </trkpt>
      <trkpt lat="43.282868" lon="-5.806414">
        <ele>388.417</ele>
        <time>1999-07-21T15:00:36Z</time>
      </trkpt>
      <trkpt lat="43.282992" lon="-5.806518">
        <ele>388.808</ele>
        <time>1999-07-21T15:00:39Z</time>
      </trkpt>
      <trkpt lat="43.283080" lon="-5.806579">
        <ele>389.041</ele>
        <time>1999-07-21T15:00:41Z</time>
      </trkpt>
      <trkpt lat="43.283167" lon="-5.806644">
        <ele>389.216</ele>
        <time>1999-07-21T15:00:43Z</time>
      </trkpt>
      <trkpt lat="43.283388" lon="-5.806805">
        <ele>389.426</ele>
        <time>1999-07-21T15:00:48Z</time>
      </trkpt>
      <trkpt lat="43.283463" lon="-5.806883">
        <ele>389.437</ele>
        <time>1999-07-21T15:00:50Z</time>
      </trkpt>
      <trkpt lat="43.283493" lon="-5.806932">
        <ele>389.435</ele>
        <time>1999-07-21T15:00:51Z</time>
      </trkpt>
      <trkpt lat="43.283548" lon="-5.807182">
        <ele>389.623</ele>
        <time>1999-07-21T15:00:55Z</time>
      </trkpt>
      <trkpt lat="43.283486" lon="-5.807449">
        <ele>389.664</ele>
        <time>1999-07-21T15:00:59Z</time>
      </trkpt>
      <trkpt lat="43.283448" lon="-5.807573">
        <ele>389.870</ele>
        <time>1999-07-21T15:01:01Z</time>
      </trkpt>
      <trkpt lat="43.283430" lon="-5.807760">
        <ele>389.816</ele>
        <time>1999-07-21T15:01:04Z</time>
      </trkpt>
      <trkpt lat="43.283429" lon="-5.807946">
        <ele>389.876</ele>
        <time>1999-07-21T15:01:07Z</time>
      </trkpt>
      <trkpt lat="43.283451" lon="-5.808190">
        <ele>389.813</ele>
        <time>1999-07-21T15:01:11Z</time>
      </trkpt>
      <trkpt lat="43.283461" lon="-5.808310">
        <ele>389.608</ele>
        <time>1999-07-21T15:01:13Z</time>
      </trkpt>
      <trkpt lat="43.283496" lon="-5.808561">
        <ele>389.484</ele>
        <time>1999-07-21T15:01:17Z</time>
      </trkpt>
      <trkpt lat="43.283538" lon="-5.808761">
        <ele>389.299</ele>
        <time>1999-07-21T15:01:20Z</time>
      </trkpt>
      <trkpt lat="43.283600" lon="-5.808874">
        <ele>389.219</ele>
        <time>1999-07-21T15:01:22Z</time>
      </trkpt>
      <trkpt lat="43.283789" lon="-5.808979">
        <ele>389.260</ele>
        <time>1999-07-21T15:01:26Z</time>
      </trkpt>
      <trkpt lat="43.283897" lon="-5.808986">
        <ele>389.298</ele>
        <time>1999-07-21T15:01:28Z</time>
      </trkpt>
      <trkpt lat="43.283950" lon="-5.808983">
        <ele>389.236</ele>
        <time>1999-07-21T15:01:29Z</time>
      </trkpt>
      <trkpt lat="43.284057" lon="-5.808953">
        <ele>389.297</ele>
        <time>1999-07-21T15:01:31Z</time>
      </trkpt>
      <trkpt lat="43.284401" lon="-5.808777">
        <ele>388.863</ele>
        <time>1999-07-21T15:01:37Z</time>
      </trkpt>
      <trkpt lat="43.284880" lon="-5.808522">
        <ele>388.861</ele>
        <time>1999-07-21T15:01:46Z</time>
      </trkpt>
      <trkpt lat="43.285383" lon="-5.808276">
        <ele>388.621</ele>
        <time>1999-07-21T15:01:55Z</time>
      </trkpt>
      <trkpt lat="43.285631" lon="-5.808199">
        <ele>388.213</ele>
        <time>1999-07-21T15:01:59Z</time>
      </trkpt>
      <trkpt lat="43.285767" lon="-5.808235">
        <ele>388.008</ele>
        <time>1999-07-21T15:02:01Z</time>
      </trkpt>
      <trkpt lat="43.285950" lon="-5.808380">
        <ele>388.049</ele>
        <time>1999-07-21T15:02:04Z</time>
      </trkpt>
      <trkpt lat="43.286012" lon="-5.808432">
        <ele>388.044</ele>
        <time>1999-07-21T15:02:05Z</time>
      </trkpt>
      <trkpt lat="43.286142" lon="-5.808529">
        <ele>387.844</ele>
        <time>1999-07-21T15:02:07Z</time>
      </trkpt>
      <trkpt lat="43.286338" lon="-5.808632">
        <ele>387.895</ele>
        <time>1999-07-21T15:02:10Z</time>
      </trkpt>
      <trkpt lat="43.286403" lon="-5.808653">
        <ele>387.823</ele>
        <time>1999-07-21T15:02:11Z</time>
      </trkpt>
      <trkpt lat="43.286644" lon="-5.808743">
        <ele>387.811</ele>
        <time>1999-07-21T15:02:15Z</time>
      </trkpt>
      <trkpt lat="43.286760" lon="-5.808843">
        <ele>387.822</ele>
        <time>1999-07-21T15:02:17Z</time>
      </trkpt>
      <trkpt lat="43.286919" lon="-5.809115">
        <ele>387.878</ele>
        <time>1999-07-21T15:02:21Z</time>
      </trkpt>
      <trkpt lat="43.287096" lon="-5.809390">
        <ele>388.863</ele>
        <time>1999-07-21T15:02:26Z</time>
      </trkpt>
      <trkpt lat="43.287249" lon="-5.809538">
        <ele>389.844</ele>
        <time>1999-07-21T15:02:30Z</time>
      </trkpt>
      <trkpt lat="43.287366" lon="-5.809646">
        <ele>390.418</ele>
        <time>1999-07-21T15:02:33Z</time>
      </trkpt>
      <trkpt lat="43.287651" lon="-5.809901">
        <ele>390.408</ele>
        <time>1999-07-21T15:02:39Z</time>
      </trkpt>
      <trkpt lat="43.287859" lon="-5.810089">
        <ele>390.429</ele>
        <time>1999-07-21T15:02:43Z</time>
      </trkpt>
      <trkpt lat="43.287964" lon="-5.810174">
        <ele>390.044</ele>
        <time>1999-07-21T15:02:45Z</time>
      </trkpt>
      <trkpt lat="43.288120" lon="-5.810293">
        <ele>389.494</ele>
        <time>1999-07-21T15:02:48Z</time>
      </trkpt>
      <trkpt lat="43.288357" lon="-5.810310">
        <ele>388.895</ele>
        <time>1999-07-21T15:02:52Z</time>
      </trkpt>
      <trkpt lat="43.288529" lon="-5.810261">
        <ele>388.473</ele>
        <time>1999-07-21T15:02:55Z</time>
      </trkpt>
      <trkpt lat="43.288590" lon="-5.810219">
        <ele>388.091</ele>
        <time>1999-07-21T15:02:57Z</time>
      </trkpt>
      <trkpt lat="43.288603" lon="-5.810209">
        <ele>387.842</ele>
        <time>1999-07-21T15:02:58Z</time>
      </trkpt>
      <trkpt lat="43.288606" lon="-5.810200">
        <ele>387.218</ele>
        <time>1999-07-21T15:03:00Z</time>
      </trkpt>
      <trkpt lat="43.288633" lon="-5.810155">
        <ele>383.257</ele>
        <time>1999-07-21T15:04:22Z</time>
      </trkpt>
      <trkpt lat="43.288652" lon="-5.810127">
        <ele>383.200</ele>
        <time>1999-07-21T15:04:23Z</time>
      </trkpt>
      <trkpt lat="43.288689" lon="-5.810048">
        <ele>383.020</ele>
        <time>1999-07-21T15:04:25Z</time>
      </trkpt>
      <trkpt lat="43.288712" lon="-5.809988">
        <ele>383.008</ele>
        <time>1999-07-21T15:04:26Z</time>
      </trkpt>
      <trkpt lat="43.288794" lon="-5.809789">
        <ele>383.058</ele>
        <time>1999-07-21T15:04:29Z</time>
      </trkpt>
      <trkpt lat="43.288849" lon="-5.809680">
        <ele>383.013</ele>
        <time>1999-07-21T15:04:31Z</time>
      </trkpt>
      <trkpt lat="43.288899" lon="-5.809597">
        <ele>382.073</ele>
        <time>1999-07-21T15:04:33Z</time>
      </trkpt>
      <trkpt lat="43.288952" lon="-5.809528">
        <ele>380.094</ele>
        <time>1999-07-21T15:04:35Z</time>
      </trkpt>
      <trkpt lat="43.288975" lon="-5.809503">
        <ele>378.682</ele>
        <time>1999-07-21T15:04:36Z</time>
      </trkpt>
      <trkpt lat="43.288997" lon="-5.809483">
        <ele>377.090</ele>
        <time>1999-07-21T15:04:37Z</time>
      </trkpt>
      <trkpt lat="43.289015" lon="-5.809465">
        <ele>375.661</ele>
        <time>1999-07-21T15:04:38Z</time>
      </trkpt>
      <trkpt lat="43.289027" lon="-5.809453">
        <ele>374.457</ele>
        <time>1999-07-21T15:04:39Z</time>
      </trkpt>
      <trkpt lat="43.289033" lon="-5.809450">
        <ele>373.471</ele>
        <time>1999-07-21T15:04:40Z</time>
      </trkpt>
      <trkpt lat="43.289036" lon="-5.809451">
        <ele>372.441</ele>
        <time>1999-07-21T15:04:41Z</time>
      </trkpt>
      <trkpt lat="43.288740" lon="-5.810255">
        <ele>383.015</ele>
        <time>1999-07-21T15:06:24Z</time>
      </trkpt>
      <trkpt lat="43.288773" lon="-5.810272">
        <ele>383.008</ele>
        <time>1999-07-21T15:06:25Z</time>
      </trkpt>
      <trkpt lat="43.288813" lon="-5.810297">
        <ele>383.070</ele>
        <time>1999-07-21T15:06:26Z</time>
      </trkpt>
      <trkpt lat="43.288905" lon="-5.810371">
        <ele>383.085</ele>
        <time>1999-07-21T15:06:28Z</time>
      </trkpt>
      <trkpt lat="43.289005" lon="-5.810467">
        <ele>383.035</ele>
        <time>1999-07-21T15:06:30Z</time>
      </trkpt>
      <trkpt lat="43.289064" lon="-5.810509">
        <ele>383.026</ele>
        <time>1999-07-21T15:06:31Z</time>
      </trkpt>
      <trkpt lat="43.289193" lon="-5.810584">
        <ele>382.684</ele>
        <time>1999-07-21T15:06:33Z</time>
      </trkpt>
      <trkpt lat="43.289318" lon="-5.810673">
        <ele>382.222</ele>
        <time>1999-07-21T15:06:35Z</time>
      </trkpt>
      <trkpt lat="43.289375" lon="-5.810735">
        <ele>382.063</ele>
        <time>1999-07-21T15:06:36Z</time>
      </trkpt>
      <trkpt lat="43.289495" lon="-5.810863">
        <ele>381.249</ele>
        <time>1999-07-21T15:06:38Z</time>
      </trkpt>
      <trkpt lat="43.289564" lon="-5.810913">
        <ele>380.695</ele>
        <time>1999-07-21T15:06:39Z</time>
      </trkpt>
      <trkpt lat="43.289646" lon="-5.810949">
        <ele>380.649</ele>
        <time>1999-07-21T15:06:40Z</time>
      </trkpt>
      <trkpt lat="43.289806" lon="-5.810968">
        <ele>379.623</ele>
        <time>1999-07-21T15:06:42Z</time>
      </trkpt>
      <trkpt lat="43.289888" lon="-5.810964">
        <ele>379.208</ele>
        <time>1999-07-21T15:06:43Z</time>
      </trkpt>
      <trkpt lat="43.289977" lon="-5.810958">
        <ele>379.032</ele>
        <time>1999-07-21T15:06:44Z</time>
      </trkpt>
      <trkpt lat="43.290069" lon="-5.810948">
        <ele>378.277</ele>
        <time>1999-07-21T15:06:45Z</time>
      </trkpt>
      <trkpt lat="43.290253" lon="-5.810938">
        <ele>376.877</ele>
        <time>1999-07-21T15:06:47Z</time>
      </trkpt>
      <trkpt lat="43.290341" lon="-5.810954">
        <ele>376.238</ele>
        <time>1999-07-21T15:06:48Z</time>
      </trkpt>
      <trkpt lat="43.290419" lon="-5.810984">
        <ele>375.616</ele>
        <time>1999-07-21T15:06:49Z</time>
      </trkpt>
      <trkpt lat="43.290485" lon="-5.811036">
        <ele>375.074</ele>
        <time>1999-07-21T15:06:50Z</time>
      </trkpt>
      <trkpt lat="43.290542" lon="-5.811084">
        <ele>374.665</ele>
        <time>1999-07-21T15:06:51Z</time>
      </trkpt>
      <trkpt lat="43.290587" lon="-5.811105">
        <ele>374.071</ele>
        <time>1999-07-21T15:06:52Z</time>
      </trkpt>
      <trkpt lat="43.290630" lon="-5.811093">
        <ele>373.422</ele>
        <time>1999-07-21T15:06:53Z</time>
      </trkpt>
      <trkpt lat="43.290656" lon="-5.811049">
        <ele>372.862</ele>
        <time>1999-07-21T15:06:54Z</time>
      </trkpt>
      <trkpt lat="43.290656" lon="-5.810996">
        <ele>372.408</ele>
        <time>1999-07-21T15:06:55Z</time>
      </trkpt>
      <trkpt lat="43.290640" lon="-5.810939">
        <ele>371.608</ele>
        <time>1999-07-21T15:06:56Z</time>
      </trkpt>
      <trkpt lat="43.290565" lon="-5.810820">
        <ele>370.085</ele>
        <time>1999-07-21T15:06:58Z</time>
      </trkpt>
      <trkpt lat="43.290517" lon="-5.810758">
        <ele>368.820</ele>
        <time>1999-07-21T15:06:59Z</time>
      </trkpt>
      <trkpt lat="43.290463" lon="-5.810705">
        <ele>367.640</ele>
        <time>1999-07-21T15:07:00Z</time>
      </trkpt>
      <trkpt lat="43.290404" lon="-5.810674">
        <ele>366.611</ele>
        <time>1999-07-21T15:07:01Z</time>
      </trkpt>
      <trkpt lat="43.290339" lon="-5.810657">
        <ele>365.839</ele>
        <time>1999-07-21T15:07:02Z</time>
      </trkpt>
      <trkpt lat="43.290271" lon="-5.810639">
        <ele>364.867</ele>
        <time>1999-07-21T15:07:03Z</time>
      </trkpt>
      <trkpt lat="43.290170" lon="-5.810583">
        <ele>363.688</ele>
        <time>1999-07-21T15:07:05Z</time>
      </trkpt>
      <trkpt lat="43.290128" lon="-5.810561">
        <ele>362.834</ele>
        <time>1999-07-21T15:07:07Z</time>
      </trkpt>
      <trkpt lat="43.290125" lon="-5.810559">
        <ele>362.215</ele>
        <time>1999-07-21T15:07:08Z</time>
      </trkpt>
      <trkpt lat="43.290125" lon="-5.810559">
        <ele>361.865</ele>
        <time>1999-07-21T15:07:09Z</time>
      </trkpt>
      <trkpt lat="43.290086" lon="-5.810608">
        <ele>357.811</ele>
        <time>1999-07-21T15:07:43Z</time>
      </trkpt>
      <trkpt lat="43.290031" lon="-5.810615">
        <ele>357.808</ele>
        <time>1999-07-21T15:07:45Z</time>
      </trkpt>
      <trkpt lat="43.289922" lon="-5.810550">
        <ele>357.814</ele>
        <time>1999-07-21T15:07:48Z</time>
      </trkpt>
      <trkpt lat="43.289930" lon="-5.810450">
        <ele>357.889</ele>
        <time>1999-07-21T15:07:50Z</time>
      </trkpt>
      <trkpt lat="43.290037" lon="-5.810425">
        <ele>357.639</ele>
        <time>1999-07-21T15:07:52Z</time>
      </trkpt>
      <trkpt lat="43.290231" lon="-5.810443">
        <ele>357.250</ele>
        <time>1999-07-21T15:07:55Z</time>
      </trkpt>
      <trkpt lat="43.290302" lon="-5.810441">
        <ele>357.038</ele>
        <time>1999-07-21T15:07:56Z</time>
      </trkpt>
      <trkpt lat="43.290373" lon="-5.810439">
        <ele>356.646</ele>
        <time>1999-07-21T15:07:57Z</time>
      </trkpt>
      <trkpt lat="43.290674" lon="-5.810444">
        <ele>355.627</ele>
        <time>1999-07-21T15:08:01Z</time>
      </trkpt>
      <trkpt lat="43.290930" lon="-5.810497">
        <ele>354.493</ele>
        <time>1999-07-21T15:08:04Z</time>
      </trkpt>
      <trkpt lat="43.291124" lon="-5.810542">
        <ele>353.641</ele>
        <time>1999-07-21T15:08:06Z</time>
      </trkpt>
      <trkpt lat="43.291212" lon="-5.810568">
        <ele>353.281</ele>
        <time>1999-07-21T15:08:07Z</time>
      </trkpt>
      <trkpt lat="43.291346" lon="-5.810591">
        <ele>352.009</ele>
        <time>1999-07-21T15:08:09Z</time>
      </trkpt>
      <trkpt lat="43.291407" lon="-5.810521">
        <ele>351.208</ele>
        <time>1999-07-21T15:08:11Z</time>
      </trkpt>
      <trkpt lat="43.291396" lon="-5.810481">
        <ele>350.437</ele>
        <time>1999-07-21T15:08:12Z</time>
      </trkpt>
      <trkpt lat="43.291351" lon="-5.810451">
        <ele>349.642</ele>
        <time>1999-07-21T15:08:13Z</time>
      </trkpt>
      <trkpt lat="43.291301" lon="-5.810439">
        <ele>348.832</ele>
        <time>1999-07-21T15:08:14Z</time>
      </trkpt>
      <trkpt lat="43.291246" lon="-5.810427">
        <ele>347.883</ele>
        <time>1999-07-21T15:08:15Z</time>
      </trkpt>
      <trkpt lat="43.291188" lon="-5.810412">
        <ele>347.071</ele>
        <time>1999-07-21T15:08:16Z</time>
      </trkpt>
      <trkpt lat="43.291129" lon="-5.810393">
        <ele>346.279</ele>
        <time>1999-07-21T15:08:17Z</time>
      </trkpt>
      <trkpt lat="43.291064" lon="-5.810371">
        <ele>345.460</ele>
        <time>1999-07-21T15:08:18Z</time>
      </trkpt>
      <trkpt lat="43.290938" lon="-5.810338">
        <ele>344.036</ele>
        <time>1999-07-21T15:08:20Z</time>
      </trkpt>
      <trkpt lat="43.290819" lon="-5.810308">
        <ele>343.495</ele>
        <time>1999-07-21T15:08:22Z</time>
      </trkpt>
      <trkpt lat="43.290773" lon="-5.810289">
        <ele>343.249</ele>
        <time>1999-07-21T15:08:23Z</time>
      </trkpt>
      <trkpt lat="43.290742" lon="-5.810260">
        <ele>342.823</ele>
        <time>1999-07-21T15:08:24Z</time>
      </trkpt>
      <trkpt lat="43.290731" lon="-5.810210">
        <ele>342.808</ele>
        <time>1999-07-21T15:08:25Z</time>
      </trkpt>
      <trkpt lat="43.290794" lon="-5.810114">
        <ele>341.622</ele>
        <time>1999-07-21T15:08:27Z</time>
      </trkpt>
      <trkpt lat="43.290914" lon="-5.810111">
        <ele>340.877</ele>
        <time>1999-07-21T15:08:29Z</time>
      </trkpt>
      <trkpt lat="43.290981" lon="-5.810126">
        <ele>340.257</ele>
        <time>1999-07-21T15:08:30Z</time>
      </trkpt>
      <trkpt lat="43.291055" lon="-5.810138">
        <ele>339.858</ele>
        <time>1999-07-21T15:08:31Z</time>
      </trkpt>
      <trkpt lat="43.291132" lon="-5.810146">
        <ele>339.286</ele>
        <time>1999-07-21T15:08:32Z</time>
      </trkpt>
      <trkpt lat="43.291210" lon="-5.810155">
        <ele>338.854</ele>
        <time>1999-07-21T15:08:33Z</time>
      </trkpt>
      <trkpt lat="43.291382" lon="-5.810177">
        <ele>338.245</ele>
        <time>1999-07-21T15:08:35Z</time>
      </trkpt>
      <trkpt lat="43.291663" lon="-5.810211">
        <ele>337.261</ele>
        <time>1999-07-21T15:08:38Z</time>
      </trkpt>
      <trkpt lat="43.291760" lon="-5.810231">
        <ele>337.069</ele>
        <time>1999-07-21T15:08:39Z</time>
      </trkpt>
      <trkpt lat="43.292051" lon="-5.810319">
        <ele>335.604</ele>
        <time>1999-07-21T15:08:42Z</time>
      </trkpt>
      <trkpt lat="43.292147" lon="-5.810366">
        <ele>335.224</ele>
        <time>1999-07-21T15:08:43Z</time>
      </trkpt>
      <trkpt lat="43.292335" lon="-5.810501">
        <ele>334.408</ele>
        <time>1999-07-21T15:08:45Z</time>
      </trkpt>
      <trkpt lat="43.292500" lon="-5.810651">
        <ele>332.889</ele>
        <time>1999-07-21T15:08:47Z</time>
      </trkpt>
      <trkpt lat="43.292636" lon="-5.810788">
        <ele>331.684</ele>
        <time>1999-07-21T15:08:49Z</time>
      </trkpt>
      <trkpt lat="43.292688" lon="-5.810853">
        <ele>331.074</ele>
        <time>1999-07-21T15:08:50Z</time>
      </trkpt>
      <trkpt lat="43.292719" lon="-5.810929">
        <ele>330.235</ele>
        <time>1999-07-21T15:08:51Z</time>
      </trkpt>
      <trkpt lat="43.292709" lon="-5.811072">
        <ele>328.043</ele>
        <time>1999-07-21T15:08:53Z</time>
      </trkpt>
      <trkpt lat="43.292601" lon="-5.811150">
        <ele>326.221</ele>
        <time>1999-07-21T15:08:55Z</time>
      </trkpt>
      <trkpt lat="43.292511" lon="-5.811152">
        <ele>325.292</ele>
        <time>1999-07-21T15:08:56Z</time>
      </trkpt>
      <trkpt lat="43.292424" lon="-5.811152">
        <ele>324.228</ele>
        <time>1999-07-21T15:08:57Z</time>
      </trkpt>
      <trkpt lat="43.292336" lon="-5.811153">
        <ele>323.237</ele>
        <time>1999-07-21T15:08:58Z</time>
      </trkpt>
      <trkpt lat="43.292167" lon="-5.811185">
        <ele>321.449</ele>
        <time>1999-07-21T15:09:00Z</time>
      </trkpt>
      <trkpt lat="43.291999" lon="-5.811281">
        <ele>320.213</ele>
        <time>1999-07-21T15:09:02Z</time>
      </trkpt>
      <trkpt lat="43.291852" lon="-5.811458">
        <ele>319.008</ele>
        <time>1999-07-21T15:09:04Z</time>
      </trkpt>
      <trkpt lat="43.291799" lon="-5.811570">
        <ele>318.666</ele>
        <time>1999-07-21T15:09:05Z</time>
      </trkpt>
      <trkpt lat="43.291719" lon="-5.811825">
        <ele>317.811</ele>
        <time>1999-07-21T15:09:07Z</time>
      </trkpt>
      <trkpt lat="43.291668" lon="-5.812106">
        <ele>316.861</ele>
        <time>1999-07-21T15:09:09Z</time>
      </trkpt>
      <trkpt lat="43.291663" lon="-5.812396">
        <ele>315.682</ele>
        <time>1999-07-21T15:09:11Z</time>
      </trkpt>
      <trkpt lat="43.291669" lon="-5.812545">
        <ele>315.090</ele>
        <time>1999-07-21T15:09:12Z</time>
      </trkpt>
      <trkpt lat="43.291679" lon="-5.812693">
        <ele>314.458</ele>
        <time>1999-07-21T15:09:13Z</time>
      </trkpt>
      <trkpt lat="43.291702" lon="-5.812979">
        <ele>312.279</ele>
        <time>1999-07-21T15:09:15Z</time>
      </trkpt>
      <trkpt lat="43.291726" lon="-5.813233">
        <ele>311.085</ele>
        <time>1999-07-21T15:09:17Z</time>
      </trkpt>
      <trkpt lat="43.291762" lon="-5.813403">
        <ele>309.694</ele>
        <time>1999-07-21T15:09:19Z</time>
      </trkpt>
      <trkpt lat="43.291803" lon="-5.813436">
        <ele>308.857</ele>
        <time>1999-07-21T15:09:20Z</time>
      </trkpt>
      <trkpt lat="43.291852" lon="-5.813419">
        <ele>306.822</ele>
        <time>1999-07-21T15:09:21Z</time>
      </trkpt>
      <trkpt lat="43.291887" lon="-5.813356">
        <ele>305.808</ele>
        <time>1999-07-21T15:09:22Z</time>
      </trkpt>
      <trkpt lat="43.291916" lon="-5.813271">
        <ele>305.022</ele>
        <time>1999-07-21T15:09:23Z</time>
      </trkpt>
      <trkpt lat="43.291941" lon="-5.813174">
        <ele>303.847</ele>
        <time>1999-07-21T15:09:24Z</time>
      </trkpt>
      <trkpt lat="43.291952" lon="-5.813065">
        <ele>302.697</ele>
        <time>1999-07-21T15:09:25Z</time>
      </trkpt>
      <trkpt lat="43.291952" lon="-5.812939">
        <ele>301.458</ele>
        <time>1999-07-21T15:09:26Z</time>
      </trkpt>
      <trkpt lat="43.291967" lon="-5.812809">
        <ele>300.476</ele>
        <time>1999-07-21T15:09:27Z</time>
      </trkpt>
      <trkpt lat="43.291993" lon="-5.812681">
        <ele>299.614</ele>
        <time>1999-07-21T15:09:28Z</time>
      </trkpt>
      <trkpt lat="43.292029" lon="-5.812557">
        <ele>299.045</ele>
        <time>1999-07-21T15:09:29Z</time>
      </trkpt>
      <trkpt lat="43.292137" lon="-5.812220">
        <ele>297.861</ele>
        <time>1999-07-21T15:09:32Z</time>
      </trkpt>
      <trkpt lat="43.292301" lon="-5.812105">
        <ele>296.634</ele>
        <time>1999-07-21T15:09:34Z</time>
      </trkpt>
      <trkpt lat="43.292478" lon="-5.812098">
        <ele>294.855</ele>
        <time>1999-07-21T15:09:36Z</time>
      </trkpt>
      <trkpt lat="43.292566" lon="-5.812129">
        <ele>293.610</ele>
        <time>1999-07-21T15:09:37Z</time>
      </trkpt>
      <trkpt lat="43.292656" lon="-5.812178">
        <ele>292.408</ele>
        <time>1999-07-21T15:09:38Z</time>
      </trkpt>
      <trkpt lat="43.292750" lon="-5.812236">
        <ele>291.266</ele>
        <time>1999-07-21T15:09:39Z</time>
      </trkpt>
      <trkpt lat="43.292846" lon="-5.812309">
        <ele>290.251</ele>
        <time>1999-07-21T15:09:40Z</time>
      </trkpt>
      <trkpt lat="43.292935" lon="-5.812379">
        <ele>289.661</ele>
        <time>1999-07-21T15:09:41Z</time>
      </trkpt>
      <trkpt lat="43.293012" lon="-5.812443">
        <ele>289.012</ele>
        <time>1999-07-21T15:09:42Z</time>
      </trkpt>
      <trkpt lat="43.293088" lon="-5.812495">
        <ele>288.650</ele>
        <time>1999-07-21T15:09:43Z</time>
      </trkpt>
      <trkpt lat="43.293154" lon="-5.812517">
        <ele>288.228</ele>
        <time>1999-07-21T15:09:44Z</time>
      </trkpt>
      <trkpt lat="43.293216" lon="-5.812502">
        <ele>287.639</ele>
        <time>1999-07-21T15:09:45Z</time>
      </trkpt>
      <trkpt lat="43.293275" lon="-5.812440">
        <ele>287.285</ele>
        <time>1999-07-21T15:09:46Z</time>
      </trkpt>
      <trkpt lat="43.293326" lon="-5.812356">
        <ele>286.665</ele>
        <time>1999-07-21T15:09:47Z</time>
      </trkpt>
      <trkpt lat="43.293369" lon="-5.812252">
        <ele>284.868</ele>
        <time>1999-07-21T15:09:48Z</time>
      </trkpt>
      <trkpt lat="43.293405" lon="-5.812141">
        <ele>283.814</ele>
        <time>1999-07-21T15:09:49Z</time>
      </trkpt>
      <trkpt lat="43.293444" lon="-5.812026">
        <ele>282.808</ele>
        <time>1999-07-21T15:09:50Z</time>
      </trkpt>
      <trkpt lat="43.293518" lon="-5.811794">
        <ele>281.059</ele>
        <time>1999-07-21T15:09:52Z</time>
      </trkpt>
      <trkpt lat="43.293616" lon="-5.811589">
        <ele>279.614</ele>
        <time>1999-07-21T15:09:54Z</time>
      </trkpt>
      <trkpt lat="43.293725" lon="-5.811391">
        <ele>278.484</ele>
        <time>1999-07-21T15:09:56Z</time>
      </trkpt>
      <trkpt lat="43.293795" lon="-5.811164">
        <ele>277.035</ele>
        <time>1999-07-21T15:09:58Z</time>
      </trkpt>
      <trkpt lat="43.293798" lon="-5.810919">
        <ele>275.683</ele>
        <time>1999-07-21T15:10:00Z</time>
      </trkpt>
      <trkpt lat="43.293774" lon="-5.810793">
        <ele>274.891</ele>
        <time>1999-07-21T15:10:01Z</time>
      </trkpt>
      <trkpt lat="43.293739" lon="-5.810666">
        <ele>274.242</ele>
        <time>1999-07-21T15:10:02Z</time>
      </trkpt>
      <trkpt lat="43.293638" lon="-5.810396">
        <ele>273.038</ele>
        <time>1999-07-21T15:10:04Z</time>
      </trkpt>
      <trkpt lat="43.293594" lon="-5.810085">
        <ele>271.421</ele>
        <time>1999-07-21T15:10:06Z</time>
      </trkpt>
      <trkpt lat="43.293594" lon="-5.809924">
        <ele>270.641</ele>
        <time>1999-07-21T15:10:07Z</time>
      </trkpt>
      <trkpt lat="43.293610" lon="-5.809769">
        <ele>269.605</ele>
        <time>1999-07-21T15:10:08Z</time>
      </trkpt>
      <trkpt lat="43.293687" lon="-5.809484">
        <ele>268.208</ele>
        <time>1999-07-21T15:10:10Z</time>
      </trkpt>
      <trkpt lat="43.293797" lon="-5.809227">
        <ele>266.855</ele>
        <time>1999-07-21T15:10:12Z</time>
      </trkpt>
      <trkpt lat="43.293895" lon="-5.808998">
        <ele>265.660</ele>
        <time>1999-07-21T15:10:14Z</time>
      </trkpt>
      <trkpt lat="43.293937" lon="-5.808906">
        <ele>264.640</ele>
        <time>1999-07-21T15:10:15Z</time>
      </trkpt>
      <trkpt lat="43.294009" lon="-5.808803">
        <ele>263.461</ele>
        <time>1999-07-21T15:10:17Z</time>
      </trkpt>
      <trkpt lat="43.294114" lon="-5.808877">
        <ele>262.029</ele>
        <time>1999-07-21T15:10:19Z</time>
      </trkpt>
      <trkpt lat="43.294139" lon="-5.808969">
        <ele>260.867</ele>
        <time>1999-07-21T15:10:20Z</time>
      </trkpt>
      <trkpt lat="43.294143" lon="-5.809071">
        <ele>259.418</ele>
        <time>1999-07-21T15:10:21Z</time>
      </trkpt>
      <trkpt lat="43.294134" lon="-5.809184">
        <ele>258.434</ele>
        <time>1999-07-21T15:10:22Z</time>
      </trkpt>
      <trkpt lat="43.294123" lon="-5.809300">
        <ele>257.276</ele>
        <time>1999-07-21T15:10:23Z</time>
      </trkpt>
      <trkpt lat="43.294122" lon="-5.809422">
        <ele>256.290</ele>
        <time>1999-07-21T15:10:24Z</time>
      </trkpt>
      <trkpt lat="43.294128" lon="-5.809547">
        <ele>255.219</ele>
        <time>1999-07-21T15:10:25Z</time>
      </trkpt>
      <trkpt lat="43.294143" lon="-5.809677">
        <ele>254.408</ele>
        <time>1999-07-21T15:10:26Z</time>
      </trkpt>
      <trkpt lat="43.294202" lon="-5.810059">
        <ele>253.210</ele>
        <time>1999-07-21T15:10:29Z</time>
      </trkpt>
      <trkpt lat="43.294268" lon="-5.810450">
        <ele>252.255</ele>
        <time>1999-07-21T15:10:32Z</time>
      </trkpt>
      <trkpt lat="43.294317" lon="-5.810738">
        <ele>251.095</ele>
        <time>1999-07-21T15:10:34Z</time>
      </trkpt>
      <trkpt lat="43.294380" lon="-5.811038">
        <ele>250.056</ele>
        <time>1999-07-21T15:10:36Z</time>
      </trkpt>
      <trkpt lat="43.294432" lon="-5.811349">
        <ele>248.614</ele>
        <time>1999-07-21T15:10:38Z</time>
      </trkpt>
      <trkpt lat="43.294450" lon="-5.811508">
        <ele>248.072</ele>
        <time>1999-07-21T15:10:39Z</time>
      </trkpt>
      <trkpt lat="43.294456" lon="-5.811670">
        <ele>247.233</ele>
        <time>1999-07-21T15:10:40Z</time>
      </trkpt>
      <trkpt lat="43.294452" lon="-5.811833">
        <ele>246.649</ele>
        <time>1999-07-21T15:10:41Z</time>
      </trkpt>
      <trkpt lat="43.294425" lon="-5.811988">
        <ele>245.858</ele>
        <time>1999-07-21T15:10:42Z</time>
      </trkpt>
      <trkpt lat="43.294392" lon="-5.812135">
        <ele>244.052</ele>
        <time>1999-07-21T15:10:43Z</time>
      </trkpt>
      <trkpt lat="43.294341" lon="-5.812418">
        <ele>242.617</ele>
        <time>1999-07-21T15:10:45Z</time>
      </trkpt>
      <trkpt lat="43.294334" lon="-5.812552">
        <ele>241.408</ele>
        <time>1999-07-21T15:10:46Z</time>
      </trkpt>
      <trkpt lat="43.294349" lon="-5.812677">
        <ele>240.828</ele>
        <time>1999-07-21T15:10:47Z</time>
      </trkpt>
      <trkpt lat="43.294390" lon="-5.812912">
        <ele>238.843</ele>
        <time>1999-07-21T15:10:49Z</time>
      </trkpt>
      <trkpt lat="43.294418" lon="-5.813177">
        <ele>237.643</ele>
        <time>1999-07-21T15:10:51Z</time>
      </trkpt>
      <trkpt lat="43.294445" lon="-5.813473">
        <ele>236.034</ele>
        <time>1999-07-21T15:10:53Z</time>
      </trkpt>
      <trkpt lat="43.294437" lon="-5.813771">
        <ele>234.292</ele>
        <time>1999-07-21T15:10:55Z</time>
      </trkpt>
      <trkpt lat="43.294395" lon="-5.813904">
        <ele>233.250</ele>
        <time>1999-07-21T15:10:56Z</time>
      </trkpt>
      <trkpt lat="43.294319" lon="-5.814019">
        <ele>232.041</ele>
        <time>1999-07-21T15:10:57Z</time>
      </trkpt>
      <trkpt lat="43.294231" lon="-5.814116">
        <ele>231.087</ele>
        <time>1999-07-21T15:10:58Z</time>
      </trkpt>
      <trkpt lat="43.294147" lon="-5.814200">
        <ele>230.098</ele>
        <time>1999-07-21T15:10:59Z</time>
      </trkpt>
      <trkpt lat="43.293965" lon="-5.814308">
        <ele>228.415</ele>
        <time>1999-07-21T15:11:01Z</time>
      </trkpt>
      <trkpt lat="43.293821" lon="-5.814436">
        <ele>227.026</ele>
        <time>1999-07-21T15:11:03Z</time>
      </trkpt>
      <trkpt lat="43.293788" lon="-5.814530">
        <ele>226.408</ele>
        <time>1999-07-21T15:11:04Z</time>
      </trkpt>
      <trkpt lat="43.293773" lon="-5.814633">
        <ele>225.662</ele>
        <time>1999-07-21T15:11:05Z</time>
      </trkpt>
      <trkpt lat="43.293780" lon="-5.814864">
        <ele>223.867</ele>
        <time>1999-07-21T15:11:07Z</time>
      </trkpt>
      <trkpt lat="43.293828" lon="-5.815075">
        <ele>222.067</ele>
        <time>1999-07-21T15:11:09Z</time>
      </trkpt>
      <trkpt lat="43.293890" lon="-5.815138">
        <ele>220.068</ele>
        <time>1999-07-21T15:11:10Z</time>
      </trkpt>
      <trkpt lat="43.294049" lon="-5.815164">
        <ele>218.486</ele>
        <time>1999-07-21T15:11:12Z</time>
      </trkpt>
      <trkpt lat="43.294249" lon="-5.815124">
        <ele>217.674</ele>
        <time>1999-07-21T15:11:14Z</time>
      </trkpt>
      <trkpt lat="43.294347" lon="-5.815098">
        <ele>217.255</ele>
        <time>1999-07-21T15:11:15Z</time>
      </trkpt>
      <trkpt lat="43.294445" lon="-5.815085">
        <ele>216.671</ele>
        <time>1999-07-21T15:11:16Z</time>
      </trkpt>
      <trkpt lat="43.294542" lon="-5.815091">
        <ele>216.083</ele>
        <time>1999-07-21T15:11:17Z</time>
      </trkpt>
      <trkpt lat="43.294730" lon="-5.815150">
        <ele>214.425</ele>
        <time>1999-07-21T15:11:19Z</time>
      </trkpt>
      <trkpt lat="43.294900" lon="-5.815280">
        <ele>213.417</ele>
        <time>1999-07-21T15:11:21Z</time>
      </trkpt>
      <trkpt lat="43.294976" lon="-5.815357">
        <ele>212.808</ele>
        <time>1999-07-21T15:11:22Z</time>
      </trkpt>
      <trkpt lat="43.295050" lon="-5.815428">
        <ele>212.471</ele>
        <time>1999-07-21T15:11:23Z</time>
      </trkpt>
      <trkpt lat="43.295198" lon="-5.815504">
        <ele>211.436</ele>
        <time>1999-07-21T15:11:25Z</time>
      </trkpt>
      <trkpt lat="43.295274" lon="-5.815514">
        <ele>211.036</ele>
        <time>1999-07-21T15:11:26Z</time>
      </trkpt>
      <trkpt lat="43.295432" lon="-5.815496">
        <ele>209.847</ele>
        <time>1999-07-21T15:11:28Z</time>
      </trkpt>
      <trkpt lat="43.295513" lon="-5.815479">
        <ele>209.075</ele>
        <time>1999-07-21T15:11:29Z</time>
      </trkpt>
      <trkpt lat="43.295591" lon="-5.815461">
        <ele>208.013</ele>
        <time>1999-07-21T15:11:30Z</time>
      </trkpt>
      <trkpt lat="43.295658" lon="-5.815447">
        <ele>206.834</ele>
        <time>1999-07-21T15:11:31Z</time>
      </trkpt>
      <trkpt lat="43.295708" lon="-5.815436">
        <ele>205.630</ele>
        <time>1999-07-21T15:11:32Z</time>
      </trkpt>
      <trkpt lat="43.295742" lon="-5.815427">
        <ele>204.672</ele>
        <time>1999-07-21T15:11:33Z</time>
      </trkpt>
      <trkpt lat="43.295767" lon="-5.815423">
        <ele>204.013</ele>
        <time>1999-07-21T15:11:34Z</time>
      </trkpt>
      <trkpt lat="43.295793" lon="-5.815444">
        <ele>203.014</ele>
        <time>1999-07-21T15:11:36Z</time>
      </trkpt>
      <trkpt lat="43.295789" lon="-5.815463">
        <ele>202.008</ele>
        <time>1999-07-21T15:11:37Z</time>
      </trkpt>
      <trkpt lat="43.295774" lon="-5.815475">
        <ele>201.630</ele>
        <time>1999-07-21T15:11:38Z</time>
      </trkpt>
      <trkpt lat="43.295730" lon="-5.815484">
        <ele>200.615</ele>
        <time>1999-07-21T15:11:40Z</time>
      </trkpt>
      <trkpt lat="43.295703" lon="-5.815484">
        <ele>200.245</ele>
        <time>1999-07-21T15:11:41Z</time>
      </trkpt>
      <trkpt lat="43.295612" lon="-5.815489">
        <ele>199.686</ele>
        <time>1999-07-21T15:11:44Z</time>
      </trkpt>
      <trkpt lat="43.295541" lon="-5.815518">
        <ele>199.664</ele>
        <time>1999-07-21T15:11:46Z</time>
      </trkpt>
      <trkpt lat="43.295499" lon="-5.815529">
        <ele>199.632</ele>
        <time>1999-07-21T15:11:47Z</time>
      </trkpt>
      <trkpt lat="43.295409" lon="-5.815545">
        <ele>199.643</ele>
        <time>1999-07-21T15:11:49Z</time>
      </trkpt>
      <trkpt lat="43.295313" lon="-5.815566">
        <ele>199.679</ele>
        <time>1999-07-21T15:11:51Z</time>
      </trkpt>
      <trkpt lat="43.295267" lon="-5.815583">
        <ele>199.617</ele>
        <time>1999-07-21T15:11:52Z</time>
      </trkpt>
      <trkpt lat="43.295228" lon="-5.815612">
        <ele>199.887</ele>
        <time>1999-07-21T15:11:53Z</time>
      </trkpt>
      <trkpt lat="43.295194" lon="-5.815790">
        <ele>200.015</ele>
        <time>1999-07-21T15:11:56Z</time>
      </trkpt>
      <trkpt lat="43.295280" lon="-5.815989">
        <ele>200.208</ele>
        <time>1999-07-21T15:11:59Z</time>
      </trkpt>
      <trkpt lat="43.295321" lon="-5.816062">
        <ele>200.214</ele>
        <time>1999-07-21T15:12:00Z</time>
      </trkpt>
      <trkpt lat="43.295453" lon="-5.816295">
        <ele>200.289</ele>
        <time>1999-07-21T15:12:03Z</time>
      </trkpt>
      <trkpt lat="43.295601" lon="-5.816592">
        <ele>200.099</ele>
        <time>1999-07-21T15:12:06Z</time>
      </trkpt>
      <trkpt lat="43.295710" lon="-5.816798">
        <ele>199.690</ele>
        <time>1999-07-21T15:12:08Z</time>
      </trkpt>
      <trkpt lat="43.295856" lon="-5.817136">
        <ele>198.478</ele>
        <time>1999-07-21T15:12:11Z</time>
      </trkpt>
      <trkpt lat="43.295889" lon="-5.817379">
        <ele>197.256</ele>
        <time>1999-07-21T15:12:13Z</time>
      </trkpt>
      <trkpt lat="43.295898" lon="-5.817495">
        <ele>196.817</ele>
        <time>1999-07-21T15:12:14Z</time>
      </trkpt>
      <trkpt lat="43.295895" lon="-5.817608">
        <ele>196.223</ele>
        <time>1999-07-21T15:12:15Z</time>
      </trkpt>
      <trkpt lat="43.295895" lon="-5.817714">
        <ele>195.685</ele>
        <time>1999-07-21T15:12:16Z</time>
      </trkpt>
      <trkpt lat="43.295900" lon="-5.817817">
        <ele>195.089</ele>
        <time>1999-07-21T15:12:17Z</time>
      </trkpt>
      <trkpt lat="43.295905" lon="-5.818003">
        <ele>193.817</ele>
        <time>1999-07-21T15:12:19Z</time>
      </trkpt>
      <trkpt lat="43.295911" lon="-5.818159">
        <ele>193.408</ele>
        <time>1999-07-21T15:12:21Z</time>
      </trkpt>
      <trkpt lat="43.295915" lon="-5.818298">
        <ele>193.271</ele>
        <time>1999-07-21T15:12:23Z</time>
      </trkpt>
      <trkpt lat="43.295920" lon="-5.818360">
        <ele>193.046</ele>
        <time>1999-07-21T15:12:24Z</time>
      </trkpt>
      <trkpt lat="43.295938" lon="-5.818466">
        <ele>192.666</ele>
        <time>1999-07-21T15:12:26Z</time>
      </trkpt>
      <trkpt lat="43.295948" lon="-5.818516">
        <ele>192.237</ele>
        <time>1999-07-21T15:12:27Z</time>
      </trkpt>
      <trkpt lat="43.295960" lon="-5.818566">
        <ele>192.025</ele>
        <time>1999-07-21T15:12:28Z</time>
      </trkpt>
      <trkpt lat="43.295989" lon="-5.818650">
        <ele>191.813</ele>
        <time>1999-07-21T15:12:30Z</time>
      </trkpt>
      <trkpt lat="43.296005" lon="-5.818686">
        <ele>191.414</ele>
        <time>1999-07-21T15:12:31Z</time>
      </trkpt>
      <trkpt lat="43.296079" lon="-5.818834">
        <ele>190.880</ele>
        <time>1999-07-21T15:12:35Z</time>
      </trkpt>
      <trkpt lat="43.296099" lon="-5.818870">
        <ele>190.882</ele>
        <time>1999-07-21T15:12:36Z</time>
      </trkpt>
      <trkpt lat="43.296182" lon="-5.818971">
        <ele>190.443</ele>
        <time>1999-07-21T15:12:41Z</time>
      </trkpt>
      <trkpt lat="43.296201" lon="-5.818953">
        <ele>190.417</ele>
        <time>1999-07-21T15:12:43Z</time>
      </trkpt>
      <trkpt lat="43.296209" lon="-5.818932">
        <ele>190.408</ele>
        <time>1999-07-21T15:12:44Z</time>
      </trkpt>
      <trkpt lat="43.296220" lon="-5.818916">
        <ele>190.471</ele>
        <time>1999-07-21T15:12:45Z</time>
      </trkpt>
      <trkpt lat="43.296260" lon="-5.818889">
        <ele>190.016</ele>
        <time>1999-07-21T15:12:48Z</time>
      </trkpt>
      <trkpt lat="43.296275" lon="-5.818868">
        <ele>190.056</ele>
        <time>1999-07-21T15:12:49Z</time>
      </trkpt>
      <trkpt lat="43.296275" lon="-5.818845">
        <ele>189.837</ele>
        <time>1999-07-21T15:12:50Z</time>
      </trkpt>
      <trkpt lat="43.296255" lon="-5.818805">
        <ele>189.845</ele>
        <time>1999-07-21T15:12:53Z</time>
      </trkpt>
      <trkpt lat="43.296256" lon="-5.818806">
        <ele>189.873</ele>
        <time>1999-07-21T15:12:54Z</time>
      </trkpt>
      <trkpt lat="43.296262" lon="-5.818784">
        <ele>189.844</ele>
        <time>1999-07-21T15:13:36Z</time>
      </trkpt>
      <trkpt lat="43.296262" lon="-5.818761">
        <ele>189.830</ele>
        <time>1999-07-21T15:13:37Z</time>
      </trkpt>
      <trkpt lat="43.296255" lon="-5.818732">
        <ele>189.881</ele>
        <time>1999-07-21T15:13:38Z</time>
      </trkpt>
      <trkpt lat="43.296241" lon="-5.818658">
        <ele>189.861</ele>
        <time>1999-07-21T15:13:40Z</time>
      </trkpt>
      <trkpt lat="43.296220" lon="-5.818520">
        <ele>189.817</ele>
        <time>1999-07-21T15:13:43Z</time>
      </trkpt>
      <trkpt lat="43.296215" lon="-5.818471">
        <ele>189.808</ele>
        <time>1999-07-21T15:13:44Z</time>
      </trkpt>
      <trkpt lat="43.296201" lon="-5.818272">
        <ele>189.871</ele>
        <time>1999-07-21T15:13:48Z</time>
      </trkpt>
      <trkpt lat="43.296193" lon="-5.818142">
        <ele>189.826</ele>
        <time>1999-07-21T15:13:51Z</time>
      </trkpt>
      <trkpt lat="43.296180" lon="-5.818069">
        <ele>190.026</ele>
        <time>1999-07-21T15:13:55Z</time>
      </trkpt>
      <trkpt lat="43.296177" lon="-5.818068">
        <ele>190.017</ele>
        <time>1999-07-21T15:13:56Z</time>
      </trkpt>
      <trkpt lat="43.296170" lon="-5.817968">
        <ele>190.015</ele>
        <time>1999-07-21T15:14:15Z</time>
      </trkpt>
      <trkpt lat="43.296168" lon="-5.817948">
        <ele>190.033</ele>
        <time>1999-07-21T15:14:17Z</time>
      </trkpt>
      <trkpt lat="43.296168" lon="-5.817944">
        <ele>190.054</ele>
        <time>1999-07-21T15:14:18Z</time>
      </trkpt>
      <trkpt lat="43.296191" lon="-5.817838">
        <ele>189.460</ele>
        <time>1999-07-21T15:14:27Z</time>
      </trkpt>
      <trkpt lat="43.296189" lon="-5.817819">
        <ele>189.476</ele>
        <time>1999-07-21T15:14:28Z</time>
      </trkpt>
      <trkpt lat="43.296183" lon="-5.817780">
        <ele>189.490</ele>
        <time>1999-07-21T15:14:30Z</time>
      </trkpt>
      <trkpt lat="43.296170" lon="-5.817646">
        <ele>189.219</ele>
        <time>1999-07-21T15:14:38Z</time>
      </trkpt>
      <trkpt lat="43.296179" lon="-5.817508">
        <ele>189.008</ele>
        <time>1999-07-21T15:14:46Z</time>
      </trkpt>
      <trkpt lat="43.296188" lon="-5.817462">
        <ele>189.020</ele>
        <time>1999-07-21T15:14:51Z</time>
      </trkpt>
      <trkpt lat="43.296301" lon="-5.817536">
        <ele>187.285</ele>
        <time>1999-07-21T15:16:00Z</time>
      </trkpt>
      <trkpt lat="43.296316" lon="-5.817558">
        <ele>187.285</ele>
        <time>1999-07-21T15:16:01Z</time>
      </trkpt>
      <trkpt lat="43.296370" lon="-5.817584">
        <ele>187.416</ele>
        <time>1999-07-21T15:16:03Z</time>
      </trkpt>
      <trkpt lat="43.296406" lon="-5.817585">
        <ele>187.434</ele>
        <time>1999-07-21T15:16:04Z</time>
      </trkpt>
      <trkpt lat="43.296443" lon="-5.817582">
        <ele>187.462</ele>
        <time>1999-07-21T15:16:05Z</time>
      </trkpt>
      <trkpt lat="43.296485" lon="-5.817577">
        <ele>187.423</ele>
        <time>1999-07-21T15:16:06Z</time>
      </trkpt>
      <trkpt lat="43.296569" lon="-5.817568">
        <ele>187.489</ele>
        <time>1999-07-21T15:16:08Z</time>
      </trkpt>
      <trkpt lat="43.296631" lon="-5.817598">
        <ele>187.824</ele>
        <time>1999-07-21T15:16:10Z</time>
      </trkpt>
      <trkpt lat="43.296650" lon="-5.817767">
        <ele>187.804</ele>
        <time>1999-07-21T15:16:13Z</time>
      </trkpt>
      <trkpt lat="43.296653" lon="-5.817844">
        <ele>187.814</ele>
        <time>1999-07-21T15:16:14Z</time>
      </trkpt>
      <trkpt lat="43.296668" lon="-5.818121">
        <ele>187.808</ele>
        <time>1999-07-21T15:16:17Z</time>
      </trkpt>
      <trkpt lat="43.296698" lon="-5.818500">
        <ele>187.845</ele>
        <time>1999-07-21T15:16:21Z</time>
      </trkpt>
      <trkpt lat="43.296703" lon="-5.818570">
        <ele>187.420</ele>
        <time>1999-07-21T15:16:22Z</time>
      </trkpt>
      <trkpt lat="43.296729" lon="-5.818659">
        <ele>186.690</ele>
        <time>1999-07-21T15:16:24Z</time>
      </trkpt>
      <trkpt lat="43.296750" lon="-5.818676">
        <ele>186.421</ele>
        <time>1999-07-21T15:16:25Z</time>
      </trkpt>
      <trkpt lat="43.296824" lon="-5.818662">
        <ele>185.439</ele>
        <time>1999-07-21T15:16:27Z</time>
      </trkpt>
      <trkpt lat="43.296871" lon="-5.818647">
        <ele>184.647</ele>
        <time>1999-07-21T15:16:28Z</time>
      </trkpt>
      <trkpt lat="43.296915" lon="-5.818628">
        <ele>184.088</ele>
        <time>1999-07-21T15:16:29Z</time>
      </trkpt>
      <trkpt lat="43.296979" lon="-5.818598">
        <ele>182.244</ele>
        <time>1999-07-21T15:16:31Z</time>
      </trkpt>
      <trkpt lat="43.297004" lon="-5.818593">
        <ele>181.665</ele>
        <time>1999-07-21T15:16:32Z</time>
      </trkpt>
      <trkpt lat="43.297027" lon="-5.818604">
        <ele>181.268</ele>
        <time>1999-07-21T15:16:33Z</time>
      </trkpt>
      <trkpt lat="43.297058" lon="-5.818675">
        <ele>180.414</ele>
        <time>1999-07-21T15:16:35Z</time>
      </trkpt>
      <trkpt lat="43.297080" lon="-5.818723">
        <ele>179.808</ele>
        <time>1999-07-21T15:16:36Z</time>
      </trkpt>
      <trkpt lat="43.297123" lon="-5.818834">
        <ele>179.659</ele>
        <time>1999-07-21T15:16:38Z</time>
      </trkpt>
      <trkpt lat="43.297200" lon="-5.819021">
        <ele>179.074</ele>
        <time>1999-07-21T15:16:41Z</time>
      </trkpt>
      <trkpt lat="43.297318" lon="-5.819426">
        <ele>179.094</ele>
        <time>1999-07-21T15:16:46Z</time>
      </trkpt>
      <trkpt lat="43.297395" lon="-5.819691">
        <ele>178.645</ele>
        <time>1999-07-21T15:16:49Z</time>
      </trkpt>
      <trkpt lat="43.297494" lon="-5.820076">
        <ele>177.853</ele>
        <time>1999-07-21T15:16:53Z</time>
      </trkpt>
      <trkpt lat="43.297521" lon="-5.820174">
        <ele>177.641</ele>
        <time>1999-07-21T15:16:54Z</time>
      </trkpt>
      <trkpt lat="43.297647" lon="-5.820687">
        <ele>176.892</ele>
        <time>1999-07-21T15:16:59Z</time>
      </trkpt>
      <trkpt lat="43.297699" lon="-5.820895">
        <ele>176.498</ele>
        <time>1999-07-21T15:17:01Z</time>
      </trkpt>
      <trkpt lat="43.297880" lon="-5.821505">
        <ele>175.278</ele>
        <time>1999-07-21T15:17:07Z</time>
      </trkpt>
      <trkpt lat="43.297943" lon="-5.821718">
        <ele>174.233</ele>
        <time>1999-07-21T15:17:09Z</time>
      </trkpt>
      <trkpt lat="43.297977" lon="-5.821827">
        <ele>173.626</ele>
        <time>1999-07-21T15:17:10Z</time>
      </trkpt>
      <trkpt lat="43.298011" lon="-5.821938">
        <ele>173.208</ele>
        <time>1999-07-21T15:17:11Z</time>
      </trkpt>
      <trkpt lat="43.298151" lon="-5.822389">
        <ele>171.870</ele>
        <time>1999-07-21T15:17:15Z</time>
      </trkpt>
      <trkpt lat="43.298215" lon="-5.822619">
        <ele>170.855</ele>
        <time>1999-07-21T15:17:17Z</time>
      </trkpt>
      <trkpt lat="43.298248" lon="-5.822736">
        <ele>170.675</ele>
        <time>1999-07-21T15:17:18Z</time>
      </trkpt>
      <trkpt lat="43.298350" lon="-5.823080">
        <ele>169.466</ele>
        <time>1999-07-21T15:17:21Z</time>
      </trkpt>
      <trkpt lat="43.298461" lon="-5.823412">
        <ele>168.844</ele>
        <time>1999-07-21T15:17:24Z</time>
      </trkpt>
      <trkpt lat="43.298522" lon="-5.823631">
        <ele>168.242</ele>
        <time>1999-07-21T15:17:26Z</time>
      </trkpt>
      <trkpt lat="43.298619" lon="-5.823956">
        <ele>167.283</ele>
        <time>1999-07-21T15:17:29Z</time>
      </trkpt>
      <trkpt lat="43.298651" lon="-5.824060">
        <ele>167.019</ele>
        <time>1999-07-21T15:17:30Z</time>
      </trkpt>
      <trkpt lat="43.298738" lon="-5.824359">
        <ele>166.497</ele>
        <time>1999-07-21T15:17:33Z</time>
      </trkpt>
      <trkpt lat="43.298765" lon="-5.824459">
        <ele>166.223</ele>
        <time>1999-07-21T15:17:34Z</time>
      </trkpt>
      <trkpt lat="43.298836" lon="-5.824763">
        <ele>165.825</ele>
        <time>1999-07-21T15:17:37Z</time>
      </trkpt>
      <trkpt lat="43.298914" lon="-5.825066">
        <ele>165.008</ele>
        <time>1999-07-21T15:17:40Z</time>
      </trkpt>
      <trkpt lat="43.299025" lon="-5.825467">
        <ele>164.032</ele>
        <time>1999-07-21T15:17:44Z</time>
      </trkpt>
      <trkpt lat="43.299114" lon="-5.825766">
        <ele>163.247</ele>
        <time>1999-07-21T15:17:47Z</time>
      </trkpt>
      <trkpt lat="43.299170" lon="-5.825964">
        <ele>162.897</ele>
        <time>1999-07-21T15:17:49Z</time>
      </trkpt>
      <trkpt lat="43.299407" lon="-5.826715">
        <ele>162.048</ele>
        <time>1999-07-21T15:17:57Z</time>
      </trkpt>
      <trkpt lat="43.299454" lon="-5.826789">
        <ele>161.896</ele>
        <time>1999-07-21T15:17:58Z</time>
      </trkpt>
      <trkpt lat="43.299551" lon="-5.826910">
        <ele>161.634</ele>
        <time>1999-07-21T15:18:00Z</time>
      </trkpt>
      <trkpt lat="43.299654" lon="-5.826995">
        <ele>161.015</ele>
        <time>1999-07-21T15:18:02Z</time>
      </trkpt>
      <trkpt lat="43.299752" lon="-5.827065">
        <ele>160.811</ele>
        <time>1999-07-21T15:18:04Z</time>
      </trkpt>
      <trkpt lat="43.299940" lon="-5.827218">
        <ele>160.825</ele>
        <time>1999-07-21T15:18:08Z</time>
      </trkpt>
      <trkpt lat="43.300075" lon="-5.827329">
        <ele>160.826</ele>
        <time>1999-07-21T15:18:11Z</time>
      </trkpt>
      <trkpt lat="43.300259" lon="-5.827450">
        <ele>160.808</ele>
        <time>1999-07-21T15:18:15Z</time>
      </trkpt>
      <trkpt lat="43.300365" lon="-5.827503">
        <ele>161.008</ele>
        <time>1999-07-21T15:18:17Z</time>
      </trkpt>
      <trkpt lat="43.300421" lon="-5.827520">
        <ele>161.285</ele>
        <time>1999-07-21T15:18:18Z</time>
      </trkpt>
      <trkpt lat="43.300597" lon="-5.827538">
        <ele>161.470</ele>
        <time>1999-07-21T15:18:21Z</time>
      </trkpt>
      <trkpt lat="43.300704" lon="-5.827551">
        <ele>161.850</ele>
        <time>1999-07-21T15:18:23Z</time>
      </trkpt>
      <trkpt lat="43.300751" lon="-5.827565">
        <ele>161.811</ele>
        <time>1999-07-21T15:18:24Z</time>
      </trkpt>
      <trkpt lat="43.300790" lon="-5.827583">
        <ele>162.099</ele>
        <time>1999-07-21T15:18:25Z</time>
      </trkpt>
      <trkpt lat="43.300903" lon="-5.827612">
        <ele>162.477</ele>
        <time>1999-07-21T15:18:28Z</time>
      </trkpt>
      <trkpt lat="43.300984" lon="-5.827607">
        <ele>162.828</ele>
        <time>1999-07-21T15:18:30Z</time>
      </trkpt>
      <trkpt lat="43.301063" lon="-5.827601">
        <ele>163.014</ele>
        <time>1999-07-21T15:18:32Z</time>
      </trkpt>
      <trkpt lat="43.301219" lon="-5.827603">
        <ele>163.473</ele>
        <time>1999-07-21T15:18:36Z</time>
      </trkpt>
      <trkpt lat="43.301339" lon="-5.827613">
        <ele>164.285</ele>
        <time>1999-07-21T15:18:39Z</time>
      </trkpt>
      <trkpt lat="43.301502" lon="-5.827643">
        <ele>165.213</ele>
        <time>1999-07-21T15:18:43Z</time>
      </trkpt>
      <trkpt lat="43.301543" lon="-5.827650">
        <ele>165.408</ele>
        <time>1999-07-21T15:18:44Z</time>
      </trkpt>
      <trkpt lat="43.301702" lon="-5.827682">
        <ele>166.470</ele>
        <time>1999-07-21T15:18:48Z</time>
      </trkpt>
      <trkpt lat="43.301826" lon="-5.827706">
        <ele>166.855</ele>
        <time>1999-07-21T15:18:51Z</time>
      </trkpt>
      <trkpt lat="43.301905" lon="-5.827735">
        <ele>167.475</ele>
        <time>1999-07-21T15:18:53Z</time>
      </trkpt>
      <trkpt lat="43.302095" lon="-5.827792">
        <ele>168.456</ele>
        <time>1999-07-21T15:18:58Z</time>
      </trkpt>
      <trkpt lat="43.302133" lon="-5.827809">
        <ele>168.654</ele>
        <time>1999-07-21T15:18:59Z</time>
      </trkpt>
      <trkpt lat="43.302322" lon="-5.827906">
        <ele>169.242</ele>
        <time>1999-07-21T15:19:04Z</time>
      </trkpt>
      <trkpt lat="43.302562" lon="-5.828085">
        <ele>169.653</ele>
        <time>1999-07-21T15:19:10Z</time>
      </trkpt>
      <trkpt lat="43.302647" lon="-5.828151">
        <ele>169.639</ele>
        <time>1999-07-21T15:19:12Z</time>
      </trkpt>
      <trkpt lat="43.302834" lon="-5.828295">
        <ele>169.878</ele>
        <time>1999-07-21T15:19:16Z</time>
      </trkpt>
      <trkpt lat="43.302975" lon="-5.828425">
        <ele>169.833</ele>
        <time>1999-07-21T15:19:19Z</time>
      </trkpt>
      <trkpt lat="43.303072" lon="-5.828519">
        <ele>169.826</ele>
        <time>1999-07-21T15:19:21Z</time>
      </trkpt>
      <trkpt lat="43.303261" lon="-5.828727">
        <ele>170.008</ele>
        <time>1999-07-21T15:19:25Z</time>
      </trkpt>
      <trkpt lat="43.303411" lon="-5.828881">
        <ele>169.840</ele>
        <time>1999-07-21T15:19:28Z</time>
      </trkpt>
      <trkpt lat="43.303459" lon="-5.828933">
        <ele>169.855</ele>
        <time>1999-07-21T15:19:29Z</time>
      </trkpt>
      <trkpt lat="43.303821" lon="-5.829318">
        <ele>169.695</ele>
        <time>1999-07-21T15:19:36Z</time>
      </trkpt>
      <trkpt lat="43.303985" lon="-5.829510">
        <ele>169.426</ele>
        <time>1999-07-21T15:19:39Z</time>
      </trkpt>
      <trkpt lat="43.304106" lon="-5.829639">
        <ele>169.274</ele>
        <time>1999-07-21T15:19:41Z</time>
      </trkpt>
      <trkpt lat="43.304170" lon="-5.829705">
        <ele>169.272</ele>
        <time>1999-07-21T15:19:42Z</time>
      </trkpt>
      <trkpt lat="43.304371" lon="-5.829923">
        <ele>168.823</ele>
        <time>1999-07-21T15:19:45Z</time>
      </trkpt>
      <trkpt lat="43.304510" lon="-5.830071">
        <ele>168.289</ele>
        <time>1999-07-21T15:19:47Z</time>
      </trkpt>
      <trkpt lat="43.304652" lon="-5.830221">
        <ele>167.218</ele>
        <time>1999-07-21T15:19:49Z</time>
      </trkpt>
      <trkpt lat="43.304722" lon="-5.830292">
        <ele>166.498</ele>
        <time>1999-07-21T15:19:50Z</time>
      </trkpt>
      <trkpt lat="43.304929" lon="-5.830491">
        <ele>165.217</ele>
        <time>1999-07-21T15:19:53Z</time>
      </trkpt>
      <trkpt lat="43.304998" lon="-5.830565">
        <ele>165.008</ele>
        <time>1999-07-21T15:19:54Z</time>
      </trkpt>
      <trkpt lat="43.305121" lon="-5.830732">
        <ele>164.464</ele>
        <time>1999-07-21T15:19:56Z</time>
      </trkpt>
      <trkpt lat="43.305175" lon="-5.830821">
        <ele>164.029</ele>
        <time>1999-07-21T15:19:57Z</time>
      </trkpt>
      <trkpt lat="43.305217" lon="-5.830915">
        <ele>163.639</ele>
        <time>1999-07-21T15:19:58Z</time>
      </trkpt>
      <trkpt lat="43.305252" lon="-5.831012">
        <ele>163.240</ele>
        <time>1999-07-21T15:19:59Z</time>
      </trkpt>
      <trkpt lat="43.305276" lon="-5.831111">
        <ele>162.688</ele>
        <time>1999-07-21T15:20:00Z</time>
      </trkpt>
      <trkpt lat="43.305314" lon="-5.831415">
        <ele>161.886</ele>
        <time>1999-07-21T15:20:03Z</time>
      </trkpt>
      <trkpt lat="43.305317" lon="-5.831510">
        <ele>161.657</ele>
        <time>1999-07-21T15:20:04Z</time>
      </trkpt>
      <trkpt lat="43.305318" lon="-5.831877">
        <ele>161.273</ele>
        <time>1999-07-21T15:20:08Z</time>
      </trkpt>
      <trkpt lat="43.305317" lon="-5.832227">
        <ele>161.278</ele>
        <time>1999-07-21T15:20:12Z</time>
      </trkpt>
      <trkpt lat="43.305320" lon="-5.832480">
        <ele>161.233</ele>
        <time>1999-07-21T15:20:15Z</time>
      </trkpt>
      <trkpt lat="43.305318" lon="-5.832904">
        <ele>161.626</ele>
        <time>1999-07-21T15:20:20Z</time>
      </trkpt>
      <trkpt lat="43.305318" lon="-5.833141">
        <ele>162.208</ele>
        <time>1999-07-21T15:20:23Z</time>
      </trkpt>
      <trkpt lat="43.305312" lon="-5.833368">
        <ele>162.880</ele>
        <time>1999-07-21T15:20:26Z</time>
      </trkpt>
      <trkpt lat="43.305299" lon="-5.833815">
        <ele>163.675</ele>
        <time>1999-07-21T15:20:32Z</time>
      </trkpt>
      <trkpt lat="43.305299" lon="-5.833887">
        <ele>164.025</ele>
        <time>1999-07-21T15:20:33Z</time>
      </trkpt>
      <trkpt lat="43.305302" lon="-5.834299">
        <ele>164.846</ele>
        <time>1999-07-21T15:20:39Z</time>
      </trkpt>
      <trkpt lat="43.305312" lon="-5.834357">
        <ele>165.054</ele>
        <time>1999-07-21T15:20:40Z</time>
      </trkpt>
      <trkpt lat="43.305314" lon="-5.834480">
        <ele>165.422</ele>
        <time>1999-07-21T15:20:43Z</time>
      </trkpt>
      <trkpt lat="43.305237" lon="-5.834603">
        <ele>166.093</ele>
        <time>1999-07-21T15:20:47Z</time>
      </trkpt>
      <trkpt lat="43.305226" lon="-5.834628">
        <ele>166.249</ele>
        <time>1999-07-21T15:20:48Z</time>
      </trkpt>
      <trkpt lat="43.305219" lon="-5.834675">
        <ele>167.086</ele>
        <time>1999-07-21T15:20:53Z</time>
      </trkpt>
      <trkpt lat="43.305347" lon="-5.834644">
        <ele>168.260</ele>
        <time>1999-07-21T15:21:06Z</time>
      </trkpt>
      <trkpt lat="43.305381" lon="-5.834638">
        <ele>168.226</ele>
        <time>1999-07-21T15:21:09Z</time>
      </trkpt>
      <trkpt lat="43.305428" lon="-5.834644">
        <ele>169.408</ele>
        <time>1999-07-21T15:21:14Z</time>
      </trkpt>
      <trkpt lat="43.305445" lon="-5.834644">
        <ele>169.811</ele>
        <time>1999-07-21T15:21:17Z</time>
      </trkpt>
      <trkpt lat="43.305462" lon="-5.834646">
        <ele>170.466</ele>
        <time>1999-07-21T15:21:20Z</time>
      </trkpt>
      <trkpt lat="43.305481" lon="-5.834650">
        <ele>171.486</ele>
        <time>1999-07-21T15:21:24Z</time>
      </trkpt>
      <trkpt lat="43.305490" lon="-5.834654">
        <ele>171.817</ele>
        <time>1999-07-21T15:21:26Z</time>
      </trkpt>
      <trkpt lat="43.305503" lon="-5.834663">
        <ele>172.635</ele>
        <time>1999-07-21T15:21:28Z</time>
      </trkpt>
      <trkpt lat="43.305550" lon="-5.834677">
        <ele>173.683</ele>
        <time>1999-07-21T15:21:34Z</time>
      </trkpt>
      <trkpt lat="43.305566" lon="-5.834684">
        <ele>174.094</ele>
        <time>1999-07-21T15:21:36Z</time>
      </trkpt>
      <trkpt lat="43.305595" lon="-5.834706">
        <ele>174.690</ele>
        <time>1999-07-21T15:21:40Z</time>
      </trkpt>
      <trkpt lat="43.305637" lon="-5.834741">
        <ele>175.889</ele>
        <time>1999-07-21T15:21:46Z</time>
      </trkpt>
      <trkpt lat="43.305656" lon="-5.834763">
        <ele>176.806</ele>
        <time>1999-07-21T15:21:50Z</time>
      </trkpt>
      <trkpt lat="43.305656" lon="-5.834766">
        <ele>177.226</ele>
        <time>1999-07-21T15:21:52Z</time>
      </trkpt>
      <trkpt lat="43.306128" lon="-5.834620">
        <ele>193.408</ele>
        <time>1999-07-21T15:23:40Z</time>
      </trkpt>
      <trkpt lat="43.306139" lon="-5.834610">
        <ele>193.641</ele>
        <time>1999-07-21T15:23:41Z</time>
      </trkpt>
      <trkpt lat="43.306159" lon="-5.834593">
        <ele>193.856</ele>
        <time>1999-07-21T15:23:43Z</time>
      </trkpt>
      <trkpt lat="43.306208" lon="-5.834545">
        <ele>194.416</ele>
        <time>1999-07-21T15:23:48Z</time>
      </trkpt>
      <trkpt lat="43.306231" lon="-5.834517">
        <ele>195.067</ele>
        <time>1999-07-21T15:23:51Z</time>
      </trkpt>
      <trkpt lat="43.306270" lon="-5.834468">
        <ele>195.675</ele>
        <time>1999-07-21T15:23:57Z</time>
      </trkpt>
      <trkpt lat="43.306356" lon="-5.834429">
        <ele>196.013</ele>
        <time>1999-07-21T15:24:08Z</time>
      </trkpt>
      <trkpt lat="43.306501" lon="-5.834380">
        <ele>196.294</ele>
        <time>1999-07-21T15:24:15Z</time>
      </trkpt>
      <trkpt lat="43.306599" lon="-5.834352">
        <ele>196.620</ele>
        <time>1999-07-21T15:24:22Z</time>
      </trkpt>
      <trkpt lat="43.306644" lon="-5.834351">
        <ele>197.255</ele>
        <time>1999-07-21T15:24:26Z</time>
      </trkpt>
      <trkpt lat="43.306680" lon="-5.834356">
        <ele>197.807</ele>
        <time>1999-07-21T15:24:29Z</time>
      </trkpt>
      <trkpt lat="43.306722" lon="-5.834356">
        <ele>198.617</ele>
        <time>1999-07-21T15:24:32Z</time>
      </trkpt>
      <trkpt lat="43.306736" lon="-5.834358">
        <ele>198.608</ele>
        <time>1999-07-21T15:24:33Z</time>
      </trkpt>
      <trkpt lat="43.306783" lon="-5.834358">
        <ele>199.648</ele>
        <time>1999-07-21T15:24:36Z</time>
      </trkpt>
      <trkpt lat="43.306794" lon="-5.834361">
        <ele>199.873</ele>
        <time>1999-07-21T15:24:37Z</time>
      </trkpt>
      <trkpt lat="43.306833" lon="-5.834349">
        <ele>200.843</ele>
        <time>1999-07-21T15:24:41Z</time>
      </trkpt>
      <trkpt lat="43.307230" lon="-5.834289">
        <ele>209.284</ele>
        <time>1999-07-21T15:27:32Z</time>
      </trkpt>
      <trkpt lat="43.307248" lon="-5.834280">
        <ele>209.212</ele>
        <time>1999-07-21T15:27:33Z</time>
      </trkpt>
      <trkpt lat="43.307359" lon="-5.834174">
        <ele>209.640</ele>
        <time>1999-07-21T15:27:39Z</time>
      </trkpt>
      <trkpt lat="43.307473" lon="-5.834135">
        <ele>210.281</ele>
        <time>1999-07-21T15:27:45Z</time>
      </trkpt>
      <trkpt lat="43.307492" lon="-5.834132">
        <ele>210.487</ele>
        <time>1999-07-21T15:27:46Z</time>
      </trkpt>
      <trkpt lat="43.307539" lon="-5.834109">
        <ele>211.474</ele>
        <time>1999-07-21T15:27:49Z</time>
      </trkpt>
      <trkpt lat="43.307550" lon="-5.834095">
        <ele>211.656</ele>
        <time>1999-07-21T15:27:50Z</time>
      </trkpt>
      <trkpt lat="43.307578" lon="-5.834076">
        <ele>212.021</ele>
        <time>1999-07-21T15:27:52Z</time>
      </trkpt>
      <trkpt lat="43.307624" lon="-5.834041">
        <ele>212.808</ele>
        <time>1999-07-21T15:27:55Z</time>
      </trkpt>
      <trkpt lat="43.307656" lon="-5.834014">
        <ele>213.240</ele>
        <time>1999-07-21T15:27:57Z</time>
      </trkpt>
      <trkpt lat="43.307697" lon="-5.833970">
        <ele>214.015</ele>
        <time>1999-07-21T15:28:00Z</time>
      </trkpt>
      <trkpt lat="43.307715" lon="-5.833964">
        <ele>214.065</ele>
        <time>1999-07-21T15:28:01Z</time>
      </trkpt>
      <trkpt lat="43.307765" lon="-5.833953">
        <ele>214.496</ele>
        <time>1999-07-21T15:28:04Z</time>
      </trkpt>
      <trkpt lat="43.307816" lon="-5.833939">
        <ele>215.064</ele>
        <time>1999-07-21T15:28:07Z</time>
      </trkpt>
      <trkpt lat="43.307848" lon="-5.833925">
        <ele>215.692</ele>
        <time>1999-07-21T15:28:09Z</time>
      </trkpt>
      <trkpt lat="43.307874" lon="-5.833913">
        <ele>216.223</ele>
        <time>1999-07-21T15:28:11Z</time>
      </trkpt>
      <trkpt lat="43.307936" lon="-5.833890">
        <ele>217.449</ele>
        <time>1999-07-21T15:28:15Z</time>
      </trkpt>
      <trkpt lat="43.307975" lon="-5.833875">
        <ele>219.094</ele>
        <time>1999-07-21T15:28:18Z</time>
      </trkpt>
      <trkpt lat="43.308032" lon="-5.833847">
        <ele>220.057</ele>
        <time>1999-07-21T15:28:22Z</time>
      </trkpt>
      <trkpt lat="43.308076" lon="-5.833825">
        <ele>221.022</ele>
        <time>1999-07-21T15:28:25Z</time>
      </trkpt>
      <trkpt lat="43.308157" lon="-5.833789">
        <ele>222.208</ele>
        <time>1999-07-21T15:28:30Z</time>
      </trkpt>
      <trkpt lat="43.308265" lon="-5.833718">
        <ele>223.232</ele>
        <time>1999-07-21T15:28:37Z</time>
      </trkpt>
      <trkpt lat="43.308282" lon="-5.833713">
        <ele>223.437</ele>
        <time>1999-07-21T15:28:38Z</time>
      </trkpt>
      <trkpt lat="43.308350" lon="-5.833631">
        <ele>224.247</ele>
        <time>1999-07-21T15:28:43Z</time>
      </trkpt>
      <trkpt lat="43.308363" lon="-5.833613">
        <ele>224.448</ele>
        <time>1999-07-21T15:28:44Z</time>
      </trkpt>
      <trkpt lat="43.308403" lon="-5.833576">
        <ele>225.266</ele>
        <time>1999-07-21T15:28:47Z</time>
      </trkpt>
      <trkpt lat="43.308437" lon="-5.833558">
        <ele>225.824</ele>
        <time>1999-07-21T15:28:50Z</time>
      </trkpt>
      <trkpt lat="43.308463" lon="-5.833547">
        <ele>226.235</ele>
        <time>1999-07-21T15:28:52Z</time>
      </trkpt>
      <trkpt lat="43.308534" lon="-5.833539">
        <ele>227.451</ele>
        <time>1999-07-21T15:28:56Z</time>
      </trkpt>
      <trkpt lat="43.308550" lon="-5.833536">
        <ele>227.623</ele>
        <time>1999-07-21T15:28:57Z</time>
      </trkpt>
      <trkpt lat="43.308579" lon="-5.833521">
        <ele>227.883</ele>
        <time>1999-07-21T15:28:59Z</time>
      </trkpt>
      <trkpt lat="43.308623" lon="-5.833485">
        <ele>228.611</ele>
        <time>1999-07-21T15:29:02Z</time>
      </trkpt>
      <trkpt lat="43.308641" lon="-5.833472">
        <ele>228.808</ele>
        <time>1999-07-21T15:29:03Z</time>
      </trkpt>
      <trkpt lat="43.308716" lon="-5.833449">
        <ele>230.095</ele>
        <time>1999-07-21T15:29:07Z</time>
      </trkpt>
      <trkpt lat="43.308796" lon="-5.833430">
        <ele>231.080</ele>
        <time>1999-07-21T15:29:11Z</time>
      </trkpt>
      <trkpt lat="43.308815" lon="-5.833425">
        <ele>231.230</ele>
        <time>1999-07-21T15:29:12Z</time>
      </trkpt>
      <trkpt lat="43.308899" lon="-5.833399">
        <ele>232.221</ele>
        <time>1999-07-21T15:29:16Z</time>
      </trkpt>
      <trkpt lat="43.308921" lon="-5.833387">
        <ele>232.279</ele>
        <time>1999-07-21T15:29:17Z</time>
      </trkpt>
      <trkpt lat="43.309044" lon="-5.833314">
        <ele>232.437</ele>
        <time>1999-07-21T15:29:23Z</time>
      </trkpt>
      <trkpt lat="43.309064" lon="-5.833294">
        <ele>232.858</ele>
        <time>1999-07-21T15:29:26Z</time>
      </trkpt>
      <trkpt lat="43.309065" lon="-5.833295">
        <ele>233.094</ele>
        <time>1999-07-21T15:29:27Z</time>
      </trkpt>
      <trkpt lat="43.309193" lon="-5.833243">
        <ele>234.058</ele>
        <time>1999-07-21T15:29:47Z</time>
      </trkpt>
      <trkpt lat="43.309209" lon="-5.833235">
        <ele>234.052</ele>
        <time>1999-07-21T15:29:48Z</time>
      </trkpt>
      <trkpt lat="43.309267" lon="-5.833202">
        <ele>234.617</ele>
        <time>1999-07-21T15:29:52Z</time>
      </trkpt>
      <trkpt lat="43.309306" lon="-5.833178">
        <ele>235.008</ele>
        <time>1999-07-21T15:29:55Z</time>
      </trkpt>
      <trkpt lat="43.309343" lon="-5.833157">
        <ele>236.048</ele>
        <time>1999-07-21T15:29:58Z</time>
      </trkpt>
      <trkpt lat="43.309407" lon="-5.833136">
        <ele>237.033</ele>
        <time>1999-07-21T15:30:02Z</time>
      </trkpt>
      <trkpt lat="43.309478" lon="-5.833112">
        <ele>238.233</ele>
        <time>1999-07-21T15:30:07Z</time>
      </trkpt>
      <trkpt lat="43.309515" lon="-5.833100">
        <ele>238.644</ele>
        <time>1999-07-21T15:30:10Z</time>
      </trkpt>
      <trkpt lat="43.309534" lon="-5.833090">
        <ele>239.232</ele>
        <time>1999-07-21T15:30:12Z</time>
      </trkpt>
      <trkpt lat="43.309576" lon="-5.833068">
        <ele>240.060</ele>
        <time>1999-07-21T15:30:16Z</time>
      </trkpt>
      <trkpt lat="43.309604" lon="-5.833056">
        <ele>240.451</ele>
        <time>1999-07-21T15:30:18Z</time>
      </trkpt>
      <trkpt lat="43.309612" lon="-5.833055">
        <ele>240.847</ele>
        <time>1999-07-21T15:30:19Z</time>
      </trkpt>
      <trkpt lat="43.309628" lon="-5.833061">
        <ele>241.649</ele>
        <time>1999-07-21T15:30:22Z</time>
      </trkpt>
      <trkpt lat="43.309631" lon="-5.833064">
        <ele>242.002</ele>
        <time>1999-07-21T15:30:23Z</time>
      </trkpt>
      <trkpt lat="43.311194" lon="-5.832958">
        <ele>276.422</ele>
        <time>1999-07-21T15:34:47Z</time>
      </trkpt>
      <trkpt lat="43.311206" lon="-5.832978">
        <ele>276.408</ele>
        <time>1999-07-21T15:34:48Z</time>
      </trkpt>
      <trkpt lat="43.311245" lon="-5.833067">
        <ele>276.427</ele>
        <time>1999-07-21T15:34:52Z</time>
      </trkpt>
      <trkpt lat="43.311260" lon="-5.833105">
        <ele>276.662</ele>
        <time>1999-07-21T15:34:54Z</time>
      </trkpt>
      <trkpt lat="43.311270" lon="-5.833122">
        <ele>276.622</ele>
        <time>1999-07-21T15:34:55Z</time>
      </trkpt>
      <trkpt lat="43.311307" lon="-5.833156">
        <ele>277.463</ele>
        <time>1999-07-21T15:34:58Z</time>
      </trkpt>
      <trkpt lat="43.311347" lon="-5.833185">
        <ele>278.061</ele>
        <time>1999-07-21T15:35:01Z</time>
      </trkpt>
      <trkpt lat="43.311356" lon="-5.833205">
        <ele>278.229</ele>
        <time>1999-07-21T15:35:02Z</time>
      </trkpt>
      <trkpt lat="43.311366" lon="-5.833228">
        <ele>278.470</ele>
        <time>1999-07-21T15:35:03Z</time>
      </trkpt>
      <trkpt lat="43.311425" lon="-5.833314">
        <ele>279.436</ele>
        <time>1999-07-21T15:35:08Z</time>
      </trkpt>
      <trkpt lat="43.311441" lon="-5.833328">
        <ele>279.688</ele>
        <time>1999-07-21T15:35:09Z</time>
      </trkpt>
      <trkpt lat="43.311487" lon="-5.833380">
        <ele>280.224</ele>
        <time>1999-07-21T15:35:12Z</time>
      </trkpt>
      <trkpt lat="43.311516" lon="-5.833410">
        <ele>280.426</ele>
        <time>1999-07-21T15:35:14Z</time>
      </trkpt>
      <trkpt lat="43.311538" lon="-5.833441">
        <ele>280.808</ele>
        <time>1999-07-21T15:35:16Z</time>
      </trkpt>
      <trkpt lat="43.311573" lon="-5.833516">
        <ele>281.421</ele>
        <time>1999-07-21T15:35:20Z</time>
      </trkpt>
      <trkpt lat="43.311605" lon="-5.833560">
        <ele>282.266</ele>
        <time>1999-07-21T15:35:23Z</time>
      </trkpt>
      <trkpt lat="43.311636" lon="-5.833588">
        <ele>282.686</ele>
        <time>1999-07-21T15:35:25Z</time>
      </trkpt>
      <trkpt lat="43.311680" lon="-5.833649">
        <ele>283.487</ele>
        <time>1999-07-21T15:35:29Z</time>
      </trkpt>
      <trkpt lat="43.311694" lon="-5.833663">
        <ele>283.895</ele>
        <time>1999-07-21T15:35:30Z</time>
      </trkpt>
      <trkpt lat="43.311718" lon="-5.833689">
        <ele>284.053</ele>
        <time>1999-07-21T15:35:32Z</time>
      </trkpt>
      <trkpt lat="43.311755" lon="-5.833761">
        <ele>284.824</ele>
        <time>1999-07-21T15:35:36Z</time>
      </trkpt>
      <trkpt lat="43.311792" lon="-5.833817">
        <ele>285.410</ele>
        <time>1999-07-21T15:35:39Z</time>
      </trkpt>
      <trkpt lat="43.311813" lon="-5.833851">
        <ele>286.061</ele>
        <time>1999-07-21T15:35:41Z</time>
      </trkpt>
      <trkpt lat="43.311851" lon="-5.833942">
        <ele>287.021</ele>
        <time>1999-07-21T15:35:45Z</time>
      </trkpt>
      <trkpt lat="43.311875" lon="-5.833990">
        <ele>287.613</ele>
        <time>1999-07-21T15:35:47Z</time>
      </trkpt>
      <trkpt lat="43.311896" lon="-5.834046">
        <ele>288.208</ele>
        <time>1999-07-21T15:35:49Z</time>
      </trkpt>
      <trkpt lat="43.311952" lon="-5.834188">
        <ele>288.829</ele>
        <time>1999-07-21T15:35:54Z</time>
      </trkpt>
      <trkpt lat="43.311979" lon="-5.834241">
        <ele>289.014</ele>
        <time>1999-07-21T15:35:56Z</time>
      </trkpt>
      <trkpt lat="43.312048" lon="-5.834379">
        <ele>290.264</ele>
        <time>1999-07-21T15:36:02Z</time>
      </trkpt>
      <trkpt lat="43.312106" lon="-5.834479">
        <ele>291.245</ele>
        <time>1999-07-21T15:36:07Z</time>
      </trkpt>
      <trkpt lat="43.312136" lon="-5.834565">
        <ele>292.223</ele>
        <time>1999-07-21T15:36:11Z</time>
      </trkpt>
      <trkpt lat="43.312147" lon="-5.834589">
        <ele>292.241</ele>
        <time>1999-07-21T15:36:12Z</time>
      </trkpt>
      <trkpt lat="43.312203" lon="-5.834713">
        <ele>293.442</ele>
        <time>1999-07-21T15:36:18Z</time>
      </trkpt>
      <trkpt lat="43.312214" lon="-5.834734">
        <ele>293.698</ele>
        <time>1999-07-21T15:36:19Z</time>
      </trkpt>
      <trkpt lat="43.312225" lon="-5.834798">
        <ele>294.493</ele>
        <time>1999-07-21T15:36:22Z</time>
      </trkpt>
      <trkpt lat="43.312252" lon="-5.834861">
        <ele>295.065</ele>
        <time>1999-07-21T15:36:25Z</time>
      </trkpt>
      <trkpt lat="43.312276" lon="-5.834906">
        <ele>295.621</ele>
        <time>1999-07-21T15:36:27Z</time>
      </trkpt>
      <trkpt lat="43.312338" lon="-5.834994">
        <ele>296.608</ele>
        <time>1999-07-21T15:36:31Z</time>
      </trkpt>
      <trkpt lat="43.312354" lon="-5.835011">
        <ele>296.812</ele>
        <time>1999-07-21T15:36:32Z</time>
      </trkpt>
      <trkpt lat="43.312425" lon="-5.835060">
        <ele>297.667</ele>
        <time>1999-07-21T15:36:37Z</time>
      </trkpt>
      <trkpt lat="43.312439" lon="-5.835073">
        <ele>297.827</ele>
        <time>1999-07-21T15:36:38Z</time>
      </trkpt>
      <trkpt lat="43.312469" lon="-5.835116">
        <ele>298.688</ele>
        <time>1999-07-21T15:36:41Z</time>
      </trkpt>
      <trkpt lat="43.312492" lon="-5.835157">
        <ele>298.826</ele>
        <time>1999-07-21T15:36:43Z</time>
      </trkpt>
      <trkpt lat="43.312609" lon="-5.835308">
        <ele>299.014</ele>
        <time>1999-07-21T15:36:50Z</time>
      </trkpt>
      <trkpt lat="43.312648" lon="-5.835403">
        <ele>299.215</ele>
        <time>1999-07-21T15:36:56Z</time>
      </trkpt>
      <trkpt lat="43.312693" lon="-5.835496">
        <ele>299.691</ele>
        <time>1999-07-21T15:37:01Z</time>
      </trkpt>
      <trkpt lat="43.312703" lon="-5.835516">
        <ele>299.856</ele>
        <time>1999-07-21T15:37:02Z</time>
      </trkpt>
      <trkpt lat="43.312782" lon="-5.835664">
        <ele>300.659</ele>
        <time>1999-07-21T15:37:09Z</time>
      </trkpt>
      <trkpt lat="43.312796" lon="-5.835680">
        <ele>300.814</ele>
        <time>1999-07-21T15:37:10Z</time>
      </trkpt>
      <trkpt lat="43.312844" lon="-5.835757">
        <ele>301.408</ele>
        <time>1999-07-21T15:37:16Z</time>
      </trkpt>
      <trkpt lat="43.312861" lon="-5.835799">
        <ele>301.878</ele>
        <time>1999-07-21T15:37:20Z</time>
      </trkpt>
      <trkpt lat="43.312922" lon="-5.835850">
        <ele>302.493</ele>
        <time>1999-07-21T15:37:25Z</time>
      </trkpt>
      <trkpt lat="43.312948" lon="-5.835884">
        <ele>302.683</ele>
        <time>1999-07-21T15:37:27Z</time>
      </trkpt>
      <trkpt lat="43.312991" lon="-5.835943">
        <ele>303.284</ele>
        <time>1999-07-21T15:37:31Z</time>
      </trkpt>
      <trkpt lat="43.313019" lon="-5.835995">
        <ele>303.652</ele>
        <time>1999-07-21T15:37:34Z</time>
      </trkpt>
      <trkpt lat="43.313056" lon="-5.836050">
        <ele>304.230</ele>
        <time>1999-07-21T15:37:37Z</time>
      </trkpt>
      <trkpt lat="43.313120" lon="-5.836117">
        <ele>304.671</ele>
        <time>1999-07-21T15:37:42Z</time>
      </trkpt>
      <trkpt lat="43.313125" lon="-5.836133">
        <ele>304.657</ele>
        <time>1999-07-21T15:37:43Z</time>
      </trkpt>
      <trkpt lat="43.313170" lon="-5.836204">
        <ele>305.052</ele>
        <time>1999-07-21T15:37:47Z</time>
      </trkpt>
      <trkpt lat="43.313198" lon="-5.836227">
        <ele>305.253</ele>
        <time>1999-07-21T15:37:49Z</time>
      </trkpt>
      <trkpt lat="43.313223" lon="-5.836265">
        <ele>305.408</ele>
        <time>1999-07-21T15:37:52Z</time>
      </trkpt>
      <trkpt lat="43.313251" lon="-5.836303">
        <ele>305.608</ele>
        <time>1999-07-21T15:37:55Z</time>
      </trkpt>
      <trkpt lat="43.313277" lon="-5.836347">
        <ele>305.658</ele>
        <time>1999-07-21T15:37:57Z</time>
      </trkpt>
      <trkpt lat="43.313358" lon="-5.836478">
        <ele>305.813</ele>
        <time>1999-07-21T15:38:03Z</time>
      </trkpt>
      <trkpt lat="43.313374" lon="-5.836526">
        <ele>305.883</ele>
        <time>1999-07-21T15:38:05Z</time>
      </trkpt>
      <trkpt lat="43.313391" lon="-5.836584">
        <ele>306.064</ele>
        <time>1999-07-21T15:38:08Z</time>
      </trkpt>
      <trkpt lat="43.313395" lon="-5.836611">
        <ele>306.082</ele>
        <time>1999-07-21T15:38:12Z</time>
      </trkpt>
      <trkpt lat="43.314276" lon="-5.837949">
        <ele>320.490</ele>
        <time>1999-07-21T15:41:08Z</time>
      </trkpt>
      <trkpt lat="43.314281" lon="-5.837968">
        <ele>320.461</ele>
        <time>1999-07-21T15:41:09Z</time>
      </trkpt>
      <trkpt lat="43.314326" lon="-5.838050">
        <ele>320.877</ele>
        <time>1999-07-21T15:41:16Z</time>
      </trkpt>
      <trkpt lat="43.314381" lon="-5.838117">
        <ele>321.218</ele>
        <time>1999-07-21T15:41:24Z</time>
      </trkpt>
      <trkpt lat="43.314421" lon="-5.838132">
        <ele>322.098</ele>
        <time>1999-07-21T15:41:28Z</time>
      </trkpt>
      <trkpt lat="43.314432" lon="-5.838134">
        <ele>322.217</ele>
        <time>1999-07-21T15:41:29Z</time>
      </trkpt>
      <trkpt lat="43.314494" lon="-5.838140">
        <ele>323.208</ele>
        <time>1999-07-21T15:41:34Z</time>
      </trkpt>
      <trkpt lat="43.314540" lon="-5.838145">
        <ele>324.214</ele>
        <time>1999-07-21T15:41:40Z</time>
      </trkpt>
      <trkpt lat="43.314575" lon="-5.838151">
        <ele>325.259</ele>
        <time>1999-07-21T15:41:45Z</time>
      </trkpt>
      <trkpt lat="43.314583" lon="-5.838154">
        <ele>325.419</ele>
        <time>1999-07-21T15:41:46Z</time>
      </trkpt>
      <trkpt lat="43.314618" lon="-5.838172">
        <ele>326.420</ele>
        <time>1999-07-21T15:41:50Z</time>
      </trkpt>
      <trkpt lat="43.314625" lon="-5.838176">
        <ele>326.628</ele>
        <time>1999-07-21T15:41:51Z</time>
      </trkpt>
      <trkpt lat="43.314631" lon="-5.838181">
        <ele>326.866</ele>
        <time>1999-07-21T15:41:52Z</time>
      </trkpt>
      <trkpt lat="43.314647" lon="-5.838207">
        <ele>327.867</ele>
        <time>1999-07-21T15:41:57Z</time>
      </trkpt>
      <trkpt lat="43.315106" lon="-5.839319">
        <ele>346.893</ele>
        <time>1999-07-21T15:44:08Z</time>
      </trkpt>
      <trkpt lat="43.315285" lon="-5.839303">
        <ele>347.262</ele>
        <time>1999-07-21T15:44:16Z</time>
      </trkpt>
      <trkpt lat="43.315327" lon="-5.839299">
        <ele>348.283</ele>
        <time>1999-07-21T15:44:18Z</time>
      </trkpt>
      <trkpt lat="43.315400" lon="-5.839282">
        <ele>349.211</ele>
        <time>1999-07-21T15:44:22Z</time>
      </trkpt>
      <trkpt lat="43.315434" lon="-5.839278">
        <ele>349.608</ele>
        <time>1999-07-21T15:44:24Z</time>
      </trkpt>
      <trkpt lat="43.315488" lon="-5.839277">
        <ele>350.289</ele>
        <time>1999-07-21T15:44:27Z</time>
      </trkpt>
      <trkpt lat="43.315538" lon="-5.839311">
        <ele>350.834</ele>
        <time>1999-07-21T15:44:30Z</time>
      </trkpt>
      <trkpt lat="43.315576" lon="-5.839339">
        <ele>351.284</ele>
        <time>1999-07-21T15:44:32Z</time>
      </trkpt>
      <trkpt lat="43.315675" lon="-5.839385">
        <ele>352.485</ele>
        <time>1999-07-21T15:44:37Z</time>
      </trkpt>
      <trkpt lat="43.315780" lon="-5.839440">
        <ele>353.493</ele>
        <time>1999-07-21T15:44:43Z</time>
      </trkpt>
      <trkpt lat="43.315797" lon="-5.839445">
        <ele>353.421</ele>
        <time>1999-07-21T15:44:44Z</time>
      </trkpt>
      <trkpt lat="43.315869" lon="-5.839488">
        <ele>354.662</ele>
        <time>1999-07-21T15:44:48Z</time>
      </trkpt>
      <trkpt lat="43.315901" lon="-5.839510">
        <ele>355.058</ele>
        <time>1999-07-21T15:44:50Z</time>
      </trkpt>
      <trkpt lat="43.315968" lon="-5.839544">
        <ele>355.659</ele>
        <time>1999-07-21T15:44:54Z</time>
      </trkpt>
      <trkpt lat="43.316024" lon="-5.839586">
        <ele>356.203</ele>
        <time>1999-07-21T15:44:57Z</time>
      </trkpt>
      <trkpt lat="43.316105" lon="-5.839637">
        <ele>356.823</ele>
        <time>1999-07-21T15:45:01Z</time>
      </trkpt>
      <trkpt lat="43.316155" lon="-5.839687">
        <ele>357.208</ele>
        <time>1999-07-21T15:45:04Z</time>
      </trkpt>
      <trkpt lat="43.316213" lon="-5.839725">
        <ele>358.098</ele>
        <time>1999-07-21T15:45:07Z</time>
      </trkpt>
      <trkpt lat="43.316298" lon="-5.839746">
        <ele>358.633</ele>
        <time>1999-07-21T15:45:11Z</time>
      </trkpt>
      <trkpt lat="43.316337" lon="-5.839760">
        <ele>359.243</ele>
        <time>1999-07-21T15:45:13Z</time>
      </trkpt>
      <trkpt lat="43.316434" lon="-5.839815">
        <ele>360.434</ele>
        <time>1999-07-21T15:45:18Z</time>
      </trkpt>
      <trkpt lat="43.316518" lon="-5.839848">
        <ele>361.432</ele>
        <time>1999-07-21T15:45:22Z</time>
      </trkpt>
      <trkpt lat="43.316574" lon="-5.839857">
        <ele>362.010</ele>
        <time>1999-07-21T15:45:24Z</time>
      </trkpt>
      <trkpt lat="43.316685" lon="-5.839867">
        <ele>362.671</ele>
        <time>1999-07-21T15:45:27Z</time>
      </trkpt>
      <trkpt lat="43.316774" lon="-5.839885">
        <ele>363.067</ele>
        <time>1999-07-21T15:45:29Z</time>
      </trkpt>
      <trkpt lat="43.316912" lon="-5.839934">
        <ele>363.066</ele>
        <time>1999-07-21T15:45:32Z</time>
      </trkpt>
      <trkpt lat="43.316989" lon="-5.839978">
        <ele>363.229</ele>
        <time>1999-07-21T15:45:34Z</time>
      </trkpt>
      <trkpt lat="43.317093" lon="-5.840020">
        <ele>363.221</ele>
        <time>1999-07-21T15:45:38Z</time>
      </trkpt>
      <trkpt lat="43.317143" lon="-5.840029">
        <ele>363.408</ele>
        <time>1999-07-21T15:45:41Z</time>
      </trkpt>
      <trkpt lat="43.317180" lon="-5.840082">
        <ele>363.489</ele>
        <time>1999-07-21T15:45:43Z</time>
      </trkpt>
      <trkpt lat="43.317354" lon="-5.840229">
        <ele>363.624</ele>
        <time>1999-07-21T15:45:49Z</time>
      </trkpt>
      <trkpt lat="43.317473" lon="-5.840290">
        <ele>363.814</ele>
        <time>1999-07-21T15:45:52Z</time>
      </trkpt>
      <trkpt lat="43.317570" lon="-5.840336">
        <ele>363.875</ele>
        <time>1999-07-21T15:45:55Z</time>
      </trkpt>
      <trkpt lat="43.317735" lon="-5.840436">
        <ele>364.013</ele>
        <time>1999-07-21T15:46:01Z</time>
      </trkpt>
      <trkpt lat="43.317794" lon="-5.840491">
        <ele>364.461</ele>
        <time>1999-07-21T15:46:03Z</time>
      </trkpt>
      <trkpt lat="43.317844" lon="-5.840542">
        <ele>364.692</ele>
        <time>1999-07-21T15:46:06Z</time>
      </trkpt>
      <trkpt lat="43.317856" lon="-5.840555">
        <ele>364.648</ele>
        <time>1999-07-21T15:46:09Z</time>
      </trkpt>
      <trkpt lat="43.317881" lon="-5.840574">
        <ele>363.629</ele>
        <time>1999-07-21T15:47:08Z</time>
      </trkpt>
      <trkpt lat="43.317898" lon="-5.840595">
        <ele>363.600</ele>
        <time>1999-07-21T15:47:09Z</time>
      </trkpt>
      <trkpt lat="43.317945" lon="-5.840657">
        <ele>363.620</ele>
        <time>1999-07-21T15:47:11Z</time>
      </trkpt>
      <trkpt lat="43.317970" lon="-5.840695">
        <ele>363.608</ele>
        <time>1999-07-21T15:47:12Z</time>
      </trkpt>
      <trkpt lat="43.317991" lon="-5.840743">
        <ele>363.625</ele>
        <time>1999-07-21T15:47:13Z</time>
      </trkpt>
      <trkpt lat="43.318027" lon="-5.840876">
        <ele>363.620</ele>
        <time>1999-07-21T15:47:15Z</time>
      </trkpt>
      <trkpt lat="43.318102" lon="-5.841097">
        <ele>363.450</ele>
        <time>1999-07-21T15:47:18Z</time>
      </trkpt>
      <trkpt lat="43.318128" lon="-5.841145">
        <ele>363.451</ele>
        <time>1999-07-21T15:47:19Z</time>
      </trkpt>
      <trkpt lat="43.318218" lon="-5.841230">
        <ele>362.819</ele>
        <time>1999-07-21T15:47:22Z</time>
      </trkpt>
      <trkpt lat="43.318265" lon="-5.841250">
        <ele>362.477</ele>
        <time>1999-07-21T15:47:23Z</time>
      </trkpt>
      <trkpt lat="43.318318" lon="-5.841268">
        <ele>362.028</ele>
        <time>1999-07-21T15:47:24Z</time>
      </trkpt>
      <trkpt lat="43.318373" lon="-5.841289">
        <ele>361.264</ele>
        <time>1999-07-21T15:47:25Z</time>
      </trkpt>
      <trkpt lat="43.318482" lon="-5.841359">
        <ele>360.039</ele>
        <time>1999-07-21T15:47:27Z</time>
      </trkpt>
      <trkpt lat="43.318531" lon="-5.841430">
        <ele>359.201</ele>
        <time>1999-07-21T15:47:28Z</time>
      </trkpt>
      <trkpt lat="43.318580" lon="-5.841516">
        <ele>358.621</ele>
        <time>1999-07-21T15:47:29Z</time>
      </trkpt>
      <trkpt lat="43.318683" lon="-5.841686">
        <ele>357.408</ele>
        <time>1999-07-21T15:47:31Z</time>
      </trkpt>
      <trkpt lat="43.318730" lon="-5.841775">
        <ele>357.026</ele>
        <time>1999-07-21T15:47:32Z</time>
      </trkpt>
      <trkpt lat="43.318784" lon="-5.841876">
        <ele>356.271</ele>
        <time>1999-07-21T15:47:33Z</time>
      </trkpt>
      <trkpt lat="43.318849" lon="-5.841980">
        <ele>355.071</ele>
        <time>1999-07-21T15:47:34Z</time>
      </trkpt>
      <trkpt lat="43.318911" lon="-5.842085">
        <ele>353.812</ele>
        <time>1999-07-21T15:47:35Z</time>
      </trkpt>
      <trkpt lat="43.318969" lon="-5.842194">
        <ele>352.610</ele>
        <time>1999-07-21T15:47:36Z</time>
      </trkpt>
      <trkpt lat="43.319018" lon="-5.842310">
        <ele>351.658</ele>
        <time>1999-07-21T15:47:37Z</time>
      </trkpt>
      <trkpt lat="43.319055" lon="-5.842431">
        <ele>350.899</ele>
        <time>1999-07-21T15:47:38Z</time>
      </trkpt>
      <trkpt lat="43.319085" lon="-5.842554">
        <ele>350.275</ele>
        <time>1999-07-21T15:47:39Z</time>
      </trkpt>
      <trkpt lat="43.319117" lon="-5.842670">
        <ele>349.471</ele>
        <time>1999-07-21T15:47:40Z</time>
      </trkpt>
      <trkpt lat="43.319169" lon="-5.842759">
        <ele>348.641</ele>
        <time>1999-07-21T15:47:41Z</time>
      </trkpt>
      <trkpt lat="43.319235" lon="-5.842831">
        <ele>347.415</ele>
        <time>1999-07-21T15:47:42Z</time>
      </trkpt>
      <trkpt lat="43.319310" lon="-5.842885">
        <ele>346.208</ele>
        <time>1999-07-21T15:47:43Z</time>
      </trkpt>
      <trkpt lat="43.319469" lon="-5.842941">
        <ele>344.620</ele>
        <time>1999-07-21T15:47:45Z</time>
      </trkpt>
      <trkpt lat="43.319632" lon="-5.842945">
        <ele>343.275</ele>
        <time>1999-07-21T15:47:47Z</time>
      </trkpt>
      <trkpt lat="43.319795" lon="-5.842908">
        <ele>342.295</ele>
        <time>1999-07-21T15:47:49Z</time>
      </trkpt>
      <trkpt lat="43.319943" lon="-5.842882">
        <ele>341.616</ele>
        <time>1999-07-21T15:47:51Z</time>
      </trkpt>
      <trkpt lat="43.320015" lon="-5.842863">
        <ele>341.224</ele>
        <time>1999-07-21T15:47:52Z</time>
      </trkpt>
      <trkpt lat="43.320150" lon="-5.842774">
        <ele>340.872</ele>
        <time>1999-07-21T15:47:54Z</time>
      </trkpt>
      <trkpt lat="43.320350" lon="-5.842629">
        <ele>340.433</ele>
        <time>1999-07-21T15:47:57Z</time>
      </trkpt>
      <trkpt lat="43.320429" lon="-5.842605">
        <ele>340.219</ele>
        <time>1999-07-21T15:47:58Z</time>
      </trkpt>
      <trkpt lat="43.320511" lon="-5.842593">
        <ele>340.085</ele>
        <time>1999-07-21T15:47:59Z</time>
      </trkpt>
      <trkpt lat="43.320730" lon="-5.842494">
        <ele>339.489</ele>
        <time>1999-07-21T15:48:02Z</time>
      </trkpt>
      <trkpt lat="43.320870" lon="-5.842395">
        <ele>339.017</ele>
        <time>1999-07-21T15:48:04Z</time>
      </trkpt>
      <trkpt lat="43.320942" lon="-5.842356">
        <ele>338.808</ele>
        <time>1999-07-21T15:48:05Z</time>
      </trkpt>
      <trkpt lat="43.321086" lon="-5.842306">
        <ele>337.671</ele>
        <time>1999-07-21T15:48:07Z</time>
      </trkpt>
      <trkpt lat="43.321229" lon="-5.842301">
        <ele>336.686</ele>
        <time>1999-07-21T15:48:09Z</time>
      </trkpt>
      <trkpt lat="43.321376" lon="-5.842339">
        <ele>335.826</ele>
        <time>1999-07-21T15:48:11Z</time>
      </trkpt>
      <trkpt lat="43.321446" lon="-5.842373">
        <ele>335.417</ele>
        <time>1999-07-21T15:48:12Z</time>
      </trkpt>
      <trkpt lat="43.321517" lon="-5.842414">
        <ele>334.875</ele>
        <time>1999-07-21T15:48:13Z</time>
      </trkpt>
      <trkpt lat="43.321588" lon="-5.842466">
        <ele>334.693</ele>
        <time>1999-07-21T15:48:14Z</time>
      </trkpt>
      <trkpt lat="43.321655" lon="-5.842525">
        <ele>333.854</ele>
        <time>1999-07-21T15:48:15Z</time>
      </trkpt>
      <trkpt lat="43.321712" lon="-5.842588">
        <ele>333.480</ele>
        <time>1999-07-21T15:48:16Z</time>
      </trkpt>
      <trkpt lat="43.321765" lon="-5.842664">
        <ele>332.653</ele>
        <time>1999-07-21T15:48:17Z</time>
      </trkpt>
      <trkpt lat="43.321813" lon="-5.842751">
        <ele>332.004</ele>
        <time>1999-07-21T15:48:18Z</time>
      </trkpt>
      <trkpt lat="43.321858" lon="-5.842852">
        <ele>331.414</ele>
        <time>1999-07-21T15:48:19Z</time>
      </trkpt>
      <trkpt lat="43.321900" lon="-5.842955">
        <ele>330.608</ele>
        <time>1999-07-21T15:48:20Z</time>
      </trkpt>
      <trkpt lat="43.321940" lon="-5.843057">
        <ele>330.268</ele>
        <time>1999-07-21T15:48:21Z</time>
      </trkpt>
      <trkpt lat="43.321980" lon="-5.843148">
        <ele>329.693</ele>
        <time>1999-07-21T15:48:22Z</time>
      </trkpt>
      <trkpt lat="43.322026" lon="-5.843228">
        <ele>328.693</ele>
        <time>1999-07-21T15:48:23Z</time>
      </trkpt>
      <trkpt lat="43.322078" lon="-5.843292">
        <ele>326.854</ele>
        <time>1999-07-21T15:48:24Z</time>
      </trkpt>
      <trkpt lat="43.322134" lon="-5.843340">
        <ele>326.022</ele>
        <time>1999-07-21T15:48:25Z</time>
      </trkpt>
      <trkpt lat="43.322191" lon="-5.843376">
        <ele>325.420</ele>
        <time>1999-07-21T15:48:26Z</time>
      </trkpt>
      <trkpt lat="43.322316" lon="-5.843418">
        <ele>323.871</ele>
        <time>1999-07-21T15:48:28Z</time>
      </trkpt>
      <trkpt lat="43.322380" lon="-5.843428">
        <ele>323.217</ele>
        <time>1999-07-21T15:48:29Z</time>
      </trkpt>
      <trkpt lat="43.322443" lon="-5.843434">
        <ele>322.412</ele>
        <time>1999-07-21T15:48:30Z</time>
      </trkpt>
      <trkpt lat="43.322561" lon="-5.843407">
        <ele>321.032</ele>
        <time>1999-07-21T15:48:32Z</time>
      </trkpt>
      <trkpt lat="43.322617" lon="-5.843378">
        <ele>320.205</ele>
        <time>1999-07-21T15:48:33Z</time>
      </trkpt>
      <trkpt lat="43.322674" lon="-5.843348">
        <ele>319.608</ele>
        <time>1999-07-21T15:48:34Z</time>
      </trkpt>
      <trkpt lat="43.322805" lon="-5.843281">
        <ele>318.694</ele>
        <time>1999-07-21T15:48:36Z</time>
      </trkpt>
      <trkpt lat="43.322878" lon="-5.843261">
        <ele>318.229</ele>
        <time>1999-07-21T15:48:37Z</time>
      </trkpt>
      <trkpt lat="43.322949" lon="-5.843261">
        <ele>317.869</ele>
        <time>1999-07-21T15:48:38Z</time>
      </trkpt>
      <trkpt lat="43.323021" lon="-5.843283">
        <ele>317.240</ele>
        <time>1999-07-21T15:48:39Z</time>
      </trkpt>
      <trkpt lat="43.323141" lon="-5.843337">
        <ele>316.458</ele>
        <time>1999-07-21T15:48:41Z</time>
      </trkpt>
      <trkpt lat="43.323185" lon="-5.843356">
        <ele>316.236</ele>
        <time>1999-07-21T15:48:42Z</time>
      </trkpt>
      <trkpt lat="43.323221" lon="-5.843373">
        <ele>315.827</ele>
        <time>1999-07-21T15:48:43Z</time>
      </trkpt>
      <trkpt lat="43.323290" lon="-5.843410">
        <ele>314.873</ele>
        <time>1999-07-21T15:48:45Z</time>
      </trkpt>
      <trkpt lat="43.323388" lon="-5.843424">
        <ele>313.684</ele>
        <time>1999-07-21T15:48:48Z</time>
      </trkpt>
      <trkpt lat="43.323426" lon="-5.843426">
        <ele>313.007</ele>
        <time>1999-07-21T15:48:49Z</time>
      </trkpt>
      <trkpt lat="43.323461" lon="-5.843420">
        <ele>312.417</ele>
        <time>1999-07-21T15:48:50Z</time>
      </trkpt>
      <trkpt lat="43.323531" lon="-5.843382">
        <ele>311.208</ele>
        <time>1999-07-21T15:48:52Z</time>
      </trkpt>
      <trkpt lat="43.323650" lon="-5.843335">
        <ele>310.631</ele>
        <time>1999-07-21T15:48:55Z</time>
      </trkpt>
      <trkpt lat="43.323725" lon="-5.843339">
        <ele>310.026</ele>
        <time>1999-07-21T15:48:57Z</time>
      </trkpt>
      <trkpt lat="43.323856" lon="-5.843380">
        <ele>309.896</ele>
        <time>1999-07-21T15:49:00Z</time>
      </trkpt>
      <trkpt lat="43.324002" lon="-5.843429">
        <ele>309.627</ele>
        <time>1999-07-21T15:49:03Z</time>
      </trkpt>
      <trkpt lat="43.324181" lon="-5.843492">
        <ele>309.485</ele>
        <time>1999-07-21T15:49:06Z</time>
      </trkpt>
      <trkpt lat="43.324313" lon="-5.843559">
        <ele>309.463</ele>
        <time>1999-07-21T15:49:08Z</time>
      </trkpt>
      <trkpt lat="43.324458" lon="-5.843635">
        <ele>308.884</ele>
        <time>1999-07-21T15:49:10Z</time>
      </trkpt>
      <trkpt lat="43.324532" lon="-5.843674">
        <ele>308.610</ele>
        <time>1999-07-21T15:49:11Z</time>
      </trkpt>
      <trkpt lat="43.324711" lon="-5.843802">
        <ele>307.882</ele>
        <time>1999-07-21T15:49:14Z</time>
      </trkpt>
      <trkpt lat="43.324807" lon="-5.843874">
        <ele>307.443</ele>
        <time>1999-07-21T15:49:16Z</time>
      </trkpt>
      <trkpt lat="43.324876" lon="-5.843890">
        <ele>306.817</ele>
        <time>1999-07-21T15:49:18Z</time>
      </trkpt>
      <trkpt lat="43.324901" lon="-5.843883">
        <ele>305.808</ele>
        <time>1999-07-21T15:49:19Z</time>
      </trkpt>
      <trkpt lat="43.324925" lon="-5.843872">
        <ele>305.421</ele>
        <time>1999-07-21T15:49:20Z</time>
      </trkpt>
      <trkpt lat="43.325047" lon="-5.843818">
        <ele>304.486</ele>
        <time>1999-07-21T15:49:23Z</time>
      </trkpt>
      <trkpt lat="43.325144" lon="-5.843737">
        <ele>302.686</ele>
        <time>1999-07-21T15:49:25Z</time>
      </trkpt>
      <trkpt lat="43.325242" lon="-5.843659">
        <ele>301.417</ele>
        <time>1999-07-21T15:49:27Z</time>
      </trkpt>
      <trkpt lat="43.325323" lon="-5.843572">
        <ele>300.285</ele>
        <time>1999-07-21T15:49:29Z</time>
      </trkpt>
      <trkpt lat="43.325399" lon="-5.843439">
        <ele>299.283</ele>
        <time>1999-07-21T15:49:31Z</time>
      </trkpt>
      <trkpt lat="43.325438" lon="-5.843369">
        <ele>298.874</ele>
        <time>1999-07-21T15:49:32Z</time>
      </trkpt>
      <trkpt lat="43.325516" lon="-5.843256">
        <ele>298.010</ele>
        <time>1999-07-21T15:49:34Z</time>
      </trkpt>
      <trkpt lat="43.325558" lon="-5.843206">
        <ele>297.462</ele>
        <time>1999-07-21T15:49:35Z</time>
      </trkpt>
      <trkpt lat="43.325607" lon="-5.843157">
        <ele>296.883</ele>
        <time>1999-07-21T15:49:36Z</time>
      </trkpt>
      <trkpt lat="43.325658" lon="-5.843114">
        <ele>295.811</ele>
        <time>1999-07-21T15:49:37Z</time>
      </trkpt>
      <trkpt lat="43.325706" lon="-5.843078">
        <ele>294.808</ele>
        <time>1999-07-21T15:49:38Z</time>
      </trkpt>
      <trkpt lat="43.325750" lon="-5.843040">
        <ele>293.669</ele>
        <time>1999-07-21T15:49:39Z</time>
      </trkpt>
      <trkpt lat="43.325789" lon="-5.843001">
        <ele>292.674</ele>
        <time>1999-07-21T15:49:40Z</time>
      </trkpt>
      <trkpt lat="43.325821" lon="-5.842971">
        <ele>291.884</ele>
        <time>1999-07-21T15:49:41Z</time>
      </trkpt>
      <trkpt lat="43.325870" lon="-5.842923">
        <ele>290.035</ele>
        <time>1999-07-21T15:49:43Z</time>
      </trkpt>
      <trkpt lat="43.325887" lon="-5.842897">
        <ele>289.093</ele>
        <time>1999-07-21T15:49:44Z</time>
      </trkpt>
      <trkpt lat="43.325901" lon="-5.842873">
        <ele>287.841</ele>
        <time>1999-07-21T15:49:45Z</time>
      </trkpt>
      <trkpt lat="43.325914" lon="-5.842851">
        <ele>286.822</ele>
        <time>1999-07-21T15:49:46Z</time>
      </trkpt>
      <trkpt lat="43.325926" lon="-5.842830">
        <ele>285.258</ele>
        <time>1999-07-21T15:49:47Z</time>
      </trkpt>
      <trkpt lat="43.325943" lon="-5.842815">
        <ele>284.861</ele>
        <time>1999-07-21T15:49:48Z</time>
      </trkpt>
      <trkpt lat="43.325963" lon="-5.842808">
        <ele>283.821</ele>
        <time>1999-07-21T15:49:49Z</time>
      </trkpt>
      <trkpt lat="43.325999" lon="-5.842806">
        <ele>282.413</ele>
        <time>1999-07-21T15:49:51Z</time>
      </trkpt>
      <trkpt lat="43.326034" lon="-5.842811">
        <ele>281.408</ele>
        <time>1999-07-21T15:49:53Z</time>
      </trkpt>
      <trkpt lat="43.326050" lon="-5.842815">
        <ele>280.899</ele>
        <time>1999-07-21T15:49:54Z</time>
      </trkpt>
      <trkpt lat="43.326092" lon="-5.842841">
        <ele>280.024</ele>
        <time>1999-07-21T15:49:56Z</time>
      </trkpt>
      <trkpt lat="43.326144" lon="-5.842859">
        <ele>279.044</ele>
        <time>1999-07-21T15:49:58Z</time>
      </trkpt>
      <trkpt lat="43.326174" lon="-5.842872">
        <ele>278.685</ele>
        <time>1999-07-21T15:49:59Z</time>
      </trkpt>
      <trkpt lat="43.326195" lon="-5.842889">
        <ele>278.093</ele>
        <time>1999-07-21T15:50:00Z</time>
      </trkpt>
      <trkpt lat="43.326236" lon="-5.842945">
        <ele>276.621</ele>
        <time>1999-07-21T15:50:03Z</time>
      </trkpt>
      <trkpt lat="43.326251" lon="-5.842971">
        <ele>275.422</ele>
        <time>1999-07-21T15:50:05Z</time>
      </trkpt>
      <trkpt lat="43.326267" lon="-5.842998">
        <ele>274.238</ele>
        <time>1999-07-21T15:50:07Z</time>
      </trkpt>
      <trkpt lat="43.326280" lon="-5.843013">
        <ele>273.247</ele>
        <time>1999-07-21T15:50:09Z</time>
      </trkpt>
      <trkpt lat="43.326283" lon="-5.843015">
        <ele>272.829</ele>
        <time>1999-07-21T15:50:10Z</time>
      </trkpt>
      <trkpt lat="43.326354" lon="-5.843096">
        <ele>270.821</ele>
        <time>1999-07-21T15:50:28Z</time>
      </trkpt>
      <trkpt lat="43.326364" lon="-5.843154">
        <ele>270.808</ele>
        <time>1999-07-21T15:50:31Z</time>
      </trkpt>
      <trkpt lat="43.326400" lon="-5.843217">
        <ele>270.687</ele>
        <time>1999-07-21T15:50:35Z</time>
      </trkpt>
      <trkpt lat="43.326438" lon="-5.843246">
        <ele>270.442</ele>
        <time>1999-07-21T15:50:37Z</time>
      </trkpt>
      <trkpt lat="43.326529" lon="-5.843273">
        <ele>269.652</ele>
        <time>1999-07-21T15:50:40Z</time>
      </trkpt>
      <trkpt lat="43.326593" lon="-5.843291">
        <ele>269.033</ele>
        <time>1999-07-21T15:50:42Z</time>
      </trkpt>
      <trkpt lat="43.326664" lon="-5.843328">
        <ele>268.031</ele>
        <time>1999-07-21T15:50:44Z</time>
      </trkpt>
      <trkpt lat="43.326761" lon="-5.843362">
        <ele>266.649</ele>
        <time>1999-07-21T15:50:47Z</time>
      </trkpt>
      <trkpt lat="43.326828" lon="-5.843375">
        <ele>265.280</ele>
        <time>1999-07-21T15:50:49Z</time>
      </trkpt>
      <trkpt lat="43.326872" lon="-5.843381">
        <ele>264.016</ele>
        <time>1999-07-21T15:50:51Z</time>
      </trkpt>
      <trkpt lat="43.326907" lon="-5.843384">
        <ele>262.868</ele>
        <time>1999-07-21T15:50:53Z</time>
      </trkpt>
      <trkpt lat="43.326928" lon="-5.843380">
        <ele>262.442</ele>
        <time>1999-07-21T15:50:54Z</time>
      </trkpt>
      <trkpt lat="43.326977" lon="-5.843372">
        <ele>261.626</ele>
        <time>1999-07-21T15:50:56Z</time>
      </trkpt>
      <trkpt lat="43.326997" lon="-5.843369">
        <ele>261.208</ele>
        <time>1999-07-21T15:50:57Z</time>
      </trkpt>
      <trkpt lat="43.327017" lon="-5.843366">
        <ele>260.899</ele>
        <time>1999-07-21T15:50:58Z</time>
      </trkpt>
      <trkpt lat="43.327033" lon="-5.843368">
        <ele>260.464</ele>
        <time>1999-07-21T15:50:59Z</time>
      </trkpt>
      <trkpt lat="43.327082" lon="-5.843391">
        <ele>259.284</ele>
        <time>1999-07-21T15:51:02Z</time>
      </trkpt>
      <trkpt lat="43.327131" lon="-5.843435">
        <ele>258.095</ele>
        <time>1999-07-21T15:51:05Z</time>
      </trkpt>
      <trkpt lat="43.327172" lon="-5.843423">
        <ele>257.273</ele>
        <time>1999-07-21T15:51:07Z</time>
      </trkpt>
      <trkpt lat="43.327189" lon="-5.843397">
        <ele>256.831</ele>
        <time>1999-07-21T15:51:08Z</time>
      </trkpt>
      <trkpt lat="43.327210" lon="-5.843339">
        <ele>255.612</ele>
        <time>1999-07-21T15:51:10Z</time>
      </trkpt>
      <trkpt lat="43.327217" lon="-5.843311">
        <ele>255.088</ele>
        <time>1999-07-21T15:51:11Z</time>
      </trkpt>
      <trkpt lat="43.327228" lon="-5.843283">
        <ele>254.453</ele>
        <time>1999-07-21T15:51:12Z</time>
      </trkpt>
      <trkpt lat="43.327242" lon="-5.843242">
        <ele>253.404</ele>
        <time>1999-07-21T15:51:14Z</time>
      </trkpt>
      <trkpt lat="43.327244" lon="-5.843219">
        <ele>252.614</ele>
        <time>1999-07-21T15:51:15Z</time>
      </trkpt>
      <trkpt lat="43.327245" lon="-5.843195">
        <ele>252.008</ele>
        <time>1999-07-21T15:51:16Z</time>
      </trkpt>
      <trkpt lat="43.327247" lon="-5.843171">
        <ele>251.448</ele>
        <time>1999-07-21T15:51:17Z</time>
      </trkpt>
      <trkpt lat="43.327254" lon="-5.843154">
        <ele>250.673</ele>
        <time>1999-07-21T15:51:18Z</time>
      </trkpt>
      <trkpt lat="43.327264" lon="-5.843152">
        <ele>250.233</ele>
        <time>1999-07-21T15:51:19Z</time>
      </trkpt>
      <trkpt lat="43.327289" lon="-5.843183">
        <ele>249.254</ele>
        <time>1999-07-21T15:51:21Z</time>
      </trkpt>
      <trkpt lat="43.327339" lon="-5.843227">
        <ele>247.812</ele>
        <time>1999-07-21T15:51:24Z</time>
      </trkpt>
      <trkpt lat="43.327380" lon="-5.843258">
        <ele>247.280</ele>
        <time>1999-07-21T15:51:26Z</time>
      </trkpt>
      <trkpt lat="43.327420" lon="-5.843279">
        <ele>246.621</ele>
        <time>1999-07-21T15:51:28Z</time>
      </trkpt>
      <trkpt lat="43.327437" lon="-5.843285">
        <ele>246.267</ele>
        <time>1999-07-21T15:51:29Z</time>
      </trkpt>
      <trkpt lat="43.327468" lon="-5.843306">
        <ele>245.635</ele>
        <time>1999-07-21T15:51:31Z</time>
      </trkpt>
      <trkpt lat="43.327483" lon="-5.843322">
        <ele>245.086</ele>
        <time>1999-07-21T15:51:32Z</time>
      </trkpt>
      <trkpt lat="43.327531" lon="-5.843374">
        <ele>243.614</ele>
        <time>1999-07-21T15:51:35Z</time>
      </trkpt>
      <trkpt lat="43.327552" lon="-5.843390">
        <ele>242.208</ele>
        <time>1999-07-21T15:51:36Z</time>
      </trkpt>
      <trkpt lat="43.327566" lon="-5.843411">
        <ele>241.816</ele>
        <time>1999-07-21T15:51:37Z</time>
      </trkpt>
      <trkpt lat="43.327609" lon="-5.843447">
        <ele>240.891</ele>
        <time>1999-07-21T15:51:39Z</time>
      </trkpt>
      <trkpt lat="43.327694" lon="-5.843473">
        <ele>239.261</ele>
        <time>1999-07-21T15:51:42Z</time>
      </trkpt>
      <trkpt lat="43.327757" lon="-5.843480">
        <ele>238.292</ele>
        <time>1999-07-21T15:51:44Z</time>
      </trkpt>
      <trkpt lat="43.327811" lon="-5.843476">
        <ele>236.470</ele>
        <time>1999-07-21T15:51:46Z</time>
      </trkpt>
      <trkpt lat="43.327838" lon="-5.843477">
        <ele>236.088</ele>
        <time>1999-07-21T15:51:47Z</time>
      </trkpt>
      <trkpt lat="43.327900" lon="-5.843482">
        <ele>234.659</ele>
        <time>1999-07-21T15:51:49Z</time>
      </trkpt>
      <trkpt lat="43.327965" lon="-5.843489">
        <ele>233.425</ele>
        <time>1999-07-21T15:51:51Z</time>
      </trkpt>
      <trkpt lat="43.328026" lon="-5.843509">
        <ele>232.248</ele>
        <time>1999-07-21T15:51:53Z</time>
      </trkpt>
      <trkpt lat="43.328096" lon="-5.843536">
        <ele>231.261</ele>
        <time>1999-07-21T15:51:55Z</time>
      </trkpt>
      <trkpt lat="43.328196" lon="-5.843568">
        <ele>229.617</ele>
        <time>1999-07-21T15:51:58Z</time>
      </trkpt>
      <trkpt lat="43.328227" lon="-5.843581">
        <ele>229.208</ele>
        <time>1999-07-21T15:51:59Z</time>
      </trkpt>
      <trkpt lat="43.328302" lon="-5.843620">
        <ele>228.417</ele>
        <time>1999-07-21T15:52:01Z</time>
      </trkpt>
      <trkpt lat="43.328387" lon="-5.843678">
        <ele>227.292</ele>
        <time>1999-07-21T15:52:03Z</time>
      </trkpt>
      <trkpt lat="43.328430" lon="-5.843705">
        <ele>226.662</ele>
        <time>1999-07-21T15:52:04Z</time>
      </trkpt>
      <trkpt lat="43.328450" lon="-5.843731">
        <ele>225.883</ele>
        <time>1999-07-21T15:52:05Z</time>
      </trkpt>
      <trkpt lat="43.328503" lon="-5.843795">
        <ele>224.661</ele>
        <time>1999-07-21T15:52:08Z</time>
      </trkpt>
      <trkpt lat="43.328565" lon="-5.843848">
        <ele>223.879</ele>
        <time>1999-07-21T15:52:10Z</time>
      </trkpt>
      <trkpt lat="43.328605" lon="-5.843884">
        <ele>223.650</ele>
        <time>1999-07-21T15:52:11Z</time>
      </trkpt>
      <trkpt lat="43.328645" lon="-5.843919">
        <ele>223.056</ele>
        <time>1999-07-21T15:52:12Z</time>
      </trkpt>
      <trkpt lat="43.328683" lon="-5.843948">
        <ele>222.273</ele>
        <time>1999-07-21T15:52:13Z</time>
      </trkpt>
      <trkpt lat="43.328766" lon="-5.844001">
        <ele>221.485</ele>
        <time>1999-07-21T15:52:15Z</time>
      </trkpt>
      <trkpt lat="43.328811" lon="-5.844010">
        <ele>221.213</ele>
        <time>1999-07-21T15:52:16Z</time>
      </trkpt>
      <trkpt lat="43.328846" lon="-5.844009">
        <ele>220.808</ele>
        <time>1999-07-21T15:52:17Z</time>
      </trkpt>
      <trkpt lat="43.328920" lon="-5.844035">
        <ele>219.880</ele>
        <time>1999-07-21T15:52:19Z</time>
      </trkpt>
      <trkpt lat="43.328978" lon="-5.844109">
        <ele>219.015</ele>
        <time>1999-07-21T15:52:21Z</time>
      </trkpt>
      <trkpt lat="43.329015" lon="-5.844165">
        <ele>218.425</ele>
        <time>1999-07-21T15:52:22Z</time>
      </trkpt>
      <trkpt lat="43.329076" lon="-5.844277">
        <ele>217.096</ele>
        <time>1999-07-21T15:52:24Z</time>
      </trkpt>
      <trkpt lat="43.329105" lon="-5.844329">
        <ele>216.264</ele>
        <time>1999-07-21T15:52:25Z</time>
      </trkpt>
      <trkpt lat="43.329135" lon="-5.844374">
        <ele>215.472</ele>
        <time>1999-07-21T15:52:26Z</time>
      </trkpt>
      <trkpt lat="43.329230" lon="-5.844450">
        <ele>215.093</ele>
        <time>1999-07-21T15:52:28Z</time>
      </trkpt>
      <trkpt lat="43.329334" lon="-5.844517">
        <ele>214.679</ele>
        <time>1999-07-21T15:52:30Z</time>
      </trkpt>
      <trkpt lat="43.329382" lon="-5.844558">
        <ele>214.455</ele>
        <time>1999-07-21T15:52:31Z</time>
      </trkpt>
      <trkpt lat="43.329436" lon="-5.844619">
        <ele>214.407</ele>
        <time>1999-07-21T15:52:32Z</time>
      </trkpt>
      <trkpt lat="43.329492" lon="-5.844690">
        <ele>214.417</ele>
        <time>1999-07-21T15:52:33Z</time>
      </trkpt>
      <trkpt lat="43.329552" lon="-5.844761">
        <ele>214.408</ele>
        <time>1999-07-21T15:52:34Z</time>
      </trkpt>
      <trkpt lat="43.329617" lon="-5.844820">
        <ele>214.458</ele>
        <time>1999-07-21T15:52:35Z</time>
      </trkpt>
      <trkpt lat="43.329769" lon="-5.844909">
        <ele>214.233</ele>
        <time>1999-07-21T15:52:37Z</time>
      </trkpt>
      <trkpt lat="43.330025" lon="-5.845021">
        <ele>213.893</ele>
        <time>1999-07-21T15:52:41Z</time>
      </trkpt>
      <trkpt lat="43.330080" lon="-5.845039">
        <ele>213.494</ele>
        <time>1999-07-21T15:52:42Z</time>
      </trkpt>
      <trkpt lat="43.330133" lon="-5.845069">
        <ele>212.872</ele>
        <time>1999-07-21T15:52:43Z</time>
      </trkpt>
      <trkpt lat="43.330190" lon="-5.845105">
        <ele>212.070</ele>
        <time>1999-07-21T15:52:44Z</time>
      </trkpt>
      <trkpt lat="43.330240" lon="-5.845152">
        <ele>211.291</ele>
        <time>1999-07-21T15:52:45Z</time>
      </trkpt>
      <trkpt lat="43.330292" lon="-5.845201">
        <ele>210.487</ele>
        <time>1999-07-21T15:52:46Z</time>
      </trkpt>
      <trkpt lat="43.330417" lon="-5.845283">
        <ele>208.854</ele>
        <time>1999-07-21T15:52:48Z</time>
      </trkpt>
      <trkpt lat="43.330465" lon="-5.845325">
        <ele>208.056</ele>
        <time>1999-07-21T15:52:49Z</time>
      </trkpt>
      <trkpt lat="43.330504" lon="-5.845378">
        <ele>207.411</ele>
        <time>1999-07-21T15:52:50Z</time>
      </trkpt>
      <trkpt lat="43.330526" lon="-5.845482">
        <ele>206.208</ele>
        <time>1999-07-21T15:52:52Z</time>
      </trkpt>
      <trkpt lat="43.330524" lon="-5.845522">
        <ele>205.828</ele>
        <time>1999-07-21T15:52:53Z</time>
      </trkpt>
      <trkpt lat="43.330520" lon="-5.845553">
        <ele>205.623</ele>
        <time>1999-07-21T15:52:54Z</time>
      </trkpt>
      <trkpt lat="43.330526" lon="-5.845596">
        <ele>205.663</ele>
        <time>1999-07-21T15:52:56Z</time>
      </trkpt>
      <trkpt lat="43.330527" lon="-5.845612">
        <ele>205.454</ele>
        <time>1999-07-21T15:52:57Z</time>
      </trkpt>
      <trkpt lat="43.330525" lon="-5.845644">
        <ele>205.452</ele>
        <time>1999-07-21T15:52:59Z</time>
      </trkpt>
      <trkpt lat="43.330526" lon="-5.845691">
        <ele>205.440</ele>
        <time>1999-07-21T15:53:01Z</time>
      </trkpt>
      <trkpt lat="43.330528" lon="-5.845723">
        <ele>205.621</ele>
        <time>1999-07-21T15:53:02Z</time>
      </trkpt>
      <trkpt lat="43.330518" lon="-5.845804">
        <ele>206.287</ele>
        <time>1999-07-21T15:53:04Z</time>
      </trkpt>
      <trkpt lat="43.330502" lon="-5.845896">
        <ele>206.669</ele>
        <time>1999-07-21T15:53:06Z</time>
      </trkpt>
      <trkpt lat="43.330493" lon="-5.845940">
        <ele>206.604</ele>
        <time>1999-07-21T15:53:07Z</time>
      </trkpt>
      <trkpt lat="43.330485" lon="-5.846023">
        <ele>207.024</ele>
        <time>1999-07-21T15:53:09Z</time>
      </trkpt>
      <trkpt lat="43.330483" lon="-5.846061">
        <ele>207.208</ele>
        <time>1999-07-21T15:53:10Z</time>
      </trkpt>
      <trkpt lat="43.330461" lon="-5.846136">
        <ele>207.899</ele>
        <time>1999-07-21T15:53:12Z</time>
      </trkpt>
      <trkpt lat="43.330441" lon="-5.846222">
        <ele>208.644</ele>
        <time>1999-07-21T15:53:14Z</time>
      </trkpt>
      <trkpt lat="43.330417" lon="-5.846357">
        <ele>209.864</ele>
        <time>1999-07-21T15:53:17Z</time>
      </trkpt>
      <trkpt lat="43.330414" lon="-5.846490">
        <ele>211.095</ele>
        <time>1999-07-21T15:53:20Z</time>
      </trkpt>
      <trkpt lat="43.330423" lon="-5.846570">
        <ele>211.633</ele>
        <time>1999-07-21T15:53:22Z</time>
      </trkpt>
      <trkpt lat="43.330430" lon="-5.846602">
        <ele>212.051</ele>
        <time>1999-07-21T15:53:23Z</time>
      </trkpt>
      <trkpt lat="43.330447" lon="-5.846684">
        <ele>213.242</ele>
        <time>1999-07-21T15:53:26Z</time>
      </trkpt>
      <trkpt lat="43.330464" lon="-5.846764">
        <ele>214.848</ele>
        <time>1999-07-21T15:53:29Z</time>
      </trkpt>
      <trkpt lat="43.330503" lon="-5.846844">
        <ele>215.881</ele>
        <time>1999-07-21T15:53:32Z</time>
      </trkpt>
      <trkpt lat="43.330542" lon="-5.846878">
        <ele>216.461</ele>
        <time>1999-07-21T15:53:34Z</time>
      </trkpt>
      <trkpt lat="43.330562" lon="-5.846886">
        <ele>216.817</ele>
        <time>1999-07-21T15:53:35Z</time>
      </trkpt>
      <trkpt lat="43.330619" lon="-5.846887">
        <ele>218.008</ele>
        <time>1999-07-21T15:53:38Z</time>
      </trkpt>
      <trkpt lat="43.330639" lon="-5.846879">
        <ele>218.221</ele>
        <time>1999-07-21T15:53:39Z</time>
      </trkpt>
      <trkpt lat="43.330692" lon="-5.846861">
        <ele>219.236</ele>
        <time>1999-07-21T15:53:42Z</time>
      </trkpt>
      <trkpt lat="43.330761" lon="-5.846839">
        <ele>220.466</ele>
        <time>1999-07-21T15:53:46Z</time>
      </trkpt>
      <trkpt lat="43.330780" lon="-5.846832">
        <ele>220.697</ele>
        <time>1999-07-21T15:53:47Z</time>
      </trkpt>
      <trkpt lat="43.330811" lon="-5.846812">
        <ele>221.065</ele>
        <time>1999-07-21T15:53:49Z</time>
      </trkpt>
      <trkpt lat="43.330826" lon="-5.846798">
        <ele>221.433</ele>
        <time>1999-07-21T15:53:50Z</time>
      </trkpt>
      <trkpt lat="43.330860" lon="-5.846778">
        <ele>222.054</ele>
        <time>1999-07-21T15:53:52Z</time>
      </trkpt>
      <trkpt lat="43.330895" lon="-5.846752">
        <ele>222.840</ele>
        <time>1999-07-21T15:53:54Z</time>
      </trkpt>
      <trkpt lat="43.330963" lon="-5.846713">
        <ele>224.014</ele>
        <time>1999-07-21T15:53:58Z</time>
      </trkpt>
      <trkpt lat="43.331000" lon="-5.846693">
        <ele>224.654</ele>
        <time>1999-07-21T15:54:00Z</time>
      </trkpt>
      <trkpt lat="43.331039" lon="-5.846675">
        <ele>225.209</ele>
        <time>1999-07-21T15:54:02Z</time>
      </trkpt>
      <trkpt lat="43.331125" lon="-5.846620">
        <ele>226.408</ele>
        <time>1999-07-21T15:54:07Z</time>
      </trkpt>
      <trkpt lat="43.331144" lon="-5.846611">
        <ele>226.854</ele>
        <time>1999-07-21T15:54:08Z</time>
      </trkpt>
      <trkpt lat="43.331195" lon="-5.846592">
        <ele>227.869</ele>
        <time>1999-07-21T15:54:11Z</time>
      </trkpt>
      <trkpt lat="43.331263" lon="-5.846541">
        <ele>228.819</ele>
        <time>1999-07-21T15:54:15Z</time>
      </trkpt>
      <trkpt lat="43.331279" lon="-5.846525">
        <ele>229.040</ele>
        <time>1999-07-21T15:54:16Z</time>
      </trkpt>
      <trkpt lat="43.331374" lon="-5.846426">
        <ele>230.238</ele>
        <time>1999-07-21T15:54:22Z</time>
      </trkpt>
      <trkpt lat="43.331392" lon="-5.846410">
        <ele>230.436</ele>
        <time>1999-07-21T15:54:23Z</time>
      </trkpt>
      <trkpt lat="43.331476" lon="-5.846322">
        <ele>231.247</ele>
        <time>1999-07-21T15:54:28Z</time>
      </trkpt>
      <trkpt lat="43.331510" lon="-5.846287">
        <ele>231.443</ele>
        <time>1999-07-21T15:54:30Z</time>
      </trkpt>
      <trkpt lat="43.331555" lon="-5.846237">
        <ele>231.884</ele>
        <time>1999-07-21T15:54:33Z</time>
      </trkpt>
      <trkpt lat="43.331602" lon="-5.846188">
        <ele>232.207</ele>
        <time>1999-07-21T15:54:36Z</time>
      </trkpt>
      <trkpt lat="43.331618" lon="-5.846168">
        <ele>232.417</ele>
        <time>1999-07-21T15:54:37Z</time>
      </trkpt>
      <trkpt lat="43.331705" lon="-5.846044">
        <ele>233.208</ele>
        <time>1999-07-21T15:54:43Z</time>
      </trkpt>
      <trkpt lat="43.331748" lon="-5.845978">
        <ele>233.851</ele>
        <time>1999-07-21T15:54:46Z</time>
      </trkpt>
      <trkpt lat="43.331811" lon="-5.845889">
        <ele>234.496</ele>
        <time>1999-07-21T15:54:50Z</time>
      </trkpt>
      <trkpt lat="43.331880" lon="-5.845801">
        <ele>235.066</ele>
        <time>1999-07-21T15:54:54Z</time>
      </trkpt>
      <trkpt lat="43.331932" lon="-5.845736">
        <ele>235.457</ele>
        <time>1999-07-21T15:54:57Z</time>
      </trkpt>
      <trkpt lat="43.332025" lon="-5.845621">
        <ele>236.285</ele>
        <time>1999-07-21T15:55:02Z</time>
      </trkpt>
      <trkpt lat="43.332057" lon="-5.845573">
        <ele>236.673</ele>
        <time>1999-07-21T15:55:04Z</time>
      </trkpt>
      <trkpt lat="43.332124" lon="-5.845485">
        <ele>237.844</ele>
        <time>1999-07-21T15:55:08Z</time>
      </trkpt>
      <trkpt lat="43.332140" lon="-5.845462">
        <ele>238.050</ele>
        <time>1999-07-21T15:55:09Z</time>
      </trkpt>
      <trkpt lat="43.332232" lon="-5.845363">
        <ele>238.861</ele>
        <time>1999-07-21T15:55:14Z</time>
      </trkpt>
      <trkpt lat="43.332341" lon="-5.845268">
        <ele>239.821</ele>
        <time>1999-07-21T15:55:19Z</time>
      </trkpt>
      <trkpt lat="43.332363" lon="-5.845250">
        <ele>240.013</ele>
        <time>1999-07-21T15:55:20Z</time>
      </trkpt>
      <trkpt lat="43.332456" lon="-5.845197">
        <ele>241.008</ele>
        <time>1999-07-21T15:55:24Z</time>
      </trkpt>
      <trkpt lat="43.332527" lon="-5.845177">
        <ele>241.629</ele>
        <time>1999-07-21T15:55:27Z</time>
      </trkpt>
      <trkpt lat="43.332595" lon="-5.845166">
        <ele>242.234</ele>
        <time>1999-07-21T15:55:30Z</time>
      </trkpt>
      <trkpt lat="43.332691" lon="-5.845178">
        <ele>243.264</ele>
        <time>1999-07-21T15:55:34Z</time>
      </trkpt>
      <trkpt lat="43.332716" lon="-5.845177">
        <ele>243.415</ele>
        <time>1999-07-21T15:55:35Z</time>
      </trkpt>
      <trkpt lat="43.332819" lon="-5.845196">
        <ele>244.643</ele>
        <time>1999-07-21T15:55:39Z</time>
      </trkpt>
      <trkpt lat="43.332863" lon="-5.845216">
        <ele>245.421</ele>
        <time>1999-07-21T15:55:41Z</time>
      </trkpt>
      <trkpt lat="43.332884" lon="-5.845226">
        <ele>245.692</ele>
        <time>1999-07-21T15:55:42Z</time>
      </trkpt>
      <trkpt lat="43.332949" lon="-5.845246">
        <ele>246.678</ele>
        <time>1999-07-21T15:55:45Z</time>
      </trkpt>
      <trkpt lat="43.332970" lon="-5.845255">
        <ele>247.267</ele>
        <time>1999-07-21T15:55:46Z</time>
      </trkpt>
      <trkpt lat="43.333011" lon="-5.845263">
        <ele>247.881</ele>
        <time>1999-07-21T15:55:48Z</time>
      </trkpt>
      <trkpt lat="43.333084" lon="-5.845296">
        <ele>248.419</ele>
        <time>1999-07-21T15:55:52Z</time>
      </trkpt>
      <trkpt lat="43.333105" lon="-5.845306">
        <ele>248.808</ele>
        <time>1999-07-21T15:55:53Z</time>
      </trkpt>
      <trkpt lat="43.333224" lon="-5.845371">
        <ele>249.869</ele>
        <time>1999-07-21T15:55:59Z</time>
      </trkpt>
      <trkpt lat="43.333247" lon="-5.845381">
        <ele>250.094</ele>
        <time>1999-07-21T15:56:00Z</time>
      </trkpt>
      <trkpt lat="43.333341" lon="-5.845402">
        <ele>251.034</ele>
        <time>1999-07-21T15:56:04Z</time>
      </trkpt>
      <trkpt lat="43.333419" lon="-5.845401">
        <ele>251.615</ele>
        <time>1999-07-21T15:56:07Z</time>
      </trkpt>
      <trkpt lat="43.333518" lon="-5.845406">
        <ele>252.023</ele>
        <time>1999-07-21T15:56:11Z</time>
      </trkpt>
      <trkpt lat="43.333642" lon="-5.845402">
        <ele>253.031</ele>
        <time>1999-07-21T15:56:16Z</time>
      </trkpt>
      <trkpt lat="43.333665" lon="-5.845403">
        <ele>253.222</ele>
        <time>1999-07-21T15:56:17Z</time>
      </trkpt>
      <trkpt lat="43.333735" lon="-5.845406">
        <ele>253.438</ele>
        <time>1999-07-21T15:56:20Z</time>
      </trkpt>
      <trkpt lat="43.333854" lon="-5.845406">
        <ele>254.096</ele>
        <time>1999-07-21T15:56:25Z</time>
      </trkpt>
      <trkpt lat="43.333926" lon="-5.845414">
        <ele>254.431</ele>
        <time>1999-07-21T15:56:28Z</time>
      </trkpt>
      <trkpt lat="43.334044" lon="-5.845430">
        <ele>255.024</ele>
        <time>1999-07-21T15:56:33Z</time>
      </trkpt>
      <trkpt lat="43.334070" lon="-5.845435">
        <ele>255.208</ele>
        <time>1999-07-21T15:56:34Z</time>
      </trkpt>
      <trkpt lat="43.334096" lon="-5.845440">
        <ele>255.432</ele>
        <time>1999-07-21T15:56:35Z</time>
      </trkpt>
      <trkpt lat="43.334243" lon="-5.845482">
        <ele>256.037</ele>
        <time>1999-07-21T15:56:41Z</time>
      </trkpt>
      <trkpt lat="43.334292" lon="-5.845502">
        <ele>256.677</ele>
        <time>1999-07-21T15:56:43Z</time>
      </trkpt>
      <trkpt lat="43.334450" lon="-5.845566">
        <ele>258.048</ele>
        <time>1999-07-21T15:56:50Z</time>
      </trkpt>
      <trkpt lat="43.334497" lon="-5.845584">
        <ele>258.466</ele>
        <time>1999-07-21T15:56:52Z</time>
      </trkpt>
      <trkpt lat="43.334589" lon="-5.845607">
        <ele>259.074</ele>
        <time>1999-07-21T15:56:56Z</time>
      </trkpt>
      <trkpt lat="43.334661" lon="-5.845626">
        <ele>259.475</ele>
        <time>1999-07-21T15:56:59Z</time>
      </trkpt>
      <trkpt lat="43.334808" lon="-5.845664">
        <ele>260.081</ele>
        <time>1999-07-21T15:57:05Z</time>
      </trkpt>
      <trkpt lat="43.334858" lon="-5.845675">
        <ele>260.481</ele>
        <time>1999-07-21T15:57:07Z</time>
      </trkpt>
      <trkpt lat="43.334961" lon="-5.845673">
        <ele>261.261</ele>
        <time>1999-07-21T15:57:11Z</time>
      </trkpt>
      <trkpt lat="43.335041" lon="-5.845669">
        <ele>261.617</ele>
        <time>1999-07-21T15:57:14Z</time>
      </trkpt>
      <trkpt lat="43.335165" lon="-5.845661">
        <ele>262.408</ele>
        <time>1999-07-21T15:57:19Z</time>
      </trkpt>
      <trkpt lat="43.335250" lon="-5.845650">
        <ele>263.061</ele>
        <time>1999-07-21T15:57:23Z</time>
      </trkpt>
      <trkpt lat="43.335290" lon="-5.845650">
        <ele>263.456</ele>
        <time>1999-07-21T15:57:25Z</time>
      </trkpt>
      <trkpt lat="43.335384" lon="-5.845652">
        <ele>264.646</ele>
        <time>1999-07-21T15:57:30Z</time>
      </trkpt>
      <trkpt lat="43.335417" lon="-5.845655">
        <ele>265.457</ele>
        <time>1999-07-21T15:57:32Z</time>
      </trkpt>
      <trkpt lat="43.335450" lon="-5.845636">
        <ele>265.885</ele>
        <time>1999-07-21T15:57:34Z</time>
      </trkpt>
      <trkpt lat="43.335489" lon="-5.845640">
        <ele>266.443</ele>
        <time>1999-07-21T15:57:36Z</time>
      </trkpt>
      <trkpt lat="43.335517" lon="-5.845673">
        <ele>267.234</ele>
        <time>1999-07-21T15:57:38Z</time>
      </trkpt>
      <trkpt lat="43.335551" lon="-5.845677">
        <ele>268.280</ele>
        <time>1999-07-21T15:57:40Z</time>
      </trkpt>
      <trkpt lat="43.335567" lon="-5.845666">
        <ele>268.463</ele>
        <time>1999-07-21T15:57:41Z</time>
      </trkpt>
      <trkpt lat="43.335585" lon="-5.845663">
        <ele>268.844</ele>
        <time>1999-07-21T15:57:42Z</time>
      </trkpt>
      <trkpt lat="43.335614" lon="-5.845700">
        <ele>269.418</ele>
        <time>1999-07-21T15:57:44Z</time>
      </trkpt>
      <trkpt lat="43.335624" lon="-5.845725">
        <ele>269.808</ele>
        <time>1999-07-21T15:57:45Z</time>
      </trkpt>
      <trkpt lat="43.335674" lon="-5.845745">
        <ele>270.859</ele>
        <time>1999-07-21T15:57:48Z</time>
      </trkpt>
      <trkpt lat="43.335693" lon="-5.845756">
        <ele>271.074</ele>
        <time>1999-07-21T15:57:49Z</time>
      </trkpt>
      <trkpt lat="43.335713" lon="-5.845823">
        <ele>272.284</ele>
        <time>1999-07-21T15:57:52Z</time>
      </trkpt>
      <trkpt lat="43.335724" lon="-5.845934">
        <ele>273.415</ele>
        <time>1999-07-21T15:57:56Z</time>
      </trkpt>
      <trkpt lat="43.335746" lon="-5.846009">
        <ele>274.213</ele>
        <time>1999-07-21T15:57:59Z</time>
      </trkpt>
      <trkpt lat="43.335751" lon="-5.846031">
        <ele>274.471</ele>
        <time>1999-07-21T15:58:00Z</time>
      </trkpt>
      <trkpt lat="43.335776" lon="-5.846106">
        <ele>275.692</ele>
        <time>1999-07-21T15:58:04Z</time>
      </trkpt>
      <trkpt lat="43.335779" lon="-5.846130">
        <ele>275.898</ele>
        <time>1999-07-21T15:58:05Z</time>
      </trkpt>
      <trkpt lat="43.335791" lon="-5.846209">
        <ele>277.087</ele>
        <time>1999-07-21T15:58:08Z</time>
      </trkpt>
      <trkpt lat="43.335817" lon="-5.846277">
        <ele>277.842</ele>
        <time>1999-07-21T15:58:11Z</time>
      </trkpt>
      <trkpt lat="43.335824" lon="-5.846303">
        <ele>278.026</ele>
        <time>1999-07-21T15:58:12Z</time>
      </trkpt>
      <trkpt lat="43.335846" lon="-5.846414">
        <ele>279.208</ele>
        <time>1999-07-21T15:58:16Z</time>
      </trkpt>
      <trkpt lat="43.335877" lon="-5.846552">
        <ele>280.451</ele>
        <time>1999-07-21T15:58:21Z</time>
      </trkpt>
      <trkpt lat="43.335926" lon="-5.846704">
        <ele>281.676</ele>
        <time>1999-07-21T15:58:27Z</time>
      </trkpt>
      <trkpt lat="43.335970" lon="-5.846798">
        <ele>282.676</ele>
        <time>1999-07-21T15:58:31Z</time>
      </trkpt>
      <trkpt lat="43.335980" lon="-5.846823">
        <ele>283.097</ele>
        <time>1999-07-21T15:58:32Z</time>
      </trkpt>
      <trkpt lat="43.335998" lon="-5.846876">
        <ele>283.885</ele>
        <time>1999-07-21T15:58:34Z</time>
      </trkpt>
      <trkpt lat="43.336042" lon="-5.846936">
        <ele>284.873</ele>
        <time>1999-07-21T15:58:37Z</time>
      </trkpt>
      <trkpt lat="43.336063" lon="-5.846942">
        <ele>285.244</ele>
        <time>1999-07-21T15:58:38Z</time>
      </trkpt>
      <trkpt lat="43.336153" lon="-5.846948">
        <ele>285.860</ele>
        <time>1999-07-21T15:58:42Z</time>
      </trkpt>
      <trkpt lat="43.336241" lon="-5.846954">
        <ele>287.065</ele>
        <time>1999-07-21T15:58:46Z</time>
      </trkpt>
      <trkpt lat="43.336263" lon="-5.846957">
        <ele>287.468</ele>
        <time>1999-07-21T15:58:47Z</time>
      </trkpt>
      <trkpt lat="43.336324" lon="-5.846962">
        <ele>288.214</ele>
        <time>1999-07-21T15:58:50Z</time>
      </trkpt>
      <trkpt lat="43.336414" lon="-5.846965">
        <ele>289.408</ele>
        <time>1999-07-21T15:58:55Z</time>
      </trkpt>
      <trkpt lat="43.336522" lon="-5.846955">
        <ele>290.429</ele>
        <time>1999-07-21T15:59:00Z</time>
      </trkpt>
      <trkpt lat="43.336571" lon="-5.846957">
        <ele>291.024</ele>
        <time>1999-07-21T15:59:02Z</time>
      </trkpt>
      <trkpt lat="43.336622" lon="-5.846965">
        <ele>291.624</ele>
        <time>1999-07-21T15:59:04Z</time>
      </trkpt>
      <trkpt lat="43.336821" lon="-5.847010">
        <ele>292.685</ele>
        <time>1999-07-21T15:59:11Z</time>
      </trkpt>
      <trkpt lat="43.336894" lon="-5.847029">
        <ele>292.853</ele>
        <time>1999-07-21T15:59:13Z</time>
      </trkpt>
      <trkpt lat="43.337012" lon="-5.847056">
        <ele>293.061</ele>
        <time>1999-07-21T15:59:16Z</time>
      </trkpt>
      <trkpt lat="43.337091" lon="-5.847077">
        <ele>293.042</ele>
        <time>1999-07-21T15:59:18Z</time>
      </trkpt>
      <trkpt lat="43.337342" lon="-5.847150">
        <ele>293.218</ele>
        <time>1999-07-21T15:59:24Z</time>
      </trkpt>
      <trkpt lat="43.337421" lon="-5.847158">
        <ele>293.296</ele>
        <time>1999-07-21T15:59:26Z</time>
      </trkpt>
      <trkpt lat="43.337503" lon="-5.847159">
        <ele>293.231</ele>
        <time>1999-07-21T15:59:28Z</time>
      </trkpt>
      <trkpt lat="43.337698" lon="-5.847109">
        <ele>293.424</ele>
        <time>1999-07-21T15:59:33Z</time>
      </trkpt>
      <trkpt lat="43.337737" lon="-5.847094">
        <ele>294.008</ele>
        <time>1999-07-21T15:59:34Z</time>
      </trkpt>
      <trkpt lat="43.337971" lon="-5.846973">
        <ele>294.642</ele>
        <time>1999-07-21T15:59:40Z</time>
      </trkpt>
      <trkpt lat="43.338166" lon="-5.846893">
        <ele>295.047</ele>
        <time>1999-07-21T15:59:45Z</time>
      </trkpt>
      <trkpt lat="43.338314" lon="-5.846843">
        <ele>295.677</ele>
        <time>1999-07-21T15:59:49Z</time>
      </trkpt>
      <trkpt lat="43.338482" lon="-5.846740">
        <ele>296.098</ele>
        <time>1999-07-21T15:59:54Z</time>
      </trkpt>
      <trkpt lat="43.338513" lon="-5.846710">
        <ele>296.256</ele>
        <time>1999-07-21T15:59:55Z</time>
      </trkpt>
      <trkpt lat="43.338681" lon="-5.846519">
        <ele>296.874</ele>
        <time>1999-07-21T16:00:01Z</time>
      </trkpt>
      <trkpt lat="43.338733" lon="-5.846475">
        <ele>297.085</ele>
        <time>1999-07-21T16:00:03Z</time>
      </trkpt>
      <trkpt lat="43.338884" lon="-5.846392">
        <ele>297.861</ele>
        <time>1999-07-21T16:00:08Z</time>
      </trkpt>
      <trkpt lat="43.338913" lon="-5.846389">
        <ele>298.053</ele>
        <time>1999-07-21T16:00:09Z</time>
      </trkpt>
      <trkpt lat="43.338939" lon="-5.846390">
        <ele>298.004</ele>
        <time>1999-07-21T16:00:10Z</time>
      </trkpt>
      <trkpt lat="43.339018" lon="-5.846387">
        <ele>299.214</ele>
        <time>1999-07-21T16:00:14Z</time>
      </trkpt>
      <trkpt lat="43.339070" lon="-5.846371">
        <ele>300.408</ele>
        <time>1999-07-21T16:00:17Z</time>
      </trkpt>
      <trkpt lat="43.339098" lon="-5.846325">
        <ele>300.858</ele>
        <time>1999-07-21T16:00:19Z</time>
      </trkpt>
      <trkpt lat="43.339167" lon="-5.846230">
        <ele>301.693</ele>
        <time>1999-07-21T16:00:23Z</time>
      </trkpt>
      <trkpt lat="43.339221" lon="-5.846160">
        <ele>302.843</ele>
        <time>1999-07-21T16:00:26Z</time>
      </trkpt>
      <trkpt lat="43.339296" lon="-5.846066">
        <ele>304.014</ele>
        <time>1999-07-21T16:00:30Z</time>
      </trkpt>
      <trkpt lat="43.339378" lon="-5.845967">
        <ele>304.442</ele>
        <time>1999-07-21T16:00:34Z</time>
      </trkpt>
      <trkpt lat="43.339500" lon="-5.845787">
        <ele>305.240</ele>
        <time>1999-07-21T16:00:40Z</time>
      </trkpt>
      <trkpt lat="43.339539" lon="-5.845724">
        <ele>305.611</ele>
        <time>1999-07-21T16:00:42Z</time>
      </trkpt>
      <trkpt lat="43.339610" lon="-5.845600">
        <ele>306.267</ele>
        <time>1999-07-21T16:00:46Z</time>
      </trkpt>
      <trkpt lat="43.339638" lon="-5.845535">
        <ele>306.677</ele>
        <time>1999-07-21T16:00:48Z</time>
      </trkpt>
      <trkpt lat="43.339688" lon="-5.845400">
        <ele>307.261</ele>
        <time>1999-07-21T16:00:52Z</time>
      </trkpt>
      <trkpt lat="43.339735" lon="-5.845290">
        <ele>307.827</ele>
        <time>1999-07-21T16:00:56Z</time>
      </trkpt>
      <trkpt lat="43.339822" lon="-5.845149">
        <ele>308.208</ele>
        <time>1999-07-21T16:01:00Z</time>
      </trkpt>
      <trkpt lat="43.339875" lon="-5.845073">
        <ele>308.630</ele>
        <time>1999-07-21T16:01:02Z</time>
      </trkpt>
      <trkpt lat="43.340018" lon="-5.844938">
        <ele>309.275</ele>
        <time>1999-07-21T16:01:07Z</time>
      </trkpt>
      <trkpt lat="43.340079" lon="-5.844889">
        <ele>309.495</ele>
        <time>1999-07-21T16:01:09Z</time>
      </trkpt>
      <trkpt lat="43.340234" lon="-5.844780">
        <ele>310.646</ele>
        <time>1999-07-21T16:01:14Z</time>
      </trkpt>
      <trkpt lat="43.340369" lon="-5.844673">
        <ele>311.884</ele>
        <time>1999-07-21T16:01:19Z</time>
      </trkpt>
      <trkpt lat="43.340399" lon="-5.844653">
        <ele>311.882</ele>
        <time>1999-07-21T16:01:20Z</time>
      </trkpt>
      <trkpt lat="43.340511" lon="-5.844594">
        <ele>312.843</ele>
        <time>1999-07-21T16:01:24Z</time>
      </trkpt>
      <trkpt lat="43.340542" lon="-5.844580">
        <ele>313.229</ele>
        <time>1999-07-21T16:01:25Z</time>
      </trkpt>
      <trkpt lat="43.340633" lon="-5.844538">
        <ele>314.048</ele>
        <time>1999-07-21T16:01:28Z</time>
      </trkpt>
      <trkpt lat="43.340768" lon="-5.844487">
        <ele>314.861</ele>
        <time>1999-07-21T16:01:32Z</time>
      </trkpt>
      <trkpt lat="43.340805" lon="-5.844480">
        <ele>315.017</ele>
        <time>1999-07-21T16:01:33Z</time>
      </trkpt>
      <trkpt lat="43.340892" lon="-5.844476">
        <ele>315.208</ele>
        <time>1999-07-21T16:01:35Z</time>
      </trkpt>
      <trkpt lat="43.340938" lon="-5.844477">
        <ele>315.267</ele>
        <time>1999-07-21T16:01:36Z</time>
      </trkpt>
      <trkpt lat="43.341142" lon="-5.844424">
        <ele>315.472</ele>
        <time>1999-07-21T16:01:41Z</time>
      </trkpt>
      <trkpt lat="43.341310" lon="-5.844368">
        <ele>315.422</ele>
        <time>1999-07-21T16:01:45Z</time>
      </trkpt>
      <trkpt lat="43.341462" lon="-5.844338">
        <ele>315.813</ele>
        <time>1999-07-21T16:01:49Z</time>
      </trkpt>
      <trkpt lat="43.341532" lon="-5.844322">
        <ele>315.841</ele>
        <time>1999-07-21T16:01:51Z</time>
      </trkpt>
      <trkpt lat="43.341589" lon="-5.844299">
        <ele>316.089</ele>
        <time>1999-07-21T16:01:53Z</time>
      </trkpt>
      <trkpt lat="43.341609" lon="-5.844285">
        <ele>316.030</ele>
        <time>1999-07-21T16:01:54Z</time>
      </trkpt>
      <trkpt lat="43.341625" lon="-5.844268">
        <ele>316.066</ele>
        <time>1999-07-21T16:01:55Z</time>
      </trkpt>
      <trkpt lat="43.341642" lon="-5.844261">
        <ele>316.089</ele>
        <time>1999-07-21T16:01:56Z</time>
      </trkpt>
      <trkpt lat="43.341660" lon="-5.844282">
        <ele>316.206</ele>
        <time>1999-07-21T16:01:58Z</time>
      </trkpt>
      <trkpt lat="43.341653" lon="-5.844290">
        <ele>316.226</ele>
        <time>1999-07-21T16:01:59Z</time>
      </trkpt>
      <trkpt lat="43.341602" lon="-5.844290">
        <ele>316.208</ele>
        <time>1999-07-21T16:02:02Z</time>
      </trkpt>
      <trkpt lat="43.341548" lon="-5.844356">
        <ele>316.261</ele>
        <time>1999-07-21T16:02:05Z</time>
      </trkpt>
      <trkpt lat="43.341552" lon="-5.844398">
        <ele>316.236</ele>
        <time>1999-07-21T16:02:06Z</time>
      </trkpt>
      <trkpt lat="43.341655" lon="-5.844510">
        <ele>316.246</ele>
        <time>1999-07-21T16:02:09Z</time>
      </trkpt>
      <trkpt lat="43.341896" lon="-5.844731">
        <ele>315.677</ele>
        <time>1999-07-21T16:02:14Z</time>
      </trkpt>
      <trkpt lat="43.341949" lon="-5.844769">
        <ele>315.425</ele>
        <time>1999-07-21T16:02:15Z</time>
      </trkpt>
      <trkpt lat="43.342043" lon="-5.844811">
        <ele>315.073</ele>
        <time>1999-07-21T16:02:17Z</time>
      </trkpt>
      <trkpt lat="43.342083" lon="-5.844832">
        <ele>314.814</ele>
        <time>1999-07-21T16:02:18Z</time>
      </trkpt>
      <trkpt lat="43.342126" lon="-5.844851">
        <ele>314.640</ele>
        <time>1999-07-21T16:02:19Z</time>
      </trkpt>
      <trkpt lat="43.342227" lon="-5.844884">
        <ele>313.812</ele>
        <time>1999-07-21T16:02:21Z</time>
      </trkpt>
      <trkpt lat="43.342345" lon="-5.844876">
        <ele>313.032</ele>
        <time>1999-07-21T16:02:23Z</time>
      </trkpt>
      <trkpt lat="43.342403" lon="-5.844868">
        <ele>312.805</ele>
        <time>1999-07-21T16:02:24Z</time>
      </trkpt>
      <trkpt lat="43.342575" lon="-5.844812">
        <ele>312.208</ele>
        <time>1999-07-21T16:02:27Z</time>
      </trkpt>
      <trkpt lat="43.342674" lon="-5.844740">
        <ele>311.814</ele>
        <time>1999-07-21T16:02:29Z</time>
      </trkpt>
      <trkpt lat="43.342719" lon="-5.844696">
        <ele>311.249</ele>
        <time>1999-07-21T16:02:30Z</time>
      </trkpt>
      <trkpt lat="43.342809" lon="-5.844598">
        <ele>310.699</ele>
        <time>1999-07-21T16:02:32Z</time>
      </trkpt>
      <trkpt lat="43.342951" lon="-5.844445">
        <ele>310.410</ele>
        <time>1999-07-21T16:02:35Z</time>
      </trkpt>
      <trkpt lat="43.342993" lon="-5.844410">
        <ele>310.058</ele>
        <time>1999-07-21T16:02:36Z</time>
      </trkpt>
      <trkpt lat="43.343054" lon="-5.844380">
        <ele>309.896</ele>
        <time>1999-07-21T16:02:38Z</time>
      </trkpt>
      <trkpt lat="43.343087" lon="-5.844375">
        <ele>309.677</ele>
        <time>1999-07-21T16:02:39Z</time>
      </trkpt>
      <trkpt lat="43.343162" lon="-5.844349">
        <ele>309.493</ele>
        <time>1999-07-21T16:02:41Z</time>
      </trkpt>
      <trkpt lat="43.343199" lon="-5.844327">
        <ele>309.216</ele>
        <time>1999-07-21T16:02:42Z</time>
      </trkpt>
      <trkpt lat="43.343239" lon="-5.844298">
        <ele>308.876</ele>
        <time>1999-07-21T16:02:43Z</time>
      </trkpt>
      <trkpt lat="43.343334" lon="-5.844236">
        <ele>307.413</ele>
        <time>1999-07-21T16:02:45Z</time>
      </trkpt>
      <trkpt lat="43.343441" lon="-5.844181">
        <ele>306.208</ele>
        <time>1999-07-21T16:02:47Z</time>
      </trkpt>
      <trkpt lat="43.343620" lon="-5.844122">
        <ele>306.044</ele>
        <time>1999-07-21T16:02:50Z</time>
      </trkpt>
      <trkpt lat="43.343686" lon="-5.844116">
        <ele>306.029</ele>
        <time>1999-07-21T16:02:51Z</time>
      </trkpt>
      <trkpt lat="43.343754" lon="-5.844115">
        <ele>306.079</ele>
        <time>1999-07-21T16:02:52Z</time>
      </trkpt>
      <trkpt lat="43.344149" lon="-5.844171">
        <ele>305.490</ele>
        <time>1999-07-21T16:02:58Z</time>
      </trkpt>
      <trkpt lat="43.344213" lon="-5.844178">
        <ele>305.248</ele>
        <time>1999-07-21T16:02:59Z</time>
      </trkpt>
      <trkpt lat="43.344338" lon="-5.844179">
        <ele>304.846</ele>
        <time>1999-07-21T16:03:01Z</time>
      </trkpt>
      <trkpt lat="43.344532" lon="-5.844143">
        <ele>304.427</ele>
        <time>1999-07-21T16:03:04Z</time>
      </trkpt>
      <trkpt lat="43.344664" lon="-5.844101">
        <ele>304.063</ele>
        <time>1999-07-21T16:03:06Z</time>
      </trkpt>
      <trkpt lat="43.344798" lon="-5.844052">
        <ele>303.687</ele>
        <time>1999-07-21T16:03:08Z</time>
      </trkpt>
      <trkpt lat="43.344935" lon="-5.844009">
        <ele>303.042</ele>
        <time>1999-07-21T16:03:10Z</time>
      </trkpt>
      <trkpt lat="43.345005" lon="-5.843991">
        <ele>303.026</ele>
        <time>1999-07-21T16:03:11Z</time>
      </trkpt>
      <trkpt lat="43.345076" lon="-5.843981">
        <ele>302.608</ele>
        <time>1999-07-21T16:03:12Z</time>
      </trkpt>
      <trkpt lat="43.345289" lon="-5.843989">
        <ele>301.471</ele>
        <time>1999-07-21T16:03:15Z</time>
      </trkpt>
      <trkpt lat="43.345359" lon="-5.844008">
        <ele>301.046</ele>
        <time>1999-07-21T16:03:16Z</time>
      </trkpt>
      <trkpt lat="43.345566" lon="-5.844134">
        <ele>300.266</ele>
        <time>1999-07-21T16:03:19Z</time>
      </trkpt>
      <trkpt lat="43.345780" lon="-5.844303">
        <ele>299.817</ele>
        <time>1999-07-21T16:03:22Z</time>
      </trkpt>
      <trkpt lat="43.345928" lon="-5.844448">
        <ele>299.445</ele>
        <time>1999-07-21T16:03:24Z</time>
      </trkpt>
      <trkpt lat="43.346006" lon="-5.844534">
        <ele>299.223</ele>
        <time>1999-07-21T16:03:25Z</time>
      </trkpt>
      <trkpt lat="43.346242" lon="-5.844852">
        <ele>299.064</ele>
        <time>1999-07-21T16:03:28Z</time>
      </trkpt>
      <trkpt lat="43.346474" lon="-5.845115">
        <ele>298.020</ele>
        <time>1999-07-21T16:03:31Z</time>
      </trkpt>
      <trkpt lat="43.346557" lon="-5.845165">
        <ele>297.276</ele>
        <time>1999-07-21T16:03:32Z</time>
      </trkpt>
      <trkpt lat="43.346639" lon="-5.845199">
        <ele>296.290</ele>
        <time>1999-07-21T16:03:33Z</time>
      </trkpt>
      <trkpt lat="43.346815" lon="-5.845231">
        <ele>294.219</ele>
        <time>1999-07-21T16:03:35Z</time>
      </trkpt>
      <trkpt lat="43.346902" lon="-5.845239">
        <ele>292.808</ele>
        <time>1999-07-21T16:03:36Z</time>
      </trkpt>
      <trkpt lat="43.346990" lon="-5.845251">
        <ele>291.430</ele>
        <time>1999-07-21T16:03:37Z</time>
      </trkpt>
      <trkpt lat="43.347081" lon="-5.845265">
        <ele>289.875</ele>
        <time>1999-07-21T16:03:38Z</time>
      </trkpt>
      <trkpt lat="43.347179" lon="-5.845279">
        <ele>288.265</ele>
        <time>1999-07-21T16:03:39Z</time>
      </trkpt>
      <trkpt lat="43.347279" lon="-5.845297">
        <ele>286.646</ele>
        <time>1999-07-21T16:03:40Z</time>
      </trkpt>
      <trkpt lat="43.347382" lon="-5.845311">
        <ele>284.824</ele>
        <time>1999-07-21T16:03:41Z</time>
      </trkpt>
      <trkpt lat="43.347487" lon="-5.845318">
        <ele>283.092</ele>
        <time>1999-07-21T16:03:42Z</time>
      </trkpt>
      <trkpt lat="43.347704" lon="-5.845293">
        <ele>281.823</ele>
        <time>1999-07-21T16:03:44Z</time>
      </trkpt>
      <trkpt lat="43.347812" lon="-5.845262">
        <ele>281.079</ele>
        <time>1999-07-21T16:03:45Z</time>
      </trkpt>
      <trkpt lat="43.347926" lon="-5.845229">
        <ele>280.023</ele>
        <time>1999-07-21T16:03:46Z</time>
      </trkpt>
      <trkpt lat="43.348039" lon="-5.845200">
        <ele>279.083</ele>
        <time>1999-07-21T16:03:47Z</time>
      </trkpt>
      <trkpt lat="43.348266" lon="-5.845136">
        <ele>277.411</ele>
        <time>1999-07-21T16:03:49Z</time>
      </trkpt>
      <trkpt lat="43.348382" lon="-5.845104">
        <ele>276.608</ele>
        <time>1999-07-21T16:03:50Z</time>
      </trkpt>
      <trkpt lat="43.348499" lon="-5.845070">
        <ele>275.475</ele>
        <time>1999-07-21T16:03:51Z</time>
      </trkpt>
      <trkpt lat="43.348617" lon="-5.845031">
        <ele>274.430</ele>
        <time>1999-07-21T16:03:52Z</time>
      </trkpt>
      <trkpt lat="43.348741" lon="-5.844991">
        <ele>273.280</ele>
        <time>1999-07-21T16:03:53Z</time>
      </trkpt>
      <trkpt lat="43.348985" lon="-5.844896">
        <ele>271.221</ele>
        <time>1999-07-21T16:03:55Z</time>
      </trkpt>
      <trkpt lat="43.349095" lon="-5.844843">
        <ele>270.259</ele>
        <time>1999-07-21T16:03:56Z</time>
      </trkpt>
      <trkpt lat="43.349207" lon="-5.844791">
        <ele>269.287</ele>
        <time>1999-07-21T16:03:57Z</time>
      </trkpt>
      <trkpt lat="43.349323" lon="-5.844739">
        <ele>267.828</ele>
        <time>1999-07-21T16:03:58Z</time>
      </trkpt>
      <trkpt lat="43.349439" lon="-5.844685">
        <ele>266.484</ele>
        <time>1999-07-21T16:03:59Z</time>
      </trkpt>
      <trkpt lat="43.349678" lon="-5.844581">
        <ele>264.636</ele>
        <time>1999-07-21T16:04:01Z</time>
      </trkpt>
      <trkpt lat="43.349799" lon="-5.844527">
        <ele>263.817</ele>
        <time>1999-07-21T16:04:02Z</time>
      </trkpt>
      <trkpt lat="43.349920" lon="-5.844477">
        <ele>262.618</ele>
        <time>1999-07-21T16:04:03Z</time>
      </trkpt>
      <trkpt lat="43.350035" lon="-5.844430">
        <ele>261.208</ele>
        <time>1999-07-21T16:04:04Z</time>
      </trkpt>
      <trkpt lat="43.350138" lon="-5.844387">
        <ele>260.066</ele>
        <time>1999-07-21T16:04:05Z</time>
      </trkpt>
      <trkpt lat="43.350239" lon="-5.844350">
        <ele>259.231</ele>
        <time>1999-07-21T16:04:06Z</time>
      </trkpt>
      <trkpt lat="43.350341" lon="-5.844319">
        <ele>258.451</ele>
        <time>1999-07-21T16:04:07Z</time>
      </trkpt>
      <trkpt lat="43.350442" lon="-5.844290">
        <ele>257.062</ele>
        <time>1999-07-21T16:04:08Z</time>
      </trkpt>
      <trkpt lat="43.350536" lon="-5.844267">
        <ele>253.480</ele>
        <time>1999-07-21T16:04:09Z</time>
      </trkpt>
      <trkpt lat="43.350619" lon="-5.844243">
        <ele>252.628</ele>
        <time>1999-07-21T16:04:10Z</time>
      </trkpt>
      <trkpt lat="43.350700" lon="-5.844220">
        <ele>251.899</ele>
        <time>1999-07-21T16:04:11Z</time>
      </trkpt>
      <trkpt lat="43.350864" lon="-5.844166">
        <ele>249.645</ele>
        <time>1999-07-21T16:04:13Z</time>
      </trkpt>
      <trkpt lat="43.350951" lon="-5.844135">
        <ele>248.044</ele>
        <time>1999-07-21T16:04:14Z</time>
      </trkpt>
      <trkpt lat="43.351036" lon="-5.844104">
        <ele>246.805</ele>
        <time>1999-07-21T16:04:15Z</time>
      </trkpt>
      <trkpt lat="43.351111" lon="-5.844075">
        <ele>245.815</ele>
        <time>1999-07-21T16:04:16Z</time>
      </trkpt>
      <trkpt lat="43.351177" lon="-5.844052">
        <ele>244.608</ele>
        <time>1999-07-21T16:04:17Z</time>
      </trkpt>
      <trkpt lat="43.351235" lon="-5.844031">
        <ele>243.277</ele>
        <time>1999-07-21T16:04:18Z</time>
      </trkpt>
      <trkpt lat="43.351286" lon="-5.844008">
        <ele>242.292</ele>
        <time>1999-07-21T16:04:19Z</time>
      </trkpt>
      <trkpt lat="43.351340" lon="-5.843982">
        <ele>241.242</ele>
        <time>1999-07-21T16:04:20Z</time>
      </trkpt>
      <trkpt lat="43.351397" lon="-5.843954">
        <ele>240.233</ele>
        <time>1999-07-21T16:04:21Z</time>
      </trkpt>
      <trkpt lat="43.351501" lon="-5.843919">
        <ele>238.691</ele>
        <time>1999-07-21T16:04:23Z</time>
      </trkpt>
      <trkpt lat="43.351595" lon="-5.843899">
        <ele>236.619</ele>
        <time>1999-07-21T16:04:25Z</time>
      </trkpt>
      <trkpt lat="43.351697" lon="-5.843877">
        <ele>235.010</ele>
        <time>1999-07-21T16:04:27Z</time>
      </trkpt>
      <trkpt lat="43.351831" lon="-5.843931">
        <ele>233.896</ele>
        <time>1999-07-21T16:04:30Z</time>
      </trkpt>
      <trkpt lat="43.351877" lon="-5.843953">
        <ele>233.633</ele>
        <time>1999-07-21T16:04:31Z</time>
      </trkpt>
      <trkpt lat="43.351923" lon="-5.843978">
        <ele>233.623</ele>
        <time>1999-07-21T16:04:32Z</time>
      </trkpt>
      <trkpt lat="43.352057" lon="-5.844081">
        <ele>233.615</ele>
        <time>1999-07-21T16:04:35Z</time>
      </trkpt>
      <trkpt lat="43.352195" lon="-5.844194">
        <ele>233.608</ele>
        <time>1999-07-21T16:04:38Z</time>
      </trkpt>
      <trkpt lat="43.352437" lon="-5.844398">
        <ele>234.076</ele>
        <time>1999-07-21T16:04:44Z</time>
      </trkpt>
      <trkpt lat="43.352540" lon="-5.844475">
        <ele>234.051</ele>
        <time>1999-07-21T16:04:47Z</time>
      </trkpt>
      <trkpt lat="43.352624" lon="-5.844549">
        <ele>234.451</ele>
        <time>1999-07-21T16:04:50Z</time>
      </trkpt>
      <trkpt lat="43.352654" lon="-5.844572">
        <ele>234.452</ele>
        <time>1999-07-21T16:04:51Z</time>
      </trkpt>
      <trkpt lat="43.352686" lon="-5.844592">
        <ele>234.690</ele>
        <time>1999-07-21T16:04:52Z</time>
      </trkpt>
      <trkpt lat="43.352744" lon="-5.844638">
        <ele>235.028</ele>
        <time>1999-07-21T16:04:54Z</time>
      </trkpt>
      <trkpt lat="43.352799" lon="-5.844672">
        <ele>235.859</ele>
        <time>1999-07-21T16:04:56Z</time>
      </trkpt>
      <trkpt lat="43.352831" lon="-5.844698">
        <ele>236.045</ele>
        <time>1999-07-21T16:04:57Z</time>
      </trkpt>
      <trkpt lat="43.352926" lon="-5.844762">
        <ele>237.061</ele>
        <time>1999-07-21T16:05:00Z</time>
      </trkpt>
      <trkpt lat="43.352953" lon="-5.844789">
        <ele>237.621</ele>
        <time>1999-07-21T16:05:01Z</time>
      </trkpt>
      <trkpt lat="43.353020" lon="-5.844814">
        <ele>238.213</ele>
        <time>1999-07-21T16:05:03Z</time>
      </trkpt>
      <trkpt lat="43.353078" lon="-5.844827">
        <ele>239.408</ele>
        <time>1999-07-21T16:05:05Z</time>
      </trkpt>
      <trkpt lat="43.353134" lon="-5.844836">
        <ele>240.469</ele>
        <time>1999-07-21T16:05:07Z</time>
      </trkpt>
      <trkpt lat="43.353140" lon="-5.844885">
        <ele>241.414</ele>
        <time>1999-07-21T16:05:10Z</time>
      </trkpt>
      <trkpt lat="43.353190" lon="-5.844850">
        <ele>242.624</ele>
        <time>1999-07-21T16:05:15Z</time>
      </trkpt>
      <trkpt lat="43.353203" lon="-5.844767">
        <ele>243.865</ele>
        <time>1999-07-21T16:05:18Z</time>
      </trkpt>
      <trkpt lat="43.353214" lon="-5.844684">
        <ele>244.893</ele>
        <time>1999-07-21T16:05:21Z</time>
      </trkpt>
      <trkpt lat="43.353262" lon="-5.844530">
        <ele>245.871</ele>
        <time>1999-07-21T16:05:26Z</time>
      </trkpt>
      <trkpt lat="43.353284" lon="-5.844510">
        <ele>246.022</ele>
        <time>1999-07-21T16:05:27Z</time>
      </trkpt>
      <trkpt lat="43.353409" lon="-5.844480">
        <ele>246.458</ele>
        <time>1999-07-21T16:05:31Z</time>
      </trkpt>
      <trkpt lat="43.353599" lon="-5.844473">
        <ele>246.846</ele>
        <time>1999-07-21T16:05:38Z</time>
      </trkpt>
      <trkpt lat="43.353625" lon="-5.844482">
        <ele>247.088</ele>
        <time>1999-07-21T16:05:39Z</time>
      </trkpt>
      <trkpt lat="43.353747" lon="-5.844538">
        <ele>247.616</ele>
        <time>1999-07-21T16:05:44Z</time>
      </trkpt>
      <trkpt lat="43.353822" lon="-5.844593">
        <ele>248.008</ele>
        <time>1999-07-21T16:05:48Z</time>
      </trkpt>
      <trkpt lat="43.353856" lon="-5.844625">
        <ele>248.487</ele>
        <time>1999-07-21T16:05:50Z</time>
      </trkpt>
      <trkpt lat="43.353928" lon="-5.844640">
        <ele>249.092</ele>
        <time>1999-07-21T16:05:53Z</time>
      </trkpt>
      <trkpt lat="43.353941" lon="-5.844639">
        <ele>249.272</ele>
        <time>1999-07-21T16:05:54Z</time>
      </trkpt>
      <trkpt lat="43.353953" lon="-5.844634">
        <ele>249.443</ele>
        <time>1999-07-21T16:05:55Z</time>
      </trkpt>
      <trkpt lat="43.354020" lon="-5.844623">
        <ele>250.271</ele>
        <time>1999-07-21T16:05:58Z</time>
      </trkpt>
      <trkpt lat="43.354081" lon="-5.844602">
        <ele>250.499</ele>
        <time>1999-07-21T16:06:00Z</time>
      </trkpt>
      <trkpt lat="43.354152" lon="-5.844602">
        <ele>250.620</ele>
        <time>1999-07-21T16:06:03Z</time>
      </trkpt>
      <trkpt lat="43.354185" lon="-5.844605">
        <ele>250.876</ele>
        <time>1999-07-21T16:06:04Z</time>
      </trkpt>
      <trkpt lat="43.354277" lon="-5.844599">
        <ele>251.041</ele>
        <time>1999-07-21T16:06:07Z</time>
      </trkpt>
      <trkpt lat="43.354291" lon="-5.844598">
        <ele>251.081</ele>
        <time>1999-07-21T16:06:08Z</time>
      </trkpt>
      <trkpt lat="43.354304" lon="-5.844592">
        <ele>251.209</ele>
        <time>1999-07-21T16:06:09Z</time>
      </trkpt>
      <trkpt lat="43.354312" lon="-5.844589">
        <ele>251.408</ele>
        <time>1999-07-21T16:06:10Z</time>
      </trkpt>
      <trkpt lat="43.354374" lon="-5.844583">
        <ele>251.417</ele>
        <time>1999-07-21T16:07:30Z</time>
      </trkpt>
      <trkpt lat="43.354391" lon="-5.844582">
        <ele>251.442</ele>
        <time>1999-07-21T16:07:31Z</time>
      </trkpt>
      <trkpt lat="43.354404" lon="-5.844572">
        <ele>251.472</ele>
        <time>1999-07-21T16:07:32Z</time>
      </trkpt>
      <trkpt lat="43.354431" lon="-5.844499">
        <ele>251.623</ele>
        <time>1999-07-21T16:07:35Z</time>
      </trkpt>
      <trkpt lat="43.354445" lon="-5.844401">
        <ele>251.631</ele>
        <time>1999-07-21T16:07:39Z</time>
      </trkpt>
      <trkpt lat="43.354456" lon="-5.844343">
        <ele>251.649</ele>
        <time>1999-07-21T16:07:41Z</time>
      </trkpt>
      <trkpt lat="43.354483" lon="-5.844265">
        <ele>251.820</ele>
        <time>1999-07-21T16:07:43Z</time>
      </trkpt>
      <trkpt lat="43.354555" lon="-5.844156">
        <ele>251.826</ele>
        <time>1999-07-21T16:07:46Z</time>
      </trkpt>
      <trkpt lat="43.354586" lon="-5.844125">
        <ele>251.832</ele>
        <time>1999-07-21T16:07:47Z</time>
      </trkpt>
      <trkpt lat="43.354718" lon="-5.843954">
        <ele>251.892</ele>
        <time>1999-07-21T16:07:52Z</time>
      </trkpt>
      <trkpt lat="43.354761" lon="-5.843931">
        <ele>251.811</ele>
        <time>1999-07-21T16:07:54Z</time>
      </trkpt>
      <trkpt lat="43.354776" lon="-5.843941">
        <ele>251.808</ele>
        <time>1999-07-21T16:07:55Z</time>
      </trkpt>
      <trkpt lat="43.354801" lon="-5.843937">
        <ele>251.696</ele>
        <time>1999-07-21T16:07:57Z</time>
      </trkpt>
      <trkpt lat="43.354834" lon="-5.843887">
        <ele>251.481</ele>
        <time>1999-07-21T16:07:59Z</time>
      </trkpt>
      <trkpt lat="43.354857" lon="-5.843866">
        <ele>251.241</ele>
        <time>1999-07-21T16:08:00Z</time>
      </trkpt>
      <trkpt lat="43.354962" lon="-5.843775">
        <ele>250.882</ele>
        <time>1999-07-21T16:08:04Z</time>
      </trkpt>
      <trkpt lat="43.354990" lon="-5.843762">
        <ele>250.850</ele>
        <time>1999-07-21T16:08:05Z</time>
      </trkpt>
      <trkpt lat="43.355145" lon="-5.843698">
        <ele>250.678</ele>
        <time>1999-07-21T16:08:10Z</time>
      </trkpt>
      <trkpt lat="43.355358" lon="-5.843543">
        <ele>250.289</ele>
        <time>1999-07-21T16:08:16Z</time>
      </trkpt>
      <trkpt lat="43.355502" lon="-5.843450">
        <ele>250.085</ele>
        <time>1999-07-21T16:08:19Z</time>
      </trkpt>
      <trkpt lat="43.355609" lon="-5.843398">
        <ele>249.848</ele>
        <time>1999-07-21T16:08:21Z</time>
      </trkpt>
      <trkpt lat="43.355663" lon="-5.843373">
        <ele>249.861</ele>
        <time>1999-07-21T16:08:22Z</time>
      </trkpt>
      <trkpt lat="43.356020" lon="-5.843222">
        <ele>248.617</ele>
        <time>1999-07-21T16:08:28Z</time>
      </trkpt>
      <trkpt lat="43.356196" lon="-5.843146">
        <ele>248.208</ele>
        <time>1999-07-21T16:08:31Z</time>
      </trkpt>
      <trkpt lat="43.356414" lon="-5.843057">
        <ele>247.437</ele>
        <time>1999-07-21T16:08:35Z</time>
      </trkpt>
      <trkpt lat="43.356460" lon="-5.843047">
        <ele>247.262</ele>
        <time>1999-07-21T16:08:36Z</time>
      </trkpt>
      <trkpt lat="43.356856" lon="-5.842984">
        <ele>246.472</ele>
        <time>1999-07-21T16:08:44Z</time>
      </trkpt>
      <trkpt lat="43.357101" lon="-5.842931">
        <ele>246.033</ele>
        <time>1999-07-21T16:08:49Z</time>
      </trkpt>
      <trkpt lat="43.357181" lon="-5.842916">
        <ele>245.851</ele>
        <time>1999-07-21T16:08:50Z</time>
      </trkpt>
      <trkpt lat="43.357529" lon="-5.842909">
        <ele>245.469</ele>
        <time>1999-07-21T16:08:56Z</time>
      </trkpt>
      <trkpt lat="43.357678" lon="-5.842919">
        <ele>244.840</ele>
        <time>1999-07-21T16:08:58Z</time>
      </trkpt>
      <trkpt lat="43.357828" lon="-5.842888">
        <ele>244.456</ele>
        <time>1999-07-21T16:09:00Z</time>
      </trkpt>
      <trkpt lat="43.357895" lon="-5.842873">
        <ele>244.212</ele>
        <time>1999-07-21T16:09:01Z</time>
      </trkpt>
      <trkpt lat="43.358040" lon="-5.842872">
        <ele>243.632</ele>
        <time>1999-07-21T16:09:03Z</time>
      </trkpt>
      <trkpt lat="43.358201" lon="-5.842926">
        <ele>242.405</ele>
        <time>1999-07-21T16:09:06Z</time>
      </trkpt>
      <trkpt lat="43.358244" lon="-5.842962">
        <ele>241.808</ele>
        <time>1999-07-21T16:09:07Z</time>
      </trkpt>
      <trkpt lat="43.358275" lon="-5.842999">
        <ele>241.014</ele>
        <time>1999-07-21T16:09:08Z</time>
      </trkpt>
      <trkpt lat="43.358311" lon="-5.843039">
        <ele>239.819</ele>
        <time>1999-07-21T16:09:09Z</time>
      </trkpt>
      <trkpt lat="43.358377" lon="-5.843130">
        <ele>239.659</ele>
        <time>1999-07-21T16:09:11Z</time>
      </trkpt>
      <trkpt lat="43.358435" lon="-5.843226">
        <ele>239.410</ele>
        <time>1999-07-21T16:09:13Z</time>
      </trkpt>
      <trkpt lat="43.358485" lon="-5.843334">
        <ele>239.418</ele>
        <time>1999-07-21T16:09:15Z</time>
      </trkpt>
      <trkpt lat="43.358515" lon="-5.843377">
        <ele>239.446</ele>
        <time>1999-07-21T16:09:16Z</time>
      </trkpt>
      <trkpt lat="43.358635" lon="-5.843496">
        <ele>239.627</ele>
        <time>1999-07-21T16:09:19Z</time>
      </trkpt>
      <trkpt lat="43.358700" lon="-5.843599">
        <ele>239.833</ele>
        <time>1999-07-21T16:09:21Z</time>
      </trkpt>
      <trkpt lat="43.358741" lon="-5.843714">
        <ele>239.887</ele>
        <time>1999-07-21T16:09:23Z</time>
      </trkpt>
      <trkpt lat="43.358761" lon="-5.843776">
        <ele>239.842</ele>
        <time>1999-07-21T16:09:24Z</time>
      </trkpt>
      <trkpt lat="43.358791" lon="-5.843888">
        <ele>240.026</ele>
        <time>1999-07-21T16:09:26Z</time>
      </trkpt>
      <trkpt lat="43.358810" lon="-5.843939">
        <ele>240.008</ele>
        <time>1999-07-21T16:09:27Z</time>
      </trkpt>
      <trkpt lat="43.358871" lon="-5.844290">
        <ele>240.681</ele>
        <time>1999-07-21T16:09:34Z</time>
      </trkpt>
      <trkpt lat="43.358952" lon="-5.844510">
        <ele>240.866</ele>
        <time>1999-07-21T16:09:39Z</time>
      </trkpt>
      <trkpt lat="43.358983" lon="-5.844619">
        <ele>241.026</ele>
        <time>1999-07-21T16:09:42Z</time>
      </trkpt>
      <trkpt lat="43.359026" lon="-5.844700">
        <ele>241.067</ele>
        <time>1999-07-21T16:09:45Z</time>
      </trkpt>
      <trkpt lat="43.359049" lon="-5.844843">
        <ele>241.045</ele>
        <time>1999-07-21T16:09:50Z</time>
      </trkpt>
      <trkpt lat="43.358989" lon="-5.844913">
        <ele>241.093</ele>
        <time>1999-07-21T16:09:53Z</time>
      </trkpt>
      <trkpt lat="43.358972" lon="-5.844929">
        <ele>241.084</ele>
        <time>1999-07-21T16:09:54Z</time>
      </trkpt>
      <trkpt lat="43.358963" lon="-5.844938">
        <ele>241.090</ele>
        <time>1999-07-21T16:09:55Z</time>
      </trkpt>
      <trkpt lat="43.358918" lon="-5.844961">
        <ele>241.037</ele>
        <time>1999-07-21T16:09:59Z</time>
      </trkpt>
      <trkpt lat="43.358893" lon="-5.844982">
        <ele>241.249</ele>
        <time>1999-07-21T16:10:02Z</time>
      </trkpt>
      <trkpt lat="43.358883" lon="-5.845008">
        <ele>241.613</ele>
        <time>1999-07-21T16:10:05Z</time>
      </trkpt>
      <trkpt lat="43.358872" lon="-5.845061">
        <ele>241.808</ele>
        <time>1999-07-21T16:10:07Z</time>
      </trkpt>
      <trkpt lat="43.358819" lon="-5.845216">
        <ele>242.016</ele>
        <time>1999-07-21T16:10:11Z</time>
      </trkpt>
      <trkpt lat="43.358783" lon="-5.845309">
        <ele>242.241</ele>
        <time>1999-07-21T16:10:13Z</time>
      </trkpt>
      <trkpt lat="43.358727" lon="-5.845438">
        <ele>242.471</ele>
        <time>1999-07-21T16:10:16Z</time>
      </trkpt>
      <trkpt lat="43.358629" lon="-5.845677">
        <ele>242.832</ele>
        <time>1999-07-21T16:10:22Z</time>
      </trkpt>
      <trkpt lat="43.358510" lon="-5.845952">
        <ele>243.650</ele>
        <time>1999-07-21T16:10:29Z</time>
      </trkpt>
      <trkpt lat="43.358469" lon="-5.846021">
        <ele>243.868</ele>
        <time>1999-07-21T16:10:31Z</time>
      </trkpt>
      <trkpt lat="43.358407" lon="-5.846212">
        <ele>244.469</ele>
        <time>1999-07-21T16:10:35Z</time>
      </trkpt>
      <trkpt lat="43.358306" lon="-5.846361">
        <ele>244.835</ele>
        <time>1999-07-21T16:10:39Z</time>
      </trkpt>
      <trkpt lat="43.358273" lon="-5.846408">
        <ele>245.089</ele>
        <time>1999-07-21T16:10:40Z</time>
      </trkpt>
      <trkpt lat="43.358144" lon="-5.846609">
        <ele>246.006</ele>
        <time>1999-07-21T16:10:44Z</time>
      </trkpt>
      <trkpt lat="43.358119" lon="-5.846666">
        <ele>246.226</ele>
        <time>1999-07-21T16:10:45Z</time>
      </trkpt>
      <trkpt lat="43.358077" lon="-5.846786">
        <ele>246.608</ele>
        <time>1999-07-21T16:10:47Z</time>
      </trkpt>
      <trkpt lat="43.357995" lon="-5.846950">
        <ele>247.261</ele>
        <time>1999-07-21T16:10:50Z</time>
      </trkpt>
      <trkpt lat="43.357963" lon="-5.847003">
        <ele>247.456</ele>
        <time>1999-07-21T16:10:51Z</time>
      </trkpt>
      <trkpt lat="43.357932" lon="-5.847046">
        <ele>247.476</ele>
        <time>1999-07-21T16:10:52Z</time>
      </trkpt>
      <trkpt lat="43.357907" lon="-5.847112">
        <ele>247.657</ele>
        <time>1999-07-21T16:10:53Z</time>
      </trkpt>
      <trkpt lat="43.357864" lon="-5.847294">
        <ele>248.425</ele>
        <time>1999-07-21T16:10:56Z</time>
      </trkpt>
      <trkpt lat="43.357872" lon="-5.847397">
        <ele>249.253</ele>
        <time>1999-07-21T16:10:59Z</time>
      </trkpt>
      <trkpt lat="43.357878" lon="-5.847411">
        <ele>249.464</ele>
        <time>1999-07-21T16:11:00Z</time>
      </trkpt>
      <trkpt lat="43.357935" lon="-5.847380">
        <ele>250.010</ele>
        <time>1999-07-21T16:12:00Z</time>
      </trkpt>
      <trkpt lat="43.357944" lon="-5.847341">
        <ele>250.033</ele>
        <time>1999-07-21T16:12:01Z</time>
      </trkpt>
      <trkpt lat="43.357958" lon="-5.847295">
        <ele>250.023</ele>
        <time>1999-07-21T16:12:02Z</time>
      </trkpt>
      <trkpt lat="43.357997" lon="-5.847204">
        <ele>250.015</ele>
        <time>1999-07-21T16:12:04Z</time>
      </trkpt>
      <trkpt lat="43.358039" lon="-5.847109">
        <ele>250.008</ele>
        <time>1999-07-21T16:12:06Z</time>
      </trkpt>
      <trkpt lat="43.358062" lon="-5.847056">
        <ele>250.046</ele>
        <time>1999-07-21T16:12:07Z</time>
      </trkpt>
      <trkpt lat="43.358116" lon="-5.846939">
        <ele>250.041</ele>
        <time>1999-07-21T16:12:09Z</time>
      </trkpt>
      <trkpt lat="43.358167" lon="-5.846820">
        <ele>249.811</ele>
        <time>1999-07-21T16:12:11Z</time>
      </trkpt>
      <trkpt lat="43.358222" lon="-5.846703">
        <ele>249.692</ele>
        <time>1999-07-21T16:12:13Z</time>
      </trkpt>
      <trkpt lat="43.358383" lon="-5.846349">
        <ele>249.020</ele>
        <time>1999-07-21T16:12:19Z</time>
      </trkpt>
      <trkpt lat="43.358411" lon="-5.846290">
        <ele>248.838</ele>
        <time>1999-07-21T16:12:20Z</time>
      </trkpt>
      <trkpt lat="43.358586" lon="-5.845994">
        <ele>247.839</ele>
        <time>1999-07-21T16:12:25Z</time>
      </trkpt>
      <trkpt lat="43.358737" lon="-5.845767">
        <ele>247.025</ele>
        <time>1999-07-21T16:12:29Z</time>
      </trkpt>
      <trkpt lat="43.358806" lon="-5.845645">
        <ele>246.648</ele>
        <time>1999-07-21T16:12:31Z</time>
      </trkpt>
      <trkpt lat="43.358898" lon="-5.845453">
        <ele>246.061</ele>
        <time>1999-07-21T16:12:34Z</time>
      </trkpt>
      <trkpt lat="43.358930" lon="-5.845387">
        <ele>245.617</ele>
        <time>1999-07-21T16:12:35Z</time>
      </trkpt>
      <trkpt lat="43.359032" lon="-5.845191">
        <ele>245.208</ele>
        <time>1999-07-21T16:12:38Z</time>
      </trkpt>
      <trkpt lat="43.359084" lon="-5.845064">
        <ele>245.077</ele>
        <time>1999-07-21T16:12:40Z</time>
      </trkpt>
      <trkpt lat="43.359082" lon="-5.844994">
        <ele>244.832</ele>
        <time>1999-07-21T16:12:41Z</time>
      </trkpt>
      <trkpt lat="43.359064" lon="-5.844859">
        <ele>244.662</ele>
        <time>1999-07-21T16:12:43Z</time>
      </trkpt>
      <trkpt lat="43.359053" lon="-5.844807">
        <ele>244.673</ele>
        <time>1999-07-21T16:12:44Z</time>
      </trkpt>
      <trkpt lat="43.359049" lon="-5.844780">
        <ele>244.461</ele>
        <time>1999-07-21T16:12:45Z</time>
      </trkpt>
      <trkpt lat="43.359072" lon="-5.844782">
        <ele>244.299</ele>
        <time>1999-07-21T16:12:46Z</time>
      </trkpt>
      <trkpt lat="43.359096" lon="-5.844801">
        <ele>244.290</ele>
        <time>1999-07-21T16:12:47Z</time>
      </trkpt>
      <trkpt lat="43.359139" lon="-5.844843">
        <ele>243.456</ele>
        <time>1999-07-21T16:12:49Z</time>
      </trkpt>
      <trkpt lat="43.359200" lon="-5.844903">
        <ele>242.275</ele>
        <time>1999-07-21T16:12:52Z</time>
      </trkpt>
      <trkpt lat="43.359228" lon="-5.844921">
        <ele>242.028</ele>
        <time>1999-07-21T16:12:53Z</time>
      </trkpt>
      <trkpt lat="43.359285" lon="-5.844974">
        <ele>241.620</ele>
        <time>1999-07-21T16:12:55Z</time>
      </trkpt>
      <trkpt lat="43.359288" lon="-5.845012">
        <ele>241.608</ele>
        <time>1999-07-21T16:12:56Z</time>
      </trkpt>
      <trkpt lat="43.359288" lon="-5.845047">
        <ele>241.680</ele>
        <time>1999-07-21T16:12:57Z</time>
      </trkpt>
      <trkpt lat="43.359325" lon="-5.845180">
        <ele>241.445</ele>
        <time>1999-07-21T16:13:02Z</time>
      </trkpt>
      <trkpt lat="43.359339" lon="-5.845181">
        <ele>241.485</ele>
        <time>1999-07-21T16:13:05Z</time>
      </trkpt>
      <trkpt lat="43.359360" lon="-5.845187">
        <ele>241.216</ele>
        <time>1999-07-21T16:13:06Z</time>
      </trkpt>
      <trkpt lat="43.359452" lon="-5.845169">
        <ele>241.464</ele>
        <time>1999-07-21T16:13:10Z</time>
      </trkpt>
      <trkpt lat="43.359499" lon="-5.845165">
        <ele>241.412</ele>
        <time>1999-07-21T16:13:13Z</time>
      </trkpt>
      <trkpt lat="43.359566" lon="-5.845163">
        <ele>241.453</ele>
        <time>1999-07-21T16:13:16Z</time>
      </trkpt>
      <trkpt lat="43.359708" lon="-5.845122">
        <ele>241.249</ele>
        <time>1999-07-21T16:13:22Z</time>
      </trkpt>
      <trkpt lat="43.359754" lon="-5.845092">
        <ele>241.061</ele>
        <time>1999-07-21T16:13:23Z</time>
      </trkpt>
      <trkpt lat="43.360125" lon="-5.844782">
        <ele>240.821</ele>
        <time>1999-07-21T16:13:28Z</time>
      </trkpt>
      <trkpt lat="43.360221" lon="-5.844793">
        <ele>240.613</ele>
        <time>1999-07-21T16:13:31Z</time>
      </trkpt>
      <trkpt lat="43.360261" lon="-5.844816">
        <ele>240.608</ele>
        <time>1999-07-21T16:13:33Z</time>
      </trkpt>
      <trkpt lat="43.360293" lon="-5.844824">
        <ele>240.429</ele>
        <time>1999-07-21T16:13:36Z</time>
      </trkpt>
      <trkpt lat="43.360519" lon="-5.844744">
        <ele>240.644</ele>
        <time>1999-07-21T16:13:58Z</time>
      </trkpt>
      <trkpt lat="43.360550" lon="-5.844734">
        <ele>240.814</ele>
        <time>1999-07-21T16:13:59Z</time>
      </trkpt>
      <trkpt lat="43.360649" lon="-5.844711">
        <ele>241.015</ele>
        <time>1999-07-21T16:14:04Z</time>
      </trkpt>
      <trkpt lat="43.360673" lon="-5.844710">
        <ele>241.013</ele>
        <time>1999-07-21T16:14:05Z</time>
      </trkpt>
      <trkpt lat="43.360760" lon="-5.844697">
        <ele>241.291</ele>
        <time>1999-07-21T16:14:08Z</time>
      </trkpt>
      <trkpt lat="43.360791" lon="-5.844694">
        <ele>241.262</ele>
        <time>1999-07-21T16:14:09Z</time>
      </trkpt>
      <trkpt lat="43.360938" lon="-5.844635">
        <ele>241.488</ele>
        <time>1999-07-21T16:14:13Z</time>
      </trkpt>
      <trkpt lat="43.360972" lon="-5.844628">
        <ele>241.449</ele>
        <time>1999-07-21T16:14:14Z</time>
      </trkpt>
      <trkpt lat="43.361049" lon="-5.844612">
        <ele>241.402</ele>
        <time>1999-07-21T16:14:17Z</time>
      </trkpt>
      <trkpt lat="43.361079" lon="-5.844608">
        <ele>241.422</ele>
        <time>1999-07-21T16:14:19Z</time>
      </trkpt>
      <trkpt lat="43.361087" lon="-5.844612">
        <ele>241.408</ele>
        <time>1999-07-21T16:14:20Z</time>
      </trkpt>
      <trkpt lat="43.361169" lon="-5.844590">
        <ele>241.617</ele>
        <time>1999-07-21T16:14:23Z</time>
      </trkpt>
      <trkpt lat="43.361258" lon="-5.844608">
        <ele>241.692</ele>
        <time>1999-07-21T16:14:26Z</time>
      </trkpt>
      <trkpt lat="43.361293" lon="-5.844638">
        <ele>241.632</ele>
        <time>1999-07-21T16:14:28Z</time>
      </trkpt>
      <trkpt lat="43.361373" lon="-5.844641">
        <ele>241.623</ele>
        <time>1999-07-21T16:14:31Z</time>
      </trkpt>
      <trkpt lat="43.361415" lon="-5.844627">
        <ele>241.611</ele>
        <time>1999-07-21T16:14:32Z</time>
      </trkpt>
      <trkpt lat="43.361775" lon="-5.844529">
        <ele>241.089</ele>
        <time>1999-07-21T16:14:38Z</time>
      </trkpt>
      <trkpt lat="43.361870" lon="-5.844504">
        <ele>240.850</ele>
        <time>1999-07-21T16:14:40Z</time>
      </trkpt>
      <trkpt lat="43.361920" lon="-5.844466">
        <ele>240.646</ele>
        <time>1999-07-21T16:14:42Z</time>
      </trkpt>
      <trkpt lat="43.361939" lon="-5.844406">
        <ele>240.264</ele>
        <time>1999-07-21T16:14:44Z</time>
      </trkpt>
      <trkpt lat="43.361945" lon="-5.844343">
        <ele>239.806</ele>
        <time>1999-07-21T16:14:46Z</time>
      </trkpt>
      <trkpt lat="43.361981" lon="-5.844264">
        <ele>239.416</ele>
        <time>1999-07-21T16:14:48Z</time>
      </trkpt>
      <trkpt lat="43.362022" lon="-5.844181">
        <ele>239.208</ele>
        <time>1999-07-21T16:14:50Z</time>
      </trkpt>
      <trkpt lat="43.362155" lon="-5.843987">
        <ele>238.829</ele>
        <time>1999-07-21T16:14:55Z</time>
      </trkpt>
      <trkpt lat="43.362162" lon="-5.844022">
        <ele>238.624</ele>
        <time>1999-07-21T16:14:57Z</time>
      </trkpt>
      <trkpt lat="43.362185" lon="-5.844060">
        <ele>238.444</ele>
        <time>1999-07-21T16:14:58Z</time>
      </trkpt>
      <trkpt lat="43.362227" lon="-5.844113">
        <ele>238.215</ele>
        <time>1999-07-21T16:15:00Z</time>
      </trkpt>
      <trkpt lat="43.362326" lon="-5.844082">
        <ele>237.893</ele>
        <time>1999-07-21T16:15:03Z</time>
      </trkpt>
      <trkpt lat="43.362331" lon="-5.844028">
        <ele>237.481</ele>
        <time>1999-07-21T16:15:06Z</time>
      </trkpt>
      <trkpt lat="43.362276" lon="-5.844077">
        <ele>237.442</ele>
        <time>1999-07-21T16:15:10Z</time>
      </trkpt>
      <trkpt lat="43.362260" lon="-5.844079">
        <ele>237.298</ele>
        <time>1999-07-21T16:15:11Z</time>
      </trkpt>
      <trkpt lat="43.362235" lon="-5.844070">
        <ele>237.238</ele>
        <time>1999-07-21T16:15:13Z</time>
      </trkpt>
      <trkpt lat="43.362240" lon="-5.844049">
        <ele>237.070</ele>
        <time>1999-07-21T16:15:15Z</time>
      </trkpt>
      <trkpt lat="43.362355" lon="-5.844205">
        <ele>237.217</ele>
        <time>1999-07-21T16:21:25Z</time>
      </trkpt>
      <trkpt lat="43.362382" lon="-5.844357">
        <ele>237.208</ele>
        <time>1999-07-21T16:21:29Z</time>
      </trkpt>
      <trkpt lat="43.362388" lon="-5.844388">
        <ele>237.216</ele>
        <time>1999-07-21T16:21:30Z</time>
      </trkpt>
      <trkpt lat="43.362417" lon="-5.844601">
        <ele>237.031</ele>
        <time>1999-07-21T16:21:37Z</time>
      </trkpt>
      <trkpt lat="43.362413" lon="-5.844807">
        <ele>237.041</ele>
        <time>1999-07-21T16:21:43Z</time>
      </trkpt>
      <trkpt lat="43.362374" lon="-5.845116">
        <ele>236.832</ele>
        <time>1999-07-21T16:21:51Z</time>
      </trkpt>
      <trkpt lat="43.362323" lon="-5.845434">
        <ele>236.650</ele>
        <time>1999-07-21T16:21:58Z</time>
      </trkpt>
      <trkpt lat="43.362291" lon="-5.845739">
        <ele>236.248</ele>
        <time>1999-07-21T16:22:03Z</time>
      </trkpt>
      <trkpt lat="43.362265" lon="-5.845837">
        <ele>236.079</ele>
        <time>1999-07-21T16:22:05Z</time>
      </trkpt>
      <trkpt lat="43.362235" lon="-5.845892">
        <ele>235.895</ele>
        <time>1999-07-21T16:22:07Z</time>
      </trkpt>
      <trkpt lat="43.362190" lon="-5.845979">
        <ele>235.265</ele>
        <time>1999-07-21T16:22:10Z</time>
      </trkpt>
      <trkpt lat="43.362189" lon="-5.846021">
        <ele>234.868</ele>
        <time>1999-07-21T16:22:11Z</time>
      </trkpt>
      <trkpt lat="43.362186" lon="-5.846072">
        <ele>234.614</ele>
        <time>1999-07-21T16:22:12Z</time>
      </trkpt>
      <trkpt lat="43.362164" lon="-5.846360">
        <ele>234.008</ele>
        <time>1999-07-21T16:22:16Z</time>
      </trkpt>
      <trkpt lat="43.362148" lon="-5.846525">
        <ele>233.829</ele>
        <time>1999-07-21T16:22:18Z</time>
      </trkpt>
      <trkpt lat="43.362121" lon="-5.846773">
        <ele>233.244</ele>
        <time>1999-07-21T16:22:21Z</time>
      </trkpt>
      <trkpt lat="43.362107" lon="-5.846937">
        <ele>232.814</ele>
        <time>1999-07-21T16:22:23Z</time>
      </trkpt>
      <trkpt lat="43.362090" lon="-5.847185">
        <ele>232.475</ele>
        <time>1999-07-21T16:22:26Z</time>
      </trkpt>
      <trkpt lat="43.362085" lon="-5.847260">
        <ele>232.023</ele>
        <time>1999-07-21T16:22:27Z</time>
      </trkpt>
      <trkpt lat="43.362055" lon="-5.847413">
        <ele>231.811</ele>
        <time>1999-07-21T16:22:29Z</time>
      </trkpt>
      <trkpt lat="43.362035" lon="-5.847560">
        <ele>231.832</ele>
        <time>1999-07-21T16:22:31Z</time>
      </trkpt>
      <trkpt lat="43.362038" lon="-5.847624">
        <ele>231.898</ele>
        <time>1999-07-21T16:22:32Z</time>
      </trkpt>
      <trkpt lat="43.362057" lon="-5.847765">
        <ele>231.851</ele>
        <time>1999-07-21T16:22:34Z</time>
      </trkpt>
      <trkpt lat="43.361986" lon="-5.847951">
        <ele>231.801</ele>
        <time>1999-07-21T16:22:36Z</time>
      </trkpt>
      <trkpt lat="43.362010" lon="-5.848012">
        <ele>232.011</ele>
        <time>1999-07-21T16:22:37Z</time>
      </trkpt>
      <trkpt lat="43.362131" lon="-5.848270">
        <ele>232.408</ele>
        <time>1999-07-21T16:22:42Z</time>
      </trkpt>
      <trkpt lat="43.362166" lon="-5.848306">
        <ele>232.448</ele>
        <time>1999-07-21T16:22:44Z</time>
      </trkpt>
      <trkpt lat="43.362191" lon="-5.848335">
        <ele>232.433</ele>
        <time>1999-07-21T16:22:46Z</time>
      </trkpt>
      <trkpt lat="43.362240" lon="-5.848439">
        <ele>232.463</ele>
        <time>1999-07-21T16:22:50Z</time>
      </trkpt>
      <trkpt lat="43.362254" lon="-5.848490">
        <ele>232.424</ele>
        <time>1999-07-21T16:22:51Z</time>
      </trkpt>
      <trkpt lat="43.362424" lon="-5.848761">
        <ele>232.482</ele>
        <time>1999-07-21T16:22:56Z</time>
      </trkpt>
      <trkpt lat="43.362777" lon="-5.849311">
        <ele>232.080</ele>
        <time>1999-07-21T16:23:05Z</time>
      </trkpt>
      <trkpt lat="43.362899" lon="-5.849565">
        <ele>232.081</ele>
        <time>1999-07-21T16:23:09Z</time>
      </trkpt>
      <trkpt lat="43.362942" lon="-5.849644">
        <ele>232.077</ele>
        <time>1999-07-21T16:23:11Z</time>
      </trkpt>
      <trkpt lat="43.362994" lon="-5.849734">
        <ele>231.642</ele>
        <time>1999-07-21T16:23:15Z</time>
      </trkpt>
      <trkpt lat="43.363005" lon="-5.849746">
        <ele>231.422</ele>
        <time>1999-07-21T16:23:16Z</time>
      </trkpt>
      <trkpt lat="43.363028" lon="-5.849785">
        <ele>230.614</ele>
        <time>1999-07-21T16:23:19Z</time>
      </trkpt>
      <trkpt lat="43.363053" lon="-5.849824">
        <ele>230.408</ele>
        <time>1999-07-21T16:23:21Z</time>
      </trkpt>
      <trkpt lat="43.363070" lon="-5.849851">
        <ele>230.437</ele>
        <time>1999-07-21T16:23:22Z</time>
      </trkpt>
      <trkpt lat="43.363195" lon="-5.850040">
        <ele>230.242</ele>
        <time>1999-07-21T16:23:27Z</time>
      </trkpt>
      <trkpt lat="43.363261" lon="-5.850151">
        <ele>230.252</ele>
        <time>1999-07-21T16:23:30Z</time>
      </trkpt>
      <trkpt lat="43.363370" lon="-5.850276">
        <ele>230.023</ele>
        <time>1999-07-21T16:23:34Z</time>
      </trkpt>
      <trkpt lat="43.363431" lon="-5.850432">
        <ele>230.021</ele>
        <time>1999-07-21T16:23:37Z</time>
      </trkpt>
      <trkpt lat="43.363495" lon="-5.850524">
        <ele>230.019</ele>
        <time>1999-07-21T16:23:39Z</time>
      </trkpt>
      <trkpt lat="43.363567" lon="-5.850616">
        <ele>230.040</ele>
        <time>1999-07-21T16:23:41Z</time>
      </trkpt>
      <trkpt lat="43.363664" lon="-5.850785">
        <ele>230.036</ele>
        <time>1999-07-21T16:23:44Z</time>
      </trkpt>
      <trkpt lat="43.363769" lon="-5.850951">
        <ele>230.085</ele>
        <time>1999-07-21T16:23:47Z</time>
      </trkpt>
      <trkpt lat="43.363837" lon="-5.851067">
        <ele>230.089</ele>
        <time>1999-07-21T16:23:49Z</time>
      </trkpt>
      <trkpt lat="43.363945" lon="-5.851244">
        <ele>230.017</ele>
        <time>1999-07-21T16:23:52Z</time>
      </trkpt>
      <trkpt lat="43.364032" lon="-5.851345">
        <ele>230.008</ele>
        <time>1999-07-21T16:23:54Z</time>
      </trkpt>
      <trkpt lat="43.364089" lon="-5.851476">
        <ele>230.061</ele>
        <time>1999-07-21T16:23:56Z</time>
      </trkpt>
      <trkpt lat="43.364183" lon="-5.851645">
        <ele>230.056</ele>
        <time>1999-07-21T16:23:59Z</time>
      </trkpt>
      <trkpt lat="43.364206" lon="-5.851711">
        <ele>230.076</ele>
        <time>1999-07-21T16:24:00Z</time>
      </trkpt>
      <trkpt lat="43.364368" lon="-5.851919">
        <ele>230.427</ele>
        <time>1999-07-21T16:24:04Z</time>
      </trkpt>
      <trkpt lat="43.364622" lon="-5.852324">
        <ele>230.435</ele>
        <time>1999-07-21T16:24:11Z</time>
      </trkpt>
      <trkpt lat="43.364724" lon="-5.852509">
        <ele>230.253</ele>
        <time>1999-07-21T16:24:15Z</time>
      </trkpt>
      <trkpt lat="43.364741" lon="-5.852576">
        <ele>230.284</ele>
        <time>1999-07-21T16:24:17Z</time>
      </trkpt>
      <trkpt lat="43.364773" lon="-5.852653">
        <ele>230.220</ele>
        <time>1999-07-21T16:24:20Z</time>
      </trkpt>
      <trkpt lat="43.364790" lon="-5.852680">
        <ele>230.242</ele>
        <time>1999-07-21T16:24:21Z</time>
      </trkpt>
      <trkpt lat="43.364849" lon="-5.852802">
        <ele>230.222</ele>
        <time>1999-07-21T16:24:24Z</time>
      </trkpt>
      <trkpt lat="43.364926" lon="-5.852943">
        <ele>230.414</ele>
        <time>1999-07-21T16:24:27Z</time>
      </trkpt>
      <trkpt lat="43.365024" lon="-5.853083">
        <ele>230.408</ele>
        <time>1999-07-21T16:24:30Z</time>
      </trkpt>
      <trkpt lat="43.365058" lon="-5.853132">
        <ele>230.457</ele>
        <time>1999-07-21T16:24:31Z</time>
      </trkpt>
      <trkpt lat="43.365235" lon="-5.853393">
        <ele>230.612</ele>
        <time>1999-07-21T16:24:36Z</time>
      </trkpt>
      <trkpt lat="43.365401" lon="-5.853592">
        <ele>230.622</ele>
        <time>1999-07-21T16:24:40Z</time>
      </trkpt>
      <trkpt lat="43.365517" lon="-5.853760">
        <ele>230.863</ele>
        <time>1999-07-21T16:24:43Z</time>
      </trkpt>
      <trkpt lat="43.365637" lon="-5.853915">
        <ele>230.661</ele>
        <time>1999-07-21T16:24:46Z</time>
      </trkpt>
      <trkpt lat="43.365688" lon="-5.853948">
        <ele>230.879</ele>
        <time>1999-07-21T16:24:47Z</time>
      </trkpt>
      <trkpt lat="43.365766" lon="-5.854036">
        <ele>230.820</ele>
        <time>1999-07-21T16:24:49Z</time>
      </trkpt>
      <trkpt lat="43.365828" lon="-5.854141">
        <ele>231.026</ele>
        <time>1999-07-21T16:24:51Z</time>
      </trkpt>
      <trkpt lat="43.365979" lon="-5.854310">
        <ele>231.636</ele>
        <time>1999-07-21T16:24:55Z</time>
      </trkpt>
      <trkpt lat="43.366093" lon="-5.854486">
        <ele>231.817</ele>
        <time>1999-07-21T16:24:59Z</time>
      </trkpt>
      <trkpt lat="43.366106" lon="-5.854538">
        <ele>232.018</ele>
        <time>1999-07-21T16:25:00Z</time>
      </trkpt>
      <trkpt lat="43.366067" lon="-5.854696">
        <ele>232.208</ele>
        <time>1999-07-21T16:25:03Z</time>
      </trkpt>
      <trkpt lat="43.365995" lon="-5.854788">
        <ele>232.286</ele>
        <time>1999-07-21T16:25:05Z</time>
      </trkpt>
      <trkpt lat="43.365829" lon="-5.855042">
        <ele>232.691</ele>
        <time>1999-07-21T16:25:10Z</time>
      </trkpt>
      <trkpt lat="43.365754" lon="-5.855136">
        <ele>232.641</ele>
        <time>1999-07-21T16:25:12Z</time>
      </trkpt>
      <trkpt lat="43.365647" lon="-5.855276">
        <ele>232.892</ele>
        <time>1999-07-21T16:25:15Z</time>
      </trkpt>
      <trkpt lat="43.365581" lon="-5.855380">
        <ele>232.870</ele>
        <time>1999-07-21T16:25:17Z</time>
      </trkpt>
      <trkpt lat="43.365487" lon="-5.855558">
        <ele>232.898</ele>
        <time>1999-07-21T16:25:20Z</time>
      </trkpt>
      <trkpt lat="43.365453" lon="-5.855619">
        <ele>232.819</ele>
        <time>1999-07-21T16:25:21Z</time>
      </trkpt>
      <trkpt lat="43.365375" lon="-5.855740">
        <ele>233.045</ele>
        <time>1999-07-21T16:25:23Z</time>
      </trkpt>
      <trkpt lat="43.365258" lon="-5.855912">
        <ele>233.271</ele>
        <time>1999-07-21T16:25:26Z</time>
      </trkpt>
      <trkpt lat="43.365120" lon="-5.856104">
        <ele>233.241</ele>
        <time>1999-07-21T16:25:30Z</time>
      </trkpt>
      <trkpt lat="43.365088" lon="-5.856140">
        <ele>233.415</ele>
        <time>1999-07-21T16:25:31Z</time>
      </trkpt>
      <trkpt lat="43.365042" lon="-5.856229">
        <ele>233.408</ele>
        <time>1999-07-21T16:25:33Z</time>
      </trkpt>
      <trkpt lat="43.365015" lon="-5.856273">
        <ele>233.430</ele>
        <time>1999-07-21T16:25:34Z</time>
      </trkpt>
      <trkpt lat="43.364985" lon="-5.856317">
        <ele>233.445</ele>
        <time>1999-07-21T16:25:35Z</time>
      </trkpt>
      <trkpt lat="43.364711" lon="-5.856683">
        <ele>233.895</ele>
        <time>1999-07-21T16:25:43Z</time>
      </trkpt>
      <trkpt lat="43.364628" lon="-5.856784">
        <ele>234.036</ele>
        <time>1999-07-21T16:25:45Z</time>
      </trkpt>
      <trkpt lat="43.364437" lon="-5.856972">
        <ele>234.254</ele>
        <time>1999-07-21T16:25:49Z</time>
      </trkpt>
      <trkpt lat="43.364344" lon="-5.857084">
        <ele>234.432</ele>
        <time>1999-07-21T16:25:51Z</time>
      </trkpt>
      <trkpt lat="43.364113" lon="-5.857357">
        <ele>234.613</ele>
        <time>1999-07-21T16:25:56Z</time>
      </trkpt>
      <trkpt lat="43.364017" lon="-5.857456">
        <ele>234.829</ele>
        <time>1999-07-21T16:25:58Z</time>
      </trkpt>
      <trkpt lat="43.363955" lon="-5.857473">
        <ele>234.836</ele>
        <time>1999-07-21T16:25:59Z</time>
      </trkpt>
      <trkpt lat="43.363817" lon="-5.857627">
        <ele>235.017</ele>
        <time>1999-07-21T16:26:02Z</time>
      </trkpt>
      <trkpt lat="43.363775" lon="-5.857673">
        <ele>235.018</ele>
        <time>1999-07-21T16:26:03Z</time>
      </trkpt>
      <trkpt lat="43.363691" lon="-5.857771">
        <ele>235.208</ele>
        <time>1999-07-21T16:26:05Z</time>
      </trkpt>
      <trkpt lat="43.363503" lon="-5.857970">
        <ele>236.286</ele>
        <time>1999-07-21T16:26:09Z</time>
      </trkpt>
      <trkpt lat="43.363416" lon="-5.858064">
        <ele>236.851</ele>
        <time>1999-07-21T16:26:11Z</time>
      </trkpt>
      <trkpt lat="43.363384" lon="-5.858108">
        <ele>237.031</ele>
        <time>1999-07-21T16:26:12Z</time>
      </trkpt>
      <trkpt lat="43.363362" lon="-5.858151">
        <ele>237.262</ele>
        <time>1999-07-21T16:26:13Z</time>
      </trkpt>
      <trkpt lat="43.363360" lon="-5.858236">
        <ele>237.610</ele>
        <time>1999-07-21T16:26:15Z</time>
      </trkpt>
      <trkpt lat="43.363405" lon="-5.858295">
        <ele>238.298</ele>
        <time>1999-07-21T16:26:17Z</time>
      </trkpt>
      <trkpt lat="43.363468" lon="-5.858317">
        <ele>238.869</ele>
        <time>1999-07-21T16:26:19Z</time>
      </trkpt>
      <trkpt lat="43.363543" lon="-5.858313">
        <ele>239.675</ele>
        <time>1999-07-21T16:26:21Z</time>
      </trkpt>
      <trkpt lat="43.363664" lon="-5.858285">
        <ele>240.477</ele>
        <time>1999-07-21T16:26:24Z</time>
      </trkpt>
      <trkpt lat="43.363706" lon="-5.858263">
        <ele>240.661</ele>
        <time>1999-07-21T16:26:25Z</time>
      </trkpt>
      <trkpt lat="43.363892" lon="-5.858165">
        <ele>241.627</ele>
        <time>1999-07-21T16:26:30Z</time>
      </trkpt>
      <trkpt lat="43.363891" lon="-5.858208">
        <ele>241.808</ele>
        <time>1999-07-21T16:26:32Z</time>
      </trkpt>
      <trkpt lat="43.363835" lon="-5.858253">
        <ele>241.890</ele>
        <time>1999-07-21T16:26:34Z</time>
      </trkpt>
      <trkpt lat="43.363762" lon="-5.858299">
        <ele>241.855</ele>
        <time>1999-07-21T16:26:36Z</time>
      </trkpt>
      <trkpt lat="43.363517" lon="-5.858408">
        <ele>241.895</ele>
        <time>1999-07-21T16:26:41Z</time>
      </trkpt>
      <trkpt lat="43.363363" lon="-5.858476">
        <ele>241.886</ele>
        <time>1999-07-21T16:26:44Z</time>
      </trkpt>
      <trkpt lat="43.363321" lon="-5.858506">
        <ele>241.854</ele>
        <time>1999-07-21T16:26:45Z</time>
      </trkpt>
      <trkpt lat="43.363288" lon="-5.858546">
        <ele>241.842</ele>
        <time>1999-07-21T16:26:46Z</time>
      </trkpt>
      <trkpt lat="43.363255" lon="-5.858626">
        <ele>241.883</ele>
        <time>1999-07-21T16:26:48Z</time>
      </trkpt>
      <trkpt lat="43.363249" lon="-5.858654">
        <ele>241.819</ele>
        <time>1999-07-21T16:26:49Z</time>
      </trkpt>
      <trkpt lat="43.363242" lon="-5.858680">
        <ele>241.656</ele>
        <time>1999-07-21T16:26:50Z</time>
      </trkpt>
      <trkpt lat="43.363248" lon="-5.858814">
        <ele>241.459</ele>
        <time>1999-07-21T16:26:54Z</time>
      </trkpt>
      <trkpt lat="43.363279" lon="-5.858982">
        <ele>241.414</ele>
        <time>1999-07-21T16:26:57Z</time>
      </trkpt>
      <trkpt lat="43.363299" lon="-5.859107">
        <ele>241.408</ele>
        <time>1999-07-21T16:26:59Z</time>
      </trkpt>
      <trkpt lat="43.363397" lon="-5.859548">
        <ele>241.828</ele>
        <time>1999-07-21T16:27:05Z</time>
      </trkpt>
      <trkpt lat="43.363563" lon="-5.860090">
        <ele>242.043</ele>
        <time>1999-07-21T16:27:12Z</time>
      </trkpt>
      <trkpt lat="43.363677" lon="-5.860393">
        <ele>242.053</ele>
        <time>1999-07-21T16:27:16Z</time>
      </trkpt>
      <trkpt lat="43.363740" lon="-5.860521">
        <ele>242.014</ele>
        <time>1999-07-21T16:27:18Z</time>
      </trkpt>
      <trkpt lat="43.363928" lon="-5.860589">
        <ele>241.832</ele>
        <time>1999-07-21T16:27:21Z</time>
      </trkpt>
      <trkpt lat="43.364048" lon="-5.860575">
        <ele>241.650</ele>
        <time>1999-07-21T16:27:23Z</time>
      </trkpt>
      <trkpt lat="43.364228" lon="-5.860540">
        <ele>241.441</ele>
        <time>1999-07-21T16:27:26Z</time>
      </trkpt>
      <trkpt lat="43.364444" lon="-5.860489">
        <ele>241.047</ele>
        <time>1999-07-21T16:27:30Z</time>
      </trkpt>
      <trkpt lat="43.364553" lon="-5.860459">
        <ele>240.866</ele>
        <time>1999-07-21T16:27:32Z</time>
      </trkpt>
      <trkpt lat="43.364664" lon="-5.860443">
        <ele>240.629</ele>
        <time>1999-07-21T16:27:34Z</time>
      </trkpt>
      <trkpt lat="43.364957" lon="-5.860415">
        <ele>239.821</ele>
        <time>1999-07-21T16:27:39Z</time>
      </trkpt>
      <trkpt lat="43.365085" lon="-5.860394">
        <ele>239.608</ele>
        <time>1999-07-21T16:27:41Z</time>
      </trkpt>
      <trkpt lat="43.365149" lon="-5.860391">
        <ele>239.659</ele>
        <time>1999-07-21T16:27:42Z</time>
      </trkpt>
      <trkpt lat="43.365273" lon="-5.860446">
        <ele>239.674</ele>
        <time>1999-07-21T16:27:44Z</time>
      </trkpt>
      <trkpt lat="43.365435" lon="-5.860587">
        <ele>239.654</ele>
        <time>1999-07-21T16:27:47Z</time>
      </trkpt>
      <trkpt lat="43.365537" lon="-5.860683">
        <ele>239.635</ele>
        <time>1999-07-21T16:27:49Z</time>
      </trkpt>
      <trkpt lat="43.365640" lon="-5.860773">
        <ele>239.683</ele>
        <time>1999-07-21T16:27:51Z</time>
      </trkpt>
      <trkpt lat="43.365785" lon="-5.860916">
        <ele>239.851</ele>
        <time>1999-07-21T16:27:54Z</time>
      </trkpt>
      <trkpt lat="43.365876" lon="-5.861003">
        <ele>240.042</ele>
        <time>1999-07-21T16:27:56Z</time>
      </trkpt>
      <trkpt lat="43.365966" lon="-5.861081">
        <ele>240.618</ele>
        <time>1999-07-21T16:27:58Z</time>
      </trkpt>
      <trkpt lat="43.366093" lon="-5.861183">
        <ele>241.859</ele>
        <time>1999-07-21T16:28:01Z</time>
      </trkpt>
      <trkpt lat="43.366134" lon="-5.861212">
        <ele>242.203</ele>
        <time>1999-07-21T16:28:02Z</time>
      </trkpt>
      <trkpt lat="43.366179" lon="-5.861231">
        <ele>242.423</ele>
        <time>1999-07-21T16:28:03Z</time>
      </trkpt>
      <trkpt lat="43.366222" lon="-5.861245">
        <ele>242.808</ele>
        <time>1999-07-21T16:28:04Z</time>
      </trkpt>
      <trkpt lat="43.366264" lon="-5.861253">
        <ele>243.638</ele>
        <time>1999-07-21T16:28:05Z</time>
      </trkpt>
      <trkpt lat="43.366305" lon="-5.861256">
        <ele>244.013</ele>
        <time>1999-07-21T16:28:06Z</time>
      </trkpt>
      <trkpt lat="43.366378" lon="-5.861260">
        <ele>244.633</ele>
        <time>1999-07-21T16:28:08Z</time>
      </trkpt>
      <trkpt lat="43.366426" lon="-5.861247">
        <ele>245.234</ele>
        <time>1999-07-21T16:28:10Z</time>
      </trkpt>
      <trkpt lat="43.366454" lon="-5.861234">
        <ele>245.872</ele>
        <time>1999-07-21T16:28:12Z</time>
      </trkpt>
      <trkpt lat="43.366461" lon="-5.861234">
        <ele>246.430</ele>
        <time>1999-07-21T16:28:14Z</time>
      </trkpt>
      <trkpt lat="43.366461" lon="-5.861235">
        <ele>246.811</ele>
        <time>1999-07-21T16:28:15Z</time>
      </trkpt>
      <trkpt lat="43.366957" lon="-5.861356">
        <ele>248.481</ele>
        <time>1999-07-22T09:49:25Z</time>
      </trkpt>
      <trkpt lat="43.366959" lon="-5.861406">
        <ele>248.461</ele>
        <time>1999-07-22T09:49:26Z</time>
      </trkpt>
      <trkpt lat="43.366978" lon="-5.861642">
        <ele>248.217</ele>
        <time>1999-07-22T09:49:30Z</time>
      </trkpt>
      <trkpt lat="43.366986" lon="-5.861714">
        <ele>248.208</ele>
        <time>1999-07-22T09:49:31Z</time>
      </trkpt>
      <trkpt lat="43.367007" lon="-5.861938">
        <ele>248.021</ele>
        <time>1999-07-22T09:49:34Z</time>
      </trkpt>
      <trkpt lat="43.367020" lon="-5.862073">
        <ele>247.666</ele>
        <time>1999-07-22T09:49:36Z</time>
      </trkpt>
      <trkpt lat="43.367030" lon="-5.862227">
        <ele>247.227</ele>
        <time>1999-07-22T09:49:39Z</time>
      </trkpt>
      <trkpt lat="43.367012" lon="-5.862264">
        <ele>247.253</ele>
        <time>1999-07-22T09:49:40Z</time>
      </trkpt>
      <trkpt lat="43.366865" lon="-5.862333">
        <ele>246.669</ele>
        <time>1999-07-22T09:49:43Z</time>
      </trkpt>
      <trkpt lat="43.366790" lon="-5.862346">
        <ele>246.256</ele>
        <time>1999-07-22T09:49:44Z</time>
      </trkpt>
      <trkpt lat="43.366728" lon="-5.862359">
        <ele>245.813</ele>
        <time>1999-07-22T09:49:45Z</time>
      </trkpt>
      <trkpt lat="43.366634" lon="-5.862397">
        <ele>245.469</ele>
        <time>1999-07-22T09:49:47Z</time>
      </trkpt>
      <trkpt lat="43.366595" lon="-5.862432">
        <ele>245.012</ele>
        <time>1999-07-22T09:49:48Z</time>
      </trkpt>
      <trkpt lat="43.366514" lon="-5.862519">
        <ele>244.032</ele>
        <time>1999-07-22T09:49:50Z</time>
      </trkpt>
      <trkpt lat="43.366490" lon="-5.862591">
        <ele>243.605</ele>
        <time>1999-07-22T09:49:51Z</time>
      </trkpt>
      <trkpt lat="43.366436" lon="-5.862756">
        <ele>242.408</ele>
        <time>1999-07-22T09:49:53Z</time>
      </trkpt>
      <trkpt lat="43.366401" lon="-5.862842">
        <ele>241.884</ele>
        <time>1999-07-22T09:49:54Z</time>
      </trkpt>
      <trkpt lat="43.366305" lon="-5.863017">
        <ele>241.279</ele>
        <time>1999-07-22T09:49:56Z</time>
      </trkpt>
      <trkpt lat="43.366188" lon="-5.863191">
        <ele>240.670</ele>
        <time>1999-07-22T09:49:58Z</time>
      </trkpt>
      <trkpt lat="43.366057" lon="-5.863356">
        <ele>240.446</ele>
        <time>1999-07-22T09:50:00Z</time>
      </trkpt>
      <trkpt lat="43.365986" lon="-5.863427">
        <ele>240.042</ele>
        <time>1999-07-22T09:50:01Z</time>
      </trkpt>
      <trkpt lat="43.365915" lon="-5.863493">
        <ele>239.689</ele>
        <time>1999-07-22T09:50:02Z</time>
      </trkpt>
      <trkpt lat="43.365712" lon="-5.863686">
        <ele>238.836</ele>
        <time>1999-07-22T09:50:05Z</time>
      </trkpt>
      <trkpt lat="43.365642" lon="-5.863817">
        <ele>238.052</ele>
        <time>1999-07-22T09:50:07Z</time>
      </trkpt>
      <trkpt lat="43.365612" lon="-5.863872">
        <ele>237.697</ele>
        <time>1999-07-22T09:50:08Z</time>
      </trkpt>
      <trkpt lat="43.365574" lon="-5.863967">
        <ele>236.623</ele>
        <time>1999-07-22T09:50:10Z</time>
      </trkpt>
      <trkpt lat="43.365563" lon="-5.864018">
        <ele>236.225</ele>
        <time>1999-07-22T09:50:11Z</time>
      </trkpt>
      <trkpt lat="43.365582" lon="-5.864122">
        <ele>235.208</ele>
        <time>1999-07-22T09:50:13Z</time>
      </trkpt>
      <trkpt lat="43.365608" lon="-5.864169">
        <ele>234.872</ele>
        <time>1999-07-22T09:50:14Z</time>
      </trkpt>
      <trkpt lat="43.365689" lon="-5.864257">
        <ele>233.637</ele>
        <time>1999-07-22T09:50:16Z</time>
      </trkpt>
      <trkpt lat="43.365731" lon="-5.864299">
        <ele>233.298</ele>
        <time>1999-07-22T09:50:17Z</time>
      </trkpt>
      <trkpt lat="43.365831" lon="-5.864392">
        <ele>232.834</ele>
        <time>1999-07-22T09:50:19Z</time>
      </trkpt>
      <trkpt lat="43.365977" lon="-5.864532">
        <ele>232.660</ele>
        <time>1999-07-22T09:50:22Z</time>
      </trkpt>
      <trkpt lat="43.366026" lon="-5.864581">
        <ele>232.687</ele>
        <time>1999-07-22T09:50:23Z</time>
      </trkpt>
      <trkpt lat="43.366284" lon="-5.864824">
        <ele>232.464</ele>
        <time>1999-07-22T09:50:28Z</time>
      </trkpt>
      <trkpt lat="43.366382" lon="-5.864918">
        <ele>232.210</ele>
        <time>1999-07-22T09:50:30Z</time>
      </trkpt>
      <trkpt lat="43.366614" lon="-5.865140">
        <ele>232.229</ele>
        <time>1999-07-22T09:50:35Z</time>
      </trkpt>
      <trkpt lat="43.366749" lon="-5.865255">
        <ele>232.200</ele>
        <time>1999-07-22T09:50:38Z</time>
      </trkpt>
      <trkpt lat="43.366931" lon="-5.865422">
        <ele>232.220</ele>
        <time>1999-07-22T09:50:42Z</time>
      </trkpt>
      <trkpt lat="43.367019" lon="-5.865506">
        <ele>232.408</ele>
        <time>1999-07-22T09:50:44Z</time>
      </trkpt>
      <trkpt lat="43.367161" lon="-5.865620">
        <ele>232.685</ele>
        <time>1999-07-22T09:50:47Z</time>
      </trkpt>
      <trkpt lat="43.367255" lon="-5.865707">
        <ele>232.810</ele>
        <time>1999-07-22T09:50:49Z</time>
      </trkpt>
      <trkpt lat="43.367361" lon="-5.865766">
        <ele>233.091</ele>
        <time>1999-07-22T09:50:51Z</time>
      </trkpt>
      <trkpt lat="43.367517" lon="-5.865834">
        <ele>233.477</ele>
        <time>1999-07-22T09:50:54Z</time>
      </trkpt>
      <trkpt lat="43.367572" lon="-5.865851">
        <ele>233.613</ele>
        <time>1999-07-22T09:50:55Z</time>
      </trkpt>
      <trkpt lat="43.367681" lon="-5.865885">
        <ele>233.880</ele>
        <time>1999-07-22T09:50:57Z</time>
      </trkpt>
      <trkpt lat="43.368001" lon="-5.866033">
        <ele>234.427</ele>
        <time>1999-07-22T09:51:03Z</time>
      </trkpt>
      <trkpt lat="43.368054" lon="-5.866066">
        <ele>234.613</ele>
        <time>1999-07-22T09:51:04Z</time>
      </trkpt>
      <trkpt lat="43.368103" lon="-5.866101">
        <ele>234.873</ele>
        <time>1999-07-22T09:51:05Z</time>
      </trkpt>
      <trkpt lat="43.368390" lon="-5.866360">
        <ele>235.685</ele>
        <time>1999-07-22T09:51:11Z</time>
      </trkpt>
      <trkpt lat="43.368635" lon="-5.866651">
        <ele>236.413</ele>
        <time>1999-07-22T09:51:17Z</time>
      </trkpt>
      <trkpt lat="43.368677" lon="-5.866707">
        <ele>236.608</ele>
        <time>1999-07-22T09:51:18Z</time>
      </trkpt>
      <trkpt lat="43.368763" lon="-5.866831">
        <ele>237.080</ele>
        <time>1999-07-22T09:51:20Z</time>
      </trkpt>
      <trkpt lat="43.368826" lon="-5.866972">
        <ele>237.255</ele>
        <time>1999-07-22T09:51:22Z</time>
      </trkpt>
      <trkpt lat="43.368900" lon="-5.867101">
        <ele>237.246</ele>
        <time>1999-07-22T09:51:24Z</time>
      </trkpt>
      <trkpt lat="43.368956" lon="-5.867282">
        <ele>237.622</ele>
        <time>1999-07-22T09:51:27Z</time>
      </trkpt>
      <trkpt lat="43.368928" lon="-5.867415">
        <ele>237.688</ele>
        <time>1999-07-22T09:51:29Z</time>
      </trkpt>
      <trkpt lat="43.368910" lon="-5.867483">
        <ele>237.635</ele>
        <time>1999-07-22T09:51:30Z</time>
      </trkpt>
      <trkpt lat="43.368870" lon="-5.867633">
        <ele>237.862</ele>
        <time>1999-07-22T09:51:32Z</time>
      </trkpt>
      <trkpt lat="43.368829" lon="-5.867765">
        <ele>237.848</ele>
        <time>1999-07-22T09:51:34Z</time>
      </trkpt>
      <trkpt lat="43.368827" lon="-5.867830">
        <ele>237.827</ele>
        <time>1999-07-22T09:51:35Z</time>
      </trkpt>
      <trkpt lat="43.368831" lon="-5.867892">
        <ele>237.668</ele>
        <time>1999-07-22T09:51:36Z</time>
      </trkpt>
      <trkpt lat="43.368850" lon="-5.867996">
        <ele>237.414</ele>
        <time>1999-07-22T09:51:38Z</time>
      </trkpt>
      <trkpt lat="43.368864" lon="-5.868055">
        <ele>237.208</ele>
        <time>1999-07-22T09:51:39Z</time>
      </trkpt>
      <trkpt lat="43.368876" lon="-5.868163">
        <ele>236.615</ele>
        <time>1999-07-22T09:51:41Z</time>
      </trkpt>
      <trkpt lat="43.368854" lon="-5.868328">
        <ele>236.270</ele>
        <time>1999-07-22T09:51:44Z</time>
      </trkpt>
      <trkpt lat="43.368691" lon="-5.868576">
        <ele>236.091</ele>
        <time>1999-07-22T09:51:48Z</time>
      </trkpt>
      <trkpt lat="43.368643" lon="-5.868648">
        <ele>236.077</ele>
        <time>1999-07-22T09:51:49Z</time>
      </trkpt>
      <trkpt lat="43.368573" lon="-5.868826">
        <ele>235.883</ele>
        <time>1999-07-22T09:51:51Z</time>
      </trkpt>
      <trkpt lat="43.368541" lon="-5.869022">
        <ele>235.640</ele>
        <time>1999-07-22T09:51:53Z</time>
      </trkpt>
      <trkpt lat="43.368528" lon="-5.869119">
        <ele>235.437</ele>
        <time>1999-07-22T09:51:54Z</time>
      </trkpt>
      <trkpt lat="43.368511" lon="-5.869311">
        <ele>234.893</ele>
        <time>1999-07-22T09:51:56Z</time>
      </trkpt>
      <trkpt lat="43.368501" lon="-5.869403">
        <ele>234.449</ele>
        <time>1999-07-22T09:51:57Z</time>
      </trkpt>
      <trkpt lat="43.368465" lon="-5.869811">
        <ele>233.402</ele>
        <time>1999-07-22T09:52:01Z</time>
      </trkpt>
      <trkpt lat="43.368456" lon="-5.869924">
        <ele>233.222</ele>
        <time>1999-07-22T09:52:02Z</time>
      </trkpt>
      <trkpt lat="43.368393" lon="-5.870491">
        <ele>233.008</ele>
        <time>1999-07-22T09:52:07Z</time>
      </trkpt>
      <trkpt lat="43.368344" lon="-5.870803">
        <ele>232.687</ele>
        <time>1999-07-22T09:52:10Z</time>
      </trkpt>
      <trkpt lat="43.368336" lon="-5.870908">
        <ele>232.252</ele>
        <time>1999-07-22T09:52:11Z</time>
      </trkpt>
      <trkpt lat="43.368316" lon="-5.871114">
        <ele>231.883</ele>
        <time>1999-07-22T09:52:13Z</time>
      </trkpt>
      <trkpt lat="43.368298" lon="-5.871321">
        <ele>231.439</ele>
        <time>1999-07-22T09:52:15Z</time>
      </trkpt>
      <trkpt lat="43.368290" lon="-5.871424">
        <ele>231.255</ele>
        <time>1999-07-22T09:52:16Z</time>
      </trkpt>
      <trkpt lat="43.368273" lon="-5.871628">
        <ele>230.612</ele>
        <time>1999-07-22T09:52:18Z</time>
      </trkpt>
      <trkpt lat="43.368254" lon="-5.871822">
        <ele>230.479</ele>
        <time>1999-07-22T09:52:20Z</time>
      </trkpt>
      <trkpt lat="43.368231" lon="-5.871908">
        <ele>230.255</ele>
        <time>1999-07-22T09:52:21Z</time>
      </trkpt>
      <trkpt lat="43.368184" lon="-5.872082">
        <ele>229.615</ele>
        <time>1999-07-22T09:52:23Z</time>
      </trkpt>
      <trkpt lat="43.368161" lon="-5.872164">
        <ele>229.465</ele>
        <time>1999-07-22T09:52:24Z</time>
      </trkpt>
      <trkpt lat="43.368148" lon="-5.872245">
        <ele>228.811</ele>
        <time>1999-07-22T09:52:25Z</time>
      </trkpt>
      <trkpt lat="43.368099" lon="-5.872482">
        <ele>228.208</ele>
        <time>1999-07-22T09:52:28Z</time>
      </trkpt>
      <trkpt lat="43.368081" lon="-5.872563">
        <ele>228.284</ele>
        <time>1999-07-22T09:52:29Z</time>
      </trkpt>
      <trkpt lat="43.368063" lon="-5.872648">
        <ele>228.099</ele>
        <time>1999-07-22T09:52:30Z</time>
      </trkpt>
      <trkpt lat="43.368047" lon="-5.872736">
        <ele>227.890</ele>
        <time>1999-07-22T09:52:31Z</time>
      </trkpt>
      <trkpt lat="43.367997" lon="-5.873107">
        <ele>227.666</ele>
        <time>1999-07-22T09:52:35Z</time>
      </trkpt>
      <trkpt lat="43.367984" lon="-5.873309">
        <ele>227.412</ele>
        <time>1999-07-22T09:52:37Z</time>
      </trkpt>
      <trkpt lat="43.367947" lon="-5.873713">
        <ele>226.899</ele>
        <time>1999-07-22T09:52:41Z</time>
      </trkpt>
      <trkpt lat="43.367922" lon="-5.874015">
        <ele>225.866</ele>
        <time>1999-07-22T09:52:44Z</time>
      </trkpt>
      <trkpt lat="43.367917" lon="-5.874108">
        <ele>225.692</ele>
        <time>1999-07-22T09:52:45Z</time>
      </trkpt>
      <trkpt lat="43.367913" lon="-5.874205">
        <ele>225.298</ele>
        <time>1999-07-22T09:52:46Z</time>
      </trkpt>
      <trkpt lat="43.367932" lon="-5.874411">
        <ele>224.415</ele>
        <time>1999-07-22T09:52:48Z</time>
      </trkpt>
      <trkpt lat="43.367940" lon="-5.874514">
        <ele>224.026</ele>
        <time>1999-07-22T09:52:49Z</time>
      </trkpt>
      <trkpt lat="43.367936" lon="-5.874614">
        <ele>223.408</ele>
        <time>1999-07-22T09:52:50Z</time>
      </trkpt>
      <trkpt lat="43.367918" lon="-5.874707">
        <ele>223.062</ele>
        <time>1999-07-22T09:52:51Z</time>
      </trkpt>
      <trkpt lat="43.367879" lon="-5.874787">
        <ele>222.487</ele>
        <time>1999-07-22T09:52:52Z</time>
      </trkpt>
      <trkpt lat="43.367769" lon="-5.874887">
        <ele>221.888</ele>
        <time>1999-07-22T09:52:54Z</time>
      </trkpt>
      <trkpt lat="43.367703" lon="-5.874891">
        <ele>221.674</ele>
        <time>1999-07-22T09:52:55Z</time>
      </trkpt>
      <trkpt lat="43.367573" lon="-5.874816">
        <ele>221.290</ele>
        <time>1999-07-22T09:52:57Z</time>
      </trkpt>
      <trkpt lat="43.366894" lon="-5.874423">
        <ele>220.267</ele>
        <time>1999-07-22T09:53:06Z</time>
      </trkpt>
      <trkpt lat="43.366894" lon="-5.874423">
        <ele>220.254</ele>
        <time>1999-07-22T09:53:07Z</time>
      </trkpt>
      <trkpt lat="43.366602" lon="-5.874342">
        <ele>220.240</ele>
        <time>1999-07-22T09:53:11Z</time>
      </trkpt>
      <trkpt lat="43.366453" lon="-5.874307">
        <ele>220.074</ele>
        <time>1999-07-22T09:53:13Z</time>
      </trkpt>
      <trkpt lat="43.366302" lon="-5.874266">
        <ele>219.856</ele>
        <time>1999-07-22T09:53:15Z</time>
      </trkpt>
      <trkpt lat="43.366085" lon="-5.874207">
        <ele>219.221</ele>
        <time>1999-07-22T09:53:18Z</time>
      </trkpt>
      <trkpt lat="43.365874" lon="-5.874152">
        <ele>218.208</ele>
        <time>1999-07-22T09:53:21Z</time>
      </trkpt>
      <trkpt lat="43.365809" lon="-5.874135">
        <ele>218.060</ele>
        <time>1999-07-22T09:53:22Z</time>
      </trkpt>
      <trkpt lat="43.365748" lon="-5.874117">
        <ele>217.815</ele>
        <time>1999-07-22T09:53:23Z</time>
      </trkpt>
      <trkpt lat="43.365639" lon="-5.874064">
        <ele>217.636</ele>
        <time>1999-07-22T09:53:25Z</time>
      </trkpt>
      <trkpt lat="43.365573" lon="-5.873976">
        <ele>217.422</ele>
        <time>1999-07-22T09:53:27Z</time>
      </trkpt>
      <trkpt lat="43.365559" lon="-5.873805">
        <ele>217.248</ele>
        <time>1999-07-22T09:53:30Z</time>
      </trkpt>
      <trkpt lat="43.365557" lon="-5.873754">
        <ele>217.245</ele>
        <time>1999-07-22T09:53:31Z</time>
      </trkpt>
      <trkpt lat="43.365615" lon="-5.873562">
        <ele>217.292</ele>
        <time>1999-07-22T09:53:36Z</time>
      </trkpt>
      <trkpt lat="43.365640" lon="-5.873475">
        <ele>217.478</ele>
        <time>1999-07-22T09:53:41Z</time>
      </trkpt>
      <trkpt lat="43.365639" lon="-5.873453">
        <ele>217.414</ele>
        <time>1999-07-22T09:53:42Z</time>
      </trkpt>
      <trkpt lat="43.365655" lon="-5.873384">
        <ele>217.654</ele>
        <time>1999-07-22T09:53:46Z</time>
      </trkpt>
      <trkpt lat="43.365658" lon="-5.873367">
        <ele>217.609</ele>
        <time>1999-07-22T09:53:47Z</time>
      </trkpt>
      <trkpt lat="43.365678" lon="-5.873348">
        <ele>217.808</ele>
        <time>1999-07-22T09:53:50Z</time>
      </trkpt>
      <trkpt lat="43.365688" lon="-5.873349">
        <ele>217.874</ele>
        <time>1999-07-22T09:53:51Z</time>
      </trkpt>
      <trkpt lat="43.365698" lon="-5.873352">
        <ele>217.839</ele>
        <time>1999-07-22T09:53:52Z</time>
      </trkpt>
      <trkpt lat="43.365700" lon="-5.873356">
        <ele>217.880</ele>
        <time>1999-07-22T09:53:54Z</time>
      </trkpt>
      <trkpt lat="43.365695" lon="-5.873380">
        <ele>215.476</ele>
        <time>1999-07-22T10:01:00Z</time>
      </trkpt>
      <trkpt lat="43.365695" lon="-5.873380">
        <ele>215.692</ele>
        <time>1999-07-22T10:01:01Z</time>
      </trkpt>
      <trkpt lat="43.365676" lon="-5.873438">
        <ele>215.839</ele>
        <time>1999-07-22T10:01:21Z</time>
      </trkpt>
      <trkpt lat="43.365667" lon="-5.873556">
        <ele>215.896</ele>
        <time>1999-07-22T10:01:24Z</time>
      </trkpt>
      <trkpt lat="43.365659" lon="-5.873643">
        <ele>215.642</ele>
        <time>1999-07-22T10:01:26Z</time>
      </trkpt>
      <trkpt lat="43.365655" lon="-5.873694">
        <ele>215.683</ele>
        <time>1999-07-22T10:01:27Z</time>
      </trkpt>
      <trkpt lat="43.365649" lon="-5.873807">
        <ele>215.625</ele>
        <time>1999-07-22T10:01:29Z</time>
      </trkpt>
      <trkpt lat="43.365593" lon="-5.873978">
        <ele>215.417</ele>
        <time>1999-07-22T10:01:32Z</time>
      </trkpt>
      <trkpt lat="43.365502" lon="-5.874041">
        <ele>215.408</ele>
        <time>1999-07-22T10:01:34Z</time>
      </trkpt>
      <trkpt lat="43.365457" lon="-5.874078">
        <ele>215.221</ele>
        <time>1999-07-22T10:01:35Z</time>
      </trkpt>
      <trkpt lat="43.365415" lon="-5.874123">
        <ele>215.266</ele>
        <time>1999-07-22T10:01:36Z</time>
      </trkpt>
      <trkpt lat="43.365222" lon="-5.874274">
        <ele>215.027</ele>
        <time>1999-07-22T10:01:40Z</time>
      </trkpt>
      <trkpt lat="43.365112" lon="-5.874340">
        <ele>215.023</ele>
        <time>1999-07-22T10:01:42Z</time>
      </trkpt>
      <trkpt lat="43.365029" lon="-5.874476">
        <ele>215.049</ele>
        <time>1999-07-22T10:01:44Z</time>
      </trkpt>
      <trkpt lat="43.364958" lon="-5.874747">
        <ele>215.046</ele>
        <time>1999-07-22T10:01:47Z</time>
      </trkpt>
      <trkpt lat="43.364916" lon="-5.874947">
        <ele>215.083</ele>
        <time>1999-07-22T10:01:49Z</time>
      </trkpt>
      <trkpt lat="43.364769" lon="-5.875631">
        <ele>214.879</ele>
        <time>1999-07-22T10:01:55Z</time>
      </trkpt>
      <trkpt lat="43.364687" lon="-5.876026">
        <ele>214.292</ele>
        <time>1999-07-22T10:01:58Z</time>
      </trkpt>
      <trkpt lat="43.364594" lon="-5.876585">
        <ele>213.073</ele>
        <time>1999-07-22T10:02:02Z</time>
      </trkpt>
      <trkpt lat="43.364564" lon="-5.876817">
        <ele>212.420</ele>
        <time>1999-07-22T10:02:04Z</time>
      </trkpt>
      <trkpt lat="43.364556" lon="-5.876904">
        <ele>212.008</ele>
        <time>1999-07-22T10:02:05Z</time>
      </trkpt>
      <trkpt lat="43.364548" lon="-5.876979">
        <ele>211.492</ele>
        <time>1999-07-22T10:02:06Z</time>
      </trkpt>
      <trkpt lat="43.364538" lon="-5.877099">
        <ele>210.447</ele>
        <time>1999-07-22T10:02:08Z</time>
      </trkpt>
      <trkpt lat="43.364536" lon="-5.877154">
        <ele>209.668</ele>
        <time>1999-07-22T10:02:09Z</time>
      </trkpt>
      <trkpt lat="43.364536" lon="-5.877213">
        <ele>209.234</ele>
        <time>1999-07-22T10:02:10Z</time>
      </trkpt>
      <trkpt lat="43.364546" lon="-5.877277">
        <ele>208.440</ele>
        <time>1999-07-22T10:02:11Z</time>
      </trkpt>
      <trkpt lat="43.364568" lon="-5.877340">
        <ele>207.487</ele>
        <time>1999-07-22T10:02:12Z</time>
      </trkpt>
      <trkpt lat="43.364598" lon="-5.877399">
        <ele>206.234</ele>
        <time>1999-07-22T10:02:13Z</time>
      </trkpt>
      <trkpt lat="43.364667" lon="-5.877518">
        <ele>204.630</ele>
        <time>1999-07-22T10:02:15Z</time>
      </trkpt>
      <trkpt lat="43.364744" lon="-5.877633">
        <ele>203.666</ele>
        <time>1999-07-22T10:02:17Z</time>
      </trkpt>
      <trkpt lat="43.364792" lon="-5.877679">
        <ele>203.429</ele>
        <time>1999-07-22T10:02:18Z</time>
      </trkpt>
      <trkpt lat="43.364847" lon="-5.877711">
        <ele>203.221</ele>
        <time>1999-07-22T10:02:19Z</time>
      </trkpt>
      <trkpt lat="43.364965" lon="-5.877747">
        <ele>203.008</ele>
        <time>1999-07-22T10:02:21Z</time>
      </trkpt>
      <trkpt lat="43.365213" lon="-5.877805">
        <ele>203.089</ele>
        <time>1999-07-22T10:02:25Z</time>
      </trkpt>
      <trkpt lat="43.365737" lon="-5.877929">
        <ele>202.664</ele>
        <time>1999-07-22T10:02:33Z</time>
      </trkpt>
      <trkpt lat="43.366052" lon="-5.878009">
        <ele>202.265</ele>
        <time>1999-07-22T10:02:38Z</time>
      </trkpt>
      <trkpt lat="43.366241" lon="-5.878048">
        <ele>202.061</ele>
        <time>1999-07-22T10:02:41Z</time>
      </trkpt>
      <trkpt lat="43.366301" lon="-5.878045">
        <ele>202.077</ele>
        <time>1999-07-22T10:02:42Z</time>
      </trkpt>
      <trkpt lat="43.366411" lon="-5.877987">
        <ele>201.814</ele>
        <time>1999-07-22T10:02:44Z</time>
      </trkpt>
      <trkpt lat="43.366473" lon="-5.877762">
        <ele>201.851</ele>
        <time>1999-07-22T10:02:47Z</time>
      </trkpt>
      <trkpt lat="43.366503" lon="-5.877523">
        <ele>201.877</ele>
        <time>1999-07-22T10:02:50Z</time>
      </trkpt>
      <trkpt lat="43.366512" lon="-5.877448">
        <ele>201.869</ele>
        <time>1999-07-22T10:02:51Z</time>
      </trkpt>
      <trkpt lat="43.366538" lon="-5.877232">
        <ele>202.204</ele>
        <time>1999-07-22T10:02:54Z</time>
      </trkpt>
      <trkpt lat="43.366557" lon="-5.877041">
        <ele>202.624</ele>
        <time>1999-07-22T10:02:57Z</time>
      </trkpt>
      <trkpt lat="43.366562" lon="-5.876980">
        <ele>202.808</ele>
        <time>1999-07-22T10:02:58Z</time>
      </trkpt>
      <trkpt lat="43.366570" lon="-5.876867">
        <ele>203.269</ele>
        <time>1999-07-22T10:03:00Z</time>
      </trkpt>
      <trkpt lat="43.366576" lon="-5.876814">
        <ele>203.654</ele>
        <time>1999-07-22T10:03:01Z</time>
      </trkpt>
      <trkpt lat="43.366609" lon="-5.876619">
        <ele>204.485</ele>
        <time>1999-07-22T10:03:05Z</time>
      </trkpt>
      <trkpt lat="43.366614" lon="-5.876574">
        <ele>204.681</ele>
        <time>1999-07-22T10:03:06Z</time>
      </trkpt>
      <trkpt lat="43.366671" lon="-5.876290">
        <ele>205.867</ele>
        <time>1999-07-22T10:03:12Z</time>
      </trkpt>
      <trkpt lat="43.366646" lon="-5.876210">
        <ele>206.824</ele>
        <time>1999-07-22T10:03:16Z</time>
      </trkpt>
      <trkpt lat="43.366636" lon="-5.876208">
        <ele>207.011</ele>
        <time>1999-07-22T10:03:17Z</time>
      </trkpt>
      <trkpt lat="43.366578" lon="-5.876120">
        <ele>208.417</ele>
        <time>1999-07-22T10:06:27Z</time>
      </trkpt>
      <trkpt lat="43.366578" lon="-5.876123">
        <ele>208.443</ele>
        <time>1999-07-22T10:06:28Z</time>
      </trkpt>
      <trkpt lat="43.366652" lon="-5.876201">
        <ele>208.464</ele>
        <time>1999-07-22T10:07:00Z</time>
      </trkpt>
      <trkpt lat="43.366685" lon="-5.876213">
        <ele>208.410</ele>
        <time>1999-07-22T10:07:01Z</time>
      </trkpt>
      <trkpt lat="43.366755" lon="-5.876231">
        <ele>208.408</ele>
        <time>1999-07-22T10:07:03Z</time>
      </trkpt>
      <trkpt lat="43.366832" lon="-5.876250">
        <ele>208.417</ele>
        <time>1999-07-22T10:07:05Z</time>
      </trkpt>
      <trkpt lat="43.366936" lon="-5.876275">
        <ele>208.432</ele>
        <time>1999-07-22T10:07:08Z</time>
      </trkpt>
      <trkpt lat="43.366997" lon="-5.876291">
        <ele>208.443</ele>
        <time>1999-07-22T10:07:10Z</time>
      </trkpt>
      <trkpt lat="43.367094" lon="-5.876324">
        <ele>208.819</ele>
        <time>1999-07-22T10:07:14Z</time>
      </trkpt>
      <trkpt lat="43.367141" lon="-5.876344">
        <ele>208.885</ele>
        <time>1999-07-22T10:07:16Z</time>
      </trkpt>
      <trkpt lat="43.367246" lon="-5.876399">
        <ele>209.052</ele>
        <time>1999-07-22T10:07:21Z</time>
      </trkpt>
      <trkpt lat="43.367363" lon="-5.876450">
        <ele>209.019</ele>
        <time>1999-07-22T10:07:26Z</time>
      </trkpt>
      <trkpt lat="43.367461" lon="-5.876487">
        <ele>209.075</ele>
        <time>1999-07-22T10:07:29Z</time>
      </trkpt>
      <trkpt lat="43.367579" lon="-5.876524">
        <ele>208.893</ele>
        <time>1999-07-22T10:07:33Z</time>
      </trkpt>
      <trkpt lat="43.367752" lon="-5.876574">
        <ele>208.865</ele>
        <time>1999-07-22T10:07:39Z</time>
      </trkpt>
      <trkpt lat="43.367892" lon="-5.876579">
        <ele>209.021</ele>
        <time>1999-07-22T10:07:43Z</time>
      </trkpt>
      <trkpt lat="43.367988" lon="-5.876585">
        <ele>209.008</ele>
        <time>1999-07-22T10:07:46Z</time>
      </trkpt>
      <trkpt lat="43.368105" lon="-5.876626">
        <ele>209.282</ele>
        <time>1999-07-22T10:07:49Z</time>
      </trkpt>
      <trkpt lat="43.368272" lon="-5.876674">
        <ele>209.297</ele>
        <time>1999-07-22T10:07:53Z</time>
      </trkpt>
      <trkpt lat="43.368436" lon="-5.876734">
        <ele>209.478</ele>
        <time>1999-07-22T10:07:57Z</time>
      </trkpt>
      <trkpt lat="43.368662" lon="-5.876797">
        <ele>210.274</ele>
        <time>1999-07-22T10:08:04Z</time>
      </trkpt>
      <trkpt lat="43.368805" lon="-5.876939">
        <ele>210.630</ele>
        <time>1999-07-22T10:08:09Z</time>
      </trkpt>
      <trkpt lat="43.368933" lon="-5.877133">
        <ele>210.617</ele>
        <time>1999-07-22T10:08:14Z</time>
      </trkpt>
      <trkpt lat="43.368943" lon="-5.877201">
        <ele>210.674</ele>
        <time>1999-07-22T10:08:15Z</time>
      </trkpt>
      <trkpt lat="43.368927" lon="-5.877563">
        <ele>210.620</ele>
        <time>1999-07-22T10:08:20Z</time>
      </trkpt>
      <trkpt lat="43.368922" lon="-5.877635">
        <ele>210.865</ele>
        <time>1999-07-22T10:08:21Z</time>
      </trkpt>
      <trkpt lat="43.368907" lon="-5.877792">
        <ele>210.868</ele>
        <time>1999-07-22T10:08:23Z</time>
      </trkpt>
      <trkpt lat="43.368892" lon="-5.877957">
        <ele>210.614</ele>
        <time>1999-07-22T10:08:25Z</time>
      </trkpt>
      <trkpt lat="43.368870" lon="-5.878044">
        <ele>210.608</ele>
        <time>1999-07-22T10:08:26Z</time>
      </trkpt>
      <trkpt lat="43.368856" lon="-5.878131">
        <ele>210.489</ele>
        <time>1999-07-22T10:08:27Z</time>
      </trkpt>
      <trkpt lat="43.368805" lon="-5.878482">
        <ele>210.054</ele>
        <time>1999-07-22T10:08:31Z</time>
      </trkpt>
      <trkpt lat="43.368782" lon="-5.878715">
        <ele>209.495</ele>
        <time>1999-07-22T10:08:34Z</time>
      </trkpt>
      <trkpt lat="43.368755" lon="-5.879012">
        <ele>209.041</ele>
        <time>1999-07-22T10:08:38Z</time>
      </trkpt>
      <trkpt lat="43.368719" lon="-5.879228">
        <ele>208.437</ele>
        <time>1999-07-22T10:08:41Z</time>
      </trkpt>
      <trkpt lat="43.368693" lon="-5.879440">
        <ele>208.034</ele>
        <time>1999-07-22T10:08:44Z</time>
      </trkpt>
      <trkpt lat="43.368683" lon="-5.879510">
        <ele>208.041</ele>
        <time>1999-07-22T10:08:45Z</time>
      </trkpt>
      <trkpt lat="43.368665" lon="-5.879650">
        <ele>207.847</ele>
        <time>1999-07-22T10:08:47Z</time>
      </trkpt>
      <trkpt lat="43.368621" lon="-5.880042">
        <ele>207.696</ele>
        <time>1999-07-22T10:08:53Z</time>
      </trkpt>
      <trkpt lat="43.368589" lon="-5.880310">
        <ele>207.631</ele>
        <time>1999-07-22T10:08:57Z</time>
      </trkpt>
      <trkpt lat="43.368560" lon="-5.880578">
        <ele>208.224</ele>
        <time>1999-07-22T10:09:01Z</time>
      </trkpt>
      <trkpt lat="43.368524" lon="-5.880858">
        <ele>208.208</ele>
        <time>1999-07-22T10:09:05Z</time>
      </trkpt>
      <trkpt lat="43.368509" lon="-5.881055">
        <ele>208.482</ele>
        <time>1999-07-22T10:09:08Z</time>
      </trkpt>
      <trkpt lat="43.368486" lon="-5.881243">
        <ele>208.667</ele>
        <time>1999-07-22T10:09:11Z</time>
      </trkpt>
      <trkpt lat="43.368456" lon="-5.881423">
        <ele>208.668</ele>
        <time>1999-07-22T10:09:14Z</time>
      </trkpt>
      <trkpt lat="43.368446" lon="-5.881485">
        <ele>208.844</ele>
        <time>1999-07-22T10:09:15Z</time>
      </trkpt>
      <trkpt lat="43.368411" lon="-5.881763">
        <ele>209.210</ele>
        <time>1999-07-22T10:09:19Z</time>
      </trkpt>
      <trkpt lat="43.368402" lon="-5.881836">
        <ele>209.487</ele>
        <time>1999-07-22T10:09:20Z</time>
      </trkpt>
      <trkpt lat="43.368383" lon="-5.881978">
        <ele>209.814</ele>
        <time>1999-07-22T10:09:22Z</time>
      </trkpt>
      <trkpt lat="43.368357" lon="-5.882182">
        <ele>210.260</ele>
        <time>1999-07-22T10:09:25Z</time>
      </trkpt>
      <trkpt lat="43.368320" lon="-5.882500">
        <ele>210.645</ele>
        <time>1999-07-22T10:09:30Z</time>
      </trkpt>
      <trkpt lat="43.368313" lon="-5.882561">
        <ele>210.647</ele>
        <time>1999-07-22T10:09:31Z</time>
      </trkpt>
      <trkpt lat="43.368261" lon="-5.882950">
        <ele>211.811</ele>
        <time>1999-07-22T10:09:37Z</time>
      </trkpt>
      <trkpt lat="43.368235" lon="-5.883152">
        <ele>212.608</ele>
        <time>1999-07-22T10:09:40Z</time>
      </trkpt>
      <trkpt lat="43.368228" lon="-5.883220">
        <ele>213.027</ele>
        <time>1999-07-22T10:09:41Z</time>
      </trkpt>
      <trkpt lat="43.368193" lon="-5.883490">
        <ele>213.432</ele>
        <time>1999-07-22T10:09:45Z</time>
      </trkpt>
      <trkpt lat="43.368161" lon="-5.883754">
        <ele>214.053</ele>
        <time>1999-07-22T10:09:49Z</time>
      </trkpt>
      <trkpt lat="43.368141" lon="-5.883888">
        <ele>214.449</ele>
        <time>1999-07-22T10:09:51Z</time>
      </trkpt>
      <trkpt lat="43.368102" lon="-5.884158">
        <ele>215.255</ele>
        <time>1999-07-22T10:09:55Z</time>
      </trkpt>
      <trkpt lat="43.368059" lon="-5.884484">
        <ele>216.082</ele>
        <time>1999-07-22T10:10:00Z</time>
      </trkpt>
      <trkpt lat="43.368049" lon="-5.884549">
        <ele>216.219</ele>
        <time>1999-07-22T10:10:01Z</time>
      </trkpt>
      <trkpt lat="43.367983" lon="-5.884959">
        <ele>217.265</ele>
        <time>1999-07-22T10:10:08Z</time>
      </trkpt>
      <trkpt lat="43.367960" lon="-5.885061">
        <ele>217.435</ele>
        <time>1999-07-22T10:10:10Z</time>
      </trkpt>
      <trkpt lat="43.367901" lon="-5.885362">
        <ele>218.286</ele>
        <time>1999-07-22T10:10:16Z</time>
      </trkpt>
      <trkpt lat="43.367885" lon="-5.885464">
        <ele>218.614</ele>
        <time>1999-07-22T10:10:18Z</time>
      </trkpt>
      <trkpt lat="43.367885" lon="-5.885625">
        <ele>219.808</ele>
        <time>1999-07-22T10:10:21Z</time>
      </trkpt>
      <trkpt lat="43.367895" lon="-5.885679">
        <ele>220.036</ele>
        <time>1999-07-22T10:10:22Z</time>
      </trkpt>
      <trkpt lat="43.367990" lon="-5.885854">
        <ele>220.631</ele>
        <time>1999-07-22T10:10:26Z</time>
      </trkpt>
      <trkpt lat="43.368020" lon="-5.885888">
        <ele>220.642</ele>
        <time>1999-07-22T10:10:27Z</time>
      </trkpt>
      <trkpt lat="43.368108" lon="-5.885989">
        <ele>221.078</ele>
        <time>1999-07-22T10:10:30Z</time>
      </trkpt>
      <trkpt lat="43.368257" lon="-5.886156">
        <ele>221.424</ele>
        <time>1999-07-22T10:10:35Z</time>
      </trkpt>
      <trkpt lat="43.368387" lon="-5.886269">
        <ele>222.051</ele>
        <time>1999-07-22T10:10:40Z</time>
      </trkpt>
      <trkpt lat="43.368412" lon="-5.886280">
        <ele>222.028</ele>
        <time>1999-07-22T10:10:41Z</time>
      </trkpt>
      <trkpt lat="43.368565" lon="-5.886327">
        <ele>223.014</ele>
        <time>1999-07-22T10:10:47Z</time>
      </trkpt>
      <trkpt lat="43.368595" lon="-5.886360">
        <ele>223.216</ele>
        <time>1999-07-22T10:10:49Z</time>
      </trkpt>
      <trkpt lat="43.368664" lon="-5.886435">
        <ele>223.676</ele>
        <time>1999-07-22T10:10:53Z</time>
      </trkpt>
      <trkpt lat="43.368695" lon="-5.886449">
        <ele>224.813</ele>
        <time>1999-07-22T10:10:55Z</time>
      </trkpt>
      <trkpt lat="43.368747" lon="-5.886464">
        <ele>225.808</ele>
        <time>1999-07-22T10:10:58Z</time>
      </trkpt>
      <trkpt lat="43.368766" lon="-5.886473">
        <ele>225.844</ele>
        <time>1999-07-22T10:10:59Z</time>
      </trkpt>
      <trkpt lat="43.368867" lon="-5.886508">
        <ele>227.019</ele>
        <time>1999-07-22T10:11:04Z</time>
      </trkpt>
      <trkpt lat="43.368966" lon="-5.886532">
        <ele>228.260</ele>
        <time>1999-07-22T10:11:08Z</time>
      </trkpt>
      <trkpt lat="43.369042" lon="-5.886545">
        <ele>229.866</ele>
        <time>1999-07-22T10:11:11Z</time>
      </trkpt>
      <trkpt lat="43.369139" lon="-5.886560">
        <ele>231.062</ele>
        <time>1999-07-22T10:11:15Z</time>
      </trkpt>
      <trkpt lat="43.369236" lon="-5.886586">
        <ele>232.219</ele>
        <time>1999-07-22T10:11:19Z</time>
      </trkpt>
      <trkpt lat="43.369350" lon="-5.886621">
        <ele>233.246</ele>
        <time>1999-07-22T10:11:23Z</time>
      </trkpt>
      <trkpt lat="43.369379" lon="-5.886632">
        <ele>233.222</ele>
        <time>1999-07-22T10:11:24Z</time>
      </trkpt>
      <trkpt lat="43.369532" lon="-5.886658">
        <ele>233.817</ele>
        <time>1999-07-22T10:11:28Z</time>
      </trkpt>
      <trkpt lat="43.369866" lon="-5.886652">
        <ele>234.087</ele>
        <time>1999-07-22T10:11:35Z</time>
      </trkpt>
      <trkpt lat="43.370123" lon="-5.886679">
        <ele>234.215</ele>
        <time>1999-07-22T10:11:41Z</time>
      </trkpt>
      <trkpt lat="43.370202" lon="-5.886679">
        <ele>234.408</ele>
        <time>1999-07-22T10:11:43Z</time>
      </trkpt>
      <trkpt lat="43.370394" lon="-5.886649">
        <ele>235.644</ele>
        <time>1999-07-22T10:11:48Z</time>
      </trkpt>
      <trkpt lat="43.370655" lon="-5.886597">
        <ele>236.889</ele>
        <time>1999-07-22T10:11:55Z</time>
      </trkpt>
      <trkpt lat="43.370732" lon="-5.886757">
        <ele>237.280</ele>
        <time>1999-07-22T10:11:59Z</time>
      </trkpt>
      <trkpt lat="43.370786" lon="-5.887090">
        <ele>237.636</ele>
        <time>1999-07-22T10:12:05Z</time>
      </trkpt>
      <trkpt lat="43.370819" lon="-5.887281">
        <ele>238.082</ele>
        <time>1999-07-22T10:12:08Z</time>
      </trkpt>
      <trkpt lat="43.370874" lon="-5.887507">
        <ele>238.499</ele>
        <time>1999-07-22T10:12:11Z</time>
      </trkpt>
      <trkpt lat="43.370904" lon="-5.887689">
        <ele>238.646</ele>
        <time>1999-07-22T10:12:13Z</time>
      </trkpt>
      <trkpt lat="43.370911" lon="-5.887894">
        <ele>238.692</ele>
        <time>1999-07-22T10:12:15Z</time>
      </trkpt>
      <trkpt lat="43.370904" lon="-5.888002">
        <ele>238.612</ele>
        <time>1999-07-22T10:12:16Z</time>
      </trkpt>
      <trkpt lat="43.370860" lon="-5.888230">
        <ele>238.632</ele>
        <time>1999-07-22T10:12:18Z</time>
      </trkpt>
      <trkpt lat="43.370803" lon="-5.888482">
        <ele>238.605</ele>
        <time>1999-07-22T10:12:20Z</time>
      </trkpt>
      <trkpt lat="43.370786" lon="-5.888617">
        <ele>238.608</ele>
        <time>1999-07-22T10:12:21Z</time>
      </trkpt>
      <trkpt lat="43.370781" lon="-5.888752">
        <ele>238.444</ele>
        <time>1999-07-22T10:12:22Z</time>
      </trkpt>
      <trkpt lat="43.370872" lon="-5.889143">
        <ele>237.289</ele>
        <time>1999-07-22T10:12:25Z</time>
      </trkpt>
      <trkpt lat="43.370916" lon="-5.889260">
        <ele>236.830</ele>
        <time>1999-07-22T10:12:26Z</time>
      </trkpt>
      <trkpt lat="43.371035" lon="-5.889435">
        <ele>235.686</ele>
        <time>1999-07-22T10:12:28Z</time>
      </trkpt>
      <trkpt lat="43.371116" lon="-5.889469">
        <ele>235.072</ele>
        <time>1999-07-22T10:12:29Z</time>
      </trkpt>
      <trkpt lat="43.371197" lon="-5.889504">
        <ele>234.639</ele>
        <time>1999-07-22T10:12:30Z</time>
      </trkpt>
      <trkpt lat="43.371287" lon="-5.889517">
        <ele>234.246</ele>
        <time>1999-07-22T10:12:31Z</time>
      </trkpt>
      <trkpt lat="43.371372" lon="-5.889517">
        <ele>233.632</ele>
        <time>1999-07-22T10:12:32Z</time>
      </trkpt>
      <trkpt lat="43.371455" lon="-5.889515">
        <ele>232.228</ele>
        <time>1999-07-22T10:12:33Z</time>
      </trkpt>
      <trkpt lat="43.371614" lon="-5.889508">
        <ele>230.289</ele>
        <time>1999-07-22T10:12:35Z</time>
      </trkpt>
      <trkpt lat="43.371757" lon="-5.889519">
        <ele>228.617</ele>
        <time>1999-07-22T10:12:37Z</time>
      </trkpt>
      <trkpt lat="43.371863" lon="-5.889589">
        <ele>227.808</ele>
        <time>1999-07-22T10:12:39Z</time>
      </trkpt>
      <trkpt lat="43.371874" lon="-5.889752">
        <ele>227.695</ele>
        <time>1999-07-22T10:12:42Z</time>
      </trkpt>
      <trkpt lat="43.371798" lon="-5.889829">
        <ele>227.690</ele>
        <time>1999-07-22T10:12:44Z</time>
      </trkpt>
      <trkpt lat="43.371748" lon="-5.889864">
        <ele>227.651</ele>
        <time>1999-07-22T10:12:45Z</time>
      </trkpt>
      <trkpt lat="43.371694" lon="-5.889900">
        <ele>227.677</ele>
        <time>1999-07-22T10:12:46Z</time>
      </trkpt>
      <trkpt lat="43.371580" lon="-5.889971">
        <ele>227.813</ele>
        <time>1999-07-22T10:12:48Z</time>
      </trkpt>
      <trkpt lat="43.371407" lon="-5.890074">
        <ele>229.210</ele>
        <time>1999-07-22T10:12:51Z</time>
      </trkpt>
      <trkpt lat="43.371270" lon="-5.890248">
        <ele>229.627</ele>
        <time>1999-07-22T10:12:54Z</time>
      </trkpt>
      <trkpt lat="43.371234" lon="-5.890322">
        <ele>229.653</ele>
        <time>1999-07-22T10:12:55Z</time>
      </trkpt>
      <trkpt lat="43.371172" lon="-5.890481">
        <ele>229.886</ele>
        <time>1999-07-22T10:12:57Z</time>
      </trkpt>
      <trkpt lat="43.371082" lon="-5.890719">
        <ele>230.060</ele>
        <time>1999-07-22T10:13:00Z</time>
      </trkpt>
      <trkpt lat="43.371023" lon="-5.890873">
        <ele>230.826</ele>
        <time>1999-07-22T10:13:02Z</time>
      </trkpt>
      <trkpt lat="43.370923" lon="-5.891097">
        <ele>231.208</ele>
        <time>1999-07-22T10:13:05Z</time>
      </trkpt>
      <trkpt lat="43.370903" lon="-5.891177">
        <ele>231.411</ele>
        <time>1999-07-22T10:13:06Z</time>
      </trkpt>
      <trkpt lat="43.370924" lon="-5.891346">
        <ele>231.416</ele>
        <time>1999-07-22T10:13:08Z</time>
      </trkpt>
      <trkpt lat="43.370961" lon="-5.891489">
        <ele>231.467</ele>
        <time>1999-07-22T10:13:10Z</time>
      </trkpt>
      <trkpt lat="43.371013" lon="-5.891666">
        <ele>231.473</ele>
        <time>1999-07-22T10:13:13Z</time>
      </trkpt>
      <trkpt lat="43.371091" lon="-5.891919">
        <ele>231.469</ele>
        <time>1999-07-22T10:13:19Z</time>
      </trkpt>
      <trkpt lat="43.371124" lon="-5.892091">
        <ele>232.276</ele>
        <time>1999-07-22T10:13:23Z</time>
      </trkpt>
      <trkpt lat="43.371154" lon="-5.892208">
        <ele>233.263</ele>
        <time>1999-07-22T10:13:26Z</time>
      </trkpt>
      <trkpt lat="43.371160" lon="-5.892250">
        <ele>233.669</ele>
        <time>1999-07-22T10:13:27Z</time>
      </trkpt>
      <trkpt lat="43.371176" lon="-5.892341">
        <ele>234.252</ele>
        <time>1999-07-22T10:13:29Z</time>
      </trkpt>
      <trkpt lat="43.371214" lon="-5.892470">
        <ele>235.253</ele>
        <time>1999-07-22T10:13:32Z</time>
      </trkpt>
      <trkpt lat="43.371226" lon="-5.892512">
        <ele>235.608</ele>
        <time>1999-07-22T10:13:33Z</time>
      </trkpt>
      <trkpt lat="43.371239" lon="-5.892553">
        <ele>236.008</ele>
        <time>1999-07-22T10:13:34Z</time>
      </trkpt>
      <trkpt lat="43.371268" lon="-5.892634">
        <ele>236.868</ele>
        <time>1999-07-22T10:13:36Z</time>
      </trkpt>
      <trkpt lat="43.371305" lon="-5.892777">
        <ele>237.883</ele>
        <time>1999-07-22T10:13:39Z</time>
      </trkpt>
      <trkpt lat="43.371320" lon="-5.892887">
        <ele>238.474</ele>
        <time>1999-07-22T10:13:41Z</time>
      </trkpt>
      <trkpt lat="43.371318" lon="-5.893057">
        <ele>239.030</ele>
        <time>1999-07-22T10:13:44Z</time>
      </trkpt>
      <trkpt lat="43.371334" lon="-5.893229">
        <ele>239.636</ele>
        <time>1999-07-22T10:13:47Z</time>
      </trkpt>
      <trkpt lat="43.371391" lon="-5.893443">
        <ele>240.283</ele>
        <time>1999-07-22T10:13:51Z</time>
      </trkpt>
      <trkpt lat="43.371406" lon="-5.893537">
        <ele>240.290</ele>
        <time>1999-07-22T10:13:53Z</time>
      </trkpt>
      <trkpt lat="43.371408" lon="-5.893782">
        <ele>241.026</ele>
        <time>1999-07-22T10:13:58Z</time>
      </trkpt>
      <trkpt lat="43.371402" lon="-5.893992">
        <ele>241.099</ele>
        <time>1999-07-22T10:14:01Z</time>
      </trkpt>
      <trkpt lat="43.371414" lon="-5.894073">
        <ele>241.007</ele>
        <time>1999-07-22T10:14:02Z</time>
      </trkpt>
      <trkpt lat="43.371481" lon="-5.894339">
        <ele>241.027</ele>
        <time>1999-07-22T10:14:05Z</time>
      </trkpt>
      <trkpt lat="43.371530" lon="-5.894539">
        <ele>241.008</ele>
        <time>1999-07-22T10:14:07Z</time>
      </trkpt>
      <trkpt lat="43.371541" lon="-5.894648">
        <ele>240.612</ele>
        <time>1999-07-22T10:14:08Z</time>
      </trkpt>
      <trkpt lat="43.371537" lon="-5.894832">
        <ele>239.867</ele>
        <time>1999-07-22T10:14:10Z</time>
      </trkpt>
      <trkpt lat="43.371537" lon="-5.895030">
        <ele>239.258</ele>
        <time>1999-07-22T10:14:13Z</time>
      </trkpt>
      <trkpt lat="43.371547" lon="-5.895080">
        <ele>238.834</ele>
        <time>1999-07-22T10:14:14Z</time>
      </trkpt>
      <trkpt lat="43.371628" lon="-5.895285">
        <ele>238.220</ele>
        <time>1999-07-22T10:14:19Z</time>
      </trkpt>
      <trkpt lat="43.371648" lon="-5.895327">
        <ele>238.277</ele>
        <time>1999-07-22T10:14:20Z</time>
      </trkpt>
      <trkpt lat="43.371710" lon="-5.895497">
        <ele>238.674</ele>
        <time>1999-07-22T10:14:25Z</time>
      </trkpt>
      <trkpt lat="43.371741" lon="-5.895561">
        <ele>239.490</ele>
        <time>1999-07-22T10:14:27Z</time>
      </trkpt>
      <trkpt lat="43.371790" lon="-5.895656">
        <ele>240.837</ele>
        <time>1999-07-22T10:14:30Z</time>
      </trkpt>
      <trkpt lat="43.371806" lon="-5.895687">
        <ele>241.049</ele>
        <time>1999-07-22T10:14:31Z</time>
      </trkpt>
      <trkpt lat="43.371852" lon="-5.895788">
        <ele>242.013</ele>
        <time>1999-07-22T10:14:34Z</time>
      </trkpt>
      <trkpt lat="43.371916" lon="-5.895894">
        <ele>243.008</ele>
        <time>1999-07-22T10:14:37Z</time>
      </trkpt>
      <trkpt lat="43.371956" lon="-5.895964">
        <ele>244.076</ele>
        <time>1999-07-22T10:14:39Z</time>
      </trkpt>
      <trkpt lat="43.371978" lon="-5.895996">
        <ele>244.481</ele>
        <time>1999-07-22T10:14:40Z</time>
      </trkpt>
      <trkpt lat="43.372037" lon="-5.896099">
        <ele>245.642</ele>
        <time>1999-07-22T10:14:43Z</time>
      </trkpt>
      <trkpt lat="43.372118" lon="-5.896260">
        <ele>246.858</ele>
        <time>1999-07-22T10:14:47Z</time>
      </trkpt>
      <trkpt lat="43.372221" lon="-5.896557">
        <ele>247.684</ele>
        <time>1999-07-22T10:14:54Z</time>
      </trkpt>
      <trkpt lat="43.372230" lon="-5.896589">
        <ele>247.881</ele>
        <time>1999-07-22T10:14:55Z</time>
      </trkpt>
      <trkpt lat="43.372235" lon="-5.896703">
        <ele>248.438</ele>
        <time>1999-07-22T10:14:59Z</time>
      </trkpt>
      <trkpt lat="43.372254" lon="-5.896794">
        <ele>249.094</ele>
        <time>1999-07-22T10:15:02Z</time>
      </trkpt>
      <trkpt lat="43.372269" lon="-5.896877">
        <ele>250.099</ele>
        <time>1999-07-22T10:15:05Z</time>
      </trkpt>
      <trkpt lat="43.372275" lon="-5.896900">
        <ele>250.207</ele>
        <time>1999-07-22T10:15:06Z</time>
      </trkpt>
      <trkpt lat="43.372324" lon="-5.897009">
        <ele>251.227</ele>
        <time>1999-07-22T10:15:10Z</time>
      </trkpt>
      <trkpt lat="43.372364" lon="-5.897093">
        <ele>252.008</ele>
        <time>1999-07-22T10:15:13Z</time>
      </trkpt>
      <trkpt lat="43.372378" lon="-5.897116">
        <ele>252.622</ele>
        <time>1999-07-22T10:15:14Z</time>
      </trkpt>
      <trkpt lat="43.372442" lon="-5.897241">
        <ele>254.097</ele>
        <time>1999-07-22T10:15:19Z</time>
      </trkpt>
      <trkpt lat="43.372466" lon="-5.897297">
        <ele>254.218</ele>
        <time>1999-07-22T10:15:21Z</time>
      </trkpt>
      <trkpt lat="43.372490" lon="-5.897390">
        <ele>254.674</ele>
        <time>1999-07-22T10:15:24Z</time>
      </trkpt>
      <trkpt lat="43.372477" lon="-5.897482">
        <ele>255.020</ele>
        <time>1999-07-22T10:15:26Z</time>
      </trkpt>
      <trkpt lat="43.372461" lon="-5.897545">
        <ele>255.217</ele>
        <time>1999-07-22T10:15:27Z</time>
      </trkpt>
      <trkpt lat="43.372432" lon="-5.897712">
        <ele>255.464</ele>
        <time>1999-07-22T10:15:29Z</time>
      </trkpt>
      <trkpt lat="43.372426" lon="-5.897811">
        <ele>255.490</ele>
        <time>1999-07-22T10:15:30Z</time>
      </trkpt>
      <trkpt lat="43.372484" lon="-5.898114">
        <ele>255.616</ele>
        <time>1999-07-22T10:15:33Z</time>
      </trkpt>
      <trkpt lat="43.372665" lon="-5.898441">
        <ele>255.676</ele>
        <time>1999-07-22T10:15:37Z</time>
      </trkpt>
      <trkpt lat="43.372809" lon="-5.898692">
        <ele>254.813</ele>
        <time>1999-07-22T10:15:40Z</time>
      </trkpt>
      <trkpt lat="43.372843" lon="-5.898788">
        <ele>253.808</ele>
        <time>1999-07-22T10:15:41Z</time>
      </trkpt>
      <trkpt lat="43.372894" lon="-5.898995">
        <ele>253.014</ele>
        <time>1999-07-22T10:15:43Z</time>
      </trkpt>
      <trkpt lat="43.372918" lon="-5.899097">
        <ele>252.829</ele>
        <time>1999-07-22T10:15:44Z</time>
      </trkpt>
      <trkpt lat="43.372955" lon="-5.899298">
        <ele>252.240</ele>
        <time>1999-07-22T10:15:46Z</time>
      </trkpt>
      <trkpt lat="43.372969" lon="-5.899395">
        <ele>252.016</ele>
        <time>1999-07-22T10:15:47Z</time>
      </trkpt>
      <trkpt lat="43.372985" lon="-5.899491">
        <ele>251.662</ele>
        <time>1999-07-22T10:15:48Z</time>
      </trkpt>
      <trkpt lat="43.372993" lon="-5.899591">
        <ele>251.049</ele>
        <time>1999-07-22T10:15:49Z</time>
      </trkpt>
      <trkpt lat="43.372968" lon="-5.899795">
        <ele>250.426</ele>
        <time>1999-07-22T10:15:51Z</time>
      </trkpt>
      <trkpt lat="43.372890" lon="-5.900194">
        <ele>249.262</ele>
        <time>1999-07-22T10:15:55Z</time>
      </trkpt>
      <trkpt lat="43.372886" lon="-5.900297">
        <ele>249.072</ele>
        <time>1999-07-22T10:15:56Z</time>
      </trkpt>
      <trkpt lat="43.372913" lon="-5.900504">
        <ele>248.813</ele>
        <time>1999-07-22T10:15:58Z</time>
      </trkpt>
      <trkpt lat="43.372966" lon="-5.900707">
        <ele>248.014</ele>
        <time>1999-07-22T10:16:00Z</time>
      </trkpt>
      <trkpt lat="43.373001" lon="-5.900807">
        <ele>247.608</ele>
        <time>1999-07-22T10:16:01Z</time>
      </trkpt>
      <trkpt lat="43.373026" lon="-5.900909">
        <ele>247.270</ele>
        <time>1999-07-22T10:16:02Z</time>
      </trkpt>
      <trkpt lat="43.373038" lon="-5.901015">
        <ele>247.035</ele>
        <time>1999-07-22T10:16:03Z</time>
      </trkpt>
      <trkpt lat="43.373035" lon="-5.901128">
        <ele>246.856</ele>
        <time>1999-07-22T10:16:04Z</time>
      </trkpt>
      <trkpt lat="43.373003" lon="-5.901488">
        <ele>246.272</ele>
        <time>1999-07-22T10:16:07Z</time>
      </trkpt>
      <trkpt lat="43.373009" lon="-5.901615">
        <ele>246.068</ele>
        <time>1999-07-22T10:16:08Z</time>
      </trkpt>
      <trkpt lat="43.373019" lon="-5.901732">
        <ele>245.815</ele>
        <time>1999-07-22T10:16:09Z</time>
      </trkpt>
      <trkpt lat="43.373074" lon="-5.902001">
        <ele>245.272</ele>
        <time>1999-07-22T10:16:12Z</time>
      </trkpt>
      <trkpt lat="43.373110" lon="-5.902059">
        <ele>244.888</ele>
        <time>1999-07-22T10:16:13Z</time>
      </trkpt>
      <trkpt lat="43.373228" lon="-5.902101">
        <ele>242.887</ele>
        <time>1999-07-22T10:16:15Z</time>
      </trkpt>
      <trkpt lat="43.373293" lon="-5.902091">
        <ele>241.842</ele>
        <time>1999-07-22T10:16:16Z</time>
      </trkpt>
      <trkpt lat="43.373362" lon="-5.902078">
        <ele>240.226</ele>
        <time>1999-07-22T10:16:17Z</time>
      </trkpt>
      <trkpt lat="43.373437" lon="-5.902057">
        <ele>238.608</ele>
        <time>1999-07-22T10:16:18Z</time>
      </trkpt>
      <trkpt lat="43.373511" lon="-5.902024">
        <ele>236.831</ele>
        <time>1999-07-22T10:16:19Z</time>
      </trkpt>
      <trkpt lat="43.373582" lon="-5.901975">
        <ele>235.216</ele>
        <time>1999-07-22T10:16:20Z</time>
      </trkpt>
      <trkpt lat="43.373642" lon="-5.901916">
        <ele>234.077</ele>
        <time>1999-07-22T10:16:21Z</time>
      </trkpt>
      <trkpt lat="43.373691" lon="-5.901856">
        <ele>232.893</ele>
        <time>1999-07-22T10:16:22Z</time>
      </trkpt>
      <trkpt lat="43.373737" lon="-5.901811">
        <ele>231.669</ele>
        <time>1999-07-22T10:16:23Z</time>
      </trkpt>
      <trkpt lat="43.373821" lon="-5.901801">
        <ele>230.436</ele>
        <time>1999-07-22T10:16:25Z</time>
      </trkpt>
      <trkpt lat="43.373904" lon="-5.901928">
        <ele>229.213</ele>
        <time>1999-07-22T10:16:28Z</time>
      </trkpt>
      <trkpt lat="43.373934" lon="-5.901977">
        <ele>228.629</ele>
        <time>1999-07-22T10:16:29Z</time>
      </trkpt>
      <trkpt lat="43.373966" lon="-5.902034">
        <ele>227.881</ele>
        <time>1999-07-22T10:16:30Z</time>
      </trkpt>
      <trkpt lat="43.373998" lon="-5.902100">
        <ele>227.061</ele>
        <time>1999-07-22T10:16:31Z</time>
      </trkpt>
      <trkpt lat="43.374025" lon="-5.902179">
        <ele>225.817</ele>
        <time>1999-07-22T10:16:32Z</time>
      </trkpt>
      <trkpt lat="43.374052" lon="-5.902258">
        <ele>224.808</ele>
        <time>1999-07-22T10:16:33Z</time>
      </trkpt>
      <trkpt lat="43.374119" lon="-5.902390">
        <ele>224.041</ele>
        <time>1999-07-22T10:16:35Z</time>
      </trkpt>
      <trkpt lat="43.374189" lon="-5.902484">
        <ele>223.616</ele>
        <time>1999-07-22T10:16:37Z</time>
      </trkpt>
      <trkpt lat="43.374251" lon="-5.902629">
        <ele>223.447</ele>
        <time>1999-07-22T10:16:40Z</time>
      </trkpt>
      <trkpt lat="43.374268" lon="-5.902685">
        <ele>223.433</ele>
        <time>1999-07-22T10:16:41Z</time>
      </trkpt>
      <trkpt lat="43.374324" lon="-5.902865">
        <ele>223.469</ele>
        <time>1999-07-22T10:16:44Z</time>
      </trkpt>
      <trkpt lat="43.374378" lon="-5.903045">
        <ele>223.436</ele>
        <time>1999-07-22T10:16:47Z</time>
      </trkpt>
      <trkpt lat="43.374430" lon="-5.903224">
        <ele>224.013</ele>
        <time>1999-07-22T10:16:50Z</time>
      </trkpt>
      <trkpt lat="43.374472" lon="-5.903329">
        <ele>224.249</ele>
        <time>1999-07-22T10:16:52Z</time>
      </trkpt>
      <trkpt lat="43.374594" lon="-5.903568">
        <ele>224.623</ele>
        <time>1999-07-22T10:16:56Z</time>
      </trkpt>
      <trkpt lat="43.374849" lon="-5.903898">
        <ele>224.683</ele>
        <time>1999-07-22T10:17:01Z</time>
      </trkpt>
      <trkpt lat="43.374899" lon="-5.903980">
        <ele>224.611</ele>
        <time>1999-07-22T10:17:02Z</time>
      </trkpt>
      <trkpt lat="43.374979" lon="-5.904165">
        <ele>224.808</ele>
        <time>1999-07-22T10:17:04Z</time>
      </trkpt>
      <trkpt lat="43.375019" lon="-5.904252">
        <ele>224.835</ele>
        <time>1999-07-22T10:17:05Z</time>
      </trkpt>
      <trkpt lat="43.375113" lon="-5.904386">
        <ele>224.670</ele>
        <time>1999-07-22T10:17:07Z</time>
      </trkpt>
      <trkpt lat="43.375161" lon="-5.904435">
        <ele>223.831</ele>
        <time>1999-07-22T10:17:08Z</time>
      </trkpt>
      <trkpt lat="43.375234" lon="-5.904536">
        <ele>222.837</ele>
        <time>1999-07-22T10:17:10Z</time>
      </trkpt>
      <trkpt lat="43.375236" lon="-5.904597">
        <ele>222.293</ele>
        <time>1999-07-22T10:17:11Z</time>
      </trkpt>
      <trkpt lat="43.375221" lon="-5.904660">
        <ele>221.490</ele>
        <time>1999-07-22T10:17:12Z</time>
      </trkpt>
      <trkpt lat="43.375190" lon="-5.904769">
        <ele>220.487</ele>
        <time>1999-07-22T10:17:14Z</time>
      </trkpt>
      <trkpt lat="43.375164" lon="-5.904875">
        <ele>219.033</ele>
        <time>1999-07-22T10:17:16Z</time>
      </trkpt>
      <trkpt lat="43.375153" lon="-5.904934">
        <ele>218.042</ele>
        <time>1999-07-22T10:17:17Z</time>
      </trkpt>
      <trkpt lat="43.375146" lon="-5.904994">
        <ele>217.422</ele>
        <time>1999-07-22T10:17:18Z</time>
      </trkpt>
      <trkpt lat="43.375148" lon="-5.905122">
        <ele>216.814</ele>
        <time>1999-07-22T10:17:20Z</time>
      </trkpt>
      <trkpt lat="43.375167" lon="-5.905269">
        <ele>216.608</ele>
        <time>1999-07-22T10:17:22Z</time>
      </trkpt>
      <trkpt lat="43.375196" lon="-5.905402">
        <ele>216.457</ele>
        <time>1999-07-22T10:17:24Z</time>
      </trkpt>
      <trkpt lat="43.375223" lon="-5.905475">
        <ele>216.292</ele>
        <time>1999-07-22T10:17:25Z</time>
      </trkpt>
      <trkpt lat="43.375299" lon="-5.905716">
        <ele>216.023</ele>
        <time>1999-07-22T10:17:28Z</time>
      </trkpt>
      <trkpt lat="43.375353" lon="-5.905877">
        <ele>216.079</ele>
        <time>1999-07-22T10:17:30Z</time>
      </trkpt>
      <trkpt lat="43.375387" lon="-5.905948">
        <ele>216.065</ele>
        <time>1999-07-22T10:17:31Z</time>
      </trkpt>
      <trkpt lat="43.375573" lon="-5.906302">
        <ele>215.852</ele>
        <time>1999-07-22T10:17:36Z</time>
      </trkpt>
      <trkpt lat="43.375600" lon="-5.906374">
        <ele>215.699</ele>
        <time>1999-07-22T10:17:37Z</time>
      </trkpt>
      <trkpt lat="43.375652" lon="-5.906607">
        <ele>215.675</ele>
        <time>1999-07-22T10:17:40Z</time>
      </trkpt>
      <trkpt lat="43.375674" lon="-5.906773">
        <ele>215.849</ele>
        <time>1999-07-22T10:17:42Z</time>
      </trkpt>
      <trkpt lat="43.375721" lon="-5.907034">
        <ele>215.602</ele>
        <time>1999-07-22T10:17:45Z</time>
      </trkpt>
      <trkpt lat="43.375778" lon="-5.907235">
        <ele>215.422</ele>
        <time>1999-07-22T10:17:47Z</time>
      </trkpt>
      <trkpt lat="43.375865" lon="-5.907424">
        <ele>215.408</ele>
        <time>1999-07-22T10:17:49Z</time>
      </trkpt>
      <trkpt lat="43.375942" lon="-5.907587">
        <ele>215.247</ele>
        <time>1999-07-22T10:17:51Z</time>
      </trkpt>
      <trkpt lat="43.375969" lon="-5.907638">
        <ele>215.022</ele>
        <time>1999-07-22T10:17:52Z</time>
      </trkpt>
      <trkpt lat="43.375984" lon="-5.907670">
        <ele>214.673</ele>
        <time>1999-07-22T10:17:54Z</time>
      </trkpt>
      <trkpt lat="43.375978" lon="-5.907668">
        <ele>212.829</ele>
        <time>1999-07-22T10:17:56Z</time>
      </trkpt>
      <trkpt lat="43.375895" lon="-5.907500">
        <ele>206.855</ele>
        <time>1999-07-22T10:18:10Z</time>
      </trkpt>
      <trkpt lat="43.375881" lon="-5.907470">
        <ele>206.832</ele>
        <time>1999-07-22T10:18:11Z</time>
      </trkpt>
      <trkpt lat="43.375841" lon="-5.907403">
        <ele>207.079</ele>
        <time>1999-07-22T10:18:13Z</time>
      </trkpt>
      <trkpt lat="43.375822" lon="-5.907365">
        <ele>207.225</ele>
        <time>1999-07-22T10:18:14Z</time>
      </trkpt>
      <trkpt lat="43.375805" lon="-5.907327">
        <ele>207.275</ele>
        <time>1999-07-22T10:18:15Z</time>
      </trkpt>
      <trkpt lat="43.375797" lon="-5.907290">
        <ele>207.228</ele>
        <time>1999-07-22T10:18:16Z</time>
      </trkpt>
      <trkpt lat="43.375795" lon="-5.907261">
        <ele>207.420</ele>
        <time>1999-07-22T10:18:17Z</time>
      </trkpt>
      <trkpt lat="43.375803" lon="-5.907247">
        <ele>207.408</ele>
        <time>1999-07-22T10:18:18Z</time>
      </trkpt>
      <trkpt lat="43.375826" lon="-5.907256">
        <ele>208.070</ele>
        <time>1999-07-22T10:18:20Z</time>
      </trkpt>
      <trkpt lat="43.375843" lon="-5.907265">
        <ele>208.425</ele>
        <time>1999-07-22T10:18:21Z</time>
      </trkpt>
      <trkpt lat="43.375862" lon="-5.907273">
        <ele>209.066</ele>
        <time>1999-07-22T10:18:22Z</time>
      </trkpt>
      <trkpt lat="43.375883" lon="-5.907278">
        <ele>210.022</ele>
        <time>1999-07-22T10:18:23Z</time>
      </trkpt>
      <trkpt lat="43.375932" lon="-5.907291">
        <ele>211.028</ele>
        <time>1999-07-22T10:18:26Z</time>
      </trkpt>
      <trkpt lat="43.375948" lon="-5.907298">
        <ele>211.475</ele>
        <time>1999-07-22T10:18:27Z</time>
      </trkpt>
      <trkpt lat="43.376046" lon="-5.907380">
        <ele>212.272</ele>
        <time>1999-07-22T10:18:33Z</time>
      </trkpt>
      <trkpt lat="43.376065" lon="-5.907394">
        <ele>212.498</ele>
        <time>1999-07-22T10:18:34Z</time>
      </trkpt>
      <trkpt lat="43.376117" lon="-5.907445">
        <ele>213.467</ele>
        <time>1999-07-22T10:18:37Z</time>
      </trkpt>
      <trkpt lat="43.376168" lon="-5.907502">
        <ele>213.881</ele>
        <time>1999-07-22T10:18:39Z</time>
      </trkpt>
      <trkpt lat="43.376210" lon="-5.907553">
        <ele>214.419</ele>
        <time>1999-07-22T10:18:41Z</time>
      </trkpt>
      <trkpt lat="43.376303" lon="-5.907613">
        <ele>215.008</ele>
        <time>1999-07-22T10:18:44Z</time>
      </trkpt>
      <trkpt lat="43.376390" lon="-5.907660">
        <ele>215.899</ele>
        <time>1999-07-22T10:18:47Z</time>
      </trkpt>
      <trkpt lat="43.376481" lon="-5.907709">
        <ele>215.884</ele>
        <time>1999-07-22T10:18:50Z</time>
      </trkpt>
      <trkpt lat="43.376516" lon="-5.907774">
        <ele>216.075</ele>
        <time>1999-07-22T10:18:52Z</time>
      </trkpt>
      <trkpt lat="43.376508" lon="-5.907852">
        <ele>216.011</ele>
        <time>1999-07-22T10:18:54Z</time>
      </trkpt>
      <trkpt lat="43.376435" lon="-5.908054">
        <ele>216.887</ele>
        <time>1999-07-22T10:19:00Z</time>
      </trkpt>
      <trkpt lat="43.376391" lon="-5.908170">
        <ele>217.294</ele>
        <time>1999-07-22T10:19:04Z</time>
      </trkpt>
      <trkpt lat="43.376386" lon="-5.908260">
        <ele>218.091</ele>
        <time>1999-07-22T10:19:07Z</time>
      </trkpt>
      <trkpt lat="43.376411" lon="-5.908360">
        <ele>219.097</ele>
        <time>1999-07-22T10:19:10Z</time>
      </trkpt>
      <trkpt lat="43.376448" lon="-5.908463">
        <ele>220.097</ele>
        <time>1999-07-22T10:19:13Z</time>
      </trkpt>
      <trkpt lat="43.376465" lon="-5.908492">
        <ele>220.423</ele>
        <time>1999-07-22T10:19:14Z</time>
      </trkpt>
      <trkpt lat="43.376520" lon="-5.908571">
        <ele>221.825</ele>
        <time>1999-07-22T10:19:17Z</time>
      </trkpt>
      <trkpt lat="43.376558" lon="-5.908606">
        <ele>222.408</ele>
        <time>1999-07-22T10:19:19Z</time>
      </trkpt>
      <trkpt lat="43.376596" lon="-5.908633">
        <ele>223.042</ele>
        <time>1999-07-22T10:19:21Z</time>
      </trkpt>
      <trkpt lat="43.376658" lon="-5.908734">
        <ele>224.217</ele>
        <time>1999-07-22T10:19:25Z</time>
      </trkpt>
      <trkpt lat="43.376731" lon="-5.908939">
        <ele>225.688</ele>
        <time>1999-07-22T10:19:31Z</time>
      </trkpt>
      <trkpt lat="43.376738" lon="-5.908974">
        <ele>225.814</ele>
        <time>1999-07-22T10:19:32Z</time>
      </trkpt>
      <trkpt lat="43.376750" lon="-5.909084">
        <ele>226.850</ele>
        <time>1999-07-22T10:19:35Z</time>
      </trkpt>
      <trkpt lat="43.376770" lon="-5.909259">
        <ele>227.677</ele>
        <time>1999-07-22T10:19:39Z</time>
      </trkpt>
      <trkpt lat="43.376772" lon="-5.909347">
        <ele>227.664</ele>
        <time>1999-07-22T10:19:41Z</time>
      </trkpt>
      <trkpt lat="43.376765" lon="-5.909435">
        <ele>227.680</ele>
        <time>1999-07-22T10:19:43Z</time>
      </trkpt>
      <trkpt lat="43.376777" lon="-5.909525">
        <ele>227.687</ele>
        <time>1999-07-22T10:19:45Z</time>
      </trkpt>
      <trkpt lat="43.376858" lon="-5.909760">
        <ele>227.642</ele>
        <time>1999-07-22T10:19:50Z</time>
      </trkpt>
      <trkpt lat="43.376874" lon="-5.909811">
        <ele>227.426</ele>
        <time>1999-07-22T10:19:51Z</time>
      </trkpt>
      <trkpt lat="43.376923" lon="-5.910021">
        <ele>227.408</ele>
        <time>1999-07-22T10:19:55Z</time>
      </trkpt>
      <trkpt lat="43.376975" lon="-5.910168">
        <ele>227.481</ele>
        <time>1999-07-22T10:19:58Z</time>
      </trkpt>
      <trkpt lat="43.377120" lon="-5.910437">
        <ele>227.656</ele>
        <time>1999-07-22T10:20:04Z</time>
      </trkpt>
      <trkpt lat="43.377150" lon="-5.910478">
        <ele>227.667</ele>
        <time>1999-07-22T10:20:05Z</time>
      </trkpt>
      <trkpt lat="43.377188" lon="-5.910518">
        <ele>227.633</ele>
        <time>1999-07-22T10:20:06Z</time>
      </trkpt>
      <trkpt lat="43.377274" lon="-5.910621">
        <ele>227.899</ele>
        <time>1999-07-22T10:20:08Z</time>
      </trkpt>
      <trkpt lat="43.377324" lon="-5.910687">
        <ele>227.886</ele>
        <time>1999-07-22T10:20:09Z</time>
      </trkpt>
      <trkpt lat="43.377494" lon="-5.910963">
        <ele>227.843</ele>
        <time>1999-07-22T10:20:12Z</time>
      </trkpt>
      <trkpt lat="43.377650" lon="-5.911294">
        <ele>227.849</ele>
        <time>1999-07-22T10:20:15Z</time>
      </trkpt>
      <trkpt lat="43.377753" lon="-5.911476">
        <ele>227.023</ele>
        <time>1999-07-22T10:20:17Z</time>
      </trkpt>
      <trkpt lat="43.377797" lon="-5.911556">
        <ele>226.483</ele>
        <time>1999-07-22T10:20:18Z</time>
      </trkpt>
      <trkpt lat="43.377835" lon="-5.911640">
        <ele>225.811</ele>
        <time>1999-07-22T10:20:19Z</time>
      </trkpt>
      <trkpt lat="43.377878" lon="-5.911844">
        <ele>223.808</ele>
        <time>1999-07-22T10:20:21Z</time>
      </trkpt>
      <trkpt lat="43.377916" lon="-5.912079">
        <ele>222.295</ele>
        <time>1999-07-22T10:20:23Z</time>
      </trkpt>
      <trkpt lat="43.377935" lon="-5.912214">
        <ele>221.260</ele>
        <time>1999-07-22T10:20:24Z</time>
      </trkpt>
      <trkpt lat="43.377962" lon="-5.912350">
        <ele>219.861</ele>
        <time>1999-07-22T10:20:25Z</time>
      </trkpt>
      <trkpt lat="43.377998" lon="-5.912482">
        <ele>218.417</ele>
        <time>1999-07-22T10:20:26Z</time>
      </trkpt>
      <trkpt lat="43.378030" lon="-5.912607">
        <ele>217.093</ele>
        <time>1999-07-22T10:20:27Z</time>
      </trkpt>
      <trkpt lat="43.378058" lon="-5.912732">
        <ele>215.640</ele>
        <time>1999-07-22T10:20:28Z</time>
      </trkpt>
      <trkpt lat="43.378081" lon="-5.912867">
        <ele>214.437</ele>
        <time>1999-07-22T10:20:29Z</time>
      </trkpt>
      <trkpt lat="43.378096" lon="-5.913010">
        <ele>213.623</ele>
        <time>1999-07-22T10:20:30Z</time>
      </trkpt>
      <trkpt lat="43.378106" lon="-5.913150">
        <ele>212.618</ele>
        <time>1999-07-22T10:20:31Z</time>
      </trkpt>
      <trkpt lat="43.378113" lon="-5.913287">
        <ele>211.698</ele>
        <time>1999-07-22T10:20:32Z</time>
      </trkpt>
      <trkpt lat="43.378147" lon="-5.913579">
        <ele>210.417</ele>
        <time>1999-07-22T10:20:34Z</time>
      </trkpt>
      <trkpt lat="43.378171" lon="-5.913737">
        <ele>209.208</ele>
        <time>1999-07-22T10:20:35Z</time>
      </trkpt>
      <trkpt lat="43.378196" lon="-5.913889">
        <ele>207.634</ele>
        <time>1999-07-22T10:20:36Z</time>
      </trkpt>
      <trkpt lat="43.378223" lon="-5.914034">
        <ele>205.889</ele>
        <time>1999-07-22T10:20:37Z</time>
      </trkpt>
      <trkpt lat="43.378249" lon="-5.914181">
        <ele>203.040</ele>
        <time>1999-07-22T10:20:38Z</time>
      </trkpt>
      <trkpt lat="43.378268" lon="-5.914332">
        <ele>200.896</ele>
        <time>1999-07-22T10:20:39Z</time>
      </trkpt>
      <trkpt lat="43.378279" lon="-5.914486">
        <ele>198.832</ele>
        <time>1999-07-22T10:20:40Z</time>
      </trkpt>
      <trkpt lat="43.378282" lon="-5.914632">
        <ele>197.089</ele>
        <time>1999-07-22T10:20:41Z</time>
      </trkpt>
      <trkpt lat="43.378281" lon="-5.914760">
        <ele>195.086</ele>
        <time>1999-07-22T10:20:42Z</time>
      </trkpt>
      <trkpt lat="43.378285" lon="-5.914865">
        <ele>193.422</ele>
        <time>1999-07-22T10:20:43Z</time>
      </trkpt>
      <trkpt lat="43.378291" lon="-5.914951">
        <ele>191.459</ele>
        <time>1999-07-22T10:20:44Z</time>
      </trkpt>
      <trkpt lat="43.378304" lon="-5.915023">
        <ele>189.003</ele>
        <time>1999-07-22T10:20:45Z</time>
      </trkpt>
      <trkpt lat="43.378325" lon="-5.915081">
        <ele>186.823</ele>
        <time>1999-07-22T10:20:46Z</time>
      </trkpt>
      <trkpt lat="43.378368" lon="-5.915115">
        <ele>185.008</ele>
        <time>1999-07-22T10:20:47Z</time>
      </trkpt>
      <trkpt lat="43.378414" lon="-5.915138">
        <ele>182.818</ele>
        <time>1999-07-22T10:20:48Z</time>
      </trkpt>
      <trkpt lat="43.378450" lon="-5.915162">
        <ele>181.083</ele>
        <time>1999-07-22T10:20:49Z</time>
      </trkpt>
      <trkpt lat="43.378481" lon="-5.915205">
        <ele>178.824</ele>
        <time>1999-07-22T10:20:50Z</time>
      </trkpt>
      <trkpt lat="43.378496" lon="-5.915275">
        <ele>176.670</ele>
        <time>1999-07-22T10:20:51Z</time>
      </trkpt>
      <trkpt lat="43.378499" lon="-5.915360">
        <ele>174.896</ele>
        <time>1999-07-22T10:20:52Z</time>
      </trkpt>
      <trkpt lat="43.378497" lon="-5.915452">
        <ele>173.263</ele>
        <time>1999-07-22T10:20:53Z</time>
      </trkpt>
      <trkpt lat="43.378492" lon="-5.915549">
        <ele>171.690</ele>
        <time>1999-07-22T10:20:54Z</time>
      </trkpt>
      <trkpt lat="43.378480" lon="-5.915646">
        <ele>170.626</ele>
        <time>1999-07-22T10:20:55Z</time>
      </trkpt>
      <trkpt lat="43.378459" lon="-5.915743">
        <ele>169.234</ele>
        <time>1999-07-22T10:20:56Z</time>
      </trkpt>
      <trkpt lat="43.378436" lon="-5.915830">
        <ele>168.055</ele>
        <time>1999-07-22T10:20:57Z</time>
      </trkpt>
      <trkpt lat="43.378408" lon="-5.915904">
        <ele>166.610</ele>
        <time>1999-07-22T10:20:58Z</time>
      </trkpt>
      <trkpt lat="43.378387" lon="-5.915968">
        <ele>165.408</ele>
        <time>1999-07-22T10:20:59Z</time>
      </trkpt>
      <trkpt lat="43.378375" lon="-5.916033">
        <ele>164.446</ele>
        <time>1999-07-22T10:21:00Z</time>
      </trkpt>
      <trkpt lat="43.378404" lon="-5.916203">
        <ele>162.241</ele>
        <time>1999-07-22T10:21:02Z</time>
      </trkpt>
      <trkpt lat="43.378430" lon="-5.916301">
        <ele>161.272</ele>
        <time>1999-07-22T10:21:03Z</time>
      </trkpt>
      <trkpt lat="43.378451" lon="-5.916401">
        <ele>160.288</ele>
        <time>1999-07-22T10:21:04Z</time>
      </trkpt>
      <trkpt lat="43.378471" lon="-5.916499">
        <ele>158.064</ele>
        <time>1999-07-22T10:21:05Z</time>
      </trkpt>
      <trkpt lat="43.378506" lon="-5.916679">
        <ele>156.071</ele>
        <time>1999-07-22T10:21:07Z</time>
      </trkpt>
      <trkpt lat="43.378524" lon="-5.916745">
        <ele>155.228</ele>
        <time>1999-07-22T10:21:08Z</time>
      </trkpt>
      <trkpt lat="43.378539" lon="-5.916805">
        <ele>154.414</ele>
        <time>1999-07-22T10:21:09Z</time>
      </trkpt>
      <trkpt lat="43.378573" lon="-5.916914">
        <ele>153.643</ele>
        <time>1999-07-22T10:21:11Z</time>
      </trkpt>
      <trkpt lat="43.378592" lon="-5.916961">
        <ele>153.464</ele>
        <time>1999-07-22T10:21:12Z</time>
      </trkpt>
      <trkpt lat="43.378621" lon="-5.917056">
        <ele>153.210</ele>
        <time>1999-07-22T10:21:14Z</time>
      </trkpt>
      <trkpt lat="43.378637" lon="-5.917150">
        <ele>153.008</ele>
        <time>1999-07-22T10:21:16Z</time>
      </trkpt>
      <trkpt lat="43.378650" lon="-5.917235">
        <ele>153.077</ele>
        <time>1999-07-22T10:21:18Z</time>
      </trkpt>
      <trkpt lat="43.378659" lon="-5.917319">
        <ele>153.262</ele>
        <time>1999-07-22T10:21:20Z</time>
      </trkpt>
      <trkpt lat="43.378666" lon="-5.917499">
        <ele>154.443</ele>
        <time>1999-07-22T10:21:24Z</time>
      </trkpt>
      <trkpt lat="43.378675" lon="-5.917592">
        <ele>155.029</ele>
        <time>1999-07-22T10:21:26Z</time>
      </trkpt>
      <trkpt lat="43.378692" lon="-5.917728">
        <ele>155.655</ele>
        <time>1999-07-22T10:21:29Z</time>
      </trkpt>
      <trkpt lat="43.378710" lon="-5.917844">
        <ele>156.052</ele>
        <time>1999-07-22T10:21:31Z</time>
      </trkpt>
      <trkpt lat="43.378712" lon="-5.917917">
        <ele>156.489</ele>
        <time>1999-07-22T10:21:32Z</time>
      </trkpt>
      <trkpt lat="43.378731" lon="-5.918251">
        <ele>156.655</ele>
        <time>1999-07-22T10:21:36Z</time>
      </trkpt>
      <trkpt lat="43.378733" lon="-5.918323">
        <ele>156.677</ele>
        <time>1999-07-22T10:21:37Z</time>
      </trkpt>
      <trkpt lat="43.378754" lon="-5.918526">
        <ele>156.661</ele>
        <time>1999-07-22T10:21:40Z</time>
      </trkpt>
      <trkpt lat="43.378757" lon="-5.918646">
        <ele>156.427</ele>
        <time>1999-07-22T10:21:42Z</time>
      </trkpt>
      <trkpt lat="43.378744" lon="-5.918716">
        <ele>155.808</ele>
        <time>1999-07-22T10:21:43Z</time>
      </trkpt>
      <trkpt lat="43.378716" lon="-5.918791">
        <ele>154.420</ele>
        <time>1999-07-22T10:21:44Z</time>
      </trkpt>
      <trkpt lat="43.378682" lon="-5.918856">
        <ele>153.245</ele>
        <time>1999-07-22T10:21:45Z</time>
      </trkpt>
      <trkpt lat="43.378646" lon="-5.918906">
        <ele>151.816</ele>
        <time>1999-07-22T10:21:46Z</time>
      </trkpt>
      <trkpt lat="43.378616" lon="-5.918949">
        <ele>150.492</ele>
        <time>1999-07-22T10:21:47Z</time>
      </trkpt>
      <trkpt lat="43.378597" lon="-5.918986">
        <ele>148.838</ele>
        <time>1999-07-22T10:21:48Z</time>
      </trkpt>
      <trkpt lat="43.378587" lon="-5.919022">
        <ele>147.295</ele>
        <time>1999-07-22T10:21:49Z</time>
      </trkpt>
      <trkpt lat="43.378581" lon="-5.919056">
        <ele>145.812</ele>
        <time>1999-07-22T10:21:50Z</time>
      </trkpt>
      <trkpt lat="43.378576" lon="-5.919121">
        <ele>144.848</ele>
        <time>1999-07-22T10:21:52Z</time>
      </trkpt>
      <trkpt lat="43.378582" lon="-5.919239">
        <ele>144.457</ele>
        <time>1999-07-22T10:21:56Z</time>
      </trkpt>
      <trkpt lat="43.378588" lon="-5.919316">
        <ele>144.600</ele>
        <time>1999-07-22T10:21:59Z</time>
      </trkpt>
      <trkpt lat="43.378589" lon="-5.919408">
        <ele>145.620</ele>
        <time>1999-07-22T10:22:03Z</time>
      </trkpt>
      <trkpt lat="43.378585" lon="-5.919431">
        <ele>145.808</ele>
        <time>1999-07-22T10:22:04Z</time>
      </trkpt>
      <trkpt lat="43.378577" lon="-5.919523">
        <ele>147.238</ele>
        <time>1999-07-22T10:22:08Z</time>
      </trkpt>
      <trkpt lat="43.378576" lon="-5.919592">
        <ele>148.483</ele>
        <time>1999-07-22T10:22:11Z</time>
      </trkpt>
      <trkpt lat="43.378585" lon="-5.919609">
        <ele>148.684</ele>
        <time>1999-07-22T10:22:12Z</time>
      </trkpt>
      <trkpt lat="43.378629" lon="-5.919635">
        <ele>149.690</ele>
        <time>1999-07-22T10:22:15Z</time>
      </trkpt>
      <trkpt lat="43.378674" lon="-5.919656">
        <ele>150.676</ele>
        <time>1999-07-22T10:22:18Z</time>
      </trkpt>
      <trkpt lat="43.378688" lon="-5.919670">
        <ele>150.843</ele>
        <time>1999-07-22T10:22:19Z</time>
      </trkpt>
      <trkpt lat="43.378707" lon="-5.919679">
        <ele>151.240</ele>
        <time>1999-07-22T10:22:20Z</time>
      </trkpt>
      <trkpt lat="43.378756" lon="-5.919668">
        <ele>152.096</ele>
        <time>1999-07-22T10:22:23Z</time>
      </trkpt>
      <trkpt lat="43.378773" lon="-5.919672">
        <ele>152.229</ele>
        <time>1999-07-22T10:22:24Z</time>
      </trkpt>
      <trkpt lat="43.378805" lon="-5.919693">
        <ele>153.000</ele>
        <time>1999-07-22T10:22:26Z</time>
      </trkpt>
      <trkpt lat="43.378878" lon="-5.919739">
        <ele>154.620</ele>
        <time>1999-07-22T10:22:30Z</time>
      </trkpt>
      <trkpt lat="43.378893" lon="-5.919748">
        <ele>154.808</ele>
        <time>1999-07-22T10:22:31Z</time>
      </trkpt>
      <trkpt lat="43.378943" lon="-5.919764">
        <ele>155.615</ele>
        <time>1999-07-22T10:22:34Z</time>
      </trkpt>
      <trkpt lat="43.378992" lon="-5.919785">
        <ele>156.680</ele>
        <time>1999-07-22T10:22:37Z</time>
      </trkpt>
      <trkpt lat="43.379046" lon="-5.919803">
        <ele>157.871</ele>
        <time>1999-07-22T10:22:40Z</time>
      </trkpt>
      <trkpt lat="43.379123" lon="-5.919882">
        <ele>159.047</ele>
        <time>1999-07-22T10:22:45Z</time>
      </trkpt>
      <trkpt lat="43.379161" lon="-5.919907">
        <ele>159.413</ele>
        <time>1999-07-22T10:22:47Z</time>
      </trkpt>
      <trkpt lat="43.379177" lon="-5.919919">
        <ele>159.650</ele>
        <time>1999-07-22T10:22:48Z</time>
      </trkpt>
      <trkpt lat="43.379201" lon="-5.919956">
        <ele>160.097</ele>
        <time>1999-07-22T10:22:50Z</time>
      </trkpt>
      <trkpt lat="43.379237" lon="-5.920013">
        <ele>161.023</ele>
        <time>1999-07-22T10:22:53Z</time>
      </trkpt>
      <trkpt lat="43.379250" lon="-5.920027">
        <ele>161.456</ele>
        <time>1999-07-22T10:22:54Z</time>
      </trkpt>
      <trkpt lat="43.379295" lon="-5.920110">
        <ele>162.859</ele>
        <time>1999-07-22T10:22:58Z</time>
      </trkpt>
      <trkpt lat="43.379311" lon="-5.920127">
        <ele>163.014</ele>
        <time>1999-07-22T10:22:59Z</time>
      </trkpt>
      <trkpt lat="43.379342" lon="-5.920173">
        <ele>163.608</ele>
        <time>1999-07-22T10:23:01Z</time>
      </trkpt>
      <trkpt lat="43.379349" lon="-5.920200">
        <ele>164.088</ele>
        <time>1999-07-22T10:23:02Z</time>
      </trkpt>
      <trkpt lat="43.379378" lon="-5.920269">
        <ele>165.033</ele>
        <time>1999-07-22T10:23:05Z</time>
      </trkpt>
      <trkpt lat="43.379409" lon="-5.920341">
        <ele>166.084</ele>
        <time>1999-07-22T10:23:08Z</time>
      </trkpt>
      <trkpt lat="43.379408" lon="-5.920430">
        <ele>167.010</ele>
        <time>1999-07-22T10:23:11Z</time>
      </trkpt>
      <trkpt lat="43.379398" lon="-5.920459">
        <ele>167.296</ele>
        <time>1999-07-22T10:23:12Z</time>
      </trkpt>
      <trkpt lat="43.379350" lon="-5.920527">
        <ele>168.463</ele>
        <time>1999-07-22T10:23:15Z</time>
      </trkpt>
      <trkpt lat="43.379315" lon="-5.920558">
        <ele>169.040</ele>
        <time>1999-07-22T10:23:17Z</time>
      </trkpt>
      <trkpt lat="43.379271" lon="-5.920586">
        <ele>169.846</ele>
        <time>1999-07-22T10:23:19Z</time>
      </trkpt>
      <trkpt lat="43.379203" lon="-5.920668">
        <ele>171.079</ele>
        <time>1999-07-22T10:23:22Z</time>
      </trkpt>
      <trkpt lat="43.379100" lon="-5.920811">
        <ele>171.405</ele>
        <time>1999-07-22T10:23:26Z</time>
      </trkpt>
      <trkpt lat="43.379045" lon="-5.920894">
        <ele>171.625</ele>
        <time>1999-07-22T10:23:28Z</time>
      </trkpt>
      <trkpt lat="43.378914" lon="-5.921041">
        <ele>172.008</ele>
        <time>1999-07-22T10:23:32Z</time>
      </trkpt>
      <trkpt lat="43.378795" lon="-5.921191">
        <ele>172.230</ele>
        <time>1999-07-22T10:23:36Z</time>
      </trkpt>
      <trkpt lat="43.378748" lon="-5.921334">
        <ele>172.485</ele>
        <time>1999-07-22T10:23:39Z</time>
      </trkpt>
      <trkpt lat="43.378743" lon="-5.921446">
        <ele>172.496</ele>
        <time>1999-07-22T10:23:41Z</time>
      </trkpt>
      <trkpt lat="43.378710" lon="-5.921641">
        <ele>172.442</ele>
        <time>1999-07-22T10:23:44Z</time>
      </trkpt>
      <trkpt lat="43.378697" lon="-5.921707">
        <ele>172.458</ele>
        <time>1999-07-22T10:23:45Z</time>
      </trkpt>
      <trkpt lat="43.378683" lon="-5.921769">
        <ele>172.425</ele>
        <time>1999-07-22T10:23:46Z</time>
      </trkpt>
      <trkpt lat="43.378647" lon="-5.921815">
        <ele>172.452</ele>
        <time>1999-07-22T10:23:47Z</time>
      </trkpt>
      <trkpt lat="43.378562" lon="-5.921904">
        <ele>172.498</ele>
        <time>1999-07-22T10:23:49Z</time>
      </trkpt>
      <trkpt lat="43.378511" lon="-5.921942">
        <ele>172.428</ele>
        <time>1999-07-22T10:23:50Z</time>
      </trkpt>
      <trkpt lat="43.378386" lon="-5.921983">
        <ele>172.289</ele>
        <time>1999-07-22T10:23:52Z</time>
      </trkpt>
      <trkpt lat="43.378324" lon="-5.921996">
        <ele>172.017</ele>
        <time>1999-07-22T10:23:53Z</time>
      </trkpt>
      <trkpt lat="43.378268" lon="-5.922016">
        <ele>171.808</ele>
        <time>1999-07-22T10:23:54Z</time>
      </trkpt>
      <trkpt lat="43.378183" lon="-5.922070">
        <ele>171.445</ele>
        <time>1999-07-22T10:23:56Z</time>
      </trkpt>
      <trkpt lat="43.378154" lon="-5.922091">
        <ele>171.080</ele>
        <time>1999-07-22T10:23:57Z</time>
      </trkpt>
      <trkpt lat="43.378112" lon="-5.922106">
        <ele>170.421</ele>
        <time>1999-07-22T10:23:59Z</time>
      </trkpt>
      <trkpt lat="43.378096" lon="-5.922079">
        <ele>170.247</ele>
        <time>1999-07-22T10:24:01Z</time>
      </trkpt>
      <trkpt lat="43.378114" lon="-5.922063">
        <ele>170.273</ele>
        <time>1999-07-22T10:24:02Z</time>
      </trkpt>
      <trkpt lat="43.378178" lon="-5.922043">
        <ele>170.080</ele>
        <time>1999-07-22T10:24:04Z</time>
      </trkpt>
      <trkpt lat="43.378218" lon="-5.922025">
        <ele>170.077</ele>
        <time>1999-07-22T10:24:05Z</time>
      </trkpt>
      <trkpt lat="43.378266" lon="-5.922001">
        <ele>170.083</ele>
        <time>1999-07-22T10:24:06Z</time>
      </trkpt>
      <trkpt lat="43.378315" lon="-5.921982">
        <ele>170.054</ele>
        <time>1999-07-22T10:24:07Z</time>
      </trkpt>
      <trkpt lat="43.378367" lon="-5.921967">
        <ele>169.856</ele>
        <time>1999-07-22T10:24:08Z</time>
      </trkpt>
      <trkpt lat="43.378471" lon="-5.921933">
        <ele>169.811</ele>
        <time>1999-07-22T10:24:10Z</time>
      </trkpt>
      <trkpt lat="43.378578" lon="-5.921849">
        <ele>169.808</ele>
        <time>1999-07-22T10:24:13Z</time>
      </trkpt>
      <trkpt lat="43.378668" lon="-5.921820">
        <ele>170.018</ele>
        <time>1999-07-22T10:24:17Z</time>
      </trkpt>
      <trkpt lat="43.378680" lon="-5.921855">
        <ele>170.093</ele>
        <time>1999-07-22T10:24:18Z</time>
      </trkpt>
      <trkpt lat="43.378686" lon="-5.921914">
        <ele>170.084</ele>
        <time>1999-07-22T10:24:19Z</time>
      </trkpt>
      <trkpt lat="43.378691" lon="-5.921995">
        <ele>169.890</ele>
        <time>1999-07-22T10:24:20Z</time>
      </trkpt>
      <trkpt lat="43.378719" lon="-5.922244">
        <ele>169.696</ele>
        <time>1999-07-22T10:24:23Z</time>
      </trkpt>
      <trkpt lat="43.378719" lon="-5.922310">
        <ele>169.653</ele>
        <time>1999-07-22T10:24:24Z</time>
      </trkpt>
      <trkpt lat="43.378655" lon="-5.922526">
        <ele>169.430</ele>
        <time>1999-07-22T10:24:27Z</time>
      </trkpt>
      <trkpt lat="43.378546" lon="-5.922712">
        <ele>168.826</ele>
        <time>1999-07-22T10:24:29Z</time>
      </trkpt>
      <trkpt lat="43.378480" lon="-5.922808">
        <ele>168.073</ele>
        <time>1999-07-22T10:24:30Z</time>
      </trkpt>
      <trkpt lat="43.378418" lon="-5.922912">
        <ele>166.885</ele>
        <time>1999-07-22T10:24:31Z</time>
      </trkpt>
      <trkpt lat="43.378359" lon="-5.923025">
        <ele>165.413</ele>
        <time>1999-07-22T10:24:32Z</time>
      </trkpt>
      <trkpt lat="43.378308" lon="-5.923140">
        <ele>164.208</ele>
        <time>1999-07-22T10:24:33Z</time>
      </trkpt>
      <trkpt lat="43.378262" lon="-5.923257">
        <ele>163.240</ele>
        <time>1999-07-22T10:24:34Z</time>
      </trkpt>
      <trkpt lat="43.378224" lon="-5.923378">
        <ele>162.685</ele>
        <time>1999-07-22T10:24:35Z</time>
      </trkpt>
      <trkpt lat="43.378173" lon="-5.923620">
        <ele>161.036</ele>
        <time>1999-07-22T10:24:37Z</time>
      </trkpt>
      <trkpt lat="43.378159" lon="-5.923746">
        <ele>160.292</ele>
        <time>1999-07-22T10:24:38Z</time>
      </trkpt>
      <trkpt lat="43.378158" lon="-5.923867">
        <ele>159.628</ele>
        <time>1999-07-22T10:24:39Z</time>
      </trkpt>
      <trkpt lat="43.378189" lon="-5.924105">
        <ele>157.815</ele>
        <time>1999-07-22T10:24:41Z</time>
      </trkpt>
      <trkpt lat="43.378219" lon="-5.924220">
        <ele>156.622</ele>
        <time>1999-07-22T10:24:42Z</time>
      </trkpt>
      <trkpt lat="43.378258" lon="-5.924328">
        <ele>155.638</ele>
        <time>1999-07-22T10:24:43Z</time>
      </trkpt>
      <trkpt lat="43.378308" lon="-5.924430">
        <ele>154.887</ele>
        <time>1999-07-22T10:24:44Z</time>
      </trkpt>
      <trkpt lat="43.378360" lon="-5.924517">
        <ele>153.642</ele>
        <time>1999-07-22T10:24:45Z</time>
      </trkpt>
      <trkpt lat="43.378407" lon="-5.924598">
        <ele>152.826</ele>
        <time>1999-07-22T10:24:46Z</time>
      </trkpt>
      <trkpt lat="43.378448" lon="-5.924683">
        <ele>152.008</ele>
        <time>1999-07-22T10:24:47Z</time>
      </trkpt>
      <trkpt lat="43.378480" lon="-5.924774">
        <ele>150.871</ele>
        <time>1999-07-22T10:24:48Z</time>
      </trkpt>
      <trkpt lat="43.378499" lon="-5.924862">
        <ele>149.686</ele>
        <time>1999-07-22T10:24:49Z</time>
      </trkpt>
      <trkpt lat="43.378520" lon="-5.924950">
        <ele>148.247</ele>
        <time>1999-07-22T10:24:50Z</time>
      </trkpt>
      <trkpt lat="43.378551" lon="-5.925041">
        <ele>147.033</ele>
        <time>1999-07-22T10:24:51Z</time>
      </trkpt>
      <trkpt lat="43.378601" lon="-5.925131">
        <ele>145.499</ele>
        <time>1999-07-22T10:24:52Z</time>
      </trkpt>
      <trkpt lat="43.378649" lon="-5.925219">
        <ele>143.896</ele>
        <time>1999-07-22T10:24:53Z</time>
      </trkpt>
      <trkpt lat="43.378695" lon="-5.925303">
        <ele>142.293</ele>
        <time>1999-07-22T10:24:54Z</time>
      </trkpt>
      <trkpt lat="43.378735" lon="-5.925393">
        <ele>140.689</ele>
        <time>1999-07-22T10:24:55Z</time>
      </trkpt>
      <trkpt lat="43.378763" lon="-5.925483">
        <ele>139.248</ele>
        <time>1999-07-22T10:24:56Z</time>
      </trkpt>
      <trkpt lat="43.378783" lon="-5.925566">
        <ele>137.861</ele>
        <time>1999-07-22T10:24:57Z</time>
      </trkpt>
      <trkpt lat="43.378796" lon="-5.925650">
        <ele>136.417</ele>
        <time>1999-07-22T10:24:58Z</time>
      </trkpt>
      <trkpt lat="43.378807" lon="-5.925733">
        <ele>135.208</ele>
        <time>1999-07-22T10:24:59Z</time>
      </trkpt>
      <trkpt lat="43.378826" lon="-5.925808">
        <ele>133.877</ele>
        <time>1999-07-22T10:25:00Z</time>
      </trkpt>
      <trkpt lat="43.378857" lon="-5.925875">
        <ele>132.042</ele>
        <time>1999-07-22T10:25:01Z</time>
      </trkpt>
      <trkpt lat="43.378908" lon="-5.925930">
        <ele>130.443</ele>
        <time>1999-07-22T10:25:02Z</time>
      </trkpt>
      <trkpt lat="43.378978" lon="-5.925974">
        <ele>128.819</ele>
        <time>1999-07-22T10:25:03Z</time>
      </trkpt>
      <trkpt lat="43.379060" lon="-5.926018">
        <ele>127.855</ele>
        <time>1999-07-22T10:25:04Z</time>
      </trkpt>
      <trkpt lat="43.379135" lon="-5.926065">
        <ele>126.832</ele>
        <time>1999-07-22T10:25:05Z</time>
      </trkpt>
      <trkpt lat="43.379201" lon="-5.926108">
        <ele>125.869</ele>
        <time>1999-07-22T10:25:06Z</time>
      </trkpt>
      <trkpt lat="43.379255" lon="-5.926153">
        <ele>125.235</ele>
        <time>1999-07-22T10:25:07Z</time>
      </trkpt>
      <trkpt lat="43.379306" lon="-5.926212">
        <ele>124.463</ele>
        <time>1999-07-22T10:25:08Z</time>
      </trkpt>
      <trkpt lat="43.379439" lon="-5.926334">
        <ele>123.244</ele>
        <time>1999-07-22T10:25:10Z</time>
      </trkpt>
      <trkpt lat="43.379517" lon="-5.926378">
        <ele>122.218</ele>
        <time>1999-07-22T10:25:11Z</time>
      </trkpt>
      <trkpt lat="43.379595" lon="-5.926416">
        <ele>121.408</ele>
        <time>1999-07-22T10:25:12Z</time>
      </trkpt>
      <trkpt lat="43.379672" lon="-5.926453">
        <ele>119.469</ele>
        <time>1999-07-22T10:25:13Z</time>
      </trkpt>
      <trkpt lat="43.379744" lon="-5.926495">
        <ele>118.214</ele>
        <time>1999-07-22T10:25:14Z</time>
      </trkpt>
      <trkpt lat="43.379813" lon="-5.926538">
        <ele>117.235</ele>
        <time>1999-07-22T10:25:15Z</time>
      </trkpt>
      <trkpt lat="43.379948" lon="-5.926624">
        <ele>116.071</ele>
        <time>1999-07-22T10:25:17Z</time>
      </trkpt>
      <trkpt lat="43.380077" lon="-5.926715">
        <ele>114.687</ele>
        <time>1999-07-22T10:25:19Z</time>
      </trkpt>
      <trkpt lat="43.380200" lon="-5.926821">
        <ele>113.684</ele>
        <time>1999-07-22T10:25:21Z</time>
      </trkpt>
      <trkpt lat="43.380310" lon="-5.926955">
        <ele>113.011</ele>
        <time>1999-07-22T10:25:23Z</time>
      </trkpt>
      <trkpt lat="43.380448" lon="-5.927187">
        <ele>112.867</ele>
        <time>1999-07-22T10:25:26Z</time>
      </trkpt>
      <trkpt lat="43.380520" lon="-5.927359">
        <ele>112.824</ele>
        <time>1999-07-22T10:25:28Z</time>
      </trkpt>
      <trkpt lat="43.380647" lon="-5.927758">
        <ele>112.804</ele>
        <time>1999-07-22T10:25:33Z</time>
      </trkpt>
      <trkpt lat="43.380675" lon="-5.927899">
        <ele>112.814</ele>
        <time>1999-07-22T10:25:36Z</time>
      </trkpt>
      <trkpt lat="43.380683" lon="-5.927937">
        <ele>112.808</ele>
        <time>1999-07-22T10:25:37Z</time>
      </trkpt>
      <trkpt lat="43.380692" lon="-5.927974">
        <ele>112.825</ele>
        <time>1999-07-22T10:25:38Z</time>
      </trkpt>
      <trkpt lat="43.380728" lon="-5.928114">
        <ele>112.650</ele>
        <time>1999-07-22T10:25:41Z</time>
      </trkpt>
      <trkpt lat="43.380749" lon="-5.928169">
        <ele>112.611</ele>
        <time>1999-07-22T10:25:42Z</time>
      </trkpt>
      <trkpt lat="43.380799" lon="-5.928282">
        <ele>112.667</ele>
        <time>1999-07-22T10:25:44Z</time>
      </trkpt>
      <trkpt lat="43.380828" lon="-5.928334">
        <ele>112.683</ele>
        <time>1999-07-22T10:25:45Z</time>
      </trkpt>
      <trkpt lat="43.380925" lon="-5.928460">
        <ele>112.620</ele>
        <time>1999-07-22T10:25:48Z</time>
      </trkpt>
      <trkpt lat="43.381046" lon="-5.928566">
        <ele>112.677</ele>
        <time>1999-07-22T10:25:51Z</time>
      </trkpt>
      <trkpt lat="43.381179" lon="-5.928675">
        <ele>113.043</ele>
        <time>1999-07-22T10:25:54Z</time>
      </trkpt>
      <trkpt lat="43.381357" lon="-5.928857">
        <ele>113.664</ele>
        <time>1999-07-22T10:25:58Z</time>
      </trkpt>
      <trkpt lat="43.381426" lon="-5.928973">
        <ele>113.606</ele>
        <time>1999-07-22T10:26:00Z</time>
      </trkpt>
      <trkpt lat="43.381495" lon="-5.929225">
        <ele>113.616</ele>
        <time>1999-07-22T10:26:04Z</time>
      </trkpt>
      <trkpt lat="43.381466" lon="-5.929464">
        <ele>113.608</ele>
        <time>1999-07-22T10:26:08Z</time>
      </trkpt>
      <trkpt lat="43.381455" lon="-5.929515">
        <ele>113.829</ele>
        <time>1999-07-22T10:26:09Z</time>
      </trkpt>
      <trkpt lat="43.381413" lon="-5.929664">
        <ele>114.094</ele>
        <time>1999-07-22T10:26:12Z</time>
      </trkpt>
      <trkpt lat="43.381371" lon="-5.929832">
        <ele>114.455</ele>
        <time>1999-07-22T10:26:15Z</time>
      </trkpt>
      <trkpt lat="43.381358" lon="-5.929895">
        <ele>114.861</ele>
        <time>1999-07-22T10:26:16Z</time>
      </trkpt>
      <trkpt lat="43.381335" lon="-5.930015">
        <ele>115.227</ele>
        <time>1999-07-22T10:26:18Z</time>
      </trkpt>
      <trkpt lat="43.381325" lon="-5.930075">
        <ele>115.414</ele>
        <time>1999-07-22T10:26:19Z</time>
      </trkpt>
      <trkpt lat="43.381322" lon="-5.930272">
        <ele>116.081</ele>
        <time>1999-07-22T10:26:22Z</time>
      </trkpt>
      <trkpt lat="43.381328" lon="-5.930342">
        <ele>116.217</ele>
        <time>1999-07-22T10:26:23Z</time>
      </trkpt>
      <trkpt lat="43.381337" lon="-5.930414">
        <ele>116.498</ele>
        <time>1999-07-22T10:26:24Z</time>
      </trkpt>
      <trkpt lat="43.381394" lon="-5.930631">
        <ele>116.615</ele>
        <time>1999-07-22T10:26:27Z</time>
      </trkpt>
      <trkpt lat="43.381417" lon="-5.930691">
        <ele>116.626</ele>
        <time>1999-07-22T10:26:28Z</time>
      </trkpt>
      <trkpt lat="43.381509" lon="-5.930867">
        <ele>116.608</ele>
        <time>1999-07-22T10:26:31Z</time>
      </trkpt>
      <trkpt lat="43.381550" lon="-5.930927">
        <ele>116.662</ele>
        <time>1999-07-22T10:26:32Z</time>
      </trkpt>
      <trkpt lat="43.381598" lon="-5.930983">
        <ele>116.687</ele>
        <time>1999-07-22T10:26:33Z</time>
      </trkpt>
      <trkpt lat="43.381721" lon="-5.931076">
        <ele>116.698</ele>
        <time>1999-07-22T10:26:35Z</time>
      </trkpt>
      <trkpt lat="43.381857" lon="-5.931153">
        <ele>116.084</ele>
        <time>1999-07-22T10:26:37Z</time>
      </trkpt>
      <trkpt lat="43.382007" lon="-5.931201">
        <ele>115.460</ele>
        <time>1999-07-22T10:26:39Z</time>
      </trkpt>
      <trkpt lat="43.382089" lon="-5.931197">
        <ele>115.247</ele>
        <time>1999-07-22T10:26:40Z</time>
      </trkpt>
      <trkpt lat="43.382243" lon="-5.931141">
        <ele>114.654</ele>
        <time>1999-07-22T10:26:42Z</time>
      </trkpt>
      <trkpt lat="43.382405" lon="-5.931067">
        <ele>113.850</ele>
        <time>1999-07-22T10:26:44Z</time>
      </trkpt>
      <trkpt lat="43.382486" lon="-5.931020">
        <ele>113.287</ele>
        <time>1999-07-22T10:26:45Z</time>
      </trkpt>
      <trkpt lat="43.382637" lon="-5.930921">
        <ele>112.442</ele>
        <time>1999-07-22T10:26:47Z</time>
      </trkpt>
      <trkpt lat="43.382709" lon="-5.930889">
        <ele>111.826</ele>
        <time>1999-07-22T10:26:48Z</time>
      </trkpt>
      <trkpt lat="43.382837" lon="-5.930922">
        <ele>111.008</ele>
        <time>1999-07-22T10:26:50Z</time>
      </trkpt>
      <trkpt lat="43.382922" lon="-5.931014">
        <ele>110.471</ele>
        <time>1999-07-22T10:26:52Z</time>
      </trkpt>
      <trkpt lat="43.382948" lon="-5.931063">
        <ele>110.026</ele>
        <time>1999-07-22T10:26:53Z</time>
      </trkpt>
      <trkpt lat="43.382970" lon="-5.931107">
        <ele>109.667</ele>
        <time>1999-07-22T10:26:54Z</time>
      </trkpt>
      <trkpt lat="43.383000" lon="-5.931184">
        <ele>108.423</ele>
        <time>1999-07-22T10:26:56Z</time>
      </trkpt>
      <trkpt lat="43.383021" lon="-5.931252">
        <ele>107.239</ele>
        <time>1999-07-22T10:26:58Z</time>
      </trkpt>
      <trkpt lat="43.383066" lon="-5.931357">
        <ele>106.246</ele>
        <time>1999-07-22T10:27:01Z</time>
      </trkpt>
      <trkpt lat="43.383106" lon="-5.931446">
        <ele>106.013</ele>
        <time>1999-07-22T10:27:03Z</time>
      </trkpt>
      <trkpt lat="43.383207" lon="-5.931682">
        <ele>105.829</ele>
        <time>1999-07-22T10:27:07Z</time>
      </trkpt>
      <trkpt lat="43.383229" lon="-5.931730">
        <ele>105.899</ele>
        <time>1999-07-22T10:27:08Z</time>
      </trkpt>
      <trkpt lat="43.383278" lon="-5.931806">
        <ele>105.807</ele>
        <time>1999-07-22T10:27:10Z</time>
      </trkpt>
      <trkpt lat="43.383335" lon="-5.931865">
        <ele>105.827</ele>
        <time>1999-07-22T10:27:12Z</time>
      </trkpt>
      <trkpt lat="43.383362" lon="-5.931892">
        <ele>105.808</ele>
        <time>1999-07-22T10:27:13Z</time>
      </trkpt>
      <trkpt lat="43.383502" lon="-5.932043">
        <ele>106.092</ele>
        <time>1999-07-22T10:27:18Z</time>
      </trkpt>
      <trkpt lat="43.383553" lon="-5.932099">
        <ele>106.067</ele>
        <time>1999-07-22T10:27:20Z</time>
      </trkpt>
      <trkpt lat="43.383622" lon="-5.932185">
        <ele>106.438</ele>
        <time>1999-07-22T10:27:23Z</time>
      </trkpt>
      <trkpt lat="43.383665" lon="-5.932252">
        <ele>106.864</ele>
        <time>1999-07-22T10:27:25Z</time>
      </trkpt>
      <trkpt lat="43.383682" lon="-5.932288">
        <ele>107.030</ele>
        <time>1999-07-22T10:27:26Z</time>
      </trkpt>
      <trkpt lat="43.383718" lon="-5.932361">
        <ele>107.447</ele>
        <time>1999-07-22T10:27:28Z</time>
      </trkpt>
      <trkpt lat="43.383753" lon="-5.932432">
        <ele>107.634</ele>
        <time>1999-07-22T10:27:30Z</time>
      </trkpt>
      <trkpt lat="43.383786" lon="-5.932509">
        <ele>108.640</ele>
        <time>1999-07-22T10:27:32Z</time>
      </trkpt>
      <trkpt lat="43.383804" lon="-5.932549">
        <ele>109.061</ele>
        <time>1999-07-22T10:27:33Z</time>
      </trkpt>
      <trkpt lat="43.383860" lon="-5.932662">
        <ele>109.821</ele>
        <time>1999-07-22T10:27:36Z</time>
      </trkpt>
      <trkpt lat="43.383912" lon="-5.932767">
        <ele>110.813</ele>
        <time>1999-07-22T10:27:39Z</time>
      </trkpt>
      <trkpt lat="43.383933" lon="-5.932803">
        <ele>111.008</ele>
        <time>1999-07-22T10:27:40Z</time>
      </trkpt>
      <trkpt lat="43.383954" lon="-5.932838">
        <ele>111.299</ele>
        <time>1999-07-22T10:27:41Z</time>
      </trkpt>
      <trkpt lat="43.384011" lon="-5.932940">
        <ele>112.264</ele>
        <time>1999-07-22T10:27:44Z</time>
      </trkpt>
      <trkpt lat="43.384070" lon="-5.933043">
        <ele>113.025</ele>
        <time>1999-07-22T10:27:47Z</time>
      </trkpt>
      <trkpt lat="43.384089" lon="-5.933076">
        <ele>113.221</ele>
        <time>1999-07-22T10:27:48Z</time>
      </trkpt>
      <trkpt lat="43.384106" lon="-5.933110">
        <ele>113.687</ele>
        <time>1999-07-22T10:27:49Z</time>
      </trkpt>
      <trkpt lat="43.384157" lon="-5.933209">
        <ele>114.674</ele>
        <time>1999-07-22T10:27:52Z</time>
      </trkpt>
      <trkpt lat="43.384225" lon="-5.933337">
        <ele>115.611</ele>
        <time>1999-07-22T10:27:56Z</time>
      </trkpt>
      <trkpt lat="43.384243" lon="-5.933368">
        <ele>116.047</ele>
        <time>1999-07-22T10:27:57Z</time>
      </trkpt>
      <trkpt lat="43.384277" lon="-5.933431">
        <ele>116.871</ele>
        <time>1999-07-22T10:27:59Z</time>
      </trkpt>
      <trkpt lat="43.384298" lon="-5.933483">
        <ele>117.241</ele>
        <time>1999-07-22T10:28:01Z</time>
      </trkpt>
      <trkpt lat="43.384288" lon="-5.933493">
        <ele>117.415</ele>
        <time>1999-07-22T10:28:02Z</time>
      </trkpt>
      <trkpt lat="43.384262" lon="-5.933439">
        <ele>117.808</ele>
        <time>1999-07-22T10:28:04Z</time>
      </trkpt>
      <trkpt lat="43.384257" lon="-5.933406">
        <ele>118.030</ele>
        <time>1999-07-22T10:28:05Z</time>
      </trkpt>
      <trkpt lat="43.384256" lon="-5.933388">
        <ele>118.235</ele>
        <time>1999-07-22T10:28:06Z</time>
      </trkpt>
      <trkpt lat="43.384253" lon="-5.933381">
        <ele>118.656</ele>
        <time>1999-07-22T10:28:08Z</time>
      </trkpt>
      <trkpt lat="43.384209" lon="-5.933376">
        <ele>118.672</ele>
        <time>1999-07-22T10:28:23Z</time>
      </trkpt>
      <trkpt lat="43.384272" lon="-5.933432">
        <ele>118.698</ele>
        <time>1999-07-22T10:28:26Z</time>
      </trkpt>
      <trkpt lat="43.384341" lon="-5.933519">
        <ele>118.655</ele>
        <time>1999-07-22T10:28:29Z</time>
      </trkpt>
      <trkpt lat="43.384381" lon="-5.933586">
        <ele>118.662</ele>
        <time>1999-07-22T10:28:31Z</time>
      </trkpt>
      <trkpt lat="43.384473" lon="-5.933762">
        <ele>119.278</ele>
        <time>1999-07-22T10:28:36Z</time>
      </trkpt>
      <trkpt lat="43.384527" lon="-5.933870">
        <ele>119.823</ele>
        <time>1999-07-22T10:28:39Z</time>
      </trkpt>
      <trkpt lat="43.384581" lon="-5.933974">
        <ele>120.283</ele>
        <time>1999-07-22T10:28:42Z</time>
      </trkpt>
      <trkpt lat="43.384671" lon="-5.934140">
        <ele>121.211</ele>
        <time>1999-07-22T10:28:47Z</time>
      </trkpt>
      <trkpt lat="43.384689" lon="-5.934172">
        <ele>121.408</ele>
        <time>1999-07-22T10:28:48Z</time>
      </trkpt>
      <trkpt lat="43.384777" lon="-5.934330">
        <ele>122.655</ele>
        <time>1999-07-22T10:28:53Z</time>
      </trkpt>
      <trkpt lat="43.384838" lon="-5.934426">
        <ele>123.060</ele>
        <time>1999-07-22T10:28:56Z</time>
      </trkpt>
      <trkpt lat="43.384874" lon="-5.934491">
        <ele>123.631</ele>
        <time>1999-07-22T10:28:58Z</time>
      </trkpt>
      <trkpt lat="43.384931" lon="-5.934591">
        <ele>124.837</ele>
        <time>1999-07-22T10:29:01Z</time>
      </trkpt>
      <trkpt lat="43.384981" lon="-5.934686">
        <ele>125.493</ele>
        <time>1999-07-22T10:29:04Z</time>
      </trkpt>
      <trkpt lat="43.385043" lon="-5.934817">
        <ele>126.090</ele>
        <time>1999-07-22T10:29:08Z</time>
      </trkpt>
      <trkpt lat="43.385101" lon="-5.934915">
        <ele>126.677</ele>
        <time>1999-07-22T10:29:11Z</time>
      </trkpt>
      <trkpt lat="43.385152" lon="-5.935006">
        <ele>127.043</ele>
        <time>1999-07-22T10:29:14Z</time>
      </trkpt>
      <trkpt lat="43.385217" lon="-5.935130">
        <ele>127.681</ele>
        <time>1999-07-22T10:29:18Z</time>
      </trkpt>
      <trkpt lat="43.385275" lon="-5.935208">
        <ele>128.461</ele>
        <time>1999-07-22T10:29:21Z</time>
      </trkpt>
      <trkpt lat="43.385353" lon="-5.935327">
        <ele>129.017</ele>
        <time>1999-07-22T10:29:25Z</time>
      </trkpt>
      <trkpt lat="43.385398" lon="-5.935392">
        <ele>129.408</ele>
        <time>1999-07-22T10:29:27Z</time>
      </trkpt>
      <trkpt lat="43.385491" lon="-5.935562">
        <ele>130.441</ele>
        <time>1999-07-22T10:29:32Z</time>
      </trkpt>
      <trkpt lat="43.385512" lon="-5.935595">
        <ele>130.666</ele>
        <time>1999-07-22T10:29:33Z</time>
      </trkpt>
      <trkpt lat="43.385599" lon="-5.935761">
        <ele>131.657</ele>
        <time>1999-07-22T10:29:38Z</time>
      </trkpt>
      <trkpt lat="43.385617" lon="-5.935795">
        <ele>131.843</ele>
        <time>1999-07-22T10:29:39Z</time>
      </trkpt>
      <trkpt lat="43.385702" lon="-5.935944">
        <ele>132.679</ele>
        <time>1999-07-22T10:29:44Z</time>
      </trkpt>
      <trkpt lat="43.385751" lon="-5.936047">
        <ele>133.456</ele>
        <time>1999-07-22T10:29:47Z</time>
      </trkpt>
      <trkpt lat="43.385789" lon="-5.936107">
        <ele>134.063</ele>
        <time>1999-07-22T10:29:49Z</time>
      </trkpt>
      <trkpt lat="43.385897" lon="-5.936277">
        <ele>135.219</ele>
        <time>1999-07-22T10:29:55Z</time>
      </trkpt>
      <trkpt lat="43.385916" lon="-5.936303">
        <ele>135.412</ele>
        <time>1999-07-22T10:29:56Z</time>
      </trkpt>
      <trkpt lat="43.385967" lon="-5.936375">
        <ele>136.232</ele>
        <time>1999-07-22T10:29:59Z</time>
      </trkpt>
      <trkpt lat="43.386030" lon="-5.936474">
        <ele>137.205</ele>
        <time>1999-07-22T10:30:03Z</time>
      </trkpt>
      <trkpt lat="43.386045" lon="-5.936499">
        <ele>137.408</ele>
        <time>1999-07-22T10:30:04Z</time>
      </trkpt>
      <trkpt lat="43.386118" lon="-5.936624">
        <ele>139.024</ele>
        <time>1999-07-22T10:30:09Z</time>
      </trkpt>
      <trkpt lat="43.386170" lon="-5.936714">
        <ele>140.269</ele>
        <time>1999-07-22T10:30:13Z</time>
      </trkpt>
      <trkpt lat="43.386208" lon="-5.936790">
        <ele>141.480</ele>
        <time>1999-07-22T10:30:16Z</time>
      </trkpt>
      <trkpt lat="43.386221" lon="-5.936816">
        <ele>141.866</ele>
        <time>1999-07-22T10:30:17Z</time>
      </trkpt>
      <trkpt lat="43.386248" lon="-5.936874">
        <ele>142.682</ele>
        <time>1999-07-22T10:30:19Z</time>
      </trkpt>
      <trkpt lat="43.386285" lon="-5.936971">
        <ele>143.679</ele>
        <time>1999-07-22T10:30:22Z</time>
      </trkpt>
      <trkpt lat="43.386310" lon="-5.937031">
        <ele>144.286</ele>
        <time>1999-07-22T10:30:24Z</time>
      </trkpt>
      <trkpt lat="43.386338" lon="-5.937095">
        <ele>144.872</ele>
        <time>1999-07-22T10:30:26Z</time>
      </trkpt>
      <trkpt lat="43.386409" lon="-5.937259">
        <ele>145.814</ele>
        <time>1999-07-22T10:30:31Z</time>
      </trkpt>
      <trkpt lat="43.386422" lon="-5.937290">
        <ele>146.054</ele>
        <time>1999-07-22T10:30:32Z</time>
      </trkpt>
      <trkpt lat="43.386489" lon="-5.937441">
        <ele>147.209</ele>
        <time>1999-07-22T10:30:37Z</time>
      </trkpt>
      <trkpt lat="43.386551" lon="-5.937595">
        <ele>148.008</ele>
        <time>1999-07-22T10:30:42Z</time>
      </trkpt>
      <trkpt lat="43.386575" lon="-5.937651">
        <ele>148.484</ele>
        <time>1999-07-22T10:30:44Z</time>
      </trkpt>
      <trkpt lat="43.386613" lon="-5.937746">
        <ele>149.639</ele>
        <time>1999-07-22T10:30:48Z</time>
      </trkpt>
      <trkpt lat="43.386624" lon="-5.937772">
        <ele>149.880</ele>
        <time>1999-07-22T10:30:49Z</time>
      </trkpt>
      <trkpt lat="43.386666" lon="-5.937881">
        <ele>150.686</ele>
        <time>1999-07-22T10:30:53Z</time>
      </trkpt>
      <trkpt lat="43.386722" lon="-5.938004">
        <ele>151.272</ele>
        <time>1999-07-22T10:30:57Z</time>
      </trkpt>
      <trkpt lat="43.386757" lon="-5.938096">
        <ele>151.879</ele>
        <time>1999-07-22T10:31:00Z</time>
      </trkpt>
      <trkpt lat="43.386783" lon="-5.938228">
        <ele>152.436</ele>
        <time>1999-07-22T10:31:04Z</time>
      </trkpt>
      <trkpt lat="43.386793" lon="-5.938296">
        <ele>152.842</ele>
        <time>1999-07-22T10:31:06Z</time>
      </trkpt>
      <trkpt lat="43.386802" lon="-5.938480">
        <ele>154.021</ele>
        <time>1999-07-22T10:31:11Z</time>
      </trkpt>
      <trkpt lat="43.386805" lon="-5.938517">
        <ele>154.041</ele>
        <time>1999-07-22T10:31:12Z</time>
      </trkpt>
      <trkpt lat="43.386809" lon="-5.938675">
        <ele>154.805</ele>
        <time>1999-07-22T10:31:16Z</time>
      </trkpt>
      <trkpt lat="43.386804" lon="-5.938796">
        <ele>155.208</ele>
        <time>1999-07-22T10:31:19Z</time>
      </trkpt>
      <trkpt lat="43.386797" lon="-5.938951">
        <ele>155.475</ele>
        <time>1999-07-22T10:31:23Z</time>
      </trkpt>
      <trkpt lat="43.386788" lon="-5.939066">
        <ele>155.870</ele>
        <time>1999-07-22T10:31:26Z</time>
      </trkpt>
      <trkpt lat="43.386790" lon="-5.939103">
        <ele>155.881</ele>
        <time>1999-07-22T10:31:27Z</time>
      </trkpt>
      <trkpt lat="43.386786" lon="-5.939260">
        <ele>156.037</ele>
        <time>1999-07-22T10:31:32Z</time>
      </trkpt>
      <trkpt lat="43.386788" lon="-5.939289">
        <ele>156.293</ele>
        <time>1999-07-22T10:31:33Z</time>
      </trkpt>
      <trkpt lat="43.386844" lon="-5.939470">
        <ele>156.830</ele>
        <time>1999-07-22T10:31:39Z</time>
      </trkpt>
      <trkpt lat="43.386879" lon="-5.939548">
        <ele>157.427</ele>
        <time>1999-07-22T10:31:42Z</time>
      </trkpt>
      <trkpt lat="43.386936" lon="-5.939633">
        <ele>158.293</ele>
        <time>1999-07-22T10:31:45Z</time>
      </trkpt>
      <trkpt lat="43.386951" lon="-5.939664">
        <ele>158.431</ele>
        <time>1999-07-22T10:31:46Z</time>
      </trkpt>
      <trkpt lat="43.387009" lon="-5.939780">
        <ele>159.061</ele>
        <time>1999-07-22T10:31:50Z</time>
      </trkpt>
      <trkpt lat="43.387036" lon="-5.939831">
        <ele>159.607</ele>
        <time>1999-07-22T10:31:52Z</time>
      </trkpt>
      <trkpt lat="43.387104" lon="-5.939932">
        <ele>160.808</ele>
        <time>1999-07-22T10:31:56Z</time>
      </trkpt>
      <trkpt lat="43.387137" lon="-5.939997">
        <ele>161.226</ele>
        <time>1999-07-22T10:31:58Z</time>
      </trkpt>
      <trkpt lat="43.387168" lon="-5.940054">
        <ele>161.851</ele>
        <time>1999-07-22T10:32:00Z</time>
      </trkpt>
      <trkpt lat="43.387244" lon="-5.940203">
        <ele>162.872</ele>
        <time>1999-07-22T10:32:05Z</time>
      </trkpt>
      <trkpt lat="43.387324" lon="-5.940341">
        <ele>164.048</ele>
        <time>1999-07-22T10:32:10Z</time>
      </trkpt>
      <trkpt lat="43.387351" lon="-5.940410">
        <ele>164.244</ele>
        <time>1999-07-22T10:32:12Z</time>
      </trkpt>
      <trkpt lat="43.387413" lon="-5.940542">
        <ele>165.051</ele>
        <time>1999-07-22T10:32:16Z</time>
      </trkpt>
      <trkpt lat="43.387457" lon="-5.940633">
        <ele>165.838</ele>
        <time>1999-07-22T10:32:19Z</time>
      </trkpt>
      <trkpt lat="43.387487" lon="-5.940692">
        <ele>166.264</ele>
        <time>1999-07-22T10:32:21Z</time>
      </trkpt>
      <trkpt lat="43.387562" lon="-5.940784">
        <ele>167.218</ele>
        <time>1999-07-22T10:32:25Z</time>
      </trkpt>
      <trkpt lat="43.387587" lon="-5.940801">
        <ele>167.698</ele>
        <time>1999-07-22T10:32:26Z</time>
      </trkpt>
      <trkpt lat="43.387730" lon="-5.940880">
        <ele>168.817</ele>
        <time>1999-07-22T10:32:31Z</time>
      </trkpt>
      <trkpt lat="43.387758" lon="-5.940891">
        <ele>169.008</ele>
        <time>1999-07-22T10:32:32Z</time>
      </trkpt>
      <trkpt lat="43.387810" lon="-5.940903">
        <ele>169.864</ele>
        <time>1999-07-22T10:32:34Z</time>
      </trkpt>
      <trkpt lat="43.387897" lon="-5.940888">
        <ele>171.079</ele>
        <time>1999-07-22T10:32:38Z</time>
      </trkpt>
      <trkpt lat="43.387976" lon="-5.940864">
        <ele>172.220</ele>
        <time>1999-07-22T10:32:42Z</time>
      </trkpt>
      <trkpt lat="43.388037" lon="-5.940830">
        <ele>173.276</ele>
        <time>1999-07-22T10:32:45Z</time>
      </trkpt>
      <trkpt lat="43.388109" lon="-5.940767">
        <ele>174.262</ele>
        <time>1999-07-22T10:32:49Z</time>
      </trkpt>
      <trkpt lat="43.388174" lon="-5.940721">
        <ele>175.229</ele>
        <time>1999-07-22T10:32:52Z</time>
      </trkpt>
      <trkpt lat="43.388195" lon="-5.940704">
        <ele>175.496</ele>
        <time>1999-07-22T10:32:53Z</time>
      </trkpt>
      <trkpt lat="43.388316" lon="-5.940666">
        <ele>176.662</ele>
        <time>1999-07-22T10:32:58Z</time>
      </trkpt>
      <trkpt lat="43.388424" lon="-5.940665">
        <ele>178.078</ele>
        <time>1999-07-22T10:33:02Z</time>
      </trkpt>
      <trkpt lat="43.388501" lon="-5.940682">
        <ele>178.833</ele>
        <time>1999-07-22T10:33:05Z</time>
      </trkpt>
      <trkpt lat="43.388525" lon="-5.940686">
        <ele>179.026</ele>
        <time>1999-07-22T10:33:06Z</time>
      </trkpt>
      <trkpt lat="43.388647" lon="-5.940712">
        <ele>180.208</ele>
        <time>1999-07-22T10:33:11Z</time>
      </trkpt>
      <trkpt lat="43.388692" lon="-5.940731">
        <ele>180.830</ele>
        <time>1999-07-22T10:33:13Z</time>
      </trkpt>
      <trkpt lat="43.388732" lon="-5.940746">
        <ele>181.465</ele>
        <time>1999-07-22T10:33:15Z</time>
      </trkpt>
      <trkpt lat="43.388831" lon="-5.940780">
        <ele>182.616</ele>
        <time>1999-07-22T10:33:20Z</time>
      </trkpt>
      <trkpt lat="43.388924" lon="-5.940832">
        <ele>183.862</ele>
        <time>1999-07-22T10:33:25Z</time>
      </trkpt>
      <trkpt lat="43.388934" lon="-5.940851">
        <ele>184.098</ele>
        <time>1999-07-22T10:33:26Z</time>
      </trkpt>
      <trkpt lat="43.388967" lon="-5.940920">
        <ele>185.075</ele>
        <time>1999-07-22T10:33:29Z</time>
      </trkpt>
      <trkpt lat="43.388977" lon="-5.940989">
        <ele>185.672</ele>
        <time>1999-07-22T10:33:32Z</time>
      </trkpt>
      <trkpt lat="43.389001" lon="-5.941034">
        <ele>186.248</ele>
        <time>1999-07-22T10:33:34Z</time>
      </trkpt>
      <trkpt lat="43.389048" lon="-5.941121">
        <ele>187.074</ele>
        <time>1999-07-22T10:33:37Z</time>
      </trkpt>
      <trkpt lat="43.389072" lon="-5.941187">
        <ele>187.456</ele>
        <time>1999-07-22T10:33:39Z</time>
      </trkpt>
      <trkpt lat="43.389088" lon="-5.941274">
        <ele>188.021</ele>
        <time>1999-07-22T10:33:42Z</time>
      </trkpt>
      <trkpt lat="43.389111" lon="-5.941353">
        <ele>188.408</ele>
        <time>1999-07-22T10:33:45Z</time>
      </trkpt>
      <trkpt lat="43.389126" lon="-5.941443">
        <ele>189.040</ele>
        <time>1999-07-22T10:33:48Z</time>
      </trkpt>
      <trkpt lat="43.389127" lon="-5.941518">
        <ele>189.675</ele>
        <time>1999-07-22T10:33:50Z</time>
      </trkpt>
      <trkpt lat="43.389114" lon="-5.941636">
        <ele>190.256</ele>
        <time>1999-07-22T10:33:53Z</time>
      </trkpt>
      <trkpt lat="43.389105" lon="-5.941710">
        <ele>190.412</ele>
        <time>1999-07-22T10:33:55Z</time>
      </trkpt>
      <trkpt lat="43.389100" lon="-5.941745">
        <ele>190.658</ele>
        <time>1999-07-22T10:33:56Z</time>
      </trkpt>
      <trkpt lat="43.389068" lon="-5.941959">
        <ele>192.075</ele>
        <time>1999-07-22T10:34:02Z</time>
      </trkpt>
      <trkpt lat="43.389025" lon="-5.942166">
        <ele>192.862</ele>
        <time>1999-07-22T10:34:08Z</time>
      </trkpt>
      <trkpt lat="43.389017" lon="-5.942205">
        <ele>193.018</ele>
        <time>1999-07-22T10:34:09Z</time>
      </trkpt>
      <trkpt lat="43.388950" lon="-5.942449">
        <ele>193.818</ele>
        <time>1999-07-22T10:34:15Z</time>
      </trkpt>
      <trkpt lat="43.388940" lon="-5.942487">
        <ele>194.098</ele>
        <time>1999-07-22T10:34:16Z</time>
      </trkpt>
      <trkpt lat="43.388928" lon="-5.942525">
        <ele>194.017</ele>
        <time>1999-07-22T10:34:17Z</time>
      </trkpt>
      <trkpt lat="43.388867" lon="-5.942747">
        <ele>194.608</ele>
        <time>1999-07-22T10:34:23Z</time>
      </trkpt>
      <trkpt lat="43.388827" lon="-5.942887">
        <ele>195.084</ele>
        <time>1999-07-22T10:34:27Z</time>
      </trkpt>
      <trkpt lat="43.388782" lon="-5.943043">
        <ele>195.859</ele>
        <time>1999-07-22T10:34:32Z</time>
      </trkpt>
      <trkpt lat="43.388768" lon="-5.943137">
        <ele>196.430</ele>
        <time>1999-07-22T10:34:35Z</time>
      </trkpt>
      <trkpt lat="43.388750" lon="-5.943265">
        <ele>197.096</ele>
        <time>1999-07-22T10:34:39Z</time>
      </trkpt>
      <trkpt lat="43.388744" lon="-5.943361">
        <ele>197.432</ele>
        <time>1999-07-22T10:34:42Z</time>
      </trkpt>
      <trkpt lat="43.388734" lon="-5.943528">
        <ele>198.269</ele>
        <time>1999-07-22T10:34:47Z</time>
      </trkpt>
      <trkpt lat="43.388735" lon="-5.943559">
        <ele>198.496</ele>
        <time>1999-07-22T10:34:48Z</time>
      </trkpt>
      <trkpt lat="43.388737" lon="-5.943723">
        <ele>199.842</ele>
        <time>1999-07-22T10:34:53Z</time>
      </trkpt>
      <trkpt lat="43.388740" lon="-5.943756">
        <ele>200.013</ele>
        <time>1999-07-22T10:34:54Z</time>
      </trkpt>
      <trkpt lat="43.388745" lon="-5.943823">
        <ele>200.843</ele>
        <time>1999-07-22T10:34:56Z</time>
      </trkpt>
      <trkpt lat="43.388767" lon="-5.943962">
        <ele>201.807</ele>
        <time>1999-07-22T10:35:00Z</time>
      </trkpt>
      <trkpt lat="43.388801" lon="-5.944117">
        <ele>202.808</ele>
        <time>1999-07-22T10:35:05Z</time>
      </trkpt>
      <trkpt lat="43.388830" lon="-5.944213">
        <ele>203.644</ele>
        <time>1999-07-22T10:35:08Z</time>
      </trkpt>
      <trkpt lat="43.388847" lon="-5.944276">
        <ele>204.049</ele>
        <time>1999-07-22T10:35:10Z</time>
      </trkpt>
      <trkpt lat="43.388877" lon="-5.944391">
        <ele>204.880</ele>
        <time>1999-07-22T10:35:14Z</time>
      </trkpt>
      <trkpt lat="43.388886" lon="-5.944420">
        <ele>205.086</ele>
        <time>1999-07-22T10:35:15Z</time>
      </trkpt>
      <trkpt lat="43.388882" lon="-5.944599">
        <ele>206.222</ele>
        <time>1999-07-22T10:35:20Z</time>
      </trkpt>
      <trkpt lat="43.388870" lon="-5.944805">
        <ele>207.419</ele>
        <time>1999-07-22T10:35:26Z</time>
      </trkpt>
      <trkpt lat="43.388867" lon="-5.944839">
        <ele>207.666</ele>
        <time>1999-07-22T10:35:27Z</time>
      </trkpt>
      <trkpt lat="43.388855" lon="-5.945003">
        <ele>208.412</ele>
        <time>1999-07-22T10:35:32Z</time>
      </trkpt>
      <trkpt lat="43.388850" lon="-5.945034">
        <ele>208.832</ele>
        <time>1999-07-22T10:35:33Z</time>
      </trkpt>
      <trkpt lat="43.388832" lon="-5.945123">
        <ele>209.692</ele>
        <time>1999-07-22T10:35:36Z</time>
      </trkpt>
      <trkpt lat="43.388816" lon="-5.945243">
        <ele>210.411</ele>
        <time>1999-07-22T10:35:40Z</time>
      </trkpt>
      <trkpt lat="43.388818" lon="-5.945275">
        <ele>210.608</ele>
        <time>1999-07-22T10:35:41Z</time>
      </trkpt>
      <trkpt lat="43.388830" lon="-5.945431">
        <ele>211.616</ele>
        <time>1999-07-22T10:35:46Z</time>
      </trkpt>
      <trkpt lat="43.388850" lon="-5.945560">
        <ele>212.821</ele>
        <time>1999-07-22T10:35:50Z</time>
      </trkpt>
      <trkpt lat="43.388883" lon="-5.945722">
        <ele>213.872</ele>
        <time>1999-07-22T10:35:55Z</time>
      </trkpt>
      <trkpt lat="43.388908" lon="-5.945849">
        <ele>214.838</ele>
        <time>1999-07-22T10:35:59Z</time>
      </trkpt>
      <trkpt lat="43.388913" lon="-5.945878">
        <ele>215.044</ele>
        <time>1999-07-22T10:36:00Z</time>
      </trkpt>
      <trkpt lat="43.388972" lon="-5.946008">
        <ele>216.071</ele>
        <time>1999-07-22T10:36:05Z</time>
      </trkpt>
      <trkpt lat="43.388991" lon="-5.946027">
        <ele>216.418</ele>
        <time>1999-07-22T10:36:06Z</time>
      </trkpt>
      <trkpt lat="43.389049" lon="-5.946069">
        <ele>217.254</ele>
        <time>1999-07-22T10:36:09Z</time>
      </trkpt>
      <trkpt lat="43.389120" lon="-5.946124">
        <ele>218.642</ele>
        <time>1999-07-22T10:36:13Z</time>
      </trkpt>
      <trkpt lat="43.389141" lon="-5.946137">
        <ele>218.822</ele>
        <time>1999-07-22T10:36:14Z</time>
      </trkpt>
      <trkpt lat="43.389161" lon="-5.946148">
        <ele>219.414</ele>
        <time>1999-07-22T10:36:15Z</time>
      </trkpt>
      <trkpt lat="43.389181" lon="-5.946156">
        <ele>219.808</ele>
        <time>1999-07-22T10:36:16Z</time>
      </trkpt>
      <trkpt lat="43.389254" lon="-5.946174">
        <ele>220.817</ele>
        <time>1999-07-22T10:36:19Z</time>
      </trkpt>
      <trkpt lat="43.389276" lon="-5.946178">
        <ele>221.292</ele>
        <time>1999-07-22T10:36:20Z</time>
      </trkpt>
      <trkpt lat="43.389340" lon="-5.946189">
        <ele>222.023</ele>
        <time>1999-07-22T10:36:23Z</time>
      </trkpt>
      <trkpt lat="43.389421" lon="-5.946197">
        <ele>223.489</ele>
        <time>1999-07-22T10:36:27Z</time>
      </trkpt>
      <trkpt lat="43.389502" lon="-5.946202">
        <ele>224.435</ele>
        <time>1999-07-22T10:36:31Z</time>
      </trkpt>
      <trkpt lat="43.389587" lon="-5.946212">
        <ele>225.452</ele>
        <time>1999-07-22T10:36:35Z</time>
      </trkpt>
      <trkpt lat="43.389608" lon="-5.946219">
        <ele>225.889</ele>
        <time>1999-07-22T10:36:36Z</time>
      </trkpt>
      <trkpt lat="43.389667" lon="-5.946229">
        <ele>226.665</ele>
        <time>1999-07-22T10:36:39Z</time>
      </trkpt>
      <trkpt lat="43.389752" lon="-5.946238">
        <ele>227.885</ele>
        <time>1999-07-22T10:36:43Z</time>
      </trkpt>
      <trkpt lat="43.389873" lon="-5.946309">
        <ele>228.889</ele>
        <time>1999-07-22T10:36:49Z</time>
      </trkpt>
      <trkpt lat="43.389911" lon="-5.946340">
        <ele>229.217</ele>
        <time>1999-07-22T10:36:51Z</time>
      </trkpt>
      <trkpt lat="43.389981" lon="-5.946402">
        <ele>229.808</ele>
        <time>1999-07-22T10:36:55Z</time>
      </trkpt>
      <trkpt lat="43.390025" lon="-5.946461">
        <ele>230.491</ele>
        <time>1999-07-22T10:36:58Z</time>
      </trkpt>
      <trkpt lat="43.390068" lon="-5.946521">
        <ele>231.256</ele>
        <time>1999-07-22T10:37:01Z</time>
      </trkpt>
      <trkpt lat="43.390103" lon="-5.946595">
        <ele>231.697</ele>
        <time>1999-07-22T10:37:04Z</time>
      </trkpt>
      <trkpt lat="43.390144" lon="-5.946668">
        <ele>232.443</ele>
        <time>1999-07-22T10:37:07Z</time>
      </trkpt>
      <trkpt lat="43.390186" lon="-5.946778">
        <ele>233.429</ele>
        <time>1999-07-22T10:37:11Z</time>
      </trkpt>
      <trkpt lat="43.390197" lon="-5.946807">
        <ele>233.626</ele>
        <time>1999-07-22T10:37:12Z</time>
      </trkpt>
      <trkpt lat="43.390243" lon="-5.946914">
        <ele>234.463</ele>
        <time>1999-07-22T10:37:16Z</time>
      </trkpt>
      <trkpt lat="43.390283" lon="-5.946997">
        <ele>235.089</ele>
        <time>1999-07-22T10:37:19Z</time>
      </trkpt>
      <trkpt lat="43.390310" lon="-5.947048">
        <ele>235.688</ele>
        <time>1999-07-22T10:37:21Z</time>
      </trkpt>
      <trkpt lat="43.390374" lon="-5.947163">
        <ele>236.424</ele>
        <time>1999-07-22T10:37:26Z</time>
      </trkpt>
      <trkpt lat="43.390388" lon="-5.947187">
        <ele>236.626</ele>
        <time>1999-07-22T10:37:27Z</time>
      </trkpt>
      <trkpt lat="43.390462" lon="-5.947315">
        <ele>237.608</ele>
        <time>1999-07-22T10:37:32Z</time>
      </trkpt>
      <trkpt lat="43.390498" lon="-5.947391">
        <ele>238.231</ele>
        <time>1999-07-22T10:37:35Z</time>
      </trkpt>
      <trkpt lat="43.390520" lon="-5.947443">
        <ele>238.666</ele>
        <time>1999-07-22T10:37:37Z</time>
      </trkpt>
      <trkpt lat="43.390547" lon="-5.947527">
        <ele>240.037</ele>
        <time>1999-07-22T10:37:40Z</time>
      </trkpt>
      <trkpt lat="43.390561" lon="-5.947615">
        <ele>240.843</ele>
        <time>1999-07-22T10:37:43Z</time>
      </trkpt>
      <trkpt lat="43.390566" lon="-5.947644">
        <ele>241.069</ele>
        <time>1999-07-22T10:37:44Z</time>
      </trkpt>
      <trkpt lat="43.390586" lon="-5.947767">
        <ele>242.276</ele>
        <time>1999-07-22T10:37:48Z</time>
      </trkpt>
      <trkpt lat="43.390591" lon="-5.947828">
        <ele>242.853</ele>
        <time>1999-07-22T10:37:50Z</time>
      </trkpt>
      <trkpt lat="43.390602" lon="-5.947889">
        <ele>243.279</ele>
        <time>1999-07-22T10:37:52Z</time>
      </trkpt>
      <trkpt lat="43.390630" lon="-5.947992">
        <ele>244.243</ele>
        <time>1999-07-22T10:37:56Z</time>
      </trkpt>
      <trkpt lat="43.390641" lon="-5.948018">
        <ele>244.464</ele>
        <time>1999-07-22T10:37:57Z</time>
      </trkpt>
      <trkpt lat="43.390705" lon="-5.948119">
        <ele>245.610</ele>
        <time>1999-07-22T10:38:01Z</time>
      </trkpt>
      <trkpt lat="43.390745" lon="-5.948161">
        <ele>246.008</ele>
        <time>1999-07-22T10:38:03Z</time>
      </trkpt>
      <trkpt lat="43.390806" lon="-5.948210">
        <ele>246.457</ele>
        <time>1999-07-22T10:38:06Z</time>
      </trkpt>
      <trkpt lat="43.390835" lon="-5.948233">
        <ele>246.632</ele>
        <time>1999-07-22T10:38:08Z</time>
      </trkpt>
      <trkpt lat="43.390849" lon="-5.948245">
        <ele>246.643</ele>
        <time>1999-07-22T10:38:09Z</time>
      </trkpt>
      <trkpt lat="43.390924" lon="-5.948286">
        <ele>247.029</ele>
        <time>1999-07-22T10:38:13Z</time>
      </trkpt>
      <trkpt lat="43.390944" lon="-5.948295">
        <ele>247.295</ele>
        <time>1999-07-22T10:38:14Z</time>
      </trkpt>
      <trkpt lat="43.391125" lon="-5.948372">
        <ele>247.672</ele>
        <time>1999-07-22T10:38:22Z</time>
      </trkpt>
      <trkpt lat="43.391149" lon="-5.948382">
        <ele>247.839</ele>
        <time>1999-07-22T10:38:23Z</time>
      </trkpt>
      <trkpt lat="43.391173" lon="-5.948390">
        <ele>247.885</ele>
        <time>1999-07-22T10:38:24Z</time>
      </trkpt>
      <trkpt lat="43.391328" lon="-5.948413">
        <ele>248.467</ele>
        <time>1999-07-22T10:38:30Z</time>
      </trkpt>
      <trkpt lat="43.391431" lon="-5.948450">
        <ele>249.081</ele>
        <time>1999-07-22T10:38:34Z</time>
      </trkpt>
      <trkpt lat="43.391489" lon="-5.948473">
        <ele>249.219</ele>
        <time>1999-07-22T10:38:36Z</time>
      </trkpt>
      <trkpt lat="43.391703" lon="-5.948495">
        <ele>249.808</ele>
        <time>1999-07-22T10:38:42Z</time>
      </trkpt>
      <trkpt lat="43.391743" lon="-5.948495">
        <ele>250.079</ele>
        <time>1999-07-22T10:38:43Z</time>
      </trkpt>
      <trkpt lat="43.391830" lon="-5.948495">
        <ele>250.024</ele>
        <time>1999-07-22T10:38:45Z</time>
      </trkpt>
      <trkpt lat="43.391931" lon="-5.948498">
        <ele>250.035</ele>
        <time>1999-07-22T10:38:47Z</time>
      </trkpt>
      <trkpt lat="43.392042" lon="-5.948496">
        <ele>250.061</ele>
        <time>1999-07-22T10:38:49Z</time>
      </trkpt>
      <trkpt lat="43.392209" lon="-5.948485">
        <ele>250.047</ele>
        <time>1999-07-22T10:38:52Z</time>
      </trkpt>
      <trkpt lat="43.392386" lon="-5.948472">
        <ele>249.814</ele>
        <time>1999-07-22T10:38:55Z</time>
      </trkpt>
      <trkpt lat="43.392448" lon="-5.948467">
        <ele>249.681</ele>
        <time>1999-07-22T10:38:56Z</time>
      </trkpt>
      <trkpt lat="43.392571" lon="-5.948452">
        <ele>249.427</ele>
        <time>1999-07-22T10:38:58Z</time>
      </trkpt>
      <trkpt lat="43.392631" lon="-5.948455">
        <ele>249.498</ele>
        <time>1999-07-22T10:38:59Z</time>
      </trkpt>
      <trkpt lat="43.392745" lon="-5.948498">
        <ele>249.015</ele>
        <time>1999-07-22T10:39:01Z</time>
      </trkpt>
      <trkpt lat="43.392795" lon="-5.948531">
        <ele>248.626</ele>
        <time>1999-07-22T10:39:02Z</time>
      </trkpt>
      <trkpt lat="43.392886" lon="-5.948601">
        <ele>248.408</ele>
        <time>1999-07-22T10:39:04Z</time>
      </trkpt>
      <trkpt lat="43.392970" lon="-5.948680">
        <ele>248.042</ele>
        <time>1999-07-22T10:39:06Z</time>
      </trkpt>
      <trkpt lat="43.393132" lon="-5.948848">
        <ele>247.677</ele>
        <time>1999-07-22T10:39:10Z</time>
      </trkpt>
      <trkpt lat="43.393238" lon="-5.948997">
        <ele>247.438</ele>
        <time>1999-07-22T10:39:13Z</time>
      </trkpt>
      <trkpt lat="43.393411" lon="-5.949249">
        <ele>247.294</ele>
        <time>1999-07-22T10:39:18Z</time>
      </trkpt>
      <trkpt lat="43.393484" lon="-5.949344">
        <ele>247.290</ele>
        <time>1999-07-22T10:39:20Z</time>
      </trkpt>
      <trkpt lat="43.393553" lon="-5.949443">
        <ele>247.217</ele>
        <time>1999-07-22T10:39:22Z</time>
      </trkpt>
      <trkpt lat="43.393681" lon="-5.949657">
        <ele>247.234</ele>
        <time>1999-07-22T10:39:26Z</time>
      </trkpt>
      <trkpt lat="43.393740" lon="-5.949773">
        <ele>247.250</ele>
        <time>1999-07-22T10:39:28Z</time>
      </trkpt>
      <trkpt lat="43.393768" lon="-5.949832">
        <ele>247.266</ele>
        <time>1999-07-22T10:39:29Z</time>
      </trkpt>
      <trkpt lat="43.393916" lon="-5.950295">
        <ele>247.629</ele>
        <time>1999-07-22T10:39:36Z</time>
      </trkpt>
      <trkpt lat="43.394080" lon="-5.950723">
        <ele>247.621</ele>
        <time>1999-07-22T10:39:42Z</time>
      </trkpt>
      <trkpt lat="43.394352" lon="-5.951370">
        <ele>247.408</ele>
        <time>1999-07-22T10:39:51Z</time>
      </trkpt>
      <trkpt lat="43.394408" lon="-5.951501">
        <ele>247.299</ele>
        <time>1999-07-22T10:39:53Z</time>
      </trkpt>
      <trkpt lat="43.394543" lon="-5.951742">
        <ele>246.664</ele>
        <time>1999-07-22T10:39:57Z</time>
      </trkpt>
      <trkpt lat="43.394581" lon="-5.951796">
        <ele>246.675</ele>
        <time>1999-07-22T10:39:58Z</time>
      </trkpt>
      <trkpt lat="43.394705" lon="-5.951924">
        <ele>246.471</ele>
        <time>1999-07-22T10:40:01Z</time>
      </trkpt>
      <trkpt lat="43.394794" lon="-5.951995">
        <ele>246.217</ele>
        <time>1999-07-22T10:40:03Z</time>
      </trkpt>
      <trkpt lat="43.395176" lon="-5.952273">
        <ele>246.674</ele>
        <time>1999-07-22T10:40:11Z</time>
      </trkpt>
      <trkpt lat="43.395488" lon="-5.952371">
        <ele>246.691</ele>
        <time>1999-07-22T10:40:17Z</time>
      </trkpt>
      <trkpt lat="43.395541" lon="-5.952377">
        <ele>246.627</ele>
        <time>1999-07-22T10:40:18Z</time>
      </trkpt>
      <trkpt lat="43.395703" lon="-5.952387">
        <ele>246.621</ele>
        <time>1999-07-22T10:40:21Z</time>
      </trkpt>
      <trkpt lat="43.395806" lon="-5.952354">
        <ele>246.641</ele>
        <time>1999-07-22T10:40:23Z</time>
      </trkpt>
      <trkpt lat="43.396007" lon="-5.952267">
        <ele>246.605</ele>
        <time>1999-07-22T10:40:27Z</time>
      </trkpt>
      <trkpt lat="43.396061" lon="-5.952259">
        <ele>246.608</ele>
        <time>1999-07-22T10:40:28Z</time>
      </trkpt>
      <trkpt lat="43.396115" lon="-5.952256">
        <ele>246.625</ele>
        <time>1999-07-22T10:40:29Z</time>
      </trkpt>
      <trkpt lat="43.396423" lon="-5.952294">
        <ele>247.230</ele>
        <time>1999-07-22T10:40:35Z</time>
      </trkpt>
      <trkpt lat="43.396738" lon="-5.952346">
        <ele>247.461</ele>
        <time>1999-07-22T10:40:42Z</time>
      </trkpt>
      <trkpt lat="43.397138" lon="-5.952418">
        <ele>248.067</ele>
        <time>1999-07-22T10:40:50Z</time>
      </trkpt>
      <trkpt lat="43.397340" lon="-5.952562">
        <ele>248.063</ele>
        <time>1999-07-22T10:40:54Z</time>
      </trkpt>
      <trkpt lat="43.397442" lon="-5.952699">
        <ele>248.050</ele>
        <time>1999-07-22T10:40:56Z</time>
      </trkpt>
      <trkpt lat="43.397622" lon="-5.952921">
        <ele>248.087</ele>
        <time>1999-07-22T10:40:59Z</time>
      </trkpt>
      <trkpt lat="43.397965" lon="-5.953285">
        <ele>247.233</ele>
        <time>1999-07-22T10:41:04Z</time>
      </trkpt>
      <trkpt lat="43.398038" lon="-5.953357">
        <ele>246.889</ele>
        <time>1999-07-22T10:41:05Z</time>
      </trkpt>
      <trkpt lat="43.398178" lon="-5.953487">
        <ele>246.006</ele>
        <time>1999-07-22T10:41:07Z</time>
      </trkpt>
      <trkpt lat="43.398246" lon="-5.953537">
        <ele>245.626</ele>
        <time>1999-07-22T10:41:08Z</time>
      </trkpt>
      <trkpt lat="43.398308" lon="-5.953587">
        <ele>245.408</ele>
        <time>1999-07-22T10:41:09Z</time>
      </trkpt>
      <trkpt lat="43.398410" lon="-5.953715">
        <ele>244.871</ele>
        <time>1999-07-22T10:41:11Z</time>
      </trkpt>
      <trkpt lat="43.398455" lon="-5.953781">
        <ele>244.496</ele>
        <time>1999-07-22T10:41:12Z</time>
      </trkpt>
      <trkpt lat="43.398589" lon="-5.953981">
        <ele>243.437</ele>
        <time>1999-07-22T10:41:15Z</time>
      </trkpt>
      <trkpt lat="43.398738" lon="-5.954176">
        <ele>242.253</ele>
        <time>1999-07-22T10:41:18Z</time>
      </trkpt>
      <trkpt lat="43.398892" lon="-5.954384">
        <ele>241.089</ele>
        <time>1999-07-22T10:41:21Z</time>
      </trkpt>
      <trkpt lat="43.399021" lon="-5.954619">
        <ele>240.696</ele>
        <time>1999-07-22T10:41:24Z</time>
      </trkpt>
      <trkpt lat="43.399052" lon="-5.954702">
        <ele>240.443</ele>
        <time>1999-07-22T10:41:25Z</time>
      </trkpt>
      <trkpt lat="43.399101" lon="-5.954871">
        <ele>240.089</ele>
        <time>1999-07-22T10:41:27Z</time>
      </trkpt>
      <trkpt lat="43.399155" lon="-5.955104">
        <ele>239.442</ele>
        <time>1999-07-22T10:41:30Z</time>
      </trkpt>
      <trkpt lat="43.399204" lon="-5.955235">
        <ele>239.422</ele>
        <time>1999-07-22T10:41:32Z</time>
      </trkpt>
      <trkpt lat="43.399288" lon="-5.955419">
        <ele>239.214</ele>
        <time>1999-07-22T10:41:35Z</time>
      </trkpt>
      <trkpt lat="43.399336" lon="-5.955469">
        <ele>239.208</ele>
        <time>1999-07-22T10:41:36Z</time>
      </trkpt>
      <trkpt lat="43.399516" lon="-5.955625">
        <ele>239.077</ele>
        <time>1999-07-22T10:41:39Z</time>
      </trkpt>
      <trkpt lat="43.399577" lon="-5.955678">
        <ele>238.862</ele>
        <time>1999-07-22T10:41:40Z</time>
      </trkpt>
      <trkpt lat="43.399641" lon="-5.955720">
        <ele>238.833</ele>
        <time>1999-07-22T10:41:41Z</time>
      </trkpt>
      <trkpt lat="43.399840" lon="-5.955769">
        <ele>238.439</ele>
        <time>1999-07-22T10:41:44Z</time>
      </trkpt>
      <trkpt lat="43.399951" lon="-5.955757">
        <ele>237.445</ele>
        <time>1999-07-22T10:41:46Z</time>
      </trkpt>
      <trkpt lat="43.399987" lon="-5.955743">
        <ele>236.612</ele>
        <time>1999-07-22T10:41:47Z</time>
      </trkpt>
      <trkpt lat="43.400011" lon="-5.955730">
        <ele>235.019</ele>
        <time>1999-07-22T10:41:48Z</time>
      </trkpt>
      <trkpt lat="43.400043" lon="-5.955715">
        <ele>233.855</ele>
        <time>1999-07-22T10:41:50Z</time>
      </trkpt>
      <trkpt lat="43.400056" lon="-5.955717">
        <ele>233.299</ele>
        <time>1999-07-22T10:41:51Z</time>
      </trkpt>
      <trkpt lat="43.400069" lon="-5.955727">
        <ele>232.207</ele>
        <time>1999-07-22T10:41:52Z</time>
      </trkpt>
      <trkpt lat="43.400079" lon="-5.955748">
        <ele>231.227</ele>
        <time>1999-07-22T10:41:53Z</time>
      </trkpt>
      <trkpt lat="43.400084" lon="-5.955774">
        <ele>230.008</ele>
        <time>1999-07-22T10:41:54Z</time>
      </trkpt>
      <trkpt lat="43.400085" lon="-5.955813">
        <ele>228.652</ele>
        <time>1999-07-22T10:41:55Z</time>
      </trkpt>
      <trkpt lat="43.400083" lon="-5.955859">
        <ele>227.457</ele>
        <time>1999-07-22T10:41:56Z</time>
      </trkpt>
      <trkpt lat="43.400086" lon="-5.955964">
        <ele>225.898</ele>
        <time>1999-07-22T10:41:58Z</time>
      </trkpt>
      <trkpt lat="43.400094" lon="-5.956032">
        <ele>225.074</ele>
        <time>1999-07-22T10:42:00Z</time>
      </trkpt>
      <trkpt lat="43.400108" lon="-5.956103">
        <ele>224.860</ele>
        <time>1999-07-22T10:42:01Z</time>
      </trkpt>
      <trkpt lat="43.400142" lon="-5.956241">
        <ele>224.267</ele>
        <time>1999-07-22T10:42:03Z</time>
      </trkpt>
      <trkpt lat="43.400156" lon="-5.956305">
        <ele>223.664</ele>
        <time>1999-07-22T10:42:04Z</time>
      </trkpt>
      <trkpt lat="43.400166" lon="-5.956367">
        <ele>223.280</ele>
        <time>1999-07-22T10:42:05Z</time>
      </trkpt>
      <trkpt lat="43.400182" lon="-5.956424">
        <ele>222.686</ele>
        <time>1999-07-22T10:42:06Z</time>
      </trkpt>
      <trkpt lat="43.400209" lon="-5.956479">
        <ele>222.260</ele>
        <time>1999-07-22T10:42:07Z</time>
      </trkpt>
      <trkpt lat="43.400269" lon="-5.956596">
        <ele>220.626</ele>
        <time>1999-07-22T10:42:09Z</time>
      </trkpt>
      <trkpt lat="43.400295" lon="-5.956652">
        <ele>219.608</ele>
        <time>1999-07-22T10:42:10Z</time>
      </trkpt>
      <trkpt lat="43.400316" lon="-5.956712">
        <ele>218.681</ele>
        <time>1999-07-22T10:42:11Z</time>
      </trkpt>
      <trkpt lat="43.400318" lon="-5.956784">
        <ele>217.696</ele>
        <time>1999-07-22T10:42:12Z</time>
      </trkpt>
      <trkpt lat="43.400316" lon="-5.956852">
        <ele>216.417</ele>
        <time>1999-07-22T10:42:13Z</time>
      </trkpt>
      <trkpt lat="43.400317" lon="-5.956909">
        <ele>215.093</ele>
        <time>1999-07-22T10:42:14Z</time>
      </trkpt>
      <trkpt lat="43.400328" lon="-5.956960">
        <ele>212.869</ele>
        <time>1999-07-22T10:42:15Z</time>
      </trkpt>
      <trkpt lat="43.400344" lon="-5.957002">
        <ele>211.836</ele>
        <time>1999-07-22T10:42:16Z</time>
      </trkpt>
      <trkpt lat="43.400369" lon="-5.957038">
        <ele>210.823</ele>
        <time>1999-07-22T10:42:17Z</time>
      </trkpt>
      <trkpt lat="43.400429" lon="-5.957069">
        <ele>209.099</ele>
        <time>1999-07-22T10:42:19Z</time>
      </trkpt>
      <trkpt lat="43.400484" lon="-5.957100">
        <ele>207.243</ele>
        <time>1999-07-22T10:42:21Z</time>
      </trkpt>
      <trkpt lat="43.400514" lon="-5.957142">
        <ele>206.264</ele>
        <time>1999-07-22T10:42:22Z</time>
      </trkpt>
      <trkpt lat="43.400600" lon="-5.957324">
        <ele>204.610</ele>
        <time>1999-07-22T10:42:24Z</time>
      </trkpt>
      <trkpt lat="43.400600" lon="-5.957324">
        <ele>203.808</ele>
        <time>1999-07-22T10:42:25Z</time>
      </trkpt>
      <trkpt lat="43.400631" lon="-5.957400">
        <ele>203.027</ele>
        <time>1999-07-22T10:42:26Z</time>
      </trkpt>
      <trkpt lat="43.400694" lon="-5.957547">
        <ele>201.822</ele>
        <time>1999-07-22T10:42:28Z</time>
      </trkpt>
      <trkpt lat="43.400770" lon="-5.957756">
        <ele>200.653</ele>
        <time>1999-07-22T10:42:31Z</time>
      </trkpt>
      <trkpt lat="43.400828" lon="-5.957958">
        <ele>200.229</ele>
        <time>1999-07-22T10:42:34Z</time>
      </trkpt>
      <trkpt lat="43.400855" lon="-5.958167">
        <ele>200.015</ele>
        <time>1999-07-22T10:42:37Z</time>
      </trkpt>
      <trkpt lat="43.400864" lon="-5.958237">
        <ele>200.022</ele>
        <time>1999-07-22T10:42:38Z</time>
      </trkpt>
      <trkpt lat="43.400878" lon="-5.958311">
        <ele>200.099</ele>
        <time>1999-07-22T10:42:39Z</time>
      </trkpt>
      <trkpt lat="43.400957" lon="-5.958517">
        <ele>200.025</ele>
        <time>1999-07-22T10:42:42Z</time>
      </trkpt>
      <trkpt lat="43.401155" lon="-5.958631">
        <ele>200.255</ele>
        <time>1999-07-22T10:42:46Z</time>
      </trkpt>
      <trkpt lat="43.401218" lon="-5.958638">
        <ele>200.207</ele>
        <time>1999-07-22T10:42:47Z</time>
      </trkpt>
      <trkpt lat="43.401418" lon="-5.958679">
        <ele>200.217</ele>
        <time>1999-07-22T10:42:49Z</time>
      </trkpt>
      <trkpt lat="43.401490" lon="-5.958692">
        <ele>200.208</ele>
        <time>1999-07-22T10:42:51Z</time>
      </trkpt>
      <trkpt lat="43.401754" lon="-5.958755">
        <ele>200.278</ele>
        <time>1999-07-22T10:42:54Z</time>
      </trkpt>
      <trkpt lat="43.401795" lon="-5.958772">
        <ele>200.253</ele>
        <time>1999-07-22T10:42:55Z</time>
      </trkpt>
      <trkpt lat="43.401853" lon="-5.958787">
        <ele>199.484</ele>
        <time>1999-07-22T10:42:58Z</time>
      </trkpt>
      <trkpt lat="43.401895" lon="-5.958787">
        <ele>198.620</ele>
        <time>1999-07-22T10:43:00Z</time>
      </trkpt>
      <trkpt lat="43.401903" lon="-5.958788">
        <ele>198.276</ele>
        <time>1999-07-22T10:43:01Z</time>
      </trkpt>
      <trkpt lat="43.401902" lon="-5.958788">
        <ele>198.043</ele>
        <time>1999-07-22T10:43:02Z</time>
      </trkpt>
      <trkpt lat="43.401935" lon="-5.958777">
        <ele>195.460</ele>
        <time>1999-07-22T10:44:30Z</time>
      </trkpt>
      <trkpt lat="43.401949" lon="-5.958780">
        <ele>195.446</ele>
        <time>1999-07-22T10:44:31Z</time>
      </trkpt>
      <trkpt lat="43.401959" lon="-5.958786">
        <ele>195.486</ele>
        <time>1999-07-22T10:44:32Z</time>
      </trkpt>
      <trkpt lat="43.401967" lon="-5.958793">
        <ele>195.460</ele>
        <time>1999-07-22T10:44:34Z</time>
      </trkpt>
      <trkpt lat="43.401933" lon="-5.958838">
        <ele>195.226</ele>
        <time>1999-07-22T10:45:22Z</time>
      </trkpt>
      <trkpt lat="43.401866" lon="-5.958801">
        <ele>195.208</ele>
        <time>1999-07-22T10:45:25Z</time>
      </trkpt>
      <trkpt lat="43.401840" lon="-5.958767">
        <ele>195.231</ele>
        <time>1999-07-22T10:45:26Z</time>
      </trkpt>
      <trkpt lat="43.401784" lon="-5.958709">
        <ele>195.476</ele>
        <time>1999-07-22T10:45:28Z</time>
      </trkpt>
      <trkpt lat="43.401725" lon="-5.958675">
        <ele>195.417</ele>
        <time>1999-07-22T10:45:30Z</time>
      </trkpt>
      <trkpt lat="43.401666" lon="-5.958687">
        <ele>195.413</ele>
        <time>1999-07-22T10:45:32Z</time>
      </trkpt>
      <trkpt lat="43.401642" lon="-5.958711">
        <ele>195.499</ele>
        <time>1999-07-22T10:45:33Z</time>
      </trkpt>
      <trkpt lat="43.401671" lon="-5.958784">
        <ele>195.676</ele>
        <time>1999-07-22T10:45:35Z</time>
      </trkpt>
      <trkpt lat="43.401753" lon="-5.958841">
        <ele>195.683</ele>
        <time>1999-07-22T10:45:37Z</time>
      </trkpt>
      <trkpt lat="43.401799" lon="-5.958886">
        <ele>195.679</ele>
        <time>1999-07-22T10:45:38Z</time>
      </trkpt>
      <trkpt lat="43.401975" lon="-5.959090">
        <ele>195.687</ele>
        <time>1999-07-22T10:45:42Z</time>
      </trkpt>
      <trkpt lat="43.401996" lon="-5.959316">
        <ele>195.442</ele>
        <time>1999-07-22T10:45:45Z</time>
      </trkpt>
      <trkpt lat="43.401988" lon="-5.959392">
        <ele>195.226</ele>
        <time>1999-07-22T10:45:46Z</time>
      </trkpt>
      <trkpt lat="43.401982" lon="-5.959501">
        <ele>195.008</ele>
        <time>1999-07-22T10:45:48Z</time>
      </trkpt>
      <trkpt lat="43.401976" lon="-5.959595">
        <ele>194.211</ele>
        <time>1999-07-22T10:45:50Z</time>
      </trkpt>
      <trkpt lat="43.401971" lon="-5.959648">
        <ele>193.416</ele>
        <time>1999-07-22T10:45:51Z</time>
      </trkpt>
      <trkpt lat="43.401974" lon="-5.959730">
        <ele>192.437</ele>
        <time>1999-07-22T10:45:53Z</time>
      </trkpt>
      <trkpt lat="43.401973" lon="-5.959754">
        <ele>192.043</ele>
        <time>1999-07-22T10:45:54Z</time>
      </trkpt>
      <trkpt lat="43.401966" lon="-5.959773">
        <ele>190.689</ele>
        <time>1999-07-22T10:45:55Z</time>
      </trkpt>
      <trkpt lat="43.401961" lon="-5.959783">
        <ele>190.026</ele>
        <time>1999-07-22T10:45:56Z</time>
      </trkpt>
      <trkpt lat="43.401958" lon="-5.959787">
        <ele>189.433</ele>
        <time>1999-07-22T10:45:57Z</time>
      </trkpt>
      <trkpt lat="43.401953" lon="-5.959790">
        <ele>188.269</ele>
        <time>1999-07-22T10:45:59Z</time>
      </trkpt>
      <trkpt lat="43.401875" lon="-5.959804">
        <ele>185.849</ele>
        <time>1999-07-22T10:46:07Z</time>
      </trkpt>
      <trkpt lat="43.401842" lon="-5.959814">
        <ele>185.802</ele>
        <time>1999-07-22T10:46:09Z</time>
      </trkpt>
      <trkpt lat="43.401792" lon="-5.959765">
        <ele>185.822</ele>
        <time>1999-07-22T10:46:13Z</time>
      </trkpt>
      <trkpt lat="43.401774" lon="-5.959754">
        <ele>185.808</ele>
        <time>1999-07-22T10:46:14Z</time>
      </trkpt>
      <trkpt lat="43.401736" lon="-5.959741">
        <ele>185.857</ele>
        <time>1999-07-22T10:46:16Z</time>
      </trkpt>
      <trkpt lat="43.401704" lon="-5.959719">
        <ele>185.832</ele>
        <time>1999-07-22T10:46:18Z</time>
      </trkpt>
      <trkpt lat="43.401693" lon="-5.959693">
        <ele>185.853</ele>
        <time>1999-07-22T10:46:19Z</time>
      </trkpt>
      <trkpt lat="43.401706" lon="-5.959667">
        <ele>185.869</ele>
        <time>1999-07-22T10:46:20Z</time>
      </trkpt>
      <trkpt lat="43.401746" lon="-5.959617">
        <ele>186.215</ele>
        <time>1999-07-22T10:46:22Z</time>
      </trkpt>
      <trkpt lat="43.401770" lon="-5.959590">
        <ele>186.472</ele>
        <time>1999-07-22T10:46:23Z</time>
      </trkpt>
      <trkpt lat="43.401822" lon="-5.959532">
        <ele>187.039</ele>
        <time>1999-07-22T10:46:25Z</time>
      </trkpt>
      <trkpt lat="43.401890" lon="-5.959446">
        <ele>188.235</ele>
        <time>1999-07-22T10:46:30Z</time>
      </trkpt>
      <trkpt lat="43.401889" lon="-5.959448">
        <ele>188.219</ele>
        <time>1999-07-22T10:46:31Z</time>
      </trkpt>
      <trkpt lat="43.401910" lon="-5.959470">
        <ele>189.009</ele>
        <time>1999-07-22T10:53:31Z</time>
      </trkpt>
      <trkpt lat="43.401890" lon="-5.959496">
        <ele>189.019</ele>
        <time>1999-07-22T10:53:32Z</time>
      </trkpt>
      <trkpt lat="43.401867" lon="-5.959523">
        <ele>189.008</ele>
        <time>1999-07-22T10:53:33Z</time>
      </trkpt>
      <trkpt lat="43.401744" lon="-5.959658">
        <ele>189.044</ele>
        <time>1999-07-22T10:53:38Z</time>
      </trkpt>
      <trkpt lat="43.401634" lon="-5.959634">
        <ele>188.849</ele>
        <time>1999-07-22T10:53:41Z</time>
      </trkpt>
      <trkpt lat="43.401556" lon="-5.959609">
        <ele>188.680</ele>
        <time>1999-07-22T10:53:43Z</time>
      </trkpt>
      <trkpt lat="43.401510" lon="-5.959597">
        <ele>188.816</ele>
        <time>1999-07-22T10:53:44Z</time>
      </trkpt>
      <trkpt lat="43.401383" lon="-5.959548">
        <ele>188.672</ele>
        <time>1999-07-22T10:53:47Z</time>
      </trkpt>
      <trkpt lat="43.401189" lon="-5.959477">
        <ele>188.649</ele>
        <time>1999-07-22T10:53:52Z</time>
      </trkpt>
      <trkpt lat="43.401158" lon="-5.959478">
        <ele>188.666</ele>
        <time>1999-07-22T10:53:54Z</time>
      </trkpt>
      <trkpt lat="43.401114" lon="-5.959501">
        <ele>188.652</ele>
        <time>1999-07-22T10:53:56Z</time>
      </trkpt>
      <trkpt lat="43.400977" lon="-5.959580">
        <ele>188.669</ele>
        <time>1999-07-22T10:53:59Z</time>
      </trkpt>
      <trkpt lat="43.400871" lon="-5.959676">
        <ele>188.004</ele>
        <time>1999-07-22T10:54:02Z</time>
      </trkpt>
      <trkpt lat="43.400853" lon="-5.959803">
        <ele>187.824</ele>
        <time>1999-07-22T10:54:04Z</time>
      </trkpt>
      <trkpt lat="43.400782" lon="-5.959953">
        <ele>186.808</ele>
        <time>1999-07-22T10:54:06Z</time>
      </trkpt>
      <trkpt lat="43.400726" lon="-5.960028">
        <ele>186.259</ele>
        <time>1999-07-22T10:54:07Z</time>
      </trkpt>
      <trkpt lat="43.400613" lon="-5.960211">
        <ele>184.624</ele>
        <time>1999-07-22T10:54:09Z</time>
      </trkpt>
      <trkpt lat="43.400577" lon="-5.960335">
        <ele>183.885</ele>
        <time>1999-07-22T10:54:10Z</time>
      </trkpt>
      <trkpt lat="43.400554" lon="-5.960479">
        <ele>183.071</ele>
        <time>1999-07-22T10:54:11Z</time>
      </trkpt>
      <trkpt lat="43.400536" lon="-5.960632">
        <ele>182.027</ele>
        <time>1999-07-22T10:54:12Z</time>
      </trkpt>
      <trkpt lat="43.400522" lon="-5.960797">
        <ele>180.894</ele>
        <time>1999-07-22T10:54:13Z</time>
      </trkpt>
      <trkpt lat="43.400515" lon="-5.960970">
        <ele>179.881</ele>
        <time>1999-07-22T10:54:14Z</time>
      </trkpt>
      <trkpt lat="43.400503" lon="-5.961333">
        <ele>177.687</ele>
        <time>1999-07-22T10:54:16Z</time>
      </trkpt>
      <trkpt lat="43.400482" lon="-5.961510">
        <ele>176.694</ele>
        <time>1999-07-22T10:54:17Z</time>
      </trkpt>
      <trkpt lat="43.400439" lon="-5.961678">
        <ele>175.457</ele>
        <time>1999-07-22T10:54:18Z</time>
      </trkpt>
      <trkpt lat="43.400383" lon="-5.961840">
        <ele>174.022</ele>
        <time>1999-07-22T10:54:19Z</time>
      </trkpt>
      <trkpt lat="43.400330" lon="-5.961999">
        <ele>172.608</ele>
        <time>1999-07-22T10:54:20Z</time>
      </trkpt>
      <trkpt lat="43.400285" lon="-5.962162">
        <ele>171.662</ele>
        <time>1999-07-22T10:54:21Z</time>
      </trkpt>
      <trkpt lat="43.400255" lon="-5.962329">
        <ele>170.427</ele>
        <time>1999-07-22T10:54:22Z</time>
      </trkpt>
      <trkpt lat="43.400243" lon="-5.962502">
        <ele>169.488</ele>
        <time>1999-07-22T10:54:23Z</time>
      </trkpt>
      <trkpt lat="43.400247" lon="-5.962674">
        <ele>168.034</ele>
        <time>1999-07-22T10:54:24Z</time>
      </trkpt>
      <trkpt lat="43.400261" lon="-5.962841">
        <ele>166.630</ele>
        <time>1999-07-22T10:54:25Z</time>
      </trkpt>
      <trkpt lat="43.400288" lon="-5.963003">
        <ele>165.087</ele>
        <time>1999-07-22T10:54:26Z</time>
      </trkpt>
      <trkpt lat="43.400324" lon="-5.963160">
        <ele>163.494</ele>
        <time>1999-07-22T10:54:27Z</time>
      </trkpt>
      <trkpt lat="43.400363" lon="-5.963311">
        <ele>162.050</ele>
        <time>1999-07-22T10:54:28Z</time>
      </trkpt>
      <trkpt lat="43.400427" lon="-5.963561">
        <ele>160.459</ele>
        <time>1999-07-22T10:54:30Z</time>
      </trkpt>
      <trkpt lat="43.400438" lon="-5.963669">
        <ele>158.803</ele>
        <time>1999-07-22T10:54:31Z</time>
      </trkpt>
      <trkpt lat="43.400426" lon="-5.963777">
        <ele>157.823</ele>
        <time>1999-07-22T10:54:32Z</time>
      </trkpt>
      <trkpt lat="43.400399" lon="-5.963886">
        <ele>157.008</ele>
        <time>1999-07-22T10:54:33Z</time>
      </trkpt>
      <trkpt lat="43.400363" lon="-5.964120">
        <ele>155.078</ele>
        <time>1999-07-22T10:54:35Z</time>
      </trkpt>
      <trkpt lat="43.400372" lon="-5.964234">
        <ele>154.023</ele>
        <time>1999-07-22T10:54:36Z</time>
      </trkpt>
      <trkpt lat="43.400403" lon="-5.964345">
        <ele>153.274</ele>
        <time>1999-07-22T10:54:37Z</time>
      </trkpt>
      <trkpt lat="43.400456" lon="-5.964449">
        <ele>152.260</ele>
        <time>1999-07-22T10:54:38Z</time>
      </trkpt>
      <trkpt lat="43.400520" lon="-5.964548">
        <ele>150.826</ele>
        <time>1999-07-22T10:54:39Z</time>
      </trkpt>
      <trkpt lat="43.400585" lon="-5.964648">
        <ele>149.893</ele>
        <time>1999-07-22T10:54:40Z</time>
      </trkpt>
      <trkpt lat="43.400640" lon="-5.964759">
        <ele>149.250</ele>
        <time>1999-07-22T10:54:41Z</time>
      </trkpt>
      <trkpt lat="43.400684" lon="-5.964881">
        <ele>148.656</ele>
        <time>1999-07-22T10:54:42Z</time>
      </trkpt>
      <trkpt lat="43.400760" lon="-5.965153">
        <ele>146.412</ele>
        <time>1999-07-22T10:54:44Z</time>
      </trkpt>
      <trkpt lat="43.400792" lon="-5.965300">
        <ele>145.432</ele>
        <time>1999-07-22T10:54:45Z</time>
      </trkpt>
      <trkpt lat="43.400822" lon="-5.965448">
        <ele>144.205</ele>
        <time>1999-07-22T10:54:46Z</time>
      </trkpt>
      <trkpt lat="43.400855" lon="-5.965596">
        <ele>143.208</ele>
        <time>1999-07-22T10:54:47Z</time>
      </trkpt>
      <trkpt lat="43.400895" lon="-5.965736">
        <ele>142.024</ele>
        <time>1999-07-22T10:54:48Z</time>
      </trkpt>
      <trkpt lat="43.400948" lon="-5.965861">
        <ele>141.069</ele>
        <time>1999-07-22T10:54:49Z</time>
      </trkpt>
      <trkpt lat="43.401003" lon="-5.965967">
        <ele>140.480</ele>
        <time>1999-07-22T10:54:50Z</time>
      </trkpt>
      <trkpt lat="43.401047" lon="-5.966046">
        <ele>139.826</ele>
        <time>1999-07-22T10:54:51Z</time>
      </trkpt>
      <trkpt lat="43.401082" lon="-5.966088">
        <ele>139.232</ele>
        <time>1999-07-22T10:54:52Z</time>
      </trkpt>
      <trkpt lat="43.401128" lon="-5.966133">
        <ele>137.679</ele>
        <time>1999-07-22T10:54:54Z</time>
      </trkpt>
      <trkpt lat="43.401155" lon="-5.966177">
        <ele>136.436</ele>
        <time>1999-07-22T10:54:56Z</time>
      </trkpt>
      <trkpt lat="43.401244" lon="-5.966297">
        <ele>135.232</ele>
        <time>1999-07-22T10:54:59Z</time>
      </trkpt>
      <trkpt lat="43.401287" lon="-5.966346">
        <ele>134.644</ele>
        <time>1999-07-22T10:55:00Z</time>
      </trkpt>
      <trkpt lat="43.401331" lon="-5.966407">
        <ele>134.005</ele>
        <time>1999-07-22T10:55:01Z</time>
      </trkpt>
      <trkpt lat="43.401371" lon="-5.966469">
        <ele>133.615</ele>
        <time>1999-07-22T10:55:02Z</time>
      </trkpt>
      <trkpt lat="43.401436" lon="-5.966610">
        <ele>133.208</ele>
        <time>1999-07-22T10:55:04Z</time>
      </trkpt>
      <trkpt lat="43.401500" lon="-5.966939">
        <ele>133.047</ele>
        <time>1999-07-22T10:55:08Z</time>
      </trkpt>
      <trkpt lat="43.401653" lon="-5.967098">
        <ele>133.052</ele>
        <time>1999-07-22T10:55:11Z</time>
      </trkpt>
      <trkpt lat="43.401809" lon="-5.967136">
        <ele>133.013</ele>
        <time>1999-07-22T10:55:13Z</time>
      </trkpt>
      <trkpt lat="43.401971" lon="-5.967182">
        <ele>133.029</ele>
        <time>1999-07-22T10:55:15Z</time>
      </trkpt>
      <trkpt lat="43.402049" lon="-5.967224">
        <ele>133.055</ele>
        <time>1999-07-22T10:55:16Z</time>
      </trkpt>
      <trkpt lat="43.402186" lon="-5.967324">
        <ele>133.042</ele>
        <time>1999-07-22T10:55:18Z</time>
      </trkpt>
      <trkpt lat="43.402243" lon="-5.967368">
        <ele>132.889</ele>
        <time>1999-07-22T10:55:19Z</time>
      </trkpt>
      <trkpt lat="43.402293" lon="-5.967420">
        <ele>132.815</ele>
        <time>1999-07-22T10:55:20Z</time>
      </trkpt>
      <trkpt lat="43.402376" lon="-5.967537">
        <ele>132.821</ele>
        <time>1999-07-22T10:55:22Z</time>
      </trkpt>
      <trkpt lat="43.402439" lon="-5.967652">
        <ele>132.241</ele>
        <time>1999-07-22T10:55:24Z</time>
      </trkpt>
      <trkpt lat="43.402464" lon="-5.967711">
        <ele>131.405</ele>
        <time>1999-07-22T10:55:25Z</time>
      </trkpt>
      <trkpt lat="43.402546" lon="-5.967881">
        <ele>130.008</ele>
        <time>1999-07-22T10:55:28Z</time>
      </trkpt>
      <trkpt lat="43.402599" lon="-5.968009">
        <ele>129.635</ele>
        <time>1999-07-22T10:55:30Z</time>
      </trkpt>
      <trkpt lat="43.402629" lon="-5.968169">
        <ele>129.240</ele>
        <time>1999-07-22T10:55:32Z</time>
      </trkpt>
      <trkpt lat="43.402665" lon="-5.968432">
        <ele>129.261</ele>
        <time>1999-07-22T10:55:35Z</time>
      </trkpt>
      <trkpt lat="43.402701" lon="-5.968693">
        <ele>129.037</ele>
        <time>1999-07-22T10:55:38Z</time>
      </trkpt>
      <trkpt lat="43.402708" lon="-5.968777">
        <ele>128.823</ele>
        <time>1999-07-22T10:55:39Z</time>
      </trkpt>
      <trkpt lat="43.402658" lon="-5.969142">
        <ele>128.470</ele>
        <time>1999-07-22T10:55:43Z</time>
      </trkpt>
      <trkpt lat="43.402568" lon="-5.969323">
        <ele>127.827</ele>
        <time>1999-07-22T10:55:45Z</time>
      </trkpt>
      <trkpt lat="43.402534" lon="-5.969417">
        <ele>127.473</ele>
        <time>1999-07-22T10:55:46Z</time>
      </trkpt>
      <trkpt lat="43.402508" lon="-5.969507">
        <ele>127.273</ele>
        <time>1999-07-22T10:55:47Z</time>
      </trkpt>
      <trkpt lat="43.402446" lon="-5.969683">
        <ele>126.685</ele>
        <time>1999-07-22T10:55:49Z</time>
      </trkpt>
      <trkpt lat="43.402383" lon="-5.969866">
        <ele>124.813</ele>
        <time>1999-07-22T10:55:51Z</time>
      </trkpt>
      <trkpt lat="43.402333" lon="-5.969975">
        <ele>123.408</ele>
        <time>1999-07-22T10:55:52Z</time>
      </trkpt>
      <trkpt lat="43.402238" lon="-5.970170">
        <ele>122.870</ele>
        <time>1999-07-22T10:55:54Z</time>
      </trkpt>
      <trkpt lat="43.402160" lon="-5.970324">
        <ele>122.285</ele>
        <time>1999-07-22T10:55:56Z</time>
      </trkpt>
      <trkpt lat="43.402059" lon="-5.970475">
        <ele>121.286</ele>
        <time>1999-07-22T10:55:58Z</time>
      </trkpt>
      <trkpt lat="43.402010" lon="-5.970545">
        <ele>120.242</ele>
        <time>1999-07-22T10:55:59Z</time>
      </trkpt>
      <trkpt lat="43.401914" lon="-5.970657">
        <ele>118.258</ele>
        <time>1999-07-22T10:56:01Z</time>
      </trkpt>
      <trkpt lat="43.401874" lon="-5.970700">
        <ele>117.475</ele>
        <time>1999-07-22T10:56:02Z</time>
      </trkpt>
      <trkpt lat="43.401837" lon="-5.970739">
        <ele>116.682</ele>
        <time>1999-07-22T10:56:03Z</time>
      </trkpt>
      <trkpt lat="43.401778" lon="-5.970818">
        <ele>115.458</ele>
        <time>1999-07-22T10:56:05Z</time>
      </trkpt>
      <trkpt lat="43.401736" lon="-5.970900">
        <ele>115.059</ele>
        <time>1999-07-22T10:56:07Z</time>
      </trkpt>
      <trkpt lat="43.401706" lon="-5.970979">
        <ele>115.003</ele>
        <time>1999-07-22T10:56:09Z</time>
      </trkpt>
      <trkpt lat="43.401682" lon="-5.971090">
        <ele>115.023</ele>
        <time>1999-07-22T10:56:12Z</time>
      </trkpt>
      <trkpt lat="43.401638" lon="-5.971249">
        <ele>115.208</ele>
        <time>1999-07-22T10:56:15Z</time>
      </trkpt>
      <trkpt lat="43.401609" lon="-5.971353">
        <ele>115.678</ele>
        <time>1999-07-22T10:56:17Z</time>
      </trkpt>
      <trkpt lat="43.401568" lon="-5.971533">
        <ele>116.043</ele>
        <time>1999-07-22T10:56:21Z</time>
      </trkpt>
      <trkpt lat="43.401564" lon="-5.971581">
        <ele>116.254</ele>
        <time>1999-07-22T10:56:22Z</time>
      </trkpt>
      <trkpt lat="43.401540" lon="-5.971707">
        <ele>116.490</ele>
        <time>1999-07-22T10:56:24Z</time>
      </trkpt>
      <trkpt lat="43.401518" lon="-5.971775">
        <ele>116.686</ele>
        <time>1999-07-22T10:56:25Z</time>
      </trkpt>
      <trkpt lat="43.401492" lon="-5.971844">
        <ele>116.693</ele>
        <time>1999-07-22T10:56:26Z</time>
      </trkpt>
      <trkpt lat="43.401391" lon="-5.972131">
        <ele>117.240</ele>
        <time>1999-07-22T10:56:30Z</time>
      </trkpt>
      <trkpt lat="43.401348" lon="-5.972214">
        <ele>117.246</ele>
        <time>1999-07-22T10:56:31Z</time>
      </trkpt>
      <trkpt lat="43.401185" lon="-5.972440">
        <ele>117.275</ele>
        <time>1999-07-22T10:56:34Z</time>
      </trkpt>
      <trkpt lat="43.401133" lon="-5.972515">
        <ele>117.228</ele>
        <time>1999-07-22T10:56:35Z</time>
      </trkpt>
      <trkpt lat="43.401083" lon="-5.972571">
        <ele>117.220</ele>
        <time>1999-07-22T10:56:36Z</time>
      </trkpt>
      <trkpt lat="43.400932" lon="-5.972673">
        <ele>116.608</ele>
        <time>1999-07-22T10:56:39Z</time>
      </trkpt>
      <trkpt lat="43.400752" lon="-5.972830">
        <ele>115.260</ele>
        <time>1999-07-22T10:56:43Z</time>
      </trkpt>
      <trkpt lat="43.400704" lon="-5.972886">
        <ele>114.695</ele>
        <time>1999-07-22T10:56:44Z</time>
      </trkpt>
      <trkpt lat="43.400653" lon="-5.972941">
        <ele>114.256</ele>
        <time>1999-07-22T10:56:45Z</time>
      </trkpt>
      <trkpt lat="43.400547" lon="-5.973041">
        <ele>113.412</ele>
        <time>1999-07-22T10:56:47Z</time>
      </trkpt>
      <trkpt lat="43.400444" lon="-5.973136">
        <ele>113.248</ele>
        <time>1999-07-22T10:56:49Z</time>
      </trkpt>
      <trkpt lat="43.400415" lon="-5.973200">
        <ele>113.275</ele>
        <time>1999-07-22T10:56:50Z</time>
      </trkpt>
      <trkpt lat="43.400388" lon="-5.973268">
        <ele>113.082</ele>
        <time>1999-07-22T10:56:51Z</time>
      </trkpt>
      <trkpt lat="43.400358" lon="-5.973328">
        <ele>113.038</ele>
        <time>1999-07-22T10:56:52Z</time>
      </trkpt>
      <trkpt lat="43.400267" lon="-5.973500">
        <ele>112.089</ele>
        <time>1999-07-22T10:56:55Z</time>
      </trkpt>
      <trkpt lat="43.400248" lon="-5.973565">
        <ele>111.606</ele>
        <time>1999-07-22T10:56:56Z</time>
      </trkpt>
      <trkpt lat="43.400234" lon="-5.973635">
        <ele>111.026</ele>
        <time>1999-07-22T10:56:57Z</time>
      </trkpt>
      <trkpt lat="43.400225" lon="-5.973705">
        <ele>110.608</ele>
        <time>1999-07-22T10:56:58Z</time>
      </trkpt>
      <trkpt lat="43.400218" lon="-5.973826">
        <ele>109.241</ele>
        <time>1999-07-22T10:57:00Z</time>
      </trkpt>
      <trkpt lat="43.400214" lon="-5.973879">
        <ele>108.696</ele>
        <time>1999-07-22T10:57:01Z</time>
      </trkpt>
      <trkpt lat="43.400202" lon="-5.973931">
        <ele>108.237</ele>
        <time>1999-07-22T10:57:02Z</time>
      </trkpt>
      <trkpt lat="43.400173" lon="-5.974027">
        <ele>108.073</ele>
        <time>1999-07-22T10:57:04Z</time>
      </trkpt>
      <trkpt lat="43.400139" lon="-5.974103">
        <ele>107.819</ele>
        <time>1999-07-22T10:57:06Z</time>
      </trkpt>
      <trkpt lat="43.400096" lon="-5.974174">
        <ele>107.816</ele>
        <time>1999-07-22T10:57:08Z</time>
      </trkpt>
      <trkpt lat="43.400058" lon="-5.974235">
        <ele>107.813</ele>
        <time>1999-07-22T10:57:10Z</time>
      </trkpt>
      <trkpt lat="43.400009" lon="-5.974316">
        <ele>108.029</ele>
        <time>1999-07-22T10:57:12Z</time>
      </trkpt>
      <trkpt lat="43.399914" lon="-5.974581">
        <ele>109.491</ele>
        <time>1999-07-22T10:57:17Z</time>
      </trkpt>
      <trkpt lat="43.399898" lon="-5.974640">
        <ele>109.881</ele>
        <time>1999-07-22T10:57:18Z</time>
      </trkpt>
      <trkpt lat="43.399870" lon="-5.974696">
        <ele>110.019</ele>
        <time>1999-07-22T10:57:19Z</time>
      </trkpt>
      <trkpt lat="43.399785" lon="-5.974782">
        <ele>110.408</ele>
        <time>1999-07-22T10:57:21Z</time>
      </trkpt>
      <trkpt lat="43.399739" lon="-5.974825">
        <ele>110.432</ele>
        <time>1999-07-22T10:57:22Z</time>
      </trkpt>
      <trkpt lat="43.399683" lon="-5.974880">
        <ele>110.427</ele>
        <time>1999-07-22T10:57:23Z</time>
      </trkpt>
      <trkpt lat="43.399628" lon="-5.974925">
        <ele>110.498</ele>
        <time>1999-07-22T10:57:24Z</time>
      </trkpt>
      <trkpt lat="43.399577" lon="-5.974965">
        <ele>110.454</ele>
        <time>1999-07-22T10:57:25Z</time>
      </trkpt>
      <trkpt lat="43.399372" lon="-5.975126">
        <ele>110.810</ele>
        <time>1999-07-22T10:57:30Z</time>
      </trkpt>
      <trkpt lat="43.399345" lon="-5.975149">
        <ele>110.837</ele>
        <time>1999-07-22T10:57:31Z</time>
      </trkpt>
      <trkpt lat="43.399283" lon="-5.975257">
        <ele>111.424</ele>
        <time>1999-07-22T10:57:34Z</time>
      </trkpt>
      <trkpt lat="43.399258" lon="-5.975303">
        <ele>111.870</ele>
        <time>1999-07-22T10:57:35Z</time>
      </trkpt>
      <trkpt lat="43.399174" lon="-5.975424">
        <ele>112.456</ele>
        <time>1999-07-22T10:57:38Z</time>
      </trkpt>
      <trkpt lat="43.399110" lon="-5.975478">
        <ele>113.459</ele>
        <time>1999-07-22T10:57:40Z</time>
      </trkpt>
      <trkpt lat="43.399074" lon="-5.975487">
        <ele>113.614</ele>
        <time>1999-07-22T10:57:41Z</time>
      </trkpt>
      <trkpt lat="43.398956" lon="-5.975526">
        <ele>113.808</ele>
        <time>1999-07-22T10:57:44Z</time>
      </trkpt>
      <trkpt lat="43.398911" lon="-5.975556">
        <ele>113.868</ele>
        <time>1999-07-22T10:57:45Z</time>
      </trkpt>
      <trkpt lat="43.398816" lon="-5.975670">
        <ele>113.873</ele>
        <time>1999-07-22T10:57:48Z</time>
      </trkpt>
      <trkpt lat="43.398799" lon="-5.975703">
        <ele>113.874</ele>
        <time>1999-07-22T10:57:49Z</time>
      </trkpt>
      <trkpt lat="43.398782" lon="-5.975757">
        <ele>113.880</ele>
        <time>1999-07-22T10:57:51Z</time>
      </trkpt>
      <trkpt lat="43.398774" lon="-5.975809">
        <ele>113.626</ele>
        <time>1999-07-22T10:57:53Z</time>
      </trkpt>
      <trkpt lat="43.398774" lon="-5.975885">
        <ele>113.073</ele>
        <time>1999-07-22T10:57:55Z</time>
      </trkpt>
      <trkpt lat="43.398768" lon="-5.975939">
        <ele>112.440</ele>
        <time>1999-07-22T10:57:56Z</time>
      </trkpt>
      <trkpt lat="43.398758" lon="-5.976005">
        <ele>112.056</ele>
        <time>1999-07-22T10:57:57Z</time>
      </trkpt>
      <trkpt lat="43.398747" lon="-5.976076">
        <ele>111.845</ele>
        <time>1999-07-22T10:57:58Z</time>
      </trkpt>
      <trkpt lat="43.398693" lon="-5.976207">
        <ele>111.247</ele>
        <time>1999-07-22T10:58:00Z</time>
      </trkpt>
      <trkpt lat="43.398574" lon="-5.976323">
        <ele>110.411</ele>
        <time>1999-07-22T10:58:03Z</time>
      </trkpt>
      <trkpt lat="43.398537" lon="-5.976355">
        <ele>110.208</ele>
        <time>1999-07-22T10:58:04Z</time>
      </trkpt>
      <trkpt lat="43.398432" lon="-5.976544">
        <ele>108.217</ele>
        <time>1999-07-22T10:58:08Z</time>
      </trkpt>
      <trkpt lat="43.398403" lon="-5.976602">
        <ele>108.082</ele>
        <time>1999-07-22T10:58:09Z</time>
      </trkpt>
      <trkpt lat="43.398375" lon="-5.976728">
        <ele>107.883</ele>
        <time>1999-07-22T10:58:11Z</time>
      </trkpt>
      <trkpt lat="43.398379" lon="-5.976808">
        <ele>107.629</ele>
        <time>1999-07-22T10:58:12Z</time>
      </trkpt>
      <trkpt lat="43.398396" lon="-5.977045">
        <ele>107.665</ele>
        <time>1999-07-22T10:58:15Z</time>
      </trkpt>
      <trkpt lat="43.398396" lon="-5.977113">
        <ele>107.482</ele>
        <time>1999-07-22T10:58:16Z</time>
      </trkpt>
      <trkpt lat="43.398384" lon="-5.977179">
        <ele>107.019</ele>
        <time>1999-07-22T10:58:17Z</time>
      </trkpt>
      <trkpt lat="43.398367" lon="-5.977236">
        <ele>106.615</ele>
        <time>1999-07-22T10:58:18Z</time>
      </trkpt>
      <trkpt lat="43.398365" lon="-5.977289">
        <ele>106.299</ele>
        <time>1999-07-22T10:58:19Z</time>
      </trkpt>
      <trkpt lat="43.398376" lon="-5.977342">
        <ele>106.007</ele>
        <time>1999-07-22T10:58:20Z</time>
      </trkpt>
      <trkpt lat="43.398436" lon="-5.977458">
        <ele>105.227</ele>
        <time>1999-07-22T10:58:22Z</time>
      </trkpt>
      <trkpt lat="43.398468" lon="-5.977520">
        <ele>104.008</ele>
        <time>1999-07-22T10:58:23Z</time>
      </trkpt>
      <trkpt lat="43.398500" lon="-5.977576">
        <ele>102.862</ele>
        <time>1999-07-22T10:58:24Z</time>
      </trkpt>
      <trkpt lat="43.398538" lon="-5.977685">
        <ele>101.037</ele>
        <time>1999-07-22T10:58:26Z</time>
      </trkpt>
      <trkpt lat="43.398533" lon="-5.977743">
        <ele>100.078</ele>
        <time>1999-07-22T10:58:27Z</time>
      </trkpt>
      <trkpt lat="43.398514" lon="-5.977805">
        <ele>99.654</ele>
        <time>1999-07-22T10:58:28Z</time>
      </trkpt>
      <trkpt lat="43.398435" lon="-5.977922">
        <ele>97.870</ele>
        <time>1999-07-22T10:58:30Z</time>
      </trkpt>
      <trkpt lat="43.398341" lon="-5.978014">
        <ele>96.697</ele>
        <time>1999-07-22T10:58:32Z</time>
      </trkpt>
      <trkpt lat="43.398261" lon="-5.978111">
        <ele>94.254</ele>
        <time>1999-07-22T10:58:34Z</time>
      </trkpt>
      <trkpt lat="43.398157" lon="-5.978230">
        <ele>93.460</ele>
        <time>1999-07-22T10:58:36Z</time>
      </trkpt>
      <trkpt lat="43.398091" lon="-5.978279">
        <ele>92.625</ele>
        <time>1999-07-22T10:58:37Z</time>
      </trkpt>
      <trkpt lat="43.398019" lon="-5.978325">
        <ele>92.026</ele>
        <time>1999-07-22T10:58:38Z</time>
      </trkpt>
      <trkpt lat="43.397942" lon="-5.978384">
        <ele>91.408</ele>
        <time>1999-07-22T10:58:39Z</time>
      </trkpt>
      <trkpt lat="43.397789" lon="-5.978531">
        <ele>90.608</ele>
        <time>1999-07-22T10:58:41Z</time>
      </trkpt>
      <trkpt lat="43.397711" lon="-5.978610">
        <ele>90.235</ele>
        <time>1999-07-22T10:58:42Z</time>
      </trkpt>
      <trkpt lat="43.397565" lon="-5.978767">
        <ele>89.230</ele>
        <time>1999-07-22T10:58:44Z</time>
      </trkpt>
      <trkpt lat="43.397506" lon="-5.978852">
        <ele>88.811</ele>
        <time>1999-07-22T10:58:45Z</time>
      </trkpt>
      <trkpt lat="43.397453" lon="-5.978943">
        <ele>88.427</ele>
        <time>1999-07-22T10:58:46Z</time>
      </trkpt>
      <trkpt lat="43.397400" lon="-5.979034">
        <ele>88.013</ele>
        <time>1999-07-22T10:58:47Z</time>
      </trkpt>
      <trkpt lat="43.397298" lon="-5.979210">
        <ele>86.810</ele>
        <time>1999-07-22T10:58:49Z</time>
      </trkpt>
      <trkpt lat="43.397253" lon="-5.979297">
        <ele>86.257</ele>
        <time>1999-07-22T10:58:50Z</time>
      </trkpt>
      <trkpt lat="43.397166" lon="-5.979467">
        <ele>85.633</ele>
        <time>1999-07-22T10:58:52Z</time>
      </trkpt>
      <trkpt lat="43.397129" lon="-5.979542">
        <ele>85.273</ele>
        <time>1999-07-22T10:58:53Z</time>
      </trkpt>
      <trkpt lat="43.397079" lon="-5.979669">
        <ele>84.885</ele>
        <time>1999-07-22T10:58:55Z</time>
      </trkpt>
      <trkpt lat="43.397071" lon="-5.979733">
        <ele>84.213</ele>
        <time>1999-07-22T10:58:56Z</time>
      </trkpt>
      <trkpt lat="43.397043" lon="-5.979833">
        <ele>82.608</ele>
        <time>1999-07-22T10:58:58Z</time>
      </trkpt>
      <trkpt lat="43.397009" lon="-5.979862">
        <ele>81.690</ele>
        <time>1999-07-22T10:58:59Z</time>
      </trkpt>
      <trkpt lat="43.396968" lon="-5.979889">
        <ele>80.615</ele>
        <time>1999-07-22T10:59:00Z</time>
      </trkpt>
      <trkpt lat="43.396919" lon="-5.979913">
        <ele>77.896</ele>
        <time>1999-07-22T10:59:01Z</time>
      </trkpt>
      <trkpt lat="43.396872" lon="-5.979936">
        <ele>76.482</ele>
        <time>1999-07-22T10:59:02Z</time>
      </trkpt>
      <trkpt lat="43.396830" lon="-5.979962">
        <ele>75.098</ele>
        <time>1999-07-22T10:59:03Z</time>
      </trkpt>
      <trkpt lat="43.396747" lon="-5.980045">
        <ele>73.885</ele>
        <time>1999-07-22T10:59:05Z</time>
      </trkpt>
      <trkpt lat="43.396665" lon="-5.980136">
        <ele>73.272</ele>
        <time>1999-07-22T10:59:07Z</time>
      </trkpt>
      <trkpt lat="43.396635" lon="-5.980195">
        <ele>73.098</ele>
        <time>1999-07-22T10:59:08Z</time>
      </trkpt>
      <trkpt lat="43.396472" lon="-5.980501">
        <ele>72.815</ele>
        <time>1999-07-22T10:59:13Z</time>
      </trkpt>
      <trkpt lat="43.396404" lon="-5.980586">
        <ele>72.865</ele>
        <time>1999-07-22T10:59:16Z</time>
      </trkpt>
      <trkpt lat="43.396389" lon="-5.980599">
        <ele>72.811</ele>
        <time>1999-07-22T10:59:17Z</time>
      </trkpt>
      <trkpt lat="43.396345" lon="-5.980639">
        <ele>73.008</ele>
        <time>1999-07-22T10:59:20Z</time>
      </trkpt>
      <trkpt lat="43.396296" lon="-5.980694">
        <ele>73.454</ele>
        <time>1999-07-22T10:59:23Z</time>
      </trkpt>
      <trkpt lat="43.396280" lon="-5.980708">
        <ele>73.829</ele>
        <time>1999-07-22T10:59:24Z</time>
      </trkpt>
      <trkpt lat="43.396232" lon="-5.980748">
        <ele>74.840</ele>
        <time>1999-07-22T10:59:27Z</time>
      </trkpt>
      <trkpt lat="43.396207" lon="-5.980791">
        <ele>75.686</ele>
        <time>1999-07-22T10:59:29Z</time>
      </trkpt>
      <trkpt lat="43.396190" lon="-5.980812">
        <ele>75.872</ele>
        <time>1999-07-22T10:59:30Z</time>
      </trkpt>
      <trkpt lat="43.396173" lon="-5.980833">
        <ele>76.279</ele>
        <time>1999-07-22T10:59:31Z</time>
      </trkpt>
      <trkpt lat="43.396121" lon="-5.980896">
        <ele>77.216</ele>
        <time>1999-07-22T10:59:34Z</time>
      </trkpt>
      <trkpt lat="43.396078" lon="-5.980962">
        <ele>78.672</ele>
        <time>1999-07-22T10:59:37Z</time>
      </trkpt>
      <trkpt lat="43.396069" lon="-5.980989">
        <ele>79.213</ele>
        <time>1999-07-22T10:59:38Z</time>
      </trkpt>
      <trkpt lat="43.396045" lon="-5.981043">
        <ele>80.043</ele>
        <time>1999-07-22T10:59:40Z</time>
      </trkpt>
      <trkpt lat="43.396011" lon="-5.981119">
        <ele>81.007</ele>
        <time>1999-07-22T10:59:43Z</time>
      </trkpt>
      <trkpt lat="43.395967" lon="-5.981199">
        <ele>82.008</ele>
        <time>1999-07-22T10:59:46Z</time>
      </trkpt>
      <trkpt lat="43.395953" lon="-5.981223">
        <ele>82.474</ele>
        <time>1999-07-22T10:59:47Z</time>
      </trkpt>
      <trkpt lat="43.395887" lon="-5.981302">
        <ele>83.699</ele>
        <time>1999-07-22T10:59:51Z</time>
      </trkpt>
      <trkpt lat="43.395831" lon="-5.981348">
        <ele>84.220</ele>
        <time>1999-07-22T10:59:54Z</time>
      </trkpt>
      <trkpt lat="43.395797" lon="-5.981380">
        <ele>84.876</ele>
        <time>1999-07-22T10:59:56Z</time>
      </trkpt>
      <trkpt lat="43.395718" lon="-5.981440">
        <ele>86.072</ele>
        <time>1999-07-22T11:00:00Z</time>
      </trkpt>
      <trkpt lat="43.395682" lon="-5.981456">
        <ele>86.859</ele>
        <time>1999-07-22T11:00:02Z</time>
      </trkpt>
      <trkpt lat="43.395665" lon="-5.981459">
        <ele>87.286</ele>
        <time>1999-07-22T11:00:03Z</time>
      </trkpt>
      <trkpt lat="43.395614" lon="-5.981505">
        <ele>88.282</ele>
        <time>1999-07-22T11:00:06Z</time>
      </trkpt>
      <trkpt lat="43.395573" lon="-5.981570">
        <ele>89.481</ele>
        <time>1999-07-22T11:00:09Z</time>
      </trkpt>
      <trkpt lat="43.395561" lon="-5.981592">
        <ele>89.861</ele>
        <time>1999-07-22T11:00:10Z</time>
      </trkpt>
      <trkpt lat="43.395537" lon="-5.981639">
        <ele>90.617</ele>
        <time>1999-07-22T11:00:12Z</time>
      </trkpt>
      <trkpt lat="43.395496" lon="-5.981747">
        <ele>91.608</ele>
        <time>1999-07-22T11:00:16Z</time>
      </trkpt>
      <trkpt lat="43.395486" lon="-5.981808">
        <ele>92.451</ele>
        <time>1999-07-22T11:00:18Z</time>
      </trkpt>
      <trkpt lat="43.395472" lon="-5.981864">
        <ele>92.836</ele>
        <time>1999-07-22T11:00:20Z</time>
      </trkpt>
      <trkpt lat="43.395451" lon="-5.981948">
        <ele>94.027</ele>
        <time>1999-07-22T11:00:23Z</time>
      </trkpt>
      <trkpt lat="43.395447" lon="-5.982041">
        <ele>95.033</ele>
        <time>1999-07-22T11:00:26Z</time>
      </trkpt>
      <trkpt lat="43.395446" lon="-5.982070">
        <ele>95.219</ele>
        <time>1999-07-22T11:00:27Z</time>
      </trkpt>
      <trkpt lat="43.395439" lon="-5.982217">
        <ele>96.476</ele>
        <time>1999-07-22T11:00:32Z</time>
      </trkpt>
      <trkpt lat="43.395441" lon="-5.982311">
        <ele>97.013</ele>
        <time>1999-07-22T11:00:35Z</time>
      </trkpt>
      <trkpt lat="43.395446" lon="-5.982372">
        <ele>97.499</ele>
        <time>1999-07-22T11:00:37Z</time>
      </trkpt>
      <trkpt lat="43.395456" lon="-5.982525">
        <ele>98.452</ele>
        <time>1999-07-22T11:00:42Z</time>
      </trkpt>
      <trkpt lat="43.395469" lon="-5.982585">
        <ele>99.053</ele>
        <time>1999-07-22T11:00:44Z</time>
      </trkpt>
      <trkpt lat="43.395487" lon="-5.982676">
        <ele>99.608</ele>
        <time>1999-07-22T11:00:47Z</time>
      </trkpt>
      <trkpt lat="43.395512" lon="-5.982762">
        <ele>100.808</ele>
        <time>1999-07-22T11:00:50Z</time>
      </trkpt>
      <trkpt lat="43.395530" lon="-5.982817">
        <ele>101.238</ele>
        <time>1999-07-22T11:00:52Z</time>
      </trkpt>
      <trkpt lat="43.395555" lon="-5.982897">
        <ele>102.043</ele>
        <time>1999-07-22T11:00:55Z</time>
      </trkpt>
      <trkpt lat="43.395585" lon="-5.983010">
        <ele>102.884</ele>
        <time>1999-07-22T11:00:59Z</time>
      </trkpt>
      <trkpt lat="43.395596" lon="-5.983037">
        <ele>103.050</ele>
        <time>1999-07-22T11:01:00Z</time>
      </trkpt>
      <trkpt lat="43.395635" lon="-5.983211">
        <ele>104.296</ele>
        <time>1999-07-22T11:01:06Z</time>
      </trkpt>
      <trkpt lat="43.395663" lon="-5.983364">
        <ele>105.223</ele>
        <time>1999-07-22T11:01:11Z</time>
      </trkpt>
      <trkpt lat="43.395683" lon="-5.983487">
        <ele>106.030</ele>
        <time>1999-07-22T11:01:15Z</time>
      </trkpt>
      <trkpt lat="43.395684" lon="-5.983521">
        <ele>106.236</ele>
        <time>1999-07-22T11:01:16Z</time>
      </trkpt>
      <trkpt lat="43.395691" lon="-5.983656">
        <ele>107.448</ele>
        <time>1999-07-22T11:01:20Z</time>
      </trkpt>
      <trkpt lat="43.395699" lon="-5.983802">
        <ele>108.461</ele>
        <time>1999-07-22T11:01:24Z</time>
      </trkpt>
      <trkpt lat="43.395699" lon="-5.983839">
        <ele>108.617</ele>
        <time>1999-07-22T11:01:25Z</time>
      </trkpt>
      <trkpt lat="43.395708" lon="-5.984010">
        <ele>109.608</ele>
        <time>1999-07-22T11:01:30Z</time>
      </trkpt>
      <trkpt lat="43.395710" lon="-5.984043">
        <ele>109.827</ele>
        <time>1999-07-22T11:01:31Z</time>
      </trkpt>
      <trkpt lat="43.395714" lon="-5.984214">
        <ele>111.032</ele>
        <time>1999-07-22T11:01:36Z</time>
      </trkpt>
      <trkpt lat="43.395718" lon="-5.984390">
        <ele>112.033</ele>
        <time>1999-07-22T11:01:41Z</time>
      </trkpt>
      <trkpt lat="43.395714" lon="-5.984541">
        <ele>113.259</ele>
        <time>1999-07-22T11:01:45Z</time>
      </trkpt>
      <trkpt lat="43.395701" lon="-5.984729">
        <ele>114.435</ele>
        <time>1999-07-22T11:01:50Z</time>
      </trkpt>
      <trkpt lat="43.395688" lon="-5.984852">
        <ele>115.032</ele>
        <time>1999-07-22T11:01:53Z</time>
      </trkpt>
      <trkpt lat="43.395681" lon="-5.984929">
        <ele>115.499</ele>
        <time>1999-07-22T11:01:55Z</time>
      </trkpt>
      <trkpt lat="43.395658" lon="-5.985115">
        <ele>116.445</ele>
        <time>1999-07-22T11:02:00Z</time>
      </trkpt>
      <trkpt lat="43.395648" lon="-5.985187">
        <ele>116.863</ele>
        <time>1999-07-22T11:02:02Z</time>
      </trkpt>
      <trkpt lat="43.395628" lon="-5.985333">
        <ele>117.844</ele>
        <time>1999-07-22T11:02:06Z</time>
      </trkpt>
      <trkpt lat="43.395601" lon="-5.985481">
        <ele>119.018</ele>
        <time>1999-07-22T11:02:10Z</time>
      </trkpt>
      <trkpt lat="43.395591" lon="-5.985517">
        <ele>119.408</ele>
        <time>1999-07-22T11:02:11Z</time>
      </trkpt>
      <trkpt lat="43.395568" lon="-5.985634">
        <ele>120.069</ele>
        <time>1999-07-22T11:02:14Z</time>
      </trkpt>
      <trkpt lat="43.395511" lon="-5.985837">
        <ele>120.864</ele>
        <time>1999-07-22T11:02:19Z</time>
      </trkpt>
      <trkpt lat="43.395473" lon="-5.985962">
        <ele>121.275</ele>
        <time>1999-07-22T11:02:22Z</time>
      </trkpt>
      <trkpt lat="43.395431" lon="-5.986084">
        <ele>121.691</ele>
        <time>1999-07-22T11:02:25Z</time>
      </trkpt>
      <trkpt lat="43.395399" lon="-5.986215">
        <ele>121.817</ele>
        <time>1999-07-22T11:02:28Z</time>
      </trkpt>
      <trkpt lat="43.395388" lon="-5.986396">
        <ele>122.044</ele>
        <time>1999-07-22T11:02:32Z</time>
      </trkpt>
      <trkpt lat="43.395388" lon="-5.986487">
        <ele>122.481</ele>
        <time>1999-07-22T11:02:34Z</time>
      </trkpt>
      <trkpt lat="43.395388" lon="-5.986714">
        <ele>123.287</ele>
        <time>1999-07-22T11:02:39Z</time>
      </trkpt>
      <trkpt lat="43.395405" lon="-5.986938">
        <ele>124.036</ele>
        <time>1999-07-22T11:02:44Z</time>
      </trkpt>
      <trkpt lat="43.395408" lon="-5.987025">
        <ele>124.417</ele>
        <time>1999-07-22T11:02:46Z</time>
      </trkpt>
      <trkpt lat="43.395387" lon="-5.987262">
        <ele>125.218</ele>
        <time>1999-07-22T11:02:51Z</time>
      </trkpt>
      <trkpt lat="43.395368" lon="-5.987349">
        <ele>125.408</ele>
        <time>1999-07-22T11:02:53Z</time>
      </trkpt>
      <trkpt lat="43.395291" lon="-5.987595">
        <ele>126.266</ele>
        <time>1999-07-22T11:02:59Z</time>
      </trkpt>
      <trkpt lat="43.395223" lon="-5.987688">
        <ele>126.421</ele>
        <time>1999-07-22T11:03:02Z</time>
      </trkpt>
      <trkpt lat="43.395132" lon="-5.987862">
        <ele>127.642</ele>
        <time>1999-07-22T11:03:07Z</time>
      </trkpt>
      <trkpt lat="43.395041" lon="-5.988102">
        <ele>128.858</ele>
        <time>1999-07-22T11:03:13Z</time>
      </trkpt>
      <trkpt lat="43.395004" lon="-5.988178">
        <ele>129.484</ele>
        <time>1999-07-22T11:03:15Z</time>
      </trkpt>
      <trkpt lat="43.394963" lon="-5.988253">
        <ele>129.841</ele>
        <time>1999-07-22T11:03:17Z</time>
      </trkpt>
      <trkpt lat="43.394855" lon="-5.988446">
        <ele>130.638</ele>
        <time>1999-07-22T11:03:22Z</time>
      </trkpt>
      <trkpt lat="43.394811" lon="-5.988526">
        <ele>131.064</ele>
        <time>1999-07-22T11:03:24Z</time>
      </trkpt>
      <trkpt lat="43.394732" lon="-5.988706">
        <ele>131.842</ele>
        <time>1999-07-22T11:03:28Z</time>
      </trkpt>
      <trkpt lat="43.394716" lon="-5.988754">
        <ele>132.022</ele>
        <time>1999-07-22T11:03:29Z</time>
      </trkpt>
      <trkpt lat="43.394687" lon="-5.988853">
        <ele>132.414</ele>
        <time>1999-07-22T11:03:31Z</time>
      </trkpt>
      <trkpt lat="43.394658" lon="-5.989061">
        <ele>133.008</ele>
        <time>1999-07-22T11:03:35Z</time>
      </trkpt>
      <trkpt lat="43.394654" lon="-5.989169">
        <ele>133.247</ele>
        <time>1999-07-22T11:03:37Z</time>
      </trkpt>
      <trkpt lat="43.394653" lon="-5.989224">
        <ele>133.262</ele>
        <time>1999-07-22T11:03:38Z</time>
      </trkpt>
      <trkpt lat="43.394635" lon="-5.989421">
        <ele>133.643</ele>
        <time>1999-07-22T11:03:42Z</time>
      </trkpt>
      <trkpt lat="43.394633" lon="-5.989470">
        <ele>133.839</ele>
        <time>1999-07-22T11:03:43Z</time>
      </trkpt>
      <trkpt lat="43.394602" lon="-5.989776">
        <ele>134.035</ele>
        <time>1999-07-22T11:03:49Z</time>
      </trkpt>
      <trkpt lat="43.394565" lon="-5.989929">
        <ele>134.212</ele>
        <time>1999-07-22T11:03:52Z</time>
      </trkpt>
      <trkpt lat="43.394553" lon="-5.989980">
        <ele>134.499</ele>
        <time>1999-07-22T11:03:53Z</time>
      </trkpt>
      <trkpt lat="43.394509" lon="-5.990117">
        <ele>134.825</ele>
        <time>1999-07-22T11:03:56Z</time>
      </trkpt>
      <trkpt lat="43.394473" lon="-5.990229">
        <ele>135.277</ele>
        <time>1999-07-22T11:03:59Z</time>
      </trkpt>
      <trkpt lat="43.394462" lon="-5.990266">
        <ele>135.861</ele>
        <time>1999-07-22T11:04:00Z</time>
      </trkpt>
      <trkpt lat="43.394432" lon="-5.990425">
        <ele>136.827</ele>
        <time>1999-07-22T11:04:04Z</time>
      </trkpt>
      <trkpt lat="43.394421" lon="-5.990588">
        <ele>138.008</ele>
        <time>1999-07-22T11:04:08Z</time>
      </trkpt>
      <trkpt lat="43.394422" lon="-5.990710">
        <ele>138.680</ele>
        <time>1999-07-22T11:04:11Z</time>
      </trkpt>
      <trkpt lat="43.394430" lon="-5.990800">
        <ele>139.465</ele>
        <time>1999-07-22T11:04:13Z</time>
      </trkpt>
      <trkpt lat="43.394445" lon="-5.990952">
        <ele>140.256</ele>
        <time>1999-07-22T11:04:16Z</time>
      </trkpt>
      <trkpt lat="43.394451" lon="-5.991007">
        <ele>140.642</ele>
        <time>1999-07-22T11:04:17Z</time>
      </trkpt>
      <trkpt lat="43.394458" lon="-5.991066">
        <ele>140.648</ele>
        <time>1999-07-22T11:04:18Z</time>
      </trkpt>
      <trkpt lat="43.394471" lon="-5.991200">
        <ele>140.835</ele>
        <time>1999-07-22T11:04:20Z</time>
      </trkpt>
      <trkpt lat="43.394480" lon="-5.991343">
        <ele>140.862</ele>
        <time>1999-07-22T11:04:22Z</time>
      </trkpt>
      <trkpt lat="43.394487" lon="-5.991497">
        <ele>140.818</ele>
        <time>1999-07-22T11:04:24Z</time>
      </trkpt>
      <trkpt lat="43.394490" lon="-5.991659">
        <ele>140.837</ele>
        <time>1999-07-22T11:04:26Z</time>
      </trkpt>
      <trkpt lat="43.394491" lon="-5.991833">
        <ele>140.649</ele>
        <time>1999-07-22T11:04:28Z</time>
      </trkpt>
      <trkpt lat="43.394492" lon="-5.991924">
        <ele>140.613</ele>
        <time>1999-07-22T11:04:29Z</time>
      </trkpt>
      <trkpt lat="43.394492" lon="-5.992020">
        <ele>140.408</ele>
        <time>1999-07-22T11:04:30Z</time>
      </trkpt>
      <trkpt lat="43.394489" lon="-5.992117">
        <ele>140.416</ele>
        <time>1999-07-22T11:04:31Z</time>
      </trkpt>
      <trkpt lat="43.394470" lon="-5.992310">
        <ele>140.211</ele>
        <time>1999-07-22T11:04:33Z</time>
      </trkpt>
      <trkpt lat="43.394435" lon="-5.992621">
        <ele>139.462</ele>
        <time>1999-07-22T11:04:36Z</time>
      </trkpt>
      <trkpt lat="43.394404" lon="-5.992845">
        <ele>138.838</ele>
        <time>1999-07-22T11:04:38Z</time>
      </trkpt>
      <trkpt lat="43.394370" lon="-5.993087">
        <ele>138.464</ele>
        <time>1999-07-22T11:04:40Z</time>
      </trkpt>
      <trkpt lat="43.394346" lon="-5.993210">
        <ele>138.051</ele>
        <time>1999-07-22T11:04:41Z</time>
      </trkpt>
      <trkpt lat="43.394288" lon="-5.993462">
        <ele>137.468</ele>
        <time>1999-07-22T11:04:43Z</time>
      </trkpt>
      <trkpt lat="43.394258" lon="-5.993591">
        <ele>137.044</ele>
        <time>1999-07-22T11:04:44Z</time>
      </trkpt>
      <trkpt lat="43.394182" lon="-5.993825">
        <ele>136.282</ele>
        <time>1999-07-22T11:04:46Z</time>
      </trkpt>
      <trkpt lat="43.394152" lon="-5.993912">
        <ele>135.843</ele>
        <time>1999-07-22T11:04:47Z</time>
      </trkpt>
      <trkpt lat="43.394134" lon="-5.993972">
        <ele>135.217</ele>
        <time>1999-07-22T11:04:48Z</time>
      </trkpt>
      <trkpt lat="43.394121" lon="-5.994013">
        <ele>134.608</ele>
        <time>1999-07-22T11:04:49Z</time>
      </trkpt>
      <trkpt lat="43.394095" lon="-5.994017">
        <ele>133.671</ele>
        <time>1999-07-22T11:04:51Z</time>
      </trkpt>
      <trkpt lat="43.394094" lon="-5.993990">
        <ele>133.246</ele>
        <time>1999-07-22T11:04:52Z</time>
      </trkpt>
      <trkpt lat="43.394101" lon="-5.993964">
        <ele>132.047</ele>
        <time>1999-07-22T11:04:53Z</time>
      </trkpt>
      <trkpt lat="43.394125" lon="-5.993915">
        <ele>130.433</ele>
        <time>1999-07-22T11:04:55Z</time>
      </trkpt>
      <trkpt lat="43.394153" lon="-5.993879">
        <ele>128.699</ele>
        <time>1999-07-22T11:04:57Z</time>
      </trkpt>
      <trkpt lat="43.394170" lon="-5.993857">
        <ele>128.056</ele>
        <time>1999-07-22T11:04:58Z</time>
      </trkpt>
      <trkpt lat="43.394202" lon="-5.993771">
        <ele>127.823</ele>
        <time>1999-07-22T11:05:01Z</time>
      </trkpt>
      <trkpt lat="43.394208" lon="-5.993742">
        <ele>127.829</ele>
        <time>1999-07-22T11:05:02Z</time>
      </trkpt>
      <trkpt lat="43.394218" lon="-5.993718">
        <ele>127.672</ele>
        <time>1999-07-22T11:05:03Z</time>
      </trkpt>
      <trkpt lat="43.394257" lon="-5.993700">
        <ele>127.613</ele>
        <time>1999-07-22T11:05:06Z</time>
      </trkpt>
      <trkpt lat="43.394261" lon="-5.993710">
        <ele>127.614</ele>
        <time>1999-07-22T11:05:07Z</time>
      </trkpt>
      <trkpt lat="43.394259" lon="-5.993722">
        <ele>127.808</ele>
        <time>1999-07-22T11:05:08Z</time>
      </trkpt>
      <trkpt lat="43.394257" lon="-5.993724">
        <ele>127.850</ele>
        <time>1999-07-22T11:05:10Z</time>
      </trkpt>
      <trkpt lat="43.394265" lon="-5.993797">
        <ele>128.015</ele>
        <time>1999-07-22T11:05:18Z</time>
      </trkpt>
      <trkpt lat="43.394276" lon="-5.993863">
        <ele>127.836</ele>
        <time>1999-07-22T11:05:20Z</time>
      </trkpt>
      <trkpt lat="43.394287" lon="-5.993900">
        <ele>127.812</ele>
        <time>1999-07-22T11:05:21Z</time>
      </trkpt>
      <trkpt lat="43.394302" lon="-5.993941">
        <ele>127.818</ele>
        <time>1999-07-22T11:05:22Z</time>
      </trkpt>
      <trkpt lat="43.394318" lon="-5.993978">
        <ele>127.875</ele>
        <time>1999-07-22T11:05:23Z</time>
      </trkpt>
      <trkpt lat="43.394396" lon="-5.994223">
        <ele>127.872</ele>
        <time>1999-07-22T11:05:28Z</time>
      </trkpt>
      <trkpt lat="43.394422" lon="-5.994363">
        <ele>127.638</ele>
        <time>1999-07-22T11:05:30Z</time>
      </trkpt>
      <trkpt lat="43.394461" lon="-5.994509">
        <ele>127.628</ele>
        <time>1999-07-22T11:05:32Z</time>
      </trkpt>
      <trkpt lat="43.394491" lon="-5.994575">
        <ele>127.689</ele>
        <time>1999-07-22T11:05:33Z</time>
      </trkpt>
      <trkpt lat="43.394596" lon="-5.994779">
        <ele>127.417</ele>
        <time>1999-07-22T11:05:36Z</time>
      </trkpt>
      <trkpt lat="43.394627" lon="-5.994870">
        <ele>127.208</ele>
        <time>1999-07-22T11:05:37Z</time>
      </trkpt>
      <trkpt lat="43.394719" lon="-5.995230">
        <ele>126.445</ele>
        <time>1999-07-22T11:05:41Z</time>
      </trkpt>
      <trkpt lat="43.394739" lon="-5.995317">
        <ele>125.830</ele>
        <time>1999-07-22T11:05:42Z</time>
      </trkpt>
      <trkpt lat="43.394766" lon="-5.995404">
        <ele>125.011</ele>
        <time>1999-07-22T11:05:43Z</time>
      </trkpt>
      <trkpt lat="43.394820" lon="-5.995553">
        <ele>123.847</ele>
        <time>1999-07-22T11:05:45Z</time>
      </trkpt>
      <trkpt lat="43.394836" lon="-5.995607">
        <ele>123.293</ele>
        <time>1999-07-22T11:05:46Z</time>
      </trkpt>
      <trkpt lat="43.394842" lon="-5.995663">
        <ele>122.090</ele>
        <time>1999-07-22T11:05:47Z</time>
      </trkpt>
      <trkpt lat="43.394842" lon="-5.995716">
        <ele>121.017</ele>
        <time>1999-07-22T11:05:48Z</time>
      </trkpt>
      <trkpt lat="43.394845" lon="-5.995796">
        <ele>119.053</ele>
        <time>1999-07-22T11:05:50Z</time>
      </trkpt>
      <trkpt lat="43.394847" lon="-5.995851">
        <ele>118.076</ele>
        <time>1999-07-22T11:05:52Z</time>
      </trkpt>
      <trkpt lat="43.394859" lon="-5.995918">
        <ele>116.890</ele>
        <time>1999-07-22T11:05:54Z</time>
      </trkpt>
      <trkpt lat="43.394858" lon="-5.995967">
        <ele>116.219</ele>
        <time>1999-07-22T11:05:55Z</time>
      </trkpt>
      <trkpt lat="43.394855" lon="-5.996019">
        <ele>115.608</ele>
        <time>1999-07-22T11:05:56Z</time>
      </trkpt>
      <trkpt lat="43.394843" lon="-5.996083">
        <ele>114.640</ele>
        <time>1999-07-22T11:05:57Z</time>
      </trkpt>
      <trkpt lat="43.394829" lon="-5.996153">
        <ele>113.645</ele>
        <time>1999-07-22T11:05:58Z</time>
      </trkpt>
      <trkpt lat="43.394812" lon="-5.996222">
        <ele>113.016</ele>
        <time>1999-07-22T11:05:59Z</time>
      </trkpt>
      <trkpt lat="43.394787" lon="-5.996279">
        <ele>112.632</ele>
        <time>1999-07-22T11:06:00Z</time>
      </trkpt>
      <trkpt lat="43.394697" lon="-5.996439">
        <ele>112.048</ele>
        <time>1999-07-22T11:06:03Z</time>
      </trkpt>
      <trkpt lat="43.394663" lon="-5.996494">
        <ele>111.875</ele>
        <time>1999-07-22T11:06:04Z</time>
      </trkpt>
      <trkpt lat="43.394631" lon="-5.996557">
        <ele>111.482</ele>
        <time>1999-07-22T11:06:05Z</time>
      </trkpt>
      <trkpt lat="43.394548" lon="-5.996688">
        <ele>110.848</ele>
        <time>1999-07-22T11:06:07Z</time>
      </trkpt>
      <trkpt lat="43.394503" lon="-5.996759">
        <ele>109.827</ele>
        <time>1999-07-22T11:06:08Z</time>
      </trkpt>
      <trkpt lat="43.394407" lon="-5.996900">
        <ele>108.468</ele>
        <time>1999-07-22T11:06:10Z</time>
      </trkpt>
      <trkpt lat="43.394351" lon="-5.996972">
        <ele>107.014</ele>
        <time>1999-07-22T11:06:12Z</time>
      </trkpt>
      <trkpt lat="43.394333" lon="-5.997008">
        <ele>106.008</ele>
        <time>1999-07-22T11:06:13Z</time>
      </trkpt>
      <trkpt lat="43.394312" lon="-5.997049">
        <ele>104.465</ele>
        <time>1999-07-22T11:06:14Z</time>
      </trkpt>
      <trkpt lat="43.394273" lon="-5.997130">
        <ele>102.630</ele>
        <time>1999-07-22T11:06:16Z</time>
      </trkpt>
      <trkpt lat="43.394252" lon="-5.997170">
        <ele>102.011</ele>
        <time>1999-07-22T11:06:17Z</time>
      </trkpt>
      <trkpt lat="43.394230" lon="-5.997201">
        <ele>101.427</ele>
        <time>1999-07-22T11:06:18Z</time>
      </trkpt>
      <trkpt lat="43.394187" lon="-5.997251">
        <ele>100.073</ele>
        <time>1999-07-22T11:06:20Z</time>
      </trkpt>
      <trkpt lat="43.394180" lon="-5.997289">
        <ele>99.490</ele>
        <time>1999-07-22T11:06:21Z</time>
      </trkpt>
      <trkpt lat="43.394189" lon="-5.997329">
        <ele>98.857</ele>
        <time>1999-07-22T11:06:22Z</time>
      </trkpt>
      <trkpt lat="43.394208" lon="-5.997436">
        <ele>97.473</ele>
        <time>1999-07-22T11:06:25Z</time>
      </trkpt>
      <trkpt lat="43.394207" lon="-5.997508">
        <ele>96.239</ele>
        <time>1999-07-22T11:06:27Z</time>
      </trkpt>
      <trkpt lat="43.394207" lon="-5.997617">
        <ele>94.801</ele>
        <time>1999-07-22T11:06:30Z</time>
      </trkpt>
      <trkpt lat="43.394199" lon="-5.997728">
        <ele>93.821</ele>
        <time>1999-07-22T11:06:32Z</time>
      </trkpt>
      <trkpt lat="43.394191" lon="-5.997789">
        <ele>93.208</ele>
        <time>1999-07-22T11:06:33Z</time>
      </trkpt>
      <trkpt lat="43.394179" lon="-5.997851">
        <ele>92.856</ele>
        <time>1999-07-22T11:06:34Z</time>
      </trkpt>
      <trkpt lat="43.394141" lon="-5.998017">
        <ele>91.691</ele>
        <time>1999-07-22T11:06:37Z</time>
      </trkpt>
      <trkpt lat="43.394081" lon="-5.998247">
        <ele>90.692</ele>
        <time>1999-07-22T11:06:40Z</time>
      </trkpt>
      <trkpt lat="43.394082" lon="-5.998334">
        <ele>89.828</ele>
        <time>1999-07-22T11:06:41Z</time>
      </trkpt>
      <trkpt lat="43.394081" lon="-5.998444">
        <ele>88.244</ele>
        <time>1999-07-22T11:06:42Z</time>
      </trkpt>
      <trkpt lat="43.394064" lon="-5.998673">
        <ele>87.061</ele>
        <time>1999-07-22T11:06:44Z</time>
      </trkpt>
      <trkpt lat="43.394041" lon="-5.998911">
        <ele>85.898</ele>
        <time>1999-07-22T11:06:46Z</time>
      </trkpt>
      <trkpt lat="43.394025" lon="-5.999022">
        <ele>84.854</ele>
        <time>1999-07-22T11:06:47Z</time>
      </trkpt>
      <trkpt lat="43.394015" lon="-5.999135">
        <ele>84.015</ele>
        <time>1999-07-22T11:06:48Z</time>
      </trkpt>
      <trkpt lat="43.394012" lon="-5.999226">
        <ele>83.665</ele>
        <time>1999-07-22T11:06:49Z</time>
      </trkpt>
      <trkpt lat="43.394004" lon="-5.999307">
        <ele>82.811</ele>
        <time>1999-07-22T11:06:50Z</time>
      </trkpt>
      <trkpt lat="43.394001" lon="-5.999426">
        <ele>81.408</ele>
        <time>1999-07-22T11:06:52Z</time>
      </trkpt>
      <trkpt lat="43.394001" lon="-5.999561">
        <ele>80.294</ele>
        <time>1999-07-22T11:06:54Z</time>
      </trkpt>
      <trkpt lat="43.393997" lon="-5.999628">
        <ele>79.669</ele>
        <time>1999-07-22T11:06:55Z</time>
      </trkpt>
      <trkpt lat="43.393988" lon="-5.999687">
        <ele>79.430</ele>
        <time>1999-07-22T11:06:56Z</time>
      </trkpt>
      <trkpt lat="43.393974" lon="-5.999745">
        <ele>79.076</ele>
        <time>1999-07-22T11:06:57Z</time>
      </trkpt>
      <trkpt lat="43.393914" lon="-5.999978">
        <ele>78.062</ele>
        <time>1999-07-22T11:07:01Z</time>
      </trkpt>
      <trkpt lat="43.393881" lon="-6.000125">
        <ele>76.849</ele>
        <time>1999-07-22T11:07:05Z</time>
      </trkpt>
      <trkpt lat="43.393875" lon="-6.000130">
        <ele>76.856</ele>
        <time>1999-07-22T11:07:06Z</time>
      </trkpt>
      <trkpt lat="43.393869" lon="-6.000144">
        <ele>76.632</ele>
        <time>1999-07-22T11:07:07Z</time>
      </trkpt>
      <trkpt lat="43.393861" lon="-6.000356">
        <ele>74.698</ele>
        <time>1999-07-22T11:07:38Z</time>
      </trkpt>
      <trkpt lat="43.393850" lon="-6.000405">
        <ele>74.615</ele>
        <time>1999-07-22T11:07:39Z</time>
      </trkpt>
      <trkpt lat="43.393840" lon="-6.000453">
        <ele>74.626</ele>
        <time>1999-07-22T11:07:40Z</time>
      </trkpt>
      <trkpt lat="43.393818" lon="-6.000563">
        <ele>74.608</ele>
        <time>1999-07-22T11:07:43Z</time>
      </trkpt>
      <trkpt lat="43.393805" lon="-6.000671">
        <ele>74.432</ele>
        <time>1999-07-22T11:07:45Z</time>
      </trkpt>
      <trkpt lat="43.393769" lon="-6.000898">
        <ele>73.687</ele>
        <time>1999-07-22T11:07:48Z</time>
      </trkpt>
      <trkpt lat="43.393749" lon="-6.000962">
        <ele>73.438</ele>
        <time>1999-07-22T11:07:49Z</time>
      </trkpt>
      <trkpt lat="43.393715" lon="-6.001018">
        <ele>73.444</ele>
        <time>1999-07-22T11:07:50Z</time>
      </trkpt>
      <trkpt lat="43.393534" lon="-6.001288">
        <ele>72.630</ele>
        <time>1999-07-22T11:07:54Z</time>
      </trkpt>
      <trkpt lat="43.393493" lon="-6.001363">
        <ele>72.457</ele>
        <time>1999-07-22T11:07:55Z</time>
      </trkpt>
      <trkpt lat="43.393441" lon="-6.001518">
        <ele>72.094</ele>
        <time>1999-07-22T11:07:57Z</time>
      </trkpt>
      <trkpt lat="43.393409" lon="-6.001701">
        <ele>71.240</ele>
        <time>1999-07-22T11:07:59Z</time>
      </trkpt>
      <trkpt lat="43.393396" lon="-6.001796">
        <ele>71.044</ele>
        <time>1999-07-22T11:08:00Z</time>
      </trkpt>
      <trkpt lat="43.393372" lon="-6.002020">
        <ele>69.805</ele>
        <time>1999-07-22T11:08:03Z</time>
      </trkpt>
      <trkpt lat="43.393367" lon="-6.002295">
        <ele>68.815</ele>
        <time>1999-07-22T11:08:09Z</time>
      </trkpt>
      <trkpt lat="43.393365" lon="-6.002316">
        <ele>67.808</ele>
        <time>1999-07-22T11:08:11Z</time>
      </trkpt>
      <trkpt lat="43.393309" lon="-6.002388">
        <ele>66.427</ele>
        <time>1999-07-22T11:08:25Z</time>
      </trkpt>
      <trkpt lat="43.393296" lon="-6.002408">
        <ele>66.472</ele>
        <time>1999-07-22T11:08:26Z</time>
      </trkpt>
      <trkpt lat="43.393267" lon="-6.002462">
        <ele>66.253</ele>
        <time>1999-07-22T11:08:28Z</time>
      </trkpt>
      <trkpt lat="43.393223" lon="-6.002539">
        <ele>66.269</ele>
        <time>1999-07-22T11:08:30Z</time>
      </trkpt>
      <trkpt lat="43.393197" lon="-6.002572">
        <ele>66.275</ele>
        <time>1999-07-22T11:08:31Z</time>
      </trkpt>
      <trkpt lat="43.393028" lon="-6.002680">
        <ele>66.482</ele>
        <time>1999-07-22T11:08:36Z</time>
      </trkpt>
      <trkpt lat="43.392982" lon="-6.002692">
        <ele>66.449</ele>
        <time>1999-07-22T11:08:37Z</time>
      </trkpt>
      <trkpt lat="43.392835" lon="-6.002709">
        <ele>66.475</ele>
        <time>1999-07-22T11:08:40Z</time>
      </trkpt>
      <trkpt lat="43.392740" lon="-6.002703">
        <ele>66.482</ele>
        <time>1999-07-22T11:08:42Z</time>
      </trkpt>
      <trkpt lat="43.392654" lon="-6.002688">
        <ele>66.443</ele>
        <time>1999-07-22T11:08:44Z</time>
      </trkpt>
      <trkpt lat="43.392617" lon="-6.002678">
        <ele>66.417</ele>
        <time>1999-07-22T11:08:45Z</time>
      </trkpt>
      <trkpt lat="43.392554" lon="-6.002651">
        <ele>66.408</ele>
        <time>1999-07-22T11:08:47Z</time>
      </trkpt>
      <trkpt lat="43.392501" lon="-6.002637">
        <ele>66.481</ele>
        <time>1999-07-22T11:08:49Z</time>
      </trkpt>
      <trkpt lat="43.392474" lon="-6.002637">
        <ele>66.696</ele>
        <time>1999-07-22T11:08:50Z</time>
      </trkpt>
      <trkpt lat="43.392380" lon="-6.002663">
        <ele>67.647</ele>
        <time>1999-07-22T11:08:53Z</time>
      </trkpt>
      <trkpt lat="43.392319" lon="-6.002684">
        <ele>68.023</ele>
        <time>1999-07-22T11:08:55Z</time>
      </trkpt>
      <trkpt lat="43.392255" lon="-6.002704">
        <ele>68.899</ele>
        <time>1999-07-22T11:08:57Z</time>
      </trkpt>
      <trkpt lat="43.392086" lon="-6.002735">
        <ele>69.626</ele>
        <time>1999-07-22T11:09:01Z</time>
      </trkpt>
      <trkpt lat="43.391810" lon="-6.002774">
        <ele>69.853</ele>
        <time>1999-07-22T11:09:08Z</time>
      </trkpt>
      <trkpt lat="43.391708" lon="-6.002787">
        <ele>70.099</ele>
        <time>1999-07-22T11:09:11Z</time>
      </trkpt>
      <trkpt lat="43.391641" lon="-6.002781">
        <ele>70.213</ele>
        <time>1999-07-22T11:09:14Z</time>
      </trkpt>
      <trkpt lat="43.391631" lon="-6.002744">
        <ele>70.443</ele>
        <time>1999-07-22T11:09:16Z</time>
      </trkpt>
      <trkpt lat="43.391641" lon="-6.002734">
        <ele>70.607</ele>
        <time>1999-07-22T11:09:17Z</time>
      </trkpt>
      <trkpt lat="43.391664" lon="-6.002756">
        <ele>71.008</ele>
        <time>1999-07-22T11:09:19Z</time>
      </trkpt>
      <trkpt lat="43.391679" lon="-6.002769">
        <ele>71.234</ele>
        <time>1999-07-22T11:09:20Z</time>
      </trkpt>
      <trkpt lat="43.391699" lon="-6.002773">
        <ele>71.289</ele>
        <time>1999-07-22T11:09:21Z</time>
      </trkpt>
      <trkpt lat="43.391821" lon="-6.002765">
        <ele>71.610</ele>
        <time>1999-07-22T11:09:25Z</time>
      </trkpt>
      <trkpt lat="43.391893" lon="-6.002750">
        <ele>71.616</ele>
        <time>1999-07-22T11:09:27Z</time>
      </trkpt>
      <trkpt lat="43.391975" lon="-6.002738">
        <ele>71.652</ele>
        <time>1999-07-22T11:09:29Z</time>
      </trkpt>
      <trkpt lat="43.392067" lon="-6.002727">
        <ele>71.249</ele>
        <time>1999-07-22T11:09:31Z</time>
      </trkpt>
      <trkpt lat="43.392201" lon="-6.002710">
        <ele>70.886</ele>
        <time>1999-07-22T11:09:34Z</time>
      </trkpt>
      <trkpt lat="43.392342" lon="-6.002680">
        <ele>70.212</ele>
        <time>1999-07-22T11:09:38Z</time>
      </trkpt>
      <trkpt lat="43.392368" lon="-6.002677">
        <ele>70.057</ele>
        <time>1999-07-22T11:09:39Z</time>
      </trkpt>
      <trkpt lat="43.392386" lon="-6.002681">
        <ele>69.600</ele>
        <time>1999-07-22T11:09:42Z</time>
      </trkpt>
      <trkpt lat="43.392421" lon="-6.002692">
        <ele>69.420</ele>
        <time>1999-07-22T11:10:20Z</time>
      </trkpt>
      <trkpt lat="43.392445" lon="-6.002691">
        <ele>69.408</ele>
        <time>1999-07-22T11:10:21Z</time>
      </trkpt>
      <trkpt lat="43.392474" lon="-6.002695">
        <ele>69.428</ele>
        <time>1999-07-22T11:10:22Z</time>
      </trkpt>
      <trkpt lat="43.392555" lon="-6.002717">
        <ele>69.413</ele>
        <time>1999-07-22T11:10:24Z</time>
      </trkpt>
      <trkpt lat="43.392667" lon="-6.002755">
        <ele>69.424</ele>
        <time>1999-07-22T11:10:26Z</time>
      </trkpt>
      <trkpt lat="43.392933" lon="-6.002775">
        <ele>69.270</ele>
        <time>1999-07-22T11:10:30Z</time>
      </trkpt>
      <trkpt lat="43.392995" lon="-6.002760">
        <ele>69.276</ele>
        <time>1999-07-22T11:10:31Z</time>
      </trkpt>
      <trkpt lat="43.393056" lon="-6.002744">
        <ele>69.223</ele>
        <time>1999-07-22T11:10:32Z</time>
      </trkpt>
      <trkpt lat="43.393113" lon="-6.002713">
        <ele>69.030</ele>
        <time>1999-07-22T11:10:33Z</time>
      </trkpt>
      <trkpt lat="43.393167" lon="-6.002674">
        <ele>68.666</ele>
        <time>1999-07-22T11:10:34Z</time>
      </trkpt>
      <trkpt lat="43.393214" lon="-6.002621">
        <ele>68.039</ele>
        <time>1999-07-22T11:10:35Z</time>
      </trkpt>
      <trkpt lat="43.393250" lon="-6.002559">
        <ele>67.401</ele>
        <time>1999-07-22T11:10:36Z</time>
      </trkpt>
      <trkpt lat="43.393301" lon="-6.002422">
        <ele>67.021</ele>
        <time>1999-07-22T11:10:38Z</time>
      </trkpt>
      <trkpt lat="43.393341" lon="-6.002356">
        <ele>67.008</ele>
        <time>1999-07-22T11:10:40Z</time>
      </trkpt>
      <trkpt lat="43.393358" lon="-6.002366">
        <ele>67.096</ele>
        <time>1999-07-22T11:10:41Z</time>
      </trkpt>
      <trkpt lat="43.393397" lon="-6.002481">
        <ele>66.691</ele>
        <time>1999-07-22T11:10:44Z</time>
      </trkpt>
      <trkpt lat="43.393421" lon="-6.002529">
        <ele>66.682</ele>
        <time>1999-07-22T11:10:45Z</time>
      </trkpt>
      <trkpt lat="43.393484" lon="-6.002638">
        <ele>66.418</ele>
        <time>1999-07-22T11:10:47Z</time>
      </trkpt>
      <trkpt lat="43.393518" lon="-6.002694">
        <ele>66.654</ele>
        <time>1999-07-22T11:10:48Z</time>
      </trkpt>
      <trkpt lat="43.393589" lon="-6.002801">
        <ele>66.251</ele>
        <time>1999-07-22T11:10:50Z</time>
      </trkpt>
      <trkpt lat="43.393629" lon="-6.002850">
        <ele>66.278</ele>
        <time>1999-07-22T11:10:51Z</time>
      </trkpt>
      <trkpt lat="43.393721" lon="-6.002923">
        <ele>66.494</ele>
        <time>1999-07-22T11:10:53Z</time>
      </trkpt>
      <trkpt lat="43.393771" lon="-6.002932">
        <ele>66.265</ele>
        <time>1999-07-22T11:10:54Z</time>
      </trkpt>
      <trkpt lat="43.393922" lon="-6.002909">
        <ele>66.268</ele>
        <time>1999-07-22T11:10:57Z</time>
      </trkpt>
      <trkpt lat="43.393978" lon="-6.002895">
        <ele>66.014</ele>
        <time>1999-07-22T11:10:58Z</time>
      </trkpt>
      <trkpt lat="43.394201" lon="-6.002838">
        <ele>65.608</ele>
        <time>1999-07-22T11:11:02Z</time>
      </trkpt>
      <trkpt lat="43.394259" lon="-6.002826">
        <ele>65.629</ele>
        <time>1999-07-22T11:11:03Z</time>
      </trkpt>
      <trkpt lat="43.394476" lon="-6.002830">
        <ele>65.414</ele>
        <time>1999-07-22T11:11:07Z</time>
      </trkpt>
      <trkpt lat="43.394531" lon="-6.002840">
        <ele>65.495</ele>
        <time>1999-07-22T11:11:08Z</time>
      </trkpt>
      <trkpt lat="43.394813" lon="-6.002923">
        <ele>65.491</ele>
        <time>1999-07-22T11:11:13Z</time>
      </trkpt>
      <trkpt lat="43.394865" lon="-6.002952">
        <ele>65.467</ele>
        <time>1999-07-22T11:11:14Z</time>
      </trkpt>
      <trkpt lat="43.395191" lon="-6.003161">
        <ele>65.434</ele>
        <time>1999-07-22T11:11:20Z</time>
      </trkpt>
      <trkpt lat="43.395338" lon="-6.003272">
        <ele>65.211</ele>
        <time>1999-07-22T11:11:23Z</time>
      </trkpt>
      <trkpt lat="43.395389" lon="-6.003300">
        <ele>65.227</ele>
        <time>1999-07-22T11:11:24Z</time>
      </trkpt>
      <trkpt lat="43.395491" lon="-6.003352">
        <ele>64.891</ele>
        <time>1999-07-22T11:11:26Z</time>
      </trkpt>
      <trkpt lat="43.395632" lon="-6.003440">
        <ele>64.681</ele>
        <time>1999-07-22T11:11:29Z</time>
      </trkpt>
      <trkpt lat="43.395748" lon="-6.003547">
        <ele>64.419</ele>
        <time>1999-07-22T11:11:32Z</time>
      </trkpt>
      <trkpt lat="43.395922" lon="-6.003695">
        <ele>64.208</ele>
        <time>1999-07-22T11:11:36Z</time>
      </trkpt>
      <trkpt lat="43.395967" lon="-6.003719">
        <ele>64.232</ele>
        <time>1999-07-22T11:11:37Z</time>
      </trkpt>
      <trkpt lat="43.396016" lon="-6.003740">
        <ele>64.077</ele>
        <time>1999-07-22T11:11:38Z</time>
      </trkpt>
      <trkpt lat="43.396101" lon="-6.003787">
        <ele>64.038</ele>
        <time>1999-07-22T11:11:40Z</time>
      </trkpt>
      <trkpt lat="43.396214" lon="-6.003869">
        <ele>64.034</ele>
        <time>1999-07-22T11:11:43Z</time>
      </trkpt>
      <trkpt lat="43.396432" lon="-6.004033">
        <ele>64.230</ele>
        <time>1999-07-22T11:11:48Z</time>
      </trkpt>
      <trkpt lat="43.396557" lon="-6.004130">
        <ele>64.247</ele>
        <time>1999-07-22T11:11:51Z</time>
      </trkpt>
      <trkpt lat="43.396632" lon="-6.004190">
        <ele>64.494</ele>
        <time>1999-07-22T11:11:53Z</time>
      </trkpt>
      <trkpt lat="43.396664" lon="-6.004220">
        <ele>64.410</ele>
        <time>1999-07-22T11:11:54Z</time>
      </trkpt>
      <trkpt lat="43.396760" lon="-6.004341">
        <ele>64.629</ele>
        <time>1999-07-22T11:11:57Z</time>
      </trkpt>
      <trkpt lat="43.396818" lon="-6.004412">
        <ele>64.600</ele>
        <time>1999-07-22T11:11:59Z</time>
      </trkpt>
      <trkpt lat="43.396863" lon="-6.004491">
        <ele>64.420</ele>
        <time>1999-07-22T11:12:01Z</time>
      </trkpt>
      <trkpt lat="43.396917" lon="-6.004633">
        <ele>64.208</ele>
        <time>1999-07-22T11:12:04Z</time>
      </trkpt>
      <trkpt lat="43.396968" lon="-6.004770">
        <ele>64.095</ele>
        <time>1999-07-22T11:12:06Z</time>
      </trkpt>
      <trkpt lat="43.397011" lon="-6.004943">
        <ele>63.840</ele>
        <time>1999-07-22T11:12:08Z</time>
      </trkpt>
      <trkpt lat="43.397060" lon="-6.005559">
        <ele>63.431</ele>
        <time>1999-07-22T11:12:14Z</time>
      </trkpt>
      <trkpt lat="43.397065" lon="-6.005653">
        <ele>63.257</ele>
        <time>1999-07-22T11:12:15Z</time>
      </trkpt>
      <trkpt lat="43.397069" lon="-6.005843">
        <ele>63.043</ele>
        <time>1999-07-22T11:12:17Z</time>
      </trkpt>
      <trkpt lat="43.397064" lon="-6.005936">
        <ele>63.040</ele>
        <time>1999-07-22T11:12:18Z</time>
      </trkpt>
      <trkpt lat="43.397049" lon="-6.006026">
        <ele>62.827</ele>
        <time>1999-07-22T11:12:19Z</time>
      </trkpt>
      <trkpt lat="43.396967" lon="-6.006296">
        <ele>62.043</ele>
        <time>1999-07-22T11:12:22Z</time>
      </trkpt>
      <trkpt lat="43.396894" lon="-6.006463">
        <ele>61.851</ele>
        <time>1999-07-22T11:12:24Z</time>
      </trkpt>
      <trkpt lat="43.396684" lon="-6.006708">
        <ele>61.401</ele>
        <time>1999-07-22T11:12:28Z</time>
      </trkpt>
      <trkpt lat="43.396585" lon="-6.006831">
        <ele>61.211</ele>
        <time>1999-07-22T11:12:30Z</time>
      </trkpt>
      <trkpt lat="43.396517" lon="-6.006981">
        <ele>61.208</ele>
        <time>1999-07-22T11:12:32Z</time>
      </trkpt>
      <trkpt lat="43.396425" lon="-6.007313">
        <ele>61.038</ele>
        <time>1999-07-22T11:12:36Z</time>
      </trkpt>
      <trkpt lat="43.396400" lon="-6.007482">
        <ele>61.093</ele>
        <time>1999-07-22T11:12:38Z</time>
      </trkpt>
      <trkpt lat="43.396380" lon="-6.007894">
        <ele>60.694</ele>
        <time>1999-07-22T11:12:43Z</time>
      </trkpt>
      <trkpt lat="43.396380" lon="-6.007970">
        <ele>60.620</ele>
        <time>1999-07-22T11:12:44Z</time>
      </trkpt>
      <trkpt lat="43.396365" lon="-6.008364">
        <ele>60.266</ele>
        <time>1999-07-22T11:12:49Z</time>
      </trkpt>
      <trkpt lat="43.396371" lon="-6.008507">
        <ele>60.013</ele>
        <time>1999-07-22T11:12:51Z</time>
      </trkpt>
      <trkpt lat="43.396380" lon="-6.008579">
        <ele>60.090</ele>
        <time>1999-07-22T11:12:52Z</time>
      </trkpt>
      <trkpt lat="43.396443" lon="-6.008789">
        <ele>60.046</ele>
        <time>1999-07-22T11:12:55Z</time>
      </trkpt>
      <trkpt lat="43.396538" lon="-6.008975">
        <ele>60.074</ele>
        <time>1999-07-22T11:12:58Z</time>
      </trkpt>
      <trkpt lat="43.396638" lon="-6.009144">
        <ele>60.056</ele>
        <time>1999-07-22T11:13:01Z</time>
      </trkpt>
      <trkpt lat="43.396693" lon="-6.009254">
        <ele>60.021</ele>
        <time>1999-07-22T11:13:03Z</time>
      </trkpt>
      <trkpt lat="43.396732" lon="-6.009393">
        <ele>60.008</ele>
        <time>1999-07-22T11:13:06Z</time>
      </trkpt>
      <trkpt lat="43.396738" lon="-6.009471">
        <ele>60.480</ele>
        <time>1999-07-22T11:13:09Z</time>
      </trkpt>
      <trkpt lat="43.396737" lon="-6.009491">
        <ele>60.485</ele>
        <time>1999-07-22T11:13:10Z</time>
      </trkpt>
      <trkpt lat="43.396730" lon="-6.009513">
        <ele>60.696</ele>
        <time>1999-07-22T11:13:11Z</time>
      </trkpt>
      <trkpt lat="43.396699" lon="-6.009553">
        <ele>61.062</ele>
        <time>1999-07-22T11:13:13Z</time>
      </trkpt>
      <trkpt lat="43.396651" lon="-6.009595">
        <ele>61.268</ele>
        <time>1999-07-22T11:13:15Z</time>
      </trkpt>
      <trkpt lat="43.396620" lon="-6.009618">
        <ele>61.255</ele>
        <time>1999-07-22T11:13:16Z</time>
      </trkpt>
      <trkpt lat="43.396557" lon="-6.009673">
        <ele>61.242</ele>
        <time>1999-07-22T11:13:18Z</time>
      </trkpt>
      <trkpt lat="43.396512" lon="-6.009743">
        <ele>61.288</ele>
        <time>1999-07-22T11:13:20Z</time>
      </trkpt>
      <trkpt lat="43.396504" lon="-6.009757">
        <ele>61.245</ele>
        <time>1999-07-22T11:13:21Z</time>
      </trkpt>
      <trkpt lat="43.396502" lon="-6.009757">
        <ele>61.247</ele>
        <time>1999-07-22T11:13:22Z</time>
      </trkpt>
      <trkpt lat="43.396504" lon="-6.009794">
        <ele>60.411</ele>
        <time>1999-07-22T11:13:35Z</time>
      </trkpt>
      <trkpt lat="43.396515" lon="-6.009816">
        <ele>60.408</ele>
        <time>1999-07-22T11:13:36Z</time>
      </trkpt>
      <trkpt lat="43.396534" lon="-6.009841">
        <ele>60.497</ele>
        <time>1999-07-22T11:13:37Z</time>
      </trkpt>
      <trkpt lat="43.396559" lon="-6.009874">
        <ele>60.442</ele>
        <time>1999-07-22T11:13:38Z</time>
      </trkpt>
      <trkpt lat="43.396620" lon="-6.009952">
        <ele>60.423</ele>
        <time>1999-07-22T11:13:40Z</time>
      </trkpt>
      <trkpt lat="43.396652" lon="-6.009995">
        <ele>60.459</ele>
        <time>1999-07-22T11:13:41Z</time>
      </trkpt>
      <trkpt lat="43.396716" lon="-6.010085">
        <ele>60.465</ele>
        <time>1999-07-22T11:13:43Z</time>
      </trkpt>
      <trkpt lat="43.396869" lon="-6.010340">
        <ele>60.612</ele>
        <time>1999-07-22T11:13:48Z</time>
      </trkpt>
      <trkpt lat="43.396900" lon="-6.010396">
        <ele>60.899</ele>
        <time>1999-07-22T11:13:49Z</time>
      </trkpt>
      <trkpt lat="43.397076" lon="-6.010853">
        <ele>61.035</ele>
        <time>1999-07-22T11:13:56Z</time>
      </trkpt>
      <trkpt lat="43.397172" lon="-6.011228">
        <ele>61.294</ele>
        <time>1999-07-22T11:14:02Z</time>
      </trkpt>
      <trkpt lat="43.397180" lon="-6.011279">
        <ele>61.257</ele>
        <time>1999-07-22T11:14:03Z</time>
      </trkpt>
      <trkpt lat="43.397187" lon="-6.011380">
        <ele>61.222</ele>
        <time>1999-07-22T11:14:05Z</time>
      </trkpt>
      <trkpt lat="43.397184" lon="-6.011536">
        <ele>61.208</ele>
        <time>1999-07-22T11:14:08Z</time>
      </trkpt>
      <trkpt lat="43.397187" lon="-6.011639">
        <ele>61.682</ele>
        <time>1999-07-22T11:14:10Z</time>
      </trkpt>
      <trkpt lat="43.397189" lon="-6.011748">
        <ele>62.877</ele>
        <time>1999-07-22T11:14:12Z</time>
      </trkpt>
      <trkpt lat="43.397181" lon="-6.011855">
        <ele>63.678</ele>
        <time>1999-07-22T11:14:14Z</time>
      </trkpt>
      <trkpt lat="43.397169" lon="-6.011894">
        <ele>63.854</ele>
        <time>1999-07-22T11:14:15Z</time>
      </trkpt>
      <trkpt lat="43.397168" lon="-6.011981">
        <ele>65.280</ele>
        <time>1999-07-22T11:14:18Z</time>
      </trkpt>
      <trkpt lat="43.397171" lon="-6.012028">
        <ele>66.097</ele>
        <time>1999-07-22T11:14:20Z</time>
      </trkpt>
      <trkpt lat="43.397171" lon="-6.012055">
        <ele>66.694</ele>
        <time>1999-07-22T11:14:21Z</time>
      </trkpt>
      <trkpt lat="43.397170" lon="-6.012118">
        <ele>67.050</ele>
        <time>1999-07-22T11:14:23Z</time>
      </trkpt>
      <trkpt lat="43.397158" lon="-6.012187">
        <ele>67.478</ele>
        <time>1999-07-22T11:14:25Z</time>
      </trkpt>
      <trkpt lat="43.397163" lon="-6.012284">
        <ele>67.833</ele>
        <time>1999-07-22T11:14:28Z</time>
      </trkpt>
      <trkpt lat="43.397166" lon="-6.012351">
        <ele>68.026</ele>
        <time>1999-07-22T11:14:30Z</time>
      </trkpt>
      <trkpt lat="43.397157" lon="-6.012442">
        <ele>68.208</ele>
        <time>1999-07-22T11:14:33Z</time>
      </trkpt>
      <trkpt lat="43.397160" lon="-6.012474">
        <ele>68.240</ele>
        <time>1999-07-22T11:14:34Z</time>
      </trkpt>
      <trkpt lat="43.397164" lon="-6.012542">
        <ele>68.615</ele>
        <time>1999-07-22T11:14:36Z</time>
      </trkpt>
      <trkpt lat="43.397154" lon="-6.012789">
        <ele>68.866</ele>
        <time>1999-07-22T11:14:42Z</time>
      </trkpt>
      <trkpt lat="43.397168" lon="-6.013163">
        <ele>69.272</ele>
        <time>1999-07-22T11:14:50Z</time>
      </trkpt>
      <trkpt lat="43.397160" lon="-6.013347">
        <ele>69.868</ele>
        <time>1999-07-22T11:14:54Z</time>
      </trkpt>
      <trkpt lat="43.397135" lon="-6.013492">
        <ele>70.265</ele>
        <time>1999-07-22T11:14:57Z</time>
      </trkpt>
      <trkpt lat="43.397109" lon="-6.013710">
        <ele>70.842</ele>
        <time>1999-07-22T11:15:01Z</time>
      </trkpt>
      <trkpt lat="43.397113" lon="-6.013933">
        <ele>71.218</ele>
        <time>1999-07-22T11:15:05Z</time>
      </trkpt>
      <trkpt lat="43.397174" lon="-6.014058">
        <ele>71.474</ele>
        <time>1999-07-22T11:15:08Z</time>
      </trkpt>
      <trkpt lat="43.397209" lon="-6.014072">
        <ele>71.456</ele>
        <time>1999-07-22T11:15:09Z</time>
      </trkpt>
      <trkpt lat="43.397324" lon="-6.014055">
        <ele>71.621</ele>
        <time>1999-07-22T11:15:12Z</time>
      </trkpt>
      <trkpt lat="43.397370" lon="-6.014036">
        <ele>71.608</ele>
        <time>1999-07-22T11:15:13Z</time>
      </trkpt>
      <trkpt lat="43.397419" lon="-6.014014">
        <ele>71.670</ele>
        <time>1999-07-22T11:15:14Z</time>
      </trkpt>
      <trkpt lat="43.397690" lon="-6.013907">
        <ele>71.875</ele>
        <time>1999-07-22T11:15:19Z</time>
      </trkpt>
      <trkpt lat="43.397814" lon="-6.013865">
        <ele>71.826</ele>
        <time>1999-07-22T11:15:21Z</time>
      </trkpt>
      <trkpt lat="43.397951" lon="-6.013809">
        <ele>71.862</ele>
        <time>1999-07-22T11:15:23Z</time>
      </trkpt>
      <trkpt lat="43.398106" lon="-6.013741">
        <ele>71.648</ele>
        <time>1999-07-22T11:15:25Z</time>
      </trkpt>
      <trkpt lat="43.398389" lon="-6.013651">
        <ele>70.815</ele>
        <time>1999-07-22T11:15:29Z</time>
      </trkpt>
      <trkpt lat="43.398448" lon="-6.013651">
        <ele>70.412</ele>
        <time>1999-07-22T11:15:30Z</time>
      </trkpt>
      <trkpt lat="43.398571" lon="-6.013704">
        <ele>69.698</ele>
        <time>1999-07-22T11:15:32Z</time>
      </trkpt>
      <trkpt lat="43.398631" lon="-6.013747">
        <ele>68.827</ele>
        <time>1999-07-22T11:15:33Z</time>
      </trkpt>
      <trkpt lat="43.398684" lon="-6.013794">
        <ele>68.068</ele>
        <time>1999-07-22T11:15:34Z</time>
      </trkpt>
      <trkpt lat="43.398774" lon="-6.013876">
        <ele>66.414</ele>
        <time>1999-07-22T11:15:36Z</time>
      </trkpt>
      <trkpt lat="43.398813" lon="-6.013912">
        <ele>65.408</ele>
        <time>1999-07-22T11:15:37Z</time>
      </trkpt>
      <trkpt lat="43.398849" lon="-6.013938">
        <ele>64.855</ele>
        <time>1999-07-22T11:15:38Z</time>
      </trkpt>
      <trkpt lat="43.398909" lon="-6.013979">
        <ele>63.490</ele>
        <time>1999-07-22T11:15:40Z</time>
      </trkpt>
      <trkpt lat="43.398934" lon="-6.013991">
        <ele>62.881</ele>
        <time>1999-07-22T11:15:41Z</time>
      </trkpt>
      <trkpt lat="43.398956" lon="-6.013998">
        <ele>62.297</ele>
        <time>1999-07-22T11:15:42Z</time>
      </trkpt>
      <trkpt lat="43.398990" lon="-6.013992">
        <ele>61.093</ele>
        <time>1999-07-22T11:15:44Z</time>
      </trkpt>
      <trkpt lat="43.398994" lon="-6.013994">
        <ele>60.440</ele>
        <time>1999-07-22T11:15:45Z</time>
      </trkpt>
      <trkpt lat="43.398993" lon="-6.013996">
        <ele>60.257</ele>
        <time>1999-07-22T11:15:46Z</time>
      </trkpt>
      <trkpt lat="43.399053" lon="-6.014034">
        <ele>59.653</ele>
        <time>1999-07-22T11:19:52Z</time>
      </trkpt>
      <trkpt lat="43.399074" lon="-6.014088">
        <ele>59.623</ele>
        <time>1999-07-22T11:19:54Z</time>
      </trkpt>
      <trkpt lat="43.399099" lon="-6.014154">
        <ele>59.683</ele>
        <time>1999-07-22T11:19:56Z</time>
      </trkpt>
      <trkpt lat="43.399163" lon="-6.014335">
        <ele>59.811</ele>
        <time>1999-07-22T11:20:01Z</time>
      </trkpt>
      <trkpt lat="43.399166" lon="-6.014376">
        <ele>59.808</ele>
        <time>1999-07-22T11:20:02Z</time>
      </trkpt>
      <trkpt lat="43.399135" lon="-6.014463">
        <ele>60.085</ele>
        <time>1999-07-22T11:20:04Z</time>
      </trkpt>
      <trkpt lat="43.398985" lon="-6.014630">
        <ele>60.030</ele>
        <time>1999-07-22T11:20:08Z</time>
      </trkpt>
      <trkpt lat="43.398939" lon="-6.014667">
        <ele>60.061</ele>
        <time>1999-07-22T11:20:09Z</time>
      </trkpt>
      <trkpt lat="43.398699" lon="-6.014862">
        <ele>59.877</ele>
        <time>1999-07-22T11:20:14Z</time>
      </trkpt>
      <trkpt lat="43.398415" lon="-6.015060">
        <ele>59.473</ele>
        <time>1999-07-22T11:20:19Z</time>
      </trkpt>
      <trkpt lat="43.398350" lon="-6.015104">
        <ele>59.280</ele>
        <time>1999-07-22T11:20:20Z</time>
      </trkpt>
      <trkpt lat="43.398138" lon="-6.015315">
        <ele>59.037</ele>
        <time>1999-07-22T11:20:24Z</time>
      </trkpt>
      <trkpt lat="43.398092" lon="-6.015378">
        <ele>59.083</ele>
        <time>1999-07-22T11:20:25Z</time>
      </trkpt>
      <trkpt lat="43.397895" lon="-6.015621">
        <ele>58.631</ele>
        <time>1999-07-22T11:20:29Z</time>
      </trkpt>
      <trkpt lat="43.397707" lon="-6.015874">
        <ele>58.061</ele>
        <time>1999-07-22T11:20:33Z</time>
      </trkpt>
      <trkpt lat="43.397596" lon="-6.016047">
        <ele>57.807</ele>
        <time>1999-07-22T11:20:36Z</time>
      </trkpt>
      <trkpt lat="43.397571" lon="-6.016113">
        <ele>57.808</ele>
        <time>1999-07-22T11:20:37Z</time>
      </trkpt>
      <trkpt lat="43.397521" lon="-6.016342">
        <ele>57.656</ele>
        <time>1999-07-22T11:20:41Z</time>
      </trkpt>
      <trkpt lat="43.397541" lon="-6.016470">
        <ele>57.671</ele>
        <time>1999-07-22T11:20:44Z</time>
      </trkpt>
      <trkpt lat="43.397558" lon="-6.016552">
        <ele>57.832</ele>
        <time>1999-07-22T11:20:46Z</time>
      </trkpt>
      <trkpt lat="43.397587" lon="-6.016685">
        <ele>58.428</ele>
        <time>1999-07-22T11:20:49Z</time>
      </trkpt>
      <trkpt lat="43.397606" lon="-6.016817">
        <ele>59.464</ele>
        <time>1999-07-22T11:20:52Z</time>
      </trkpt>
      <trkpt lat="43.397608" lon="-6.016864">
        <ele>59.851</ele>
        <time>1999-07-22T11:20:53Z</time>
      </trkpt>
      <trkpt lat="43.397613" lon="-6.016910">
        <ele>60.228</ele>
        <time>1999-07-22T11:20:54Z</time>
      </trkpt>
      <trkpt lat="43.397627" lon="-6.017006">
        <ele>61.044</ele>
        <time>1999-07-22T11:20:56Z</time>
      </trkpt>
      <trkpt lat="43.397627" lon="-6.017193">
        <ele>62.238</ele>
        <time>1999-07-22T11:21:00Z</time>
      </trkpt>
      <trkpt lat="43.397579" lon="-6.017408">
        <ele>63.270</ele>
        <time>1999-07-22T11:21:05Z</time>
      </trkpt>
      <trkpt lat="43.397566" lon="-6.017448">
        <ele>63.417</ele>
        <time>1999-07-22T11:21:06Z</time>
      </trkpt>
      <trkpt lat="43.397500" lon="-6.017640">
        <ele>64.408</ele>
        <time>1999-07-22T11:21:11Z</time>
      </trkpt>
      <trkpt lat="43.397465" lon="-6.017710">
        <ele>64.636</ele>
        <time>1999-07-22T11:21:13Z</time>
      </trkpt>
      <trkpt lat="43.397346" lon="-6.017929">
        <ele>65.411</ele>
        <time>1999-07-22T11:21:19Z</time>
      </trkpt>
      <trkpt lat="43.397240" lon="-6.018080">
        <ele>66.612</ele>
        <time>1999-07-22T11:21:24Z</time>
      </trkpt>
      <trkpt lat="43.397221" lon="-6.018113">
        <ele>66.898</ele>
        <time>1999-07-22T11:21:25Z</time>
      </trkpt>
      <trkpt lat="43.397133" lon="-6.018211">
        <ele>67.614</ele>
        <time>1999-07-22T11:21:29Z</time>
      </trkpt>
      <trkpt lat="43.397067" lon="-6.018285">
        <ele>68.461</ele>
        <time>1999-07-22T11:21:32Z</time>
      </trkpt>
      <trkpt lat="43.397016" lon="-6.018337">
        <ele>68.848</ele>
        <time>1999-07-22T11:21:34Z</time>
      </trkpt>
      <trkpt lat="43.396923" lon="-6.018446">
        <ele>69.644</ele>
        <time>1999-07-22T11:21:38Z</time>
      </trkpt>
      <trkpt lat="43.396869" lon="-6.018498">
        <ele>70.046</ele>
        <time>1999-07-22T11:21:40Z</time>
      </trkpt>
      <trkpt lat="43.396766" lon="-6.018601">
        <ele>71.088</ele>
        <time>1999-07-22T11:21:44Z</time>
      </trkpt>
      <trkpt lat="43.396653" lon="-6.018712">
        <ele>72.216</ele>
        <time>1999-07-22T11:21:49Z</time>
      </trkpt>
      <trkpt lat="43.396527" lon="-6.018869">
        <ele>73.208</ele>
        <time>1999-07-22T11:21:54Z</time>
      </trkpt>
      <trkpt lat="43.396480" lon="-6.018939">
        <ele>73.687</ele>
        <time>1999-07-22T11:21:56Z</time>
      </trkpt>
      <trkpt lat="43.396388" lon="-6.019122">
        <ele>74.472</ele>
        <time>1999-07-22T11:22:00Z</time>
      </trkpt>
      <trkpt lat="43.396356" lon="-6.019241">
        <ele>74.843</ele>
        <time>1999-07-22T11:22:02Z</time>
      </trkpt>
      <trkpt lat="43.396331" lon="-6.019378">
        <ele>75.039</ele>
        <time>1999-07-22T11:22:04Z</time>
      </trkpt>
      <trkpt lat="43.396321" lon="-6.019454">
        <ele>75.095</ele>
        <time>1999-07-22T11:22:05Z</time>
      </trkpt>
      <trkpt lat="43.396319" lon="-6.019541">
        <ele>75.042</ele>
        <time>1999-07-22T11:22:06Z</time>
      </trkpt>
      <trkpt lat="43.396321" lon="-6.019633">
        <ele>75.059</ele>
        <time>1999-07-22T11:22:07Z</time>
      </trkpt>
      <trkpt lat="43.396349" lon="-6.019826">
        <ele>75.055</ele>
        <time>1999-07-22T11:22:09Z</time>
      </trkpt>
      <trkpt lat="43.396371" lon="-6.019927">
        <ele>75.096</ele>
        <time>1999-07-22T11:22:10Z</time>
      </trkpt>
      <trkpt lat="43.396393" lon="-6.020032">
        <ele>75.031</ele>
        <time>1999-07-22T11:22:11Z</time>
      </trkpt>
      <trkpt lat="43.396420" lon="-6.020136">
        <ele>75.024</ele>
        <time>1999-07-22T11:22:12Z</time>
      </trkpt>
      <trkpt lat="43.396494" lon="-6.020351">
        <ele>74.608</ele>
        <time>1999-07-22T11:22:14Z</time>
      </trkpt>
      <trkpt lat="43.396539" lon="-6.020460">
        <ele>74.212</ele>
        <time>1999-07-22T11:22:15Z</time>
      </trkpt>
      <trkpt lat="43.396634" lon="-6.020689">
        <ele>73.267</ele>
        <time>1999-07-22T11:22:17Z</time>
      </trkpt>
      <trkpt lat="43.396680" lon="-6.020810">
        <ele>72.668</ele>
        <time>1999-07-22T11:22:18Z</time>
      </trkpt>
      <trkpt lat="43.396728" lon="-6.020929">
        <ele>72.214</ele>
        <time>1999-07-22T11:22:19Z</time>
      </trkpt>
      <trkpt lat="43.396781" lon="-6.021046">
        <ele>71.650</ele>
        <time>1999-07-22T11:22:20Z</time>
      </trkpt>
      <trkpt lat="43.396836" lon="-6.021161">
        <ele>71.227</ele>
        <time>1999-07-22T11:22:21Z</time>
      </trkpt>
      <trkpt lat="43.396953" lon="-6.021387">
        <ele>70.854</ele>
        <time>1999-07-22T11:22:23Z</time>
      </trkpt>
      <trkpt lat="43.397013" lon="-6.021497">
        <ele>70.460</ele>
        <time>1999-07-22T11:22:24Z</time>
      </trkpt>
      <trkpt lat="43.397117" lon="-6.021705">
        <ele>69.477</ele>
        <time>1999-07-22T11:22:26Z</time>
      </trkpt>
      <trkpt lat="43.397203" lon="-6.021857">
        <ele>68.061</ele>
        <time>1999-07-22T11:22:28Z</time>
      </trkpt>
      <trkpt lat="43.397238" lon="-6.021923">
        <ele>67.627</ele>
        <time>1999-07-22T11:22:29Z</time>
      </trkpt>
      <trkpt lat="43.397267" lon="-6.021991">
        <ele>67.008</ele>
        <time>1999-07-22T11:22:30Z</time>
      </trkpt>
      <trkpt lat="43.397354" lon="-6.022195">
        <ele>65.470</ele>
        <time>1999-07-22T11:22:33Z</time>
      </trkpt>
      <trkpt lat="43.397421" lon="-6.022333">
        <ele>63.855</ele>
        <time>1999-07-22T11:22:35Z</time>
      </trkpt>
      <trkpt lat="43.397485" lon="-6.022475">
        <ele>62.626</ele>
        <time>1999-07-22T11:22:37Z</time>
      </trkpt>
      <trkpt lat="43.397507" lon="-6.022552">
        <ele>62.452</ele>
        <time>1999-07-22T11:22:38Z</time>
      </trkpt>
      <trkpt lat="43.397511" lon="-6.022805">
        <ele>62.078</ele>
        <time>1999-07-22T11:22:41Z</time>
      </trkpt>
      <trkpt lat="43.397475" lon="-6.022975">
        <ele>61.835</ele>
        <time>1999-07-22T11:22:43Z</time>
      </trkpt>
      <trkpt lat="43.397455" lon="-6.023058">
        <ele>61.672</ele>
        <time>1999-07-22T11:22:44Z</time>
      </trkpt>
      <trkpt lat="43.397402" lon="-6.023328">
        <ele>61.298</ele>
        <time>1999-07-22T11:22:47Z</time>
      </trkpt>
      <trkpt lat="43.397339" lon="-6.023584">
        <ele>60.683</ele>
        <time>1999-07-22T11:22:50Z</time>
      </trkpt>
      <trkpt lat="43.397300" lon="-6.023699">
        <ele>60.425</ele>
        <time>1999-07-22T11:22:52Z</time>
      </trkpt>
      <trkpt lat="43.397275" lon="-6.023762">
        <ele>59.817</ele>
        <time>1999-07-22T11:22:55Z</time>
      </trkpt>
      <trkpt lat="43.397267" lon="-6.023782">
        <ele>59.608</ele>
        <time>1999-07-22T11:22:56Z</time>
      </trkpt>
      <trkpt lat="43.397265" lon="-6.023810">
        <ele>59.041</ele>
        <time>1999-07-22T11:22:57Z</time>
      </trkpt>
      <trkpt lat="43.397271" lon="-6.023884">
        <ele>57.856</ele>
        <time>1999-07-22T11:22:59Z</time>
      </trkpt>
      <trkpt lat="43.397287" lon="-6.023991">
        <ele>57.077</ele>
        <time>1999-07-22T11:23:01Z</time>
      </trkpt>
      <trkpt lat="43.397305" lon="-6.024061">
        <ele>56.453</ele>
        <time>1999-07-22T11:23:02Z</time>
      </trkpt>
      <trkpt lat="43.397330" lon="-6.024134">
        <ele>56.029</ele>
        <time>1999-07-22T11:23:03Z</time>
      </trkpt>
      <trkpt lat="43.397493" lon="-6.024367">
        <ele>55.646</ele>
        <time>1999-07-22T11:23:07Z</time>
      </trkpt>
      <trkpt lat="43.397536" lon="-6.024419">
        <ele>55.223</ele>
        <time>1999-07-22T11:23:08Z</time>
      </trkpt>
      <trkpt lat="43.397581" lon="-6.024467">
        <ele>55.029</ele>
        <time>1999-07-22T11:23:09Z</time>
      </trkpt>
      <trkpt lat="43.397707" lon="-6.024596">
        <ele>54.267</ele>
        <time>1999-07-22T11:23:12Z</time>
      </trkpt>
      <trkpt lat="43.397806" lon="-6.024659">
        <ele>53.681</ele>
        <time>1999-07-22T11:23:14Z</time>
      </trkpt>
      <trkpt lat="43.397900" lon="-6.024729">
        <ele>53.019</ele>
        <time>1999-07-22T11:23:16Z</time>
      </trkpt>
      <trkpt lat="43.397947" lon="-6.024774">
        <ele>53.008</ele>
        <time>1999-07-22T11:23:17Z</time>
      </trkpt>
      <trkpt lat="43.398086" lon="-6.024889">
        <ele>52.259</ele>
        <time>1999-07-22T11:23:20Z</time>
      </trkpt>
      <trkpt lat="43.398191" lon="-6.024944">
        <ele>52.014</ele>
        <time>1999-07-22T11:23:22Z</time>
      </trkpt>
      <trkpt lat="43.398240" lon="-6.024973">
        <ele>52.055</ele>
        <time>1999-07-22T11:23:23Z</time>
      </trkpt>
      <trkpt lat="43.398284" lon="-6.025010">
        <ele>52.051</ele>
        <time>1999-07-22T11:23:24Z</time>
      </trkpt>
      <trkpt lat="43.398407" lon="-6.025126">
        <ele>51.677</ele>
        <time>1999-07-22T11:23:27Z</time>
      </trkpt>
      <trkpt lat="43.398521" lon="-6.025226">
        <ele>51.494</ele>
        <time>1999-07-22T11:23:31Z</time>
      </trkpt>
      <trkpt lat="43.398562" lon="-6.025257">
        <ele>51.481</ele>
        <time>1999-07-22T11:23:32Z</time>
      </trkpt>
      <trkpt lat="43.398634" lon="-6.025323">
        <ele>51.277</ele>
        <time>1999-07-22T11:23:34Z</time>
      </trkpt>
      <trkpt lat="43.398657" lon="-6.025361">
        <ele>51.036</ele>
        <time>1999-07-22T11:23:35Z</time>
      </trkpt>
      <trkpt lat="43.398675" lon="-6.025382">
        <ele>51.017</ele>
        <time>1999-07-22T11:23:36Z</time>
      </trkpt>
      <trkpt lat="43.398729" lon="-6.025474">
        <ele>50.218</ele>
        <time>1999-07-22T11:23:41Z</time>
      </trkpt>
      <trkpt lat="43.398761" lon="-6.025490">
        <ele>50.008</ele>
        <time>1999-07-22T11:23:43Z</time>
      </trkpt>
      <trkpt lat="43.398794" lon="-6.025505">
        <ele>49.886</ele>
        <time>1999-07-22T11:23:46Z</time>
      </trkpt>
      <trkpt lat="43.398809" lon="-6.025511">
        <ele>49.891</ele>
        <time>1999-07-22T11:23:47Z</time>
      </trkpt>
      <trkpt lat="43.398854" lon="-6.025527">
        <ele>49.842</ele>
        <time>1999-07-22T11:23:49Z</time>
      </trkpt>
      <trkpt lat="43.398914" lon="-6.025561">
        <ele>49.818</ele>
        <time>1999-07-22T11:23:51Z</time>
      </trkpt>
      <trkpt lat="43.398945" lon="-6.025576">
        <ele>49.884</ele>
        <time>1999-07-22T11:23:52Z</time>
      </trkpt>
      <trkpt lat="43.399043" lon="-6.025652">
        <ele>49.841</ele>
        <time>1999-07-22T11:23:55Z</time>
      </trkpt>
      <trkpt lat="43.399122" lon="-6.025715">
        <ele>50.048</ele>
        <time>1999-07-22T11:23:57Z</time>
      </trkpt>
      <trkpt lat="43.399252" lon="-6.025782">
        <ele>50.614</ele>
        <time>1999-07-22T11:24:01Z</time>
      </trkpt>
      <trkpt lat="43.399285" lon="-6.025793">
        <ele>50.816</ele>
        <time>1999-07-22T11:24:02Z</time>
      </trkpt>
      <trkpt lat="43.399320" lon="-6.025814">
        <ele>51.076</ele>
        <time>1999-07-22T11:24:03Z</time>
      </trkpt>
      <trkpt lat="43.399457" lon="-6.025936">
        <ele>51.813</ele>
        <time>1999-07-22T11:24:07Z</time>
      </trkpt>
      <trkpt lat="43.399491" lon="-6.025962">
        <ele>52.008</ele>
        <time>1999-07-22T11:24:08Z</time>
      </trkpt>
      <trkpt lat="43.399656" lon="-6.026117">
        <ele>52.644</ele>
        <time>1999-07-22T11:24:13Z</time>
      </trkpt>
      <trkpt lat="43.399758" lon="-6.026228">
        <ele>53.099</ele>
        <time>1999-07-22T11:24:16Z</time>
      </trkpt>
      <trkpt lat="43.399793" lon="-6.026260">
        <ele>53.470</ele>
        <time>1999-07-22T11:24:17Z</time>
      </trkpt>
      <trkpt lat="43.399866" lon="-6.026317">
        <ele>53.656</ele>
        <time>1999-07-22T11:24:19Z</time>
      </trkpt>
      <trkpt lat="43.400179" lon="-6.026562">
        <ele>54.042</ele>
        <time>1999-07-22T11:24:26Z</time>
      </trkpt>
      <trkpt lat="43.400385" lon="-6.026706">
        <ele>53.889</ele>
        <time>1999-07-22T11:24:30Z</time>
      </trkpt>
      <trkpt lat="43.400432" lon="-6.026747">
        <ele>54.026</ele>
        <time>1999-07-22T11:24:31Z</time>
      </trkpt>
      <trkpt lat="43.400811" lon="-6.027009">
        <ele>54.092</ele>
        <time>1999-07-22T11:24:38Z</time>
      </trkpt>
      <trkpt lat="43.401064" lon="-6.027162">
        <ele>54.245</ele>
        <time>1999-07-22T11:24:43Z</time>
      </trkpt>
      <trkpt lat="43.401163" lon="-6.027240">
        <ele>54.247</ele>
        <time>1999-07-22T11:24:45Z</time>
      </trkpt>
      <trkpt lat="43.401213" lon="-6.027286">
        <ele>54.211</ele>
        <time>1999-07-22T11:24:46Z</time>
      </trkpt>
      <trkpt lat="43.401314" lon="-6.027385">
        <ele>54.408</ele>
        <time>1999-07-22T11:24:48Z</time>
      </trkpt>
      <trkpt lat="43.401628" lon="-6.027620">
        <ele>54.487</ele>
        <time>1999-07-22T11:24:54Z</time>
      </trkpt>
      <trkpt lat="43.401882" lon="-6.027750">
        <ele>54.052</ele>
        <time>1999-07-22T11:24:58Z</time>
      </trkpt>
      <trkpt lat="43.401938" lon="-6.027773">
        <ele>53.843</ele>
        <time>1999-07-22T11:24:59Z</time>
      </trkpt>
      <trkpt lat="43.402101" lon="-6.027860">
        <ele>53.689</ele>
        <time>1999-07-22T11:25:02Z</time>
      </trkpt>
      <trkpt lat="43.402252" lon="-6.027974">
        <ele>53.245</ele>
        <time>1999-07-22T11:25:05Z</time>
      </trkpt>
      <trkpt lat="43.402314" lon="-6.028042">
        <ele>53.012</ele>
        <time>1999-07-22T11:25:07Z</time>
      </trkpt>
      <trkpt lat="43.402341" lon="-6.028061">
        <ele>53.029</ele>
        <time>1999-07-22T11:25:08Z</time>
      </trkpt>
      <trkpt lat="43.402435" lon="-6.028088">
        <ele>52.075</ele>
        <time>1999-07-22T11:25:12Z</time>
      </trkpt>
      <trkpt lat="43.402448" lon="-6.028101">
        <ele>51.863</ele>
        <time>1999-07-22T11:25:13Z</time>
      </trkpt>
      <trkpt lat="43.402489" lon="-6.028164">
        <ele>51.444</ele>
        <time>1999-07-22T11:25:15Z</time>
      </trkpt>
      <trkpt lat="43.402562" lon="-6.028259">
        <ele>51.218</ele>
        <time>1999-07-22T11:25:17Z</time>
      </trkpt>
      <trkpt lat="43.402609" lon="-6.028303">
        <ele>51.208</ele>
        <time>1999-07-22T11:25:18Z</time>
      </trkpt>
      <trkpt lat="43.402814" lon="-6.028447">
        <ele>51.269</ele>
        <time>1999-07-22T11:25:22Z</time>
      </trkpt>
      <trkpt lat="43.403000" lon="-6.028566">
        <ele>51.294</ele>
        <time>1999-07-22T11:25:26Z</time>
      </trkpt>
      <trkpt lat="43.403057" lon="-6.028642">
        <ele>51.275</ele>
        <time>1999-07-22T11:25:28Z</time>
      </trkpt>
      <trkpt lat="43.403067" lon="-6.028680">
        <ele>51.241</ele>
        <time>1999-07-22T11:25:29Z</time>
      </trkpt>
      <trkpt lat="43.403195" lon="-6.028846">
        <ele>51.217</ele>
        <time>1999-07-22T11:25:34Z</time>
      </trkpt>
      <trkpt lat="43.403288" lon="-6.028952">
        <ele>51.074</ele>
        <time>1999-07-22T11:25:37Z</time>
      </trkpt>
      <trkpt lat="43.403401" lon="-6.029094">
        <ele>51.091</ele>
        <time>1999-07-22T11:25:40Z</time>
      </trkpt>
      <trkpt lat="43.403425" lon="-6.029130">
        <ele>50.827</ele>
        <time>1999-07-22T11:25:41Z</time>
      </trkpt>
      <trkpt lat="43.403486" lon="-6.029189">
        <ele>51.024</ele>
        <time>1999-07-22T11:25:44Z</time>
      </trkpt>
      <trkpt lat="43.403498" lon="-6.029220">
        <ele>51.004</ele>
        <time>1999-07-22T11:25:46Z</time>
      </trkpt>
      <trkpt lat="43.403499" lon="-6.029227">
        <ele>51.214</ele>
        <time>1999-07-22T11:25:47Z</time>
      </trkpt>
      <trkpt lat="43.403661" lon="-6.029672">
        <ele>58.808</ele>
        <time>1999-07-22T11:29:51Z</time>
      </trkpt>
      <trkpt lat="43.403679" lon="-6.029695">
        <ele>58.855</ele>
        <time>1999-07-22T11:29:52Z</time>
      </trkpt>
      <trkpt lat="43.403721" lon="-6.029798">
        <ele>59.090</ele>
        <time>1999-07-22T11:29:55Z</time>
      </trkpt>
      <trkpt lat="43.403737" lon="-6.029837">
        <ele>59.041</ele>
        <time>1999-07-22T11:29:56Z</time>
      </trkpt>
      <trkpt lat="43.403868" lon="-6.030145">
        <ele>59.297</ele>
        <time>1999-07-22T11:30:02Z</time>
      </trkpt>
      <trkpt lat="43.403912" lon="-6.030263">
        <ele>59.463</ele>
        <time>1999-07-22T11:30:04Z</time>
      </trkpt>
      <trkpt lat="43.403957" lon="-6.030382">
        <ele>59.420</ele>
        <time>1999-07-22T11:30:06Z</time>
      </trkpt>
      <trkpt lat="43.404021" lon="-6.030567">
        <ele>59.437</ele>
        <time>1999-07-22T11:30:09Z</time>
      </trkpt>
      <trkpt lat="43.404035" lon="-6.030631">
        <ele>59.643</ele>
        <time>1999-07-22T11:30:10Z</time>
      </trkpt>
      <trkpt lat="43.404049" lon="-6.030762">
        <ele>59.652</ele>
        <time>1999-07-22T11:30:12Z</time>
      </trkpt>
      <trkpt lat="43.404042" lon="-6.030896">
        <ele>59.853</ele>
        <time>1999-07-22T11:30:14Z</time>
      </trkpt>
      <trkpt lat="43.404031" lon="-6.030960">
        <ele>59.808</ele>
        <time>1999-07-22T11:30:15Z</time>
      </trkpt>
      <trkpt lat="43.404002" lon="-6.031076">
        <ele>59.808</ele>
        <time>1999-07-22T11:30:17Z</time>
      </trkpt>
      <trkpt lat="43.403976" lon="-6.031185">
        <ele>60.038</ele>
        <time>1999-07-22T11:30:19Z</time>
      </trkpt>
      <trkpt lat="43.403862" lon="-6.031512">
        <ele>60.243</ele>
        <time>1999-07-22T11:30:25Z</time>
      </trkpt>
      <trkpt lat="43.403771" lon="-6.031768">
        <ele>60.294</ele>
        <time>1999-07-22T11:30:29Z</time>
      </trkpt>
      <trkpt lat="43.403708" lon="-6.031985">
        <ele>60.260</ele>
        <time>1999-07-22T11:30:32Z</time>
      </trkpt>
      <trkpt lat="43.403625" lon="-6.032468">
        <ele>60.486</ele>
        <time>1999-07-22T11:30:38Z</time>
      </trkpt>
      <trkpt lat="43.403634" lon="-6.032971">
        <ele>60.693</ele>
        <time>1999-07-22T11:30:44Z</time>
      </trkpt>
      <trkpt lat="43.403705" lon="-6.033404">
        <ele>60.690</ele>
        <time>1999-07-22T11:30:49Z</time>
      </trkpt>
      <trkpt lat="43.403747" lon="-6.033574">
        <ele>60.626</ele>
        <time>1999-07-22T11:30:51Z</time>
      </trkpt>
      <trkpt lat="43.403874" lon="-6.034190">
        <ele>60.646</ele>
        <time>1999-07-22T11:30:58Z</time>
      </trkpt>
      <trkpt lat="43.403875" lon="-6.034282">
        <ele>60.688</ele>
        <time>1999-07-22T11:30:59Z</time>
      </trkpt>
      <trkpt lat="43.403823" lon="-6.034837">
        <ele>60.616</ele>
        <time>1999-07-22T11:31:05Z</time>
      </trkpt>
      <trkpt lat="43.403820" lon="-6.035396">
        <ele>60.608</ele>
        <time>1999-07-22T11:31:11Z</time>
      </trkpt>
      <trkpt lat="43.403856" lon="-6.036103">
        <ele>60.257</ele>
        <time>1999-07-22T11:31:19Z</time>
      </trkpt>
      <trkpt lat="43.403884" lon="-6.036444">
        <ele>60.012</ele>
        <time>1999-07-22T11:31:23Z</time>
      </trkpt>
      <trkpt lat="43.403903" lon="-6.036609">
        <ele>59.813</ele>
        <time>1999-07-22T11:31:25Z</time>
      </trkpt>
      <trkpt lat="43.403935" lon="-6.036765">
        <ele>59.879</ele>
        <time>1999-07-22T11:31:27Z</time>
      </trkpt>
      <trkpt lat="43.403986" lon="-6.036905">
        <ele>59.625</ele>
        <time>1999-07-22T11:31:29Z</time>
      </trkpt>
      <trkpt lat="43.404052" lon="-6.037037">
        <ele>59.632</ele>
        <time>1999-07-22T11:31:31Z</time>
      </trkpt>
      <trkpt lat="43.404085" lon="-6.037106">
        <ele>59.489</ele>
        <time>1999-07-22T11:31:32Z</time>
      </trkpt>
      <trkpt lat="43.404169" lon="-6.037330">
        <ele>59.085</ele>
        <time>1999-07-22T11:31:35Z</time>
      </trkpt>
      <trkpt lat="43.404192" lon="-6.037503">
        <ele>59.049</ele>
        <time>1999-07-22T11:31:37Z</time>
      </trkpt>
      <trkpt lat="43.404190" lon="-6.037685">
        <ele>58.802</ele>
        <time>1999-07-22T11:31:39Z</time>
      </trkpt>
      <trkpt lat="43.404156" lon="-6.037957">
        <ele>58.622</ele>
        <time>1999-07-22T11:31:42Z</time>
      </trkpt>
      <trkpt lat="43.404083" lon="-6.038609">
        <ele>58.608</ele>
        <time>1999-07-22T11:31:49Z</time>
      </trkpt>
      <trkpt lat="43.404052" lon="-6.039342">
        <ele>58.427</ele>
        <time>1999-07-22T11:31:57Z</time>
      </trkpt>
      <trkpt lat="43.404038" lon="-6.039605">
        <ele>58.432</ele>
        <time>1999-07-22T11:32:00Z</time>
      </trkpt>
      <trkpt lat="43.404018" lon="-6.039961">
        <ele>58.053</ele>
        <time>1999-07-22T11:32:04Z</time>
      </trkpt>
      <trkpt lat="43.404014" lon="-6.040371">
        <ele>57.819</ele>
        <time>1999-07-22T11:32:09Z</time>
      </trkpt>
      <trkpt lat="43.404016" lon="-6.040451">
        <ele>57.815</ele>
        <time>1999-07-22T11:32:10Z</time>
      </trkpt>
      <trkpt lat="43.404019" lon="-6.040532">
        <ele>57.882</ele>
        <time>1999-07-22T11:32:11Z</time>
      </trkpt>
      <trkpt lat="43.404021" lon="-6.040609">
        <ele>57.849</ele>
        <time>1999-07-22T11:32:12Z</time>
      </trkpt>
      <trkpt lat="43.404016" lon="-6.040746">
        <ele>57.625</ele>
        <time>1999-07-22T11:32:14Z</time>
      </trkpt>
      <trkpt lat="43.404005" lon="-6.040860">
        <ele>57.614</ele>
        <time>1999-07-22T11:32:16Z</time>
      </trkpt>
      <trkpt lat="43.403973" lon="-6.040947">
        <ele>57.654</ele>
        <time>1999-07-22T11:32:18Z</time>
      </trkpt>
      <trkpt lat="43.403893" lon="-6.040973">
        <ele>57.409</ele>
        <time>1999-07-22T11:32:20Z</time>
      </trkpt>
      <trkpt lat="43.403803" lon="-6.040963">
        <ele>57.208</ele>
        <time>1999-07-22T11:32:22Z</time>
      </trkpt>
      <trkpt lat="43.403670" lon="-6.040955">
        <ele>56.834</ele>
        <time>1999-07-22T11:32:25Z</time>
      </trkpt>
      <trkpt lat="43.403624" lon="-6.040955">
        <ele>56.869</ele>
        <time>1999-07-22T11:32:26Z</time>
      </trkpt>
      <trkpt lat="43.403480" lon="-6.040954">
        <ele>56.860</ele>
        <time>1999-07-22T11:32:29Z</time>
      </trkpt>
      <trkpt lat="43.403384" lon="-6.040953">
        <ele>56.826</ele>
        <time>1999-07-22T11:32:31Z</time>
      </trkpt>
      <trkpt lat="43.403289" lon="-6.040952">
        <ele>56.872</ele>
        <time>1999-07-22T11:32:33Z</time>
      </trkpt>
      <trkpt lat="43.403188" lon="-6.040956">
        <ele>57.029</ele>
        <time>1999-07-22T11:32:35Z</time>
      </trkpt>
      <trkpt lat="43.403043" lon="-6.040960">
        <ele>57.626</ele>
        <time>1999-07-22T11:32:39Z</time>
      </trkpt>
      <trkpt lat="43.403020" lon="-6.040968">
        <ele>57.692</ele>
        <time>1999-07-22T11:32:41Z</time>
      </trkpt>
      <trkpt lat="43.403008" lon="-6.040989">
        <ele>57.691</ele>
        <time>1999-07-22T11:32:42Z</time>
      </trkpt>
      <trkpt lat="43.403003" lon="-6.041035">
        <ele>57.681</ele>
        <time>1999-07-22T11:32:43Z</time>
      </trkpt>
      <trkpt lat="43.403017" lon="-6.041156">
        <ele>57.619</ele>
        <time>1999-07-22T11:32:45Z</time>
      </trkpt>
      <trkpt lat="43.403034" lon="-6.041297">
        <ele>57.408</ele>
        <time>1999-07-22T11:32:47Z</time>
      </trkpt>
      <trkpt lat="43.403087" lon="-6.041776">
        <ele>56.862</ele>
        <time>1999-07-22T11:32:53Z</time>
      </trkpt>
      <trkpt lat="43.403108" lon="-6.041956">
        <ele>56.877</ele>
        <time>1999-07-22T11:32:55Z</time>
      </trkpt>
      <trkpt lat="43.403119" lon="-6.042049">
        <ele>56.428</ele>
        <time>1999-07-22T11:32:56Z</time>
      </trkpt>
      <trkpt lat="43.403132" lon="-6.042145">
        <ele>56.434</ele>
        <time>1999-07-22T11:32:57Z</time>
      </trkpt>
      <trkpt lat="43.403156" lon="-6.042446">
        <ele>55.650</ele>
        <time>1999-07-22T11:33:00Z</time>
      </trkpt>
      <trkpt lat="43.403157" lon="-6.042553">
        <ele>55.497</ele>
        <time>1999-07-22T11:33:01Z</time>
      </trkpt>
      <trkpt lat="43.403154" lon="-6.042658">
        <ele>55.074</ele>
        <time>1999-07-22T11:33:02Z</time>
      </trkpt>
      <trkpt lat="43.403139" lon="-6.042869">
        <ele>54.420</ele>
        <time>1999-07-22T11:33:04Z</time>
      </trkpt>
      <trkpt lat="43.403133" lon="-6.042979">
        <ele>54.283</ele>
        <time>1999-07-22T11:33:05Z</time>
      </trkpt>
      <trkpt lat="43.403114" lon="-6.043195">
        <ele>53.825</ele>
        <time>1999-07-22T11:33:07Z</time>
      </trkpt>
      <trkpt lat="43.403056" lon="-6.043623">
        <ele>53.217</ele>
        <time>1999-07-22T11:33:11Z</time>
      </trkpt>
      <trkpt lat="43.403015" lon="-6.043831">
        <ele>53.008</ele>
        <time>1999-07-22T11:33:13Z</time>
      </trkpt>
      <trkpt lat="43.402933" lon="-6.044122">
        <ele>51.811</ele>
        <time>1999-07-22T11:33:16Z</time>
      </trkpt>
      <trkpt lat="43.402895" lon="-6.044210">
        <ele>51.696</ele>
        <time>1999-07-22T11:33:17Z</time>
      </trkpt>
      <trkpt lat="43.402801" lon="-6.044359">
        <ele>51.227</ele>
        <time>1999-07-22T11:33:19Z</time>
      </trkpt>
      <trkpt lat="43.402690" lon="-6.044477">
        <ele>51.063</ele>
        <time>1999-07-22T11:33:21Z</time>
      </trkpt>
      <trkpt lat="43.402639" lon="-6.044534">
        <ele>50.879</ele>
        <time>1999-07-22T11:33:22Z</time>
      </trkpt>
      <trkpt lat="43.402513" lon="-6.044723">
        <ele>50.626</ele>
        <time>1999-07-22T11:33:25Z</time>
      </trkpt>
      <trkpt lat="43.402479" lon="-6.044794">
        <ele>50.633</ele>
        <time>1999-07-22T11:33:26Z</time>
      </trkpt>
      <trkpt lat="43.402420" lon="-6.044941">
        <ele>50.629</ele>
        <time>1999-07-22T11:33:28Z</time>
      </trkpt>
      <trkpt lat="43.402374" lon="-6.045083">
        <ele>50.872</ele>
        <time>1999-07-22T11:33:30Z</time>
      </trkpt>
      <trkpt lat="43.402356" lon="-6.045147">
        <ele>50.813</ele>
        <time>1999-07-22T11:33:31Z</time>
      </trkpt>
      <trkpt lat="43.402319" lon="-6.045265">
        <ele>51.014</ele>
        <time>1999-07-22T11:33:34Z</time>
      </trkpt>
      <trkpt lat="43.402311" lon="-6.045290">
        <ele>51.008</ele>
        <time>1999-07-22T11:33:35Z</time>
      </trkpt>
      <trkpt lat="43.402314" lon="-6.045326">
        <ele>51.220</ele>
        <time>1999-07-22T11:33:37Z</time>
      </trkpt>
      <trkpt lat="43.402331" lon="-6.045345">
        <ele>51.225</ele>
        <time>1999-07-22T11:33:38Z</time>
      </trkpt>
      <trkpt lat="43.402357" lon="-6.045364">
        <ele>51.026</ele>
        <time>1999-07-22T11:33:39Z</time>
      </trkpt>
      <trkpt lat="43.402429" lon="-6.045383">
        <ele>51.032</ele>
        <time>1999-07-22T11:33:41Z</time>
      </trkpt>
      <trkpt lat="43.402485" lon="-6.045399">
        <ele>51.298</ele>
        <time>1999-07-22T11:33:43Z</time>
      </trkpt>
      <trkpt lat="43.402517" lon="-6.045391">
        <ele>51.225</ele>
        <time>1999-07-22T11:33:45Z</time>
      </trkpt>
      <trkpt lat="43.402533" lon="-6.045382">
        <ele>51.272</ele>
        <time>1999-07-22T11:33:46Z</time>
      </trkpt>
      <trkpt lat="43.402549" lon="-6.045361">
        <ele>51.038</ele>
        <time>1999-07-22T11:33:47Z</time>
      </trkpt>
      <trkpt lat="43.402570" lon="-6.045295">
        <ele>50.646</ele>
        <time>1999-07-22T11:33:49Z</time>
      </trkpt>
      <trkpt lat="43.402618" lon="-6.045154">
        <ele>49.488</ele>
        <time>1999-07-22T11:33:52Z</time>
      </trkpt>
      <trkpt lat="43.402695" lon="-6.044841">
        <ele>48.616</ele>
        <time>1999-07-22T11:33:58Z</time>
      </trkpt>
      <trkpt lat="43.402703" lon="-6.044795">
        <ele>48.608</ele>
        <time>1999-07-22T11:33:59Z</time>
      </trkpt>
      <trkpt lat="43.402716" lon="-6.044705">
        <ele>48.447</ele>
        <time>1999-07-22T11:34:01Z</time>
      </trkpt>
      <trkpt lat="43.402725" lon="-6.044629">
        <ele>48.422</ele>
        <time>1999-07-22T11:34:03Z</time>
      </trkpt>
      <trkpt lat="43.402723" lon="-6.044593">
        <ele>48.283</ele>
        <time>1999-07-22T11:34:04Z</time>
      </trkpt>
      <trkpt lat="43.402716" lon="-6.044561">
        <ele>48.279</ele>
        <time>1999-07-22T11:34:05Z</time>
      </trkpt>
      <trkpt lat="43.402673" lon="-6.044469">
        <ele>48.245</ele>
        <time>1999-07-22T11:34:09Z</time>
      </trkpt>
      <trkpt lat="43.402713" lon="-6.044459">
        <ele>48.492</ele>
        <time>1999-07-22T11:34:12Z</time>
      </trkpt>
      <trkpt lat="43.402729" lon="-6.044517">
        <ele>48.629</ele>
        <time>1999-07-22T11:34:14Z</time>
      </trkpt>
      <trkpt lat="43.402752" lon="-6.044596">
        <ele>49.095</ele>
        <time>1999-07-22T11:34:16Z</time>
      </trkpt>
      <trkpt lat="43.402762" lon="-6.044650">
        <ele>49.094</ele>
        <time>1999-07-22T11:34:17Z</time>
      </trkpt>
      <trkpt lat="43.402783" lon="-6.044786">
        <ele>49.057</ele>
        <time>1999-07-22T11:34:19Z</time>
      </trkpt>
      <trkpt lat="43.402833" lon="-6.045176">
        <ele>49.022</ele>
        <time>1999-07-22T11:34:24Z</time>
      </trkpt>
      <trkpt lat="43.402795" lon="-6.045503">
        <ele>48.608</ele>
        <time>1999-07-22T11:34:28Z</time>
      </trkpt>
      <trkpt lat="43.402781" lon="-6.045582">
        <ele>48.462</ele>
        <time>1999-07-22T11:34:29Z</time>
      </trkpt>
      <trkpt lat="43.402736" lon="-6.045812">
        <ele>47.817</ele>
        <time>1999-07-22T11:34:32Z</time>
      </trkpt>
      <trkpt lat="43.402673" lon="-6.046198">
        <ele>47.828</ele>
        <time>1999-07-22T11:34:37Z</time>
      </trkpt>
      <trkpt lat="43.402606" lon="-6.046738">
        <ele>47.654</ele>
        <time>1999-07-22T11:34:44Z</time>
      </trkpt>
      <trkpt lat="43.402575" lon="-6.046966">
        <ele>47.440</ele>
        <time>1999-07-22T11:34:47Z</time>
      </trkpt>
      <trkpt lat="43.402553" lon="-6.047106">
        <ele>47.437</ele>
        <time>1999-07-22T11:34:49Z</time>
      </trkpt>
      <trkpt lat="43.402544" lon="-6.047175">
        <ele>47.274</ele>
        <time>1999-07-22T11:34:50Z</time>
      </trkpt>
      <trkpt lat="43.402541" lon="-6.047393">
        <ele>47.260</ele>
        <time>1999-07-22T11:34:54Z</time>
      </trkpt>
      <trkpt lat="43.402561" lon="-6.047484">
        <ele>47.286</ele>
        <time>1999-07-22T11:34:56Z</time>
      </trkpt>
      <trkpt lat="43.402603" lon="-6.047553">
        <ele>47.060</ele>
        <time>1999-07-22T11:34:58Z</time>
      </trkpt>
      <trkpt lat="43.402659" lon="-6.047674">
        <ele>46.826</ele>
        <time>1999-07-22T11:35:01Z</time>
      </trkpt>
      <trkpt lat="43.402662" lon="-6.047717">
        <ele>47.008</ele>
        <time>1999-07-22T11:35:02Z</time>
      </trkpt>
      <trkpt lat="43.402661" lon="-6.047807">
        <ele>47.061</ele>
        <time>1999-07-22T11:35:04Z</time>
      </trkpt>
      <trkpt lat="43.402658" lon="-6.047905">
        <ele>46.876</ele>
        <time>1999-07-22T11:35:06Z</time>
      </trkpt>
      <trkpt lat="43.402645" lon="-6.048010">
        <ele>46.877</ele>
        <time>1999-07-22T11:35:08Z</time>
      </trkpt>
      <trkpt lat="43.402634" lon="-6.048068">
        <ele>46.893</ele>
        <time>1999-07-22T11:35:09Z</time>
      </trkpt>
      <trkpt lat="43.402619" lon="-6.048127">
        <ele>46.889</ele>
        <time>1999-07-22T11:35:10Z</time>
      </trkpt>
      <trkpt lat="43.402583" lon="-6.048264">
        <ele>47.236</ele>
        <time>1999-07-22T11:35:12Z</time>
      </trkpt>
      <trkpt lat="43.402562" lon="-6.048337">
        <ele>47.623</ele>
        <time>1999-07-22T11:35:13Z</time>
      </trkpt>
      <trkpt lat="43.402479" lon="-6.048562">
        <ele>48.079</ele>
        <time>1999-07-22T11:35:16Z</time>
      </trkpt>
      <trkpt lat="43.402419" lon="-6.048711">
        <ele>48.266</ele>
        <time>1999-07-22T11:35:18Z</time>
      </trkpt>
      <trkpt lat="43.402265" lon="-6.049074">
        <ele>48.229</ele>
        <time>1999-07-22T11:35:23Z</time>
      </trkpt>
      <trkpt lat="43.402235" lon="-6.049151">
        <ele>48.021</ele>
        <time>1999-07-22T11:35:24Z</time>
      </trkpt>
      <trkpt lat="43.401999" lon="-6.049676">
        <ele>47.808</ele>
        <time>1999-07-22T11:35:31Z</time>
      </trkpt>
      <trkpt lat="43.401888" lon="-6.049890">
        <ele>47.899</ele>
        <time>1999-07-22T11:35:34Z</time>
      </trkpt>
      <trkpt lat="43.401711" lon="-6.050262">
        <ele>48.074</ele>
        <time>1999-07-22T11:35:39Z</time>
      </trkpt>
      <trkpt lat="43.401549" lon="-6.050750">
        <ele>48.075</ele>
        <time>1999-07-22T11:35:45Z</time>
      </trkpt>
      <trkpt lat="43.401509" lon="-6.050924">
        <ele>48.251</ele>
        <time>1999-07-22T11:35:47Z</time>
      </trkpt>
      <trkpt lat="43.401374" lon="-6.051426">
        <ele>48.257</ele>
        <time>1999-07-22T11:35:53Z</time>
      </trkpt>
      <trkpt lat="43.401270" lon="-6.051758">
        <ele>48.294</ele>
        <time>1999-07-22T11:35:57Z</time>
      </trkpt>
      <trkpt lat="43.401216" lon="-6.052026">
        <ele>48.261</ele>
        <time>1999-07-22T11:36:00Z</time>
      </trkpt>
      <trkpt lat="43.401149" lon="-6.052581">
        <ele>48.287</ele>
        <time>1999-07-22T11:36:06Z</time>
      </trkpt>
      <trkpt lat="43.401068" lon="-6.053223">
        <ele>48.026</ele>
        <time>1999-07-22T11:36:13Z</time>
      </trkpt>
      <trkpt lat="43.400944" lon="-6.053790">
        <ele>48.047</ele>
        <time>1999-07-22T11:36:19Z</time>
      </trkpt>
      <trkpt lat="43.400790" lon="-6.054335">
        <ele>47.011</ele>
        <time>1999-07-22T11:36:25Z</time>
      </trkpt>
      <trkpt lat="43.400769" lon="-6.054426">
        <ele>47.008</ele>
        <time>1999-07-22T11:36:26Z</time>
      </trkpt>
      <trkpt lat="43.400652" lon="-6.055071">
        <ele>46.885</ele>
        <time>1999-07-22T11:36:33Z</time>
      </trkpt>
      <trkpt lat="43.400570" lon="-6.055541">
        <ele>46.840</ele>
        <time>1999-07-22T11:36:38Z</time>
      </trkpt>
      <trkpt lat="43.400558" lon="-6.055638">
        <ele>46.861</ele>
        <time>1999-07-22T11:36:39Z</time>
      </trkpt>
      <trkpt lat="43.400557" lon="-6.055842">
        <ele>46.817</ele>
        <time>1999-07-22T11:36:41Z</time>
      </trkpt>
      <trkpt lat="43.400549" lon="-6.056048">
        <ele>46.843</ele>
        <time>1999-07-22T11:36:43Z</time>
      </trkpt>
      <trkpt lat="43.400501" lon="-6.056238">
        <ele>46.840</ele>
        <time>1999-07-22T11:36:45Z</time>
      </trkpt>
      <trkpt lat="43.400362" lon="-6.056458">
        <ele>46.827</ele>
        <time>1999-07-22T11:36:48Z</time>
      </trkpt>
      <trkpt lat="43.400304" lon="-6.056512">
        <ele>46.663</ele>
        <time>1999-07-22T11:36:49Z</time>
      </trkpt>
      <trkpt lat="43.400193" lon="-6.056629">
        <ele>46.612</ele>
        <time>1999-07-22T11:36:51Z</time>
      </trkpt>
      <trkpt lat="43.400054" lon="-6.056837">
        <ele>46.432</ele>
        <time>1999-07-22T11:36:54Z</time>
      </trkpt>
      <trkpt lat="43.399752" lon="-6.057364">
        <ele>46.405</ele>
        <time>1999-07-22T11:37:01Z</time>
      </trkpt>
      <trkpt lat="43.399355" lon="-6.057908">
        <ele>46.408</ele>
        <time>1999-07-22T11:37:09Z</time>
      </trkpt>
      <trkpt lat="43.399101" lon="-6.058226">
        <ele>46.244</ele>
        <time>1999-07-22T11:37:14Z</time>
      </trkpt>
      <trkpt lat="43.399060" lon="-6.058303">
        <ele>46.249</ele>
        <time>1999-07-22T11:37:15Z</time>
      </trkpt>
      <trkpt lat="43.398961" lon="-6.058646">
        <ele>46.260</ele>
        <time>1999-07-22T11:37:19Z</time>
      </trkpt>
      <trkpt lat="43.398952" lon="-6.058738">
        <ele>46.286</ele>
        <time>1999-07-22T11:37:20Z</time>
      </trkpt>
      <trkpt lat="43.398883" lon="-6.059377">
        <ele>46.472</ele>
        <time>1999-07-22T11:37:27Z</time>
      </trkpt>
      <trkpt lat="43.398786" lon="-6.059916">
        <ele>46.629</ele>
        <time>1999-07-22T11:37:33Z</time>
      </trkpt>
      <trkpt lat="43.398636" lon="-6.060362">
        <ele>46.666</ele>
        <time>1999-07-22T11:37:38Z</time>
      </trkpt>
      <trkpt lat="43.398325" lon="-6.060858">
        <ele>46.652</ele>
        <time>1999-07-22T11:37:45Z</time>
      </trkpt>
      <trkpt lat="43.398218" lon="-6.060961">
        <ele>46.432</ele>
        <time>1999-07-22T11:37:47Z</time>
      </trkpt>
      <trkpt lat="43.398043" lon="-6.061080">
        <ele>46.492</ele>
        <time>1999-07-22T11:37:50Z</time>
      </trkpt>
      <trkpt lat="43.397820" lon="-6.061241">
        <ele>46.411</ele>
        <time>1999-07-22T11:37:54Z</time>
      </trkpt>
      <trkpt lat="43.397708" lon="-6.061313">
        <ele>46.408</ele>
        <time>1999-07-22T11:37:56Z</time>
      </trkpt>
      <trkpt lat="43.397481" lon="-6.061448">
        <ele>46.616</ele>
        <time>1999-07-22T11:38:00Z</time>
      </trkpt>
      <trkpt lat="43.397208" lon="-6.061632">
        <ele>47.051</ele>
        <time>1999-07-22T11:38:05Z</time>
      </trkpt>
      <trkpt lat="43.396918" lon="-6.061745">
        <ele>47.252</ele>
        <time>1999-07-22T11:38:10Z</time>
      </trkpt>
      <trkpt lat="43.396551" lon="-6.061777">
        <ele>47.248</ele>
        <time>1999-07-22T11:38:16Z</time>
      </trkpt>
      <trkpt lat="43.396430" lon="-6.061817">
        <ele>47.414</ele>
        <time>1999-07-22T11:38:18Z</time>
      </trkpt>
      <trkpt lat="43.396260" lon="-6.061907">
        <ele>47.851</ele>
        <time>1999-07-22T11:38:21Z</time>
      </trkpt>
      <trkpt lat="43.396130" lon="-6.061999">
        <ele>47.878</ele>
        <time>1999-07-22T11:38:24Z</time>
      </trkpt>
      <trkpt lat="43.396091" lon="-6.062013">
        <ele>48.054</ele>
        <time>1999-07-22T11:38:25Z</time>
      </trkpt>
      <trkpt lat="43.395935" lon="-6.062045">
        <ele>48.251</ele>
        <time>1999-07-22T11:38:29Z</time>
      </trkpt>
      <trkpt lat="43.395901" lon="-6.062066">
        <ele>48.201</ele>
        <time>1999-07-22T11:38:30Z</time>
      </trkpt>
      <trkpt lat="43.395872" lon="-6.062098">
        <ele>48.411</ele>
        <time>1999-07-22T11:38:31Z</time>
      </trkpt>
      <trkpt lat="43.395834" lon="-6.062234">
        <ele>48.408</ele>
        <time>1999-07-22T11:38:34Z</time>
      </trkpt>
      <trkpt lat="43.395825" lon="-6.062279">
        <ele>48.468</ele>
        <time>1999-07-22T11:38:35Z</time>
      </trkpt>
      <trkpt lat="43.395818" lon="-6.062321">
        <ele>48.463</ele>
        <time>1999-07-22T11:38:36Z</time>
      </trkpt>
      <trkpt lat="43.395822" lon="-6.062362">
        <ele>48.454</ele>
        <time>1999-07-22T11:38:37Z</time>
      </trkpt>
      <trkpt lat="43.395843" lon="-6.062389">
        <ele>48.440</ele>
        <time>1999-07-22T11:38:38Z</time>
      </trkpt>
      <trkpt lat="43.395943" lon="-6.062382">
        <ele>48.426</ele>
        <time>1999-07-22T11:38:41Z</time>
      </trkpt>
      <trkpt lat="43.396026" lon="-6.062373">
        <ele>48.413</ele>
        <time>1999-07-22T11:38:43Z</time>
      </trkpt>
      <trkpt lat="43.396127" lon="-6.062395">
        <ele>48.470</ele>
        <time>1999-07-22T11:38:46Z</time>
      </trkpt>
      <trkpt lat="43.396145" lon="-6.062420">
        <ele>48.446</ele>
        <time>1999-07-22T11:38:47Z</time>
      </trkpt>
      <trkpt lat="43.396159" lon="-6.062498">
        <ele>48.446</ele>
        <time>1999-07-22T11:38:49Z</time>
      </trkpt>
      <trkpt lat="43.396166" lon="-6.062607">
        <ele>48.488</ele>
        <time>1999-07-22T11:38:51Z</time>
      </trkpt>
      <trkpt lat="43.396169" lon="-6.062665">
        <ele>48.416</ele>
        <time>1999-07-22T11:38:52Z</time>
      </trkpt>
      <trkpt lat="43.396170" lon="-6.062787">
        <ele>48.408</ele>
        <time>1999-07-22T11:38:54Z</time>
      </trkpt>
      <trkpt lat="43.396166" lon="-6.062852">
        <ele>48.427</ele>
        <time>1999-07-22T11:38:55Z</time>
      </trkpt>
      <trkpt lat="43.396084" lon="-6.062995">
        <ele>48.452</ele>
        <time>1999-07-22T11:38:58Z</time>
      </trkpt>
      <trkpt lat="43.396035" lon="-6.063007">
        <ele>48.453</ele>
        <time>1999-07-22T11:38:59Z</time>
      </trkpt>
      <trkpt lat="43.395931" lon="-6.063001">
        <ele>48.229</ele>
        <time>1999-07-22T11:39:01Z</time>
      </trkpt>
      <trkpt lat="43.395880" lon="-6.063002">
        <ele>48.295</ele>
        <time>1999-07-22T11:39:02Z</time>
      </trkpt>
      <trkpt lat="43.395771" lon="-6.062995">
        <ele>48.212</ele>
        <time>1999-07-22T11:39:04Z</time>
      </trkpt>
      <trkpt lat="43.395657" lon="-6.062988">
        <ele>48.289</ele>
        <time>1999-07-22T11:39:06Z</time>
      </trkpt>
      <trkpt lat="43.395544" lon="-6.062983">
        <ele>48.285</ele>
        <time>1999-07-22T11:39:08Z</time>
      </trkpt>
      <trkpt lat="43.395259" lon="-6.062977">
        <ele>48.475</ele>
        <time>1999-07-22T11:39:13Z</time>
      </trkpt>
      <trkpt lat="43.395155" lon="-6.062973">
        <ele>48.428</ele>
        <time>1999-07-22T11:39:15Z</time>
      </trkpt>
      <trkpt lat="43.395045" lon="-6.062975">
        <ele>48.820</ele>
        <time>1999-07-22T11:39:18Z</time>
      </trkpt>
      <trkpt lat="43.395017" lon="-6.062978">
        <ele>48.808</ele>
        <time>1999-07-22T11:39:19Z</time>
      </trkpt>
      <trkpt lat="43.394997" lon="-6.062978">
        <ele>49.040</ele>
        <time>1999-07-22T11:39:20Z</time>
      </trkpt>
      <trkpt lat="43.394889" lon="-6.062974">
        <ele>49.095</ele>
        <time>1999-07-22T11:39:24Z</time>
      </trkpt>
      <trkpt lat="43.394831" lon="-6.062995">
        <ele>49.066</ele>
        <time>1999-07-22T11:39:26Z</time>
      </trkpt>
      <trkpt lat="43.394798" lon="-6.063075">
        <ele>49.042</ele>
        <time>1999-07-22T11:39:28Z</time>
      </trkpt>
      <trkpt lat="43.394773" lon="-6.063246">
        <ele>49.268</ele>
        <time>1999-07-22T11:39:31Z</time>
      </trkpt>
      <trkpt lat="43.394760" lon="-6.063431">
        <ele>49.655</ele>
        <time>1999-07-22T11:39:34Z</time>
      </trkpt>
      <trkpt lat="43.394793" lon="-6.063627">
        <ele>49.882</ele>
        <time>1999-07-22T11:39:37Z</time>
      </trkpt>
      <trkpt lat="43.394821" lon="-6.063687">
        <ele>50.098</ele>
        <time>1999-07-22T11:39:38Z</time>
      </trkpt>
      <trkpt lat="43.395022" lon="-6.064025">
        <ele>50.277</ele>
        <time>1999-07-22T11:39:44Z</time>
      </trkpt>
      <trkpt lat="43.395055" lon="-6.064285">
        <ele>50.861</ele>
        <time>1999-07-22T11:39:48Z</time>
      </trkpt>
      <trkpt lat="43.394987" lon="-6.064449">
        <ele>50.827</ele>
        <time>1999-07-22T11:39:51Z</time>
      </trkpt>
      <trkpt lat="43.394869" lon="-6.064727">
        <ele>50.808</ele>
        <time>1999-07-22T11:39:56Z</time>
      </trkpt>
      <trkpt lat="43.394746" lon="-6.064833">
        <ele>51.090</ele>
        <time>1999-07-22T11:39:59Z</time>
      </trkpt>
      <trkpt lat="43.394638" lon="-6.064866">
        <ele>51.065</ele>
        <time>1999-07-22T11:40:01Z</time>
      </trkpt>
      <trkpt lat="43.394323" lon="-6.064962">
        <ele>51.486</ele>
        <time>1999-07-22T11:40:07Z</time>
      </trkpt>
      <trkpt lat="43.394228" lon="-6.064991">
        <ele>51.482</ele>
        <time>1999-07-22T11:40:09Z</time>
      </trkpt>
      <trkpt lat="43.394140" lon="-6.065043">
        <ele>51.418</ele>
        <time>1999-07-22T11:40:11Z</time>
      </trkpt>
      <trkpt lat="43.394106" lon="-6.065082">
        <ele>51.475</ele>
        <time>1999-07-22T11:40:12Z</time>
      </trkpt>
      <trkpt lat="43.394098" lon="-6.065115">
        <ele>51.482</ele>
        <time>1999-07-22T11:40:13Z</time>
      </trkpt>
      <trkpt lat="43.394142" lon="-6.065195">
        <ele>51.438</ele>
        <time>1999-07-22T11:40:15Z</time>
      </trkpt>
      <trkpt lat="43.394154" lon="-6.065366">
        <ele>51.453</ele>
        <time>1999-07-22T11:40:18Z</time>
      </trkpt>
      <trkpt lat="43.394049" lon="-6.065451">
        <ele>51.404</ele>
        <time>1999-07-22T11:40:21Z</time>
      </trkpt>
      <trkpt lat="43.393912" lon="-6.065460">
        <ele>51.414</ele>
        <time>1999-07-22T11:40:24Z</time>
      </trkpt>
      <trkpt lat="43.393769" lon="-6.065460">
        <ele>51.408</ele>
        <time>1999-07-22T11:40:27Z</time>
      </trkpt>
      <trkpt lat="43.393675" lon="-6.065466">
        <ele>51.428</ele>
        <time>1999-07-22T11:40:29Z</time>
      </trkpt>
      <trkpt lat="43.393631" lon="-6.065472">
        <ele>51.423</ele>
        <time>1999-07-22T11:40:30Z</time>
      </trkpt>
      <trkpt lat="43.393548" lon="-6.065473">
        <ele>51.424</ele>
        <time>1999-07-22T11:40:32Z</time>
      </trkpt>
      <trkpt lat="43.393448" lon="-6.065465">
        <ele>51.430</ele>
        <time>1999-07-22T11:40:36Z</time>
      </trkpt>
      <trkpt lat="43.393444" lon="-6.065466">
        <ele>51.476</ele>
        <time>1999-07-22T11:40:37Z</time>
      </trkpt>
      <trkpt lat="43.393304" lon="-6.065513">
        <ele>55.443</ele>
        <time>1999-07-22T11:41:22Z</time>
      </trkpt>
      <trkpt lat="43.393309" lon="-6.065598">
        <ele>55.430</ele>
        <time>1999-07-22T11:41:24Z</time>
      </trkpt>
      <trkpt lat="43.393313" lon="-6.065707">
        <ele>55.476</ele>
        <time>1999-07-22T11:41:26Z</time>
      </trkpt>
      <trkpt lat="43.393316" lon="-6.065827">
        <ele>55.484</ele>
        <time>1999-07-22T11:41:28Z</time>
      </trkpt>
      <trkpt lat="43.393326" lon="-6.065952">
        <ele>55.407</ele>
        <time>1999-07-22T11:41:30Z</time>
      </trkpt>
      <trkpt lat="43.393362" lon="-6.066448">
        <ele>55.617</ele>
        <time>1999-07-22T11:41:37Z</time>
      </trkpt>
      <trkpt lat="43.393312" lon="-6.066712">
        <ele>55.808</ele>
        <time>1999-07-22T11:41:41Z</time>
      </trkpt>
      <trkpt lat="43.393234" lon="-6.066865">
        <ele>56.091</ele>
        <time>1999-07-22T11:41:44Z</time>
      </trkpt>
      <trkpt lat="43.393169" lon="-6.066957">
        <ele>56.066</ele>
        <time>1999-07-22T11:41:46Z</time>
      </trkpt>
      <trkpt lat="43.393131" lon="-6.066998">
        <ele>56.267</ele>
        <time>1999-07-22T11:41:47Z</time>
      </trkpt>
      <trkpt lat="43.393004" lon="-6.067083">
        <ele>56.483</ele>
        <time>1999-07-22T11:41:50Z</time>
      </trkpt>
      <trkpt lat="43.392961" lon="-6.067114">
        <ele>56.499</ele>
        <time>1999-07-22T11:41:51Z</time>
      </trkpt>
      <trkpt lat="43.392877" lon="-6.067245">
        <ele>56.836</ele>
        <time>1999-07-22T11:41:54Z</time>
      </trkpt>
      <trkpt lat="43.392756" lon="-6.067311">
        <ele>57.273</ele>
        <time>1999-07-22T11:41:57Z</time>
      </trkpt>
      <trkpt lat="43.392662" lon="-6.067317">
        <ele>57.479</ele>
        <time>1999-07-22T11:41:59Z</time>
      </trkpt>
      <trkpt lat="43.392516" lon="-6.067333">
        <ele>57.651</ele>
        <time>1999-07-22T11:42:02Z</time>
      </trkpt>
      <trkpt lat="43.392468" lon="-6.067344">
        <ele>57.801</ele>
        <time>1999-07-22T11:42:03Z</time>
      </trkpt>
      <trkpt lat="43.392376" lon="-6.067378">
        <ele>58.011</ele>
        <time>1999-07-22T11:42:05Z</time>
      </trkpt>
      <trkpt lat="43.392238" lon="-6.067439">
        <ele>58.208</ele>
        <time>1999-07-22T11:42:08Z</time>
      </trkpt>
      <trkpt lat="43.391982" lon="-6.067529">
        <ele>58.628</ele>
        <time>1999-07-22T11:42:14Z</time>
      </trkpt>
      <trkpt lat="43.391946" lon="-6.067541">
        <ele>58.863</ele>
        <time>1999-07-22T11:42:15Z</time>
      </trkpt>
      <trkpt lat="43.391873" lon="-6.067562">
        <ele>59.094</ele>
        <time>1999-07-22T11:42:17Z</time>
      </trkpt>
      <trkpt lat="43.391750" lon="-6.067600">
        <ele>59.290</ele>
        <time>1999-07-22T11:42:20Z</time>
      </trkpt>
      <trkpt lat="43.391432" lon="-6.067722">
        <ele>59.816</ele>
        <time>1999-07-22T11:42:28Z</time>
      </trkpt>
      <trkpt lat="43.391286" lon="-6.067882">
        <ele>60.213</ele>
        <time>1999-07-22T11:42:34Z</time>
      </trkpt>
      <trkpt lat="43.391265" lon="-6.068097">
        <ele>60.810</ele>
        <time>1999-07-22T11:42:38Z</time>
      </trkpt>
      <trkpt lat="43.391203" lon="-6.068197">
        <ele>61.416</ele>
        <time>1999-07-22T11:42:41Z</time>
      </trkpt>
      <trkpt lat="43.391190" lon="-6.068229">
        <ele>62.055</ele>
        <time>1999-07-22T11:42:44Z</time>
      </trkpt>
      <trkpt lat="43.391192" lon="-6.068231">
        <ele>62.007</ele>
        <time>1999-07-22T11:42:45Z</time>
      </trkpt>
      <trkpt lat="43.391186" lon="-6.068154">
        <ele>62.417</ele>
        <time>1999-07-22T11:43:42Z</time>
      </trkpt>
      <trkpt lat="43.391166" lon="-6.068137">
        <ele>62.408</ele>
        <time>1999-07-22T11:43:43Z</time>
      </trkpt>
      <trkpt lat="43.391141" lon="-6.068120">
        <ele>62.418</ele>
        <time>1999-07-22T11:43:44Z</time>
      </trkpt>
      <trkpt lat="43.391078" lon="-6.068082">
        <ele>62.433</ele>
        <time>1999-07-22T11:43:46Z</time>
      </trkpt>
      <trkpt lat="43.391047" lon="-6.068048">
        <ele>62.474</ele>
        <time>1999-07-22T11:43:47Z</time>
      </trkpt>
      <trkpt lat="43.390973" lon="-6.067994">
        <ele>62.430</ele>
        <time>1999-07-22T11:43:49Z</time>
      </trkpt>
      <trkpt lat="43.390877" lon="-6.067981">
        <ele>62.296</ele>
        <time>1999-07-22T11:43:52Z</time>
      </trkpt>
      <trkpt lat="43.390849" lon="-6.067981">
        <ele>62.283</ele>
        <time>1999-07-22T11:43:53Z</time>
      </trkpt>
      <trkpt lat="43.390820" lon="-6.067978">
        <ele>62.280</ele>
        <time>1999-07-22T11:43:54Z</time>
      </trkpt>
      <trkpt lat="43.390658" lon="-6.067971">
        <ele>61.866</ele>
        <time>1999-07-22T11:43:59Z</time>
      </trkpt>
      <trkpt lat="43.390624" lon="-6.067971">
        <ele>61.866</ele>
        <time>1999-07-22T11:44:00Z</time>
      </trkpt>
      <trkpt lat="43.390518" lon="-6.067956">
        <ele>61.829</ele>
        <time>1999-07-22T11:44:03Z</time>
      </trkpt>
      <trkpt lat="43.390444" lon="-6.067955">
        <ele>61.821</ele>
        <time>1999-07-22T11:44:05Z</time>
      </trkpt>
      <trkpt lat="43.390408" lon="-6.067960">
        <ele>61.808</ele>
        <time>1999-07-22T11:44:06Z</time>
      </trkpt>
      <trkpt lat="43.390301" lon="-6.067963">
        <ele>62.019</ele>
        <time>1999-07-22T11:44:09Z</time>
      </trkpt>
      <trkpt lat="43.390158" lon="-6.067967">
        <ele>62.024</ele>
        <time>1999-07-22T11:44:13Z</time>
      </trkpt>
      <trkpt lat="43.389949" lon="-6.067981">
        <ele>62.425</ele>
        <time>1999-07-22T11:44:20Z</time>
      </trkpt>
      <trkpt lat="43.389918" lon="-6.067965">
        <ele>62.661</ele>
        <time>1999-07-22T11:44:22Z</time>
      </trkpt>
      <trkpt lat="43.389906" lon="-6.067932">
        <ele>62.637</ele>
        <time>1999-07-22T11:44:24Z</time>
      </trkpt>
      <trkpt lat="43.389910" lon="-6.067889">
        <ele>62.844</ele>
        <time>1999-07-22T11:44:27Z</time>
      </trkpt>
      <trkpt lat="43.389900" lon="-6.067886">
        <ele>62.831</ele>
        <time>1999-07-22T11:44:28Z</time>
      </trkpt>
      <trkpt lat="43.389865" lon="-6.067918">
        <ele>63.037</ele>
        <time>1999-07-22T11:44:31Z</time>
      </trkpt>
      <trkpt lat="43.389869" lon="-6.067943">
        <ele>63.041</ele>
        <time>1999-07-22T11:44:32Z</time>
      </trkpt>
      <trkpt lat="43.389874" lon="-6.068031">
        <ele>63.081</ele>
        <time>1999-07-22T11:44:35Z</time>
      </trkpt>
      <trkpt lat="43.389860" lon="-6.068092">
        <ele>63.009</ele>
        <time>1999-07-22T11:44:37Z</time>
      </trkpt>
      <trkpt lat="43.389846" lon="-6.068184">
        <ele>63.208</ele>
        <time>1999-07-22T11:44:40Z</time>
      </trkpt>
      <trkpt lat="43.389860" lon="-6.068233">
        <ele>63.237</ele>
        <time>1999-07-22T11:44:42Z</time>
      </trkpt>
      <trkpt lat="43.389874" lon="-6.068326">
        <ele>64.082</ele>
        <time>1999-07-22T11:44:46Z</time>
      </trkpt>
      <trkpt lat="43.389901" lon="-6.068359">
        <ele>64.093</ele>
        <time>1999-07-22T11:44:48Z</time>
      </trkpt>
      <trkpt lat="43.389913" lon="-6.068373">
        <ele>64.299</ele>
        <time>1999-07-22T11:44:49Z</time>
      </trkpt>
      <trkpt lat="43.389956" lon="-6.068396">
        <ele>64.675</ele>
        <time>1999-07-22T11:44:52Z</time>
      </trkpt>
      <trkpt lat="43.390002" lon="-6.068432">
        <ele>65.052</ele>
        <time>1999-07-22T11:44:57Z</time>
      </trkpt>
      <trkpt lat="43.390017" lon="-6.068421">
        <ele>65.059</ele>
        <time>1999-07-22T11:44:58Z</time>
      </trkpt>
      <trkpt lat="43.390036" lon="-6.068397">
        <ele>65.095</ele>
        <time>1999-07-22T11:45:00Z</time>
      </trkpt>
      <trkpt lat="43.390035" lon="-6.068397">
        <ele>65.052</ele>
        <time>1999-07-22T11:45:01Z</time>
      </trkpt>
      <trkpt lat="43.390036" lon="-6.068396">
        <ele>65.053</ele>
        <time>1999-07-22T11:45:03Z</time>
      </trkpt>
      <trkpt lat="43.390088" lon="-6.068401">
        <ele>65.008</ele>
        <time>1999-07-22T11:45:06Z</time>
      </trkpt>
      <trkpt lat="43.390137" lon="-6.068408">
        <ele>65.008</ele>
        <time>1999-07-22T11:45:08Z</time>
      </trkpt>
      <trkpt lat="43.390179" lon="-6.068396">
        <ele>64.658</ele>
        <time>1999-07-22T11:45:11Z</time>
      </trkpt>
      <trkpt lat="43.390183" lon="-6.068377">
        <ele>64.613</ele>
        <time>1999-07-22T11:45:12Z</time>
      </trkpt>
      <trkpt lat="43.390179" lon="-6.068243">
        <ele>64.214</ele>
        <time>1999-07-22T11:45:16Z</time>
      </trkpt>
      <trkpt lat="43.390183" lon="-6.068196">
        <ele>64.240</ele>
        <time>1999-07-22T11:45:17Z</time>
      </trkpt>
      <trkpt lat="43.390197" lon="-6.068105">
        <ele>64.076</ele>
        <time>1999-07-22T11:45:19Z</time>
      </trkpt>
      <trkpt lat="43.390209" lon="-6.068076">
        <ele>64.013</ele>
        <time>1999-07-22T11:45:20Z</time>
      </trkpt>
      <trkpt lat="43.390239" lon="-6.068054">
        <ele>63.820</ele>
        <time>1999-07-22T11:45:21Z</time>
      </trkpt>
      <trkpt lat="43.390412" lon="-6.067978">
        <ele>63.646</ele>
        <time>1999-07-22T11:45:27Z</time>
      </trkpt>
      <trkpt lat="43.390453" lon="-6.067958">
        <ele>63.426</ele>
        <time>1999-07-22T11:45:28Z</time>
      </trkpt>
      <trkpt lat="43.390493" lon="-6.067943">
        <ele>63.447</ele>
        <time>1999-07-22T11:45:29Z</time>
      </trkpt>
      <trkpt lat="43.390536" lon="-6.067935">
        <ele>63.411</ele>
        <time>1999-07-22T11:45:30Z</time>
      </trkpt>
      <trkpt lat="43.390580" lon="-6.067932">
        <ele>63.208</ele>
        <time>1999-07-22T11:45:31Z</time>
      </trkpt>
      <trkpt lat="43.390624" lon="-6.067933">
        <ele>63.225</ele>
        <time>1999-07-22T11:45:32Z</time>
      </trkpt>
      <trkpt lat="43.390794" lon="-6.067940">
        <ele>63.250</ele>
        <time>1999-07-22T11:45:36Z</time>
      </trkpt>
      <trkpt lat="43.390832" lon="-6.067942">
        <ele>63.231</ele>
        <time>1999-07-22T11:45:37Z</time>
      </trkpt>
      <trkpt lat="43.390861" lon="-6.067934">
        <ele>63.227</ele>
        <time>1999-07-22T11:45:38Z</time>
      </trkpt>
      <trkpt lat="43.390872" lon="-6.067920">
        <ele>63.013</ele>
        <time>1999-07-22T11:45:39Z</time>
      </trkpt>
      <trkpt lat="43.390862" lon="-6.067907">
        <ele>63.070</ele>
        <time>1999-07-22T11:45:41Z</time>
      </trkpt>
      <trkpt lat="43.390770" lon="-6.067892">
        <ele>62.897</ele>
        <time>1999-07-22T11:45:45Z</time>
      </trkpt>
      <trkpt lat="43.390658" lon="-6.067855">
        <ele>62.083</ele>
        <time>1999-07-22T11:45:49Z</time>
      </trkpt>
      <trkpt lat="43.390621" lon="-6.067843">
        <ele>61.863</ele>
        <time>1999-07-22T11:45:50Z</time>
      </trkpt>
      <trkpt lat="43.390489" lon="-6.067796">
        <ele>61.244</ele>
        <time>1999-07-22T11:45:53Z</time>
      </trkpt>
      <trkpt lat="43.390439" lon="-6.067781">
        <ele>61.018</ele>
        <time>1999-07-22T11:45:54Z</time>
      </trkpt>
      <trkpt lat="43.390385" lon="-6.067767">
        <ele>60.808</ele>
        <time>1999-07-22T11:45:55Z</time>
      </trkpt>
      <trkpt lat="43.390331" lon="-6.067760">
        <ele>60.639</ele>
        <time>1999-07-22T11:45:56Z</time>
      </trkpt>
      <trkpt lat="43.390122" lon="-6.067756">
        <ele>60.094</ele>
        <time>1999-07-22T11:46:00Z</time>
      </trkpt>
      <trkpt lat="43.390033" lon="-6.067767">
        <ele>59.655</ele>
        <time>1999-07-22T11:46:02Z</time>
      </trkpt>
      <trkpt lat="43.389951" lon="-6.067788">
        <ele>59.261</ele>
        <time>1999-07-22T11:46:04Z</time>
      </trkpt>
      <trkpt lat="43.389910" lon="-6.067796">
        <ele>58.877</ele>
        <time>1999-07-22T11:46:05Z</time>
      </trkpt>
      <trkpt lat="43.389872" lon="-6.067801">
        <ele>58.464</ele>
        <time>1999-07-22T11:46:06Z</time>
      </trkpt>
      <trkpt lat="43.389743" lon="-6.067801">
        <ele>58.091</ele>
        <time>1999-07-22T11:46:10Z</time>
      </trkpt>
      <trkpt lat="43.389725" lon="-6.067799">
        <ele>58.017</ele>
        <time>1999-07-22T11:46:11Z</time>
      </trkpt>
      <trkpt lat="43.389704" lon="-6.067810">
        <ele>58.036</ele>
        <time>1999-07-22T11:46:15Z</time>
      </trkpt>
      <trkpt lat="43.389639" lon="-6.067859">
        <ele>58.817</ele>
        <time>1999-07-22T11:46:59Z</time>
      </trkpt>
      <trkpt lat="43.389613" lon="-6.067872">
        <ele>58.818</ele>
        <time>1999-07-22T11:47:00Z</time>
      </trkpt>
      <trkpt lat="43.389588" lon="-6.067886">
        <ele>58.808</ele>
        <time>1999-07-22T11:47:01Z</time>
      </trkpt>
      <trkpt lat="43.389542" lon="-6.067919">
        <ele>58.896</ele>
        <time>1999-07-22T11:47:03Z</time>
      </trkpt>
      <trkpt lat="43.389494" lon="-6.067954">
        <ele>58.881</ele>
        <time>1999-07-22T11:47:05Z</time>
      </trkpt>
      <trkpt lat="43.389446" lon="-6.067983">
        <ele>59.292</ele>
        <time>1999-07-22T11:47:07Z</time>
      </trkpt>
      <trkpt lat="43.389395" lon="-6.067999">
        <ele>60.028</ele>
        <time>1999-07-22T11:47:10Z</time>
      </trkpt>
      <trkpt lat="43.389383" lon="-6.068001">
        <ele>60.644</ele>
        <time>1999-07-22T11:47:11Z</time>
      </trkpt>
      <trkpt lat="43.389375" lon="-6.068002">
        <ele>61.061</ele>
        <time>1999-07-22T11:47:12Z</time>
      </trkpt>
      <trkpt lat="43.389370" lon="-6.068000">
        <ele>61.248</ele>
        <time>1999-07-22T11:47:13Z</time>
      </trkpt>
      <trkpt lat="43.389365" lon="-6.067996">
        <ele>61.894</ele>
        <time>1999-07-22T11:47:15Z</time>
      </trkpt>
      <trkpt lat="43.389314" lon="-6.068091">
        <ele>63.654</ele>
        <time>1999-07-22T11:47:22Z</time>
      </trkpt>
      <trkpt lat="43.389306" lon="-6.068121">
        <ele>63.656</ele>
        <time>1999-07-22T11:47:23Z</time>
      </trkpt>
      <trkpt lat="43.389328" lon="-6.068255">
        <ele>63.811</ele>
        <time>1999-07-22T11:47:27Z</time>
      </trkpt>
      <trkpt lat="43.389331" lon="-6.068279">
        <ele>63.808</ele>
        <time>1999-07-22T11:47:28Z</time>
      </trkpt>
      <trkpt lat="43.389353" lon="-6.068335">
        <ele>64.048</ele>
        <time>1999-07-22T11:47:31Z</time>
      </trkpt>
      <trkpt lat="43.389394" lon="-6.068360">
        <ele>64.443</ele>
        <time>1999-07-22T11:47:33Z</time>
      </trkpt>
      <trkpt lat="43.389392" lon="-6.068387">
        <ele>64.434</ele>
        <time>1999-07-22T11:47:37Z</time>
      </trkpt>
      <trkpt lat="43.389396" lon="-6.068491">
        <ele>64.630</ele>
        <time>1999-07-22T11:47:41Z</time>
      </trkpt>
      <trkpt lat="43.389394" lon="-6.068536">
        <ele>64.616</ele>
        <time>1999-07-22T11:47:43Z</time>
      </trkpt>
      <trkpt lat="43.389389" lon="-6.068552">
        <ele>64.673</ele>
        <time>1999-07-22T11:47:44Z</time>
      </trkpt>
      <trkpt lat="43.389376" lon="-6.068589">
        <ele>64.830</ele>
        <time>1999-07-22T11:47:46Z</time>
      </trkpt>
      <trkpt lat="43.389374" lon="-6.068609">
        <ele>65.026</ele>
        <time>1999-07-22T11:47:48Z</time>
      </trkpt>
      <trkpt lat="43.389380" lon="-6.068631">
        <ele>65.225</ele>
        <time>1999-07-22T11:47:50Z</time>
      </trkpt>
      <trkpt lat="43.389374" lon="-6.068643">
        <ele>65.226</ele>
        <time>1999-07-22T11:47:52Z</time>
      </trkpt>
      <trkpt lat="43.389364" lon="-6.068655">
        <ele>65.408</ele>
        <time>1999-07-22T11:47:54Z</time>
      </trkpt>
      <trkpt lat="43.389325" lon="-6.068684">
        <ele>65.408</ele>
        <time>1999-07-22T11:47:57Z</time>
      </trkpt>
      <trkpt lat="43.389308" lon="-6.068710">
        <ele>65.485</ele>
        <time>1999-07-22T11:47:59Z</time>
      </trkpt>
      <trkpt lat="43.389292" lon="-6.068717">
        <ele>65.460</ele>
        <time>1999-07-22T11:48:03Z</time>
      </trkpt>
      <trkpt lat="43.389274" lon="-6.068886">
        <ele>65.431</ele>
        <time>1999-07-22T11:48:43Z</time>
      </trkpt>
      <trkpt lat="43.389273" lon="-6.068917">
        <ele>65.467</ele>
        <time>1999-07-22T11:48:44Z</time>
      </trkpt>
      <trkpt lat="43.389270" lon="-6.068953">
        <ele>65.433</ele>
        <time>1999-07-22T11:48:45Z</time>
      </trkpt>
      <trkpt lat="43.389249" lon="-6.069133">
        <ele>65.410</ele>
        <time>1999-07-22T11:48:50Z</time>
      </trkpt>
      <trkpt lat="43.389253" lon="-6.069287">
        <ele>65.647</ele>
        <time>1999-07-22T11:48:55Z</time>
      </trkpt>
      <trkpt lat="43.389257" lon="-6.069353">
        <ele>66.093</ele>
        <time>1999-07-22T11:48:57Z</time>
      </trkpt>
      <trkpt lat="43.389265" lon="-6.069422">
        <ele>66.451</ele>
        <time>1999-07-22T11:48:59Z</time>
      </trkpt>
      <trkpt lat="43.389247" lon="-6.069520">
        <ele>66.601</ele>
        <time>1999-07-22T11:49:01Z</time>
      </trkpt>
      <trkpt lat="43.389232" lon="-6.069576">
        <ele>66.611</ele>
        <time>1999-07-22T11:49:02Z</time>
      </trkpt>
      <trkpt lat="43.389213" lon="-6.069670">
        <ele>66.808</ele>
        <time>1999-07-22T11:49:04Z</time>
      </trkpt>
      <trkpt lat="43.389190" lon="-6.069762">
        <ele>67.218</ele>
        <time>1999-07-22T11:49:06Z</time>
      </trkpt>
      <trkpt lat="43.389186" lon="-6.069847">
        <ele>67.693</ele>
        <time>1999-07-22T11:49:08Z</time>
      </trkpt>
      <trkpt lat="43.389183" lon="-6.069886">
        <ele>68.074</ele>
        <time>1999-07-22T11:49:09Z</time>
      </trkpt>
      <trkpt lat="43.389168" lon="-6.069996">
        <ele>68.670</ele>
        <time>1999-07-22T11:49:12Z</time>
      </trkpt>
      <trkpt lat="43.389162" lon="-6.070066">
        <ele>69.246</ele>
        <time>1999-07-22T11:49:14Z</time>
      </trkpt>
      <trkpt lat="43.389154" lon="-6.070098">
        <ele>69.613</ele>
        <time>1999-07-22T11:49:15Z</time>
      </trkpt>
      <trkpt lat="43.389119" lon="-6.070199">
        <ele>70.440</ele>
        <time>1999-07-22T11:49:18Z</time>
      </trkpt>
      <trkpt lat="43.389108" lon="-6.070284">
        <ele>71.086</ele>
        <time>1999-07-22T11:49:21Z</time>
      </trkpt>
      <trkpt lat="43.389095" lon="-6.070340">
        <ele>71.445</ele>
        <time>1999-07-22T11:49:23Z</time>
      </trkpt>
      <trkpt lat="43.389061" lon="-6.070385">
        <ele>71.847</ele>
        <time>1999-07-22T11:49:25Z</time>
      </trkpt>
      <trkpt lat="43.389043" lon="-6.070400">
        <ele>71.811</ele>
        <time>1999-07-22T11:49:26Z</time>
      </trkpt>
      <trkpt lat="43.388971" lon="-6.070435">
        <ele>72.808</ele>
        <time>1999-07-22T11:49:30Z</time>
      </trkpt>
      <trkpt lat="43.388951" lon="-6.070454">
        <ele>73.057</ele>
        <time>1999-07-22T11:49:31Z</time>
      </trkpt>
      <trkpt lat="43.388899" lon="-6.070575">
        <ele>73.472</ele>
        <time>1999-07-22T11:49:35Z</time>
      </trkpt>
      <trkpt lat="43.388890" lon="-6.070614">
        <ele>73.463</ele>
        <time>1999-07-22T11:49:36Z</time>
      </trkpt>
      <trkpt lat="43.388876" lon="-6.070722">
        <ele>73.419</ele>
        <time>1999-07-22T11:49:39Z</time>
      </trkpt>
      <trkpt lat="43.388879" lon="-6.070736">
        <ele>73.635</ele>
        <time>1999-07-22T11:49:40Z</time>
      </trkpt>
      <trkpt lat="43.388865" lon="-6.070757">
        <ele>73.672</ele>
        <time>1999-07-22T11:49:42Z</time>
      </trkpt>
      <trkpt lat="43.388852" lon="-6.070775">
        <ele>73.669</ele>
        <time>1999-07-22T11:49:43Z</time>
      </trkpt>
      <trkpt lat="43.388811" lon="-6.070796">
        <ele>73.625</ele>
        <time>1999-07-22T11:49:45Z</time>
      </trkpt>
      <trkpt lat="43.388761" lon="-6.070812">
        <ele>73.659</ele>
        <time>1999-07-22T11:49:47Z</time>
      </trkpt>
      <trkpt lat="43.388723" lon="-6.070840">
        <ele>73.603</ele>
        <time>1999-07-22T11:49:49Z</time>
      </trkpt>
      <trkpt lat="43.388669" lon="-6.070985">
        <ele>73.423</ele>
        <time>1999-07-22T11:49:55Z</time>
      </trkpt>
      <trkpt lat="43.388620" lon="-6.071119">
        <ele>73.408</ele>
        <time>1999-07-22T11:50:01Z</time>
      </trkpt>
      <trkpt lat="43.388607" lon="-6.071189">
        <ele>73.478</ele>
        <time>1999-07-22T11:50:07Z</time>
      </trkpt>
      <trkpt lat="43.388606" lon="-6.071232">
        <ele>73.673</ele>
        <time>1999-07-22T11:50:10Z</time>
      </trkpt>
      <trkpt lat="43.388592" lon="-6.071333">
        <ele>73.684</ele>
        <time>1999-07-22T11:50:14Z</time>
      </trkpt>
      <trkpt lat="43.388566" lon="-6.071429">
        <ele>73.870</ele>
        <time>1999-07-22T11:50:17Z</time>
      </trkpt>
      <trkpt lat="43.388576" lon="-6.071462">
        <ele>73.866</ele>
        <time>1999-07-22T11:50:18Z</time>
      </trkpt>
      <trkpt lat="43.388584" lon="-6.071515">
        <ele>73.833</ele>
        <time>1999-07-22T11:50:21Z</time>
      </trkpt>
      <trkpt lat="43.388582" lon="-6.071525">
        <ele>74.080</ele>
        <time>1999-07-22T11:50:22Z</time>
      </trkpt>
      <trkpt lat="43.388578" lon="-6.071535">
        <ele>74.086</ele>
        <time>1999-07-22T11:50:24Z</time>
      </trkpt>
      <trkpt lat="43.388525" lon="-6.071713">
        <ele>74.482</ele>
        <time>1999-07-22T11:50:37Z</time>
      </trkpt>
      <trkpt lat="43.388493" lon="-6.071816">
        <ele>74.443</ele>
        <time>1999-07-22T11:50:39Z</time>
      </trkpt>
      <trkpt lat="43.388447" lon="-6.072071">
        <ele>74.817</ele>
        <time>1999-07-22T11:50:45Z</time>
      </trkpt>
      <trkpt lat="43.388439" lon="-6.072106">
        <ele>74.808</ele>
        <time>1999-07-22T11:50:47Z</time>
      </trkpt>
      <trkpt lat="43.388436" lon="-6.072120">
        <ele>74.871</ele>
        <time>1999-07-22T11:50:48Z</time>
      </trkpt>
      <trkpt lat="43.388441" lon="-6.072150">
        <ele>75.016</ele>
        <time>1999-07-22T11:50:50Z</time>
      </trkpt>
      <trkpt lat="43.388447" lon="-6.072207">
        <ele>75.257</ele>
        <time>1999-07-22T11:50:53Z</time>
      </trkpt>
      <trkpt lat="43.388434" lon="-6.072255">
        <ele>75.243</ele>
        <time>1999-07-22T11:50:55Z</time>
      </trkpt>
      <trkpt lat="43.388416" lon="-6.072355">
        <ele>75.219</ele>
        <time>1999-07-22T11:50:57Z</time>
      </trkpt>
      <trkpt lat="43.388409" lon="-6.072411">
        <ele>75.246</ele>
        <time>1999-07-22T11:50:58Z</time>
      </trkpt>
      <trkpt lat="43.388398" lon="-6.072466">
        <ele>75.453</ele>
        <time>1999-07-22T11:50:59Z</time>
      </trkpt>
      <trkpt lat="43.388359" lon="-6.072618">
        <ele>75.469</ele>
        <time>1999-07-22T11:51:02Z</time>
      </trkpt>
      <trkpt lat="43.388326" lon="-6.072803">
        <ele>75.869</ele>
        <time>1999-07-22T11:51:06Z</time>
      </trkpt>
      <trkpt lat="43.388316" lon="-6.072858">
        <ele>76.004</ele>
        <time>1999-07-22T11:51:07Z</time>
      </trkpt>
      <trkpt lat="43.388254" lon="-6.073023">
        <ele>76.424</ele>
        <time>1999-07-22T11:51:10Z</time>
      </trkpt>
      <trkpt lat="43.388244" lon="-6.073068">
        <ele>76.608</ele>
        <time>1999-07-22T11:51:11Z</time>
      </trkpt>
      <trkpt lat="43.388240" lon="-6.073156">
        <ele>77.049</ele>
        <time>1999-07-22T11:51:14Z</time>
      </trkpt>
      <trkpt lat="43.388231" lon="-6.073193">
        <ele>77.264</ele>
        <time>1999-07-22T11:51:15Z</time>
      </trkpt>
      <trkpt lat="43.388140" lon="-6.073309">
        <ele>77.445</ele>
        <time>1999-07-22T11:51:18Z</time>
      </trkpt>
      <trkpt lat="43.388074" lon="-6.073377">
        <ele>77.821</ele>
        <time>1999-07-22T11:51:20Z</time>
      </trkpt>
      <trkpt lat="43.388020" lon="-6.073441">
        <ele>78.237</ele>
        <time>1999-07-22T11:51:22Z</time>
      </trkpt>
      <trkpt lat="43.387949" lon="-6.073513">
        <ele>78.474</ele>
        <time>1999-07-22T11:51:24Z</time>
      </trkpt>
      <trkpt lat="43.387890" lon="-6.073572">
        <ele>78.421</ele>
        <time>1999-07-22T11:51:26Z</time>
      </trkpt>
      <trkpt lat="43.387815" lon="-6.073632">
        <ele>78.467</ele>
        <time>1999-07-22T11:51:28Z</time>
      </trkpt>
      <trkpt lat="43.387741" lon="-6.073702">
        <ele>78.617</ele>
        <time>1999-07-22T11:51:30Z</time>
      </trkpt>
      <trkpt lat="43.387659" lon="-6.073795">
        <ele>78.687</ele>
        <time>1999-07-22T11:51:32Z</time>
      </trkpt>
      <trkpt lat="43.387489" lon="-6.073956">
        <ele>78.615</ele>
        <time>1999-07-22T11:51:36Z</time>
      </trkpt>
      <trkpt lat="43.387439" lon="-6.074003">
        <ele>78.608</ele>
        <time>1999-07-22T11:51:37Z</time>
      </trkpt>
      <trkpt lat="43.386995" lon="-6.074375">
        <ele>78.894</ele>
        <time>1999-07-22T11:51:46Z</time>
      </trkpt>
      <trkpt lat="43.386776" lon="-6.074633">
        <ele>79.079</ele>
        <time>1999-07-22T11:51:51Z</time>
      </trkpt>
      <trkpt lat="43.386527" lon="-6.074964">
        <ele>79.260</ele>
        <time>1999-07-22T11:51:57Z</time>
      </trkpt>
      <trkpt lat="43.386248" lon="-6.075279">
        <ele>79.476</ele>
        <time>1999-07-22T11:52:03Z</time>
      </trkpt>
      <trkpt lat="43.386203" lon="-6.075334">
        <ele>79.492</ele>
        <time>1999-07-22T11:52:04Z</time>
      </trkpt>
      <trkpt lat="43.386169" lon="-6.075395">
        <ele>79.679</ele>
        <time>1999-07-22T11:52:05Z</time>
      </trkpt>
      <trkpt lat="43.386025" lon="-6.075631">
        <ele>80.036</ele>
        <time>1999-07-22T11:52:09Z</time>
      </trkpt>
      <trkpt lat="43.385790" lon="-6.075920">
        <ele>80.462</ele>
        <time>1999-07-22T11:52:14Z</time>
      </trkpt>
      <trkpt lat="43.385747" lon="-6.075977">
        <ele>80.478</ele>
        <time>1999-07-22T11:52:15Z</time>
      </trkpt>
      <trkpt lat="43.385548" lon="-6.076285">
        <ele>80.633</ele>
        <time>1999-07-22T11:52:20Z</time>
      </trkpt>
      <trkpt lat="43.385516" lon="-6.076349">
        <ele>80.626</ele>
        <time>1999-07-22T11:52:21Z</time>
      </trkpt>
      <trkpt lat="43.385437" lon="-6.076550">
        <ele>80.608</ele>
        <time>1999-07-22T11:52:24Z</time>
      </trkpt>
      <trkpt lat="43.385407" lon="-6.076689">
        <ele>81.050</ele>
        <time>1999-07-22T11:52:26Z</time>
      </trkpt>
      <trkpt lat="43.385374" lon="-6.076901">
        <ele>81.285</ele>
        <time>1999-07-22T11:52:29Z</time>
      </trkpt>
      <trkpt lat="43.385369" lon="-6.076971">
        <ele>81.266</ele>
        <time>1999-07-22T11:52:30Z</time>
      </trkpt>
      <trkpt lat="43.385371" lon="-6.077043">
        <ele>81.462</ele>
        <time>1999-07-22T11:52:31Z</time>
      </trkpt>
      <trkpt lat="43.385373" lon="-6.077113">
        <ele>81.638</ele>
        <time>1999-07-22T11:52:32Z</time>
      </trkpt>
      <trkpt lat="43.385380" lon="-6.077311">
        <ele>82.465</ele>
        <time>1999-07-22T11:52:35Z</time>
      </trkpt>
      <trkpt lat="43.385402" lon="-6.077537">
        <ele>83.442</ele>
        <time>1999-07-22T11:52:39Z</time>
      </trkpt>
      <trkpt lat="43.385409" lon="-6.077588">
        <ele>83.828</ele>
        <time>1999-07-22T11:52:40Z</time>
      </trkpt>
      <trkpt lat="43.385425" lon="-6.077736">
        <ele>84.868</ele>
        <time>1999-07-22T11:52:44Z</time>
      </trkpt>
      <trkpt lat="43.385406" lon="-6.077766">
        <ele>85.442</ele>
        <time>1999-07-22T11:52:46Z</time>
      </trkpt>
      <trkpt lat="43.385377" lon="-6.077746">
        <ele>85.626</ele>
        <time>1999-07-22T11:52:48Z</time>
      </trkpt>
      <trkpt lat="43.385332" lon="-6.077693">
        <ele>85.808</ele>
        <time>1999-07-22T11:52:50Z</time>
      </trkpt>
      <trkpt lat="43.385262" lon="-6.077642">
        <ele>86.299</ele>
        <time>1999-07-22T11:52:52Z</time>
      </trkpt>
      <trkpt lat="43.385179" lon="-6.077604">
        <ele>86.644</ele>
        <time>1999-07-22T11:52:54Z</time>
      </trkpt>
      <trkpt lat="43.385060" lon="-6.077618">
        <ele>86.885</ele>
        <time>1999-07-22T11:52:57Z</time>
      </trkpt>
      <trkpt lat="43.385016" lon="-6.077704">
        <ele>86.821</ele>
        <time>1999-07-22T11:52:59Z</time>
      </trkpt>
      <trkpt lat="43.384975" lon="-6.077787">
        <ele>87.017</ele>
        <time>1999-07-22T11:53:01Z</time>
      </trkpt>
      <trkpt lat="43.384934" lon="-6.077933">
        <ele>87.264</ele>
        <time>1999-07-22T11:53:05Z</time>
      </trkpt>
      <trkpt lat="43.384932" lon="-6.077956">
        <ele>87.291</ele>
        <time>1999-07-22T11:53:06Z</time>
      </trkpt>
      <trkpt lat="43.384943" lon="-6.078041">
        <ele>88.277</ele>
        <time>1999-07-22T11:53:10Z</time>
      </trkpt>
      <trkpt lat="43.384945" lon="-6.078064">
        <ele>88.685</ele>
        <time>1999-07-22T11:53:11Z</time>
      </trkpt>
      <trkpt lat="43.384946" lon="-6.078110">
        <ele>89.289</ele>
        <time>1999-07-22T11:53:13Z</time>
      </trkpt>
      <trkpt lat="43.384947" lon="-6.078132">
        <ele>89.617</ele>
        <time>1999-07-22T11:53:14Z</time>
      </trkpt>
      <trkpt lat="43.384971" lon="-6.078224">
        <ele>91.008</ele>
        <time>1999-07-22T11:53:18Z</time>
      </trkpt>
      <trkpt lat="43.384983" lon="-6.078269">
        <ele>91.491</ele>
        <time>1999-07-22T11:53:20Z</time>
      </trkpt>
      <trkpt lat="43.385003" lon="-6.078338">
        <ele>92.226</ele>
        <time>1999-07-22T11:53:23Z</time>
      </trkpt>
      <trkpt lat="43.385009" lon="-6.078439">
        <ele>93.497</ele>
        <time>1999-07-22T11:53:27Z</time>
      </trkpt>
      <trkpt lat="43.385013" lon="-6.078463">
        <ele>93.673</ele>
        <time>1999-07-22T11:53:28Z</time>
      </trkpt>
      <trkpt lat="43.385028" lon="-6.078559">
        <ele>94.499</ele>
        <time>1999-07-22T11:53:32Z</time>
      </trkpt>
      <trkpt lat="43.385044" lon="-6.078650">
        <ele>95.486</ele>
        <time>1999-07-22T11:53:36Z</time>
      </trkpt>
      <trkpt lat="43.385049" lon="-6.078672">
        <ele>95.663</ele>
        <time>1999-07-22T11:53:37Z</time>
      </trkpt>
      <trkpt lat="43.385072" lon="-6.078751">
        <ele>96.669</ele>
        <time>1999-07-22T11:53:41Z</time>
      </trkpt>
      <trkpt lat="43.385081" lon="-6.078817">
        <ele>97.676</ele>
        <time>1999-07-22T11:53:44Z</time>
      </trkpt>
      <trkpt lat="43.385082" lon="-6.078840">
        <ele>98.090</ele>
        <time>1999-07-22T11:53:45Z</time>
      </trkpt>
      <trkpt lat="43.385084" lon="-6.078884">
        <ele>98.619</ele>
        <time>1999-07-22T11:53:47Z</time>
      </trkpt>
      <trkpt lat="43.385101" lon="-6.078947">
        <ele>99.808</ele>
        <time>1999-07-22T11:53:50Z</time>
      </trkpt>
      <trkpt lat="43.385104" lon="-6.078994">
        <ele>100.420</ele>
        <time>1999-07-22T11:53:52Z</time>
      </trkpt>
      <trkpt lat="43.385099" lon="-6.079069">
        <ele>101.075</ele>
        <time>1999-07-22T11:53:55Z</time>
      </trkpt>
      <trkpt lat="43.385085" lon="-6.079192">
        <ele>102.036</ele>
        <time>1999-07-22T11:54:00Z</time>
      </trkpt>
      <trkpt lat="43.385081" lon="-6.079241">
        <ele>102.262</ele>
        <time>1999-07-22T11:54:02Z</time>
      </trkpt>
      <trkpt lat="43.385060" lon="-6.079357">
        <ele>103.298</ele>
        <time>1999-07-22T11:54:07Z</time>
      </trkpt>
      <trkpt lat="43.385047" lon="-6.079426">
        <ele>104.285</ele>
        <time>1999-07-22T11:54:10Z</time>
      </trkpt>
      <trkpt lat="43.385034" lon="-6.079469">
        <ele>104.682</ele>
        <time>1999-07-22T11:54:12Z</time>
      </trkpt>
      <trkpt lat="43.385022" lon="-6.079564">
        <ele>105.648</ele>
        <time>1999-07-22T11:54:16Z</time>
      </trkpt>
      <trkpt lat="43.385020" lon="-6.079588">
        <ele>106.249</ele>
        <time>1999-07-22T11:54:17Z</time>
      </trkpt>
      <trkpt lat="43.385013" lon="-6.079638">
        <ele>107.002</ele>
        <time>1999-07-22T11:54:19Z</time>
      </trkpt>
      <trkpt lat="43.384997" lon="-6.079704">
        <ele>108.022</ele>
        <time>1999-07-22T11:54:22Z</time>
      </trkpt>
      <trkpt lat="43.384980" lon="-6.079777">
        <ele>109.008</ele>
        <time>1999-07-22T11:54:25Z</time>
      </trkpt>
      <trkpt lat="43.384973" lon="-6.079802">
        <ele>109.427</ele>
        <time>1999-07-22T11:54:26Z</time>
      </trkpt>
      <trkpt lat="43.384955" lon="-6.079907">
        <ele>110.882</ele>
        <time>1999-07-22T11:54:30Z</time>
      </trkpt>
      <trkpt lat="43.384943" lon="-6.079977">
        <ele>111.463</ele>
        <time>1999-07-22T11:54:33Z</time>
      </trkpt>
      <trkpt lat="43.384934" lon="-6.080020">
        <ele>111.889</ele>
        <time>1999-07-22T11:54:35Z</time>
      </trkpt>
      <trkpt lat="43.384920" lon="-6.080142">
        <ele>112.875</ele>
        <time>1999-07-22T11:54:41Z</time>
      </trkpt>
      <trkpt lat="43.384915" lon="-6.080164">
        <ele>112.852</ele>
        <time>1999-07-22T11:54:42Z</time>
      </trkpt>
      <trkpt lat="43.384899" lon="-6.080283">
        <ele>114.089</ele>
        <time>1999-07-22T11:54:47Z</time>
      </trkpt>
      <trkpt lat="43.384891" lon="-6.080330">
        <ele>114.465</ele>
        <time>1999-07-22T11:54:49Z</time>
      </trkpt>
      <trkpt lat="43.384873" lon="-6.080399">
        <ele>115.213</ele>
        <time>1999-07-22T11:54:52Z</time>
      </trkpt>
      <trkpt lat="43.384862" lon="-6.080469">
        <ele>116.043</ele>
        <time>1999-07-22T11:54:55Z</time>
      </trkpt>
      <trkpt lat="43.384852" lon="-6.080492">
        <ele>116.407</ele>
        <time>1999-07-22T11:54:56Z</time>
      </trkpt>
      <trkpt lat="43.384849" lon="-6.080592">
        <ele>117.208</ele>
        <time>1999-07-22T11:55:00Z</time>
      </trkpt>
      <trkpt lat="43.384851" lon="-6.080614">
        <ele>117.694</ele>
        <time>1999-07-22T11:55:01Z</time>
      </trkpt>
      <trkpt lat="43.384843" lon="-6.080657">
        <ele>118.099</ele>
        <time>1999-07-22T11:55:03Z</time>
      </trkpt>
      <trkpt lat="43.384825" lon="-6.080701">
        <ele>118.640</ele>
        <time>1999-07-22T11:55:05Z</time>
      </trkpt>
      <trkpt lat="43.384816" lon="-6.080725">
        <ele>118.856</ele>
        <time>1999-07-22T11:55:06Z</time>
      </trkpt>
      <trkpt lat="43.384790" lon="-6.080825">
        <ele>119.812</ele>
        <time>1999-07-22T11:55:10Z</time>
      </trkpt>
      <trkpt lat="43.384781" lon="-6.080903">
        <ele>120.819</ele>
        <time>1999-07-22T11:55:14Z</time>
      </trkpt>
      <trkpt lat="43.384773" lon="-6.080920">
        <ele>121.076</ele>
        <time>1999-07-22T11:55:15Z</time>
      </trkpt>
      <trkpt lat="43.384760" lon="-6.080980">
        <ele>122.212</ele>
        <time>1999-07-22T11:55:18Z</time>
      </trkpt>
      <trkpt lat="43.384746" lon="-6.081058">
        <ele>123.481</ele>
        <time>1999-07-22T11:55:22Z</time>
      </trkpt>
      <trkpt lat="43.384731" lon="-6.081133">
        <ele>124.661</ele>
        <time>1999-07-22T11:55:26Z</time>
      </trkpt>
      <trkpt lat="43.384722" lon="-6.081177">
        <ele>125.217</ele>
        <time>1999-07-22T11:55:28Z</time>
      </trkpt>
      <trkpt lat="43.384713" lon="-6.081196">
        <ele>125.608</ele>
        <time>1999-07-22T11:55:29Z</time>
      </trkpt>
      <trkpt lat="43.384704" lon="-6.081241">
        <ele>126.231</ele>
        <time>1999-07-22T11:55:31Z</time>
      </trkpt>
      <trkpt lat="43.384708" lon="-6.081287">
        <ele>126.836</ele>
        <time>1999-07-22T11:55:33Z</time>
      </trkpt>
      <trkpt lat="43.384705" lon="-6.081308">
        <ele>127.267</ele>
        <time>1999-07-22T11:55:34Z</time>
      </trkpt>
      <trkpt lat="43.384692" lon="-6.081349">
        <ele>127.863</ele>
        <time>1999-07-22T11:55:36Z</time>
      </trkpt>
      <trkpt lat="43.384688" lon="-6.081413">
        <ele>128.879</ele>
        <time>1999-07-22T11:55:39Z</time>
      </trkpt>
      <trkpt lat="43.384684" lon="-6.081431">
        <ele>129.276</ele>
        <time>1999-07-22T11:55:40Z</time>
      </trkpt>
      <trkpt lat="43.384668" lon="-6.081509">
        <ele>130.273</ele>
        <time>1999-07-22T11:55:44Z</time>
      </trkpt>
      <trkpt lat="43.384674" lon="-6.081565">
        <ele>131.269</ele>
        <time>1999-07-22T11:55:47Z</time>
      </trkpt>
      <trkpt lat="43.384678" lon="-6.081584">
        <ele>131.882</ele>
        <time>1999-07-22T11:55:48Z</time>
      </trkpt>
      <trkpt lat="43.384684" lon="-6.081642">
        <ele>132.843</ele>
        <time>1999-07-22T11:55:51Z</time>
      </trkpt>
      <trkpt lat="43.384685" lon="-6.081721">
        <ele>134.217</ele>
        <time>1999-07-22T11:55:55Z</time>
      </trkpt>
      <trkpt lat="43.384684" lon="-6.081741">
        <ele>134.408</ele>
        <time>1999-07-22T11:55:56Z</time>
      </trkpt>
      <trkpt lat="43.384687" lon="-6.081802">
        <ele>135.231</ele>
        <time>1999-07-22T11:55:59Z</time>
      </trkpt>
      <trkpt lat="43.384682" lon="-6.081884">
        <ele>136.226</ele>
        <time>1999-07-22T11:56:03Z</time>
      </trkpt>
      <trkpt lat="43.384686" lon="-6.081903">
        <ele>136.467</ele>
        <time>1999-07-22T11:56:04Z</time>
      </trkpt>
      <trkpt lat="43.384694" lon="-6.082005">
        <ele>137.653</ele>
        <time>1999-07-22T11:56:09Z</time>
      </trkpt>
      <trkpt lat="43.384696" lon="-6.082049">
        <ele>138.469</ele>
        <time>1999-07-22T11:56:11Z</time>
      </trkpt>
      <trkpt lat="43.384699" lon="-6.082088">
        <ele>138.816</ele>
        <time>1999-07-22T11:56:13Z</time>
      </trkpt>
      <trkpt lat="43.384698" lon="-6.082165">
        <ele>139.833</ele>
        <time>1999-07-22T11:56:17Z</time>
      </trkpt>
      <trkpt lat="43.384696" lon="-6.082184">
        <ele>140.069</ele>
        <time>1999-07-22T11:56:18Z</time>
      </trkpt>
      <trkpt lat="43.384683" lon="-6.082261">
        <ele>141.298</ele>
        <time>1999-07-22T11:56:22Z</time>
      </trkpt>
      <trkpt lat="43.384681" lon="-6.082323">
        <ele>141.815</ele>
        <time>1999-07-22T11:56:25Z</time>
      </trkpt>
      <trkpt lat="43.384684" lon="-6.082369">
        <ele>142.426</ele>
        <time>1999-07-22T11:56:27Z</time>
      </trkpt>
      <trkpt lat="43.384696" lon="-6.082483">
        <ele>143.408</ele>
        <time>1999-07-22T11:56:32Z</time>
      </trkpt>
      <trkpt lat="43.384698" lon="-6.082527">
        <ele>144.042</ele>
        <time>1999-07-22T11:56:34Z</time>
      </trkpt>
      <trkpt lat="43.384700" lon="-6.082625">
        <ele>144.667</ele>
        <time>1999-07-22T11:56:38Z</time>
      </trkpt>
      <trkpt lat="43.384681" lon="-6.082702">
        <ele>145.258</ele>
        <time>1999-07-22T11:56:41Z</time>
      </trkpt>
      <trkpt lat="43.384662" lon="-6.082793">
        <ele>145.854</ele>
        <time>1999-07-22T11:56:44Z</time>
      </trkpt>
      <trkpt lat="43.384645" lon="-6.082888">
        <ele>146.260</ele>
        <time>1999-07-22T11:56:47Z</time>
      </trkpt>
      <trkpt lat="43.384617" lon="-6.083034">
        <ele>146.427</ele>
        <time>1999-07-22T11:56:51Z</time>
      </trkpt>
      <trkpt lat="43.384574" lon="-6.083191">
        <ele>146.694</ele>
        <time>1999-07-22T11:56:55Z</time>
      </trkpt>
      <trkpt lat="43.384564" lon="-6.083229">
        <ele>146.870</ele>
        <time>1999-07-22T11:56:56Z</time>
      </trkpt>
      <trkpt lat="43.384515" lon="-6.083397">
        <ele>147.228</ele>
        <time>1999-07-22T11:57:00Z</time>
      </trkpt>
      <trkpt lat="43.384449" lon="-6.083612">
        <ele>147.889</ele>
        <time>1999-07-22T11:57:05Z</time>
      </trkpt>
      <trkpt lat="43.384419" lon="-6.083703">
        <ele>148.417</ele>
        <time>1999-07-22T11:57:07Z</time>
      </trkpt>
      <trkpt lat="43.384297" lon="-6.083992">
        <ele>148.808</ele>
        <time>1999-07-22T11:57:13Z</time>
      </trkpt>
      <trkpt lat="43.384201" lon="-6.084178">
        <ele>149.015</ele>
        <time>1999-07-22T11:57:17Z</time>
      </trkpt>
      <trkpt lat="43.384126" lon="-6.084307">
        <ele>149.290</ele>
        <time>1999-07-22T11:57:20Z</time>
      </trkpt>
      <trkpt lat="43.383997" lon="-6.084554">
        <ele>149.811</ele>
        <time>1999-07-22T11:57:26Z</time>
      </trkpt>
      <trkpt lat="43.383957" lon="-6.084646">
        <ele>150.257</ele>
        <time>1999-07-22T11:57:28Z</time>
      </trkpt>
      <trkpt lat="43.383849" lon="-6.084945">
        <ele>151.243</ele>
        <time>1999-07-22T11:57:34Z</time>
      </trkpt>
      <trkpt lat="43.383830" lon="-6.084992">
        <ele>151.290</ele>
        <time>1999-07-22T11:57:35Z</time>
      </trkpt>
      <trkpt lat="43.383653" lon="-6.085340">
        <ele>152.047</ele>
        <time>1999-07-22T11:57:43Z</time>
      </trkpt>
      <trkpt lat="43.383614" lon="-6.085434">
        <ele>152.283</ele>
        <time>1999-07-22T11:57:45Z</time>
      </trkpt>
      <trkpt lat="43.383522" lon="-6.085679">
        <ele>153.297</ele>
        <time>1999-07-22T11:57:50Z</time>
      </trkpt>
      <trkpt lat="43.383477" lon="-6.085768">
        <ele>153.423</ele>
        <time>1999-07-22T11:57:52Z</time>
      </trkpt>
      <trkpt lat="43.383312" lon="-6.086021">
        <ele>154.225</ele>
        <time>1999-07-22T11:57:58Z</time>
      </trkpt>
      <trkpt lat="43.383135" lon="-6.086238">
        <ele>154.608</ele>
        <time>1999-07-22T11:58:04Z</time>
      </trkpt>
      <trkpt lat="43.383005" lon="-6.086392">
        <ele>155.022</ele>
        <time>1999-07-22T11:58:09Z</time>
      </trkpt>
      <trkpt lat="43.382892" lon="-6.086539">
        <ele>155.687</ele>
        <time>1999-07-22T11:58:13Z</time>
      </trkpt>
      <trkpt lat="43.382810" lon="-6.086666">
        <ele>156.268</ele>
        <time>1999-07-22T11:58:16Z</time>
      </trkpt>
      <trkpt lat="43.382740" lon="-6.086794">
        <ele>156.614</ele>
        <time>1999-07-22T11:58:19Z</time>
      </trkpt>
      <trkpt lat="43.382691" lon="-6.086871">
        <ele>156.810</ele>
        <time>1999-07-22T11:58:21Z</time>
      </trkpt>
      <trkpt lat="43.382641" lon="-6.086955">
        <ele>157.087</ele>
        <time>1999-07-22T11:58:23Z</time>
      </trkpt>
      <trkpt lat="43.382611" lon="-6.087000">
        <ele>157.074</ele>
        <time>1999-07-22T11:58:24Z</time>
      </trkpt>
      <trkpt lat="43.382500" lon="-6.087166">
        <ele>157.060</ele>
        <time>1999-07-22T11:58:27Z</time>
      </trkpt>
      <trkpt lat="43.382383" lon="-6.087379">
        <ele>157.073</ele>
        <time>1999-07-22T11:58:30Z</time>
      </trkpt>
      <trkpt lat="43.382355" lon="-6.087459">
        <ele>157.085</ele>
        <time>1999-07-22T11:58:31Z</time>
      </trkpt>
      <trkpt lat="43.382332" lon="-6.087542">
        <ele>157.013</ele>
        <time>1999-07-22T11:58:32Z</time>
      </trkpt>
      <trkpt lat="43.382276" lon="-6.087773">
        <ele>156.408</ele>
        <time>1999-07-22T11:58:35Z</time>
      </trkpt>
      <trkpt lat="43.382258" lon="-6.087824">
        <ele>156.030</ele>
        <time>1999-07-22T11:58:36Z</time>
      </trkpt>
      <trkpt lat="43.382240" lon="-6.087870">
        <ele>155.685</ele>
        <time>1999-07-22T11:58:37Z</time>
      </trkpt>
      <trkpt lat="43.382234" lon="-6.087917">
        <ele>155.286</ele>
        <time>1999-07-22T11:58:38Z</time>
      </trkpt>
      <trkpt lat="43.382238" lon="-6.087957">
        <ele>155.062</ele>
        <time>1999-07-22T11:58:39Z</time>
      </trkpt>
      <trkpt lat="43.382250" lon="-6.087994">
        <ele>154.818</ele>
        <time>1999-07-22T11:58:40Z</time>
      </trkpt>
      <trkpt lat="43.382282" lon="-6.088069">
        <ele>154.485</ele>
        <time>1999-07-22T11:58:42Z</time>
      </trkpt>
      <trkpt lat="43.382355" lon="-6.088256">
        <ele>154.042</ele>
        <time>1999-07-22T11:58:47Z</time>
      </trkpt>
      <trkpt lat="43.382368" lon="-6.088291">
        <ele>154.088</ele>
        <time>1999-07-22T11:58:48Z</time>
      </trkpt>
      <trkpt lat="43.382460" lon="-6.088549">
        <ele>154.029</ele>
        <time>1999-07-22T11:58:54Z</time>
      </trkpt>
      <trkpt lat="43.382485" lon="-6.088660">
        <ele>154.000</ele>
        <time>1999-07-22T11:58:56Z</time>
      </trkpt>
      <trkpt lat="43.382493" lon="-6.088719">
        <ele>154.220</ele>
        <time>1999-07-22T11:58:57Z</time>
      </trkpt>
      <trkpt lat="43.382513" lon="-6.088834">
        <ele>154.208</ele>
        <time>1999-07-22T11:58:59Z</time>
      </trkpt>
      <trkpt lat="43.382543" lon="-6.088945">
        <ele>154.455</ele>
        <time>1999-07-22T11:59:01Z</time>
      </trkpt>
      <trkpt lat="43.382564" lon="-6.088994">
        <ele>154.410</ele>
        <time>1999-07-22T11:59:02Z</time>
      </trkpt>
      <trkpt lat="43.382629" lon="-6.089064">
        <ele>154.641</ele>
        <time>1999-07-22T11:59:04Z</time>
      </trkpt>
      <trkpt lat="43.382670" lon="-6.089079">
        <ele>154.867</ele>
        <time>1999-07-22T11:59:05Z</time>
      </trkpt>
      <trkpt lat="43.382799" lon="-6.089089">
        <ele>155.033</ele>
        <time>1999-07-22T11:59:08Z</time>
      </trkpt>
      <trkpt lat="43.382937" lon="-6.089084">
        <ele>155.870</ele>
        <time>1999-07-22T11:59:11Z</time>
      </trkpt>
      <trkpt lat="43.383125" lon="-6.089085">
        <ele>156.417</ele>
        <time>1999-07-22T11:59:15Z</time>
      </trkpt>
      <trkpt lat="43.383172" lon="-6.089092">
        <ele>156.463</ele>
        <time>1999-07-22T11:59:16Z</time>
      </trkpt>
      <trkpt lat="43.383308" lon="-6.089135">
        <ele>156.684</ele>
        <time>1999-07-22T11:59:19Z</time>
      </trkpt>
      <trkpt lat="43.383348" lon="-6.089159">
        <ele>156.807</ele>
        <time>1999-07-22T11:59:20Z</time>
      </trkpt>
      <trkpt lat="43.383449" lon="-6.089254">
        <ele>157.017</ele>
        <time>1999-07-22T11:59:23Z</time>
      </trkpt>
      <trkpt lat="43.383476" lon="-6.089290">
        <ele>157.008</ele>
        <time>1999-07-22T11:59:24Z</time>
      </trkpt>
      <trkpt lat="43.383560" lon="-6.089465">
        <ele>157.621</ele>
        <time>1999-07-22T11:59:29Z</time>
      </trkpt>
      <trkpt lat="43.383604" lon="-6.089658">
        <ele>158.086</ele>
        <time>1999-07-22T11:59:33Z</time>
      </trkpt>
      <trkpt lat="43.383607" lon="-6.089764">
        <ele>158.467</ele>
        <time>1999-07-22T11:59:35Z</time>
      </trkpt>
      <trkpt lat="43.383586" lon="-6.089916">
        <ele>159.093</ele>
        <time>1999-07-22T11:59:38Z</time>
      </trkpt>
      <trkpt lat="43.383570" lon="-6.090005">
        <ele>159.659</ele>
        <time>1999-07-22T11:59:40Z</time>
      </trkpt>
      <trkpt lat="43.383557" lon="-6.090076">
        <ele>160.896</ele>
        <time>1999-07-22T11:59:42Z</time>
      </trkpt>
      <trkpt lat="43.383554" lon="-6.090139">
        <ele>162.233</ele>
        <time>1999-07-22T11:59:44Z</time>
      </trkpt>
      <trkpt lat="43.383541" lon="-6.090218">
        <ele>163.059</ele>
        <time>1999-07-22T11:59:46Z</time>
      </trkpt>
      <trkpt lat="43.383530" lon="-6.090261">
        <ele>163.496</ele>
        <time>1999-07-22T11:59:47Z</time>
      </trkpt>
      <trkpt lat="43.383483" lon="-6.090479">
        <ele>164.631</ele>
        <time>1999-07-22T11:59:52Z</time>
      </trkpt>
      <trkpt lat="43.383465" lon="-6.090568">
        <ele>164.824</ele>
        <time>1999-07-22T11:59:54Z</time>
      </trkpt>
      <trkpt lat="43.383425" lon="-6.090885">
        <ele>165.208</ele>
        <time>1999-07-22T12:00:00Z</time>
      </trkpt>
      <trkpt lat="43.383431" lon="-6.090941">
        <ele>165.252</ele>
        <time>1999-07-22T12:00:01Z</time>
      </trkpt>
      <trkpt lat="43.383487" lon="-6.091079">
        <ele>165.267</ele>
        <time>1999-07-22T12:00:04Z</time>
      </trkpt>
      <trkpt lat="43.383509" lon="-6.091116">
        <ele>165.288</ele>
        <time>1999-07-22T12:00:05Z</time>
      </trkpt>
      <trkpt lat="43.383606" lon="-6.091282">
        <ele>165.684</ele>
        <time>1999-07-22T12:00:10Z</time>
      </trkpt>
      <trkpt lat="43.383622" lon="-6.091312">
        <ele>165.830</ele>
        <time>1999-07-22T12:00:11Z</time>
      </trkpt>
      <trkpt lat="43.383672" lon="-6.091456">
        <ele>166.897</ele>
        <time>1999-07-22T12:00:15Z</time>
      </trkpt>
      <trkpt lat="43.383700" lon="-6.091531">
        <ele>167.264</ele>
        <time>1999-07-22T12:00:17Z</time>
      </trkpt>
      <trkpt lat="43.383755" lon="-6.091627">
        <ele>168.030</ele>
        <time>1999-07-22T12:00:20Z</time>
      </trkpt>
      <trkpt lat="43.383829" lon="-6.091760">
        <ele>168.855</ele>
        <time>1999-07-22T12:00:24Z</time>
      </trkpt>
      <trkpt lat="43.383841" lon="-6.091800">
        <ele>169.007</ele>
        <time>1999-07-22T12:00:25Z</time>
      </trkpt>
      <trkpt lat="43.383878" lon="-6.092017">
        <ele>170.217</ele>
        <time>1999-07-22T12:00:30Z</time>
      </trkpt>
      <trkpt lat="43.383876" lon="-6.092064">
        <ele>170.608</ele>
        <time>1999-07-22T12:00:31Z</time>
      </trkpt>
      <trkpt lat="43.383867" lon="-6.092331">
        <ele>171.648</ele>
        <time>1999-07-22T12:00:36Z</time>
      </trkpt>
      <trkpt lat="43.383865" lon="-6.092396">
        <ele>171.833</ele>
        <time>1999-07-22T12:00:37Z</time>
      </trkpt>
      <trkpt lat="43.383889" lon="-6.092834">
        <ele>172.414</ele>
        <time>1999-07-22T12:00:43Z</time>
      </trkpt>
      <trkpt lat="43.383898" lon="-6.092909">
        <ele>172.480</ele>
        <time>1999-07-22T12:00:44Z</time>
      </trkpt>
      <trkpt lat="43.383935" lon="-6.093198">
        <ele>172.616</ele>
        <time>1999-07-22T12:00:48Z</time>
      </trkpt>
      <trkpt lat="43.383937" lon="-6.093267">
        <ele>172.623</ele>
        <time>1999-07-22T12:00:49Z</time>
      </trkpt>
      <trkpt lat="43.383932" lon="-6.093333">
        <ele>172.660</ele>
        <time>1999-07-22T12:00:50Z</time>
      </trkpt>
      <trkpt lat="43.383885" lon="-6.093661">
        <ele>172.896</ele>
        <time>1999-07-22T12:00:56Z</time>
      </trkpt>
      <trkpt lat="43.383870" lon="-6.093946">
        <ele>173.619</ele>
        <time>1999-07-22T12:01:03Z</time>
      </trkpt>
      <trkpt lat="43.383867" lon="-6.093986">
        <ele>174.009</ele>
        <time>1999-07-22T12:01:04Z</time>
      </trkpt>
      <trkpt lat="43.383852" lon="-6.094105">
        <ele>174.819</ele>
        <time>1999-07-22T12:01:07Z</time>
      </trkpt>
      <trkpt lat="43.383833" lon="-6.094219">
        <ele>176.008</ele>
        <time>1999-07-22T12:01:10Z</time>
      </trkpt>
      <trkpt lat="43.383828" lon="-6.094258">
        <ele>176.234</ele>
        <time>1999-07-22T12:01:11Z</time>
      </trkpt>
      <trkpt lat="43.383810" lon="-6.094377">
        <ele>177.069</ele>
        <time>1999-07-22T12:01:14Z</time>
      </trkpt>
      <trkpt lat="43.383818" lon="-6.094503">
        <ele>177.830</ele>
        <time>1999-07-22T12:01:17Z</time>
      </trkpt>
      <trkpt lat="43.383831" lon="-6.094583">
        <ele>178.426</ele>
        <time>1999-07-22T12:01:19Z</time>
      </trkpt>
      <trkpt lat="43.383827" lon="-6.094764">
        <ele>179.482</ele>
        <time>1999-07-22T12:01:24Z</time>
      </trkpt>
      <trkpt lat="43.383813" lon="-6.094796">
        <ele>179.699</ele>
        <time>1999-07-22T12:01:25Z</time>
      </trkpt>
      <trkpt lat="43.383785" lon="-6.094950">
        <ele>180.496</ele>
        <time>1999-07-22T12:01:29Z</time>
      </trkpt>
      <trkpt lat="43.383789" lon="-6.095026">
        <ele>181.082</ele>
        <time>1999-07-22T12:01:31Z</time>
      </trkpt>
      <trkpt lat="43.383793" lon="-6.095134">
        <ele>181.641</ele>
        <time>1999-07-22T12:01:34Z</time>
      </trkpt>
      <trkpt lat="43.383800" lon="-6.095317">
        <ele>183.081</ele>
        <time>1999-07-22T12:01:39Z</time>
      </trkpt>
      <trkpt lat="43.383808" lon="-6.095401">
        <ele>183.809</ele>
        <time>1999-07-22T12:01:41Z</time>
      </trkpt>
      <trkpt lat="43.383822" lon="-6.095488">
        <ele>184.208</ele>
        <time>1999-07-22T12:01:43Z</time>
      </trkpt>
      <trkpt lat="43.383868" lon="-6.095668">
        <ele>184.897</ele>
        <time>1999-07-22T12:01:47Z</time>
      </trkpt>
      <trkpt lat="43.383960" lon="-6.095867">
        <ele>185.482</ele>
        <time>1999-07-22T12:01:52Z</time>
      </trkpt>
      <trkpt lat="43.384004" lon="-6.095939">
        <ele>185.653</ele>
        <time>1999-07-22T12:01:54Z</time>
      </trkpt>
      <trkpt lat="43.384141" lon="-6.096081">
        <ele>186.259</ele>
        <time>1999-07-22T12:01:59Z</time>
      </trkpt>
      <trkpt lat="43.384202" lon="-6.096130">
        <ele>186.425</ele>
        <time>1999-07-22T12:02:01Z</time>
      </trkpt>
      <trkpt lat="43.384294" lon="-6.096200">
        <ele>186.612</ele>
        <time>1999-07-22T12:02:04Z</time>
      </trkpt>
      <trkpt lat="43.384383" lon="-6.096253">
        <ele>186.819</ele>
        <time>1999-07-22T12:02:07Z</time>
      </trkpt>
      <trkpt lat="43.384436" lon="-6.096270">
        <ele>187.225</ele>
        <time>1999-07-22T12:02:09Z</time>
      </trkpt>
      <trkpt lat="43.384556" lon="-6.096306">
        <ele>187.684</ele>
        <time>1999-07-22T12:02:14Z</time>
      </trkpt>
      <trkpt lat="43.384651" lon="-6.096356">
        <ele>188.207</ele>
        <time>1999-07-22T12:02:18Z</time>
      </trkpt>
      <trkpt lat="43.384722" lon="-6.096392">
        <ele>188.817</ele>
        <time>1999-07-22T12:02:21Z</time>
      </trkpt>
      <trkpt lat="43.384794" lon="-6.096423">
        <ele>189.408</ele>
        <time>1999-07-22T12:02:24Z</time>
      </trkpt>
      <trkpt lat="43.384844" lon="-6.096441">
        <ele>189.881</ele>
        <time>1999-07-22T12:02:26Z</time>
      </trkpt>
      <trkpt lat="43.384956" lon="-6.096478">
        <ele>191.056</ele>
        <time>1999-07-22T12:02:30Z</time>
      </trkpt>
      <trkpt lat="43.385066" lon="-6.096493">
        <ele>192.297</ele>
        <time>1999-07-22T12:02:34Z</time>
      </trkpt>
      <trkpt lat="43.385170" lon="-6.096529">
        <ele>193.283</ele>
        <time>1999-07-22T12:02:38Z</time>
      </trkpt>
      <trkpt lat="43.385184" lon="-6.096561">
        <ele>193.419</ele>
        <time>1999-07-22T12:02:39Z</time>
      </trkpt>
      <trkpt lat="43.385194" lon="-6.096596">
        <ele>193.616</ele>
        <time>1999-07-22T12:02:40Z</time>
      </trkpt>
      <trkpt lat="43.385199" lon="-6.096670">
        <ele>194.023</ele>
        <time>1999-07-22T12:02:42Z</time>
      </trkpt>
      <trkpt lat="43.385198" lon="-6.096712">
        <ele>194.289</ele>
        <time>1999-07-22T12:02:43Z</time>
      </trkpt>
      <trkpt lat="43.385197" lon="-6.096757">
        <ele>194.472</ele>
        <time>1999-07-22T12:02:44Z</time>
      </trkpt>
      <trkpt lat="43.385204" lon="-6.097011">
        <ele>194.813</ele>
        <time>1999-07-22T12:02:49Z</time>
      </trkpt>
      <trkpt lat="43.385210" lon="-6.097117">
        <ele>194.814</ele>
        <time>1999-07-22T12:02:51Z</time>
      </trkpt>
      <trkpt lat="43.385212" lon="-6.097226">
        <ele>194.808</ele>
        <time>1999-07-22T12:02:53Z</time>
      </trkpt>
      <trkpt lat="43.385219" lon="-6.097393">
        <ele>195.080</ele>
        <time>1999-07-22T12:02:56Z</time>
      </trkpt>
      <trkpt lat="43.385227" lon="-6.097621">
        <ele>195.225</ele>
        <time>1999-07-22T12:03:00Z</time>
      </trkpt>
      <trkpt lat="43.385246" lon="-6.097935">
        <ele>195.266</ele>
        <time>1999-07-22T12:03:06Z</time>
      </trkpt>
      <trkpt lat="43.385252" lon="-6.097977">
        <ele>195.252</ele>
        <time>1999-07-22T12:03:07Z</time>
      </trkpt>
      <trkpt lat="43.385267" lon="-6.098064">
        <ele>195.248</ele>
        <time>1999-07-22T12:03:09Z</time>
      </trkpt>
      <trkpt lat="43.385314" lon="-6.098245">
        <ele>195.275</ele>
        <time>1999-07-22T12:03:13Z</time>
      </trkpt>
      <trkpt lat="43.385332" lon="-6.098290">
        <ele>195.432</ele>
        <time>1999-07-22T12:03:14Z</time>
      </trkpt>
      <trkpt lat="43.385377" lon="-6.098374">
        <ele>195.428</ele>
        <time>1999-07-22T12:03:16Z</time>
      </trkpt>
      <trkpt lat="43.385480" lon="-6.098531">
        <ele>196.469</ele>
        <time>1999-07-22T12:03:20Z</time>
      </trkpt>
      <trkpt lat="43.385505" lon="-6.098564">
        <ele>196.404</ele>
        <time>1999-07-22T12:03:21Z</time>
      </trkpt>
      <trkpt lat="43.385594" lon="-6.098697">
        <ele>196.824</ele>
        <time>1999-07-22T12:03:25Z</time>
      </trkpt>
      <trkpt lat="43.385615" lon="-6.098729">
        <ele>197.008</ele>
        <time>1999-07-22T12:03:26Z</time>
      </trkpt>
      <trkpt lat="43.385678" lon="-6.098819">
        <ele>197.479</ele>
        <time>1999-07-22T12:03:29Z</time>
      </trkpt>
      <trkpt lat="43.385714" lon="-6.098880">
        <ele>197.684</ele>
        <time>1999-07-22T12:03:31Z</time>
      </trkpt>
      <trkpt lat="43.385730" lon="-6.098914">
        <ele>197.865</ele>
        <time>1999-07-22T12:03:32Z</time>
      </trkpt>
      <trkpt lat="43.385769" lon="-6.098999">
        <ele>198.611</ele>
        <time>1999-07-22T12:03:35Z</time>
      </trkpt>
      <trkpt lat="43.385784" lon="-6.099053">
        <ele>199.287</ele>
        <time>1999-07-22T12:03:37Z</time>
      </trkpt>
      <trkpt lat="43.385796" lon="-6.099080">
        <ele>199.854</ele>
        <time>1999-07-22T12:03:38Z</time>
      </trkpt>
      <trkpt lat="43.385874" lon="-6.099232">
        <ele>200.811</ele>
        <time>1999-07-22T12:03:43Z</time>
      </trkpt>
      <trkpt lat="43.385916" lon="-6.099408">
        <ele>202.077</ele>
        <time>1999-07-22T12:03:48Z</time>
      </trkpt>
      <trkpt lat="43.385940" lon="-6.099546">
        <ele>203.061</ele>
        <time>1999-07-22T12:03:52Z</time>
      </trkpt>
      <trkpt lat="43.385948" lon="-6.099580">
        <ele>203.221</ele>
        <time>1999-07-22T12:03:53Z</time>
      </trkpt>
      <trkpt lat="43.386003" lon="-6.099777">
        <ele>204.413</ele>
        <time>1999-07-22T12:03:59Z</time>
      </trkpt>
      <trkpt lat="43.386063" lon="-6.099929">
        <ele>205.208</ele>
        <time>1999-07-22T12:04:04Z</time>
      </trkpt>
      <trkpt lat="43.386074" lon="-6.099956">
        <ele>205.479</ele>
        <time>1999-07-22T12:04:05Z</time>
      </trkpt>
      <trkpt lat="43.386129" lon="-6.100053">
        <ele>206.464</ele>
        <time>1999-07-22T12:04:09Z</time>
      </trkpt>
      <trkpt lat="43.386153" lon="-6.100097">
        <ele>206.885</ele>
        <time>1999-07-22T12:04:11Z</time>
      </trkpt>
      <trkpt lat="43.386184" lon="-6.100171">
        <ele>207.681</ele>
        <time>1999-07-22T12:04:14Z</time>
      </trkpt>
      <trkpt lat="43.386226" lon="-6.100244">
        <ele>208.637</ele>
        <time>1999-07-22T12:04:17Z</time>
      </trkpt>
      <trkpt lat="43.386245" lon="-6.100292">
        <ele>209.494</ele>
        <time>1999-07-22T12:04:19Z</time>
      </trkpt>
      <trkpt lat="43.386253" lon="-6.100313">
        <ele>209.811</ele>
        <time>1999-07-22T12:04:20Z</time>
      </trkpt>
      <trkpt lat="43.386286" lon="-6.100391">
        <ele>210.817</ele>
        <time>1999-07-22T12:04:24Z</time>
      </trkpt>
      <trkpt lat="43.386301" lon="-6.100407">
        <ele>211.211</ele>
        <time>1999-07-22T12:04:25Z</time>
      </trkpt>
      <trkpt lat="43.386325" lon="-6.100448">
        <ele>211.821</ele>
        <time>1999-07-22T12:04:27Z</time>
      </trkpt>
      <trkpt lat="43.386376" lon="-6.100536">
        <ele>213.203</ele>
        <time>1999-07-22T12:04:31Z</time>
      </trkpt>
      <trkpt lat="43.386423" lon="-6.100625">
        <ele>214.408</ele>
        <time>1999-07-22T12:04:35Z</time>
      </trkpt>
      <trkpt lat="43.386458" lon="-6.100684">
        <ele>215.634</ele>
        <time>1999-07-22T12:04:38Z</time>
      </trkpt>
      <trkpt lat="43.386469" lon="-6.100703">
        <ele>216.069</ele>
        <time>1999-07-22T12:04:39Z</time>
      </trkpt>
      <trkpt lat="43.386497" lon="-6.100764">
        <ele>217.040</ele>
        <time>1999-07-22T12:04:42Z</time>
      </trkpt>
      <trkpt lat="43.386534" lon="-6.100850">
        <ele>218.056</ele>
        <time>1999-07-22T12:04:46Z</time>
      </trkpt>
      <trkpt lat="43.386553" lon="-6.100893">
        <ele>218.662</ele>
        <time>1999-07-22T12:04:48Z</time>
      </trkpt>
      <trkpt lat="43.386571" lon="-6.100936">
        <ele>219.039</ele>
        <time>1999-07-22T12:04:50Z</time>
      </trkpt>
      <trkpt lat="43.386606" lon="-6.101035">
        <ele>220.236</ele>
        <time>1999-07-22T12:04:54Z</time>
      </trkpt>
      <trkpt lat="43.386616" lon="-6.101087">
        <ele>220.862</ele>
        <time>1999-07-22T12:04:56Z</time>
      </trkpt>
      <trkpt lat="43.386621" lon="-6.101138">
        <ele>221.467</ele>
        <time>1999-07-22T12:04:58Z</time>
      </trkpt>
      <trkpt lat="43.386655" lon="-6.101197">
        <ele>222.281</ele>
        <time>1999-07-22T12:05:01Z</time>
      </trkpt>
      <trkpt lat="43.386666" lon="-6.101239">
        <ele>222.819</ele>
        <time>1999-07-22T12:05:03Z</time>
      </trkpt>
      <trkpt lat="43.386666" lon="-6.101309">
        <ele>223.808</ele>
        <time>1999-07-22T12:05:06Z</time>
      </trkpt>
      <trkpt lat="43.386687" lon="-6.101343">
        <ele>224.439</ele>
        <time>1999-07-22T12:05:08Z</time>
      </trkpt>
      <trkpt lat="43.386699" lon="-6.101364">
        <ele>224.674</ele>
        <time>1999-07-22T12:05:09Z</time>
      </trkpt>
      <trkpt lat="43.386705" lon="-6.101388">
        <ele>225.085</ele>
        <time>1999-07-22T12:05:10Z</time>
      </trkpt>
      <trkpt lat="43.386725" lon="-6.101510">
        <ele>226.211</ele>
        <time>1999-07-22T12:05:15Z</time>
      </trkpt>
      <trkpt lat="43.386737" lon="-6.101532">
        <ele>226.687</ele>
        <time>1999-07-22T12:05:16Z</time>
      </trkpt>
      <trkpt lat="43.386781" lon="-6.101625">
        <ele>227.464</ele>
        <time>1999-07-22T12:05:20Z</time>
      </trkpt>
      <trkpt lat="43.386812" lon="-6.101731">
        <ele>228.431</ele>
        <time>1999-07-22T12:05:24Z</time>
      </trkpt>
      <trkpt lat="43.386821" lon="-6.101760">
        <ele>228.677</ele>
        <time>1999-07-22T12:05:25Z</time>
      </trkpt>
      <trkpt lat="43.386851" lon="-6.101883">
        <ele>229.687</ele>
        <time>1999-07-22T12:05:29Z</time>
      </trkpt>
      <trkpt lat="43.386862" lon="-6.101982">
        <ele>230.442</ele>
        <time>1999-07-22T12:05:32Z</time>
      </trkpt>
      <trkpt lat="43.386865" lon="-6.102017">
        <ele>230.626</ele>
        <time>1999-07-22T12:05:33Z</time>
      </trkpt>
      <trkpt lat="43.386869" lon="-6.102055">
        <ele>230.808</ele>
        <time>1999-07-22T12:05:34Z</time>
      </trkpt>
      <trkpt lat="43.386876" lon="-6.102183">
        <ele>231.251</ele>
        <time>1999-07-22T12:05:37Z</time>
      </trkpt>
      <trkpt lat="43.386883" lon="-6.102289">
        <ele>231.476</ele>
        <time>1999-07-22T12:05:39Z</time>
      </trkpt>
      <trkpt lat="43.386890" lon="-6.102353">
        <ele>231.427</ele>
        <time>1999-07-22T12:05:40Z</time>
      </trkpt>
      <trkpt lat="43.386924" lon="-6.102500">
        <ele>231.413</ele>
        <time>1999-07-22T12:05:42Z</time>
      </trkpt>
      <trkpt lat="43.386994" lon="-6.102655">
        <ele>231.449</ele>
        <time>1999-07-22T12:05:44Z</time>
      </trkpt>
      <trkpt lat="43.387040" lon="-6.102728">
        <ele>231.456</ele>
        <time>1999-07-22T12:05:45Z</time>
      </trkpt>
      <trkpt lat="43.387129" lon="-6.102877">
        <ele>231.453</ele>
        <time>1999-07-22T12:05:47Z</time>
      </trkpt>
      <trkpt lat="43.387200" lon="-6.103044">
        <ele>231.279</ele>
        <time>1999-07-22T12:05:49Z</time>
      </trkpt>
      <trkpt lat="43.387226" lon="-6.103132">
        <ele>231.099</ele>
        <time>1999-07-22T12:05:50Z</time>
      </trkpt>
      <trkpt lat="43.387247" lon="-6.103219">
        <ele>230.607</ele>
        <time>1999-07-22T12:05:51Z</time>
      </trkpt>
      <trkpt lat="43.387263" lon="-6.103302">
        <ele>230.427</ele>
        <time>1999-07-22T12:05:52Z</time>
      </trkpt>
      <trkpt lat="43.387276" lon="-6.103381">
        <ele>230.408</ele>
        <time>1999-07-22T12:05:53Z</time>
      </trkpt>
      <trkpt lat="43.387302" lon="-6.103525">
        <ele>229.832</ele>
        <time>1999-07-22T12:05:55Z</time>
      </trkpt>
      <trkpt lat="43.387348" lon="-6.103719">
        <ele>229.267</ele>
        <time>1999-07-22T12:05:58Z</time>
      </trkpt>
      <trkpt lat="43.387408" lon="-6.103937">
        <ele>229.058</ele>
        <time>1999-07-22T12:06:02Z</time>
      </trkpt>
      <trkpt lat="43.387458" lon="-6.104109">
        <ele>229.214</ele>
        <time>1999-07-22T12:06:06Z</time>
      </trkpt>
      <trkpt lat="43.387487" lon="-6.104184">
        <ele>229.430</ele>
        <time>1999-07-22T12:06:08Z</time>
      </trkpt>
      <trkpt lat="43.387521" lon="-6.104258">
        <ele>229.837</ele>
        <time>1999-07-22T12:06:10Z</time>
      </trkpt>
      <trkpt lat="43.387626" lon="-6.104455">
        <ele>231.264</ele>
        <time>1999-07-22T12:06:15Z</time>
      </trkpt>
      <trkpt lat="43.387665" lon="-6.104559">
        <ele>231.690</ele>
        <time>1999-07-22T12:06:17Z</time>
      </trkpt>
      <trkpt lat="43.387719" lon="-6.104715">
        <ele>232.023</ele>
        <time>1999-07-22T12:06:20Z</time>
      </trkpt>
      <trkpt lat="43.387739" lon="-6.104767">
        <ele>232.283</ele>
        <time>1999-07-22T12:06:21Z</time>
      </trkpt>
      <trkpt lat="43.387783" lon="-6.104869">
        <ele>232.211</ele>
        <time>1999-07-22T12:06:23Z</time>
      </trkpt>
      <trkpt lat="43.387803" lon="-6.104922">
        <ele>232.208</ele>
        <time>1999-07-22T12:06:24Z</time>
      </trkpt>
      <trkpt lat="43.387860" lon="-6.105129">
        <ele>232.255</ele>
        <time>1999-07-22T12:06:28Z</time>
      </trkpt>
      <trkpt lat="43.387866" lon="-6.105242">
        <ele>232.250</ele>
        <time>1999-07-22T12:06:30Z</time>
      </trkpt>
      <trkpt lat="43.387861" lon="-6.105329">
        <ele>232.261</ele>
        <time>1999-07-22T12:06:32Z</time>
      </trkpt>
      <trkpt lat="43.387858" lon="-6.105384">
        <ele>232.297</ele>
        <time>1999-07-22T12:06:34Z</time>
      </trkpt>
      <trkpt lat="43.387827" lon="-6.105483">
        <ele>232.273</ele>
        <time>1999-07-22T12:06:40Z</time>
      </trkpt>
      <trkpt lat="43.387826" lon="-6.105507">
        <ele>232.230</ele>
        <time>1999-07-22T12:06:41Z</time>
      </trkpt>
      <trkpt lat="43.387817" lon="-6.105625">
        <ele>233.247</ele>
        <time>1999-07-22T12:06:45Z</time>
      </trkpt>
      <trkpt lat="43.387816" lon="-6.105656">
        <ele>233.433</ele>
        <time>1999-07-22T12:06:46Z</time>
      </trkpt>
      <trkpt lat="43.387816" lon="-6.105689">
        <ele>233.685</ele>
        <time>1999-07-22T12:06:47Z</time>
      </trkpt>
      <trkpt lat="43.387815" lon="-6.105815">
        <ele>234.289</ele>
        <time>1999-07-22T12:06:51Z</time>
      </trkpt>
      <trkpt lat="43.387817" lon="-6.105875">
        <ele>234.417</ele>
        <time>1999-07-22T12:06:53Z</time>
      </trkpt>
      <trkpt lat="43.387820" lon="-6.105989">
        <ele>235.008</ele>
        <time>1999-07-22T12:06:57Z</time>
      </trkpt>
      <trkpt lat="43.387819" lon="-6.106047">
        <ele>235.481</ele>
        <time>1999-07-22T12:06:59Z</time>
      </trkpt>
      <trkpt lat="43.387820" lon="-6.106103">
        <ele>236.056</ele>
        <time>1999-07-22T12:07:01Z</time>
      </trkpt>
      <trkpt lat="43.387821" lon="-6.106154">
        <ele>236.657</ele>
        <time>1999-07-22T12:07:03Z</time>
      </trkpt>
      <trkpt lat="43.387824" lon="-6.106196">
        <ele>237.093</ele>
        <time>1999-07-22T12:07:05Z</time>
      </trkpt>
      <trkpt lat="43.387825" lon="-6.106215">
        <ele>237.029</ele>
        <time>1999-07-22T12:07:06Z</time>
      </trkpt>
      <trkpt lat="43.387831" lon="-6.106254">
        <ele>238.016</ele>
        <time>1999-07-22T12:07:08Z</time>
      </trkpt>
      <trkpt lat="43.387847" lon="-6.106331">
        <ele>238.863</ele>
        <time>1999-07-22T12:07:12Z</time>
      </trkpt>
      <trkpt lat="43.387853" lon="-6.106384">
        <ele>239.699</ele>
        <time>1999-07-22T12:07:15Z</time>
      </trkpt>
      <trkpt lat="43.387859" lon="-6.106400">
        <ele>239.878</ele>
        <time>1999-07-22T12:07:16Z</time>
      </trkpt>
      <trkpt lat="43.387869" lon="-6.106477">
        <ele>241.033</ele>
        <time>1999-07-22T12:07:20Z</time>
      </trkpt>
      <trkpt lat="43.387864" lon="-6.106493">
        <ele>241.226</ele>
        <time>1999-07-22T12:07:21Z</time>
      </trkpt>
      <trkpt lat="43.387861" lon="-6.106553">
        <ele>242.008</ele>
        <time>1999-07-22T12:07:24Z</time>
      </trkpt>
      <trkpt lat="43.387858" lon="-6.106651">
        <ele>243.030</ele>
        <time>1999-07-22T12:07:28Z</time>
      </trkpt>
      <trkpt lat="43.387856" lon="-6.106678">
        <ele>243.295</ele>
        <time>1999-07-22T12:07:29Z</time>
      </trkpt>
      <trkpt lat="43.387842" lon="-6.106800">
        <ele>244.446</ele>
        <time>1999-07-22T12:07:34Z</time>
      </trkpt>
      <trkpt lat="43.387830" lon="-6.106864">
        <ele>245.222</ele>
        <time>1999-07-22T12:07:37Z</time>
      </trkpt>
      <trkpt lat="43.387826" lon="-6.106882">
        <ele>245.498</ele>
        <time>1999-07-22T12:07:38Z</time>
      </trkpt>
      <trkpt lat="43.387797" lon="-6.106952">
        <ele>246.465</ele>
        <time>1999-07-22T12:07:42Z</time>
      </trkpt>
      <trkpt lat="43.387776" lon="-6.107017">
        <ele>247.422</ele>
        <time>1999-07-22T12:07:45Z</time>
      </trkpt>
      <trkpt lat="43.387767" lon="-6.107041">
        <ele>247.618</ele>
        <time>1999-07-22T12:07:46Z</time>
      </trkpt>
      <trkpt lat="43.387742" lon="-6.107155">
        <ele>248.614</ele>
        <time>1999-07-22T12:07:51Z</time>
      </trkpt>
      <trkpt lat="43.387736" lon="-6.107175">
        <ele>248.854</ele>
        <time>1999-07-22T12:07:52Z</time>
      </trkpt>
      <trkpt lat="43.387704" lon="-6.107275">
        <ele>249.809</ele>
        <time>1999-07-22T12:07:56Z</time>
      </trkpt>
      <trkpt lat="43.387671" lon="-6.107375">
        <ele>251.008</ele>
        <time>1999-07-22T12:08:00Z</time>
      </trkpt>
      <trkpt lat="43.387660" lon="-6.107396">
        <ele>251.254</ele>
        <time>1999-07-22T12:08:01Z</time>
      </trkpt>
      <trkpt lat="43.387623" lon="-6.107447">
        <ele>252.019</ele>
        <time>1999-07-22T12:08:04Z</time>
      </trkpt>
      <trkpt lat="43.387565" lon="-6.107504">
        <ele>253.290</ele>
        <time>1999-07-22T12:08:08Z</time>
      </trkpt>
      <trkpt lat="43.387489" lon="-6.107537">
        <ele>254.286</ele>
        <time>1999-07-22T12:08:13Z</time>
      </trkpt>
      <trkpt lat="43.387473" lon="-6.107544">
        <ele>254.412</ele>
        <time>1999-07-22T12:08:14Z</time>
      </trkpt>
      <trkpt lat="43.387418" lon="-6.107559">
        <ele>255.419</ele>
        <time>1999-07-22T12:08:17Z</time>
      </trkpt>
      <trkpt lat="43.387372" lon="-6.107577">
        <ele>256.686</ele>
        <time>1999-07-22T12:08:20Z</time>
      </trkpt>
      <trkpt lat="43.387355" lon="-6.107583">
        <ele>256.852</ele>
        <time>1999-07-22T12:08:21Z</time>
      </trkpt>
      <trkpt lat="43.387310" lon="-6.107604">
        <ele>257.659</ele>
        <time>1999-07-22T12:08:24Z</time>
      </trkpt>
      <trkpt lat="43.387260" lon="-6.107658">
        <ele>258.603</ele>
        <time>1999-07-22T12:08:28Z</time>
      </trkpt>
      <trkpt lat="43.387249" lon="-6.107679">
        <ele>259.023</ele>
        <time>1999-07-22T12:08:29Z</time>
      </trkpt>
      <trkpt lat="43.387219" lon="-6.107740">
        <ele>260.008</ele>
        <time>1999-07-22T12:08:32Z</time>
      </trkpt>
      <trkpt lat="43.387180" lon="-6.107791">
        <ele>260.648</ele>
        <time>1999-07-22T12:08:35Z</time>
      </trkpt>
      <trkpt lat="43.387171" lon="-6.107810">
        <ele>261.093</ele>
        <time>1999-07-22T12:08:36Z</time>
      </trkpt>
      <trkpt lat="43.387139" lon="-6.107934">
        <ele>262.224</ele>
        <time>1999-07-22T12:08:41Z</time>
      </trkpt>
      <trkpt lat="43.387132" lon="-6.107959">
        <ele>262.470</ele>
        <time>1999-07-22T12:08:42Z</time>
      </trkpt>
      <trkpt lat="43.387107" lon="-6.108073">
        <ele>263.256</ele>
        <time>1999-07-22T12:08:46Z</time>
      </trkpt>
      <trkpt lat="43.387090" lon="-6.108169">
        <ele>263.883</ele>
        <time>1999-07-22T12:08:49Z</time>
      </trkpt>
      <trkpt lat="43.387081" lon="-6.108236">
        <ele>264.210</ele>
        <time>1999-07-22T12:08:51Z</time>
      </trkpt>
      <trkpt lat="43.387032" lon="-6.108447">
        <ele>265.456</ele>
        <time>1999-07-22T12:08:57Z</time>
      </trkpt>
      <trkpt lat="43.386947" lon="-6.108627">
        <ele>266.489</ele>
        <time>1999-07-22T12:09:03Z</time>
      </trkpt>
      <trkpt lat="43.386813" lon="-6.108820">
        <ele>267.606</ele>
        <time>1999-07-22T12:09:10Z</time>
      </trkpt>
      <trkpt lat="43.386793" lon="-6.108844">
        <ele>267.626</ele>
        <time>1999-07-22T12:09:11Z</time>
      </trkpt>
      <trkpt lat="43.386660" lon="-6.108978">
        <ele>268.808</ele>
        <time>1999-07-22T12:09:17Z</time>
      </trkpt>
      <trkpt lat="43.386619" lon="-6.109008">
        <ele>269.281</ele>
        <time>1999-07-22T12:09:19Z</time>
      </trkpt>
      <trkpt lat="43.386582" lon="-6.109045">
        <ele>269.816</ele>
        <time>1999-07-22T12:09:21Z</time>
      </trkpt>
      <trkpt lat="43.386528" lon="-6.109096">
        <ele>270.667</ele>
        <time>1999-07-22T12:09:24Z</time>
      </trkpt>
      <trkpt lat="43.386510" lon="-6.109105">
        <ele>271.013</ele>
        <time>1999-07-22T12:09:25Z</time>
      </trkpt>
      <trkpt lat="43.386462" lon="-6.109148">
        <ele>272.069</ele>
        <time>1999-07-22T12:09:28Z</time>
      </trkpt>
      <trkpt lat="43.386444" lon="-6.109189">
        <ele>272.616</ele>
        <time>1999-07-22T12:09:30Z</time>
      </trkpt>
      <trkpt lat="43.386426" lon="-6.109228">
        <ele>273.433</ele>
        <time>1999-07-22T12:09:32Z</time>
      </trkpt>
      <trkpt lat="43.386396" lon="-6.109301">
        <ele>274.689</ele>
        <time>1999-07-22T12:09:36Z</time>
      </trkpt>
      <trkpt lat="43.386360" lon="-6.109382">
        <ele>275.654</ele>
        <time>1999-07-22T12:09:40Z</time>
      </trkpt>
      <trkpt lat="43.386355" lon="-6.109402">
        <ele>275.856</ele>
        <time>1999-07-22T12:09:41Z</time>
      </trkpt>
      <trkpt lat="43.386327" lon="-6.109441">
        <ele>277.011</ele>
        <time>1999-07-22T12:09:44Z</time>
      </trkpt>
      <trkpt lat="43.386324" lon="-6.109457">
        <ele>277.208</ele>
        <time>1999-07-22T12:09:45Z</time>
      </trkpt>
      <trkpt lat="43.386321" lon="-6.109492">
        <ele>278.028</ele>
        <time>1999-07-22T12:09:47Z</time>
      </trkpt>
      <trkpt lat="43.386292" lon="-6.109540">
        <ele>279.033</ele>
        <time>1999-07-22T12:09:50Z</time>
      </trkpt>
      <trkpt lat="43.386283" lon="-6.109575">
        <ele>279.694</ele>
        <time>1999-07-22T12:09:52Z</time>
      </trkpt>
      <trkpt lat="43.386277" lon="-6.109607">
        <ele>280.250</ele>
        <time>1999-07-22T12:09:54Z</time>
      </trkpt>
      <trkpt lat="43.386247" lon="-6.109659">
        <ele>281.416</ele>
        <time>1999-07-22T12:09:58Z</time>
      </trkpt>
      <trkpt lat="43.386243" lon="-6.109671">
        <ele>281.693</ele>
        <time>1999-07-22T12:09:59Z</time>
      </trkpt>
      <trkpt lat="43.386238" lon="-6.109703">
        <ele>282.660</ele>
        <time>1999-07-22T12:10:01Z</time>
      </trkpt>
      <trkpt lat="43.386222" lon="-6.109776">
        <ele>283.826</ele>
        <time>1999-07-22T12:10:05Z</time>
      </trkpt>
      <trkpt lat="43.386226" lon="-6.109813">
        <ele>284.269</ele>
        <time>1999-07-22T12:10:07Z</time>
      </trkpt>
      <trkpt lat="43.386230" lon="-6.109870">
        <ele>285.004</ele>
        <time>1999-07-22T12:10:10Z</time>
      </trkpt>
      <trkpt lat="43.386243" lon="-6.109914">
        <ele>286.024</ele>
        <time>1999-07-22T12:10:12Z</time>
      </trkpt>
      <trkpt lat="43.386250" lon="-6.109936">
        <ele>286.408</ele>
        <time>1999-07-22T12:10:13Z</time>
      </trkpt>
      <trkpt lat="43.386258" lon="-6.110017">
        <ele>287.639</ele>
        <time>1999-07-22T12:10:17Z</time>
      </trkpt>
      <trkpt lat="43.386268" lon="-6.110056">
        <ele>288.214</ele>
        <time>1999-07-22T12:10:19Z</time>
      </trkpt>
      <trkpt lat="43.386275" lon="-6.110093">
        <ele>288.865</ele>
        <time>1999-07-22T12:10:21Z</time>
      </trkpt>
      <trkpt lat="43.386286" lon="-6.110171">
        <ele>289.891</ele>
        <time>1999-07-22T12:10:25Z</time>
      </trkpt>
      <trkpt lat="43.386298" lon="-6.110231">
        <ele>290.657</ele>
        <time>1999-07-22T12:10:28Z</time>
      </trkpt>
      <trkpt lat="43.386293" lon="-6.110252">
        <ele>291.274</ele>
        <time>1999-07-22T12:10:29Z</time>
      </trkpt>
      <trkpt lat="43.386289" lon="-6.110275">
        <ele>291.481</ele>
        <time>1999-07-22T12:10:30Z</time>
      </trkpt>
      <trkpt lat="43.386293" lon="-6.110345">
        <ele>292.417</ele>
        <time>1999-07-22T12:10:33Z</time>
      </trkpt>
      <trkpt lat="43.386302" lon="-6.110425">
        <ele>293.414</ele>
        <time>1999-07-22T12:10:37Z</time>
      </trkpt>
      <trkpt lat="43.386307" lon="-6.110518">
        <ele>294.654</ele>
        <time>1999-07-22T12:10:42Z</time>
      </trkpt>
      <trkpt lat="43.386313" lon="-6.110557">
        <ele>295.009</ele>
        <time>1999-07-22T12:10:44Z</time>
      </trkpt>
      <trkpt lat="43.386315" lon="-6.110619">
        <ele>295.808</ele>
        <time>1999-07-22T12:10:47Z</time>
      </trkpt>
      <trkpt lat="43.386308" lon="-6.110727">
        <ele>296.894</ele>
        <time>1999-07-22T12:10:52Z</time>
      </trkpt>
      <trkpt lat="43.386305" lon="-6.110807">
        <ele>297.869</ele>
        <time>1999-07-22T12:10:56Z</time>
      </trkpt>
      <trkpt lat="43.386299" lon="-6.110882">
        <ele>298.860</ele>
        <time>1999-07-22T12:10:59Z</time>
      </trkpt>
      <trkpt lat="43.386301" lon="-6.110909">
        <ele>299.016</ele>
        <time>1999-07-22T12:11:00Z</time>
      </trkpt>
      <trkpt lat="43.386287" lon="-6.111041">
        <ele>300.262</ele>
        <time>1999-07-22T12:11:05Z</time>
      </trkpt>
      <trkpt lat="43.386276" lon="-6.111066">
        <ele>300.419</ele>
        <time>1999-07-22T12:11:06Z</time>
      </trkpt>
      <trkpt lat="43.386259" lon="-6.111150">
        <ele>301.286</ele>
        <time>1999-07-22T12:11:09Z</time>
      </trkpt>
      <trkpt lat="43.386254" lon="-6.111236">
        <ele>301.692</ele>
        <time>1999-07-22T12:11:12Z</time>
      </trkpt>
      <trkpt lat="43.386255" lon="-6.111317">
        <ele>302.278</ele>
        <time>1999-07-22T12:11:15Z</time>
      </trkpt>
      <trkpt lat="43.386237" lon="-6.111397">
        <ele>303.033</ele>
        <time>1999-07-22T12:11:18Z</time>
      </trkpt>
      <trkpt lat="43.386232" lon="-6.111428">
        <ele>303.426</ele>
        <time>1999-07-22T12:11:19Z</time>
      </trkpt>
      <trkpt lat="43.386201" lon="-6.111585">
        <ele>304.608</ele>
        <time>1999-07-22T12:11:24Z</time>
      </trkpt>
      <trkpt lat="43.386176" lon="-6.111684">
        <ele>305.280</ele>
        <time>1999-07-22T12:11:27Z</time>
      </trkpt>
      <trkpt lat="43.386169" lon="-6.111718">
        <ele>305.875</ele>
        <time>1999-07-22T12:11:28Z</time>
      </trkpt>
      <trkpt lat="43.386153" lon="-6.111826">
        <ele>306.036</ele>
        <time>1999-07-22T12:11:31Z</time>
      </trkpt>
      <trkpt lat="43.386161" lon="-6.111931">
        <ele>306.442</ele>
        <time>1999-07-22T12:11:34Z</time>
      </trkpt>
      <trkpt lat="43.386161" lon="-6.111967">
        <ele>306.618</ele>
        <time>1999-07-22T12:11:35Z</time>
      </trkpt>
      <trkpt lat="43.386149" lon="-6.112064">
        <ele>306.845</ele>
        <time>1999-07-22T12:11:38Z</time>
      </trkpt>
      <trkpt lat="43.386151" lon="-6.112088">
        <ele>306.852</ele>
        <time>1999-07-22T12:11:39Z</time>
      </trkpt>
      <trkpt lat="43.386150" lon="-6.112188">
        <ele>307.688</ele>
        <time>1999-07-22T12:11:43Z</time>
      </trkpt>
      <trkpt lat="43.386164" lon="-6.112302">
        <ele>308.074</ele>
        <time>1999-07-22T12:11:47Z</time>
      </trkpt>
      <trkpt lat="43.386199" lon="-6.112475">
        <ele>308.856</ele>
        <time>1999-07-22T12:11:52Z</time>
      </trkpt>
      <trkpt lat="43.386208" lon="-6.112544">
        <ele>309.221</ele>
        <time>1999-07-22T12:11:54Z</time>
      </trkpt>
      <trkpt lat="43.386226" lon="-6.112725">
        <ele>309.808</ele>
        <time>1999-07-22T12:11:59Z</time>
      </trkpt>
      <trkpt lat="43.386236" lon="-6.112865">
        <ele>310.660</ele>
        <time>1999-07-22T12:12:03Z</time>
      </trkpt>
      <trkpt lat="43.386247" lon="-6.112935">
        <ele>310.875</ele>
        <time>1999-07-22T12:12:05Z</time>
      </trkpt>
      <trkpt lat="43.386277" lon="-6.113151">
        <ele>311.846</ele>
        <time>1999-07-22T12:12:11Z</time>
      </trkpt>
      <trkpt lat="43.386279" lon="-6.113188">
        <ele>312.082</ele>
        <time>1999-07-22T12:12:12Z</time>
      </trkpt>
      <trkpt lat="43.386280" lon="-6.113441">
        <ele>313.028</ele>
        <time>1999-07-22T12:12:18Z</time>
      </trkpt>
      <trkpt lat="43.386280" lon="-6.113580">
        <ele>313.465</ele>
        <time>1999-07-22T12:12:21Z</time>
      </trkpt>
      <trkpt lat="43.386284" lon="-6.113719">
        <ele>314.022</ele>
        <time>1999-07-22T12:12:24Z</time>
      </trkpt>
      <trkpt lat="43.386274" lon="-6.113776">
        <ele>314.088</ele>
        <time>1999-07-22T12:12:25Z</time>
      </trkpt>
      <trkpt lat="43.386210" lon="-6.114059">
        <ele>314.272</ele>
        <time>1999-07-22T12:12:31Z</time>
      </trkpt>
      <trkpt lat="43.386127" lon="-6.114241">
        <ele>314.813</ele>
        <time>1999-07-22T12:12:38Z</time>
      </trkpt>
      <trkpt lat="43.386115" lon="-6.114302">
        <ele>315.214</ele>
        <time>1999-07-22T12:12:40Z</time>
      </trkpt>
      <trkpt lat="43.386075" lon="-6.114411">
        <ele>316.208</ele>
        <time>1999-07-22T12:12:44Z</time>
      </trkpt>
      <trkpt lat="43.386024" lon="-6.114546">
        <ele>317.250</ele>
        <time>1999-07-22T12:12:49Z</time>
      </trkpt>
      <trkpt lat="43.385994" lon="-6.114575">
        <ele>317.875</ele>
        <time>1999-07-22T12:12:51Z</time>
      </trkpt>
      <trkpt lat="43.385949" lon="-6.114632">
        <ele>318.846</ele>
        <time>1999-07-22T12:12:54Z</time>
      </trkpt>
      <trkpt lat="43.385905" lon="-6.114700">
        <ele>319.482</ele>
        <time>1999-07-22T12:12:57Z</time>
      </trkpt>
      <trkpt lat="43.385897" lon="-6.114727">
        <ele>319.858</ele>
        <time>1999-07-22T12:12:58Z</time>
      </trkpt>
      <trkpt lat="43.385844" lon="-6.114858">
        <ele>321.085</ele>
        <time>1999-07-22T12:13:03Z</time>
      </trkpt>
      <trkpt lat="43.385789" lon="-6.114950">
        <ele>322.242</ele>
        <time>1999-07-22T12:13:07Z</time>
      </trkpt>
      <trkpt lat="43.385738" lon="-6.114998">
        <ele>323.058</ele>
        <time>1999-07-22T12:13:10Z</time>
      </trkpt>
      <trkpt lat="43.385689" lon="-6.115035">
        <ele>323.435</ele>
        <time>1999-07-22T12:13:12Z</time>
      </trkpt>
      <trkpt lat="43.385577" lon="-6.115146">
        <ele>324.486</ele>
        <time>1999-07-22T12:13:17Z</time>
      </trkpt>
      <trkpt lat="43.385480" lon="-6.115329">
        <ele>325.214</ele>
        <time>1999-07-22T12:13:22Z</time>
      </trkpt>
      <trkpt lat="43.385454" lon="-6.115370">
        <ele>325.208</ele>
        <time>1999-07-22T12:13:23Z</time>
      </trkpt>
      <trkpt lat="43.385377" lon="-6.115541">
        <ele>325.456</ele>
        <time>1999-07-22T12:13:27Z</time>
      </trkpt>
      <trkpt lat="43.385357" lon="-6.115598">
        <ele>325.461</ele>
        <time>1999-07-22T12:13:28Z</time>
      </trkpt>
      <trkpt lat="43.385322" lon="-6.115728">
        <ele>325.462</ele>
        <time>1999-07-22T12:13:30Z</time>
      </trkpt>
      <trkpt lat="43.385280" lon="-6.116012">
        <ele>325.228</ele>
        <time>1999-07-22T12:13:34Z</time>
      </trkpt>
      <trkpt lat="43.385275" lon="-6.116170">
        <ele>325.024</ele>
        <time>1999-07-22T12:13:36Z</time>
      </trkpt>
      <trkpt lat="43.385304" lon="-6.116415">
        <ele>324.491</ele>
        <time>1999-07-22T12:13:39Z</time>
      </trkpt>
      <trkpt lat="43.385319" lon="-6.116492">
        <ele>324.218</ele>
        <time>1999-07-22T12:13:40Z</time>
      </trkpt>
      <trkpt lat="43.385358" lon="-6.116659">
        <ele>324.074</ele>
        <time>1999-07-22T12:13:42Z</time>
      </trkpt>
      <trkpt lat="43.385361" lon="-6.116740">
        <ele>323.865</ele>
        <time>1999-07-22T12:13:43Z</time>
      </trkpt>
      <trkpt lat="43.385311" lon="-6.116982">
        <ele>323.668</ele>
        <time>1999-07-22T12:13:46Z</time>
      </trkpt>
      <trkpt lat="43.385285" lon="-6.117134">
        <ele>323.614</ele>
        <time>1999-07-22T12:13:48Z</time>
      </trkpt>
      <trkpt lat="43.385285" lon="-6.117326">
        <ele>323.608</ele>
        <time>1999-07-22T12:13:51Z</time>
      </trkpt>
      <trkpt lat="43.385294" lon="-6.117435">
        <ele>323.629</ele>
        <time>1999-07-22T12:13:53Z</time>
      </trkpt>
      <trkpt lat="43.385284" lon="-6.117668">
        <ele>323.864</ele>
        <time>1999-07-22T12:13:57Z</time>
      </trkpt>
      <trkpt lat="43.385273" lon="-6.117779">
        <ele>323.855</ele>
        <time>1999-07-22T12:13:59Z</time>
      </trkpt>
      <trkpt lat="43.385234" lon="-6.118084">
        <ele>324.271</ele>
        <time>1999-07-22T12:14:05Z</time>
      </trkpt>
      <trkpt lat="43.385223" lon="-6.118176">
        <ele>324.687</ele>
        <time>1999-07-22T12:14:07Z</time>
      </trkpt>
      <trkpt lat="43.385213" lon="-6.118300">
        <ele>325.214</ele>
        <time>1999-07-22T12:14:10Z</time>
      </trkpt>
      <trkpt lat="43.385196" lon="-6.118376">
        <ele>325.681</ele>
        <time>1999-07-22T12:14:12Z</time>
      </trkpt>
      <trkpt lat="43.385177" lon="-6.118443">
        <ele>326.037</ele>
        <time>1999-07-22T12:14:14Z</time>
      </trkpt>
      <trkpt lat="43.385153" lon="-6.118524">
        <ele>326.477</ele>
        <time>1999-07-22T12:14:16Z</time>
      </trkpt>
      <trkpt lat="43.385139" lon="-6.118567">
        <ele>326.661</ele>
        <time>1999-07-22T12:14:17Z</time>
      </trkpt>
      <trkpt lat="43.385115" lon="-6.118655">
        <ele>327.227</ele>
        <time>1999-07-22T12:14:19Z</time>
      </trkpt>
      <trkpt lat="43.385103" lon="-6.118702">
        <ele>327.608</ele>
        <time>1999-07-22T12:14:20Z</time>
      </trkpt>
      <trkpt lat="43.385046" lon="-6.118862">
        <ele>329.090</ele>
        <time>1999-07-22T12:14:24Z</time>
      </trkpt>
      <trkpt lat="43.385025" lon="-6.118890">
        <ele>329.675</ele>
        <time>1999-07-22T12:14:25Z</time>
      </trkpt>
      <trkpt lat="43.384973" lon="-6.118935">
        <ele>329.836</ele>
        <time>1999-07-22T12:14:27Z</time>
      </trkpt>
      <trkpt lat="43.384893" lon="-6.118975">
        <ele>330.682</ele>
        <time>1999-07-22T12:14:30Z</time>
      </trkpt>
      <trkpt lat="43.384870" lon="-6.118977">
        <ele>331.088</ele>
        <time>1999-07-22T12:14:31Z</time>
      </trkpt>
      <trkpt lat="43.384823" lon="-6.118979">
        <ele>331.475</ele>
        <time>1999-07-22T12:14:33Z</time>
      </trkpt>
      <trkpt lat="43.384779" lon="-6.118995">
        <ele>332.232</ele>
        <time>1999-07-22T12:14:35Z</time>
      </trkpt>
      <trkpt lat="43.384763" lon="-6.119043">
        <ele>333.058</ele>
        <time>1999-07-22T12:14:37Z</time>
      </trkpt>
      <trkpt lat="43.384760" lon="-6.119071">
        <ele>333.482</ele>
        <time>1999-07-22T12:14:38Z</time>
      </trkpt>
      <trkpt lat="43.384753" lon="-6.119147">
        <ele>334.843</ele>
        <time>1999-07-22T12:14:41Z</time>
      </trkpt>
      <trkpt lat="43.384752" lon="-6.119174">
        <ele>335.417</ele>
        <time>1999-07-22T12:14:42Z</time>
      </trkpt>
      <trkpt lat="43.384750" lon="-6.119198">
        <ele>335.808</ele>
        <time>1999-07-22T12:14:43Z</time>
      </trkpt>
      <trkpt lat="43.384748" lon="-6.119223">
        <ele>336.421</ele>
        <time>1999-07-22T12:14:44Z</time>
      </trkpt>
      <trkpt lat="43.384744" lon="-6.119249">
        <ele>337.066</ele>
        <time>1999-07-22T12:14:45Z</time>
      </trkpt>
      <trkpt lat="43.384722" lon="-6.119313">
        <ele>338.417</ele>
        <time>1999-07-22T12:14:48Z</time>
      </trkpt>
      <trkpt lat="43.384690" lon="-6.119347">
        <ele>339.413</ele>
        <time>1999-07-22T12:14:51Z</time>
      </trkpt>
      <trkpt lat="43.384664" lon="-6.119377">
        <ele>341.019</ele>
        <time>1999-07-22T12:14:54Z</time>
      </trkpt>
      <trkpt lat="43.384642" lon="-6.119432">
        <ele>342.236</ele>
        <time>1999-07-22T12:14:57Z</time>
      </trkpt>
      <trkpt lat="43.384623" lon="-6.119487">
        <ele>343.413</ele>
        <time>1999-07-22T12:15:00Z</time>
      </trkpt>
      <trkpt lat="43.384594" lon="-6.119557">
        <ele>344.289</ele>
        <time>1999-07-22T12:15:04Z</time>
      </trkpt>
      <trkpt lat="43.384584" lon="-6.119572">
        <ele>344.615</ele>
        <time>1999-07-22T12:15:05Z</time>
      </trkpt>
      <trkpt lat="43.384568" lon="-6.119607">
        <ele>345.065</ele>
        <time>1999-07-22T12:15:07Z</time>
      </trkpt>
      <trkpt lat="43.384568" lon="-6.119626">
        <ele>345.411</ele>
        <time>1999-07-22T12:15:08Z</time>
      </trkpt>
      <trkpt lat="43.384568" lon="-6.119656">
        <ele>346.008</ele>
        <time>1999-07-22T12:15:10Z</time>
      </trkpt>
      <trkpt lat="43.384562" lon="-6.119694">
        <ele>346.684</ele>
        <time>1999-07-22T12:15:12Z</time>
      </trkpt>
      <trkpt lat="43.384544" lon="-6.119720">
        <ele>347.469</ele>
        <time>1999-07-22T12:15:14Z</time>
      </trkpt>
      <trkpt lat="43.384539" lon="-6.119734">
        <ele>347.840</ele>
        <time>1999-07-22T12:15:15Z</time>
      </trkpt>
      <trkpt lat="43.384535" lon="-6.119750">
        <ele>348.066</ele>
        <time>1999-07-22T12:15:16Z</time>
      </trkpt>
      <trkpt lat="43.384528" lon="-6.119781">
        <ele>348.862</ele>
        <time>1999-07-22T12:15:18Z</time>
      </trkpt>
      <trkpt lat="43.384531" lon="-6.119847">
        <ele>350.039</ele>
        <time>1999-07-22T12:15:22Z</time>
      </trkpt>
      <trkpt lat="43.384525" lon="-6.119878">
        <ele>350.876</ele>
        <time>1999-07-22T12:15:24Z</time>
      </trkpt>
      <trkpt lat="43.384521" lon="-6.119896">
        <ele>351.052</ele>
        <time>1999-07-22T12:15:25Z</time>
      </trkpt>
      <trkpt lat="43.384520" lon="-6.119946">
        <ele>352.279</ele>
        <time>1999-07-22T12:15:28Z</time>
      </trkpt>
      <trkpt lat="43.384521" lon="-6.119980">
        <ele>352.805</ele>
        <time>1999-07-22T12:15:30Z</time>
      </trkpt>
      <trkpt lat="43.384520" lon="-6.120000">
        <ele>353.225</ele>
        <time>1999-07-22T12:15:31Z</time>
      </trkpt>
      <trkpt lat="43.384506" lon="-6.120098">
        <ele>354.208</ele>
        <time>1999-07-22T12:15:35Z</time>
      </trkpt>
      <trkpt lat="43.384505" lon="-6.120152">
        <ele>354.670</ele>
        <time>1999-07-22T12:15:37Z</time>
      </trkpt>
      <trkpt lat="43.384511" lon="-6.120237">
        <ele>355.425</ele>
        <time>1999-07-22T12:15:40Z</time>
      </trkpt>
      <trkpt lat="43.384515" lon="-6.120317">
        <ele>356.266</ele>
        <time>1999-07-22T12:15:43Z</time>
      </trkpt>
      <trkpt lat="43.384512" lon="-6.120347">
        <ele>356.462</ele>
        <time>1999-07-22T12:15:44Z</time>
      </trkpt>
      <trkpt lat="43.384510" lon="-6.120471">
        <ele>357.238</ele>
        <time>1999-07-22T12:15:48Z</time>
      </trkpt>
      <trkpt lat="43.384505" lon="-6.120532">
        <ele>357.475</ele>
        <time>1999-07-22T12:15:50Z</time>
      </trkpt>
      <trkpt lat="43.384495" lon="-6.120588">
        <ele>357.882</ele>
        <time>1999-07-22T12:15:52Z</time>
      </trkpt>
      <trkpt lat="43.384463" lon="-6.120736">
        <ele>358.618</ele>
        <time>1999-07-22T12:15:57Z</time>
      </trkpt>
      <trkpt lat="43.384441" lon="-6.120822">
        <ele>359.099</ele>
        <time>1999-07-22T12:16:00Z</time>
      </trkpt>
      <trkpt lat="43.384429" lon="-6.120955">
        <ele>359.807</ele>
        <time>1999-07-22T12:16:05Z</time>
      </trkpt>
      <trkpt lat="43.384440" lon="-6.121010">
        <ele>360.227</ele>
        <time>1999-07-22T12:16:07Z</time>
      </trkpt>
      <trkpt lat="43.384463" lon="-6.121078">
        <ele>360.808</ele>
        <time>1999-07-22T12:16:10Z</time>
      </trkpt>
      <trkpt lat="43.384469" lon="-6.121147">
        <ele>361.882</ele>
        <time>1999-07-22T12:16:13Z</time>
      </trkpt>
      <trkpt lat="43.384468" lon="-6.121173">
        <ele>362.017</ele>
        <time>1999-07-22T12:16:14Z</time>
      </trkpt>
      <trkpt lat="43.384466" lon="-6.121199">
        <ele>362.228</ele>
        <time>1999-07-22T12:16:15Z</time>
      </trkpt>
      <trkpt lat="43.384462" lon="-6.121247">
        <ele>362.684</ele>
        <time>1999-07-22T12:16:17Z</time>
      </trkpt>
      <trkpt lat="43.384458" lon="-6.121269">
        <ele>362.650</ele>
        <time>1999-07-22T12:16:18Z</time>
      </trkpt>
      <trkpt lat="43.384454" lon="-6.121284">
        <ele>362.887</ele>
        <time>1999-07-22T12:16:19Z</time>
      </trkpt>
      <trkpt lat="43.384445" lon="-6.121292">
        <ele>362.834</ele>
        <time>1999-07-22T12:16:22Z</time>
      </trkpt>
      <trkpt lat="43.384401" lon="-6.121375">
        <ele>361.490</ele>
        <time>1999-07-22T12:21:25Z</time>
      </trkpt>
      <trkpt lat="43.384383" lon="-6.121421">
        <ele>361.484</ele>
        <time>1999-07-22T12:21:26Z</time>
      </trkpt>
      <trkpt lat="43.384344" lon="-6.121547">
        <ele>361.407</ele>
        <time>1999-07-22T12:21:28Z</time>
      </trkpt>
      <trkpt lat="43.384327" lon="-6.121622">
        <ele>361.417</ele>
        <time>1999-07-22T12:21:29Z</time>
      </trkpt>
      <trkpt lat="43.384298" lon="-6.121885">
        <ele>361.208</ele>
        <time>1999-07-22T12:21:32Z</time>
      </trkpt>
      <trkpt lat="43.384313" lon="-6.122092">
        <ele>361.011</ele>
        <time>1999-07-22T12:21:34Z</time>
      </trkpt>
      <trkpt lat="43.384338" lon="-6.122299">
        <ele>360.296</ele>
        <time>1999-07-22T12:21:36Z</time>
      </trkpt>
      <trkpt lat="43.384358" lon="-6.122395">
        <ele>360.097</ele>
        <time>1999-07-22T12:21:37Z</time>
      </trkpt>
      <trkpt lat="43.384424" lon="-6.122575">
        <ele>358.833</ele>
        <time>1999-07-22T12:21:39Z</time>
      </trkpt>
      <trkpt lat="43.384525" lon="-6.122769">
        <ele>355.679</ele>
        <time>1999-07-22T12:21:41Z</time>
      </trkpt>
      <trkpt lat="43.384575" lon="-6.122869">
        <ele>354.476</ele>
        <time>1999-07-22T12:21:42Z</time>
      </trkpt>
      <trkpt lat="43.384618" lon="-6.122972">
        <ele>353.273</ele>
        <time>1999-07-22T12:21:43Z</time>
      </trkpt>
      <trkpt lat="43.384655" lon="-6.123078">
        <ele>351.659</ele>
        <time>1999-07-22T12:21:44Z</time>
      </trkpt>
      <trkpt lat="43.384683" lon="-6.123182">
        <ele>350.484</ele>
        <time>1999-07-22T12:21:45Z</time>
      </trkpt>
      <trkpt lat="43.384713" lon="-6.123284">
        <ele>349.207</ele>
        <time>1999-07-22T12:21:46Z</time>
      </trkpt>
      <trkpt lat="43.384748" lon="-6.123387">
        <ele>348.017</ele>
        <time>1999-07-22T12:21:47Z</time>
      </trkpt>
      <trkpt lat="43.384785" lon="-6.123496">
        <ele>346.808</ele>
        <time>1999-07-22T12:21:48Z</time>
      </trkpt>
      <trkpt lat="43.384823" lon="-6.123611">
        <ele>345.821</ele>
        <time>1999-07-22T12:21:49Z</time>
      </trkpt>
      <trkpt lat="43.384867" lon="-6.123722">
        <ele>345.036</ele>
        <time>1999-07-22T12:21:50Z</time>
      </trkpt>
      <trkpt lat="43.384915" lon="-6.123826">
        <ele>344.027</ele>
        <time>1999-07-22T12:21:51Z</time>
      </trkpt>
      <trkpt lat="43.384969" lon="-6.123925">
        <ele>342.883</ele>
        <time>1999-07-22T12:21:52Z</time>
      </trkpt>
      <trkpt lat="43.385027" lon="-6.124021">
        <ele>341.419</ele>
        <time>1999-07-22T12:21:53Z</time>
      </trkpt>
      <trkpt lat="43.385079" lon="-6.124118">
        <ele>339.846</ele>
        <time>1999-07-22T12:21:54Z</time>
      </trkpt>
      <trkpt lat="43.385127" lon="-6.124214">
        <ele>338.623</ele>
        <time>1999-07-22T12:21:55Z</time>
      </trkpt>
      <trkpt lat="43.385172" lon="-6.124314">
        <ele>337.269</ele>
        <time>1999-07-22T12:21:56Z</time>
      </trkpt>
      <trkpt lat="43.385216" lon="-6.124418">
        <ele>335.839</ele>
        <time>1999-07-22T12:21:57Z</time>
      </trkpt>
      <trkpt lat="43.385257" lon="-6.124524">
        <ele>334.401</ele>
        <time>1999-07-22T12:21:58Z</time>
      </trkpt>
      <trkpt lat="43.385295" lon="-6.124629">
        <ele>333.021</ele>
        <time>1999-07-22T12:21:59Z</time>
      </trkpt>
      <trkpt lat="43.385327" lon="-6.124738">
        <ele>331.408</ele>
        <time>1999-07-22T12:22:00Z</time>
      </trkpt>
      <trkpt lat="43.385360" lon="-6.124849">
        <ele>330.296</ele>
        <time>1999-07-22T12:22:01Z</time>
      </trkpt>
      <trkpt lat="43.385393" lon="-6.124961">
        <ele>328.611</ele>
        <time>1999-07-22T12:22:02Z</time>
      </trkpt>
      <trkpt lat="43.385430" lon="-6.125068">
        <ele>327.622</ele>
        <time>1999-07-22T12:22:03Z</time>
      </trkpt>
      <trkpt lat="43.385466" lon="-6.125178">
        <ele>326.278</ele>
        <time>1999-07-22T12:22:04Z</time>
      </trkpt>
      <trkpt lat="43.385504" lon="-6.125291">
        <ele>324.814</ele>
        <time>1999-07-22T12:22:05Z</time>
      </trkpt>
      <trkpt lat="43.385547" lon="-6.125403">
        <ele>323.211</ele>
        <time>1999-07-22T12:22:06Z</time>
      </trkpt>
      <trkpt lat="43.385594" lon="-6.125514">
        <ele>322.018</ele>
        <time>1999-07-22T12:22:07Z</time>
      </trkpt>
      <trkpt lat="43.385649" lon="-6.125626">
        <ele>320.264</ele>
        <time>1999-07-22T12:22:08Z</time>
      </trkpt>
      <trkpt lat="43.385709" lon="-6.125739">
        <ele>318.652</ele>
        <time>1999-07-22T12:22:09Z</time>
      </trkpt>
      <trkpt lat="43.385773" lon="-6.125858">
        <ele>315.453</ele>
        <time>1999-07-22T12:22:10Z</time>
      </trkpt>
      <trkpt lat="43.385843" lon="-6.125983">
        <ele>314.008</ele>
        <time>1999-07-22T12:22:11Z</time>
      </trkpt>
      <trkpt lat="43.385915" lon="-6.126114">
        <ele>313.208</ele>
        <time>1999-07-22T12:22:12Z</time>
      </trkpt>
      <trkpt lat="43.385993" lon="-6.126242">
        <ele>312.028</ele>
        <time>1999-07-22T12:22:13Z</time>
      </trkpt>
      <trkpt lat="43.386070" lon="-6.126361">
        <ele>310.613</ele>
        <time>1999-07-22T12:22:14Z</time>
      </trkpt>
      <trkpt lat="43.386147" lon="-6.126469">
        <ele>309.274</ele>
        <time>1999-07-22T12:22:15Z</time>
      </trkpt>
      <trkpt lat="43.386225" lon="-6.126571">
        <ele>308.090</ele>
        <time>1999-07-22T12:22:16Z</time>
      </trkpt>
      <trkpt lat="43.386302" lon="-6.126667">
        <ele>306.446</ele>
        <time>1999-07-22T12:22:17Z</time>
      </trkpt>
      <trkpt lat="43.386385" lon="-6.126762">
        <ele>305.233</ele>
        <time>1999-07-22T12:22:18Z</time>
      </trkpt>
      <trkpt lat="43.386469" lon="-6.126854">
        <ele>304.050</ele>
        <time>1999-07-22T12:22:19Z</time>
      </trkpt>
      <trkpt lat="43.386542" lon="-6.126942">
        <ele>302.826</ele>
        <time>1999-07-22T12:22:20Z</time>
      </trkpt>
      <trkpt lat="43.386610" lon="-6.127021">
        <ele>301.678</ele>
        <time>1999-07-22T12:22:21Z</time>
      </trkpt>
      <trkpt lat="43.386682" lon="-6.127087">
        <ele>299.233</ele>
        <time>1999-07-22T12:22:22Z</time>
      </trkpt>
      <trkpt lat="43.386754" lon="-6.127146">
        <ele>297.626</ele>
        <time>1999-07-22T12:22:23Z</time>
      </trkpt>
      <trkpt lat="43.386825" lon="-6.127193">
        <ele>296.208</ele>
        <time>1999-07-22T12:22:24Z</time>
      </trkpt>
      <trkpt lat="43.386887" lon="-6.127228">
        <ele>293.850</ele>
        <time>1999-07-22T12:22:25Z</time>
      </trkpt>
      <trkpt lat="43.386942" lon="-6.127251">
        <ele>292.445</ele>
        <time>1999-07-22T12:22:26Z</time>
      </trkpt>
      <trkpt lat="43.386994" lon="-6.127260">
        <ele>291.226</ele>
        <time>1999-07-22T12:22:27Z</time>
      </trkpt>
      <trkpt lat="43.387043" lon="-6.127247">
        <ele>289.612</ele>
        <time>1999-07-22T12:22:28Z</time>
      </trkpt>
      <trkpt lat="43.387095" lon="-6.127216">
        <ele>288.258</ele>
        <time>1999-07-22T12:22:29Z</time>
      </trkpt>
      <trkpt lat="43.387150" lon="-6.127175">
        <ele>286.895</ele>
        <time>1999-07-22T12:22:30Z</time>
      </trkpt>
      <trkpt lat="43.387210" lon="-6.127121">
        <ele>285.462</ele>
        <time>1999-07-22T12:22:31Z</time>
      </trkpt>
      <trkpt lat="43.387265" lon="-6.127067">
        <ele>283.818</ele>
        <time>1999-07-22T12:22:32Z</time>
      </trkpt>
      <trkpt lat="43.387313" lon="-6.127010">
        <ele>282.647</ele>
        <time>1999-07-22T12:22:33Z</time>
      </trkpt>
      <trkpt lat="43.387404" lon="-6.126907">
        <ele>280.629</ele>
        <time>1999-07-22T12:22:35Z</time>
      </trkpt>
      <trkpt lat="43.387453" lon="-6.126869">
        <ele>279.021</ele>
        <time>1999-07-22T12:22:36Z</time>
      </trkpt>
      <trkpt lat="43.387504" lon="-6.126854">
        <ele>277.808</ele>
        <time>1999-07-22T12:22:37Z</time>
      </trkpt>
      <trkpt lat="43.387596" lon="-6.126892">
        <ele>276.257</ele>
        <time>1999-07-22T12:22:39Z</time>
      </trkpt>
      <trkpt lat="43.387688" lon="-6.127102">
        <ele>274.612</ele>
        <time>1999-07-22T12:22:42Z</time>
      </trkpt>
      <trkpt lat="43.387723" lon="-6.127325">
        <ele>273.083</ele>
        <time>1999-07-22T12:22:44Z</time>
      </trkpt>
      <trkpt lat="43.387760" lon="-6.127432">
        <ele>272.459</ele>
        <time>1999-07-22T12:22:45Z</time>
      </trkpt>
      <trkpt lat="43.387791" lon="-6.127538">
        <ele>271.695</ele>
        <time>1999-07-22T12:22:46Z</time>
      </trkpt>
      <trkpt lat="43.387815" lon="-6.127644">
        <ele>271.222</ele>
        <time>1999-07-22T12:22:47Z</time>
      </trkpt>
      <trkpt lat="43.387848" lon="-6.127854">
        <ele>270.249</ele>
        <time>1999-07-22T12:22:49Z</time>
      </trkpt>
      <trkpt lat="43.387861" lon="-6.127952">
        <ele>269.445</ele>
        <time>1999-07-22T12:22:50Z</time>
      </trkpt>
      <trkpt lat="43.387868" lon="-6.128056">
        <ele>269.058</ele>
        <time>1999-07-22T12:22:51Z</time>
      </trkpt>
      <trkpt lat="43.387859" lon="-6.128277">
        <ele>267.652</ele>
        <time>1999-07-22T12:22:53Z</time>
      </trkpt>
      <trkpt lat="43.387849" lon="-6.128391">
        <ele>267.017</ele>
        <time>1999-07-22T12:22:54Z</time>
      </trkpt>
      <trkpt lat="43.387839" lon="-6.128505">
        <ele>266.408</ele>
        <time>1999-07-22T12:22:55Z</time>
      </trkpt>
      <trkpt lat="43.387822" lon="-6.128840">
        <ele>265.688</ele>
        <time>1999-07-22T12:22:58Z</time>
      </trkpt>
      <trkpt lat="43.387831" lon="-6.128940">
        <ele>264.893</ele>
        <time>1999-07-22T12:22:59Z</time>
      </trkpt>
      <trkpt lat="43.387967" lon="-6.129182">
        <ele>263.624</ele>
        <time>1999-07-22T12:23:02Z</time>
      </trkpt>
      <trkpt lat="43.388034" lon="-6.129251">
        <ele>263.220</ele>
        <time>1999-07-22T12:23:03Z</time>
      </trkpt>
      <trkpt lat="43.388160" lon="-6.129378">
        <ele>262.446</ele>
        <time>1999-07-22T12:23:05Z</time>
      </trkpt>
      <trkpt lat="43.388206" lon="-6.129455">
        <ele>262.063</ele>
        <time>1999-07-22T12:23:06Z</time>
      </trkpt>
      <trkpt lat="43.388297" lon="-6.129652">
        <ele>260.480</ele>
        <time>1999-07-22T12:23:08Z</time>
      </trkpt>
      <trkpt lat="43.388330" lon="-6.129755">
        <ele>260.056</ele>
        <time>1999-07-22T12:23:09Z</time>
      </trkpt>
      <trkpt lat="43.388381" lon="-6.129938">
        <ele>259.229</ele>
        <time>1999-07-22T12:23:11Z</time>
      </trkpt>
      <trkpt lat="43.388422" lon="-6.130106">
        <ele>257.400</ele>
        <time>1999-07-22T12:23:13Z</time>
      </trkpt>
      <trkpt lat="43.388439" lon="-6.130192">
        <ele>256.220</ele>
        <time>1999-07-22T12:23:14Z</time>
      </trkpt>
      <trkpt lat="43.388460" lon="-6.130283">
        <ele>255.008</ele>
        <time>1999-07-22T12:23:15Z</time>
      </trkpt>
      <trkpt lat="43.388482" lon="-6.130380">
        <ele>253.635</ele>
        <time>1999-07-22T12:23:16Z</time>
      </trkpt>
      <trkpt lat="43.388509" lon="-6.130475">
        <ele>252.410</ele>
        <time>1999-07-22T12:23:17Z</time>
      </trkpt>
      <trkpt lat="43.388543" lon="-6.130558">
        <ele>250.821</ele>
        <time>1999-07-22T12:23:18Z</time>
      </trkpt>
      <trkpt lat="43.388584" lon="-6.130629">
        <ele>249.257</ele>
        <time>1999-07-22T12:23:19Z</time>
      </trkpt>
      <trkpt lat="43.388639" lon="-6.130683">
        <ele>247.493</ele>
        <time>1999-07-22T12:23:20Z</time>
      </trkpt>
      <trkpt lat="43.388702" lon="-6.130714">
        <ele>245.810</ele>
        <time>1999-07-22T12:23:21Z</time>
      </trkpt>
      <trkpt lat="43.388765" lon="-6.130728">
        <ele>244.287</ele>
        <time>1999-07-22T12:23:22Z</time>
      </trkpt>
      <trkpt lat="43.388830" lon="-6.130717">
        <ele>242.813</ele>
        <time>1999-07-22T12:23:23Z</time>
      </trkpt>
      <trkpt lat="43.388902" lon="-6.130688">
        <ele>241.632</ele>
        <time>1999-07-22T12:23:24Z</time>
      </trkpt>
      <trkpt lat="43.388980" lon="-6.130648">
        <ele>240.492</ele>
        <time>1999-07-22T12:23:25Z</time>
      </trkpt>
      <trkpt lat="43.389056" lon="-6.130605">
        <ele>239.011</ele>
        <time>1999-07-22T12:23:26Z</time>
      </trkpt>
      <trkpt lat="43.389117" lon="-6.130569">
        <ele>237.808</ele>
        <time>1999-07-22T12:23:27Z</time>
      </trkpt>
      <trkpt lat="43.389170" lon="-6.130552">
        <ele>236.446</ele>
        <time>1999-07-22T12:23:28Z</time>
      </trkpt>
      <trkpt lat="43.389214" lon="-6.130560">
        <ele>235.441</ele>
        <time>1999-07-22T12:23:29Z</time>
      </trkpt>
      <trkpt lat="43.389257" lon="-6.130580">
        <ele>233.822</ele>
        <time>1999-07-22T12:23:30Z</time>
      </trkpt>
      <trkpt lat="43.389286" lon="-6.130628">
        <ele>232.648</ele>
        <time>1999-07-22T12:23:31Z</time>
      </trkpt>
      <trkpt lat="43.389306" lon="-6.130688">
        <ele>231.444</ele>
        <time>1999-07-22T12:23:32Z</time>
      </trkpt>
      <trkpt lat="43.389282" lon="-6.130763">
        <ele>230.241</ele>
        <time>1999-07-22T12:23:33Z</time>
      </trkpt>
      <trkpt lat="43.389261" lon="-6.130840">
        <ele>229.228</ele>
        <time>1999-07-22T12:23:34Z</time>
      </trkpt>
      <trkpt lat="43.389246" lon="-6.130921">
        <ele>227.664</ele>
        <time>1999-07-22T12:23:35Z</time>
      </trkpt>
      <trkpt lat="43.389233" lon="-6.131001">
        <ele>224.293</ele>
        <time>1999-07-22T12:23:36Z</time>
      </trkpt>
      <trkpt lat="43.389221" lon="-6.131081">
        <ele>222.665</ele>
        <time>1999-07-22T12:23:37Z</time>
      </trkpt>
      <trkpt lat="43.389216" lon="-6.131163">
        <ele>221.621</ele>
        <time>1999-07-22T12:23:38Z</time>
      </trkpt>
      <trkpt lat="43.389214" lon="-6.131253">
        <ele>220.808</ele>
        <time>1999-07-22T12:23:39Z</time>
      </trkpt>
      <trkpt lat="43.389227" lon="-6.131345">
        <ele>220.262</ele>
        <time>1999-07-22T12:23:40Z</time>
      </trkpt>
      <trkpt lat="43.389271" lon="-6.131509">
        <ele>218.897</ele>
        <time>1999-07-22T12:23:42Z</time>
      </trkpt>
      <trkpt lat="43.389303" lon="-6.131578">
        <ele>218.428</ele>
        <time>1999-07-22T12:23:43Z</time>
      </trkpt>
      <trkpt lat="43.389344" lon="-6.131638">
        <ele>217.834</ele>
        <time>1999-07-22T12:23:44Z</time>
      </trkpt>
      <trkpt lat="43.389442" lon="-6.131737">
        <ele>216.260</ele>
        <time>1999-07-22T12:23:46Z</time>
      </trkpt>
      <trkpt lat="43.389492" lon="-6.131789">
        <ele>215.677</ele>
        <time>1999-07-22T12:23:47Z</time>
      </trkpt>
      <trkpt lat="43.389580" lon="-6.131904">
        <ele>214.644</ele>
        <time>1999-07-22T12:23:49Z</time>
      </trkpt>
      <trkpt lat="43.389695" lon="-6.132040">
        <ele>213.210</ele>
        <time>1999-07-22T12:23:51Z</time>
      </trkpt>
      <trkpt lat="43.389754" lon="-6.132107">
        <ele>212.844</ele>
        <time>1999-07-22T12:23:52Z</time>
      </trkpt>
      <trkpt lat="43.389864" lon="-6.132234">
        <ele>212.205</ele>
        <time>1999-07-22T12:23:54Z</time>
      </trkpt>
      <trkpt lat="43.389901" lon="-6.132301">
        <ele>211.815</ele>
        <time>1999-07-22T12:23:55Z</time>
      </trkpt>
      <trkpt lat="43.389928" lon="-6.132375">
        <ele>211.408</ele>
        <time>1999-07-22T12:23:56Z</time>
      </trkpt>
      <trkpt lat="43.389944" lon="-6.132450">
        <ele>210.857</ele>
        <time>1999-07-22T12:23:57Z</time>
      </trkpt>
      <trkpt lat="43.389941" lon="-6.132632">
        <ele>209.442</ele>
        <time>1999-07-22T12:23:59Z</time>
      </trkpt>
      <trkpt lat="43.389916" lon="-6.132834">
        <ele>208.063</ele>
        <time>1999-07-22T12:24:01Z</time>
      </trkpt>
      <trkpt lat="43.389915" lon="-6.133053">
        <ele>206.289</ele>
        <time>1999-07-22T12:24:03Z</time>
      </trkpt>
      <trkpt lat="43.389919" lon="-6.133166">
        <ele>205.495</ele>
        <time>1999-07-22T12:24:04Z</time>
      </trkpt>
      <trkpt lat="43.389926" lon="-6.133274">
        <ele>204.412</ele>
        <time>1999-07-22T12:24:05Z</time>
      </trkpt>
      <trkpt lat="43.389933" lon="-6.133390">
        <ele>202.829</ele>
        <time>1999-07-22T12:24:06Z</time>
      </trkpt>
      <trkpt lat="43.389952" lon="-6.133647">
        <ele>201.425</ele>
        <time>1999-07-22T12:24:08Z</time>
      </trkpt>
      <trkpt lat="43.389986" lon="-6.133915">
        <ele>200.216</ele>
        <time>1999-07-22T12:24:10Z</time>
      </trkpt>
      <trkpt lat="43.390034" lon="-6.134195">
        <ele>198.476</ele>
        <time>1999-07-22T12:24:12Z</time>
      </trkpt>
      <trkpt lat="43.390063" lon="-6.134334">
        <ele>197.413</ele>
        <time>1999-07-22T12:24:13Z</time>
      </trkpt>
      <trkpt lat="43.390096" lon="-6.134469">
        <ele>196.008</ele>
        <time>1999-07-22T12:24:14Z</time>
      </trkpt>
      <trkpt lat="43.390135" lon="-6.134599">
        <ele>194.864</ele>
        <time>1999-07-22T12:24:15Z</time>
      </trkpt>
      <trkpt lat="43.390169" lon="-6.134725">
        <ele>193.849</ele>
        <time>1999-07-22T12:24:16Z</time>
      </trkpt>
      <trkpt lat="43.390198" lon="-6.134837">
        <ele>193.080</ele>
        <time>1999-07-22T12:24:17Z</time>
      </trkpt>
      <trkpt lat="43.390227" lon="-6.134937">
        <ele>192.076</ele>
        <time>1999-07-22T12:24:18Z</time>
      </trkpt>
      <trkpt lat="43.390294" lon="-6.135113">
        <ele>190.862</ele>
        <time>1999-07-22T12:24:20Z</time>
      </trkpt>
      <trkpt lat="43.390344" lon="-6.135187">
        <ele>190.279</ele>
        <time>1999-07-22T12:24:21Z</time>
      </trkpt>
      <trkpt lat="43.390405" lon="-6.135244">
        <ele>189.676</ele>
        <time>1999-07-22T12:24:22Z</time>
      </trkpt>
      <trkpt lat="43.390524" lon="-6.135333">
        <ele>188.242</ele>
        <time>1999-07-22T12:24:24Z</time>
      </trkpt>
      <trkpt lat="43.390584" lon="-6.135366">
        <ele>187.822</ele>
        <time>1999-07-22T12:24:25Z</time>
      </trkpt>
      <trkpt lat="43.390642" lon="-6.135403">
        <ele>187.062</ele>
        <time>1999-07-22T12:24:26Z</time>
      </trkpt>
      <trkpt lat="43.390700" lon="-6.135449">
        <ele>186.408</ele>
        <time>1999-07-22T12:24:27Z</time>
      </trkpt>
      <trkpt lat="43.390757" lon="-6.135499">
        <ele>186.008</ele>
        <time>1999-07-22T12:24:28Z</time>
      </trkpt>
      <trkpt lat="43.390814" lon="-6.135551">
        <ele>185.895</ele>
        <time>1999-07-22T12:24:29Z</time>
      </trkpt>
      <trkpt lat="43.390910" lon="-6.135668">
        <ele>185.470</ele>
        <time>1999-07-22T12:24:31Z</time>
      </trkpt>
      <trkpt lat="43.390959" lon="-6.135820">
        <ele>185.011</ele>
        <time>1999-07-22T12:24:33Z</time>
      </trkpt>
      <trkpt lat="43.390995" lon="-6.136011">
        <ele>184.847</ele>
        <time>1999-07-22T12:24:35Z</time>
      </trkpt>
      <trkpt lat="43.391032" lon="-6.136107">
        <ele>184.663</ele>
        <time>1999-07-22T12:24:36Z</time>
      </trkpt>
      <trkpt lat="43.391214" lon="-6.136364">
        <ele>183.470</ele>
        <time>1999-07-22T12:24:39Z</time>
      </trkpt>
      <trkpt lat="43.391282" lon="-6.136446">
        <ele>182.827</ele>
        <time>1999-07-22T12:24:40Z</time>
      </trkpt>
      <trkpt lat="43.391354" lon="-6.136529">
        <ele>182.233</ele>
        <time>1999-07-22T12:24:41Z</time>
      </trkpt>
      <trkpt lat="43.391563" lon="-6.136790">
        <ele>181.045</ele>
        <time>1999-07-22T12:24:44Z</time>
      </trkpt>
      <trkpt lat="43.391715" lon="-6.136960">
        <ele>180.047</ele>
        <time>1999-07-22T12:24:46Z</time>
      </trkpt>
      <trkpt lat="43.391858" lon="-6.137134">
        <ele>179.011</ele>
        <time>1999-07-22T12:24:48Z</time>
      </trkpt>
      <trkpt lat="43.391995" lon="-6.137314">
        <ele>177.808</ele>
        <time>1999-07-22T12:24:50Z</time>
      </trkpt>
      <trkpt lat="43.392121" lon="-6.137500">
        <ele>176.837</ele>
        <time>1999-07-22T12:24:52Z</time>
      </trkpt>
      <trkpt lat="43.392175" lon="-6.137582">
        <ele>176.432</ele>
        <time>1999-07-22T12:24:53Z</time>
      </trkpt>
      <trkpt lat="43.392223" lon="-6.137656">
        <ele>175.843</ele>
        <time>1999-07-22T12:24:54Z</time>
      </trkpt>
      <trkpt lat="43.392279" lon="-6.137721">
        <ele>175.629</ele>
        <time>1999-07-22T12:24:55Z</time>
      </trkpt>
      <trkpt lat="43.392419" lon="-6.137816">
        <ele>174.815</ele>
        <time>1999-07-22T12:24:57Z</time>
      </trkpt>
      <trkpt lat="43.392583" lon="-6.137831">
        <ele>173.652</ele>
        <time>1999-07-22T12:24:59Z</time>
      </trkpt>
      <trkpt lat="43.392665" lon="-6.137844">
        <ele>172.889</ele>
        <time>1999-07-22T12:25:00Z</time>
      </trkpt>
      <trkpt lat="43.392744" lon="-6.137878">
        <ele>172.085</ele>
        <time>1999-07-22T12:25:01Z</time>
      </trkpt>
      <trkpt lat="43.392863" lon="-6.138015">
        <ele>170.458</ele>
        <time>1999-07-22T12:25:03Z</time>
      </trkpt>
      <trkpt lat="43.392901" lon="-6.138209">
        <ele>168.452</ele>
        <time>1999-07-22T12:25:05Z</time>
      </trkpt>
      <trkpt lat="43.392836" lon="-6.138393">
        <ele>167.417</ele>
        <time>1999-07-22T12:25:07Z</time>
      </trkpt>
      <trkpt lat="43.392728" lon="-6.138503">
        <ele>166.808</ele>
        <time>1999-07-22T12:25:09Z</time>
      </trkpt>
      <trkpt lat="43.392670" lon="-6.138538">
        <ele>166.638</ele>
        <time>1999-07-22T12:25:10Z</time>
      </trkpt>
      <trkpt lat="43.392614" lon="-6.138564">
        <ele>166.613</ele>
        <time>1999-07-22T12:25:11Z</time>
      </trkpt>
      <trkpt lat="43.392532" lon="-6.138605">
        <ele>166.414</ele>
        <time>1999-07-22T12:25:13Z</time>
      </trkpt>
      <trkpt lat="43.392501" lon="-6.138627">
        <ele>166.060</ele>
        <time>1999-07-22T12:25:14Z</time>
      </trkpt>
      <trkpt lat="43.392388" lon="-6.138814">
        <ele>165.466</ele>
        <time>1999-07-22T12:25:19Z</time>
      </trkpt>
      <trkpt lat="43.392380" lon="-6.138907">
        <ele>165.233</ele>
        <time>1999-07-22T12:25:21Z</time>
      </trkpt>
      <trkpt lat="43.392390" lon="-6.139003">
        <ele>165.020</ele>
        <time>1999-07-22T12:25:23Z</time>
      </trkpt>
      <trkpt lat="43.392427" lon="-6.139205">
        <ele>164.686</ele>
        <time>1999-07-22T12:25:27Z</time>
      </trkpt>
      <trkpt lat="43.392435" lon="-6.139253">
        <ele>164.655</ele>
        <time>1999-07-22T12:25:29Z</time>
      </trkpt>
      <trkpt lat="43.392430" lon="-6.139259">
        <ele>164.407</ele>
        <time>1999-07-22T12:25:31Z</time>
      </trkpt>
      <trkpt lat="43.392431" lon="-6.139315">
        <ele>163.417</ele>
        <time>1999-07-22T12:26:07Z</time>
      </trkpt>
      <trkpt lat="43.392420" lon="-6.139367">
        <ele>163.408</ele>
        <time>1999-07-22T12:26:09Z</time>
      </trkpt>
      <trkpt lat="43.392357" lon="-6.139345">
        <ele>163.428</ele>
        <time>1999-07-22T12:26:12Z</time>
      </trkpt>
      <trkpt lat="43.392320" lon="-6.139266">
        <ele>163.423</ele>
        <time>1999-07-22T12:26:14Z</time>
      </trkpt>
      <trkpt lat="43.392273" lon="-6.139172">
        <ele>163.444</ele>
        <time>1999-07-22T12:26:16Z</time>
      </trkpt>
      <trkpt lat="43.392245" lon="-6.139046">
        <ele>163.470</ele>
        <time>1999-07-22T12:26:18Z</time>
      </trkpt>
      <trkpt lat="43.392234" lon="-6.138906">
        <ele>163.416</ele>
        <time>1999-07-22T12:26:20Z</time>
      </trkpt>
      <trkpt lat="43.392244" lon="-6.138764">
        <ele>163.693</ele>
        <time>1999-07-22T12:26:22Z</time>
      </trkpt>
      <trkpt lat="43.392275" lon="-6.138629">
        <ele>163.880</ele>
        <time>1999-07-22T12:26:24Z</time>
      </trkpt>
      <trkpt lat="43.392292" lon="-6.138562">
        <ele>164.016</ele>
        <time>1999-07-22T12:26:25Z</time>
      </trkpt>
      <trkpt lat="43.392304" lon="-6.138499">
        <ele>164.412</ele>
        <time>1999-07-22T12:26:26Z</time>
      </trkpt>
      <trkpt lat="43.392307" lon="-6.138374">
        <ele>164.632</ele>
        <time>1999-07-22T12:26:28Z</time>
      </trkpt>
      <trkpt lat="43.392298" lon="-6.138316">
        <ele>164.805</ele>
        <time>1999-07-22T12:26:29Z</time>
      </trkpt>
      <trkpt lat="43.392288" lon="-6.138260">
        <ele>165.008</ele>
        <time>1999-07-22T12:26:30Z</time>
      </trkpt>
      <trkpt lat="43.392284" lon="-6.138091">
        <ele>165.214</ele>
        <time>1999-07-22T12:26:33Z</time>
      </trkpt>
      <trkpt lat="43.392302" lon="-6.137981">
        <ele>165.249</ele>
        <time>1999-07-22T12:26:35Z</time>
      </trkpt>
      <trkpt lat="43.392296" lon="-6.137885">
        <ele>165.220</ele>
        <time>1999-07-22T12:26:37Z</time>
      </trkpt>
      <trkpt lat="43.392275" lon="-6.137863">
        <ele>165.496</ele>
        <time>1999-07-22T12:26:38Z</time>
      </trkpt>
      <trkpt lat="43.392165" lon="-6.137907">
        <ele>165.462</ele>
        <time>1999-07-22T12:26:41Z</time>
      </trkpt>
      <trkpt lat="43.391877" lon="-6.138031">
        <ele>165.489</ele>
        <time>1999-07-22T12:26:46Z</time>
      </trkpt>
      <trkpt lat="43.391567" lon="-6.138141">
        <ele>165.086</ele>
        <time>1999-07-22T12:26:51Z</time>
      </trkpt>
      <trkpt lat="43.391512" lon="-6.138152">
        <ele>164.812</ele>
        <time>1999-07-22T12:26:52Z</time>
      </trkpt>
      <trkpt lat="43.391394" lon="-6.138121">
        <ele>164.472</ele>
        <time>1999-07-22T12:26:54Z</time>
      </trkpt>
      <trkpt lat="43.391336" lon="-6.138104">
        <ele>164.013</ele>
        <time>1999-07-22T12:26:55Z</time>
      </trkpt>
      <trkpt lat="43.391217" lon="-6.138072">
        <ele>163.414</ele>
        <time>1999-07-22T12:26:57Z</time>
      </trkpt>
      <trkpt lat="43.391160" lon="-6.138065">
        <ele>163.008</ele>
        <time>1999-07-22T12:26:58Z</time>
      </trkpt>
      <trkpt lat="43.391051" lon="-6.138077">
        <ele>162.230</ele>
        <time>1999-07-22T12:27:00Z</time>
      </trkpt>
      <trkpt lat="43.390999" lon="-6.138098">
        <ele>161.225</ele>
        <time>1999-07-22T12:27:01Z</time>
      </trkpt>
      <trkpt lat="43.390958" lon="-6.138126">
        <ele>161.026</ele>
        <time>1999-07-22T12:27:02Z</time>
      </trkpt>
      <trkpt lat="43.390913" lon="-6.138191">
        <ele>160.422</ele>
        <time>1999-07-22T12:27:04Z</time>
      </trkpt>
      <trkpt lat="43.390912" lon="-6.138295">
        <ele>160.258</ele>
        <time>1999-07-22T12:27:06Z</time>
      </trkpt>
      <trkpt lat="43.390912" lon="-6.138348">
        <ele>160.055</ele>
        <time>1999-07-22T12:27:07Z</time>
      </trkpt>
      <trkpt lat="43.390897" lon="-6.138401">
        <ele>160.042</ele>
        <time>1999-07-22T12:27:08Z</time>
      </trkpt>
      <trkpt lat="43.390858" lon="-6.138538">
        <ele>159.268</ele>
        <time>1999-07-22T12:27:11Z</time>
      </trkpt>
      <trkpt lat="43.390871" lon="-6.138580">
        <ele>159.034</ele>
        <time>1999-07-22T12:27:12Z</time>
      </trkpt>
      <trkpt lat="43.390916" lon="-6.138670">
        <ele>158.255</ele>
        <time>1999-07-22T12:27:14Z</time>
      </trkpt>
      <trkpt lat="43.390939" lon="-6.138701">
        <ele>157.610</ele>
        <time>1999-07-22T12:27:15Z</time>
      </trkpt>
      <trkpt lat="43.391044" lon="-6.138778">
        <ele>156.808</ele>
        <time>1999-07-22T12:27:18Z</time>
      </trkpt>
      <trkpt lat="43.391085" lon="-6.138801">
        <ele>156.226</ele>
        <time>1999-07-22T12:27:19Z</time>
      </trkpt>
      <trkpt lat="43.391263" lon="-6.138932">
        <ele>155.661</ele>
        <time>1999-07-22T12:27:23Z</time>
      </trkpt>
      <trkpt lat="43.391302" lon="-6.138976">
        <ele>155.262</ele>
        <time>1999-07-22T12:27:24Z</time>
      </trkpt>
      <trkpt lat="43.391390" lon="-6.139145">
        <ele>154.698</ele>
        <time>1999-07-22T12:27:27Z</time>
      </trkpt>
      <trkpt lat="43.391413" lon="-6.139210">
        <ele>154.234</ele>
        <time>1999-07-22T12:27:28Z</time>
      </trkpt>
      <trkpt lat="43.391436" lon="-6.139272">
        <ele>154.061</ele>
        <time>1999-07-22T12:27:29Z</time>
      </trkpt>
      <trkpt lat="43.391471" lon="-6.139374">
        <ele>153.668</ele>
        <time>1999-07-22T12:27:31Z</time>
      </trkpt>
      <trkpt lat="43.391455" lon="-6.139492">
        <ele>153.434</ele>
        <time>1999-07-22T12:27:33Z</time>
      </trkpt>
      <trkpt lat="43.391448" lon="-6.139629">
        <ele>152.834</ele>
        <time>1999-07-22T12:27:36Z</time>
      </trkpt>
      <trkpt lat="43.391455" lon="-6.139703">
        <ele>152.255</ele>
        <time>1999-07-22T12:27:38Z</time>
      </trkpt>
      <trkpt lat="43.391461" lon="-6.139746">
        <ele>151.210</ele>
        <time>1999-07-22T12:27:39Z</time>
      </trkpt>
      <trkpt lat="43.391447" lon="-6.139803">
        <ele>150.208</ele>
        <time>1999-07-22T12:27:40Z</time>
      </trkpt>
      <trkpt lat="43.391436" lon="-6.139950">
        <ele>149.216</ele>
        <time>1999-07-22T12:27:43Z</time>
      </trkpt>
      <trkpt lat="43.391480" lon="-6.140136">
        <ele>148.051</ele>
        <time>1999-07-22T12:27:47Z</time>
      </trkpt>
      <trkpt lat="43.391467" lon="-6.140189">
        <ele>147.652</ele>
        <time>1999-07-22T12:27:48Z</time>
      </trkpt>
      <trkpt lat="43.391461" lon="-6.140285">
        <ele>147.068</ele>
        <time>1999-07-22T12:27:51Z</time>
      </trkpt>
      <trkpt lat="43.391448" lon="-6.140345">
        <ele>146.414</ele>
        <time>1999-07-22T12:27:53Z</time>
      </trkpt>
      <trkpt lat="43.391437" lon="-6.140379">
        <ele>145.661</ele>
        <time>1999-07-22T12:27:55Z</time>
      </trkpt>
      <trkpt lat="43.391445" lon="-6.140390">
        <ele>145.228</ele>
        <time>1999-07-22T12:27:56Z</time>
      </trkpt>
      <trkpt lat="43.391472" lon="-6.140412">
        <ele>144.884</ele>
        <time>1999-07-22T12:27:58Z</time>
      </trkpt>
      <trkpt lat="43.391512" lon="-6.140474">
        <ele>144.652</ele>
        <time>1999-07-22T12:28:00Z</time>
      </trkpt>
      <trkpt lat="43.391539" lon="-6.140506">
        <ele>144.453</ele>
        <time>1999-07-22T12:28:02Z</time>
      </trkpt>
      <trkpt lat="43.391554" lon="-6.140518">
        <ele>144.608</ele>
        <time>1999-07-22T12:28:03Z</time>
      </trkpt>
      <trkpt lat="43.391626" lon="-6.140567">
        <ele>143.808</ele>
        <time>1999-07-22T12:28:06Z</time>
      </trkpt>
      <trkpt lat="43.391689" lon="-6.140607">
        <ele>143.698</ele>
        <time>1999-07-22T12:28:09Z</time>
      </trkpt>
      <trkpt lat="43.391749" lon="-6.140664">
        <ele>143.683</ele>
        <time>1999-07-22T12:28:14Z</time>
      </trkpt>
      <trkpt lat="43.391767" lon="-6.140710">
        <ele>143.674</ele>
        <time>1999-07-22T12:28:18Z</time>
      </trkpt>
      <trkpt lat="43.391762" lon="-6.140733">
        <ele>144.060</ele>
        <time>1999-07-22T12:28:21Z</time>
      </trkpt>
      <trkpt lat="43.391846" lon="-6.140836">
        <ele>144.666</ele>
        <time>1999-07-22T12:28:28Z</time>
      </trkpt>
      <trkpt lat="43.391868" lon="-6.140858">
        <ele>144.633</ele>
        <time>1999-07-22T12:28:29Z</time>
      </trkpt>
      <trkpt lat="43.391901" lon="-6.140935">
        <ele>144.670</ele>
        <time>1999-07-22T12:28:32Z</time>
      </trkpt>
      <trkpt lat="43.391908" lon="-6.140961">
        <ele>144.636</ele>
        <time>1999-07-22T12:28:33Z</time>
      </trkpt>
      <trkpt lat="43.391916" lon="-6.141020">
        <ele>144.659</ele>
        <time>1999-07-22T12:28:35Z</time>
      </trkpt>
      <trkpt lat="43.391927" lon="-6.141119">
        <ele>144.603</ele>
        <time>1999-07-22T12:28:38Z</time>
      </trkpt>
      <trkpt lat="43.391946" lon="-6.141318">
        <ele>145.023</ele>
        <time>1999-07-22T12:28:43Z</time>
      </trkpt>
      <trkpt lat="43.392021" lon="-6.141566">
        <ele>145.208</ele>
        <time>1999-07-22T12:28:48Z</time>
      </trkpt>
      <trkpt lat="43.392074" lon="-6.141651">
        <ele>145.498</ele>
        <time>1999-07-22T12:28:50Z</time>
      </trkpt>
      <trkpt lat="43.392123" lon="-6.141697">
        <ele>145.633</ele>
        <time>1999-07-22T12:28:52Z</time>
      </trkpt>
      <trkpt lat="43.392253" lon="-6.141781">
        <ele>145.864</ele>
        <time>1999-07-22T12:28:56Z</time>
      </trkpt>
      <trkpt lat="43.392282" lon="-6.141810">
        <ele>145.850</ele>
        <time>1999-07-22T12:28:57Z</time>
      </trkpt>
      <trkpt lat="43.392370" lon="-6.141915">
        <ele>146.016</ele>
        <time>1999-07-22T12:29:00Z</time>
      </trkpt>
      <trkpt lat="43.392432" lon="-6.141970">
        <ele>146.223</ele>
        <time>1999-07-22T12:29:02Z</time>
      </trkpt>
      <trkpt lat="43.392480" lon="-6.142016">
        <ele>146.490</ele>
        <time>1999-07-22T12:29:04Z</time>
      </trkpt>
      <trkpt lat="43.392573" lon="-6.142087">
        <ele>146.676</ele>
        <time>1999-07-22T12:29:07Z</time>
      </trkpt>
      <trkpt lat="43.392616" lon="-6.142105">
        <ele>146.681</ele>
        <time>1999-07-22T12:29:08Z</time>
      </trkpt>
      <trkpt lat="43.392765" lon="-6.142205">
        <ele>146.661</ele>
        <time>1999-07-22T12:29:11Z</time>
      </trkpt>
      <trkpt lat="43.392899" lon="-6.142306">
        <ele>146.617</ele>
        <time>1999-07-22T12:29:13Z</time>
      </trkpt>
      <trkpt lat="43.392969" lon="-6.142347">
        <ele>146.408</ele>
        <time>1999-07-22T12:29:14Z</time>
      </trkpt>
      <trkpt lat="43.393031" lon="-6.142386">
        <ele>146.441</ele>
        <time>1999-07-22T12:29:15Z</time>
      </trkpt>
      <trkpt lat="43.393165" lon="-6.142457">
        <ele>146.426</ele>
        <time>1999-07-22T12:29:17Z</time>
      </trkpt>
      <trkpt lat="43.393563" lon="-6.142875">
        <ele>144.257</ele>
        <time>1999-07-22T12:29:23Z</time>
      </trkpt>
      <trkpt lat="43.393625" lon="-6.142980">
        <ele>143.233</ele>
        <time>1999-07-22T12:29:24Z</time>
      </trkpt>
      <trkpt lat="43.393689" lon="-6.143066">
        <ele>142.219</ele>
        <time>1999-07-22T12:29:25Z</time>
      </trkpt>
      <trkpt lat="43.393758" lon="-6.143138">
        <ele>141.036</ele>
        <time>1999-07-22T12:29:26Z</time>
      </trkpt>
      <trkpt lat="43.393814" lon="-6.143212">
        <ele>138.893</ele>
        <time>1999-07-22T12:29:27Z</time>
      </trkpt>
      <trkpt lat="43.393874" lon="-6.143286">
        <ele>137.689</ele>
        <time>1999-07-22T12:29:28Z</time>
      </trkpt>
      <trkpt lat="43.393939" lon="-6.143358">
        <ele>136.436</ele>
        <time>1999-07-22T12:29:29Z</time>
      </trkpt>
      <trkpt lat="43.394004" lon="-6.143429">
        <ele>134.817</ele>
        <time>1999-07-22T12:29:30Z</time>
      </trkpt>
      <trkpt lat="43.394064" lon="-6.143500">
        <ele>133.018</ele>
        <time>1999-07-22T12:29:31Z</time>
      </trkpt>
      <trkpt lat="43.394135" lon="-6.143556">
        <ele>131.208</ele>
        <time>1999-07-22T12:29:32Z</time>
      </trkpt>
      <trkpt lat="43.394220" lon="-6.143591">
        <ele>129.476</ele>
        <time>1999-07-22T12:29:33Z</time>
      </trkpt>
      <trkpt lat="43.394307" lon="-6.143613">
        <ele>127.881</ele>
        <time>1999-07-22T12:29:34Z</time>
      </trkpt>
      <trkpt lat="43.394369" lon="-6.143644">
        <ele>126.452</ele>
        <time>1999-07-22T12:29:35Z</time>
      </trkpt>
      <trkpt lat="43.394400" lon="-6.143673">
        <ele>125.278</ele>
        <time>1999-07-22T12:29:36Z</time>
      </trkpt>
      <trkpt lat="43.394432" lon="-6.143711">
        <ele>124.654</ele>
        <time>1999-07-22T12:29:37Z</time>
      </trkpt>
      <trkpt lat="43.394441" lon="-6.143753">
        <ele>124.241</ele>
        <time>1999-07-22T12:29:38Z</time>
      </trkpt>
      <trkpt lat="43.394457" lon="-6.143818">
        <ele>123.468</ele>
        <time>1999-07-22T12:29:40Z</time>
      </trkpt>
      <trkpt lat="43.394451" lon="-6.143848">
        <ele>123.044</ele>
        <time>1999-07-22T12:29:41Z</time>
      </trkpt>
      <trkpt lat="43.394447" lon="-6.143860">
        <ele>121.824</ele>
        <time>1999-07-22T12:29:43Z</time>
      </trkpt>
      <trkpt lat="43.394474" lon="-6.143903">
        <ele>120.204</ele>
        <time>1999-07-22T12:30:00Z</time>
      </trkpt>
      <trkpt lat="43.394485" lon="-6.143978">
        <ele>120.214</ele>
        <time>1999-07-22T12:30:02Z</time>
      </trkpt>
      <trkpt lat="43.394490" lon="-6.144027">
        <ele>120.008</ele>
        <time>1999-07-22T12:30:03Z</time>
      </trkpt>
      <trkpt lat="43.394501" lon="-6.144139">
        <ele>120.035</ele>
        <time>1999-07-22T12:30:05Z</time>
      </trkpt>
      <trkpt lat="43.394515" lon="-6.144203">
        <ele>120.060</ele>
        <time>1999-07-22T12:30:06Z</time>
      </trkpt>
      <trkpt lat="43.394543" lon="-6.144254">
        <ele>120.071</ele>
        <time>1999-07-22T12:30:07Z</time>
      </trkpt>
      <trkpt lat="43.394586" lon="-6.144322">
        <ele>120.047</ele>
        <time>1999-07-22T12:30:09Z</time>
      </trkpt>
      <trkpt lat="43.394635" lon="-6.144325">
        <ele>119.893</ele>
        <time>1999-07-22T12:30:10Z</time>
      </trkpt>
      <trkpt lat="43.394681" lon="-6.144304">
        <ele>119.820</ele>
        <time>1999-07-22T12:30:11Z</time>
      </trkpt>
      <trkpt lat="43.394760" lon="-6.144250">
        <ele>119.857</ele>
        <time>1999-07-22T12:30:13Z</time>
      </trkpt>
      <trkpt lat="43.394828" lon="-6.144221">
        <ele>119.423</ele>
        <time>1999-07-22T12:30:15Z</time>
      </trkpt>
      <trkpt lat="43.394899" lon="-6.144186">
        <ele>118.831</ele>
        <time>1999-07-22T12:30:17Z</time>
      </trkpt>
      <trkpt lat="43.394937" lon="-6.144158">
        <ele>118.661</ele>
        <time>1999-07-22T12:30:18Z</time>
      </trkpt>
      <trkpt lat="43.395017" lon="-6.144087">
        <ele>117.807</ele>
        <time>1999-07-22T12:30:20Z</time>
      </trkpt>
      <trkpt lat="43.395057" lon="-6.144062">
        <ele>117.408</ele>
        <time>1999-07-22T12:30:21Z</time>
      </trkpt>
      <trkpt lat="43.395100" lon="-6.144057">
        <ele>117.076</ele>
        <time>1999-07-22T12:30:22Z</time>
      </trkpt>
      <trkpt lat="43.395140" lon="-6.144057">
        <ele>116.681</ele>
        <time>1999-07-22T12:30:23Z</time>
      </trkpt>
      <trkpt lat="43.395164" lon="-6.144076">
        <ele>116.492</ele>
        <time>1999-07-22T12:30:24Z</time>
      </trkpt>
      <trkpt lat="43.395212" lon="-6.144144">
        <ele>116.228</ele>
        <time>1999-07-22T12:30:26Z</time>
      </trkpt>
      <trkpt lat="43.395227" lon="-6.144182">
        <ele>116.274</ele>
        <time>1999-07-22T12:30:27Z</time>
      </trkpt>
      <trkpt lat="43.395273" lon="-6.144311">
        <ele>116.261</ele>
        <time>1999-07-22T12:30:31Z</time>
      </trkpt>
      <trkpt lat="43.395287" lon="-6.144342">
        <ele>116.258</ele>
        <time>1999-07-22T12:30:32Z</time>
      </trkpt>
      <trkpt lat="43.395353" lon="-6.144426">
        <ele>116.464</ele>
        <time>1999-07-22T12:30:35Z</time>
      </trkpt>
      <trkpt lat="43.395413" lon="-6.144454">
        <ele>116.899</ele>
        <time>1999-07-22T12:30:37Z</time>
      </trkpt>
      <trkpt lat="43.395524" lon="-6.144439">
        <ele>117.407</ele>
        <time>1999-07-22T12:30:40Z</time>
      </trkpt>
      <trkpt lat="43.395552" lon="-6.144427">
        <ele>117.627</ele>
        <time>1999-07-22T12:30:41Z</time>
      </trkpt>
      <trkpt lat="43.395572" lon="-6.144413">
        <ele>117.608</ele>
        <time>1999-07-22T12:30:42Z</time>
      </trkpt>
      <trkpt lat="43.395642" lon="-6.144396">
        <ele>117.822</ele>
        <time>1999-07-22T12:30:44Z</time>
      </trkpt>
      <trkpt lat="43.395688" lon="-6.144387">
        <ele>117.837</ele>
        <time>1999-07-22T12:30:45Z</time>
      </trkpt>
      <trkpt lat="43.395784" lon="-6.144363">
        <ele>118.078</ele>
        <time>1999-07-22T12:30:47Z</time>
      </trkpt>
      <trkpt lat="43.395933" lon="-6.144326">
        <ele>118.054</ele>
        <time>1999-07-22T12:30:50Z</time>
      </trkpt>
      <trkpt lat="43.396044" lon="-6.144313">
        <ele>118.080</ele>
        <time>1999-07-22T12:30:52Z</time>
      </trkpt>
      <trkpt lat="43.396149" lon="-6.144314">
        <ele>118.077</ele>
        <time>1999-07-22T12:30:54Z</time>
      </trkpt>
      <trkpt lat="43.396246" lon="-6.144325">
        <ele>118.034</ele>
        <time>1999-07-22T12:30:56Z</time>
      </trkpt>
      <trkpt lat="43.396379" lon="-6.144346">
        <ele>118.050</ele>
        <time>1999-07-22T12:30:59Z</time>
      </trkpt>
      <trkpt lat="43.396480" lon="-6.144393">
        <ele>118.053</ele>
        <time>1999-07-22T12:31:02Z</time>
      </trkpt>
      <trkpt lat="43.396590" lon="-6.144538">
        <ele>118.604</ele>
        <time>1999-07-22T12:31:07Z</time>
      </trkpt>
      <trkpt lat="43.396652" lon="-6.144670">
        <ele>119.814</ele>
        <time>1999-07-22T12:31:11Z</time>
      </trkpt>
      <trkpt lat="43.396682" lon="-6.144736">
        <ele>120.608</ele>
        <time>1999-07-22T12:31:13Z</time>
      </trkpt>
      <trkpt lat="43.396695" lon="-6.144774">
        <ele>121.018</ele>
        <time>1999-07-22T12:31:14Z</time>
      </trkpt>
      <trkpt lat="43.396747" lon="-6.144930">
        <ele>122.023</ele>
        <time>1999-07-22T12:31:18Z</time>
      </trkpt>
      <trkpt lat="43.396757" lon="-6.144972">
        <ele>122.254</ele>
        <time>1999-07-22T12:31:19Z</time>
      </trkpt>
      <trkpt lat="43.396770" lon="-6.145144">
        <ele>123.250</ele>
        <time>1999-07-22T12:31:23Z</time>
      </trkpt>
      <trkpt lat="43.396775" lon="-6.145271">
        <ele>123.846</ele>
        <time>1999-07-22T12:31:26Z</time>
      </trkpt>
      <trkpt lat="43.396778" lon="-6.145446">
        <ele>124.423</ele>
        <time>1999-07-22T12:31:30Z</time>
      </trkpt>
      <trkpt lat="43.396777" lon="-6.145631">
        <ele>125.090</ele>
        <time>1999-07-22T12:31:34Z</time>
      </trkpt>
      <trkpt lat="43.396776" lon="-6.145775">
        <ele>125.456</ele>
        <time>1999-07-22T12:31:37Z</time>
      </trkpt>
      <trkpt lat="43.396785" lon="-6.145912">
        <ele>125.676</ele>
        <time>1999-07-22T12:31:40Z</time>
      </trkpt>
      <trkpt lat="43.396786" lon="-6.146235">
        <ele>126.490</ele>
        <time>1999-07-22T12:31:47Z</time>
      </trkpt>
      <trkpt lat="43.396784" lon="-6.146368">
        <ele>126.619</ele>
        <time>1999-07-22T12:31:50Z</time>
      </trkpt>
      <trkpt lat="43.396805" lon="-6.146573">
        <ele>127.608</ele>
        <time>1999-07-22T12:31:55Z</time>
      </trkpt>
      <trkpt lat="43.396806" lon="-6.146614">
        <ele>127.610</ele>
        <time>1999-07-22T12:31:56Z</time>
      </trkpt>
      <trkpt lat="43.396812" lon="-6.146788">
        <ele>128.865</ele>
        <time>1999-07-22T12:32:00Z</time>
      </trkpt>
      <trkpt lat="43.396833" lon="-6.146910">
        <ele>129.626</ele>
        <time>1999-07-22T12:32:03Z</time>
      </trkpt>
      <trkpt lat="43.396852" lon="-6.146996">
        <ele>130.042</ele>
        <time>1999-07-22T12:32:05Z</time>
      </trkpt>
      <trkpt lat="43.396896" lon="-6.147186">
        <ele>131.068</ele>
        <time>1999-07-22T12:32:10Z</time>
      </trkpt>
      <trkpt lat="43.397004" lon="-6.147455">
        <ele>132.255</ele>
        <time>1999-07-22T12:32:17Z</time>
      </trkpt>
      <trkpt lat="43.397024" lon="-6.147494">
        <ele>132.472</ele>
        <time>1999-07-22T12:32:18Z</time>
      </trkpt>
      <trkpt lat="43.397086" lon="-6.147650">
        <ele>133.418</ele>
        <time>1999-07-22T12:32:22Z</time>
      </trkpt>
      <trkpt lat="43.397125" lon="-6.147747">
        <ele>133.825</ele>
        <time>1999-07-22T12:32:25Z</time>
      </trkpt>
      <trkpt lat="43.397154" lon="-6.147795">
        <ele>134.426</ele>
        <time>1999-07-22T12:32:27Z</time>
      </trkpt>
      <trkpt lat="43.397221" lon="-6.147884">
        <ele>135.608</ele>
        <time>1999-07-22T12:32:32Z</time>
      </trkpt>
      <trkpt lat="43.397286" lon="-6.147926">
        <ele>137.008</ele>
        <time>1999-07-22T12:32:36Z</time>
      </trkpt>
      <trkpt lat="43.397332" lon="-6.147965">
        <ele>138.055</ele>
        <time>1999-07-22T12:32:39Z</time>
      </trkpt>
      <trkpt lat="43.397350" lon="-6.147973">
        <ele>138.210</ele>
        <time>1999-07-22T12:32:40Z</time>
      </trkpt>
      <trkpt lat="43.397421" lon="-6.147995">
        <ele>139.231</ele>
        <time>1999-07-22T12:32:44Z</time>
      </trkpt>
      <trkpt lat="43.397458" lon="-6.148006">
        <ele>139.897</ele>
        <time>1999-07-22T12:32:46Z</time>
      </trkpt>
      <trkpt lat="43.397498" lon="-6.148007">
        <ele>140.413</ele>
        <time>1999-07-22T12:32:48Z</time>
      </trkpt>
      <trkpt lat="43.397597" lon="-6.148009">
        <ele>141.870</ele>
        <time>1999-07-22T12:32:53Z</time>
      </trkpt>
      <trkpt lat="43.397699" lon="-6.148024">
        <ele>142.867</ele>
        <time>1999-07-22T12:32:58Z</time>
      </trkpt>
      <trkpt lat="43.397737" lon="-6.148042">
        <ele>143.093</ele>
        <time>1999-07-22T12:33:00Z</time>
      </trkpt>
      <trkpt lat="43.397841" lon="-6.148060">
        <ele>144.027</ele>
        <time>1999-07-22T12:33:05Z</time>
      </trkpt>
      <trkpt lat="43.397980" lon="-6.148109">
        <ele>145.268</ele>
        <time>1999-07-22T12:33:10Z</time>
      </trkpt>
      <trkpt lat="43.398013" lon="-6.148116">
        <ele>145.414</ele>
        <time>1999-07-22T12:33:11Z</time>
      </trkpt>
      <trkpt lat="43.398086" lon="-6.148127">
        <ele>146.008</ele>
        <time>1999-07-22T12:33:13Z</time>
      </trkpt>
      <trkpt lat="43.398165" lon="-6.148126">
        <ele>146.025</ele>
        <time>1999-07-22T12:33:15Z</time>
      </trkpt>
      <trkpt lat="43.398205" lon="-6.148120">
        <ele>146.290</ele>
        <time>1999-07-22T12:33:16Z</time>
      </trkpt>
      <trkpt lat="43.398246" lon="-6.148105">
        <ele>146.231</ele>
        <time>1999-07-22T12:33:17Z</time>
      </trkpt>
      <trkpt lat="43.398456" lon="-6.147985">
        <ele>146.227</ele>
        <time>1999-07-22T12:33:22Z</time>
      </trkpt>
      <trkpt lat="43.398504" lon="-6.147961">
        <ele>146.063</ele>
        <time>1999-07-22T12:33:23Z</time>
      </trkpt>
      <trkpt lat="43.398553" lon="-6.147931">
        <ele>145.830</ele>
        <time>1999-07-22T12:33:24Z</time>
      </trkpt>
      <trkpt lat="43.398761" lon="-6.147819">
        <ele>145.447</ele>
        <time>1999-07-22T12:33:28Z</time>
      </trkpt>
      <trkpt lat="43.398899" lon="-6.147835">
        <ele>145.273</ele>
        <time>1999-07-22T12:33:31Z</time>
      </trkpt>
      <trkpt lat="43.398940" lon="-6.147867">
        <ele>145.272</ele>
        <time>1999-07-22T12:33:32Z</time>
      </trkpt>
      <trkpt lat="43.399052" lon="-6.148048">
        <ele>144.813</ele>
        <time>1999-07-22T12:33:35Z</time>
      </trkpt>
      <trkpt lat="43.399082" lon="-6.148121">
        <ele>144.814</ele>
        <time>1999-07-22T12:33:36Z</time>
      </trkpt>
      <trkpt lat="43.399105" lon="-6.148206">
        <ele>144.808</ele>
        <time>1999-07-22T12:33:37Z</time>
      </trkpt>
      <trkpt lat="43.399136" lon="-6.148299">
        <ele>144.620</ele>
        <time>1999-07-22T12:33:38Z</time>
      </trkpt>
      <trkpt lat="43.399166" lon="-6.148401">
        <ele>144.655</ele>
        <time>1999-07-22T12:33:39Z</time>
      </trkpt>
      <trkpt lat="43.399246" lon="-6.148615">
        <ele>144.646</ele>
        <time>1999-07-22T12:33:41Z</time>
      </trkpt>
      <trkpt lat="43.399301" lon="-6.148721">
        <ele>144.652</ele>
        <time>1999-07-22T12:33:42Z</time>
      </trkpt>
      <trkpt lat="43.399358" lon="-6.148820">
        <ele>144.488</ele>
        <time>1999-07-22T12:33:43Z</time>
      </trkpt>
      <trkpt lat="43.399412" lon="-6.148904">
        <ele>144.285</ele>
        <time>1999-07-22T12:33:44Z</time>
      </trkpt>
      <trkpt lat="43.399498" lon="-6.149033">
        <ele>142.872</ele>
        <time>1999-07-22T12:33:46Z</time>
      </trkpt>
      <trkpt lat="43.399568" lon="-6.149148">
        <ele>141.428</ele>
        <time>1999-07-22T12:33:48Z</time>
      </trkpt>
      <trkpt lat="43.399624" lon="-6.149191">
        <ele>140.693</ele>
        <time>1999-07-22T12:33:49Z</time>
      </trkpt>
      <trkpt lat="43.399695" lon="-6.149205">
        <ele>139.865</ele>
        <time>1999-07-22T12:33:50Z</time>
      </trkpt>
      <trkpt lat="43.399772" lon="-6.149179">
        <ele>138.421</ele>
        <time>1999-07-22T12:33:51Z</time>
      </trkpt>
      <trkpt lat="43.399904" lon="-6.149081">
        <ele>136.008</ele>
        <time>1999-07-22T12:33:53Z</time>
      </trkpt>
      <trkpt lat="43.399922" lon="-6.149033">
        <ele>134.492</ele>
        <time>1999-07-22T12:33:54Z</time>
      </trkpt>
      <trkpt lat="43.399944" lon="-6.148985">
        <ele>133.037</ele>
        <time>1999-07-22T12:33:55Z</time>
      </trkpt>
      <trkpt lat="43.399952" lon="-6.148962">
        <ele>132.418</ele>
        <time>1999-07-22T12:33:56Z</time>
      </trkpt>
      <trkpt lat="43.399965" lon="-6.148940">
        <ele>132.044</ele>
        <time>1999-07-22T12:33:57Z</time>
      </trkpt>
      <trkpt lat="43.399993" lon="-6.148870">
        <ele>131.880</ele>
        <time>1999-07-22T12:34:00Z</time>
      </trkpt>
      <trkpt lat="43.400007" lon="-6.148819">
        <ele>131.697</ele>
        <time>1999-07-22T12:34:02Z</time>
      </trkpt>
      <trkpt lat="43.400024" lon="-6.148784">
        <ele>131.694</ele>
        <time>1999-07-22T12:34:04Z</time>
      </trkpt>
      <trkpt lat="43.400024" lon="-6.148765">
        <ele>131.850</ele>
        <time>1999-07-22T12:34:05Z</time>
      </trkpt>
      <trkpt lat="43.400016" lon="-6.148721">
        <ele>132.218</ele>
        <time>1999-07-22T12:34:07Z</time>
      </trkpt>
      <trkpt lat="43.400021" lon="-6.148677">
        <ele>133.098</ele>
        <time>1999-07-22T12:34:09Z</time>
      </trkpt>
      <trkpt lat="43.400032" lon="-6.148656">
        <ele>133.417</ele>
        <time>1999-07-22T12:34:10Z</time>
      </trkpt>
      <trkpt lat="43.400020" lon="-6.148599">
        <ele>134.808</ele>
        <time>1999-07-22T12:34:13Z</time>
      </trkpt>
      <trkpt lat="43.400006" lon="-6.148535">
        <ele>135.664</ele>
        <time>1999-07-22T12:34:16Z</time>
      </trkpt>
      <trkpt lat="43.400012" lon="-6.148518">
        <ele>136.029</ele>
        <time>1999-07-22T12:34:17Z</time>
      </trkpt>
      <trkpt lat="43.400025" lon="-6.148507">
        <ele>136.270</ele>
        <time>1999-07-22T12:34:18Z</time>
      </trkpt>
      <trkpt lat="43.400049" lon="-6.148485">
        <ele>137.416</ele>
        <time>1999-07-22T12:34:20Z</time>
      </trkpt>
      <trkpt lat="43.400060" lon="-6.148480">
        <ele>137.882</ele>
        <time>1999-07-22T12:34:21Z</time>
      </trkpt>
      <trkpt lat="43.400089" lon="-6.148482">
        <ele>138.479</ele>
        <time>1999-07-22T12:34:23Z</time>
      </trkpt>
      <trkpt lat="43.400105" lon="-6.148489">
        <ele>138.616</ele>
        <time>1999-07-22T12:34:24Z</time>
      </trkpt>
      <trkpt lat="43.400127" lon="-6.148507">
        <ele>138.822</ele>
        <time>1999-07-22T12:34:25Z</time>
      </trkpt>
      <trkpt lat="43.400196" lon="-6.148573">
        <ele>139.215</ele>
        <time>1999-07-22T12:34:27Z</time>
      </trkpt>
      <trkpt lat="43.400357" lon="-6.148603">
        <ele>139.265</ele>
        <time>1999-07-22T12:34:30Z</time>
      </trkpt>
      <trkpt lat="43.400414" lon="-6.148614">
        <ele>139.211</ele>
        <time>1999-07-22T12:34:31Z</time>
      </trkpt>
      <trkpt lat="43.400519" lon="-6.148637">
        <ele>139.208</ele>
        <time>1999-07-22T12:34:33Z</time>
      </trkpt>
      <trkpt lat="43.400572" lon="-6.148637">
        <ele>139.234</ele>
        <time>1999-07-22T12:34:34Z</time>
      </trkpt>
      <trkpt lat="43.400618" lon="-6.148630">
        <ele>139.219</ele>
        <time>1999-07-22T12:34:35Z</time>
      </trkpt>
      <trkpt lat="43.400761" lon="-6.148575">
        <ele>138.460</ele>
        <time>1999-07-22T12:34:38Z</time>
      </trkpt>
      <trkpt lat="43.400892" lon="-6.148565">
        <ele>137.076</ele>
        <time>1999-07-22T12:34:40Z</time>
      </trkpt>
      <trkpt lat="43.400957" lon="-6.148562">
        <ele>136.642</ele>
        <time>1999-07-22T12:34:41Z</time>
      </trkpt>
      <trkpt lat="43.401003" lon="-6.148565">
        <ele>136.059</ele>
        <time>1999-07-22T12:34:42Z</time>
      </trkpt>
      <trkpt lat="43.401133" lon="-6.148571">
        <ele>135.056</ele>
        <time>1999-07-22T12:34:44Z</time>
      </trkpt>
      <trkpt lat="43.401210" lon="-6.148565">
        <ele>134.632</ele>
        <time>1999-07-22T12:34:45Z</time>
      </trkpt>
      <trkpt lat="43.401350" lon="-6.148558">
        <ele>132.687</ele>
        <time>1999-07-22T12:34:47Z</time>
      </trkpt>
      <trkpt lat="43.401446" lon="-6.148551">
        <ele>131.042</ele>
        <time>1999-07-22T12:34:49Z</time>
      </trkpt>
      <trkpt lat="43.401487" lon="-6.148546">
        <ele>129.626</ele>
        <time>1999-07-22T12:34:50Z</time>
      </trkpt>
      <trkpt lat="43.401523" lon="-6.148554">
        <ele>128.408</ele>
        <time>1999-07-22T12:34:52Z</time>
      </trkpt>
      <trkpt lat="43.401557" lon="-6.148573">
        <ele>127.451</ele>
        <time>1999-07-22T12:34:53Z</time>
      </trkpt>
      <trkpt lat="43.401621" lon="-6.148603">
        <ele>125.816</ele>
        <time>1999-07-22T12:34:55Z</time>
      </trkpt>
      <trkpt lat="43.401662" lon="-6.148632">
        <ele>124.477</ele>
        <time>1999-07-22T12:34:57Z</time>
      </trkpt>
      <trkpt lat="43.401673" lon="-6.148660">
        <ele>123.493</ele>
        <time>1999-07-22T12:34:58Z</time>
      </trkpt>
      <trkpt lat="43.401710" lon="-6.148689">
        <ele>122.449</ele>
        <time>1999-07-22T12:34:59Z</time>
      </trkpt>
      <trkpt lat="43.401822" lon="-6.148770">
        <ele>121.276</ele>
        <time>1999-07-22T12:35:02Z</time>
      </trkpt>
      <trkpt lat="43.401895" lon="-6.148773">
        <ele>121.033</ele>
        <time>1999-07-22T12:35:04Z</time>
      </trkpt>
      <trkpt lat="43.401956" lon="-6.148776">
        <ele>120.689</ele>
        <time>1999-07-22T12:35:06Z</time>
      </trkpt>
      <trkpt lat="43.402010" lon="-6.148767">
        <ele>120.254</ele>
        <time>1999-07-22T12:35:07Z</time>
      </trkpt>
      <trkpt lat="43.402101" lon="-6.148739">
        <ele>118.656</ele>
        <time>1999-07-22T12:35:09Z</time>
      </trkpt>
      <trkpt lat="43.402191" lon="-6.148702">
        <ele>117.411</ele>
        <time>1999-07-22T12:35:11Z</time>
      </trkpt>
      <trkpt lat="43.402323" lon="-6.148651">
        <ele>116.408</ele>
        <time>1999-07-22T12:35:14Z</time>
      </trkpt>
      <trkpt lat="43.402376" lon="-6.148644">
        <ele>115.838</ele>
        <time>1999-07-22T12:35:15Z</time>
      </trkpt>
      <trkpt lat="43.402417" lon="-6.148629">
        <ele>115.283</ele>
        <time>1999-07-22T12:35:16Z</time>
      </trkpt>
      <trkpt lat="43.402486" lon="-6.148614">
        <ele>114.224</ele>
        <time>1999-07-22T12:35:18Z</time>
      </trkpt>
      <trkpt lat="43.402514" lon="-6.148614">
        <ele>113.290</ele>
        <time>1999-07-22T12:35:19Z</time>
      </trkpt>
      <trkpt lat="43.402542" lon="-6.148616">
        <ele>112.616</ele>
        <time>1999-07-22T12:35:20Z</time>
      </trkpt>
      <trkpt lat="43.402591" lon="-6.148633">
        <ele>110.853</ele>
        <time>1999-07-22T12:35:22Z</time>
      </trkpt>
      <trkpt lat="43.402626" lon="-6.148653">
        <ele>109.490</ele>
        <time>1999-07-22T12:35:24Z</time>
      </trkpt>
      <trkpt lat="43.402631" lon="-6.148662">
        <ele>108.896</ele>
        <time>1999-07-22T12:35:25Z</time>
      </trkpt>
      <trkpt lat="43.402639" lon="-6.148666">
        <ele>108.236</ele>
        <time>1999-07-22T12:35:26Z</time>
      </trkpt>
      <trkpt lat="43.402835" lon="-6.148817">
        <ele>99.217</ele>
        <time>1999-07-22T12:36:11Z</time>
      </trkpt>
      <trkpt lat="43.402880" lon="-6.148797">
        <ele>99.018</ele>
        <time>1999-07-22T12:36:13Z</time>
      </trkpt>
      <trkpt lat="43.402923" lon="-6.148788">
        <ele>98.808</ele>
        <time>1999-07-22T12:36:15Z</time>
      </trkpt>
      <trkpt lat="43.402967" lon="-6.148786">
        <ele>98.626</ele>
        <time>1999-07-22T12:36:17Z</time>
      </trkpt>
      <trkpt lat="43.402981" lon="-6.148778">
        <ele>98.441</ele>
        <time>1999-07-22T12:36:18Z</time>
      </trkpt>
      <trkpt lat="43.402994" lon="-6.148776">
        <ele>98.242</ele>
        <time>1999-07-22T12:36:19Z</time>
      </trkpt>
      <trkpt lat="43.403005" lon="-6.148782">
        <ele>97.878</ele>
        <time>1999-07-22T12:36:20Z</time>
      </trkpt>
      <trkpt lat="43.403013" lon="-6.148781">
        <ele>97.214</ele>
        <time>1999-07-22T12:36:22Z</time>
      </trkpt>
      <trkpt lat="43.403016" lon="-6.148778">
        <ele>96.811</ele>
        <time>1999-07-22T12:36:23Z</time>
      </trkpt>
      <trkpt lat="43.403130" lon="-6.149109">
        <ele>82.678</ele>
        <time>1999-07-22T12:37:20Z</time>
      </trkpt>
      <trkpt lat="43.403157" lon="-6.149126">
        <ele>82.424</ele>
        <time>1999-07-22T12:37:21Z</time>
      </trkpt>
      <trkpt lat="43.403320" lon="-6.149217">
        <ele>82.291</ele>
        <time>1999-07-22T12:37:26Z</time>
      </trkpt>
      <trkpt lat="43.403412" lon="-6.149311">
        <ele>81.881</ele>
        <time>1999-07-22T12:37:29Z</time>
      </trkpt>
      <trkpt lat="43.403479" lon="-6.149360">
        <ele>81.219</ele>
        <time>1999-07-22T12:37:31Z</time>
      </trkpt>
      <trkpt lat="43.403573" lon="-6.149452">
        <ele>79.808</ele>
        <time>1999-07-22T12:37:34Z</time>
      </trkpt>
      <trkpt lat="43.403669" lon="-6.149531">
        <ele>78.242</ele>
        <time>1999-07-22T12:37:37Z</time>
      </trkpt>
      <trkpt lat="43.403715" lon="-6.149570">
        <ele>76.637</ele>
        <time>1999-07-22T12:37:39Z</time>
      </trkpt>
      <trkpt lat="43.403755" lon="-6.149630">
        <ele>75.288</ele>
        <time>1999-07-22T12:37:41Z</time>
      </trkpt>
      <trkpt lat="43.403813" lon="-6.149693">
        <ele>74.094</ele>
        <time>1999-07-22T12:37:43Z</time>
      </trkpt>
      <trkpt lat="43.403844" lon="-6.149737">
        <ele>73.650</ele>
        <time>1999-07-22T12:37:44Z</time>
      </trkpt>
      <trkpt lat="43.403881" lon="-6.149792">
        <ele>73.017</ele>
        <time>1999-07-22T12:37:45Z</time>
      </trkpt>
      <trkpt lat="43.403908" lon="-6.149853">
        <ele>71.684</ele>
        <time>1999-07-22T12:37:46Z</time>
      </trkpt>
      <trkpt lat="43.403988" lon="-6.149988">
        <ele>70.460</ele>
        <time>1999-07-22T12:37:48Z</time>
      </trkpt>
      <trkpt lat="43.404031" lon="-6.150061">
        <ele>69.835</ele>
        <time>1999-07-22T12:37:49Z</time>
      </trkpt>
      <trkpt lat="43.404126" lon="-6.150196">
        <ele>68.886</ele>
        <time>1999-07-22T12:37:51Z</time>
      </trkpt>
      <trkpt lat="43.404219" lon="-6.150337">
        <ele>67.814</ele>
        <time>1999-07-22T12:37:53Z</time>
      </trkpt>
      <trkpt lat="43.404264" lon="-6.150401">
        <ele>67.408</ele>
        <time>1999-07-22T12:37:54Z</time>
      </trkpt>
      <trkpt lat="43.404361" lon="-6.150518">
        <ele>66.686</ele>
        <time>1999-07-22T12:37:56Z</time>
      </trkpt>
      <trkpt lat="43.404402" lon="-6.150565">
        <ele>66.221</ele>
        <time>1999-07-22T12:37:57Z</time>
      </trkpt>
      <trkpt lat="43.404436" lon="-6.150604">
        <ele>66.042</ele>
        <time>1999-07-22T12:37:58Z</time>
      </trkpt>
      <trkpt lat="43.404476" lon="-6.150635">
        <ele>65.628</ele>
        <time>1999-07-22T12:37:59Z</time>
      </trkpt>
      <trkpt lat="43.404551" lon="-6.150673">
        <ele>64.884</ele>
        <time>1999-07-22T12:38:01Z</time>
      </trkpt>
      <trkpt lat="43.404606" lon="-6.150661">
        <ele>64.281</ele>
        <time>1999-07-22T12:38:02Z</time>
      </trkpt>
      <trkpt lat="43.404642" lon="-6.150670">
        <ele>63.838</ele>
        <time>1999-07-22T12:38:03Z</time>
      </trkpt>
      <trkpt lat="43.404689" lon="-6.150737">
        <ele>62.864</ele>
        <time>1999-07-22T12:38:05Z</time>
      </trkpt>
      <trkpt lat="43.404784" lon="-6.150776">
        <ele>61.625</ele>
        <time>1999-07-22T12:38:07Z</time>
      </trkpt>
      <trkpt lat="43.404836" lon="-6.150783">
        <ele>61.026</ele>
        <time>1999-07-22T12:38:08Z</time>
      </trkpt>
      <trkpt lat="43.404886" lon="-6.150785">
        <ele>60.408</ele>
        <time>1999-07-22T12:38:09Z</time>
      </trkpt>
      <trkpt lat="43.404944" lon="-6.150785">
        <ele>59.808</ele>
        <time>1999-07-22T12:38:10Z</time>
      </trkpt>
      <trkpt lat="43.405007" lon="-6.150789">
        <ele>59.275</ele>
        <time>1999-07-22T12:38:11Z</time>
      </trkpt>
      <trkpt lat="43.405137" lon="-6.150796">
        <ele>58.010</ele>
        <time>1999-07-22T12:38:13Z</time>
      </trkpt>
      <trkpt lat="43.405270" lon="-6.150793">
        <ele>56.871</ele>
        <time>1999-07-22T12:38:15Z</time>
      </trkpt>
      <trkpt lat="43.405552" lon="-6.150730">
        <ele>55.867</ele>
        <time>1999-07-22T12:38:19Z</time>
      </trkpt>
      <trkpt lat="43.405624" lon="-6.150705">
        <ele>55.673</ele>
        <time>1999-07-22T12:38:20Z</time>
      </trkpt>
      <trkpt lat="43.405878" lon="-6.150566">
        <ele>55.010</ele>
        <time>1999-07-22T12:38:24Z</time>
      </trkpt>
      <trkpt lat="43.406105" lon="-6.150401">
        <ele>54.647</ele>
        <time>1999-07-22T12:38:28Z</time>
      </trkpt>
      <trkpt lat="43.406154" lon="-6.150360">
        <ele>54.223</ele>
        <time>1999-07-22T12:38:29Z</time>
      </trkpt>
      <trkpt lat="43.406370" lon="-6.150210">
        <ele>53.638</ele>
        <time>1999-07-22T12:38:33Z</time>
      </trkpt>
      <trkpt lat="43.406429" lon="-6.150171">
        <ele>53.670</ele>
        <time>1999-07-22T12:38:34Z</time>
      </trkpt>
      <trkpt lat="43.406490" lon="-6.150136">
        <ele>53.417</ele>
        <time>1999-07-22T12:38:35Z</time>
      </trkpt>
      <trkpt lat="43.406711" lon="-6.150021">
        <ele>53.208</ele>
        <time>1999-07-22T12:38:39Z</time>
      </trkpt>
      <trkpt lat="43.406761" lon="-6.150001">
        <ele>53.086</ele>
        <time>1999-07-22T12:38:40Z</time>
      </trkpt>
      <trkpt lat="43.406932" lon="-6.149953">
        <ele>52.861</ele>
        <time>1999-07-22T12:38:44Z</time>
      </trkpt>
      <trkpt lat="43.406974" lon="-6.149963">
        <ele>52.812</ele>
        <time>1999-07-22T12:38:45Z</time>
      </trkpt>
      <trkpt lat="43.407103" lon="-6.150084">
        <ele>52.678</ele>
        <time>1999-07-22T12:38:48Z</time>
      </trkpt>
      <trkpt lat="43.407141" lon="-6.150142">
        <ele>52.664</ele>
        <time>1999-07-22T12:38:49Z</time>
      </trkpt>
      <trkpt lat="43.407191" lon="-6.150198">
        <ele>52.691</ele>
        <time>1999-07-22T12:38:51Z</time>
      </trkpt>
      <trkpt lat="43.407199" lon="-6.150214">
        <ele>52.438</ele>
        <time>1999-07-22T12:38:55Z</time>
      </trkpt>
      <trkpt lat="43.407172" lon="-6.150161">
        <ele>52.024</ele>
        <time>1999-07-22T12:38:59Z</time>
      </trkpt>
      <trkpt lat="43.407167" lon="-6.150145">
        <ele>51.628</ele>
        <time>1999-07-22T12:39:00Z</time>
      </trkpt>
      <trkpt lat="43.407158" lon="-6.150103">
        <ele>51.289</ele>
        <time>1999-07-22T12:39:02Z</time>
      </trkpt>
      <trkpt lat="43.407156" lon="-6.150055">
        <ele>51.017</ele>
        <time>1999-07-22T12:39:05Z</time>
      </trkpt>
      <trkpt lat="43.407150" lon="-6.150033">
        <ele>51.008</ele>
        <time>1999-07-22T12:39:07Z</time>
      </trkpt>
      <trkpt lat="43.407147" lon="-6.150024">
        <ele>51.065</ele>
        <time>1999-07-22T12:39:09Z</time>
      </trkpt>
      <trkpt lat="43.407208" lon="-6.149896">
        <ele>52.030</ele>
        <time>1999-07-22T12:39:17Z</time>
      </trkpt>
      <trkpt lat="43.407286" lon="-6.149870">
        <ele>52.031</ele>
        <time>1999-07-22T12:39:19Z</time>
      </trkpt>
      <trkpt lat="43.407380" lon="-6.149849">
        <ele>52.247</ele>
        <time>1999-07-22T12:39:21Z</time>
      </trkpt>
      <trkpt lat="43.407424" lon="-6.149836">
        <ele>52.433</ele>
        <time>1999-07-22T12:39:22Z</time>
      </trkpt>
      <trkpt lat="43.407589" lon="-6.149797">
        <ele>52.690</ele>
        <time>1999-07-22T12:39:25Z</time>
      </trkpt>
      <trkpt lat="43.407693" lon="-6.149761">
        <ele>52.847</ele>
        <time>1999-07-22T12:39:27Z</time>
      </trkpt>
      <trkpt lat="43.407742" lon="-6.149744">
        <ele>53.093</ele>
        <time>1999-07-22T12:39:28Z</time>
      </trkpt>
      <trkpt lat="43.407905" lon="-6.149688">
        <ele>53.418</ele>
        <time>1999-07-22T12:39:32Z</time>
      </trkpt>
      <trkpt lat="43.408142" lon="-6.149640">
        <ele>54.098</ele>
        <time>1999-07-22T12:39:36Z</time>
      </trkpt>
      <trkpt lat="43.408304" lon="-6.149616">
        <ele>54.217</ele>
        <time>1999-07-22T12:39:39Z</time>
      </trkpt>
      <trkpt lat="43.408423" lon="-6.149610">
        <ele>54.408</ele>
        <time>1999-07-22T12:39:41Z</time>
      </trkpt>
      <trkpt lat="43.408819" lon="-6.149630">
        <ele>54.824</ele>
        <time>1999-07-22T12:39:48Z</time>
      </trkpt>
      <trkpt lat="43.408878" lon="-6.149631">
        <ele>55.079</ele>
        <time>1999-07-22T12:39:49Z</time>
      </trkpt>
      <trkpt lat="43.408990" lon="-6.149633">
        <ele>55.290</ele>
        <time>1999-07-22T12:39:51Z</time>
      </trkpt>
      <trkpt lat="43.409160" lon="-6.149598">
        <ele>55.226</ele>
        <time>1999-07-22T12:39:54Z</time>
      </trkpt>
      <trkpt lat="43.409448" lon="-6.149543">
        <ele>55.292</ele>
        <time>1999-07-22T12:39:59Z</time>
      </trkpt>
      <trkpt lat="43.409568" lon="-6.149516">
        <ele>55.239</ele>
        <time>1999-07-22T12:40:01Z</time>
      </trkpt>
      <trkpt lat="43.410000" lon="-6.149391">
        <ele>54.696</ele>
        <time>1999-07-22T12:40:07Z</time>
      </trkpt>
      <trkpt lat="43.410200" lon="-6.149335">
        <ele>54.032</ele>
        <time>1999-07-22T12:40:10Z</time>
      </trkpt>
      <trkpt lat="43.410268" lon="-6.149317">
        <ele>53.838</ele>
        <time>1999-07-22T12:40:11Z</time>
      </trkpt>
      <trkpt lat="43.410406" lon="-6.149279">
        <ele>53.670</ele>
        <time>1999-07-22T12:40:13Z</time>
      </trkpt>
      <trkpt lat="43.410692" lon="-6.149209">
        <ele>52.617</ele>
        <time>1999-07-22T12:40:17Z</time>
      </trkpt>
      <trkpt lat="43.410899" lon="-6.149163">
        <ele>52.208</ele>
        <time>1999-07-22T12:40:20Z</time>
      </trkpt>
      <trkpt lat="43.411029" lon="-6.149116">
        <ele>51.626</ele>
        <time>1999-07-22T12:40:22Z</time>
      </trkpt>
      <trkpt lat="43.411089" lon="-6.149083">
        <ele>51.461</ele>
        <time>1999-07-22T12:40:23Z</time>
      </trkpt>
      <trkpt lat="43.411206" lon="-6.149018">
        <ele>51.242</ele>
        <time>1999-07-22T12:40:25Z</time>
      </trkpt>
      <trkpt lat="43.411264" lon="-6.148977">
        <ele>51.298</ele>
        <time>1999-07-22T12:40:26Z</time>
      </trkpt>
      <trkpt lat="43.411374" lon="-6.148903">
        <ele>51.074</ele>
        <time>1999-07-22T12:40:28Z</time>
      </trkpt>
      <trkpt lat="43.411431" lon="-6.148878">
        <ele>50.851</ele>
        <time>1999-07-22T12:40:29Z</time>
      </trkpt>
      <trkpt lat="43.411546" lon="-6.148879">
        <ele>50.668</ele>
        <time>1999-07-22T12:40:31Z</time>
      </trkpt>
      <trkpt lat="43.411594" lon="-6.148924">
        <ele>50.464</ele>
        <time>1999-07-22T12:40:32Z</time>
      </trkpt>
      <trkpt lat="43.411702" lon="-6.149121">
        <ele>50.452</ele>
        <time>1999-07-22T12:40:35Z</time>
      </trkpt>
      <trkpt lat="43.411753" lon="-6.149271">
        <ele>50.253</ele>
        <time>1999-07-22T12:40:37Z</time>
      </trkpt>
      <trkpt lat="43.411781" lon="-6.149341">
        <ele>50.208</ele>
        <time>1999-07-22T12:40:38Z</time>
      </trkpt>
      <trkpt lat="43.411849" lon="-6.149463">
        <ele>49.808</ele>
        <time>1999-07-22T12:40:40Z</time>
      </trkpt>
      <trkpt lat="43.411892" lon="-6.149507">
        <ele>49.218</ele>
        <time>1999-07-22T12:40:41Z</time>
      </trkpt>
      <trkpt lat="43.411938" lon="-6.149547">
        <ele>49.263</ele>
        <time>1999-07-22T12:40:42Z</time>
      </trkpt>
      <trkpt lat="43.412033" lon="-6.149620">
        <ele>49.034</ele>
        <time>1999-07-22T12:40:44Z</time>
      </trkpt>
      <trkpt lat="43.412257" lon="-6.149780">
        <ele>49.010</ele>
        <time>1999-07-22T12:40:49Z</time>
      </trkpt>
      <trkpt lat="43.412298" lon="-6.149798">
        <ele>49.086</ele>
        <time>1999-07-22T12:40:50Z</time>
      </trkpt>
      <trkpt lat="43.412365" lon="-6.149855">
        <ele>49.433</ele>
        <time>1999-07-22T12:40:52Z</time>
      </trkpt>
      <trkpt lat="43.412384" lon="-6.149897">
        <ele>49.410</ele>
        <time>1999-07-22T12:40:53Z</time>
      </trkpt>
      <trkpt lat="43.412357" lon="-6.149987">
        <ele>49.416</ele>
        <time>1999-07-22T12:40:55Z</time>
      </trkpt>
      <trkpt lat="43.412346" lon="-6.150043">
        <ele>49.475</ele>
        <time>1999-07-22T12:40:56Z</time>
      </trkpt>
      <trkpt lat="43.412378" lon="-6.150197">
        <ele>49.428</ele>
        <time>1999-07-22T12:40:59Z</time>
      </trkpt>
      <trkpt lat="43.412391" lon="-6.150258">
        <ele>49.620</ele>
        <time>1999-07-22T12:41:00Z</time>
      </trkpt>
      <trkpt lat="43.412405" lon="-6.150321">
        <ele>49.608</ele>
        <time>1999-07-22T12:41:01Z</time>
      </trkpt>
      <trkpt lat="43.412411" lon="-6.150393">
        <ele>49.660</ele>
        <time>1999-07-22T12:41:02Z</time>
      </trkpt>
      <trkpt lat="43.412401" lon="-6.150567">
        <ele>49.495</ele>
        <time>1999-07-22T12:41:04Z</time>
      </trkpt>
      <trkpt lat="43.412377" lon="-6.150767">
        <ele>49.416</ele>
        <time>1999-07-22T12:41:06Z</time>
      </trkpt>
      <trkpt lat="43.412362" lon="-6.150945">
        <ele>49.412</ele>
        <time>1999-07-22T12:41:08Z</time>
      </trkpt>
      <trkpt lat="43.412356" lon="-6.151023">
        <ele>49.428</ele>
        <time>1999-07-22T12:41:09Z</time>
      </trkpt>
      <trkpt lat="43.412359" lon="-6.151155">
        <ele>49.015</ele>
        <time>1999-07-22T12:41:12Z</time>
      </trkpt>
      <trkpt lat="43.412369" lon="-6.151170">
        <ele>49.032</ele>
        <time>1999-07-22T12:41:13Z</time>
      </trkpt>
      <trkpt lat="43.412328" lon="-6.151243">
        <ele>48.868</ele>
        <time>1999-07-22T12:41:15Z</time>
      </trkpt>
      <trkpt lat="43.412292" lon="-6.151298">
        <ele>48.645</ele>
        <time>1999-07-22T12:41:17Z</time>
      </trkpt>
      <trkpt lat="43.412276" lon="-6.151316">
        <ele>48.647</ele>
        <time>1999-07-22T12:41:19Z</time>
      </trkpt>
      <trkpt lat="43.412264" lon="-6.151316">
        <ele>48.411</ele>
        <time>1999-07-22T12:41:21Z</time>
      </trkpt>
      <trkpt lat="43.412180" lon="-6.151388">
        <ele>47.608</ele>
        <time>1999-07-22T12:41:53Z</time>
      </trkpt>
      <trkpt lat="43.412174" lon="-6.151411">
        <ele>47.637</ele>
        <time>1999-07-22T12:41:54Z</time>
      </trkpt>
      <trkpt lat="43.412167" lon="-6.151433">
        <ele>47.612</ele>
        <time>1999-07-22T12:41:55Z</time>
      </trkpt>
      <trkpt lat="43.412150" lon="-6.151481">
        <ele>47.853</ele>
        <time>1999-07-22T12:41:57Z</time>
      </trkpt>
      <trkpt lat="43.412136" lon="-6.151490">
        <ele>47.899</ele>
        <time>1999-07-22T12:41:59Z</time>
      </trkpt>
      <trkpt lat="43.412155" lon="-6.151465">
        <ele>47.845</ele>
        <time>1999-07-22T12:42:01Z</time>
      </trkpt>
      <trkpt lat="43.412176" lon="-6.151430">
        <ele>47.812</ele>
        <time>1999-07-22T12:42:03Z</time>
      </trkpt>
      <trkpt lat="43.412182" lon="-6.151406">
        <ele>48.039</ele>
        <time>1999-07-22T12:42:04Z</time>
      </trkpt>
      <trkpt lat="43.412189" lon="-6.151376">
        <ele>48.035</ele>
        <time>1999-07-22T12:42:05Z</time>
      </trkpt>
      <trkpt lat="43.412225" lon="-6.151298">
        <ele>48.278</ele>
        <time>1999-07-22T12:42:07Z</time>
      </trkpt>
      <trkpt lat="43.412329" lon="-6.151142">
        <ele>48.233</ele>
        <time>1999-07-22T12:42:12Z</time>
      </trkpt>
      <trkpt lat="43.412348" lon="-6.151075">
        <ele>48.226</ele>
        <time>1999-07-22T12:42:14Z</time>
      </trkpt>
      <trkpt lat="43.412332" lon="-6.150988">
        <ele>48.208</ele>
        <time>1999-07-22T12:42:16Z</time>
      </trkpt>
      <trkpt lat="43.412331" lon="-6.150873">
        <ele>48.230</ele>
        <time>1999-07-22T12:42:18Z</time>
      </trkpt>
      <trkpt lat="43.412360" lon="-6.150687">
        <ele>48.245</ele>
        <time>1999-07-22T12:42:21Z</time>
      </trkpt>
      <trkpt lat="43.412377" lon="-6.150504">
        <ele>48.246</ele>
        <time>1999-07-22T12:42:24Z</time>
      </trkpt>
      <trkpt lat="43.412386" lon="-6.150402">
        <ele>48.262</ele>
        <time>1999-07-22T12:42:26Z</time>
      </trkpt>
      <trkpt lat="43.412423" lon="-6.150233">
        <ele>48.448</ele>
        <time>1999-07-22T12:42:30Z</time>
      </trkpt>
      <trkpt lat="43.412439" lon="-6.150208">
        <ele>48.455</ele>
        <time>1999-07-22T12:42:31Z</time>
      </trkpt>
      <trkpt lat="43.412465" lon="-6.150193">
        <ele>48.432</ele>
        <time>1999-07-22T12:42:32Z</time>
      </trkpt>
      <trkpt lat="43.412541" lon="-6.150202">
        <ele>48.688</ele>
        <time>1999-07-22T12:42:35Z</time>
      </trkpt>
      <trkpt lat="43.412572" lon="-6.150218">
        <ele>48.688</ele>
        <time>1999-07-22T12:42:36Z</time>
      </trkpt>
      <trkpt lat="43.412606" lon="-6.150237">
        <ele>48.824</ele>
        <time>1999-07-22T12:42:37Z</time>
      </trkpt>
      <trkpt lat="43.412714" lon="-6.150309">
        <ele>49.226</ele>
        <time>1999-07-22T12:42:40Z</time>
      </trkpt>
      <trkpt lat="43.412865" lon="-6.150415">
        <ele>49.208</ele>
        <time>1999-07-22T12:42:45Z</time>
      </trkpt>
      <trkpt lat="43.412928" lon="-6.150410">
        <ele>49.221</ele>
        <time>1999-07-22T12:42:49Z</time>
      </trkpt>
      <trkpt lat="43.413038" lon="-6.150469">
        <ele>49.286</ele>
        <time>1999-07-22T12:42:53Z</time>
      </trkpt>
      <trkpt lat="43.413081" lon="-6.150492">
        <ele>49.257</ele>
        <time>1999-07-22T12:42:54Z</time>
      </trkpt>
      <trkpt lat="43.413244" lon="-6.150592">
        <ele>49.013</ele>
        <time>1999-07-22T12:42:58Z</time>
      </trkpt>
      <trkpt lat="43.413284" lon="-6.150618">
        <ele>49.049</ele>
        <time>1999-07-22T12:42:59Z</time>
      </trkpt>
      <trkpt lat="43.413479" lon="-6.150740">
        <ele>49.226</ele>
        <time>1999-07-22T12:43:04Z</time>
      </trkpt>
      <trkpt lat="43.413620" lon="-6.150849">
        <ele>49.683</ele>
        <time>1999-07-22T12:43:08Z</time>
      </trkpt>
      <trkpt lat="43.413655" lon="-6.150884">
        <ele>49.619</ele>
        <time>1999-07-22T12:43:09Z</time>
      </trkpt>
      <trkpt lat="43.413724" lon="-6.150957">
        <ele>50.027</ele>
        <time>1999-07-22T12:43:11Z</time>
      </trkpt>
      <trkpt lat="43.413867" lon="-6.151144">
        <ele>50.868</ele>
        <time>1999-07-22T12:43:16Z</time>
      </trkpt>
      <trkpt lat="43.413889" lon="-6.151282">
        <ele>51.014</ele>
        <time>1999-07-22T12:43:19Z</time>
      </trkpt>
      <trkpt lat="43.413885" lon="-6.151335">
        <ele>51.008</ele>
        <time>1999-07-22T12:43:20Z</time>
      </trkpt>
      <trkpt lat="43.413846" lon="-6.151708">
        <ele>52.085</ele>
        <time>1999-07-22T12:43:26Z</time>
      </trkpt>
      <trkpt lat="43.413836" lon="-6.151776">
        <ele>52.420</ele>
        <time>1999-07-22T12:43:27Z</time>
      </trkpt>
      <trkpt lat="43.413786" lon="-6.152145">
        <ele>52.861</ele>
        <time>1999-07-22T12:43:32Z</time>
      </trkpt>
      <trkpt lat="43.413777" lon="-6.152221">
        <ele>52.897</ele>
        <time>1999-07-22T12:43:33Z</time>
      </trkpt>
      <trkpt lat="43.413755" lon="-6.152442">
        <ele>52.823</ele>
        <time>1999-07-22T12:43:36Z</time>
      </trkpt>
      <trkpt lat="43.413735" lon="-6.152646">
        <ele>52.880</ele>
        <time>1999-07-22T12:43:39Z</time>
      </trkpt>
      <trkpt lat="43.413730" lon="-6.152708">
        <ele>52.887</ele>
        <time>1999-07-22T12:43:40Z</time>
      </trkpt>
      <trkpt lat="43.413716" lon="-6.152832">
        <ele>52.833</ele>
        <time>1999-07-22T12:43:42Z</time>
      </trkpt>
      <trkpt lat="43.413711" lon="-6.152891">
        <ele>52.838</ele>
        <time>1999-07-22T12:43:43Z</time>
      </trkpt>
      <trkpt lat="43.413718" lon="-6.153013">
        <ele>52.870</ele>
        <time>1999-07-22T12:43:45Z</time>
      </trkpt>
      <trkpt lat="43.413723" lon="-6.153077">
        <ele>52.817</ele>
        <time>1999-07-22T12:43:46Z</time>
      </trkpt>
      <trkpt lat="43.413727" lon="-6.153215">
        <ele>52.808</ele>
        <time>1999-07-22T12:43:48Z</time>
      </trkpt>
      <trkpt lat="43.413723" lon="-6.153291">
        <ele>52.896</ele>
        <time>1999-07-22T12:43:49Z</time>
      </trkpt>
      <trkpt lat="43.413709" lon="-6.153455">
        <ele>52.881</ele>
        <time>1999-07-22T12:43:51Z</time>
      </trkpt>
      <trkpt lat="43.413645" lon="-6.153994">
        <ele>52.292</ele>
        <time>1999-07-22T12:43:57Z</time>
      </trkpt>
      <trkpt lat="43.413622" lon="-6.154158">
        <ele>52.028</ele>
        <time>1999-07-22T12:43:59Z</time>
      </trkpt>
      <trkpt lat="43.413604" lon="-6.154320">
        <ele>51.414</ele>
        <time>1999-07-22T12:44:01Z</time>
      </trkpt>
      <trkpt lat="43.413586" lon="-6.154471">
        <ele>51.061</ele>
        <time>1999-07-22T12:44:03Z</time>
      </trkpt>
      <trkpt lat="43.413572" lon="-6.154541">
        <ele>50.868</ele>
        <time>1999-07-22T12:44:04Z</time>
      </trkpt>
      <trkpt lat="43.413540" lon="-6.154672">
        <ele>50.474</ele>
        <time>1999-07-22T12:44:06Z</time>
      </trkpt>
      <trkpt lat="43.413476" lon="-6.154897">
        <ele>50.078</ele>
        <time>1999-07-22T12:44:10Z</time>
      </trkpt>
      <trkpt lat="43.413391" lon="-6.155186">
        <ele>50.433</ele>
        <time>1999-07-22T12:44:16Z</time>
      </trkpt>
      <trkpt lat="43.413348" lon="-6.155317">
        <ele>51.026</ele>
        <time>1999-07-22T12:44:19Z</time>
      </trkpt>
      <trkpt lat="43.413317" lon="-6.155420">
        <ele>51.408</ele>
        <time>1999-07-22T12:44:22Z</time>
      </trkpt>
      <trkpt lat="43.413302" lon="-6.155465">
        <ele>52.010</ele>
        <time>1999-07-22T12:44:26Z</time>
      </trkpt>
      <trkpt lat="43.413305" lon="-6.155462">
        <ele>52.075</ele>
        <time>1999-07-22T12:44:27Z</time>
      </trkpt>
      <trkpt lat="43.413270" lon="-6.155515">
        <ele>53.216</ele>
        <time>1999-07-22T12:44:48Z</time>
      </trkpt>
      <trkpt lat="43.413256" lon="-6.155569">
        <ele>53.212</ele>
        <time>1999-07-22T12:44:50Z</time>
      </trkpt>
      <trkpt lat="43.413235" lon="-6.155634">
        <ele>53.468</ele>
        <time>1999-07-22T12:44:53Z</time>
      </trkpt>
      <trkpt lat="43.413219" lon="-6.155623">
        <ele>53.455</ele>
        <time>1999-07-22T12:44:54Z</time>
      </trkpt>
      <trkpt lat="43.413215" lon="-6.155557">
        <ele>53.422</ele>
        <time>1999-07-22T12:44:56Z</time>
      </trkpt>
      <trkpt lat="43.413225" lon="-6.155511">
        <ele>53.498</ele>
        <time>1999-07-22T12:44:57Z</time>
      </trkpt>
      <trkpt lat="43.413234" lon="-6.155460">
        <ele>53.457</ele>
        <time>1999-07-22T12:44:58Z</time>
      </trkpt>
      <trkpt lat="43.413264" lon="-6.155352">
        <ele>53.600</ele>
        <time>1999-07-22T12:45:00Z</time>
      </trkpt>
      <trkpt lat="43.413322" lon="-6.155236">
        <ele>53.620</ele>
        <time>1999-07-22T12:45:02Z</time>
      </trkpt>
      <trkpt lat="43.413406" lon="-6.155045">
        <ele>53.608</ele>
        <time>1999-07-22T12:45:05Z</time>
      </trkpt>
      <trkpt lat="43.413456" lon="-6.154901">
        <ele>53.638</ele>
        <time>1999-07-22T12:45:07Z</time>
      </trkpt>
      <trkpt lat="43.413470" lon="-6.154825">
        <ele>53.633</ele>
        <time>1999-07-22T12:45:08Z</time>
      </trkpt>
      <trkpt lat="43.413559" lon="-6.154511">
        <ele>53.214</ele>
        <time>1999-07-22T12:45:12Z</time>
      </trkpt>
      <trkpt lat="43.413574" lon="-6.154425">
        <ele>53.090</ele>
        <time>1999-07-22T12:45:13Z</time>
      </trkpt>
      <trkpt lat="43.413600" lon="-6.154179">
        <ele>52.276</ele>
        <time>1999-07-22T12:45:16Z</time>
      </trkpt>
      <trkpt lat="43.413612" lon="-6.154059">
        <ele>51.663</ele>
        <time>1999-07-22T12:45:18Z</time>
      </trkpt>
      <trkpt lat="43.413608" lon="-6.154018">
        <ele>51.410</ele>
        <time>1999-07-22T12:45:19Z</time>
      </trkpt>
      <trkpt lat="43.413596" lon="-6.153989">
        <ele>51.226</ele>
        <time>1999-07-22T12:45:20Z</time>
      </trkpt>
      <trkpt lat="43.413574" lon="-6.153981">
        <ele>51.044</ele>
        <time>1999-07-22T12:45:21Z</time>
      </trkpt>
      <trkpt lat="43.413454" lon="-6.154020">
        <ele>50.405</ele>
        <time>1999-07-22T12:45:25Z</time>
      </trkpt>
      <trkpt lat="43.413423" lon="-6.154021">
        <ele>50.015</ele>
        <time>1999-07-22T12:45:26Z</time>
      </trkpt>
      <trkpt lat="43.413397" lon="-6.154008">
        <ele>49.808</ele>
        <time>1999-07-22T12:45:27Z</time>
      </trkpt>
      <trkpt lat="43.413365" lon="-6.153964">
        <ele>49.287</ele>
        <time>1999-07-22T12:45:29Z</time>
      </trkpt>
      <trkpt lat="43.413352" lon="-6.153950">
        <ele>49.042</ele>
        <time>1999-07-22T12:45:30Z</time>
      </trkpt>
      <trkpt lat="43.413349" lon="-6.153937">
        <ele>49.023</ele>
        <time>1999-07-22T12:45:31Z</time>
      </trkpt>
      <trkpt lat="43.413371" lon="-6.153931">
        <ele>48.819</ele>
        <time>1999-07-22T12:45:33Z</time>
      </trkpt>
      <trkpt lat="43.413430" lon="-6.154000">
        <ele>48.825</ele>
        <time>1999-07-22T12:45:38Z</time>
      </trkpt>
      <trkpt lat="43.413458" lon="-6.154003">
        <ele>48.822</ele>
        <time>1999-07-22T12:45:40Z</time>
      </trkpt>
      <trkpt lat="43.413494" lon="-6.153987">
        <ele>48.879</ele>
        <time>1999-07-22T12:45:42Z</time>
      </trkpt>
      <trkpt lat="43.413518" lon="-6.153974">
        <ele>48.825</ele>
        <time>1999-07-22T12:45:43Z</time>
      </trkpt>
      <trkpt lat="43.413599" lon="-6.153936">
        <ele>48.891</ele>
        <time>1999-07-22T12:45:47Z</time>
      </trkpt>
      <trkpt lat="43.413628" lon="-6.153893">
        <ele>48.881</ele>
        <time>1999-07-22T12:45:49Z</time>
      </trkpt>
      <trkpt lat="43.413633" lon="-6.153860">
        <ele>48.819</ele>
        <time>1999-07-22T12:45:50Z</time>
      </trkpt>
      <trkpt lat="43.413636" lon="-6.153775">
        <ele>48.808</ele>
        <time>1999-07-22T12:45:52Z</time>
      </trkpt>
      <trkpt lat="43.413639" lon="-6.153728">
        <ele>48.832</ele>
        <time>1999-07-22T12:45:53Z</time>
      </trkpt>
      <trkpt lat="43.413646" lon="-6.153633">
        <ele>48.837</ele>
        <time>1999-07-22T12:45:55Z</time>
      </trkpt>
      <trkpt lat="43.413656" lon="-6.153478">
        <ele>49.298</ele>
        <time>1999-07-22T12:45:58Z</time>
      </trkpt>
      <trkpt lat="43.413666" lon="-6.153375">
        <ele>49.444</ele>
        <time>1999-07-22T12:46:00Z</time>
      </trkpt>
      <trkpt lat="43.413675" lon="-6.153221">
        <ele>49.680</ele>
        <time>1999-07-22T12:46:03Z</time>
      </trkpt>
      <trkpt lat="43.413684" lon="-6.153073">
        <ele>50.047</ele>
        <time>1999-07-22T12:46:06Z</time>
      </trkpt>
      <trkpt lat="43.413700" lon="-6.152990">
        <ele>50.414</ele>
        <time>1999-07-22T12:46:08Z</time>
      </trkpt>
      <trkpt lat="43.413701" lon="-6.152903">
        <ele>50.830</ele>
        <time>1999-07-22T12:46:11Z</time>
      </trkpt>
      <trkpt lat="43.413687" lon="-6.152887">
        <ele>51.021</ele>
        <time>1999-07-22T12:46:12Z</time>
      </trkpt>
      <trkpt lat="43.413649" lon="-6.152879">
        <ele>51.641</ele>
        <time>1999-07-22T12:46:14Z</time>
      </trkpt>
      <trkpt lat="43.413640" lon="-6.152883">
        <ele>52.005</ele>
        <time>1999-07-22T12:46:15Z</time>
      </trkpt>
      <trkpt lat="43.413635" lon="-6.152881">
        <ele>52.208</ele>
        <time>1999-07-22T12:46:17Z</time>
      </trkpt>
      <trkpt lat="43.413569" lon="-6.152888">
        <ele>52.465</ele>
        <time>1999-07-22T12:46:28Z</time>
      </trkpt>
      <trkpt lat="43.413537" lon="-6.152881">
        <ele>52.440</ele>
        <time>1999-07-22T12:46:29Z</time>
      </trkpt>
      <trkpt lat="43.413330" lon="-6.152835">
        <ele>52.211</ele>
        <time>1999-07-22T12:46:33Z</time>
      </trkpt>
      <trkpt lat="43.412834" lon="-6.152716">
        <ele>50.867</ele>
        <time>1999-07-22T12:46:41Z</time>
      </trkpt>
      <trkpt lat="43.412713" lon="-6.152692">
        <ele>50.623</ele>
        <time>1999-07-22T12:46:43Z</time>
      </trkpt>
      <trkpt lat="43.412357" lon="-6.152666">
        <ele>50.640</ele>
        <time>1999-07-22T12:46:49Z</time>
      </trkpt>
      <trkpt lat="43.412131" lon="-6.152680">
        <ele>50.877</ele>
        <time>1999-07-22T12:46:53Z</time>
      </trkpt>
      <trkpt lat="43.411959" lon="-6.152695">
        <ele>50.843</ele>
        <time>1999-07-22T12:46:56Z</time>
      </trkpt>
      <trkpt lat="43.411542" lon="-6.152753">
        <ele>51.034</ele>
        <time>1999-07-22T12:47:03Z</time>
      </trkpt>
      <trkpt lat="43.411482" lon="-6.152764">
        <ele>51.055</ele>
        <time>1999-07-22T12:47:04Z</time>
      </trkpt>
      <trkpt lat="43.411251" lon="-6.152822">
        <ele>51.010</ele>
        <time>1999-07-22T12:47:08Z</time>
      </trkpt>
      <trkpt lat="43.411204" lon="-6.152833">
        <ele>51.008</ele>
        <time>1999-07-22T12:47:09Z</time>
      </trkpt>
      <trkpt lat="43.410998" lon="-6.152887">
        <ele>51.016</ele>
        <time>1999-07-22T12:47:13Z</time>
      </trkpt>
      <trkpt lat="43.410834" lon="-6.152928">
        <ele>51.271</ele>
        <time>1999-07-22T12:47:16Z</time>
      </trkpt>
      <trkpt lat="43.410612" lon="-6.152982">
        <ele>51.612</ele>
        <time>1999-07-22T12:47:20Z</time>
      </trkpt>
      <trkpt lat="43.410312" lon="-6.153089">
        <ele>51.828</ele>
        <time>1999-07-22T12:47:25Z</time>
      </trkpt>
      <trkpt lat="43.410258" lon="-6.153132">
        <ele>51.864</ele>
        <time>1999-07-22T12:47:26Z</time>
      </trkpt>
      <trkpt lat="43.410210" lon="-6.153188">
        <ele>52.021</ele>
        <time>1999-07-22T12:47:27Z</time>
      </trkpt>
      <trkpt lat="43.410049" lon="-6.153416">
        <ele>52.298</ele>
        <time>1999-07-22T12:47:31Z</time>
      </trkpt>
      <trkpt lat="43.410009" lon="-6.153477">
        <ele>52.234</ele>
        <time>1999-07-22T12:47:32Z</time>
      </trkpt>
      <trkpt lat="43.409974" lon="-6.153542">
        <ele>52.229</ele>
        <time>1999-07-22T12:47:33Z</time>
      </trkpt>
      <trkpt lat="43.409905" lon="-6.153765">
        <ele>52.200</ele>
        <time>1999-07-22T12:47:36Z</time>
      </trkpt>
      <trkpt lat="43.409897" lon="-6.153915">
        <ele>51.820</ele>
        <time>1999-07-22T12:47:39Z</time>
      </trkpt>
      <trkpt lat="43.409895" lon="-6.153957">
        <ele>51.408</ele>
        <time>1999-07-22T12:47:41Z</time>
      </trkpt>
      <trkpt lat="43.409888" lon="-6.153945">
        <ele>51.245</ele>
        <time>1999-07-22T12:47:43Z</time>
      </trkpt>
      <trkpt lat="43.409891" lon="-6.153916">
        <ele>51.290</ele>
        <time>1999-07-22T12:47:45Z</time>
      </trkpt>
      <trkpt lat="43.409884" lon="-6.153823">
        <ele>51.091</ele>
        <time>1999-07-22T12:47:48Z</time>
      </trkpt>
      <trkpt lat="43.409879" lon="-6.153780">
        <ele>51.067</ele>
        <time>1999-07-22T12:47:49Z</time>
      </trkpt>
      <trkpt lat="43.409883" lon="-6.153684">
        <ele>51.083</ele>
        <time>1999-07-22T12:47:51Z</time>
      </trkpt>
      <trkpt lat="43.409910" lon="-6.153581">
        <ele>51.090</ele>
        <time>1999-07-22T12:47:53Z</time>
      </trkpt>
      <trkpt lat="43.409929" lon="-6.153531">
        <ele>51.037</ele>
        <time>1999-07-22T12:47:54Z</time>
      </trkpt>
      <trkpt lat="43.410006" lon="-6.153401">
        <ele>51.033</ele>
        <time>1999-07-22T12:47:57Z</time>
      </trkpt>
      <trkpt lat="43.410031" lon="-6.153363">
        <ele>51.048</ele>
        <time>1999-07-22T12:47:58Z</time>
      </trkpt>
      <trkpt lat="43.410062" lon="-6.153289">
        <ele>51.261</ele>
        <time>1999-07-22T12:48:00Z</time>
      </trkpt>
      <trkpt lat="43.410052" lon="-6.153240">
        <ele>51.217</ele>
        <time>1999-07-22T12:48:02Z</time>
      </trkpt>
      <trkpt lat="43.409969" lon="-6.153202">
        <ele>51.408</ele>
        <time>1999-07-22T12:48:05Z</time>
      </trkpt>
      <trkpt lat="43.409936" lon="-6.153187">
        <ele>51.477</ele>
        <time>1999-07-22T12:48:06Z</time>
      </trkpt>
      <trkpt lat="43.409870" lon="-6.153184">
        <ele>51.222</ele>
        <time>1999-07-22T12:48:08Z</time>
      </trkpt>
      <trkpt lat="43.409822" lon="-6.153227">
        <ele>51.493</ele>
        <time>1999-07-22T12:48:10Z</time>
      </trkpt>
      <trkpt lat="43.409744" lon="-6.153405">
        <ele>51.419</ele>
        <time>1999-07-22T12:48:14Z</time>
      </trkpt>
      <trkpt lat="43.409727" lon="-6.153465">
        <ele>51.425</ele>
        <time>1999-07-22T12:48:15Z</time>
      </trkpt>
      <trkpt lat="43.409669" lon="-6.153675">
        <ele>51.232</ele>
        <time>1999-07-22T12:48:18Z</time>
      </trkpt>
      <trkpt lat="43.409660" lon="-6.153827">
        <ele>51.289</ele>
        <time>1999-07-22T12:48:20Z</time>
      </trkpt>
      <trkpt lat="43.409661" lon="-6.153904">
        <ele>51.085</ele>
        <time>1999-07-22T12:48:21Z</time>
      </trkpt>
      <trkpt lat="43.409730" lon="-6.154254">
        <ele>50.832</ele>
        <time>1999-07-22T12:48:26Z</time>
      </trkpt>
      <trkpt lat="43.409767" lon="-6.154385">
        <ele>50.892</ele>
        <time>1999-07-22T12:48:28Z</time>
      </trkpt>
      <trkpt lat="43.409750" lon="-6.154524">
        <ele>50.811</ele>
        <time>1999-07-22T12:48:30Z</time>
      </trkpt>
      <trkpt lat="43.409632" lon="-6.155003">
        <ele>50.808</ele>
        <time>1999-07-22T12:48:37Z</time>
      </trkpt>
      <trkpt lat="43.409584" lon="-6.155204">
        <ele>51.066</ele>
        <time>1999-07-22T12:48:40Z</time>
      </trkpt>
      <trkpt lat="43.409512" lon="-6.155514">
        <ele>51.221</ele>
        <time>1999-07-22T12:48:45Z</time>
      </trkpt>
      <trkpt lat="43.409512" lon="-6.155574">
        <ele>51.492</ele>
        <time>1999-07-22T12:48:46Z</time>
      </trkpt>
      <trkpt lat="43.409482" lon="-6.155760">
        <ele>51.868</ele>
        <time>1999-07-22T12:48:49Z</time>
      </trkpt>
      <trkpt lat="43.409449" lon="-6.155881">
        <ele>52.084</ele>
        <time>1999-07-22T12:48:51Z</time>
      </trkpt>
      <trkpt lat="43.409379" lon="-6.156142">
        <ele>52.631</ele>
        <time>1999-07-22T12:48:56Z</time>
      </trkpt>
      <trkpt lat="43.409368" lon="-6.156272">
        <ele>52.688</ele>
        <time>1999-07-22T12:49:00Z</time>
      </trkpt>
      <trkpt lat="43.409454" lon="-6.156442">
        <ele>52.874</ele>
        <time>1999-07-22T12:49:05Z</time>
      </trkpt>
      <trkpt lat="43.409467" lon="-6.156484">
        <ele>53.033</ele>
        <time>1999-07-22T12:49:06Z</time>
      </trkpt>
      <trkpt lat="43.409480" lon="-6.156623">
        <ele>53.423</ele>
        <time>1999-07-22T12:49:09Z</time>
      </trkpt>
      <trkpt lat="43.409478" lon="-6.156665">
        <ele>53.415</ele>
        <time>1999-07-22T12:49:10Z</time>
      </trkpt>
      <trkpt lat="43.409472" lon="-6.156704">
        <ele>53.408</ele>
        <time>1999-07-22T12:49:11Z</time>
      </trkpt>
      <trkpt lat="43.409427" lon="-6.156813">
        <ele>53.666</ele>
        <time>1999-07-22T12:49:14Z</time>
      </trkpt>
      <trkpt lat="43.409411" lon="-6.156844">
        <ele>53.621</ele>
        <time>1999-07-22T12:49:15Z</time>
      </trkpt>
      <trkpt lat="43.409346" lon="-6.156909">
        <ele>53.632</ele>
        <time>1999-07-22T12:49:18Z</time>
      </trkpt>
      <trkpt lat="43.409322" lon="-6.156908">
        <ele>53.668</ele>
        <time>1999-07-22T12:49:19Z</time>
      </trkpt>
      <trkpt lat="43.409300" lon="-6.156852">
        <ele>53.654</ele>
        <time>1999-07-22T12:49:22Z</time>
      </trkpt>
      <trkpt lat="43.409266" lon="-6.156794">
        <ele>53.641</ele>
        <time>1999-07-22T12:49:26Z</time>
      </trkpt>
      <trkpt lat="43.409249" lon="-6.156791">
        <ele>53.618</ele>
        <time>1999-07-22T12:49:28Z</time>
      </trkpt>
      <trkpt lat="43.409239" lon="-6.156781">
        <ele>53.624</ele>
        <time>1999-07-22T12:49:30Z</time>
      </trkpt>
      <trkpt lat="43.409212" lon="-6.156799">
        <ele>53.672</ele>
        <time>1999-07-22T12:49:33Z</time>
      </trkpt>
      <trkpt lat="43.409218" lon="-6.156798">
        <ele>53.613</ele>
        <time>1999-07-22T12:49:35Z</time>
      </trkpt>
      <trkpt lat="43.409219" lon="-6.156799">
        <ele>53.614</ele>
        <time>1999-07-22T12:49:36Z</time>
      </trkpt>
      <trkpt lat="43.409055" lon="-6.157075">
        <ele>53.808</ele>
        <time>1999-07-22T12:50:03Z</time>
      </trkpt>
      <trkpt lat="43.409198" lon="-6.156980">
        <ele>53.850</ele>
        <time>1999-07-22T12:50:04Z</time>
      </trkpt>
      <trkpt lat="43.409317" lon="-6.156857">
        <ele>53.885</ele>
        <time>1999-07-22T12:50:06Z</time>
      </trkpt>
      <trkpt lat="43.409341" lon="-6.156816">
        <ele>53.896</ele>
        <time>1999-07-22T12:50:07Z</time>
      </trkpt>
      <trkpt lat="43.409412" lon="-6.156590">
        <ele>53.832</ele>
        <time>1999-07-22T12:50:11Z</time>
      </trkpt>
      <trkpt lat="43.409413" lon="-6.156529">
        <ele>53.878</ele>
        <time>1999-07-22T12:50:12Z</time>
      </trkpt>
      <trkpt lat="43.409387" lon="-6.156369">
        <ele>53.845</ele>
        <time>1999-07-22T12:50:15Z</time>
      </trkpt>
      <trkpt lat="43.409338" lon="-6.156287">
        <ele>53.862</ele>
        <time>1999-07-22T12:50:17Z</time>
      </trkpt>
      <trkpt lat="43.409279" lon="-6.156203">
        <ele>53.838</ele>
        <time>1999-07-22T12:50:19Z</time>
      </trkpt>
      <trkpt lat="43.409224" lon="-6.156120">
        <ele>53.865</ele>
        <time>1999-07-22T12:50:21Z</time>
      </trkpt>
      <trkpt lat="43.409167" lon="-6.156034">
        <ele>53.868</ele>
        <time>1999-07-22T12:50:23Z</time>
      </trkpt>
      <trkpt lat="43.409103" lon="-6.155955">
        <ele>53.614</ele>
        <time>1999-07-22T12:50:25Z</time>
      </trkpt>
      <trkpt lat="43.408991" lon="-6.155851">
        <ele>53.608</ele>
        <time>1999-07-22T12:50:28Z</time>
      </trkpt>
      <trkpt lat="43.408949" lon="-6.155822">
        <ele>53.659</ele>
        <time>1999-07-22T12:50:29Z</time>
      </trkpt>
      <trkpt lat="43.408812" lon="-6.155746">
        <ele>53.674</ele>
        <time>1999-07-22T12:50:32Z</time>
      </trkpt>
      <trkpt lat="43.408674" lon="-6.155641">
        <ele>53.675</ele>
        <time>1999-07-22T12:50:35Z</time>
      </trkpt>
      <trkpt lat="43.408449" lon="-6.155441">
        <ele>53.671</ele>
        <time>1999-07-22T12:50:40Z</time>
      </trkpt>
      <trkpt lat="43.408404" lon="-6.155419">
        <ele>53.427</ele>
        <time>1999-07-22T12:50:41Z</time>
      </trkpt>
      <trkpt lat="43.408261" lon="-6.155424">
        <ele>53.464</ele>
        <time>1999-07-22T12:50:45Z</time>
      </trkpt>
      <trkpt lat="43.408225" lon="-6.155468">
        <ele>53.481</ele>
        <time>1999-07-22T12:50:47Z</time>
      </trkpt>
      <trkpt lat="43.408205" lon="-6.155524">
        <ele>53.487</ele>
        <time>1999-07-22T12:50:49Z</time>
      </trkpt>
      <trkpt lat="43.408194" lon="-6.155560">
        <ele>53.428</ele>
        <time>1999-07-22T12:50:50Z</time>
      </trkpt>
      <trkpt lat="43.408173" lon="-6.155628">
        <ele>53.489</ele>
        <time>1999-07-22T12:50:52Z</time>
      </trkpt>
      <trkpt lat="43.408151" lon="-6.155696">
        <ele>53.817</ele>
        <time>1999-07-22T12:50:54Z</time>
      </trkpt>
      <trkpt lat="43.408139" lon="-6.155732">
        <ele>54.008</ele>
        <time>1999-07-22T12:50:55Z</time>
      </trkpt>
      <trkpt lat="43.408124" lon="-6.155765">
        <ele>54.445</ele>
        <time>1999-07-22T12:50:56Z</time>
      </trkpt>
      <trkpt lat="43.408100" lon="-6.155822">
        <ele>55.220</ele>
        <time>1999-07-22T12:50:58Z</time>
      </trkpt>
      <trkpt lat="43.408088" lon="-6.155849">
        <ele>55.621</ele>
        <time>1999-07-22T12:50:59Z</time>
      </trkpt>
      <trkpt lat="43.408058" lon="-6.155911">
        <ele>56.437</ele>
        <time>1999-07-22T12:51:01Z</time>
      </trkpt>
      <trkpt lat="43.408046" lon="-6.155945">
        <ele>56.883</ele>
        <time>1999-07-22T12:51:02Z</time>
      </trkpt>
      <trkpt lat="43.408027" lon="-6.155975">
        <ele>57.220</ele>
        <time>1999-07-22T12:51:03Z</time>
      </trkpt>
      <trkpt lat="43.408004" lon="-6.156039">
        <ele>58.267</ele>
        <time>1999-07-22T12:51:05Z</time>
      </trkpt>
      <trkpt lat="43.407975" lon="-6.156136">
        <ele>59.263</ele>
        <time>1999-07-22T12:51:08Z</time>
      </trkpt>
      <trkpt lat="43.407954" lon="-6.156196">
        <ele>60.039</ele>
        <time>1999-07-22T12:51:10Z</time>
      </trkpt>
      <trkpt lat="43.407949" lon="-6.156220">
        <ele>60.601</ele>
        <time>1999-07-22T12:51:11Z</time>
      </trkpt>
      <trkpt lat="43.407943" lon="-6.156264">
        <ele>61.621</ele>
        <time>1999-07-22T12:51:13Z</time>
      </trkpt>
      <trkpt lat="43.407923" lon="-6.156307">
        <ele>62.408</ele>
        <time>1999-07-22T12:51:15Z</time>
      </trkpt>
      <trkpt lat="43.407915" lon="-6.156330">
        <ele>63.046</ele>
        <time>1999-07-22T12:51:16Z</time>
      </trkpt>
      <trkpt lat="43.407896" lon="-6.156396">
        <ele>64.221</ele>
        <time>1999-07-22T12:51:19Z</time>
      </trkpt>
      <trkpt lat="43.407877" lon="-6.156448">
        <ele>65.272</ele>
        <time>1999-07-22T12:51:22Z</time>
      </trkpt>
      <trkpt lat="43.407868" lon="-6.156468">
        <ele>65.468</ele>
        <time>1999-07-22T12:51:23Z</time>
      </trkpt>
      <trkpt lat="43.407842" lon="-6.156533">
        <ele>66.854</ele>
        <time>1999-07-22T12:51:26Z</time>
      </trkpt>
      <trkpt lat="43.407816" lon="-6.156587">
        <ele>67.881</ele>
        <time>1999-07-22T12:51:29Z</time>
      </trkpt>
      <trkpt lat="43.407805" lon="-6.156611">
        <ele>68.278</ele>
        <time>1999-07-22T12:51:30Z</time>
      </trkpt>
      <trkpt lat="43.407762" lon="-6.156684">
        <ele>69.044</ele>
        <time>1999-07-22T12:51:33Z</time>
      </trkpt>
      <trkpt lat="43.407749" lon="-6.156761">
        <ele>70.215</ele>
        <time>1999-07-22T12:51:37Z</time>
      </trkpt>
      <trkpt lat="43.407726" lon="-6.156859">
        <ele>71.465</ele>
        <time>1999-07-22T12:51:41Z</time>
      </trkpt>
      <trkpt lat="43.407722" lon="-6.156902">
        <ele>71.811</ele>
        <time>1999-07-22T12:51:43Z</time>
      </trkpt>
      <trkpt lat="43.407704" lon="-6.156968">
        <ele>72.408</ele>
        <time>1999-07-22T12:51:46Z</time>
      </trkpt>
      <trkpt lat="43.407685" lon="-6.157062">
        <ele>73.454</ele>
        <time>1999-07-22T12:51:50Z</time>
      </trkpt>
      <trkpt lat="43.407673" lon="-6.157085">
        <ele>73.679</ele>
        <time>1999-07-22T12:51:51Z</time>
      </trkpt>
      <trkpt lat="43.407612" lon="-6.157196">
        <ele>75.230</ele>
        <time>1999-07-22T12:51:56Z</time>
      </trkpt>
      <trkpt lat="43.407558" lon="-6.157298">
        <ele>76.286</ele>
        <time>1999-07-22T12:52:01Z</time>
      </trkpt>
      <trkpt lat="43.407541" lon="-6.157340">
        <ele>76.662</ele>
        <time>1999-07-22T12:52:03Z</time>
      </trkpt>
      <trkpt lat="43.407521" lon="-6.157380">
        <ele>77.029</ele>
        <time>1999-07-22T12:52:05Z</time>
      </trkpt>
      <trkpt lat="43.407461" lon="-6.157396">
        <ele>77.456</ele>
        <time>1999-07-22T12:52:08Z</time>
      </trkpt>
      <trkpt lat="43.407413" lon="-6.157322">
        <ele>78.092</ele>
        <time>1999-07-22T12:52:12Z</time>
      </trkpt>
      <trkpt lat="43.407412" lon="-6.157249">
        <ele>78.431</ele>
        <time>1999-07-22T12:52:15Z</time>
      </trkpt>
      <trkpt lat="43.407415" lon="-6.157203">
        <ele>78.861</ele>
        <time>1999-07-22T12:52:17Z</time>
      </trkpt>
      <trkpt lat="43.407422" lon="-6.157177">
        <ele>79.207</ele>
        <time>1999-07-22T12:52:18Z</time>
      </trkpt>
      <trkpt lat="43.407427" lon="-6.157130">
        <ele>79.608</ele>
        <time>1999-07-22T12:52:20Z</time>
      </trkpt>
      <trkpt lat="43.407426" lon="-6.157084">
        <ele>80.266</ele>
        <time>1999-07-22T12:52:22Z</time>
      </trkpt>
      <trkpt lat="43.407426" lon="-6.157038">
        <ele>80.681</ele>
        <time>1999-07-22T12:52:24Z</time>
      </trkpt>
      <trkpt lat="43.407397" lon="-6.156960">
        <ele>81.472</ele>
        <time>1999-07-22T12:52:28Z</time>
      </trkpt>
      <trkpt lat="43.407372" lon="-6.156928">
        <ele>81.878</ele>
        <time>1999-07-22T12:52:30Z</time>
      </trkpt>
      <trkpt lat="43.407345" lon="-6.156898">
        <ele>82.264</ele>
        <time>1999-07-22T12:52:32Z</time>
      </trkpt>
      <trkpt lat="43.407319" lon="-6.156873">
        <ele>82.641</ele>
        <time>1999-07-22T12:52:34Z</time>
      </trkpt>
      <trkpt lat="43.407305" lon="-6.156859">
        <ele>82.888</ele>
        <time>1999-07-22T12:52:35Z</time>
      </trkpt>
      <trkpt lat="43.407264" lon="-6.156829">
        <ele>83.254</ele>
        <time>1999-07-22T12:52:38Z</time>
      </trkpt>
      <trkpt lat="43.407239" lon="-6.156803">
        <ele>83.652</ele>
        <time>1999-07-22T12:52:40Z</time>
      </trkpt>
      <trkpt lat="43.407209" lon="-6.156776">
        <ele>83.853</ele>
        <time>1999-07-22T12:52:42Z</time>
      </trkpt>
      <trkpt lat="43.407116" lon="-6.156717">
        <ele>84.808</ele>
        <time>1999-07-22T12:52:48Z</time>
      </trkpt>
      <trkpt lat="43.407098" lon="-6.156711">
        <ele>85.008</ele>
        <time>1999-07-22T12:52:49Z</time>
      </trkpt>
      <trkpt lat="43.407008" lon="-6.156706">
        <ele>86.038</ele>
        <time>1999-07-22T12:52:54Z</time>
      </trkpt>
      <trkpt lat="43.406882" lon="-6.156734">
        <ele>87.063</ele>
        <time>1999-07-22T12:53:01Z</time>
      </trkpt>
      <trkpt lat="43.406766" lon="-6.156817">
        <ele>88.064</ele>
        <time>1999-07-22T12:53:08Z</time>
      </trkpt>
      <trkpt lat="43.406747" lon="-6.156829">
        <ele>88.030</ele>
        <time>1999-07-22T12:53:09Z</time>
      </trkpt>
      <trkpt lat="43.406397" lon="-6.157243">
        <ele>91.036</ele>
        <time>1999-07-22T12:53:29Z</time>
      </trkpt>
      <trkpt lat="43.406388" lon="-6.157248">
        <ele>91.253</ele>
        <time>1999-07-22T12:53:30Z</time>
      </trkpt>
      <trkpt lat="43.406274" lon="-6.157241">
        <ele>92.290</ele>
        <time>1999-07-22T12:53:34Z</time>
      </trkpt>
      <trkpt lat="43.406253" lon="-6.157245">
        <ele>92.416</ele>
        <time>1999-07-22T12:53:35Z</time>
      </trkpt>
      <trkpt lat="43.406137" lon="-6.157225">
        <ele>93.082</ele>
        <time>1999-07-22T12:53:40Z</time>
      </trkpt>
      <trkpt lat="43.406092" lon="-6.157208">
        <ele>93.643</ele>
        <time>1999-07-22T12:53:42Z</time>
      </trkpt>
      <trkpt lat="43.405979" lon="-6.157138">
        <ele>94.617</ele>
        <time>1999-07-22T12:53:48Z</time>
      </trkpt>
      <trkpt lat="43.405961" lon="-6.157125">
        <ele>94.808</ele>
        <time>1999-07-22T12:53:49Z</time>
      </trkpt>
      <trkpt lat="43.405847" lon="-6.157046">
        <ele>95.831</ele>
        <time>1999-07-22T12:53:55Z</time>
      </trkpt>
      <trkpt lat="43.405807" lon="-6.157011">
        <ele>96.046</ele>
        <time>1999-07-22T12:53:57Z</time>
      </trkpt>
      <trkpt lat="43.405721" lon="-6.156887">
        <ele>96.817</ele>
        <time>1999-07-22T12:54:02Z</time>
      </trkpt>
      <trkpt lat="43.405702" lon="-6.156867">
        <ele>97.023</ele>
        <time>1999-07-22T12:54:03Z</time>
      </trkpt>
      <trkpt lat="43.405619" lon="-6.156841">
        <ele>97.829</ele>
        <time>1999-07-22T12:54:08Z</time>
      </trkpt>
      <trkpt lat="43.405486" lon="-6.156823">
        <ele>98.466</ele>
        <time>1999-07-22T12:54:13Z</time>
      </trkpt>
      <trkpt lat="43.405325" lon="-6.156837">
        <ele>98.483</ele>
        <time>1999-07-22T12:54:17Z</time>
      </trkpt>
      <trkpt lat="43.405233" lon="-6.156834">
        <ele>98.679</ele>
        <time>1999-07-22T12:54:19Z</time>
      </trkpt>
      <trkpt lat="43.404968" lon="-6.156854">
        <ele>98.824</ele>
        <time>1999-07-22T12:54:24Z</time>
      </trkpt>
      <trkpt lat="43.404913" lon="-6.156876">
        <ele>98.804</ele>
        <time>1999-07-22T12:54:25Z</time>
      </trkpt>
      <trkpt lat="43.404739" lon="-6.157067">
        <ele>98.814</ele>
        <time>1999-07-22T12:54:29Z</time>
      </trkpt>
      <trkpt lat="43.404661" lon="-6.157189">
        <ele>99.008</ele>
        <time>1999-07-22T12:54:31Z</time>
      </trkpt>
      <trkpt lat="43.404600" lon="-6.157408">
        <ele>99.025</ele>
        <time>1999-07-22T12:54:34Z</time>
      </trkpt>
      <trkpt lat="43.404532" lon="-6.157762">
        <ele>99.090</ele>
        <time>1999-07-22T12:54:39Z</time>
      </trkpt>
      <trkpt lat="43.404511" lon="-6.157899">
        <ele>99.091</ele>
        <time>1999-07-22T12:54:41Z</time>
      </trkpt>
      <trkpt lat="43.404510" lon="-6.158112">
        <ele>99.017</ele>
        <time>1999-07-22T12:54:44Z</time>
      </trkpt>
      <trkpt lat="43.404496" lon="-6.158241">
        <ele>99.283</ele>
        <time>1999-07-22T12:54:46Z</time>
      </trkpt>
      <trkpt lat="43.404441" lon="-6.158501">
        <ele>99.230</ele>
        <time>1999-07-22T12:54:50Z</time>
      </trkpt>
      <trkpt lat="43.404412" lon="-6.158626">
        <ele>99.417</ele>
        <time>1999-07-22T12:54:52Z</time>
      </trkpt>
      <trkpt lat="43.404395" lon="-6.158684">
        <ele>99.453</ele>
        <time>1999-07-22T12:54:53Z</time>
      </trkpt>
      <trkpt lat="43.404293" lon="-6.159064">
        <ele>100.299</ele>
        <time>1999-07-22T12:55:00Z</time>
      </trkpt>
      <trkpt lat="43.404286" lon="-6.159115">
        <ele>100.407</ele>
        <time>1999-07-22T12:55:01Z</time>
      </trkpt>
      <trkpt lat="43.404279" lon="-6.159278">
        <ele>100.627</ele>
        <time>1999-07-22T12:55:04Z</time>
      </trkpt>
      <trkpt lat="43.404281" lon="-6.159330">
        <ele>100.608</ele>
        <time>1999-07-22T12:55:05Z</time>
      </trkpt>
      <trkpt lat="43.404309" lon="-6.159628">
        <ele>101.622</ele>
        <time>1999-07-22T12:55:11Z</time>
      </trkpt>
      <trkpt lat="43.404324" lon="-6.159722">
        <ele>102.087</ele>
        <time>1999-07-22T12:55:13Z</time>
      </trkpt>
      <trkpt lat="43.404347" lon="-6.159911">
        <ele>102.848</ele>
        <time>1999-07-22T12:55:17Z</time>
      </trkpt>
      <trkpt lat="43.404366" lon="-6.160102">
        <ele>103.484</ele>
        <time>1999-07-22T12:55:21Z</time>
      </trkpt>
      <trkpt lat="43.404374" lon="-6.160147">
        <ele>103.880</ele>
        <time>1999-07-22T12:55:22Z</time>
      </trkpt>
      <trkpt lat="43.404399" lon="-6.160372">
        <ele>104.837</ele>
        <time>1999-07-22T12:55:27Z</time>
      </trkpt>
      <trkpt lat="43.404419" lon="-6.160507">
        <ele>105.864</ele>
        <time>1999-07-22T12:55:30Z</time>
      </trkpt>
      <trkpt lat="43.404438" lon="-6.160585">
        <ele>106.040</ele>
        <time>1999-07-22T12:55:32Z</time>
      </trkpt>
      <trkpt lat="43.404463" lon="-6.160708">
        <ele>106.897</ele>
        <time>1999-07-22T12:55:35Z</time>
      </trkpt>
      <trkpt lat="43.404473" lon="-6.160750">
        <ele>107.223</ele>
        <time>1999-07-22T12:55:36Z</time>
      </trkpt>
      <trkpt lat="43.404492" lon="-6.160833">
        <ele>107.825</ele>
        <time>1999-07-22T12:55:38Z</time>
      </trkpt>
      <trkpt lat="43.404510" lon="-6.160917">
        <ele>108.408</ele>
        <time>1999-07-22T12:55:40Z</time>
      </trkpt>
      <trkpt lat="43.404544" lon="-6.161086">
        <ele>109.412</ele>
        <time>1999-07-22T12:55:44Z</time>
      </trkpt>
      <trkpt lat="43.404556" lon="-6.161127">
        <ele>109.677</ele>
        <time>1999-07-22T12:55:45Z</time>
      </trkpt>
      <trkpt lat="43.404601" lon="-6.161291">
        <ele>110.698</ele>
        <time>1999-07-22T12:55:49Z</time>
      </trkpt>
      <trkpt lat="43.404643" lon="-6.161420">
        <ele>111.654</ele>
        <time>1999-07-22T12:55:52Z</time>
      </trkpt>
      <trkpt lat="43.404658" lon="-6.161466">
        <ele>112.070</ele>
        <time>1999-07-22T12:55:53Z</time>
      </trkpt>
      <trkpt lat="43.404722" lon="-6.161638">
        <ele>112.677</ele>
        <time>1999-07-22T12:55:57Z</time>
      </trkpt>
      <trkpt lat="43.404761" lon="-6.161713">
        <ele>113.044</ele>
        <time>1999-07-22T12:55:59Z</time>
      </trkpt>
      <trkpt lat="43.404805" lon="-6.161888">
        <ele>113.670</ele>
        <time>1999-07-22T12:56:03Z</time>
      </trkpt>
      <trkpt lat="43.404817" lon="-6.161985">
        <ele>113.857</ele>
        <time>1999-07-22T12:56:05Z</time>
      </trkpt>
      <trkpt lat="43.404777" lon="-6.162269">
        <ele>114.600</ele>
        <time>1999-07-22T12:56:10Z</time>
      </trkpt>
      <trkpt lat="43.404764" lon="-6.162382">
        <ele>114.820</ele>
        <time>1999-07-22T12:56:12Z</time>
      </trkpt>
      <trkpt lat="43.404775" lon="-6.162667">
        <ele>115.208</ele>
        <time>1999-07-22T12:56:17Z</time>
      </trkpt>
      <trkpt lat="43.404788" lon="-6.162788">
        <ele>115.648</ele>
        <time>1999-07-22T12:56:19Z</time>
      </trkpt>
      <trkpt lat="43.404808" lon="-6.162912">
        <ele>116.433</ele>
        <time>1999-07-22T12:56:21Z</time>
      </trkpt>
      <trkpt lat="43.404856" lon="-6.163096">
        <ele>116.884</ele>
        <time>1999-07-22T12:56:24Z</time>
      </trkpt>
      <trkpt lat="43.404888" lon="-6.163214">
        <ele>116.850</ele>
        <time>1999-07-22T12:56:26Z</time>
      </trkpt>
      <trkpt lat="43.404967" lon="-6.163555">
        <ele>117.056</ele>
        <time>1999-07-22T12:56:32Z</time>
      </trkpt>
      <trkpt lat="43.405028" lon="-6.163912">
        <ele>117.863</ele>
        <time>1999-07-22T12:56:39Z</time>
      </trkpt>
      <trkpt lat="43.405034" lon="-6.163961">
        <ele>117.880</ele>
        <time>1999-07-22T12:56:40Z</time>
      </trkpt>
      <trkpt lat="43.405054" lon="-6.164187">
        <ele>119.036</ele>
        <time>1999-07-22T12:56:45Z</time>
      </trkpt>
      <trkpt lat="43.405061" lon="-6.164228">
        <ele>119.269</ele>
        <time>1999-07-22T12:56:46Z</time>
      </trkpt>
      <trkpt lat="43.405085" lon="-6.164341">
        <ele>120.404</ele>
        <time>1999-07-22T12:56:49Z</time>
      </trkpt>
      <trkpt lat="43.405122" lon="-6.164485">
        <ele>121.424</ele>
        <time>1999-07-22T12:56:53Z</time>
      </trkpt>
      <trkpt lat="43.405125" lon="-6.164528">
        <ele>121.808</ele>
        <time>1999-07-22T12:56:54Z</time>
      </trkpt>
      <trkpt lat="43.405146" lon="-6.164632">
        <ele>122.629</ele>
        <time>1999-07-22T12:56:57Z</time>
      </trkpt>
      <trkpt lat="43.405163" lon="-6.164692">
        <ele>123.214</ele>
        <time>1999-07-22T12:56:59Z</time>
      </trkpt>
      <trkpt lat="43.405176" lon="-6.164739">
        <ele>124.035</ele>
        <time>1999-07-22T12:57:01Z</time>
      </trkpt>
      <trkpt lat="43.405184" lon="-6.164822">
        <ele>125.241</ele>
        <time>1999-07-22T12:57:05Z</time>
      </trkpt>
      <trkpt lat="43.405230" lon="-6.164914">
        <ele>126.257</ele>
        <time>1999-07-22T12:57:09Z</time>
      </trkpt>
      <trkpt lat="43.405246" lon="-6.164966">
        <ele>126.844</ele>
        <time>1999-07-22T12:57:11Z</time>
      </trkpt>
      <trkpt lat="43.405269" lon="-6.165046">
        <ele>127.421</ele>
        <time>1999-07-22T12:57:14Z</time>
      </trkpt>
      <trkpt lat="43.405277" lon="-6.165132">
        <ele>128.047</ele>
        <time>1999-07-22T12:57:17Z</time>
      </trkpt>
      <trkpt lat="43.405281" lon="-6.165185">
        <ele>128.635</ele>
        <time>1999-07-22T12:57:19Z</time>
      </trkpt>
      <trkpt lat="43.405301" lon="-6.165290">
        <ele>129.886</ele>
        <time>1999-07-22T12:57:23Z</time>
      </trkpt>
      <trkpt lat="43.405310" lon="-6.165399">
        <ele>130.814</ele>
        <time>1999-07-22T12:57:27Z</time>
      </trkpt>
      <trkpt lat="43.405304" lon="-6.165459">
        <ele>131.408</ele>
        <time>1999-07-22T12:57:29Z</time>
      </trkpt>
      <trkpt lat="43.405289" lon="-6.165512">
        <ele>132.076</ele>
        <time>1999-07-22T12:57:31Z</time>
      </trkpt>
      <trkpt lat="43.405239" lon="-6.165606">
        <ele>133.031</ele>
        <time>1999-07-22T12:57:35Z</time>
      </trkpt>
      <trkpt lat="43.405192" lon="-6.165689">
        <ele>134.052</ele>
        <time>1999-07-22T12:57:39Z</time>
      </trkpt>
      <trkpt lat="43.405135" lon="-6.165726">
        <ele>134.638</ele>
        <time>1999-07-22T12:57:42Z</time>
      </trkpt>
      <trkpt lat="43.405101" lon="-6.165761">
        <ele>135.244</ele>
        <time>1999-07-22T12:57:44Z</time>
      </trkpt>
      <trkpt lat="43.405083" lon="-6.165826">
        <ele>135.651</ele>
        <time>1999-07-22T12:57:46Z</time>
      </trkpt>
      <trkpt lat="43.405080" lon="-6.165888">
        <ele>136.268</ele>
        <time>1999-07-22T12:57:48Z</time>
      </trkpt>
      <trkpt lat="43.405078" lon="-6.165916">
        <ele>136.434</ele>
        <time>1999-07-22T12:57:49Z</time>
      </trkpt>
      <trkpt lat="43.405072" lon="-6.165993">
        <ele>137.016</ele>
        <time>1999-07-22T12:57:52Z</time>
      </trkpt>
      <trkpt lat="43.405064" lon="-6.166127">
        <ele>137.876</ele>
        <time>1999-07-22T12:57:58Z</time>
      </trkpt>
      <trkpt lat="43.405069" lon="-6.166190">
        <ele>138.413</ele>
        <time>1999-07-22T12:58:01Z</time>
      </trkpt>
      <trkpt lat="43.405073" lon="-6.166210">
        <ele>138.608</ele>
        <time>1999-07-22T12:58:02Z</time>
      </trkpt>
      <trkpt lat="43.405100" lon="-6.166268">
        <ele>139.224</ele>
        <time>1999-07-22T12:58:05Z</time>
      </trkpt>
      <trkpt lat="43.405120" lon="-6.166301">
        <ele>139.429</ele>
        <time>1999-07-22T12:58:07Z</time>
      </trkpt>
      <trkpt lat="43.405131" lon="-6.166316">
        <ele>139.660</ele>
        <time>1999-07-22T12:58:08Z</time>
      </trkpt>
      <trkpt lat="43.405158" lon="-6.166341">
        <ele>140.036</ele>
        <time>1999-07-22T12:58:10Z</time>
      </trkpt>
      <trkpt lat="43.405201" lon="-6.166380">
        <ele>140.652</ele>
        <time>1999-07-22T12:58:13Z</time>
      </trkpt>
      <trkpt lat="43.405217" lon="-6.166390">
        <ele>141.059</ele>
        <time>1999-07-22T12:58:14Z</time>
      </trkpt>
      <trkpt lat="43.405269" lon="-6.166421">
        <ele>142.286</ele>
        <time>1999-07-22T12:58:17Z</time>
      </trkpt>
      <trkpt lat="43.405373" lon="-6.166467">
        <ele>143.282</ele>
        <time>1999-07-22T12:58:22Z</time>
      </trkpt>
      <trkpt lat="43.405494" lon="-6.166518">
        <ele>144.441</ele>
        <time>1999-07-22T12:58:28Z</time>
      </trkpt>
      <trkpt lat="43.405618" lon="-6.166587">
        <ele>145.081</ele>
        <time>1999-07-22T12:58:34Z</time>
      </trkpt>
      <trkpt lat="43.405661" lon="-6.166617">
        <ele>145.209</ele>
        <time>1999-07-22T12:58:36Z</time>
      </trkpt>
      <trkpt lat="43.405702" lon="-6.166640">
        <ele>145.408</ele>
        <time>1999-07-22T12:58:38Z</time>
      </trkpt>
      <trkpt lat="43.405772" lon="-6.166670">
        <ele>145.837</ele>
        <time>1999-07-22T12:58:41Z</time>
      </trkpt>
      <trkpt lat="43.405819" lon="-6.166685">
        <ele>146.022</ele>
        <time>1999-07-22T12:58:43Z</time>
      </trkpt>
      <trkpt lat="43.405884" lon="-6.166706">
        <ele>146.013</ele>
        <time>1999-07-22T12:58:46Z</time>
      </trkpt>
      <trkpt lat="43.405901" lon="-6.166720">
        <ele>146.249</ele>
        <time>1999-07-22T12:58:47Z</time>
      </trkpt>
      <trkpt lat="43.406003" lon="-6.166817">
        <ele>146.495</ele>
        <time>1999-07-22T12:58:54Z</time>
      </trkpt>
      <trkpt lat="43.406018" lon="-6.166833">
        <ele>146.452</ele>
        <time>1999-07-22T12:58:56Z</time>
      </trkpt>
      <trkpt lat="43.406034" lon="-6.166864">
        <ele>146.439</ele>
        <time>1999-07-22T12:58:58Z</time>
      </trkpt>
      <trkpt lat="43.406073" lon="-6.166900">
        <ele>147.045</ele>
        <time>1999-07-22T12:59:01Z</time>
      </trkpt>
      <trkpt lat="43.406105" lon="-6.166931">
        <ele>147.479</ele>
        <time>1999-07-22T12:59:03Z</time>
      </trkpt>
      <trkpt lat="43.406122" lon="-6.166951">
        <ele>147.605</ele>
        <time>1999-07-22T12:59:04Z</time>
      </trkpt>
      <trkpt lat="43.406180" lon="-6.166975">
        <ele>148.825</ele>
        <time>1999-07-22T12:59:08Z</time>
      </trkpt>
      <trkpt lat="43.406239" lon="-6.167029">
        <ele>150.008</ele>
        <time>1999-07-22T12:59:11Z</time>
      </trkpt>
      <trkpt lat="43.406298" lon="-6.167081">
        <ele>150.650</ele>
        <time>1999-07-22T12:59:14Z</time>
      </trkpt>
      <trkpt lat="43.406327" lon="-6.167126">
        <ele>151.215</ele>
        <time>1999-07-22T12:59:16Z</time>
      </trkpt>
      <trkpt lat="43.406375" lon="-6.167212">
        <ele>152.056</ele>
        <time>1999-07-22T12:59:20Z</time>
      </trkpt>
      <trkpt lat="43.406407" lon="-6.167260">
        <ele>152.232</ele>
        <time>1999-07-22T12:59:22Z</time>
      </trkpt>
      <trkpt lat="43.406463" lon="-6.167344">
        <ele>152.678</ele>
        <time>1999-07-22T12:59:26Z</time>
      </trkpt>
      <trkpt lat="43.406537" lon="-6.167412">
        <ele>153.255</ele>
        <time>1999-07-22T12:59:31Z</time>
      </trkpt>
      <trkpt lat="43.406557" lon="-6.167425">
        <ele>153.422</ele>
        <time>1999-07-22T12:59:32Z</time>
      </trkpt>
      <trkpt lat="43.406631" lon="-6.167474">
        <ele>154.428</ele>
        <time>1999-07-22T12:59:36Z</time>
      </trkpt>
      <trkpt lat="43.406647" lon="-6.167480">
        <ele>154.675</ele>
        <time>1999-07-22T12:59:37Z</time>
      </trkpt>
      <trkpt lat="43.406685" lon="-6.167509">
        <ele>155.028</ele>
        <time>1999-07-22T12:59:39Z</time>
      </trkpt>
      <trkpt lat="43.406726" lon="-6.167575">
        <ele>155.420</ele>
        <time>1999-07-22T12:59:42Z</time>
      </trkpt>
      <trkpt lat="43.406753" lon="-6.167628">
        <ele>155.608</ele>
        <time>1999-07-22T12:59:45Z</time>
      </trkpt>
      <trkpt lat="43.406770" lon="-6.167650">
        <ele>155.820</ele>
        <time>1999-07-22T12:59:46Z</time>
      </trkpt>
      <trkpt lat="43.406810" lon="-6.167696">
        <ele>156.435</ele>
        <time>1999-07-22T12:59:49Z</time>
      </trkpt>
      <trkpt lat="43.406836" lon="-6.167718">
        <ele>156.816</ele>
        <time>1999-07-22T12:59:51Z</time>
      </trkpt>
      <trkpt lat="43.406918" lon="-6.167775">
        <ele>158.232</ele>
        <time>1999-07-22T12:59:56Z</time>
      </trkpt>
      <trkpt lat="43.406948" lon="-6.167787">
        <ele>158.878</ele>
        <time>1999-07-22T12:59:58Z</time>
      </trkpt>
      <trkpt lat="43.406967" lon="-6.167792">
        <ele>159.215</ele>
        <time>1999-07-22T12:59:59Z</time>
      </trkpt>
      <trkpt lat="43.407019" lon="-6.167821">
        <ele>160.052</ele>
        <time>1999-07-22T13:00:02Z</time>
      </trkpt>
      <trkpt lat="43.407033" lon="-6.167834">
        <ele>160.278</ele>
        <time>1999-07-22T13:00:03Z</time>
      </trkpt>
      <trkpt lat="43.407127" lon="-6.167899">
        <ele>161.271</ele>
        <time>1999-07-22T13:00:08Z</time>
      </trkpt>
      <trkpt lat="43.407171" lon="-6.167961">
        <ele>161.841</ele>
        <time>1999-07-22T13:00:11Z</time>
      </trkpt>
      <trkpt lat="43.407230" lon="-6.168002">
        <ele>162.415</ele>
        <time>1999-07-22T13:00:15Z</time>
      </trkpt>
      <trkpt lat="43.407264" lon="-6.168016">
        <ele>162.808</ele>
        <time>1999-07-22T13:00:17Z</time>
      </trkpt>
      <trkpt lat="43.407303" lon="-6.168039">
        <ele>163.690</ele>
        <time>1999-07-22T13:00:20Z</time>
      </trkpt>
      <trkpt lat="43.407343" lon="-6.168074">
        <ele>164.215</ele>
        <time>1999-07-22T13:00:23Z</time>
      </trkpt>
      <trkpt lat="43.407358" lon="-6.168084">
        <ele>164.456</ele>
        <time>1999-07-22T13:00:24Z</time>
      </trkpt>
      <trkpt lat="43.407372" lon="-6.168092">
        <ele>164.852</ele>
        <time>1999-07-22T13:00:25Z</time>
      </trkpt>
      <trkpt lat="43.407407" lon="-6.168097">
        <ele>165.428</ele>
        <time>1999-07-22T13:00:27Z</time>
      </trkpt>
      <trkpt lat="43.407450" lon="-6.168109">
        <ele>166.025</ele>
        <time>1999-07-22T13:00:29Z</time>
      </trkpt>
      <trkpt lat="43.407492" lon="-6.168115">
        <ele>166.642</ele>
        <time>1999-07-22T13:00:31Z</time>
      </trkpt>
      <trkpt lat="43.407527" lon="-6.168117">
        <ele>167.428</ele>
        <time>1999-07-22T13:00:33Z</time>
      </trkpt>
      <trkpt lat="43.407587" lon="-6.168142">
        <ele>168.437</ele>
        <time>1999-07-22T13:00:36Z</time>
      </trkpt>
      <trkpt lat="43.407608" lon="-6.168153">
        <ele>168.649</ele>
        <time>1999-07-22T13:00:37Z</time>
      </trkpt>
      <trkpt lat="43.407648" lon="-6.168180">
        <ele>169.613</ele>
        <time>1999-07-22T13:00:39Z</time>
      </trkpt>
      <trkpt lat="43.407732" lon="-6.168254">
        <ele>170.608</ele>
        <time>1999-07-22T13:00:44Z</time>
      </trkpt>
      <trkpt lat="43.407822" lon="-6.168340">
        <ele>171.876</ele>
        <time>1999-07-22T13:00:51Z</time>
      </trkpt>
      <trkpt lat="43.407830" lon="-6.168351">
        <ele>172.041</ele>
        <time>1999-07-22T13:00:52Z</time>
      </trkpt>
      <trkpt lat="43.407879" lon="-6.168389">
        <ele>173.082</ele>
        <time>1999-07-22T13:00:56Z</time>
      </trkpt>
      <trkpt lat="43.407952" lon="-6.168429">
        <ele>174.238</ele>
        <time>1999-07-22T13:01:00Z</time>
      </trkpt>
      <trkpt lat="43.408026" lon="-6.168471">
        <ele>174.614</ele>
        <time>1999-07-22T13:01:04Z</time>
      </trkpt>
      <trkpt lat="43.408048" lon="-6.168494">
        <ele>174.641</ele>
        <time>1999-07-22T13:01:06Z</time>
      </trkpt>
      <trkpt lat="43.408120" lon="-6.168551">
        <ele>174.848</ele>
        <time>1999-07-22T13:01:11Z</time>
      </trkpt>
      <trkpt lat="43.408131" lon="-6.168563">
        <ele>175.034</ele>
        <time>1999-07-22T13:01:12Z</time>
      </trkpt>
      <trkpt lat="43.408143" lon="-6.168577">
        <ele>175.228</ele>
        <time>1999-07-22T13:01:13Z</time>
      </trkpt>
      <trkpt lat="43.408194" lon="-6.168631">
        <ele>176.489</ele>
        <time>1999-07-22T13:01:17Z</time>
      </trkpt>
      <trkpt lat="43.408230" lon="-6.168671">
        <ele>176.817</ele>
        <time>1999-07-22T13:01:20Z</time>
      </trkpt>
      <trkpt lat="43.408273" lon="-6.168747">
        <ele>177.608</ele>
        <time>1999-07-22T13:01:24Z</time>
      </trkpt>
      <trkpt lat="43.408298" lon="-6.168793">
        <ele>178.025</ele>
        <time>1999-07-22T13:01:26Z</time>
      </trkpt>
      <trkpt lat="43.408323" lon="-6.168859">
        <ele>178.290</ele>
        <time>1999-07-22T13:01:28Z</time>
      </trkpt>
      <trkpt lat="43.408341" lon="-6.168956">
        <ele>178.221</ele>
        <time>1999-07-22T13:01:30Z</time>
      </trkpt>
      <trkpt lat="43.408361" lon="-6.169014">
        <ele>178.247</ele>
        <time>1999-07-22T13:01:31Z</time>
      </trkpt>
      <trkpt lat="43.408402" lon="-6.169212">
        <ele>178.233</ele>
        <time>1999-07-22T13:01:34Z</time>
      </trkpt>
      <trkpt lat="43.408418" lon="-6.169310">
        <ele>178.050</ele>
        <time>1999-07-22T13:01:36Z</time>
      </trkpt>
      <trkpt lat="43.408439" lon="-6.169404">
        <ele>177.857</ele>
        <time>1999-07-22T13:01:38Z</time>
      </trkpt>
      <trkpt lat="43.408468" lon="-6.169484">
        <ele>176.633</ele>
        <time>1999-07-22T13:01:40Z</time>
      </trkpt>
      <trkpt lat="43.408477" lon="-6.169524">
        <ele>176.458</ele>
        <time>1999-07-22T13:01:41Z</time>
      </trkpt>
      <trkpt lat="43.408490" lon="-6.169611">
        <ele>175.652</ele>
        <time>1999-07-22T13:01:43Z</time>
      </trkpt>
      <trkpt lat="43.408498" lon="-6.169658">
        <ele>175.017</ele>
        <time>1999-07-22T13:01:44Z</time>
      </trkpt>
      <trkpt lat="43.408507" lon="-6.169749">
        <ele>174.408</ele>
        <time>1999-07-22T13:01:46Z</time>
      </trkpt>
      <trkpt lat="43.408509" lon="-6.169792">
        <ele>173.898</ele>
        <time>1999-07-22T13:01:47Z</time>
      </trkpt>
      <trkpt lat="43.408512" lon="-6.169835">
        <ele>173.073</ele>
        <time>1999-07-22T13:01:48Z</time>
      </trkpt>
      <trkpt lat="43.408513" lon="-6.169889">
        <ele>172.234</ele>
        <time>1999-07-22T13:01:49Z</time>
      </trkpt>
      <trkpt lat="43.408508" lon="-6.170002">
        <ele>170.640</ele>
        <time>1999-07-22T13:01:51Z</time>
      </trkpt>
      <trkpt lat="43.408495" lon="-6.170127">
        <ele>169.086</ele>
        <time>1999-07-22T13:01:53Z</time>
      </trkpt>
      <trkpt lat="43.408470" lon="-6.170202">
        <ele>168.053</ele>
        <time>1999-07-22T13:01:54Z</time>
      </trkpt>
      <trkpt lat="43.408450" lon="-6.170287">
        <ele>167.450</ele>
        <time>1999-07-22T13:01:55Z</time>
      </trkpt>
      <trkpt lat="43.408398" lon="-6.170470">
        <ele>165.856</ele>
        <time>1999-07-22T13:01:57Z</time>
      </trkpt>
      <trkpt lat="43.408360" lon="-6.170562">
        <ele>164.649</ele>
        <time>1999-07-22T13:01:58Z</time>
      </trkpt>
      <trkpt lat="43.408329" lon="-6.170651">
        <ele>163.602</ele>
        <time>1999-07-22T13:01:59Z</time>
      </trkpt>
      <trkpt lat="43.408293" lon="-6.170738">
        <ele>162.622</ele>
        <time>1999-07-22T13:02:00Z</time>
      </trkpt>
      <trkpt lat="43.408248" lon="-6.170825">
        <ele>162.008</ele>
        <time>1999-07-22T13:02:01Z</time>
      </trkpt>
      <trkpt lat="43.408174" lon="-6.171013">
        <ele>160.467</ele>
        <time>1999-07-22T13:02:03Z</time>
      </trkpt>
      <trkpt lat="43.408141" lon="-6.171101">
        <ele>159.672</ele>
        <time>1999-07-22T13:02:04Z</time>
      </trkpt>
      <trkpt lat="43.408105" lon="-6.171191">
        <ele>158.893</ele>
        <time>1999-07-22T13:02:05Z</time>
      </trkpt>
      <trkpt lat="43.408026" lon="-6.171366">
        <ele>157.619</ele>
        <time>1999-07-22T13:02:07Z</time>
      </trkpt>
      <trkpt lat="43.407944" lon="-6.171532">
        <ele>156.465</ele>
        <time>1999-07-22T13:02:09Z</time>
      </trkpt>
      <trkpt lat="43.407910" lon="-6.171607">
        <ele>155.682</ele>
        <time>1999-07-22T13:02:10Z</time>
      </trkpt>
      <trkpt lat="43.407883" lon="-6.171667">
        <ele>155.059</ele>
        <time>1999-07-22T13:02:11Z</time>
      </trkpt>
      <trkpt lat="43.407833" lon="-6.171771">
        <ele>153.645</ele>
        <time>1999-07-22T13:02:13Z</time>
      </trkpt>
      <trkpt lat="43.407823" lon="-6.171806">
        <ele>153.276</ele>
        <time>1999-07-22T13:02:14Z</time>
      </trkpt>
      <trkpt lat="43.407797" lon="-6.171869">
        <ele>152.290</ele>
        <time>1999-07-22T13:02:16Z</time>
      </trkpt>
      <trkpt lat="43.407769" lon="-6.171922">
        <ele>150.819</ele>
        <time>1999-07-22T13:02:18Z</time>
      </trkpt>
      <trkpt lat="43.407752" lon="-6.171958">
        <ele>150.408</ele>
        <time>1999-07-22T13:02:19Z</time>
      </trkpt>
      <trkpt lat="43.407736" lon="-6.171988">
        <ele>149.850</ele>
        <time>1999-07-22T13:02:20Z</time>
      </trkpt>
      <trkpt lat="43.407675" lon="-6.172057">
        <ele>148.215</ele>
        <time>1999-07-22T13:02:22Z</time>
      </trkpt>
      <trkpt lat="43.407643" lon="-6.172094">
        <ele>147.866</ele>
        <time>1999-07-22T13:02:23Z</time>
      </trkpt>
      <trkpt lat="43.407611" lon="-6.172128">
        <ele>147.252</ele>
        <time>1999-07-22T13:02:24Z</time>
      </trkpt>
      <trkpt lat="43.407574" lon="-6.172181">
        <ele>146.278</ele>
        <time>1999-07-22T13:02:26Z</time>
      </trkpt>
      <trkpt lat="43.407560" lon="-6.172197">
        <ele>145.885</ele>
        <time>1999-07-22T13:02:27Z</time>
      </trkpt>
      <trkpt lat="43.407527" lon="-6.172227">
        <ele>145.242</ele>
        <time>1999-07-22T13:02:29Z</time>
      </trkpt>
      <trkpt lat="43.407450" lon="-6.172306">
        <ele>144.078</ele>
        <time>1999-07-22T13:02:32Z</time>
      </trkpt>
      <trkpt lat="43.407371" lon="-6.172394">
        <ele>143.096</ele>
        <time>1999-07-22T13:02:34Z</time>
      </trkpt>
      <trkpt lat="43.407254" lon="-6.172512">
        <ele>141.431</ele>
        <time>1999-07-22T13:02:37Z</time>
      </trkpt>
      <trkpt lat="43.407137" lon="-6.172643">
        <ele>140.224</ele>
        <time>1999-07-22T13:02:40Z</time>
      </trkpt>
      <trkpt lat="43.407093" lon="-6.172695">
        <ele>139.808</ele>
        <time>1999-07-22T13:02:41Z</time>
      </trkpt>
      <trkpt lat="43.407051" lon="-6.172743">
        <ele>138.882</ele>
        <time>1999-07-22T13:02:42Z</time>
      </trkpt>
      <trkpt lat="43.406952" lon="-6.172872">
        <ele>137.667</ele>
        <time>1999-07-22T13:02:44Z</time>
      </trkpt>
      <trkpt lat="43.406873" lon="-6.172993">
        <ele>136.098</ele>
        <time>1999-07-22T13:02:46Z</time>
      </trkpt>
      <trkpt lat="43.406832" lon="-6.173057">
        <ele>135.214</ele>
        <time>1999-07-22T13:02:47Z</time>
      </trkpt>
      <trkpt lat="43.406794" lon="-6.173112">
        <ele>134.670</ele>
        <time>1999-07-22T13:02:48Z</time>
      </trkpt>
      <trkpt lat="43.406713" lon="-6.173206">
        <ele>133.647</ele>
        <time>1999-07-22T13:02:50Z</time>
      </trkpt>
      <trkpt lat="43.406620" lon="-6.173300">
        <ele>133.294</ele>
        <time>1999-07-22T13:02:52Z</time>
      </trkpt>
      <trkpt lat="43.406532" lon="-6.173383">
        <ele>132.460</ele>
        <time>1999-07-22T13:02:54Z</time>
      </trkpt>
      <trkpt lat="43.406474" lon="-6.173459">
        <ele>131.894</ele>
        <time>1999-07-22T13:02:56Z</time>
      </trkpt>
      <trkpt lat="43.406456" lon="-6.173502">
        <ele>131.057</ele>
        <time>1999-07-22T13:02:57Z</time>
      </trkpt>
      <trkpt lat="43.406449" lon="-6.173552">
        <ele>130.422</ele>
        <time>1999-07-22T13:02:58Z</time>
      </trkpt>
      <trkpt lat="43.406446" lon="-6.173678">
        <ele>129.808</ele>
        <time>1999-07-22T13:03:00Z</time>
      </trkpt>
      <trkpt lat="43.406436" lon="-6.173748">
        <ele>129.672</ele>
        <time>1999-07-22T13:03:01Z</time>
      </trkpt>
      <trkpt lat="43.406413" lon="-6.173869">
        <ele>128.617</ele>
        <time>1999-07-22T13:03:03Z</time>
      </trkpt>
      <trkpt lat="43.406384" lon="-6.173981">
        <ele>127.498</ele>
        <time>1999-07-22T13:03:05Z</time>
      </trkpt>
      <trkpt lat="43.406355" lon="-6.174087">
        <ele>126.264</ele>
        <time>1999-07-22T13:03:07Z</time>
      </trkpt>
      <trkpt lat="43.406288" lon="-6.174214">
        <ele>125.460</ele>
        <time>1999-07-22T13:03:09Z</time>
      </trkpt>
      <trkpt lat="43.406255" lon="-6.174284">
        <ele>125.097</ele>
        <time>1999-07-22T13:03:10Z</time>
      </trkpt>
      <trkpt lat="43.406235" lon="-6.174345">
        <ele>124.824</ele>
        <time>1999-07-22T13:03:11Z</time>
      </trkpt>
      <trkpt lat="43.406220" lon="-6.174417">
        <ele>123.290</ele>
        <time>1999-07-22T13:03:12Z</time>
      </trkpt>
      <trkpt lat="43.406190" lon="-6.174553">
        <ele>121.693</ele>
        <time>1999-07-22T13:03:14Z</time>
      </trkpt>
      <trkpt lat="43.406159" lon="-6.174671">
        <ele>120.465</ele>
        <time>1999-07-22T13:03:16Z</time>
      </trkpt>
      <trkpt lat="43.406137" lon="-6.174737">
        <ele>119.621</ele>
        <time>1999-07-22T13:03:17Z</time>
      </trkpt>
      <trkpt lat="43.406117" lon="-6.174806">
        <ele>119.008</ele>
        <time>1999-07-22T13:03:18Z</time>
      </trkpt>
      <trkpt lat="43.406112" lon="-6.174876">
        <ele>118.442</ele>
        <time>1999-07-22T13:03:19Z</time>
      </trkpt>
      <trkpt lat="43.406103" lon="-6.174955">
        <ele>117.847</ele>
        <time>1999-07-22T13:03:20Z</time>
      </trkpt>
      <trkpt lat="43.406124" lon="-6.175183">
        <ele>116.298</ele>
        <time>1999-07-22T13:03:23Z</time>
      </trkpt>
      <trkpt lat="43.406129" lon="-6.175267">
        <ele>115.684</ele>
        <time>1999-07-22T13:03:24Z</time>
      </trkpt>
      <trkpt lat="43.406132" lon="-6.175358">
        <ele>114.880</ele>
        <time>1999-07-22T13:03:25Z</time>
      </trkpt>
      <trkpt lat="43.406131" lon="-6.175426">
        <ele>114.037</ele>
        <time>1999-07-22T13:03:26Z</time>
      </trkpt>
      <trkpt lat="43.406125" lon="-6.175471">
        <ele>113.424</ele>
        <time>1999-07-22T13:03:27Z</time>
      </trkpt>
      <trkpt lat="43.406120" lon="-6.175510">
        <ele>112.820</ele>
        <time>1999-07-22T13:03:28Z</time>
      </trkpt>
      <trkpt lat="43.406123" lon="-6.175570">
        <ele>112.048</ele>
        <time>1999-07-22T13:03:30Z</time>
      </trkpt>
      <trkpt lat="43.406119" lon="-6.175642">
        <ele>111.261</ele>
        <time>1999-07-22T13:03:33Z</time>
      </trkpt>
      <trkpt lat="43.406110" lon="-6.175676">
        <ele>110.817</ele>
        <time>1999-07-22T13:03:34Z</time>
      </trkpt>
      <trkpt lat="43.406108" lon="-6.175744">
        <ele>109.808</ele>
        <time>1999-07-22T13:03:36Z</time>
      </trkpt>
      <trkpt lat="43.406097" lon="-6.175802">
        <ele>109.257</ele>
        <time>1999-07-22T13:03:38Z</time>
      </trkpt>
      <trkpt lat="43.406098" lon="-6.175829">
        <ele>109.072</ele>
        <time>1999-07-22T13:03:39Z</time>
      </trkpt>
      <trkpt lat="43.406113" lon="-6.175888">
        <ele>108.843</ele>
        <time>1999-07-22T13:03:41Z</time>
      </trkpt>
      <trkpt lat="43.406119" lon="-6.175920">
        <ele>108.699</ele>
        <time>1999-07-22T13:03:42Z</time>
      </trkpt>
      <trkpt lat="43.406184" lon="-6.176148">
        <ele>107.425</ele>
        <time>1999-07-22T13:03:47Z</time>
      </trkpt>
      <trkpt lat="43.406217" lon="-6.176348">
        <ele>106.682</ele>
        <time>1999-07-22T13:03:50Z</time>
      </trkpt>
      <trkpt lat="43.406221" lon="-6.176426">
        <ele>106.449</ele>
        <time>1999-07-22T13:03:51Z</time>
      </trkpt>
      <trkpt lat="43.406234" lon="-6.176506">
        <ele>106.215</ele>
        <time>1999-07-22T13:03:52Z</time>
      </trkpt>
      <trkpt lat="43.406260" lon="-6.176583">
        <ele>106.017</ele>
        <time>1999-07-22T13:03:53Z</time>
      </trkpt>
      <trkpt lat="43.406310" lon="-6.176736">
        <ele>105.287</ele>
        <time>1999-07-22T13:03:55Z</time>
      </trkpt>
      <trkpt lat="43.406369" lon="-6.176884">
        <ele>104.215</ele>
        <time>1999-07-22T13:03:57Z</time>
      </trkpt>
      <trkpt lat="43.406395" lon="-6.176958">
        <ele>103.608</ele>
        <time>1999-07-22T13:03:58Z</time>
      </trkpt>
      <trkpt lat="43.406427" lon="-6.177069">
        <ele>102.414</ele>
        <time>1999-07-22T13:04:00Z</time>
      </trkpt>
      <trkpt lat="43.406433" lon="-6.177126">
        <ele>101.619</ele>
        <time>1999-07-22T13:04:01Z</time>
      </trkpt>
      <trkpt lat="43.406431" lon="-6.177188">
        <ele>101.020</ele>
        <time>1999-07-22T13:04:02Z</time>
      </trkpt>
      <trkpt lat="43.406427" lon="-6.177352">
        <ele>99.696</ele>
        <time>1999-07-22T13:04:05Z</time>
      </trkpt>
      <trkpt lat="43.406427" lon="-6.177425">
        <ele>98.632</ele>
        <time>1999-07-22T13:04:07Z</time>
      </trkpt>
      <trkpt lat="43.406446" lon="-6.177442">
        <ele>97.419</ele>
        <time>1999-07-22T13:04:09Z</time>
      </trkpt>
      <trkpt lat="43.406590" lon="-6.177795">
        <ele>95.846</ele>
        <time>1999-07-22T13:04:44Z</time>
      </trkpt>
      <trkpt lat="43.406596" lon="-6.177819">
        <ele>96.062</ele>
        <time>1999-07-22T13:04:45Z</time>
      </trkpt>
      <trkpt lat="43.406602" lon="-6.177889">
        <ele>96.084</ele>
        <time>1999-07-22T13:04:47Z</time>
      </trkpt>
      <trkpt lat="43.406642" lon="-6.178037">
        <ele>96.007</ele>
        <time>1999-07-22T13:04:50Z</time>
      </trkpt>
      <trkpt lat="43.406658" lon="-6.178096">
        <ele>96.017</ele>
        <time>1999-07-22T13:04:51Z</time>
      </trkpt>
      <trkpt lat="43.406700" lon="-6.178285">
        <ele>96.008</ele>
        <time>1999-07-22T13:04:54Z</time>
      </trkpt>
      <trkpt lat="43.406727" lon="-6.178488">
        <ele>95.821</ele>
        <time>1999-07-22T13:04:57Z</time>
      </trkpt>
      <trkpt lat="43.406719" lon="-6.178650">
        <ele>95.486</ele>
        <time>1999-07-22T13:05:00Z</time>
      </trkpt>
      <trkpt lat="43.406712" lon="-6.178720">
        <ele>95.297</ele>
        <time>1999-07-22T13:05:01Z</time>
      </trkpt>
      <trkpt lat="43.406713" lon="-6.178793">
        <ele>95.093</ele>
        <time>1999-07-22T13:05:02Z</time>
      </trkpt>
      <trkpt lat="43.406730" lon="-6.178859">
        <ele>94.829</ele>
        <time>1999-07-22T13:05:03Z</time>
      </trkpt>
      <trkpt lat="43.406731" lon="-6.178991">
        <ele>94.436</ele>
        <time>1999-07-22T13:05:05Z</time>
      </trkpt>
      <trkpt lat="43.406735" lon="-6.179216">
        <ele>94.073</ele>
        <time>1999-07-22T13:05:08Z</time>
      </trkpt>
      <trkpt lat="43.406755" lon="-6.179290">
        <ele>93.479</ele>
        <time>1999-07-22T13:05:09Z</time>
      </trkpt>
      <trkpt lat="43.406777" lon="-6.179358">
        <ele>93.241</ele>
        <time>1999-07-22T13:05:10Z</time>
      </trkpt>
      <trkpt lat="43.406870" lon="-6.179467">
        <ele>92.681</ele>
        <time>1999-07-22T13:05:13Z</time>
      </trkpt>
      <trkpt lat="43.406923" lon="-6.179501">
        <ele>91.809</ele>
        <time>1999-07-22T13:05:15Z</time>
      </trkpt>
      <trkpt lat="43.406942" lon="-6.179511">
        <ele>91.408</ele>
        <time>1999-07-22T13:05:16Z</time>
      </trkpt>
      <trkpt lat="43.406970" lon="-6.179532">
        <ele>91.237</ele>
        <time>1999-07-22T13:05:18Z</time>
      </trkpt>
      <trkpt lat="43.407004" lon="-6.179576">
        <ele>91.282</ele>
        <time>1999-07-22T13:05:20Z</time>
      </trkpt>
      <trkpt lat="43.407030" lon="-6.179624">
        <ele>91.233</ele>
        <time>1999-07-22T13:05:22Z</time>
      </trkpt>
      <trkpt lat="43.407045" lon="-6.179644">
        <ele>91.269</ele>
        <time>1999-07-22T13:05:23Z</time>
      </trkpt>
      <trkpt lat="43.407060" lon="-6.179671">
        <ele>91.285</ele>
        <time>1999-07-22T13:05:24Z</time>
      </trkpt>
      <trkpt lat="43.407072" lon="-6.179741">
        <ele>91.452</ele>
        <time>1999-07-22T13:05:26Z</time>
      </trkpt>
      <trkpt lat="43.407100" lon="-6.179809">
        <ele>92.099</ele>
        <time>1999-07-22T13:05:29Z</time>
      </trkpt>
      <trkpt lat="43.407117" lon="-6.179867">
        <ele>92.455</ele>
        <time>1999-07-22T13:05:31Z</time>
      </trkpt>
      <trkpt lat="43.407152" lon="-6.179969">
        <ele>92.882</ele>
        <time>1999-07-22T13:05:33Z</time>
      </trkpt>
      <trkpt lat="43.407159" lon="-6.180054">
        <ele>92.843</ele>
        <time>1999-07-22T13:05:34Z</time>
      </trkpt>
      <trkpt lat="43.407159" lon="-6.180145">
        <ele>92.817</ele>
        <time>1999-07-22T13:05:35Z</time>
      </trkpt>
      <trkpt lat="43.407156" lon="-6.180311">
        <ele>92.808</ele>
        <time>1999-07-22T13:05:37Z</time>
      </trkpt>
      <trkpt lat="43.407134" lon="-6.180498">
        <ele>92.821</ele>
        <time>1999-07-22T13:05:39Z</time>
      </trkpt>
      <trkpt lat="43.407122" lon="-6.180698">
        <ele>92.866</ele>
        <time>1999-07-22T13:05:41Z</time>
      </trkpt>
      <trkpt lat="43.407135" lon="-6.180903">
        <ele>92.477</ele>
        <time>1999-07-22T13:05:43Z</time>
      </trkpt>
      <trkpt lat="43.407148" lon="-6.181135">
        <ele>91.433</ele>
        <time>1999-07-22T13:05:45Z</time>
      </trkpt>
      <trkpt lat="43.407183" lon="-6.181364">
        <ele>90.449</ele>
        <time>1999-07-22T13:05:47Z</time>
      </trkpt>
      <trkpt lat="43.407214" lon="-6.181579">
        <ele>89.616</ele>
        <time>1999-07-22T13:05:49Z</time>
      </trkpt>
      <trkpt lat="43.407238" lon="-6.181674">
        <ele>89.233</ele>
        <time>1999-07-22T13:05:50Z</time>
      </trkpt>
      <trkpt lat="43.407290" lon="-6.181931">
        <ele>87.689</ele>
        <time>1999-07-22T13:05:53Z</time>
      </trkpt>
      <trkpt lat="43.407293" lon="-6.182035">
        <ele>86.695</ele>
        <time>1999-07-22T13:05:55Z</time>
      </trkpt>
      <trkpt lat="43.407282" lon="-6.182066">
        <ele>86.249</ele>
        <time>1999-07-22T13:05:56Z</time>
      </trkpt>
      <trkpt lat="43.407261" lon="-6.182104">
        <ele>85.623</ele>
        <time>1999-07-22T13:05:58Z</time>
      </trkpt>
      <trkpt lat="43.407218" lon="-6.182111">
        <ele>85.008</ele>
        <time>1999-07-22T13:06:01Z</time>
      </trkpt>
      <trkpt lat="43.407184" lon="-6.182117">
        <ele>84.682</ele>
        <time>1999-07-22T13:06:03Z</time>
      </trkpt>
      <trkpt lat="43.407171" lon="-6.182123">
        <ele>84.417</ele>
        <time>1999-07-22T13:06:04Z</time>
      </trkpt>
      <trkpt lat="43.407149" lon="-6.182137">
        <ele>84.428</ele>
        <time>1999-07-22T13:06:06Z</time>
      </trkpt>
      <trkpt lat="43.407132" lon="-6.182163">
        <ele>84.494</ele>
        <time>1999-07-22T13:06:08Z</time>
      </trkpt>
      <trkpt lat="43.407123" lon="-6.182178">
        <ele>84.480</ele>
        <time>1999-07-22T13:06:09Z</time>
      </trkpt>
      <trkpt lat="43.407114" lon="-6.182209">
        <ele>84.487</ele>
        <time>1999-07-22T13:06:11Z</time>
      </trkpt>
      <trkpt lat="43.407102" lon="-6.182249">
        <ele>84.664</ele>
        <time>1999-07-22T13:06:13Z</time>
      </trkpt>
      <trkpt lat="43.407101" lon="-6.182291">
        <ele>85.050</ele>
        <time>1999-07-22T13:06:15Z</time>
      </trkpt>
      <trkpt lat="43.407096" lon="-6.182330">
        <ele>85.285</ele>
        <time>1999-07-22T13:06:17Z</time>
      </trkpt>
      <trkpt lat="43.407093" lon="-6.182368">
        <ele>85.689</ele>
        <time>1999-07-22T13:06:19Z</time>
      </trkpt>
      <trkpt lat="43.407092" lon="-6.182424">
        <ele>86.817</ele>
        <time>1999-07-22T13:06:22Z</time>
      </trkpt>
      <trkpt lat="43.407093" lon="-6.182457">
        <ele>87.408</ele>
        <time>1999-07-22T13:06:24Z</time>
      </trkpt>
      <trkpt lat="43.407098" lon="-6.182470">
        <ele>87.871</ele>
        <time>1999-07-22T13:06:25Z</time>
      </trkpt>
      <trkpt lat="43.407100" lon="-6.182483">
        <ele>88.086</ele>
        <time>1999-07-22T13:06:26Z</time>
      </trkpt>
      <trkpt lat="43.407099" lon="-6.182547">
        <ele>89.257</ele>
        <time>1999-07-22T13:06:29Z</time>
      </trkpt>
      <trkpt lat="43.407091" lon="-6.182601">
        <ele>90.263</ele>
        <time>1999-07-22T13:06:32Z</time>
      </trkpt>
      <trkpt lat="43.407080" lon="-6.182623">
        <ele>90.479</ele>
        <time>1999-07-22T13:06:33Z</time>
      </trkpt>
      <trkpt lat="43.407077" lon="-6.182644">
        <ele>90.876</ele>
        <time>1999-07-22T13:06:34Z</time>
      </trkpt>
      <trkpt lat="43.407067" lon="-6.182694">
        <ele>91.663</ele>
        <time>1999-07-22T13:06:36Z</time>
      </trkpt>
      <trkpt lat="43.407031" lon="-6.182772">
        <ele>92.829</ele>
        <time>1999-07-22T13:06:39Z</time>
      </trkpt>
      <trkpt lat="43.406990" lon="-6.182845">
        <ele>93.692</ele>
        <time>1999-07-22T13:06:42Z</time>
      </trkpt>
      <trkpt lat="43.406977" lon="-6.182870">
        <ele>94.073</ele>
        <time>1999-07-22T13:06:43Z</time>
      </trkpt>
      <trkpt lat="43.406926" lon="-6.182975">
        <ele>95.020</ele>
        <time>1999-07-22T13:06:47Z</time>
      </trkpt>
      <trkpt lat="43.406904" lon="-6.183021">
        <ele>95.408</ele>
        <time>1999-07-22T13:06:49Z</time>
      </trkpt>
      <trkpt lat="43.406868" lon="-6.183106">
        <ele>96.272</ele>
        <time>1999-07-22T13:06:53Z</time>
      </trkpt>
      <trkpt lat="43.406843" lon="-6.183192">
        <ele>97.237</ele>
        <time>1999-07-22T13:06:57Z</time>
      </trkpt>
      <trkpt lat="43.406839" lon="-6.183214">
        <ele>97.448</ele>
        <time>1999-07-22T13:06:58Z</time>
      </trkpt>
      <trkpt lat="43.406816" lon="-6.183372">
        <ele>98.414</ele>
        <time>1999-07-22T13:07:04Z</time>
      </trkpt>
      <trkpt lat="43.406816" lon="-6.183403">
        <ele>99.030</ele>
        <time>1999-07-22T13:07:05Z</time>
      </trkpt>
      <trkpt lat="43.406816" lon="-6.183519">
        <ele>99.437</ele>
        <time>1999-07-22T13:07:08Z</time>
      </trkpt>
      <trkpt lat="43.406811" lon="-6.183567">
        <ele>99.494</ele>
        <time>1999-07-22T13:07:09Z</time>
      </trkpt>
      <trkpt lat="43.406812" lon="-6.183650">
        <ele>99.610</ele>
        <time>1999-07-22T13:07:11Z</time>
      </trkpt>
      <trkpt lat="43.406803" lon="-6.183741">
        <ele>99.637</ele>
        <time>1999-07-22T13:07:13Z</time>
      </trkpt>
      <trkpt lat="43.406765" lon="-6.183830">
        <ele>99.649</ele>
        <time>1999-07-22T13:07:15Z</time>
      </trkpt>
      <trkpt lat="43.406722" lon="-6.183905">
        <ele>99.413</ele>
        <time>1999-07-22T13:07:17Z</time>
      </trkpt>
      <trkpt lat="43.406687" lon="-6.183979">
        <ele>99.008</ele>
        <time>1999-07-22T13:07:19Z</time>
      </trkpt>
      <trkpt lat="43.406626" lon="-6.184105">
        <ele>98.626</ele>
        <time>1999-07-22T13:07:22Z</time>
      </trkpt>
      <trkpt lat="43.406578" lon="-6.184195">
        <ele>98.631</ele>
        <time>1999-07-22T13:07:24Z</time>
      </trkpt>
      <trkpt lat="43.406543" lon="-6.184244">
        <ele>98.622</ele>
        <time>1999-07-22T13:07:25Z</time>
      </trkpt>
      <trkpt lat="43.406507" lon="-6.184299">
        <ele>98.468</ele>
        <time>1999-07-22T13:07:26Z</time>
      </trkpt>
      <trkpt lat="43.406464" lon="-6.184362">
        <ele>98.694</ele>
        <time>1999-07-22T13:07:27Z</time>
      </trkpt>
      <trkpt lat="43.406366" lon="-6.184504">
        <ele>98.431</ele>
        <time>1999-07-22T13:07:29Z</time>
      </trkpt>
      <trkpt lat="43.406275" lon="-6.184642">
        <ele>98.258</ele>
        <time>1999-07-22T13:07:31Z</time>
      </trkpt>
      <trkpt lat="43.406241" lon="-6.184692">
        <ele>98.444</ele>
        <time>1999-07-22T13:07:32Z</time>
      </trkpt>
      <trkpt lat="43.406174" lon="-6.184769">
        <ele>98.085</ele>
        <time>1999-07-22T13:07:35Z</time>
      </trkpt>
      <trkpt lat="43.406157" lon="-6.184781">
        <ele>97.689</ele>
        <time>1999-07-22T13:07:36Z</time>
      </trkpt>
      <trkpt lat="43.406142" lon="-6.184795">
        <ele>97.017</ele>
        <time>1999-07-22T13:07:37Z</time>
      </trkpt>
      <trkpt lat="43.406126" lon="-6.184809">
        <ele>96.608</ele>
        <time>1999-07-22T13:07:38Z</time>
      </trkpt>
      <trkpt lat="43.406076" lon="-6.184839">
        <ele>96.261</ele>
        <time>1999-07-22T13:07:41Z</time>
      </trkpt>
      <trkpt lat="43.406037" lon="-6.184860">
        <ele>96.036</ele>
        <time>1999-07-22T13:07:43Z</time>
      </trkpt>
      <trkpt lat="43.405976" lon="-6.184889">
        <ele>96.017</ele>
        <time>1999-07-22T13:07:46Z</time>
      </trkpt>
      <trkpt lat="43.405898" lon="-6.184917">
        <ele>96.463</ele>
        <time>1999-07-22T13:07:50Z</time>
      </trkpt>
      <trkpt lat="43.405783" lon="-6.184964">
        <ele>97.679</ele>
        <time>1999-07-22T13:07:56Z</time>
      </trkpt>
      <trkpt lat="43.405685" lon="-6.185036">
        <ele>98.436</ele>
        <time>1999-07-22T13:08:01Z</time>
      </trkpt>
      <trkpt lat="43.405665" lon="-6.185048">
        <ele>98.653</ele>
        <time>1999-07-22T13:08:02Z</time>
      </trkpt>
      <trkpt lat="43.405649" lon="-6.185060">
        <ele>98.829</ele>
        <time>1999-07-22T13:08:03Z</time>
      </trkpt>
      <trkpt lat="43.405562" lon="-6.185128">
        <ele>99.821</ele>
        <time>1999-07-22T13:08:08Z</time>
      </trkpt>
      <trkpt lat="43.405474" lon="-6.185232">
        <ele>101.041</ele>
        <time>1999-07-22T13:08:14Z</time>
      </trkpt>
      <trkpt lat="43.405460" lon="-6.185253">
        <ele>101.205</ele>
        <time>1999-07-22T13:08:15Z</time>
      </trkpt>
      <trkpt lat="43.405394" lon="-6.185337">
        <ele>102.008</ele>
        <time>1999-07-22T13:08:19Z</time>
      </trkpt>
      <trkpt lat="43.405311" lon="-6.185414">
        <ele>103.035</ele>
        <time>1999-07-22T13:08:24Z</time>
      </trkpt>
      <trkpt lat="43.405290" lon="-6.185427">
        <ele>103.270</ele>
        <time>1999-07-22T13:08:25Z</time>
      </trkpt>
      <trkpt lat="43.405210" lon="-6.185496">
        <ele>104.251</ele>
        <time>1999-07-22T13:08:30Z</time>
      </trkpt>
      <trkpt lat="43.405196" lon="-6.185517">
        <ele>104.487</ele>
        <time>1999-07-22T13:08:31Z</time>
      </trkpt>
      <trkpt lat="43.405141" lon="-6.185621">
        <ele>105.413</ele>
        <time>1999-07-22T13:08:35Z</time>
      </trkpt>
      <trkpt lat="43.405116" lon="-6.185686">
        <ele>105.840</ele>
        <time>1999-07-22T13:08:37Z</time>
      </trkpt>
      <trkpt lat="43.405052" lon="-6.185819">
        <ele>106.247</ele>
        <time>1999-07-22T13:08:40Z</time>
      </trkpt>
      <trkpt lat="43.404991" lon="-6.185907">
        <ele>106.453</ele>
        <time>1999-07-22T13:08:42Z</time>
      </trkpt>
      <trkpt lat="43.404955" lon="-6.185955">
        <ele>106.417</ele>
        <time>1999-07-22T13:08:43Z</time>
      </trkpt>
      <trkpt lat="43.404887" lon="-6.186065">
        <ele>106.487</ele>
        <time>1999-07-22T13:08:45Z</time>
      </trkpt>
      <trkpt lat="43.404854" lon="-6.186133">
        <ele>106.415</ele>
        <time>1999-07-22T13:08:46Z</time>
      </trkpt>
      <trkpt lat="43.404802" lon="-6.186301">
        <ele>106.408</ele>
        <time>1999-07-22T13:08:48Z</time>
      </trkpt>
      <trkpt lat="43.404773" lon="-6.186495">
        <ele>106.454</ele>
        <time>1999-07-22T13:08:50Z</time>
      </trkpt>
      <trkpt lat="43.404750" lon="-6.186686">
        <ele>106.099</ele>
        <time>1999-07-22T13:08:52Z</time>
      </trkpt>
      <trkpt lat="43.404739" lon="-6.186767">
        <ele>105.850</ele>
        <time>1999-07-22T13:08:53Z</time>
      </trkpt>
      <trkpt lat="43.404711" lon="-6.186911">
        <ele>105.236</ele>
        <time>1999-07-22T13:08:55Z</time>
      </trkpt>
      <trkpt lat="43.404673" lon="-6.187033">
        <ele>104.662</ele>
        <time>1999-07-22T13:08:57Z</time>
      </trkpt>
      <trkpt lat="43.404654" lon="-6.187086">
        <ele>104.469</ele>
        <time>1999-07-22T13:08:58Z</time>
      </trkpt>
      <trkpt lat="43.404537" lon="-6.187219">
        <ele>103.866</ele>
        <time>1999-07-22T13:09:02Z</time>
      </trkpt>
      <trkpt lat="43.404503" lon="-6.187245">
        <ele>103.842</ele>
        <time>1999-07-22T13:09:03Z</time>
      </trkpt>
      <trkpt lat="43.404471" lon="-6.187267">
        <ele>103.831</ele>
        <time>1999-07-22T13:09:04Z</time>
      </trkpt>
      <trkpt lat="43.404437" lon="-6.187288">
        <ele>103.861</ele>
        <time>1999-07-22T13:09:05Z</time>
      </trkpt>
      <trkpt lat="43.404375" lon="-6.187331">
        <ele>103.807</ele>
        <time>1999-07-22T13:09:07Z</time>
      </trkpt>
      <trkpt lat="43.404325" lon="-6.187398">
        <ele>104.008</ele>
        <time>1999-07-22T13:09:09Z</time>
      </trkpt>
      <trkpt lat="43.404242" lon="-6.187558">
        <ele>105.046</ele>
        <time>1999-07-22T13:09:14Z</time>
      </trkpt>
      <trkpt lat="43.404234" lon="-6.187580">
        <ele>105.441</ele>
        <time>1999-07-22T13:09:16Z</time>
      </trkpt>
      <trkpt lat="43.404235" lon="-6.187580">
        <ele>105.692</ele>
        <time>1999-07-22T13:09:17Z</time>
      </trkpt>
      <trkpt lat="43.404200" lon="-6.187676">
        <ele>106.678</ele>
        <time>1999-07-22T13:09:27Z</time>
      </trkpt>
      <trkpt lat="43.404174" lon="-6.187785">
        <ele>106.844</ele>
        <time>1999-07-22T13:09:30Z</time>
      </trkpt>
      <trkpt lat="43.404160" lon="-6.187871">
        <ele>106.831</ele>
        <time>1999-07-22T13:09:32Z</time>
      </trkpt>
      <trkpt lat="43.404086" lon="-6.188192">
        <ele>107.098</ele>
        <time>1999-07-22T13:09:39Z</time>
      </trkpt>
      <trkpt lat="43.403985" lon="-6.188424">
        <ele>107.824</ele>
        <time>1999-07-22T13:09:44Z</time>
      </trkpt>
      <trkpt lat="43.403964" lon="-6.188461">
        <ele>107.856</ele>
        <time>1999-07-22T13:09:45Z</time>
      </trkpt>
      <trkpt lat="43.403815" lon="-6.188668">
        <ele>108.259</ele>
        <time>1999-07-22T13:09:51Z</time>
      </trkpt>
      <trkpt lat="43.403662" lon="-6.188991">
        <ele>108.414</ele>
        <time>1999-07-22T13:09:58Z</time>
      </trkpt>
      <trkpt lat="43.403656" lon="-6.189047">
        <ele>108.408</ele>
        <time>1999-07-22T13:09:59Z</time>
      </trkpt>
      <trkpt lat="43.403669" lon="-6.189213">
        <ele>108.698</ele>
        <time>1999-07-22T13:10:02Z</time>
      </trkpt>
      <trkpt lat="43.403679" lon="-6.189266">
        <ele>108.613</ele>
        <time>1999-07-22T13:10:03Z</time>
      </trkpt>
      <trkpt lat="43.403712" lon="-6.189620">
        <ele>108.854</ele>
        <time>1999-07-22T13:10:10Z</time>
      </trkpt>
      <trkpt lat="43.403715" lon="-6.189670">
        <ele>109.040</ele>
        <time>1999-07-22T13:10:11Z</time>
      </trkpt>
      <trkpt lat="43.403730" lon="-6.189871">
        <ele>109.466</ele>
        <time>1999-07-22T13:10:15Z</time>
      </trkpt>
      <trkpt lat="43.403731" lon="-6.190022">
        <ele>109.683</ele>
        <time>1999-07-22T13:10:18Z</time>
      </trkpt>
      <trkpt lat="43.403727" lon="-6.190122">
        <ele>109.650</ele>
        <time>1999-07-22T13:10:20Z</time>
      </trkpt>
      <trkpt lat="43.403716" lon="-6.190268">
        <ele>110.056</ele>
        <time>1999-07-22T13:10:23Z</time>
      </trkpt>
      <trkpt lat="43.403687" lon="-6.190404">
        <ele>110.439</ele>
        <time>1999-07-22T13:10:26Z</time>
      </trkpt>
      <trkpt lat="43.403663" lon="-6.190537">
        <ele>111.401</ele>
        <time>1999-07-22T13:10:29Z</time>
      </trkpt>
      <trkpt lat="43.403645" lon="-6.190671">
        <ele>112.421</ele>
        <time>1999-07-22T13:10:32Z</time>
      </trkpt>
      <trkpt lat="43.403646" lon="-6.190797">
        <ele>113.208</ele>
        <time>1999-07-22T13:10:35Z</time>
      </trkpt>
      <trkpt lat="43.403651" lon="-6.190884">
        <ele>113.696</ele>
        <time>1999-07-22T13:10:37Z</time>
      </trkpt>
      <trkpt lat="43.403694" lon="-6.191075">
        <ele>114.881</ele>
        <time>1999-07-22T13:10:41Z</time>
      </trkpt>
      <trkpt lat="43.403786" lon="-6.191332">
        <ele>115.642</ele>
        <time>1999-07-22T13:10:46Z</time>
      </trkpt>
      <trkpt lat="43.403815" lon="-6.191390">
        <ele>115.628</ele>
        <time>1999-07-22T13:10:47Z</time>
      </trkpt>
      <trkpt lat="43.403908" lon="-6.191602">
        <ele>115.624</ele>
        <time>1999-07-22T13:10:50Z</time>
      </trkpt>
      <trkpt lat="43.403986" lon="-6.191762">
        <ele>115.611</ele>
        <time>1999-07-22T13:10:52Z</time>
      </trkpt>
      <trkpt lat="43.404107" lon="-6.192052">
        <ele>115.648</ele>
        <time>1999-07-22T13:10:55Z</time>
      </trkpt>
      <trkpt lat="43.404201" lon="-6.192256">
        <ele>115.284</ele>
        <time>1999-07-22T13:10:57Z</time>
      </trkpt>
      <trkpt lat="43.404243" lon="-6.192361">
        <ele>115.065</ele>
        <time>1999-07-22T13:10:58Z</time>
      </trkpt>
      <trkpt lat="43.404297" lon="-6.192575">
        <ele>114.268</ele>
        <time>1999-07-22T13:11:00Z</time>
      </trkpt>
      <trkpt lat="43.404314" lon="-6.192677">
        <ele>113.014</ele>
        <time>1999-07-22T13:11:01Z</time>
      </trkpt>
      <trkpt lat="43.404326" lon="-6.192769">
        <ele>112.408</ele>
        <time>1999-07-22T13:11:02Z</time>
      </trkpt>
      <trkpt lat="43.404325" lon="-6.192858">
        <ele>111.879</ele>
        <time>1999-07-22T13:11:03Z</time>
      </trkpt>
      <trkpt lat="43.404310" lon="-6.192938">
        <ele>111.264</ele>
        <time>1999-07-22T13:11:04Z</time>
      </trkpt>
      <trkpt lat="43.404290" lon="-6.193007">
        <ele>110.625</ele>
        <time>1999-07-22T13:11:05Z</time>
      </trkpt>
      <trkpt lat="43.404253" lon="-6.193131">
        <ele>109.811</ele>
        <time>1999-07-22T13:11:07Z</time>
      </trkpt>
      <trkpt lat="43.404240" lon="-6.193182">
        <ele>109.617</ele>
        <time>1999-07-22T13:11:08Z</time>
      </trkpt>
      <trkpt lat="43.404230" lon="-6.193224">
        <ele>109.424</ele>
        <time>1999-07-22T13:11:09Z</time>
      </trkpt>
      <trkpt lat="43.404223" lon="-6.193374">
        <ele>109.411</ele>
        <time>1999-07-22T13:11:14Z</time>
      </trkpt>
      <trkpt lat="43.404219" lon="-6.193401">
        <ele>109.487</ele>
        <time>1999-07-22T13:11:15Z</time>
      </trkpt>
      <trkpt lat="43.404210" lon="-6.193453">
        <ele>109.425</ele>
        <time>1999-07-22T13:11:17Z</time>
      </trkpt>
      <trkpt lat="43.404209" lon="-6.193509">
        <ele>109.426</ele>
        <time>1999-07-22T13:11:19Z</time>
      </trkpt>
      <trkpt lat="43.404216" lon="-6.193563">
        <ele>109.808</ele>
        <time>1999-07-22T13:11:21Z</time>
      </trkpt>
      <trkpt lat="43.404237" lon="-6.193657">
        <ele>110.608</ele>
        <time>1999-07-22T13:11:24Z</time>
      </trkpt>
      <trkpt lat="43.404250" lon="-6.193693">
        <ele>110.815</ele>
        <time>1999-07-22T13:11:25Z</time>
      </trkpt>
      <trkpt lat="43.404286" lon="-6.193769">
        <ele>111.470</ele>
        <time>1999-07-22T13:11:27Z</time>
      </trkpt>
      <trkpt lat="43.404320" lon="-6.193852">
        <ele>112.091</ele>
        <time>1999-07-22T13:11:29Z</time>
      </trkpt>
      <trkpt lat="43.404398" lon="-6.194042">
        <ele>113.217</ele>
        <time>1999-07-22T13:11:33Z</time>
      </trkpt>
      <trkpt lat="43.404510" lon="-6.194357">
        <ele>113.453</ele>
        <time>1999-07-22T13:11:38Z</time>
      </trkpt>
      <trkpt lat="43.404535" lon="-6.194420">
        <ele>113.490</ele>
        <time>1999-07-22T13:11:39Z</time>
      </trkpt>
      <trkpt lat="43.404618" lon="-6.194669">
        <ele>113.457</ele>
        <time>1999-07-22T13:11:43Z</time>
      </trkpt>
      <trkpt lat="43.404646" lon="-6.194788">
        <ele>113.423</ele>
        <time>1999-07-22T13:11:45Z</time>
      </trkpt>
      <trkpt lat="43.404670" lon="-6.194904">
        <ele>113.284</ele>
        <time>1999-07-22T13:11:47Z</time>
      </trkpt>
      <trkpt lat="43.404661" lon="-6.195085">
        <ele>113.207</ele>
        <time>1999-07-22T13:11:50Z</time>
      </trkpt>
      <trkpt lat="43.404634" lon="-6.195203">
        <ele>113.017</ele>
        <time>1999-07-22T13:11:52Z</time>
      </trkpt>
      <trkpt lat="43.404585" lon="-6.195416">
        <ele>112.808</ele>
        <time>1999-07-22T13:11:55Z</time>
      </trkpt>
      <trkpt lat="43.404560" lon="-6.195647">
        <ele>112.631</ele>
        <time>1999-07-22T13:11:58Z</time>
      </trkpt>
      <trkpt lat="43.404574" lon="-6.195793">
        <ele>112.496</ele>
        <time>1999-07-22T13:12:00Z</time>
      </trkpt>
      <trkpt lat="43.404647" lon="-6.196081">
        <ele>112.487</ele>
        <time>1999-07-22T13:12:04Z</time>
      </trkpt>
      <trkpt lat="43.404665" lon="-6.196160">
        <ele>112.473</ele>
        <time>1999-07-22T13:12:05Z</time>
      </trkpt>
      <trkpt lat="43.404769" lon="-6.196504">
        <ele>112.479</ele>
        <time>1999-07-22T13:12:10Z</time>
      </trkpt>
      <trkpt lat="43.404782" lon="-6.196560">
        <ele>112.466</ele>
        <time>1999-07-22T13:12:11Z</time>
      </trkpt>
      <trkpt lat="43.404775" lon="-6.196774">
        <ele>112.463</ele>
        <time>1999-07-22T13:12:15Z</time>
      </trkpt>
      <trkpt lat="43.404771" lon="-6.196818">
        <ele>112.429</ele>
        <time>1999-07-22T13:12:16Z</time>
      </trkpt>
      <trkpt lat="43.404748" lon="-6.196989">
        <ele>112.866</ele>
        <time>1999-07-22T13:12:20Z</time>
      </trkpt>
      <trkpt lat="43.404733" lon="-6.197109">
        <ele>113.429</ele>
        <time>1999-07-22T13:12:23Z</time>
      </trkpt>
      <trkpt lat="43.404728" lon="-6.197148">
        <ele>113.621</ele>
        <time>1999-07-22T13:12:24Z</time>
      </trkpt>
      <trkpt lat="43.404710" lon="-6.197233">
        <ele>114.208</ele>
        <time>1999-07-22T13:12:26Z</time>
      </trkpt>
      <trkpt lat="43.404676" lon="-6.197404">
        <ele>115.429</ele>
        <time>1999-07-22T13:12:30Z</time>
      </trkpt>
      <trkpt lat="43.404657" lon="-6.197541">
        <ele>115.894</ele>
        <time>1999-07-22T13:12:33Z</time>
      </trkpt>
      <trkpt lat="43.404694" lon="-6.197715">
        <ele>116.455</ele>
        <time>1999-07-22T13:12:37Z</time>
      </trkpt>
      <trkpt lat="43.404718" lon="-6.197761">
        <ele>116.461</ele>
        <time>1999-07-22T13:12:38Z</time>
      </trkpt>
      <trkpt lat="43.404750" lon="-6.197811">
        <ele>116.847</ele>
        <time>1999-07-22T13:12:39Z</time>
      </trkpt>
      <trkpt lat="43.404857" lon="-6.198014">
        <ele>116.814</ele>
        <time>1999-07-22T13:12:42Z</time>
      </trkpt>
      <trkpt lat="43.404958" lon="-6.198156">
        <ele>116.881</ele>
        <time>1999-07-22T13:12:44Z</time>
      </trkpt>
      <trkpt lat="43.405101" lon="-6.198277">
        <ele>116.827</ele>
        <time>1999-07-22T13:12:46Z</time>
      </trkpt>
      <trkpt lat="43.405252" lon="-6.198352">
        <ele>116.834</ele>
        <time>1999-07-22T13:12:48Z</time>
      </trkpt>
      <trkpt lat="43.405325" lon="-6.198360">
        <ele>116.855</ele>
        <time>1999-07-22T13:12:49Z</time>
      </trkpt>
      <trkpt lat="43.405477" lon="-6.198335">
        <ele>116.810</ele>
        <time>1999-07-22T13:12:51Z</time>
      </trkpt>
      <trkpt lat="43.405634" lon="-6.198304">
        <ele>115.808</ele>
        <time>1999-07-22T13:12:53Z</time>
      </trkpt>
      <trkpt lat="43.405712" lon="-6.198292">
        <ele>115.256</ele>
        <time>1999-07-22T13:12:54Z</time>
      </trkpt>
      <trkpt lat="43.405787" lon="-6.198290">
        <ele>114.881</ele>
        <time>1999-07-22T13:12:55Z</time>
      </trkpt>
      <trkpt lat="43.405859" lon="-6.198303">
        <ele>113.842</ele>
        <time>1999-07-22T13:12:56Z</time>
      </trkpt>
      <trkpt lat="43.405929" lon="-6.198332">
        <ele>113.078</ele>
        <time>1999-07-22T13:12:57Z</time>
      </trkpt>
      <trkpt lat="43.405999" lon="-6.198374">
        <ele>112.034</ele>
        <time>1999-07-22T13:12:58Z</time>
      </trkpt>
      <trkpt lat="43.406064" lon="-6.198429">
        <ele>110.661</ele>
        <time>1999-07-22T13:12:59Z</time>
      </trkpt>
      <trkpt lat="43.406180" lon="-6.198564">
        <ele>109.488</ele>
        <time>1999-07-22T13:13:01Z</time>
      </trkpt>
      <trkpt lat="43.406287" lon="-6.198705">
        <ele>108.614</ele>
        <time>1999-07-22T13:13:03Z</time>
      </trkpt>
      <trkpt lat="43.406341" lon="-6.198777">
        <ele>108.478</ele>
        <time>1999-07-22T13:13:04Z</time>
      </trkpt>
      <trkpt lat="43.406481" lon="-6.198993">
        <ele>107.633</ele>
        <time>1999-07-22T13:13:07Z</time>
      </trkpt>
      <trkpt lat="43.406561" lon="-6.199128">
        <ele>107.226</ele>
        <time>1999-07-22T13:13:09Z</time>
      </trkpt>
      <trkpt lat="43.406711" lon="-6.199360">
        <ele>106.608</ele>
        <time>1999-07-22T13:13:13Z</time>
      </trkpt>
      <trkpt lat="43.406807" lon="-6.199401">
        <ele>106.630</ele>
        <time>1999-07-22T13:13:15Z</time>
      </trkpt>
      <trkpt lat="43.406861" lon="-6.199382">
        <ele>106.655</ele>
        <time>1999-07-22T13:13:16Z</time>
      </trkpt>
      <trkpt lat="43.406975" lon="-6.199302">
        <ele>106.466</ele>
        <time>1999-07-22T13:13:18Z</time>
      </trkpt>
      <trkpt lat="43.407034" lon="-6.199265">
        <ele>106.482</ele>
        <time>1999-07-22T13:13:19Z</time>
      </trkpt>
      <trkpt lat="43.407101" lon="-6.199230">
        <ele>106.468</ele>
        <time>1999-07-22T13:13:20Z</time>
      </trkpt>
      <trkpt lat="43.407431" lon="-6.199058">
        <ele>106.285</ele>
        <time>1999-07-22T13:13:25Z</time>
      </trkpt>
      <trkpt lat="43.407616" lon="-6.198963">
        <ele>105.422</ele>
        <time>1999-07-22T13:13:28Z</time>
      </trkpt>
      <trkpt lat="43.407675" lon="-6.198933">
        <ele>104.858</ele>
        <time>1999-07-22T13:13:29Z</time>
      </trkpt>
      <trkpt lat="43.407785" lon="-6.198878">
        <ele>104.439</ele>
        <time>1999-07-22T13:13:31Z</time>
      </trkpt>
      <trkpt lat="43.407830" lon="-6.198874">
        <ele>104.201</ele>
        <time>1999-07-22T13:13:32Z</time>
      </trkpt>
      <trkpt lat="43.407901" lon="-6.198983">
        <ele>103.621</ele>
        <time>1999-07-22T13:13:35Z</time>
      </trkpt>
      <trkpt lat="43.407890" lon="-6.199094">
        <ele>103.208</ele>
        <time>1999-07-22T13:13:37Z</time>
      </trkpt>
      <trkpt lat="43.407877" lon="-6.199218">
        <ele>103.226</ele>
        <time>1999-07-22T13:13:39Z</time>
      </trkpt>
      <trkpt lat="43.407867" lon="-6.199344">
        <ele>103.051</ele>
        <time>1999-07-22T13:13:41Z</time>
      </trkpt>
      <trkpt lat="43.407857" lon="-6.199477">
        <ele>103.062</ele>
        <time>1999-07-22T13:13:43Z</time>
      </trkpt>
      <trkpt lat="43.407840" lon="-6.199684">
        <ele>102.818</ele>
        <time>1999-07-22T13:13:46Z</time>
      </trkpt>
      <trkpt lat="43.407831" lon="-6.199896">
        <ele>102.894</ele>
        <time>1999-07-22T13:13:49Z</time>
      </trkpt>
      <trkpt lat="43.407806" lon="-6.200109">
        <ele>103.421</ele>
        <time>1999-07-22T13:13:52Z</time>
      </trkpt>
      <trkpt lat="43.407781" lon="-6.200392">
        <ele>103.668</ele>
        <time>1999-07-22T13:13:56Z</time>
      </trkpt>
      <trkpt lat="43.407754" lon="-6.200670">
        <ele>104.074</ele>
        <time>1999-07-22T13:14:00Z</time>
      </trkpt>
      <trkpt lat="43.407721" lon="-6.201091">
        <ele>105.017</ele>
        <time>1999-07-22T13:14:06Z</time>
      </trkpt>
      <trkpt lat="43.407706" lon="-6.201301">
        <ele>105.487</ele>
        <time>1999-07-22T13:14:09Z</time>
      </trkpt>
      <trkpt lat="43.407685" lon="-6.201571">
        <ele>106.015</ele>
        <time>1999-07-22T13:14:13Z</time>
      </trkpt>
      <trkpt lat="43.407645" lon="-6.201972">
        <ele>106.608</ele>
        <time>1999-07-22T13:14:19Z</time>
      </trkpt>
      <trkpt lat="43.407641" lon="-6.202314">
        <ele>107.294</ele>
        <time>1999-07-22T13:14:24Z</time>
      </trkpt>
      <trkpt lat="43.407631" lon="-6.202452">
        <ele>107.489</ele>
        <time>1999-07-22T13:14:26Z</time>
      </trkpt>
      <trkpt lat="43.407588" lon="-6.203019">
        <ele>108.240</ele>
        <time>1999-07-22T13:14:34Z</time>
      </trkpt>
      <trkpt lat="43.407582" lon="-6.203095">
        <ele>108.426</ele>
        <time>1999-07-22T13:14:35Z</time>
      </trkpt>
      <trkpt lat="43.407561" lon="-6.203322">
        <ele>108.672</ele>
        <time>1999-07-22T13:14:38Z</time>
      </trkpt>
      <trkpt lat="43.407551" lon="-6.203616">
        <ele>108.889</ele>
        <time>1999-07-22T13:14:42Z</time>
      </trkpt>
      <trkpt lat="43.407519" lon="-6.203995">
        <ele>109.486</ele>
        <time>1999-07-22T13:14:47Z</time>
      </trkpt>
      <trkpt lat="43.407504" lon="-6.204144">
        <ele>109.612</ele>
        <time>1999-07-22T13:14:49Z</time>
      </trkpt>
      <trkpt lat="43.407471" lon="-6.204365">
        <ele>109.881</ele>
        <time>1999-07-22T13:14:52Z</time>
      </trkpt>
      <trkpt lat="43.407462" lon="-6.204515">
        <ele>110.061</ele>
        <time>1999-07-22T13:14:54Z</time>
      </trkpt>
      <trkpt lat="43.407460" lon="-6.204662">
        <ele>110.017</ele>
        <time>1999-07-22T13:14:56Z</time>
      </trkpt>
      <trkpt lat="43.407460" lon="-6.204735">
        <ele>110.408</ele>
        <time>1999-07-22T13:14:57Z</time>
      </trkpt>
      <trkpt lat="43.407452" lon="-6.204807">
        <ele>110.461</ele>
        <time>1999-07-22T13:14:58Z</time>
      </trkpt>
      <trkpt lat="43.407419" lon="-6.205021">
        <ele>110.686</ele>
        <time>1999-07-22T13:15:01Z</time>
      </trkpt>
      <trkpt lat="43.407402" lon="-6.205245">
        <ele>110.837</ele>
        <time>1999-07-22T13:15:04Z</time>
      </trkpt>
      <trkpt lat="43.407377" lon="-6.205764">
        <ele>111.453</ele>
        <time>1999-07-22T13:15:11Z</time>
      </trkpt>
      <trkpt lat="43.407371" lon="-6.205912">
        <ele>111.839</ele>
        <time>1999-07-22T13:15:13Z</time>
      </trkpt>
      <trkpt lat="43.407366" lon="-6.206058">
        <ele>112.096</ele>
        <time>1999-07-22T13:15:15Z</time>
      </trkpt>
      <trkpt lat="43.407350" lon="-6.206273">
        <ele>112.293</ele>
        <time>1999-07-22T13:15:18Z</time>
      </trkpt>
      <trkpt lat="43.407327" lon="-6.206622">
        <ele>112.859</ele>
        <time>1999-07-22T13:15:23Z</time>
      </trkpt>
      <trkpt lat="43.407318" lon="-6.206830">
        <ele>113.251</ele>
        <time>1999-07-22T13:15:26Z</time>
      </trkpt>
      <trkpt lat="43.407294" lon="-6.207177">
        <ele>113.801</ele>
        <time>1999-07-22T13:15:31Z</time>
      </trkpt>
      <trkpt lat="43.407273" lon="-6.207520">
        <ele>114.611</ele>
        <time>1999-07-22T13:15:36Z</time>
      </trkpt>
      <trkpt lat="43.407260" lon="-6.207658">
        <ele>115.008</ele>
        <time>1999-07-22T13:15:38Z</time>
      </trkpt>
      <trkpt lat="43.407247" lon="-6.207797">
        <ele>115.248</ele>
        <time>1999-07-22T13:15:40Z</time>
      </trkpt>
      <trkpt lat="43.407224" lon="-6.208006">
        <ele>115.653</ele>
        <time>1999-07-22T13:15:43Z</time>
      </trkpt>
      <trkpt lat="43.407209" lon="-6.208150">
        <ele>116.064</ele>
        <time>1999-07-22T13:15:45Z</time>
      </trkpt>
      <trkpt lat="43.407180" lon="-6.208599">
        <ele>116.450</ele>
        <time>1999-07-22T13:15:51Z</time>
      </trkpt>
      <trkpt lat="43.407167" lon="-6.208902">
        <ele>116.846</ele>
        <time>1999-07-22T13:15:55Z</time>
      </trkpt>
      <trkpt lat="43.407156" lon="-6.208979">
        <ele>117.253</ele>
        <time>1999-07-22T13:15:56Z</time>
      </trkpt>
      <trkpt lat="43.407148" lon="-6.209054">
        <ele>117.420</ele>
        <time>1999-07-22T13:15:57Z</time>
      </trkpt>
      <trkpt lat="43.407133" lon="-6.209206">
        <ele>117.456</ele>
        <time>1999-07-22T13:15:59Z</time>
      </trkpt>
      <trkpt lat="43.407120" lon="-6.209399">
        <ele>117.888</ele>
        <time>1999-07-22T13:16:02Z</time>
      </trkpt>
      <trkpt lat="43.407058" lon="-6.209833">
        <ele>118.624</ele>
        <time>1999-07-22T13:16:09Z</time>
      </trkpt>
      <trkpt lat="43.407047" lon="-6.209895">
        <ele>119.026</ele>
        <time>1999-07-22T13:16:10Z</time>
      </trkpt>
      <trkpt lat="43.407015" lon="-6.210076">
        <ele>119.608</ele>
        <time>1999-07-22T13:16:13Z</time>
      </trkpt>
      <trkpt lat="43.406984" lon="-6.210232">
        <ele>120.281</ele>
        <time>1999-07-22T13:16:16Z</time>
      </trkpt>
      <trkpt lat="43.406948" lon="-6.210497">
        <ele>120.676</ele>
        <time>1999-07-22T13:16:20Z</time>
      </trkpt>
      <trkpt lat="43.406942" lon="-6.210567">
        <ele>120.857</ele>
        <time>1999-07-22T13:16:21Z</time>
      </trkpt>
      <trkpt lat="43.406888" lon="-6.210924">
        <ele>120.873</ele>
        <time>1999-07-22T13:16:26Z</time>
      </trkpt>
      <trkpt lat="43.406868" lon="-6.210997">
        <ele>121.039</ele>
        <time>1999-07-22T13:16:27Z</time>
      </trkpt>
      <trkpt lat="43.406762" lon="-6.211264">
        <ele>121.026</ele>
        <time>1999-07-22T13:16:31Z</time>
      </trkpt>
      <trkpt lat="43.406683" lon="-6.211382">
        <ele>121.023</ele>
        <time>1999-07-22T13:16:33Z</time>
      </trkpt>
      <trkpt lat="43.406443" lon="-6.211702">
        <ele>121.299</ele>
        <time>1999-07-22T13:16:39Z</time>
      </trkpt>
      <trkpt lat="43.406412" lon="-6.211756">
        <ele>121.243</ele>
        <time>1999-07-22T13:16:40Z</time>
      </trkpt>
      <trkpt lat="43.406215" lon="-6.212101">
        <ele>121.664</ele>
        <time>1999-07-22T13:16:46Z</time>
      </trkpt>
      <trkpt lat="43.406179" lon="-6.212158">
        <ele>121.810</ele>
        <time>1999-07-22T13:16:47Z</time>
      </trkpt>
      <trkpt lat="43.406046" lon="-6.212395">
        <ele>122.208</ele>
        <time>1999-07-22T13:16:51Z</time>
      </trkpt>
      <trkpt lat="43.405992" lon="-6.212527">
        <ele>122.637</ele>
        <time>1999-07-22T13:16:53Z</time>
      </trkpt>
      <trkpt lat="43.405957" lon="-6.212595">
        <ele>122.852</ele>
        <time>1999-07-22T13:16:54Z</time>
      </trkpt>
      <trkpt lat="43.405824" lon="-6.212823">
        <ele>123.413</ele>
        <time>1999-07-22T13:16:58Z</time>
      </trkpt>
      <trkpt lat="43.405784" lon="-6.212876">
        <ele>123.689</ele>
        <time>1999-07-22T13:16:59Z</time>
      </trkpt>
      <trkpt lat="43.405666" lon="-6.213033">
        <ele>123.845</ele>
        <time>1999-07-22T13:17:02Z</time>
      </trkpt>
      <trkpt lat="43.405463" lon="-6.213311">
        <ele>124.282</ele>
        <time>1999-07-22T13:17:07Z</time>
      </trkpt>
      <trkpt lat="43.405307" lon="-6.213528">
        <ele>124.629</ele>
        <time>1999-07-22T13:17:11Z</time>
      </trkpt>
      <trkpt lat="43.405275" lon="-6.213576">
        <ele>124.815</ele>
        <time>1999-07-22T13:17:12Z</time>
      </trkpt>
      <trkpt lat="43.405242" lon="-6.213625">
        <ele>124.838</ele>
        <time>1999-07-22T13:17:13Z</time>
      </trkpt>
      <trkpt lat="43.405091" lon="-6.213969">
        <ele>125.070</ele>
        <time>1999-07-22T13:17:19Z</time>
      </trkpt>
      <trkpt lat="43.405074" lon="-6.214030">
        <ele>125.217</ele>
        <time>1999-07-22T13:17:20Z</time>
      </trkpt>
      <trkpt lat="43.405016" lon="-6.214232">
        <ele>125.608</ele>
        <time>1999-07-22T13:17:23Z</time>
      </trkpt>
      <trkpt lat="43.405004" lon="-6.214300">
        <ele>125.816</ele>
        <time>1999-07-22T13:17:24Z</time>
      </trkpt>
      <trkpt lat="43.404978" lon="-6.214724">
        <ele>126.411</ele>
        <time>1999-07-22T13:17:30Z</time>
      </trkpt>
      <trkpt lat="43.404978" lon="-6.214953">
        <ele>126.852</ele>
        <time>1999-07-22T13:17:34Z</time>
      </trkpt>
      <trkpt lat="43.404980" lon="-6.215024">
        <ele>126.888</ele>
        <time>1999-07-22T13:17:35Z</time>
      </trkpt>
      <trkpt lat="43.404966" lon="-6.215349">
        <ele>127.274</ele>
        <time>1999-07-22T13:17:39Z</time>
      </trkpt>
      <trkpt lat="43.404959" lon="-6.215431">
        <ele>127.281</ele>
        <time>1999-07-22T13:17:40Z</time>
      </trkpt>
      <trkpt lat="43.404938" lon="-6.215588">
        <ele>127.218</ele>
        <time>1999-07-22T13:17:42Z</time>
      </trkpt>
      <trkpt lat="43.404874" lon="-6.215945">
        <ele>127.414</ele>
        <time>1999-07-22T13:17:47Z</time>
      </trkpt>
      <trkpt lat="43.404837" lon="-6.216134">
        <ele>127.839</ele>
        <time>1999-07-22T13:17:50Z</time>
      </trkpt>
      <trkpt lat="43.404798" lon="-6.216323">
        <ele>128.401</ele>
        <time>1999-07-22T13:17:53Z</time>
      </trkpt>
      <trkpt lat="43.404762" lon="-6.216455">
        <ele>129.221</ele>
        <time>1999-07-22T13:17:55Z</time>
      </trkpt>
      <trkpt lat="43.404674" lon="-6.216738">
        <ele>129.608</ele>
        <time>1999-07-22T13:17:59Z</time>
      </trkpt>
      <trkpt lat="43.404633" lon="-6.217017">
        <ele>130.256</ele>
        <time>1999-07-22T13:18:03Z</time>
      </trkpt>
      <trkpt lat="43.404626" lon="-6.217156">
        <ele>130.271</ele>
        <time>1999-07-22T13:18:05Z</time>
      </trkpt>
      <trkpt lat="43.404625" lon="-6.217232">
        <ele>130.262</ele>
        <time>1999-07-22T13:18:06Z</time>
      </trkpt>
      <trkpt lat="43.404649" lon="-6.217627">
        <ele>130.818</ele>
        <time>1999-07-22T13:18:12Z</time>
      </trkpt>
      <trkpt lat="43.404612" lon="-6.217767">
        <ele>131.074</ele>
        <time>1999-07-22T13:18:16Z</time>
      </trkpt>
      <trkpt lat="43.404593" lon="-6.217815">
        <ele>131.051</ele>
        <time>1999-07-22T13:18:19Z</time>
      </trkpt>
      <trkpt lat="43.404587" lon="-6.217874">
        <ele>131.268</ele>
        <time>1999-07-22T13:18:22Z</time>
      </trkpt>
      <trkpt lat="43.404585" lon="-6.217938">
        <ele>132.214</ele>
        <time>1999-07-22T13:18:26Z</time>
      </trkpt>
      <trkpt lat="43.404591" lon="-6.217966">
        <ele>132.888</ele>
        <time>1999-07-22T13:18:28Z</time>
      </trkpt>
      <trkpt lat="43.404590" lon="-6.218004">
        <ele>133.424</ele>
        <time>1999-07-22T13:18:30Z</time>
      </trkpt>
      <trkpt lat="43.404571" lon="-6.218078">
        <ele>134.626</ele>
        <time>1999-07-22T13:18:34Z</time>
      </trkpt>
      <trkpt lat="43.404558" lon="-6.218131">
        <ele>135.608</ele>
        <time>1999-07-22T13:18:37Z</time>
      </trkpt>
      <trkpt lat="43.404556" lon="-6.218142">
        <ele>136.091</ele>
        <time>1999-07-22T13:18:38Z</time>
      </trkpt>
      <trkpt lat="43.404552" lon="-6.218211">
        <ele>137.086</ele>
        <time>1999-07-22T13:18:42Z</time>
      </trkpt>
      <trkpt lat="43.404531" lon="-6.218299">
        <ele>138.277</ele>
        <time>1999-07-22T13:18:47Z</time>
      </trkpt>
      <trkpt lat="43.404518" lon="-6.218334">
        <ele>138.833</ele>
        <time>1999-07-22T13:18:49Z</time>
      </trkpt>
      <trkpt lat="43.404505" lon="-6.218373">
        <ele>139.259</ele>
        <time>1999-07-22T13:18:51Z</time>
      </trkpt>
      <trkpt lat="43.404479" lon="-6.218433">
        <ele>140.446</ele>
        <time>1999-07-22T13:18:54Z</time>
      </trkpt>
      <trkpt lat="43.404434" lon="-6.218522">
        <ele>141.473</ele>
        <time>1999-07-22T13:18:59Z</time>
      </trkpt>
      <trkpt lat="43.404428" lon="-6.218533">
        <ele>141.679</ele>
        <time>1999-07-22T13:19:00Z</time>
      </trkpt>
      <trkpt lat="43.404385" lon="-6.218578">
        <ele>142.641</ele>
        <time>1999-07-22T13:19:05Z</time>
      </trkpt>
      <trkpt lat="43.404338" lon="-6.218604">
        <ele>143.681</ele>
        <time>1999-07-22T13:19:10Z</time>
      </trkpt>
      <trkpt lat="43.404325" lon="-6.218606">
        <ele>143.809</ele>
        <time>1999-07-22T13:19:11Z</time>
      </trkpt>
      <trkpt lat="43.404284" lon="-6.218636">
        <ele>144.608</ele>
        <time>1999-07-22T13:19:15Z</time>
      </trkpt>
      <trkpt lat="43.404270" lon="-6.218649">
        <ele>144.897</ele>
        <time>1999-07-22T13:19:16Z</time>
      </trkpt>
      <trkpt lat="43.404241" lon="-6.218681">
        <ele>145.622</ele>
        <time>1999-07-22T13:19:19Z</time>
      </trkpt>
      <trkpt lat="43.404236" lon="-6.218690">
        <ele>145.813</ele>
        <time>1999-07-22T13:19:20Z</time>
      </trkpt>
      <trkpt lat="43.404216" lon="-6.218718">
        <ele>147.049</ele>
        <time>1999-07-22T13:19:22Z</time>
      </trkpt>
      <trkpt lat="43.404184" lon="-6.218784">
        <ele>148.055</ele>
        <time>1999-07-22T13:19:26Z</time>
      </trkpt>
      <trkpt lat="43.404153" lon="-6.218833">
        <ele>149.262</ele>
        <time>1999-07-22T13:19:29Z</time>
      </trkpt>
      <trkpt lat="43.404112" lon="-6.218947">
        <ele>149.619</ele>
        <time>1999-07-22T13:19:33Z</time>
      </trkpt>
      <trkpt lat="43.404099" lon="-6.218995">
        <ele>149.685</ele>
        <time>1999-07-22T13:19:35Z</time>
      </trkpt>
      <trkpt lat="43.404090" lon="-6.219012">
        <ele>149.672</ele>
        <time>1999-07-22T13:19:36Z</time>
      </trkpt>
      <trkpt lat="43.404081" lon="-6.219058">
        <ele>149.613</ele>
        <time>1999-07-22T13:19:38Z</time>
      </trkpt>
      <trkpt lat="43.404099" lon="-6.219133">
        <ele>148.814</ele>
        <time>1999-07-22T13:19:40Z</time>
      </trkpt>
      <trkpt lat="43.404114" lon="-6.219177">
        <ele>148.608</ele>
        <time>1999-07-22T13:19:41Z</time>
      </trkpt>
      <trkpt lat="43.404131" lon="-6.219256">
        <ele>147.660</ele>
        <time>1999-07-22T13:19:43Z</time>
      </trkpt>
      <trkpt lat="43.404146" lon="-6.219294">
        <ele>147.275</ele>
        <time>1999-07-22T13:19:44Z</time>
      </trkpt>
      <trkpt lat="43.404153" lon="-6.219395">
        <ele>146.686</ele>
        <time>1999-07-22T13:19:46Z</time>
      </trkpt>
      <trkpt lat="43.404152" lon="-6.219440">
        <ele>146.032</ele>
        <time>1999-07-22T13:19:47Z</time>
      </trkpt>
      <trkpt lat="43.404127" lon="-6.219490">
        <ele>145.478</ele>
        <time>1999-07-22T13:19:48Z</time>
      </trkpt>
      <trkpt lat="43.404119" lon="-6.219535">
        <ele>144.635</ele>
        <time>1999-07-22T13:19:49Z</time>
      </trkpt>
      <trkpt lat="43.404107" lon="-6.219554">
        <ele>144.072</ele>
        <time>1999-07-22T13:19:50Z</time>
      </trkpt>
      <trkpt lat="43.404084" lon="-6.219590">
        <ele>142.668</ele>
        <time>1999-07-22T13:19:52Z</time>
      </trkpt>
      <trkpt lat="43.404064" lon="-6.219631">
        <ele>141.424</ele>
        <time>1999-07-22T13:19:54Z</time>
      </trkpt>
      <trkpt lat="43.404067" lon="-6.219687">
        <ele>140.804</ele>
        <time>1999-07-22T13:19:58Z</time>
      </trkpt>
      <trkpt lat="43.404066" lon="-6.219689">
        <ele>140.814</ele>
        <time>1999-07-22T13:19:59Z</time>
      </trkpt>
      <trkpt lat="43.404234" lon="-6.220257">
        <ele>147.008</ele>
        <time>1999-07-22T13:21:23Z</time>
      </trkpt>
      <trkpt lat="43.404240" lon="-6.220291">
        <ele>147.065</ele>
        <time>1999-07-22T13:21:24Z</time>
      </trkpt>
      <trkpt lat="43.404247" lon="-6.220327">
        <ele>147.020</ele>
        <time>1999-07-22T13:21:25Z</time>
      </trkpt>
      <trkpt lat="43.404257" lon="-6.220490">
        <ele>147.041</ele>
        <time>1999-07-22T13:21:29Z</time>
      </trkpt>
      <trkpt lat="43.404266" lon="-6.220531">
        <ele>147.037</ele>
        <time>1999-07-22T13:21:30Z</time>
      </trkpt>
      <trkpt lat="43.404274" lon="-6.220575">
        <ele>147.033</ele>
        <time>1999-07-22T13:21:31Z</time>
      </trkpt>
      <trkpt lat="43.404275" lon="-6.220621">
        <ele>147.010</ele>
        <time>1999-07-22T13:21:32Z</time>
      </trkpt>
      <trkpt lat="43.404272" lon="-6.220743">
        <ele>147.077</ele>
        <time>1999-07-22T13:21:35Z</time>
      </trkpt>
      <trkpt lat="43.404272" lon="-6.220778">
        <ele>147.073</ele>
        <time>1999-07-22T13:21:36Z</time>
      </trkpt>
      <trkpt lat="43.404272" lon="-6.220837">
        <ele>147.098</ele>
        <time>1999-07-22T13:21:38Z</time>
      </trkpt>
      <trkpt lat="43.404274" lon="-6.220942">
        <ele>147.215</ele>
        <time>1999-07-22T13:21:41Z</time>
      </trkpt>
      <trkpt lat="43.404272" lon="-6.221147">
        <ele>147.826</ele>
        <time>1999-07-22T13:21:46Z</time>
      </trkpt>
      <trkpt lat="43.404274" lon="-6.221305">
        <ele>148.208</ele>
        <time>1999-07-22T13:21:49Z</time>
      </trkpt>
      <trkpt lat="43.404281" lon="-6.221368">
        <ele>148.432</ele>
        <time>1999-07-22T13:21:50Z</time>
      </trkpt>
      <trkpt lat="43.404284" lon="-6.221438">
        <ele>148.447</ele>
        <time>1999-07-22T13:21:51Z</time>
      </trkpt>
      <trkpt lat="43.404297" lon="-6.221568">
        <ele>148.498</ele>
        <time>1999-07-22T13:21:53Z</time>
      </trkpt>
      <trkpt lat="43.404317" lon="-6.221805">
        <ele>148.434</ele>
        <time>1999-07-22T13:21:57Z</time>
      </trkpt>
      <trkpt lat="43.404355" lon="-6.222102">
        <ele>148.650</ele>
        <time>1999-07-22T13:22:02Z</time>
      </trkpt>
      <trkpt lat="43.404356" lon="-6.222419">
        <ele>148.887</ele>
        <time>1999-07-22T13:22:07Z</time>
      </trkpt>
      <trkpt lat="43.404413" lon="-6.222681">
        <ele>149.234</ele>
        <time>1999-07-22T13:22:12Z</time>
      </trkpt>
      <trkpt lat="43.404429" lon="-6.222843">
        <ele>149.210</ele>
        <time>1999-07-22T13:22:15Z</time>
      </trkpt>
      <trkpt lat="43.404444" lon="-6.222976">
        <ele>149.287</ele>
        <time>1999-07-22T13:22:17Z</time>
      </trkpt>
      <trkpt lat="43.404454" lon="-6.223034">
        <ele>149.442</ele>
        <time>1999-07-22T13:22:18Z</time>
      </trkpt>
      <trkpt lat="43.404487" lon="-6.223143">
        <ele>149.426</ele>
        <time>1999-07-22T13:22:20Z</time>
      </trkpt>
      <trkpt lat="43.404518" lon="-6.223331">
        <ele>149.408</ele>
        <time>1999-07-22T13:22:23Z</time>
      </trkpt>
      <trkpt lat="43.404543" lon="-6.223437">
        <ele>149.061</ele>
        <time>1999-07-22T13:22:26Z</time>
      </trkpt>
      <trkpt lat="43.404543" lon="-6.223535">
        <ele>148.436</ele>
        <time>1999-07-22T13:22:32Z</time>
      </trkpt>
      <trkpt lat="43.404583" lon="-6.223710">
        <ele>148.277</ele>
        <time>1999-07-22T13:22:43Z</time>
      </trkpt>
      <trkpt lat="43.404585" lon="-6.223767">
        <ele>148.253</ele>
        <time>1999-07-22T13:22:45Z</time>
      </trkpt>
      <trkpt lat="43.404598" lon="-6.223836">
        <ele>148.229</ele>
        <time>1999-07-22T13:22:48Z</time>
      </trkpt>
      <trkpt lat="43.404648" lon="-6.224043">
        <ele>148.836</ele>
        <time>1999-07-22T13:22:53Z</time>
      </trkpt>
      <trkpt lat="43.404618" lon="-6.224211">
        <ele>149.063</ele>
        <time>1999-07-22T13:22:56Z</time>
      </trkpt>
      <trkpt lat="43.404613" lon="-6.224260">
        <ele>149.049</ele>
        <time>1999-07-22T13:22:57Z</time>
      </trkpt>
      <trkpt lat="43.404608" lon="-6.224353">
        <ele>149.016</ele>
        <time>1999-07-22T13:22:59Z</time>
      </trkpt>
      <trkpt lat="43.404640" lon="-6.224465">
        <ele>148.876</ele>
        <time>1999-07-22T13:23:03Z</time>
      </trkpt>
      <trkpt lat="43.404661" lon="-6.224555">
        <ele>146.813</ele>
        <time>1999-07-22T13:23:07Z</time>
      </trkpt>
      <trkpt lat="43.404686" lon="-6.224610">
        <ele>146.208</ele>
        <time>1999-07-22T13:23:09Z</time>
      </trkpt>
      <trkpt lat="43.404713" lon="-6.224670">
        <ele>146.084</ele>
        <time>1999-07-22T13:23:11Z</time>
      </trkpt>
      <trkpt lat="43.404747" lon="-6.224744">
        <ele>146.049</ele>
        <time>1999-07-22T13:23:13Z</time>
      </trkpt>
      <trkpt lat="43.404792" lon="-6.224807">
        <ele>146.080</ele>
        <time>1999-07-22T13:23:15Z</time>
      </trkpt>
      <trkpt lat="43.404914" lon="-6.225029">
        <ele>147.046</ele>
        <time>1999-07-22T13:23:20Z</time>
      </trkpt>
      <trkpt lat="43.405015" lon="-6.225264">
        <ele>147.262</ele>
        <time>1999-07-22T13:23:25Z</time>
      </trkpt>
      <trkpt lat="43.405068" lon="-6.225431">
        <ele>147.469</ele>
        <time>1999-07-22T13:23:29Z</time>
      </trkpt>
      <trkpt lat="43.405090" lon="-6.225607">
        <ele>147.426</ele>
        <time>1999-07-22T13:23:34Z</time>
      </trkpt>
      <trkpt lat="43.405133" lon="-6.225731">
        <ele>147.472</ele>
        <time>1999-07-22T13:23:37Z</time>
      </trkpt>
      <trkpt lat="43.405179" lon="-6.225813">
        <ele>147.465</ele>
        <time>1999-07-22T13:23:39Z</time>
      </trkpt>
      <trkpt lat="43.405257" lon="-6.225923">
        <ele>147.668</ele>
        <time>1999-07-22T13:23:42Z</time>
      </trkpt>
      <trkpt lat="43.405340" lon="-6.226082">
        <ele>148.414</ele>
        <time>1999-07-22T13:23:46Z</time>
      </trkpt>
      <trkpt lat="43.405380" lon="-6.226187">
        <ele>148.808</ele>
        <time>1999-07-22T13:23:50Z</time>
      </trkpt>
      <trkpt lat="43.405406" lon="-6.226340">
        <ele>149.619</ele>
        <time>1999-07-22T13:23:56Z</time>
      </trkpt>
      <trkpt lat="43.405429" lon="-6.226452">
        <ele>150.864</ele>
        <time>1999-07-22T13:24:00Z</time>
      </trkpt>
      <trkpt lat="43.405474" lon="-6.226537">
        <ele>151.665</ele>
        <time>1999-07-22T13:24:03Z</time>
      </trkpt>
      <trkpt lat="43.405509" lon="-6.226595">
        <ele>152.011</ele>
        <time>1999-07-22T13:24:05Z</time>
      </trkpt>
      <trkpt lat="43.405566" lon="-6.226706">
        <ele>152.837</ele>
        <time>1999-07-22T13:24:08Z</time>
      </trkpt>
      <trkpt lat="43.405595" lon="-6.226808">
        <ele>153.244</ele>
        <time>1999-07-22T13:24:10Z</time>
      </trkpt>
      <trkpt lat="43.405643" lon="-6.226984">
        <ele>153.231</ele>
        <time>1999-07-22T13:24:13Z</time>
      </trkpt>
      <trkpt lat="43.405700" lon="-6.227250">
        <ele>153.297</ele>
        <time>1999-07-22T13:24:18Z</time>
      </trkpt>
      <trkpt lat="43.405692" lon="-6.227465">
        <ele>153.021</ele>
        <time>1999-07-22T13:24:21Z</time>
      </trkpt>
      <trkpt lat="43.405655" lon="-6.227635">
        <ele>153.041</ele>
        <time>1999-07-22T13:24:23Z</time>
      </trkpt>
      <trkpt lat="43.405597" lon="-6.227886">
        <ele>153.005</ele>
        <time>1999-07-22T13:24:25Z</time>
      </trkpt>
      <trkpt lat="43.405578" lon="-6.228009">
        <ele>152.808</ele>
        <time>1999-07-22T13:24:26Z</time>
      </trkpt>
      <trkpt lat="43.405542" lon="-6.228256">
        <ele>152.885</ele>
        <time>1999-07-22T13:24:28Z</time>
      </trkpt>
      <trkpt lat="43.405520" lon="-6.228459">
        <ele>152.690</ele>
        <time>1999-07-22T13:24:30Z</time>
      </trkpt>
      <trkpt lat="43.405547" lon="-6.228522">
        <ele>152.461</ele>
        <time>1999-07-22T13:24:31Z</time>
      </trkpt>
      <trkpt lat="43.405555" lon="-6.228587">
        <ele>152.067</ele>
        <time>1999-07-22T13:24:32Z</time>
      </trkpt>
      <trkpt lat="43.405556" lon="-6.228661">
        <ele>151.223</ele>
        <time>1999-07-22T13:24:33Z</time>
      </trkpt>
      <trkpt lat="43.405555" lon="-6.228729">
        <ele>150.680</ele>
        <time>1999-07-22T13:24:34Z</time>
      </trkpt>
      <trkpt lat="43.405547" lon="-6.228796">
        <ele>149.827</ele>
        <time>1999-07-22T13:24:35Z</time>
      </trkpt>
      <trkpt lat="43.405534" lon="-6.228863">
        <ele>149.293</ele>
        <time>1999-07-22T13:24:36Z</time>
      </trkpt>
      <trkpt lat="43.405522" lon="-6.228984">
        <ele>148.892</ele>
        <time>1999-07-22T13:24:38Z</time>
      </trkpt>
      <trkpt lat="43.405527" lon="-6.229044">
        <ele>148.673</ele>
        <time>1999-07-22T13:24:39Z</time>
      </trkpt>
      <trkpt lat="43.405535" lon="-6.229100">
        <ele>148.620</ele>
        <time>1999-07-22T13:24:40Z</time>
      </trkpt>
      <trkpt lat="43.405545" lon="-6.229157">
        <ele>148.408</ele>
        <time>1999-07-22T13:24:41Z</time>
      </trkpt>
      <trkpt lat="43.405561" lon="-6.229268">
        <ele>148.222</ele>
        <time>1999-07-22T13:24:43Z</time>
      </trkpt>
      <trkpt lat="43.405573" lon="-6.229422">
        <ele>148.057</ele>
        <time>1999-07-22T13:24:46Z</time>
      </trkpt>
      <trkpt lat="43.405558" lon="-6.229466">
        <ele>147.848</ele>
        <time>1999-07-22T13:24:47Z</time>
      </trkpt>
      <trkpt lat="43.405427" lon="-6.229633">
        <ele>147.884</ele>
        <time>1999-07-22T13:24:52Z</time>
      </trkpt>
      <trkpt lat="43.405404" lon="-6.229659">
        <ele>148.070</ele>
        <time>1999-07-22T13:24:53Z</time>
      </trkpt>
      <trkpt lat="43.405283" lon="-6.229805">
        <ele>148.077</ele>
        <time>1999-07-22T13:24:58Z</time>
      </trkpt>
      <trkpt lat="43.405253" lon="-6.229845">
        <ele>148.084</ele>
        <time>1999-07-22T13:24:59Z</time>
      </trkpt>
      <trkpt lat="43.405192" lon="-6.229923">
        <ele>148.020</ele>
        <time>1999-07-22T13:25:01Z</time>
      </trkpt>
      <trkpt lat="43.405105" lon="-6.230064">
        <ele>148.243</ele>
        <time>1999-07-22T13:25:04Z</time>
      </trkpt>
      <trkpt lat="43.405051" lon="-6.230164">
        <ele>148.664</ele>
        <time>1999-07-22T13:25:06Z</time>
      </trkpt>
      <trkpt lat="43.405030" lon="-6.230216">
        <ele>148.610</ele>
        <time>1999-07-22T13:25:07Z</time>
      </trkpt>
      <trkpt lat="43.404968" lon="-6.230376">
        <ele>148.808</ele>
        <time>1999-07-22T13:25:10Z</time>
      </trkpt>
      <trkpt lat="43.404906" lon="-6.230533">
        <ele>149.027</ele>
        <time>1999-07-22T13:25:13Z</time>
      </trkpt>
      <trkpt lat="43.404828" lon="-6.230674">
        <ele>149.472</ele>
        <time>1999-07-22T13:25:16Z</time>
      </trkpt>
      <trkpt lat="43.404709" lon="-6.230844">
        <ele>149.643</ele>
        <time>1999-07-22T13:25:20Z</time>
      </trkpt>
      <trkpt lat="43.404623" lon="-6.230969">
        <ele>150.049</ele>
        <time>1999-07-22T13:25:23Z</time>
      </trkpt>
      <trkpt lat="43.404577" lon="-6.231057">
        <ele>150.055</ele>
        <time>1999-07-22T13:25:25Z</time>
      </trkpt>
      <trkpt lat="43.404430" lon="-6.231360">
        <ele>151.042</ele>
        <time>1999-07-22T13:25:32Z</time>
      </trkpt>
      <trkpt lat="43.404389" lon="-6.231441">
        <ele>151.689</ele>
        <time>1999-07-22T13:25:34Z</time>
      </trkpt>
      <trkpt lat="43.404327" lon="-6.231561">
        <ele>152.215</ele>
        <time>1999-07-22T13:25:37Z</time>
      </trkpt>
      <trkpt lat="43.404236" lon="-6.231771">
        <ele>153.022</ele>
        <time>1999-07-22T13:25:42Z</time>
      </trkpt>
      <trkpt lat="43.404219" lon="-6.231804">
        <ele>153.262</ele>
        <time>1999-07-22T13:25:43Z</time>
      </trkpt>
      <trkpt lat="43.404142" lon="-6.231956">
        <ele>154.608</ele>
        <time>1999-07-22T13:25:47Z</time>
      </trkpt>
      <trkpt lat="43.404095" lon="-6.232036">
        <ele>155.008</ele>
        <time>1999-07-22T13:25:49Z</time>
      </trkpt>
      <trkpt lat="43.404023" lon="-6.232123">
        <ele>155.655</ele>
        <time>1999-07-22T13:25:52Z</time>
      </trkpt>
      <trkpt lat="43.403994" lon="-6.232131">
        <ele>155.810</ele>
        <time>1999-07-22T13:25:53Z</time>
      </trkpt>
      <trkpt lat="43.403874" lon="-6.232133">
        <ele>156.211</ele>
        <time>1999-07-22T13:25:56Z</time>
      </trkpt>
      <trkpt lat="43.403792" lon="-6.232120">
        <ele>156.827</ele>
        <time>1999-07-22T13:25:58Z</time>
      </trkpt>
      <trkpt lat="43.403643" lon="-6.232126">
        <ele>157.023</ele>
        <time>1999-07-22T13:26:01Z</time>
      </trkpt>
      <trkpt lat="43.403599" lon="-6.232146">
        <ele>157.060</ele>
        <time>1999-07-22T13:26:02Z</time>
      </trkpt>
      <trkpt lat="43.403516" lon="-6.232193">
        <ele>157.017</ele>
        <time>1999-07-22T13:26:04Z</time>
      </trkpt>
      <trkpt lat="43.403445" lon="-6.232267">
        <ele>157.023</ele>
        <time>1999-07-22T13:26:06Z</time>
      </trkpt>
      <trkpt lat="43.403379" lon="-6.232338">
        <ele>157.058</ele>
        <time>1999-07-22T13:26:09Z</time>
      </trkpt>
      <trkpt lat="43.403371" lon="-6.232351">
        <ele>157.052</ele>
        <time>1999-07-22T13:26:10Z</time>
      </trkpt>
      <trkpt lat="43.403363" lon="-6.232356">
        <ele>157.017</ele>
        <time>1999-07-22T13:26:11Z</time>
      </trkpt>
      <trkpt lat="43.403298" lon="-6.232351">
        <ele>157.008</ele>
        <time>1999-07-22T13:26:14Z</time>
      </trkpt>
      <trkpt lat="43.403241" lon="-6.232357">
        <ele>157.058</ele>
        <time>1999-07-22T13:26:16Z</time>
      </trkpt>
      <trkpt lat="43.403178" lon="-6.232362">
        <ele>157.073</ele>
        <time>1999-07-22T13:26:18Z</time>
      </trkpt>
      <trkpt lat="43.403110" lon="-6.232363">
        <ele>157.044</ele>
        <time>1999-07-22T13:26:20Z</time>
      </trkpt>
      <trkpt lat="43.402945" lon="-6.232402">
        <ele>157.290</ele>
        <time>1999-07-22T13:26:24Z</time>
      </trkpt>
      <trkpt lat="43.402819" lon="-6.232417">
        <ele>157.276</ele>
        <time>1999-07-22T13:26:27Z</time>
      </trkpt>
      <trkpt lat="43.402649" lon="-6.232444">
        <ele>157.293</ele>
        <time>1999-07-22T13:26:31Z</time>
      </trkpt>
      <trkpt lat="43.402570" lon="-6.232484">
        <ele>157.290</ele>
        <time>1999-07-22T13:26:33Z</time>
      </trkpt>
      <trkpt lat="43.402461" lon="-6.232579">
        <ele>157.226</ele>
        <time>1999-07-22T13:26:36Z</time>
      </trkpt>
      <trkpt lat="43.402346" lon="-6.232651">
        <ele>157.252</ele>
        <time>1999-07-22T13:26:39Z</time>
      </trkpt>
      <trkpt lat="43.402257" lon="-6.232683">
        <ele>157.453</ele>
        <time>1999-07-22T13:26:41Z</time>
      </trkpt>
      <trkpt lat="43.402211" lon="-6.232695">
        <ele>157.408</ele>
        <time>1999-07-22T13:26:42Z</time>
      </trkpt>
      <trkpt lat="43.402166" lon="-6.232708">
        <ele>157.808</ele>
        <time>1999-07-22T13:26:43Z</time>
      </trkpt>
      <trkpt lat="43.402020" lon="-6.232756">
        <ele>158.248</ele>
        <time>1999-07-22T13:26:46Z</time>
      </trkpt>
      <trkpt lat="43.401812" lon="-6.232827">
        <ele>158.833</ele>
        <time>1999-07-22T13:26:50Z</time>
      </trkpt>
      <trkpt lat="43.401650" lon="-6.232883">
        <ele>159.074</ele>
        <time>1999-07-22T13:26:53Z</time>
      </trkpt>
      <trkpt lat="43.401493" lon="-6.232953">
        <ele>159.290</ele>
        <time>1999-07-22T13:26:56Z</time>
      </trkpt>
      <trkpt lat="43.401448" lon="-6.232991">
        <ele>159.226</ele>
        <time>1999-07-22T13:26:57Z</time>
      </trkpt>
      <trkpt lat="43.401152" lon="-6.233252">
        <ele>159.613</ele>
        <time>1999-07-22T13:27:04Z</time>
      </trkpt>
      <trkpt lat="43.401114" lon="-6.233297">
        <ele>159.650</ele>
        <time>1999-07-22T13:27:05Z</time>
      </trkpt>
      <trkpt lat="43.400926" lon="-6.233508">
        <ele>160.296</ele>
        <time>1999-07-22T13:27:10Z</time>
      </trkpt>
      <trkpt lat="43.400689" lon="-6.233694">
        <ele>160.891</ele>
        <time>1999-07-22T13:27:16Z</time>
      </trkpt>
      <trkpt lat="43.400478" lon="-6.233866">
        <ele>161.281</ele>
        <time>1999-07-22T13:27:22Z</time>
      </trkpt>
      <trkpt lat="43.400420" lon="-6.233987">
        <ele>161.219</ele>
        <time>1999-07-22T13:27:25Z</time>
      </trkpt>
      <trkpt lat="43.400406" lon="-6.234029">
        <ele>161.208</ele>
        <time>1999-07-22T13:27:26Z</time>
      </trkpt>
      <trkpt lat="43.400353" lon="-6.234328">
        <ele>161.432</ele>
        <time>1999-07-22T13:27:32Z</time>
      </trkpt>
      <trkpt lat="43.400406" lon="-6.234635">
        <ele>161.887</ele>
        <time>1999-07-22T13:27:38Z</time>
      </trkpt>
      <trkpt lat="43.400462" lon="-6.234750">
        <ele>162.058</ele>
        <time>1999-07-22T13:27:42Z</time>
      </trkpt>
      <trkpt lat="43.400463" lon="-6.234759">
        <ele>162.254</ele>
        <time>1999-07-22T13:27:44Z</time>
      </trkpt>
      <trkpt lat="43.400376" lon="-6.234947">
        <ele>164.080</ele>
        <time>1999-07-22T13:28:32Z</time>
      </trkpt>
      <trkpt lat="43.400355" lon="-6.234968">
        <ele>164.037</ele>
        <time>1999-07-22T13:28:33Z</time>
      </trkpt>
      <trkpt lat="43.400304" lon="-6.235062">
        <ele>163.814</ele>
        <time>1999-07-22T13:28:36Z</time>
      </trkpt>
      <trkpt lat="43.400266" lon="-6.235139">
        <ele>163.820</ele>
        <time>1999-07-22T13:28:38Z</time>
      </trkpt>
      <trkpt lat="43.400179" lon="-6.235331">
        <ele>163.435</ele>
        <time>1999-07-22T13:28:44Z</time>
      </trkpt>
      <trkpt lat="43.400150" lon="-6.235475">
        <ele>163.686</ele>
        <time>1999-07-22T13:28:50Z</time>
      </trkpt>
      <trkpt lat="43.400153" lon="-6.235580">
        <ele>164.214</ele>
        <time>1999-07-22T13:28:55Z</time>
      </trkpt>
      <trkpt lat="43.400165" lon="-6.235645">
        <ele>165.008</ele>
        <time>1999-07-22T13:28:58Z</time>
      </trkpt>
      <trkpt lat="43.400176" lon="-6.235714">
        <ele>166.016</ele>
        <time>1999-07-22T13:29:01Z</time>
      </trkpt>
      <trkpt lat="43.400201" lon="-6.235800">
        <ele>167.221</ele>
        <time>1999-07-22T13:29:05Z</time>
      </trkpt>
      <trkpt lat="43.400202" lon="-6.235821">
        <ele>167.462</ele>
        <time>1999-07-22T13:29:06Z</time>
      </trkpt>
      <trkpt lat="43.400199" lon="-6.235918">
        <ele>168.248</ele>
        <time>1999-07-22T13:29:10Z</time>
      </trkpt>
      <trkpt lat="43.400213" lon="-6.235991">
        <ele>168.824</ele>
        <time>1999-07-22T13:29:13Z</time>
      </trkpt>
      <trkpt lat="43.400227" lon="-6.236038">
        <ele>169.211</ele>
        <time>1999-07-22T13:29:15Z</time>
      </trkpt>
      <trkpt lat="43.400297" lon="-6.236179">
        <ele>169.888</ele>
        <time>1999-07-22T13:29:21Z</time>
      </trkpt>
      <trkpt lat="43.400327" lon="-6.236235">
        <ele>170.264</ele>
        <time>1999-07-22T13:29:23Z</time>
      </trkpt>
      <trkpt lat="43.400331" lon="-6.236319">
        <ele>170.637</ele>
        <time>1999-07-22T13:29:25Z</time>
      </trkpt>
      <trkpt lat="43.400285" lon="-6.236567">
        <ele>171.049</ele>
        <time>1999-07-22T13:29:31Z</time>
      </trkpt>
      <trkpt lat="43.400269" lon="-6.236647">
        <ele>171.413</ele>
        <time>1999-07-22T13:29:33Z</time>
      </trkpt>
      <trkpt lat="43.400285" lon="-6.236808">
        <ele>171.808</ele>
        <time>1999-07-22T13:29:37Z</time>
      </trkpt>
      <trkpt lat="43.400338" lon="-6.237048">
        <ele>172.666</ele>
        <time>1999-07-22T13:29:43Z</time>
      </trkpt>
      <trkpt lat="43.400395" lon="-6.237382">
        <ele>173.211</ele>
        <time>1999-07-22T13:29:50Z</time>
      </trkpt>
      <trkpt lat="43.400399" lon="-6.237591">
        <ele>173.622</ele>
        <time>1999-07-22T13:29:54Z</time>
      </trkpt>
      <trkpt lat="43.400401" lon="-6.237743">
        <ele>174.278</ele>
        <time>1999-07-22T13:29:57Z</time>
      </trkpt>
      <trkpt lat="43.400408" lon="-6.237938">
        <ele>174.644</ele>
        <time>1999-07-22T13:30:01Z</time>
      </trkpt>
      <trkpt lat="43.400421" lon="-6.238027">
        <ele>175.281</ele>
        <time>1999-07-22T13:30:03Z</time>
      </trkpt>
      <trkpt lat="43.400442" lon="-6.238214">
        <ele>175.888</ele>
        <time>1999-07-22T13:30:07Z</time>
      </trkpt>
      <trkpt lat="43.400439" lon="-6.238310">
        <ele>176.454</ele>
        <time>1999-07-22T13:30:09Z</time>
      </trkpt>
      <trkpt lat="43.400417" lon="-6.238401">
        <ele>177.233</ele>
        <time>1999-07-22T13:30:11Z</time>
      </trkpt>
      <trkpt lat="43.400363" lon="-6.238585">
        <ele>177.623</ele>
        <time>1999-07-22T13:30:15Z</time>
      </trkpt>
      <trkpt lat="43.400328" lon="-6.238727">
        <ele>178.215</ele>
        <time>1999-07-22T13:30:18Z</time>
      </trkpt>
      <trkpt lat="43.400237" lon="-6.239033">
        <ele>179.008</ele>
        <time>1999-07-22T13:30:25Z</time>
      </trkpt>
      <trkpt lat="43.400187" lon="-6.239105">
        <ele>179.476</ele>
        <time>1999-07-22T13:30:27Z</time>
      </trkpt>
      <trkpt lat="43.400093" lon="-6.239240">
        <ele>180.041</ele>
        <time>1999-07-22T13:30:31Z</time>
      </trkpt>
      <trkpt lat="43.399996" lon="-6.239417">
        <ele>180.232</ele>
        <time>1999-07-22T13:30:36Z</time>
      </trkpt>
      <trkpt lat="43.399983" lon="-6.239454">
        <ele>180.438</ele>
        <time>1999-07-22T13:30:37Z</time>
      </trkpt>
      <trkpt lat="43.399959" lon="-6.239527">
        <ele>181.014</ele>
        <time>1999-07-22T13:30:39Z</time>
      </trkpt>
      <trkpt lat="43.399950" lon="-6.239565">
        <ele>181.681</ele>
        <time>1999-07-22T13:30:40Z</time>
      </trkpt>
      <trkpt lat="43.399924" lon="-6.239712">
        <ele>182.638</ele>
        <time>1999-07-22T13:30:44Z</time>
      </trkpt>
      <trkpt lat="43.399911" lon="-6.239792">
        <ele>183.464</ele>
        <time>1999-07-22T13:30:46Z</time>
      </trkpt>
      <trkpt lat="43.399907" lon="-6.239834">
        <ele>183.849</ele>
        <time>1999-07-22T13:30:47Z</time>
      </trkpt>
      <trkpt lat="43.399896" lon="-6.239942">
        <ele>185.002</ele>
        <time>1999-07-22T13:30:50Z</time>
      </trkpt>
      <trkpt lat="43.399897" lon="-6.240013">
        <ele>185.822</ele>
        <time>1999-07-22T13:30:52Z</time>
      </trkpt>
      <trkpt lat="43.399903" lon="-6.240049">
        <ele>186.008</ele>
        <time>1999-07-22T13:30:53Z</time>
      </trkpt>
      <trkpt lat="43.399958" lon="-6.240198">
        <ele>187.097</ele>
        <time>1999-07-22T13:30:57Z</time>
      </trkpt>
      <trkpt lat="43.399976" lon="-6.240233">
        <ele>187.242</ele>
        <time>1999-07-22T13:30:58Z</time>
      </trkpt>
      <trkpt lat="43.400096" lon="-6.240366">
        <ele>188.073</ele>
        <time>1999-07-22T13:31:02Z</time>
      </trkpt>
      <trkpt lat="43.400136" lon="-6.240391">
        <ele>188.079</ele>
        <time>1999-07-22T13:31:03Z</time>
      </trkpt>
      <trkpt lat="43.400255" lon="-6.240461">
        <ele>188.225</ele>
        <time>1999-07-22T13:31:06Z</time>
      </trkpt>
      <trkpt lat="43.400289" lon="-6.240540">
        <ele>188.292</ele>
        <time>1999-07-22T13:31:08Z</time>
      </trkpt>
      <trkpt lat="43.400350" lon="-6.240706">
        <ele>188.229</ele>
        <time>1999-07-22T13:31:11Z</time>
      </trkpt>
      <trkpt lat="43.400364" lon="-6.240762">
        <ele>188.215</ele>
        <time>1999-07-22T13:31:12Z</time>
      </trkpt>
      <trkpt lat="43.400394" lon="-6.241057">
        <ele>188.231</ele>
        <time>1999-07-22T13:31:17Z</time>
      </trkpt>
      <trkpt lat="43.400396" lon="-6.241108">
        <ele>188.261</ele>
        <time>1999-07-22T13:31:18Z</time>
      </trkpt>
      <trkpt lat="43.400392" lon="-6.241160">
        <ele>188.407</ele>
        <time>1999-07-22T13:31:19Z</time>
      </trkpt>
      <trkpt lat="43.400356" lon="-6.241465">
        <ele>189.608</ele>
        <time>1999-07-22T13:31:26Z</time>
      </trkpt>
      <trkpt lat="43.400338" lon="-6.241585">
        <ele>190.486</ele>
        <time>1999-07-22T13:31:29Z</time>
      </trkpt>
      <trkpt lat="43.400331" lon="-6.241625">
        <ele>190.641</ele>
        <time>1999-07-22T13:31:30Z</time>
      </trkpt>
      <trkpt lat="43.400317" lon="-6.241813">
        <ele>191.872</ele>
        <time>1999-07-22T13:31:35Z</time>
      </trkpt>
      <trkpt lat="43.400321" lon="-6.241848">
        <ele>192.048</ele>
        <time>1999-07-22T13:31:36Z</time>
      </trkpt>
      <trkpt lat="43.400362" lon="-6.241941">
        <ele>192.894</ele>
        <time>1999-07-22T13:31:40Z</time>
      </trkpt>
      <trkpt lat="43.400380" lon="-6.241958">
        <ele>193.051</ele>
        <time>1999-07-22T13:31:41Z</time>
      </trkpt>
      <trkpt lat="43.400403" lon="-6.242096">
        <ele>193.268</ele>
        <time>1999-07-22T13:31:45Z</time>
      </trkpt>
      <trkpt lat="43.400395" lon="-6.242129">
        <ele>193.474</ele>
        <time>1999-07-22T13:31:46Z</time>
      </trkpt>
      <trkpt lat="43.400396" lon="-6.242161">
        <ele>193.474</ele>
        <time>1999-07-22T13:31:47Z</time>
      </trkpt>
      <trkpt lat="43.400420" lon="-6.242212">
        <ele>193.656</ele>
        <time>1999-07-22T13:31:49Z</time>
      </trkpt>
      <trkpt lat="43.400448" lon="-6.242261">
        <ele>193.621</ele>
        <time>1999-07-22T13:31:51Z</time>
      </trkpt>
      <trkpt lat="43.400526" lon="-6.242388">
        <ele>193.608</ele>
        <time>1999-07-22T13:31:55Z</time>
      </trkpt>
      <trkpt lat="43.400619" lon="-6.242560">
        <ele>193.820</ele>
        <time>1999-07-22T13:32:00Z</time>
      </trkpt>
      <trkpt lat="43.400652" lon="-6.242624">
        <ele>193.885</ele>
        <time>1999-07-22T13:32:02Z</time>
      </trkpt>
      <trkpt lat="43.400790" lon="-6.242866">
        <ele>194.046</ele>
        <time>1999-07-22T13:32:09Z</time>
      </trkpt>
      <trkpt lat="43.400818" lon="-6.242945">
        <ele>194.222</ele>
        <time>1999-07-22T13:32:11Z</time>
      </trkpt>
      <trkpt lat="43.400874" lon="-6.243051">
        <ele>194.818</ele>
        <time>1999-07-22T13:32:14Z</time>
      </trkpt>
      <trkpt lat="43.400941" lon="-6.243186">
        <ele>195.435</ele>
        <time>1999-07-22T13:32:17Z</time>
      </trkpt>
      <trkpt lat="43.400959" lon="-6.243242">
        <ele>195.472</ele>
        <time>1999-07-22T13:32:18Z</time>
      </trkpt>
      <trkpt lat="43.400997" lon="-6.243361">
        <ele>195.838</ele>
        <time>1999-07-22T13:32:20Z</time>
      </trkpt>
      <trkpt lat="43.401016" lon="-6.243421">
        <ele>196.085</ele>
        <time>1999-07-22T13:32:21Z</time>
      </trkpt>
      <trkpt lat="43.401026" lon="-6.243485">
        <ele>196.089</ele>
        <time>1999-07-22T13:32:22Z</time>
      </trkpt>
      <trkpt lat="43.401083" lon="-6.243660">
        <ele>196.017</ele>
        <time>1999-07-22T13:32:25Z</time>
      </trkpt>
      <trkpt lat="43.401129" lon="-6.243775">
        <ele>196.008</ele>
        <time>1999-07-22T13:32:27Z</time>
      </trkpt>
      <trkpt lat="43.401213" lon="-6.244015">
        <ele>196.081</ele>
        <time>1999-07-22T13:32:31Z</time>
      </trkpt>
      <trkpt lat="43.401226" lon="-6.244077">
        <ele>196.086</ele>
        <time>1999-07-22T13:32:32Z</time>
      </trkpt>
      <trkpt lat="43.401243" lon="-6.244299">
        <ele>196.017</ele>
        <time>1999-07-22T13:32:36Z</time>
      </trkpt>
      <trkpt lat="43.401254" lon="-6.244546">
        <ele>196.213</ele>
        <time>1999-07-22T13:32:40Z</time>
      </trkpt>
      <trkpt lat="43.401328" lon="-6.244683">
        <ele>196.639</ele>
        <time>1999-07-22T13:32:43Z</time>
      </trkpt>
      <trkpt lat="43.401364" lon="-6.244726">
        <ele>196.876</ele>
        <time>1999-07-22T13:32:44Z</time>
      </trkpt>
      <trkpt lat="43.401405" lon="-6.244841">
        <ele>197.073</ele>
        <time>1999-07-22T13:32:46Z</time>
      </trkpt>
      <trkpt lat="43.401492" lon="-6.245130">
        <ele>197.269</ele>
        <time>1999-07-22T13:32:51Z</time>
      </trkpt>
      <trkpt lat="43.401595" lon="-6.245352">
        <ele>197.494</ele>
        <time>1999-07-22T13:32:56Z</time>
      </trkpt>
      <trkpt lat="43.401707" lon="-6.245505">
        <ele>197.457</ele>
        <time>1999-07-22T13:33:00Z</time>
      </trkpt>
      <trkpt lat="43.401768" lon="-6.245566">
        <ele>197.822</ele>
        <time>1999-07-22T13:33:02Z</time>
      </trkpt>
      <trkpt lat="43.401899" lon="-6.245773">
        <ele>198.608</ele>
        <time>1999-07-22T13:33:08Z</time>
      </trkpt>
      <trkpt lat="43.401918" lon="-6.245812">
        <ele>199.012</ele>
        <time>1999-07-22T13:33:09Z</time>
      </trkpt>
      <trkpt lat="43.401952" lon="-6.245926">
        <ele>199.247</ele>
        <time>1999-07-22T13:33:12Z</time>
      </trkpt>
      <trkpt lat="43.401986" lon="-6.246010">
        <ele>199.418</ele>
        <time>1999-07-22T13:33:14Z</time>
      </trkpt>
      <trkpt lat="43.402051" lon="-6.246227">
        <ele>199.614</ele>
        <time>1999-07-22T13:33:19Z</time>
      </trkpt>
      <trkpt lat="43.402053" lon="-6.246272">
        <ele>199.620</ele>
        <time>1999-07-22T13:33:20Z</time>
      </trkpt>
      <trkpt lat="43.402046" lon="-6.246452">
        <ele>200.097</ele>
        <time>1999-07-22T13:33:24Z</time>
      </trkpt>
      <trkpt lat="43.402052" lon="-6.246594">
        <ele>200.424</ele>
        <time>1999-07-22T13:33:27Z</time>
      </trkpt>
      <trkpt lat="43.402069" lon="-6.246682">
        <ele>201.260</ele>
        <time>1999-07-22T13:33:29Z</time>
      </trkpt>
      <trkpt lat="43.402101" lon="-6.246823">
        <ele>202.225</ele>
        <time>1999-07-22T13:33:33Z</time>
      </trkpt>
      <trkpt lat="43.402134" lon="-6.246932">
        <ele>203.426</ele>
        <time>1999-07-22T13:33:38Z</time>
      </trkpt>
      <trkpt lat="43.402165" lon="-6.247078">
        <ele>204.608</ele>
        <time>1999-07-22T13:33:44Z</time>
      </trkpt>
      <trkpt lat="43.402172" lon="-6.247123">
        <ele>205.008</ele>
        <time>1999-07-22T13:33:46Z</time>
      </trkpt>
      <trkpt lat="43.402182" lon="-6.247166">
        <ele>205.665</ele>
        <time>1999-07-22T13:33:48Z</time>
      </trkpt>
      <trkpt lat="43.402185" lon="-6.247194">
        <ele>205.850</ele>
        <time>1999-07-22T13:33:49Z</time>
      </trkpt>
      <trkpt lat="43.402216" lon="-6.247302">
        <ele>206.631</ele>
        <time>1999-07-22T13:33:54Z</time>
      </trkpt>
      <trkpt lat="43.402225" lon="-6.247337">
        <ele>207.277</ele>
        <time>1999-07-22T13:33:56Z</time>
      </trkpt>
      <trkpt lat="43.402231" lon="-6.247374">
        <ele>207.813</ele>
        <time>1999-07-22T13:33:58Z</time>
      </trkpt>
      <trkpt lat="43.402264" lon="-6.247456">
        <ele>208.850</ele>
        <time>1999-07-22T13:34:03Z</time>
      </trkpt>
      <trkpt lat="43.402303" lon="-6.247522">
        <ele>210.297</ele>
        <time>1999-07-22T13:34:07Z</time>
      </trkpt>
      <trkpt lat="43.402352" lon="-6.247604">
        <ele>211.443</ele>
        <time>1999-07-22T13:34:11Z</time>
      </trkpt>
      <trkpt lat="43.402449" lon="-6.247730">
        <ele>212.666</ele>
        <time>1999-07-22T13:34:18Z</time>
      </trkpt>
      <trkpt lat="43.402533" lon="-6.247840">
        <ele>213.429</ele>
        <time>1999-07-22T13:34:24Z</time>
      </trkpt>
      <trkpt lat="43.402546" lon="-6.247855">
        <ele>213.621</ele>
        <time>1999-07-22T13:34:25Z</time>
      </trkpt>
      <trkpt lat="43.402606" lon="-6.248008">
        <ele>214.408</ele>
        <time>1999-07-22T13:34:30Z</time>
      </trkpt>
      <trkpt lat="43.402616" lon="-6.248037">
        <ele>214.689</ele>
        <time>1999-07-22T13:34:31Z</time>
      </trkpt>
      <trkpt lat="43.402679" lon="-6.248198">
        <ele>215.684</ele>
        <time>1999-07-22T13:34:37Z</time>
      </trkpt>
      <trkpt lat="43.402688" lon="-6.248232">
        <ele>215.855</ele>
        <time>1999-07-22T13:34:38Z</time>
      </trkpt>
      <trkpt lat="43.402681" lon="-6.248364">
        <ele>216.271</ele>
        <time>1999-07-22T13:34:42Z</time>
      </trkpt>
      <trkpt lat="43.402675" lon="-6.248389">
        <ele>216.447</ele>
        <time>1999-07-22T13:34:43Z</time>
      </trkpt>
      <trkpt lat="43.402668" lon="-6.248431">
        <ele>216.824</ele>
        <time>1999-07-22T13:34:45Z</time>
      </trkpt>
      <trkpt lat="43.402637" lon="-6.248527">
        <ele>217.681</ele>
        <time>1999-07-22T13:34:49Z</time>
      </trkpt>
      <trkpt lat="43.402628" lon="-6.248553">
        <ele>217.867</ele>
        <time>1999-07-22T13:34:50Z</time>
      </trkpt>
      <trkpt lat="43.402576" lon="-6.248682">
        <ele>218.676</ele>
        <time>1999-07-22T13:34:56Z</time>
      </trkpt>
      <trkpt lat="43.402569" lon="-6.248709">
        <ele>218.890</ele>
        <time>1999-07-22T13:34:57Z</time>
      </trkpt>
      <trkpt lat="43.402571" lon="-6.248838">
        <ele>220.019</ele>
        <time>1999-07-22T13:35:01Z</time>
      </trkpt>
      <trkpt lat="43.402577" lon="-6.248863">
        <ele>220.208</ele>
        <time>1999-07-22T13:35:02Z</time>
      </trkpt>
      <trkpt lat="43.402598" lon="-6.248976">
        <ele>221.450</ele>
        <time>1999-07-22T13:35:07Z</time>
      </trkpt>
      <trkpt lat="43.402618" lon="-6.249046">
        <ele>221.845</ele>
        <time>1999-07-22T13:35:10Z</time>
      </trkpt>
      <trkpt lat="43.402646" lon="-6.249146">
        <ele>222.646</ele>
        <time>1999-07-22T13:35:14Z</time>
      </trkpt>
      <trkpt lat="43.402658" lon="-6.249194">
        <ele>223.212</ele>
        <time>1999-07-22T13:35:16Z</time>
      </trkpt>
      <trkpt lat="43.402691" lon="-6.249285">
        <ele>224.028</ele>
        <time>1999-07-22T13:35:20Z</time>
      </trkpt>
      <trkpt lat="43.402719" lon="-6.249343">
        <ele>224.625</ele>
        <time>1999-07-22T13:35:22Z</time>
      </trkpt>
      <trkpt lat="43.402758" lon="-6.249395">
        <ele>225.082</ele>
        <time>1999-07-22T13:35:24Z</time>
      </trkpt>
      <trkpt lat="43.402829" lon="-6.249475">
        <ele>225.828</ele>
        <time>1999-07-22T13:35:28Z</time>
      </trkpt>
      <trkpt lat="43.402887" lon="-6.249512">
        <ele>226.454</ele>
        <time>1999-07-22T13:35:32Z</time>
      </trkpt>
      <trkpt lat="43.402901" lon="-6.249526">
        <ele>226.856</ele>
        <time>1999-07-22T13:35:33Z</time>
      </trkpt>
      <trkpt lat="43.402932" lon="-6.249540">
        <ele>227.611</ele>
        <time>1999-07-22T13:35:35Z</time>
      </trkpt>
      <trkpt lat="43.402986" lon="-6.249544">
        <ele>228.808</ele>
        <time>1999-07-22T13:35:38Z</time>
      </trkpt>
      <trkpt lat="43.403002" lon="-6.249546">
        <ele>229.068</ele>
        <time>1999-07-22T13:35:39Z</time>
      </trkpt>
      <trkpt lat="43.403033" lon="-6.249561">
        <ele>229.883</ele>
        <time>1999-07-22T13:35:42Z</time>
      </trkpt>
      <trkpt lat="43.403071" lon="-6.249566">
        <ele>230.444</ele>
        <time>1999-07-22T13:35:45Z</time>
      </trkpt>
      <trkpt lat="43.403104" lon="-6.249568">
        <ele>230.850</ele>
        <time>1999-07-22T13:35:47Z</time>
      </trkpt>
      <trkpt lat="43.403172" lon="-6.249589">
        <ele>231.616</ele>
        <time>1999-07-22T13:35:51Z</time>
      </trkpt>
      <trkpt lat="43.403235" lon="-6.249590">
        <ele>232.063</ele>
        <time>1999-07-22T13:35:54Z</time>
      </trkpt>
      <trkpt lat="43.403344" lon="-6.249638">
        <ele>232.470</ele>
        <time>1999-07-22T13:35:58Z</time>
      </trkpt>
      <trkpt lat="43.403474" lon="-6.249725">
        <ele>232.696</ele>
        <time>1999-07-22T13:36:02Z</time>
      </trkpt>
      <trkpt lat="43.403606" lon="-6.249821">
        <ele>233.019</ele>
        <time>1999-07-22T13:36:06Z</time>
      </trkpt>
      <trkpt lat="43.403665" lon="-6.249878">
        <ele>233.009</ele>
        <time>1999-07-22T13:36:08Z</time>
      </trkpt>
      <trkpt lat="43.403747" lon="-6.249971">
        <ele>233.219</ele>
        <time>1999-07-22T13:36:11Z</time>
      </trkpt>
      <trkpt lat="43.403792" lon="-6.250044">
        <ele>233.608</ele>
        <time>1999-07-22T13:36:13Z</time>
      </trkpt>
      <trkpt lat="43.403895" lon="-6.250251">
        <ele>234.034</ele>
        <time>1999-07-22T13:36:18Z</time>
      </trkpt>
      <trkpt lat="43.403932" lon="-6.250334">
        <ele>234.249</ele>
        <time>1999-07-22T13:36:20Z</time>
      </trkpt>
      <trkpt lat="43.403986" lon="-6.250474">
        <ele>234.410</ele>
        <time>1999-07-22T13:36:24Z</time>
      </trkpt>
      <trkpt lat="43.404005" lon="-6.250545">
        <ele>234.636</ele>
        <time>1999-07-22T13:36:26Z</time>
      </trkpt>
      <trkpt lat="43.404014" lon="-6.250580">
        <ele>234.882</ele>
        <time>1999-07-22T13:36:27Z</time>
      </trkpt>
      <trkpt lat="43.404020" lon="-6.250715">
        <ele>235.029</ele>
        <time>1999-07-22T13:36:31Z</time>
      </trkpt>
      <trkpt lat="43.404043" lon="-6.250785">
        <ele>235.456</ele>
        <time>1999-07-22T13:36:33Z</time>
      </trkpt>
      <trkpt lat="43.404162" lon="-6.250991">
        <ele>236.052</ele>
        <time>1999-07-22T13:36:39Z</time>
      </trkpt>
      <trkpt lat="43.404181" lon="-6.251031">
        <ele>236.216</ele>
        <time>1999-07-22T13:36:40Z</time>
      </trkpt>
      <trkpt lat="43.404264" lon="-6.251215">
        <ele>237.076</ele>
        <time>1999-07-22T13:36:45Z</time>
      </trkpt>
      <trkpt lat="43.404277" lon="-6.251250">
        <ele>237.213</ele>
        <time>1999-07-22T13:36:46Z</time>
      </trkpt>
      <trkpt lat="43.404330" lon="-6.251419">
        <ele>237.408</ele>
        <time>1999-07-22T13:36:50Z</time>
      </trkpt>
      <trkpt lat="43.404372" lon="-6.251530">
        <ele>237.484</ele>
        <time>1999-07-22T13:36:52Z</time>
      </trkpt>
      <trkpt lat="43.404456" lon="-6.251639">
        <ele>237.489</ele>
        <time>1999-07-22T13:36:54Z</time>
      </trkpt>
      <trkpt lat="43.404561" lon="-6.251709">
        <ele>237.430</ele>
        <time>1999-07-22T13:36:56Z</time>
      </trkpt>
      <trkpt lat="43.404675" lon="-6.251797">
        <ele>237.436</ele>
        <time>1999-07-22T13:36:58Z</time>
      </trkpt>
      <trkpt lat="43.404780" lon="-6.251923">
        <ele>237.272</ele>
        <time>1999-07-22T13:37:00Z</time>
      </trkpt>
      <trkpt lat="43.404870" lon="-6.252059">
        <ele>237.029</ele>
        <time>1999-07-22T13:37:02Z</time>
      </trkpt>
      <trkpt lat="43.404944" lon="-6.252192">
        <ele>234.826</ele>
        <time>1999-07-22T13:37:04Z</time>
      </trkpt>
      <trkpt lat="43.404982" lon="-6.252250">
        <ele>233.892</ele>
        <time>1999-07-22T13:37:05Z</time>
      </trkpt>
      <trkpt lat="43.405020" lon="-6.252302">
        <ele>232.871</ele>
        <time>1999-07-22T13:37:06Z</time>
      </trkpt>
      <trkpt lat="43.405099" lon="-6.252388">
        <ele>230.641</ele>
        <time>1999-07-22T13:37:08Z</time>
      </trkpt>
      <trkpt lat="43.405142" lon="-6.252420">
        <ele>229.615</ele>
        <time>1999-07-22T13:37:09Z</time>
      </trkpt>
      <trkpt lat="43.405186" lon="-6.252453">
        <ele>228.608</ele>
        <time>1999-07-22T13:37:10Z</time>
      </trkpt>
      <trkpt lat="43.405270" lon="-6.252553">
        <ele>227.880</ele>
        <time>1999-07-22T13:37:12Z</time>
      </trkpt>
      <trkpt lat="43.405305" lon="-6.252617">
        <ele>227.675</ele>
        <time>1999-07-22T13:37:13Z</time>
      </trkpt>
      <trkpt lat="43.405348" lon="-6.252673">
        <ele>227.676</ele>
        <time>1999-07-22T13:37:14Z</time>
      </trkpt>
      <trkpt lat="43.405406" lon="-6.252799">
        <ele>227.442</ele>
        <time>1999-07-22T13:37:16Z</time>
      </trkpt>
      <trkpt lat="43.405433" lon="-6.252854">
        <ele>227.428</ele>
        <time>1999-07-22T13:37:17Z</time>
      </trkpt>
      <trkpt lat="43.405448" lon="-6.252912">
        <ele>227.445</ele>
        <time>1999-07-22T13:37:18Z</time>
      </trkpt>
      <trkpt lat="43.405474" lon="-6.253059">
        <ele>227.832</ele>
        <time>1999-07-22T13:37:21Z</time>
      </trkpt>
      <trkpt lat="43.405474" lon="-6.253174">
        <ele>228.018</ele>
        <time>1999-07-22T13:37:23Z</time>
      </trkpt>
      <trkpt lat="43.405510" lon="-6.253281">
        <ele>228.671</ele>
        <time>1999-07-22T13:37:25Z</time>
      </trkpt>
      <trkpt lat="43.405569" lon="-6.253357">
        <ele>229.041</ele>
        <time>1999-07-22T13:37:27Z</time>
      </trkpt>
      <trkpt lat="43.405664" lon="-6.253523">
        <ele>229.415</ele>
        <time>1999-07-22T13:37:31Z</time>
      </trkpt>
      <trkpt lat="43.405697" lon="-6.253620">
        <ele>229.608</ele>
        <time>1999-07-22T13:37:33Z</time>
      </trkpt>
      <trkpt lat="43.405766" lon="-6.253806">
        <ele>230.290</ele>
        <time>1999-07-22T13:37:37Z</time>
      </trkpt>
      <trkpt lat="43.405820" lon="-6.253947">
        <ele>230.825</ele>
        <time>1999-07-22T13:37:40Z</time>
      </trkpt>
      <trkpt lat="43.405874" lon="-6.254096">
        <ele>231.656</ele>
        <time>1999-07-22T13:37:43Z</time>
      </trkpt>
      <trkpt lat="43.405889" lon="-6.254150">
        <ele>231.622</ele>
        <time>1999-07-22T13:37:44Z</time>
      </trkpt>
      <trkpt lat="43.405902" lon="-6.254205">
        <ele>231.858</ele>
        <time>1999-07-22T13:37:45Z</time>
      </trkpt>
      <trkpt lat="43.405987" lon="-6.254542">
        <ele>232.815</ele>
        <time>1999-07-22T13:37:51Z</time>
      </trkpt>
      <trkpt lat="43.406003" lon="-6.254599">
        <ele>232.892</ele>
        <time>1999-07-22T13:37:52Z</time>
      </trkpt>
      <trkpt lat="43.406137" lon="-6.255044">
        <ele>233.678</ele>
        <time>1999-07-22T13:38:00Z</time>
      </trkpt>
      <trkpt lat="43.406234" lon="-6.255312">
        <ele>234.235</ele>
        <time>1999-07-22T13:38:05Z</time>
      </trkpt>
      <trkpt lat="43.406345" lon="-6.255546">
        <ele>234.686</ele>
        <time>1999-07-22T13:38:10Z</time>
      </trkpt>
      <trkpt lat="43.406443" lon="-6.255718">
        <ele>235.214</ele>
        <time>1999-07-22T13:38:14Z</time>
      </trkpt>
      <trkpt lat="43.406487" lon="-6.255817">
        <ele>235.208</ele>
        <time>1999-07-22T13:38:16Z</time>
      </trkpt>
      <trkpt lat="43.406616" lon="-6.256065">
        <ele>235.486</ele>
        <time>1999-07-22T13:38:21Z</time>
      </trkpt>
      <trkpt lat="43.406671" lon="-6.256158">
        <ele>235.451</ele>
        <time>1999-07-22T13:38:23Z</time>
      </trkpt>
      <trkpt lat="43.406825" lon="-6.256392">
        <ele>235.822</ele>
        <time>1999-07-22T13:38:29Z</time>
      </trkpt>
      <trkpt lat="43.406864" lon="-6.256467">
        <ele>236.038</ele>
        <time>1999-07-22T13:38:31Z</time>
      </trkpt>
      <trkpt lat="43.406912" lon="-6.256516">
        <ele>236.264</ele>
        <time>1999-07-22T13:38:33Z</time>
      </trkpt>
      <trkpt lat="43.406935" lon="-6.256538">
        <ele>236.241</ele>
        <time>1999-07-22T13:38:34Z</time>
      </trkpt>
      <trkpt lat="43.407022" lon="-6.256710">
        <ele>236.298</ele>
        <time>1999-07-22T13:38:39Z</time>
      </trkpt>
      <trkpt lat="43.407190" lon="-6.257058">
        <ele>236.284</ele>
        <time>1999-07-22T13:38:47Z</time>
      </trkpt>
      <trkpt lat="43.407372" lon="-6.257453">
        <ele>236.462</ele>
        <time>1999-07-22T13:38:55Z</time>
      </trkpt>
      <trkpt lat="43.407538" lon="-6.257793">
        <ele>236.683</ele>
        <time>1999-07-22T13:39:02Z</time>
      </trkpt>
      <trkpt lat="43.407590" lon="-6.257879">
        <ele>236.611</ele>
        <time>1999-07-22T13:39:04Z</time>
      </trkpt>
      <trkpt lat="43.407685" lon="-6.258121">
        <ele>237.208</ele>
        <time>1999-07-22T13:39:09Z</time>
      </trkpt>
      <trkpt lat="43.407743" lon="-6.258271">
        <ele>237.419</ele>
        <time>1999-07-22T13:39:12Z</time>
      </trkpt>
      <trkpt lat="43.407845" lon="-6.258553">
        <ele>238.224</ele>
        <time>1999-07-22T13:39:18Z</time>
      </trkpt>
      <trkpt lat="43.407859" lon="-6.258600">
        <ele>238.695</ele>
        <time>1999-07-22T13:39:19Z</time>
      </trkpt>
      <trkpt lat="43.407958" lon="-6.258815">
        <ele>239.481</ele>
        <time>1999-07-22T13:39:24Z</time>
      </trkpt>
      <trkpt lat="43.408024" lon="-6.258932">
        <ele>239.817</ele>
        <time>1999-07-22T13:39:27Z</time>
      </trkpt>
      <trkpt lat="43.408095" lon="-6.259100">
        <ele>240.494</ele>
        <time>1999-07-22T13:39:31Z</time>
      </trkpt>
      <trkpt lat="43.408125" lon="-6.259143">
        <ele>240.881</ele>
        <time>1999-07-22T13:39:33Z</time>
      </trkpt>
      <trkpt lat="43.408253" lon="-6.259032">
        <ele>241.037</ele>
        <time>1999-07-22T13:39:37Z</time>
      </trkpt>
      <trkpt lat="43.408285" lon="-6.258989">
        <ele>241.234</ele>
        <time>1999-07-22T13:39:38Z</time>
      </trkpt>
      <trkpt lat="43.408397" lon="-6.258888">
        <ele>241.255</ele>
        <time>1999-07-22T13:39:41Z</time>
      </trkpt>
      <trkpt lat="43.408440" lon="-6.258868">
        <ele>241.210</ele>
        <time>1999-07-22T13:39:42Z</time>
      </trkpt>
      <trkpt lat="43.408490" lon="-6.258815">
        <ele>241.208</ele>
        <time>1999-07-22T13:39:44Z</time>
      </trkpt>
      <trkpt lat="43.408504" lon="-6.258776">
        <ele>240.886</ele>
        <time>1999-07-22T13:39:45Z</time>
      </trkpt>
      <trkpt lat="43.408513" lon="-6.258683">
        <ele>240.241</ele>
        <time>1999-07-22T13:39:48Z</time>
      </trkpt>
      <trkpt lat="43.408513" lon="-6.258678">
        <ele>239.632</ele>
        <time>1999-07-22T13:39:49Z</time>
      </trkpt>
      <trkpt lat="43.408515" lon="-6.258683">
        <ele>239.278</ele>
        <time>1999-07-22T13:39:50Z</time>
      </trkpt>
      <trkpt lat="43.408517" lon="-6.258686">
        <ele>239.074</ele>
        <time>1999-07-22T13:39:51Z</time>
      </trkpt>
      <trkpt lat="43.408546" lon="-6.258896">
        <ele>238.261</ele>
        <time>1999-07-22T13:41:08Z</time>
      </trkpt>
      <trkpt lat="43.408551" lon="-6.258917">
        <ele>238.418</ele>
        <time>1999-07-22T13:41:09Z</time>
      </trkpt>
      <trkpt lat="43.408556" lon="-6.258937">
        <ele>238.424</ele>
        <time>1999-07-22T13:41:10Z</time>
      </trkpt>
      <trkpt lat="43.408566" lon="-6.259015">
        <ele>238.415</ele>
        <time>1999-07-22T13:41:14Z</time>
      </trkpt>
      <trkpt lat="43.408570" lon="-6.259071">
        <ele>238.665</ele>
        <time>1999-07-22T13:41:17Z</time>
      </trkpt>
      <trkpt lat="43.408577" lon="-6.259132">
        <ele>238.811</ele>
        <time>1999-07-22T13:41:20Z</time>
      </trkpt>
      <trkpt lat="43.408589" lon="-6.259201">
        <ele>239.008</ele>
        <time>1999-07-22T13:41:24Z</time>
      </trkpt>
      <trkpt lat="43.408596" lon="-6.259212">
        <ele>239.054</ele>
        <time>1999-07-22T13:41:25Z</time>
      </trkpt>
      <trkpt lat="43.408610" lon="-6.259272">
        <ele>239.659</ele>
        <time>1999-07-22T13:41:29Z</time>
      </trkpt>
      <trkpt lat="43.408612" lon="-6.259309">
        <ele>239.410</ele>
        <time>1999-07-22T13:41:31Z</time>
      </trkpt>
      <trkpt lat="43.408653" lon="-6.259461">
        <ele>240.096</ele>
        <time>1999-07-22T13:41:40Z</time>
      </trkpt>
      <trkpt lat="43.408654" lon="-6.259481">
        <ele>240.012</ele>
        <time>1999-07-22T13:41:41Z</time>
      </trkpt>
      <trkpt lat="43.408660" lon="-6.259553">
        <ele>240.279</ele>
        <time>1999-07-22T13:41:46Z</time>
      </trkpt>
      <trkpt lat="43.408666" lon="-6.259572">
        <ele>240.436</ele>
        <time>1999-07-22T13:41:47Z</time>
      </trkpt>
      <trkpt lat="43.408688" lon="-6.259670">
        <ele>240.642</ele>
        <time>1999-07-22T13:41:51Z</time>
      </trkpt>
      <trkpt lat="43.408691" lon="-6.259708">
        <ele>240.894</ele>
        <time>1999-07-22T13:41:53Z</time>
      </trkpt>
      <trkpt lat="43.408692" lon="-6.259761">
        <ele>241.057</ele>
        <time>1999-07-22T13:41:56Z</time>
      </trkpt>
      <trkpt lat="43.408694" lon="-6.259794">
        <ele>241.022</ele>
        <time>1999-07-22T13:41:58Z</time>
      </trkpt>
      <trkpt lat="43.408716" lon="-6.259871">
        <ele>241.408</ele>
        <time>1999-07-22T13:42:03Z</time>
      </trkpt>
      <trkpt lat="43.408747" lon="-6.259984">
        <ele>241.672</ele>
        <time>1999-07-22T13:42:07Z</time>
      </trkpt>
      <trkpt lat="43.408757" lon="-6.260024">
        <ele>241.877</ele>
        <time>1999-07-22T13:42:08Z</time>
      </trkpt>
      <trkpt lat="43.408784" lon="-6.260153">
        <ele>241.868</ele>
        <time>1999-07-22T13:42:11Z</time>
      </trkpt>
      <trkpt lat="43.408858" lon="-6.260347">
        <ele>242.064</ele>
        <time>1999-07-22T13:42:16Z</time>
      </trkpt>
      <trkpt lat="43.408929" lon="-6.260537">
        <ele>242.870</ele>
        <time>1999-07-22T13:42:21Z</time>
      </trkpt>
      <trkpt lat="43.408944" lon="-6.260570">
        <ele>243.077</ele>
        <time>1999-07-22T13:42:22Z</time>
      </trkpt>
      <trkpt lat="43.408970" lon="-6.260636">
        <ele>243.294</ele>
        <time>1999-07-22T13:42:24Z</time>
      </trkpt>
      <trkpt lat="43.408989" lon="-6.260769">
        <ele>243.680</ele>
        <time>1999-07-22T13:42:27Z</time>
      </trkpt>
      <trkpt lat="43.409035" lon="-6.260915">
        <ele>244.236</ele>
        <time>1999-07-22T13:42:31Z</time>
      </trkpt>
      <trkpt lat="43.409055" lon="-6.260941">
        <ele>244.617</ele>
        <time>1999-07-22T13:42:32Z</time>
      </trkpt>
      <trkpt lat="43.409094" lon="-6.260990">
        <ele>245.018</ele>
        <time>1999-07-22T13:42:34Z</time>
      </trkpt>
      <trkpt lat="43.409133" lon="-6.261102">
        <ele>245.408</ele>
        <time>1999-07-22T13:42:37Z</time>
      </trkpt>
      <trkpt lat="43.409186" lon="-6.261189">
        <ele>246.026</ele>
        <time>1999-07-22T13:42:40Z</time>
      </trkpt>
      <trkpt lat="43.409240" lon="-6.261264">
        <ele>246.411</ele>
        <time>1999-07-22T13:42:43Z</time>
      </trkpt>
      <trkpt lat="43.409284" lon="-6.261340">
        <ele>247.042</ele>
        <time>1999-07-22T13:42:46Z</time>
      </trkpt>
      <trkpt lat="43.409295" lon="-6.261480">
        <ele>247.688</ele>
        <time>1999-07-22T13:42:51Z</time>
      </trkpt>
      <trkpt lat="43.409296" lon="-6.261591">
        <ele>248.464</ele>
        <time>1999-07-22T13:42:55Z</time>
      </trkpt>
      <trkpt lat="43.409295" lon="-6.261612">
        <ele>248.611</ele>
        <time>1999-07-22T13:42:56Z</time>
      </trkpt>
      <trkpt lat="43.409317" lon="-6.261651">
        <ele>249.428</ele>
        <time>1999-07-22T13:43:01Z</time>
      </trkpt>
      <trkpt lat="43.409301" lon="-6.261633">
        <ele>249.614</ele>
        <time>1999-07-22T13:43:03Z</time>
      </trkpt>
      <trkpt lat="43.409283" lon="-6.261662">
        <ele>249.695</ele>
        <time>1999-07-22T13:43:05Z</time>
      </trkpt>
      <trkpt lat="43.409286" lon="-6.261680">
        <ele>249.849</ele>
        <time>1999-07-22T13:43:06Z</time>
      </trkpt>
      <trkpt lat="43.409303" lon="-6.261721">
        <ele>249.823</ele>
        <time>1999-07-22T13:43:09Z</time>
      </trkpt>
      <trkpt lat="43.409297" lon="-6.261762">
        <ele>249.808</ele>
        <time>1999-07-22T13:43:12Z</time>
      </trkpt>
      <trkpt lat="43.409276" lon="-6.261783">
        <ele>250.012</ele>
        <time>1999-07-22T13:43:14Z</time>
      </trkpt>
      <trkpt lat="43.409254" lon="-6.261784">
        <ele>250.027</ele>
        <time>1999-07-22T13:43:18Z</time>
      </trkpt>
      <trkpt lat="43.409351" lon="-6.261685">
        <ele>250.238</ele>
        <time>1999-07-22T13:43:36Z</time>
      </trkpt>
      <trkpt lat="43.409365" lon="-6.261670">
        <ele>250.294</ele>
        <time>1999-07-22T13:43:37Z</time>
      </trkpt>
      <trkpt lat="43.409397" lon="-6.261602">
        <ele>250.090</ele>
        <time>1999-07-22T13:43:40Z</time>
      </trkpt>
      <trkpt lat="43.409425" lon="-6.261569">
        <ele>250.037</ele>
        <time>1999-07-22T13:43:42Z</time>
      </trkpt>
      <trkpt lat="43.409439" lon="-6.261534">
        <ele>250.074</ele>
        <time>1999-07-22T13:43:44Z</time>
      </trkpt>
      <trkpt lat="43.409429" lon="-6.261501">
        <ele>250.030</ele>
        <time>1999-07-22T13:43:46Z</time>
      </trkpt>
      <trkpt lat="43.409433" lon="-6.261550">
        <ele>249.899</ele>
        <time>1999-07-22T13:43:50Z</time>
      </trkpt>
      <trkpt lat="43.409442" lon="-6.261504">
        <ele>249.807</ele>
        <time>1999-07-22T13:43:53Z</time>
      </trkpt>
      <trkpt lat="43.409447" lon="-6.261484">
        <ele>249.827</ele>
        <time>1999-07-22T13:43:56Z</time>
      </trkpt>
      <trkpt lat="43.409414" lon="-6.261514">
        <ele>249.808</ele>
        <time>1999-07-22T13:44:00Z</time>
      </trkpt>
      <trkpt lat="43.409412" lon="-6.261532">
        <ele>249.822</ele>
        <time>1999-07-22T13:44:01Z</time>
      </trkpt>
      <trkpt lat="43.409455" lon="-6.261561">
        <ele>249.827</ele>
        <time>1999-07-22T13:44:05Z</time>
      </trkpt>
      <trkpt lat="43.409450" lon="-6.261511">
        <ele>249.878</ele>
        <time>1999-07-22T13:44:08Z</time>
      </trkpt>
      <trkpt lat="43.409449" lon="-6.261512">
        <ele>249.844</ele>
        <time>1999-07-22T13:44:09Z</time>
      </trkpt>
      <trkpt lat="43.409449" lon="-6.261508">
        <ele>249.870</ele>
        <time>1999-07-22T13:44:10Z</time>
      </trkpt>
      <trkpt lat="43.409392" lon="-6.261555">
        <ele>249.817</ele>
        <time>1999-07-22T13:44:47Z</time>
      </trkpt>
      <trkpt lat="43.409375" lon="-6.261572">
        <ele>249.834</ele>
        <time>1999-07-22T13:44:48Z</time>
      </trkpt>
      <trkpt lat="43.409359" lon="-6.261582">
        <ele>249.820</ele>
        <time>1999-07-22T13:44:49Z</time>
      </trkpt>
      <trkpt lat="43.409320" lon="-6.261617">
        <ele>249.852</ele>
        <time>1999-07-22T13:44:53Z</time>
      </trkpt>
      <trkpt lat="43.409321" lon="-6.261637">
        <ele>249.853</ele>
        <time>1999-07-22T13:44:54Z</time>
      </trkpt>
      <trkpt lat="43.409308" lon="-6.261726">
        <ele>249.808</ele>
        <time>1999-07-22T13:44:58Z</time>
      </trkpt>
      <trkpt lat="43.409303" lon="-6.261764">
        <ele>249.808</ele>
        <time>1999-07-22T13:45:00Z</time>
      </trkpt>
      <trkpt lat="43.409304" lon="-6.261773">
        <ele>249.848</ele>
        <time>1999-07-22T13:45:02Z</time>
      </trkpt>
      <trkpt lat="43.409303" lon="-6.261735">
        <ele>250.083</ele>
        <time>1999-07-22T13:45:13Z</time>
      </trkpt>
      <trkpt lat="43.409296" lon="-6.261708">
        <ele>250.084</ele>
        <time>1999-07-22T13:45:14Z</time>
      </trkpt>
      <trkpt lat="43.409214" lon="-6.261609">
        <ele>250.020</ele>
        <time>1999-07-22T13:45:18Z</time>
      </trkpt>
      <trkpt lat="43.409130" lon="-6.261441">
        <ele>250.046</ele>
        <time>1999-07-22T13:45:22Z</time>
      </trkpt>
      <trkpt lat="43.409110" lon="-6.261402">
        <ele>250.043</ele>
        <time>1999-07-22T13:45:23Z</time>
      </trkpt>
      <trkpt lat="43.409105" lon="-6.261328">
        <ele>249.830</ele>
        <time>1999-07-22T13:45:25Z</time>
      </trkpt>
      <trkpt lat="43.409119" lon="-6.261302">
        <ele>249.846</ele>
        <time>1999-07-22T13:45:26Z</time>
      </trkpt>
      <trkpt lat="43.409147" lon="-6.261256">
        <ele>249.668</ele>
        <time>1999-07-22T13:45:29Z</time>
      </trkpt>
      <trkpt lat="43.409223" lon="-6.261170">
        <ele>248.642</ele>
        <time>1999-07-22T13:45:32Z</time>
      </trkpt>
      <trkpt lat="43.409298" lon="-6.261112">
        <ele>248.026</ele>
        <time>1999-07-22T13:45:34Z</time>
      </trkpt>
      <trkpt lat="43.409352" lon="-6.261096">
        <ele>247.808</ele>
        <time>1999-07-22T13:45:35Z</time>
      </trkpt>
      <trkpt lat="43.409415" lon="-6.261083">
        <ele>247.629</ele>
        <time>1999-07-22T13:45:36Z</time>
      </trkpt>
      <trkpt lat="43.409568" lon="-6.261083">
        <ele>246.824</ele>
        <time>1999-07-22T13:45:39Z</time>
      </trkpt>
      <trkpt lat="43.409610" lon="-6.261084">
        <ele>246.465</ele>
        <time>1999-07-22T13:45:40Z</time>
      </trkpt>
      <trkpt lat="43.409667" lon="-6.261102">
        <ele>245.821</ele>
        <time>1999-07-22T13:45:43Z</time>
      </trkpt>
      <trkpt lat="43.409687" lon="-6.261114">
        <ele>245.697</ele>
        <time>1999-07-22T13:45:45Z</time>
      </trkpt>
      <trkpt lat="43.409736" lon="-6.261121">
        <ele>245.294</ele>
        <time>1999-07-22T13:45:48Z</time>
      </trkpt>
      <trkpt lat="43.409741" lon="-6.261158">
        <ele>244.261</ele>
        <time>1999-07-22T13:45:51Z</time>
      </trkpt>
      <trkpt lat="43.409740" lon="-6.261154">
        <ele>243.847</ele>
        <time>1999-07-22T13:45:52Z</time>
      </trkpt>
      <trkpt lat="43.409739" lon="-6.261153">
        <ele>243.872</ele>
        <time>1999-07-22T13:45:53Z</time>
      </trkpt>
      <trkpt lat="43.409739" lon="-6.261156">
        <ele>243.613</ele>
        <time>1999-07-22T13:45:54Z</time>
      </trkpt>
      <trkpt lat="43.409692" lon="-6.261197">
        <ele>243.614</ele>
        <time>1999-07-22T13:45:58Z</time>
      </trkpt>
      <trkpt lat="43.409664" lon="-6.261233">
        <ele>243.408</ele>
        <time>1999-07-22T13:46:01Z</time>
      </trkpt>
      <trkpt lat="43.409643" lon="-6.261260">
        <ele>243.440</ele>
        <time>1999-07-22T13:46:04Z</time>
      </trkpt>
      <trkpt lat="43.409632" lon="-6.261272">
        <ele>243.435</ele>
        <time>1999-07-22T13:46:06Z</time>
      </trkpt>
      <trkpt lat="43.409984" lon="-6.260928">
        <ele>243.416</ele>
        <time>1999-07-22T13:53:49Z</time>
      </trkpt>
      <trkpt lat="43.409971" lon="-6.260931">
        <ele>243.432</ele>
        <time>1999-07-22T13:53:50Z</time>
      </trkpt>
      <trkpt lat="43.409963" lon="-6.260935">
        <ele>243.698</ele>
        <time>1999-07-22T13:53:56Z</time>
      </trkpt>
      <trkpt lat="43.409984" lon="-6.260931">
        <ele>243.625</ele>
        <time>1999-07-22T13:53:58Z</time>
      </trkpt>
      <trkpt lat="43.410020" lon="-6.261067">
        <ele>244.432</ele>
        <time>1999-07-22T13:57:45Z</time>
      </trkpt>
      <trkpt lat="43.409994" lon="-6.261060">
        <ele>244.468</ele>
        <time>1999-07-22T13:57:46Z</time>
      </trkpt>
      <trkpt lat="43.409891" lon="-6.261052">
        <ele>244.484</ele>
        <time>1999-07-22T13:57:49Z</time>
      </trkpt>
      <trkpt lat="43.409816" lon="-6.261055">
        <ele>244.407</ele>
        <time>1999-07-22T13:57:51Z</time>
      </trkpt>
      <trkpt lat="43.409738" lon="-6.261070">
        <ele>244.417</ele>
        <time>1999-07-22T13:57:53Z</time>
      </trkpt>
      <trkpt lat="43.409659" lon="-6.261077">
        <ele>244.408</ele>
        <time>1999-07-22T13:57:55Z</time>
      </trkpt>
      <trkpt lat="43.409552" lon="-6.261071">
        <ele>244.421</ele>
        <time>1999-07-22T13:57:59Z</time>
      </trkpt>
      <trkpt lat="43.409467" lon="-6.261083">
        <ele>244.636</ele>
        <time>1999-07-22T13:58:02Z</time>
      </trkpt>
      <trkpt lat="43.409367" lon="-6.261121">
        <ele>244.637</ele>
        <time>1999-07-22T13:58:05Z</time>
      </trkpt>
      <trkpt lat="43.409338" lon="-6.261141">
        <ele>244.853</ele>
        <time>1999-07-22T13:58:06Z</time>
      </trkpt>
      <trkpt lat="43.409260" lon="-6.261215">
        <ele>245.629</ele>
        <time>1999-07-22T13:58:10Z</time>
      </trkpt>
      <trkpt lat="43.409235" lon="-6.261237">
        <ele>245.646</ele>
        <time>1999-07-22T13:58:12Z</time>
      </trkpt>
      <trkpt lat="43.409190" lon="-6.261272">
        <ele>245.833</ele>
        <time>1999-07-22T13:58:15Z</time>
      </trkpt>
      <trkpt lat="43.409186" lon="-6.261306">
        <ele>246.439</ele>
        <time>1999-07-22T13:58:17Z</time>
      </trkpt>
      <trkpt lat="43.409189" lon="-6.261326">
        <ele>246.638</ele>
        <time>1999-07-22T13:58:18Z</time>
      </trkpt>
      <trkpt lat="43.409241" lon="-6.261415">
        <ele>247.470</ele>
        <time>1999-07-22T13:58:23Z</time>
      </trkpt>
      <trkpt lat="43.409251" lon="-6.261438">
        <ele>247.617</ele>
        <time>1999-07-22T13:58:24Z</time>
      </trkpt>
      <trkpt lat="43.409310" lon="-6.261563">
        <ele>248.408</ele>
        <time>1999-07-22T13:58:30Z</time>
      </trkpt>
      <trkpt lat="43.409321" lon="-6.261621">
        <ele>248.896</ele>
        <time>1999-07-22T13:58:32Z</time>
      </trkpt>
      <trkpt lat="43.409317" lon="-6.261662">
        <ele>248.881</ele>
        <time>1999-07-22T13:58:33Z</time>
      </trkpt>
      <trkpt lat="43.409306" lon="-6.261737">
        <ele>249.212</ele>
        <time>1999-07-22T13:58:35Z</time>
      </trkpt>
      <trkpt lat="43.409325" lon="-6.261793">
        <ele>249.898</ele>
        <time>1999-07-22T13:58:37Z</time>
      </trkpt>
      <trkpt lat="43.409367" lon="-6.261864">
        <ele>250.224</ele>
        <time>1999-07-22T13:58:40Z</time>
      </trkpt>
      <trkpt lat="43.409450" lon="-6.261993">
        <ele>250.831</ele>
        <time>1999-07-22T13:58:47Z</time>
      </trkpt>
      <trkpt lat="43.409450" lon="-6.261996">
        <ele>251.068</ele>
        <time>1999-07-22T13:58:49Z</time>
      </trkpt>
      <trkpt lat="43.409279" lon="-6.262173">
        <ele>250.054</ele>
        <time>1999-07-22T15:26:00Z</time>
      </trkpt>
      <trkpt lat="43.409281" lon="-6.262173">
        <ele>250.041</ele>
        <time>1999-07-22T15:26:01Z</time>
      </trkpt>
      <trkpt lat="43.409253" lon="-6.261752">
        <ele>247.081</ele>
        <time>1999-07-22T15:39:41Z</time>
      </trkpt>
      <trkpt lat="43.409269" lon="-6.261819">
        <ele>247.009</ele>
        <time>1999-07-22T15:39:43Z</time>
      </trkpt>
      <trkpt lat="43.409296" lon="-6.261897">
        <ele>247.008</ele>
        <time>1999-07-22T15:39:45Z</time>
      </trkpt>
      <trkpt lat="43.409325" lon="-6.261977">
        <ele>247.057</ele>
        <time>1999-07-22T15:39:47Z</time>
      </trkpt>
      <trkpt lat="43.409362" lon="-6.262051">
        <ele>247.242</ele>
        <time>1999-07-22T15:39:49Z</time>
      </trkpt>
      <trkpt lat="43.409387" lon="-6.262086">
        <ele>247.253</ele>
        <time>1999-07-22T15:39:50Z</time>
      </trkpt>
      <trkpt lat="43.409437" lon="-6.262155">
        <ele>247.449</ele>
        <time>1999-07-22T15:39:52Z</time>
      </trkpt>
      <trkpt lat="43.409488" lon="-6.262223">
        <ele>247.645</ele>
        <time>1999-07-22T15:39:54Z</time>
      </trkpt>
      <trkpt lat="43.409553" lon="-6.262313">
        <ele>248.262</ele>
        <time>1999-07-22T15:39:57Z</time>
      </trkpt>
      <trkpt lat="43.409569" lon="-6.262348">
        <ele>248.479</ele>
        <time>1999-07-22T15:39:58Z</time>
      </trkpt>
      <trkpt lat="43.409636" lon="-6.262469">
        <ele>249.265</ele>
        <time>1999-07-22T15:40:02Z</time>
      </trkpt>
      <trkpt lat="43.409693" lon="-6.262540">
        <ele>250.215</ele>
        <time>1999-07-22T15:40:05Z</time>
      </trkpt>
      <trkpt lat="43.409784" lon="-6.262689">
        <ele>251.465</ele>
        <time>1999-07-22T15:40:11Z</time>
      </trkpt>
      <trkpt lat="43.409797" lon="-6.262714">
        <ele>251.611</ele>
        <time>1999-07-22T15:40:12Z</time>
      </trkpt>
      <trkpt lat="43.409853" lon="-6.262824">
        <ele>252.408</ele>
        <time>1999-07-22T15:40:16Z</time>
      </trkpt>
      <trkpt lat="43.409903" lon="-6.262910">
        <ele>253.084</ele>
        <time>1999-07-22T15:40:19Z</time>
      </trkpt>
      <trkpt lat="43.409932" lon="-6.262956">
        <ele>253.839</ele>
        <time>1999-07-22T15:40:21Z</time>
      </trkpt>
      <trkpt lat="43.409973" lon="-6.263003">
        <ele>254.480</ele>
        <time>1999-07-22T15:40:24Z</time>
      </trkpt>
      <trkpt lat="43.410006" lon="-6.263061">
        <ele>254.886</ele>
        <time>1999-07-22T15:40:27Z</time>
      </trkpt>
      <trkpt lat="43.410051" lon="-6.263115">
        <ele>255.282</ele>
        <time>1999-07-22T15:40:30Z</time>
      </trkpt>
      <trkpt lat="43.410167" lon="-6.263264">
        <ele>255.219</ele>
        <time>1999-07-22T15:40:35Z</time>
      </trkpt>
      <trkpt lat="43.410239" lon="-6.263438">
        <ele>255.226</ele>
        <time>1999-07-22T15:40:38Z</time>
      </trkpt>
      <trkpt lat="43.410282" lon="-6.263573">
        <ele>255.272</ele>
        <time>1999-07-22T15:40:40Z</time>
      </trkpt>
      <trkpt lat="43.410342" lon="-6.263789">
        <ele>254.888</ele>
        <time>1999-07-22T15:40:43Z</time>
      </trkpt>
      <trkpt lat="43.410406" lon="-6.264009">
        <ele>254.424</ele>
        <time>1999-07-22T15:40:46Z</time>
      </trkpt>
      <trkpt lat="43.410444" lon="-6.264149">
        <ele>253.626</ele>
        <time>1999-07-22T15:40:48Z</time>
      </trkpt>
      <trkpt lat="43.410479" lon="-6.264270">
        <ele>253.008</ele>
        <time>1999-07-22T15:40:50Z</time>
      </trkpt>
      <trkpt lat="43.410515" lon="-6.264372">
        <ele>252.651</ele>
        <time>1999-07-22T15:40:52Z</time>
      </trkpt>
      <trkpt lat="43.410527" lon="-6.264416">
        <ele>252.456</ele>
        <time>1999-07-22T15:40:53Z</time>
      </trkpt>
      <trkpt lat="43.410538" lon="-6.264453">
        <ele>252.437</ele>
        <time>1999-07-22T15:40:54Z</time>
      </trkpt>
      <trkpt lat="43.410576" lon="-6.264566">
        <ele>252.413</ele>
        <time>1999-07-22T15:40:58Z</time>
      </trkpt>
      <trkpt lat="43.410599" lon="-6.264630">
        <ele>252.419</ele>
        <time>1999-07-22T15:41:00Z</time>
      </trkpt>
      <trkpt lat="43.410620" lon="-6.264704">
        <ele>252.466</ele>
        <time>1999-07-22T15:41:02Z</time>
      </trkpt>
      <trkpt lat="43.410643" lon="-6.264784">
        <ele>252.653</ele>
        <time>1999-07-22T15:41:04Z</time>
      </trkpt>
      <trkpt lat="43.410676" lon="-6.264905">
        <ele>253.019</ele>
        <time>1999-07-22T15:41:07Z</time>
      </trkpt>
      <trkpt lat="43.410688" lon="-6.265034">
        <ele>253.287</ele>
        <time>1999-07-22T15:41:10Z</time>
      </trkpt>
      <trkpt lat="43.410716" lon="-6.265110">
        <ele>253.642</ele>
        <time>1999-07-22T15:41:12Z</time>
      </trkpt>
      <trkpt lat="43.410746" lon="-6.265216">
        <ele>254.426</ele>
        <time>1999-07-22T15:41:15Z</time>
      </trkpt>
      <trkpt lat="43.410761" lon="-6.265284">
        <ele>254.608</ele>
        <time>1999-07-22T15:41:17Z</time>
      </trkpt>
      <trkpt lat="43.410785" lon="-6.265433">
        <ele>255.651</ele>
        <time>1999-07-22T15:41:22Z</time>
      </trkpt>
      <trkpt lat="43.410824" lon="-6.265582">
        <ele>256.866</ele>
        <time>1999-07-22T15:41:28Z</time>
      </trkpt>
      <trkpt lat="43.410834" lon="-6.265641">
        <ele>257.257</ele>
        <time>1999-07-22T15:41:30Z</time>
      </trkpt>
      <trkpt lat="43.410875" lon="-6.265816">
        <ele>257.893</ele>
        <time>1999-07-22T15:41:36Z</time>
      </trkpt>
      <trkpt lat="43.410886" lon="-6.265845">
        <ele>258.059</ele>
        <time>1999-07-22T15:41:37Z</time>
      </trkpt>
      <trkpt lat="43.410970" lon="-6.266013">
        <ele>258.416</ele>
        <time>1999-07-22T15:41:43Z</time>
      </trkpt>
      <trkpt lat="43.411023" lon="-6.266117">
        <ele>259.013</ele>
        <time>1999-07-22T15:41:47Z</time>
      </trkpt>
      <trkpt lat="43.411061" lon="-6.266207">
        <ele>259.279</ele>
        <time>1999-07-22T15:41:50Z</time>
      </trkpt>
      <trkpt lat="43.411133" lon="-6.266348">
        <ele>260.069</ele>
        <time>1999-07-22T15:41:55Z</time>
      </trkpt>
      <trkpt lat="43.411172" lon="-6.266426">
        <ele>260.604</ele>
        <time>1999-07-22T15:41:58Z</time>
      </trkpt>
      <trkpt lat="43.411225" lon="-6.266561">
        <ele>261.224</ele>
        <time>1999-07-22T15:42:03Z</time>
      </trkpt>
      <trkpt lat="43.411280" lon="-6.266668">
        <ele>261.808</ele>
        <time>1999-07-22T15:42:07Z</time>
      </trkpt>
      <trkpt lat="43.411373" lon="-6.266855">
        <ele>262.289</ele>
        <time>1999-07-22T15:42:14Z</time>
      </trkpt>
      <trkpt lat="43.411387" lon="-6.266885">
        <ele>262.254</ele>
        <time>1999-07-22T15:42:15Z</time>
      </trkpt>
      <trkpt lat="43.411489" lon="-6.267098">
        <ele>263.265</ele>
        <time>1999-07-22T15:42:22Z</time>
      </trkpt>
      <trkpt lat="43.411627" lon="-6.267347">
        <ele>264.291</ele>
        <time>1999-07-22T15:42:30Z</time>
      </trkpt>
      <trkpt lat="43.411643" lon="-6.267375">
        <ele>264.247</ele>
        <time>1999-07-22T15:42:31Z</time>
      </trkpt>
      <trkpt lat="43.411734" lon="-6.267543">
        <ele>264.874</ele>
        <time>1999-07-22T15:42:37Z</time>
      </trkpt>
      <trkpt lat="43.411829" lon="-6.267707">
        <ele>265.291</ele>
        <time>1999-07-22T15:42:44Z</time>
      </trkpt>
      <trkpt lat="43.411934" lon="-6.267864">
        <ele>266.097</ele>
        <time>1999-07-22T15:42:51Z</time>
      </trkpt>
      <trkpt lat="43.411950" lon="-6.267876">
        <ele>266.279</ele>
        <time>1999-07-22T15:42:52Z</time>
      </trkpt>
      <trkpt lat="43.411967" lon="-6.267883">
        <ele>266.205</ele>
        <time>1999-07-22T15:42:53Z</time>
      </trkpt>
      <trkpt lat="43.412046" lon="-6.267941">
        <ele>267.025</ele>
        <time>1999-07-22T15:42:58Z</time>
      </trkpt>
      <trkpt lat="43.412099" lon="-6.267957">
        <ele>267.408</ele>
        <time>1999-07-22T15:43:01Z</time>
      </trkpt>
      <trkpt lat="43.412134" lon="-6.267971">
        <ele>268.030</ele>
        <time>1999-07-22T15:43:04Z</time>
      </trkpt>
      <trkpt lat="43.412172" lon="-6.267971">
        <ele>268.445</ele>
        <time>1999-07-22T15:43:06Z</time>
      </trkpt>
      <trkpt lat="43.412245" lon="-6.268007">
        <ele>269.086</ele>
        <time>1999-07-22T15:43:10Z</time>
      </trkpt>
      <trkpt lat="43.412278" lon="-6.268044">
        <ele>269.292</ele>
        <time>1999-07-22T15:43:12Z</time>
      </trkpt>
      <trkpt lat="43.412350" lon="-6.268125">
        <ele>270.248</ele>
        <time>1999-07-22T15:43:16Z</time>
      </trkpt>
      <trkpt lat="43.412367" lon="-6.268146">
        <ele>270.485</ele>
        <time>1999-07-22T15:43:17Z</time>
      </trkpt>
      <trkpt lat="43.412433" lon="-6.268231">
        <ele>271.222</ele>
        <time>1999-07-22T15:43:22Z</time>
      </trkpt>
      <trkpt lat="43.412445" lon="-6.268245">
        <ele>271.468</ele>
        <time>1999-07-22T15:43:23Z</time>
      </trkpt>
      <trkpt lat="43.412457" lon="-6.268256">
        <ele>271.428</ele>
        <time>1999-07-22T15:43:24Z</time>
      </trkpt>
      <trkpt lat="43.412561" lon="-6.268355">
        <ele>271.889</ele>
        <time>1999-07-22T15:43:31Z</time>
      </trkpt>
      <trkpt lat="43.412605" lon="-6.268401">
        <ele>271.817</ele>
        <time>1999-07-22T15:43:34Z</time>
      </trkpt>
      <trkpt lat="43.412644" lon="-6.268465">
        <ele>272.008</ele>
        <time>1999-07-22T15:43:37Z</time>
      </trkpt>
      <trkpt lat="43.412685" lon="-6.268506">
        <ele>272.465</ele>
        <time>1999-07-22T15:43:39Z</time>
      </trkpt>
      <trkpt lat="43.412754" lon="-6.268581">
        <ele>273.060</ele>
        <time>1999-07-22T15:43:44Z</time>
      </trkpt>
      <trkpt lat="43.412774" lon="-6.268614">
        <ele>273.271</ele>
        <time>1999-07-22T15:43:46Z</time>
      </trkpt>
      <trkpt lat="43.412802" lon="-6.268640">
        <ele>273.457</ele>
        <time>1999-07-22T15:43:48Z</time>
      </trkpt>
      <trkpt lat="43.412817" lon="-6.268656">
        <ele>273.223</ele>
        <time>1999-07-22T15:43:49Z</time>
      </trkpt>
      <trkpt lat="43.412903" lon="-6.268751">
        <ele>273.880</ele>
        <time>1999-07-22T15:43:54Z</time>
      </trkpt>
      <trkpt lat="43.412933" lon="-6.268768">
        <ele>274.087</ele>
        <time>1999-07-22T15:43:56Z</time>
      </trkpt>
      <trkpt lat="43.412958" lon="-6.268807">
        <ele>274.453</ele>
        <time>1999-07-22T15:43:59Z</time>
      </trkpt>
      <trkpt lat="43.412963" lon="-6.268829">
        <ele>274.664</ele>
        <time>1999-07-22T15:44:01Z</time>
      </trkpt>
      <trkpt lat="43.412964" lon="-6.268835">
        <ele>274.806</ele>
        <time>1999-07-22T15:44:02Z</time>
      </trkpt>
      <trkpt lat="43.413062" lon="-6.268924">
        <ele>275.416</ele>
        <time>1999-07-22T15:44:15Z</time>
      </trkpt>
      <trkpt lat="43.413072" lon="-6.268937">
        <ele>275.408</ele>
        <time>1999-07-22T15:44:16Z</time>
      </trkpt>
      <trkpt lat="43.413085" lon="-6.268947">
        <ele>275.469</ele>
        <time>1999-07-22T15:44:17Z</time>
      </trkpt>
      <trkpt lat="43.413135" lon="-6.269021">
        <ele>275.694</ele>
        <time>1999-07-22T15:44:22Z</time>
      </trkpt>
      <trkpt lat="43.413156" lon="-6.269056">
        <ele>275.665</ele>
        <time>1999-07-22T15:44:24Z</time>
      </trkpt>
      <trkpt lat="43.413203" lon="-6.269114">
        <ele>276.291</ele>
        <time>1999-07-22T15:44:27Z</time>
      </trkpt>
      <trkpt lat="43.413225" lon="-6.269170">
        <ele>276.447</ele>
        <time>1999-07-22T15:44:30Z</time>
      </trkpt>
      <trkpt lat="43.413267" lon="-6.269234">
        <ele>276.834</ele>
        <time>1999-07-22T15:44:34Z</time>
      </trkpt>
      <trkpt lat="43.413307" lon="-6.269281">
        <ele>277.021</ele>
        <time>1999-07-22T15:44:36Z</time>
      </trkpt>
      <trkpt lat="43.413323" lon="-6.269315">
        <ele>277.217</ele>
        <time>1999-07-22T15:44:37Z</time>
      </trkpt>
      <trkpt lat="43.413434" lon="-6.269415">
        <ele>277.814</ele>
        <time>1999-07-22T15:44:42Z</time>
      </trkpt>
      <trkpt lat="43.413466" lon="-6.269490">
        <ele>278.454</ele>
        <time>1999-07-22T15:44:45Z</time>
      </trkpt>
      <trkpt lat="43.413505" lon="-6.269561">
        <ele>278.809</ele>
        <time>1999-07-22T15:44:47Z</time>
      </trkpt>
      <trkpt lat="43.413583" lon="-6.269729">
        <ele>279.408</ele>
        <time>1999-07-22T15:44:52Z</time>
      </trkpt>
      <trkpt lat="43.413657" lon="-6.269870">
        <ele>279.844</ele>
        <time>1999-07-22T15:44:57Z</time>
      </trkpt>
      <trkpt lat="43.413698" lon="-6.269958">
        <ele>280.099</ele>
        <time>1999-07-22T15:45:00Z</time>
      </trkpt>
      <trkpt lat="43.413742" lon="-6.270099">
        <ele>280.460</ele>
        <time>1999-07-22T15:45:04Z</time>
      </trkpt>
      <trkpt lat="43.413785" lon="-6.270270">
        <ele>280.626</ele>
        <time>1999-07-22T15:45:09Z</time>
      </trkpt>
      <trkpt lat="43.413779" lon="-6.270308">
        <ele>280.892</ele>
        <time>1999-07-22T15:45:10Z</time>
      </trkpt>
      <trkpt lat="43.413786" lon="-6.270388">
        <ele>280.869</ele>
        <time>1999-07-22T15:45:12Z</time>
      </trkpt>
      <trkpt lat="43.413801" lon="-6.270469">
        <ele>281.036</ele>
        <time>1999-07-22T15:45:14Z</time>
      </trkpt>
      <trkpt lat="43.413835" lon="-6.270580">
        <ele>281.472</ele>
        <time>1999-07-22T15:45:17Z</time>
      </trkpt>
      <trkpt lat="43.413911" lon="-6.270751">
        <ele>281.697</ele>
        <time>1999-07-22T15:45:21Z</time>
      </trkpt>
      <trkpt lat="43.413984" lon="-6.270906">
        <ele>281.823</ele>
        <time>1999-07-22T15:45:26Z</time>
      </trkpt>
      <trkpt lat="43.414057" lon="-6.271015">
        <ele>282.425</ele>
        <time>1999-07-22T15:45:31Z</time>
      </trkpt>
      <trkpt lat="43.414082" lon="-6.271041">
        <ele>282.408</ele>
        <time>1999-07-22T15:45:32Z</time>
      </trkpt>
      <trkpt lat="43.414201" lon="-6.271134">
        <ele>283.012</ele>
        <time>1999-07-22T15:45:38Z</time>
      </trkpt>
      <trkpt lat="43.414226" lon="-6.271167">
        <ele>283.237</ele>
        <time>1999-07-22T15:45:40Z</time>
      </trkpt>
      <trkpt lat="43.414256" lon="-6.271220">
        <ele>283.498</ele>
        <time>1999-07-22T15:45:43Z</time>
      </trkpt>
      <trkpt lat="43.414329" lon="-6.271352">
        <ele>283.874</ele>
        <time>1999-07-22T15:45:48Z</time>
      </trkpt>
      <trkpt lat="43.414459" lon="-6.271523">
        <ele>284.460</ele>
        <time>1999-07-22T15:45:54Z</time>
      </trkpt>
      <trkpt lat="43.414484" lon="-6.271551">
        <ele>284.697</ele>
        <time>1999-07-22T15:45:55Z</time>
      </trkpt>
      <trkpt lat="43.414558" lon="-6.271657">
        <ele>285.054</ele>
        <time>1999-07-22T15:45:59Z</time>
      </trkpt>
      <trkpt lat="43.414579" lon="-6.271713">
        <ele>285.410</ele>
        <time>1999-07-22T15:46:01Z</time>
      </trkpt>
      <trkpt lat="43.414619" lon="-6.271810">
        <ele>286.423</ele>
        <time>1999-07-22T15:46:05Z</time>
      </trkpt>
      <trkpt lat="43.414691" lon="-6.271854">
        <ele>286.883</ele>
        <time>1999-07-22T15:46:08Z</time>
      </trkpt>
      <trkpt lat="43.414755" lon="-6.271908">
        <ele>287.411</ele>
        <time>1999-07-22T15:46:11Z</time>
      </trkpt>
      <trkpt lat="43.414779" lon="-6.271949">
        <ele>287.808</ele>
        <time>1999-07-22T15:46:13Z</time>
      </trkpt>
      <trkpt lat="43.414815" lon="-6.271979">
        <ele>288.085</ele>
        <time>1999-07-22T15:46:15Z</time>
      </trkpt>
      <trkpt lat="43.414872" lon="-6.272021">
        <ele>288.450</ele>
        <time>1999-07-22T15:46:18Z</time>
      </trkpt>
      <trkpt lat="43.414974" lon="-6.272070">
        <ele>289.471</ele>
        <time>1999-07-22T15:46:22Z</time>
      </trkpt>
      <trkpt lat="43.415027" lon="-6.272112">
        <ele>289.887</ele>
        <time>1999-07-22T15:46:25Z</time>
      </trkpt>
      <trkpt lat="43.415131" lon="-6.272158">
        <ele>290.483</ele>
        <time>1999-07-22T15:46:30Z</time>
      </trkpt>
      <trkpt lat="43.415245" lon="-6.272194">
        <ele>291.280</ele>
        <time>1999-07-22T15:46:36Z</time>
      </trkpt>
      <trkpt lat="43.415264" lon="-6.272207">
        <ele>291.637</ele>
        <time>1999-07-22T15:46:37Z</time>
      </trkpt>
      <trkpt lat="43.415318" lon="-6.272219">
        <ele>292.033</ele>
        <time>1999-07-22T15:46:39Z</time>
      </trkpt>
      <trkpt lat="43.415358" lon="-6.272227">
        <ele>292.253</ele>
        <time>1999-07-22T15:46:41Z</time>
      </trkpt>
      <trkpt lat="43.415443" lon="-6.272219">
        <ele>292.804</ele>
        <time>1999-07-22T15:46:44Z</time>
      </trkpt>
      <trkpt lat="43.415463" lon="-6.272215">
        <ele>293.014</ele>
        <time>1999-07-22T15:46:45Z</time>
      </trkpt>
      <trkpt lat="43.415546" lon="-6.272209">
        <ele>293.608</ele>
        <time>1999-07-22T15:46:50Z</time>
      </trkpt>
      <trkpt lat="43.415568" lon="-6.272214">
        <ele>293.828</ele>
        <time>1999-07-22T15:46:51Z</time>
      </trkpt>
      <trkpt lat="43.415646" lon="-6.272328">
        <ele>294.823</ele>
        <time>1999-07-22T15:46:56Z</time>
      </trkpt>
      <trkpt lat="43.415661" lon="-6.272337">
        <ele>295.074</ele>
        <time>1999-07-22T15:46:57Z</time>
      </trkpt>
      <trkpt lat="43.415848" lon="-6.272449">
        <ele>295.670</ele>
        <time>1999-07-22T15:47:04Z</time>
      </trkpt>
      <trkpt lat="43.415863" lon="-6.272467">
        <ele>295.856</ele>
        <time>1999-07-22T15:47:05Z</time>
      </trkpt>
      <trkpt lat="43.415984" lon="-6.272516">
        <ele>297.013</ele>
        <time>1999-07-22T15:47:11Z</time>
      </trkpt>
      <trkpt lat="43.416052" lon="-6.272545">
        <ele>297.890</ele>
        <time>1999-07-22T15:47:15Z</time>
      </trkpt>
      <trkpt lat="43.416077" lon="-6.272560">
        <ele>298.246</ele>
        <time>1999-07-22T15:47:17Z</time>
      </trkpt>
      <trkpt lat="43.416094" lon="-6.272563">
        <ele>298.456</ele>
        <time>1999-07-22T15:47:18Z</time>
      </trkpt>
      <trkpt lat="43.416190" lon="-6.272636">
        <ele>299.059</ele>
        <time>1999-07-22T15:47:23Z</time>
      </trkpt>
      <trkpt lat="43.416229" lon="-6.272661">
        <ele>299.414</ele>
        <time>1999-07-22T15:47:25Z</time>
      </trkpt>
      <trkpt lat="43.416347" lon="-6.272674">
        <ele>300.008</ele>
        <time>1999-07-22T15:47:30Z</time>
      </trkpt>
      <trkpt lat="43.416453" lon="-6.272700">
        <ele>301.028</ele>
        <time>1999-07-22T15:47:35Z</time>
      </trkpt>
      <trkpt lat="43.416483" lon="-6.272722">
        <ele>301.453</ele>
        <time>1999-07-22T15:47:37Z</time>
      </trkpt>
      <trkpt lat="43.416562" lon="-6.272821">
        <ele>302.284</ele>
        <time>1999-07-22T15:47:42Z</time>
      </trkpt>
      <trkpt lat="43.416604" lon="-6.272873">
        <ele>303.290</ele>
        <time>1999-07-22T15:47:45Z</time>
      </trkpt>
      <trkpt lat="43.416669" lon="-6.272960">
        <ele>303.876</ele>
        <time>1999-07-22T15:47:49Z</time>
      </trkpt>
      <trkpt lat="43.416683" lon="-6.273008">
        <ele>304.293</ele>
        <time>1999-07-22T15:47:51Z</time>
      </trkpt>
      <trkpt lat="43.416717" lon="-6.273071">
        <ele>304.670</ele>
        <time>1999-07-22T15:47:54Z</time>
      </trkpt>
      <trkpt lat="43.416751" lon="-6.273153">
        <ele>305.246</ele>
        <time>1999-07-22T15:47:57Z</time>
      </trkpt>
      <trkpt lat="43.416746" lon="-6.273177">
        <ele>305.429</ele>
        <time>1999-07-22T15:47:58Z</time>
      </trkpt>
      <trkpt lat="43.416758" lon="-6.273216">
        <ele>305.600</ele>
        <time>1999-07-22T15:47:59Z</time>
      </trkpt>
      <trkpt lat="43.416796" lon="-6.273345">
        <ele>306.020</ele>
        <time>1999-07-22T15:48:03Z</time>
      </trkpt>
      <trkpt lat="43.416799" lon="-6.273375">
        <ele>306.208</ele>
        <time>1999-07-22T15:48:04Z</time>
      </trkpt>
      <trkpt lat="43.416790" lon="-6.273519">
        <ele>306.825</ele>
        <time>1999-07-22T15:48:09Z</time>
      </trkpt>
      <trkpt lat="43.416791" lon="-6.273567">
        <ele>307.080</ele>
        <time>1999-07-22T15:48:11Z</time>
      </trkpt>
      <trkpt lat="43.416790" lon="-6.273651">
        <ele>307.851</ele>
        <time>1999-07-22T15:48:15Z</time>
      </trkpt>
      <trkpt lat="43.416796" lon="-6.273702">
        <ele>308.297</ele>
        <time>1999-07-22T15:48:17Z</time>
      </trkpt>
      <trkpt lat="43.416816" lon="-6.273775">
        <ele>308.663</ele>
        <time>1999-07-22T15:48:20Z</time>
      </trkpt>
      <trkpt lat="43.416852" lon="-6.273845">
        <ele>309.220</ele>
        <time>1999-07-22T15:48:23Z</time>
      </trkpt>
      <trkpt lat="43.416868" lon="-6.273866">
        <ele>309.457</ele>
        <time>1999-07-22T15:48:24Z</time>
      </trkpt>
      <trkpt lat="43.416913" lon="-6.273951">
        <ele>310.053</ele>
        <time>1999-07-22T15:48:28Z</time>
      </trkpt>
      <trkpt lat="43.416916" lon="-6.273977">
        <ele>310.287</ele>
        <time>1999-07-22T15:48:29Z</time>
      </trkpt>
      <trkpt lat="43.416925" lon="-6.274000">
        <ele>310.442</ele>
        <time>1999-07-22T15:48:30Z</time>
      </trkpt>
      <trkpt lat="43.416939" lon="-6.274111">
        <ele>311.226</ele>
        <time>1999-07-22T15:48:35Z</time>
      </trkpt>
      <trkpt lat="43.416935" lon="-6.274140">
        <ele>311.408</ele>
        <time>1999-07-22T15:48:36Z</time>
      </trkpt>
      <trkpt lat="43.416940" lon="-6.274189">
        <ele>311.491</ele>
        <time>1999-07-22T15:48:38Z</time>
      </trkpt>
      <trkpt lat="43.416970" lon="-6.274279">
        <ele>312.296</ele>
        <time>1999-07-22T15:48:42Z</time>
      </trkpt>
      <trkpt lat="43.417034" lon="-6.274383">
        <ele>313.427</ele>
        <time>1999-07-22T15:48:47Z</time>
      </trkpt>
      <trkpt lat="43.417048" lon="-6.274406">
        <ele>313.693</ele>
        <time>1999-07-22T15:48:48Z</time>
      </trkpt>
      <trkpt lat="43.417080" lon="-6.274496">
        <ele>313.859</ele>
        <time>1999-07-22T15:48:52Z</time>
      </trkpt>
      <trkpt lat="43.417081" lon="-6.274521">
        <ele>314.096</ele>
        <time>1999-07-22T15:48:53Z</time>
      </trkpt>
      <trkpt lat="43.417088" lon="-6.274551">
        <ele>314.223</ele>
        <time>1999-07-22T15:48:54Z</time>
      </trkpt>
      <trkpt lat="43.417086" lon="-6.274626">
        <ele>314.649</ele>
        <time>1999-07-22T15:48:57Z</time>
      </trkpt>
      <trkpt lat="43.417076" lon="-6.274694">
        <ele>315.269</ele>
        <time>1999-07-22T15:49:00Z</time>
      </trkpt>
      <trkpt lat="43.417082" lon="-6.274728">
        <ele>315.604</ele>
        <time>1999-07-22T15:49:01Z</time>
      </trkpt>
      <trkpt lat="43.417090" lon="-6.274791">
        <ele>316.024</ele>
        <time>1999-07-22T15:49:03Z</time>
      </trkpt>
      <trkpt lat="43.417093" lon="-6.274838">
        <ele>316.408</ele>
        <time>1999-07-22T15:49:05Z</time>
      </trkpt>
      <trkpt lat="43.417103" lon="-6.274910">
        <ele>317.239</ele>
        <time>1999-07-22T15:49:08Z</time>
      </trkpt>
      <trkpt lat="43.417138" lon="-6.274974">
        <ele>317.244</ele>
        <time>1999-07-22T15:49:11Z</time>
      </trkpt>
      <trkpt lat="43.417136" lon="-6.275018">
        <ele>317.685</ele>
        <time>1999-07-22T15:49:13Z</time>
      </trkpt>
      <trkpt lat="43.417127" lon="-6.275036">
        <ele>317.871</ele>
        <time>1999-07-22T15:49:14Z</time>
      </trkpt>
      <trkpt lat="43.417125" lon="-6.275077">
        <ele>318.067</ele>
        <time>1999-07-22T15:49:16Z</time>
      </trkpt>
      <trkpt lat="43.417142" lon="-6.275129">
        <ele>318.424</ele>
        <time>1999-07-22T15:49:18Z</time>
      </trkpt>
      <trkpt lat="43.417161" lon="-6.275205">
        <ele>318.811</ele>
        <time>1999-07-22T15:49:21Z</time>
      </trkpt>
      <trkpt lat="43.417176" lon="-6.275275">
        <ele>319.447</ele>
        <time>1999-07-22T15:49:24Z</time>
      </trkpt>
      <trkpt lat="43.417189" lon="-6.275295">
        <ele>319.657</ele>
        <time>1999-07-22T15:49:25Z</time>
      </trkpt>
      <trkpt lat="43.417207" lon="-6.275383">
        <ele>320.200</ele>
        <time>1999-07-22T15:49:29Z</time>
      </trkpt>
      <trkpt lat="43.417223" lon="-6.275408">
        <ele>320.420</ele>
        <time>1999-07-22T15:49:30Z</time>
      </trkpt>
      <trkpt lat="43.417245" lon="-6.275473">
        <ele>321.008</ele>
        <time>1999-07-22T15:49:33Z</time>
      </trkpt>
      <trkpt lat="43.417273" lon="-6.275563">
        <ele>321.698</ele>
        <time>1999-07-22T15:49:36Z</time>
      </trkpt>
      <trkpt lat="43.417281" lon="-6.275655">
        <ele>322.223</ele>
        <time>1999-07-22T15:49:39Z</time>
      </trkpt>
      <trkpt lat="43.417279" lon="-6.275718">
        <ele>322.684</ele>
        <time>1999-07-22T15:49:41Z</time>
      </trkpt>
      <trkpt lat="43.417294" lon="-6.275817">
        <ele>323.080</ele>
        <time>1999-07-22T15:49:45Z</time>
      </trkpt>
      <trkpt lat="43.417325" lon="-6.275899">
        <ele>323.686</ele>
        <time>1999-07-22T15:49:48Z</time>
      </trkpt>
      <trkpt lat="43.417346" lon="-6.276011">
        <ele>324.443</ele>
        <time>1999-07-22T15:49:52Z</time>
      </trkpt>
      <trkpt lat="43.417351" lon="-6.276037">
        <ele>324.810</ele>
        <time>1999-07-22T15:49:53Z</time>
      </trkpt>
      <trkpt lat="43.417346" lon="-6.276193">
        <ele>325.886</ele>
        <time>1999-07-22T15:49:59Z</time>
      </trkpt>
      <trkpt lat="43.417283" lon="-6.276349">
        <ele>326.812</ele>
        <time>1999-07-22T15:50:06Z</time>
      </trkpt>
      <trkpt lat="43.417182" lon="-6.276498">
        <ele>327.832</ele>
        <time>1999-07-22T15:50:14Z</time>
      </trkpt>
      <trkpt lat="43.417171" lon="-6.276518">
        <ele>328.005</ele>
        <time>1999-07-22T15:50:15Z</time>
      </trkpt>
      <trkpt lat="43.417156" lon="-6.276533">
        <ele>328.208</ele>
        <time>1999-07-22T15:50:16Z</time>
      </trkpt>
      <trkpt lat="43.417097" lon="-6.276580">
        <ele>328.824</ele>
        <time>1999-07-22T15:50:20Z</time>
      </trkpt>
      <trkpt lat="43.417045" lon="-6.276607">
        <ele>329.259</ele>
        <time>1999-07-22T15:50:23Z</time>
      </trkpt>
      <trkpt lat="43.417023" lon="-6.276645">
        <ele>329.640</ele>
        <time>1999-07-22T15:50:26Z</time>
      </trkpt>
      <trkpt lat="43.417003" lon="-6.276701">
        <ele>330.296</ele>
        <time>1999-07-22T15:50:30Z</time>
      </trkpt>
      <trkpt lat="43.416982" lon="-6.276742">
        <ele>330.612</ele>
        <time>1999-07-22T15:50:32Z</time>
      </trkpt>
      <trkpt lat="43.416959" lon="-6.276755">
        <ele>330.669</ele>
        <time>1999-07-22T15:50:33Z</time>
      </trkpt>
      <trkpt lat="43.416924" lon="-6.276816">
        <ele>330.896</ele>
        <time>1999-07-22T15:50:36Z</time>
      </trkpt>
      <trkpt lat="43.416891" lon="-6.276882">
        <ele>331.292</ele>
        <time>1999-07-22T15:50:39Z</time>
      </trkpt>
      <trkpt lat="43.416890" lon="-6.276909">
        <ele>331.487</ele>
        <time>1999-07-22T15:50:40Z</time>
      </trkpt>
      <trkpt lat="43.416884" lon="-6.276947">
        <ele>331.642</ele>
        <time>1999-07-22T15:50:42Z</time>
      </trkpt>
      <trkpt lat="43.416871" lon="-6.277015">
        <ele>332.226</ele>
        <time>1999-07-22T15:50:45Z</time>
      </trkpt>
      <trkpt lat="43.416866" lon="-6.277039">
        <ele>332.408</ele>
        <time>1999-07-22T15:50:46Z</time>
      </trkpt>
      <trkpt lat="43.416858" lon="-6.277076">
        <ele>332.631</ele>
        <time>1999-07-22T15:50:48Z</time>
      </trkpt>
      <trkpt lat="43.416847" lon="-6.277087">
        <ele>332.626</ele>
        <time>1999-07-22T15:50:49Z</time>
      </trkpt>
      <trkpt lat="43.416841" lon="-6.277179">
        <ele>333.027</ele>
        <time>1999-07-22T15:50:53Z</time>
      </trkpt>
      <trkpt lat="43.416860" lon="-6.277231">
        <ele>333.453</ele>
        <time>1999-07-22T15:50:55Z</time>
      </trkpt>
      <trkpt lat="43.416856" lon="-6.277309">
        <ele>333.859</ele>
        <time>1999-07-22T15:50:58Z</time>
      </trkpt>
      <trkpt lat="43.416860" lon="-6.277335">
        <ele>334.046</ele>
        <time>1999-07-22T15:50:59Z</time>
      </trkpt>
      <trkpt lat="43.416865" lon="-6.277411">
        <ele>334.283</ele>
        <time>1999-07-22T15:51:02Z</time>
      </trkpt>
      <trkpt lat="43.416854" lon="-6.277435">
        <ele>334.449</ele>
        <time>1999-07-22T15:51:03Z</time>
      </trkpt>
      <trkpt lat="43.416852" lon="-6.277481">
        <ele>334.891</ele>
        <time>1999-07-22T15:51:05Z</time>
      </trkpt>
      <trkpt lat="43.416850" lon="-6.277550">
        <ele>335.481</ele>
        <time>1999-07-22T15:51:08Z</time>
      </trkpt>
      <trkpt lat="43.416840" lon="-6.277627">
        <ele>336.019</ele>
        <time>1999-07-22T15:51:11Z</time>
      </trkpt>
      <trkpt lat="43.416842" lon="-6.277703">
        <ele>336.608</ele>
        <time>1999-07-22T15:51:14Z</time>
      </trkpt>
      <trkpt lat="43.416827" lon="-6.277787">
        <ele>337.432</ele>
        <time>1999-07-22T15:51:17Z</time>
      </trkpt>
      <trkpt lat="43.416805" lon="-6.277874">
        <ele>337.827</ele>
        <time>1999-07-22T15:51:20Z</time>
      </trkpt>
      <trkpt lat="43.416788" lon="-6.277898">
        <ele>337.638</ele>
        <time>1999-07-22T15:51:21Z</time>
      </trkpt>
      <trkpt lat="43.416770" lon="-6.277920">
        <ele>337.854</ele>
        <time>1999-07-22T15:51:22Z</time>
      </trkpt>
      <trkpt lat="43.416718" lon="-6.278025">
        <ele>338.620</ele>
        <time>1999-07-22T15:51:26Z</time>
      </trkpt>
      <trkpt lat="43.416697" lon="-6.278075">
        <ele>339.047</ele>
        <time>1999-07-22T15:51:28Z</time>
      </trkpt>
      <trkpt lat="43.416680" lon="-6.278138">
        <ele>339.244</ele>
        <time>1999-07-22T15:51:30Z</time>
      </trkpt>
      <trkpt lat="43.416664" lon="-6.278213">
        <ele>339.630</ele>
        <time>1999-07-22T15:51:33Z</time>
      </trkpt>
      <trkpt lat="43.416652" lon="-6.278235">
        <ele>339.813</ele>
        <time>1999-07-22T15:51:34Z</time>
      </trkpt>
      <trkpt lat="43.416591" lon="-6.278328">
        <ele>340.643</ele>
        <time>1999-07-22T15:51:39Z</time>
      </trkpt>
      <trkpt lat="43.416579" lon="-6.278376">
        <ele>340.807</ele>
        <time>1999-07-22T15:51:41Z</time>
      </trkpt>
      <trkpt lat="43.416575" lon="-6.278405">
        <ele>340.808</ele>
        <time>1999-07-22T15:51:42Z</time>
      </trkpt>
      <trkpt lat="43.416581" lon="-6.278434">
        <ele>341.024</ele>
        <time>1999-07-22T15:51:43Z</time>
      </trkpt>
      <trkpt lat="43.416579" lon="-6.278464">
        <ele>341.079</ele>
        <time>1999-07-22T15:51:44Z</time>
      </trkpt>
      <trkpt lat="43.416582" lon="-6.278583">
        <ele>341.630</ele>
        <time>1999-07-22T15:51:48Z</time>
      </trkpt>
      <trkpt lat="43.416584" lon="-6.278611">
        <ele>341.826</ele>
        <time>1999-07-22T15:51:49Z</time>
      </trkpt>
      <trkpt lat="43.416583" lon="-6.278655">
        <ele>342.262</ele>
        <time>1999-07-22T15:51:51Z</time>
      </trkpt>
      <trkpt lat="43.416584" lon="-6.278711">
        <ele>342.289</ele>
        <time>1999-07-22T15:51:54Z</time>
      </trkpt>
      <trkpt lat="43.416590" lon="-6.278820">
        <ele>342.696</ele>
        <time>1999-07-22T15:51:59Z</time>
      </trkpt>
      <trkpt lat="43.416597" lon="-6.278847">
        <ele>342.812</ele>
        <time>1999-07-22T15:52:00Z</time>
      </trkpt>
      <trkpt lat="43.416608" lon="-6.278875">
        <ele>343.012</ele>
        <time>1999-07-22T15:52:01Z</time>
      </trkpt>
      <trkpt lat="43.416621" lon="-6.278981">
        <ele>343.632</ele>
        <time>1999-07-22T15:52:05Z</time>
      </trkpt>
      <trkpt lat="43.416622" lon="-6.279003">
        <ele>343.805</ele>
        <time>1999-07-22T15:52:06Z</time>
      </trkpt>
      <trkpt lat="43.416618" lon="-6.279027">
        <ele>344.008</ele>
        <time>1999-07-22T15:52:07Z</time>
      </trkpt>
      <trkpt lat="43.416617" lon="-6.279085">
        <ele>344.474</ele>
        <time>1999-07-22T15:52:10Z</time>
      </trkpt>
      <trkpt lat="43.416622" lon="-6.279130">
        <ele>344.829</ele>
        <time>1999-07-22T15:52:12Z</time>
      </trkpt>
      <trkpt lat="43.416605" lon="-6.279214">
        <ele>345.670</ele>
        <time>1999-07-22T15:52:15Z</time>
      </trkpt>
      <trkpt lat="43.416601" lon="-6.279242">
        <ele>345.866</ele>
        <time>1999-07-22T15:52:16Z</time>
      </trkpt>
      <trkpt lat="43.416606" lon="-6.279266">
        <ele>345.842</ele>
        <time>1999-07-22T15:52:17Z</time>
      </trkpt>
      <trkpt lat="43.416598" lon="-6.279350">
        <ele>346.279</ele>
        <time>1999-07-22T15:52:20Z</time>
      </trkpt>
      <trkpt lat="43.416585" lon="-6.279378">
        <ele>346.296</ele>
        <time>1999-07-22T15:52:21Z</time>
      </trkpt>
      <trkpt lat="43.416559" lon="-6.279503">
        <ele>346.872</ele>
        <time>1999-07-22T15:52:26Z</time>
      </trkpt>
      <trkpt lat="43.416562" lon="-6.279522">
        <ele>347.014</ele>
        <time>1999-07-22T15:52:27Z</time>
      </trkpt>
      <trkpt lat="43.416566" lon="-6.279562">
        <ele>347.454</ele>
        <time>1999-07-22T15:52:29Z</time>
      </trkpt>
      <trkpt lat="43.416577" lon="-6.279615">
        <ele>347.609</ele>
        <time>1999-07-22T15:52:31Z</time>
      </trkpt>
      <trkpt lat="43.416578" lon="-6.279680">
        <ele>348.008</ele>
        <time>1999-07-22T15:52:34Z</time>
      </trkpt>
      <trkpt lat="43.416612" lon="-6.279762">
        <ele>348.824</ele>
        <time>1999-07-22T15:52:38Z</time>
      </trkpt>
      <trkpt lat="43.416638" lon="-6.279802">
        <ele>349.059</ele>
        <time>1999-07-22T15:52:40Z</time>
      </trkpt>
      <trkpt lat="43.416673" lon="-6.279867">
        <ele>349.690</ele>
        <time>1999-07-22T15:52:43Z</time>
      </trkpt>
      <trkpt lat="43.416680" lon="-6.279895">
        <ele>349.626</ele>
        <time>1999-07-22T15:52:44Z</time>
      </trkpt>
      <trkpt lat="43.416718" lon="-6.279998">
        <ele>350.212</ele>
        <time>1999-07-22T15:52:48Z</time>
      </trkpt>
      <trkpt lat="43.416735" lon="-6.280097">
        <ele>350.669</ele>
        <time>1999-07-22T15:52:52Z</time>
      </trkpt>
      <trkpt lat="43.416736" lon="-6.280125">
        <ele>351.246</ele>
        <time>1999-07-22T15:52:53Z</time>
      </trkpt>
      <trkpt lat="43.416729" lon="-6.280157">
        <ele>351.222</ele>
        <time>1999-07-22T15:52:54Z</time>
      </trkpt>
      <trkpt lat="43.416745" lon="-6.280291">
        <ele>352.447</ele>
        <time>1999-07-22T15:52:59Z</time>
      </trkpt>
      <trkpt lat="43.416750" lon="-6.280316">
        <ele>352.429</ele>
        <time>1999-07-22T15:53:00Z</time>
      </trkpt>
      <trkpt lat="43.416754" lon="-6.280333">
        <ele>352.421</ele>
        <time>1999-07-22T15:53:01Z</time>
      </trkpt>
      <trkpt lat="43.416743" lon="-6.280350">
        <ele>352.808</ele>
        <time>1999-07-22T15:53:02Z</time>
      </trkpt>
      <trkpt lat="43.416743" lon="-6.280392">
        <ele>352.817</ele>
        <time>1999-07-22T15:53:04Z</time>
      </trkpt>
      <trkpt lat="43.416772" lon="-6.280475">
        <ele>353.422</ele>
        <time>1999-07-22T15:53:08Z</time>
      </trkpt>
      <trkpt lat="43.416801" lon="-6.280515">
        <ele>353.863</ele>
        <time>1999-07-22T15:53:10Z</time>
      </trkpt>
      <trkpt lat="43.416800" lon="-6.280616">
        <ele>354.649</ele>
        <time>1999-07-22T15:53:14Z</time>
      </trkpt>
      <trkpt lat="43.416792" lon="-6.280695">
        <ele>355.495</ele>
        <time>1999-07-22T15:53:17Z</time>
      </trkpt>
      <trkpt lat="43.416790" lon="-6.280720">
        <ele>355.622</ele>
        <time>1999-07-22T15:53:18Z</time>
      </trkpt>
      <trkpt lat="43.416801" lon="-6.280743">
        <ele>355.619</ele>
        <time>1999-07-22T15:53:19Z</time>
      </trkpt>
      <trkpt lat="43.416816" lon="-6.280828">
        <ele>356.285</ele>
        <time>1999-07-22T15:53:22Z</time>
      </trkpt>
      <trkpt lat="43.416815" lon="-6.280856">
        <ele>356.491</ele>
        <time>1999-07-22T15:53:23Z</time>
      </trkpt>
      <trkpt lat="43.416818" lon="-6.280912">
        <ele>356.681</ele>
        <time>1999-07-22T15:53:25Z</time>
      </trkpt>
      <trkpt lat="43.416832" lon="-6.280961">
        <ele>356.819</ele>
        <time>1999-07-22T15:53:27Z</time>
      </trkpt>
      <trkpt lat="43.416839" lon="-6.281000">
        <ele>357.008</ele>
        <time>1999-07-22T15:53:29Z</time>
      </trkpt>
      <trkpt lat="43.416862" lon="-6.281072">
        <ele>357.422</ele>
        <time>1999-07-22T15:53:33Z</time>
      </trkpt>
      <trkpt lat="43.416864" lon="-6.281162">
        <ele>358.047</ele>
        <time>1999-07-22T15:53:36Z</time>
      </trkpt>
      <trkpt lat="43.416874" lon="-6.281278">
        <ele>358.618</ele>
        <time>1999-07-22T15:53:41Z</time>
      </trkpt>
      <trkpt lat="43.416884" lon="-6.281306">
        <ele>358.644</ele>
        <time>1999-07-22T15:53:42Z</time>
      </trkpt>
      <trkpt lat="43.416925" lon="-6.281417">
        <ele>359.830</ele>
        <time>1999-07-22T15:53:46Z</time>
      </trkpt>
      <trkpt lat="43.416978" lon="-6.281537">
        <ele>360.017</ele>
        <time>1999-07-22T15:53:50Z</time>
      </trkpt>
      <trkpt lat="43.417022" lon="-6.281704">
        <ele>360.434</ele>
        <time>1999-07-22T15:53:56Z</time>
      </trkpt>
      <trkpt lat="43.417019" lon="-6.281758">
        <ele>360.880</ele>
        <time>1999-07-22T15:53:58Z</time>
      </trkpt>
      <trkpt lat="43.417017" lon="-6.281877">
        <ele>361.449</ele>
        <time>1999-07-22T15:54:02Z</time>
      </trkpt>
      <trkpt lat="43.417023" lon="-6.281958">
        <ele>361.602</ele>
        <time>1999-07-22T15:54:05Z</time>
      </trkpt>
      <trkpt lat="43.417025" lon="-6.282010">
        <ele>362.022</ele>
        <time>1999-07-22T15:54:07Z</time>
      </trkpt>
      <trkpt lat="43.417024" lon="-6.282144">
        <ele>362.808</ele>
        <time>1999-07-22T15:54:12Z</time>
      </trkpt>
      <trkpt lat="43.417022" lon="-6.282195">
        <ele>363.247</ele>
        <time>1999-07-22T15:54:14Z</time>
      </trkpt>
      <trkpt lat="43.417013" lon="-6.282270">
        <ele>364.022</ele>
        <time>1999-07-22T15:54:17Z</time>
      </trkpt>
      <trkpt lat="43.417001" lon="-6.282345">
        <ele>364.453</ele>
        <time>1999-07-22T15:54:20Z</time>
      </trkpt>
      <trkpt lat="43.416991" lon="-6.282420">
        <ele>365.079</ele>
        <time>1999-07-22T15:54:23Z</time>
      </trkpt>
      <trkpt lat="43.416985" lon="-6.282468">
        <ele>365.235</ele>
        <time>1999-07-22T15:54:25Z</time>
      </trkpt>
      <trkpt lat="43.416976" lon="-6.282540">
        <ele>365.622</ele>
        <time>1999-07-22T15:54:28Z</time>
      </trkpt>
      <trkpt lat="43.416975" lon="-6.282582">
        <ele>365.649</ele>
        <time>1999-07-22T15:54:30Z</time>
      </trkpt>
      <trkpt lat="43.416974" lon="-6.282603">
        <ele>365.835</ele>
        <time>1999-07-22T15:54:31Z</time>
      </trkpt>
      <trkpt lat="43.416977" lon="-6.282624">
        <ele>366.099</ele>
        <time>1999-07-22T15:54:32Z</time>
      </trkpt>
      <trkpt lat="43.416984" lon="-6.282671">
        <ele>366.407</ele>
        <time>1999-07-22T15:54:34Z</time>
      </trkpt>
      <trkpt lat="43.416988" lon="-6.282738">
        <ele>366.627</ele>
        <time>1999-07-22T15:54:37Z</time>
      </trkpt>
      <trkpt lat="43.416989" lon="-6.282762">
        <ele>367.008</ele>
        <time>1999-07-22T15:54:38Z</time>
      </trkpt>
      <trkpt lat="43.416979" lon="-6.282830">
        <ele>367.692</ele>
        <time>1999-07-22T15:54:41Z</time>
      </trkpt>
      <trkpt lat="43.416978" lon="-6.282855">
        <ele>367.637</ele>
        <time>1999-07-22T15:54:42Z</time>
      </trkpt>
      <trkpt lat="43.416959" lon="-6.282934">
        <ele>368.098</ele>
        <time>1999-07-22T15:54:45Z</time>
      </trkpt>
      <trkpt lat="43.416951" lon="-6.282957">
        <ele>368.244</ele>
        <time>1999-07-22T15:54:46Z</time>
      </trkpt>
      <trkpt lat="43.416938" lon="-6.283006">
        <ele>368.440</ele>
        <time>1999-07-22T15:54:48Z</time>
      </trkpt>
      <trkpt lat="43.416919" lon="-6.283105">
        <ele>369.077</ele>
        <time>1999-07-22T15:54:52Z</time>
      </trkpt>
      <trkpt lat="43.416899" lon="-6.283182">
        <ele>369.654</ele>
        <time>1999-07-22T15:54:56Z</time>
      </trkpt>
      <trkpt lat="43.416895" lon="-6.283219">
        <ele>370.030</ele>
        <time>1999-07-22T15:54:58Z</time>
      </trkpt>
      <trkpt lat="43.416900" lon="-6.283236">
        <ele>370.293</ele>
        <time>1999-07-22T15:54:59Z</time>
      </trkpt>
      <trkpt lat="43.416897" lon="-6.283264">
        <ele>370.465</ele>
        <time>1999-07-22T15:55:01Z</time>
      </trkpt>
      <trkpt lat="43.416875" lon="-6.283311">
        <ele>370.821</ele>
        <time>1999-07-22T15:55:04Z</time>
      </trkpt>
      <trkpt lat="43.416859" lon="-6.283349">
        <ele>371.208</ele>
        <time>1999-07-22T15:55:06Z</time>
      </trkpt>
      <trkpt lat="43.416854" lon="-6.283368">
        <ele>371.272</ele>
        <time>1999-07-22T15:55:07Z</time>
      </trkpt>
      <trkpt lat="43.416830" lon="-6.283450">
        <ele>371.897</ele>
        <time>1999-07-22T15:55:11Z</time>
      </trkpt>
      <trkpt lat="43.416816" lon="-6.283489">
        <ele>372.488</ele>
        <time>1999-07-22T15:55:13Z</time>
      </trkpt>
      <trkpt lat="43.416805" lon="-6.283572">
        <ele>373.244</ele>
        <time>1999-07-22T15:55:17Z</time>
      </trkpt>
      <trkpt lat="43.416802" lon="-6.283611">
        <ele>373.420</ele>
        <time>1999-07-22T15:55:19Z</time>
      </trkpt>
      <trkpt lat="43.416811" lon="-6.283677">
        <ele>373.627</ele>
        <time>1999-07-22T15:55:22Z</time>
      </trkpt>
      <trkpt lat="43.416805" lon="-6.283730">
        <ele>374.074</ele>
        <time>1999-07-22T15:55:24Z</time>
      </trkpt>
      <trkpt lat="43.416785" lon="-6.283820">
        <ele>374.260</ele>
        <time>1999-07-22T15:55:28Z</time>
      </trkpt>
      <trkpt lat="43.416771" lon="-6.283860">
        <ele>374.457</ele>
        <time>1999-07-22T15:55:30Z</time>
      </trkpt>
      <trkpt lat="43.416761" lon="-6.283932">
        <ele>375.200</ele>
        <time>1999-07-22T15:55:33Z</time>
      </trkpt>
      <trkpt lat="43.416759" lon="-6.283954">
        <ele>375.420</ele>
        <time>1999-07-22T15:55:34Z</time>
      </trkpt>
      <trkpt lat="43.416760" lon="-6.283980">
        <ele>375.608</ele>
        <time>1999-07-22T15:55:35Z</time>
      </trkpt>
      <trkpt lat="43.416793" lon="-6.284045">
        <ele>376.058</ele>
        <time>1999-07-22T15:55:38Z</time>
      </trkpt>
      <trkpt lat="43.416802" lon="-6.284104">
        <ele>376.243</ele>
        <time>1999-07-22T15:55:40Z</time>
      </trkpt>
      <trkpt lat="43.416835" lon="-6.284239">
        <ele>376.474</ele>
        <time>1999-07-22T15:55:45Z</time>
      </trkpt>
      <trkpt lat="43.416838" lon="-6.284283">
        <ele>376.650</ele>
        <time>1999-07-22T15:55:47Z</time>
      </trkpt>
      <trkpt lat="43.416828" lon="-6.284339">
        <ele>376.886</ele>
        <time>1999-07-22T15:55:50Z</time>
      </trkpt>
      <trkpt lat="43.416824" lon="-6.284386">
        <ele>377.263</ele>
        <time>1999-07-22T15:55:52Z</time>
      </trkpt>
      <trkpt lat="43.416830" lon="-6.284442">
        <ele>377.430</ele>
        <time>1999-07-22T15:55:54Z</time>
      </trkpt>
      <trkpt lat="43.416845" lon="-6.284503">
        <ele>377.886</ele>
        <time>1999-07-22T15:55:56Z</time>
      </trkpt>
      <trkpt lat="43.416841" lon="-6.284573">
        <ele>378.465</ele>
        <time>1999-07-22T15:55:59Z</time>
      </trkpt>
      <trkpt lat="43.416842" lon="-6.284596">
        <ele>378.668</ele>
        <time>1999-07-22T15:56:00Z</time>
      </trkpt>
      <trkpt lat="43.416829" lon="-6.284640">
        <ele>379.014</ele>
        <time>1999-07-22T15:56:02Z</time>
      </trkpt>
      <trkpt lat="43.416809" lon="-6.284754">
        <ele>379.808</ele>
        <time>1999-07-22T15:56:07Z</time>
      </trkpt>
      <trkpt lat="43.416796" lon="-6.284806">
        <ele>380.259</ele>
        <time>1999-07-22T15:56:09Z</time>
      </trkpt>
      <trkpt lat="43.416784" lon="-6.284831">
        <ele>380.414</ele>
        <time>1999-07-22T15:56:10Z</time>
      </trkpt>
      <trkpt lat="43.416773" lon="-6.284898">
        <ele>381.095</ele>
        <time>1999-07-22T15:56:13Z</time>
      </trkpt>
      <trkpt lat="43.416766" lon="-6.284919">
        <ele>381.241</ele>
        <time>1999-07-22T15:56:14Z</time>
      </trkpt>
      <trkpt lat="43.416771" lon="-6.285044">
        <ele>381.657</ele>
        <time>1999-07-22T15:56:19Z</time>
      </trkpt>
      <trkpt lat="43.416773" lon="-6.285135">
        <ele>382.054</ele>
        <time>1999-07-22T15:56:23Z</time>
      </trkpt>
      <trkpt lat="43.416780" lon="-6.285156">
        <ele>382.051</ele>
        <time>1999-07-22T15:56:24Z</time>
      </trkpt>
      <trkpt lat="43.416789" lon="-6.285268">
        <ele>383.027</ele>
        <time>1999-07-22T15:56:29Z</time>
      </trkpt>
      <trkpt lat="43.416792" lon="-6.285290">
        <ele>383.221</ele>
        <time>1999-07-22T15:56:30Z</time>
      </trkpt>
      <trkpt lat="43.416797" lon="-6.285430">
        <ele>383.841</ele>
        <time>1999-07-22T15:56:35Z</time>
      </trkpt>
      <trkpt lat="43.416790" lon="-6.285452">
        <ele>384.005</ele>
        <time>1999-07-22T15:56:36Z</time>
      </trkpt>
      <trkpt lat="43.416783" lon="-6.285494">
        <ele>384.408</ele>
        <time>1999-07-22T15:56:38Z</time>
      </trkpt>
      <trkpt lat="43.416798" lon="-6.285566">
        <ele>384.865</ele>
        <time>1999-07-22T15:56:41Z</time>
      </trkpt>
      <trkpt lat="43.416803" lon="-6.285614">
        <ele>385.280</ele>
        <time>1999-07-22T15:56:43Z</time>
      </trkpt>
      <trkpt lat="43.416785" lon="-6.285722">
        <ele>385.631</ele>
        <time>1999-07-22T15:56:47Z</time>
      </trkpt>
      <trkpt lat="43.416784" lon="-6.285791">
        <ele>386.237</ele>
        <time>1999-07-22T15:56:50Z</time>
      </trkpt>
      <trkpt lat="43.416779" lon="-6.285880">
        <ele>386.813</ele>
        <time>1999-07-22T15:56:53Z</time>
      </trkpt>
      <trkpt lat="43.416792" lon="-6.285952">
        <ele>387.210</ele>
        <time>1999-07-22T15:56:56Z</time>
      </trkpt>
      <trkpt lat="43.416803" lon="-6.285976">
        <ele>387.247</ele>
        <time>1999-07-22T15:56:57Z</time>
      </trkpt>
      <trkpt lat="43.416809" lon="-6.286051">
        <ele>387.833</ele>
        <time>1999-07-22T15:57:00Z</time>
      </trkpt>
      <trkpt lat="43.416802" lon="-6.286082">
        <ele>387.893</ele>
        <time>1999-07-22T15:57:01Z</time>
      </trkpt>
      <trkpt lat="43.416793" lon="-6.286112">
        <ele>388.065</ele>
        <time>1999-07-22T15:57:02Z</time>
      </trkpt>
      <trkpt lat="43.416778" lon="-6.286173">
        <ele>388.221</ele>
        <time>1999-07-22T15:57:04Z</time>
      </trkpt>
      <trkpt lat="43.416772" lon="-6.286207">
        <ele>388.408</ele>
        <time>1999-07-22T15:57:05Z</time>
      </trkpt>
      <trkpt lat="43.416753" lon="-6.286353">
        <ele>389.232</ele>
        <time>1999-07-22T15:57:10Z</time>
      </trkpt>
      <trkpt lat="43.416751" lon="-6.286382">
        <ele>389.447</ele>
        <time>1999-07-22T15:57:11Z</time>
      </trkpt>
      <trkpt lat="43.416743" lon="-6.286520">
        <ele>390.078</ele>
        <time>1999-07-22T15:57:16Z</time>
      </trkpt>
      <trkpt lat="43.416757" lon="-6.286629">
        <ele>390.474</ele>
        <time>1999-07-22T15:57:20Z</time>
      </trkpt>
      <trkpt lat="43.416762" lon="-6.286656">
        <ele>390.870</ele>
        <time>1999-07-22T15:57:21Z</time>
      </trkpt>
      <trkpt lat="43.416775" lon="-6.286782">
        <ele>391.477</ele>
        <time>1999-07-22T15:57:25Z</time>
      </trkpt>
      <trkpt lat="43.416790" lon="-6.286851">
        <ele>391.624</ele>
        <time>1999-07-22T15:57:27Z</time>
      </trkpt>
      <trkpt lat="43.416846" lon="-6.287037">
        <ele>392.660</ele>
        <time>1999-07-22T15:57:33Z</time>
      </trkpt>
      <trkpt lat="43.416885" lon="-6.287203">
        <ele>393.658</ele>
        <time>1999-07-22T15:57:39Z</time>
      </trkpt>
      <trkpt lat="43.416896" lon="-6.287224">
        <ele>393.452</ele>
        <time>1999-07-22T15:57:40Z</time>
      </trkpt>
      <trkpt lat="43.416909" lon="-6.287244">
        <ele>393.817</ele>
        <time>1999-07-22T15:57:41Z</time>
      </trkpt>
      <trkpt lat="43.416908" lon="-6.287265">
        <ele>394.008</ele>
        <time>1999-07-22T15:57:42Z</time>
      </trkpt>
      <trkpt lat="43.416902" lon="-6.287344">
        <ele>394.448</ele>
        <time>1999-07-22T15:57:46Z</time>
      </trkpt>
      <trkpt lat="43.416900" lon="-6.287365">
        <ele>394.693</ele>
        <time>1999-07-22T15:57:47Z</time>
      </trkpt>
      <trkpt lat="43.416894" lon="-6.287389">
        <ele>394.844</ele>
        <time>1999-07-22T15:57:48Z</time>
      </trkpt>
      <trkpt lat="43.416895" lon="-6.287458">
        <ele>395.220</ele>
        <time>1999-07-22T15:57:51Z</time>
      </trkpt>
      <trkpt lat="43.416895" lon="-6.287483">
        <ele>395.466</ele>
        <time>1999-07-22T15:57:52Z</time>
      </trkpt>
      <trkpt lat="43.416901" lon="-6.287509">
        <ele>395.453</ele>
        <time>1999-07-22T15:57:53Z</time>
      </trkpt>
      <trkpt lat="43.416906" lon="-6.287530">
        <ele>395.610</ele>
        <time>1999-07-22T15:57:54Z</time>
      </trkpt>
      <trkpt lat="43.416928" lon="-6.287587">
        <ele>396.266</ele>
        <time>1999-07-22T15:57:57Z</time>
      </trkpt>
      <trkpt lat="43.416947" lon="-6.287642">
        <ele>396.869</ele>
        <time>1999-07-22T15:58:00Z</time>
      </trkpt>
      <trkpt lat="43.416979" lon="-6.287732">
        <ele>397.604</ele>
        <time>1999-07-22T15:58:05Z</time>
      </trkpt>
      <trkpt lat="43.417011" lon="-6.287767">
        <ele>397.824</ele>
        <time>1999-07-22T15:58:07Z</time>
      </trkpt>
      <trkpt lat="43.417010" lon="-6.287790">
        <ele>397.808</ele>
        <time>1999-07-22T15:58:08Z</time>
      </trkpt>
      <trkpt lat="43.417021" lon="-6.287843">
        <ele>398.299</ele>
        <time>1999-07-22T15:58:11Z</time>
      </trkpt>
      <trkpt lat="43.417027" lon="-6.287879">
        <ele>398.474</ele>
        <time>1999-07-22T15:58:13Z</time>
      </trkpt>
      <trkpt lat="43.417023" lon="-6.287953">
        <ele>398.655</ele>
        <time>1999-07-22T15:58:16Z</time>
      </trkpt>
      <trkpt lat="43.417023" lon="-6.287976">
        <ele>399.211</ele>
        <time>1999-07-22T15:58:17Z</time>
      </trkpt>
      <trkpt lat="43.417029" lon="-6.288068">
        <ele>399.877</ele>
        <time>1999-07-22T15:58:21Z</time>
      </trkpt>
      <trkpt lat="43.417022" lon="-6.288130">
        <ele>400.294</ele>
        <time>1999-07-22T15:58:24Z</time>
      </trkpt>
      <trkpt lat="43.417025" lon="-6.288197">
        <ele>400.821</ele>
        <time>1999-07-22T15:58:27Z</time>
      </trkpt>
      <trkpt lat="43.417026" lon="-6.288253">
        <ele>401.257</ele>
        <time>1999-07-22T15:58:30Z</time>
      </trkpt>
      <trkpt lat="43.417040" lon="-6.288307">
        <ele>401.424</ele>
        <time>1999-07-22T15:58:33Z</time>
      </trkpt>
      <trkpt lat="43.417058" lon="-6.288347">
        <ele>401.804</ele>
        <time>1999-07-22T15:58:35Z</time>
      </trkpt>
      <trkpt lat="43.417059" lon="-6.288368">
        <ele>402.014</ele>
        <time>1999-07-22T15:58:36Z</time>
      </trkpt>
      <trkpt lat="43.417080" lon="-6.288541">
        <ele>402.808</ele>
        <time>1999-07-22T15:58:43Z</time>
      </trkpt>
      <trkpt lat="43.417143" lon="-6.288687">
        <ele>403.625</ele>
        <time>1999-07-22T15:58:50Z</time>
      </trkpt>
      <trkpt lat="43.417151" lon="-6.288707">
        <ele>403.840</ele>
        <time>1999-07-22T15:58:51Z</time>
      </trkpt>
      <trkpt lat="43.417162" lon="-6.288729">
        <ele>404.071</ele>
        <time>1999-07-22T15:58:52Z</time>
      </trkpt>
      <trkpt lat="43.417181" lon="-6.288762">
        <ele>404.417</ele>
        <time>1999-07-22T15:58:54Z</time>
      </trkpt>
      <trkpt lat="43.417202" lon="-6.288824">
        <ele>405.073</ele>
        <time>1999-07-22T15:58:58Z</time>
      </trkpt>
      <trkpt lat="43.417204" lon="-6.288840">
        <ele>405.260</ele>
        <time>1999-07-22T15:58:59Z</time>
      </trkpt>
      <trkpt lat="43.417211" lon="-6.288915">
        <ele>405.657</ele>
        <time>1999-07-22T15:59:03Z</time>
      </trkpt>
      <trkpt lat="43.417233" lon="-6.289009">
        <ele>406.283</ele>
        <time>1999-07-22T15:59:07Z</time>
      </trkpt>
      <trkpt lat="43.417236" lon="-6.289035">
        <ele>406.283</ele>
        <time>1999-07-22T15:59:08Z</time>
      </trkpt>
      <trkpt lat="43.417235" lon="-6.289181">
        <ele>407.025</ele>
        <time>1999-07-22T15:59:14Z</time>
      </trkpt>
      <trkpt lat="43.417229" lon="-6.289263">
        <ele>407.217</ele>
        <time>1999-07-22T15:59:17Z</time>
      </trkpt>
      <trkpt lat="43.417222" lon="-6.289313">
        <ele>407.408</ele>
        <time>1999-07-22T15:59:19Z</time>
      </trkpt>
      <trkpt lat="43.417221" lon="-6.289334">
        <ele>407.471</ele>
        <time>1999-07-22T15:59:20Z</time>
      </trkpt>
      <trkpt lat="43.417195" lon="-6.289439">
        <ele>408.096</ele>
        <time>1999-07-22T15:59:25Z</time>
      </trkpt>
      <trkpt lat="43.417207" lon="-6.289478">
        <ele>408.217</ele>
        <time>1999-07-22T15:59:27Z</time>
      </trkpt>
      <trkpt lat="43.417213" lon="-6.289497">
        <ele>408.453</ele>
        <time>1999-07-22T15:59:28Z</time>
      </trkpt>
      <trkpt lat="43.417218" lon="-6.289536">
        <ele>408.889</ele>
        <time>1999-07-22T15:59:30Z</time>
      </trkpt>
      <trkpt lat="43.417230" lon="-6.289577">
        <ele>409.046</ele>
        <time>1999-07-22T15:59:32Z</time>
      </trkpt>
      <trkpt lat="43.417219" lon="-6.289650">
        <ele>409.693</ele>
        <time>1999-07-22T15:59:35Z</time>
      </trkpt>
      <trkpt lat="43.417212" lon="-6.289671">
        <ele>409.879</ele>
        <time>1999-07-22T15:59:36Z</time>
      </trkpt>
      <trkpt lat="43.417198" lon="-6.289713">
        <ele>410.229</ele>
        <time>1999-07-22T15:59:38Z</time>
      </trkpt>
      <trkpt lat="43.417200" lon="-6.289756">
        <ele>410.600</ele>
        <time>1999-07-22T15:59:40Z</time>
      </trkpt>
      <trkpt lat="43.417181" lon="-6.289834">
        <ele>411.020</ele>
        <time>1999-07-22T15:59:44Z</time>
      </trkpt>
      <trkpt lat="43.417171" lon="-6.289852">
        <ele>411.208</ele>
        <time>1999-07-22T15:59:45Z</time>
      </trkpt>
      <trkpt lat="43.417162" lon="-6.289885">
        <ele>411.665</ele>
        <time>1999-07-22T15:59:47Z</time>
      </trkpt>
      <trkpt lat="43.417152" lon="-6.289927">
        <ele>412.010</ele>
        <time>1999-07-22T15:59:49Z</time>
      </trkpt>
      <trkpt lat="43.417153" lon="-6.289972">
        <ele>412.261</ele>
        <time>1999-07-22T15:59:51Z</time>
      </trkpt>
      <trkpt lat="43.417155" lon="-6.290030">
        <ele>412.657</ele>
        <time>1999-07-22T15:59:54Z</time>
      </trkpt>
      <trkpt lat="43.417146" lon="-6.290090">
        <ele>413.043</ele>
        <time>1999-07-22T15:59:57Z</time>
      </trkpt>
      <trkpt lat="43.417140" lon="-6.290125">
        <ele>413.480</ele>
        <time>1999-07-22T15:59:59Z</time>
      </trkpt>
      <trkpt lat="43.417143" lon="-6.290160">
        <ele>413.657</ele>
        <time>1999-07-22T16:00:01Z</time>
      </trkpt>
      <trkpt lat="43.417142" lon="-6.290180">
        <ele>413.853</ele>
        <time>1999-07-22T16:00:02Z</time>
      </trkpt>
      <trkpt lat="43.417138" lon="-6.290203">
        <ele>413.851</ele>
        <time>1999-07-22T16:00:03Z</time>
      </trkpt>
      <trkpt lat="43.417114" lon="-6.290332">
        <ele>414.601</ele>
        <time>1999-07-22T16:00:08Z</time>
      </trkpt>
      <trkpt lat="43.417105" lon="-6.290380">
        <ele>414.811</ele>
        <time>1999-07-22T16:00:10Z</time>
      </trkpt>
      <trkpt lat="43.417068" lon="-6.290514">
        <ele>415.608</ele>
        <time>1999-07-22T16:00:16Z</time>
      </trkpt>
      <trkpt lat="43.417065" lon="-6.290534">
        <ele>415.818</ele>
        <time>1999-07-22T16:00:17Z</time>
      </trkpt>
      <trkpt lat="43.417040" lon="-6.290641">
        <ele>416.453</ele>
        <time>1999-07-22T16:00:22Z</time>
      </trkpt>
      <trkpt lat="43.417039" lon="-6.290658">
        <ele>416.654</ele>
        <time>1999-07-22T16:00:23Z</time>
      </trkpt>
      <trkpt lat="43.417040" lon="-6.290695">
        <ele>416.870</ele>
        <time>1999-07-22T16:00:25Z</time>
      </trkpt>
      <trkpt lat="43.417037" lon="-6.290774">
        <ele>417.436</ele>
        <time>1999-07-22T16:00:29Z</time>
      </trkpt>
      <trkpt lat="43.417007" lon="-6.290877">
        <ele>418.083</ele>
        <time>1999-07-22T16:00:34Z</time>
      </trkpt>
      <trkpt lat="43.416998" lon="-6.290903">
        <ele>418.480</ele>
        <time>1999-07-22T16:00:35Z</time>
      </trkpt>
      <trkpt lat="43.416989" lon="-6.290959">
        <ele>419.216</ele>
        <time>1999-07-22T16:00:38Z</time>
      </trkpt>
      <trkpt lat="43.416982" lon="-6.291009">
        <ele>419.638</ele>
        <time>1999-07-22T16:00:40Z</time>
      </trkpt>
      <trkpt lat="43.416973" lon="-6.291097">
        <ele>420.270</ele>
        <time>1999-07-22T16:00:44Z</time>
      </trkpt>
      <trkpt lat="43.416970" lon="-6.291162">
        <ele>420.817</ele>
        <time>1999-07-22T16:00:47Z</time>
      </trkpt>
      <trkpt lat="43.416964" lon="-6.291223">
        <ele>421.208</ele>
        <time>1999-07-22T16:00:50Z</time>
      </trkpt>
      <trkpt lat="43.416942" lon="-6.291302">
        <ele>422.036</ele>
        <time>1999-07-22T16:00:54Z</time>
      </trkpt>
      <trkpt lat="43.416927" lon="-6.291343">
        <ele>422.411</ele>
        <time>1999-07-22T16:00:56Z</time>
      </trkpt>
      <trkpt lat="43.416905" lon="-6.291406">
        <ele>422.872</ele>
        <time>1999-07-22T16:01:00Z</time>
      </trkpt>
      <trkpt lat="43.416865" lon="-6.291458">
        <ele>423.428</ele>
        <time>1999-07-22T16:01:03Z</time>
      </trkpt>
      <trkpt lat="43.416813" lon="-6.291535">
        <ele>424.074</ele>
        <time>1999-07-22T16:01:07Z</time>
      </trkpt>
      <trkpt lat="43.416772" lon="-6.291591">
        <ele>424.691</ele>
        <time>1999-07-22T16:01:11Z</time>
      </trkpt>
      <trkpt lat="43.416753" lon="-6.291623">
        <ele>425.028</ele>
        <time>1999-07-22T16:01:13Z</time>
      </trkpt>
      <trkpt lat="43.416712" lon="-6.291687">
        <ele>425.684</ele>
        <time>1999-07-22T16:01:17Z</time>
      </trkpt>
      <trkpt lat="43.416688" lon="-6.291721">
        <ele>426.049</ele>
        <time>1999-07-22T16:01:19Z</time>
      </trkpt>
      <trkpt lat="43.416649" lon="-6.291773">
        <ele>426.602</ele>
        <time>1999-07-22T16:01:23Z</time>
      </trkpt>
      <trkpt lat="43.416643" lon="-6.291788">
        <ele>426.822</ele>
        <time>1999-07-22T16:01:24Z</time>
      </trkpt>
      <trkpt lat="43.416586" lon="-6.291866">
        <ele>427.808</ele>
        <time>1999-07-22T16:01:29Z</time>
      </trkpt>
      <trkpt lat="43.416553" lon="-6.291880">
        <ele>428.427</ele>
        <time>1999-07-22T16:01:32Z</time>
      </trkpt>
      <trkpt lat="43.416537" lon="-6.291873">
        <ele>428.812</ele>
        <time>1999-07-22T16:01:34Z</time>
      </trkpt>
      <trkpt lat="43.416526" lon="-6.291866">
        <ele>429.213</ele>
        <time>1999-07-22T16:01:35Z</time>
      </trkpt>
      <trkpt lat="43.416517" lon="-6.291833">
        <ele>430.049</ele>
        <time>1999-07-22T16:01:38Z</time>
      </trkpt>
      <trkpt lat="43.416513" lon="-6.291819">
        <ele>430.295</ele>
        <time>1999-07-22T16:01:39Z</time>
      </trkpt>
      <trkpt lat="43.416515" lon="-6.291772">
        <ele>431.032</ele>
        <time>1999-07-22T16:01:44Z</time>
      </trkpt>
      <trkpt lat="43.416514" lon="-6.291755">
        <ele>431.649</ele>
        <time>1999-07-22T16:01:47Z</time>
      </trkpt>
      <trkpt lat="43.415787" lon="-6.291752">
        <ele>467.435</ele>
        <time>1999-07-22T16:05:40Z</time>
      </trkpt>
      <trkpt lat="43.415775" lon="-6.291777">
        <ele>467.495</ele>
        <time>1999-07-22T16:05:41Z</time>
      </trkpt>
      <trkpt lat="43.415734" lon="-6.291852">
        <ele>467.449</ele>
        <time>1999-07-22T16:05:44Z</time>
      </trkpt>
      <trkpt lat="43.415707" lon="-6.291888">
        <ele>467.423</ele>
        <time>1999-07-22T16:05:46Z</time>
      </trkpt>
      <trkpt lat="43.415648" lon="-6.291917">
        <ele>467.408</ele>
        <time>1999-07-22T16:05:49Z</time>
      </trkpt>
      <trkpt lat="43.415620" lon="-6.291926">
        <ele>467.822</ele>
        <time>1999-07-22T16:05:51Z</time>
      </trkpt>
      <trkpt lat="43.415607" lon="-6.291939">
        <ele>468.017</ele>
        <time>1999-07-22T16:05:52Z</time>
      </trkpt>
      <trkpt lat="43.415596" lon="-6.291981">
        <ele>468.478</ele>
        <time>1999-07-22T16:05:54Z</time>
      </trkpt>
      <trkpt lat="43.415593" lon="-6.292029">
        <ele>469.084</ele>
        <time>1999-07-22T16:05:56Z</time>
      </trkpt>
      <trkpt lat="43.415592" lon="-6.292056">
        <ele>469.470</ele>
        <time>1999-07-22T16:05:57Z</time>
      </trkpt>
      <trkpt lat="43.415593" lon="-6.292079">
        <ele>469.637</ele>
        <time>1999-07-22T16:05:58Z</time>
      </trkpt>
      <trkpt lat="43.415584" lon="-6.292194">
        <ele>470.094</ele>
        <time>1999-07-22T16:06:03Z</time>
      </trkpt>
      <trkpt lat="43.415555" lon="-6.292302">
        <ele>470.250</ele>
        <time>1999-07-22T16:06:08Z</time>
      </trkpt>
      <trkpt lat="43.415547" lon="-6.292334">
        <ele>470.496</ele>
        <time>1999-07-22T16:06:10Z</time>
      </trkpt>
      <trkpt lat="43.415543" lon="-6.292339">
        <ele>470.631</ele>
        <time>1999-07-22T16:06:11Z</time>
      </trkpt>
      <trkpt lat="43.415526" lon="-6.292445">
        <ele>470.824</ele>
        <time>1999-07-22T16:08:33Z</time>
      </trkpt>
      <trkpt lat="43.415517" lon="-6.292503">
        <ele>470.808</ele>
        <time>1999-07-22T16:08:35Z</time>
      </trkpt>
      <trkpt lat="43.415496" lon="-6.292645">
        <ele>470.812</ele>
        <time>1999-07-22T16:08:39Z</time>
      </trkpt>
      <trkpt lat="43.415482" lon="-6.292758">
        <ele>471.217</ele>
        <time>1999-07-22T16:08:42Z</time>
      </trkpt>
      <trkpt lat="43.415453" lon="-6.292988">
        <ele>472.068</ele>
        <time>1999-07-22T16:08:48Z</time>
      </trkpt>
      <trkpt lat="43.415440" lon="-6.293063">
        <ele>472.244</ele>
        <time>1999-07-22T16:08:50Z</time>
      </trkpt>
      <trkpt lat="43.415422" lon="-6.293214">
        <ele>472.620</ele>
        <time>1999-07-22T16:08:54Z</time>
      </trkpt>
      <trkpt lat="43.415388" lon="-6.293372">
        <ele>472.847</ele>
        <time>1999-07-22T16:08:58Z</time>
      </trkpt>
      <trkpt lat="43.415380" lon="-6.293414">
        <ele>473.254</ele>
        <time>1999-07-22T16:08:59Z</time>
      </trkpt>
      <trkpt lat="43.415322" lon="-6.293722">
        <ele>474.060</ele>
        <time>1999-07-22T16:09:07Z</time>
      </trkpt>
      <trkpt lat="43.415305" lon="-6.293796">
        <ele>474.215</ele>
        <time>1999-07-22T16:09:09Z</time>
      </trkpt>
      <trkpt lat="43.415239" lon="-6.294076">
        <ele>475.065</ele>
        <time>1999-07-22T16:09:17Z</time>
      </trkpt>
      <trkpt lat="43.415211" lon="-6.294212">
        <ele>475.211</ele>
        <time>1999-07-22T16:09:21Z</time>
      </trkpt>
      <trkpt lat="43.415200" lon="-6.294261">
        <ele>475.608</ele>
        <time>1999-07-22T16:09:23Z</time>
      </trkpt>
      <trkpt lat="43.415196" lon="-6.294266">
        <ele>475.634</ele>
        <time>1999-07-22T16:09:24Z</time>
      </trkpt>
      <trkpt lat="43.415194" lon="-6.294264">
        <ele>475.659</ele>
        <time>1999-07-22T16:09:25Z</time>
      </trkpt>
      <trkpt lat="43.415174" lon="-6.294319">
        <ele>476.890</ele>
        <time>1999-07-22T16:09:52Z</time>
      </trkpt>
      <trkpt lat="43.415166" lon="-6.294350">
        <ele>476.836</ele>
        <time>1999-07-22T16:09:53Z</time>
      </trkpt>
      <trkpt lat="43.415157" lon="-6.294384">
        <ele>476.882</ele>
        <time>1999-07-22T16:09:54Z</time>
      </trkpt>
      <trkpt lat="43.415077" lon="-6.294621">
        <ele>477.029</ele>
        <time>1999-07-22T16:10:00Z</time>
      </trkpt>
      <trkpt lat="43.415044" lon="-6.294709">
        <ele>477.086</ele>
        <time>1999-07-22T16:10:02Z</time>
      </trkpt>
      <trkpt lat="43.414882" lon="-6.295091">
        <ele>477.472</ele>
        <time>1999-07-22T16:10:10Z</time>
      </trkpt>
      <trkpt lat="43.414748" lon="-6.295528">
        <ele>477.697</ele>
        <time>1999-07-22T16:10:18Z</time>
      </trkpt>
      <trkpt lat="43.414697" lon="-6.295695">
        <ele>478.023</ele>
        <time>1999-07-22T16:10:21Z</time>
      </trkpt>
      <trkpt lat="43.414608" lon="-6.295924">
        <ele>478.025</ele>
        <time>1999-07-22T16:10:25Z</time>
      </trkpt>
      <trkpt lat="43.414451" lon="-6.296288">
        <ele>478.208</ele>
        <time>1999-07-22T16:10:32Z</time>
      </trkpt>
      <trkpt lat="43.414239" lon="-6.296611">
        <ele>478.412</ele>
        <time>1999-07-22T16:10:39Z</time>
      </trkpt>
      <trkpt lat="43.413889" lon="-6.296943">
        <ele>479.077</ele>
        <time>1999-07-22T16:10:47Z</time>
      </trkpt>
      <trkpt lat="43.413623" lon="-6.297269">
        <ele>479.268</ele>
        <time>1999-07-22T16:10:54Z</time>
      </trkpt>
      <trkpt lat="43.413431" lon="-6.297514">
        <ele>479.464</ele>
        <time>1999-07-22T16:10:59Z</time>
      </trkpt>
      <trkpt lat="43.413364" lon="-6.297630">
        <ele>479.610</ele>
        <time>1999-07-22T16:11:01Z</time>
      </trkpt>
      <trkpt lat="43.413329" lon="-6.297860">
        <ele>479.657</ele>
        <time>1999-07-22T16:11:04Z</time>
      </trkpt>
      <trkpt lat="43.413362" lon="-6.298005">
        <ele>479.824</ele>
        <time>1999-07-22T16:11:06Z</time>
      </trkpt>
      <trkpt lat="43.413385" lon="-6.298073">
        <ele>479.860</ele>
        <time>1999-07-22T16:11:07Z</time>
      </trkpt>
      <trkpt lat="43.413443" lon="-6.298163">
        <ele>480.091</ele>
        <time>1999-07-22T16:11:09Z</time>
      </trkpt>
      <trkpt lat="43.413478" lon="-6.298181">
        <ele>480.081</ele>
        <time>1999-07-22T16:11:10Z</time>
      </trkpt>
      <trkpt lat="43.413635" lon="-6.298170">
        <ele>480.019</ele>
        <time>1999-07-22T16:11:14Z</time>
      </trkpt>
      <trkpt lat="43.413729" lon="-6.298154">
        <ele>480.208</ele>
        <time>1999-07-22T16:11:16Z</time>
      </trkpt>
      <trkpt lat="43.413866" lon="-6.298125">
        <ele>480.822</ele>
        <time>1999-07-22T16:11:19Z</time>
      </trkpt>
      <trkpt lat="43.413947" lon="-6.298105">
        <ele>481.027</ele>
        <time>1999-07-22T16:11:21Z</time>
      </trkpt>
      <trkpt lat="43.414223" lon="-6.298052">
        <ele>481.838</ele>
        <time>1999-07-22T16:11:28Z</time>
      </trkpt>
      <trkpt lat="43.414269" lon="-6.298043">
        <ele>481.874</ele>
        <time>1999-07-22T16:11:29Z</time>
      </trkpt>
      <trkpt lat="43.414491" lon="-6.298030">
        <ele>482.830</ele>
        <time>1999-07-22T16:11:35Z</time>
      </trkpt>
      <trkpt lat="43.414554" lon="-6.298055">
        <ele>483.027</ele>
        <time>1999-07-22T16:11:37Z</time>
      </trkpt>
      <trkpt lat="43.414683" lon="-6.298200">
        <ele>483.834</ele>
        <time>1999-07-22T16:11:42Z</time>
      </trkpt>
      <trkpt lat="43.414749" lon="-6.298452">
        <ele>485.010</ele>
        <time>1999-07-22T16:11:48Z</time>
      </trkpt>
      <trkpt lat="43.414794" lon="-6.298766">
        <ele>486.256</ele>
        <time>1999-07-22T16:11:55Z</time>
      </trkpt>
      <trkpt lat="43.414809" lon="-6.298853">
        <ele>486.459</ele>
        <time>1999-07-22T16:11:57Z</time>
      </trkpt>
      <trkpt lat="43.414831" lon="-6.299014">
        <ele>487.214</ele>
        <time>1999-07-22T16:12:01Z</time>
      </trkpt>
      <trkpt lat="43.414847" lon="-6.299163">
        <ele>487.608</ele>
        <time>1999-07-22T16:12:05Z</time>
      </trkpt>
      <trkpt lat="43.414863" lon="-6.299275">
        <ele>488.488</ele>
        <time>1999-07-22T16:12:08Z</time>
      </trkpt>
      <trkpt lat="43.414875" lon="-6.299344">
        <ele>488.653</ele>
        <time>1999-07-22T16:12:10Z</time>
      </trkpt>
      <trkpt lat="43.414870" lon="-6.299381">
        <ele>489.034</ele>
        <time>1999-07-22T16:12:11Z</time>
      </trkpt>
      <trkpt lat="43.414874" lon="-6.299447">
        <ele>489.420</ele>
        <time>1999-07-22T16:12:13Z</time>
      </trkpt>
      <trkpt lat="43.414868" lon="-6.299548">
        <ele>490.036</ele>
        <time>1999-07-22T16:12:16Z</time>
      </trkpt>
      <trkpt lat="43.414853" lon="-6.299612">
        <ele>490.473</ele>
        <time>1999-07-22T16:12:18Z</time>
      </trkpt>
      <trkpt lat="43.414813" lon="-6.299745">
        <ele>491.870</ele>
        <time>1999-07-22T16:12:23Z</time>
      </trkpt>
      <trkpt lat="43.414812" lon="-6.299881">
        <ele>492.636</ele>
        <time>1999-07-22T16:12:29Z</time>
      </trkpt>
      <trkpt lat="43.414814" lon="-6.299904">
        <ele>492.826</ele>
        <time>1999-07-22T16:12:30Z</time>
      </trkpt>
      <trkpt lat="43.414848" lon="-6.300001">
        <ele>494.047</ele>
        <time>1999-07-22T16:12:35Z</time>
      </trkpt>
      <trkpt lat="43.414863" lon="-6.300035">
        <ele>494.411</ele>
        <time>1999-07-22T16:12:37Z</time>
      </trkpt>
      <trkpt lat="43.414876" lon="-6.300072">
        <ele>495.008</ele>
        <time>1999-07-22T16:12:39Z</time>
      </trkpt>
      <trkpt lat="43.414891" lon="-6.300143">
        <ele>496.265</ele>
        <time>1999-07-22T16:12:43Z</time>
      </trkpt>
      <trkpt lat="43.414906" lon="-6.300178">
        <ele>496.450</ele>
        <time>1999-07-22T16:12:45Z</time>
      </trkpt>
      <trkpt lat="43.414916" lon="-6.300234">
        <ele>497.081</ele>
        <time>1999-07-22T16:12:48Z</time>
      </trkpt>
      <trkpt lat="43.414924" lon="-6.300247">
        <ele>497.487</ele>
        <time>1999-07-22T16:12:49Z</time>
      </trkpt>
      <trkpt lat="43.414939" lon="-6.300279">
        <ele>497.873</ele>
        <time>1999-07-22T16:12:51Z</time>
      </trkpt>
      <trkpt lat="43.414946" lon="-6.300296">
        <ele>498.240</ele>
        <time>1999-07-22T16:12:52Z</time>
      </trkpt>
      <trkpt lat="43.415007" lon="-6.300402">
        <ele>499.427</ele>
        <time>1999-07-22T16:12:58Z</time>
      </trkpt>
      <trkpt lat="43.415022" lon="-6.300422">
        <ele>499.673</ele>
        <time>1999-07-22T16:12:59Z</time>
      </trkpt>
      <trkpt lat="43.415064" lon="-6.300510">
        <ele>500.481</ele>
        <time>1999-07-22T16:13:02Z</time>
      </trkpt>
      <trkpt lat="43.415100" lon="-6.300574">
        <ele>500.861</ele>
        <time>1999-07-22T16:13:04Z</time>
      </trkpt>
      <trkpt lat="43.415157" lon="-6.300651">
        <ele>501.217</ele>
        <time>1999-07-22T16:13:07Z</time>
      </trkpt>
      <trkpt lat="43.415227" lon="-6.300672">
        <ele>501.208</ele>
        <time>1999-07-22T16:13:10Z</time>
      </trkpt>
      <trkpt lat="43.415296" lon="-6.300662">
        <ele>501.411</ele>
        <time>1999-07-22T16:13:14Z</time>
      </trkpt>
      <trkpt lat="43.415323" lon="-6.300662">
        <ele>501.616</ele>
        <time>1999-07-22T16:13:16Z</time>
      </trkpt>
      <trkpt lat="43.415410" lon="-6.300652">
        <ele>502.437</ele>
        <time>1999-07-22T16:13:22Z</time>
      </trkpt>
      <trkpt lat="43.415453" lon="-6.300650">
        <ele>503.063</ele>
        <time>1999-07-22T16:13:24Z</time>
      </trkpt>
      <trkpt lat="43.415508" lon="-6.300649">
        <ele>503.699</ele>
        <time>1999-07-22T16:13:26Z</time>
      </trkpt>
      <trkpt lat="43.415600" lon="-6.300687">
        <ele>504.096</ele>
        <time>1999-07-22T16:13:29Z</time>
      </trkpt>
      <trkpt lat="43.415683" lon="-6.300770">
        <ele>504.053</ele>
        <time>1999-07-22T16:13:33Z</time>
      </trkpt>
      <trkpt lat="43.415695" lon="-6.300807">
        <ele>504.039</ele>
        <time>1999-07-22T16:13:34Z</time>
      </trkpt>
      <trkpt lat="43.415738" lon="-6.300997">
        <ele>503.245</ele>
        <time>1999-07-22T16:13:39Z</time>
      </trkpt>
      <trkpt lat="43.415746" lon="-6.301185">
        <ele>502.847</ele>
        <time>1999-07-22T16:13:43Z</time>
      </trkpt>
      <trkpt lat="43.415748" lon="-6.301233">
        <ele>502.611</ele>
        <time>1999-07-22T16:13:44Z</time>
      </trkpt>
      <trkpt lat="43.415777" lon="-6.301419">
        <ele>502.608</ele>
        <time>1999-07-22T16:13:48Z</time>
      </trkpt>
      <trkpt lat="43.415782" lon="-6.301445">
        <ele>502.657</ele>
        <time>1999-07-22T16:13:49Z</time>
      </trkpt>
      <trkpt lat="43.415795" lon="-6.301575">
        <ele>502.622</ele>
        <time>1999-07-22T16:13:54Z</time>
      </trkpt>
      <trkpt lat="43.415798" lon="-6.301603">
        <ele>502.483</ele>
        <time>1999-07-22T16:13:55Z</time>
      </trkpt>
      <trkpt lat="43.415813" lon="-6.301738">
        <ele>502.459</ele>
        <time>1999-07-22T16:14:00Z</time>
      </trkpt>
      <trkpt lat="43.415802" lon="-6.301825">
        <ele>502.635</ele>
        <time>1999-07-22T16:14:04Z</time>
      </trkpt>
      <trkpt lat="43.415804" lon="-6.301865">
        <ele>503.082</ele>
        <time>1999-07-22T16:14:06Z</time>
      </trkpt>
      <trkpt lat="43.415802" lon="-6.301897">
        <ele>503.419</ele>
        <time>1999-07-22T16:14:08Z</time>
      </trkpt>
      <trkpt lat="43.415802" lon="-6.301910">
        <ele>503.615</ele>
        <time>1999-07-22T16:14:09Z</time>
      </trkpt>
      <trkpt lat="43.415804" lon="-6.301935">
        <ele>504.031</ele>
        <time>1999-07-22T16:14:11Z</time>
      </trkpt>
      <trkpt lat="43.415814" lon="-6.301969">
        <ele>504.661</ele>
        <time>1999-07-22T16:14:13Z</time>
      </trkpt>
      <trkpt lat="43.415813" lon="-6.302015">
        <ele>505.807</ele>
        <time>1999-07-22T16:14:17Z</time>
      </trkpt>
      <trkpt lat="43.415814" lon="-6.302019">
        <ele>506.008</ele>
        <time>1999-07-22T16:14:18Z</time>
      </trkpt>
      <trkpt lat="43.415600" lon="-6.302484">
        <ele>514.276</ele>
        <time>1999-07-22T16:15:15Z</time>
      </trkpt>
      <trkpt lat="43.415587" lon="-6.302476">
        <ele>514.281</ele>
        <time>1999-07-22T16:15:16Z</time>
      </trkpt>
      <trkpt lat="43.415552" lon="-6.302433">
        <ele>515.082</ele>
        <time>1999-07-22T16:15:20Z</time>
      </trkpt>
      <trkpt lat="43.415546" lon="-6.302422">
        <ele>515.288</ele>
        <time>1999-07-22T16:15:21Z</time>
      </trkpt>
      <trkpt lat="43.415541" lon="-6.302411">
        <ele>515.454</ele>
        <time>1999-07-22T16:15:22Z</time>
      </trkpt>
      <trkpt lat="43.415521" lon="-6.302349">
        <ele>516.461</ele>
        <time>1999-07-22T16:15:27Z</time>
      </trkpt>
      <trkpt lat="43.415509" lon="-6.302331">
        <ele>517.018</ele>
        <time>1999-07-22T16:15:29Z</time>
      </trkpt>
      <trkpt lat="43.415494" lon="-6.302304">
        <ele>517.644</ele>
        <time>1999-07-22T16:15:31Z</time>
      </trkpt>
      <trkpt lat="43.415469" lon="-6.302258">
        <ele>518.287</ele>
        <time>1999-07-22T16:15:34Z</time>
      </trkpt>
      <trkpt lat="43.415456" lon="-6.302254">
        <ele>518.442</ele>
        <time>1999-07-22T16:15:35Z</time>
      </trkpt>
      <trkpt lat="43.415442" lon="-6.302252">
        <ele>518.626</ele>
        <time>1999-07-22T16:15:36Z</time>
      </trkpt>
      <trkpt lat="43.415430" lon="-6.302256">
        <ele>518.808</ele>
        <time>1999-07-22T16:15:37Z</time>
      </trkpt>
      <trkpt lat="43.415413" lon="-6.302315">
        <ele>519.841</ele>
        <time>1999-07-22T16:15:41Z</time>
      </trkpt>
      <trkpt lat="43.415411" lon="-6.302330">
        <ele>520.096</ele>
        <time>1999-07-22T16:15:42Z</time>
      </trkpt>
      <trkpt lat="43.415394" lon="-6.302386">
        <ele>520.857</ele>
        <time>1999-07-22T16:15:46Z</time>
      </trkpt>
      <trkpt lat="43.415385" lon="-6.302401">
        <ele>520.843</ele>
        <time>1999-07-22T16:15:47Z</time>
      </trkpt>
      <trkpt lat="43.415357" lon="-6.302483">
        <ele>521.819</ele>
        <time>1999-07-22T16:15:51Z</time>
      </trkpt>
      <trkpt lat="43.415352" lon="-6.302551">
        <ele>522.216</ele>
        <time>1999-07-22T16:15:54Z</time>
      </trkpt>
      <trkpt lat="43.415346" lon="-6.302618">
        <ele>522.823</ele>
        <time>1999-07-22T16:15:57Z</time>
      </trkpt>
      <trkpt lat="43.415337" lon="-6.302770">
        <ele>523.679</ele>
        <time>1999-07-22T16:16:03Z</time>
      </trkpt>
      <trkpt lat="43.415338" lon="-6.302820">
        <ele>523.889</ele>
        <time>1999-07-22T16:16:05Z</time>
      </trkpt>
      <trkpt lat="43.415325" lon="-6.302921">
        <ele>524.406</ele>
        <time>1999-07-22T16:16:09Z</time>
      </trkpt>
      <trkpt lat="43.415316" lon="-6.303024">
        <ele>525.026</ele>
        <time>1999-07-22T16:16:13Z</time>
      </trkpt>
      <trkpt lat="43.415310" lon="-6.303104">
        <ele>525.408</ele>
        <time>1999-07-22T16:16:16Z</time>
      </trkpt>
      <trkpt lat="43.415315" lon="-6.303198">
        <ele>525.841</ele>
        <time>1999-07-22T16:16:19Z</time>
      </trkpt>
      <trkpt lat="43.415334" lon="-6.303345">
        <ele>526.696</ele>
        <time>1999-07-22T16:16:23Z</time>
      </trkpt>
      <trkpt lat="43.415344" lon="-6.303426">
        <ele>527.067</ele>
        <time>1999-07-22T16:16:25Z</time>
      </trkpt>
      <trkpt lat="43.415365" lon="-6.303646">
        <ele>527.463</ele>
        <time>1999-07-22T16:16:30Z</time>
      </trkpt>
      <trkpt lat="43.415340" lon="-6.303876">
        <ele>527.669</ele>
        <time>1999-07-22T16:16:35Z</time>
      </trkpt>
      <trkpt lat="43.415273" lon="-6.304011">
        <ele>527.816</ele>
        <time>1999-07-22T16:16:39Z</time>
      </trkpt>
      <trkpt lat="43.415248" lon="-6.304067">
        <ele>528.033</ele>
        <time>1999-07-22T16:16:41Z</time>
      </trkpt>
      <trkpt lat="43.415194" lon="-6.304219">
        <ele>528.419</ele>
        <time>1999-07-22T16:16:47Z</time>
      </trkpt>
      <trkpt lat="43.415165" lon="-6.304285">
        <ele>529.063</ele>
        <time>1999-07-22T16:16:50Z</time>
      </trkpt>
      <trkpt lat="43.415135" lon="-6.304393">
        <ele>530.044</ele>
        <time>1999-07-22T16:16:55Z</time>
      </trkpt>
      <trkpt lat="43.415128" lon="-6.304413">
        <ele>530.218</ele>
        <time>1999-07-22T16:16:56Z</time>
      </trkpt>
      <trkpt lat="43.415115" lon="-6.304500">
        <ele>531.208</ele>
        <time>1999-07-22T16:17:00Z</time>
      </trkpt>
      <trkpt lat="43.415103" lon="-6.304562">
        <ele>531.679</ele>
        <time>1999-07-22T16:17:03Z</time>
      </trkpt>
      <trkpt lat="43.415085" lon="-6.304642">
        <ele>532.454</ele>
        <time>1999-07-22T16:17:07Z</time>
      </trkpt>
      <trkpt lat="43.415072" lon="-6.304728">
        <ele>533.425</ele>
        <time>1999-07-22T16:17:11Z</time>
      </trkpt>
      <trkpt lat="43.415062" lon="-6.304766">
        <ele>534.021</ele>
        <time>1999-07-22T16:17:13Z</time>
      </trkpt>
      <trkpt lat="43.415048" lon="-6.304797">
        <ele>534.487</ele>
        <time>1999-07-22T16:17:15Z</time>
      </trkpt>
      <trkpt lat="43.415031" lon="-6.304827">
        <ele>534.884</ele>
        <time>1999-07-22T16:17:17Z</time>
      </trkpt>
      <trkpt lat="43.415022" lon="-6.304861">
        <ele>535.691</ele>
        <time>1999-07-22T16:17:19Z</time>
      </trkpt>
      <trkpt lat="43.415003" lon="-6.304916">
        <ele>536.437</ele>
        <time>1999-07-22T16:17:22Z</time>
      </trkpt>
      <trkpt lat="43.414995" lon="-6.304951">
        <ele>537.262</ele>
        <time>1999-07-22T16:17:24Z</time>
      </trkpt>
      <trkpt lat="43.414986" lon="-6.304984">
        <ele>537.883</ele>
        <time>1999-07-22T16:17:26Z</time>
      </trkpt>
      <trkpt lat="43.414966" lon="-6.305047">
        <ele>539.011</ele>
        <time>1999-07-22T16:17:30Z</time>
      </trkpt>
      <trkpt lat="43.414961" lon="-6.305063">
        <ele>539.408</ele>
        <time>1999-07-22T16:17:31Z</time>
      </trkpt>
      <trkpt lat="43.414946" lon="-6.305115">
        <ele>540.259</ele>
        <time>1999-07-22T16:17:34Z</time>
      </trkpt>
      <trkpt lat="43.414922" lon="-6.305181">
        <ele>541.434</ele>
        <time>1999-07-22T16:17:38Z</time>
      </trkpt>
      <trkpt lat="43.414896" lon="-6.305275">
        <ele>542.615</ele>
        <time>1999-07-22T16:17:43Z</time>
      </trkpt>
      <trkpt lat="43.414890" lon="-6.305317">
        <ele>543.231</ele>
        <time>1999-07-22T16:17:45Z</time>
      </trkpt>
      <trkpt lat="43.414887" lon="-6.305359">
        <ele>543.627</ele>
        <time>1999-07-22T16:17:47Z</time>
      </trkpt>
      <trkpt lat="43.414870" lon="-6.305452">
        <ele>544.834</ele>
        <time>1999-07-22T16:17:52Z</time>
      </trkpt>
      <trkpt lat="43.414864" lon="-6.305486">
        <ele>545.461</ele>
        <time>1999-07-22T16:17:54Z</time>
      </trkpt>
      <trkpt lat="43.414856" lon="-6.305517">
        <ele>546.097</ele>
        <time>1999-07-22T16:17:56Z</time>
      </trkpt>
      <trkpt lat="43.414831" lon="-6.305580">
        <ele>546.868</ele>
        <time>1999-07-22T16:18:00Z</time>
      </trkpt>
      <trkpt lat="43.414823" lon="-6.305594">
        <ele>547.242</ele>
        <time>1999-07-22T16:18:01Z</time>
      </trkpt>
      <trkpt lat="43.414792" lon="-6.305711">
        <ele>548.426</ele>
        <time>1999-07-22T16:18:07Z</time>
      </trkpt>
      <trkpt lat="43.414750" lon="-6.305837">
        <ele>549.608</ele>
        <time>1999-07-22T16:18:13Z</time>
      </trkpt>
      <trkpt lat="43.414744" lon="-6.305858">
        <ele>549.899</ele>
        <time>1999-07-22T16:18:14Z</time>
      </trkpt>
      <trkpt lat="43.414714" lon="-6.305964">
        <ele>550.894</ele>
        <time>1999-07-22T16:18:19Z</time>
      </trkpt>
      <trkpt lat="43.414673" lon="-6.306069">
        <ele>551.825</ele>
        <time>1999-07-22T16:18:24Z</time>
      </trkpt>
      <trkpt lat="43.414662" lon="-6.306089">
        <ele>551.831</ele>
        <time>1999-07-22T16:18:25Z</time>
      </trkpt>
      <trkpt lat="43.414611" lon="-6.306195">
        <ele>552.657</ele>
        <time>1999-07-22T16:18:30Z</time>
      </trkpt>
      <trkpt lat="43.414598" lon="-6.306214">
        <ele>553.094</ele>
        <time>1999-07-22T16:18:31Z</time>
      </trkpt>
      <trkpt lat="43.414587" lon="-6.306232">
        <ele>553.251</ele>
        <time>1999-07-22T16:18:32Z</time>
      </trkpt>
      <trkpt lat="43.414550" lon="-6.306285">
        <ele>554.087</ele>
        <time>1999-07-22T16:18:35Z</time>
      </trkpt>
      <trkpt lat="43.414535" lon="-6.306300">
        <ele>554.282</ele>
        <time>1999-07-22T16:18:36Z</time>
      </trkpt>
      <trkpt lat="43.414467" lon="-6.306363">
        <ele>554.843</ele>
        <time>1999-07-22T16:18:40Z</time>
      </trkpt>
      <trkpt lat="43.414433" lon="-6.306389">
        <ele>555.217</ele>
        <time>1999-07-22T16:18:42Z</time>
      </trkpt>
      <trkpt lat="43.414361" lon="-6.306439">
        <ele>556.408</ele>
        <time>1999-07-22T16:18:46Z</time>
      </trkpt>
      <trkpt lat="43.414326" lon="-6.306453">
        <ele>556.661</ele>
        <time>1999-07-22T16:18:48Z</time>
      </trkpt>
      <trkpt lat="43.414213" lon="-6.306479">
        <ele>557.666</ele>
        <time>1999-07-22T16:18:54Z</time>
      </trkpt>
      <trkpt lat="43.414156" lon="-6.306483">
        <ele>557.827</ele>
        <time>1999-07-22T16:18:57Z</time>
      </trkpt>
      <trkpt lat="43.414073" lon="-6.306494">
        <ele>558.643</ele>
        <time>1999-07-22T16:19:01Z</time>
      </trkpt>
      <trkpt lat="43.413973" lon="-6.306512">
        <ele>559.489</ele>
        <time>1999-07-22T16:19:06Z</time>
      </trkpt>
      <trkpt lat="43.413942" lon="-6.306527">
        <ele>559.836</ele>
        <time>1999-07-22T16:19:08Z</time>
      </trkpt>
      <trkpt lat="43.413850" lon="-6.306575">
        <ele>560.483</ele>
        <time>1999-07-22T16:19:13Z</time>
      </trkpt>
      <trkpt lat="43.413796" lon="-6.306608">
        <ele>560.819</ele>
        <time>1999-07-22T16:19:16Z</time>
      </trkpt>
      <trkpt lat="43.413707" lon="-6.306681">
        <ele>561.654</ele>
        <time>1999-07-22T16:19:21Z</time>
      </trkpt>
      <trkpt lat="43.413674" lon="-6.306715">
        <ele>561.856</ele>
        <time>1999-07-22T16:19:23Z</time>
      </trkpt>
      <trkpt lat="43.413595" lon="-6.306828">
        <ele>563.011</ele>
        <time>1999-07-22T16:19:29Z</time>
      </trkpt>
      <trkpt lat="43.413538" lon="-6.306898">
        <ele>564.208</ele>
        <time>1999-07-22T16:19:33Z</time>
      </trkpt>
      <trkpt lat="43.413496" lon="-6.306947">
        <ele>565.098</ele>
        <time>1999-07-22T16:19:36Z</time>
      </trkpt>
      <trkpt lat="43.413484" lon="-6.306962">
        <ele>565.453</ele>
        <time>1999-07-22T16:19:37Z</time>
      </trkpt>
      <trkpt lat="43.413417" lon="-6.307027">
        <ele>566.614</ele>
        <time>1999-07-22T16:19:42Z</time>
      </trkpt>
      <trkpt lat="43.413389" lon="-6.307052">
        <ele>567.040</ele>
        <time>1999-07-22T16:19:44Z</time>
      </trkpt>
      <trkpt lat="43.413346" lon="-6.307078">
        <ele>567.636</ele>
        <time>1999-07-22T16:19:47Z</time>
      </trkpt>
      <trkpt lat="43.413289" lon="-6.307103">
        <ele>568.673</ele>
        <time>1999-07-22T16:19:51Z</time>
      </trkpt>
      <trkpt lat="43.413261" lon="-6.307118">
        <ele>568.880</ele>
        <time>1999-07-22T16:19:53Z</time>
      </trkpt>
      <trkpt lat="43.413221" lon="-6.307144">
        <ele>570.066</ele>
        <time>1999-07-22T16:19:56Z</time>
      </trkpt>
      <trkpt lat="43.413161" lon="-6.307173">
        <ele>571.069</ele>
        <time>1999-07-22T16:20:00Z</time>
      </trkpt>
      <trkpt lat="43.413147" lon="-6.307178">
        <ele>571.404</ele>
        <time>1999-07-22T16:20:01Z</time>
      </trkpt>
      <trkpt lat="43.413086" lon="-6.307197">
        <ele>572.424</ele>
        <time>1999-07-22T16:20:05Z</time>
      </trkpt>
      <trkpt lat="43.413014" lon="-6.307240">
        <ele>573.408</ele>
        <time>1999-07-22T16:20:10Z</time>
      </trkpt>
      <trkpt lat="43.412999" lon="-6.307250">
        <ele>573.869</ele>
        <time>1999-07-22T16:20:11Z</time>
      </trkpt>
      <trkpt lat="43.412962" lon="-6.307293">
        <ele>574.654</ele>
        <time>1999-07-22T16:20:14Z</time>
      </trkpt>
      <trkpt lat="43.412907" lon="-6.307332">
        <ele>575.625</ele>
        <time>1999-07-22T16:20:18Z</time>
      </trkpt>
      <trkpt lat="43.412893" lon="-6.307341">
        <ele>575.871</ele>
        <time>1999-07-22T16:20:19Z</time>
      </trkpt>
      <trkpt lat="43.412834" lon="-6.307380">
        <ele>576.837</ele>
        <time>1999-07-22T16:20:23Z</time>
      </trkpt>
      <trkpt lat="43.412775" lon="-6.307420">
        <ele>577.624</ele>
        <time>1999-07-22T16:20:27Z</time>
      </trkpt>
      <trkpt lat="43.412758" lon="-6.307430">
        <ele>577.811</ele>
        <time>1999-07-22T16:20:28Z</time>
      </trkpt>
      <trkpt lat="43.412689" lon="-6.307468">
        <ele>578.867</ele>
        <time>1999-07-22T16:20:32Z</time>
      </trkpt>
      <trkpt lat="43.412649" lon="-6.307479">
        <ele>579.438</ele>
        <time>1999-07-22T16:20:34Z</time>
      </trkpt>
      <trkpt lat="43.412607" lon="-6.307491">
        <ele>579.870</ele>
        <time>1999-07-22T16:20:36Z</time>
      </trkpt>
      <trkpt lat="43.412527" lon="-6.307517">
        <ele>581.017</ele>
        <time>1999-07-22T16:20:40Z</time>
      </trkpt>
      <trkpt lat="43.412487" lon="-6.307538">
        <ele>581.408</ele>
        <time>1999-07-22T16:20:43Z</time>
      </trkpt>
      <trkpt lat="43.412429" lon="-6.307552">
        <ele>582.226</ele>
        <time>1999-07-22T16:20:47Z</time>
      </trkpt>
      <trkpt lat="43.412386" lon="-6.307566">
        <ele>583.091</ele>
        <time>1999-07-22T16:20:50Z</time>
      </trkpt>
      <trkpt lat="43.412374" lon="-6.307572">
        <ele>583.492</ele>
        <time>1999-07-22T16:20:51Z</time>
      </trkpt>
      <trkpt lat="43.412334" lon="-6.307594">
        <ele>584.478</ele>
        <time>1999-07-22T16:20:54Z</time>
      </trkpt>
      <trkpt lat="43.412281" lon="-6.307625">
        <ele>585.464</ele>
        <time>1999-07-22T16:20:58Z</time>
      </trkpt>
      <trkpt lat="43.412267" lon="-6.307628">
        <ele>585.881</ele>
        <time>1999-07-22T16:20:59Z</time>
      </trkpt>
      <trkpt lat="43.412223" lon="-6.307639">
        <ele>586.498</ele>
        <time>1999-07-22T16:21:02Z</time>
      </trkpt>
      <trkpt lat="43.412170" lon="-6.307657">
        <ele>587.494</ele>
        <time>1999-07-22T16:21:06Z</time>
      </trkpt>
      <trkpt lat="43.412156" lon="-6.307664">
        <ele>587.851</ele>
        <time>1999-07-22T16:21:07Z</time>
      </trkpt>
      <trkpt lat="43.412104" lon="-6.307688">
        <ele>588.601</ele>
        <time>1999-07-22T16:21:11Z</time>
      </trkpt>
      <trkpt lat="43.412090" lon="-6.307685">
        <ele>588.811</ele>
        <time>1999-07-22T16:21:12Z</time>
      </trkpt>
      <trkpt lat="43.412076" lon="-6.307687">
        <ele>589.008</ele>
        <time>1999-07-22T16:21:13Z</time>
      </trkpt>
      <trkpt lat="43.412022" lon="-6.307729">
        <ele>590.038</ele>
        <time>1999-07-22T16:21:17Z</time>
      </trkpt>
      <trkpt lat="43.412007" lon="-6.307733">
        <ele>590.063</ele>
        <time>1999-07-22T16:21:18Z</time>
      </trkpt>
      <trkpt lat="43.411961" lon="-6.307721">
        <ele>591.224</ele>
        <time>1999-07-22T16:21:21Z</time>
      </trkpt>
      <trkpt lat="43.411912" lon="-6.307725">
        <ele>591.650</ele>
        <time>1999-07-22T16:21:24Z</time>
      </trkpt>
      <trkpt lat="43.411884" lon="-6.307748">
        <ele>592.276</ele>
        <time>1999-07-22T16:21:26Z</time>
      </trkpt>
      <trkpt lat="43.411856" lon="-6.307769">
        <ele>592.633</ele>
        <time>1999-07-22T16:21:28Z</time>
      </trkpt>
      <trkpt lat="43.411823" lon="-6.307761">
        <ele>593.220</ele>
        <time>1999-07-22T16:21:30Z</time>
      </trkpt>
      <trkpt lat="43.411807" lon="-6.307755">
        <ele>593.446</ele>
        <time>1999-07-22T16:21:31Z</time>
      </trkpt>
      <trkpt lat="43.411764" lon="-6.307751">
        <ele>594.082</ele>
        <time>1999-07-22T16:21:34Z</time>
      </trkpt>
      <trkpt lat="43.411737" lon="-6.307771">
        <ele>594.443</ele>
        <time>1999-07-22T16:21:36Z</time>
      </trkpt>
      <trkpt lat="43.411666" lon="-6.307766">
        <ele>595.217</ele>
        <time>1999-07-22T16:21:40Z</time>
      </trkpt>
      <trkpt lat="43.411629" lon="-6.307760">
        <ele>595.608</ele>
        <time>1999-07-22T16:21:42Z</time>
      </trkpt>
      <trkpt lat="43.411529" lon="-6.307772">
        <ele>596.631</ele>
        <time>1999-07-22T16:21:47Z</time>
      </trkpt>
      <trkpt lat="43.411488" lon="-6.307759">
        <ele>597.056</ele>
        <time>1999-07-22T16:21:49Z</time>
      </trkpt>
      <trkpt lat="43.411401" lon="-6.307719">
        <ele>597.827</ele>
        <time>1999-07-22T16:21:53Z</time>
      </trkpt>
      <trkpt lat="43.411321" lon="-6.307690">
        <ele>598.063</ele>
        <time>1999-07-22T16:21:56Z</time>
      </trkpt>
      <trkpt lat="43.411239" lon="-6.307668">
        <ele>598.489</ele>
        <time>1999-07-22T16:21:59Z</time>
      </trkpt>
      <trkpt lat="43.411124" lon="-6.307650">
        <ele>598.686</ele>
        <time>1999-07-22T16:22:04Z</time>
      </trkpt>
      <trkpt lat="43.411036" lon="-6.307695">
        <ele>598.823</ele>
        <time>1999-07-22T16:22:09Z</time>
      </trkpt>
      <trkpt lat="43.411020" lon="-6.307710">
        <ele>598.869</ele>
        <time>1999-07-22T16:22:10Z</time>
      </trkpt>
      <trkpt lat="43.410968" lon="-6.307785">
        <ele>599.675</ele>
        <time>1999-07-22T16:22:14Z</time>
      </trkpt>
      <trkpt lat="43.410965" lon="-6.307813">
        <ele>599.828</ele>
        <time>1999-07-22T16:22:15Z</time>
      </trkpt>
      <trkpt lat="43.410966" lon="-6.307840">
        <ele>600.020</ele>
        <time>1999-07-22T16:22:16Z</time>
      </trkpt>
      <trkpt lat="43.410966" lon="-6.307897">
        <ele>600.608</ele>
        <time>1999-07-22T16:22:18Z</time>
      </trkpt>
      <trkpt lat="43.410966" lon="-6.307926">
        <ele>601.080</ele>
        <time>1999-07-22T16:22:19Z</time>
      </trkpt>
      <trkpt lat="43.410967" lon="-6.308064">
        <ele>602.035</ele>
        <time>1999-07-22T16:22:24Z</time>
      </trkpt>
      <trkpt lat="43.410962" lon="-6.308089">
        <ele>602.026</ele>
        <time>1999-07-22T16:22:25Z</time>
      </trkpt>
      <trkpt lat="43.410928" lon="-6.308276">
        <ele>603.052</ele>
        <time>1999-07-22T16:22:32Z</time>
      </trkpt>
      <trkpt lat="43.410919" lon="-6.308330">
        <ele>603.478</ele>
        <time>1999-07-22T16:22:34Z</time>
      </trkpt>
      <trkpt lat="43.410885" lon="-6.308458">
        <ele>604.255</ele>
        <time>1999-07-22T16:22:39Z</time>
      </trkpt>
      <trkpt lat="43.410881" lon="-6.308484">
        <ele>604.492</ele>
        <time>1999-07-22T16:22:40Z</time>
      </trkpt>
      <trkpt lat="43.410867" lon="-6.308598">
        <ele>605.258</ele>
        <time>1999-07-22T16:22:45Z</time>
      </trkpt>
      <trkpt lat="43.410867" lon="-6.308680">
        <ele>605.678</ele>
        <time>1999-07-22T16:22:48Z</time>
      </trkpt>
      <trkpt lat="43.410847" lon="-6.308824">
        <ele>606.233</ele>
        <time>1999-07-22T16:22:53Z</time>
      </trkpt>
      <trkpt lat="43.410837" lon="-6.308915">
        <ele>606.826</ele>
        <time>1999-07-22T16:22:56Z</time>
      </trkpt>
      <trkpt lat="43.410821" lon="-6.309057">
        <ele>607.408</ele>
        <time>1999-07-22T16:23:01Z</time>
      </trkpt>
      <trkpt lat="43.410791" lon="-6.309254">
        <ele>608.220</ele>
        <time>1999-07-22T16:23:07Z</time>
      </trkpt>
      <trkpt lat="43.410787" lon="-6.309288">
        <ele>608.435</ele>
        <time>1999-07-22T16:23:08Z</time>
      </trkpt>
      <trkpt lat="43.410761" lon="-6.309489">
        <ele>609.456</ele>
        <time>1999-07-22T16:23:14Z</time>
      </trkpt>
      <trkpt lat="43.410758" lon="-6.309523">
        <ele>609.622</ele>
        <time>1999-07-22T16:23:15Z</time>
      </trkpt>
      <trkpt lat="43.410725" lon="-6.309678">
        <ele>610.658</ele>
        <time>1999-07-22T16:23:20Z</time>
      </trkpt>
      <trkpt lat="43.410718" lon="-6.309708">
        <ele>610.835</ele>
        <time>1999-07-22T16:23:21Z</time>
      </trkpt>
      <trkpt lat="43.410697" lon="-6.309862">
        <ele>611.862</ele>
        <time>1999-07-22T16:23:26Z</time>
      </trkpt>
      <trkpt lat="43.410675" lon="-6.309956">
        <ele>612.458</ele>
        <time>1999-07-22T16:23:29Z</time>
      </trkpt>
      <trkpt lat="43.410646" lon="-6.310038">
        <ele>613.016</ele>
        <time>1999-07-22T16:23:32Z</time>
      </trkpt>
      <trkpt lat="43.410610" lon="-6.310153">
        <ele>614.076</ele>
        <time>1999-07-22T16:23:36Z</time>
      </trkpt>
      <trkpt lat="43.410588" lon="-6.310203">
        <ele>614.413</ele>
        <time>1999-07-22T16:23:38Z</time>
      </trkpt>
      <trkpt lat="43.410550" lon="-6.310280">
        <ele>615.208</ele>
        <time>1999-07-22T16:23:41Z</time>
      </trkpt>
      <trkpt lat="43.410487" lon="-6.310414">
        <ele>616.014</ele>
        <time>1999-07-22T16:23:46Z</time>
      </trkpt>
      <trkpt lat="43.410474" lon="-6.310441">
        <ele>616.459</ele>
        <time>1999-07-22T16:23:47Z</time>
      </trkpt>
      <trkpt lat="43.410378" lon="-6.310586">
        <ele>617.420</ele>
        <time>1999-07-22T16:23:53Z</time>
      </trkpt>
      <trkpt lat="43.410306" lon="-6.310703">
        <ele>618.476</ele>
        <time>1999-07-22T16:23:58Z</time>
      </trkpt>
      <trkpt lat="43.410273" lon="-6.310740">
        <ele>618.872</ele>
        <time>1999-07-22T16:24:00Z</time>
      </trkpt>
      <trkpt lat="43.410232" lon="-6.310795">
        <ele>619.489</ele>
        <time>1999-07-22T16:24:03Z</time>
      </trkpt>
      <trkpt lat="43.410180" lon="-6.310855">
        <ele>620.026</ele>
        <time>1999-07-22T16:24:06Z</time>
      </trkpt>
      <trkpt lat="43.410128" lon="-6.310929">
        <ele>620.622</ele>
        <time>1999-07-22T16:24:09Z</time>
      </trkpt>
      <trkpt lat="43.410047" lon="-6.311022">
        <ele>620.885</ele>
        <time>1999-07-22T16:24:13Z</time>
      </trkpt>
      <trkpt lat="43.409940" lon="-6.311179">
        <ele>621.689</ele>
        <time>1999-07-22T16:24:19Z</time>
      </trkpt>
      <trkpt lat="43.409900" lon="-6.311259">
        <ele>622.217</ele>
        <time>1999-07-22T16:24:22Z</time>
      </trkpt>
      <trkpt lat="43.409851" lon="-6.311366">
        <ele>622.808</ele>
        <time>1999-07-22T16:24:26Z</time>
      </trkpt>
      <trkpt lat="43.409814" lon="-6.311441">
        <ele>623.441</ele>
        <time>1999-07-22T16:24:29Z</time>
      </trkpt>
      <trkpt lat="43.409792" lon="-6.311496">
        <ele>624.256</ele>
        <time>1999-07-22T16:24:31Z</time>
      </trkpt>
      <trkpt lat="43.409736" lon="-6.311629">
        <ele>625.277</ele>
        <time>1999-07-22T16:24:36Z</time>
      </trkpt>
      <trkpt lat="43.409725" lon="-6.311652">
        <ele>625.413</ele>
        <time>1999-07-22T16:24:37Z</time>
      </trkpt>
      <trkpt lat="43.409670" lon="-6.311762">
        <ele>626.429</ele>
        <time>1999-07-22T16:24:42Z</time>
      </trkpt>
      <trkpt lat="43.409636" lon="-6.311835">
        <ele>627.026</ele>
        <time>1999-07-22T16:24:45Z</time>
      </trkpt>
      <trkpt lat="43.409605" lon="-6.311907">
        <ele>627.633</ele>
        <time>1999-07-22T16:24:48Z</time>
      </trkpt>
      <trkpt lat="43.409551" lon="-6.311996">
        <ele>628.489</ele>
        <time>1999-07-22T16:24:52Z</time>
      </trkpt>
      <trkpt lat="43.409523" lon="-6.312040">
        <ele>628.684</ele>
        <time>1999-07-22T16:24:54Z</time>
      </trkpt>
      <trkpt lat="43.409431" lon="-6.312160">
        <ele>629.807</ele>
        <time>1999-07-22T16:24:59Z</time>
      </trkpt>
      <trkpt lat="43.409281" lon="-6.312313">
        <ele>631.017</ele>
        <time>1999-07-22T16:25:06Z</time>
      </trkpt>
      <trkpt lat="43.409137" lon="-6.312423">
        <ele>632.008</ele>
        <time>1999-07-22T16:25:12Z</time>
      </trkpt>
      <trkpt lat="43.409033" lon="-6.312483">
        <ele>632.881</ele>
        <time>1999-07-22T16:25:16Z</time>
      </trkpt>
      <trkpt lat="43.408978" lon="-6.312507">
        <ele>633.236</ele>
        <time>1999-07-22T16:25:18Z</time>
      </trkpt>
      <trkpt lat="43.408831" lon="-6.312580">
        <ele>634.237</ele>
        <time>1999-07-22T16:25:24Z</time>
      </trkpt>
      <trkpt lat="43.408811" lon="-6.312584">
        <ele>634.433</ele>
        <time>1999-07-22T16:25:25Z</time>
      </trkpt>
      <trkpt lat="43.408697" lon="-6.312584">
        <ele>635.079</ele>
        <time>1999-07-22T16:25:31Z</time>
      </trkpt>
      <trkpt lat="43.408668" lon="-6.312548">
        <ele>635.436</ele>
        <time>1999-07-22T16:25:34Z</time>
      </trkpt>
      <trkpt lat="43.408625" lon="-6.312496">
        <ele>636.233</ele>
        <time>1999-07-22T16:25:38Z</time>
      </trkpt>
      <trkpt lat="43.408583" lon="-6.312468">
        <ele>636.629</ele>
        <time>1999-07-22T16:25:41Z</time>
      </trkpt>
      <trkpt lat="43.408547" lon="-6.312422">
        <ele>637.463</ele>
        <time>1999-07-22T16:25:44Z</time>
      </trkpt>
      <trkpt lat="43.408543" lon="-6.312402">
        <ele>637.644</ele>
        <time>1999-07-22T16:25:45Z</time>
      </trkpt>
      <trkpt lat="43.408547" lon="-6.312343">
        <ele>638.218</ele>
        <time>1999-07-22T16:25:48Z</time>
      </trkpt>
      <trkpt lat="43.408554" lon="-6.312321">
        <ele>638.608</ele>
        <time>1999-07-22T16:25:49Z</time>
      </trkpt>
      <trkpt lat="43.408572" lon="-6.312282">
        <ele>639.249</ele>
        <time>1999-07-22T16:25:51Z</time>
      </trkpt>
      <trkpt lat="43.408579" lon="-6.312268">
        <ele>639.654</ele>
        <time>1999-07-22T16:25:52Z</time>
      </trkpt>
      <trkpt lat="43.408611" lon="-6.312223">
        <ele>641.025</ele>
        <time>1999-07-22T16:25:55Z</time>
      </trkpt>
      <trkpt lat="43.408597" lon="-6.312200">
        <ele>641.461</ele>
        <time>1999-07-22T16:25:57Z</time>
      </trkpt>
      <trkpt lat="43.408561" lon="-6.312215">
        <ele>642.097</ele>
        <time>1999-07-22T16:25:59Z</time>
      </trkpt>
      <trkpt lat="43.408541" lon="-6.312229">
        <ele>642.454</ele>
        <time>1999-07-22T16:26:00Z</time>
      </trkpt>
      <trkpt lat="43.408523" lon="-6.312248">
        <ele>642.671</ele>
        <time>1999-07-22T16:26:01Z</time>
      </trkpt>
      <trkpt lat="43.408469" lon="-6.312314">
        <ele>643.237</ele>
        <time>1999-07-22T16:26:04Z</time>
      </trkpt>
      <trkpt lat="43.408382" lon="-6.312416">
        <ele>643.684</ele>
        <time>1999-07-22T16:26:08Z</time>
      </trkpt>
      <trkpt lat="43.408362" lon="-6.312446">
        <ele>643.607</ele>
        <time>1999-07-22T16:26:09Z</time>
      </trkpt>
      <trkpt lat="43.408206" lon="-6.312661">
        <ele>644.217</ele>
        <time>1999-07-22T16:26:17Z</time>
      </trkpt>
      <trkpt lat="43.408136" lon="-6.312772">
        <ele>645.808</ele>
        <time>1999-07-22T16:26:21Z</time>
      </trkpt>
      <trkpt lat="43.408107" lon="-6.312868">
        <ele>646.671</ele>
        <time>1999-07-22T16:26:23Z</time>
      </trkpt>
      <trkpt lat="43.408098" lon="-6.312926">
        <ele>646.886</ele>
        <time>1999-07-22T16:26:24Z</time>
      </trkpt>
      <trkpt lat="43.408071" lon="-6.313189">
        <ele>647.877</ele>
        <time>1999-07-22T16:26:29Z</time>
      </trkpt>
      <trkpt lat="43.408056" lon="-6.313282">
        <ele>648.033</ele>
        <time>1999-07-22T16:26:31Z</time>
      </trkpt>
      <trkpt lat="43.408049" lon="-6.313429">
        <ele>648.249</ele>
        <time>1999-07-22T16:26:34Z</time>
      </trkpt>
      <trkpt lat="43.408025" lon="-6.313520">
        <ele>648.286</ele>
        <time>1999-07-22T16:26:36Z</time>
      </trkpt>
      <trkpt lat="43.407994" lon="-6.313602">
        <ele>648.413</ele>
        <time>1999-07-22T16:26:38Z</time>
      </trkpt>
      <trkpt lat="43.407975" lon="-6.313643">
        <ele>648.449</ele>
        <time>1999-07-22T16:26:39Z</time>
      </trkpt>
      <trkpt lat="43.407921" lon="-6.313724">
        <ele>648.491</ele>
        <time>1999-07-22T16:26:41Z</time>
      </trkpt>
      <trkpt lat="43.407846" lon="-6.313792">
        <ele>648.481</ele>
        <time>1999-07-22T16:26:43Z</time>
      </trkpt>
      <trkpt lat="43.407708" lon="-6.313862">
        <ele>648.419</ele>
        <time>1999-07-22T16:26:46Z</time>
      </trkpt>
      <trkpt lat="43.407563" lon="-6.313914">
        <ele>648.408</ele>
        <time>1999-07-22T16:26:49Z</time>
      </trkpt>
      <trkpt lat="43.407277" lon="-6.314068">
        <ele>648.622</ele>
        <time>1999-07-22T16:26:55Z</time>
      </trkpt>
      <trkpt lat="43.407183" lon="-6.314138">
        <ele>648.617</ele>
        <time>1999-07-22T16:26:57Z</time>
      </trkpt>
      <trkpt lat="43.407088" lon="-6.314189">
        <ele>648.638</ele>
        <time>1999-07-22T16:26:59Z</time>
      </trkpt>
      <trkpt lat="43.406934" lon="-6.314274">
        <ele>648.644</ele>
        <time>1999-07-22T16:27:02Z</time>
      </trkpt>
      <trkpt lat="43.406879" lon="-6.314298">
        <ele>648.630</ele>
        <time>1999-07-22T16:27:03Z</time>
      </trkpt>
      <trkpt lat="43.406767" lon="-6.314339">
        <ele>648.417</ele>
        <time>1999-07-22T16:27:05Z</time>
      </trkpt>
      <trkpt lat="43.406674" lon="-6.314403">
        <ele>648.424</ele>
        <time>1999-07-22T16:27:07Z</time>
      </trkpt>
      <trkpt lat="43.406353" lon="-6.314667">
        <ele>647.690</ele>
        <time>1999-07-22T16:27:13Z</time>
      </trkpt>
      <trkpt lat="43.406227" lon="-6.314768">
        <ele>647.489</ele>
        <time>1999-07-22T16:27:15Z</time>
      </trkpt>
      <trkpt lat="43.406164" lon="-6.314814">
        <ele>647.206</ele>
        <time>1999-07-22T16:27:16Z</time>
      </trkpt>
      <trkpt lat="43.406041" lon="-6.314907">
        <ele>647.026</ele>
        <time>1999-07-22T16:27:18Z</time>
      </trkpt>
      <trkpt lat="43.405981" lon="-6.314955">
        <ele>647.008</ele>
        <time>1999-07-22T16:27:19Z</time>
      </trkpt>
      <trkpt lat="43.405921" lon="-6.315007">
        <ele>646.881</ele>
        <time>1999-07-22T16:27:20Z</time>
      </trkpt>
      <trkpt lat="43.405810" lon="-6.315125">
        <ele>646.626</ele>
        <time>1999-07-22T16:27:22Z</time>
      </trkpt>
      <trkpt lat="43.405656" lon="-6.315333">
        <ele>646.237</ele>
        <time>1999-07-22T16:27:25Z</time>
      </trkpt>
      <trkpt lat="43.405548" lon="-6.315487">
        <ele>645.853</ele>
        <time>1999-07-22T16:27:27Z</time>
      </trkpt>
      <trkpt lat="43.405254" lon="-6.315897">
        <ele>645.069</ele>
        <time>1999-07-22T16:27:32Z</time>
      </trkpt>
      <trkpt lat="43.405193" lon="-6.315979">
        <ele>644.846</ele>
        <time>1999-07-22T16:27:33Z</time>
      </trkpt>
      <trkpt lat="43.405130" lon="-6.316057">
        <ele>644.443</ele>
        <time>1999-07-22T16:27:34Z</time>
      </trkpt>
      <trkpt lat="43.404936" lon="-6.316272">
        <ele>643.629</ele>
        <time>1999-07-22T16:27:37Z</time>
      </trkpt>
      <trkpt lat="43.404870" lon="-6.316340">
        <ele>643.497</ele>
        <time>1999-07-22T16:27:38Z</time>
      </trkpt>
      <trkpt lat="43.404666" lon="-6.316531">
        <ele>642.423</ele>
        <time>1999-07-22T16:27:41Z</time>
      </trkpt>
      <trkpt lat="43.404526" lon="-6.316655">
        <ele>641.425</ele>
        <time>1999-07-22T16:27:43Z</time>
      </trkpt>
      <trkpt lat="43.404316" lon="-6.316824">
        <ele>640.608</ele>
        <time>1999-07-22T16:27:46Z</time>
      </trkpt>
      <trkpt lat="43.404244" lon="-6.316875">
        <ele>640.232</ele>
        <time>1999-07-22T16:27:47Z</time>
      </trkpt>
      <trkpt lat="43.404099" lon="-6.317007">
        <ele>639.897</ele>
        <time>1999-07-22T16:27:49Z</time>
      </trkpt>
      <trkpt lat="43.404027" lon="-6.317082">
        <ele>639.668</ele>
        <time>1999-07-22T16:27:50Z</time>
      </trkpt>
      <trkpt lat="43.403813" lon="-6.317322">
        <ele>639.074</ele>
        <time>1999-07-22T16:27:53Z</time>
      </trkpt>
      <trkpt lat="43.403556" lon="-6.317671">
        <ele>638.280</ele>
        <time>1999-07-22T16:27:57Z</time>
      </trkpt>
      <trkpt lat="43.403490" lon="-6.317761">
        <ele>637.897</ele>
        <time>1999-07-22T16:27:58Z</time>
      </trkpt>
      <trkpt lat="43.403227" lon="-6.318081">
        <ele>637.074</ele>
        <time>1999-07-22T16:28:02Z</time>
      </trkpt>
      <trkpt lat="43.403106" lon="-6.318227">
        <ele>636.420</ele>
        <time>1999-07-22T16:28:04Z</time>
      </trkpt>
      <trkpt lat="43.402986" lon="-6.318367">
        <ele>635.898</ele>
        <time>1999-07-22T16:28:06Z</time>
      </trkpt>
      <trkpt lat="43.402924" lon="-6.318436">
        <ele>635.415</ele>
        <time>1999-07-22T16:28:07Z</time>
      </trkpt>
      <trkpt lat="43.402797" lon="-6.318575">
        <ele>634.826</ele>
        <time>1999-07-22T16:28:09Z</time>
      </trkpt>
      <trkpt lat="43.402662" lon="-6.318719">
        <ele>634.608</ele>
        <time>1999-07-22T16:28:11Z</time>
      </trkpt>
      <trkpt lat="43.402445" lon="-6.318912">
        <ele>634.282</ele>
        <time>1999-07-22T16:28:14Z</time>
      </trkpt>
      <trkpt lat="43.402361" lon="-6.318952">
        <ele>634.057</ele>
        <time>1999-07-22T16:28:15Z</time>
      </trkpt>
      <trkpt lat="43.402086" lon="-6.318990">
        <ele>633.438</ele>
        <time>1999-07-22T16:28:18Z</time>
      </trkpt>
      <trkpt lat="43.401991" lon="-6.318998">
        <ele>633.094</ele>
        <time>1999-07-22T16:28:19Z</time>
      </trkpt>
      <trkpt lat="43.401705" lon="-6.319022">
        <ele>632.230</ele>
        <time>1999-07-22T16:28:22Z</time>
      </trkpt>
      <trkpt lat="43.401547" lon="-6.319053">
        <ele>631.417</ele>
        <time>1999-07-22T16:28:24Z</time>
      </trkpt>
      <trkpt lat="43.401488" lon="-6.319087">
        <ele>630.824</ele>
        <time>1999-07-22T16:28:25Z</time>
      </trkpt>
      <trkpt lat="43.401424" lon="-6.319208">
        <ele>629.810</ele>
        <time>1999-07-22T16:28:27Z</time>
      </trkpt>
      <trkpt lat="43.401413" lon="-6.319486">
        <ele>628.455</ele>
        <time>1999-07-22T16:28:30Z</time>
      </trkpt>
      <trkpt lat="43.401413" lon="-6.319596">
        <ele>628.207</ele>
        <time>1999-07-22T16:28:31Z</time>
      </trkpt>
      <trkpt lat="43.401400" lon="-6.319792">
        <ele>627.217</ele>
        <time>1999-07-22T16:28:33Z</time>
      </trkpt>
      <trkpt lat="43.401388" lon="-6.319876">
        <ele>626.608</ele>
        <time>1999-07-22T16:28:34Z</time>
      </trkpt>
      <trkpt lat="43.401370" lon="-6.319951">
        <ele>626.098</ele>
        <time>1999-07-22T16:28:35Z</time>
      </trkpt>
      <trkpt lat="43.401302" lon="-6.320067">
        <ele>624.813</ele>
        <time>1999-07-22T16:28:37Z</time>
      </trkpt>
      <trkpt lat="43.401253" lon="-6.320106">
        <ele>623.674</ele>
        <time>1999-07-22T16:28:38Z</time>
      </trkpt>
      <trkpt lat="43.401205" lon="-6.320137">
        <ele>623.060</ele>
        <time>1999-07-22T16:28:39Z</time>
      </trkpt>
      <trkpt lat="43.401112" lon="-6.320195">
        <ele>622.436</ele>
        <time>1999-07-22T16:28:41Z</time>
      </trkpt>
      <trkpt lat="43.400970" lon="-6.320281">
        <ele>621.413</ele>
        <time>1999-07-22T16:28:44Z</time>
      </trkpt>
      <trkpt lat="43.400921" lon="-6.320314">
        <ele>621.050</ele>
        <time>1999-07-22T16:28:45Z</time>
      </trkpt>
      <trkpt lat="43.400572" lon="-6.320508">
        <ele>620.646</ele>
        <time>1999-07-22T16:28:51Z</time>
      </trkpt>
      <trkpt lat="43.400385" lon="-6.320615">
        <ele>620.493</ele>
        <time>1999-07-22T16:28:54Z</time>
      </trkpt>
      <trkpt lat="43.400272" lon="-6.320700">
        <ele>620.265</ele>
        <time>1999-07-22T16:28:56Z</time>
      </trkpt>
      <trkpt lat="43.400222" lon="-6.320751">
        <ele>620.221</ele>
        <time>1999-07-22T16:28:57Z</time>
      </trkpt>
      <trkpt lat="43.400175" lon="-6.320807">
        <ele>620.208</ele>
        <time>1999-07-22T16:28:58Z</time>
      </trkpt>
      <trkpt lat="43.399997" lon="-6.321054">
        <ele>619.622</ele>
        <time>1999-07-22T16:29:02Z</time>
      </trkpt>
      <trkpt lat="43.399833" lon="-6.321155">
        <ele>619.227</ele>
        <time>1999-07-22T16:29:05Z</time>
      </trkpt>
      <trkpt lat="43.399775" lon="-6.321178">
        <ele>619.068</ele>
        <time>1999-07-22T16:29:06Z</time>
      </trkpt>
      <trkpt lat="43.399660" lon="-6.321224">
        <ele>618.684</ele>
        <time>1999-07-22T16:29:08Z</time>
      </trkpt>
      <trkpt lat="43.399539" lon="-6.321289">
        <ele>618.270</ele>
        <time>1999-07-22T16:29:10Z</time>
      </trkpt>
      <trkpt lat="43.399481" lon="-6.321337">
        <ele>618.237</ele>
        <time>1999-07-22T16:29:11Z</time>
      </trkpt>
      <trkpt lat="43.399426" lon="-6.321401">
        <ele>618.064</ele>
        <time>1999-07-22T16:29:12Z</time>
      </trkpt>
      <trkpt lat="43.399351" lon="-6.321622">
        <ele>617.660</ele>
        <time>1999-07-22T16:29:15Z</time>
      </trkpt>
      <trkpt lat="43.399380" lon="-6.321861">
        <ele>617.653</ele>
        <time>1999-07-22T16:29:19Z</time>
      </trkpt>
      <trkpt lat="43.399464" lon="-6.321956">
        <ele>617.404</ele>
        <time>1999-07-22T16:29:22Z</time>
      </trkpt>
      <trkpt lat="43.399490" lon="-6.321980">
        <ele>617.614</ele>
        <time>1999-07-22T16:29:23Z</time>
      </trkpt>
      <trkpt lat="43.399630" lon="-6.322070">
        <ele>619.008</ele>
        <time>1999-07-22T16:29:29Z</time>
      </trkpt>
      <trkpt lat="43.399654" lon="-6.322090">
        <ele>619.068</ele>
        <time>1999-07-22T16:29:30Z</time>
      </trkpt>
      <trkpt lat="43.399730" lon="-6.322155">
        <ele>620.263</ele>
        <time>1999-07-22T16:29:33Z</time>
      </trkpt>
      <trkpt lat="43.399822" lon="-6.322246">
        <ele>621.044</ele>
        <time>1999-07-22T16:29:37Z</time>
      </trkpt>
      <trkpt lat="43.399867" lon="-6.322298">
        <ele>621.450</ele>
        <time>1999-07-22T16:29:39Z</time>
      </trkpt>
      <trkpt lat="43.399958" lon="-6.322445">
        <ele>622.266</ele>
        <time>1999-07-22T16:29:44Z</time>
      </trkpt>
      <trkpt lat="43.400008" lon="-6.322548">
        <ele>622.623</ele>
        <time>1999-07-22T16:29:47Z</time>
      </trkpt>
      <trkpt lat="43.400077" lon="-6.322738">
        <ele>623.630</ele>
        <time>1999-07-22T16:29:52Z</time>
      </trkpt>
      <trkpt lat="43.400088" lon="-6.322779">
        <ele>623.826</ele>
        <time>1999-07-22T16:29:53Z</time>
      </trkpt>
      <trkpt lat="43.400177" lon="-6.323002">
        <ele>624.876</ele>
        <time>1999-07-22T16:29:58Z</time>
      </trkpt>
      <trkpt lat="43.400195" lon="-6.323054">
        <ele>624.890</ele>
        <time>1999-07-22T16:29:59Z</time>
      </trkpt>
      <trkpt lat="43.400216" lon="-6.323103">
        <ele>625.019</ele>
        <time>1999-07-22T16:30:00Z</time>
      </trkpt>
      <trkpt lat="43.400294" lon="-6.323310">
        <ele>625.008</ele>
        <time>1999-07-22T16:30:04Z</time>
      </trkpt>
      <trkpt lat="43.400352" lon="-6.323638">
        <ele>625.270</ele>
        <time>1999-07-22T16:30:10Z</time>
      </trkpt>
      <trkpt lat="43.400367" lon="-6.323729">
        <ele>625.455</ele>
        <time>1999-07-22T16:30:12Z</time>
      </trkpt>
      <trkpt lat="43.400403" lon="-6.323848">
        <ele>625.876</ele>
        <time>1999-07-22T16:30:15Z</time>
      </trkpt>
      <trkpt lat="43.400443" lon="-6.323947">
        <ele>626.072</ele>
        <time>1999-07-22T16:30:18Z</time>
      </trkpt>
      <trkpt lat="43.400476" lon="-6.324037">
        <ele>626.648</ele>
        <time>1999-07-22T16:30:21Z</time>
      </trkpt>
      <trkpt lat="43.400506" lon="-6.324254">
        <ele>627.025</ele>
        <time>1999-07-22T16:30:27Z</time>
      </trkpt>
      <trkpt lat="43.400489" lon="-6.324448">
        <ele>628.282</ele>
        <time>1999-07-22T16:30:32Z</time>
      </trkpt>
      <trkpt lat="43.400476" lon="-6.324570">
        <ele>628.818</ele>
        <time>1999-07-22T16:30:35Z</time>
      </trkpt>
      <trkpt lat="43.400464" lon="-6.324650">
        <ele>629.244</ele>
        <time>1999-07-22T16:30:37Z</time>
      </trkpt>
      <trkpt lat="43.400447" lon="-6.324871">
        <ele>630.005</ele>
        <time>1999-07-22T16:30:43Z</time>
      </trkpt>
      <trkpt lat="43.400433" lon="-6.324933">
        <ele>630.215</ele>
        <time>1999-07-22T16:30:45Z</time>
      </trkpt>
      <trkpt lat="43.400401" lon="-6.325050">
        <ele>630.608</ele>
        <time>1999-07-22T16:30:48Z</time>
      </trkpt>
      <trkpt lat="43.400341" lon="-6.325238">
        <ele>631.287</ele>
        <time>1999-07-22T16:30:53Z</time>
      </trkpt>
      <trkpt lat="43.400331" lon="-6.325274">
        <ele>631.492</ele>
        <time>1999-07-22T16:30:54Z</time>
      </trkpt>
      <trkpt lat="43.400269" lon="-6.325502">
        <ele>632.453</ele>
        <time>1999-07-22T16:31:00Z</time>
      </trkpt>
      <trkpt lat="43.400250" lon="-6.325579">
        <ele>632.899</ele>
        <time>1999-07-22T16:31:02Z</time>
      </trkpt>
      <trkpt lat="43.400217" lon="-6.325697">
        <ele>633.475</ele>
        <time>1999-07-22T16:31:05Z</time>
      </trkpt>
      <trkpt lat="43.400166" lon="-6.325904">
        <ele>634.032</ele>
        <time>1999-07-22T16:31:10Z</time>
      </trkpt>
      <trkpt lat="43.400121" lon="-6.326093">
        <ele>634.449</ele>
        <time>1999-07-22T16:31:15Z</time>
      </trkpt>
      <trkpt lat="43.400093" lon="-6.326157">
        <ele>634.625</ele>
        <time>1999-07-22T16:31:17Z</time>
      </trkpt>
      <trkpt lat="43.399968" lon="-6.326335">
        <ele>635.441</ele>
        <time>1999-07-22T16:31:23Z</time>
      </trkpt>
      <trkpt lat="43.399951" lon="-6.326368">
        <ele>635.481</ele>
        <time>1999-07-22T16:31:24Z</time>
      </trkpt>
      <trkpt lat="43.399896" lon="-6.326533">
        <ele>636.209</ele>
        <time>1999-07-22T16:31:29Z</time>
      </trkpt>
      <trkpt lat="43.399884" lon="-6.326570">
        <ele>636.408</ele>
        <time>1999-07-22T16:31:30Z</time>
      </trkpt>
      <trkpt lat="43.399820" lon="-6.326823">
        <ele>637.047</ele>
        <time>1999-07-22T16:31:36Z</time>
      </trkpt>
      <trkpt lat="43.399713" lon="-6.327130">
        <ele>637.442</ele>
        <time>1999-07-22T16:31:43Z</time>
      </trkpt>
      <trkpt lat="43.399674" lon="-6.327209">
        <ele>637.693</ele>
        <time>1999-07-22T16:31:45Z</time>
      </trkpt>
      <trkpt lat="43.399544" lon="-6.327433">
        <ele>638.229</ele>
        <time>1999-07-22T16:31:52Z</time>
      </trkpt>
      <trkpt lat="43.399513" lon="-6.327495">
        <ele>638.655</ele>
        <time>1999-07-22T16:31:54Z</time>
      </trkpt>
      <trkpt lat="43.399425" lon="-6.327691">
        <ele>639.642</ele>
        <time>1999-07-22T16:32:00Z</time>
      </trkpt>
      <trkpt lat="43.399322" lon="-6.327956">
        <ele>640.639</ele>
        <time>1999-07-22T16:32:08Z</time>
      </trkpt>
      <trkpt lat="43.399314" lon="-6.327991">
        <ele>640.625</ele>
        <time>1999-07-22T16:32:09Z</time>
      </trkpt>
      <trkpt lat="43.399279" lon="-6.328167">
        <ele>641.249</ele>
        <time>1999-07-22T16:32:14Z</time>
      </trkpt>
      <trkpt lat="43.399287" lon="-6.328341">
        <ele>641.802</ele>
        <time>1999-07-22T16:32:19Z</time>
      </trkpt>
      <trkpt lat="43.399293" lon="-6.328377">
        <ele>642.022</ele>
        <time>1999-07-22T16:32:20Z</time>
      </trkpt>
      <trkpt lat="43.399299" lon="-6.328597">
        <ele>643.008</ele>
        <time>1999-07-22T16:32:26Z</time>
      </trkpt>
      <trkpt lat="43.399294" lon="-6.328632">
        <ele>643.057</ele>
        <time>1999-07-22T16:32:27Z</time>
      </trkpt>
      <trkpt lat="43.399247" lon="-6.328798">
        <ele>644.082</ele>
        <time>1999-07-22T16:32:32Z</time>
      </trkpt>
      <trkpt lat="43.399222" lon="-6.328864">
        <ele>644.473</ele>
        <time>1999-07-22T16:32:34Z</time>
      </trkpt>
      <trkpt lat="43.399168" lon="-6.328968">
        <ele>645.269</ele>
        <time>1999-07-22T16:32:37Z</time>
      </trkpt>
      <trkpt lat="43.399140" lon="-6.329055">
        <ele>645.625</ele>
        <time>1999-07-22T16:32:39Z</time>
      </trkpt>
      <trkpt lat="43.399102" lon="-6.329215">
        <ele>646.032</ele>
        <time>1999-07-22T16:32:42Z</time>
      </trkpt>
      <trkpt lat="43.399057" lon="-6.329313">
        <ele>646.089</ele>
        <time>1999-07-22T16:32:44Z</time>
      </trkpt>
      <trkpt lat="43.399010" lon="-6.329385">
        <ele>646.285</ele>
        <time>1999-07-22T16:32:46Z</time>
      </trkpt>
      <trkpt lat="43.398924" lon="-6.329508">
        <ele>646.474</ele>
        <time>1999-07-22T16:32:50Z</time>
      </trkpt>
      <trkpt lat="43.398865" lon="-6.329637">
        <ele>647.056</ele>
        <time>1999-07-22T16:32:54Z</time>
      </trkpt>
      <trkpt lat="43.398850" lon="-6.329672">
        <ele>647.221</ele>
        <time>1999-07-22T16:32:55Z</time>
      </trkpt>
      <trkpt lat="43.398836" lon="-6.329703">
        <ele>647.608</ele>
        <time>1999-07-22T16:32:56Z</time>
      </trkpt>
      <trkpt lat="43.398789" lon="-6.329799">
        <ele>648.450</ele>
        <time>1999-07-22T16:32:59Z</time>
      </trkpt>
      <trkpt lat="43.398713" lon="-6.329971">
        <ele>649.045</ele>
        <time>1999-07-22T16:33:04Z</time>
      </trkpt>
      <trkpt lat="43.398698" lon="-6.330004">
        <ele>649.486</ele>
        <time>1999-07-22T16:33:05Z</time>
      </trkpt>
      <trkpt lat="43.398563" lon="-6.330246">
        <ele>650.462</ele>
        <time>1999-07-22T16:33:12Z</time>
      </trkpt>
      <trkpt lat="43.398416" lon="-6.330475">
        <ele>651.438</ele>
        <time>1999-07-22T16:33:18Z</time>
      </trkpt>
      <trkpt lat="43.398353" lon="-6.330563">
        <ele>651.665</ele>
        <time>1999-07-22T16:33:20Z</time>
      </trkpt>
      <trkpt lat="43.398293" lon="-6.330644">
        <ele>651.662</ele>
        <time>1999-07-22T16:33:22Z</time>
      </trkpt>
      <trkpt lat="43.398195" lon="-6.330788">
        <ele>651.688</ele>
        <time>1999-07-22T16:33:26Z</time>
      </trkpt>
      <trkpt lat="43.398135" lon="-6.330856">
        <ele>651.679</ele>
        <time>1999-07-22T16:33:28Z</time>
      </trkpt>
      <trkpt lat="43.397993" lon="-6.331002">
        <ele>651.805</ele>
        <time>1999-07-22T16:33:32Z</time>
      </trkpt>
      <trkpt lat="43.397744" lon="-6.331282">
        <ele>651.825</ele>
        <time>1999-07-22T16:33:39Z</time>
      </trkpt>
      <trkpt lat="43.397509" lon="-6.331590">
        <ele>652.008</ele>
        <time>1999-07-22T16:33:47Z</time>
      </trkpt>
      <trkpt lat="43.397346" lon="-6.331834">
        <ele>652.420</ele>
        <time>1999-07-22T16:33:53Z</time>
      </trkpt>
      <trkpt lat="43.397272" lon="-6.331944">
        <ele>652.675</ele>
        <time>1999-07-22T16:33:56Z</time>
      </trkpt>
      <trkpt lat="43.397156" lon="-6.332103">
        <ele>652.876</ele>
        <time>1999-07-22T16:34:00Z</time>
      </trkpt>
      <trkpt lat="43.397128" lon="-6.332151">
        <ele>653.032</ele>
        <time>1999-07-22T16:34:01Z</time>
      </trkpt>
      <trkpt lat="43.397071" lon="-6.332255">
        <ele>653.638</ele>
        <time>1999-07-22T16:34:03Z</time>
      </trkpt>
      <trkpt lat="43.396969" lon="-6.332410">
        <ele>653.865</ele>
        <time>1999-07-22T16:34:06Z</time>
      </trkpt>
      <trkpt lat="43.396825" lon="-6.332626">
        <ele>653.872</ele>
        <time>1999-07-22T16:34:10Z</time>
      </trkpt>
      <trkpt lat="43.396720" lon="-6.332803">
        <ele>653.878</ele>
        <time>1999-07-22T16:34:13Z</time>
      </trkpt>
      <trkpt lat="43.396688" lon="-6.332866">
        <ele>653.645</ele>
        <time>1999-07-22T16:34:14Z</time>
      </trkpt>
      <trkpt lat="43.396621" lon="-6.332990">
        <ele>653.447</ele>
        <time>1999-07-22T16:34:16Z</time>
      </trkpt>
      <trkpt lat="43.396470" lon="-6.333225">
        <ele>653.211</ele>
        <time>1999-07-22T16:34:20Z</time>
      </trkpt>
      <trkpt lat="43.396436" lon="-6.333287">
        <ele>653.208</ele>
        <time>1999-07-22T16:34:21Z</time>
      </trkpt>
      <trkpt lat="43.396409" lon="-6.333353">
        <ele>653.287</ele>
        <time>1999-07-22T16:34:22Z</time>
      </trkpt>
      <trkpt lat="43.396348" lon="-6.333560">
        <ele>652.842</ele>
        <time>1999-07-22T16:34:25Z</time>
      </trkpt>
      <trkpt lat="43.396310" lon="-6.333783">
        <ele>652.453</ele>
        <time>1999-07-22T16:34:28Z</time>
      </trkpt>
      <trkpt lat="43.396264" lon="-6.333989">
        <ele>652.239</ele>
        <time>1999-07-22T16:34:31Z</time>
      </trkpt>
      <trkpt lat="43.396227" lon="-6.334110">
        <ele>652.295</ele>
        <time>1999-07-22T16:34:33Z</time>
      </trkpt>
      <trkpt lat="43.396190" lon="-6.334233">
        <ele>651.862</ele>
        <time>1999-07-22T16:34:35Z</time>
      </trkpt>
      <trkpt lat="43.396166" lon="-6.334348">
        <ele>651.649</ele>
        <time>1999-07-22T16:34:37Z</time>
      </trkpt>
      <trkpt lat="43.396153" lon="-6.334412">
        <ele>651.635</ele>
        <time>1999-07-22T16:34:38Z</time>
      </trkpt>
      <trkpt lat="43.396070" lon="-6.334698">
        <ele>651.432</ele>
        <time>1999-07-22T16:34:42Z</time>
      </trkpt>
      <trkpt lat="43.396054" lon="-6.334762">
        <ele>651.492</ele>
        <time>1999-07-22T16:34:43Z</time>
      </trkpt>
      <trkpt lat="43.396026" lon="-6.335031">
        <ele>651.011</ele>
        <time>1999-07-22T16:34:48Z</time>
      </trkpt>
      <trkpt lat="43.396051" lon="-6.335183">
        <ele>650.608</ele>
        <time>1999-07-22T16:34:51Z</time>
      </trkpt>
      <trkpt lat="43.396061" lon="-6.335233">
        <ele>650.476</ele>
        <time>1999-07-22T16:34:52Z</time>
      </trkpt>
      <trkpt lat="43.396069" lon="-6.335284">
        <ele>650.461</ele>
        <time>1999-07-22T16:34:53Z</time>
      </trkpt>
      <trkpt lat="43.396087" lon="-6.335395">
        <ele>650.422</ele>
        <time>1999-07-22T16:34:55Z</time>
      </trkpt>
      <trkpt lat="43.396103" lon="-6.335587">
        <ele>650.268</ele>
        <time>1999-07-22T16:34:58Z</time>
      </trkpt>
      <trkpt lat="43.396031" lon="-6.335773">
        <ele>650.264</ele>
        <time>1999-07-22T16:35:01Z</time>
      </trkpt>
      <trkpt lat="43.395857" lon="-6.335901">
        <ele>650.211</ele>
        <time>1999-07-22T16:35:04Z</time>
      </trkpt>
      <trkpt lat="43.395658" lon="-6.335987">
        <ele>650.098</ele>
        <time>1999-07-22T16:35:07Z</time>
      </trkpt>
      <trkpt lat="43.395598" lon="-6.335998">
        <ele>649.444</ele>
        <time>1999-07-22T16:35:08Z</time>
      </trkpt>
      <trkpt lat="43.395538" lon="-6.335990">
        <ele>649.426</ele>
        <time>1999-07-22T16:35:09Z</time>
      </trkpt>
      <trkpt lat="43.395481" lon="-6.335964">
        <ele>649.047</ele>
        <time>1999-07-22T16:35:10Z</time>
      </trkpt>
      <trkpt lat="43.395384" lon="-6.335889">
        <ele>648.611</ele>
        <time>1999-07-22T16:35:12Z</time>
      </trkpt>
      <trkpt lat="43.395336" lon="-6.335857">
        <ele>648.208</ele>
        <time>1999-07-22T16:35:13Z</time>
      </trkpt>
      <trkpt lat="43.395283" lon="-6.335839">
        <ele>648.055</ele>
        <time>1999-07-22T16:35:14Z</time>
      </trkpt>
      <trkpt lat="43.395181" lon="-6.335834">
        <ele>647.270</ele>
        <time>1999-07-22T16:35:16Z</time>
      </trkpt>
      <trkpt lat="43.395134" lon="-6.335832">
        <ele>646.821</ele>
        <time>1999-07-22T16:35:17Z</time>
      </trkpt>
      <trkpt lat="43.395047" lon="-6.335840">
        <ele>646.457</ele>
        <time>1999-07-22T16:35:19Z</time>
      </trkpt>
      <trkpt lat="43.394985" lon="-6.335907">
        <ele>646.253</ele>
        <time>1999-07-22T16:35:21Z</time>
      </trkpt>
      <trkpt lat="43.394972" lon="-6.335964">
        <ele>646.220</ele>
        <time>1999-07-22T16:35:22Z</time>
      </trkpt>
      <trkpt lat="43.394961" lon="-6.336105">
        <ele>646.067</ele>
        <time>1999-07-22T16:35:24Z</time>
      </trkpt>
      <trkpt lat="43.394961" lon="-6.336524">
        <ele>645.613</ele>
        <time>1999-07-22T16:35:29Z</time>
      </trkpt>
      <trkpt lat="43.394970" lon="-6.336617">
        <ele>645.485</ele>
        <time>1999-07-22T16:35:30Z</time>
      </trkpt>
      <trkpt lat="43.394994" lon="-6.336795">
        <ele>644.489</ele>
        <time>1999-07-22T16:35:32Z</time>
      </trkpt>
      <trkpt lat="43.395004" lon="-6.336864">
        <ele>644.217</ele>
        <time>1999-07-22T16:35:33Z</time>
      </trkpt>
      <trkpt lat="43.395001" lon="-6.336929">
        <ele>644.008</ele>
        <time>1999-07-22T16:35:34Z</time>
      </trkpt>
      <trkpt lat="43.394960" lon="-6.337122">
        <ele>643.421</ele>
        <time>1999-07-22T16:35:37Z</time>
      </trkpt>
      <trkpt lat="43.394932" lon="-6.337179">
        <ele>643.036</ele>
        <time>1999-07-22T16:35:38Z</time>
      </trkpt>
      <trkpt lat="43.394897" lon="-6.337226">
        <ele>642.627</ele>
        <time>1999-07-22T16:35:39Z</time>
      </trkpt>
      <trkpt lat="43.394816" lon="-6.337300">
        <ele>642.223</ele>
        <time>1999-07-22T16:35:41Z</time>
      </trkpt>
      <trkpt lat="43.394697" lon="-6.337362">
        <ele>641.449</ele>
        <time>1999-07-22T16:35:44Z</time>
      </trkpt>
      <trkpt lat="43.394537" lon="-6.337399">
        <ele>641.496</ele>
        <time>1999-07-22T16:35:48Z</time>
      </trkpt>
      <trkpt lat="43.394415" lon="-6.337423">
        <ele>641.463</ele>
        <time>1999-07-22T16:35:51Z</time>
      </trkpt>
      <trkpt lat="43.394338" lon="-6.337465">
        <ele>641.679</ele>
        <time>1999-07-22T16:35:53Z</time>
      </trkpt>
      <trkpt lat="43.394264" lon="-6.337524">
        <ele>642.048</ele>
        <time>1999-07-22T16:35:55Z</time>
      </trkpt>
      <trkpt lat="43.394227" lon="-6.337559">
        <ele>642.061</ele>
        <time>1999-07-22T16:35:56Z</time>
      </trkpt>
      <trkpt lat="43.394191" lon="-6.337596">
        <ele>642.217</ele>
        <time>1999-07-22T16:35:57Z</time>
      </trkpt>
      <trkpt lat="43.394125" lon="-6.337678">
        <ele>642.408</ele>
        <time>1999-07-22T16:35:59Z</time>
      </trkpt>
      <trkpt lat="43.394018" lon="-6.337877">
        <ele>643.027</ele>
        <time>1999-07-22T16:36:03Z</time>
      </trkpt>
      <trkpt lat="43.393996" lon="-6.337925">
        <ele>643.072</ele>
        <time>1999-07-22T16:36:04Z</time>
      </trkpt>
      <trkpt lat="43.393880" lon="-6.338156">
        <ele>643.673</ele>
        <time>1999-07-22T16:36:09Z</time>
      </trkpt>
      <trkpt lat="43.393790" lon="-6.338353">
        <ele>644.449</ele>
        <time>1999-07-22T16:36:13Z</time>
      </trkpt>
      <trkpt lat="43.393711" lon="-6.338551">
        <ele>644.835</ele>
        <time>1999-07-22T16:36:17Z</time>
      </trkpt>
      <trkpt lat="43.393560" lon="-6.338892">
        <ele>645.462</ele>
        <time>1999-07-22T16:36:24Z</time>
      </trkpt>
      <trkpt lat="43.393544" lon="-6.338935">
        <ele>645.479</ele>
        <time>1999-07-22T16:36:25Z</time>
      </trkpt>
      <trkpt lat="43.393535" lon="-6.338980">
        <ele>645.655</ele>
        <time>1999-07-22T16:36:26Z</time>
      </trkpt>
      <trkpt lat="43.393545" lon="-6.339076">
        <ele>645.615</ele>
        <time>1999-07-22T16:36:28Z</time>
      </trkpt>
      <trkpt lat="43.393547" lon="-6.339264">
        <ele>645.865</ele>
        <time>1999-07-22T16:36:32Z</time>
      </trkpt>
      <trkpt lat="43.393548" lon="-6.339311">
        <ele>646.011</ele>
        <time>1999-07-22T16:36:33Z</time>
      </trkpt>
      <trkpt lat="43.393563" lon="-6.339512">
        <ele>646.408</ele>
        <time>1999-07-22T16:36:37Z</time>
      </trkpt>
      <trkpt lat="43.393568" lon="-6.339667">
        <ele>646.864</ele>
        <time>1999-07-22T16:36:40Z</time>
      </trkpt>
      <trkpt lat="43.393485" lon="-6.339904">
        <ele>647.459</ele>
        <time>1999-07-22T16:36:45Z</time>
      </trkpt>
      <trkpt lat="43.393403" lon="-6.340012">
        <ele>647.490</ele>
        <time>1999-07-22T16:36:48Z</time>
      </trkpt>
      <trkpt lat="43.393335" lon="-6.340141">
        <ele>647.626</ele>
        <time>1999-07-22T16:36:51Z</time>
      </trkpt>
      <trkpt lat="43.393273" lon="-6.340344">
        <ele>648.082</ele>
        <time>1999-07-22T16:36:56Z</time>
      </trkpt>
      <trkpt lat="43.393212" lon="-6.340529">
        <ele>648.469</ele>
        <time>1999-07-22T16:37:01Z</time>
      </trkpt>
      <trkpt lat="43.393193" lon="-6.340599">
        <ele>648.886</ele>
        <time>1999-07-22T16:37:03Z</time>
      </trkpt>
      <trkpt lat="43.393151" lon="-6.340781">
        <ele>649.442</ele>
        <time>1999-07-22T16:37:09Z</time>
      </trkpt>
      <trkpt lat="43.393135" lon="-6.340838">
        <ele>650.286</ele>
        <time>1999-07-22T16:37:11Z</time>
      </trkpt>
      <trkpt lat="43.393112" lon="-6.340927">
        <ele>650.660</ele>
        <time>1999-07-22T16:37:14Z</time>
      </trkpt>
      <trkpt lat="43.393087" lon="-6.341061">
        <ele>651.626</ele>
        <time>1999-07-22T16:37:18Z</time>
      </trkpt>
      <trkpt lat="43.393079" lon="-6.341091">
        <ele>651.808</ele>
        <time>1999-07-22T16:37:19Z</time>
      </trkpt>
      <trkpt lat="43.393015" lon="-6.341182">
        <ele>652.831</ele>
        <time>1999-07-22T16:37:23Z</time>
      </trkpt>
      <trkpt lat="43.392887" lon="-6.341387">
        <ele>653.616</ele>
        <time>1999-07-22T16:37:30Z</time>
      </trkpt>
      <trkpt lat="43.392797" lon="-6.341548">
        <ele>653.887</ele>
        <time>1999-07-22T16:37:35Z</time>
      </trkpt>
      <trkpt lat="43.392763" lon="-6.341613">
        <ele>654.023</ele>
        <time>1999-07-22T16:37:37Z</time>
      </trkpt>
      <trkpt lat="43.392677" lon="-6.341766">
        <ele>654.269</ele>
        <time>1999-07-22T16:37:42Z</time>
      </trkpt>
      <trkpt lat="43.392596" lon="-6.341885">
        <ele>655.046</ele>
        <time>1999-07-22T16:37:46Z</time>
      </trkpt>
      <trkpt lat="43.392484" lon="-6.342055">
        <ele>655.833</ele>
        <time>1999-07-22T16:37:52Z</time>
      </trkpt>
      <trkpt lat="43.392448" lon="-6.342112">
        <ele>656.099</ele>
        <time>1999-07-22T16:37:54Z</time>
      </trkpt>
      <trkpt lat="43.392432" lon="-6.342141">
        <ele>656.084</ele>
        <time>1999-07-22T16:37:55Z</time>
      </trkpt>
      <trkpt lat="43.392339" lon="-6.342295">
        <ele>656.607</ele>
        <time>1999-07-22T16:38:01Z</time>
      </trkpt>
      <trkpt lat="43.392281" lon="-6.342382">
        <ele>657.017</ele>
        <time>1999-07-22T16:38:06Z</time>
      </trkpt>
      <trkpt lat="43.392256" lon="-6.342422">
        <ele>657.408</ele>
        <time>1999-07-22T16:38:08Z</time>
      </trkpt>
      <trkpt lat="43.392209" lon="-6.342479">
        <ele>657.631</ele>
        <time>1999-07-22T16:38:11Z</time>
      </trkpt>
      <trkpt lat="43.392172" lon="-6.342524">
        <ele>657.836</ele>
        <time>1999-07-22T16:38:13Z</time>
      </trkpt>
      <trkpt lat="43.392124" lon="-6.342586">
        <ele>658.087</ele>
        <time>1999-07-22T16:38:15Z</time>
      </trkpt>
      <trkpt lat="43.392026" lon="-6.342721">
        <ele>658.433</ele>
        <time>1999-07-22T16:38:19Z</time>
      </trkpt>
      <trkpt lat="43.391931" lon="-6.342857">
        <ele>659.049</ele>
        <time>1999-07-22T16:38:23Z</time>
      </trkpt>
      <trkpt lat="43.391824" lon="-6.343015">
        <ele>659.466</ele>
        <time>1999-07-22T16:38:28Z</time>
      </trkpt>
      <trkpt lat="43.391743" lon="-6.343122">
        <ele>660.063</ele>
        <time>1999-07-22T16:38:33Z</time>
      </trkpt>
      <trkpt lat="43.391712" lon="-6.343154">
        <ele>660.419</ele>
        <time>1999-07-22T16:38:35Z</time>
      </trkpt>
      <trkpt lat="43.391650" lon="-6.343214">
        <ele>661.268</ele>
        <time>1999-07-22T16:38:39Z</time>
      </trkpt>
      <trkpt lat="43.391633" lon="-6.343230">
        <ele>661.242</ele>
        <time>1999-07-22T16:38:40Z</time>
      </trkpt>
      <trkpt lat="43.391513" lon="-6.343357">
        <ele>661.826</ele>
        <time>1999-07-22T16:38:46Z</time>
      </trkpt>
      <trkpt lat="43.391414" lon="-6.343447">
        <ele>662.208</ele>
        <time>1999-07-22T16:38:50Z</time>
      </trkpt>
      <trkpt lat="43.391383" lon="-6.343467">
        <ele>662.459</ele>
        <time>1999-07-22T16:38:51Z</time>
      </trkpt>
      <trkpt lat="43.391314" lon="-6.343482">
        <ele>662.484</ele>
        <time>1999-07-22T16:38:53Z</time>
      </trkpt>
      <trkpt lat="43.391252" lon="-6.343458">
        <ele>662.445</ele>
        <time>1999-07-22T16:38:55Z</time>
      </trkpt>
      <trkpt lat="43.391170" lon="-6.343380">
        <ele>662.661</ele>
        <time>1999-07-22T16:38:58Z</time>
      </trkpt>
      <trkpt lat="43.391121" lon="-6.343315">
        <ele>662.847</ele>
        <time>1999-07-22T16:39:00Z</time>
      </trkpt>
      <trkpt lat="43.391005" lon="-6.343172">
        <ele>663.464</ele>
        <time>1999-07-22T16:39:06Z</time>
      </trkpt>
      <trkpt lat="43.390984" lon="-6.343157">
        <ele>663.451</ele>
        <time>1999-07-22T16:39:07Z</time>
      </trkpt>
      <trkpt lat="43.390905" lon="-6.343087">
        <ele>664.267</ele>
        <time>1999-07-22T16:39:11Z</time>
      </trkpt>
      <trkpt lat="43.390884" lon="-6.343067">
        <ele>664.432</ele>
        <time>1999-07-22T16:39:12Z</time>
      </trkpt>
      <trkpt lat="43.390823" lon="-6.343012">
        <ele>664.892</ele>
        <time>1999-07-22T16:39:15Z</time>
      </trkpt>
      <trkpt lat="43.390709" lon="-6.342947">
        <ele>665.411</ele>
        <time>1999-07-22T16:39:20Z</time>
      </trkpt>
      <trkpt lat="43.390660" lon="-6.342917">
        <ele>665.808</ele>
        <time>1999-07-22T16:39:22Z</time>
      </trkpt>
      <trkpt lat="43.390556" lon="-6.342878">
        <ele>666.656</ele>
        <time>1999-07-22T16:39:26Z</time>
      </trkpt>
      <trkpt lat="43.390499" lon="-6.342862">
        <ele>667.011</ele>
        <time>1999-07-22T16:39:28Z</time>
      </trkpt>
      <trkpt lat="43.390369" lon="-6.342843">
        <ele>667.842</ele>
        <time>1999-07-22T16:39:32Z</time>
      </trkpt>
      <trkpt lat="43.390268" lon="-6.342871">
        <ele>668.248</ele>
        <time>1999-07-22T16:39:35Z</time>
      </trkpt>
      <trkpt lat="43.390089" lon="-6.343015">
        <ele>668.824</ele>
        <time>1999-07-22T16:39:41Z</time>
      </trkpt>
      <trkpt lat="43.389933" lon="-6.343171">
        <ele>669.081</ele>
        <time>1999-07-22T16:39:47Z</time>
      </trkpt>
      <trkpt lat="43.389757" lon="-6.343349">
        <ele>669.628</ele>
        <time>1999-07-22T16:39:53Z</time>
      </trkpt>
      <trkpt lat="43.389725" lon="-6.343382">
        <ele>669.654</ele>
        <time>1999-07-22T16:39:54Z</time>
      </trkpt>
      <trkpt lat="43.389617" lon="-6.343482">
        <ele>669.812</ele>
        <time>1999-07-22T16:39:57Z</time>
      </trkpt>
      <trkpt lat="43.389581" lon="-6.343518">
        <ele>669.832</ele>
        <time>1999-07-22T16:39:58Z</time>
      </trkpt>
      <trkpt lat="43.389506" lon="-6.343589">
        <ele>670.005</ele>
        <time>1999-07-22T16:40:00Z</time>
      </trkpt>
      <trkpt lat="43.389444" lon="-6.343648">
        <ele>670.208</ele>
        <time>1999-07-22T16:40:02Z</time>
      </trkpt>
      <trkpt lat="43.389428" lon="-6.343667">
        <ele>670.284</ele>
        <time>1999-07-22T16:40:03Z</time>
      </trkpt>
      <trkpt lat="43.389408" lon="-6.343677">
        <ele>670.229</ele>
        <time>1999-07-22T16:40:05Z</time>
      </trkpt>
      <trkpt lat="43.389418" lon="-6.343644">
        <ele>670.280</ele>
        <time>1999-07-22T16:40:07Z</time>
      </trkpt>
      <trkpt lat="43.389475" lon="-6.343597">
        <ele>670.036</ele>
        <time>1999-07-22T16:40:10Z</time>
      </trkpt>
      <trkpt lat="43.389543" lon="-6.343536">
        <ele>670.092</ele>
        <time>1999-07-22T16:40:13Z</time>
      </trkpt>
      <trkpt lat="43.389731" lon="-6.343395">
        <ele>670.049</ele>
        <time>1999-07-22T16:40:20Z</time>
      </trkpt>
      <trkpt lat="43.389822" lon="-6.343356">
        <ele>670.296</ele>
        <time>1999-07-22T16:40:24Z</time>
      </trkpt>
      <trkpt lat="43.389839" lon="-6.343354">
        <ele>670.252</ele>
        <time>1999-07-22T16:40:25Z</time>
      </trkpt>
      <trkpt lat="43.389910" lon="-6.343349">
        <ele>670.643</ele>
        <time>1999-07-22T16:40:29Z</time>
      </trkpt>
      <trkpt lat="43.389945" lon="-6.343353">
        <ele>670.864</ele>
        <time>1999-07-22T16:40:31Z</time>
      </trkpt>
      <trkpt lat="43.389985" lon="-6.343371">
        <ele>671.610</ele>
        <time>1999-07-22T16:40:34Z</time>
      </trkpt>
      <trkpt lat="43.389970" lon="-6.343386">
        <ele>672.008</ele>
        <time>1999-07-22T16:40:36Z</time>
      </trkpt>
      <trkpt lat="43.389946" lon="-6.343406">
        <ele>672.247</ele>
        <time>1999-07-22T16:40:38Z</time>
      </trkpt>
      <trkpt lat="43.389941" lon="-6.343464">
        <ele>673.062</ele>
        <time>1999-07-22T16:40:41Z</time>
      </trkpt>
      <trkpt lat="43.389944" lon="-6.343483">
        <ele>673.053</ele>
        <time>1999-07-22T16:40:42Z</time>
      </trkpt>
      <trkpt lat="43.389955" lon="-6.343562">
        <ele>673.249</ele>
        <time>1999-07-22T16:40:46Z</time>
      </trkpt>
      <trkpt lat="43.389956" lon="-6.343580">
        <ele>673.275</ele>
        <time>1999-07-22T16:40:47Z</time>
      </trkpt>
      <trkpt lat="43.389963" lon="-6.343615">
        <ele>673.432</ele>
        <time>1999-07-22T16:40:49Z</time>
      </trkpt>
      <trkpt lat="43.389964" lon="-6.343654">
        <ele>674.249</ele>
        <time>1999-07-22T16:40:51Z</time>
      </trkpt>
      <trkpt lat="43.389961" lon="-6.343672">
        <ele>674.485</ele>
        <time>1999-07-22T16:40:52Z</time>
      </trkpt>
      <trkpt lat="43.389957" lon="-6.343712">
        <ele>675.294</ele>
        <time>1999-07-22T16:40:54Z</time>
      </trkpt>
      <trkpt lat="43.389958" lon="-6.343728">
        <ele>675.457</ele>
        <time>1999-07-22T16:40:55Z</time>
      </trkpt>
      <trkpt lat="43.389959" lon="-6.343760">
        <ele>676.022</ele>
        <time>1999-07-22T16:40:57Z</time>
      </trkpt>
      <trkpt lat="43.389952" lon="-6.343793">
        <ele>676.408</ele>
        <time>1999-07-22T16:40:59Z</time>
      </trkpt>
      <trkpt lat="43.389950" lon="-6.343809">
        <ele>676.872</ele>
        <time>1999-07-22T16:41:00Z</time>
      </trkpt>
      <trkpt lat="43.389943" lon="-6.343862">
        <ele>677.637</ele>
        <time>1999-07-22T16:41:03Z</time>
      </trkpt>
      <trkpt lat="43.389931" lon="-6.343951">
        <ele>678.848</ele>
        <time>1999-07-22T16:41:08Z</time>
      </trkpt>
      <trkpt lat="43.389920" lon="-6.343985">
        <ele>679.014</ele>
        <time>1999-07-22T16:41:10Z</time>
      </trkpt>
      <trkpt lat="43.389920" lon="-6.344057">
        <ele>680.070</ele>
        <time>1999-07-22T16:41:14Z</time>
      </trkpt>
      <trkpt lat="43.389922" lon="-6.344093">
        <ele>680.637</ele>
        <time>1999-07-22T16:41:16Z</time>
      </trkpt>
      <trkpt lat="43.389910" lon="-6.344133">
        <ele>681.234</ele>
        <time>1999-07-22T16:41:18Z</time>
      </trkpt>
      <trkpt lat="43.389887" lon="-6.344224">
        <ele>682.230</ele>
        <time>1999-07-22T16:41:22Z</time>
      </trkpt>
      <trkpt lat="43.389859" lon="-6.344296">
        <ele>683.076</ele>
        <time>1999-07-22T16:41:27Z</time>
      </trkpt>
      <trkpt lat="43.389854" lon="-6.344336">
        <ele>683.290</ele>
        <time>1999-07-22T16:41:29Z</time>
      </trkpt>
      <trkpt lat="43.389859" lon="-6.344357">
        <ele>683.619</ele>
        <time>1999-07-22T16:41:30Z</time>
      </trkpt>
      <trkpt lat="43.389865" lon="-6.344397">
        <ele>684.008</ele>
        <time>1999-07-22T16:41:32Z</time>
      </trkpt>
      <trkpt lat="43.389875" lon="-6.344433">
        <ele>684.480</ele>
        <time>1999-07-22T16:41:34Z</time>
      </trkpt>
      <trkpt lat="43.389873" lon="-6.344458">
        <ele>684.465</ele>
        <time>1999-07-22T16:41:35Z</time>
      </trkpt>
      <trkpt lat="43.389870" lon="-6.344483">
        <ele>684.646</ele>
        <time>1999-07-22T16:41:36Z</time>
      </trkpt>
      <trkpt lat="43.389858" lon="-6.344563">
        <ele>685.452</ele>
        <time>1999-07-22T16:41:39Z</time>
      </trkpt>
      <trkpt lat="43.389848" lon="-6.344675">
        <ele>686.648</ele>
        <time>1999-07-22T16:41:43Z</time>
      </trkpt>
      <trkpt lat="43.389867" lon="-6.344898">
        <ele>687.465</ele>
        <time>1999-07-22T16:41:49Z</time>
      </trkpt>
      <trkpt lat="43.389868" lon="-6.344941">
        <ele>687.612</ele>
        <time>1999-07-22T16:41:50Z</time>
      </trkpt>
      <trkpt lat="43.389864" lon="-6.344985">
        <ele>687.688</ele>
        <time>1999-07-22T16:41:51Z</time>
      </trkpt>
      <trkpt lat="43.389835" lon="-6.345208">
        <ele>687.825</ele>
        <time>1999-07-22T16:41:56Z</time>
      </trkpt>
      <trkpt lat="43.389822" lon="-6.345250">
        <ele>687.826</ele>
        <time>1999-07-22T16:41:57Z</time>
      </trkpt>
      <trkpt lat="43.389700" lon="-6.345455">
        <ele>687.608</ele>
        <time>1999-07-22T16:42:04Z</time>
      </trkpt>
      <trkpt lat="43.389572" lon="-6.345641">
        <ele>687.608</ele>
        <time>1999-07-22T16:42:10Z</time>
      </trkpt>
      <trkpt lat="43.389542" lon="-6.345715">
        <ele>687.695</ele>
        <time>1999-07-22T16:42:12Z</time>
      </trkpt>
      <trkpt lat="43.389511" lon="-6.345796">
        <ele>688.040</ele>
        <time>1999-07-22T16:42:14Z</time>
      </trkpt>
      <trkpt lat="43.389462" lon="-6.345915">
        <ele>688.241</ele>
        <time>1999-07-22T16:42:17Z</time>
      </trkpt>
      <trkpt lat="43.389421" lon="-6.346025">
        <ele>688.287</ele>
        <time>1999-07-22T16:42:20Z</time>
      </trkpt>
      <trkpt lat="43.389407" lon="-6.346064">
        <ele>688.243</ele>
        <time>1999-07-22T16:42:21Z</time>
      </trkpt>
      <trkpt lat="43.389377" lon="-6.346150">
        <ele>688.490</ele>
        <time>1999-07-22T16:42:23Z</time>
      </trkpt>
      <trkpt lat="43.389293" lon="-6.346457">
        <ele>688.447</ele>
        <time>1999-07-22T16:42:28Z</time>
      </trkpt>
      <trkpt lat="43.389231" lon="-6.346688">
        <ele>688.453</ele>
        <time>1999-07-22T16:42:33Z</time>
      </trkpt>
      <trkpt lat="43.389216" lon="-6.346731">
        <ele>688.422</ele>
        <time>1999-07-22T16:42:34Z</time>
      </trkpt>
      <trkpt lat="43.389179" lon="-6.346880">
        <ele>688.662</ele>
        <time>1999-07-22T16:42:38Z</time>
      </trkpt>
      <trkpt lat="43.389162" lon="-6.347064">
        <ele>689.008</ele>
        <time>1999-07-22T16:42:43Z</time>
      </trkpt>
      <trkpt lat="43.389158" lon="-6.347144">
        <ele>689.408</ele>
        <time>1999-07-22T16:42:45Z</time>
      </trkpt>
      <trkpt lat="43.389158" lon="-6.347185">
        <ele>689.665</ele>
        <time>1999-07-22T16:42:46Z</time>
      </trkpt>
      <trkpt lat="43.389176" lon="-6.347381">
        <ele>690.610</ele>
        <time>1999-07-22T16:42:51Z</time>
      </trkpt>
      <trkpt lat="43.389150" lon="-6.347566">
        <ele>691.011</ele>
        <time>1999-07-22T16:42:56Z</time>
      </trkpt>
      <trkpt lat="43.389090" lon="-6.347714">
        <ele>691.877</ele>
        <time>1999-07-22T16:43:01Z</time>
      </trkpt>
      <trkpt lat="43.389078" lon="-6.347736">
        <ele>692.063</ele>
        <time>1999-07-22T16:43:02Z</time>
      </trkpt>
      <trkpt lat="43.389030" lon="-6.347863">
        <ele>692.850</ele>
        <time>1999-07-22T16:43:07Z</time>
      </trkpt>
      <trkpt lat="43.389019" lon="-6.347887">
        <ele>693.077</ele>
        <time>1999-07-22T16:43:08Z</time>
      </trkpt>
      <trkpt lat="43.388965" lon="-6.347977">
        <ele>694.093</ele>
        <time>1999-07-22T16:43:12Z</time>
      </trkpt>
      <trkpt lat="43.388954" lon="-6.348003">
        <ele>694.225</ele>
        <time>1999-07-22T16:43:13Z</time>
      </trkpt>
      <trkpt lat="43.388895" lon="-6.348103">
        <ele>695.026</ele>
        <time>1999-07-22T16:43:17Z</time>
      </trkpt>
      <trkpt lat="43.388860" lon="-6.348148">
        <ele>695.608</ele>
        <time>1999-07-22T16:43:19Z</time>
      </trkpt>
      <trkpt lat="43.388792" lon="-6.348259">
        <ele>696.208</ele>
        <time>1999-07-22T16:43:23Z</time>
      </trkpt>
      <trkpt lat="43.388737" lon="-6.348378">
        <ele>696.825</ele>
        <time>1999-07-22T16:43:27Z</time>
      </trkpt>
      <trkpt lat="43.388673" lon="-6.348527">
        <ele>697.460</ele>
        <time>1999-07-22T16:43:32Z</time>
      </trkpt>
      <trkpt lat="43.388616" lon="-6.348660">
        <ele>697.831</ele>
        <time>1999-07-22T16:43:37Z</time>
      </trkpt>
      <trkpt lat="43.388576" lon="-6.348771">
        <ele>698.257</ele>
        <time>1999-07-22T16:43:41Z</time>
      </trkpt>
      <trkpt lat="43.388559" lon="-6.348804">
        <ele>698.233</ele>
        <time>1999-07-22T16:43:42Z</time>
      </trkpt>
      <trkpt lat="43.388479" lon="-6.348934">
        <ele>698.870</ele>
        <time>1999-07-22T16:43:45Z</time>
      </trkpt>
      <trkpt lat="43.388442" lon="-6.348976">
        <ele>698.867</ele>
        <time>1999-07-22T16:43:46Z</time>
      </trkpt>
      <trkpt lat="43.388367" lon="-6.349062">
        <ele>698.863</ele>
        <time>1999-07-22T16:43:48Z</time>
      </trkpt>
      <trkpt lat="43.388239" lon="-6.349192">
        <ele>698.863</ele>
        <time>1999-07-22T16:43:51Z</time>
      </trkpt>
      <trkpt lat="43.388193" lon="-6.349239">
        <ele>698.844</ele>
        <time>1999-07-22T16:43:52Z</time>
      </trkpt>
      <trkpt lat="43.388054" lon="-6.349374">
        <ele>698.818</ele>
        <time>1999-07-22T16:43:55Z</time>
      </trkpt>
      <trkpt lat="43.388009" lon="-6.349412">
        <ele>698.608</ele>
        <time>1999-07-22T16:43:56Z</time>
      </trkpt>
      <trkpt lat="43.387923" lon="-6.349472">
        <ele>698.299</ele>
        <time>1999-07-22T16:43:58Z</time>
      </trkpt>
      <trkpt lat="43.387710" lon="-6.349596">
        <ele>697.814</ele>
        <time>1999-07-22T16:44:04Z</time>
      </trkpt>
      <trkpt lat="43.387553" lon="-6.349684">
        <ele>697.685</ele>
        <time>1999-07-22T16:44:08Z</time>
      </trkpt>
      <trkpt lat="43.387474" lon="-6.349765">
        <ele>697.641</ele>
        <time>1999-07-22T16:44:10Z</time>
      </trkpt>
      <trkpt lat="43.387395" lon="-6.349871">
        <ele>697.467</ele>
        <time>1999-07-22T16:44:12Z</time>
      </trkpt>
      <trkpt lat="43.387305" lon="-6.349955">
        <ele>697.264</ele>
        <time>1999-07-22T16:44:14Z</time>
      </trkpt>
      <trkpt lat="43.387255" lon="-6.349970">
        <ele>697.241</ele>
        <time>1999-07-22T16:44:15Z</time>
      </trkpt>
      <trkpt lat="43.387115" lon="-6.349950">
        <ele>697.027</ele>
        <time>1999-07-22T16:44:18Z</time>
      </trkpt>
      <trkpt lat="43.387074" lon="-6.349933">
        <ele>696.834</ele>
        <time>1999-07-22T16:44:19Z</time>
      </trkpt>
      <trkpt lat="43.386993" lon="-6.349895">
        <ele>696.855</ele>
        <time>1999-07-22T16:44:21Z</time>
      </trkpt>
      <trkpt lat="43.386830" lon="-6.349791">
        <ele>696.810</ele>
        <time>1999-07-22T16:44:26Z</time>
      </trkpt>
      <trkpt lat="43.386720" lon="-6.349589">
        <ele>697.208</ele>
        <time>1999-07-22T16:44:32Z</time>
      </trkpt>
      <trkpt lat="43.386648" lon="-6.349476">
        <ele>697.676</ele>
        <time>1999-07-22T16:44:36Z</time>
      </trkpt>
      <trkpt lat="43.386597" lon="-6.349466">
        <ele>698.041</ele>
        <time>1999-07-22T16:44:38Z</time>
      </trkpt>
      <trkpt lat="43.386572" lon="-6.349468">
        <ele>698.212</ele>
        <time>1999-07-22T16:44:39Z</time>
      </trkpt>
      <trkpt lat="43.386518" lon="-6.349471">
        <ele>698.468</ele>
        <time>1999-07-22T16:44:42Z</time>
      </trkpt>
      <trkpt lat="43.386513" lon="-6.349475">
        <ele>698.634</ele>
        <time>1999-07-22T16:44:43Z</time>
      </trkpt>
      <trkpt lat="43.386497" lon="-6.349502">
        <ele>699.231</ele>
        <time>1999-07-22T16:44:46Z</time>
      </trkpt>
      <trkpt lat="43.386489" lon="-6.349511">
        <ele>699.248</ele>
        <time>1999-07-22T16:44:47Z</time>
      </trkpt>
      <trkpt lat="43.386469" lon="-6.349524">
        <ele>700.064</ele>
        <time>1999-07-22T16:44:49Z</time>
      </trkpt>
      <trkpt lat="43.386460" lon="-6.349528">
        <ele>700.232</ele>
        <time>1999-07-22T16:44:50Z</time>
      </trkpt>
      <trkpt lat="43.386435" lon="-6.349561">
        <ele>701.292</ele>
        <time>1999-07-22T16:44:54Z</time>
      </trkpt>
      <trkpt lat="43.386430" lon="-6.349572">
        <ele>701.411</ele>
        <time>1999-07-22T16:44:55Z</time>
      </trkpt>
      <trkpt lat="43.386424" lon="-6.349585">
        <ele>701.608</ele>
        <time>1999-07-22T16:44:56Z</time>
      </trkpt>
      <trkpt lat="43.386385" lon="-6.349633">
        <ele>702.446</ele>
        <time>1999-07-22T16:45:00Z</time>
      </trkpt>
      <trkpt lat="43.386353" lon="-6.349667">
        <ele>703.221</ele>
        <time>1999-07-22T16:45:04Z</time>
      </trkpt>
      <trkpt lat="43.386347" lon="-6.349679">
        <ele>703.642</ele>
        <time>1999-07-22T16:45:05Z</time>
      </trkpt>
      <trkpt lat="43.386328" lon="-6.349721">
        <ele>704.418</ele>
        <time>1999-07-22T16:45:08Z</time>
      </trkpt>
      <trkpt lat="43.386317" lon="-6.349736">
        <ele>704.634</ele>
        <time>1999-07-22T16:45:09Z</time>
      </trkpt>
      <trkpt lat="43.386271" lon="-6.349818">
        <ele>705.821</ele>
        <time>1999-07-22T16:45:14Z</time>
      </trkpt>
      <trkpt lat="43.386228" lon="-6.349891">
        <ele>707.278</ele>
        <time>1999-07-22T16:45:19Z</time>
      </trkpt>
      <trkpt lat="43.386219" lon="-6.349908">
        <ele>707.424</ele>
        <time>1999-07-22T16:45:20Z</time>
      </trkpt>
      <trkpt lat="43.386177" lon="-6.349985">
        <ele>708.288</ele>
        <time>1999-07-22T16:45:24Z</time>
      </trkpt>
      <trkpt lat="43.386143" lon="-6.350068">
        <ele>709.624</ele>
        <time>1999-07-22T16:45:29Z</time>
      </trkpt>
      <trkpt lat="43.386138" lon="-6.350083">
        <ele>709.826</ele>
        <time>1999-07-22T16:45:30Z</time>
      </trkpt>
      <trkpt lat="43.386118" lon="-6.350138">
        <ele>710.808</ele>
        <time>1999-07-22T16:45:33Z</time>
      </trkpt>
      <trkpt lat="43.386094" lon="-6.350187">
        <ele>711.661</ele>
        <time>1999-07-22T16:45:36Z</time>
      </trkpt>
      <trkpt lat="43.386087" lon="-6.350201">
        <ele>711.866</ele>
        <time>1999-07-22T16:45:37Z</time>
      </trkpt>
      <trkpt lat="43.386072" lon="-6.350260">
        <ele>712.887</ele>
        <time>1999-07-22T16:45:42Z</time>
      </trkpt>
      <trkpt lat="43.386055" lon="-6.350308">
        <ele>713.663</ele>
        <time>1999-07-22T16:45:45Z</time>
      </trkpt>
      <trkpt lat="43.386050" lon="-6.350320">
        <ele>714.089</ele>
        <time>1999-07-22T16:45:46Z</time>
      </trkpt>
      <trkpt lat="43.386024" lon="-6.350387">
        <ele>715.236</ele>
        <time>1999-07-22T16:45:51Z</time>
      </trkpt>
      <trkpt lat="43.385987" lon="-6.350455">
        <ele>716.243</ele>
        <time>1999-07-22T16:45:56Z</time>
      </trkpt>
      <trkpt lat="43.385977" lon="-6.350474">
        <ele>716.659</ele>
        <time>1999-07-22T16:45:57Z</time>
      </trkpt>
      <trkpt lat="43.385937" lon="-6.350557">
        <ele>717.474</ele>
        <time>1999-07-22T16:46:01Z</time>
      </trkpt>
      <trkpt lat="43.385906" lon="-6.350637">
        <ele>718.456</ele>
        <time>1999-07-22T16:46:05Z</time>
      </trkpt>
      <trkpt lat="43.385896" lon="-6.350655">
        <ele>718.621</ele>
        <time>1999-07-22T16:46:06Z</time>
      </trkpt>
      <trkpt lat="43.385849" lon="-6.350761">
        <ele>719.608</ele>
        <time>1999-07-22T16:46:11Z</time>
      </trkpt>
      <trkpt lat="43.385838" lon="-6.350777">
        <ele>719.860</ele>
        <time>1999-07-22T16:46:12Z</time>
      </trkpt>
      <trkpt lat="43.385827" lon="-6.350793">
        <ele>720.055</ele>
        <time>1999-07-22T16:46:13Z</time>
      </trkpt>
      <trkpt lat="43.385813" lon="-6.350826">
        <ele>720.416</ele>
        <time>1999-07-22T16:46:15Z</time>
      </trkpt>
      <trkpt lat="43.385804" lon="-6.350860">
        <ele>720.892</ele>
        <time>1999-07-22T16:46:17Z</time>
      </trkpt>
      <trkpt lat="43.385786" lon="-6.350926">
        <ele>721.688</ele>
        <time>1999-07-22T16:46:21Z</time>
      </trkpt>
      <trkpt lat="43.385773" lon="-6.350959">
        <ele>722.095</ele>
        <time>1999-07-22T16:46:23Z</time>
      </trkpt>
      <trkpt lat="43.385731" lon="-6.351074">
        <ele>723.212</ele>
        <time>1999-07-22T16:46:29Z</time>
      </trkpt>
      <trkpt lat="43.385725" lon="-6.351093">
        <ele>723.658</ele>
        <time>1999-07-22T16:46:30Z</time>
      </trkpt>
      <trkpt lat="43.385694" lon="-6.351163">
        <ele>724.456</ele>
        <time>1999-07-22T16:46:34Z</time>
      </trkpt>
      <trkpt lat="43.385683" lon="-6.351216">
        <ele>724.859</ele>
        <time>1999-07-22T16:46:37Z</time>
      </trkpt>
      <trkpt lat="43.385664" lon="-6.351272">
        <ele>725.414</ele>
        <time>1999-07-22T16:46:41Z</time>
      </trkpt>
      <trkpt lat="43.385638" lon="-6.351327">
        <ele>726.008</ele>
        <time>1999-07-22T16:46:45Z</time>
      </trkpt>
      <trkpt lat="43.385622" lon="-6.351355">
        <ele>726.688</ele>
        <time>1999-07-22T16:46:47Z</time>
      </trkpt>
      <trkpt lat="43.385610" lon="-6.351418">
        <ele>727.233</ele>
        <time>1999-07-22T16:46:51Z</time>
      </trkpt>
      <trkpt lat="43.385607" lon="-6.351434">
        <ele>727.484</ele>
        <time>1999-07-22T16:46:52Z</time>
      </trkpt>
      <trkpt lat="43.385583" lon="-6.351512">
        <ele>728.450</ele>
        <time>1999-07-22T16:46:57Z</time>
      </trkpt>
      <trkpt lat="43.385577" lon="-6.351529">
        <ele>728.676</ele>
        <time>1999-07-22T16:46:58Z</time>
      </trkpt>
      <trkpt lat="43.385547" lon="-6.351610">
        <ele>729.623</ele>
        <time>1999-07-22T16:47:03Z</time>
      </trkpt>
      <trkpt lat="43.385536" lon="-6.351639">
        <ele>730.080</ele>
        <time>1999-07-22T16:47:05Z</time>
      </trkpt>
      <trkpt lat="43.385506" lon="-6.351703">
        <ele>730.646</ele>
        <time>1999-07-22T16:47:08Z</time>
      </trkpt>
      <trkpt lat="43.385501" lon="-6.351737">
        <ele>731.024</ele>
        <time>1999-07-22T16:47:10Z</time>
      </trkpt>
      <trkpt lat="43.385511" lon="-6.351789">
        <ele>731.404</ele>
        <time>1999-07-22T16:47:13Z</time>
      </trkpt>
      <trkpt lat="43.385507" lon="-6.351810">
        <ele>731.614</ele>
        <time>1999-07-22T16:47:14Z</time>
      </trkpt>
      <trkpt lat="43.385497" lon="-6.351901">
        <ele>732.808</ele>
        <time>1999-07-22T16:47:18Z</time>
      </trkpt>
      <trkpt lat="43.385492" lon="-6.351924">
        <ele>733.055</ele>
        <time>1999-07-22T16:47:19Z</time>
      </trkpt>
      <trkpt lat="43.385471" lon="-6.352019">
        <ele>734.040</ele>
        <time>1999-07-22T16:47:23Z</time>
      </trkpt>
      <trkpt lat="43.385463" lon="-6.352080">
        <ele>735.281</ele>
        <time>1999-07-22T16:47:26Z</time>
      </trkpt>
      <trkpt lat="43.385462" lon="-6.352137">
        <ele>735.847</ele>
        <time>1999-07-22T16:47:29Z</time>
      </trkpt>
      <trkpt lat="43.385459" lon="-6.352172">
        <ele>736.283</ele>
        <time>1999-07-22T16:47:31Z</time>
      </trkpt>
      <trkpt lat="43.385460" lon="-6.352271">
        <ele>737.480</ele>
        <time>1999-07-22T16:47:36Z</time>
      </trkpt>
      <trkpt lat="43.385456" lon="-6.352364">
        <ele>738.627</ele>
        <time>1999-07-22T16:47:41Z</time>
      </trkpt>
      <trkpt lat="43.385459" lon="-6.352441">
        <ele>739.433</ele>
        <time>1999-07-22T16:47:45Z</time>
      </trkpt>
      <trkpt lat="43.385462" lon="-6.352459">
        <ele>739.694</ele>
        <time>1999-07-22T16:47:46Z</time>
      </trkpt>
      <trkpt lat="43.385465" lon="-6.352544">
        <ele>740.857</ele>
        <time>1999-07-22T16:47:51Z</time>
      </trkpt>
      <trkpt lat="43.385469" lon="-6.352574">
        <ele>741.822</ele>
        <time>1999-07-22T16:47:53Z</time>
      </trkpt>
      <trkpt lat="43.385473" lon="-6.352589">
        <ele>742.208</ele>
        <time>1999-07-22T16:47:54Z</time>
      </trkpt>
      <trkpt lat="43.385479" lon="-6.352633">
        <ele>743.212</ele>
        <time>1999-07-22T16:47:57Z</time>
      </trkpt>
      <trkpt lat="43.385487" lon="-6.352676">
        <ele>744.077</ele>
        <time>1999-07-22T16:48:00Z</time>
      </trkpt>
      <trkpt lat="43.385487" lon="-6.352693">
        <ele>744.298</ele>
        <time>1999-07-22T16:48:01Z</time>
      </trkpt>
      <trkpt lat="43.385489" lon="-6.352781">
        <ele>745.244</ele>
        <time>1999-07-22T16:48:06Z</time>
      </trkpt>
      <trkpt lat="43.385489" lon="-6.352795">
        <ele>745.630</ele>
        <time>1999-07-22T16:48:07Z</time>
      </trkpt>
      <trkpt lat="43.385476" lon="-6.352867">
        <ele>746.437</ele>
        <time>1999-07-22T16:48:11Z</time>
      </trkpt>
      <trkpt lat="43.385474" lon="-6.352896">
        <ele>746.884</ele>
        <time>1999-07-22T16:48:13Z</time>
      </trkpt>
      <trkpt lat="43.385472" lon="-6.352912">
        <ele>747.090</ele>
        <time>1999-07-22T16:48:14Z</time>
      </trkpt>
      <trkpt lat="43.385465" lon="-6.352948">
        <ele>747.476</ele>
        <time>1999-07-22T16:48:16Z</time>
      </trkpt>
      <trkpt lat="43.385437" lon="-6.353038">
        <ele>748.890</ele>
        <time>1999-07-22T16:48:20Z</time>
      </trkpt>
      <trkpt lat="43.385423" lon="-6.353061">
        <ele>749.019</ele>
        <time>1999-07-22T16:48:21Z</time>
      </trkpt>
      <trkpt lat="43.385371" lon="-6.353114">
        <ele>749.808</ele>
        <time>1999-07-22T16:48:25Z</time>
      </trkpt>
      <trkpt lat="43.385367" lon="-6.353112">
        <ele>750.020</ele>
        <time>1999-07-22T16:48:27Z</time>
      </trkpt>
      <trkpt lat="43.385344" lon="-6.353141">
        <ele>750.495</ele>
        <time>1999-07-22T16:49:25Z</time>
      </trkpt>
      <trkpt lat="43.385325" lon="-6.353167">
        <ele>750.436</ele>
        <time>1999-07-22T16:49:26Z</time>
      </trkpt>
      <trkpt lat="43.385305" lon="-6.353202">
        <ele>750.452</ele>
        <time>1999-07-22T16:49:27Z</time>
      </trkpt>
      <trkpt lat="43.385176" lon="-6.353409">
        <ele>750.488</ele>
        <time>1999-07-22T16:49:32Z</time>
      </trkpt>
      <trkpt lat="43.385144" lon="-6.353459">
        <ele>750.255</ele>
        <time>1999-07-22T16:49:33Z</time>
      </trkpt>
      <trkpt lat="43.385060" lon="-6.353583">
        <ele>750.072</ele>
        <time>1999-07-22T16:49:35Z</time>
      </trkpt>
      <trkpt lat="43.384969" lon="-6.353714">
        <ele>749.638</ele>
        <time>1999-07-22T16:49:37Z</time>
      </trkpt>
      <trkpt lat="43.384864" lon="-6.353873">
        <ele>749.255</ele>
        <time>1999-07-22T16:49:40Z</time>
      </trkpt>
      <trkpt lat="43.384774" lon="-6.354001">
        <ele>748.407</ele>
        <time>1999-07-22T16:49:42Z</time>
      </trkpt>
      <trkpt lat="43.384651" lon="-6.354192">
        <ele>747.417</ele>
        <time>1999-07-22T16:49:45Z</time>
      </trkpt>
      <trkpt lat="43.384520" lon="-6.354382">
        <ele>746.008</ele>
        <time>1999-07-22T16:49:48Z</time>
      </trkpt>
      <trkpt lat="43.384434" lon="-6.354515">
        <ele>744.688</ele>
        <time>1999-07-22T16:49:50Z</time>
      </trkpt>
      <trkpt lat="43.384385" lon="-6.354581">
        <ele>744.223</ele>
        <time>1999-07-22T16:49:51Z</time>
      </trkpt>
      <trkpt lat="43.384285" lon="-6.354713">
        <ele>743.474</ele>
        <time>1999-07-22T16:49:53Z</time>
      </trkpt>
      <trkpt lat="43.384097" lon="-6.354955">
        <ele>742.250</ele>
        <time>1999-07-22T16:49:57Z</time>
      </trkpt>
      <trkpt lat="43.384008" lon="-6.355075">
        <ele>741.816</ele>
        <time>1999-07-22T16:49:59Z</time>
      </trkpt>
      <trkpt lat="43.383974" lon="-6.355131">
        <ele>741.623</ele>
        <time>1999-07-22T16:50:00Z</time>
      </trkpt>
      <trkpt lat="43.383904" lon="-6.355252">
        <ele>741.250</ele>
        <time>1999-07-22T16:50:02Z</time>
      </trkpt>
      <trkpt lat="43.383816" lon="-6.355388">
        <ele>741.066</ele>
        <time>1999-07-22T16:50:04Z</time>
      </trkpt>
      <trkpt lat="43.383667" lon="-6.355646">
        <ele>740.872</ele>
        <time>1999-07-22T16:50:08Z</time>
      </trkpt>
      <trkpt lat="43.383550" lon="-6.355855">
        <ele>740.813</ele>
        <time>1999-07-22T16:50:12Z</time>
      </trkpt>
      <trkpt lat="43.383518" lon="-6.355904">
        <ele>740.814</ele>
        <time>1999-07-22T16:50:13Z</time>
      </trkpt>
      <trkpt lat="43.383450" lon="-6.355984">
        <ele>741.008</ele>
        <time>1999-07-22T16:50:15Z</time>
      </trkpt>
      <trkpt lat="43.383346" lon="-6.356097">
        <ele>741.230</ele>
        <time>1999-07-22T16:50:18Z</time>
      </trkpt>
      <trkpt lat="43.383316" lon="-6.356133">
        <ele>741.465</ele>
        <time>1999-07-22T16:50:19Z</time>
      </trkpt>
      <trkpt lat="43.383133" lon="-6.356408">
        <ele>741.436</ele>
        <time>1999-07-22T16:50:25Z</time>
      </trkpt>
      <trkpt lat="43.383044" lon="-6.356468">
        <ele>741.432</ele>
        <time>1999-07-22T16:50:27Z</time>
      </trkpt>
      <trkpt lat="43.383001" lon="-6.356469">
        <ele>741.458</ele>
        <time>1999-07-22T16:50:28Z</time>
      </trkpt>
      <trkpt lat="43.382854" lon="-6.356459">
        <ele>741.285</ele>
        <time>1999-07-22T16:50:31Z</time>
      </trkpt>
      <trkpt lat="43.382801" lon="-6.356480">
        <ele>740.622</ele>
        <time>1999-07-22T16:50:33Z</time>
      </trkpt>
      <trkpt lat="43.382755" lon="-6.356519">
        <ele>739.878</ele>
        <time>1999-07-22T16:50:35Z</time>
      </trkpt>
      <trkpt lat="43.382726" lon="-6.356544">
        <ele>739.896</ele>
        <time>1999-07-22T16:50:36Z</time>
      </trkpt>
      <trkpt lat="43.382619" lon="-6.356597">
        <ele>739.831</ele>
        <time>1999-07-22T16:50:39Z</time>
      </trkpt>
      <trkpt lat="43.382580" lon="-6.356594">
        <ele>739.824</ele>
        <time>1999-07-22T16:50:40Z</time>
      </trkpt>
      <trkpt lat="43.382355" lon="-6.356557">
        <ele>740.008</ele>
        <time>1999-07-22T16:50:46Z</time>
      </trkpt>
      <trkpt lat="43.382307" lon="-6.356548">
        <ele>740.222</ele>
        <time>1999-07-22T16:50:47Z</time>
      </trkpt>
      <trkpt lat="43.382193" lon="-6.356538">
        <ele>740.277</ele>
        <time>1999-07-22T16:50:49Z</time>
      </trkpt>
      <trkpt lat="43.382138" lon="-6.356530">
        <ele>740.228</ele>
        <time>1999-07-22T16:50:50Z</time>
      </trkpt>
      <trkpt lat="43.382037" lon="-6.356512">
        <ele>740.474</ele>
        <time>1999-07-22T16:50:52Z</time>
      </trkpt>
      <trkpt lat="43.381981" lon="-6.356514">
        <ele>740.410</ele>
        <time>1999-07-22T16:50:53Z</time>
      </trkpt>
      <trkpt lat="43.381847" lon="-6.356553">
        <ele>740.457</ele>
        <time>1999-07-22T16:50:55Z</time>
      </trkpt>
      <trkpt lat="43.381623" lon="-6.356700">
        <ele>739.414</ele>
        <time>1999-07-22T16:50:58Z</time>
      </trkpt>
      <trkpt lat="43.381477" lon="-6.356809">
        <ele>738.280</ele>
        <time>1999-07-22T16:51:00Z</time>
      </trkpt>
      <trkpt lat="43.381358" lon="-6.356905">
        <ele>737.085</ele>
        <time>1999-07-22T16:51:02Z</time>
      </trkpt>
      <trkpt lat="43.381307" lon="-6.356961">
        <ele>736.489</ele>
        <time>1999-07-22T16:51:03Z</time>
      </trkpt>
      <trkpt lat="43.381264" lon="-6.357023">
        <ele>736.017</ele>
        <time>1999-07-22T16:51:04Z</time>
      </trkpt>
      <trkpt lat="43.381176" lon="-6.357156">
        <ele>734.408</ele>
        <time>1999-07-22T16:51:06Z</time>
      </trkpt>
      <trkpt lat="43.381073" lon="-6.357289">
        <ele>732.831</ele>
        <time>1999-07-22T16:51:08Z</time>
      </trkpt>
      <trkpt lat="43.380974" lon="-6.357431">
        <ele>731.436</ele>
        <time>1999-07-22T16:51:10Z</time>
      </trkpt>
      <trkpt lat="43.380880" lon="-6.357580">
        <ele>730.247</ele>
        <time>1999-07-22T16:51:12Z</time>
      </trkpt>
      <trkpt lat="43.380798" lon="-6.357712">
        <ele>729.243</ele>
        <time>1999-07-22T16:51:14Z</time>
      </trkpt>
      <trkpt lat="43.380762" lon="-6.357774">
        <ele>729.029</ele>
        <time>1999-07-22T16:51:15Z</time>
      </trkpt>
      <trkpt lat="43.380675" lon="-6.357895">
        <ele>728.256</ele>
        <time>1999-07-22T16:51:17Z</time>
      </trkpt>
      <trkpt lat="43.380627" lon="-6.357960">
        <ele>727.833</ele>
        <time>1999-07-22T16:51:18Z</time>
      </trkpt>
      <trkpt lat="43.380465" lon="-6.358146">
        <ele>726.839</ele>
        <time>1999-07-22T16:51:21Z</time>
      </trkpt>
      <trkpt lat="43.380402" lon="-6.358202">
        <ele>726.632</ele>
        <time>1999-07-22T16:51:22Z</time>
      </trkpt>
      <trkpt lat="43.380280" lon="-6.358295">
        <ele>725.492</ele>
        <time>1999-07-22T16:51:24Z</time>
      </trkpt>
      <trkpt lat="43.380192" lon="-6.358350">
        <ele>724.211</ele>
        <time>1999-07-22T16:51:26Z</time>
      </trkpt>
      <trkpt lat="43.380143" lon="-6.358401">
        <ele>722.408</ele>
        <time>1999-07-22T16:51:28Z</time>
      </trkpt>
      <trkpt lat="43.380121" lon="-6.358437">
        <ele>721.476</ele>
        <time>1999-07-22T16:51:29Z</time>
      </trkpt>
      <trkpt lat="43.380095" lon="-6.358488">
        <ele>720.291</ele>
        <time>1999-07-22T16:51:30Z</time>
      </trkpt>
      <trkpt lat="43.380073" lon="-6.358553">
        <ele>719.012</ele>
        <time>1999-07-22T16:51:31Z</time>
      </trkpt>
      <trkpt lat="43.380054" lon="-6.358623">
        <ele>717.858</ele>
        <time>1999-07-22T16:51:32Z</time>
      </trkpt>
      <trkpt lat="43.380039" lon="-6.358696">
        <ele>715.464</ele>
        <time>1999-07-22T16:51:33Z</time>
      </trkpt>
      <trkpt lat="43.380024" lon="-6.358770">
        <ele>714.441</ele>
        <time>1999-07-22T16:51:34Z</time>
      </trkpt>
      <trkpt lat="43.380003" lon="-6.358858">
        <ele>713.458</ele>
        <time>1999-07-22T16:51:35Z</time>
      </trkpt>
      <trkpt lat="43.379976" lon="-6.358943">
        <ele>712.664</ele>
        <time>1999-07-22T16:51:36Z</time>
      </trkpt>
      <trkpt lat="43.379929" lon="-6.359088">
        <ele>711.663</ele>
        <time>1999-07-22T16:51:38Z</time>
      </trkpt>
      <trkpt lat="43.379899" lon="-6.359157">
        <ele>711.044</ele>
        <time>1999-07-22T16:51:39Z</time>
      </trkpt>
      <trkpt lat="43.379876" lon="-6.359227">
        <ele>710.418</ele>
        <time>1999-07-22T16:51:40Z</time>
      </trkpt>
      <trkpt lat="43.379858" lon="-6.359296">
        <ele>710.008</ele>
        <time>1999-07-22T16:51:41Z</time>
      </trkpt>
      <trkpt lat="43.379839" lon="-6.359363">
        <ele>709.839</ele>
        <time>1999-07-22T16:51:42Z</time>
      </trkpt>
      <trkpt lat="43.379805" lon="-6.359495">
        <ele>709.874</ele>
        <time>1999-07-22T16:51:44Z</time>
      </trkpt>
      <trkpt lat="43.379694" lon="-6.359983">
        <ele>709.275</ele>
        <time>1999-07-22T16:51:51Z</time>
      </trkpt>
      <trkpt lat="43.379647" lon="-6.360223">
        <ele>709.281</ele>
        <time>1999-07-22T16:51:54Z</time>
      </trkpt>
      <trkpt lat="43.379605" lon="-6.360380">
        <ele>709.417</ele>
        <time>1999-07-22T16:51:56Z</time>
      </trkpt>
      <trkpt lat="43.379579" lon="-6.360449">
        <ele>709.244</ele>
        <time>1999-07-22T16:51:57Z</time>
      </trkpt>
      <trkpt lat="43.379469" lon="-6.360635">
        <ele>709.271</ele>
        <time>1999-07-22T16:52:00Z</time>
      </trkpt>
      <trkpt lat="43.379429" lon="-6.360698">
        <ele>709.297</ele>
        <time>1999-07-22T16:52:01Z</time>
      </trkpt>
      <trkpt lat="43.379396" lon="-6.360756">
        <ele>709.266</ele>
        <time>1999-07-22T16:52:02Z</time>
      </trkpt>
      <trkpt lat="43.379330" lon="-6.360856">
        <ele>709.229</ele>
        <time>1999-07-22T16:52:04Z</time>
      </trkpt>
      <trkpt lat="43.379288" lon="-6.360895">
        <ele>709.221</ele>
        <time>1999-07-22T16:52:05Z</time>
      </trkpt>
      <trkpt lat="43.379241" lon="-6.360922">
        <ele>709.208</ele>
        <time>1999-07-22T16:52:06Z</time>
      </trkpt>
      <trkpt lat="43.379032" lon="-6.361032">
        <ele>709.259</ele>
        <time>1999-07-22T16:52:10Z</time>
      </trkpt>
      <trkpt lat="43.378977" lon="-6.361081">
        <ele>709.234</ele>
        <time>1999-07-22T16:52:11Z</time>
      </trkpt>
      <trkpt lat="43.378875" lon="-6.361195">
        <ele>709.065</ele>
        <time>1999-07-22T16:52:13Z</time>
      </trkpt>
      <trkpt lat="43.378784" lon="-6.361341">
        <ele>708.851</ele>
        <time>1999-07-22T16:52:15Z</time>
      </trkpt>
      <trkpt lat="43.378730" lon="-6.361522">
        <ele>708.667</ele>
        <time>1999-07-22T16:52:17Z</time>
      </trkpt>
      <trkpt lat="43.378709" lon="-6.361609">
        <ele>708.474</ele>
        <time>1999-07-22T16:52:18Z</time>
      </trkpt>
      <trkpt lat="43.378636" lon="-6.361749">
        <ele>708.281</ele>
        <time>1999-07-22T16:52:20Z</time>
      </trkpt>
      <trkpt lat="43.378591" lon="-6.361792">
        <ele>708.037</ele>
        <time>1999-07-22T16:52:21Z</time>
      </trkpt>
      <trkpt lat="43.378427" lon="-6.361829">
        <ele>706.833</ele>
        <time>1999-07-22T16:52:24Z</time>
      </trkpt>
      <trkpt lat="43.378320" lon="-6.361799">
        <ele>705.423</ele>
        <time>1999-07-22T16:52:26Z</time>
      </trkpt>
      <trkpt lat="43.378274" lon="-6.361777">
        <ele>703.215</ele>
        <time>1999-07-22T16:52:27Z</time>
      </trkpt>
      <trkpt lat="43.378226" lon="-6.361760">
        <ele>702.408</ele>
        <time>1999-07-22T16:52:28Z</time>
      </trkpt>
      <trkpt lat="43.378177" lon="-6.361742">
        <ele>701.876</ele>
        <time>1999-07-22T16:52:29Z</time>
      </trkpt>
      <trkpt lat="43.378087" lon="-6.361720">
        <ele>701.491</ele>
        <time>1999-07-22T16:52:31Z</time>
      </trkpt>
      <trkpt lat="43.378004" lon="-6.361712">
        <ele>701.262</ele>
        <time>1999-07-22T16:52:33Z</time>
      </trkpt>
      <trkpt lat="43.377698" lon="-6.361658">
        <ele>701.248</ele>
        <time>1999-07-22T16:52:39Z</time>
      </trkpt>
      <trkpt lat="43.377516" lon="-6.361660">
        <ele>701.244</ele>
        <time>1999-07-22T16:52:42Z</time>
      </trkpt>
      <trkpt lat="43.377423" lon="-6.361707">
        <ele>701.231</ele>
        <time>1999-07-22T16:52:44Z</time>
      </trkpt>
      <trkpt lat="43.377362" lon="-6.361758">
        <ele>701.258</ele>
        <time>1999-07-22T16:52:46Z</time>
      </trkpt>
      <trkpt lat="43.377322" lon="-6.361792">
        <ele>701.264</ele>
        <time>1999-07-22T16:52:48Z</time>
      </trkpt>
      <trkpt lat="43.377262" lon="-6.361858">
        <ele>701.283</ele>
        <time>1999-07-22T16:52:51Z</time>
      </trkpt>
      <trkpt lat="43.377221" lon="-6.361926">
        <ele>701.225</ele>
        <time>1999-07-22T16:52:53Z</time>
      </trkpt>
      <trkpt lat="43.377050" lon="-6.362212">
        <ele>702.217</ele>
        <time>1999-07-22T16:53:01Z</time>
      </trkpt>
      <trkpt lat="43.376852" lon="-6.362504">
        <ele>702.408</ele>
        <time>1999-07-22T16:53:07Z</time>
      </trkpt>
      <trkpt lat="43.376625" lon="-6.362838">
        <ele>702.461</ele>
        <time>1999-07-22T16:53:13Z</time>
      </trkpt>
      <trkpt lat="43.376586" lon="-6.362899">
        <ele>702.446</ele>
        <time>1999-07-22T16:53:14Z</time>
      </trkpt>
      <trkpt lat="43.376545" lon="-6.362964">
        <ele>702.217</ele>
        <time>1999-07-22T16:53:15Z</time>
      </trkpt>
      <trkpt lat="43.376501" lon="-6.363026">
        <ele>702.243</ele>
        <time>1999-07-22T16:53:16Z</time>
      </trkpt>
      <trkpt lat="43.376396" lon="-6.363140">
        <ele>702.019</ele>
        <time>1999-07-22T16:53:18Z</time>
      </trkpt>
      <trkpt lat="43.376337" lon="-6.363190">
        <ele>702.076</ele>
        <time>1999-07-22T16:53:19Z</time>
      </trkpt>
      <trkpt lat="43.376276" lon="-6.363239">
        <ele>701.863</ele>
        <time>1999-07-22T16:53:20Z</time>
      </trkpt>
      <trkpt lat="43.376216" lon="-6.363296">
        <ele>701.669</ele>
        <time>1999-07-22T16:53:21Z</time>
      </trkpt>
      <trkpt lat="43.376114" lon="-6.363438">
        <ele>701.689</ele>
        <time>1999-07-22T16:53:23Z</time>
      </trkpt>
      <trkpt lat="43.376029" lon="-6.363588">
        <ele>701.406</ele>
        <time>1999-07-22T16:53:25Z</time>
      </trkpt>
      <trkpt lat="43.375985" lon="-6.363658">
        <ele>701.026</ele>
        <time>1999-07-22T16:53:26Z</time>
      </trkpt>
      <trkpt lat="43.375941" lon="-6.363721">
        <ele>700.608</ele>
        <time>1999-07-22T16:53:27Z</time>
      </trkpt>
      <trkpt lat="43.375894" lon="-6.363780">
        <ele>700.271</ele>
        <time>1999-07-22T16:53:28Z</time>
      </trkpt>
      <trkpt lat="43.375790" lon="-6.363902">
        <ele>699.466</ele>
        <time>1999-07-22T16:53:30Z</time>
      </trkpt>
      <trkpt lat="43.375667" lon="-6.364026">
        <ele>698.867</ele>
        <time>1999-07-22T16:53:32Z</time>
      </trkpt>
      <trkpt lat="43.375595" lon="-6.364079">
        <ele>698.463</ele>
        <time>1999-07-22T16:53:33Z</time>
      </trkpt>
      <trkpt lat="43.375435" lon="-6.364192">
        <ele>698.269</ele>
        <time>1999-07-22T16:53:35Z</time>
      </trkpt>
      <trkpt lat="43.375356" lon="-6.364256">
        <ele>698.236</ele>
        <time>1999-07-22T16:53:36Z</time>
      </trkpt>
      <trkpt lat="43.375190" lon="-6.364387">
        <ele>697.853</ele>
        <time>1999-07-22T16:53:38Z</time>
      </trkpt>
      <trkpt lat="43.375019" lon="-6.364487">
        <ele>697.019</ele>
        <time>1999-07-22T16:53:40Z</time>
      </trkpt>
      <trkpt lat="43.374939" lon="-6.364536">
        <ele>696.494</ele>
        <time>1999-07-22T16:53:41Z</time>
      </trkpt>
      <trkpt lat="43.374872" lon="-6.364592">
        <ele>696.057</ele>
        <time>1999-07-22T16:53:42Z</time>
      </trkpt>
      <trkpt lat="43.374814" lon="-6.364649">
        <ele>695.622</ele>
        <time>1999-07-22T16:53:43Z</time>
      </trkpt>
      <trkpt lat="43.374719" lon="-6.364750">
        <ele>694.408</ele>
        <time>1999-07-22T16:53:45Z</time>
      </trkpt>
      <trkpt lat="43.374682" lon="-6.364791">
        <ele>693.682</ele>
        <time>1999-07-22T16:53:46Z</time>
      </trkpt>
      <trkpt lat="43.374652" lon="-6.364823">
        <ele>693.297</ele>
        <time>1999-07-22T16:53:47Z</time>
      </trkpt>
      <trkpt lat="43.374583" lon="-6.364882">
        <ele>692.828</ele>
        <time>1999-07-22T16:53:50Z</time>
      </trkpt>
      <trkpt lat="43.374466" lon="-6.364946">
        <ele>692.854</ele>
        <time>1999-07-22T16:53:54Z</time>
      </trkpt>
      <trkpt lat="43.374253" lon="-6.365000">
        <ele>692.440</ele>
        <time>1999-07-22T16:53:58Z</time>
      </trkpt>
      <trkpt lat="43.374135" lon="-6.365116">
        <ele>692.457</ele>
        <time>1999-07-22T16:54:01Z</time>
      </trkpt>
      <trkpt lat="43.374109" lon="-6.365156">
        <ele>692.424</ele>
        <time>1999-07-22T16:54:02Z</time>
      </trkpt>
      <trkpt lat="43.374026" lon="-6.365182">
        <ele>692.010</ele>
        <time>1999-07-22T16:54:05Z</time>
      </trkpt>
      <trkpt lat="43.373883" lon="-6.365239">
        <ele>691.273</ele>
        <time>1999-07-22T16:54:09Z</time>
      </trkpt>
      <trkpt lat="43.373845" lon="-6.365267">
        <ele>691.085</ele>
        <time>1999-07-22T16:54:10Z</time>
      </trkpt>
      <trkpt lat="43.373775" lon="-6.365324">
        <ele>690.613</ele>
        <time>1999-07-22T16:54:12Z</time>
      </trkpt>
      <trkpt lat="43.373708" lon="-6.365377">
        <ele>689.808</ele>
        <time>1999-07-22T16:54:14Z</time>
      </trkpt>
      <trkpt lat="43.373676" lon="-6.365402">
        <ele>688.480</ele>
        <time>1999-07-22T16:54:15Z</time>
      </trkpt>
      <trkpt lat="43.373644" lon="-6.365426">
        <ele>688.075</ele>
        <time>1999-07-22T16:54:16Z</time>
      </trkpt>
      <trkpt lat="43.373580" lon="-6.365483">
        <ele>687.846</ele>
        <time>1999-07-22T16:54:18Z</time>
      </trkpt>
      <trkpt lat="43.373511" lon="-6.365532">
        <ele>687.862</ele>
        <time>1999-07-22T16:54:20Z</time>
      </trkpt>
      <trkpt lat="43.373443" lon="-6.365584">
        <ele>687.838</ele>
        <time>1999-07-22T16:54:22Z</time>
      </trkpt>
      <trkpt lat="43.373375" lon="-6.365639">
        <ele>687.845</ele>
        <time>1999-07-22T16:54:24Z</time>
      </trkpt>
      <trkpt lat="43.373311" lon="-6.365702">
        <ele>688.052</ele>
        <time>1999-07-22T16:54:26Z</time>
      </trkpt>
      <trkpt lat="43.373246" lon="-6.365767">
        <ele>688.248</ele>
        <time>1999-07-22T16:54:28Z</time>
      </trkpt>
      <trkpt lat="43.373146" lon="-6.365847">
        <ele>688.856</ele>
        <time>1999-07-22T16:54:31Z</time>
      </trkpt>
      <trkpt lat="43.373040" lon="-6.365922">
        <ele>689.659</ele>
        <time>1999-07-22T16:54:34Z</time>
      </trkpt>
      <trkpt lat="43.372971" lon="-6.365965">
        <ele>690.214</ele>
        <time>1999-07-22T16:54:36Z</time>
      </trkpt>
      <trkpt lat="43.372903" lon="-6.366006">
        <ele>690.608</ele>
        <time>1999-07-22T16:54:38Z</time>
      </trkpt>
      <trkpt lat="43.372767" lon="-6.366087">
        <ele>691.688</ele>
        <time>1999-07-22T16:54:42Z</time>
      </trkpt>
      <trkpt lat="43.372694" lon="-6.366110">
        <ele>692.053</ele>
        <time>1999-07-22T16:54:44Z</time>
      </trkpt>
      <trkpt lat="43.372544" lon="-6.366102">
        <ele>692.684</ele>
        <time>1999-07-22T16:54:48Z</time>
      </trkpt>
      <trkpt lat="43.372436" lon="-6.366078">
        <ele>693.060</ele>
        <time>1999-07-22T16:54:51Z</time>
      </trkpt>
      <trkpt lat="43.372295" lon="-6.366053">
        <ele>693.426</ele>
        <time>1999-07-22T16:54:55Z</time>
      </trkpt>
      <trkpt lat="43.372116" lon="-6.366044">
        <ele>694.673</ele>
        <time>1999-07-22T16:55:00Z</time>
      </trkpt>
      <trkpt lat="43.371886" lon="-6.366106">
        <ele>695.480</ele>
        <time>1999-07-22T16:55:07Z</time>
      </trkpt>
      <trkpt lat="43.371826" lon="-6.366149">
        <ele>696.086</ele>
        <time>1999-07-22T16:55:09Z</time>
      </trkpt>
      <trkpt lat="43.371658" lon="-6.366325">
        <ele>697.231</ele>
        <time>1999-07-22T16:55:15Z</time>
      </trkpt>
      <trkpt lat="43.371519" lon="-6.366547">
        <ele>698.261</ele>
        <time>1999-07-22T16:55:21Z</time>
      </trkpt>
      <trkpt lat="43.371448" lon="-6.366665">
        <ele>698.807</ele>
        <time>1999-07-22T16:55:24Z</time>
      </trkpt>
      <trkpt lat="43.371376" lon="-6.366778">
        <ele>699.408</ele>
        <time>1999-07-22T16:55:27Z</time>
      </trkpt>
      <trkpt lat="43.371231" lon="-6.367005">
        <ele>700.496</ele>
        <time>1999-07-22T16:55:33Z</time>
      </trkpt>
      <trkpt lat="43.371208" lon="-6.367043">
        <ele>700.821</ele>
        <time>1999-07-22T16:55:34Z</time>
      </trkpt>
      <trkpt lat="43.371115" lon="-6.367195">
        <ele>701.642</ele>
        <time>1999-07-22T16:55:38Z</time>
      </trkpt>
      <trkpt lat="43.370975" lon="-6.367430">
        <ele>702.268</ele>
        <time>1999-07-22T16:55:44Z</time>
      </trkpt>
      <trkpt lat="43.370899" lon="-6.367545">
        <ele>702.694</ele>
        <time>1999-07-22T16:55:47Z</time>
      </trkpt>
      <trkpt lat="43.370822" lon="-6.367654">
        <ele>703.081</ele>
        <time>1999-07-22T16:55:50Z</time>
      </trkpt>
      <trkpt lat="43.370800" lon="-6.367687">
        <ele>703.278</ele>
        <time>1999-07-22T16:55:51Z</time>
      </trkpt>
      <trkpt lat="43.370778" lon="-6.367718">
        <ele>703.294</ele>
        <time>1999-07-22T16:55:52Z</time>
      </trkpt>
      <trkpt lat="43.370743" lon="-6.367780">
        <ele>703.422</ele>
        <time>1999-07-22T16:55:54Z</time>
      </trkpt>
      <trkpt lat="43.370739" lon="-6.367817">
        <ele>703.462</ele>
        <time>1999-07-22T16:55:55Z</time>
      </trkpt>
      <trkpt lat="43.370747" lon="-6.367853">
        <ele>703.408</ele>
        <time>1999-07-22T16:55:56Z</time>
      </trkpt>
      <trkpt lat="43.370786" lon="-6.367898">
        <ele>703.608</ele>
        <time>1999-07-22T16:55:59Z</time>
      </trkpt>
      <trkpt lat="43.370797" lon="-6.367910">
        <ele>703.815</ele>
        <time>1999-07-22T16:56:00Z</time>
      </trkpt>
      <trkpt lat="43.370871" lon="-6.367998">
        <ele>704.250</ele>
        <time>1999-07-22T16:56:06Z</time>
      </trkpt>
      <trkpt lat="43.370884" lon="-6.368010">
        <ele>704.441</ele>
        <time>1999-07-22T16:56:07Z</time>
      </trkpt>
      <trkpt lat="43.370908" lon="-6.368035">
        <ele>704.687</ele>
        <time>1999-07-22T16:56:09Z</time>
      </trkpt>
      <trkpt lat="43.370940" lon="-6.368070">
        <ele>705.293</ele>
        <time>1999-07-22T16:56:12Z</time>
      </trkpt>
      <trkpt lat="43.370952" lon="-6.368085">
        <ele>705.290</ele>
        <time>1999-07-22T16:56:13Z</time>
      </trkpt>
      <trkpt lat="43.370993" lon="-6.368118">
        <ele>705.847</ele>
        <time>1999-07-22T16:56:16Z</time>
      </trkpt>
      <trkpt lat="43.371040" lon="-6.368174">
        <ele>706.873</ele>
        <time>1999-07-22T16:56:20Z</time>
      </trkpt>
      <trkpt lat="43.371055" lon="-6.368186">
        <ele>707.082</ele>
        <time>1999-07-22T16:56:21Z</time>
      </trkpt>
      <trkpt lat="43.371107" lon="-6.368207">
        <ele>707.643</ele>
        <time>1999-07-22T16:56:24Z</time>
      </trkpt>
      <trkpt lat="43.371123" lon="-6.368214">
        <ele>708.017</ele>
        <time>1999-07-22T16:56:25Z</time>
      </trkpt>
      <trkpt lat="43.371209" lon="-6.368239">
        <ele>709.208</ele>
        <time>1999-07-22T16:56:30Z</time>
      </trkpt>
      <trkpt lat="43.371276" lon="-6.368224">
        <ele>710.291</ele>
        <time>1999-07-22T16:56:34Z</time>
      </trkpt>
      <trkpt lat="43.371307" lon="-6.368231">
        <ele>710.646</ele>
        <time>1999-07-22T16:56:36Z</time>
      </trkpt>
      <trkpt lat="43.371354" lon="-6.368223">
        <ele>711.417</ele>
        <time>1999-07-22T16:56:39Z</time>
      </trkpt>
      <trkpt lat="43.371408" lon="-6.368210">
        <ele>711.843</ele>
        <time>1999-07-22T16:56:42Z</time>
      </trkpt>
      <trkpt lat="43.371441" lon="-6.368207">
        <ele>712.499</ele>
        <time>1999-07-22T16:56:44Z</time>
      </trkpt>
      <trkpt lat="43.371536" lon="-6.368213">
        <ele>713.616</ele>
        <time>1999-07-22T16:56:50Z</time>
      </trkpt>
      <trkpt lat="43.371573" lon="-6.368194">
        <ele>714.263</ele>
        <time>1999-07-22T16:56:53Z</time>
      </trkpt>
      <trkpt lat="43.371599" lon="-6.368202">
        <ele>714.869</ele>
        <time>1999-07-22T16:56:55Z</time>
      </trkpt>
      <trkpt lat="43.371640" lon="-6.368276">
        <ele>715.855</ele>
        <time>1999-07-22T16:56:59Z</time>
      </trkpt>
      <trkpt lat="43.371643" lon="-6.368298">
        <ele>716.007</ele>
        <time>1999-07-22T16:57:00Z</time>
      </trkpt>
      <trkpt lat="43.371636" lon="-6.368367">
        <ele>717.017</ele>
        <time>1999-07-22T16:57:03Z</time>
      </trkpt>
      <trkpt lat="43.371618" lon="-6.368468">
        <ele>717.808</ele>
        <time>1999-07-22T16:57:07Z</time>
      </trkpt>
      <trkpt lat="43.371614" lon="-6.368497">
        <ele>718.038</ele>
        <time>1999-07-22T16:57:08Z</time>
      </trkpt>
      <trkpt lat="43.371583" lon="-6.368636">
        <ele>718.683</ele>
        <time>1999-07-22T16:57:13Z</time>
      </trkpt>
      <trkpt lat="43.371561" lon="-6.368717">
        <ele>718.854</ele>
        <time>1999-07-22T16:57:16Z</time>
      </trkpt>
      <trkpt lat="43.371540" lon="-6.368801">
        <ele>719.020</ele>
        <time>1999-07-22T16:57:19Z</time>
      </trkpt>
      <trkpt lat="43.371505" lon="-6.368971">
        <ele>719.646</ele>
        <time>1999-07-22T16:57:25Z</time>
      </trkpt>
      <trkpt lat="43.371484" lon="-6.369052">
        <ele>720.073</ele>
        <time>1999-07-22T16:57:28Z</time>
      </trkpt>
      <trkpt lat="43.371435" lon="-6.369211">
        <ele>720.890</ele>
        <time>1999-07-22T16:57:34Z</time>
      </trkpt>
      <trkpt lat="43.371425" lon="-6.369259">
        <ele>721.246</ele>
        <time>1999-07-22T16:57:36Z</time>
      </trkpt>
      <trkpt lat="43.371387" lon="-6.369372">
        <ele>722.258</ele>
        <time>1999-07-22T16:57:41Z</time>
      </trkpt>
      <trkpt lat="43.371376" lon="-6.369396">
        <ele>722.652</ele>
        <time>1999-07-22T16:57:42Z</time>
      </trkpt>
      <trkpt lat="43.371345" lon="-6.369503">
        <ele>723.417</ele>
        <time>1999-07-22T16:57:46Z</time>
      </trkpt>
      <trkpt lat="43.371304" lon="-6.369639">
        <ele>724.608</ele>
        <time>1999-07-22T16:57:51Z</time>
      </trkpt>
      <trkpt lat="43.371271" lon="-6.369759">
        <ele>725.878</ele>
        <time>1999-07-22T16:57:56Z</time>
      </trkpt>
      <trkpt lat="43.371248" lon="-6.369823">
        <ele>726.413</ele>
        <time>1999-07-22T16:57:59Z</time>
      </trkpt>
      <trkpt lat="43.371231" lon="-6.369884">
        <ele>726.884</ele>
        <time>1999-07-22T16:58:02Z</time>
      </trkpt>
      <trkpt lat="43.371210" lon="-6.369914">
        <ele>727.250</ele>
        <time>1999-07-22T16:58:04Z</time>
      </trkpt>
      <trkpt lat="43.371178" lon="-6.369967">
        <ele>728.076</ele>
        <time>1999-07-22T16:58:07Z</time>
      </trkpt>
      <trkpt lat="43.371165" lon="-6.369987">
        <ele>728.883</ele>
        <time>1999-07-22T16:58:10Z</time>
      </trkpt>
      <trkpt lat="43.371022" lon="-6.370358">
        <ele>730.030</ele>
        <time>1999-07-22T16:58:59Z</time>
      </trkpt>
      <trkpt lat="43.371011" lon="-6.370385">
        <ele>730.086</ele>
        <time>1999-07-22T16:59:00Z</time>
      </trkpt>
      <trkpt lat="43.371001" lon="-6.370415">
        <ele>730.039</ele>
        <time>1999-07-22T16:59:01Z</time>
      </trkpt>
      <trkpt lat="43.370960" lon="-6.370586">
        <ele>729.801</ele>
        <time>1999-07-22T16:59:07Z</time>
      </trkpt>
      <trkpt lat="43.370945" lon="-6.370638">
        <ele>729.821</ele>
        <time>1999-07-22T16:59:09Z</time>
      </trkpt>
      <trkpt lat="43.370895" lon="-6.370760">
        <ele>730.008</ele>
        <time>1999-07-22T16:59:13Z</time>
      </trkpt>
      <trkpt lat="43.370877" lon="-6.370830">
        <ele>730.466</ele>
        <time>1999-07-22T16:59:15Z</time>
      </trkpt>
      <trkpt lat="43.370833" lon="-6.371029">
        <ele>731.091</ele>
        <time>1999-07-22T16:59:20Z</time>
      </trkpt>
      <trkpt lat="43.370818" lon="-6.371071">
        <ele>731.262</ele>
        <time>1999-07-22T16:59:21Z</time>
      </trkpt>
      <trkpt lat="43.370763" lon="-6.371238">
        <ele>731.418</ele>
        <time>1999-07-22T16:59:26Z</time>
      </trkpt>
      <trkpt lat="43.370712" lon="-6.371428">
        <ele>731.684</ele>
        <time>1999-07-22T16:59:33Z</time>
      </trkpt>
      <trkpt lat="43.370672" lon="-6.371616">
        <ele>732.221</ele>
        <time>1999-07-22T16:59:39Z</time>
      </trkpt>
      <trkpt lat="43.370666" lon="-6.371650">
        <ele>732.238</ele>
        <time>1999-07-22T16:59:40Z</time>
      </trkpt>
      <trkpt lat="43.370640" lon="-6.371749">
        <ele>733.284</ele>
        <time>1999-07-22T16:59:44Z</time>
      </trkpt>
      <trkpt lat="43.370636" lon="-6.371793">
        <ele>733.647</ele>
        <time>1999-07-22T16:59:46Z</time>
      </trkpt>
      <trkpt lat="43.370584" lon="-6.371940">
        <ele>733.829</ele>
        <time>1999-07-22T16:59:52Z</time>
      </trkpt>
      <trkpt lat="43.370546" lon="-6.372032">
        <ele>734.021</ele>
        <time>1999-07-22T16:59:56Z</time>
      </trkpt>
      <trkpt lat="43.370531" lon="-6.372086">
        <ele>734.008</ele>
        <time>1999-07-22T16:59:59Z</time>
      </trkpt>
      <trkpt lat="43.370468" lon="-6.372221">
        <ele>734.427</ele>
        <time>1999-07-22T17:00:04Z</time>
      </trkpt>
      <trkpt lat="43.370464" lon="-6.372256">
        <ele>734.412</ele>
        <time>1999-07-22T17:00:05Z</time>
      </trkpt>
      <trkpt lat="43.370396" lon="-6.372472">
        <ele>735.083</ele>
        <time>1999-07-22T17:00:11Z</time>
      </trkpt>
      <trkpt lat="43.370381" lon="-6.372528">
        <ele>735.449</ele>
        <time>1999-07-22T17:00:13Z</time>
      </trkpt>
      <trkpt lat="43.370323" lon="-6.372670">
        <ele>736.085</ele>
        <time>1999-07-22T17:00:18Z</time>
      </trkpt>
      <trkpt lat="43.370289" lon="-6.372778">
        <ele>736.462</ele>
        <time>1999-07-22T17:00:22Z</time>
      </trkpt>
      <trkpt lat="43.370277" lon="-6.372803">
        <ele>736.449</ele>
        <time>1999-07-22T17:00:23Z</time>
      </trkpt>
      <trkpt lat="43.370267" lon="-6.372828">
        <ele>736.825</ele>
        <time>1999-07-22T17:00:24Z</time>
      </trkpt>
      <trkpt lat="43.370198" lon="-6.372967">
        <ele>737.229</ele>
        <time>1999-07-22T17:00:30Z</time>
      </trkpt>
      <trkpt lat="43.370185" lon="-6.373001">
        <ele>737.200</ele>
        <time>1999-07-22T17:00:32Z</time>
      </trkpt>
      <trkpt lat="43.370166" lon="-6.373052">
        <ele>737.620</ele>
        <time>1999-07-22T17:00:35Z</time>
      </trkpt>
      <trkpt lat="43.370108" lon="-6.373231">
        <ele>738.008</ele>
        <time>1999-07-22T17:00:42Z</time>
      </trkpt>
      <trkpt lat="43.370012" lon="-6.373426">
        <ele>738.255</ele>
        <time>1999-07-22T17:00:48Z</time>
      </trkpt>
      <trkpt lat="43.369991" lon="-6.373458">
        <ele>738.410</ele>
        <time>1999-07-22T17:00:49Z</time>
      </trkpt>
      <trkpt lat="43.369897" lon="-6.373584">
        <ele>738.421</ele>
        <time>1999-07-22T17:00:53Z</time>
      </trkpt>
      <trkpt lat="43.369868" lon="-6.373613">
        <ele>738.457</ele>
        <time>1999-07-22T17:00:54Z</time>
      </trkpt>
      <trkpt lat="43.369818" lon="-6.373673">
        <ele>738.483</ele>
        <time>1999-07-22T17:00:56Z</time>
      </trkpt>
      <trkpt lat="43.369751" lon="-6.373767">
        <ele>738.460</ele>
        <time>1999-07-22T17:00:59Z</time>
      </trkpt>
      <trkpt lat="43.369719" lon="-6.373810">
        <ele>738.447</ele>
        <time>1999-07-22T17:01:01Z</time>
      </trkpt>
      <trkpt lat="43.369669" lon="-6.373853">
        <ele>737.683</ele>
        <time>1999-07-22T17:01:04Z</time>
      </trkpt>
      <trkpt lat="43.369632" lon="-6.373869">
        <ele>737.014</ele>
        <time>1999-07-22T17:01:06Z</time>
      </trkpt>
      <trkpt lat="43.369603" lon="-6.373871">
        <ele>737.054</ele>
        <time>1999-07-22T17:01:08Z</time>
      </trkpt>
      <trkpt lat="43.369560" lon="-6.373895">
        <ele>737.009</ele>
        <time>1999-07-22T17:01:11Z</time>
      </trkpt>
      <trkpt lat="43.369511" lon="-6.373915">
        <ele>737.008</ele>
        <time>1999-07-22T17:01:14Z</time>
      </trkpt>
      <trkpt lat="43.369414" lon="-6.373951">
        <ele>737.064</ele>
        <time>1999-07-22T17:01:20Z</time>
      </trkpt>
      <trkpt lat="43.369379" lon="-6.373984">
        <ele>737.229</ele>
        <time>1999-07-22T17:01:22Z</time>
      </trkpt>
      <trkpt lat="43.369320" lon="-6.374034">
        <ele>737.680</ele>
        <time>1999-07-22T17:01:25Z</time>
      </trkpt>
      <trkpt lat="43.369305" lon="-6.374049">
        <ele>737.836</ele>
        <time>1999-07-22T17:01:26Z</time>
      </trkpt>
      <trkpt lat="43.369279" lon="-6.374076">
        <ele>738.492</ele>
        <time>1999-07-22T17:01:28Z</time>
      </trkpt>
      <trkpt lat="43.369240" lon="-6.374102">
        <ele>739.089</ele>
        <time>1999-07-22T17:01:31Z</time>
      </trkpt>
      <trkpt lat="43.369226" lon="-6.374110">
        <ele>739.276</ele>
        <time>1999-07-22T17:01:32Z</time>
      </trkpt>
      <trkpt lat="43.369187" lon="-6.374134">
        <ele>740.262</ele>
        <time>1999-07-22T17:01:35Z</time>
      </trkpt>
      <trkpt lat="43.369174" lon="-6.374142">
        <ele>740.484</ele>
        <time>1999-07-22T17:01:36Z</time>
      </trkpt>
      <trkpt lat="43.369123" lon="-6.374172">
        <ele>741.207</ele>
        <time>1999-07-22T17:01:39Z</time>
      </trkpt>
      <trkpt lat="43.369055" lon="-6.374228">
        <ele>742.417</ele>
        <time>1999-07-22T17:01:43Z</time>
      </trkpt>
      <trkpt lat="43.368997" lon="-6.374279">
        <ele>743.208</ele>
        <time>1999-07-22T17:01:47Z</time>
      </trkpt>
      <trkpt lat="43.368987" lon="-6.374289">
        <ele>743.431</ele>
        <time>1999-07-22T17:01:48Z</time>
      </trkpt>
      <trkpt lat="43.368973" lon="-6.374303">
        <ele>743.656</ele>
        <time>1999-07-22T17:01:49Z</time>
      </trkpt>
      <trkpt lat="43.368958" lon="-6.374315">
        <ele>743.667</ele>
        <time>1999-07-22T17:01:50Z</time>
      </trkpt>
      <trkpt lat="43.368902" lon="-6.374352">
        <ele>744.673</ele>
        <time>1999-07-22T17:01:54Z</time>
      </trkpt>
      <trkpt lat="43.368874" lon="-6.374367">
        <ele>745.099</ele>
        <time>1999-07-22T17:01:56Z</time>
      </trkpt>
      <trkpt lat="43.368859" lon="-6.374383">
        <ele>745.226</ele>
        <time>1999-07-22T17:01:57Z</time>
      </trkpt>
      <trkpt lat="43.368815" lon="-6.374417">
        <ele>745.813</ele>
        <time>1999-07-22T17:02:00Z</time>
      </trkpt>
      <trkpt lat="43.368799" lon="-6.374420">
        <ele>746.259</ele>
        <time>1999-07-22T17:02:01Z</time>
      </trkpt>
      <trkpt lat="43.368765" lon="-6.374439">
        <ele>746.633</ele>
        <time>1999-07-22T17:02:03Z</time>
      </trkpt>
      <trkpt lat="43.368729" lon="-6.374454">
        <ele>747.023</ele>
        <time>1999-07-22T17:02:05Z</time>
      </trkpt>
      <trkpt lat="43.368663" lon="-6.374510">
        <ele>747.615</ele>
        <time>1999-07-22T17:02:10Z</time>
      </trkpt>
      <trkpt lat="43.368636" lon="-6.374531">
        <ele>747.808</ele>
        <time>1999-07-22T17:02:13Z</time>
      </trkpt>
      <trkpt lat="43.368569" lon="-6.374569">
        <ele>748.886</ele>
        <time>1999-07-22T17:02:18Z</time>
      </trkpt>
      <trkpt lat="43.368493" lon="-6.374618">
        <ele>749.891</ele>
        <time>1999-07-22T17:02:24Z</time>
      </trkpt>
      <trkpt lat="43.368475" lon="-6.374642">
        <ele>750.252</ele>
        <time>1999-07-22T17:02:26Z</time>
      </trkpt>
      <trkpt lat="43.368441" lon="-6.374678">
        <ele>751.088</ele>
        <time>1999-07-22T17:02:29Z</time>
      </trkpt>
      <trkpt lat="43.368389" lon="-6.374723">
        <ele>752.444</ele>
        <time>1999-07-22T17:02:33Z</time>
      </trkpt>
      <trkpt lat="43.368376" lon="-6.374741">
        <ele>752.681</ele>
        <time>1999-07-22T17:02:34Z</time>
      </trkpt>
      <trkpt lat="43.368345" lon="-6.374797">
        <ele>753.418</ele>
        <time>1999-07-22T17:02:37Z</time>
      </trkpt>
      <trkpt lat="43.368310" lon="-6.374843">
        <ele>754.434</ele>
        <time>1999-07-22T17:02:40Z</time>
      </trkpt>
      <trkpt lat="43.368298" lon="-6.374861">
        <ele>754.663</ele>
        <time>1999-07-22T17:02:41Z</time>
      </trkpt>
      <trkpt lat="43.368217" lon="-6.374936">
        <ele>755.844</ele>
        <time>1999-07-22T17:02:46Z</time>
      </trkpt>
      <trkpt lat="43.368206" lon="-6.374951">
        <ele>756.018</ele>
        <time>1999-07-22T17:02:47Z</time>
      </trkpt>
      <trkpt lat="43.368175" lon="-6.375019">
        <ele>756.808</ele>
        <time>1999-07-22T17:02:51Z</time>
      </trkpt>
      <trkpt lat="43.368166" lon="-6.375035">
        <ele>757.289</ele>
        <time>1999-07-22T17:02:52Z</time>
      </trkpt>
      <trkpt lat="43.368126" lon="-6.375085">
        <ele>758.234</ele>
        <time>1999-07-22T17:02:55Z</time>
      </trkpt>
      <trkpt lat="43.368094" lon="-6.375145">
        <ele>758.815</ele>
        <time>1999-07-22T17:02:58Z</time>
      </trkpt>
      <trkpt lat="43.368071" lon="-6.375176">
        <ele>759.451</ele>
        <time>1999-07-22T17:03:00Z</time>
      </trkpt>
      <trkpt lat="43.368050" lon="-6.375215">
        <ele>759.897</ele>
        <time>1999-07-22T17:03:03Z</time>
      </trkpt>
      <trkpt lat="43.368036" lon="-6.375254">
        <ele>760.234</ele>
        <time>1999-07-22T17:03:05Z</time>
      </trkpt>
      <trkpt lat="43.368019" lon="-6.375289">
        <ele>760.431</ele>
        <time>1999-07-22T17:03:07Z</time>
      </trkpt>
      <trkpt lat="43.367969" lon="-6.375356">
        <ele>760.817</ele>
        <time>1999-07-22T17:03:11Z</time>
      </trkpt>
      <trkpt lat="43.367906" lon="-6.375456">
        <ele>761.497</ele>
        <time>1999-07-22T17:03:16Z</time>
      </trkpt>
      <trkpt lat="43.367893" lon="-6.375478">
        <ele>761.623</ele>
        <time>1999-07-22T17:03:17Z</time>
      </trkpt>
      <trkpt lat="43.367792" lon="-6.375637">
        <ele>762.625</ele>
        <time>1999-07-22T17:03:23Z</time>
      </trkpt>
      <trkpt lat="43.367712" lon="-6.375802">
        <ele>763.408</ele>
        <time>1999-07-22T17:03:28Z</time>
      </trkpt>
      <trkpt lat="43.367615" lon="-6.375993">
        <ele>763.842</ele>
        <time>1999-07-22T17:03:33Z</time>
      </trkpt>
      <trkpt lat="43.367595" lon="-6.376035">
        <ele>763.837</ele>
        <time>1999-07-22T17:03:34Z</time>
      </trkpt>
      <trkpt lat="43.367524" lon="-6.376153">
        <ele>763.828</ele>
        <time>1999-07-22T17:03:37Z</time>
      </trkpt>
      <trkpt lat="43.367464" lon="-6.376238">
        <ele>763.814</ele>
        <time>1999-07-22T17:03:39Z</time>
      </trkpt>
      <trkpt lat="43.367436" lon="-6.376286">
        <ele>763.880</ele>
        <time>1999-07-22T17:03:40Z</time>
      </trkpt>
      <trkpt lat="43.367397" lon="-6.376361">
        <ele>763.877</ele>
        <time>1999-07-22T17:03:42Z</time>
      </trkpt>
      <trkpt lat="43.367367" lon="-6.376428">
        <ele>763.894</ele>
        <time>1999-07-22T17:03:44Z</time>
      </trkpt>
      <trkpt lat="43.367331" lon="-6.376516">
        <ele>763.860</ele>
        <time>1999-07-22T17:03:48Z</time>
      </trkpt>
      <trkpt lat="43.367322" lon="-6.376541">
        <ele>763.698</ele>
        <time>1999-07-22T17:03:51Z</time>
      </trkpt>
      <trkpt lat="43.367209" lon="-6.376809">
        <ele>763.415</ele>
        <time>1999-07-22T17:04:07Z</time>
      </trkpt>
      <trkpt lat="43.367206" lon="-6.376833">
        <ele>763.426</ele>
        <time>1999-07-22T17:04:08Z</time>
      </trkpt>
      <trkpt lat="43.367183" lon="-6.376921">
        <ele>763.408</ele>
        <time>1999-07-22T17:04:11Z</time>
      </trkpt>
      <trkpt lat="43.367138" lon="-6.377033">
        <ele>763.482</ele>
        <time>1999-07-22T17:04:14Z</time>
      </trkpt>
      <trkpt lat="43.367075" lon="-6.377232">
        <ele>763.477</ele>
        <time>1999-07-22T17:04:19Z</time>
      </trkpt>
      <trkpt lat="43.367016" lon="-6.377386">
        <ele>763.478</ele>
        <time>1999-07-22T17:04:22Z</time>
      </trkpt>
      <trkpt lat="43.366963" lon="-6.377537">
        <ele>763.494</ele>
        <time>1999-07-22T17:04:25Z</time>
      </trkpt>
      <trkpt lat="43.366899" lon="-6.377685">
        <ele>763.230</ele>
        <time>1999-07-22T17:04:28Z</time>
      </trkpt>
      <trkpt lat="43.366883" lon="-6.377734">
        <ele>763.267</ele>
        <time>1999-07-22T17:04:29Z</time>
      </trkpt>
      <trkpt lat="43.366768" lon="-6.377958">
        <ele>763.094</ele>
        <time>1999-07-22T17:04:34Z</time>
      </trkpt>
      <trkpt lat="43.366742" lon="-6.377998">
        <ele>763.070</ele>
        <time>1999-07-22T17:04:35Z</time>
      </trkpt>
      <trkpt lat="43.366615" lon="-6.378169">
        <ele>762.822</ele>
        <time>1999-07-22T17:04:40Z</time>
      </trkpt>
      <trkpt lat="43.366496" lon="-6.378344">
        <ele>762.862</ele>
        <time>1999-07-22T17:04:45Z</time>
      </trkpt>
      <trkpt lat="43.366471" lon="-6.378373">
        <ele>762.808</ele>
        <time>1999-07-22T17:04:46Z</time>
      </trkpt>
      <trkpt lat="43.366384" lon="-6.378544">
        <ele>763.008</ele>
        <time>1999-07-22T17:04:51Z</time>
      </trkpt>
      <trkpt lat="43.366337" lon="-6.378734">
        <ele>763.055</ele>
        <time>1999-07-22T17:04:56Z</time>
      </trkpt>
      <trkpt lat="43.366332" lon="-6.378807">
        <ele>763.080</ele>
        <time>1999-07-22T17:04:58Z</time>
      </trkpt>
      <trkpt lat="43.366321" lon="-6.378856">
        <ele>762.871</ele>
        <time>1999-07-22T17:05:01Z</time>
      </trkpt>
      <trkpt lat="43.366093" lon="-6.379166">
        <ele>761.627</ele>
        <time>1999-07-22T17:06:06Z</time>
      </trkpt>
      <trkpt lat="43.366063" lon="-6.379212">
        <ele>762.283</ele>
        <time>1999-07-22T17:06:09Z</time>
      </trkpt>
      <trkpt lat="43.366052" lon="-6.379231">
        <ele>762.430</ele>
        <time>1999-07-22T17:06:10Z</time>
      </trkpt>
      <trkpt lat="43.366019" lon="-6.379293">
        <ele>763.687</ele>
        <time>1999-07-22T17:06:14Z</time>
      </trkpt>
      <trkpt lat="43.366009" lon="-6.379311">
        <ele>763.813</ele>
        <time>1999-07-22T17:06:15Z</time>
      </trkpt>
      <trkpt lat="43.365966" lon="-6.379354">
        <ele>764.898</ele>
        <time>1999-07-22T17:06:18Z</time>
      </trkpt>
      <trkpt lat="43.365924" lon="-6.379387">
        <ele>765.415</ele>
        <time>1999-07-22T17:06:21Z</time>
      </trkpt>
      <trkpt lat="43.365912" lon="-6.379396">
        <ele>765.826</ele>
        <time>1999-07-22T17:06:22Z</time>
      </trkpt>
      <trkpt lat="43.365856" lon="-6.379420">
        <ele>766.608</ele>
        <time>1999-07-22T17:06:26Z</time>
      </trkpt>
      <trkpt lat="43.365843" lon="-6.379426">
        <ele>766.872</ele>
        <time>1999-07-22T17:06:27Z</time>
      </trkpt>
      <trkpt lat="43.365816" lon="-6.379434">
        <ele>767.497</ele>
        <time>1999-07-22T17:06:29Z</time>
      </trkpt>
      <trkpt lat="43.365786" lon="-6.379447">
        <ele>768.288</ele>
        <time>1999-07-22T17:06:31Z</time>
      </trkpt>
      <trkpt lat="43.365735" lon="-6.379459">
        <ele>769.694</ele>
        <time>1999-07-22T17:06:34Z</time>
      </trkpt>
      <trkpt lat="43.365709" lon="-6.379470">
        <ele>770.070</ele>
        <time>1999-07-22T17:06:36Z</time>
      </trkpt>
      <trkpt lat="43.365611" lon="-6.379498">
        <ele>770.227</ele>
        <time>1999-07-22T17:06:42Z</time>
      </trkpt>
      <trkpt lat="43.365442" lon="-6.379560">
        <ele>770.674</ele>
        <time>1999-07-22T17:06:50Z</time>
      </trkpt>
      <trkpt lat="43.365420" lon="-6.379559">
        <ele>770.880</ele>
        <time>1999-07-22T17:06:51Z</time>
      </trkpt>
      <trkpt lat="43.365300" lon="-6.379559">
        <ele>770.857</ele>
        <time>1999-07-22T17:06:54Z</time>
      </trkpt>
      <trkpt lat="43.365185" lon="-6.379560">
        <ele>770.800</ele>
        <time>1999-07-22T17:06:56Z</time>
      </trkpt>
      <trkpt lat="43.364995" lon="-6.379570">
        <ele>770.820</ele>
        <time>1999-07-22T17:06:59Z</time>
      </trkpt>
      <trkpt lat="43.364830" lon="-6.379607">
        <ele>770.208</ele>
        <time>1999-07-22T17:07:01Z</time>
      </trkpt>
      <trkpt lat="43.364743" lon="-6.379631">
        <ele>769.618</ele>
        <time>1999-07-22T17:07:02Z</time>
      </trkpt>
      <trkpt lat="43.364664" lon="-6.379663">
        <ele>769.263</ele>
        <time>1999-07-22T17:07:03Z</time>
      </trkpt>
      <trkpt lat="43.364589" lon="-6.379699">
        <ele>768.624</ele>
        <time>1999-07-22T17:07:04Z</time>
      </trkpt>
      <trkpt lat="43.364451" lon="-6.379760">
        <ele>766.820</ele>
        <time>1999-07-22T17:07:06Z</time>
      </trkpt>
      <trkpt lat="43.364384" lon="-6.379782">
        <ele>765.856</ele>
        <time>1999-07-22T17:07:07Z</time>
      </trkpt>
      <trkpt lat="43.364317" lon="-6.379787">
        <ele>764.853</ele>
        <time>1999-07-22T17:07:08Z</time>
      </trkpt>
      <trkpt lat="43.364178" lon="-6.379821">
        <ele>763.230</ele>
        <time>1999-07-22T17:07:10Z</time>
      </trkpt>
      <trkpt lat="43.364019" lon="-6.379884">
        <ele>761.276</ele>
        <time>1999-07-22T17:07:12Z</time>
      </trkpt>
      <trkpt lat="43.363944" lon="-6.379928">
        <ele>760.028</ele>
        <time>1999-07-22T17:07:13Z</time>
      </trkpt>
      <trkpt lat="43.363799" lon="-6.379995">
        <ele>758.289</ele>
        <time>1999-07-22T17:07:15Z</time>
      </trkpt>
      <trkpt lat="43.363723" lon="-6.380015">
        <ele>757.217</ele>
        <time>1999-07-22T17:07:16Z</time>
      </trkpt>
      <trkpt lat="43.363639" lon="-6.380037">
        <ele>756.008</ele>
        <time>1999-07-22T17:07:17Z</time>
      </trkpt>
      <trkpt lat="43.363460" lon="-6.380089">
        <ele>754.675</ele>
        <time>1999-07-22T17:07:19Z</time>
      </trkpt>
      <trkpt lat="43.363282" lon="-6.380113">
        <ele>753.060</ele>
        <time>1999-07-22T17:07:21Z</time>
      </trkpt>
      <trkpt lat="43.363107" lon="-6.380117">
        <ele>751.831</ele>
        <time>1999-07-22T17:07:23Z</time>
      </trkpt>
      <trkpt lat="43.362943" lon="-6.380134">
        <ele>750.667</ele>
        <time>1999-07-22T17:07:25Z</time>
      </trkpt>
      <trkpt lat="43.362846" lon="-6.380138">
        <ele>750.063</ele>
        <time>1999-07-22T17:07:26Z</time>
      </trkpt>
      <trkpt lat="43.362749" lon="-6.380143">
        <ele>749.010</ele>
        <time>1999-07-22T17:07:27Z</time>
      </trkpt>
      <trkpt lat="43.362586" lon="-6.380140">
        <ele>746.067</ele>
        <time>1999-07-22T17:07:29Z</time>
      </trkpt>
      <trkpt lat="43.362531" lon="-6.380135">
        <ele>744.643</ele>
        <time>1999-07-22T17:07:30Z</time>
      </trkpt>
      <trkpt lat="43.362488" lon="-6.380130">
        <ele>743.212</ele>
        <time>1999-07-22T17:07:31Z</time>
      </trkpt>
      <trkpt lat="43.362447" lon="-6.380137">
        <ele>742.032</ele>
        <time>1999-07-22T17:07:32Z</time>
      </trkpt>
      <trkpt lat="43.362420" lon="-6.380162">
        <ele>740.605</ele>
        <time>1999-07-22T17:07:33Z</time>
      </trkpt>
      <trkpt lat="43.362394" lon="-6.380200">
        <ele>739.008</ele>
        <time>1999-07-22T17:07:34Z</time>
      </trkpt>
      <trkpt lat="43.362369" lon="-6.380243">
        <ele>737.694</ele>
        <time>1999-07-22T17:07:35Z</time>
      </trkpt>
      <trkpt lat="43.362346" lon="-6.380283">
        <ele>736.259</ele>
        <time>1999-07-22T17:07:36Z</time>
      </trkpt>
      <trkpt lat="43.362326" lon="-6.380324">
        <ele>734.660</ele>
        <time>1999-07-22T17:07:37Z</time>
      </trkpt>
      <trkpt lat="43.362314" lon="-6.380362">
        <ele>733.236</ele>
        <time>1999-07-22T17:07:38Z</time>
      </trkpt>
      <trkpt lat="43.362303" lon="-6.380396">
        <ele>732.282</ele>
        <time>1999-07-22T17:07:39Z</time>
      </trkpt>
      <trkpt lat="43.362295" lon="-6.380431">
        <ele>731.689</ele>
        <time>1999-07-22T17:07:40Z</time>
      </trkpt>
      <trkpt lat="43.362258" lon="-6.380576">
        <ele>730.856</ele>
        <time>1999-07-22T17:07:44Z</time>
      </trkpt>
      <trkpt lat="43.362246" lon="-6.380610">
        <ele>730.872</ele>
        <time>1999-07-22T17:07:45Z</time>
      </trkpt>
      <trkpt lat="43.362219" lon="-6.380722">
        <ele>730.875</ele>
        <time>1999-07-22T17:07:48Z</time>
      </trkpt>
      <trkpt lat="43.362227" lon="-6.380790">
        <ele>730.828</ele>
        <time>1999-07-22T17:07:50Z</time>
      </trkpt>
      <trkpt lat="43.362227" lon="-6.380885">
        <ele>730.820</ele>
        <time>1999-07-22T17:07:53Z</time>
      </trkpt>
      <trkpt lat="43.362225" lon="-6.380920">
        <ele>731.008</ele>
        <time>1999-07-22T17:07:54Z</time>
      </trkpt>
      <trkpt lat="43.362228" lon="-6.380984">
        <ele>731.260</ele>
        <time>1999-07-22T17:07:56Z</time>
      </trkpt>
      <trkpt lat="43.362220" lon="-6.381013">
        <ele>731.495</ele>
        <time>1999-07-22T17:07:57Z</time>
      </trkpt>
      <trkpt lat="43.362182" lon="-6.381115">
        <ele>731.826</ele>
        <time>1999-07-22T17:08:00Z</time>
      </trkpt>
      <trkpt lat="43.362107" lon="-6.381262">
        <ele>732.692</ele>
        <time>1999-07-22T17:08:04Z</time>
      </trkpt>
      <trkpt lat="43.362083" lon="-6.381298">
        <ele>732.648</ele>
        <time>1999-07-22T17:08:05Z</time>
      </trkpt>
      <trkpt lat="43.362043" lon="-6.381388">
        <ele>732.655</ele>
        <time>1999-07-22T17:08:07Z</time>
      </trkpt>
      <trkpt lat="43.362010" lon="-6.381474">
        <ele>732.632</ele>
        <time>1999-07-22T17:08:09Z</time>
      </trkpt>
      <trkpt lat="43.361996" lon="-6.381515">
        <ele>732.618</ele>
        <time>1999-07-22T17:08:10Z</time>
      </trkpt>
      <trkpt lat="43.361919" lon="-6.381762">
        <ele>732.663</ele>
        <time>1999-07-22T17:08:15Z</time>
      </trkpt>
      <trkpt lat="43.361850" lon="-6.381941">
        <ele>732.644</ele>
        <time>1999-07-22T17:08:18Z</time>
      </trkpt>
      <trkpt lat="43.361807" lon="-6.382064">
        <ele>732.618</ele>
        <time>1999-07-22T17:08:20Z</time>
      </trkpt>
      <trkpt lat="43.361711" lon="-6.382379">
        <ele>732.808</ele>
        <time>1999-07-22T17:08:26Z</time>
      </trkpt>
      <trkpt lat="43.361641" lon="-6.382574">
        <ele>733.049</ele>
        <time>1999-07-22T17:08:30Z</time>
      </trkpt>
      <trkpt lat="43.361608" lon="-6.382650">
        <ele>733.234</ele>
        <time>1999-07-22T17:08:32Z</time>
      </trkpt>
      <trkpt lat="43.361570" lon="-6.382732">
        <ele>733.665</ele>
        <time>1999-07-22T17:08:35Z</time>
      </trkpt>
      <trkpt lat="43.361529" lon="-6.382827">
        <ele>734.061</ele>
        <time>1999-07-22T17:08:38Z</time>
      </trkpt>
      <trkpt lat="43.361448" lon="-6.382998">
        <ele>734.217</ele>
        <time>1999-07-22T17:08:43Z</time>
      </trkpt>
      <trkpt lat="43.361418" lon="-6.383072">
        <ele>734.234</ele>
        <time>1999-07-22T17:08:45Z</time>
      </trkpt>
      <trkpt lat="43.361318" lon="-6.383334">
        <ele>734.211</ele>
        <time>1999-07-22T17:08:50Z</time>
      </trkpt>
      <trkpt lat="43.361284" lon="-6.383389">
        <ele>734.047</ele>
        <time>1999-07-22T17:08:51Z</time>
      </trkpt>
      <trkpt lat="43.361152" lon="-6.383563">
        <ele>734.293</ele>
        <time>1999-07-22T17:08:54Z</time>
      </trkpt>
      <trkpt lat="43.361108" lon="-6.383628">
        <ele>734.265</ele>
        <time>1999-07-22T17:08:55Z</time>
      </trkpt>
      <trkpt lat="43.361077" lon="-6.383684">
        <ele>734.221</ele>
        <time>1999-07-22T17:08:56Z</time>
      </trkpt>
      <trkpt lat="43.361039" lon="-6.383762">
        <ele>733.808</ele>
        <time>1999-07-22T17:08:58Z</time>
      </trkpt>
      <trkpt lat="43.360936" lon="-6.383893">
        <ele>733.472</ele>
        <time>1999-07-22T17:09:02Z</time>
      </trkpt>
      <trkpt lat="43.360852" lon="-6.383964">
        <ele>732.497</ele>
        <time>1999-07-22T17:09:04Z</time>
      </trkpt>
      <trkpt lat="43.360745" lon="-6.384051">
        <ele>731.688</ele>
        <time>1999-07-22T17:09:06Z</time>
      </trkpt>
      <trkpt lat="43.360692" lon="-6.384094">
        <ele>731.034</ele>
        <time>1999-07-22T17:09:07Z</time>
      </trkpt>
      <trkpt lat="43.360546" lon="-6.384233">
        <ele>730.070</ele>
        <time>1999-07-22T17:09:10Z</time>
      </trkpt>
      <trkpt lat="43.360497" lon="-6.384274">
        <ele>730.027</ele>
        <time>1999-07-22T17:09:11Z</time>
      </trkpt>
      <trkpt lat="43.360450" lon="-6.384313">
        <ele>729.654</ele>
        <time>1999-07-22T17:09:12Z</time>
      </trkpt>
      <trkpt lat="43.360400" lon="-6.384343">
        <ele>729.480</ele>
        <time>1999-07-22T17:09:13Z</time>
      </trkpt>
      <trkpt lat="43.360263" lon="-6.384432">
        <ele>728.873</ele>
        <time>1999-07-22T17:09:16Z</time>
      </trkpt>
      <trkpt lat="43.360206" lon="-6.384472">
        <ele>728.485</ele>
        <time>1999-07-22T17:09:17Z</time>
      </trkpt>
      <trkpt lat="43.360082" lon="-6.384552">
        <ele>727.413</ele>
        <time>1999-07-22T17:09:19Z</time>
      </trkpt>
      <trkpt lat="43.359904" lon="-6.384653">
        <ele>726.408</ele>
        <time>1999-07-22T17:09:22Z</time>
      </trkpt>
      <trkpt lat="43.359842" lon="-6.384691">
        <ele>726.220</ele>
        <time>1999-07-22T17:09:23Z</time>
      </trkpt>
      <trkpt lat="43.359788" lon="-6.384734">
        <ele>725.865</ele>
        <time>1999-07-22T17:09:24Z</time>
      </trkpt>
      <trkpt lat="43.359684" lon="-6.384808">
        <ele>725.216</ele>
        <time>1999-07-22T17:09:26Z</time>
      </trkpt>
      <trkpt lat="43.359628" lon="-6.384847">
        <ele>725.092</ele>
        <time>1999-07-22T17:09:27Z</time>
      </trkpt>
      <trkpt lat="43.359513" lon="-6.384942">
        <ele>724.238</ele>
        <time>1999-07-22T17:09:29Z</time>
      </trkpt>
      <trkpt lat="43.359460" lon="-6.385001">
        <ele>723.635</ele>
        <time>1999-07-22T17:09:30Z</time>
      </trkpt>
      <trkpt lat="43.359360" lon="-6.385130">
        <ele>722.072</ele>
        <time>1999-07-22T17:09:32Z</time>
      </trkpt>
      <trkpt lat="43.359199" lon="-6.385309">
        <ele>721.458</ele>
        <time>1999-07-22T17:09:35Z</time>
      </trkpt>
      <trkpt lat="43.359142" lon="-6.385351">
        <ele>721.266</ele>
        <time>1999-07-22T17:09:36Z</time>
      </trkpt>
      <trkpt lat="43.359076" lon="-6.385385">
        <ele>721.029</ele>
        <time>1999-07-22T17:09:37Z</time>
      </trkpt>
      <trkpt lat="43.358938" lon="-6.385462">
        <ele>720.821</ele>
        <time>1999-07-22T17:09:39Z</time>
      </trkpt>
      <trkpt lat="43.358880" lon="-6.385507">
        <ele>720.608</ele>
        <time>1999-07-22T17:09:40Z</time>
      </trkpt>
      <trkpt lat="43.358745" lon="-6.385703">
        <ele>720.099</ele>
        <time>1999-07-22T17:09:43Z</time>
      </trkpt>
      <trkpt lat="43.358700" lon="-6.385968">
        <ele>718.884</ele>
        <time>1999-07-22T17:09:46Z</time>
      </trkpt>
      <trkpt lat="43.358702" lon="-6.386178">
        <ele>717.815</ele>
        <time>1999-07-22T17:09:49Z</time>
      </trkpt>
      <trkpt lat="43.358686" lon="-6.386239">
        <ele>717.441</ele>
        <time>1999-07-22T17:09:50Z</time>
      </trkpt>
      <trkpt lat="43.358644" lon="-6.386430">
        <ele>717.097</ele>
        <time>1999-07-22T17:09:53Z</time>
      </trkpt>
      <trkpt lat="43.358618" lon="-6.386562">
        <ele>716.834</ele>
        <time>1999-07-22T17:09:55Z</time>
      </trkpt>
      <trkpt lat="43.358605" lon="-6.386627">
        <ele>716.661</ele>
        <time>1999-07-22T17:09:56Z</time>
      </trkpt>
      <trkpt lat="43.358576" lon="-6.386698">
        <ele>716.647</ele>
        <time>1999-07-22T17:09:57Z</time>
      </trkpt>
      <trkpt lat="43.358515" lon="-6.386851">
        <ele>716.676</ele>
        <time>1999-07-22T17:09:59Z</time>
      </trkpt>
      <trkpt lat="43.358476" lon="-6.387100">
        <ele>716.690</ele>
        <time>1999-07-22T17:10:02Z</time>
      </trkpt>
      <trkpt lat="43.358464" lon="-6.387191">
        <ele>716.419</ele>
        <time>1999-07-22T17:10:03Z</time>
      </trkpt>
      <trkpt lat="43.358444" lon="-6.387275">
        <ele>716.408</ele>
        <time>1999-07-22T17:10:04Z</time>
      </trkpt>
      <trkpt lat="43.358331" lon="-6.387486">
        <ele>715.480</ele>
        <time>1999-07-22T17:10:07Z</time>
      </trkpt>
      <trkpt lat="43.358208" lon="-6.387616">
        <ele>713.855</ele>
        <time>1999-07-22T17:10:09Z</time>
      </trkpt>
      <trkpt lat="43.358078" lon="-6.387739">
        <ele>712.036</ele>
        <time>1999-07-22T17:10:11Z</time>
      </trkpt>
      <trkpt lat="43.358012" lon="-6.387781">
        <ele>711.022</ele>
        <time>1999-07-22T17:10:12Z</time>
      </trkpt>
      <trkpt lat="43.357950" lon="-6.387814">
        <ele>709.078</ele>
        <time>1999-07-22T17:10:13Z</time>
      </trkpt>
      <trkpt lat="43.357892" lon="-6.387847">
        <ele>707.625</ele>
        <time>1999-07-22T17:10:14Z</time>
      </trkpt>
      <trkpt lat="43.357808" lon="-6.387931">
        <ele>706.412</ele>
        <time>1999-07-22T17:10:16Z</time>
      </trkpt>
      <trkpt lat="43.357711" lon="-6.388067">
        <ele>705.288</ele>
        <time>1999-07-22T17:10:19Z</time>
      </trkpt>
      <trkpt lat="43.357674" lon="-6.388088">
        <ele>704.842</ele>
        <time>1999-07-22T17:10:20Z</time>
      </trkpt>
      <trkpt lat="43.357589" lon="-6.388148">
        <ele>703.822</ele>
        <time>1999-07-22T17:10:23Z</time>
      </trkpt>
      <trkpt lat="43.357540" lon="-6.388185">
        <ele>703.014</ele>
        <time>1999-07-22T17:10:25Z</time>
      </trkpt>
      <trkpt lat="43.357473" lon="-6.388251">
        <ele>702.808</ele>
        <time>1999-07-22T17:10:28Z</time>
      </trkpt>
      <trkpt lat="43.357446" lon="-6.388300">
        <ele>702.837</ele>
        <time>1999-07-22T17:10:30Z</time>
      </trkpt>
      <trkpt lat="43.357423" lon="-6.388344">
        <ele>702.882</ele>
        <time>1999-07-22T17:10:32Z</time>
      </trkpt>
      <trkpt lat="43.357396" lon="-6.388424">
        <ele>703.033</ele>
        <time>1999-07-22T17:10:35Z</time>
      </trkpt>
      <trkpt lat="43.357368" lon="-6.388512">
        <ele>703.489</ele>
        <time>1999-07-22T17:10:38Z</time>
      </trkpt>
      <trkpt lat="43.357350" lon="-6.388599">
        <ele>704.285</ele>
        <time>1999-07-22T17:10:41Z</time>
      </trkpt>
      <trkpt lat="43.357346" lon="-6.388626">
        <ele>704.672</ele>
        <time>1999-07-22T17:10:42Z</time>
      </trkpt>
      <trkpt lat="43.357339" lon="-6.388659">
        <ele>704.849</ele>
        <time>1999-07-22T17:10:43Z</time>
      </trkpt>
      <trkpt lat="43.357328" lon="-6.388779">
        <ele>705.635</ele>
        <time>1999-07-22T17:10:47Z</time>
      </trkpt>
      <trkpt lat="43.357323" lon="-6.388810">
        <ele>705.814</ele>
        <time>1999-07-22T17:10:48Z</time>
      </trkpt>
      <trkpt lat="43.357307" lon="-6.388954">
        <ele>707.054</ele>
        <time>1999-07-22T17:10:53Z</time>
      </trkpt>
      <trkpt lat="43.357294" lon="-6.389033">
        <ele>707.609</ele>
        <time>1999-07-22T17:10:56Z</time>
      </trkpt>
      <trkpt lat="43.357275" lon="-6.389098">
        <ele>708.008</ele>
        <time>1999-07-22T17:10:58Z</time>
      </trkpt>
      <trkpt lat="43.357220" lon="-6.389207">
        <ele>708.884</ele>
        <time>1999-07-22T17:11:02Z</time>
      </trkpt>
      <trkpt lat="43.357202" lon="-6.389243">
        <ele>709.029</ele>
        <time>1999-07-22T17:11:03Z</time>
      </trkpt>
      <trkpt lat="43.357080" lon="-6.389415">
        <ele>709.650</ele>
        <time>1999-07-22T17:11:08Z</time>
      </trkpt>
      <trkpt lat="43.357019" lon="-6.389477">
        <ele>710.066</ele>
        <time>1999-07-22T17:11:10Z</time>
      </trkpt>
      <trkpt lat="43.356889" lon="-6.389603">
        <ele>710.222</ele>
        <time>1999-07-22T17:11:14Z</time>
      </trkpt>
      <trkpt lat="43.356862" lon="-6.389631">
        <ele>710.249</ele>
        <time>1999-07-22T17:11:15Z</time>
      </trkpt>
      <trkpt lat="43.356774" lon="-6.389721">
        <ele>710.246</ele>
        <time>1999-07-22T17:11:18Z</time>
      </trkpt>
      <trkpt lat="43.356708" lon="-6.389788">
        <ele>710.492</ele>
        <time>1999-07-22T17:11:20Z</time>
      </trkpt>
      <trkpt lat="43.356438" lon="-6.390075">
        <ele>710.247</ele>
        <time>1999-07-22T17:11:26Z</time>
      </trkpt>
      <trkpt lat="43.356329" lon="-6.390179">
        <ele>710.229</ele>
        <time>1999-07-22T17:11:28Z</time>
      </trkpt>
      <trkpt lat="43.356215" lon="-6.390287">
        <ele>710.221</ele>
        <time>1999-07-22T17:11:30Z</time>
      </trkpt>
      <trkpt lat="43.356153" lon="-6.390344">
        <ele>710.008</ele>
        <time>1999-07-22T17:11:31Z</time>
      </trkpt>
      <trkpt lat="43.356040" lon="-6.390470">
        <ele>710.047</ele>
        <time>1999-07-22T17:11:33Z</time>
      </trkpt>
      <trkpt lat="43.355886" lon="-6.390659">
        <ele>709.832</ele>
        <time>1999-07-22T17:11:36Z</time>
      </trkpt>
      <trkpt lat="43.355775" lon="-6.390733">
        <ele>708.683</ele>
        <time>1999-07-22T17:11:38Z</time>
      </trkpt>
      <trkpt lat="43.355654" lon="-6.390784">
        <ele>708.099</ele>
        <time>1999-07-22T17:11:40Z</time>
      </trkpt>
      <trkpt lat="43.355485" lon="-6.390827">
        <ele>707.645</ele>
        <time>1999-07-22T17:11:43Z</time>
      </trkpt>
      <trkpt lat="43.355386" lon="-6.390826">
        <ele>707.632</ele>
        <time>1999-07-22T17:11:45Z</time>
      </trkpt>
      <trkpt lat="43.355191" lon="-6.390758">
        <ele>707.479</ele>
        <time>1999-07-22T17:11:50Z</time>
      </trkpt>
      <trkpt lat="43.355007" lon="-6.390701">
        <ele>707.895</ele>
        <time>1999-07-22T17:11:55Z</time>
      </trkpt>
      <trkpt lat="43.354831" lon="-6.390697">
        <ele>708.664</ele>
        <time>1999-07-22T17:11:59Z</time>
      </trkpt>
      <trkpt lat="43.354789" lon="-6.390717">
        <ele>708.606</ele>
        <time>1999-07-22T17:12:00Z</time>
      </trkpt>
      <trkpt lat="43.354659" lon="-6.390771">
        <ele>709.016</ele>
        <time>1999-07-22T17:12:03Z</time>
      </trkpt>
      <trkpt lat="43.354526" lon="-6.390810">
        <ele>709.208</ele>
        <time>1999-07-22T17:12:06Z</time>
      </trkpt>
      <trkpt lat="43.354314" lon="-6.390870">
        <ele>709.429</ele>
        <time>1999-07-22T17:12:11Z</time>
      </trkpt>
      <trkpt lat="43.354190" lon="-6.390913">
        <ele>709.644</ele>
        <time>1999-07-22T17:12:14Z</time>
      </trkpt>
      <trkpt lat="43.354109" lon="-6.390945">
        <ele>709.885</ele>
        <time>1999-07-22T17:12:16Z</time>
      </trkpt>
      <trkpt lat="43.353985" lon="-6.390988">
        <ele>710.251</ele>
        <time>1999-07-22T17:12:19Z</time>
      </trkpt>
      <trkpt lat="43.353891" lon="-6.391053">
        <ele>710.297</ele>
        <time>1999-07-22T17:12:21Z</time>
      </trkpt>
      <trkpt lat="43.353726" lon="-6.391166">
        <ele>710.294</ele>
        <time>1999-07-22T17:12:24Z</time>
      </trkpt>
      <trkpt lat="43.353606" lon="-6.391261">
        <ele>710.291</ele>
        <time>1999-07-22T17:12:26Z</time>
      </trkpt>
      <trkpt lat="43.353540" lon="-6.391308">
        <ele>710.257</ele>
        <time>1999-07-22T17:12:27Z</time>
      </trkpt>
      <trkpt lat="43.353321" lon="-6.391457">
        <ele>710.026</ele>
        <time>1999-07-22T17:12:30Z</time>
      </trkpt>
      <trkpt lat="43.353251" lon="-6.391524">
        <ele>709.447</ele>
        <time>1999-07-22T17:12:31Z</time>
      </trkpt>
      <trkpt lat="43.352957" lon="-6.391815">
        <ele>708.211</ele>
        <time>1999-07-22T17:12:35Z</time>
      </trkpt>
      <trkpt lat="43.352875" lon="-6.391880">
        <ele>707.808</ele>
        <time>1999-07-22T17:12:36Z</time>
      </trkpt>
      <trkpt lat="43.352690" lon="-6.391986">
        <ele>707.095</ele>
        <time>1999-07-22T17:12:38Z</time>
      </trkpt>
      <trkpt lat="43.352513" lon="-6.392105">
        <ele>705.640</ele>
        <time>1999-07-22T17:12:40Z</time>
      </trkpt>
      <trkpt lat="43.352354" lon="-6.392253">
        <ele>704.641</ele>
        <time>1999-07-22T17:12:42Z</time>
      </trkpt>
      <trkpt lat="43.352204" lon="-6.392437">
        <ele>703.637</ele>
        <time>1999-07-22T17:12:44Z</time>
      </trkpt>
      <trkpt lat="43.352135" lon="-6.392548">
        <ele>702.833</ele>
        <time>1999-07-22T17:12:45Z</time>
      </trkpt>
      <trkpt lat="43.351982" lon="-6.392914">
        <ele>701.210</ele>
        <time>1999-07-22T17:12:48Z</time>
      </trkpt>
      <trkpt lat="43.351865" lon="-6.393106">
        <ele>699.857</ele>
        <time>1999-07-22T17:12:50Z</time>
      </trkpt>
      <trkpt lat="43.351795" lon="-6.393169">
        <ele>699.223</ele>
        <time>1999-07-22T17:12:51Z</time>
      </trkpt>
      <trkpt lat="43.351726" lon="-6.393219">
        <ele>698.452</ele>
        <time>1999-07-22T17:12:52Z</time>
      </trkpt>
      <trkpt lat="43.351652" lon="-6.393255">
        <ele>697.453</ele>
        <time>1999-07-22T17:12:53Z</time>
      </trkpt>
      <trkpt lat="43.351582" lon="-6.393289">
        <ele>696.208</ele>
        <time>1999-07-22T17:12:54Z</time>
      </trkpt>
      <trkpt lat="43.351514" lon="-6.393320">
        <ele>695.008</ele>
        <time>1999-07-22T17:12:55Z</time>
      </trkpt>
      <trkpt lat="43.351397" lon="-6.393369">
        <ele>693.848</ele>
        <time>1999-07-22T17:12:57Z</time>
      </trkpt>
      <trkpt lat="43.351296" lon="-6.393399">
        <ele>693.443</ele>
        <time>1999-07-22T17:12:59Z</time>
      </trkpt>
      <trkpt lat="43.351096" lon="-6.393405">
        <ele>693.444</ele>
        <time>1999-07-22T17:13:04Z</time>
      </trkpt>
      <trkpt lat="43.350989" lon="-6.393379">
        <ele>693.650</ele>
        <time>1999-07-22T17:13:07Z</time>
      </trkpt>
      <trkpt lat="43.350891" lon="-6.393345">
        <ele>694.696</ele>
        <time>1999-07-22T17:13:10Z</time>
      </trkpt>
      <trkpt lat="43.350860" lon="-6.393333">
        <ele>694.843</ele>
        <time>1999-07-22T17:13:11Z</time>
      </trkpt>
      <trkpt lat="43.350731" lon="-6.393292">
        <ele>695.690</ele>
        <time>1999-07-22T17:13:14Z</time>
      </trkpt>
      <trkpt lat="43.350684" lon="-6.393262">
        <ele>695.826</ele>
        <time>1999-07-22T17:13:15Z</time>
      </trkpt>
      <trkpt lat="43.350597" lon="-6.393157">
        <ele>696.072</ele>
        <time>1999-07-22T17:13:17Z</time>
      </trkpt>
      <trkpt lat="43.350558" lon="-6.393091">
        <ele>696.013</ele>
        <time>1999-07-22T17:13:18Z</time>
      </trkpt>
      <trkpt lat="43.350460" lon="-6.392979">
        <ele>696.014</ele>
        <time>1999-07-22T17:13:21Z</time>
      </trkpt>
      <trkpt lat="43.350409" lon="-6.393041">
        <ele>696.008</ele>
        <time>1999-07-22T17:13:24Z</time>
      </trkpt>
      <trkpt lat="43.350408" lon="-6.393077">
        <ele>695.820</ele>
        <time>1999-07-22T17:13:25Z</time>
      </trkpt>
      <trkpt lat="43.350413" lon="-6.393197">
        <ele>693.485</ele>
        <time>1999-07-22T17:13:28Z</time>
      </trkpt>
      <trkpt lat="43.350418" lon="-6.393322">
        <ele>692.296</ele>
        <time>1999-07-22T17:13:31Z</time>
      </trkpt>
      <trkpt lat="43.350422" lon="-6.393346">
        <ele>692.062</ele>
        <time>1999-07-22T17:13:32Z</time>
      </trkpt>
      <trkpt lat="43.350425" lon="-6.393354">
        <ele>692.048</ele>
        <time>1999-07-22T17:13:34Z</time>
      </trkpt>
      <trkpt lat="43.350426" lon="-6.393432">
        <ele>690.485</ele>
        <time>1999-07-22T17:14:48Z</time>
      </trkpt>
      <trkpt lat="43.350442" lon="-6.393468">
        <ele>690.642</ele>
        <time>1999-07-22T17:14:49Z</time>
      </trkpt>
      <trkpt lat="43.350524" lon="-6.393612">
        <ele>690.698</ele>
        <time>1999-07-22T17:14:52Z</time>
      </trkpt>
      <trkpt lat="43.350562" lon="-6.393667">
        <ele>690.659</ele>
        <time>1999-07-22T17:14:53Z</time>
      </trkpt>
      <trkpt lat="43.350650" lon="-6.393778">
        <ele>690.603</ele>
        <time>1999-07-22T17:14:55Z</time>
      </trkpt>
      <trkpt lat="43.350698" lon="-6.393832">
        <ele>690.623</ele>
        <time>1999-07-22T17:14:56Z</time>
      </trkpt>
      <trkpt lat="43.350737" lon="-6.393885">
        <ele>690.608</ele>
        <time>1999-07-22T17:14:57Z</time>
      </trkpt>
      <trkpt lat="43.350761" lon="-6.393946">
        <ele>690.268</ele>
        <time>1999-07-22T17:14:58Z</time>
      </trkpt>
      <trkpt lat="43.350763" lon="-6.394065">
        <ele>689.833</ele>
        <time>1999-07-22T17:15:00Z</time>
      </trkpt>
      <trkpt lat="43.350741" lon="-6.394108">
        <ele>689.424</ele>
        <time>1999-07-22T17:15:01Z</time>
      </trkpt>
      <trkpt lat="43.350645" lon="-6.394163">
        <ele>688.410</ele>
        <time>1999-07-22T17:15:04Z</time>
      </trkpt>
      <trkpt lat="43.350616" lon="-6.394177">
        <ele>688.436</ele>
        <time>1999-07-22T17:15:05Z</time>
      </trkpt>
      <trkpt lat="43.350537" lon="-6.394198">
        <ele>688.423</ele>
        <time>1999-07-22T17:15:08Z</time>
      </trkpt>
      <trkpt lat="43.350482" lon="-6.394215">
        <ele>688.210</ele>
        <time>1999-07-22T17:15:10Z</time>
      </trkpt>
      <trkpt lat="43.350435" lon="-6.394240">
        <ele>688.226</ele>
        <time>1999-07-22T17:15:12Z</time>
      </trkpt>
      <trkpt lat="43.350387" lon="-6.394295">
        <ele>688.676</ele>
        <time>1999-07-22T17:15:15Z</time>
      </trkpt>
      <trkpt lat="43.350356" lon="-6.394325">
        <ele>688.890</ele>
        <time>1999-07-22T17:15:17Z</time>
      </trkpt>
      <trkpt lat="43.350349" lon="-6.394381">
        <ele>689.619</ele>
        <time>1999-07-22T17:15:19Z</time>
      </trkpt>
      <trkpt lat="43.350347" lon="-6.394436">
        <ele>689.808</ele>
        <time>1999-07-22T17:15:21Z</time>
      </trkpt>
      <trkpt lat="43.350347" lon="-6.394489">
        <ele>690.430</ele>
        <time>1999-07-22T17:15:23Z</time>
      </trkpt>
      <trkpt lat="43.350352" lon="-6.394541">
        <ele>690.635</ele>
        <time>1999-07-22T17:15:25Z</time>
      </trkpt>
      <trkpt lat="43.350358" lon="-6.394600">
        <ele>691.096</ele>
        <time>1999-07-22T17:15:27Z</time>
      </trkpt>
      <trkpt lat="43.350356" lon="-6.394631">
        <ele>691.492</ele>
        <time>1999-07-22T17:15:28Z</time>
      </trkpt>
      <trkpt lat="43.350354" lon="-6.394693">
        <ele>691.898</ele>
        <time>1999-07-22T17:15:30Z</time>
      </trkpt>
      <trkpt lat="43.350381" lon="-6.394759">
        <ele>692.455</ele>
        <time>1999-07-22T17:15:33Z</time>
      </trkpt>
      <trkpt lat="43.350405" lon="-6.394834">
        <ele>693.062</ele>
        <time>1999-07-22T17:15:36Z</time>
      </trkpt>
      <trkpt lat="43.350429" lon="-6.394887">
        <ele>693.298</ele>
        <time>1999-07-22T17:15:38Z</time>
      </trkpt>
      <trkpt lat="43.350477" lon="-6.395090">
        <ele>694.011</ele>
        <time>1999-07-22T17:15:44Z</time>
      </trkpt>
      <trkpt lat="43.350513" lon="-6.395309">
        <ele>695.021</ele>
        <time>1999-07-22T17:15:50Z</time>
      </trkpt>
      <trkpt lat="43.350522" lon="-6.395420">
        <ele>695.403</ele>
        <time>1999-07-22T17:15:53Z</time>
      </trkpt>
      <trkpt lat="43.350550" lon="-6.395550">
        <ele>696.208</ele>
        <time>1999-07-22T17:15:57Z</time>
      </trkpt>
      <trkpt lat="43.350567" lon="-6.395607">
        <ele>696.484</ele>
        <time>1999-07-22T17:15:59Z</time>
      </trkpt>
      <trkpt lat="43.350581" lon="-6.395719">
        <ele>697.239</ele>
        <time>1999-07-22T17:16:03Z</time>
      </trkpt>
      <trkpt lat="43.350601" lon="-6.395794">
        <ele>697.860</ele>
        <time>1999-07-22T17:16:06Z</time>
      </trkpt>
      <trkpt lat="43.350633" lon="-6.395858">
        <ele>698.426</ele>
        <time>1999-07-22T17:16:09Z</time>
      </trkpt>
      <trkpt lat="43.350639" lon="-6.395884">
        <ele>698.652</ele>
        <time>1999-07-22T17:16:10Z</time>
      </trkpt>
      <trkpt lat="43.350646" lon="-6.395912">
        <ele>699.099</ele>
        <time>1999-07-22T17:16:11Z</time>
      </trkpt>
      <trkpt lat="43.350659" lon="-6.395966">
        <ele>699.676</ele>
        <time>1999-07-22T17:16:13Z</time>
      </trkpt>
      <trkpt lat="43.350711" lon="-6.396102">
        <ele>700.882</ele>
        <time>1999-07-22T17:16:18Z</time>
      </trkpt>
      <trkpt lat="43.350732" lon="-6.396164">
        <ele>701.477</ele>
        <time>1999-07-22T17:16:20Z</time>
      </trkpt>
      <trkpt lat="43.350757" lon="-6.396218">
        <ele>701.861</ele>
        <time>1999-07-22T17:16:22Z</time>
      </trkpt>
      <trkpt lat="43.350818" lon="-6.396387">
        <ele>702.827</ele>
        <time>1999-07-22T17:16:28Z</time>
      </trkpt>
      <trkpt lat="43.350826" lon="-6.396416">
        <ele>703.008</ele>
        <time>1999-07-22T17:16:29Z</time>
      </trkpt>
      <trkpt lat="43.350883" lon="-6.396551">
        <ele>704.250</ele>
        <time>1999-07-22T17:16:34Z</time>
      </trkpt>
      <trkpt lat="43.350908" lon="-6.396604">
        <ele>704.835</ele>
        <time>1999-07-22T17:16:36Z</time>
      </trkpt>
      <trkpt lat="43.350948" lon="-6.396676">
        <ele>705.436</ele>
        <time>1999-07-22T17:16:39Z</time>
      </trkpt>
      <trkpt lat="43.351004" lon="-6.396815">
        <ele>706.042</ele>
        <time>1999-07-22T17:16:44Z</time>
      </trkpt>
      <trkpt lat="43.351027" lon="-6.396866">
        <ele>706.428</ele>
        <time>1999-07-22T17:16:46Z</time>
      </trkpt>
      <trkpt lat="43.351056" lon="-6.396984">
        <ele>706.895</ele>
        <time>1999-07-22T17:16:50Z</time>
      </trkpt>
      <trkpt lat="43.351073" lon="-6.397075">
        <ele>707.042</ele>
        <time>1999-07-22T17:16:53Z</time>
      </trkpt>
      <trkpt lat="43.351092" lon="-6.397174">
        <ele>707.498</ele>
        <time>1999-07-22T17:16:56Z</time>
      </trkpt>
      <trkpt lat="43.351102" lon="-6.397238">
        <ele>707.641</ele>
        <time>1999-07-22T17:16:58Z</time>
      </trkpt>
      <trkpt lat="43.351129" lon="-6.397362">
        <ele>708.281</ele>
        <time>1999-07-22T17:17:02Z</time>
      </trkpt>
      <trkpt lat="43.351132" lon="-6.397393">
        <ele>708.409</ele>
        <time>1999-07-22T17:17:03Z</time>
      </trkpt>
      <trkpt lat="43.351134" lon="-6.397498">
        <ele>708.808</ele>
        <time>1999-07-22T17:17:06Z</time>
      </trkpt>
      <trkpt lat="43.351140" lon="-6.397601">
        <ele>709.437</ele>
        <time>1999-07-22T17:17:09Z</time>
      </trkpt>
      <trkpt lat="43.351140" lon="-6.397737">
        <ele>709.852</ele>
        <time>1999-07-22T17:17:13Z</time>
      </trkpt>
      <trkpt lat="43.351136" lon="-6.397910">
        <ele>710.043</ele>
        <time>1999-07-22T17:17:18Z</time>
      </trkpt>
      <trkpt lat="43.351138" lon="-6.398065">
        <ele>710.839</ele>
        <time>1999-07-22T17:17:23Z</time>
      </trkpt>
      <trkpt lat="43.351142" lon="-6.398096">
        <ele>711.015</ele>
        <time>1999-07-22T17:17:24Z</time>
      </trkpt>
      <trkpt lat="43.351150" lon="-6.398187">
        <ele>711.442</ele>
        <time>1999-07-22T17:17:27Z</time>
      </trkpt>
      <trkpt lat="43.351159" lon="-6.398328">
        <ele>711.819</ele>
        <time>1999-07-22T17:17:31Z</time>
      </trkpt>
      <trkpt lat="43.351189" lon="-6.398511">
        <ele>712.875</ele>
        <time>1999-07-22T17:17:37Z</time>
      </trkpt>
      <trkpt lat="43.351196" lon="-6.398537">
        <ele>713.032</ele>
        <time>1999-07-22T17:17:38Z</time>
      </trkpt>
      <trkpt lat="43.351231" lon="-6.398661">
        <ele>714.092</ele>
        <time>1999-07-22T17:17:42Z</time>
      </trkpt>
      <trkpt lat="43.351253" lon="-6.398720">
        <ele>714.611</ele>
        <time>1999-07-22T17:17:44Z</time>
      </trkpt>
      <trkpt lat="43.351271" lon="-6.398742">
        <ele>714.808</ele>
        <time>1999-07-22T17:17:45Z</time>
      </trkpt>
      <trkpt lat="43.351304" lon="-6.398784">
        <ele>715.016</ele>
        <time>1999-07-22T17:17:47Z</time>
      </trkpt>
      <trkpt lat="43.351348" lon="-6.398819">
        <ele>715.461</ele>
        <time>1999-07-22T17:17:49Z</time>
      </trkpt>
      <trkpt lat="43.351403" lon="-6.398858">
        <ele>715.612</ele>
        <time>1999-07-22T17:17:51Z</time>
      </trkpt>
      <trkpt lat="43.351473" lon="-6.398897">
        <ele>715.828</ele>
        <time>1999-07-22T17:17:53Z</time>
      </trkpt>
      <trkpt lat="43.351520" lon="-6.398938">
        <ele>716.094</ele>
        <time>1999-07-22T17:17:55Z</time>
      </trkpt>
      <trkpt lat="43.351553" lon="-6.398986">
        <ele>716.041</ele>
        <time>1999-07-22T17:17:57Z</time>
      </trkpt>
      <trkpt lat="43.351582" lon="-6.399055">
        <ele>716.098</ele>
        <time>1999-07-22T17:18:00Z</time>
      </trkpt>
      <trkpt lat="43.351584" lon="-6.399081">
        <ele>715.814</ele>
        <time>1999-07-22T17:18:01Z</time>
      </trkpt>
      <trkpt lat="43.351589" lon="-6.399187">
        <ele>715.248</ele>
        <time>1999-07-22T17:18:05Z</time>
      </trkpt>
      <trkpt lat="43.351592" lon="-6.399234">
        <ele>715.061</ele>
        <time>1999-07-22T17:18:07Z</time>
      </trkpt>
      <trkpt lat="43.351594" lon="-6.399250">
        <ele>715.017</ele>
        <time>1999-07-22T17:18:08Z</time>
      </trkpt>
      <trkpt lat="43.351586" lon="-6.399370">
        <ele>715.208</ele>
        <time>1999-07-22T17:18:13Z</time>
      </trkpt>
      <trkpt lat="43.351575" lon="-6.399388">
        <ele>715.257</ele>
        <time>1999-07-22T17:18:14Z</time>
      </trkpt>
      <trkpt lat="43.351507" lon="-6.399466">
        <ele>715.672</ele>
        <time>1999-07-22T17:18:18Z</time>
      </trkpt>
      <trkpt lat="43.351491" lon="-6.399488">
        <ele>715.623</ele>
        <time>1999-07-22T17:18:19Z</time>
      </trkpt>
      <trkpt lat="43.351463" lon="-6.399532">
        <ele>715.689</ele>
        <time>1999-07-22T17:18:21Z</time>
      </trkpt>
      <trkpt lat="43.351432" lon="-6.399570">
        <ele>715.845</ele>
        <time>1999-07-22T17:18:23Z</time>
      </trkpt>
      <trkpt lat="43.351399" lon="-6.399605">
        <ele>716.052</ele>
        <time>1999-07-22T17:18:25Z</time>
      </trkpt>
      <trkpt lat="43.351345" lon="-6.399648">
        <ele>716.429</ele>
        <time>1999-07-22T17:18:29Z</time>
      </trkpt>
      <trkpt lat="43.351330" lon="-6.399650">
        <ele>716.655</ele>
        <time>1999-07-22T17:18:30Z</time>
      </trkpt>
      <trkpt lat="43.351302" lon="-6.399665">
        <ele>717.091</ele>
        <time>1999-07-22T17:18:32Z</time>
      </trkpt>
      <trkpt lat="43.351276" lon="-6.399678">
        <ele>717.481</ele>
        <time>1999-07-22T17:18:34Z</time>
      </trkpt>
      <trkpt lat="43.351269" lon="-6.399685">
        <ele>717.619</ele>
        <time>1999-07-22T17:18:35Z</time>
      </trkpt>
      <trkpt lat="43.351251" lon="-6.399699">
        <ele>718.208</ele>
        <time>1999-07-22T17:18:37Z</time>
      </trkpt>
      <trkpt lat="43.351213" lon="-6.399724">
        <ele>719.242</ele>
        <time>1999-07-22T17:18:40Z</time>
      </trkpt>
      <trkpt lat="43.351183" lon="-6.399748">
        <ele>720.047</ele>
        <time>1999-07-22T17:18:42Z</time>
      </trkpt>
      <trkpt lat="43.351167" lon="-6.399759">
        <ele>720.278</ele>
        <time>1999-07-22T17:18:43Z</time>
      </trkpt>
      <trkpt lat="43.351129" lon="-6.399785">
        <ele>721.264</ele>
        <time>1999-07-22T17:18:46Z</time>
      </trkpt>
      <trkpt lat="43.351111" lon="-6.399797">
        <ele>721.430</ele>
        <time>1999-07-22T17:18:47Z</time>
      </trkpt>
      <trkpt lat="43.351065" lon="-6.399830">
        <ele>722.497</ele>
        <time>1999-07-22T17:18:50Z</time>
      </trkpt>
      <trkpt lat="43.351036" lon="-6.399862">
        <ele>723.634</ele>
        <time>1999-07-22T17:18:52Z</time>
      </trkpt>
      <trkpt lat="43.351019" lon="-6.399879">
        <ele>724.030</ele>
        <time>1999-07-22T17:18:53Z</time>
      </trkpt>
      <trkpt lat="43.350970" lon="-6.399919">
        <ele>724.813</ele>
        <time>1999-07-22T17:18:56Z</time>
      </trkpt>
      <trkpt lat="43.350943" lon="-6.399948">
        <ele>725.243</ele>
        <time>1999-07-22T17:18:58Z</time>
      </trkpt>
      <trkpt lat="43.350892" lon="-6.400057">
        <ele>726.007</ele>
        <time>1999-07-22T17:19:03Z</time>
      </trkpt>
      <trkpt lat="43.350870" lon="-6.400120">
        <ele>726.808</ele>
        <time>1999-07-22T17:19:06Z</time>
      </trkpt>
      <trkpt lat="43.350862" lon="-6.400141">
        <ele>727.254</ele>
        <time>1999-07-22T17:19:07Z</time>
      </trkpt>
      <trkpt lat="43.350820" lon="-6.400259">
        <ele>728.299</ele>
        <time>1999-07-22T17:19:12Z</time>
      </trkpt>
      <trkpt lat="43.350804" lon="-6.400318">
        <ele>728.680</ele>
        <time>1999-07-22T17:19:14Z</time>
      </trkpt>
      <trkpt lat="43.350755" lon="-6.400456">
        <ele>729.286</ele>
        <time>1999-07-22T17:19:20Z</time>
      </trkpt>
      <trkpt lat="43.350736" lon="-6.400494">
        <ele>729.412</ele>
        <time>1999-07-22T17:19:22Z</time>
      </trkpt>
      <trkpt lat="43.350671" lon="-6.400588">
        <ele>730.219</ele>
        <time>1999-07-22T17:19:28Z</time>
      </trkpt>
      <trkpt lat="43.350614" lon="-6.400693">
        <ele>731.266</ele>
        <time>1999-07-22T17:19:34Z</time>
      </trkpt>
      <trkpt lat="43.350603" lon="-6.400705">
        <ele>731.452</ele>
        <time>1999-07-22T17:19:35Z</time>
      </trkpt>
      <trkpt lat="43.350552" lon="-6.400756">
        <ele>731.623</ele>
        <time>1999-07-22T17:19:38Z</time>
      </trkpt>
      <trkpt lat="43.350516" lon="-6.400783">
        <ele>731.883</ele>
        <time>1999-07-22T17:19:39Z</time>
      </trkpt>
      <trkpt lat="43.350430" lon="-6.400817">
        <ele>731.811</ele>
        <time>1999-07-22T17:19:41Z</time>
      </trkpt>
      <trkpt lat="43.350356" lon="-6.400823">
        <ele>731.808</ele>
        <time>1999-07-22T17:19:43Z</time>
      </trkpt>
      <trkpt lat="43.350222" lon="-6.400842">
        <ele>731.635</ele>
        <time>1999-07-22T17:19:49Z</time>
      </trkpt>
      <trkpt lat="43.350082" lon="-6.400853">
        <ele>731.430</ele>
        <time>1999-07-22T17:19:54Z</time>
      </trkpt>
      <trkpt lat="43.349921" lon="-6.400854">
        <ele>731.471</ele>
        <time>1999-07-22T17:19:59Z</time>
      </trkpt>
      <trkpt lat="43.349742" lon="-6.400892">
        <ele>731.857</ele>
        <time>1999-07-22T17:20:05Z</time>
      </trkpt>
      <trkpt lat="43.349560" lon="-6.400930">
        <ele>732.413</ele>
        <time>1999-07-22T17:20:10Z</time>
      </trkpt>
      <trkpt lat="43.349503" lon="-6.400933">
        <ele>732.630</ele>
        <time>1999-07-22T17:20:12Z</time>
      </trkpt>
      <trkpt lat="43.349500" lon="-6.400934">
        <ele>732.647</ele>
        <time>1999-07-22T17:20:13Z</time>
      </trkpt>
      <trkpt lat="43.349501" lon="-6.400935">
        <ele>732.683</ele>
        <time>1999-07-22T17:20:14Z</time>
      </trkpt>
      <trkpt lat="43.349470" lon="-6.400932">
        <ele>732.674</ele>
        <time>1999-07-22T17:20:32Z</time>
      </trkpt>
      <trkpt lat="43.349418" lon="-6.400934">
        <ele>732.656</ele>
        <time>1999-07-22T17:20:34Z</time>
      </trkpt>
      <trkpt lat="43.349214" lon="-6.400940">
        <ele>732.421</ele>
        <time>1999-07-22T17:20:39Z</time>
      </trkpt>
      <trkpt lat="43.349095" lon="-6.400964">
        <ele>732.208</ele>
        <time>1999-07-22T17:20:41Z</time>
      </trkpt>
      <trkpt lat="43.348962" lon="-6.401018">
        <ele>732.270</ele>
        <time>1999-07-22T17:20:43Z</time>
      </trkpt>
      <trkpt lat="43.348822" lon="-6.401077">
        <ele>731.825</ele>
        <time>1999-07-22T17:20:45Z</time>
      </trkpt>
      <trkpt lat="43.348748" lon="-6.401098">
        <ele>731.666</ele>
        <time>1999-07-22T17:20:46Z</time>
      </trkpt>
      <trkpt lat="43.348672" lon="-6.401112">
        <ele>731.442</ele>
        <time>1999-07-22T17:20:47Z</time>
      </trkpt>
      <trkpt lat="43.348595" lon="-6.401117">
        <ele>730.878</ele>
        <time>1999-07-22T17:20:48Z</time>
      </trkpt>
      <trkpt lat="43.348523" lon="-6.401112">
        <ele>730.465</ele>
        <time>1999-07-22T17:20:49Z</time>
      </trkpt>
      <trkpt lat="43.348467" lon="-6.401095">
        <ele>729.842</ele>
        <time>1999-07-22T17:20:50Z</time>
      </trkpt>
      <trkpt lat="43.348426" lon="-6.401088">
        <ele>729.468</ele>
        <time>1999-07-22T17:20:51Z</time>
      </trkpt>
      <trkpt lat="43.348360" lon="-6.401094">
        <ele>728.863</ele>
        <time>1999-07-22T17:20:53Z</time>
      </trkpt>
      <trkpt lat="43.348323" lon="-6.401098">
        <ele>727.844</ele>
        <time>1999-07-22T17:20:54Z</time>
      </trkpt>
      <trkpt lat="43.348211" lon="-6.401134">
        <ele>726.418</ele>
        <time>1999-07-22T17:20:57Z</time>
      </trkpt>
      <trkpt lat="43.348171" lon="-6.401162">
        <ele>725.808</ele>
        <time>1999-07-22T17:20:58Z</time>
      </trkpt>
      <trkpt lat="43.348133" lon="-6.401202">
        <ele>725.419</ele>
        <time>1999-07-22T17:20:59Z</time>
      </trkpt>
      <trkpt lat="43.348045" lon="-6.401290">
        <ele>724.834</ele>
        <time>1999-07-22T17:21:01Z</time>
      </trkpt>
      <trkpt lat="43.347925" lon="-6.401348">
        <ele>724.485</ele>
        <time>1999-07-22T17:21:03Z</time>
      </trkpt>
      <trkpt lat="43.347857" lon="-6.401380">
        <ele>724.281</ele>
        <time>1999-07-22T17:21:04Z</time>
      </trkpt>
      <trkpt lat="43.347675" lon="-6.401473">
        <ele>723.867</ele>
        <time>1999-07-22T17:21:07Z</time>
      </trkpt>
      <trkpt lat="43.347638" lon="-6.401506">
        <ele>723.474</ele>
        <time>1999-07-22T17:21:10Z</time>
      </trkpt>
      <trkpt lat="43.347639" lon="-6.401506">
        <ele>723.261</ele>
        <time>1999-07-22T17:21:11Z</time>
      </trkpt>
      <trkpt lat="43.346922" lon="-6.401867">
        <ele>718.077</ele>
        <time>1999-07-22T17:23:07Z</time>
      </trkpt>
      <trkpt lat="43.346894" lon="-6.401871">
        <ele>718.045</ele>
        <time>1999-07-22T17:23:08Z</time>
      </trkpt>
      <trkpt lat="43.346861" lon="-6.401873">
        <ele>718.047</ele>
        <time>1999-07-22T17:23:09Z</time>
      </trkpt>
      <trkpt lat="43.346747" lon="-6.401830">
        <ele>718.211</ele>
        <time>1999-07-22T17:23:12Z</time>
      </trkpt>
      <trkpt lat="43.346695" lon="-6.401804">
        <ele>718.208</ele>
        <time>1999-07-22T17:23:13Z</time>
      </trkpt>
      <trkpt lat="43.346362" lon="-6.401663">
        <ele>718.017</ele>
        <time>1999-07-22T17:23:18Z</time>
      </trkpt>
      <trkpt lat="43.346016" lon="-6.401649">
        <ele>716.882</ele>
        <time>1999-07-22T17:23:22Z</time>
      </trkpt>
      <trkpt lat="43.345842" lon="-6.401664">
        <ele>716.273</ele>
        <time>1999-07-22T17:23:24Z</time>
      </trkpt>
      <trkpt lat="43.345753" lon="-6.401685">
        <ele>715.859</ele>
        <time>1999-07-22T17:23:25Z</time>
      </trkpt>
      <trkpt lat="43.345581" lon="-6.401709">
        <ele>714.435</ele>
        <time>1999-07-22T17:23:27Z</time>
      </trkpt>
      <trkpt lat="43.345425" lon="-6.401651">
        <ele>713.432</ele>
        <time>1999-07-22T17:23:29Z</time>
      </trkpt>
      <trkpt lat="43.345363" lon="-6.401597">
        <ele>712.619</ele>
        <time>1999-07-22T17:23:30Z</time>
      </trkpt>
      <trkpt lat="43.345313" lon="-6.401525">
        <ele>712.255</ele>
        <time>1999-07-22T17:23:31Z</time>
      </trkpt>
      <trkpt lat="43.345251" lon="-6.401363">
        <ele>709.225</ele>
        <time>1999-07-22T17:23:33Z</time>
      </trkpt>
      <trkpt lat="43.345195" lon="-6.401246">
        <ele>708.026</ele>
        <time>1999-07-22T17:23:35Z</time>
      </trkpt>
      <trkpt lat="43.345173" lon="-6.401219">
        <ele>707.408</ele>
        <time>1999-07-22T17:23:36Z</time>
      </trkpt>
      <trkpt lat="43.345167" lon="-6.401206">
        <ele>706.408</ele>
        <time>1999-07-22T17:23:38Z</time>
      </trkpt>
      <trkpt lat="43.345168" lon="-6.401207">
        <ele>705.825</ele>
        <time>1999-07-22T17:23:39Z</time>
      </trkpt>
      <trkpt lat="43.345103" lon="-6.401265">
        <ele>703.020</ele>
        <time>1999-07-22T17:23:48Z</time>
      </trkpt>
      <trkpt lat="43.345055" lon="-6.401291">
        <ele>702.831</ele>
        <time>1999-07-22T17:23:50Z</time>
      </trkpt>
      <trkpt lat="43.345019" lon="-6.401359">
        <ele>702.827</ele>
        <time>1999-07-22T17:23:53Z</time>
      </trkpt>
      <trkpt lat="43.345019" lon="-6.401396">
        <ele>702.663</ele>
        <time>1999-07-22T17:23:54Z</time>
      </trkpt>
      <trkpt lat="43.345018" lon="-6.401436">
        <ele>702.660</ele>
        <time>1999-07-22T17:23:55Z</time>
      </trkpt>
      <trkpt lat="43.345016" lon="-6.401598">
        <ele>701.857</ele>
        <time>1999-07-22T17:23:58Z</time>
      </trkpt>
      <trkpt lat="43.345015" lon="-6.401667">
        <ele>701.633</ele>
        <time>1999-07-22T17:23:59Z</time>
      </trkpt>
      <trkpt lat="43.344996" lon="-6.401917">
        <ele>700.853</ele>
        <time>1999-07-22T17:24:02Z</time>
      </trkpt>
      <trkpt lat="43.344980" lon="-6.401999">
        <ele>700.604</ele>
        <time>1999-07-22T17:24:03Z</time>
      </trkpt>
      <trkpt lat="43.344955" lon="-6.402076">
        <ele>700.414</ele>
        <time>1999-07-22T17:24:04Z</time>
      </trkpt>
      <trkpt lat="43.344890" lon="-6.402291">
        <ele>699.808</ele>
        <time>1999-07-22T17:24:07Z</time>
      </trkpt>
      <trkpt lat="43.344892" lon="-6.402371">
        <ele>699.698</ele>
        <time>1999-07-22T17:24:08Z</time>
      </trkpt>
      <trkpt lat="43.344908" lon="-6.402451">
        <ele>699.263</ele>
        <time>1999-07-22T17:24:09Z</time>
      </trkpt>
      <trkpt lat="43.344923" lon="-6.402539">
        <ele>698.294</ele>
        <time>1999-07-22T17:24:10Z</time>
      </trkpt>
      <trkpt lat="43.344932" lon="-6.402626">
        <ele>697.290</ele>
        <time>1999-07-22T17:24:11Z</time>
      </trkpt>
      <trkpt lat="43.344911" lon="-6.402773">
        <ele>695.446</ele>
        <time>1999-07-22T17:24:13Z</time>
      </trkpt>
      <trkpt lat="43.344885" lon="-6.402828">
        <ele>694.033</ele>
        <time>1999-07-22T17:24:14Z</time>
      </trkpt>
      <trkpt lat="43.344841" lon="-6.402908">
        <ele>692.420</ele>
        <time>1999-07-22T17:24:16Z</time>
      </trkpt>
      <trkpt lat="43.344824" lon="-6.402927">
        <ele>691.426</ele>
        <time>1999-07-22T17:24:17Z</time>
      </trkpt>
      <trkpt lat="43.344794" lon="-6.402938">
        <ele>690.411</ele>
        <time>1999-07-22T17:24:19Z</time>
      </trkpt>
      <trkpt lat="43.344778" lon="-6.402939">
        <ele>690.221</ele>
        <time>1999-07-22T17:24:20Z</time>
      </trkpt>
      <trkpt lat="43.344765" lon="-6.402933">
        <ele>690.203</ele>
        <time>1999-07-22T17:24:21Z</time>
      </trkpt>
      <trkpt lat="43.344749" lon="-6.402924">
        <ele>690.008</ele>
        <time>1999-07-22T17:24:22Z</time>
      </trkpt>
      <trkpt lat="43.344722" lon="-6.402901">
        <ele>689.834</ele>
        <time>1999-07-22T17:24:24Z</time>
      </trkpt>
      <trkpt lat="43.344697" lon="-6.402889">
        <ele>689.859</ele>
        <time>1999-07-22T17:24:26Z</time>
      </trkpt>
      <trkpt lat="43.344672" lon="-6.402876">
        <ele>689.860</ele>
        <time>1999-07-22T17:24:28Z</time>
      </trkpt>
      <trkpt lat="43.344658" lon="-6.402869">
        <ele>690.296</ele>
        <time>1999-07-22T17:24:29Z</time>
      </trkpt>
      <trkpt lat="43.344641" lon="-6.402851">
        <ele>690.672</ele>
        <time>1999-07-22T17:24:31Z</time>
      </trkpt>
      <trkpt lat="43.344623" lon="-6.402837">
        <ele>691.239</ele>
        <time>1999-07-22T17:24:33Z</time>
      </trkpt>
      <trkpt lat="43.344610" lon="-6.402830">
        <ele>691.626</ele>
        <time>1999-07-22T17:24:34Z</time>
      </trkpt>
      <trkpt lat="43.344581" lon="-6.402820">
        <ele>692.292</ele>
        <time>1999-07-22T17:24:36Z</time>
      </trkpt>
      <trkpt lat="43.344574" lon="-6.402819">
        <ele>692.497</ele>
        <time>1999-07-22T17:24:37Z</time>
      </trkpt>
      <trkpt lat="43.344540" lon="-6.402801">
        <ele>693.423</ele>
        <time>1999-07-22T17:24:40Z</time>
      </trkpt>
      <trkpt lat="43.344525" lon="-6.402793">
        <ele>693.625</ele>
        <time>1999-07-22T17:24:41Z</time>
      </trkpt>
      <trkpt lat="43.344475" lon="-6.402751">
        <ele>694.808</ele>
        <time>1999-07-22T17:24:45Z</time>
      </trkpt>
      <trkpt lat="43.344425" lon="-6.402732">
        <ele>695.412</ele>
        <time>1999-07-22T17:24:48Z</time>
      </trkpt>
      <trkpt lat="43.344398" lon="-6.402712">
        <ele>696.057</ele>
        <time>1999-07-22T17:24:50Z</time>
      </trkpt>
      <trkpt lat="43.344338" lon="-6.402641">
        <ele>696.438</ele>
        <time>1999-07-22T17:24:54Z</time>
      </trkpt>
      <trkpt lat="43.344257" lon="-6.402581">
        <ele>697.024</ele>
        <time>1999-07-22T17:24:58Z</time>
      </trkpt>
      <trkpt lat="43.344236" lon="-6.402566">
        <ele>697.020</ele>
        <time>1999-07-22T17:24:59Z</time>
      </trkpt>
      <trkpt lat="43.344154" lon="-6.402496">
        <ele>697.637</ele>
        <time>1999-07-22T17:25:04Z</time>
      </trkpt>
      <trkpt lat="43.344139" lon="-6.402478">
        <ele>697.824</ele>
        <time>1999-07-22T17:25:05Z</time>
      </trkpt>
      <trkpt lat="43.344108" lon="-6.402450">
        <ele>698.060</ele>
        <time>1999-07-22T17:25:07Z</time>
      </trkpt>
      <trkpt lat="43.344042" lon="-6.402382">
        <ele>698.852</ele>
        <time>1999-07-22T17:25:11Z</time>
      </trkpt>
      <trkpt lat="43.344022" lon="-6.402369">
        <ele>699.053</ele>
        <time>1999-07-22T17:25:12Z</time>
      </trkpt>
      <trkpt lat="43.343979" lon="-6.402332">
        <ele>699.608</ele>
        <time>1999-07-22T17:25:15Z</time>
      </trkpt>
      <trkpt lat="43.343955" lon="-6.402298">
        <ele>700.008</ele>
        <time>1999-07-22T17:25:17Z</time>
      </trkpt>
      <trkpt lat="43.343941" lon="-6.402283">
        <ele>700.238</ele>
        <time>1999-07-22T17:25:18Z</time>
      </trkpt>
      <trkpt lat="43.343874" lon="-6.402215">
        <ele>700.873</ele>
        <time>1999-07-22T17:25:22Z</time>
      </trkpt>
      <trkpt lat="43.343844" lon="-6.402192">
        <ele>701.644</ele>
        <time>1999-07-22T17:25:24Z</time>
      </trkpt>
      <trkpt lat="43.343761" lon="-6.402157">
        <ele>702.620</ele>
        <time>1999-07-22T17:25:28Z</time>
      </trkpt>
      <trkpt lat="43.343740" lon="-6.402155">
        <ele>703.096</ele>
        <time>1999-07-22T17:25:29Z</time>
      </trkpt>
      <trkpt lat="43.343720" lon="-6.402146">
        <ele>703.213</ele>
        <time>1999-07-22T17:25:30Z</time>
      </trkpt>
      <trkpt lat="43.343676" lon="-6.402148">
        <ele>703.650</ele>
        <time>1999-07-22T17:25:33Z</time>
      </trkpt>
      <trkpt lat="43.343664" lon="-6.402149">
        <ele>704.096</ele>
        <time>1999-07-22T17:25:34Z</time>
      </trkpt>
      <trkpt lat="43.343618" lon="-6.402157">
        <ele>704.824</ele>
        <time>1999-07-22T17:25:37Z</time>
      </trkpt>
      <trkpt lat="43.343563" lon="-6.402164">
        <ele>705.404</ele>
        <time>1999-07-22T17:25:40Z</time>
      </trkpt>
      <trkpt lat="43.343493" lon="-6.402160">
        <ele>705.814</ele>
        <time>1999-07-22T17:25:43Z</time>
      </trkpt>
      <trkpt lat="43.343434" lon="-6.402175">
        <ele>706.408</ele>
        <time>1999-07-22T17:25:47Z</time>
      </trkpt>
      <trkpt lat="43.343396" lon="-6.402197">
        <ele>706.855</ele>
        <time>1999-07-22T17:25:50Z</time>
      </trkpt>
      <trkpt lat="43.343322" lon="-6.402194">
        <ele>707.260</ele>
        <time>1999-07-22T17:25:53Z</time>
      </trkpt>
      <trkpt lat="43.343247" lon="-6.402183">
        <ele>707.891</ele>
        <time>1999-07-22T17:25:56Z</time>
      </trkpt>
      <trkpt lat="43.343133" lon="-6.402172">
        <ele>708.667</ele>
        <time>1999-07-22T17:26:00Z</time>
      </trkpt>
      <trkpt lat="43.343054" lon="-6.402156">
        <ele>708.883</ele>
        <time>1999-07-22T17:26:03Z</time>
      </trkpt>
      <trkpt lat="43.343033" lon="-6.402149">
        <ele>709.010</ele>
        <time>1999-07-22T17:26:04Z</time>
      </trkpt>
      <trkpt lat="43.342983" lon="-6.402136">
        <ele>709.277</ele>
        <time>1999-07-22T17:26:06Z</time>
      </trkpt>
      <trkpt lat="43.342841" lon="-6.402082">
        <ele>709.833</ele>
        <time>1999-07-22T17:26:12Z</time>
      </trkpt>
      <trkpt lat="43.342816" lon="-6.402072">
        <ele>710.234</ele>
        <time>1999-07-22T17:26:13Z</time>
      </trkpt>
      <trkpt lat="43.342695" lon="-6.402035">
        <ele>710.655</ele>
        <time>1999-07-22T17:26:17Z</time>
      </trkpt>
      <trkpt lat="43.342578" lon="-6.401989">
        <ele>711.210</ele>
        <time>1999-07-22T17:26:21Z</time>
      </trkpt>
      <trkpt lat="43.342548" lon="-6.401978">
        <ele>711.208</ele>
        <time>1999-07-22T17:26:22Z</time>
      </trkpt>
      <trkpt lat="43.342405" lon="-6.401949">
        <ele>712.056</ele>
        <time>1999-07-22T17:26:26Z</time>
      </trkpt>
      <trkpt lat="43.342268" lon="-6.401904">
        <ele>712.081</ele>
        <time>1999-07-22T17:26:29Z</time>
      </trkpt>
      <trkpt lat="43.342215" lon="-6.401894">
        <ele>712.092</ele>
        <time>1999-07-22T17:26:30Z</time>
      </trkpt>
      <trkpt lat="43.342161" lon="-6.401878">
        <ele>712.278</ele>
        <time>1999-07-22T17:26:31Z</time>
      </trkpt>
      <trkpt lat="43.342047" lon="-6.401835">
        <ele>712.284</ele>
        <time>1999-07-22T17:26:33Z</time>
      </trkpt>
      <trkpt lat="43.341888" lon="-6.401763">
        <ele>712.231</ele>
        <time>1999-07-22T17:26:36Z</time>
      </trkpt>
      <trkpt lat="43.341586" lon="-6.401613">
        <ele>711.018</ele>
        <time>1999-07-22T17:26:42Z</time>
      </trkpt>
      <trkpt lat="43.341334" lon="-6.401473">
        <ele>710.444</ele>
        <time>1999-07-22T17:26:47Z</time>
      </trkpt>
      <trkpt lat="43.341286" lon="-6.401430">
        <ele>710.487</ele>
        <time>1999-07-22T17:26:48Z</time>
      </trkpt>
      <trkpt lat="43.340976" lon="-6.401204">
        <ele>710.242</ele>
        <time>1999-07-22T17:26:54Z</time>
      </trkpt>
      <trkpt lat="43.340921" lon="-6.401175">
        <ele>710.226</ele>
        <time>1999-07-22T17:26:55Z</time>
      </trkpt>
      <trkpt lat="43.340705" lon="-6.401060">
        <ele>710.008</ele>
        <time>1999-07-22T17:26:59Z</time>
      </trkpt>
      <trkpt lat="43.340643" lon="-6.401036">
        <ele>710.071</ele>
        <time>1999-07-22T17:27:00Z</time>
      </trkpt>
      <trkpt lat="43.340495" lon="-6.401009">
        <ele>709.666</ele>
        <time>1999-07-22T17:27:02Z</time>
      </trkpt>
      <trkpt lat="43.340417" lon="-6.401012">
        <ele>709.667</ele>
        <time>1999-07-22T17:27:03Z</time>
      </trkpt>
      <trkpt lat="43.340344" lon="-6.401027">
        <ele>708.823</ele>
        <time>1999-07-22T17:27:04Z</time>
      </trkpt>
      <trkpt lat="43.340234" lon="-6.401101">
        <ele>708.249</ele>
        <time>1999-07-22T17:27:06Z</time>
      </trkpt>
      <trkpt lat="43.340191" lon="-6.401152">
        <ele>707.896</ele>
        <time>1999-07-22T17:27:07Z</time>
      </trkpt>
      <trkpt lat="43.340150" lon="-6.401208">
        <ele>707.443</ele>
        <time>1999-07-22T17:27:08Z</time>
      </trkpt>
      <trkpt lat="43.340088" lon="-6.401332">
        <ele>706.629</ele>
        <time>1999-07-22T17:27:10Z</time>
      </trkpt>
      <trkpt lat="43.340066" lon="-6.401397">
        <ele>705.846</ele>
        <time>1999-07-22T17:27:11Z</time>
      </trkpt>
      <trkpt lat="43.340046" lon="-6.401464">
        <ele>704.888</ele>
        <time>1999-07-22T17:27:12Z</time>
      </trkpt>
      <trkpt lat="43.340027" lon="-6.401530">
        <ele>703.816</ele>
        <time>1999-07-22T17:27:13Z</time>
      </trkpt>
      <trkpt lat="43.340005" lon="-6.401591">
        <ele>702.808</ele>
        <time>1999-07-22T17:27:14Z</time>
      </trkpt>
      <trkpt lat="43.339984" lon="-6.401647">
        <ele>701.697</ele>
        <time>1999-07-22T17:27:15Z</time>
      </trkpt>
      <trkpt lat="43.339958" lon="-6.401704">
        <ele>701.462</ele>
        <time>1999-07-22T17:27:16Z</time>
      </trkpt>
      <trkpt lat="43.339749" lon="-6.402051">
        <ele>701.263</ele>
        <time>1999-07-22T17:27:22Z</time>
      </trkpt>
      <trkpt lat="43.339574" lon="-6.402340">
        <ele>701.459</ele>
        <time>1999-07-22T17:27:27Z</time>
      </trkpt>
      <trkpt lat="43.339501" lon="-6.402448">
        <ele>701.475</ele>
        <time>1999-07-22T17:27:29Z</time>
      </trkpt>
      <trkpt lat="43.339424" lon="-6.402536">
        <ele>701.412</ele>
        <time>1999-07-22T17:27:31Z</time>
      </trkpt>
      <trkpt lat="43.339383" lon="-6.402572">
        <ele>701.469</ele>
        <time>1999-07-22T17:27:32Z</time>
      </trkpt>
      <trkpt lat="43.339262" lon="-6.402619">
        <ele>701.695</ele>
        <time>1999-07-22T17:27:35Z</time>
      </trkpt>
      <trkpt lat="43.339190" lon="-6.402620">
        <ele>701.688</ele>
        <time>1999-07-22T17:27:37Z</time>
      </trkpt>
      <trkpt lat="43.339063" lon="-6.402600">
        <ele>701.824</ele>
        <time>1999-07-22T17:27:41Z</time>
      </trkpt>
      <trkpt lat="43.338937" lon="-6.402536">
        <ele>702.626</ele>
        <time>1999-07-22T17:27:46Z</time>
      </trkpt>
      <trkpt lat="43.338888" lon="-6.402516">
        <ele>703.208</ele>
        <time>1999-07-22T17:27:48Z</time>
      </trkpt>
      <trkpt lat="43.338841" lon="-6.402500">
        <ele>703.661</ele>
        <time>1999-07-22T17:27:50Z</time>
      </trkpt>
      <trkpt lat="43.338781" lon="-6.402458">
        <ele>704.296</ele>
        <time>1999-07-22T17:27:53Z</time>
      </trkpt>
      <trkpt lat="43.338744" lon="-6.402419">
        <ele>704.877</ele>
        <time>1999-07-22T17:27:55Z</time>
      </trkpt>
      <trkpt lat="43.338680" lon="-6.402398">
        <ele>705.873</ele>
        <time>1999-07-22T17:27:58Z</time>
      </trkpt>
      <trkpt lat="43.338658" lon="-6.402399">
        <ele>706.229</ele>
        <time>1999-07-22T17:27:59Z</time>
      </trkpt>
      <trkpt lat="43.338635" lon="-6.402402">
        <ele>706.456</ele>
        <time>1999-07-22T17:28:00Z</time>
      </trkpt>
      <trkpt lat="43.338597" lon="-6.402405">
        <ele>707.233</ele>
        <time>1999-07-22T17:28:02Z</time>
      </trkpt>
      <trkpt lat="43.338554" lon="-6.402394">
        <ele>708.279</ele>
        <time>1999-07-22T17:28:05Z</time>
      </trkpt>
      <trkpt lat="43.338540" lon="-6.402393">
        <ele>708.697</ele>
        <time>1999-07-22T17:28:06Z</time>
      </trkpt>
      <trkpt lat="43.338528" lon="-6.402402">
        <ele>708.823</ele>
        <time>1999-07-22T17:28:07Z</time>
      </trkpt>
      <trkpt lat="43.338516" lon="-6.402414">
        <ele>709.225</ele>
        <time>1999-07-22T17:28:08Z</time>
      </trkpt>
      <trkpt lat="43.338479" lon="-6.402454">
        <ele>710.208</ele>
        <time>1999-07-22T17:28:11Z</time>
      </trkpt>
      <trkpt lat="43.338439" lon="-6.402538">
        <ele>711.452</ele>
        <time>1999-07-22T17:28:16Z</time>
      </trkpt>
      <trkpt lat="43.338428" lon="-6.402553">
        <ele>711.697</ele>
        <time>1999-07-22T17:28:17Z</time>
      </trkpt>
      <trkpt lat="43.338338" lon="-6.402667">
        <ele>712.428</ele>
        <time>1999-07-22T17:28:23Z</time>
      </trkpt>
      <trkpt lat="43.338333" lon="-6.402682">
        <ele>712.674</ele>
        <time>1999-07-22T17:28:24Z</time>
      </trkpt>
      <trkpt lat="43.338315" lon="-6.402731">
        <ele>713.040</ele>
        <time>1999-07-22T17:28:27Z</time>
      </trkpt>
      <trkpt lat="43.338294" lon="-6.402777">
        <ele>713.057</ele>
        <time>1999-07-22T17:28:29Z</time>
      </trkpt>
      <trkpt lat="43.338277" lon="-6.402809">
        <ele>713.084</ele>
        <time>1999-07-22T17:28:30Z</time>
      </trkpt>
      <trkpt lat="43.338245" lon="-6.402883">
        <ele>713.050</ele>
        <time>1999-07-22T17:28:32Z</time>
      </trkpt>
      <trkpt lat="43.338198" lon="-6.402997">
        <ele>713.012</ele>
        <time>1999-07-22T17:28:35Z</time>
      </trkpt>
      <trkpt lat="43.338169" lon="-6.403079">
        <ele>713.032</ele>
        <time>1999-07-22T17:28:37Z</time>
      </trkpt>
      <trkpt lat="43.338159" lon="-6.403116">
        <ele>712.805</ele>
        <time>1999-07-22T17:28:38Z</time>
      </trkpt>
      <trkpt lat="43.338141" lon="-6.403174">
        <ele>712.808</ele>
        <time>1999-07-22T17:28:40Z</time>
      </trkpt>
      <trkpt lat="43.338132" lon="-6.403199">
        <ele>712.884</ele>
        <time>1999-07-22T17:28:41Z</time>
      </trkpt>
      <trkpt lat="43.338119" lon="-6.403222">
        <ele>712.849</ele>
        <time>1999-07-22T17:28:42Z</time>
      </trkpt>
      <trkpt lat="43.338095" lon="-6.403255">
        <ele>712.820</ele>
        <time>1999-07-22T17:28:44Z</time>
      </trkpt>
      <trkpt lat="43.338087" lon="-6.403275">
        <ele>712.866</ele>
        <time>1999-07-22T17:28:45Z</time>
      </trkpt>
      <trkpt lat="43.338076" lon="-6.403327">
        <ele>712.852</ele>
        <time>1999-07-22T17:28:47Z</time>
      </trkpt>
      <trkpt lat="43.338049" lon="-6.403395">
        <ele>712.429</ele>
        <time>1999-07-22T17:28:50Z</time>
      </trkpt>
      <trkpt lat="43.338030" lon="-6.403396">
        <ele>712.446</ele>
        <time>1999-07-22T17:28:52Z</time>
      </trkpt>
      <trkpt lat="43.338070" lon="-6.403317">
        <ele>712.292</ele>
        <time>1999-07-22T17:28:56Z</time>
      </trkpt>
      <trkpt lat="43.338083" lon="-6.403292">
        <ele>712.215</ele>
        <time>1999-07-22T17:28:57Z</time>
      </trkpt>
      <trkpt lat="43.338138" lon="-6.403149">
        <ele>712.265</ele>
        <time>1999-07-22T17:29:02Z</time>
      </trkpt>
      <trkpt lat="43.338149" lon="-6.403115">
        <ele>712.211</ele>
        <time>1999-07-22T17:29:03Z</time>
      </trkpt>
      <trkpt lat="43.338202" lon="-6.402948">
        <ele>712.608</ele>
        <time>1999-07-22T17:29:08Z</time>
      </trkpt>
      <trkpt lat="43.338245" lon="-6.402859">
        <ele>712.654</ele>
        <time>1999-07-22T17:29:11Z</time>
      </trkpt>
      <trkpt lat="43.338278" lon="-6.402816">
        <ele>712.899</ele>
        <time>1999-07-22T17:29:13Z</time>
      </trkpt>
      <trkpt lat="43.338261" lon="-6.402794">
        <ele>712.880</ele>
        <time>1999-07-22T17:29:15Z</time>
      </trkpt>
      <trkpt lat="43.338186" lon="-6.402843">
        <ele>713.016</ele>
        <time>1999-07-22T17:29:18Z</time>
      </trkpt>
      <trkpt lat="43.338152" lon="-6.402865">
        <ele>713.062</ele>
        <time>1999-07-22T17:29:19Z</time>
      </trkpt>
      <trkpt lat="43.337885" lon="-6.403020">
        <ele>713.089</ele>
        <time>1999-07-22T17:29:25Z</time>
      </trkpt>
      <trkpt lat="43.337827" lon="-6.403068">
        <ele>713.086</ele>
        <time>1999-07-22T17:29:26Z</time>
      </trkpt>
      <trkpt lat="43.337712" lon="-6.403212">
        <ele>712.662</ele>
        <time>1999-07-22T17:29:28Z</time>
      </trkpt>
      <trkpt lat="43.337635" lon="-6.403419">
        <ele>712.259</ele>
        <time>1999-07-22T17:29:30Z</time>
      </trkpt>
      <trkpt lat="43.337608" lon="-6.403531">
        <ele>711.803</ele>
        <time>1999-07-22T17:29:31Z</time>
      </trkpt>
      <trkpt lat="43.337586" lon="-6.403642">
        <ele>711.223</ele>
        <time>1999-07-22T17:29:32Z</time>
      </trkpt>
      <trkpt lat="43.337514" lon="-6.403958">
        <ele>710.408</ele>
        <time>1999-07-22T17:29:35Z</time>
      </trkpt>
      <trkpt lat="43.337494" lon="-6.404043">
        <ele>710.238</ele>
        <time>1999-07-22T17:29:36Z</time>
      </trkpt>
      <trkpt lat="43.337463" lon="-6.404197">
        <ele>709.223</ele>
        <time>1999-07-22T17:29:38Z</time>
      </trkpt>
      <trkpt lat="43.337424" lon="-6.404362">
        <ele>707.624</ele>
        <time>1999-07-22T17:29:40Z</time>
      </trkpt>
      <trkpt lat="43.337385" lon="-6.404541">
        <ele>706.020</ele>
        <time>1999-07-22T17:29:42Z</time>
      </trkpt>
      <trkpt lat="43.337350" lon="-6.404746">
        <ele>704.686</ele>
        <time>1999-07-22T17:29:44Z</time>
      </trkpt>
      <trkpt lat="43.337309" lon="-6.404966">
        <ele>703.433</ele>
        <time>1999-07-22T17:29:46Z</time>
      </trkpt>
      <trkpt lat="43.337288" lon="-6.405082">
        <ele>703.010</ele>
        <time>1999-07-22T17:29:47Z</time>
      </trkpt>
      <trkpt lat="43.337244" lon="-6.405319">
        <ele>702.266</ele>
        <time>1999-07-22T17:29:49Z</time>
      </trkpt>
      <trkpt lat="43.337182" lon="-6.405706">
        <ele>701.012</ele>
        <time>1999-07-22T17:29:52Z</time>
      </trkpt>
      <trkpt lat="43.337147" lon="-6.405987">
        <ele>700.232</ele>
        <time>1999-07-22T17:29:54Z</time>
      </trkpt>
      <trkpt lat="43.337132" lon="-6.406132">
        <ele>699.805</ele>
        <time>1999-07-22T17:29:55Z</time>
      </trkpt>
      <trkpt lat="43.337086" lon="-6.406587">
        <ele>698.408</ele>
        <time>1999-07-22T17:29:58Z</time>
      </trkpt>
      <trkpt lat="43.337044" lon="-6.406892">
        <ele>696.864</ele>
        <time>1999-07-22T17:30:00Z</time>
      </trkpt>
      <trkpt lat="43.336995" lon="-6.407205">
        <ele>695.459</ele>
        <time>1999-07-22T17:30:02Z</time>
      </trkpt>
      <trkpt lat="43.336955" lon="-6.407513">
        <ele>694.020</ele>
        <time>1999-07-22T17:30:04Z</time>
      </trkpt>
      <trkpt lat="43.336943" lon="-6.407795">
        <ele>692.876</ele>
        <time>1999-07-22T17:30:06Z</time>
      </trkpt>
      <trkpt lat="43.336948" lon="-6.408030">
        <ele>691.642</ele>
        <time>1999-07-22T17:30:08Z</time>
      </trkpt>
      <trkpt lat="43.336943" lon="-6.408140">
        <ele>691.099</ele>
        <time>1999-07-22T17:30:09Z</time>
      </trkpt>
      <trkpt lat="43.336926" lon="-6.408246">
        <ele>690.456</ele>
        <time>1999-07-22T17:30:10Z</time>
      </trkpt>
      <trkpt lat="43.336863" lon="-6.408423">
        <ele>689.242</ele>
        <time>1999-07-22T17:30:12Z</time>
      </trkpt>
      <trkpt lat="43.336826" lon="-6.408497">
        <ele>688.096</ele>
        <time>1999-07-22T17:30:13Z</time>
      </trkpt>
      <trkpt lat="43.336788" lon="-6.408573">
        <ele>687.031</ele>
        <time>1999-07-22T17:30:14Z</time>
      </trkpt>
      <trkpt lat="43.336748" lon="-6.408653">
        <ele>685.624</ele>
        <time>1999-07-22T17:30:15Z</time>
      </trkpt>
      <trkpt lat="43.336707" lon="-6.408736">
        <ele>684.608</ele>
        <time>1999-07-22T17:30:16Z</time>
      </trkpt>
      <trkpt lat="43.336620" lon="-6.408905">
        <ele>683.042</ele>
        <time>1999-07-22T17:30:18Z</time>
      </trkpt>
      <trkpt lat="43.336580" lon="-6.408987">
        <ele>682.287</ele>
        <time>1999-07-22T17:30:19Z</time>
      </trkpt>
      <trkpt lat="43.336544" lon="-6.409058">
        <ele>681.818</ele>
        <time>1999-07-22T17:30:20Z</time>
      </trkpt>
      <trkpt lat="43.336468" lon="-6.409234">
        <ele>680.454</ele>
        <time>1999-07-22T17:30:23Z</time>
      </trkpt>
      <trkpt lat="43.336444" lon="-6.409279">
        <ele>679.850</ele>
        <time>1999-07-22T17:30:24Z</time>
      </trkpt>
      <trkpt lat="43.336381" lon="-6.409291">
        <ele>679.047</ele>
        <time>1999-07-22T17:30:26Z</time>
      </trkpt>
      <trkpt lat="43.336364" lon="-6.409238">
        <ele>677.444</ele>
        <time>1999-07-22T17:30:28Z</time>
      </trkpt>
      <trkpt lat="43.336361" lon="-6.409200">
        <ele>676.880</ele>
        <time>1999-07-22T17:30:29Z</time>
      </trkpt>
      <trkpt lat="43.336360" lon="-6.409149">
        <ele>676.216</ele>
        <time>1999-07-22T17:30:30Z</time>
      </trkpt>
      <trkpt lat="43.336382" lon="-6.409008">
        <ele>675.476</ele>
        <time>1999-07-22T17:30:32Z</time>
      </trkpt>
      <trkpt lat="43.336400" lon="-6.408915">
        <ele>675.213</ele>
        <time>1999-07-22T17:30:33Z</time>
      </trkpt>
      <trkpt lat="43.336389" lon="-6.408699">
        <ele>674.808</ele>
        <time>1999-07-22T17:30:35Z</time>
      </trkpt>
      <trkpt lat="43.336326" lon="-6.408481">
        <ele>674.694</ele>
        <time>1999-07-22T17:30:37Z</time>
      </trkpt>
      <trkpt lat="43.336293" lon="-6.408390">
        <ele>674.499</ele>
        <time>1999-07-22T17:30:38Z</time>
      </trkpt>
      <trkpt lat="43.336223" lon="-6.408230">
        <ele>674.030</ele>
        <time>1999-07-22T17:30:40Z</time>
      </trkpt>
      <trkpt lat="43.336157" lon="-6.408096">
        <ele>672.816</ele>
        <time>1999-07-22T17:30:42Z</time>
      </trkpt>
      <trkpt lat="43.336123" lon="-6.407966">
        <ele>671.012</ele>
        <time>1999-07-22T17:30:44Z</time>
      </trkpt>
      <trkpt lat="43.336116" lon="-6.407893">
        <ele>669.869</ele>
        <time>1999-07-22T17:30:45Z</time>
      </trkpt>
      <trkpt lat="43.336112" lon="-6.407811">
        <ele>668.676</ele>
        <time>1999-07-22T17:30:46Z</time>
      </trkpt>
      <trkpt lat="43.336107" lon="-6.407729">
        <ele>667.472</ele>
        <time>1999-07-22T17:30:47Z</time>
      </trkpt>
      <trkpt lat="43.336099" lon="-6.407645">
        <ele>666.281</ele>
        <time>1999-07-22T17:30:48Z</time>
      </trkpt>
      <trkpt lat="43.336086" lon="-6.407495">
        <ele>664.461</ele>
        <time>1999-07-22T17:30:50Z</time>
      </trkpt>
      <trkpt lat="43.336087" lon="-6.407437">
        <ele>663.417</ele>
        <time>1999-07-22T17:30:51Z</time>
      </trkpt>
      <trkpt lat="43.336084" lon="-6.407385">
        <ele>662.608</ele>
        <time>1999-07-22T17:30:52Z</time>
      </trkpt>
      <trkpt lat="43.336069" lon="-6.407300">
        <ele>661.471</ele>
        <time>1999-07-22T17:30:54Z</time>
      </trkpt>
      <trkpt lat="43.336061" lon="-6.407254">
        <ele>661.066</ele>
        <time>1999-07-22T17:30:55Z</time>
      </trkpt>
      <trkpt lat="43.336042" lon="-6.407160">
        <ele>660.277</ele>
        <time>1999-07-22T17:30:57Z</time>
      </trkpt>
      <trkpt lat="43.336003" lon="-6.407107">
        <ele>659.683</ele>
        <time>1999-07-22T17:30:59Z</time>
      </trkpt>
      <trkpt lat="43.335980" lon="-6.407102">
        <ele>659.249</ele>
        <time>1999-07-22T17:31:00Z</time>
      </trkpt>
      <trkpt lat="43.335892" lon="-6.407071">
        <ele>658.436</ele>
        <time>1999-07-22T17:31:03Z</time>
      </trkpt>
      <trkpt lat="43.335873" lon="-6.407035">
        <ele>658.233</ele>
        <time>1999-07-22T17:31:04Z</time>
      </trkpt>
      <trkpt lat="43.335867" lon="-6.406991">
        <ele>658.019</ele>
        <time>1999-07-22T17:31:05Z</time>
      </trkpt>
      <trkpt lat="43.335900" lon="-6.406939">
        <ele>657.228</ele>
        <time>1999-07-22T17:31:07Z</time>
      </trkpt>
      <trkpt lat="43.335925" lon="-6.406941">
        <ele>656.889</ele>
        <time>1999-07-22T17:31:08Z</time>
      </trkpt>
      <trkpt lat="43.335955" lon="-6.406991">
        <ele>655.817</ele>
        <time>1999-07-22T17:31:10Z</time>
      </trkpt>
      <trkpt lat="43.335969" lon="-6.407026">
        <ele>655.608</ele>
        <time>1999-07-22T17:31:11Z</time>
      </trkpt>
      <trkpt lat="43.336001" lon="-6.407108">
        <ele>655.495</ele>
        <time>1999-07-22T17:31:13Z</time>
      </trkpt>
      <trkpt lat="43.336031" lon="-6.407188">
        <ele>655.280</ele>
        <time>1999-07-22T17:31:15Z</time>
      </trkpt>
      <trkpt lat="43.336052" lon="-6.407268">
        <ele>655.271</ele>
        <time>1999-07-22T17:31:17Z</time>
      </trkpt>
      <trkpt lat="43.336069" lon="-6.407353">
        <ele>655.237</ele>
        <time>1999-07-22T17:31:19Z</time>
      </trkpt>
      <trkpt lat="43.336078" lon="-6.407388">
        <ele>655.493</ele>
        <time>1999-07-22T17:31:20Z</time>
      </trkpt>
      <trkpt lat="43.336096" lon="-6.407485">
        <ele>656.670</ele>
        <time>1999-07-22T17:31:23Z</time>
      </trkpt>
      <trkpt lat="43.336115" lon="-6.407580">
        <ele>657.667</ele>
        <time>1999-07-22T17:31:26Z</time>
      </trkpt>
      <trkpt lat="43.336117" lon="-6.407646">
        <ele>658.213</ele>
        <time>1999-07-22T17:31:28Z</time>
      </trkpt>
      <trkpt lat="43.336120" lon="-6.407783">
        <ele>658.877</ele>
        <time>1999-07-22T17:31:32Z</time>
      </trkpt>
      <trkpt lat="43.336147" lon="-6.407916">
        <ele>659.061</ele>
        <time>1999-07-22T17:31:36Z</time>
      </trkpt>
      <trkpt lat="43.336183" lon="-6.408027">
        <ele>659.427</ele>
        <time>1999-07-22T17:31:41Z</time>
      </trkpt>
      <trkpt lat="43.336181" lon="-6.408044">
        <ele>659.408</ele>
        <time>1999-07-22T17:31:42Z</time>
      </trkpt>
      <trkpt lat="43.336158" lon="-6.408049">
        <ele>659.840</ele>
        <time>1999-07-22T17:31:44Z</time>
      </trkpt>
      <trkpt lat="43.336146" lon="-6.408024">
        <ele>660.055</ele>
        <time>1999-07-22T17:31:45Z</time>
      </trkpt>
      <trkpt lat="43.336123" lon="-6.407905">
        <ele>660.686</ele>
        <time>1999-07-22T17:31:48Z</time>
      </trkpt>
      <trkpt lat="43.336106" lon="-6.407786">
        <ele>660.892</ele>
        <time>1999-07-22T17:31:50Z</time>
      </trkpt>
      <trkpt lat="43.336103" lon="-6.407722">
        <ele>660.888</ele>
        <time>1999-07-22T17:31:51Z</time>
      </trkpt>
      <trkpt lat="43.336104" lon="-6.407478">
        <ele>660.895</ele>
        <time>1999-07-22T17:31:55Z</time>
      </trkpt>
      <trkpt lat="43.336121" lon="-6.407330">
        <ele>660.692</ele>
        <time>1999-07-22T17:31:58Z</time>
      </trkpt>
      <trkpt lat="43.336128" lon="-6.407275">
        <ele>660.258</ele>
        <time>1999-07-22T17:32:00Z</time>
      </trkpt>
      <trkpt lat="43.336145" lon="-6.407260">
        <ele>659.697</ele>
        <time>1999-07-22T17:32:03Z</time>
      </trkpt>
      <trkpt lat="43.336158" lon="-6.407322">
        <ele>659.823</ele>
        <time>1999-07-22T17:41:55Z</time>
      </trkpt>
      <trkpt lat="43.336122" lon="-6.407392">
        <ele>659.825</ele>
        <time>1999-07-22T17:41:59Z</time>
      </trkpt>
      <trkpt lat="43.336092" lon="-6.407377">
        <ele>659.808</ele>
        <time>1999-07-22T17:42:01Z</time>
      </trkpt>
      <trkpt lat="43.336089" lon="-6.407281">
        <ele>659.832</ele>
        <time>1999-07-22T17:42:04Z</time>
      </trkpt>
      <trkpt lat="43.336091" lon="-6.407242">
        <ele>659.837</ele>
        <time>1999-07-22T17:42:05Z</time>
      </trkpt>
      <trkpt lat="43.336069" lon="-6.407106">
        <ele>659.868</ele>
        <time>1999-07-22T17:42:09Z</time>
      </trkpt>
      <trkpt lat="43.336054" lon="-6.407082">
        <ele>659.624</ele>
        <time>1999-07-22T17:42:10Z</time>
      </trkpt>
      <trkpt lat="43.335973" lon="-6.407015">
        <ele>659.450</ele>
        <time>1999-07-22T17:42:14Z</time>
      </trkpt>
      <trkpt lat="43.335955" lon="-6.406988">
        <ele>659.257</ele>
        <time>1999-07-22T17:42:15Z</time>
      </trkpt>
      <trkpt lat="43.335933" lon="-6.406965">
        <ele>658.864</ele>
        <time>1999-07-22T17:42:19Z</time>
      </trkpt>
      <trkpt lat="43.335916" lon="-6.406909">
        <ele>656.260</ele>
        <time>1999-07-22T17:42:42Z</time>
      </trkpt>
      <trkpt lat="43.335900" lon="-6.406848">
        <ele>656.297</ele>
        <time>1999-07-22T17:42:44Z</time>
      </trkpt>
      <trkpt lat="43.335881" lon="-6.406782">
        <ele>656.223</ele>
        <time>1999-07-22T17:42:46Z</time>
      </trkpt>
      <trkpt lat="43.335842" lon="-6.406641">
        <ele>656.425</ele>
        <time>1999-07-22T17:42:51Z</time>
      </trkpt>
      <trkpt lat="43.335827" lon="-6.406605">
        <ele>656.408</ele>
        <time>1999-07-22T17:42:53Z</time>
      </trkpt>
      <trkpt lat="43.335778" lon="-6.406518">
        <ele>656.422</ele>
        <time>1999-07-22T17:42:57Z</time>
      </trkpt>
      <trkpt lat="43.335727" lon="-6.406452">
        <ele>656.457</ele>
        <time>1999-07-22T17:43:00Z</time>
      </trkpt>
      <trkpt lat="43.335676" lon="-6.406402">
        <ele>656.458</ele>
        <time>1999-07-22T17:43:03Z</time>
      </trkpt>
      <trkpt lat="43.335619" lon="-6.406345">
        <ele>656.654</ele>
        <time>1999-07-22T17:43:06Z</time>
      </trkpt>
      <trkpt lat="43.335563" lon="-6.406279">
        <ele>656.830</ele>
        <time>1999-07-22T17:43:09Z</time>
      </trkpt>
      <trkpt lat="43.335517" lon="-6.406251">
        <ele>656.897</ele>
        <time>1999-07-22T17:43:11Z</time>
      </trkpt>
      <trkpt lat="43.335442" lon="-6.406215">
        <ele>657.094</ele>
        <time>1999-07-22T17:43:14Z</time>
      </trkpt>
      <trkpt lat="43.335395" lon="-6.406173">
        <ele>657.490</ele>
        <time>1999-07-22T17:43:16Z</time>
      </trkpt>
      <trkpt lat="43.335372" lon="-6.406149">
        <ele>657.615</ele>
        <time>1999-07-22T17:43:17Z</time>
      </trkpt>
      <trkpt lat="43.335249" lon="-6.406043">
        <ele>658.065</ele>
        <time>1999-07-22T17:43:22Z</time>
      </trkpt>
      <trkpt lat="43.335172" lon="-6.405987">
        <ele>658.011</ele>
        <time>1999-07-22T17:43:25Z</time>
      </trkpt>
      <trkpt lat="43.335103" lon="-6.405927">
        <ele>658.608</ele>
        <time>1999-07-22T17:43:28Z</time>
      </trkpt>
      <trkpt lat="43.334975" lon="-6.405803">
        <ele>659.084</ele>
        <time>1999-07-22T17:43:34Z</time>
      </trkpt>
      <trkpt lat="43.334878" lon="-6.405735">
        <ele>659.679</ele>
        <time>1999-07-22T17:43:38Z</time>
      </trkpt>
      <trkpt lat="43.334776" lon="-6.405673">
        <ele>660.090</ele>
        <time>1999-07-22T17:43:42Z</time>
      </trkpt>
      <trkpt lat="43.334686" lon="-6.405588">
        <ele>660.676</ele>
        <time>1999-07-22T17:43:46Z</time>
      </trkpt>
      <trkpt lat="43.334666" lon="-6.405561">
        <ele>660.692</ele>
        <time>1999-07-22T17:43:47Z</time>
      </trkpt>
      <trkpt lat="43.334494" lon="-6.405387">
        <ele>661.299</ele>
        <time>1999-07-22T17:43:54Z</time>
      </trkpt>
      <trkpt lat="43.334335" lon="-6.405250">
        <ele>661.646</ele>
        <time>1999-07-22T17:44:00Z</time>
      </trkpt>
      <trkpt lat="43.334290" lon="-6.405197">
        <ele>661.882</ele>
        <time>1999-07-22T17:44:02Z</time>
      </trkpt>
      <trkpt lat="43.334180" lon="-6.404952">
        <ele>662.831</ele>
        <time>1999-07-22T17:44:09Z</time>
      </trkpt>
      <trkpt lat="43.334153" lon="-6.404692">
        <ele>664.061</ele>
        <time>1999-07-22T17:44:15Z</time>
      </trkpt>
      <trkpt lat="43.334168" lon="-6.404479">
        <ele>664.607</ele>
        <time>1999-07-22T17:44:20Z</time>
      </trkpt>
      <trkpt lat="43.334191" lon="-6.404232">
        <ele>665.008</ele>
        <time>1999-07-22T17:44:26Z</time>
      </trkpt>
      <trkpt lat="43.334201" lon="-6.404102">
        <ele>665.066</ele>
        <time>1999-07-22T17:44:29Z</time>
      </trkpt>
      <trkpt lat="43.334249" lon="-6.403704">
        <ele>665.681</ele>
        <time>1999-07-22T17:44:37Z</time>
      </trkpt>
      <trkpt lat="43.334288" lon="-6.403436">
        <ele>665.852</ele>
        <time>1999-07-22T17:44:42Z</time>
      </trkpt>
      <trkpt lat="43.334305" lon="-6.403325">
        <ele>666.048</ele>
        <time>1999-07-22T17:44:44Z</time>
      </trkpt>
      <trkpt lat="43.334328" lon="-6.403216">
        <ele>666.034</ele>
        <time>1999-07-22T17:44:46Z</time>
      </trkpt>
      <trkpt lat="43.334399" lon="-6.402855">
        <ele>666.461</ele>
        <time>1999-07-22T17:44:52Z</time>
      </trkpt>
      <trkpt lat="43.334564" lon="-6.402192">
        <ele>666.448</ele>
        <time>1999-07-22T17:45:02Z</time>
      </trkpt>
      <trkpt lat="43.334698" lon="-6.401622">
        <ele>666.284</ele>
        <time>1999-07-22T17:45:11Z</time>
      </trkpt>
      <trkpt lat="43.334807" lon="-6.401166">
        <ele>666.224</ele>
        <time>1999-07-22T17:45:18Z</time>
      </trkpt>
      <trkpt lat="43.334901" lon="-6.400835">
        <ele>666.204</ele>
        <time>1999-07-22T17:45:24Z</time>
      </trkpt>
      <trkpt lat="43.334963" lon="-6.400627">
        <ele>666.414</ele>
        <time>1999-07-22T17:45:29Z</time>
      </trkpt>
      <trkpt lat="43.334978" lon="-6.400601">
        <ele>666.408</ele>
        <time>1999-07-22T17:45:30Z</time>
      </trkpt>
      <trkpt lat="43.334998" lon="-6.400591">
        <ele>666.435</ele>
        <time>1999-07-22T17:45:31Z</time>
      </trkpt>
      <trkpt lat="43.335006" lon="-6.400634">
        <ele>666.430</ele>
        <time>1999-07-22T17:45:33Z</time>
      </trkpt>
      <trkpt lat="43.334953" lon="-6.400816">
        <ele>666.441</ele>
        <time>1999-07-22T17:45:37Z</time>
      </trkpt>
      <trkpt lat="43.334884" lon="-6.401026">
        <ele>666.437</ele>
        <time>1999-07-22T17:45:41Z</time>
      </trkpt>
      <trkpt lat="43.334863" lon="-6.401062">
        <ele>666.413</ele>
        <time>1999-07-22T17:45:42Z</time>
      </trkpt>
      <trkpt lat="43.334839" lon="-6.401071">
        <ele>666.490</ele>
        <time>1999-07-22T17:45:43Z</time>
      </trkpt>
      <trkpt lat="43.334823" lon="-6.401056">
        <ele>666.457</ele>
        <time>1999-07-22T17:45:44Z</time>
      </trkpt>
      <trkpt lat="43.334811" lon="-6.400973">
        <ele>666.443</ele>
        <time>1999-07-22T17:45:46Z</time>
      </trkpt>
      <trkpt lat="43.334836" lon="-6.400774">
        <ele>666.482</ele>
        <time>1999-07-22T17:45:49Z</time>
      </trkpt>
      <trkpt lat="43.334852" lon="-6.400714">
        <ele>666.243</ele>
        <time>1999-07-22T17:45:50Z</time>
      </trkpt>
      <trkpt lat="43.334891" lon="-6.400560">
        <ele>666.017</ele>
        <time>1999-07-22T17:45:53Z</time>
      </trkpt>
      <trkpt lat="43.334903" lon="-6.400490">
        <ele>665.608</ele>
        <time>1999-07-22T17:45:55Z</time>
      </trkpt>
      <trkpt lat="43.334897" lon="-6.400468">
        <ele>665.081</ele>
        <time>1999-07-22T17:45:56Z</time>
      </trkpt>
      <trkpt lat="43.334886" lon="-6.400441">
        <ele>663.436</ele>
        <time>1999-07-22T17:45:59Z</time>
      </trkpt>
      <trkpt lat="43.334887" lon="-6.400439">
        <ele>663.097</ele>
        <time>1999-07-22T17:46:00Z</time>
      </trkpt>
      <trkpt lat="43.334867" lon="-6.400464">
        <ele>660.493</ele>
        <time>1999-07-22T17:46:08Z</time>
      </trkpt>
      <trkpt lat="43.334850" lon="-6.400492">
        <ele>660.499</ele>
        <time>1999-07-22T17:46:09Z</time>
      </trkpt>
      <trkpt lat="43.334834" lon="-6.400531">
        <ele>660.476</ele>
        <time>1999-07-22T17:46:10Z</time>
      </trkpt>
      <trkpt lat="43.334787" lon="-6.400621">
        <ele>660.233</ele>
        <time>1999-07-22T17:46:12Z</time>
      </trkpt>
      <trkpt lat="43.334723" lon="-6.400664">
        <ele>660.249</ele>
        <time>1999-07-22T17:46:14Z</time>
      </trkpt>
      <trkpt lat="43.334704" lon="-6.400609">
        <ele>660.037</ele>
        <time>1999-07-22T17:46:16Z</time>
      </trkpt>
      <trkpt lat="43.334714" lon="-6.400496">
        <ele>659.649</ele>
        <time>1999-07-22T17:46:18Z</time>
      </trkpt>
      <trkpt lat="43.334718" lon="-6.400421">
        <ele>659.613</ele>
        <time>1999-07-22T17:46:19Z</time>
      </trkpt>
      <trkpt lat="43.334722" lon="-6.400338">
        <ele>659.408</ele>
        <time>1999-07-22T17:46:20Z</time>
      </trkpt>
      <trkpt lat="43.334757" lon="-6.400069">
        <ele>658.826</ele>
        <time>1999-07-22T17:46:23Z</time>
      </trkpt>
      <trkpt lat="43.334781" lon="-6.399983">
        <ele>658.481</ele>
        <time>1999-07-22T17:46:24Z</time>
      </trkpt>
      <trkpt lat="43.334808" lon="-6.399898">
        <ele>658.292</ele>
        <time>1999-07-22T17:46:25Z</time>
      </trkpt>
      <trkpt lat="43.334861" lon="-6.399744">
        <ele>656.848</ele>
        <time>1999-07-22T17:46:27Z</time>
      </trkpt>
      <trkpt lat="43.334879" lon="-6.399673">
        <ele>656.044</ele>
        <time>1999-07-22T17:46:28Z</time>
      </trkpt>
      <trkpt lat="43.334887" lon="-6.399606">
        <ele>655.241</ele>
        <time>1999-07-22T17:46:29Z</time>
      </trkpt>
      <trkpt lat="43.334888" lon="-6.399545">
        <ele>654.228</ele>
        <time>1999-07-22T17:46:30Z</time>
      </trkpt>
      <trkpt lat="43.334889" lon="-6.399467">
        <ele>653.264</ele>
        <time>1999-07-22T17:46:32Z</time>
      </trkpt>
      <trkpt lat="43.334898" lon="-6.399461">
        <ele>653.032</ele>
        <time>1999-07-22T17:46:33Z</time>
      </trkpt>
      <trkpt lat="43.334905" lon="-6.399464">
        <ele>652.492</ele>
        <time>1999-07-22T17:46:36Z</time>
      </trkpt>
      <trkpt lat="43.334854" lon="-6.401187">
        <ele>673.281</ele>
        <time>1999-07-24T08:22:52Z</time>
      </trkpt>
      <trkpt lat="43.334854" lon="-6.401186">
        <ele>673.661</ele>
        <time>1999-07-24T08:22:53Z</time>
      </trkpt>
      <trkpt lat="43.334879" lon="-6.401239">
        <ele>675.617</ele>
        <time>1999-07-24T08:23:02Z</time>
      </trkpt>
      <trkpt lat="43.334879" lon="-6.401311">
        <ele>675.608</ele>
        <time>1999-07-24T08:23:04Z</time>
      </trkpt>
      <trkpt lat="43.334874" lon="-6.401496">
        <ele>675.861</ele>
        <time>1999-07-24T08:23:09Z</time>
      </trkpt>
      <trkpt lat="43.334796" lon="-6.401827">
        <ele>675.877</ele>
        <time>1999-07-24T08:23:15Z</time>
      </trkpt>
      <trkpt lat="43.334712" lon="-6.402213">
        <ele>675.818</ele>
        <time>1999-07-24T08:23:21Z</time>
      </trkpt>
      <trkpt lat="43.334612" lon="-6.402633">
        <ele>676.239</ele>
        <time>1999-07-24T08:23:27Z</time>
      </trkpt>
      <trkpt lat="43.334582" lon="-6.402760">
        <ele>676.293</ele>
        <time>1999-07-24T08:23:29Z</time>
      </trkpt>
      <trkpt lat="43.334481" lon="-6.403231">
        <ele>676.492</ele>
        <time>1999-07-24T08:23:36Z</time>
      </trkpt>
      <trkpt lat="43.334443" lon="-6.403375">
        <ele>676.448</ele>
        <time>1999-07-24T08:23:38Z</time>
      </trkpt>
      <trkpt lat="43.334427" lon="-6.403451">
        <ele>676.450</ele>
        <time>1999-07-24T08:23:39Z</time>
      </trkpt>
      <trkpt lat="43.334378" lon="-6.403822">
        <ele>676.629</ele>
        <time>1999-07-24T08:23:44Z</time>
      </trkpt>
      <trkpt lat="43.334361" lon="-6.403965">
        <ele>676.600</ele>
        <time>1999-07-24T08:23:46Z</time>
      </trkpt>
      <trkpt lat="43.334337" lon="-6.404139">
        <ele>676.620</ele>
        <time>1999-07-24T08:23:48Z</time>
      </trkpt>
      <trkpt lat="43.334297" lon="-6.404589">
        <ele>676.608</ele>
        <time>1999-07-24T08:23:53Z</time>
      </trkpt>
      <trkpt lat="43.334297" lon="-6.404771">
        <ele>676.665</ele>
        <time>1999-07-24T08:23:55Z</time>
      </trkpt>
      <trkpt lat="43.334325" lon="-6.405039">
        <ele>676.621</ele>
        <time>1999-07-24T08:23:58Z</time>
      </trkpt>
      <trkpt lat="43.334352" lon="-6.405124">
        <ele>676.662</ele>
        <time>1999-07-24T08:23:59Z</time>
      </trkpt>
      <trkpt lat="43.334456" lon="-6.405313">
        <ele>676.683</ele>
        <time>1999-07-24T08:24:02Z</time>
      </trkpt>
      <trkpt lat="43.334494" lon="-6.405356">
        <ele>676.657</ele>
        <time>1999-07-24T08:24:03Z</time>
      </trkpt>
      <trkpt lat="43.334543" lon="-6.405395">
        <ele>676.646</ele>
        <time>1999-07-24T08:24:04Z</time>
      </trkpt>
      <trkpt lat="43.334649" lon="-6.405485">
        <ele>676.432</ele>
        <time>1999-07-24T08:24:06Z</time>
      </trkpt>
      <trkpt lat="43.334873" lon="-6.405734">
        <ele>675.284</ele>
        <time>1999-07-24T08:24:10Z</time>
      </trkpt>
      <trkpt lat="43.334937" lon="-6.405793">
        <ele>674.857</ele>
        <time>1999-07-24T08:24:11Z</time>
      </trkpt>
      <trkpt lat="43.335062" lon="-6.405920">
        <ele>674.200</ele>
        <time>1999-07-24T08:24:13Z</time>
      </trkpt>
      <trkpt lat="43.335254" lon="-6.406118">
        <ele>673.620</ele>
        <time>1999-07-24T08:24:16Z</time>
      </trkpt>
      <trkpt lat="43.335323" lon="-6.406173">
        <ele>673.208</ele>
        <time>1999-07-24T08:24:17Z</time>
      </trkpt>
      <trkpt lat="43.335394" lon="-6.406225">
        <ele>672.838</ele>
        <time>1999-07-24T08:24:18Z</time>
      </trkpt>
      <trkpt lat="43.335536" lon="-6.406335">
        <ele>672.494</ele>
        <time>1999-07-24T08:24:20Z</time>
      </trkpt>
      <trkpt lat="43.335671" lon="-6.406450">
        <ele>672.295</ele>
        <time>1999-07-24T08:24:22Z</time>
      </trkpt>
      <trkpt lat="43.335728" lon="-6.406515">
        <ele>672.076</ele>
        <time>1999-07-24T08:24:23Z</time>
      </trkpt>
      <trkpt lat="43.335777" lon="-6.406590">
        <ele>671.490</ele>
        <time>1999-07-24T08:24:24Z</time>
      </trkpt>
      <trkpt lat="43.335849" lon="-6.406767">
        <ele>670.699</ele>
        <time>1999-07-24T08:24:26Z</time>
      </trkpt>
      <trkpt lat="43.335901" lon="-6.406967">
        <ele>670.275</ele>
        <time>1999-07-24T08:24:28Z</time>
      </trkpt>
      <trkpt lat="43.335921" lon="-6.407171">
        <ele>669.447</ele>
        <time>1999-07-24T08:24:30Z</time>
      </trkpt>
      <trkpt lat="43.335923" lon="-6.407274">
        <ele>668.856</ele>
        <time>1999-07-24T08:24:31Z</time>
      </trkpt>
      <trkpt lat="43.335928" lon="-6.407688">
        <ele>667.659</ele>
        <time>1999-07-24T08:24:35Z</time>
      </trkpt>
      <trkpt lat="43.335930" lon="-6.407900">
        <ele>667.414</ele>
        <time>1999-07-24T08:24:37Z</time>
      </trkpt>
      <trkpt lat="43.335987" lon="-6.408630">
        <ele>666.608</ele>
        <time>1999-07-24T08:24:44Z</time>
      </trkpt>
      <trkpt lat="43.336013" lon="-6.408835">
        <ele>666.668</ele>
        <time>1999-07-24T08:24:46Z</time>
      </trkpt>
      <trkpt lat="43.336045" lon="-6.409458">
        <ele>666.034</ele>
        <time>1999-07-24T08:24:52Z</time>
      </trkpt>
      <trkpt lat="43.336049" lon="-6.409560">
        <ele>665.885</ele>
        <time>1999-07-24T08:24:53Z</time>
      </trkpt>
      <trkpt lat="43.336079" lon="-6.409753">
        <ele>665.456</ele>
        <time>1999-07-24T08:24:55Z</time>
      </trkpt>
      <trkpt lat="43.336102" lon="-6.409848">
        <ele>665.240</ele>
        <time>1999-07-24T08:24:56Z</time>
      </trkpt>
      <trkpt lat="43.336155" lon="-6.410150">
        <ele>664.419</ele>
        <time>1999-07-24T08:24:59Z</time>
      </trkpt>
      <trkpt lat="43.336133" lon="-6.410346">
        <ele>664.015</ele>
        <time>1999-07-24T08:25:01Z</time>
      </trkpt>
      <trkpt lat="43.336002" lon="-6.410579">
        <ele>663.477</ele>
        <time>1999-07-24T08:25:04Z</time>
      </trkpt>
      <trkpt lat="43.335844" lon="-6.410896">
        <ele>663.045</ele>
        <time>1999-07-24T08:25:08Z</time>
      </trkpt>
      <trkpt lat="43.335821" lon="-6.410987">
        <ele>663.047</ele>
        <time>1999-07-24T08:25:09Z</time>
      </trkpt>
      <trkpt lat="43.335745" lon="-6.411363">
        <ele>662.811</ele>
        <time>1999-07-24T08:25:13Z</time>
      </trkpt>
      <trkpt lat="43.335732" lon="-6.411457">
        <ele>662.808</ele>
        <time>1999-07-24T08:25:14Z</time>
      </trkpt>
      <trkpt lat="43.335640" lon="-6.412110">
        <ele>662.697</ele>
        <time>1999-07-24T08:25:21Z</time>
      </trkpt>
      <trkpt lat="43.335579" lon="-6.412689">
        <ele>662.613</ele>
        <time>1999-07-24T08:25:27Z</time>
      </trkpt>
      <trkpt lat="43.335530" lon="-6.412980">
        <ele>662.634</ele>
        <time>1999-07-24T08:25:30Z</time>
      </trkpt>
      <trkpt lat="43.335464" lon="-6.413161">
        <ele>662.465</ele>
        <time>1999-07-24T08:25:32Z</time>
      </trkpt>
      <trkpt lat="43.335384" lon="-6.413338">
        <ele>662.489</ele>
        <time>1999-07-24T08:25:34Z</time>
      </trkpt>
      <trkpt lat="43.335332" lon="-6.413425">
        <ele>662.498</ele>
        <time>1999-07-24T08:25:35Z</time>
      </trkpt>
      <trkpt lat="43.335210" lon="-6.413586">
        <ele>662.224</ele>
        <time>1999-07-24T08:25:37Z</time>
      </trkpt>
      <trkpt lat="43.335145" lon="-6.413661">
        <ele>662.076</ele>
        <time>1999-07-24T08:25:38Z</time>
      </trkpt>
      <trkpt lat="43.334896" lon="-6.413968">
        <ele>661.094</ele>
        <time>1999-07-24T08:25:42Z</time>
      </trkpt>
      <trkpt lat="43.334843" lon="-6.414052">
        <ele>660.657</ele>
        <time>1999-07-24T08:25:43Z</time>
      </trkpt>
      <trkpt lat="43.334704" lon="-6.414331">
        <ele>660.022</ele>
        <time>1999-07-24T08:25:46Z</time>
      </trkpt>
      <trkpt lat="43.334631" lon="-6.414527">
        <ele>659.608</ele>
        <time>1999-07-24T08:25:48Z</time>
      </trkpt>
      <trkpt lat="43.334475" lon="-6.414998">
        <ele>658.672</ele>
        <time>1999-07-24T08:25:53Z</time>
      </trkpt>
      <trkpt lat="43.334410" lon="-6.415169">
        <ele>658.478</ele>
        <time>1999-07-24T08:25:55Z</time>
      </trkpt>
      <trkpt lat="43.334299" lon="-6.415421">
        <ele>657.659</ele>
        <time>1999-07-24T08:25:58Z</time>
      </trkpt>
      <trkpt lat="43.334222" lon="-6.415588">
        <ele>657.450</ele>
        <time>1999-07-24T08:26:00Z</time>
      </trkpt>
      <trkpt lat="43.334190" lon="-6.415668">
        <ele>657.284</ele>
        <time>1999-07-24T08:26:01Z</time>
      </trkpt>
      <trkpt lat="43.334173" lon="-6.415746">
        <ele>657.013</ele>
        <time>1999-07-24T08:26:02Z</time>
      </trkpt>
      <trkpt lat="43.334137" lon="-6.415869">
        <ele>656.869</ele>
        <time>1999-07-24T08:26:04Z</time>
      </trkpt>
      <trkpt lat="43.334116" lon="-6.415915">
        <ele>656.641</ele>
        <time>1999-07-24T08:26:05Z</time>
      </trkpt>
      <trkpt lat="43.334076" lon="-6.415983">
        <ele>656.222</ele>
        <time>1999-07-24T08:26:07Z</time>
      </trkpt>
      <trkpt lat="43.334019" lon="-6.416038">
        <ele>655.862</ele>
        <time>1999-07-24T08:26:09Z</time>
      </trkpt>
      <trkpt lat="43.333995" lon="-6.416080">
        <ele>655.408</ele>
        <time>1999-07-24T08:26:10Z</time>
      </trkpt>
      <trkpt lat="43.333939" lon="-6.416174">
        <ele>654.408</ele>
        <time>1999-07-24T08:26:12Z</time>
      </trkpt>
      <trkpt lat="43.333910" lon="-6.416220">
        <ele>654.255</ele>
        <time>1999-07-24T08:26:13Z</time>
      </trkpt>
      <trkpt lat="43.333880" lon="-6.416267">
        <ele>653.881</ele>
        <time>1999-07-24T08:26:14Z</time>
      </trkpt>
      <trkpt lat="43.333870" lon="-6.416446">
        <ele>653.252</ele>
        <time>1999-07-24T08:26:17Z</time>
      </trkpt>
      <trkpt lat="43.333921" lon="-6.416565">
        <ele>653.283</ele>
        <time>1999-07-24T08:26:19Z</time>
      </trkpt>
      <trkpt lat="43.334007" lon="-6.416664">
        <ele>653.017</ele>
        <time>1999-07-24T08:26:21Z</time>
      </trkpt>
      <trkpt lat="43.334055" lon="-6.416700">
        <ele>653.016</ele>
        <time>1999-07-24T08:26:22Z</time>
      </trkpt>
      <trkpt lat="43.334158" lon="-6.416757">
        <ele>652.822</ele>
        <time>1999-07-24T08:26:24Z</time>
      </trkpt>
      <trkpt lat="43.334260" lon="-6.416746">
        <ele>652.614</ele>
        <time>1999-07-24T08:26:26Z</time>
      </trkpt>
      <trkpt lat="43.334602" lon="-6.416642">
        <ele>652.039</ele>
        <time>1999-07-24T08:26:32Z</time>
      </trkpt>
      <trkpt lat="43.334983" lon="-6.416611">
        <ele>651.801</ele>
        <time>1999-07-24T08:26:39Z</time>
      </trkpt>
      <trkpt lat="43.335036" lon="-6.416605">
        <ele>651.821</ele>
        <time>1999-07-24T08:26:40Z</time>
      </trkpt>
      <trkpt lat="43.335294" lon="-6.416535">
        <ele>651.808</ele>
        <time>1999-07-24T08:26:45Z</time>
      </trkpt>
      <trkpt lat="43.335346" lon="-6.416502">
        <ele>651.856</ele>
        <time>1999-07-24T08:26:46Z</time>
      </trkpt>
      <trkpt lat="43.335449" lon="-6.416470">
        <ele>652.032</ele>
        <time>1999-07-24T08:26:48Z</time>
      </trkpt>
      <trkpt lat="43.335590" lon="-6.416439">
        <ele>652.073</ele>
        <time>1999-07-24T08:26:51Z</time>
      </trkpt>
      <trkpt lat="43.335809" lon="-6.416327">
        <ele>652.474</ele>
        <time>1999-07-24T08:26:57Z</time>
      </trkpt>
      <trkpt lat="43.335901" lon="-6.416285">
        <ele>652.458</ele>
        <time>1999-07-24T08:27:01Z</time>
      </trkpt>
      <trkpt lat="43.335918" lon="-6.416258">
        <ele>652.447</ele>
        <time>1999-07-24T08:27:02Z</time>
      </trkpt>
      <trkpt lat="43.335957" lon="-6.416196">
        <ele>652.673</ele>
        <time>1999-07-24T08:27:04Z</time>
      </trkpt>
      <trkpt lat="43.335982" lon="-6.416148">
        <ele>652.825</ele>
        <time>1999-07-24T08:27:06Z</time>
      </trkpt>
      <trkpt lat="43.335993" lon="-6.416124">
        <ele>653.248</ele>
        <time>1999-07-24T08:27:07Z</time>
      </trkpt>
      <trkpt lat="43.336001" lon="-6.416099">
        <ele>653.661</ele>
        <time>1999-07-24T08:27:08Z</time>
      </trkpt>
      <trkpt lat="43.336022" lon="-6.416064">
        <ele>654.417</ele>
        <time>1999-07-24T08:27:10Z</time>
      </trkpt>
      <trkpt lat="43.336047" lon="-6.416013">
        <ele>655.408</ele>
        <time>1999-07-24T08:27:13Z</time>
      </trkpt>
      <trkpt lat="43.336063" lon="-6.415972">
        <ele>656.687</ele>
        <time>1999-07-24T08:27:15Z</time>
      </trkpt>
      <trkpt lat="43.336083" lon="-6.415896">
        <ele>657.853</ele>
        <time>1999-07-24T08:27:18Z</time>
      </trkpt>
      <trkpt lat="43.336107" lon="-6.415834">
        <ele>658.814</ele>
        <time>1999-07-24T08:27:21Z</time>
      </trkpt>
      <trkpt lat="43.336112" lon="-6.415814">
        <ele>659.215</ele>
        <time>1999-07-24T08:27:22Z</time>
      </trkpt>
      <trkpt lat="43.336115" lon="-6.415793">
        <ele>659.619</ele>
        <time>1999-07-24T08:27:23Z</time>
      </trkpt>
      <trkpt lat="43.336118" lon="-6.415774">
        <ele>660.098</ele>
        <time>1999-07-24T08:27:24Z</time>
      </trkpt>
      <trkpt lat="43.336127" lon="-6.415716">
        <ele>660.854</ele>
        <time>1999-07-24T08:27:27Z</time>
      </trkpt>
      <trkpt lat="43.336131" lon="-6.415696">
        <ele>661.276</ele>
        <time>1999-07-24T08:27:28Z</time>
      </trkpt>
      <trkpt lat="43.336158" lon="-6.415649">
        <ele>662.255</ele>
        <time>1999-07-24T08:27:31Z</time>
      </trkpt>
      <trkpt lat="43.336195" lon="-6.415613">
        <ele>663.407</ele>
        <time>1999-07-24T08:27:35Z</time>
      </trkpt>
      <trkpt lat="43.336201" lon="-6.415603">
        <ele>663.817</ele>
        <time>1999-07-24T08:27:36Z</time>
      </trkpt>
      <trkpt lat="43.336215" lon="-6.415588">
        <ele>664.408</ele>
        <time>1999-07-24T08:27:38Z</time>
      </trkpt>
      <trkpt lat="43.336250" lon="-6.415571">
        <ele>666.048</ele>
        <time>1999-07-24T08:27:41Z</time>
      </trkpt>
      <trkpt lat="43.336270" lon="-6.415567">
        <ele>666.484</ele>
        <time>1999-07-24T08:27:42Z</time>
      </trkpt>
      <trkpt lat="43.336314" lon="-6.415547">
        <ele>667.075</ele>
        <time>1999-07-24T08:27:44Z</time>
      </trkpt>
      <trkpt lat="43.336399" lon="-6.415490">
        <ele>668.046</ele>
        <time>1999-07-24T08:27:47Z</time>
      </trkpt>
      <trkpt lat="43.336436" lon="-6.415467">
        <ele>668.210</ele>
        <time>1999-07-24T08:27:48Z</time>
      </trkpt>
      <trkpt lat="43.336607" lon="-6.415406">
        <ele>668.649</ele>
        <time>1999-07-24T08:27:52Z</time>
      </trkpt>
      <trkpt lat="43.336654" lon="-6.415400">
        <ele>668.855</ele>
        <time>1999-07-24T08:27:53Z</time>
      </trkpt>
      <trkpt lat="43.336832" lon="-6.415399">
        <ele>669.287</ele>
        <time>1999-07-24T08:27:57Z</time>
      </trkpt>
      <trkpt lat="43.336876" lon="-6.415400">
        <ele>669.484</ele>
        <time>1999-07-24T08:27:58Z</time>
      </trkpt>
      <trkpt lat="43.337104" lon="-6.415427">
        <ele>669.607</ele>
        <time>1999-07-24T08:28:04Z</time>
      </trkpt>
      <trkpt lat="43.337247" lon="-6.415469">
        <ele>670.417</ele>
        <time>1999-07-24T08:28:09Z</time>
      </trkpt>
      <trkpt lat="43.337268" lon="-6.415482">
        <ele>670.408</ele>
        <time>1999-07-24T08:28:10Z</time>
      </trkpt>
      <trkpt lat="43.337413" lon="-6.415482">
        <ele>671.651</ele>
        <time>1999-07-24T08:28:17Z</time>
      </trkpt>
      <trkpt lat="43.337493" lon="-6.415455">
        <ele>672.487</ele>
        <time>1999-07-24T08:28:21Z</time>
      </trkpt>
      <trkpt lat="43.337535" lon="-6.415425">
        <ele>673.268</ele>
        <time>1999-07-24T08:28:24Z</time>
      </trkpt>
      <trkpt lat="43.337565" lon="-6.415402">
        <ele>673.889</ele>
        <time>1999-07-24T08:28:26Z</time>
      </trkpt>
      <trkpt lat="43.337624" lon="-6.415363">
        <ele>674.893</ele>
        <time>1999-07-24T08:28:30Z</time>
      </trkpt>
      <trkpt lat="43.337651" lon="-6.415339">
        <ele>675.492</ele>
        <time>1999-07-24T08:28:32Z</time>
      </trkpt>
      <trkpt lat="43.337681" lon="-6.415301">
        <ele>676.088</ele>
        <time>1999-07-24T08:28:34Z</time>
      </trkpt>
      <trkpt lat="43.337714" lon="-6.415261">
        <ele>677.070</ele>
        <time>1999-07-24T08:28:36Z</time>
      </trkpt>
      <trkpt lat="43.337753" lon="-6.415225">
        <ele>677.829</ele>
        <time>1999-07-24T08:28:38Z</time>
      </trkpt>
      <trkpt lat="43.337783" lon="-6.415181">
        <ele>678.200</ele>
        <time>1999-07-24T08:28:40Z</time>
      </trkpt>
      <trkpt lat="43.337838" lon="-6.415120">
        <ele>679.020</ele>
        <time>1999-07-24T08:28:44Z</time>
      </trkpt>
      <trkpt lat="43.337863" lon="-6.415100">
        <ele>679.008</ele>
        <time>1999-07-24T08:28:46Z</time>
      </trkpt>
      <trkpt lat="43.337928" lon="-6.415083">
        <ele>680.045</ele>
        <time>1999-07-24T08:28:50Z</time>
      </trkpt>
      <trkpt lat="43.337942" lon="-6.415074">
        <ele>680.271</ele>
        <time>1999-07-24T08:28:51Z</time>
      </trkpt>
      <trkpt lat="43.337970" lon="-6.415064">
        <ele>680.822</ele>
        <time>1999-07-24T08:28:53Z</time>
      </trkpt>
      <trkpt lat="43.337996" lon="-6.415078">
        <ele>681.463</ele>
        <time>1999-07-24T08:28:55Z</time>
      </trkpt>
      <trkpt lat="43.338054" lon="-6.415088">
        <ele>682.427</ele>
        <time>1999-07-24T08:28:59Z</time>
      </trkpt>
      <trkpt lat="43.338069" lon="-6.415109">
        <ele>683.226</ele>
        <time>1999-07-24T08:29:01Z</time>
      </trkpt>
      <trkpt lat="43.338078" lon="-6.415119">
        <ele>683.462</ele>
        <time>1999-07-24T08:29:02Z</time>
      </trkpt>
      <trkpt lat="43.338144" lon="-6.415160">
        <ele>684.644</ele>
        <time>1999-07-24T08:29:07Z</time>
      </trkpt>
      <trkpt lat="43.338153" lon="-6.415172">
        <ele>685.082</ele>
        <time>1999-07-24T08:29:08Z</time>
      </trkpt>
      <trkpt lat="43.338170" lon="-6.415201">
        <ele>685.643</ele>
        <time>1999-07-24T08:29:10Z</time>
      </trkpt>
      <trkpt lat="43.338181" lon="-6.415211">
        <ele>685.817</ele>
        <time>1999-07-24T08:29:11Z</time>
      </trkpt>
      <trkpt lat="43.338218" lon="-6.415259">
        <ele>687.008</ele>
        <time>1999-07-24T08:29:15Z</time>
      </trkpt>
      <trkpt lat="43.338245" lon="-6.415314">
        <ele>688.211</ele>
        <time>1999-07-24T08:29:18Z</time>
      </trkpt>
      <trkpt lat="43.338288" lon="-6.415348">
        <ele>689.097</ele>
        <time>1999-07-24T08:29:21Z</time>
      </trkpt>
      <trkpt lat="43.338298" lon="-6.415363">
        <ele>689.498</ele>
        <time>1999-07-24T08:29:22Z</time>
      </trkpt>
      <trkpt lat="43.338351" lon="-6.415418">
        <ele>690.469</ele>
        <time>1999-07-24T08:29:26Z</time>
      </trkpt>
      <trkpt lat="43.338371" lon="-6.415427">
        <ele>690.893</ele>
        <time>1999-07-24T08:29:27Z</time>
      </trkpt>
      <trkpt lat="43.338410" lon="-6.415446">
        <ele>691.442</ele>
        <time>1999-07-24T08:29:29Z</time>
      </trkpt>
      <trkpt lat="43.338512" lon="-6.415483">
        <ele>692.498</ele>
        <time>1999-07-24T08:29:34Z</time>
      </trkpt>
      <trkpt lat="43.338535" lon="-6.415487">
        <ele>692.650</ele>
        <time>1999-07-24T08:29:35Z</time>
      </trkpt>
      <trkpt lat="43.338734" lon="-6.415517">
        <ele>693.475</ele>
        <time>1999-07-24T08:29:42Z</time>
      </trkpt>
      <trkpt lat="43.338767" lon="-6.415529">
        <ele>693.628</ele>
        <time>1999-07-24T08:29:43Z</time>
      </trkpt>
      <trkpt lat="43.338842" lon="-6.415570">
        <ele>693.620</ele>
        <time>1999-07-24T08:29:45Z</time>
      </trkpt>
      <trkpt lat="43.338903" lon="-6.415654">
        <ele>693.808</ele>
        <time>1999-07-24T08:29:47Z</time>
      </trkpt>
      <trkpt lat="43.338920" lon="-6.415833">
        <ele>693.890</ele>
        <time>1999-07-24T08:29:51Z</time>
      </trkpt>
      <trkpt lat="43.338925" lon="-6.415934">
        <ele>694.016</ele>
        <time>1999-07-24T08:29:54Z</time>
      </trkpt>
      <trkpt lat="43.338923" lon="-6.416049">
        <ele>694.437</ele>
        <time>1999-07-24T08:29:57Z</time>
      </trkpt>
      <trkpt lat="43.338922" lon="-6.416090">
        <ele>694.678</ele>
        <time>1999-07-24T08:29:58Z</time>
      </trkpt>
      <trkpt lat="43.338952" lon="-6.416320">
        <ele>696.072</ele>
        <time>1999-07-24T08:30:04Z</time>
      </trkpt>
      <trkpt lat="43.338996" lon="-6.416551">
        <ele>697.051</ele>
        <time>1999-07-24T08:30:10Z</time>
      </trkpt>
      <trkpt lat="43.339014" lon="-6.416587">
        <ele>697.227</ele>
        <time>1999-07-24T08:30:11Z</time>
      </trkpt>
      <trkpt lat="43.339106" lon="-6.416797">
        <ele>698.249</ele>
        <time>1999-07-24T08:30:16Z</time>
      </trkpt>
      <trkpt lat="43.339135" lon="-6.416844">
        <ele>698.295</ele>
        <time>1999-07-24T08:30:17Z</time>
      </trkpt>
      <trkpt lat="43.339229" lon="-6.417012">
        <ele>698.449</ele>
        <time>1999-07-24T08:30:20Z</time>
      </trkpt>
      <trkpt lat="43.339253" lon="-6.417079">
        <ele>698.423</ele>
        <time>1999-07-24T08:30:21Z</time>
      </trkpt>
      <trkpt lat="43.339317" lon="-6.417417">
        <ele>698.608</ele>
        <time>1999-07-24T08:30:26Z</time>
      </trkpt>
      <trkpt lat="43.339435" lon="-6.417895">
        <ele>699.292</ele>
        <time>1999-07-24T08:30:33Z</time>
      </trkpt>
      <trkpt lat="43.339454" lon="-6.417967">
        <ele>699.468</ele>
        <time>1999-07-24T08:30:34Z</time>
      </trkpt>
      <trkpt lat="43.339554" lon="-6.418411">
        <ele>700.439</ele>
        <time>1999-07-24T08:30:40Z</time>
      </trkpt>
      <trkpt lat="43.339571" lon="-6.418485">
        <ele>700.620</ele>
        <time>1999-07-24T08:30:41Z</time>
      </trkpt>
      <trkpt lat="43.339661" lon="-6.418879">
        <ele>700.634</ele>
        <time>1999-07-24T08:30:46Z</time>
      </trkpt>
      <trkpt lat="43.339678" lon="-6.418966">
        <ele>700.613</ele>
        <time>1999-07-24T08:30:47Z</time>
      </trkpt>
      <trkpt lat="43.339708" lon="-6.419236">
        <ele>700.629</ele>
        <time>1999-07-24T08:30:50Z</time>
      </trkpt>
      <trkpt lat="43.339685" lon="-6.419418">
        <ele>700.271</ele>
        <time>1999-07-24T08:30:52Z</time>
      </trkpt>
      <trkpt lat="43.339637" lon="-6.419619">
        <ele>699.841</ele>
        <time>1999-07-24T08:30:55Z</time>
      </trkpt>
      <trkpt lat="43.339633" lon="-6.419672">
        <ele>699.881</ele>
        <time>1999-07-24T08:30:56Z</time>
      </trkpt>
      <trkpt lat="43.339637" lon="-6.419945">
        <ele>699.809</ele>
        <time>1999-07-24T08:31:02Z</time>
      </trkpt>
      <trkpt lat="43.339647" lon="-6.420228">
        <ele>701.208</ele>
        <time>1999-07-24T08:31:10Z</time>
      </trkpt>
      <trkpt lat="43.339650" lon="-6.420261">
        <ele>701.497</ele>
        <time>1999-07-24T08:31:11Z</time>
      </trkpt>
      <trkpt lat="43.339665" lon="-6.420403">
        <ele>702.673</ele>
        <time>1999-07-24T08:31:15Z</time>
      </trkpt>
      <trkpt lat="43.339667" lon="-6.420443">
        <ele>702.874</ele>
        <time>1999-07-24T08:31:16Z</time>
      </trkpt>
      <trkpt lat="43.339667" lon="-6.420528">
        <ele>703.685</ele>
        <time>1999-07-24T08:31:18Z</time>
      </trkpt>
      <trkpt lat="43.339683" lon="-6.420812">
        <ele>704.669</ele>
        <time>1999-07-24T08:31:24Z</time>
      </trkpt>
      <trkpt lat="43.339686" lon="-6.420864">
        <ele>704.638</ele>
        <time>1999-07-24T08:31:25Z</time>
      </trkpt>
      <trkpt lat="43.339755" lon="-6.421197">
        <ele>705.444</ele>
        <time>1999-07-24T08:31:31Z</time>
      </trkpt>
      <trkpt lat="43.339835" lon="-6.421476">
        <ele>705.886</ele>
        <time>1999-07-24T08:31:36Z</time>
      </trkpt>
      <trkpt lat="43.339887" lon="-6.421642">
        <ele>706.035</ele>
        <time>1999-07-24T08:31:39Z</time>
      </trkpt>
      <trkpt lat="43.339899" lon="-6.421705">
        <ele>706.086</ele>
        <time>1999-07-24T08:31:40Z</time>
      </trkpt>
      <trkpt lat="43.339941" lon="-6.421893">
        <ele>706.214</ele>
        <time>1999-07-24T08:31:43Z</time>
      </trkpt>
      <trkpt lat="43.339962" lon="-6.421950">
        <ele>706.408</ele>
        <time>1999-07-24T08:31:44Z</time>
      </trkpt>
      <trkpt lat="43.340042" lon="-6.422100">
        <ele>706.446</ele>
        <time>1999-07-24T08:31:47Z</time>
      </trkpt>
      <trkpt lat="43.340110" lon="-6.422162">
        <ele>706.862</ele>
        <time>1999-07-24T08:31:49Z</time>
      </trkpt>
      <trkpt lat="43.340180" lon="-6.422200">
        <ele>707.443</ele>
        <time>1999-07-24T08:31:51Z</time>
      </trkpt>
      <trkpt lat="43.340278" lon="-6.422243">
        <ele>708.084</ele>
        <time>1999-07-24T08:31:54Z</time>
      </trkpt>
      <trkpt lat="43.340308" lon="-6.422256">
        <ele>708.278</ele>
        <time>1999-07-24T08:31:55Z</time>
      </trkpt>
      <trkpt lat="43.340472" lon="-6.422351">
        <ele>709.027</ele>
        <time>1999-07-24T08:32:00Z</time>
      </trkpt>
      <trkpt lat="43.340503" lon="-6.422376">
        <ele>709.213</ele>
        <time>1999-07-24T08:32:01Z</time>
      </trkpt>
      <trkpt lat="43.340608" lon="-6.422518">
        <ele>709.895</ele>
        <time>1999-07-24T08:32:05Z</time>
      </trkpt>
      <trkpt lat="43.340651" lon="-6.422597">
        <ele>709.825</ele>
        <time>1999-07-24T08:32:07Z</time>
      </trkpt>
      <trkpt lat="43.340725" lon="-6.422786">
        <ele>710.026</ele>
        <time>1999-07-24T08:32:12Z</time>
      </trkpt>
      <trkpt lat="43.340737" lon="-6.422829">
        <ele>710.208</ele>
        <time>1999-07-24T08:32:13Z</time>
      </trkpt>
      <trkpt lat="43.340854" lon="-6.423009">
        <ele>710.608</ele>
        <time>1999-07-24T08:32:18Z</time>
      </trkpt>
      <trkpt lat="43.340934" lon="-6.423090">
        <ele>711.085</ele>
        <time>1999-07-24T08:32:21Z</time>
      </trkpt>
      <trkpt lat="43.340972" lon="-6.423126">
        <ele>711.211</ele>
        <time>1999-07-24T08:32:23Z</time>
      </trkpt>
      <trkpt lat="43.341086" lon="-6.423261">
        <ele>711.882</ele>
        <time>1999-07-24T08:32:29Z</time>
      </trkpt>
      <trkpt lat="43.341160" lon="-6.423352">
        <ele>712.253</ele>
        <time>1999-07-24T08:32:33Z</time>
      </trkpt>
      <trkpt lat="43.341183" lon="-6.423386">
        <ele>712.487</ele>
        <time>1999-07-24T08:32:35Z</time>
      </trkpt>
      <trkpt lat="43.341228" lon="-6.423466">
        <ele>713.646</ele>
        <time>1999-07-24T08:32:39Z</time>
      </trkpt>
      <trkpt lat="43.341242" lon="-6.423483">
        <ele>713.822</ele>
        <time>1999-07-24T08:32:40Z</time>
      </trkpt>
      <trkpt lat="43.341250" lon="-6.423502">
        <ele>714.044</ele>
        <time>1999-07-24T08:32:41Z</time>
      </trkpt>
      <trkpt lat="43.341274" lon="-6.423570">
        <ele>714.613</ele>
        <time>1999-07-24T08:32:44Z</time>
      </trkpt>
      <trkpt lat="43.341290" lon="-6.423608">
        <ele>714.843</ele>
        <time>1999-07-24T08:32:45Z</time>
      </trkpt>
      <trkpt lat="43.341313" lon="-6.423655">
        <ele>715.007</ele>
        <time>1999-07-24T08:32:46Z</time>
      </trkpt>
      <trkpt lat="43.341374" lon="-6.423811">
        <ele>715.008</ele>
        <time>1999-07-24T08:32:49Z</time>
      </trkpt>
      <trkpt lat="43.341380" lon="-6.423974">
        <ele>715.094</ele>
        <time>1999-07-24T08:32:52Z</time>
      </trkpt>
      <trkpt lat="43.341374" lon="-6.424019">
        <ele>715.020</ele>
        <time>1999-07-24T08:32:53Z</time>
      </trkpt>
      <trkpt lat="43.341343" lon="-6.424077">
        <ele>714.881</ele>
        <time>1999-07-24T08:32:55Z</time>
      </trkpt>
      <trkpt lat="43.341307" lon="-6.424123">
        <ele>713.862</ele>
        <time>1999-07-24T08:32:57Z</time>
      </trkpt>
      <trkpt lat="43.341290" lon="-6.424142">
        <ele>713.046</ele>
        <time>1999-07-24T08:32:58Z</time>
      </trkpt>
      <trkpt lat="43.341209" lon="-6.424222">
        <ele>712.025</ele>
        <time>1999-07-24T08:33:03Z</time>
      </trkpt>
      <trkpt lat="43.341137" lon="-6.424280">
        <ele>712.071</ele>
        <time>1999-07-24T08:33:07Z</time>
      </trkpt>
      <trkpt lat="43.341101" lon="-6.424314">
        <ele>712.023</ele>
        <time>1999-07-24T08:33:09Z</time>
      </trkpt>
      <trkpt lat="43.340987" lon="-6.424427">
        <ele>713.679</ele>
        <time>1999-07-24T08:33:15Z</time>
      </trkpt>
      <trkpt lat="43.340968" lon="-6.424442">
        <ele>713.805</ele>
        <time>1999-07-24T08:33:16Z</time>
      </trkpt>
      <trkpt lat="43.340948" lon="-6.424455">
        <ele>714.025</ele>
        <time>1999-07-24T08:33:17Z</time>
      </trkpt>
      <trkpt lat="43.340831" lon="-6.424476">
        <ele>715.008</ele>
        <time>1999-07-24T08:33:22Z</time>
      </trkpt>
      <trkpt lat="43.340737" lon="-6.424479">
        <ele>716.260</ele>
        <time>1999-07-24T08:33:25Z</time>
      </trkpt>
      <trkpt lat="43.340602" lon="-6.424494">
        <ele>716.846</ele>
        <time>1999-07-24T08:33:29Z</time>
      </trkpt>
      <trkpt lat="43.340368" lon="-6.424611">
        <ele>717.297</ele>
        <time>1999-07-24T08:33:35Z</time>
      </trkpt>
      <trkpt lat="43.340333" lon="-6.424640">
        <ele>717.488</ele>
        <time>1999-07-24T08:33:36Z</time>
      </trkpt>
      <trkpt lat="43.340176" lon="-6.424787">
        <ele>717.632</ele>
        <time>1999-07-24T08:33:41Z</time>
      </trkpt>
      <trkpt lat="43.340090" lon="-6.424871">
        <ele>717.891</ele>
        <time>1999-07-24T08:33:43Z</time>
      </trkpt>
      <trkpt lat="43.339999" lon="-6.424990">
        <ele>717.897</ele>
        <time>1999-07-24T08:33:45Z</time>
      </trkpt>
      <trkpt lat="43.339869" lon="-6.425228">
        <ele>717.829</ele>
        <time>1999-07-24T08:33:48Z</time>
      </trkpt>
      <trkpt lat="43.339840" lon="-6.425311">
        <ele>717.892</ele>
        <time>1999-07-24T08:33:49Z</time>
      </trkpt>
      <trkpt lat="43.339765" lon="-6.425523">
        <ele>717.873</ele>
        <time>1999-07-24T08:33:52Z</time>
      </trkpt>
      <trkpt lat="43.339734" lon="-6.425578">
        <ele>717.820</ele>
        <time>1999-07-24T08:33:53Z</time>
      </trkpt>
      <trkpt lat="43.339632" lon="-6.425592">
        <ele>717.408</ele>
        <time>1999-07-24T08:33:55Z</time>
      </trkpt>
      <trkpt lat="43.339584" lon="-6.425587">
        <ele>716.662</ele>
        <time>1999-07-24T08:33:56Z</time>
      </trkpt>
      <trkpt lat="43.339538" lon="-6.425586">
        <ele>716.218</ele>
        <time>1999-07-24T08:33:57Z</time>
      </trkpt>
      <trkpt lat="43.339453" lon="-6.425572">
        <ele>714.419</ele>
        <time>1999-07-24T08:33:59Z</time>
      </trkpt>
      <trkpt lat="43.339412" lon="-6.425561">
        <ele>713.070</ele>
        <time>1999-07-24T08:34:00Z</time>
      </trkpt>
      <trkpt lat="43.339371" lon="-6.425541">
        <ele>711.244</ele>
        <time>1999-07-24T08:34:01Z</time>
      </trkpt>
      <trkpt lat="43.339274" lon="-6.425476">
        <ele>710.693</ele>
        <time>1999-07-24T08:34:03Z</time>
      </trkpt>
      <trkpt lat="43.339219" lon="-6.425463">
        <ele>710.649</ele>
        <time>1999-07-24T08:34:04Z</time>
      </trkpt>
      <trkpt lat="43.339114" lon="-6.425458">
        <ele>710.291</ele>
        <time>1999-07-24T08:34:07Z</time>
      </trkpt>
      <trkpt lat="43.339104" lon="-6.425453">
        <ele>709.625</ele>
        <time>1999-07-24T08:34:10Z</time>
      </trkpt>
      <trkpt lat="43.338904" lon="-6.425514">
        <ele>712.026</ele>
        <time>1999-07-24T08:34:38Z</time>
      </trkpt>
      <trkpt lat="43.338738" lon="-6.425632">
        <ele>712.408</ele>
        <time>1999-07-24T08:34:45Z</time>
      </trkpt>
      <trkpt lat="43.338557" lon="-6.425791">
        <ele>712.808</ele>
        <time>1999-07-24T08:34:52Z</time>
      </trkpt>
      <trkpt lat="43.338487" lon="-6.425867">
        <ele>713.095</ele>
        <time>1999-07-24T08:34:55Z</time>
      </trkpt>
      <trkpt lat="43.338365" lon="-6.426035">
        <ele>713.621</ele>
        <time>1999-07-24T08:35:00Z</time>
      </trkpt>
      <trkpt lat="43.338270" lon="-6.426223">
        <ele>713.672</ele>
        <time>1999-07-24T08:35:03Z</time>
      </trkpt>
      <trkpt lat="43.338229" lon="-6.426294">
        <ele>713.693</ele>
        <time>1999-07-24T08:35:04Z</time>
      </trkpt>
      <trkpt lat="43.338183" lon="-6.426343">
        <ele>713.647</ele>
        <time>1999-07-24T08:35:05Z</time>
      </trkpt>
      <trkpt lat="43.338088" lon="-6.426396">
        <ele>713.616</ele>
        <time>1999-07-24T08:35:07Z</time>
      </trkpt>
      <trkpt lat="43.337944" lon="-6.426427">
        <ele>713.072</ele>
        <time>1999-07-24T08:35:10Z</time>
      </trkpt>
      <trkpt lat="43.337895" lon="-6.426440">
        <ele>712.684</ele>
        <time>1999-07-24T08:35:11Z</time>
      </trkpt>
      <trkpt lat="43.337853" lon="-6.426462">
        <ele>712.475</ele>
        <time>1999-07-24T08:35:12Z</time>
      </trkpt>
      <trkpt lat="43.337729" lon="-6.426552">
        <ele>712.228</ele>
        <time>1999-07-24T08:35:16Z</time>
      </trkpt>
      <trkpt lat="43.337634" lon="-6.426696">
        <ele>712.220</ele>
        <time>1999-07-24T08:35:21Z</time>
      </trkpt>
      <trkpt lat="43.337588" lon="-6.426770">
        <ele>713.608</ele>
        <time>1999-07-24T08:35:25Z</time>
      </trkpt>
      <trkpt lat="43.337572" lon="-6.426803">
        <ele>714.240</ele>
        <time>1999-07-24T08:35:27Z</time>
      </trkpt>
      <trkpt lat="43.337549" lon="-6.426849">
        <ele>715.486</ele>
        <time>1999-07-24T08:35:30Z</time>
      </trkpt>
      <trkpt lat="43.337532" lon="-6.426903">
        <ele>716.277</ele>
        <time>1999-07-24T08:35:33Z</time>
      </trkpt>
      <trkpt lat="43.337515" lon="-6.426931">
        <ele>716.448</ele>
        <time>1999-07-24T08:35:35Z</time>
      </trkpt>
      <trkpt lat="43.337472" lon="-6.427017">
        <ele>717.032</ele>
        <time>1999-07-24T08:35:39Z</time>
      </trkpt>
      <trkpt lat="43.337469" lon="-6.427046">
        <ele>717.261</ele>
        <time>1999-07-24T08:35:40Z</time>
      </trkpt>
      <trkpt lat="43.337452" lon="-6.427097">
        <ele>717.627</ele>
        <time>1999-07-24T08:35:42Z</time>
      </trkpt>
      <trkpt lat="43.337422" lon="-6.427182">
        <ele>718.219</ele>
        <time>1999-07-24T08:35:45Z</time>
      </trkpt>
      <trkpt lat="43.337390" lon="-6.427282">
        <ele>718.814</ele>
        <time>1999-07-24T08:35:48Z</time>
      </trkpt>
      <trkpt lat="43.337354" lon="-6.427382">
        <ele>720.054</ele>
        <time>1999-07-24T08:35:51Z</time>
      </trkpt>
      <trkpt lat="43.337256" lon="-6.427620">
        <ele>720.809</ele>
        <time>1999-07-24T08:35:58Z</time>
      </trkpt>
      <trkpt lat="43.337246" lon="-6.427649">
        <ele>721.008</ele>
        <time>1999-07-24T08:35:59Z</time>
      </trkpt>
      <trkpt lat="43.337216" lon="-6.427793">
        <ele>721.824</ele>
        <time>1999-07-24T08:36:04Z</time>
      </trkpt>
      <trkpt lat="43.337142" lon="-6.427996">
        <ele>723.080</ele>
        <time>1999-07-24T08:36:11Z</time>
      </trkpt>
      <trkpt lat="43.337074" lon="-6.428157">
        <ele>723.821</ele>
        <time>1999-07-24T08:36:17Z</time>
      </trkpt>
      <trkpt lat="43.337068" lon="-6.428179">
        <ele>723.862</ele>
        <time>1999-07-24T08:36:18Z</time>
      </trkpt>
      <trkpt lat="43.337067" lon="-6.428202">
        <ele>724.076</ele>
        <time>1999-07-24T08:36:19Z</time>
      </trkpt>
      <trkpt lat="43.337060" lon="-6.428284">
        <ele>724.445</ele>
        <time>1999-07-24T08:36:22Z</time>
      </trkpt>
      <trkpt lat="43.337044" lon="-6.428381">
        <ele>725.051</ele>
        <time>1999-07-24T08:36:25Z</time>
      </trkpt>
      <trkpt lat="43.337045" lon="-6.428437">
        <ele>725.463</ele>
        <time>1999-07-24T08:36:27Z</time>
      </trkpt>
      <trkpt lat="43.337035" lon="-6.428517">
        <ele>725.857</ele>
        <time>1999-07-24T08:36:30Z</time>
      </trkpt>
      <trkpt lat="43.337026" lon="-6.428602">
        <ele>726.200</ele>
        <time>1999-07-24T08:36:33Z</time>
      </trkpt>
      <trkpt lat="43.336993" lon="-6.428817">
        <ele>727.420</ele>
        <time>1999-07-24T08:36:40Z</time>
      </trkpt>
      <trkpt lat="43.337011" lon="-6.429020">
        <ele>728.208</ele>
        <time>1999-07-24T08:36:46Z</time>
      </trkpt>
      <trkpt lat="43.336997" lon="-6.429197">
        <ele>729.068</ele>
        <time>1999-07-24T08:36:52Z</time>
      </trkpt>
      <trkpt lat="43.336998" lon="-6.429259">
        <ele>729.444</ele>
        <time>1999-07-24T08:36:54Z</time>
      </trkpt>
      <trkpt lat="43.336995" lon="-6.429387">
        <ele>730.045</ele>
        <time>1999-07-24T08:36:58Z</time>
      </trkpt>
      <trkpt lat="43.336991" lon="-6.429461">
        <ele>730.476</ele>
        <time>1999-07-24T08:37:00Z</time>
      </trkpt>
      <trkpt lat="43.337015" lon="-6.429610">
        <ele>731.270</ele>
        <time>1999-07-24T08:37:05Z</time>
      </trkpt>
      <trkpt lat="43.337018" lon="-6.429635">
        <ele>731.669</ele>
        <time>1999-07-24T08:37:06Z</time>
      </trkpt>
      <trkpt lat="43.337029" lon="-6.429758">
        <ele>732.675</ele>
        <time>1999-07-24T08:37:10Z</time>
      </trkpt>
      <trkpt lat="43.337033" lon="-6.429783">
        <ele>732.877</ele>
        <time>1999-07-24T08:37:11Z</time>
      </trkpt>
      <trkpt lat="43.337057" lon="-6.429881">
        <ele>733.823</ele>
        <time>1999-07-24T08:37:15Z</time>
      </trkpt>
      <trkpt lat="43.337082" lon="-6.429982">
        <ele>735.083</ele>
        <time>1999-07-24T08:37:19Z</time>
      </trkpt>
      <trkpt lat="43.337096" lon="-6.430102">
        <ele>735.811</ele>
        <time>1999-07-24T08:37:24Z</time>
      </trkpt>
      <trkpt lat="43.337101" lon="-6.430146">
        <ele>736.408</ele>
        <time>1999-07-24T08:37:26Z</time>
      </trkpt>
      <trkpt lat="43.337120" lon="-6.430225">
        <ele>737.015</ele>
        <time>1999-07-24T08:37:29Z</time>
      </trkpt>
      <trkpt lat="43.337120" lon="-6.430279">
        <ele>737.871</ele>
        <time>1999-07-24T08:37:31Z</time>
      </trkpt>
      <trkpt lat="43.337113" lon="-6.430306">
        <ele>738.282</ele>
        <time>1999-07-24T08:37:32Z</time>
      </trkpt>
      <trkpt lat="43.337061" lon="-6.430408">
        <ele>739.073</ele>
        <time>1999-07-24T08:37:37Z</time>
      </trkpt>
      <trkpt lat="43.337047" lon="-6.430449">
        <ele>739.257</ele>
        <time>1999-07-24T08:37:39Z</time>
      </trkpt>
      <trkpt lat="43.337000" lon="-6.430512">
        <ele>740.046</ele>
        <time>1999-07-24T08:37:42Z</time>
      </trkpt>
      <trkpt lat="43.336883" lon="-6.430617">
        <ele>741.292</ele>
        <time>1999-07-24T08:37:48Z</time>
      </trkpt>
      <trkpt lat="43.336718" lon="-6.430678">
        <ele>741.484</ele>
        <time>1999-07-24T08:37:55Z</time>
      </trkpt>
      <trkpt lat="43.336616" lon="-6.430767">
        <ele>742.053</ele>
        <time>1999-07-24T08:37:59Z</time>
      </trkpt>
      <trkpt lat="43.336539" lon="-6.430847">
        <ele>742.204</ele>
        <time>1999-07-24T08:38:02Z</time>
      </trkpt>
      <trkpt lat="43.336479" lon="-6.430935">
        <ele>742.614</ele>
        <time>1999-07-24T08:38:05Z</time>
      </trkpt>
      <trkpt lat="43.336434" lon="-6.430991">
        <ele>743.008</ele>
        <time>1999-07-24T08:38:07Z</time>
      </trkpt>
      <trkpt lat="43.336406" lon="-6.431022">
        <ele>743.268</ele>
        <time>1999-07-24T08:38:08Z</time>
      </trkpt>
      <trkpt lat="43.336378" lon="-6.431052">
        <ele>743.454</ele>
        <time>1999-07-24T08:38:09Z</time>
      </trkpt>
      <trkpt lat="43.336282" lon="-6.431184">
        <ele>743.825</ele>
        <time>1999-07-24T08:38:13Z</time>
      </trkpt>
      <trkpt lat="43.336235" lon="-6.431248">
        <ele>744.086</ele>
        <time>1999-07-24T08:38:15Z</time>
      </trkpt>
      <trkpt lat="43.336112" lon="-6.431456">
        <ele>745.090</ele>
        <time>1999-07-24T08:38:21Z</time>
      </trkpt>
      <trkpt lat="43.336031" lon="-6.431620">
        <ele>746.249</ele>
        <time>1999-07-24T08:38:25Z</time>
      </trkpt>
      <trkpt lat="43.335974" lon="-6.431707">
        <ele>746.635</ele>
        <time>1999-07-24T08:38:28Z</time>
      </trkpt>
      <trkpt lat="43.335885" lon="-6.431904">
        <ele>747.227</ele>
        <time>1999-07-24T08:38:34Z</time>
      </trkpt>
      <trkpt lat="43.335870" lon="-6.431935">
        <ele>747.455</ele>
        <time>1999-07-24T08:38:35Z</time>
      </trkpt>
      <trkpt lat="43.335820" lon="-6.432058">
        <ele>748.207</ele>
        <time>1999-07-24T08:38:39Z</time>
      </trkpt>
      <trkpt lat="43.335793" lon="-6.432126">
        <ele>748.617</ele>
        <time>1999-07-24T08:38:41Z</time>
      </trkpt>
      <trkpt lat="43.335731" lon="-6.432319">
        <ele>749.208</ele>
        <time>1999-07-24T08:38:46Z</time>
      </trkpt>
      <trkpt lat="43.335719" lon="-6.432402">
        <ele>749.448</ele>
        <time>1999-07-24T08:38:48Z</time>
      </trkpt>
      <trkpt lat="43.335722" lon="-6.432588">
        <ele>750.254</ele>
        <time>1999-07-24T08:38:53Z</time>
      </trkpt>
      <trkpt lat="43.335725" lon="-6.432653">
        <ele>750.845</ele>
        <time>1999-07-24T08:38:55Z</time>
      </trkpt>
      <trkpt lat="43.335716" lon="-6.432746">
        <ele>751.256</ele>
        <time>1999-07-24T08:38:58Z</time>
      </trkpt>
      <trkpt lat="43.335711" lon="-6.432833">
        <ele>752.240</ele>
        <time>1999-07-24T08:39:01Z</time>
      </trkpt>
      <trkpt lat="43.335709" lon="-6.432859">
        <ele>752.679</ele>
        <time>1999-07-24T08:39:02Z</time>
      </trkpt>
      <trkpt lat="43.335698" lon="-6.432980">
        <ele>753.835</ele>
        <time>1999-07-24T08:39:07Z</time>
      </trkpt>
      <trkpt lat="43.335688" lon="-6.433005">
        <ele>754.227</ele>
        <time>1999-07-24T08:39:08Z</time>
      </trkpt>
      <trkpt lat="43.335673" lon="-6.433081">
        <ele>754.848</ele>
        <time>1999-07-24T08:39:11Z</time>
      </trkpt>
      <trkpt lat="43.335678" lon="-6.433187">
        <ele>755.461</ele>
        <time>1999-07-24T08:39:15Z</time>
      </trkpt>
      <trkpt lat="43.335663" lon="-6.433305">
        <ele>755.817</ele>
        <time>1999-07-24T08:39:19Z</time>
      </trkpt>
      <trkpt lat="43.335659" lon="-6.433398">
        <ele>756.208</ele>
        <time>1999-07-24T08:39:22Z</time>
      </trkpt>
      <trkpt lat="43.335662" lon="-6.433478">
        <ele>757.057</ele>
        <time>1999-07-24T08:39:25Z</time>
      </trkpt>
      <trkpt lat="43.335663" lon="-6.433582">
        <ele>758.213</ele>
        <time>1999-07-24T08:39:29Z</time>
      </trkpt>
      <trkpt lat="43.335668" lon="-6.433637">
        <ele>758.484</ele>
        <time>1999-07-24T08:39:31Z</time>
      </trkpt>
      <trkpt lat="43.335684" lon="-6.433789">
        <ele>759.095</ele>
        <time>1999-07-24T08:39:36Z</time>
      </trkpt>
      <trkpt lat="43.335699" lon="-6.433879">
        <ele>759.849</ele>
        <time>1999-07-24T08:39:39Z</time>
      </trkpt>
      <trkpt lat="43.335712" lon="-6.433968">
        <ele>760.268</ele>
        <time>1999-07-24T08:39:42Z</time>
      </trkpt>
      <trkpt lat="43.335741" lon="-6.434052">
        <ele>760.484</ele>
        <time>1999-07-24T08:39:45Z</time>
      </trkpt>
      <trkpt lat="43.335797" lon="-6.434225">
        <ele>761.256</ele>
        <time>1999-07-24T08:39:51Z</time>
      </trkpt>
      <trkpt lat="43.335820" lon="-6.434274">
        <ele>761.417</ele>
        <time>1999-07-24T08:39:53Z</time>
      </trkpt>
      <trkpt lat="43.335896" lon="-6.434399">
        <ele>762.487</ele>
        <time>1999-07-24T08:39:59Z</time>
      </trkpt>
      <trkpt lat="43.335925" lon="-6.434435">
        <ele>762.615</ele>
        <time>1999-07-24T08:40:01Z</time>
      </trkpt>
      <trkpt lat="43.335984" lon="-6.434480">
        <ele>763.408</ele>
        <time>1999-07-24T08:40:05Z</time>
      </trkpt>
      <trkpt lat="43.336033" lon="-6.434501">
        <ele>764.064</ele>
        <time>1999-07-24T08:40:08Z</time>
      </trkpt>
      <trkpt lat="43.336061" lon="-6.434518">
        <ele>764.670</ele>
        <time>1999-07-24T08:40:10Z</time>
      </trkpt>
      <trkpt lat="43.336139" lon="-6.434544">
        <ele>765.881</ele>
        <time>1999-07-24T08:40:15Z</time>
      </trkpt>
      <trkpt lat="43.336205" lon="-6.434521">
        <ele>767.032</ele>
        <time>1999-07-24T08:40:19Z</time>
      </trkpt>
      <trkpt lat="43.336234" lon="-6.434510">
        <ele>767.836</ele>
        <time>1999-07-24T08:40:21Z</time>
      </trkpt>
      <trkpt lat="43.336249" lon="-6.434505">
        <ele>768.445</ele>
        <time>1999-07-24T08:40:22Z</time>
      </trkpt>
      <trkpt lat="43.336316" lon="-6.434501">
        <ele>769.481</ele>
        <time>1999-07-24T08:40:26Z</time>
      </trkpt>
      <trkpt lat="43.336360" lon="-6.434511">
        <ele>770.283</ele>
        <time>1999-07-24T08:40:29Z</time>
      </trkpt>
      <trkpt lat="43.336376" lon="-6.434515">
        <ele>770.475</ele>
        <time>1999-07-24T08:40:30Z</time>
      </trkpt>
      <trkpt lat="43.336504" lon="-6.434575">
        <ele>771.628</ele>
        <time>1999-07-24T08:40:37Z</time>
      </trkpt>
      <trkpt lat="43.336592" lon="-6.434719">
        <ele>771.820</ele>
        <time>1999-07-24T08:40:41Z</time>
      </trkpt>
      <trkpt lat="43.336632" lon="-6.434760">
        <ele>771.808</ele>
        <time>1999-07-24T08:40:42Z</time>
      </trkpt>
      <trkpt lat="43.336756" lon="-6.434915">
        <ele>772.050</ele>
        <time>1999-07-24T08:40:45Z</time>
      </trkpt>
      <trkpt lat="43.336793" lon="-6.434960">
        <ele>772.066</ele>
        <time>1999-07-24T08:40:46Z</time>
      </trkpt>
      <trkpt lat="43.336905" lon="-6.435083">
        <ele>771.627</ele>
        <time>1999-07-24T08:40:49Z</time>
      </trkpt>
      <trkpt lat="43.336944" lon="-6.435133">
        <ele>771.268</ele>
        <time>1999-07-24T08:40:50Z</time>
      </trkpt>
      <trkpt lat="43.337003" lon="-6.435316">
        <ele>770.882</ele>
        <time>1999-07-24T08:40:53Z</time>
      </trkpt>
      <trkpt lat="43.337014" lon="-6.435380">
        <ele>770.631</ele>
        <time>1999-07-24T08:40:54Z</time>
      </trkpt>
      <trkpt lat="43.337015" lon="-6.435592">
        <ele>770.457</ele>
        <time>1999-07-24T08:40:58Z</time>
      </trkpt>
      <trkpt lat="43.337013" lon="-6.435765">
        <ele>770.459</ele>
        <time>1999-07-24T08:41:03Z</time>
      </trkpt>
      <trkpt lat="43.337004" lon="-6.435955">
        <ele>771.688</ele>
        <time>1999-07-24T08:41:08Z</time>
      </trkpt>
      <trkpt lat="43.337001" lon="-6.436021">
        <ele>772.024</ele>
        <time>1999-07-24T08:41:10Z</time>
      </trkpt>
      <trkpt lat="43.336996" lon="-6.436159">
        <ele>772.626</ele>
        <time>1999-07-24T08:41:14Z</time>
      </trkpt>
      <trkpt lat="43.336983" lon="-6.436241">
        <ele>773.008</ele>
        <time>1999-07-24T08:41:16Z</time>
      </trkpt>
      <trkpt lat="43.337005" lon="-6.436411">
        <ele>773.481</ele>
        <time>1999-07-24T08:41:21Z</time>
      </trkpt>
      <trkpt lat="43.337028" lon="-6.436561">
        <ele>773.647</ele>
        <time>1999-07-24T08:41:26Z</time>
      </trkpt>
      <trkpt lat="43.337035" lon="-6.436594">
        <ele>773.828</ele>
        <time>1999-07-24T08:41:27Z</time>
      </trkpt>
      <trkpt lat="43.337077" lon="-6.436796">
        <ele>774.479</ele>
        <time>1999-07-24T08:41:33Z</time>
      </trkpt>
      <trkpt lat="43.337113" lon="-6.436898">
        <ele>774.863</ele>
        <time>1999-07-24T08:41:37Z</time>
      </trkpt>
      <trkpt lat="43.337116" lon="-6.436927">
        <ele>774.862</ele>
        <time>1999-07-24T08:41:38Z</time>
      </trkpt>
      <trkpt lat="43.337114" lon="-6.437029">
        <ele>775.828</ele>
        <time>1999-07-24T08:41:42Z</time>
      </trkpt>
      <trkpt lat="43.337115" lon="-6.437079">
        <ele>776.450</ele>
        <time>1999-07-24T08:41:44Z</time>
      </trkpt>
      <trkpt lat="43.337100" lon="-6.437171">
        <ele>777.045</ele>
        <time>1999-07-24T08:41:48Z</time>
      </trkpt>
      <trkpt lat="43.337093" lon="-6.437222">
        <ele>777.247</ele>
        <time>1999-07-24T08:41:50Z</time>
      </trkpt>
      <trkpt lat="43.337082" lon="-6.437301">
        <ele>777.811</ele>
        <time>1999-07-24T08:41:53Z</time>
      </trkpt>
      <trkpt lat="43.337067" lon="-6.437417">
        <ele>778.808</ele>
        <time>1999-07-24T08:41:57Z</time>
      </trkpt>
      <trkpt lat="43.337084" lon="-6.437595">
        <ele>779.497</ele>
        <time>1999-07-24T08:42:03Z</time>
      </trkpt>
      <trkpt lat="43.337118" lon="-6.437740">
        <ele>779.833</ele>
        <time>1999-07-24T08:42:08Z</time>
      </trkpt>
      <trkpt lat="43.337128" lon="-6.437764">
        <ele>780.014</ele>
        <time>1999-07-24T08:42:09Z</time>
      </trkpt>
      <trkpt lat="43.337154" lon="-6.437840">
        <ele>781.065</ele>
        <time>1999-07-24T08:42:12Z</time>
      </trkpt>
      <trkpt lat="43.337196" lon="-6.437932">
        <ele>781.899</ele>
        <time>1999-07-24T08:42:15Z</time>
      </trkpt>
      <trkpt lat="43.337213" lon="-6.437989">
        <ele>782.478</ele>
        <time>1999-07-24T08:42:17Z</time>
      </trkpt>
      <trkpt lat="43.337241" lon="-6.438102">
        <ele>783.684</ele>
        <time>1999-07-24T08:42:22Z</time>
      </trkpt>
      <trkpt lat="43.337253" lon="-6.438125">
        <ele>783.876</ele>
        <time>1999-07-24T08:42:23Z</time>
      </trkpt>
      <trkpt lat="43.337346" lon="-6.438246">
        <ele>784.693</ele>
        <time>1999-07-24T08:42:28Z</time>
      </trkpt>
      <trkpt lat="43.337426" lon="-6.438360">
        <ele>785.865</ele>
        <time>1999-07-24T08:42:33Z</time>
      </trkpt>
      <trkpt lat="43.337442" lon="-6.438379">
        <ele>785.821</ele>
        <time>1999-07-24T08:42:34Z</time>
      </trkpt>
      <trkpt lat="43.337577" lon="-6.438484">
        <ele>786.408</ele>
        <time>1999-07-24T08:42:40Z</time>
      </trkpt>
      <trkpt lat="43.337659" lon="-6.438568">
        <ele>786.882</ele>
        <time>1999-07-24T08:42:44Z</time>
      </trkpt>
      <trkpt lat="43.337678" lon="-6.438590">
        <ele>787.058</ele>
        <time>1999-07-24T08:42:45Z</time>
      </trkpt>
      <trkpt lat="43.337801" lon="-6.438725">
        <ele>787.669</ele>
        <time>1999-07-24T08:42:51Z</time>
      </trkpt>
      <trkpt lat="43.337837" lon="-6.438761">
        <ele>787.820</ele>
        <time>1999-07-24T08:42:53Z</time>
      </trkpt>
      <trkpt lat="43.337929" lon="-6.438869">
        <ele>788.244</ele>
        <time>1999-07-24T08:42:58Z</time>
      </trkpt>
      <trkpt lat="43.338024" lon="-6.438952">
        <ele>788.853</ele>
        <time>1999-07-24T08:43:03Z</time>
      </trkpt>
      <trkpt lat="43.338138" lon="-6.439032">
        <ele>789.649</ele>
        <time>1999-07-24T08:43:08Z</time>
      </trkpt>
      <trkpt lat="43.338180" lon="-6.439063">
        <ele>789.841</ele>
        <time>1999-07-24T08:43:10Z</time>
      </trkpt>
      <trkpt lat="43.338193" lon="-6.439086">
        <ele>790.029</ele>
        <time>1999-07-24T08:43:11Z</time>
      </trkpt>
      <trkpt lat="43.338244" lon="-6.439129">
        <ele>790.000</ele>
        <time>1999-07-24T08:43:13Z</time>
      </trkpt>
      <trkpt lat="43.338374" lon="-6.439238">
        <ele>790.820</ele>
        <time>1999-07-24T08:43:18Z</time>
      </trkpt>
      <trkpt lat="43.338397" lon="-6.439251">
        <ele>791.008</ele>
        <time>1999-07-24T08:43:19Z</time>
      </trkpt>
      <trkpt lat="43.338422" lon="-6.439269">
        <ele>791.225</ele>
        <time>1999-07-24T08:43:20Z</time>
      </trkpt>
      <trkpt lat="43.338460" lon="-6.439308">
        <ele>791.411</ele>
        <time>1999-07-24T08:43:22Z</time>
      </trkpt>
      <trkpt lat="43.338490" lon="-6.439369">
        <ele>791.472</ele>
        <time>1999-07-24T08:43:24Z</time>
      </trkpt>
      <trkpt lat="43.338512" lon="-6.439560">
        <ele>791.843</ele>
        <time>1999-07-24T08:43:29Z</time>
      </trkpt>
      <trkpt lat="43.338498" lon="-6.439595">
        <ele>791.877</ele>
        <time>1999-07-24T08:43:30Z</time>
      </trkpt>
      <trkpt lat="43.338468" lon="-6.439843">
        <ele>791.886</ele>
        <time>1999-07-24T08:43:35Z</time>
      </trkpt>
      <trkpt lat="43.338469" lon="-6.440057">
        <ele>791.882</ele>
        <time>1999-07-24T08:43:39Z</time>
      </trkpt>
      <trkpt lat="43.338458" lon="-6.440124">
        <ele>791.654</ele>
        <time>1999-07-24T08:43:40Z</time>
      </trkpt>
      <trkpt lat="43.338471" lon="-6.440329">
        <ele>791.233</ele>
        <time>1999-07-24T08:43:43Z</time>
      </trkpt>
      <trkpt lat="43.338498" lon="-6.440468">
        <ele>791.223</ele>
        <time>1999-07-24T08:43:45Z</time>
      </trkpt>
      <trkpt lat="43.338512" lon="-6.440538">
        <ele>791.215</ele>
        <time>1999-07-24T08:43:46Z</time>
      </trkpt>
      <trkpt lat="43.338561" lon="-6.440676">
        <ele>791.208</ele>
        <time>1999-07-24T08:43:48Z</time>
      </trkpt>
      <trkpt lat="43.338749" lon="-6.441046">
        <ele>791.016</ele>
        <time>1999-07-24T08:43:54Z</time>
      </trkpt>
      <trkpt lat="43.338883" lon="-6.441245">
        <ele>791.012</ele>
        <time>1999-07-24T08:43:58Z</time>
      </trkpt>
      <trkpt lat="43.338936" lon="-6.441298">
        <ele>791.073</ele>
        <time>1999-07-24T08:43:59Z</time>
      </trkpt>
      <trkpt lat="43.339052" lon="-6.441394">
        <ele>790.874</ele>
        <time>1999-07-24T08:44:02Z</time>
      </trkpt>
      <trkpt lat="43.339069" lon="-6.441420">
        <ele>790.888</ele>
        <time>1999-07-24T08:44:03Z</time>
      </trkpt>
      <trkpt lat="43.339076" lon="-6.441569">
        <ele>790.457</ele>
        <time>1999-07-24T08:44:07Z</time>
      </trkpt>
      <trkpt lat="43.339068" lon="-6.441607">
        <ele>789.823</ele>
        <time>1999-07-24T08:44:08Z</time>
      </trkpt>
      <trkpt lat="43.339053" lon="-6.441723">
        <ele>788.875</ele>
        <time>1999-07-24T08:44:12Z</time>
      </trkpt>
      <trkpt lat="43.339071" lon="-6.441777">
        <ele>788.687</ele>
        <time>1999-07-24T08:44:14Z</time>
      </trkpt>
      <trkpt lat="43.339102" lon="-6.441847">
        <ele>788.642</ele>
        <time>1999-07-24T08:44:17Z</time>
      </trkpt>
      <trkpt lat="43.339111" lon="-6.441885">
        <ele>788.626</ele>
        <time>1999-07-24T08:44:19Z</time>
      </trkpt>
      <trkpt lat="43.339130" lon="-6.441939">
        <ele>789.208</ele>
        <time>1999-07-24T08:44:22Z</time>
      </trkpt>
      <trkpt lat="43.339159" lon="-6.441974">
        <ele>789.641</ele>
        <time>1999-07-24T08:44:24Z</time>
      </trkpt>
      <trkpt lat="43.339169" lon="-6.441992">
        <ele>789.817</ele>
        <time>1999-07-24T08:44:25Z</time>
      </trkpt>
      <trkpt lat="43.339199" lon="-6.442053">
        <ele>791.248</ele>
        <time>1999-07-24T08:44:28Z</time>
      </trkpt>
      <trkpt lat="43.339221" lon="-6.442090">
        <ele>791.879</ele>
        <time>1999-07-24T08:44:30Z</time>
      </trkpt>
      <trkpt lat="43.339228" lon="-6.442111">
        <ele>791.883</ele>
        <time>1999-07-24T08:44:31Z</time>
      </trkpt>
      <trkpt lat="43.339234" lon="-6.442131">
        <ele>792.282</ele>
        <time>1999-07-24T08:44:32Z</time>
      </trkpt>
      <trkpt lat="43.339255" lon="-6.442179">
        <ele>793.238</ele>
        <time>1999-07-24T08:44:35Z</time>
      </trkpt>
      <trkpt lat="43.339276" lon="-6.442205">
        <ele>794.070</ele>
        <time>1999-07-24T08:44:37Z</time>
      </trkpt>
      <trkpt lat="43.339289" lon="-6.442216">
        <ele>794.445</ele>
        <time>1999-07-24T08:44:38Z</time>
      </trkpt>
      <trkpt lat="43.339333" lon="-6.442277">
        <ele>795.447</ele>
        <time>1999-07-24T08:44:42Z</time>
      </trkpt>
      <trkpt lat="43.339350" lon="-6.442296">
        <ele>795.611</ele>
        <time>1999-07-24T08:44:43Z</time>
      </trkpt>
      <trkpt lat="43.339427" lon="-6.442430">
        <ele>796.208</ele>
        <time>1999-07-24T08:44:48Z</time>
      </trkpt>
      <trkpt lat="43.339448" lon="-6.442565">
        <ele>796.467</ele>
        <time>1999-07-24T08:44:52Z</time>
      </trkpt>
      <trkpt lat="43.339450" lon="-6.442604">
        <ele>796.493</ele>
        <time>1999-07-24T08:44:53Z</time>
      </trkpt>
      <trkpt lat="43.339465" lon="-6.442808">
        <ele>796.844</ele>
        <time>1999-07-24T08:44:59Z</time>
      </trkpt>
      <trkpt lat="43.339452" lon="-6.442985">
        <ele>796.835</ele>
        <time>1999-07-24T08:45:04Z</time>
      </trkpt>
      <trkpt lat="43.339452" lon="-6.443058">
        <ele>797.049</ele>
        <time>1999-07-24T08:45:06Z</time>
      </trkpt>
      <trkpt lat="43.339450" lon="-6.443130">
        <ele>797.248</ele>
        <time>1999-07-24T08:45:08Z</time>
      </trkpt>
      <trkpt lat="43.339451" lon="-6.443307">
        <ele>798.024</ele>
        <time>1999-07-24T08:45:13Z</time>
      </trkpt>
      <trkpt lat="43.339453" lon="-6.443404">
        <ele>798.446</ele>
        <time>1999-07-24T08:45:16Z</time>
      </trkpt>
      <trkpt lat="43.339458" lon="-6.443492">
        <ele>798.882</ele>
        <time>1999-07-24T08:45:19Z</time>
      </trkpt>
      <trkpt lat="43.339474" lon="-6.443593">
        <ele>799.443</ele>
        <time>1999-07-24T08:45:23Z</time>
      </trkpt>
      <trkpt lat="43.339492" lon="-6.443646">
        <ele>799.617</ele>
        <time>1999-07-24T08:45:25Z</time>
      </trkpt>
      <trkpt lat="43.339520" lon="-6.443725">
        <ele>800.408</ele>
        <time>1999-07-24T08:45:29Z</time>
      </trkpt>
      <trkpt lat="43.339540" lon="-6.443770">
        <ele>800.831</ele>
        <time>1999-07-24T08:45:31Z</time>
      </trkpt>
      <trkpt lat="43.339586" lon="-6.443878">
        <ele>801.487</ele>
        <time>1999-07-24T08:45:36Z</time>
      </trkpt>
      <trkpt lat="43.339620" lon="-6.443971">
        <ele>802.458</ele>
        <time>1999-07-24T08:45:40Z</time>
      </trkpt>
      <trkpt lat="43.339624" lon="-6.443986">
        <ele>802.699</ele>
        <time>1999-07-24T08:45:41Z</time>
      </trkpt>
      <trkpt lat="43.339637" lon="-6.444002">
        <ele>802.863</ele>
        <time>1999-07-24T08:45:42Z</time>
      </trkpt>
      <trkpt lat="43.339675" lon="-6.444044">
        <ele>803.432</ele>
        <time>1999-07-24T08:45:45Z</time>
      </trkpt>
      <trkpt lat="43.339687" lon="-6.444056">
        <ele>803.898</ele>
        <time>1999-07-24T08:45:46Z</time>
      </trkpt>
      <trkpt lat="43.339705" lon="-6.444085">
        <ele>804.420</ele>
        <time>1999-07-24T08:45:48Z</time>
      </trkpt>
      <trkpt lat="43.339729" lon="-6.444119">
        <ele>805.418</ele>
        <time>1999-07-24T08:45:50Z</time>
      </trkpt>
      <trkpt lat="43.339743" lon="-6.444158">
        <ele>806.298</ele>
        <time>1999-07-24T08:45:53Z</time>
      </trkpt>
      <trkpt lat="43.339758" lon="-6.444172">
        <ele>806.617</ele>
        <time>1999-07-24T08:45:54Z</time>
      </trkpt>
      <trkpt lat="43.339778" lon="-6.444209">
        <ele>807.608</ele>
        <time>1999-07-24T08:45:57Z</time>
      </trkpt>
      <trkpt lat="43.339789" lon="-6.444225">
        <ele>808.024</ele>
        <time>1999-07-24T08:45:58Z</time>
      </trkpt>
      <trkpt lat="43.339810" lon="-6.444277">
        <ele>809.060</ele>
        <time>1999-07-24T08:46:01Z</time>
      </trkpt>
      <trkpt lat="43.339836" lon="-6.444319">
        <ele>809.491</ele>
        <time>1999-07-24T08:46:03Z</time>
      </trkpt>
      <trkpt lat="43.339905" lon="-6.444421">
        <ele>810.212</ele>
        <time>1999-07-24T08:46:09Z</time>
      </trkpt>
      <trkpt lat="43.339920" lon="-6.444436">
        <ele>810.286</ele>
        <time>1999-07-24T08:46:10Z</time>
      </trkpt>
      <trkpt lat="43.339988" lon="-6.444523">
        <ele>810.895</ele>
        <time>1999-07-24T08:46:15Z</time>
      </trkpt>
      <trkpt lat="43.340021" lon="-6.444561">
        <ele>811.291</ele>
        <time>1999-07-24T08:46:18Z</time>
      </trkpt>
      <trkpt lat="43.340053" lon="-6.444576">
        <ele>811.443</ele>
        <time>1999-07-24T08:46:20Z</time>
      </trkpt>
      <trkpt lat="43.340108" lon="-6.444606">
        <ele>812.289</ele>
        <time>1999-07-24T08:46:23Z</time>
      </trkpt>
      <trkpt lat="43.340123" lon="-6.444611">
        <ele>812.406</ele>
        <time>1999-07-24T08:46:24Z</time>
      </trkpt>
      <trkpt lat="43.340135" lon="-6.444621">
        <ele>812.626</ele>
        <time>1999-07-24T08:46:25Z</time>
      </trkpt>
      <trkpt lat="43.340177" lon="-6.444653">
        <ele>813.008</ele>
        <time>1999-07-24T08:46:28Z</time>
      </trkpt>
      <trkpt lat="43.340217" lon="-6.444695">
        <ele>813.451</ele>
        <time>1999-07-24T08:46:31Z</time>
      </trkpt>
      <trkpt lat="43.340324" lon="-6.444831">
        <ele>814.287</ele>
        <time>1999-07-24T08:46:38Z</time>
      </trkpt>
      <trkpt lat="43.340407" lon="-6.444908">
        <ele>815.068</ele>
        <time>1999-07-24T08:46:44Z</time>
      </trkpt>
      <trkpt lat="43.340427" lon="-6.444931">
        <ele>815.419</ele>
        <time>1999-07-24T08:46:46Z</time>
      </trkpt>
      <trkpt lat="43.340431" lon="-6.444944">
        <ele>815.873</ele>
        <time>1999-07-24T08:46:48Z</time>
      </trkpt>
      <trkpt lat="43.340436" lon="-6.444946">
        <ele>816.012</ele>
        <time>1999-07-24T08:46:49Z</time>
      </trkpt>
      <trkpt lat="43.340503" lon="-6.444992">
        <ele>817.228</ele>
        <time>1999-07-24T08:46:55Z</time>
      </trkpt>
      <trkpt lat="43.340533" lon="-6.445012">
        <ele>817.620</ele>
        <time>1999-07-24T08:46:57Z</time>
      </trkpt>
      <trkpt lat="43.340568" lon="-6.445041">
        <ele>818.474</ele>
        <time>1999-07-24T08:47:00Z</time>
      </trkpt>
      <trkpt lat="43.340631" lon="-6.445068">
        <ele>819.056</ele>
        <time>1999-07-24T08:47:03Z</time>
      </trkpt>
      <trkpt lat="43.340699" lon="-6.445137">
        <ele>819.621</ele>
        <time>1999-07-24T08:47:07Z</time>
      </trkpt>
      <trkpt lat="43.340712" lon="-6.445152">
        <ele>819.608</ele>
        <time>1999-07-24T08:47:08Z</time>
      </trkpt>
      <trkpt lat="43.340745" lon="-6.445197">
        <ele>820.890</ele>
        <time>1999-07-24T08:47:11Z</time>
      </trkpt>
      <trkpt lat="43.340793" lon="-6.445238">
        <ele>821.466</ele>
        <time>1999-07-24T08:47:14Z</time>
      </trkpt>
      <trkpt lat="43.340807" lon="-6.445251">
        <ele>821.647</ele>
        <time>1999-07-24T08:47:15Z</time>
      </trkpt>
      <trkpt lat="43.340850" lon="-6.445288">
        <ele>821.848</ele>
        <time>1999-07-24T08:47:17Z</time>
      </trkpt>
      <trkpt lat="43.340871" lon="-6.445310">
        <ele>822.032</ele>
        <time>1999-07-24T08:47:18Z</time>
      </trkpt>
      <trkpt lat="43.340920" lon="-6.445377">
        <ele>822.221</ele>
        <time>1999-07-24T08:47:21Z</time>
      </trkpt>
      <trkpt lat="43.340980" lon="-6.445413">
        <ele>822.467</ele>
        <time>1999-07-24T08:47:24Z</time>
      </trkpt>
      <trkpt lat="43.341073" lon="-6.445462">
        <ele>823.029</ele>
        <time>1999-07-24T08:47:29Z</time>
      </trkpt>
      <trkpt lat="43.341171" lon="-6.445498">
        <ele>824.064</ele>
        <time>1999-07-24T08:47:34Z</time>
      </trkpt>
      <trkpt lat="43.341187" lon="-6.445500">
        <ele>824.006</ele>
        <time>1999-07-24T08:47:35Z</time>
      </trkpt>
      <trkpt lat="43.341236" lon="-6.445523">
        <ele>825.016</ele>
        <time>1999-07-24T08:47:38Z</time>
      </trkpt>
      <trkpt lat="43.341261" lon="-6.445520">
        <ele>825.408</ele>
        <time>1999-07-24T08:47:40Z</time>
      </trkpt>
      <trkpt lat="43.341267" lon="-6.445506">
        <ele>825.669</ele>
        <time>1999-07-24T08:47:42Z</time>
      </trkpt>
      <trkpt lat="43.341365" lon="-6.445597">
        <ele>826.675</ele>
        <time>1999-07-24T08:47:48Z</time>
      </trkpt>
      <trkpt lat="43.341378" lon="-6.445611">
        <ele>826.856</ele>
        <time>1999-07-24T08:47:49Z</time>
      </trkpt>
      <trkpt lat="43.341399" lon="-6.445675">
        <ele>827.687</ele>
        <time>1999-07-24T08:47:53Z</time>
      </trkpt>
      <trkpt lat="43.341403" lon="-6.445698">
        <ele>827.871</ele>
        <time>1999-07-24T08:47:54Z</time>
      </trkpt>
      <trkpt lat="43.341423" lon="-6.445793">
        <ele>828.650</ele>
        <time>1999-07-24T08:47:58Z</time>
      </trkpt>
      <trkpt lat="43.341423" lon="-6.445808">
        <ele>828.626</ele>
        <time>1999-07-24T08:47:59Z</time>
      </trkpt>
      <trkpt lat="43.341415" lon="-6.445824">
        <ele>828.838</ele>
        <time>1999-07-24T08:48:00Z</time>
      </trkpt>
      <trkpt lat="43.341416" lon="-6.445865">
        <ele>829.658</ele>
        <time>1999-07-24T08:48:03Z</time>
      </trkpt>
      <trkpt lat="43.341417" lon="-6.445880">
        <ele>829.852</ele>
        <time>1999-07-24T08:48:04Z</time>
      </trkpt>
      <trkpt lat="43.341415" lon="-6.445900">
        <ele>830.017</ele>
        <time>1999-07-24T08:48:05Z</time>
      </trkpt>
      <trkpt lat="43.341386" lon="-6.445998">
        <ele>830.808</ele>
        <time>1999-07-24T08:48:09Z</time>
      </trkpt>
      <trkpt lat="43.341374" lon="-6.446021">
        <ele>830.838</ele>
        <time>1999-07-24T08:48:10Z</time>
      </trkpt>
      <trkpt lat="43.341305" lon="-6.446162">
        <ele>831.824</ele>
        <time>1999-07-24T08:48:15Z</time>
      </trkpt>
      <trkpt lat="43.341289" lon="-6.446214">
        <ele>832.275</ele>
        <time>1999-07-24T08:48:17Z</time>
      </trkpt>
      <trkpt lat="43.341265" lon="-6.446259">
        <ele>832.836</ele>
        <time>1999-07-24T08:48:19Z</time>
      </trkpt>
      <trkpt lat="43.341217" lon="-6.446344">
        <ele>833.640</ele>
        <time>1999-07-24T08:48:22Z</time>
      </trkpt>
      <trkpt lat="43.341201" lon="-6.446367">
        <ele>834.019</ele>
        <time>1999-07-24T08:48:23Z</time>
      </trkpt>
      <trkpt lat="43.341160" lon="-6.446444">
        <ele>835.035</ele>
        <time>1999-07-24T08:48:26Z</time>
      </trkpt>
      <trkpt lat="43.341131" lon="-6.446487">
        <ele>835.857</ele>
        <time>1999-07-24T08:48:28Z</time>
      </trkpt>
      <trkpt lat="43.341118" lon="-6.446538">
        <ele>836.291</ele>
        <time>1999-07-24T08:48:30Z</time>
      </trkpt>
      <trkpt lat="43.341105" lon="-6.446626">
        <ele>837.681</ele>
        <time>1999-07-24T08:48:34Z</time>
      </trkpt>
      <trkpt lat="43.341085" lon="-6.446754">
        <ele>838.819</ele>
        <time>1999-07-24T08:48:40Z</time>
      </trkpt>
      <trkpt lat="43.341080" lon="-6.446775">
        <ele>839.008</ele>
        <time>1999-07-24T08:48:41Z</time>
      </trkpt>
      <trkpt lat="43.341063" lon="-6.446842">
        <ele>839.842</ele>
        <time>1999-07-24T08:48:44Z</time>
      </trkpt>
      <trkpt lat="43.341026" lon="-6.446938">
        <ele>840.898</ele>
        <time>1999-07-24T08:48:48Z</time>
      </trkpt>
      <trkpt lat="43.340998" lon="-6.447053">
        <ele>841.619</ele>
        <time>1999-07-24T08:48:53Z</time>
      </trkpt>
      <trkpt lat="43.340992" lon="-6.447074">
        <ele>841.630</ele>
        <time>1999-07-24T08:48:54Z</time>
      </trkpt>
      <trkpt lat="43.340987" lon="-6.447095">
        <ele>841.664</ele>
        <time>1999-07-24T08:48:55Z</time>
      </trkpt>
      <trkpt lat="43.340983" lon="-6.447115">
        <ele>841.833</ele>
        <time>1999-07-24T08:48:56Z</time>
      </trkpt>
      <trkpt lat="43.340968" lon="-6.447184">
        <ele>841.849</ele>
        <time>1999-07-24T08:48:59Z</time>
      </trkpt>
      <trkpt lat="43.340931" lon="-6.447261">
        <ele>842.851</ele>
        <time>1999-07-24T08:49:03Z</time>
      </trkpt>
      <trkpt lat="43.340922" lon="-6.447277">
        <ele>842.853</ele>
        <time>1999-07-24T08:49:04Z</time>
      </trkpt>
      <trkpt lat="43.340913" lon="-6.447294">
        <ele>843.004</ele>
        <time>1999-07-24T08:49:05Z</time>
      </trkpt>
      <trkpt lat="43.340887" lon="-6.447327">
        <ele>843.214</ele>
        <time>1999-07-24T08:49:07Z</time>
      </trkpt>
      <trkpt lat="43.340857" lon="-6.447378">
        <ele>843.608</ele>
        <time>1999-07-24T08:49:10Z</time>
      </trkpt>
      <trkpt lat="43.340846" lon="-6.447392">
        <ele>843.868</ele>
        <time>1999-07-24T08:49:11Z</time>
      </trkpt>
      <trkpt lat="43.340825" lon="-6.447423">
        <ele>844.294</ele>
        <time>1999-07-24T08:49:13Z</time>
      </trkpt>
      <trkpt lat="43.340783" lon="-6.447467">
        <ele>845.025</ele>
        <time>1999-07-24T08:49:16Z</time>
      </trkpt>
      <trkpt lat="43.340722" lon="-6.447566">
        <ele>846.276</ele>
        <time>1999-07-24T08:49:21Z</time>
      </trkpt>
      <trkpt lat="43.340721" lon="-6.447596">
        <ele>846.470</ele>
        <time>1999-07-24T08:49:22Z</time>
      </trkpt>
      <trkpt lat="43.340708" lon="-6.447689">
        <ele>847.249</ele>
        <time>1999-07-24T08:49:26Z</time>
      </trkpt>
      <trkpt lat="43.340703" lon="-6.447748">
        <ele>847.665</ele>
        <time>1999-07-24T08:49:28Z</time>
      </trkpt>
      <trkpt lat="43.340682" lon="-6.447887">
        <ele>848.487</ele>
        <time>1999-07-24T08:49:34Z</time>
      </trkpt>
      <trkpt lat="43.340685" lon="-6.447911">
        <ele>848.477</ele>
        <time>1999-07-24T08:49:35Z</time>
      </trkpt>
      <trkpt lat="43.340688" lon="-6.448098">
        <ele>849.461</ele>
        <time>1999-07-24T08:49:42Z</time>
      </trkpt>
      <trkpt lat="43.340702" lon="-6.448217">
        <ele>850.427</ele>
        <time>1999-07-24T08:49:47Z</time>
      </trkpt>
      <trkpt lat="43.340703" lon="-6.448236">
        <ele>850.608</ele>
        <time>1999-07-24T08:49:48Z</time>
      </trkpt>
      <trkpt lat="43.340706" lon="-6.448342">
        <ele>851.650</ele>
        <time>1999-07-24T08:49:53Z</time>
      </trkpt>
      <trkpt lat="43.340714" lon="-6.448410">
        <ele>852.476</ele>
        <time>1999-07-24T08:49:56Z</time>
      </trkpt>
      <trkpt lat="43.340726" lon="-6.448457">
        <ele>852.667</ele>
        <time>1999-07-24T08:49:58Z</time>
      </trkpt>
      <trkpt lat="43.340727" lon="-6.448481">
        <ele>852.898</ele>
        <time>1999-07-24T08:49:59Z</time>
      </trkpt>
      <trkpt lat="43.340732" lon="-6.448545">
        <ele>853.432</ele>
        <time>1999-07-24T08:50:02Z</time>
      </trkpt>
      <trkpt lat="43.340735" lon="-6.448569">
        <ele>853.681</ele>
        <time>1999-07-24T08:50:03Z</time>
      </trkpt>
      <trkpt lat="43.340738" lon="-6.448589">
        <ele>853.647</ele>
        <time>1999-07-24T08:50:04Z</time>
      </trkpt>
      <trkpt lat="43.340745" lon="-6.448656">
        <ele>854.419</ele>
        <time>1999-07-24T08:50:07Z</time>
      </trkpt>
      <trkpt lat="43.340748" lon="-6.448678">
        <ele>854.839</ele>
        <time>1999-07-24T08:50:08Z</time>
      </trkpt>
      <trkpt lat="43.340754" lon="-6.448699">
        <ele>855.001</ele>
        <time>1999-07-24T08:50:09Z</time>
      </trkpt>
      <trkpt lat="43.340774" lon="-6.448781">
        <ele>856.021</ele>
        <time>1999-07-24T08:50:13Z</time>
      </trkpt>
      <trkpt lat="43.340781" lon="-6.448830">
        <ele>856.608</ele>
        <time>1999-07-24T08:50:15Z</time>
      </trkpt>
      <trkpt lat="43.340793" lon="-6.448899">
        <ele>857.226</ele>
        <time>1999-07-24T08:50:18Z</time>
      </trkpt>
      <trkpt lat="43.340800" lon="-6.448965">
        <ele>858.062</ele>
        <time>1999-07-24T08:50:21Z</time>
      </trkpt>
      <trkpt lat="43.340803" lon="-6.448990">
        <ele>858.423</ele>
        <time>1999-07-24T08:50:22Z</time>
      </trkpt>
      <trkpt lat="43.340830" lon="-6.449111">
        <ele>859.424</ele>
        <time>1999-07-24T08:50:27Z</time>
      </trkpt>
      <trkpt lat="43.340836" lon="-6.449134">
        <ele>859.868</ele>
        <time>1999-07-24T08:50:28Z</time>
      </trkpt>
      <trkpt lat="43.340866" lon="-6.449260">
        <ele>860.657</ele>
        <time>1999-07-24T08:50:33Z</time>
      </trkpt>
      <trkpt lat="43.340900" lon="-6.449402">
        <ele>861.653</ele>
        <time>1999-07-24T08:50:38Z</time>
      </trkpt>
      <trkpt lat="43.340907" lon="-6.449432">
        <ele>861.815</ele>
        <time>1999-07-24T08:50:39Z</time>
      </trkpt>
      <trkpt lat="43.340912" lon="-6.449600">
        <ele>862.279</ele>
        <time>1999-07-24T08:50:44Z</time>
      </trkpt>
      <trkpt lat="43.340931" lon="-6.449756">
        <ele>862.605</ele>
        <time>1999-07-24T08:50:49Z</time>
      </trkpt>
      <trkpt lat="43.340934" lon="-6.449793">
        <ele>863.225</ele>
        <time>1999-07-24T08:50:50Z</time>
      </trkpt>
      <trkpt lat="43.340952" lon="-6.449959">
        <ele>863.808</ele>
        <time>1999-07-24T08:50:55Z</time>
      </trkpt>
      <trkpt lat="43.340970" lon="-6.450032">
        <ele>864.250</ele>
        <time>1999-07-24T08:50:57Z</time>
      </trkpt>
      <trkpt lat="43.341008" lon="-6.450173">
        <ele>864.866</ele>
        <time>1999-07-24T08:51:01Z</time>
      </trkpt>
      <trkpt lat="43.341017" lon="-6.450208">
        <ele>865.027</ele>
        <time>1999-07-24T08:51:02Z</time>
      </trkpt>
      <trkpt lat="43.341058" lon="-6.450428">
        <ele>865.698</ele>
        <time>1999-07-24T08:51:08Z</time>
      </trkpt>
      <trkpt lat="43.341075" lon="-6.450494">
        <ele>866.082</ele>
        <time>1999-07-24T08:51:10Z</time>
      </trkpt>
      <trkpt lat="43.341133" lon="-6.450642">
        <ele>866.891</ele>
        <time>1999-07-24T08:51:15Z</time>
      </trkpt>
      <trkpt lat="43.341159" lon="-6.450701">
        <ele>867.287</ele>
        <time>1999-07-24T08:51:17Z</time>
      </trkpt>
      <trkpt lat="43.341223" lon="-6.450854">
        <ele>867.829</ele>
        <time>1999-07-24T08:51:22Z</time>
      </trkpt>
      <trkpt lat="43.341237" lon="-6.450929">
        <ele>868.229</ele>
        <time>1999-07-24T08:51:24Z</time>
      </trkpt>
      <trkpt lat="43.341238" lon="-6.451068">
        <ele>868.800</ele>
        <time>1999-07-24T08:51:27Z</time>
      </trkpt>
      <trkpt lat="43.341193" lon="-6.451322">
        <ele>869.220</ele>
        <time>1999-07-24T08:51:32Z</time>
      </trkpt>
      <trkpt lat="43.341189" lon="-6.451373">
        <ele>869.408</ele>
        <time>1999-07-24T08:51:33Z</time>
      </trkpt>
      <trkpt lat="43.341171" lon="-6.451725">
        <ele>869.625</ele>
        <time>1999-07-24T08:51:40Z</time>
      </trkpt>
      <trkpt lat="43.341156" lon="-6.451828">
        <ele>869.891</ele>
        <time>1999-07-24T08:51:42Z</time>
      </trkpt>
      <trkpt lat="43.341061" lon="-6.452117">
        <ele>870.432</ele>
        <time>1999-07-24T08:51:48Z</time>
      </trkpt>
      <trkpt lat="43.341042" lon="-6.452162">
        <ele>870.453</ele>
        <time>1999-07-24T08:51:49Z</time>
      </trkpt>
      <trkpt lat="43.340937" lon="-6.452444">
        <ele>871.047</ele>
        <time>1999-07-24T08:51:56Z</time>
      </trkpt>
      <trkpt lat="43.340941" lon="-6.452488">
        <ele>871.076</ele>
        <time>1999-07-24T08:51:57Z</time>
      </trkpt>
      <trkpt lat="43.340976" lon="-6.452553">
        <ele>871.232</ele>
        <time>1999-07-24T08:51:59Z</time>
      </trkpt>
      <trkpt lat="43.341058" lon="-6.452596">
        <ele>871.424</ele>
        <time>1999-07-24T08:52:02Z</time>
      </trkpt>
      <trkpt lat="43.341144" lon="-6.452625">
        <ele>871.856</ele>
        <time>1999-07-24T08:52:05Z</time>
      </trkpt>
      <trkpt lat="43.341306" lon="-6.452665">
        <ele>872.459</ele>
        <time>1999-07-24T08:52:11Z</time>
      </trkpt>
      <trkpt lat="43.341359" lon="-6.452708">
        <ele>872.614</ele>
        <time>1999-07-24T08:52:13Z</time>
      </trkpt>
      <trkpt lat="43.341402" lon="-6.452844">
        <ele>872.808</ele>
        <time>1999-07-24T08:52:17Z</time>
      </trkpt>
      <trkpt lat="43.341440" lon="-6.453058">
        <ele>873.698</ele>
        <time>1999-07-24T08:52:23Z</time>
      </trkpt>
      <trkpt lat="43.341450" lon="-6.453094">
        <ele>873.814</ele>
        <time>1999-07-24T08:52:24Z</time>
      </trkpt>
      <trkpt lat="43.341472" lon="-6.453207">
        <ele>874.835</ele>
        <time>1999-07-24T08:52:27Z</time>
      </trkpt>
      <trkpt lat="43.341497" lon="-6.453377">
        <ele>875.676</ele>
        <time>1999-07-24T08:52:31Z</time>
      </trkpt>
      <trkpt lat="43.341504" lon="-6.453422">
        <ele>875.860</ele>
        <time>1999-07-24T08:52:32Z</time>
      </trkpt>
      <trkpt lat="43.341528" lon="-6.453644">
        <ele>876.019</ele>
        <time>1999-07-24T08:52:37Z</time>
      </trkpt>
      <trkpt lat="43.341563" lon="-6.453918">
        <ele>876.455</ele>
        <time>1999-07-24T08:52:43Z</time>
      </trkpt>
      <trkpt lat="43.341572" lon="-6.454106">
        <ele>876.677</ele>
        <time>1999-07-24T08:52:48Z</time>
      </trkpt>
      <trkpt lat="43.341571" lon="-6.454296">
        <ele>876.893</ele>
        <time>1999-07-24T08:52:53Z</time>
      </trkpt>
      <trkpt lat="43.341580" lon="-6.454332">
        <ele>877.065</ele>
        <time>1999-07-24T08:52:54Z</time>
      </trkpt>
      <trkpt lat="43.341636" lon="-6.454452">
        <ele>877.421</ele>
        <time>1999-07-24T08:52:59Z</time>
      </trkpt>
      <trkpt lat="43.341737" lon="-6.454583">
        <ele>878.008</ele>
        <time>1999-07-24T08:53:05Z</time>
      </trkpt>
      <trkpt lat="43.341767" lon="-6.454627">
        <ele>878.282</ele>
        <time>1999-07-24T08:53:07Z</time>
      </trkpt>
      <trkpt lat="43.341818" lon="-6.454747">
        <ele>879.098</ele>
        <time>1999-07-24T08:53:11Z</time>
      </trkpt>
      <trkpt lat="43.341817" lon="-6.454816">
        <ele>879.669</ele>
        <time>1999-07-24T08:53:13Z</time>
      </trkpt>
      <trkpt lat="43.341763" lon="-6.454987">
        <ele>880.010</ele>
        <time>1999-07-24T08:53:19Z</time>
      </trkpt>
      <trkpt lat="43.341753" lon="-6.455014">
        <ele>880.084</ele>
        <time>1999-07-24T08:53:20Z</time>
      </trkpt>
      <trkpt lat="43.341709" lon="-6.455155">
        <ele>881.273</ele>
        <time>1999-07-24T08:53:25Z</time>
      </trkpt>
      <trkpt lat="43.341679" lon="-6.455239">
        <ele>881.629</ele>
        <time>1999-07-24T08:53:28Z</time>
      </trkpt>
      <trkpt lat="43.341634" lon="-6.455343">
        <ele>882.251</ele>
        <time>1999-07-24T08:53:32Z</time>
      </trkpt>
      <trkpt lat="43.341590" lon="-6.455451">
        <ele>883.476</ele>
        <time>1999-07-24T08:53:36Z</time>
      </trkpt>
      <trkpt lat="43.341564" lon="-6.455506">
        <ele>883.690</ele>
        <time>1999-07-24T08:53:38Z</time>
      </trkpt>
      <trkpt lat="43.341477" lon="-6.455658">
        <ele>884.619</ele>
        <time>1999-07-24T08:53:44Z</time>
      </trkpt>
      <trkpt lat="43.341414" lon="-6.455745">
        <ele>885.008</ele>
        <time>1999-07-24T08:53:48Z</time>
      </trkpt>
      <trkpt lat="43.341370" lon="-6.455811">
        <ele>885.650</ele>
        <time>1999-07-24T08:53:51Z</time>
      </trkpt>
      <trkpt lat="43.341274" lon="-6.455944">
        <ele>886.876</ele>
        <time>1999-07-24T08:53:57Z</time>
      </trkpt>
      <trkpt lat="43.341258" lon="-6.455967">
        <ele>887.027</ele>
        <time>1999-07-24T08:53:58Z</time>
      </trkpt>
      <trkpt lat="43.341174" lon="-6.456084">
        <ele>888.068</ele>
        <time>1999-07-24T08:54:03Z</time>
      </trkpt>
      <trkpt lat="43.341099" lon="-6.456186">
        <ele>888.862</ele>
        <time>1999-07-24T08:54:07Z</time>
      </trkpt>
      <trkpt lat="43.341060" lon="-6.456238">
        <ele>889.041</ele>
        <time>1999-07-24T08:54:09Z</time>
      </trkpt>
      <trkpt lat="43.340936" lon="-6.456402">
        <ele>889.627</ele>
        <time>1999-07-24T08:54:16Z</time>
      </trkpt>
      <trkpt lat="43.340880" lon="-6.456471">
        <ele>890.019</ele>
        <time>1999-07-24T08:54:19Z</time>
      </trkpt>
      <trkpt lat="43.340772" lon="-6.456601">
        <ele>890.651</ele>
        <time>1999-07-24T08:54:25Z</time>
      </trkpt>
      <trkpt lat="43.340718" lon="-6.456667">
        <ele>891.201</ele>
        <time>1999-07-24T08:54:28Z</time>
      </trkpt>
      <trkpt lat="43.340645" lon="-6.456746">
        <ele>892.211</ele>
        <time>1999-07-24T08:54:32Z</time>
      </trkpt>
      <trkpt lat="43.340610" lon="-6.456789">
        <ele>892.408</ele>
        <time>1999-07-24T08:54:34Z</time>
      </trkpt>
      <trkpt lat="43.340539" lon="-6.456885">
        <ele>893.238</ele>
        <time>1999-07-24T08:54:38Z</time>
      </trkpt>
      <trkpt lat="43.340454" lon="-6.457029">
        <ele>894.234</ele>
        <time>1999-07-24T08:54:44Z</time>
      </trkpt>
      <trkpt lat="43.340389" lon="-6.457169">
        <ele>895.265</ele>
        <time>1999-07-24T08:54:51Z</time>
      </trkpt>
      <trkpt lat="43.340379" lon="-6.457214">
        <ele>895.676</ele>
        <time>1999-07-24T08:54:53Z</time>
      </trkpt>
      <trkpt lat="43.340379" lon="-6.457284">
        <ele>896.460</ele>
        <time>1999-07-24T08:54:56Z</time>
      </trkpt>
      <trkpt lat="43.340391" lon="-6.457356">
        <ele>897.489</ele>
        <time>1999-07-24T08:54:59Z</time>
      </trkpt>
      <trkpt lat="43.340401" lon="-6.457404">
        <ele>897.875</ele>
        <time>1999-07-24T08:55:01Z</time>
      </trkpt>
      <trkpt lat="43.340443" lon="-6.457488">
        <ele>898.697</ele>
        <time>1999-07-24T08:55:05Z</time>
      </trkpt>
      <trkpt lat="43.340486" lon="-6.457544">
        <ele>899.467</ele>
        <time>1999-07-24T08:55:08Z</time>
      </trkpt>
      <trkpt lat="43.340519" lon="-6.457584">
        <ele>899.881</ele>
        <time>1999-07-24T08:55:10Z</time>
      </trkpt>
      <trkpt lat="43.340589" lon="-6.457687">
        <ele>900.819</ele>
        <time>1999-07-24T08:55:15Z</time>
      </trkpt>
      <trkpt lat="43.340603" lon="-6.457717">
        <ele>900.808</ele>
        <time>1999-07-24T08:55:16Z</time>
      </trkpt>
      <trkpt lat="43.340669" lon="-6.457973">
        <ele>901.669</ele>
        <time>1999-07-24T08:55:22Z</time>
      </trkpt>
      <trkpt lat="43.340689" lon="-6.458308">
        <ele>901.645</ele>
        <time>1999-07-24T08:55:28Z</time>
      </trkpt>
      <trkpt lat="43.340689" lon="-6.458368">
        <ele>901.646</ele>
        <time>1999-07-24T08:55:29Z</time>
      </trkpt>
      <trkpt lat="43.340670" lon="-6.458615">
        <ele>901.667</ele>
        <time>1999-07-24T08:55:33Z</time>
      </trkpt>
      <trkpt lat="43.340658" lon="-6.458676">
        <ele>901.621</ele>
        <time>1999-07-24T08:55:34Z</time>
      </trkpt>
      <trkpt lat="43.340625" lon="-6.458796">
        <ele>901.610</ele>
        <time>1999-07-24T08:55:36Z</time>
      </trkpt>
      <trkpt lat="43.340475" lon="-6.459249">
        <ele>901.696</ele>
        <time>1999-07-24T08:55:44Z</time>
      </trkpt>
      <trkpt lat="43.340457" lon="-6.459309">
        <ele>901.678</ele>
        <time>1999-07-24T08:55:45Z</time>
      </trkpt>
      <trkpt lat="43.340324" lon="-6.459837">
        <ele>901.868</ele>
        <time>1999-07-24T08:55:53Z</time>
      </trkpt>
      <trkpt lat="43.340237" lon="-6.460127">
        <ele>901.842</ele>
        <time>1999-07-24T08:55:57Z</time>
      </trkpt>
      <trkpt lat="43.340185" lon="-6.460265">
        <ele>901.426</ele>
        <time>1999-07-24T08:55:59Z</time>
      </trkpt>
      <trkpt lat="43.340086" lon="-6.460550">
        <ele>900.408</ele>
        <time>1999-07-24T08:56:03Z</time>
      </trkpt>
      <trkpt lat="43.340028" lon="-6.460691">
        <ele>900.029</ele>
        <time>1999-07-24T08:56:05Z</time>
      </trkpt>
      <trkpt lat="43.339934" lon="-6.460912">
        <ele>899.445</ele>
        <time>1999-07-24T08:56:08Z</time>
      </trkpt>
      <trkpt lat="43.339833" lon="-6.461153">
        <ele>899.056</ele>
        <time>1999-07-24T08:56:11Z</time>
      </trkpt>
      <trkpt lat="43.339641" lon="-6.461573">
        <ele>898.487</ele>
        <time>1999-07-24T08:56:16Z</time>
      </trkpt>
      <trkpt lat="43.339559" lon="-6.461739">
        <ele>897.671</ele>
        <time>1999-07-24T08:56:18Z</time>
      </trkpt>
      <trkpt lat="43.339517" lon="-6.461818">
        <ele>897.030</ele>
        <time>1999-07-24T08:56:19Z</time>
      </trkpt>
      <trkpt lat="43.339379" lon="-6.462050">
        <ele>896.046</ele>
        <time>1999-07-24T08:56:22Z</time>
      </trkpt>
      <trkpt lat="43.339294" lon="-6.462176">
        <ele>895.848</ele>
        <time>1999-07-24T08:56:24Z</time>
      </trkpt>
      <trkpt lat="43.339247" lon="-6.462233">
        <ele>895.621</ele>
        <time>1999-07-24T08:56:25Z</time>
      </trkpt>
      <trkpt lat="43.339053" lon="-6.462398">
        <ele>894.841</ele>
        <time>1999-07-24T08:56:28Z</time>
      </trkpt>
      <trkpt lat="43.338978" lon="-6.462448">
        <ele>894.405</ele>
        <time>1999-07-24T08:56:29Z</time>
      </trkpt>
      <trkpt lat="43.338751" lon="-6.462616">
        <ele>893.208</ele>
        <time>1999-07-24T08:56:32Z</time>
      </trkpt>
      <trkpt lat="43.338681" lon="-6.462682">
        <ele>891.845</ele>
        <time>1999-07-24T08:56:33Z</time>
      </trkpt>
      <trkpt lat="43.338611" lon="-6.462753">
        <ele>890.841</ele>
        <time>1999-07-24T08:56:34Z</time>
      </trkpt>
      <trkpt lat="43.338477" lon="-6.462906">
        <ele>889.632</ele>
        <time>1999-07-24T08:56:36Z</time>
      </trkpt>
      <trkpt lat="43.338417" lon="-6.462986">
        <ele>888.683</ele>
        <time>1999-07-24T08:56:37Z</time>
      </trkpt>
      <trkpt lat="43.338361" lon="-6.463070">
        <ele>887.477</ele>
        <time>1999-07-24T08:56:38Z</time>
      </trkpt>
      <trkpt lat="43.338301" lon="-6.463160">
        <ele>885.816</ele>
        <time>1999-07-24T08:56:39Z</time>
      </trkpt>
      <trkpt lat="43.338240" lon="-6.463254">
        <ele>884.462</ele>
        <time>1999-07-24T08:56:40Z</time>
      </trkpt>
      <trkpt lat="43.338124" lon="-6.463439">
        <ele>883.084</ele>
        <time>1999-07-24T08:56:42Z</time>
      </trkpt>
      <trkpt lat="43.338070" lon="-6.463525">
        <ele>882.475</ele>
        <time>1999-07-24T08:56:43Z</time>
      </trkpt>
      <trkpt lat="43.338015" lon="-6.463601">
        <ele>881.628</ele>
        <time>1999-07-24T08:56:44Z</time>
      </trkpt>
      <trkpt lat="43.337959" lon="-6.463663">
        <ele>880.420</ele>
        <time>1999-07-24T08:56:45Z</time>
      </trkpt>
      <trkpt lat="43.337896" lon="-6.463713">
        <ele>879.608</ele>
        <time>1999-07-24T08:56:46Z</time>
      </trkpt>
      <trkpt lat="43.337827" lon="-6.463760">
        <ele>878.830</ele>
        <time>1999-07-24T08:56:47Z</time>
      </trkpt>
      <trkpt lat="43.337753" lon="-6.463808">
        <ele>877.036</ele>
        <time>1999-07-24T08:56:48Z</time>
      </trkpt>
      <trkpt lat="43.337585" lon="-6.463917">
        <ele>875.047</ele>
        <time>1999-07-24T08:56:50Z</time>
      </trkpt>
      <trkpt lat="43.337415" lon="-6.464041">
        <ele>873.688</ele>
        <time>1999-07-24T08:56:52Z</time>
      </trkpt>
      <trkpt lat="43.337283" lon="-6.464168">
        <ele>871.822</ele>
        <time>1999-07-24T08:56:54Z</time>
      </trkpt>
      <trkpt lat="43.337158" lon="-6.464292">
        <ele>870.041</ele>
        <time>1999-07-24T08:56:56Z</time>
      </trkpt>
      <trkpt lat="43.337016" lon="-6.464400">
        <ele>868.417</ele>
        <time>1999-07-24T08:56:58Z</time>
      </trkpt>
      <trkpt lat="43.336942" lon="-6.464454">
        <ele>867.429</ele>
        <time>1999-07-24T08:56:59Z</time>
      </trkpt>
      <trkpt lat="43.336867" lon="-6.464514">
        <ele>866.229</ele>
        <time>1999-07-24T08:57:00Z</time>
      </trkpt>
      <trkpt lat="43.336802" lon="-6.464577">
        <ele>865.200</ele>
        <time>1999-07-24T08:57:01Z</time>
      </trkpt>
      <trkpt lat="43.336698" lon="-6.464680">
        <ele>863.420</ele>
        <time>1999-07-24T08:57:03Z</time>
      </trkpt>
      <trkpt lat="43.336659" lon="-6.464721">
        <ele>862.408</ele>
        <time>1999-07-24T08:57:04Z</time>
      </trkpt>
      <trkpt lat="43.336584" lon="-6.464811">
        <ele>861.285</ele>
        <time>1999-07-24T08:57:06Z</time>
      </trkpt>
      <trkpt lat="43.336546" lon="-6.464865">
        <ele>861.071</ele>
        <time>1999-07-24T08:57:07Z</time>
      </trkpt>
      <trkpt lat="43.336456" lon="-6.464977">
        <ele>860.052</ele>
        <time>1999-07-24T08:57:09Z</time>
      </trkpt>
      <trkpt lat="43.336357" lon="-6.465099">
        <ele>858.633</ele>
        <time>1999-07-24T08:57:11Z</time>
      </trkpt>
      <trkpt lat="43.336302" lon="-6.465165">
        <ele>857.437</ele>
        <time>1999-07-24T08:57:12Z</time>
      </trkpt>
      <trkpt lat="43.336246" lon="-6.465230">
        <ele>856.226</ele>
        <time>1999-07-24T08:57:13Z</time>
      </trkpt>
      <trkpt lat="43.336183" lon="-6.465287">
        <ele>855.442</ele>
        <time>1999-07-24T08:57:14Z</time>
      </trkpt>
      <trkpt lat="43.336115" lon="-6.465330">
        <ele>854.814</ele>
        <time>1999-07-24T08:57:15Z</time>
      </trkpt>
      <trkpt lat="43.336042" lon="-6.465362">
        <ele>853.878</ele>
        <time>1999-07-24T08:57:16Z</time>
      </trkpt>
      <trkpt lat="43.335970" lon="-6.465397">
        <ele>853.633</ele>
        <time>1999-07-24T08:57:17Z</time>
      </trkpt>
      <trkpt lat="43.335834" lon="-6.465485">
        <ele>853.226</ele>
        <time>1999-07-24T08:57:19Z</time>
      </trkpt>
      <trkpt lat="43.335723" lon="-6.465572">
        <ele>852.008</ele>
        <time>1999-07-24T08:57:21Z</time>
      </trkpt>
      <trkpt lat="43.335667" lon="-6.465605">
        <ele>851.650</ele>
        <time>1999-07-24T08:57:23Z</time>
      </trkpt>
      <trkpt lat="43.335668" lon="-6.465600">
        <ele>851.616</ele>
        <time>1999-07-24T08:57:24Z</time>
      </trkpt>
      <trkpt lat="43.335666" lon="-6.465597">
        <ele>851.467</ele>
        <time>1999-07-24T08:57:26Z</time>
      </trkpt>
      <trkpt lat="43.335651" lon="-6.465604">
        <ele>849.448</ele>
        <time>1999-07-24T09:04:12Z</time>
      </trkpt>
      <trkpt lat="43.335635" lon="-6.465621">
        <ele>849.422</ele>
        <time>1999-07-24T09:04:13Z</time>
      </trkpt>
      <trkpt lat="43.335512" lon="-6.465679">
        <ele>849.431</ele>
        <time>1999-07-24T09:04:17Z</time>
      </trkpt>
      <trkpt lat="43.335281" lon="-6.465720">
        <ele>849.297</ele>
        <time>1999-07-24T09:04:21Z</time>
      </trkpt>
      <trkpt lat="43.335117" lon="-6.465714">
        <ele>849.219</ele>
        <time>1999-07-24T09:04:23Z</time>
      </trkpt>
      <trkpt lat="43.334913" lon="-6.465718">
        <ele>849.076</ele>
        <time>1999-07-24T09:04:25Z</time>
      </trkpt>
      <trkpt lat="43.334494" lon="-6.465825">
        <ele>848.290</ele>
        <time>1999-07-24T09:04:29Z</time>
      </trkpt>
      <trkpt lat="43.334393" lon="-6.465883">
        <ele>847.819</ele>
        <time>1999-07-24T09:04:30Z</time>
      </trkpt>
      <trkpt lat="43.334190" lon="-6.466036">
        <ele>846.408</ele>
        <time>1999-07-24T09:04:32Z</time>
      </trkpt>
      <trkpt lat="43.334088" lon="-6.466123">
        <ele>845.270</ele>
        <time>1999-07-24T09:04:33Z</time>
      </trkpt>
      <trkpt lat="43.333984" lon="-6.466219">
        <ele>844.286</ele>
        <time>1999-07-24T09:04:34Z</time>
      </trkpt>
      <trkpt lat="43.333882" lon="-6.466318">
        <ele>842.817</ele>
        <time>1999-07-24T09:04:35Z</time>
      </trkpt>
      <trkpt lat="43.333784" lon="-6.466416">
        <ele>841.698</ele>
        <time>1999-07-24T09:04:36Z</time>
      </trkpt>
      <trkpt lat="43.333606" lon="-6.466583">
        <ele>839.892</ele>
        <time>1999-07-24T09:04:38Z</time>
      </trkpt>
      <trkpt lat="43.333517" lon="-6.466659">
        <ele>837.611</ele>
        <time>1999-07-24T09:04:39Z</time>
      </trkpt>
      <trkpt lat="43.333425" lon="-6.466726">
        <ele>836.637</ele>
        <time>1999-07-24T09:04:40Z</time>
      </trkpt>
      <trkpt lat="43.333335" lon="-6.466781">
        <ele>835.429</ele>
        <time>1999-07-24T09:04:41Z</time>
      </trkpt>
      <trkpt lat="43.333250" lon="-6.466825">
        <ele>833.818</ele>
        <time>1999-07-24T09:04:42Z</time>
      </trkpt>
      <trkpt lat="43.333175" lon="-6.466856">
        <ele>831.698</ele>
        <time>1999-07-24T09:04:43Z</time>
      </trkpt>
      <trkpt lat="43.333113" lon="-6.466872">
        <ele>829.217</ele>
        <time>1999-07-24T09:04:44Z</time>
      </trkpt>
      <trkpt lat="43.333061" lon="-6.466878">
        <ele>826.808</ele>
        <time>1999-07-24T09:04:45Z</time>
      </trkpt>
      <trkpt lat="43.333014" lon="-6.466877">
        <ele>824.894</ele>
        <time>1999-07-24T09:04:46Z</time>
      </trkpt>
      <trkpt lat="43.332972" lon="-6.466870">
        <ele>822.850</ele>
        <time>1999-07-24T09:04:47Z</time>
      </trkpt>
      <trkpt lat="43.332930" lon="-6.466869">
        <ele>821.281</ele>
        <time>1999-07-24T09:04:48Z</time>
      </trkpt>
      <trkpt lat="43.332894" lon="-6.466877">
        <ele>819.432</ele>
        <time>1999-07-24T09:04:49Z</time>
      </trkpt>
      <trkpt lat="43.332870" lon="-6.466892">
        <ele>817.496</ele>
        <time>1999-07-24T09:04:50Z</time>
      </trkpt>
      <trkpt lat="43.332853" lon="-6.466902">
        <ele>815.215</ele>
        <time>1999-07-24T09:04:51Z</time>
      </trkpt>
      <trkpt lat="43.332837" lon="-6.466912">
        <ele>812.861</ele>
        <time>1999-07-24T09:04:52Z</time>
      </trkpt>
      <trkpt lat="43.332820" lon="-6.466927">
        <ele>811.063</ele>
        <time>1999-07-24T09:04:53Z</time>
      </trkpt>
      <trkpt lat="43.332800" lon="-6.466946">
        <ele>809.636</ele>
        <time>1999-07-24T09:04:54Z</time>
      </trkpt>
      <trkpt lat="43.332772" lon="-6.466965">
        <ele>808.217</ele>
        <time>1999-07-24T09:04:55Z</time>
      </trkpt>
      <trkpt lat="43.332677" lon="-6.467006">
        <ele>806.418</ele>
        <time>1999-07-24T09:04:57Z</time>
      </trkpt>
      <trkpt lat="43.332614" lon="-6.467030">
        <ele>805.608</ele>
        <time>1999-07-24T09:04:58Z</time>
      </trkpt>
      <trkpt lat="43.332540" lon="-6.467056">
        <ele>805.066</ele>
        <time>1999-07-24T09:04:59Z</time>
      </trkpt>
      <trkpt lat="43.332369" lon="-6.467123">
        <ele>804.432</ele>
        <time>1999-07-24T09:05:01Z</time>
      </trkpt>
      <trkpt lat="43.332272" lon="-6.467157">
        <ele>804.063</ele>
        <time>1999-07-24T09:05:02Z</time>
      </trkpt>
      <trkpt lat="43.332170" lon="-6.467194">
        <ele>803.874</ele>
        <time>1999-07-24T09:05:03Z</time>
      </trkpt>
      <trkpt lat="43.331866" lon="-6.467324">
        <ele>802.898</ele>
        <time>1999-07-24T09:05:06Z</time>
      </trkpt>
      <trkpt lat="43.331783" lon="-6.467366">
        <ele>802.697</ele>
        <time>1999-07-24T09:05:07Z</time>
      </trkpt>
      <trkpt lat="43.331640" lon="-6.467459">
        <ele>801.683</ele>
        <time>1999-07-24T09:05:09Z</time>
      </trkpt>
      <trkpt lat="43.331549" lon="-6.467584">
        <ele>800.615</ele>
        <time>1999-07-24T09:05:11Z</time>
      </trkpt>
      <trkpt lat="43.331536" lon="-6.467747">
        <ele>799.494</ele>
        <time>1999-07-24T09:05:13Z</time>
      </trkpt>
      <trkpt lat="43.331550" lon="-6.467825">
        <ele>798.457</ele>
        <time>1999-07-24T09:05:14Z</time>
      </trkpt>
      <trkpt lat="43.331571" lon="-6.467897">
        <ele>797.422</ele>
        <time>1999-07-24T09:05:15Z</time>
      </trkpt>
      <trkpt lat="43.331595" lon="-6.467960">
        <ele>796.008</ele>
        <time>1999-07-24T09:05:16Z</time>
      </trkpt>
      <trkpt lat="43.331620" lon="-6.468016">
        <ele>795.042</ele>
        <time>1999-07-24T09:05:17Z</time>
      </trkpt>
      <trkpt lat="43.331643" lon="-6.468071">
        <ele>794.068</ele>
        <time>1999-07-24T09:05:18Z</time>
      </trkpt>
      <trkpt lat="43.331666" lon="-6.468122">
        <ele>793.239</ele>
        <time>1999-07-24T09:05:19Z</time>
      </trkpt>
      <trkpt lat="43.331698" lon="-6.468169">
        <ele>792.670</ele>
        <time>1999-07-24T09:05:20Z</time>
      </trkpt>
      <trkpt lat="43.331852" lon="-6.468362">
        <ele>791.884</ele>
        <time>1999-07-24T09:05:24Z</time>
      </trkpt>
      <trkpt lat="43.331989" lon="-6.468502">
        <ele>791.833</ele>
        <time>1999-07-24T09:05:27Z</time>
      </trkpt>
      <trkpt lat="43.332134" lon="-6.468635">
        <ele>791.869</ele>
        <time>1999-07-24T09:05:30Z</time>
      </trkpt>
      <trkpt lat="43.332229" lon="-6.468713">
        <ele>792.231</ele>
        <time>1999-07-24T09:05:32Z</time>
      </trkpt>
      <trkpt lat="43.332593" lon="-6.469022">
        <ele>793.279</ele>
        <time>1999-07-24T09:05:40Z</time>
      </trkpt>
      <trkpt lat="43.332791" lon="-6.469264">
        <ele>793.405</ele>
        <time>1999-07-24T09:05:45Z</time>
      </trkpt>
      <trkpt lat="43.332862" lon="-6.469377">
        <ele>793.425</ele>
        <time>1999-07-24T09:05:47Z</time>
      </trkpt>
      <trkpt lat="43.332957" lon="-6.469562">
        <ele>793.608</ele>
        <time>1999-07-24T09:05:50Z</time>
      </trkpt>
      <trkpt lat="43.333031" lon="-6.469761">
        <ele>794.080</ele>
        <time>1999-07-24T09:05:53Z</time>
      </trkpt>
      <trkpt lat="43.333063" lon="-6.469905">
        <ele>794.226</ele>
        <time>1999-07-24T09:05:55Z</time>
      </trkpt>
      <trkpt lat="43.333090" lon="-6.470132">
        <ele>794.447</ele>
        <time>1999-07-24T09:05:58Z</time>
      </trkpt>
      <trkpt lat="43.333092" lon="-6.470209">
        <ele>794.658</ele>
        <time>1999-07-24T09:05:59Z</time>
      </trkpt>
      <trkpt lat="43.333079" lon="-6.470813">
        <ele>794.852</ele>
        <time>1999-07-24T09:06:06Z</time>
      </trkpt>
      <trkpt lat="43.333039" lon="-6.471329">
        <ele>794.881</ele>
        <time>1999-07-24T09:06:11Z</time>
      </trkpt>
      <trkpt lat="43.333037" lon="-6.471564">
        <ele>794.667</ele>
        <time>1999-07-24T09:06:13Z</time>
      </trkpt>
      <trkpt lat="43.333052" lon="-6.471943">
        <ele>794.289</ele>
        <time>1999-07-24T09:06:16Z</time>
      </trkpt>
      <trkpt lat="43.333079" lon="-6.472331">
        <ele>793.472</ele>
        <time>1999-07-24T09:06:19Z</time>
      </trkpt>
      <trkpt lat="43.333093" lon="-6.472464">
        <ele>793.013</ele>
        <time>1999-07-24T09:06:20Z</time>
      </trkpt>
      <trkpt lat="43.333139" lon="-6.472866">
        <ele>791.814</ele>
        <time>1999-07-24T09:06:23Z</time>
      </trkpt>
      <trkpt lat="43.333156" lon="-6.473002">
        <ele>791.408</ele>
        <time>1999-07-24T09:06:24Z</time>
      </trkpt>
      <trkpt lat="43.333194" lon="-6.473279">
        <ele>790.880</ele>
        <time>1999-07-24T09:06:26Z</time>
      </trkpt>
      <trkpt lat="43.333214" lon="-6.473418">
        <ele>790.446</ele>
        <time>1999-07-24T09:06:27Z</time>
      </trkpt>
      <trkpt lat="43.333256" lon="-6.473703">
        <ele>789.487</ele>
        <time>1999-07-24T09:06:29Z</time>
      </trkpt>
      <trkpt lat="43.333301" lon="-6.473997">
        <ele>788.888</ele>
        <time>1999-07-24T09:06:31Z</time>
      </trkpt>
      <trkpt lat="43.333339" lon="-6.474255">
        <ele>788.032</ele>
        <time>1999-07-24T09:06:33Z</time>
      </trkpt>
      <trkpt lat="43.333350" lon="-6.474353">
        <ele>787.671</ele>
        <time>1999-07-24T09:06:34Z</time>
      </trkpt>
      <trkpt lat="43.333349" lon="-6.474435">
        <ele>787.087</ele>
        <time>1999-07-24T09:06:35Z</time>
      </trkpt>
      <trkpt lat="43.333326" lon="-6.474560">
        <ele>786.059</ele>
        <time>1999-07-24T09:06:37Z</time>
      </trkpt>
      <trkpt lat="43.333316" lon="-6.474619">
        <ele>785.621</ele>
        <time>1999-07-24T09:06:38Z</time>
      </trkpt>
      <trkpt lat="43.333306" lon="-6.474750">
        <ele>784.041</ele>
        <time>1999-07-24T09:06:40Z</time>
      </trkpt>
      <trkpt lat="43.333304" lon="-6.474827">
        <ele>782.805</ele>
        <time>1999-07-24T09:06:41Z</time>
      </trkpt>
      <trkpt lat="43.333305" lon="-6.474915">
        <ele>781.408</ele>
        <time>1999-07-24T09:06:42Z</time>
      </trkpt>
      <trkpt lat="43.333307" lon="-6.475011">
        <ele>780.075</ele>
        <time>1999-07-24T09:06:43Z</time>
      </trkpt>
      <trkpt lat="43.333311" lon="-6.475190">
        <ele>778.281</ele>
        <time>1999-07-24T09:06:45Z</time>
      </trkpt>
      <trkpt lat="43.333303" lon="-6.475269">
        <ele>777.652</ele>
        <time>1999-07-24T09:06:46Z</time>
      </trkpt>
      <trkpt lat="43.333301" lon="-6.475352">
        <ele>776.833</ele>
        <time>1999-07-24T09:06:47Z</time>
      </trkpt>
      <trkpt lat="43.333285" lon="-6.475433">
        <ele>775.837</ele>
        <time>1999-07-24T09:06:48Z</time>
      </trkpt>
      <trkpt lat="43.333272" lon="-6.475515">
        <ele>775.056</ele>
        <time>1999-07-24T09:06:49Z</time>
      </trkpt>
      <trkpt lat="43.333258" lon="-6.475593">
        <ele>773.882</ele>
        <time>1999-07-24T09:06:50Z</time>
      </trkpt>
      <trkpt lat="43.333248" lon="-6.475669">
        <ele>773.244</ele>
        <time>1999-07-24T09:06:51Z</time>
      </trkpt>
      <trkpt lat="43.333241" lon="-6.475741">
        <ele>772.498</ele>
        <time>1999-07-24T09:06:52Z</time>
      </trkpt>
      <trkpt lat="43.333238" lon="-6.475815">
        <ele>771.415</ele>
        <time>1999-07-24T09:06:53Z</time>
      </trkpt>
      <trkpt lat="43.333233" lon="-6.475892">
        <ele>770.426</ele>
        <time>1999-07-24T09:06:54Z</time>
      </trkpt>
      <trkpt lat="43.333225" lon="-6.476058">
        <ele>768.208</ele>
        <time>1999-07-24T09:06:56Z</time>
      </trkpt>
      <trkpt lat="43.333216" lon="-6.476253">
        <ele>766.422</ele>
        <time>1999-07-24T09:06:58Z</time>
      </trkpt>
      <trkpt lat="43.333210" lon="-6.476351">
        <ele>765.498</ele>
        <time>1999-07-24T09:06:59Z</time>
      </trkpt>
      <trkpt lat="43.333206" lon="-6.476452">
        <ele>764.469</ele>
        <time>1999-07-24T09:07:00Z</time>
      </trkpt>
      <trkpt lat="43.333205" lon="-6.476549">
        <ele>763.620</ele>
        <time>1999-07-24T09:07:01Z</time>
      </trkpt>
      <trkpt lat="43.333193" lon="-6.476714">
        <ele>761.854</ele>
        <time>1999-07-24T09:07:03Z</time>
      </trkpt>
      <trkpt lat="43.333183" lon="-6.476856">
        <ele>760.233</ele>
        <time>1999-07-24T09:07:05Z</time>
      </trkpt>
      <trkpt lat="43.333178" lon="-6.477002">
        <ele>758.449</ele>
        <time>1999-07-24T09:07:07Z</time>
      </trkpt>
      <trkpt lat="43.333173" lon="-6.477111">
        <ele>756.281</ele>
        <time>1999-07-24T09:07:09Z</time>
      </trkpt>
      <trkpt lat="43.333172" lon="-6.477160">
        <ele>754.832</ele>
        <time>1999-07-24T09:07:10Z</time>
      </trkpt>
      <trkpt lat="43.333180" lon="-6.477215">
        <ele>753.692</ele>
        <time>1999-07-24T09:07:11Z</time>
      </trkpt>
      <trkpt lat="43.333196" lon="-6.477279">
        <ele>751.811</ele>
        <time>1999-07-24T09:07:12Z</time>
      </trkpt>
      <trkpt lat="43.333213" lon="-6.477349">
        <ele>750.608</ele>
        <time>1999-07-24T09:07:13Z</time>
      </trkpt>
      <trkpt lat="43.333225" lon="-6.477427">
        <ele>749.686</ele>
        <time>1999-07-24T09:07:14Z</time>
      </trkpt>
      <trkpt lat="43.333241" lon="-6.477519">
        <ele>748.462</ele>
        <time>1999-07-24T09:07:15Z</time>
      </trkpt>
      <trkpt lat="43.333260" lon="-6.477604">
        <ele>747.243</ele>
        <time>1999-07-24T09:07:16Z</time>
      </trkpt>
      <trkpt lat="43.333286" lon="-6.477682">
        <ele>746.024</ele>
        <time>1999-07-24T09:07:17Z</time>
      </trkpt>
      <trkpt lat="43.333305" lon="-6.477754">
        <ele>744.818</ele>
        <time>1999-07-24T09:07:18Z</time>
      </trkpt>
      <trkpt lat="43.333344" lon="-6.477874">
        <ele>743.467</ele>
        <time>1999-07-24T09:07:20Z</time>
      </trkpt>
      <trkpt lat="43.333374" lon="-6.477925">
        <ele>743.063</ele>
        <time>1999-07-24T09:07:21Z</time>
      </trkpt>
      <trkpt lat="43.333408" lon="-6.477972">
        <ele>742.695</ele>
        <time>1999-07-24T09:07:22Z</time>
      </trkpt>
      <trkpt lat="43.333447" lon="-6.478016">
        <ele>742.247</ele>
        <time>1999-07-24T09:07:23Z</time>
      </trkpt>
      <trkpt lat="43.333528" lon="-6.478089">
        <ele>740.229</ele>
        <time>1999-07-24T09:07:25Z</time>
      </trkpt>
      <trkpt lat="43.333636" lon="-6.478157">
        <ele>738.421</ele>
        <time>1999-07-24T09:07:27Z</time>
      </trkpt>
      <trkpt lat="43.333740" lon="-6.478231">
        <ele>737.208</ele>
        <time>1999-07-24T09:07:29Z</time>
      </trkpt>
      <trkpt lat="43.333827" lon="-6.478271">
        <ele>736.217</ele>
        <time>1999-07-24T09:07:31Z</time>
      </trkpt>
      <trkpt lat="43.333866" lon="-6.478298">
        <ele>735.473</ele>
        <time>1999-07-24T09:07:32Z</time>
      </trkpt>
      <trkpt lat="43.333912" lon="-6.478338">
        <ele>734.674</ele>
        <time>1999-07-24T09:07:33Z</time>
      </trkpt>
      <trkpt lat="43.333995" lon="-6.478436">
        <ele>733.685</ele>
        <time>1999-07-24T09:07:35Z</time>
      </trkpt>
      <trkpt lat="43.334034" lon="-6.478484">
        <ele>733.069</ele>
        <time>1999-07-24T09:07:36Z</time>
      </trkpt>
      <trkpt lat="43.334075" lon="-6.478527">
        <ele>732.088</ele>
        <time>1999-07-24T09:07:37Z</time>
      </trkpt>
      <trkpt lat="43.334111" lon="-6.478586">
        <ele>731.254</ele>
        <time>1999-07-24T09:07:38Z</time>
      </trkpt>
      <trkpt lat="43.334143" lon="-6.478652">
        <ele>730.626</ele>
        <time>1999-07-24T09:07:39Z</time>
      </trkpt>
      <trkpt lat="43.334215" lon="-6.478788">
        <ele>729.668</ele>
        <time>1999-07-24T09:07:41Z</time>
      </trkpt>
      <trkpt lat="43.334251" lon="-6.478865">
        <ele>729.042</ele>
        <time>1999-07-24T09:07:42Z</time>
      </trkpt>
      <trkpt lat="43.334323" lon="-6.478993">
        <ele>727.426</ele>
        <time>1999-07-24T09:07:44Z</time>
      </trkpt>
      <trkpt lat="43.334389" lon="-6.479141">
        <ele>726.808</ele>
        <time>1999-07-24T09:07:46Z</time>
      </trkpt>
      <trkpt lat="43.334420" lon="-6.479211">
        <ele>726.269</ele>
        <time>1999-07-24T09:07:47Z</time>
      </trkpt>
      <trkpt lat="43.334482" lon="-6.479330">
        <ele>724.625</ele>
        <time>1999-07-24T09:07:49Z</time>
      </trkpt>
      <trkpt lat="43.334546" lon="-6.479459">
        <ele>722.896</ele>
        <time>1999-07-24T09:07:51Z</time>
      </trkpt>
      <trkpt lat="43.334582" lon="-6.479513">
        <ele>721.877</ele>
        <time>1999-07-24T09:07:52Z</time>
      </trkpt>
      <trkpt lat="43.334629" lon="-6.479577">
        <ele>720.691</ele>
        <time>1999-07-24T09:07:53Z</time>
      </trkpt>
      <trkpt lat="43.334716" lon="-6.479711">
        <ele>719.230</ele>
        <time>1999-07-24T09:07:55Z</time>
      </trkpt>
      <trkpt lat="43.334804" lon="-6.479856">
        <ele>717.836</ele>
        <time>1999-07-24T09:07:57Z</time>
      </trkpt>
      <trkpt lat="43.334892" lon="-6.480019">
        <ele>716.828</ele>
        <time>1999-07-24T09:07:59Z</time>
      </trkpt>
      <trkpt lat="43.334939" lon="-6.480093">
        <ele>716.435</ele>
        <time>1999-07-24T09:08:00Z</time>
      </trkpt>
      <trkpt lat="43.334981" lon="-6.480171">
        <ele>715.686</ele>
        <time>1999-07-24T09:08:01Z</time>
      </trkpt>
      <trkpt lat="43.335015" lon="-6.480248">
        <ele>714.414</ele>
        <time>1999-07-24T09:08:02Z</time>
      </trkpt>
      <trkpt lat="43.335036" lon="-6.480304">
        <ele>713.608</ele>
        <time>1999-07-24T09:08:03Z</time>
      </trkpt>
      <trkpt lat="43.335049" lon="-6.480370">
        <ele>712.896</ele>
        <time>1999-07-24T09:08:04Z</time>
      </trkpt>
      <trkpt lat="43.335078" lon="-6.480515">
        <ele>711.442</ele>
        <time>1999-07-24T09:08:06Z</time>
      </trkpt>
      <trkpt lat="43.335098" lon="-6.480605">
        <ele>710.823</ele>
        <time>1999-07-24T09:08:07Z</time>
      </trkpt>
      <trkpt lat="43.335110" lon="-6.480697">
        <ele>710.414</ele>
        <time>1999-07-24T09:08:08Z</time>
      </trkpt>
      <trkpt lat="43.335139" lon="-6.480961">
        <ele>709.068</ele>
        <time>1999-07-24T09:08:11Z</time>
      </trkpt>
      <trkpt lat="43.335145" lon="-6.481039">
        <ele>708.047</ele>
        <time>1999-07-24T09:08:12Z</time>
      </trkpt>
      <trkpt lat="43.335159" lon="-6.481104">
        <ele>707.093</ele>
        <time>1999-07-24T09:08:13Z</time>
      </trkpt>
      <trkpt lat="43.335172" lon="-6.481198">
        <ele>705.415</ele>
        <time>1999-07-24T09:08:15Z</time>
      </trkpt>
      <trkpt lat="43.335171" lon="-6.481247">
        <ele>704.443</ele>
        <time>1999-07-24T09:08:16Z</time>
      </trkpt>
      <trkpt lat="43.335180" lon="-6.481301">
        <ele>703.264</ele>
        <time>1999-07-24T09:08:17Z</time>
      </trkpt>
      <trkpt lat="43.335194" lon="-6.481371">
        <ele>702.210</ele>
        <time>1999-07-24T09:08:18Z</time>
      </trkpt>
      <trkpt lat="43.335206" lon="-6.481456">
        <ele>699.608</ele>
        <time>1999-07-24T09:08:19Z</time>
      </trkpt>
      <trkpt lat="43.335215" lon="-6.481540">
        <ele>698.457</ele>
        <time>1999-07-24T09:08:20Z</time>
      </trkpt>
      <trkpt lat="43.335228" lon="-6.481620">
        <ele>697.263</ele>
        <time>1999-07-24T09:08:21Z</time>
      </trkpt>
      <trkpt lat="43.335263" lon="-6.481772">
        <ele>695.494</ele>
        <time>1999-07-24T09:08:23Z</time>
      </trkpt>
      <trkpt lat="43.335282" lon="-6.481845">
        <ele>694.615</ele>
        <time>1999-07-24T09:08:24Z</time>
      </trkpt>
      <trkpt lat="43.335305" lon="-6.481917">
        <ele>693.869</ele>
        <time>1999-07-24T09:08:25Z</time>
      </trkpt>
      <trkpt lat="43.335354" lon="-6.482069">
        <ele>691.658</ele>
        <time>1999-07-24T09:08:27Z</time>
      </trkpt>
      <trkpt lat="43.335382" lon="-6.482138">
        <ele>690.434</ele>
        <time>1999-07-24T09:08:28Z</time>
      </trkpt>
      <trkpt lat="43.335430" lon="-6.482271">
        <ele>689.026</ele>
        <time>1999-07-24T09:08:30Z</time>
      </trkpt>
      <trkpt lat="43.335479" lon="-6.482391">
        <ele>687.013</ele>
        <time>1999-07-24T09:08:32Z</time>
      </trkpt>
      <trkpt lat="43.335506" lon="-6.482446">
        <ele>686.043</ele>
        <time>1999-07-24T09:08:33Z</time>
      </trkpt>
      <trkpt lat="43.335572" lon="-6.482573">
        <ele>684.607</ele>
        <time>1999-07-24T09:08:35Z</time>
      </trkpt>
      <trkpt lat="43.335680" lon="-6.482744">
        <ele>682.808</ele>
        <time>1999-07-24T09:08:38Z</time>
      </trkpt>
      <trkpt lat="43.335744" lon="-6.482829">
        <ele>681.044</ele>
        <time>1999-07-24T09:08:40Z</time>
      </trkpt>
      <trkpt lat="43.335772" lon="-6.482869">
        <ele>679.890</ele>
        <time>1999-07-24T09:08:41Z</time>
      </trkpt>
      <trkpt lat="43.335825" lon="-6.482933">
        <ele>678.471</ele>
        <time>1999-07-24T09:08:43Z</time>
      </trkpt>
      <trkpt lat="43.335870" lon="-6.482996">
        <ele>677.032</ele>
        <time>1999-07-24T09:08:45Z</time>
      </trkpt>
      <trkpt lat="43.335897" lon="-6.483069">
        <ele>675.476</ele>
        <time>1999-07-24T09:08:47Z</time>
      </trkpt>
      <trkpt lat="43.335921" lon="-6.483110">
        <ele>673.455</ele>
        <time>1999-07-24T09:08:48Z</time>
      </trkpt>
      <trkpt lat="43.335960" lon="-6.483170">
        <ele>672.221</ele>
        <time>1999-07-24T09:08:50Z</time>
      </trkpt>
      <trkpt lat="43.336015" lon="-6.483231">
        <ele>670.233</ele>
        <time>1999-07-24T09:08:52Z</time>
      </trkpt>
      <trkpt lat="43.336041" lon="-6.483257">
        <ele>669.298</ele>
        <time>1999-07-24T09:08:53Z</time>
      </trkpt>
      <trkpt lat="43.336086" lon="-6.483314">
        <ele>667.815</ele>
        <time>1999-07-24T09:08:55Z</time>
      </trkpt>
      <trkpt lat="43.336108" lon="-6.483334">
        <ele>667.226</ele>
        <time>1999-07-24T09:08:56Z</time>
      </trkpt>
      <trkpt lat="43.336131" lon="-6.483365">
        <ele>666.608</ele>
        <time>1999-07-24T09:08:57Z</time>
      </trkpt>
      <trkpt lat="43.336186" lon="-6.483416">
        <ele>665.262</ele>
        <time>1999-07-24T09:08:59Z</time>
      </trkpt>
      <trkpt lat="43.336255" lon="-6.483468">
        <ele>664.028</ele>
        <time>1999-07-24T09:09:01Z</time>
      </trkpt>
      <trkpt lat="43.336307" lon="-6.483507">
        <ele>662.269</ele>
        <time>1999-07-24T09:09:03Z</time>
      </trkpt>
      <trkpt lat="43.336345" lon="-6.483563">
        <ele>661.290</ele>
        <time>1999-07-24T09:09:05Z</time>
      </trkpt>
      <trkpt lat="43.336365" lon="-6.483585">
        <ele>660.684</ele>
        <time>1999-07-24T09:09:06Z</time>
      </trkpt>
      <trkpt lat="43.336394" lon="-6.483612">
        <ele>659.853</ele>
        <time>1999-07-24T09:09:07Z</time>
      </trkpt>
      <trkpt lat="43.336461" lon="-6.483647">
        <ele>658.429</ele>
        <time>1999-07-24T09:09:09Z</time>
      </trkpt>
      <trkpt lat="43.336496" lon="-6.483667">
        <ele>658.051</ele>
        <time>1999-07-24T09:09:10Z</time>
      </trkpt>
      <trkpt lat="43.336570" lon="-6.483695">
        <ele>657.037</ele>
        <time>1999-07-24T09:09:12Z</time>
      </trkpt>
      <trkpt lat="43.336669" lon="-6.483736">
        <ele>655.849</ele>
        <time>1999-07-24T09:09:14Z</time>
      </trkpt>
      <trkpt lat="43.336723" lon="-6.483755">
        <ele>655.213</ele>
        <time>1999-07-24T09:09:15Z</time>
      </trkpt>
      <trkpt lat="43.336768" lon="-6.483770">
        <ele>654.008</ele>
        <time>1999-07-24T09:09:16Z</time>
      </trkpt>
      <trkpt lat="43.336860" lon="-6.483794">
        <ele>652.496</ele>
        <time>1999-07-24T09:09:18Z</time>
      </trkpt>
      <trkpt lat="43.336936" lon="-6.483786">
        <ele>651.862</ele>
        <time>1999-07-24T09:09:20Z</time>
      </trkpt>
      <trkpt lat="43.336971" lon="-6.483776">
        <ele>651.233</ele>
        <time>1999-07-24T09:09:21Z</time>
      </trkpt>
      <trkpt lat="43.337013" lon="-6.483784">
        <ele>650.044</ele>
        <time>1999-07-24T09:09:24Z</time>
      </trkpt>
      <trkpt lat="43.337018" lon="-6.483787">
        <ele>648.628</ele>
        <time>1999-07-24T09:09:25Z</time>
      </trkpt>
      <trkpt lat="43.337139" lon="-6.483763">
        <ele>644.817</ele>
        <time>1999-07-24T09:09:36Z</time>
      </trkpt>
      <trkpt lat="43.337167" lon="-6.483737">
        <ele>644.813</ele>
        <time>1999-07-24T09:09:37Z</time>
      </trkpt>
      <trkpt lat="43.337370" lon="-6.483564">
        <ele>644.615</ele>
        <time>1999-07-24T09:09:42Z</time>
      </trkpt>
      <trkpt lat="43.337514" lon="-6.483401">
        <ele>644.617</ele>
        <time>1999-07-24T09:09:45Z</time>
      </trkpt>
      <trkpt lat="43.337655" lon="-6.483244">
        <ele>644.287</ele>
        <time>1999-07-24T09:09:48Z</time>
      </trkpt>
      <trkpt lat="43.337742" lon="-6.483144">
        <ele>643.815</ele>
        <time>1999-07-24T09:09:50Z</time>
      </trkpt>
      <trkpt lat="43.337806" lon="-6.483063">
        <ele>642.608</ele>
        <time>1999-07-24T09:09:52Z</time>
      </trkpt>
      <trkpt lat="43.337860" lon="-6.482988">
        <ele>641.214</ele>
        <time>1999-07-24T09:09:54Z</time>
      </trkpt>
      <trkpt lat="43.337902" lon="-6.482938">
        <ele>639.410</ele>
        <time>1999-07-24T09:09:56Z</time>
      </trkpt>
      <trkpt lat="43.337921" lon="-6.482937">
        <ele>638.251</ele>
        <time>1999-07-24T09:09:57Z</time>
      </trkpt>
      <trkpt lat="43.337935" lon="-6.482947">
        <ele>637.412</ele>
        <time>1999-07-24T09:09:58Z</time>
      </trkpt>
      <trkpt lat="43.337937" lon="-6.482965">
        <ele>636.476</ele>
        <time>1999-07-24T09:09:59Z</time>
      </trkpt>
      <trkpt lat="43.337941" lon="-6.483012">
        <ele>635.035</ele>
        <time>1999-07-24T09:10:01Z</time>
      </trkpt>
      <trkpt lat="43.337936" lon="-6.483074">
        <ele>633.481</ele>
        <time>1999-07-24T09:10:03Z</time>
      </trkpt>
      <trkpt lat="43.337919" lon="-6.483145">
        <ele>632.063</ele>
        <time>1999-07-24T09:10:05Z</time>
      </trkpt>
      <trkpt lat="43.337897" lon="-6.483227">
        <ele>631.631</ele>
        <time>1999-07-24T09:10:07Z</time>
      </trkpt>
      <trkpt lat="43.337882" lon="-6.483267">
        <ele>631.461</ele>
        <time>1999-07-24T09:10:08Z</time>
      </trkpt>
      <trkpt lat="43.337835" lon="-6.483421">
        <ele>631.207</ele>
        <time>1999-07-24T09:10:11Z</time>
      </trkpt>
      <trkpt lat="43.337791" lon="-6.483544">
        <ele>631.208</ele>
        <time>1999-07-24T09:10:13Z</time>
      </trkpt>
      <trkpt lat="43.337731" lon="-6.483742">
        <ele>631.246</ele>
        <time>1999-07-24T09:10:16Z</time>
      </trkpt>
      <trkpt lat="43.337722" lon="-6.483825">
        <ele>631.242</ele>
        <time>1999-07-24T09:10:17Z</time>
      </trkpt>
      <trkpt lat="43.337711" lon="-6.483915">
        <ele>631.243</ele>
        <time>1999-07-24T09:10:18Z</time>
      </trkpt>
      <trkpt lat="43.337680" lon="-6.483999">
        <ele>631.084</ele>
        <time>1999-07-24T09:10:19Z</time>
      </trkpt>
      <trkpt lat="43.337586" lon="-6.484165">
        <ele>631.078</ele>
        <time>1999-07-24T09:10:21Z</time>
      </trkpt>
      <trkpt lat="43.337483" lon="-6.484301">
        <ele>630.827</ele>
        <time>1999-07-24T09:10:23Z</time>
      </trkpt>
      <trkpt lat="43.337369" lon="-6.484396">
        <ele>630.273</ele>
        <time>1999-07-24T09:10:25Z</time>
      </trkpt>
      <trkpt lat="43.337312" lon="-6.484434">
        <ele>629.645</ele>
        <time>1999-07-24T09:10:26Z</time>
      </trkpt>
      <trkpt lat="43.337134" lon="-6.484537">
        <ele>628.641</ele>
        <time>1999-07-24T09:10:29Z</time>
      </trkpt>
      <trkpt lat="43.337065" lon="-6.484558">
        <ele>628.481</ele>
        <time>1999-07-24T09:10:30Z</time>
      </trkpt>
      <trkpt lat="43.336992" lon="-6.484581">
        <ele>627.809</ele>
        <time>1999-07-24T09:10:31Z</time>
      </trkpt>
      <trkpt lat="43.336920" lon="-6.484591">
        <ele>627.608</ele>
        <time>1999-07-24T09:10:32Z</time>
      </trkpt>
      <trkpt lat="43.336778" lon="-6.484583">
        <ele>627.267</ele>
        <time>1999-07-24T09:10:34Z</time>
      </trkpt>
      <trkpt lat="43.336715" lon="-6.484570">
        <ele>627.213</ele>
        <time>1999-07-24T09:10:35Z</time>
      </trkpt>
      <trkpt lat="43.336565" lon="-6.484548">
        <ele>627.054</ele>
        <time>1999-07-24T09:10:38Z</time>
      </trkpt>
      <trkpt lat="43.336523" lon="-6.484544">
        <ele>627.065</ele>
        <time>1999-07-24T09:10:39Z</time>
      </trkpt>
      <trkpt lat="43.336360" lon="-6.484530">
        <ele>626.869</ele>
        <time>1999-07-24T09:10:42Z</time>
      </trkpt>
      <trkpt lat="43.336253" lon="-6.484540">
        <ele>626.878</ele>
        <time>1999-07-24T09:10:44Z</time>
      </trkpt>
      <trkpt lat="43.336306" lon="-6.484640">
        <ele>626.694</ele>
        <time>1999-07-24T09:10:46Z</time>
      </trkpt>
      <trkpt lat="43.336342" lon="-6.484683">
        <ele>626.496</ele>
        <time>1999-07-24T09:10:47Z</time>
      </trkpt>
      <trkpt lat="43.336372" lon="-6.484712">
        <ele>626.237</ele>
        <time>1999-07-24T09:10:48Z</time>
      </trkpt>
      <trkpt lat="43.336420" lon="-6.484773">
        <ele>626.049</ele>
        <time>1999-07-24T09:10:50Z</time>
      </trkpt>
      <trkpt lat="43.336443" lon="-6.484811">
        <ele>626.013</ele>
        <time>1999-07-24T09:10:51Z</time>
      </trkpt>
      <trkpt lat="43.336493" lon="-6.484917">
        <ele>626.008</ele>
        <time>1999-07-24T09:10:53Z</time>
      </trkpt>
      <trkpt lat="43.336570" lon="-6.485002">
        <ele>626.036</ele>
        <time>1999-07-24T09:10:55Z</time>
      </trkpt>
      <trkpt lat="43.336607" lon="-6.485036">
        <ele>626.062</ele>
        <time>1999-07-24T09:10:56Z</time>
      </trkpt>
      <trkpt lat="43.336715" lon="-6.485110">
        <ele>626.053</ele>
        <time>1999-07-24T09:10:58Z</time>
      </trkpt>
      <trkpt lat="43.336774" lon="-6.485138">
        <ele>626.294</ele>
        <time>1999-07-24T09:10:59Z</time>
      </trkpt>
      <trkpt lat="43.337038" lon="-6.485278">
        <ele>626.218</ele>
        <time>1999-07-24T09:11:04Z</time>
      </trkpt>
      <trkpt lat="43.337235" lon="-6.485391">
        <ele>626.027</ele>
        <time>1999-07-24T09:11:08Z</time>
      </trkpt>
      <trkpt lat="43.337285" lon="-6.485429">
        <ele>625.873</ele>
        <time>1999-07-24T09:11:09Z</time>
      </trkpt>
      <trkpt lat="43.337522" lon="-6.485596">
        <ele>625.455</ele>
        <time>1999-07-24T09:11:13Z</time>
      </trkpt>
      <trkpt lat="43.337588" lon="-6.485640">
        <ele>625.461</ele>
        <time>1999-07-24T09:11:14Z</time>
      </trkpt>
      <trkpt lat="43.337691" lon="-6.485731">
        <ele>624.821</ele>
        <time>1999-07-24T09:11:16Z</time>
      </trkpt>
      <trkpt lat="43.337782" lon="-6.485798">
        <ele>624.413</ele>
        <time>1999-07-24T09:11:18Z</time>
      </trkpt>
      <trkpt lat="43.337852" lon="-6.485862">
        <ele>624.408</ele>
        <time>1999-07-24T09:11:20Z</time>
      </trkpt>
      <trkpt lat="43.337954" lon="-6.485989">
        <ele>624.459</ele>
        <time>1999-07-24T09:11:23Z</time>
      </trkpt>
      <trkpt lat="43.338039" lon="-6.486075">
        <ele>624.495</ele>
        <time>1999-07-24T09:11:25Z</time>
      </trkpt>
      <trkpt lat="43.338108" lon="-6.486122">
        <ele>624.456</ele>
        <time>1999-07-24T09:11:27Z</time>
      </trkpt>
      <trkpt lat="43.338225" lon="-6.486125">
        <ele>624.497</ele>
        <time>1999-07-24T09:11:31Z</time>
      </trkpt>
      <trkpt lat="43.338372" lon="-6.486249">
        <ele>625.081</ele>
        <time>1999-07-24T09:11:36Z</time>
      </trkpt>
      <trkpt lat="43.338397" lon="-6.486292">
        <ele>625.280</ele>
        <time>1999-07-24T09:11:37Z</time>
      </trkpt>
      <trkpt lat="43.338425" lon="-6.486340">
        <ele>625.226</ele>
        <time>1999-07-24T09:11:38Z</time>
      </trkpt>
      <trkpt lat="43.338546" lon="-6.486548">
        <ele>625.618</ele>
        <time>1999-07-24T09:11:42Z</time>
      </trkpt>
      <trkpt lat="43.338571" lon="-6.486606">
        <ele>625.656</ele>
        <time>1999-07-24T09:11:43Z</time>
      </trkpt>
      <trkpt lat="43.338709" lon="-6.486888">
        <ele>625.659</ele>
        <time>1999-07-24T09:11:48Z</time>
      </trkpt>
      <trkpt lat="43.338915" lon="-6.487224">
        <ele>625.414</ele>
        <time>1999-07-24T09:11:54Z</time>
      </trkpt>
      <trkpt lat="43.339075" lon="-6.487409">
        <ele>625.208</ele>
        <time>1999-07-24T09:11:58Z</time>
      </trkpt>
      <trkpt lat="43.339107" lon="-6.487466">
        <ele>625.238</ele>
        <time>1999-07-24T09:11:59Z</time>
      </trkpt>
      <trkpt lat="43.339309" lon="-6.487819">
        <ele>625.284</ele>
        <time>1999-07-24T09:12:05Z</time>
      </trkpt>
      <trkpt lat="43.339362" lon="-6.488054">
        <ele>625.035</ele>
        <time>1999-07-24T09:12:08Z</time>
      </trkpt>
      <trkpt lat="43.339391" lon="-6.488115">
        <ele>624.836</ele>
        <time>1999-07-24T09:12:09Z</time>
      </trkpt>
      <trkpt lat="43.339430" lon="-6.488156">
        <ele>624.860</ele>
        <time>1999-07-24T09:12:10Z</time>
      </trkpt>
      <trkpt lat="43.339506" lon="-6.488212">
        <ele>624.869</ele>
        <time>1999-07-24T09:12:12Z</time>
      </trkpt>
      <trkpt lat="43.339537" lon="-6.488228">
        <ele>624.635</ele>
        <time>1999-07-24T09:12:13Z</time>
      </trkpt>
      <trkpt lat="43.339595" lon="-6.488267">
        <ele>624.017</ele>
        <time>1999-07-24T09:12:16Z</time>
      </trkpt>
      <trkpt lat="43.339625" lon="-6.488300">
        <ele>623.849</ele>
        <time>1999-07-24T09:12:18Z</time>
      </trkpt>
      <trkpt lat="43.339698" lon="-6.488356">
        <ele>623.802</ele>
        <time>1999-07-24T09:12:22Z</time>
      </trkpt>
      <trkpt lat="43.339718" lon="-6.488369">
        <ele>623.822</ele>
        <time>1999-07-24T09:12:23Z</time>
      </trkpt>
      <trkpt lat="43.339768" lon="-6.488433">
        <ele>624.008</ele>
        <time>1999-07-24T09:12:26Z</time>
      </trkpt>
      <trkpt lat="43.339799" lon="-6.488501">
        <ele>624.657</ele>
        <time>1999-07-24T09:12:29Z</time>
      </trkpt>
      <trkpt lat="43.339813" lon="-6.488529">
        <ele>625.473</ele>
        <time>1999-07-24T09:12:30Z</time>
      </trkpt>
      <trkpt lat="43.339879" lon="-6.488658">
        <ele>626.674</ele>
        <time>1999-07-24T09:12:34Z</time>
      </trkpt>
      <trkpt lat="43.339886" lon="-6.488698">
        <ele>627.085</ele>
        <time>1999-07-24T09:12:35Z</time>
      </trkpt>
      <trkpt lat="43.339907" lon="-6.488802">
        <ele>627.829</ele>
        <time>1999-07-24T09:12:38Z</time>
      </trkpt>
      <trkpt lat="43.339917" lon="-6.488906">
        <ele>628.838</ele>
        <time>1999-07-24T09:12:41Z</time>
      </trkpt>
      <trkpt lat="43.339923" lon="-6.488943">
        <ele>628.884</ele>
        <time>1999-07-24T09:12:42Z</time>
      </trkpt>
      <trkpt lat="43.339943" lon="-6.489077">
        <ele>629.456</ele>
        <time>1999-07-24T09:12:46Z</time>
      </trkpt>
      <trkpt lat="43.340046" lon="-6.489288">
        <ele>630.072</ele>
        <time>1999-07-24T09:12:52Z</time>
      </trkpt>
      <trkpt lat="43.340134" lon="-6.489449">
        <ele>630.213</ele>
        <time>1999-07-24T09:12:57Z</time>
      </trkpt>
      <trkpt lat="43.340191" lon="-6.489544">
        <ele>631.214</ele>
        <time>1999-07-24T09:13:00Z</time>
      </trkpt>
      <trkpt lat="43.340217" lon="-6.489596">
        <ele>631.408</ele>
        <time>1999-07-24T09:13:02Z</time>
      </trkpt>
      <trkpt lat="43.340326" lon="-6.489795">
        <ele>632.220</ele>
        <time>1999-07-24T09:13:08Z</time>
      </trkpt>
      <trkpt lat="43.340349" lon="-6.489831">
        <ele>632.236</ele>
        <time>1999-07-24T09:13:09Z</time>
      </trkpt>
      <trkpt lat="43.340375" lon="-6.490000">
        <ele>632.817</ele>
        <time>1999-07-24T09:13:14Z</time>
      </trkpt>
      <trkpt lat="43.340385" lon="-6.490216">
        <ele>633.238</ele>
        <time>1999-07-24T09:13:19Z</time>
      </trkpt>
      <trkpt lat="43.340391" lon="-6.490252">
        <ele>633.422</ele>
        <time>1999-07-24T09:13:20Z</time>
      </trkpt>
      <trkpt lat="43.340446" lon="-6.490390">
        <ele>633.431</ele>
        <time>1999-07-24T09:13:24Z</time>
      </trkpt>
      <trkpt lat="43.340556" lon="-6.490466">
        <ele>633.657</ele>
        <time>1999-07-24T09:13:29Z</time>
      </trkpt>
      <trkpt lat="43.340674" lon="-6.490515">
        <ele>633.889</ele>
        <time>1999-07-24T09:13:34Z</time>
      </trkpt>
      <trkpt lat="43.340759" lon="-6.490589">
        <ele>634.481</ele>
        <time>1999-07-24T09:13:37Z</time>
      </trkpt>
      <trkpt lat="43.340820" lon="-6.490652">
        <ele>634.861</ele>
        <time>1999-07-24T09:13:39Z</time>
      </trkpt>
      <trkpt lat="43.340968" lon="-6.490795">
        <ele>635.217</ele>
        <time>1999-07-24T09:13:43Z</time>
      </trkpt>
      <trkpt lat="43.341042" lon="-6.490847">
        <ele>635.408</ele>
        <time>1999-07-24T09:13:45Z</time>
      </trkpt>
      <trkpt lat="43.341136" lon="-6.490891">
        <ele>635.461</ele>
        <time>1999-07-24T09:13:47Z</time>
      </trkpt>
      <trkpt lat="43.341269" lon="-6.490951">
        <ele>635.497</ele>
        <time>1999-07-24T09:13:50Z</time>
      </trkpt>
      <trkpt lat="43.341455" lon="-6.491022">
        <ele>635.858</ele>
        <time>1999-07-24T09:13:55Z</time>
      </trkpt>
      <trkpt lat="43.341495" lon="-6.491037">
        <ele>635.889</ele>
        <time>1999-07-24T09:13:56Z</time>
      </trkpt>
      <trkpt lat="43.341658" lon="-6.491177">
        <ele>636.263</ele>
        <time>1999-07-24T09:14:01Z</time>
      </trkpt>
      <trkpt lat="43.341694" lon="-6.491223">
        <ele>636.412</ele>
        <time>1999-07-24T09:14:03Z</time>
      </trkpt>
      <trkpt lat="43.341777" lon="-6.491230">
        <ele>636.848</ele>
        <time>1999-07-24T09:14:06Z</time>
      </trkpt>
      <trkpt lat="43.341809" lon="-6.491229">
        <ele>637.060</ele>
        <time>1999-07-24T09:14:07Z</time>
      </trkpt>
      <trkpt lat="43.341942" lon="-6.491254">
        <ele>637.475</ele>
        <time>1999-07-24T09:14:11Z</time>
      </trkpt>
      <trkpt lat="43.341973" lon="-6.491268">
        <ele>637.628</ele>
        <time>1999-07-24T09:14:12Z</time>
      </trkpt>
      <trkpt lat="43.342119" lon="-6.491362">
        <ele>638.420</ele>
        <time>1999-07-24T09:14:16Z</time>
      </trkpt>
      <trkpt lat="43.342241" lon="-6.491466">
        <ele>638.608</ele>
        <time>1999-07-24T09:14:19Z</time>
      </trkpt>
      <trkpt lat="43.342292" lon="-6.491521">
        <ele>638.840</ele>
        <time>1999-07-24T09:14:20Z</time>
      </trkpt>
      <trkpt lat="43.342415" lon="-6.491730">
        <ele>638.876</ele>
        <time>1999-07-24T09:14:23Z</time>
      </trkpt>
      <trkpt lat="43.342445" lon="-6.491814">
        <ele>638.887</ele>
        <time>1999-07-24T09:14:24Z</time>
      </trkpt>
      <trkpt lat="43.342537" lon="-6.492117">
        <ele>638.298</ele>
        <time>1999-07-24T09:14:27Z</time>
      </trkpt>
      <trkpt lat="43.342624" lon="-6.492317">
        <ele>637.682</ele>
        <time>1999-07-24T09:14:29Z</time>
      </trkpt>
      <trkpt lat="43.342725" lon="-6.492576">
        <ele>636.681</ele>
        <time>1999-07-24T09:14:32Z</time>
      </trkpt>
      <trkpt lat="43.342768" lon="-6.492660">
        <ele>636.237</ele>
        <time>1999-07-24T09:14:33Z</time>
      </trkpt>
      <trkpt lat="43.342797" lon="-6.492741">
        <ele>635.839</ele>
        <time>1999-07-24T09:14:34Z</time>
      </trkpt>
      <trkpt lat="43.342801" lon="-6.492888">
        <ele>635.247</ele>
        <time>1999-07-24T09:14:36Z</time>
      </trkpt>
      <trkpt lat="43.342796" lon="-6.492959">
        <ele>635.029</ele>
        <time>1999-07-24T09:14:37Z</time>
      </trkpt>
      <trkpt lat="43.342786" lon="-6.493027">
        <ele>634.821</ele>
        <time>1999-07-24T09:14:38Z</time>
      </trkpt>
      <trkpt lat="43.342745" lon="-6.493216">
        <ele>634.808</ele>
        <time>1999-07-24T09:14:41Z</time>
      </trkpt>
      <trkpt lat="43.342684" lon="-6.493353">
        <ele>634.637</ele>
        <time>1999-07-24T09:14:44Z</time>
      </trkpt>
      <trkpt lat="43.342649" lon="-6.493418">
        <ele>634.653</ele>
        <time>1999-07-24T09:14:46Z</time>
      </trkpt>
      <trkpt lat="43.342583" lon="-6.493550">
        <ele>635.294</ele>
        <time>1999-07-24T09:14:50Z</time>
      </trkpt>
      <trkpt lat="43.342567" lon="-6.493589">
        <ele>635.485</ele>
        <time>1999-07-24T09:14:51Z</time>
      </trkpt>
      <trkpt lat="43.342549" lon="-6.493627">
        <ele>635.619</ele>
        <time>1999-07-24T09:14:52Z</time>
      </trkpt>
      <trkpt lat="43.342508" lon="-6.493706">
        <ele>636.448</ele>
        <time>1999-07-24T09:14:54Z</time>
      </trkpt>
      <trkpt lat="43.342459" lon="-6.493835">
        <ele>637.034</ele>
        <time>1999-07-24T09:14:57Z</time>
      </trkpt>
      <trkpt lat="43.342444" lon="-6.493888">
        <ele>637.046</ele>
        <time>1999-07-24T09:14:58Z</time>
      </trkpt>
      <trkpt lat="43.342353" lon="-6.494134">
        <ele>637.437</ele>
        <time>1999-07-24T09:15:03Z</time>
      </trkpt>
      <trkpt lat="43.342297" lon="-6.494304">
        <ele>637.449</ele>
        <time>1999-07-24T09:15:06Z</time>
      </trkpt>
      <trkpt lat="43.342220" lon="-6.494436">
        <ele>637.613</ele>
        <time>1999-07-24T09:15:08Z</time>
      </trkpt>
      <trkpt lat="43.342065" lon="-6.494677">
        <ele>637.608</ele>
        <time>1999-07-24T09:15:12Z</time>
      </trkpt>
      <trkpt lat="43.342032" lon="-6.494726">
        <ele>637.646</ele>
        <time>1999-07-24T09:15:13Z</time>
      </trkpt>
      <trkpt lat="43.341917" lon="-6.495011">
        <ele>637.422</ele>
        <time>1999-07-24T09:15:17Z</time>
      </trkpt>
      <trkpt lat="43.341891" lon="-6.495158">
        <ele>637.423</ele>
        <time>1999-07-24T09:15:19Z</time>
      </trkpt>
      <trkpt lat="43.341882" lon="-6.495230">
        <ele>637.444</ele>
        <time>1999-07-24T09:15:20Z</time>
      </trkpt>
      <trkpt lat="43.341885" lon="-6.495317">
        <ele>637.488</ele>
        <time>1999-07-24T09:15:21Z</time>
      </trkpt>
      <trkpt lat="43.341881" lon="-6.495403">
        <ele>637.267</ele>
        <time>1999-07-24T09:15:22Z</time>
      </trkpt>
      <trkpt lat="43.341864" lon="-6.495689">
        <ele>637.093</ele>
        <time>1999-07-24T09:15:25Z</time>
      </trkpt>
      <trkpt lat="43.341880" lon="-6.495901">
        <ele>636.825</ele>
        <time>1999-07-24T09:15:27Z</time>
      </trkpt>
      <trkpt lat="43.341915" lon="-6.496456">
        <ele>636.497</ele>
        <time>1999-07-24T09:15:32Z</time>
      </trkpt>
      <trkpt lat="43.341978" lon="-6.496892">
        <ele>636.023</ele>
        <time>1999-07-24T09:15:36Z</time>
      </trkpt>
      <trkpt lat="43.341975" lon="-6.496991">
        <ele>636.025</ele>
        <time>1999-07-24T09:15:37Z</time>
      </trkpt>
      <trkpt lat="43.341970" lon="-6.497066">
        <ele>635.608</ele>
        <time>1999-07-24T09:15:38Z</time>
      </trkpt>
      <trkpt lat="43.341955" lon="-6.497146">
        <ele>635.272</ele>
        <time>1999-07-24T09:15:40Z</time>
      </trkpt>
      <trkpt lat="43.341923" lon="-6.497236">
        <ele>633.048</ele>
        <time>1999-07-24T09:15:43Z</time>
      </trkpt>
      <trkpt lat="43.341884" lon="-6.497304">
        <ele>632.029</ele>
        <time>1999-07-24T09:15:45Z</time>
      </trkpt>
      <trkpt lat="43.341859" lon="-6.497338">
        <ele>631.250</ele>
        <time>1999-07-24T09:15:46Z</time>
      </trkpt>
      <trkpt lat="43.341830" lon="-6.497373">
        <ele>630.634</ele>
        <time>1999-07-24T09:15:47Z</time>
      </trkpt>
      <trkpt lat="43.341707" lon="-6.497471">
        <ele>629.883</ele>
        <time>1999-07-24T09:15:51Z</time>
      </trkpt>
      <trkpt lat="43.341649" lon="-6.497505">
        <ele>629.629</ele>
        <time>1999-07-24T09:15:53Z</time>
      </trkpt>
      <trkpt lat="43.341497" lon="-6.497569">
        <ele>629.441</ele>
        <time>1999-07-24T09:15:57Z</time>
      </trkpt>
      <trkpt lat="43.341407" lon="-6.497602">
        <ele>629.246</ele>
        <time>1999-07-24T09:15:59Z</time>
      </trkpt>
      <trkpt lat="43.341308" lon="-6.497587">
        <ele>629.288</ele>
        <time>1999-07-24T09:16:01Z</time>
      </trkpt>
      <trkpt lat="43.341216" lon="-6.497562">
        <ele>629.216</ele>
        <time>1999-07-24T09:16:03Z</time>
      </trkpt>
      <trkpt lat="43.341082" lon="-6.497525">
        <ele>629.208</ele>
        <time>1999-07-24T09:16:06Z</time>
      </trkpt>
      <trkpt lat="43.340949" lon="-6.497494">
        <ele>629.457</ele>
        <time>1999-07-24T09:16:09Z</time>
      </trkpt>
      <trkpt lat="43.340747" lon="-6.497477">
        <ele>630.843</ele>
        <time>1999-07-24T09:16:14Z</time>
      </trkpt>
      <trkpt lat="43.340668" lon="-6.497461">
        <ele>631.474</ele>
        <time>1999-07-24T09:16:16Z</time>
      </trkpt>
      <trkpt lat="43.340519" lon="-6.497447">
        <ele>632.095</ele>
        <time>1999-07-24T09:16:20Z</time>
      </trkpt>
      <trkpt lat="43.340378" lon="-6.497447">
        <ele>633.299</ele>
        <time>1999-07-24T09:16:24Z</time>
      </trkpt>
      <trkpt lat="43.340236" lon="-6.497463">
        <ele>634.238</ele>
        <time>1999-07-24T09:16:28Z</time>
      </trkpt>
      <trkpt lat="43.340106" lon="-6.497471">
        <ele>635.474</ele>
        <time>1999-07-24T09:16:32Z</time>
      </trkpt>
      <trkpt lat="43.340015" lon="-6.497504">
        <ele>636.626</ele>
        <time>1999-07-24T09:16:36Z</time>
      </trkpt>
      <trkpt lat="43.339999" lon="-6.497515">
        <ele>636.899</ele>
        <time>1999-07-24T09:16:37Z</time>
      </trkpt>
      <trkpt lat="43.339979" lon="-6.497533">
        <ele>637.807</ele>
        <time>1999-07-24T09:16:39Z</time>
      </trkpt>
      <trkpt lat="43.339944" lon="-6.497582">
        <ele>638.627</ele>
        <time>1999-07-24T09:16:42Z</time>
      </trkpt>
      <trkpt lat="43.339930" lon="-6.497614">
        <ele>639.008</ele>
        <time>1999-07-24T09:16:43Z</time>
      </trkpt>
      <trkpt lat="43.339880" lon="-6.497761">
        <ele>639.422</ele>
        <time>1999-07-24T09:16:46Z</time>
      </trkpt>
      <trkpt lat="43.339703" lon="-6.497957">
        <ele>639.468</ele>
        <time>1999-07-24T09:16:50Z</time>
      </trkpt>
      <trkpt lat="43.339365" lon="-6.498233">
        <ele>638.689</ele>
        <time>1999-07-24T09:16:55Z</time>
      </trkpt>
      <trkpt lat="43.339011" lon="-6.498475">
        <ele>638.050</ele>
        <time>1999-07-24T09:16:59Z</time>
      </trkpt>
      <trkpt lat="43.338917" lon="-6.498544">
        <ele>637.664</ele>
        <time>1999-07-24T09:17:00Z</time>
      </trkpt>
      <trkpt lat="43.338719" lon="-6.498691">
        <ele>636.883</ele>
        <time>1999-07-24T09:17:02Z</time>
      </trkpt>
      <trkpt lat="43.338507" lon="-6.498855">
        <ele>635.829</ele>
        <time>1999-07-24T09:17:04Z</time>
      </trkpt>
      <trkpt lat="43.338398" lon="-6.498942">
        <ele>635.211</ele>
        <time>1999-07-24T09:17:05Z</time>
      </trkpt>
      <trkpt lat="43.338180" lon="-6.499117">
        <ele>634.021</ele>
        <time>1999-07-24T09:17:07Z</time>
      </trkpt>
      <trkpt lat="43.338079" lon="-6.499218">
        <ele>633.441</ele>
        <time>1999-07-24T09:17:08Z</time>
      </trkpt>
      <trkpt lat="43.337991" lon="-6.499337">
        <ele>633.005</ele>
        <time>1999-07-24T09:17:09Z</time>
      </trkpt>
      <trkpt lat="43.337913" lon="-6.499468">
        <ele>632.208</ele>
        <time>1999-07-24T09:17:10Z</time>
      </trkpt>
      <trkpt lat="43.337839" lon="-6.499604">
        <ele>631.425</ele>
        <time>1999-07-24T09:17:11Z</time>
      </trkpt>
      <trkpt lat="43.337675" lon="-6.499863">
        <ele>630.061</ele>
        <time>1999-07-24T09:17:13Z</time>
      </trkpt>
      <trkpt lat="43.337430" lon="-6.500249">
        <ele>629.062</ele>
        <time>1999-07-24T09:17:16Z</time>
      </trkpt>
      <trkpt lat="43.337281" lon="-6.500524">
        <ele>628.673</ele>
        <time>1999-07-24T09:17:18Z</time>
      </trkpt>
      <trkpt lat="43.337209" lon="-6.500663">
        <ele>628.287</ele>
        <time>1999-07-24T09:17:19Z</time>
      </trkpt>
      <trkpt lat="43.337136" lon="-6.500800">
        <ele>627.466</ele>
        <time>1999-07-24T09:17:20Z</time>
      </trkpt>
      <trkpt lat="43.337000" lon="-6.501085">
        <ele>625.832</ele>
        <time>1999-07-24T09:17:22Z</time>
      </trkpt>
      <trkpt lat="43.336868" lon="-6.501373">
        <ele>624.694</ele>
        <time>1999-07-24T09:17:24Z</time>
      </trkpt>
      <trkpt lat="43.336803" lon="-6.501515">
        <ele>624.073</ele>
        <time>1999-07-24T09:17:25Z</time>
      </trkpt>
      <trkpt lat="43.336744" lon="-6.501650">
        <ele>623.685</ele>
        <time>1999-07-24T09:17:26Z</time>
      </trkpt>
      <trkpt lat="43.336654" lon="-6.501915">
        <ele>622.813</ele>
        <time>1999-07-24T09:17:28Z</time>
      </trkpt>
      <trkpt lat="43.336632" lon="-6.502056">
        <ele>622.208</ele>
        <time>1999-07-24T09:17:29Z</time>
      </trkpt>
      <trkpt lat="43.336639" lon="-6.502351">
        <ele>621.250</ele>
        <time>1999-07-24T09:17:31Z</time>
      </trkpt>
      <trkpt lat="43.336653" lon="-6.502504">
        <ele>620.696</ele>
        <time>1999-07-24T09:17:32Z</time>
      </trkpt>
      <trkpt lat="43.336664" lon="-6.502821">
        <ele>618.677</ele>
        <time>1999-07-24T09:17:34Z</time>
      </trkpt>
      <trkpt lat="43.336652" lon="-6.503152">
        <ele>616.858</ele>
        <time>1999-07-24T09:17:36Z</time>
      </trkpt>
      <trkpt lat="43.336613" lon="-6.503461">
        <ele>615.662</ele>
        <time>1999-07-24T09:17:38Z</time>
      </trkpt>
      <trkpt lat="43.336603" lon="-6.503737">
        <ele>614.481</ele>
        <time>1999-07-24T09:17:40Z</time>
      </trkpt>
      <trkpt lat="43.336682" lon="-6.503994">
        <ele>613.637</ele>
        <time>1999-07-24T09:17:42Z</time>
      </trkpt>
      <trkpt lat="43.336742" lon="-6.504117">
        <ele>613.029</ele>
        <time>1999-07-24T09:17:43Z</time>
      </trkpt>
      <trkpt lat="43.336809" lon="-6.504235">
        <ele>612.083</ele>
        <time>1999-07-24T09:17:44Z</time>
      </trkpt>
      <trkpt lat="43.336875" lon="-6.504352">
        <ele>610.825</ele>
        <time>1999-07-24T09:17:45Z</time>
      </trkpt>
      <trkpt lat="43.336930" lon="-6.504478">
        <ele>609.417</ele>
        <time>1999-07-24T09:17:46Z</time>
      </trkpt>
      <trkpt lat="43.336971" lon="-6.504615">
        <ele>608.008</ele>
        <time>1999-07-24T09:17:47Z</time>
      </trkpt>
      <trkpt lat="43.336995" lon="-6.504761">
        <ele>606.831</ele>
        <time>1999-07-24T09:17:48Z</time>
      </trkpt>
      <trkpt lat="43.337003" lon="-6.504909">
        <ele>605.837</ele>
        <time>1999-07-24T09:17:49Z</time>
      </trkpt>
      <trkpt lat="43.336994" lon="-6.505218">
        <ele>604.058</ele>
        <time>1999-07-24T09:17:51Z</time>
      </trkpt>
      <trkpt lat="43.336972" lon="-6.505537">
        <ele>603.289</ele>
        <time>1999-07-24T09:17:53Z</time>
      </trkpt>
      <trkpt lat="43.336959" lon="-6.505695">
        <ele>602.823</ele>
        <time>1999-07-24T09:17:54Z</time>
      </trkpt>
      <trkpt lat="43.336939" lon="-6.506003">
        <ele>601.282</ele>
        <time>1999-07-24T09:17:56Z</time>
      </trkpt>
      <trkpt lat="43.336935" lon="-6.506153">
        <ele>600.448</ele>
        <time>1999-07-24T09:17:57Z</time>
      </trkpt>
      <trkpt lat="43.336933" lon="-6.506298">
        <ele>599.870</ele>
        <time>1999-07-24T09:17:58Z</time>
      </trkpt>
      <trkpt lat="43.336932" lon="-6.506438">
        <ele>599.089</ele>
        <time>1999-07-24T09:17:59Z</time>
      </trkpt>
      <trkpt lat="43.336932" lon="-6.506575">
        <ele>598.006</ele>
        <time>1999-07-24T09:18:00Z</time>
      </trkpt>
      <trkpt lat="43.336934" lon="-6.506708">
        <ele>596.226</ele>
        <time>1999-07-24T09:18:01Z</time>
      </trkpt>
      <trkpt lat="43.336945" lon="-6.506966">
        <ele>595.408</ele>
        <time>1999-07-24T09:18:03Z</time>
      </trkpt>
      <trkpt lat="43.336951" lon="-6.507090">
        <ele>595.071</ele>
        <time>1999-07-24T09:18:04Z</time>
      </trkpt>
      <trkpt lat="43.336958" lon="-6.507213">
        <ele>594.457</ele>
        <time>1999-07-24T09:18:05Z</time>
      </trkpt>
      <trkpt lat="43.336972" lon="-6.507447">
        <ele>593.678</ele>
        <time>1999-07-24T09:18:07Z</time>
      </trkpt>
      <trkpt lat="43.336986" lon="-6.507668">
        <ele>593.439</ele>
        <time>1999-07-24T09:18:09Z</time>
      </trkpt>
      <trkpt lat="43.336991" lon="-6.507882">
        <ele>593.213</ele>
        <time>1999-07-24T09:18:11Z</time>
      </trkpt>
      <trkpt lat="43.337013" lon="-6.508356">
        <ele>592.832</ele>
        <time>1999-07-24T09:18:16Z</time>
      </trkpt>
      <trkpt lat="43.337021" lon="-6.508730">
        <ele>592.818</ele>
        <time>1999-07-24T09:18:21Z</time>
      </trkpt>
      <trkpt lat="43.337023" lon="-6.508797">
        <ele>592.830</ele>
        <time>1999-07-24T09:18:22Z</time>
      </trkpt>
      <trkpt lat="43.337043" lon="-6.509056">
        <ele>593.087</ele>
        <time>1999-07-24T09:18:26Z</time>
      </trkpt>
      <trkpt lat="43.337058" lon="-6.509121">
        <ele>593.242</ele>
        <time>1999-07-24T09:18:27Z</time>
      </trkpt>
      <trkpt lat="43.337095" lon="-6.509254">
        <ele>594.026</ele>
        <time>1999-07-24T09:18:29Z</time>
      </trkpt>
      <trkpt lat="43.337140" lon="-6.509436">
        <ele>594.608</ele>
        <time>1999-07-24T09:18:32Z</time>
      </trkpt>
      <trkpt lat="43.337152" lon="-6.509494">
        <ele>594.871</ele>
        <time>1999-07-24T09:18:33Z</time>
      </trkpt>
      <trkpt lat="43.337206" lon="-6.509713">
        <ele>596.057</ele>
        <time>1999-07-24T09:18:37Z</time>
      </trkpt>
      <trkpt lat="43.337246" lon="-6.509928">
        <ele>597.248</ele>
        <time>1999-07-24T09:18:41Z</time>
      </trkpt>
      <trkpt lat="43.337274" lon="-6.510087">
        <ele>598.059</ele>
        <time>1999-07-24T09:18:44Z</time>
      </trkpt>
      <trkpt lat="43.337279" lon="-6.510139">
        <ele>598.243</ele>
        <time>1999-07-24T09:18:45Z</time>
      </trkpt>
      <trkpt lat="43.337284" lon="-6.510402">
        <ele>599.472</ele>
        <time>1999-07-24T09:18:50Z</time>
      </trkpt>
      <trkpt lat="43.337284" lon="-6.510506">
        <ele>600.098</ele>
        <time>1999-07-24T09:18:52Z</time>
      </trkpt>
      <trkpt lat="43.337283" lon="-6.510609">
        <ele>600.480</ele>
        <time>1999-07-24T09:18:54Z</time>
      </trkpt>
      <trkpt lat="43.337257" lon="-6.510848">
        <ele>601.847</ele>
        <time>1999-07-24T09:18:59Z</time>
      </trkpt>
      <trkpt lat="43.337243" lon="-6.510888">
        <ele>602.029</ele>
        <time>1999-07-24T09:19:00Z</time>
      </trkpt>
      <trkpt lat="43.337215" lon="-6.511018">
        <ele>602.621</ele>
        <time>1999-07-24T09:19:03Z</time>
      </trkpt>
      <trkpt lat="43.337207" lon="-6.511068">
        <ele>602.808</ele>
        <time>1999-07-24T09:19:04Z</time>
      </trkpt>
      <trkpt lat="43.337184" lon="-6.511183">
        <ele>603.027</ele>
        <time>1999-07-24T09:19:06Z</time>
      </trkpt>
      <trkpt lat="43.337150" lon="-6.511395">
        <ele>603.063</ele>
        <time>1999-07-24T09:19:09Z</time>
      </trkpt>
      <trkpt lat="43.337144" lon="-6.511476">
        <ele>603.034</ele>
        <time>1999-07-24T09:19:10Z</time>
      </trkpt>
      <trkpt lat="43.337141" lon="-6.511557">
        <ele>603.065</ele>
        <time>1999-07-24T09:19:11Z</time>
      </trkpt>
      <trkpt lat="43.337147" lon="-6.511733">
        <ele>603.039</ele>
        <time>1999-07-24T09:19:13Z</time>
      </trkpt>
      <trkpt lat="43.337163" lon="-6.511930">
        <ele>603.088</ele>
        <time>1999-07-24T09:19:15Z</time>
      </trkpt>
      <trkpt lat="43.337175" lon="-6.512032">
        <ele>603.054</ele>
        <time>1999-07-24T09:19:16Z</time>
      </trkpt>
      <trkpt lat="43.337232" lon="-6.512345">
        <ele>602.436</ele>
        <time>1999-07-24T09:19:19Z</time>
      </trkpt>
      <trkpt lat="43.337323" lon="-6.512661">
        <ele>601.814</ele>
        <time>1999-07-24T09:19:22Z</time>
      </trkpt>
      <trkpt lat="43.337401" lon="-6.512871">
        <ele>601.054</ele>
        <time>1999-07-24T09:19:24Z</time>
      </trkpt>
      <trkpt lat="43.337439" lon="-6.512979">
        <ele>600.809</ele>
        <time>1999-07-24T09:19:25Z</time>
      </trkpt>
      <trkpt lat="43.337472" lon="-6.513093">
        <ele>600.608</ele>
        <time>1999-07-24T09:19:26Z</time>
      </trkpt>
      <trkpt lat="43.337504" lon="-6.513211">
        <ele>600.424</ele>
        <time>1999-07-24T09:19:27Z</time>
      </trkpt>
      <trkpt lat="43.337570" lon="-6.513446">
        <ele>599.480</ele>
        <time>1999-07-24T09:19:29Z</time>
      </trkpt>
      <trkpt lat="43.337639" lon="-6.513679">
        <ele>598.411</ele>
        <time>1999-07-24T09:19:31Z</time>
      </trkpt>
      <trkpt lat="43.337716" lon="-6.513903">
        <ele>597.422</ele>
        <time>1999-07-24T09:19:33Z</time>
      </trkpt>
      <trkpt lat="43.337752" lon="-6.514011">
        <ele>597.256</ele>
        <time>1999-07-24T09:19:34Z</time>
      </trkpt>
      <trkpt lat="43.337785" lon="-6.514120">
        <ele>596.855</ele>
        <time>1999-07-24T09:19:35Z</time>
      </trkpt>
      <trkpt lat="43.337850" lon="-6.514337">
        <ele>596.021</ele>
        <time>1999-07-24T09:19:37Z</time>
      </trkpt>
      <trkpt lat="43.337991" lon="-6.514766">
        <ele>594.863</ele>
        <time>1999-07-24T09:19:41Z</time>
      </trkpt>
      <trkpt lat="43.338059" lon="-6.514976">
        <ele>594.243</ele>
        <time>1999-07-24T09:19:43Z</time>
      </trkpt>
      <trkpt lat="43.338099" lon="-6.515073">
        <ele>593.864</ele>
        <time>1999-07-24T09:19:44Z</time>
      </trkpt>
      <trkpt lat="43.338269" lon="-6.515438">
        <ele>593.010</ele>
        <time>1999-07-24T09:19:48Z</time>
      </trkpt>
      <trkpt lat="43.338351" lon="-6.515614">
        <ele>592.408</ele>
        <time>1999-07-24T09:19:50Z</time>
      </trkpt>
      <trkpt lat="43.338433" lon="-6.515782">
        <ele>592.087</ele>
        <time>1999-07-24T09:19:52Z</time>
      </trkpt>
      <trkpt lat="43.338471" lon="-6.515866">
        <ele>592.293</ele>
        <time>1999-07-24T09:19:53Z</time>
      </trkpt>
      <trkpt lat="43.338549" lon="-6.516032">
        <ele>592.024</ele>
        <time>1999-07-24T09:19:55Z</time>
      </trkpt>
      <trkpt lat="43.338588" lon="-6.516115">
        <ele>591.815</ele>
        <time>1999-07-24T09:19:56Z</time>
      </trkpt>
      <trkpt lat="43.338741" lon="-6.516441">
        <ele>591.849</ele>
        <time>1999-07-24T09:20:00Z</time>
      </trkpt>
      <trkpt lat="43.338999" lon="-6.517008">
        <ele>591.638</ele>
        <time>1999-07-24T09:20:07Z</time>
      </trkpt>
      <trkpt lat="43.339146" lon="-6.517308">
        <ele>591.654</ele>
        <time>1999-07-24T09:20:11Z</time>
      </trkpt>
      <trkpt lat="43.339249" lon="-6.517500">
        <ele>591.666</ele>
        <time>1999-07-24T09:20:14Z</time>
      </trkpt>
      <trkpt lat="43.339402" lon="-6.517757">
        <ele>591.867</ele>
        <time>1999-07-24T09:20:19Z</time>
      </trkpt>
      <trkpt lat="43.339461" lon="-6.517849">
        <ele>592.281</ele>
        <time>1999-07-24T09:20:21Z</time>
      </trkpt>
      <trkpt lat="43.339605" lon="-6.518047">
        <ele>592.619</ele>
        <time>1999-07-24T09:20:26Z</time>
      </trkpt>
      <trkpt lat="43.339655" lon="-6.518114">
        <ele>593.008</ele>
        <time>1999-07-24T09:20:28Z</time>
      </trkpt>
      <trkpt lat="43.339773" lon="-6.518248">
        <ele>593.619</ele>
        <time>1999-07-24T09:20:33Z</time>
      </trkpt>
      <trkpt lat="43.339818" lon="-6.518302">
        <ele>594.015</ele>
        <time>1999-07-24T09:20:35Z</time>
      </trkpt>
      <trkpt lat="43.339923" lon="-6.518439">
        <ele>594.826</ele>
        <time>1999-07-24T09:20:41Z</time>
      </trkpt>
      <trkpt lat="43.339934" lon="-6.518455">
        <ele>595.087</ele>
        <time>1999-07-24T09:20:42Z</time>
      </trkpt>
      <trkpt lat="43.339938" lon="-6.518472">
        <ele>595.431</ele>
        <time>1999-07-24T09:20:45Z</time>
      </trkpt>
      <trkpt lat="43.339949" lon="-6.518552">
        <ele>596.240</ele>
        <time>1999-07-24T09:21:15Z</time>
      </trkpt>
      <trkpt lat="43.339960" lon="-6.518576">
        <ele>596.296</ele>
        <time>1999-07-24T09:21:16Z</time>
      </trkpt>
      <trkpt lat="43.339969" lon="-6.518606">
        <ele>596.298</ele>
        <time>1999-07-24T09:21:17Z</time>
      </trkpt>
      <trkpt lat="43.339980" lon="-6.518717">
        <ele>596.281</ele>
        <time>1999-07-24T09:21:20Z</time>
      </trkpt>
      <trkpt lat="43.339968" lon="-6.518834">
        <ele>596.461</ele>
        <time>1999-07-24T09:21:23Z</time>
      </trkpt>
      <trkpt lat="43.339934" lon="-6.518949">
        <ele>596.817</ele>
        <time>1999-07-24T09:21:26Z</time>
      </trkpt>
      <trkpt lat="43.339873" lon="-6.519090">
        <ele>597.208</ele>
        <time>1999-07-24T09:21:30Z</time>
      </trkpt>
      <trkpt lat="43.339835" lon="-6.519188">
        <ele>597.631</ele>
        <time>1999-07-24T09:21:33Z</time>
      </trkpt>
      <trkpt lat="43.339791" lon="-6.519286">
        <ele>598.637</ele>
        <time>1999-07-24T09:21:36Z</time>
      </trkpt>
      <trkpt lat="43.339731" lon="-6.519366">
        <ele>599.288</ele>
        <time>1999-07-24T09:21:39Z</time>
      </trkpt>
      <trkpt lat="43.339709" lon="-6.519390">
        <ele>599.669</ele>
        <time>1999-07-24T09:21:40Z</time>
      </trkpt>
      <trkpt lat="43.339648" lon="-6.519512">
        <ele>600.613</ele>
        <time>1999-07-24T09:21:44Z</time>
      </trkpt>
      <trkpt lat="43.339633" lon="-6.519541">
        <ele>600.832</ele>
        <time>1999-07-24T09:21:45Z</time>
      </trkpt>
      <trkpt lat="43.339551" lon="-6.519693">
        <ele>602.078</ele>
        <time>1999-07-24T09:21:50Z</time>
      </trkpt>
      <trkpt lat="43.339436" lon="-6.519865">
        <ele>603.290</ele>
        <time>1999-07-24T09:21:56Z</time>
      </trkpt>
      <trkpt lat="43.339420" lon="-6.519896">
        <ele>603.475</ele>
        <time>1999-07-24T09:21:57Z</time>
      </trkpt>
      <trkpt lat="43.339350" lon="-6.520014">
        <ele>604.228</ele>
        <time>1999-07-24T09:22:01Z</time>
      </trkpt>
      <trkpt lat="43.339263" lon="-6.520154">
        <ele>605.420</ele>
        <time>1999-07-24T09:22:06Z</time>
      </trkpt>
      <trkpt lat="43.339210" lon="-6.520235">
        <ele>606.408</ele>
        <time>1999-07-24T09:22:09Z</time>
      </trkpt>
      <trkpt lat="43.339142" lon="-6.520342">
        <ele>607.660</ele>
        <time>1999-07-24T09:22:13Z</time>
      </trkpt>
      <trkpt lat="43.339029" lon="-6.520501">
        <ele>608.836</ele>
        <time>1999-07-24T09:22:19Z</time>
      </trkpt>
      <trkpt lat="43.338962" lon="-6.520614">
        <ele>609.487</ele>
        <time>1999-07-24T09:22:23Z</time>
      </trkpt>
      <trkpt lat="43.338912" lon="-6.520699">
        <ele>610.098</ele>
        <time>1999-07-24T09:22:26Z</time>
      </trkpt>
      <trkpt lat="43.338819" lon="-6.520844">
        <ele>611.262</ele>
        <time>1999-07-24T09:22:31Z</time>
      </trkpt>
      <trkpt lat="43.338798" lon="-6.520874">
        <ele>611.211</ele>
        <time>1999-07-24T09:22:32Z</time>
      </trkpt>
      <trkpt lat="43.338706" lon="-6.520969">
        <ele>612.237</ele>
        <time>1999-07-24T09:22:36Z</time>
      </trkpt>
      <trkpt lat="43.338661" lon="-6.521015">
        <ele>612.669</ele>
        <time>1999-07-24T09:22:38Z</time>
      </trkpt>
      <trkpt lat="43.338589" lon="-6.521080">
        <ele>613.486</ele>
        <time>1999-07-24T09:22:41Z</time>
      </trkpt>
      <trkpt lat="43.338494" lon="-6.521159">
        <ele>614.460</ele>
        <time>1999-07-24T09:22:45Z</time>
      </trkpt>
      <trkpt lat="43.338470" lon="-6.521178">
        <ele>614.626</ele>
        <time>1999-07-24T09:22:46Z</time>
      </trkpt>
      <trkpt lat="43.338351" lon="-6.521267">
        <ele>615.808</ele>
        <time>1999-07-24T09:22:51Z</time>
      </trkpt>
      <trkpt lat="43.338302" lon="-6.521298">
        <ele>616.261</ele>
        <time>1999-07-24T09:22:53Z</time>
      </trkpt>
      <trkpt lat="43.338224" lon="-6.521340">
        <ele>617.097</ele>
        <time>1999-07-24T09:22:56Z</time>
      </trkpt>
      <trkpt lat="43.338067" lon="-6.521439">
        <ele>618.628</ele>
        <time>1999-07-24T09:23:02Z</time>
      </trkpt>
      <trkpt lat="43.337950" lon="-6.521541">
        <ele>619.679</ele>
        <time>1999-07-24T09:23:07Z</time>
      </trkpt>
      <trkpt lat="43.337926" lon="-6.521553">
        <ele>619.613</ele>
        <time>1999-07-24T09:23:08Z</time>
      </trkpt>
      <trkpt lat="43.337900" lon="-6.521559">
        <ele>619.832</ele>
        <time>1999-07-24T09:23:09Z</time>
      </trkpt>
      <trkpt lat="43.337851" lon="-6.521590">
        <ele>620.458</ele>
        <time>1999-07-24T09:23:11Z</time>
      </trkpt>
      <trkpt lat="43.337830" lon="-6.521619">
        <ele>620.670</ele>
        <time>1999-07-24T09:23:12Z</time>
      </trkpt>
      <trkpt lat="43.337806" lon="-6.521646">
        <ele>620.863</ele>
        <time>1999-07-24T09:23:13Z</time>
      </trkpt>
      <trkpt lat="43.337692" lon="-6.521750">
        <ele>621.844</ele>
        <time>1999-07-24T09:23:17Z</time>
      </trkpt>
      <trkpt lat="43.337606" lon="-6.521843">
        <ele>622.418</ele>
        <time>1999-07-24T09:23:20Z</time>
      </trkpt>
      <trkpt lat="43.337484" lon="-6.521979">
        <ele>622.808</ele>
        <time>1999-07-24T09:23:24Z</time>
      </trkpt>
      <trkpt lat="43.337452" lon="-6.522017">
        <ele>622.859</ele>
        <time>1999-07-24T09:23:25Z</time>
      </trkpt>
      <trkpt lat="43.337352" lon="-6.522133">
        <ele>623.295</ele>
        <time>1999-07-24T09:23:28Z</time>
      </trkpt>
      <trkpt lat="43.337234" lon="-6.522280">
        <ele>623.256</ele>
        <time>1999-07-24T09:23:31Z</time>
      </trkpt>
      <trkpt lat="43.337147" lon="-6.522411">
        <ele>623.217</ele>
        <time>1999-07-24T09:23:33Z</time>
      </trkpt>
      <trkpt lat="43.337012" lon="-6.522655">
        <ele>623.271</ele>
        <time>1999-07-24T09:23:36Z</time>
      </trkpt>
      <trkpt lat="43.336916" lon="-6.522838">
        <ele>623.090</ele>
        <time>1999-07-24T09:23:38Z</time>
      </trkpt>
      <trkpt lat="43.336770" lon="-6.523139">
        <ele>622.486</ele>
        <time>1999-07-24T09:23:41Z</time>
      </trkpt>
      <trkpt lat="43.336738" lon="-6.523257">
        <ele>622.018</ele>
        <time>1999-07-24T09:23:42Z</time>
      </trkpt>
      <trkpt lat="43.336720" lon="-6.523384">
        <ele>621.845</ele>
        <time>1999-07-24T09:23:43Z</time>
      </trkpt>
      <trkpt lat="43.336712" lon="-6.523513">
        <ele>621.647</ele>
        <time>1999-07-24T09:23:44Z</time>
      </trkpt>
      <trkpt lat="43.336707" lon="-6.523770">
        <ele>621.011</ele>
        <time>1999-07-24T09:23:46Z</time>
      </trkpt>
      <trkpt lat="43.336706" lon="-6.523900">
        <ele>620.808</ele>
        <time>1999-07-24T09:23:47Z</time>
      </trkpt>
      <trkpt lat="43.336667" lon="-6.524307">
        <ele>619.637</ele>
        <time>1999-07-24T09:23:50Z</time>
      </trkpt>
      <trkpt lat="43.336645" lon="-6.524451">
        <ele>619.223</ele>
        <time>1999-07-24T09:23:51Z</time>
      </trkpt>
      <trkpt lat="43.336590" lon="-6.524732">
        <ele>618.454</ele>
        <time>1999-07-24T09:23:53Z</time>
      </trkpt>
      <trkpt lat="43.336524" lon="-6.524977">
        <ele>617.025</ele>
        <time>1999-07-24T09:23:55Z</time>
      </trkpt>
      <trkpt lat="43.336474" lon="-6.525212">
        <ele>614.679</ele>
        <time>1999-07-24T09:23:57Z</time>
      </trkpt>
      <trkpt lat="43.336482" lon="-6.525442">
        <ele>613.418</ele>
        <time>1999-07-24T09:23:59Z</time>
      </trkpt>
      <trkpt lat="43.336597" lon="-6.525730">
        <ele>611.854</ele>
        <time>1999-07-24T09:24:02Z</time>
      </trkpt>
      <trkpt lat="43.336643" lon="-6.525817">
        <ele>611.216</ele>
        <time>1999-07-24T09:24:03Z</time>
      </trkpt>
      <trkpt lat="43.336690" lon="-6.525904">
        <ele>610.634</ele>
        <time>1999-07-24T09:24:04Z</time>
      </trkpt>
      <trkpt lat="43.336875" lon="-6.526239">
        <ele>609.655</ele>
        <time>1999-07-24T09:24:08Z</time>
      </trkpt>
      <trkpt lat="43.337065" lon="-6.526579">
        <ele>608.410</ele>
        <time>1999-07-24T09:24:12Z</time>
      </trkpt>
      <trkpt lat="43.337153" lon="-6.526759">
        <ele>607.608</ele>
        <time>1999-07-24T09:24:14Z</time>
      </trkpt>
      <trkpt lat="43.337196" lon="-6.526852">
        <ele>607.226</ele>
        <time>1999-07-24T09:24:15Z</time>
      </trkpt>
      <trkpt lat="43.337277" lon="-6.527044">
        <ele>606.442</ele>
        <time>1999-07-24T09:24:17Z</time>
      </trkpt>
      <trkpt lat="43.337316" lon="-6.527145">
        <ele>606.083</ele>
        <time>1999-07-24T09:24:18Z</time>
      </trkpt>
      <trkpt lat="43.337464" lon="-6.527552">
        <ele>605.464</ele>
        <time>1999-07-24T09:24:22Z</time>
      </trkpt>
      <trkpt lat="43.337536" lon="-6.527758">
        <ele>605.018</ele>
        <time>1999-07-24T09:24:24Z</time>
      </trkpt>
      <trkpt lat="43.337653" lon="-6.528180">
        <ele>604.057</ele>
        <time>1999-07-24T09:24:28Z</time>
      </trkpt>
      <trkpt lat="43.337671" lon="-6.528290">
        <ele>603.883</ele>
        <time>1999-07-24T09:24:29Z</time>
      </trkpt>
      <trkpt lat="43.337689" lon="-6.528515">
        <ele>602.875</ele>
        <time>1999-07-24T09:24:31Z</time>
      </trkpt>
      <trkpt lat="43.337696" lon="-6.528627">
        <ele>602.474</ele>
        <time>1999-07-24T09:24:32Z</time>
      </trkpt>
      <trkpt lat="43.337708" lon="-6.528854">
        <ele>601.656</ele>
        <time>1999-07-24T09:24:34Z</time>
      </trkpt>
      <trkpt lat="43.337733" lon="-6.529199">
        <ele>600.621</ele>
        <time>1999-07-24T09:24:37Z</time>
      </trkpt>
      <trkpt lat="43.337732" lon="-6.529432">
        <ele>599.808</ele>
        <time>1999-07-24T09:24:39Z</time>
      </trkpt>
      <trkpt lat="43.337725" lon="-6.529550">
        <ele>599.420</ele>
        <time>1999-07-24T09:24:40Z</time>
      </trkpt>
      <trkpt lat="43.337701" lon="-6.530019">
        <ele>598.026</ele>
        <time>1999-07-24T09:24:44Z</time>
      </trkpt>
      <trkpt lat="43.337693" lon="-6.530369">
        <ele>596.847</ele>
        <time>1999-07-24T09:24:47Z</time>
      </trkpt>
      <trkpt lat="43.337697" lon="-6.530608">
        <ele>595.858</ele>
        <time>1999-07-24T09:24:49Z</time>
      </trkpt>
      <trkpt lat="43.337718" lon="-6.530849">
        <ele>595.052</ele>
        <time>1999-07-24T09:24:51Z</time>
      </trkpt>
      <trkpt lat="43.337734" lon="-6.530969">
        <ele>594.851</ele>
        <time>1999-07-24T09:24:52Z</time>
      </trkpt>
      <trkpt lat="43.337751" lon="-6.531089">
        <ele>594.657</ele>
        <time>1999-07-24T09:24:53Z</time>
      </trkpt>
      <trkpt lat="43.337797" lon="-6.531440">
        <ele>593.649</ele>
        <time>1999-07-24T09:24:56Z</time>
      </trkpt>
      <trkpt lat="43.337846" lon="-6.531782">
        <ele>592.882</ele>
        <time>1999-07-24T09:24:59Z</time>
      </trkpt>
      <trkpt lat="43.337857" lon="-6.531895">
        <ele>592.443</ele>
        <time>1999-07-24T09:25:00Z</time>
      </trkpt>
      <trkpt lat="43.337864" lon="-6.532008">
        <ele>591.817</ele>
        <time>1999-07-24T09:25:01Z</time>
      </trkpt>
      <trkpt lat="43.337861" lon="-6.532241">
        <ele>591.008</ele>
        <time>1999-07-24T09:25:03Z</time>
      </trkpt>
      <trkpt lat="43.337846" lon="-6.532358">
        <ele>590.471</ele>
        <time>1999-07-24T09:25:04Z</time>
      </trkpt>
      <trkpt lat="43.337804" lon="-6.532594">
        <ele>590.017</ele>
        <time>1999-07-24T09:25:06Z</time>
      </trkpt>
      <trkpt lat="43.337783" lon="-6.532713">
        <ele>589.618</ele>
        <time>1999-07-24T09:25:07Z</time>
      </trkpt>
      <trkpt lat="43.337713" lon="-6.533073">
        <ele>588.499</ele>
        <time>1999-07-24T09:25:10Z</time>
      </trkpt>
      <trkpt lat="43.337615" lon="-6.533561">
        <ele>587.253</ele>
        <time>1999-07-24T09:25:14Z</time>
      </trkpt>
      <trkpt lat="43.337464" lon="-6.534297">
        <ele>586.442</ele>
        <time>1999-07-24T09:25:20Z</time>
      </trkpt>
      <trkpt lat="43.337390" lon="-6.534661">
        <ele>585.678</ele>
        <time>1999-07-24T09:25:23Z</time>
      </trkpt>
      <trkpt lat="43.337364" lon="-6.534779">
        <ele>585.470</ele>
        <time>1999-07-24T09:25:24Z</time>
      </trkpt>
      <trkpt lat="43.337285" lon="-6.535123">
        <ele>584.651</ele>
        <time>1999-07-24T09:25:27Z</time>
      </trkpt>
      <trkpt lat="43.337250" lon="-6.535346">
        <ele>584.001</ele>
        <time>1999-07-24T09:25:29Z</time>
      </trkpt>
      <trkpt lat="43.337232" lon="-6.535459">
        <ele>583.611</ele>
        <time>1999-07-24T09:25:30Z</time>
      </trkpt>
      <trkpt lat="43.337191" lon="-6.535680">
        <ele>583.008</ele>
        <time>1999-07-24T09:25:32Z</time>
      </trkpt>
      <trkpt lat="43.337126" lon="-6.535995">
        <ele>582.678</ele>
        <time>1999-07-24T09:25:35Z</time>
      </trkpt>
      <trkpt lat="43.337094" lon="-6.536190">
        <ele>582.494</ele>
        <time>1999-07-24T09:25:37Z</time>
      </trkpt>
      <trkpt lat="43.337067" lon="-6.536376">
        <ele>582.445</ele>
        <time>1999-07-24T09:25:39Z</time>
      </trkpt>
      <trkpt lat="43.337025" lon="-6.536654">
        <ele>582.476</ele>
        <time>1999-07-24T09:25:42Z</time>
      </trkpt>
      <trkpt lat="43.336974" lon="-6.536906">
        <ele>582.660</ele>
        <time>1999-07-24T09:25:45Z</time>
      </trkpt>
      <trkpt lat="43.336915" lon="-6.537143">
        <ele>583.229</ele>
        <time>1999-07-24T09:25:48Z</time>
      </trkpt>
      <trkpt lat="43.336835" lon="-6.537448">
        <ele>584.295</ele>
        <time>1999-07-24T09:25:52Z</time>
      </trkpt>
      <trkpt lat="43.336746" lon="-6.537678">
        <ele>585.427</ele>
        <time>1999-07-24T09:25:56Z</time>
      </trkpt>
      <trkpt lat="43.336698" lon="-6.537782">
        <ele>585.614</ele>
        <time>1999-07-24T09:25:58Z</time>
      </trkpt>
      <trkpt lat="43.336629" lon="-6.537951">
        <ele>586.454</ele>
        <time>1999-07-24T09:26:01Z</time>
      </trkpt>
      <trkpt lat="43.336536" lon="-6.538196">
        <ele>587.409</ele>
        <time>1999-07-24T09:26:05Z</time>
      </trkpt>
      <trkpt lat="43.336485" lon="-6.538313">
        <ele>587.608</ele>
        <time>1999-07-24T09:26:07Z</time>
      </trkpt>
      <trkpt lat="43.336389" lon="-6.538542">
        <ele>588.054</ele>
        <time>1999-07-24T09:26:11Z</time>
      </trkpt>
      <trkpt lat="43.336266" lon="-6.538851">
        <ele>588.450</ele>
        <time>1999-07-24T09:26:16Z</time>
      </trkpt>
      <trkpt lat="43.336248" lon="-6.538916">
        <ele>588.691</ele>
        <time>1999-07-24T09:26:17Z</time>
      </trkpt>
      <trkpt lat="43.336183" lon="-6.539173">
        <ele>588.862</ele>
        <time>1999-07-24T09:26:21Z</time>
      </trkpt>
      <trkpt lat="43.336134" lon="-6.539356">
        <ele>588.816</ele>
        <time>1999-07-24T09:26:24Z</time>
      </trkpt>
      <trkpt lat="43.336000" lon="-6.539927">
        <ele>589.085</ele>
        <time>1999-07-24T09:26:33Z</time>
      </trkpt>
      <trkpt lat="43.335948" lon="-6.540185">
        <ele>589.441</ele>
        <time>1999-07-24T09:26:37Z</time>
      </trkpt>
      <trkpt lat="43.335924" lon="-6.540316">
        <ele>589.893</ele>
        <time>1999-07-24T09:26:39Z</time>
      </trkpt>
      <trkpt lat="43.335910" lon="-6.540381">
        <ele>589.874</ele>
        <time>1999-07-24T09:26:40Z</time>
      </trkpt>
      <trkpt lat="43.335892" lon="-6.540443">
        <ele>589.856</ele>
        <time>1999-07-24T09:26:41Z</time>
      </trkpt>
      <trkpt lat="43.335747" lon="-6.540990">
        <ele>590.821</ele>
        <time>1999-07-24T09:26:50Z</time>
      </trkpt>
      <trkpt lat="43.335732" lon="-6.541052">
        <ele>591.008</ele>
        <time>1999-07-24T09:26:51Z</time>
      </trkpt>
      <trkpt lat="43.335631" lon="-6.541423">
        <ele>592.010</ele>
        <time>1999-07-24T09:26:57Z</time>
      </trkpt>
      <trkpt lat="43.335607" lon="-6.541482">
        <ele>592.266</ele>
        <time>1999-07-24T09:26:58Z</time>
      </trkpt>
      <trkpt lat="43.335463" lon="-6.541915">
        <ele>593.287</ele>
        <time>1999-07-24T09:27:05Z</time>
      </trkpt>
      <trkpt lat="43.335438" lon="-6.541979">
        <ele>593.498</ele>
        <time>1999-07-24T09:27:06Z</time>
      </trkpt>
      <trkpt lat="43.335361" lon="-6.542174">
        <ele>593.662</ele>
        <time>1999-07-24T09:27:09Z</time>
      </trkpt>
      <trkpt lat="43.335285" lon="-6.542381">
        <ele>593.891</ele>
        <time>1999-07-24T09:27:12Z</time>
      </trkpt>
      <trkpt lat="43.335242" lon="-6.542537">
        <ele>593.837</ele>
        <time>1999-07-24T09:27:14Z</time>
      </trkpt>
      <trkpt lat="43.335184" lon="-6.542802">
        <ele>593.859</ele>
        <time>1999-07-24T09:27:17Z</time>
      </trkpt>
      <trkpt lat="43.335136" lon="-6.542995">
        <ele>593.835</ele>
        <time>1999-07-24T09:27:19Z</time>
      </trkpt>
      <trkpt lat="43.335098" lon="-6.543201">
        <ele>593.486</ele>
        <time>1999-07-24T09:27:21Z</time>
      </trkpt>
      <trkpt lat="43.335088" lon="-6.543309">
        <ele>593.214</ele>
        <time>1999-07-24T09:27:22Z</time>
      </trkpt>
      <trkpt lat="43.335082" lon="-6.543529">
        <ele>592.608</ele>
        <time>1999-07-24T09:27:24Z</time>
      </trkpt>
      <trkpt lat="43.335085" lon="-6.543637">
        <ele>592.446</ele>
        <time>1999-07-24T09:27:25Z</time>
      </trkpt>
      <trkpt lat="43.335093" lon="-6.543747">
        <ele>592.012</ele>
        <time>1999-07-24T09:27:26Z</time>
      </trkpt>
      <trkpt lat="43.335149" lon="-6.544076">
        <ele>591.283</ele>
        <time>1999-07-24T09:27:29Z</time>
      </trkpt>
      <trkpt lat="43.335156" lon="-6.544186">
        <ele>590.834</ele>
        <time>1999-07-24T09:27:30Z</time>
      </trkpt>
      <trkpt lat="43.335148" lon="-6.544283">
        <ele>590.498</ele>
        <time>1999-07-24T09:27:31Z</time>
      </trkpt>
      <trkpt lat="43.335146" lon="-6.544374">
        <ele>590.287</ele>
        <time>1999-07-24T09:27:32Z</time>
      </trkpt>
      <trkpt lat="43.335139" lon="-6.544561">
        <ele>589.613</ele>
        <time>1999-07-24T09:27:35Z</time>
      </trkpt>
      <trkpt lat="43.335119" lon="-6.544595">
        <ele>589.035</ele>
        <time>1999-07-24T09:27:36Z</time>
      </trkpt>
      <trkpt lat="43.335084" lon="-6.544621">
        <ele>588.257</ele>
        <time>1999-07-24T09:27:38Z</time>
      </trkpt>
      <trkpt lat="43.335071" lon="-6.544631">
        <ele>587.800</ele>
        <time>1999-07-24T09:27:39Z</time>
      </trkpt>
      <trkpt lat="43.335059" lon="-6.544640">
        <ele>587.420</ele>
        <time>1999-07-24T09:27:40Z</time>
      </trkpt>
      <trkpt lat="43.335030" lon="-6.544658">
        <ele>587.208</ele>
        <time>1999-07-24T09:27:42Z</time>
      </trkpt>
      <trkpt lat="43.335005" lon="-6.544675">
        <ele>587.218</ele>
        <time>1999-07-24T09:27:44Z</time>
      </trkpt>
      <trkpt lat="43.334991" lon="-6.544683">
        <ele>587.264</ele>
        <time>1999-07-24T09:27:45Z</time>
      </trkpt>
      <trkpt lat="43.334950" lon="-6.544702">
        <ele>587.245</ele>
        <time>1999-07-24T09:27:47Z</time>
      </trkpt>
      <trkpt lat="43.334911" lon="-6.544739">
        <ele>587.476</ele>
        <time>1999-07-24T09:27:49Z</time>
      </trkpt>
      <trkpt lat="43.334905" lon="-6.544764">
        <ele>587.660</ele>
        <time>1999-07-24T09:27:50Z</time>
      </trkpt>
      <trkpt lat="43.334900" lon="-6.544783">
        <ele>588.099</ele>
        <time>1999-07-24T09:27:51Z</time>
      </trkpt>
      <trkpt lat="43.334847" lon="-6.544853">
        <ele>588.855</ele>
        <time>1999-07-24T09:27:55Z</time>
      </trkpt>
      <trkpt lat="43.334827" lon="-6.544880">
        <ele>589.287</ele>
        <time>1999-07-24T09:27:57Z</time>
      </trkpt>
      <trkpt lat="43.334813" lon="-6.544888">
        <ele>589.447</ele>
        <time>1999-07-24T09:27:58Z</time>
      </trkpt>
      <trkpt lat="43.334773" lon="-6.544905">
        <ele>589.829</ele>
        <time>1999-07-24T09:28:00Z</time>
      </trkpt>
      <trkpt lat="43.334706" lon="-6.544956">
        <ele>590.821</ele>
        <time>1999-07-24T09:28:04Z</time>
      </trkpt>
      <trkpt lat="43.334689" lon="-6.544971">
        <ele>591.008</ele>
        <time>1999-07-24T09:28:05Z</time>
      </trkpt>
      <trkpt lat="43.334632" lon="-6.545039">
        <ele>592.257</ele>
        <time>1999-07-24T09:28:09Z</time>
      </trkpt>
      <trkpt lat="43.334620" lon="-6.545058">
        <ele>592.493</ele>
        <time>1999-07-24T09:28:10Z</time>
      </trkpt>
      <trkpt lat="43.334574" lon="-6.545123">
        <ele>593.224</ele>
        <time>1999-07-24T09:28:13Z</time>
      </trkpt>
      <trkpt lat="43.334529" lon="-6.545193">
        <ele>594.075</ele>
        <time>1999-07-24T09:28:16Z</time>
      </trkpt>
      <trkpt lat="43.334516" lon="-6.545215">
        <ele>594.269</ele>
        <time>1999-07-24T09:28:17Z</time>
      </trkpt>
      <trkpt lat="43.334502" lon="-6.545238">
        <ele>594.468</ele>
        <time>1999-07-24T09:28:18Z</time>
      </trkpt>
      <trkpt lat="43.334467" lon="-6.545325">
        <ele>595.434</ele>
        <time>1999-07-24T09:28:21Z</time>
      </trkpt>
      <trkpt lat="43.334436" lon="-6.545453">
        <ele>596.226</ele>
        <time>1999-07-24T09:28:25Z</time>
      </trkpt>
      <trkpt lat="43.334428" lon="-6.545517">
        <ele>596.426</ele>
        <time>1999-07-24T09:28:27Z</time>
      </trkpt>
      <trkpt lat="43.334412" lon="-6.545711">
        <ele>597.847</ele>
        <time>1999-07-24T09:28:33Z</time>
      </trkpt>
      <trkpt lat="43.334411" lon="-6.545747">
        <ele>598.011</ele>
        <time>1999-07-24T09:28:34Z</time>
      </trkpt>
      <trkpt lat="43.334407" lon="-6.545928">
        <ele>598.808</ele>
        <time>1999-07-24T09:28:39Z</time>
      </trkpt>
      <trkpt lat="43.334404" lon="-6.546046">
        <ele>599.475</ele>
        <time>1999-07-24T09:28:42Z</time>
      </trkpt>
      <trkpt lat="43.334386" lon="-6.546221">
        <ele>600.031</ele>
        <time>1999-07-24T09:28:47Z</time>
      </trkpt>
      <trkpt lat="43.334381" lon="-6.546258">
        <ele>600.062</ele>
        <time>1999-07-24T09:28:48Z</time>
      </trkpt>
      <trkpt lat="43.334380" lon="-6.546521">
        <ele>601.083</ele>
        <time>1999-07-24T09:28:54Z</time>
      </trkpt>
      <trkpt lat="43.334375" lon="-6.546567">
        <ele>601.037</ele>
        <time>1999-07-24T09:28:55Z</time>
      </trkpt>
      <trkpt lat="43.334366" lon="-6.546623">
        <ele>601.476</ele>
        <time>1999-07-24T09:28:56Z</time>
      </trkpt>
      <trkpt lat="43.334336" lon="-6.546755">
        <ele>601.412</ele>
        <time>1999-07-24T09:28:58Z</time>
      </trkpt>
      <trkpt lat="43.334320" lon="-6.546891">
        <ele>601.424</ele>
        <time>1999-07-24T09:29:00Z</time>
      </trkpt>
      <trkpt lat="43.334315" lon="-6.546955">
        <ele>601.472</ele>
        <time>1999-07-24T09:29:01Z</time>
      </trkpt>
      <trkpt lat="43.334314" lon="-6.547013">
        <ele>601.413</ele>
        <time>1999-07-24T09:29:02Z</time>
      </trkpt>
      <trkpt lat="43.334314" lon="-6.547065">
        <ele>601.414</ele>
        <time>1999-07-24T09:29:03Z</time>
      </trkpt>
      <trkpt lat="43.334396" lon="-6.547253">
        <ele>601.008</ele>
        <time>1999-07-24T09:29:07Z</time>
      </trkpt>
      <trkpt lat="43.334504" lon="-6.547442">
        <ele>600.850</ele>
        <time>1999-07-24T09:29:11Z</time>
      </trkpt>
      <trkpt lat="43.334565" lon="-6.547530">
        <ele>600.866</ele>
        <time>1999-07-24T09:29:13Z</time>
      </trkpt>
      <trkpt lat="43.334592" lon="-6.547577">
        <ele>600.827</ele>
        <time>1999-07-24T09:29:14Z</time>
      </trkpt>
      <trkpt lat="43.334667" lon="-6.547714">
        <ele>600.838</ele>
        <time>1999-07-24T09:29:17Z</time>
      </trkpt>
      <trkpt lat="43.334703" lon="-6.547809">
        <ele>600.882</ele>
        <time>1999-07-24T09:29:19Z</time>
      </trkpt>
      <trkpt lat="43.334747" lon="-6.547962">
        <ele>601.051</ele>
        <time>1999-07-24T09:29:22Z</time>
      </trkpt>
      <trkpt lat="43.334786" lon="-6.548055">
        <ele>601.287</ele>
        <time>1999-07-24T09:29:24Z</time>
      </trkpt>
      <trkpt lat="43.334892" lon="-6.548322">
        <ele>601.439</ele>
        <time>1999-07-24T09:29:30Z</time>
      </trkpt>
      <trkpt lat="43.334900" lon="-6.548381">
        <ele>601.486</ele>
        <time>1999-07-24T09:29:31Z</time>
      </trkpt>
      <trkpt lat="43.334920" lon="-6.548614">
        <ele>601.460</ele>
        <time>1999-07-24T09:29:35Z</time>
      </trkpt>
      <trkpt lat="43.334930" lon="-6.548677">
        <ele>601.426</ele>
        <time>1999-07-24T09:29:36Z</time>
      </trkpt>
      <trkpt lat="43.334983" lon="-6.548922">
        <ele>601.208</ele>
        <time>1999-07-24T09:29:40Z</time>
      </trkpt>
      <trkpt lat="43.335036" lon="-6.549037">
        <ele>601.211</ele>
        <time>1999-07-24T09:29:42Z</time>
      </trkpt>
      <trkpt lat="43.335140" lon="-6.549259">
        <ele>601.247</ele>
        <time>1999-07-24T09:29:46Z</time>
      </trkpt>
      <trkpt lat="43.335177" lon="-6.549373">
        <ele>601.238</ele>
        <time>1999-07-24T09:29:48Z</time>
      </trkpt>
      <trkpt lat="43.335222" lon="-6.549616">
        <ele>601.049</ele>
        <time>1999-07-24T09:29:53Z</time>
      </trkpt>
      <trkpt lat="43.335272" lon="-6.549709">
        <ele>601.043</ele>
        <time>1999-07-24T09:29:57Z</time>
      </trkpt>
      <trkpt lat="43.335274" lon="-6.549719">
        <ele>601.082</ele>
        <time>1999-07-24T09:29:58Z</time>
      </trkpt>
      <trkpt lat="43.335295" lon="-6.549735">
        <ele>601.298</ele>
        <time>1999-07-24T09:30:00Z</time>
      </trkpt>
      <trkpt lat="43.335299" lon="-6.549751">
        <ele>601.450</ele>
        <time>1999-07-24T09:30:02Z</time>
      </trkpt>
      <trkpt lat="43.335306" lon="-6.549785">
        <ele>601.812</ele>
        <time>1999-07-24T09:30:04Z</time>
      </trkpt>
      <trkpt lat="43.335244" lon="-6.549864">
        <ele>602.632</ele>
        <time>1999-07-24T09:30:09Z</time>
      </trkpt>
      <trkpt lat="43.335140" lon="-6.549988">
        <ele>602.605</ele>
        <time>1999-07-24T09:30:13Z</time>
      </trkpt>
      <trkpt lat="43.335110" lon="-6.550022">
        <ele>602.608</ele>
        <time>1999-07-24T09:30:14Z</time>
      </trkpt>
      <trkpt lat="43.335015" lon="-6.550146">
        <ele>602.834</ele>
        <time>1999-07-24T09:30:17Z</time>
      </trkpt>
      <trkpt lat="43.334966" lon="-6.550218">
        <ele>602.870</ele>
        <time>1999-07-24T09:30:19Z</time>
      </trkpt>
      <trkpt lat="43.334835" lon="-6.550440">
        <ele>602.091</ele>
        <time>1999-07-24T09:30:25Z</time>
      </trkpt>
      <trkpt lat="43.334741" lon="-6.550775">
        <ele>601.812</ele>
        <time>1999-07-24T09:30:32Z</time>
      </trkpt>
      <trkpt lat="43.334643" lon="-6.551019">
        <ele>601.856</ele>
        <time>1999-07-24T09:30:37Z</time>
      </trkpt>
      <trkpt lat="43.334617" lon="-6.551110">
        <ele>601.635</ele>
        <time>1999-07-24T09:30:39Z</time>
      </trkpt>
      <trkpt lat="43.334615" lon="-6.551251">
        <ele>601.491</ele>
        <time>1999-07-24T09:30:43Z</time>
      </trkpt>
      <trkpt lat="43.334618" lon="-6.551282">
        <ele>601.453</ele>
        <time>1999-07-24T09:30:44Z</time>
      </trkpt>
      <trkpt lat="43.334623" lon="-6.551418">
        <ele>601.415</ele>
        <time>1999-07-24T09:30:48Z</time>
      </trkpt>
      <trkpt lat="43.334624" lon="-6.551498">
        <ele>601.665</ele>
        <time>1999-07-24T09:30:50Z</time>
      </trkpt>
      <trkpt lat="43.334633" lon="-6.551758">
        <ele>602.011</ele>
        <time>1999-07-24T09:30:56Z</time>
      </trkpt>
      <trkpt lat="43.334634" lon="-6.552125">
        <ele>602.408</ele>
        <time>1999-07-24T09:31:03Z</time>
      </trkpt>
      <trkpt lat="43.334636" lon="-6.552174">
        <ele>602.474</ele>
        <time>1999-07-24T09:31:04Z</time>
      </trkpt>
      <trkpt lat="43.334668" lon="-6.552351">
        <ele>603.040</ele>
        <time>1999-07-24T09:31:08Z</time>
      </trkpt>
      <trkpt lat="43.334684" lon="-6.552389">
        <ele>603.041</ele>
        <time>1999-07-24T09:31:09Z</time>
      </trkpt>
      <trkpt lat="43.334763" lon="-6.552585">
        <ele>603.692</ele>
        <time>1999-07-24T09:31:14Z</time>
      </trkpt>
      <trkpt lat="43.334793" lon="-6.552696">
        <ele>604.446</ele>
        <time>1999-07-24T09:31:17Z</time>
      </trkpt>
      <trkpt lat="43.334804" lon="-6.552733">
        <ele>604.645</ele>
        <time>1999-07-24T09:31:18Z</time>
      </trkpt>
      <trkpt lat="43.334856" lon="-6.552965">
        <ele>605.231</ele>
        <time>1999-07-24T09:31:24Z</time>
      </trkpt>
      <trkpt lat="43.334894" lon="-6.553143">
        <ele>605.483</ele>
        <time>1999-07-24T09:31:28Z</time>
      </trkpt>
      <trkpt lat="43.334918" lon="-6.553278">
        <ele>605.615</ele>
        <time>1999-07-24T09:31:31Z</time>
      </trkpt>
      <trkpt lat="43.334936" lon="-6.553364">
        <ele>605.865</ele>
        <time>1999-07-24T09:31:33Z</time>
      </trkpt>
      <trkpt lat="43.335049" lon="-6.553670">
        <ele>606.411</ele>
        <time>1999-07-24T09:31:41Z</time>
      </trkpt>
      <trkpt lat="43.335093" lon="-6.553769">
        <ele>606.808</ele>
        <time>1999-07-24T09:31:44Z</time>
      </trkpt>
      <trkpt lat="43.335173" lon="-6.553931">
        <ele>607.424</ele>
        <time>1999-07-24T09:31:49Z</time>
      </trkpt>
      <trkpt lat="43.335219" lon="-6.554045">
        <ele>607.840</ele>
        <time>1999-07-24T09:31:52Z</time>
      </trkpt>
      <trkpt lat="43.335265" lon="-6.554188">
        <ele>608.661</ele>
        <time>1999-07-24T09:31:55Z</time>
      </trkpt>
      <trkpt lat="43.335296" lon="-6.554293">
        <ele>608.892</ele>
        <time>1999-07-24T09:31:57Z</time>
      </trkpt>
      <trkpt lat="43.335345" lon="-6.554467">
        <ele>608.896</ele>
        <time>1999-07-24T09:32:00Z</time>
      </trkpt>
      <trkpt lat="43.335361" lon="-6.554527">
        <ele>608.885</ele>
        <time>1999-07-24T09:32:01Z</time>
      </trkpt>
      <trkpt lat="43.335439" lon="-6.554762">
        <ele>608.451</ele>
        <time>1999-07-24T09:32:05Z</time>
      </trkpt>
      <trkpt lat="43.335509" lon="-6.554869">
        <ele>608.213</ele>
        <time>1999-07-24T09:32:07Z</time>
      </trkpt>
      <trkpt lat="43.335592" lon="-6.554957">
        <ele>607.834</ele>
        <time>1999-07-24T09:32:09Z</time>
      </trkpt>
      <trkpt lat="43.335706" lon="-6.555070">
        <ele>607.455</ele>
        <time>1999-07-24T09:32:12Z</time>
      </trkpt>
      <trkpt lat="43.335746" lon="-6.555098">
        <ele>607.410</ele>
        <time>1999-07-24T09:32:13Z</time>
      </trkpt>
      <trkpt lat="43.335893" lon="-6.555260">
        <ele>607.008</ele>
        <time>1999-07-24T09:32:17Z</time>
      </trkpt>
      <trkpt lat="43.335958" lon="-6.555457">
        <ele>607.056</ele>
        <time>1999-07-24T09:32:20Z</time>
      </trkpt>
      <trkpt lat="43.335969" lon="-6.555531">
        <ele>607.052</ele>
        <time>1999-07-24T09:32:21Z</time>
      </trkpt>
      <trkpt lat="43.335957" lon="-6.555662">
        <ele>607.023</ele>
        <time>1999-07-24T09:32:23Z</time>
      </trkpt>
      <trkpt lat="43.335819" lon="-6.555811">
        <ele>607.084</ele>
        <time>1999-07-24T09:32:27Z</time>
      </trkpt>
      <trkpt lat="43.335707" lon="-6.555853">
        <ele>607.088</ele>
        <time>1999-07-24T09:32:30Z</time>
      </trkpt>
      <trkpt lat="43.335636" lon="-6.555856">
        <ele>607.037</ele>
        <time>1999-07-24T09:32:32Z</time>
      </trkpt>
      <trkpt lat="43.335378" lon="-6.555873">
        <ele>607.843</ele>
        <time>1999-07-24T09:32:39Z</time>
      </trkpt>
      <trkpt lat="43.335345" lon="-6.555890">
        <ele>608.245</ele>
        <time>1999-07-24T09:32:40Z</time>
      </trkpt>
      <trkpt lat="43.335272" lon="-6.555951">
        <ele>608.633</ele>
        <time>1999-07-24T09:32:43Z</time>
      </trkpt>
      <trkpt lat="43.335255" lon="-6.555968">
        <ele>608.823</ele>
        <time>1999-07-24T09:32:44Z</time>
      </trkpt>
      <trkpt lat="43.335225" lon="-6.556027">
        <ele>609.215</ele>
        <time>1999-07-24T09:32:47Z</time>
      </trkpt>
      <trkpt lat="43.335218" lon="-6.556046">
        <ele>609.208</ele>
        <time>1999-07-24T09:32:48Z</time>
      </trkpt>
      <trkpt lat="43.335197" lon="-6.556100">
        <ele>610.286</ele>
        <time>1999-07-24T09:32:51Z</time>
      </trkpt>
      <trkpt lat="43.335189" lon="-6.556122">
        <ele>610.442</ele>
        <time>1999-07-24T09:32:52Z</time>
      </trkpt>
      <trkpt lat="43.335169" lon="-6.556210">
        <ele>611.613</ele>
        <time>1999-07-24T09:32:57Z</time>
      </trkpt>
      <trkpt lat="43.335172" lon="-6.556229">
        <ele>611.814</ele>
        <time>1999-07-24T09:32:58Z</time>
      </trkpt>
      <trkpt lat="43.335170" lon="-6.556320">
        <ele>612.888</ele>
        <time>1999-07-24T09:33:02Z</time>
      </trkpt>
      <trkpt lat="43.335167" lon="-6.556383">
        <ele>613.437</ele>
        <time>1999-07-24T09:33:05Z</time>
      </trkpt>
      <trkpt lat="43.335177" lon="-6.556427">
        <ele>613.833</ele>
        <time>1999-07-24T09:33:07Z</time>
      </trkpt>
      <trkpt lat="43.335181" lon="-6.556492">
        <ele>614.885</ele>
        <time>1999-07-24T09:33:10Z</time>
      </trkpt>
      <trkpt lat="43.335173" lon="-6.556537">
        <ele>615.461</ele>
        <time>1999-07-24T09:33:12Z</time>
      </trkpt>
      <trkpt lat="43.335163" lon="-6.556585">
        <ele>616.021</ele>
        <time>1999-07-24T09:33:14Z</time>
      </trkpt>
      <trkpt lat="43.335130" lon="-6.556683">
        <ele>617.213</ele>
        <time>1999-07-24T09:33:18Z</time>
      </trkpt>
      <trkpt lat="43.335131" lon="-6.556707">
        <ele>617.408</ele>
        <time>1999-07-24T09:33:19Z</time>
      </trkpt>
      <trkpt lat="43.335162" lon="-6.556792">
        <ele>618.239</ele>
        <time>1999-07-24T09:33:23Z</time>
      </trkpt>
      <trkpt lat="43.335162" lon="-6.556811">
        <ele>618.675</ele>
        <time>1999-07-24T09:33:24Z</time>
      </trkpt>
      <trkpt lat="43.335162" lon="-6.556889">
        <ele>619.456</ele>
        <time>1999-07-24T09:33:28Z</time>
      </trkpt>
      <trkpt lat="43.335166" lon="-6.556928">
        <ele>620.067</ele>
        <time>1999-07-24T09:33:30Z</time>
      </trkpt>
      <trkpt lat="43.335162" lon="-6.556970">
        <ele>620.841</ele>
        <time>1999-07-24T09:33:32Z</time>
      </trkpt>
      <trkpt lat="43.335169" lon="-6.557042">
        <ele>622.290</ele>
        <time>1999-07-24T09:33:36Z</time>
      </trkpt>
      <trkpt lat="43.335192" lon="-6.557070">
        <ele>622.656</ele>
        <time>1999-07-24T09:33:38Z</time>
      </trkpt>
      <trkpt lat="43.335197" lon="-6.557089">
        <ele>622.868</ele>
        <time>1999-07-24T09:33:39Z</time>
      </trkpt>
      <trkpt lat="43.335201" lon="-6.557129">
        <ele>623.456</ele>
        <time>1999-07-24T09:33:41Z</time>
      </trkpt>
      <trkpt lat="43.335212" lon="-6.557168">
        <ele>623.859</ele>
        <time>1999-07-24T09:33:43Z</time>
      </trkpt>
      <trkpt lat="43.335202" lon="-6.557234">
        <ele>624.414</ele>
        <time>1999-07-24T09:33:46Z</time>
      </trkpt>
      <trkpt lat="43.335183" lon="-6.557280">
        <ele>624.808</ele>
        <time>1999-07-24T09:33:48Z</time>
      </trkpt>
      <trkpt lat="43.335176" lon="-6.557362">
        <ele>625.648</ele>
        <time>1999-07-24T09:33:51Z</time>
      </trkpt>
      <trkpt lat="43.335171" lon="-6.557468">
        <ele>626.214</ele>
        <time>1999-07-24T09:33:55Z</time>
      </trkpt>
      <trkpt lat="43.335166" lon="-6.557553">
        <ele>626.635</ele>
        <time>1999-07-24T09:33:58Z</time>
      </trkpt>
      <trkpt lat="43.335162" lon="-6.557640">
        <ele>627.276</ele>
        <time>1999-07-24T09:34:01Z</time>
      </trkpt>
      <trkpt lat="43.335156" lon="-6.557664">
        <ele>627.410</ele>
        <time>1999-07-24T09:34:02Z</time>
      </trkpt>
      <trkpt lat="43.335164" lon="-6.557713">
        <ele>628.019</ele>
        <time>1999-07-24T09:34:04Z</time>
      </trkpt>
      <trkpt lat="43.335154" lon="-6.557766">
        <ele>628.495</ele>
        <time>1999-07-24T09:34:06Z</time>
      </trkpt>
      <trkpt lat="43.335135" lon="-6.557810">
        <ele>628.667</ele>
        <time>1999-07-24T09:34:08Z</time>
      </trkpt>
      <trkpt lat="43.335123" lon="-6.557856">
        <ele>629.061</ele>
        <time>1999-07-24T09:34:10Z</time>
      </trkpt>
      <trkpt lat="43.335130" lon="-6.557911">
        <ele>629.421</ele>
        <time>1999-07-24T09:34:12Z</time>
      </trkpt>
      <trkpt lat="43.335133" lon="-6.558032">
        <ele>630.013</ele>
        <time>1999-07-24T09:34:16Z</time>
      </trkpt>
      <trkpt lat="43.335112" lon="-6.558153">
        <ele>630.608</ele>
        <time>1999-07-24T09:34:20Z</time>
      </trkpt>
      <trkpt lat="43.335080" lon="-6.558268">
        <ele>631.089</ele>
        <time>1999-07-24T09:34:24Z</time>
      </trkpt>
      <trkpt lat="43.335072" lon="-6.558352">
        <ele>631.415</ele>
        <time>1999-07-24T09:34:27Z</time>
      </trkpt>
      <trkpt lat="43.335052" lon="-6.558484">
        <ele>632.266</ele>
        <time>1999-07-24T09:34:32Z</time>
      </trkpt>
      <trkpt lat="43.335040" lon="-6.558542">
        <ele>632.427</ele>
        <time>1999-07-24T09:34:34Z</time>
      </trkpt>
      <trkpt lat="43.335026" lon="-6.558680">
        <ele>633.461</ele>
        <time>1999-07-24T09:34:39Z</time>
      </trkpt>
      <trkpt lat="43.335038" lon="-6.558749">
        <ele>634.020</ele>
        <time>1999-07-24T09:34:42Z</time>
      </trkpt>
      <trkpt lat="43.335085" lon="-6.558787">
        <ele>634.496</ele>
        <time>1999-07-24T09:34:45Z</time>
      </trkpt>
      <trkpt lat="43.335105" lon="-6.558781">
        <ele>634.618</ele>
        <time>1999-07-24T09:34:46Z</time>
      </trkpt>
      <trkpt lat="43.335187" lon="-6.558745">
        <ele>635.434</ele>
        <time>1999-07-24T09:34:51Z</time>
      </trkpt>
      <trkpt lat="43.335205" lon="-6.558740">
        <ele>635.655</ele>
        <time>1999-07-24T09:34:52Z</time>
      </trkpt>
      <trkpt lat="43.335265" lon="-6.558702">
        <ele>636.810</ele>
        <time>1999-07-24T09:34:56Z</time>
      </trkpt>
      <trkpt lat="43.335312" lon="-6.558673">
        <ele>638.008</ele>
        <time>1999-07-24T09:34:59Z</time>
      </trkpt>
      <trkpt lat="43.335347" lon="-6.558623">
        <ele>639.076</ele>
        <time>1999-07-24T09:35:02Z</time>
      </trkpt>
      <trkpt lat="43.335364" lon="-6.558619">
        <ele>639.242</ele>
        <time>1999-07-24T09:35:03Z</time>
      </trkpt>
      <trkpt lat="43.335415" lon="-6.558560">
        <ele>640.023</ele>
        <time>1999-07-24T09:35:07Z</time>
      </trkpt>
      <trkpt lat="43.335427" lon="-6.558537">
        <ele>640.214</ele>
        <time>1999-07-24T09:35:08Z</time>
      </trkpt>
      <trkpt lat="43.335440" lon="-6.558518">
        <ele>640.488</ele>
        <time>1999-07-24T09:35:09Z</time>
      </trkpt>
      <trkpt lat="43.335468" lon="-6.558501">
        <ele>640.827</ele>
        <time>1999-07-24T09:35:11Z</time>
      </trkpt>
      <trkpt lat="43.335492" lon="-6.558532">
        <ele>641.083</ele>
        <time>1999-07-24T09:35:13Z</time>
      </trkpt>
      <trkpt lat="43.335490" lon="-6.558602">
        <ele>641.615</ele>
        <time>1999-07-24T09:35:16Z</time>
      </trkpt>
      <trkpt lat="43.335483" lon="-6.558624">
        <ele>641.852</ele>
        <time>1999-07-24T09:35:17Z</time>
      </trkpt>
      <trkpt lat="43.335464" lon="-6.558678">
        <ele>642.453</ele>
        <time>1999-07-24T09:35:20Z</time>
      </trkpt>
      <trkpt lat="43.335450" lon="-6.558696">
        <ele>642.608</ele>
        <time>1999-07-24T09:35:22Z</time>
      </trkpt>
      <trkpt lat="43.335441" lon="-6.558686">
        <ele>642.808</ele>
        <time>1999-07-24T09:35:23Z</time>
      </trkpt>
      <trkpt lat="43.335447" lon="-6.558606">
        <ele>643.258</ele>
        <time>1999-07-24T09:35:26Z</time>
      </trkpt>
      <trkpt lat="43.335455" lon="-6.558572">
        <ele>643.214</ele>
        <time>1999-07-24T09:35:27Z</time>
      </trkpt>
      <trkpt lat="43.335490" lon="-6.558467">
        <ele>643.285</ele>
        <time>1999-07-24T09:35:30Z</time>
      </trkpt>
      <trkpt lat="43.335524" lon="-6.558404">
        <ele>643.416</ele>
        <time>1999-07-24T09:35:32Z</time>
      </trkpt>
      <trkpt lat="43.335543" lon="-6.558373">
        <ele>643.490</ele>
        <time>1999-07-24T09:35:33Z</time>
      </trkpt>
      <trkpt lat="43.335640" lon="-6.558302">
        <ele>643.439</ele>
        <time>1999-07-24T09:35:37Z</time>
      </trkpt>
      <trkpt lat="43.335694" lon="-6.558274">
        <ele>643.485</ele>
        <time>1999-07-24T09:35:40Z</time>
      </trkpt>
      <trkpt lat="43.335728" lon="-6.558259">
        <ele>643.477</ele>
        <time>1999-07-24T09:35:42Z</time>
      </trkpt>
      <trkpt lat="43.335771" lon="-6.558259">
        <ele>643.474</ele>
        <time>1999-07-24T09:35:45Z</time>
      </trkpt>
      <trkpt lat="43.335771" lon="-6.558255">
        <ele>643.656</ele>
        <time>1999-07-24T09:35:47Z</time>
      </trkpt>
      <trkpt lat="43.335879" lon="-6.558286">
        <ele>646.421</ele>
        <time>1999-07-24T09:36:39Z</time>
      </trkpt>
      <trkpt lat="43.335895" lon="-6.558299">
        <ele>646.408</ele>
        <time>1999-07-24T09:36:40Z</time>
      </trkpt>
      <trkpt lat="43.335935" lon="-6.558325">
        <ele>647.080</ele>
        <time>1999-07-24T09:36:43Z</time>
      </trkpt>
      <trkpt lat="43.335966" lon="-6.558365">
        <ele>647.666</ele>
        <time>1999-07-24T09:36:46Z</time>
      </trkpt>
      <trkpt lat="43.335975" lon="-6.558381">
        <ele>647.847</ele>
        <time>1999-07-24T09:36:47Z</time>
      </trkpt>
      <trkpt lat="43.335992" lon="-6.558443">
        <ele>648.628</ele>
        <time>1999-07-24T09:36:50Z</time>
      </trkpt>
      <trkpt lat="43.336012" lon="-6.558506">
        <ele>649.452</ele>
        <time>1999-07-24T09:36:53Z</time>
      </trkpt>
      <trkpt lat="43.336015" lon="-6.558547">
        <ele>649.841</ele>
        <time>1999-07-24T09:36:55Z</time>
      </trkpt>
      <trkpt lat="43.336017" lon="-6.558634">
        <ele>650.837</ele>
        <time>1999-07-24T09:36:59Z</time>
      </trkpt>
      <trkpt lat="43.336035" lon="-6.558716">
        <ele>651.699</ele>
        <time>1999-07-24T09:37:03Z</time>
      </trkpt>
      <trkpt lat="43.336035" lon="-6.558758">
        <ele>652.047</ele>
        <time>1999-07-24T09:37:05Z</time>
      </trkpt>
      <trkpt lat="43.336038" lon="-6.558820">
        <ele>652.629</ele>
        <time>1999-07-24T09:37:08Z</time>
      </trkpt>
      <trkpt lat="43.336047" lon="-6.558858">
        <ele>652.821</ele>
        <time>1999-07-24T09:37:10Z</time>
      </trkpt>
      <trkpt lat="43.336045" lon="-6.558879">
        <ele>653.008</ele>
        <time>1999-07-24T09:37:11Z</time>
      </trkpt>
      <trkpt lat="43.336038" lon="-6.558937">
        <ele>653.857</ele>
        <time>1999-07-24T09:37:14Z</time>
      </trkpt>
      <trkpt lat="43.336039" lon="-6.558957">
        <ele>654.083</ele>
        <time>1999-07-24T09:37:15Z</time>
      </trkpt>
      <trkpt lat="43.336043" lon="-6.558980">
        <ele>654.424</ele>
        <time>1999-07-24T09:37:16Z</time>
      </trkpt>
      <trkpt lat="43.336054" lon="-6.559050">
        <ele>655.225</ele>
        <time>1999-07-24T09:37:19Z</time>
      </trkpt>
      <trkpt lat="43.336048" lon="-6.559074">
        <ele>655.699</ele>
        <time>1999-07-24T09:37:20Z</time>
      </trkpt>
      <trkpt lat="43.336028" lon="-6.559161">
        <ele>656.448</ele>
        <time>1999-07-24T09:37:24Z</time>
      </trkpt>
      <trkpt lat="43.336036" lon="-6.559223">
        <ele>656.814</ele>
        <time>1999-07-24T09:37:27Z</time>
      </trkpt>
      <trkpt lat="43.336042" lon="-6.559268">
        <ele>657.236</ele>
        <time>1999-07-24T09:37:30Z</time>
      </trkpt>
      <trkpt lat="43.336043" lon="-6.559285">
        <ele>657.455</ele>
        <time>1999-07-24T09:37:31Z</time>
      </trkpt>
      <trkpt lat="43.336039" lon="-6.559329">
        <ele>657.807</ele>
        <time>1999-07-24T09:37:34Z</time>
      </trkpt>
      <trkpt lat="43.335990" lon="-6.559408">
        <ele>658.217</ele>
        <time>1999-07-24T09:37:40Z</time>
      </trkpt>
      <trkpt lat="43.335984" lon="-6.559429">
        <ele>658.608</ele>
        <time>1999-07-24T09:37:42Z</time>
      </trkpt>
      <trkpt lat="43.335967" lon="-6.559494">
        <ele>659.658</ele>
        <time>1999-07-24T09:37:47Z</time>
      </trkpt>
      <trkpt lat="43.335959" lon="-6.559509">
        <ele>659.824</ele>
        <time>1999-07-24T09:37:48Z</time>
      </trkpt>
      <trkpt lat="43.335909" lon="-6.559589">
        <ele>660.635</ele>
        <time>1999-07-24T09:37:53Z</time>
      </trkpt>
      <trkpt lat="43.335893" lon="-6.559626">
        <ele>661.266</ele>
        <time>1999-07-24T09:37:55Z</time>
      </trkpt>
      <trkpt lat="43.335879" lon="-6.559666">
        <ele>661.660</ele>
        <time>1999-07-24T09:37:57Z</time>
      </trkpt>
      <trkpt lat="43.335870" lon="-6.559684">
        <ele>662.049</ele>
        <time>1999-07-24T09:37:58Z</time>
      </trkpt>
      <trkpt lat="43.335821" lon="-6.559757">
        <ele>662.855</ele>
        <time>1999-07-24T09:38:02Z</time>
      </trkpt>
      <trkpt lat="43.335805" lon="-6.559778">
        <ele>663.047</ele>
        <time>1999-07-24T09:38:03Z</time>
      </trkpt>
      <trkpt lat="43.335787" lon="-6.559800">
        <ele>663.218</ele>
        <time>1999-07-24T09:38:04Z</time>
      </trkpt>
      <trkpt lat="43.335741" lon="-6.559861">
        <ele>664.098</ele>
        <time>1999-07-24T09:38:07Z</time>
      </trkpt>
      <trkpt lat="43.335706" lon="-6.559929">
        <ele>664.817</ele>
        <time>1999-07-24T09:38:10Z</time>
      </trkpt>
      <trkpt lat="43.335672" lon="-6.559994">
        <ele>665.208</ele>
        <time>1999-07-24T09:38:13Z</time>
      </trkpt>
      <trkpt lat="43.335646" lon="-6.560040">
        <ele>666.214</ele>
        <time>1999-07-24T09:38:17Z</time>
      </trkpt>
      <trkpt lat="43.335534" lon="-6.560238">
        <ele>668.620</ele>
        <time>1999-07-24T09:38:46Z</time>
      </trkpt>
      <trkpt lat="43.335525" lon="-6.560249">
        <ele>668.891</ele>
        <time>1999-07-24T09:38:47Z</time>
      </trkpt>
      <trkpt lat="43.335515" lon="-6.560279">
        <ele>669.082</ele>
        <time>1999-07-24T09:38:49Z</time>
      </trkpt>
      <trkpt lat="43.335490" lon="-6.560353">
        <ele>669.826</ele>
        <time>1999-07-24T09:38:54Z</time>
      </trkpt>
      <trkpt lat="43.335480" lon="-6.560400">
        <ele>670.215</ele>
        <time>1999-07-24T09:38:57Z</time>
      </trkpt>
      <trkpt lat="43.335471" lon="-6.560465">
        <ele>671.011</ele>
        <time>1999-07-24T09:39:01Z</time>
      </trkpt>
      <trkpt lat="43.335469" lon="-6.560505">
        <ele>671.483</ele>
        <time>1999-07-24T09:39:04Z</time>
      </trkpt>
      <trkpt lat="43.335458" lon="-6.560546">
        <ele>672.069</ele>
        <time>1999-07-24T09:39:07Z</time>
      </trkpt>
      <trkpt lat="43.335459" lon="-6.560590">
        <ele>672.604</ele>
        <time>1999-07-24T09:39:10Z</time>
      </trkpt>
      <trkpt lat="43.335461" lon="-6.560667">
        <ele>673.224</ele>
        <time>1999-07-24T09:39:16Z</time>
      </trkpt>
      <trkpt lat="43.335461" lon="-6.560692">
        <ele>673.608</ele>
        <time>1999-07-24T09:39:18Z</time>
      </trkpt>
      <trkpt lat="43.335466" lon="-6.560717">
        <ele>673.829</ele>
        <time>1999-07-24T09:39:21Z</time>
      </trkpt>
      <trkpt lat="43.334938" lon="-6.562433">
        <ele>697.245</ele>
        <time>1999-07-24T09:43:16Z</time>
      </trkpt>
      <trkpt lat="43.334925" lon="-6.562454">
        <ele>697.296</ele>
        <time>1999-07-24T09:43:17Z</time>
      </trkpt>
      <trkpt lat="43.334897" lon="-6.562506">
        <ele>697.437</ele>
        <time>1999-07-24T09:43:19Z</time>
      </trkpt>
      <trkpt lat="43.334850" lon="-6.562581">
        <ele>697.481</ele>
        <time>1999-07-24T09:43:22Z</time>
      </trkpt>
      <trkpt lat="43.334812" lon="-6.562638">
        <ele>697.630</ele>
        <time>1999-07-24T09:43:24Z</time>
      </trkpt>
      <trkpt lat="43.334744" lon="-6.562765">
        <ele>698.286</ele>
        <time>1999-07-24T09:43:28Z</time>
      </trkpt>
      <trkpt lat="43.334730" lon="-6.562838">
        <ele>698.888</ele>
        <time>1999-07-24T09:43:31Z</time>
      </trkpt>
      <trkpt lat="43.334737" lon="-6.562912">
        <ele>699.294</ele>
        <time>1999-07-24T09:43:36Z</time>
      </trkpt>
      <trkpt lat="43.334737" lon="-6.562924">
        <ele>699.457</ele>
        <time>1999-07-24T09:43:37Z</time>
      </trkpt>
      <trkpt lat="43.334734" lon="-6.562936">
        <ele>699.622</ele>
        <time>1999-07-24T09:43:38Z</time>
      </trkpt>
      <trkpt lat="43.334725" lon="-6.562976">
        <ele>700.008</ele>
        <time>1999-07-24T09:43:41Z</time>
      </trkpt>
      <trkpt lat="43.334725" lon="-6.562990">
        <ele>700.292</ele>
        <time>1999-07-24T09:43:42Z</time>
      </trkpt>
      <trkpt lat="43.334722" lon="-6.563027">
        <ele>700.898</ele>
        <time>1999-07-24T09:43:44Z</time>
      </trkpt>
      <trkpt lat="43.334717" lon="-6.563044">
        <ele>701.079</ele>
        <time>1999-07-24T09:43:45Z</time>
      </trkpt>
      <trkpt lat="43.334712" lon="-6.563061">
        <ele>701.210</ele>
        <time>1999-07-24T09:43:46Z</time>
      </trkpt>
      <trkpt lat="43.334695" lon="-6.563092">
        <ele>701.844</ele>
        <time>1999-07-24T09:43:48Z</time>
      </trkpt>
      <trkpt lat="43.334667" lon="-6.563122">
        <ele>702.473</ele>
        <time>1999-07-24T09:43:50Z</time>
      </trkpt>
      <trkpt lat="43.334632" lon="-6.563148">
        <ele>703.019</ele>
        <time>1999-07-24T09:43:52Z</time>
      </trkpt>
      <trkpt lat="43.334586" lon="-6.563185">
        <ele>703.811</ele>
        <time>1999-07-24T09:43:54Z</time>
      </trkpt>
      <trkpt lat="43.334517" lon="-6.563238">
        <ele>704.827</ele>
        <time>1999-07-24T09:43:57Z</time>
      </trkpt>
      <trkpt lat="43.334464" lon="-6.563284">
        <ele>705.268</ele>
        <time>1999-07-24T09:43:59Z</time>
      </trkpt>
      <trkpt lat="43.334332" lon="-6.563392">
        <ele>705.414</ele>
        <time>1999-07-24T09:44:04Z</time>
      </trkpt>
      <trkpt lat="43.334196" lon="-6.563491">
        <ele>705.808</ele>
        <time>1999-07-24T09:44:08Z</time>
      </trkpt>
      <trkpt lat="43.334097" lon="-6.563568">
        <ele>706.085</ele>
        <time>1999-07-24T09:44:11Z</time>
      </trkpt>
      <trkpt lat="43.333926" lon="-6.563712">
        <ele>706.431</ele>
        <time>1999-07-24T09:44:16Z</time>
      </trkpt>
      <trkpt lat="43.333687" lon="-6.563914">
        <ele>707.052</ele>
        <time>1999-07-24T09:44:23Z</time>
      </trkpt>
      <trkpt lat="43.333470" lon="-6.564072">
        <ele>707.423</ele>
        <time>1999-07-24T09:44:29Z</time>
      </trkpt>
      <trkpt lat="43.333231" lon="-6.564273">
        <ele>707.887</ele>
        <time>1999-07-24T09:44:35Z</time>
      </trkpt>
      <trkpt lat="43.333151" lon="-6.564343">
        <ele>707.886</ele>
        <time>1999-07-24T09:44:37Z</time>
      </trkpt>
      <trkpt lat="43.332987" lon="-6.564502">
        <ele>708.072</ele>
        <time>1999-07-24T09:44:41Z</time>
      </trkpt>
      <trkpt lat="43.332781" lon="-6.564664">
        <ele>708.214</ele>
        <time>1999-07-24T09:44:46Z</time>
      </trkpt>
      <trkpt lat="43.332497" lon="-6.564896">
        <ele>709.099</ele>
        <time>1999-07-24T09:44:54Z</time>
      </trkpt>
      <trkpt lat="43.332426" lon="-6.564955">
        <ele>709.607</ele>
        <time>1999-07-24T09:44:56Z</time>
      </trkpt>
      <trkpt lat="43.332206" lon="-6.565161">
        <ele>710.227</ele>
        <time>1999-07-24T09:45:03Z</time>
      </trkpt>
      <trkpt lat="43.332025" lon="-6.565323">
        <ele>710.808</ele>
        <time>1999-07-24T09:45:08Z</time>
      </trkpt>
      <trkpt lat="43.331989" lon="-6.565347">
        <ele>711.032</ele>
        <time>1999-07-24T09:45:09Z</time>
      </trkpt>
      <trkpt lat="43.331921" lon="-6.565394">
        <ele>711.248</ele>
        <time>1999-07-24T09:45:11Z</time>
      </trkpt>
      <trkpt lat="43.331775" lon="-6.565500">
        <ele>711.419</ele>
        <time>1999-07-24T09:45:16Z</time>
      </trkpt>
      <trkpt lat="43.331624" lon="-6.565605">
        <ele>711.880</ele>
        <time>1999-07-24T09:45:21Z</time>
      </trkpt>
      <trkpt lat="43.331542" lon="-6.565645">
        <ele>712.214</ele>
        <time>1999-07-24T09:45:23Z</time>
      </trkpt>
      <trkpt lat="43.331356" lon="-6.565780">
        <ele>712.863</ele>
        <time>1999-07-24T09:45:28Z</time>
      </trkpt>
      <trkpt lat="43.331138" lon="-6.565917">
        <ele>713.299</ele>
        <time>1999-07-24T09:45:34Z</time>
      </trkpt>
      <trkpt lat="43.331095" lon="-6.565935">
        <ele>713.231</ele>
        <time>1999-07-24T09:45:35Z</time>
      </trkpt>
      <trkpt lat="43.330887" lon="-6.565981">
        <ele>713.424</ele>
        <time>1999-07-24T09:45:40Z</time>
      </trkpt>
      <trkpt lat="43.330843" lon="-6.565983">
        <ele>713.404</ele>
        <time>1999-07-24T09:45:41Z</time>
      </trkpt>
      <trkpt lat="43.330543" lon="-6.565979">
        <ele>713.414</ele>
        <time>1999-07-24T09:45:47Z</time>
      </trkpt>
      <trkpt lat="43.330487" lon="-6.565982">
        <ele>713.408</ele>
        <time>1999-07-24T09:45:48Z</time>
      </trkpt>
      <trkpt lat="43.330305" lon="-6.566026">
        <ele>713.475</ele>
        <time>1999-07-24T09:45:51Z</time>
      </trkpt>
      <trkpt lat="43.330198" lon="-6.566072">
        <ele>713.431</ele>
        <time>1999-07-24T09:45:53Z</time>
      </trkpt>
      <trkpt lat="43.330045" lon="-6.566110">
        <ele>713.032</ele>
        <time>1999-07-24T09:45:56Z</time>
      </trkpt>
      <trkpt lat="43.329917" lon="-6.566102">
        <ele>712.823</ele>
        <time>1999-07-24T09:45:58Z</time>
      </trkpt>
      <trkpt lat="43.329790" lon="-6.566064">
        <ele>712.617</ele>
        <time>1999-07-24T09:46:00Z</time>
      </trkpt>
      <trkpt lat="43.329613" lon="-6.566017">
        <ele>712.616</ele>
        <time>1999-07-24T09:46:03Z</time>
      </trkpt>
      <trkpt lat="43.329439" lon="-6.565998">
        <ele>712.442</ele>
        <time>1999-07-24T09:46:06Z</time>
      </trkpt>
      <trkpt lat="43.329330" lon="-6.565979">
        <ele>712.424</ele>
        <time>1999-07-24T09:46:08Z</time>
      </trkpt>
      <trkpt lat="43.329244" lon="-6.565960">
        <ele>712.478</ele>
        <time>1999-07-24T09:46:10Z</time>
      </trkpt>
      <trkpt lat="43.329176" lon="-6.565960">
        <ele>712.233</ele>
        <time>1999-07-24T09:46:13Z</time>
      </trkpt>
      <trkpt lat="43.329171" lon="-6.565966">
        <ele>712.226</ele>
        <time>1999-07-24T09:46:14Z</time>
      </trkpt>
      <trkpt lat="43.329169" lon="-6.565965">
        <ele>712.208</ele>
        <time>1999-07-24T09:46:16Z</time>
      </trkpt>
      <trkpt lat="43.329183" lon="-6.565990">
        <ele>710.440</ele>
        <time>1999-07-24T09:47:17Z</time>
      </trkpt>
      <trkpt lat="43.329191" lon="-6.566019">
        <ele>710.436</ele>
        <time>1999-07-24T09:47:19Z</time>
      </trkpt>
      <trkpt lat="43.329194" lon="-6.566097">
        <ele>711.037</ele>
        <time>1999-07-24T09:47:26Z</time>
      </trkpt>
      <trkpt lat="43.329191" lon="-6.566107">
        <ele>711.478</ele>
        <time>1999-07-24T09:47:28Z</time>
      </trkpt>
      <trkpt lat="43.329189" lon="-6.566106">
        <ele>711.842</ele>
        <time>1999-07-24T09:47:29Z</time>
      </trkpt>
      <trkpt lat="43.329169" lon="-6.566180">
        <ele>712.891</ele>
        <time>1999-07-24T09:48:15Z</time>
      </trkpt>
      <trkpt lat="43.329163" lon="-6.566203">
        <ele>712.877</ele>
        <time>1999-07-24T09:48:16Z</time>
      </trkpt>
      <trkpt lat="43.329158" lon="-6.566219">
        <ele>712.879</ele>
        <time>1999-07-24T09:48:17Z</time>
      </trkpt>
      <trkpt lat="43.329140" lon="-6.566260">
        <ele>712.845</ele>
        <time>1999-07-24T09:48:19Z</time>
      </trkpt>
      <trkpt lat="43.329105" lon="-6.566336">
        <ele>712.847</ele>
        <time>1999-07-24T09:48:22Z</time>
      </trkpt>
      <trkpt lat="43.329094" lon="-6.566361">
        <ele>713.211</ele>
        <time>1999-07-24T09:48:23Z</time>
      </trkpt>
      <trkpt lat="43.329033" lon="-6.566483">
        <ele>713.808</ele>
        <time>1999-07-24T09:48:28Z</time>
      </trkpt>
      <trkpt lat="43.329011" lon="-6.566525">
        <ele>714.017</ele>
        <time>1999-07-24T09:48:30Z</time>
      </trkpt>
      <trkpt lat="43.329001" lon="-6.566598">
        <ele>714.633</ele>
        <time>1999-07-24T09:48:33Z</time>
      </trkpt>
      <trkpt lat="43.328995" lon="-6.566621">
        <ele>714.614</ele>
        <time>1999-07-24T09:48:34Z</time>
      </trkpt>
      <trkpt lat="43.328986" lon="-6.566647">
        <ele>714.855</ele>
        <time>1999-07-24T09:48:35Z</time>
      </trkpt>
      <trkpt lat="43.328941" lon="-6.566721">
        <ele>715.849</ele>
        <time>1999-07-24T09:48:38Z</time>
      </trkpt>
      <trkpt lat="43.328896" lon="-6.566811">
        <ele>716.848</ele>
        <time>1999-07-24T09:48:41Z</time>
      </trkpt>
      <trkpt lat="43.328859" lon="-6.566955">
        <ele>717.674</ele>
        <time>1999-07-24T09:48:45Z</time>
      </trkpt>
      <trkpt lat="43.328833" lon="-6.567032">
        <ele>717.816</ele>
        <time>1999-07-24T09:48:48Z</time>
      </trkpt>
      <trkpt lat="43.328805" lon="-6.567120">
        <ele>718.076</ele>
        <time>1999-07-24T09:48:51Z</time>
      </trkpt>
      <trkpt lat="43.328763" lon="-6.567223">
        <ele>718.290</ele>
        <time>1999-07-24T09:48:54Z</time>
      </trkpt>
      <trkpt lat="43.328626" lon="-6.567453">
        <ele>718.219</ele>
        <time>1999-07-24T09:49:02Z</time>
      </trkpt>
      <trkpt lat="43.328552" lon="-6.567519">
        <ele>718.208</ele>
        <time>1999-07-24T09:49:05Z</time>
      </trkpt>
      <trkpt lat="43.328501" lon="-6.567566">
        <ele>718.230</ele>
        <time>1999-07-24T09:49:07Z</time>
      </trkpt>
      <trkpt lat="43.328451" lon="-6.567609">
        <ele>718.266</ele>
        <time>1999-07-24T09:49:09Z</time>
      </trkpt>
      <trkpt lat="43.328410" lon="-6.567650">
        <ele>718.057</ele>
        <time>1999-07-24T09:49:11Z</time>
      </trkpt>
      <trkpt lat="43.328306" lon="-6.567795">
        <ele>717.488</ele>
        <time>1999-07-24T09:49:18Z</time>
      </trkpt>
      <trkpt lat="43.328227" lon="-6.567872">
        <ele>717.272</ele>
        <time>1999-07-24T09:49:23Z</time>
      </trkpt>
      <trkpt lat="43.328201" lon="-6.567921">
        <ele>717.221</ele>
        <time>1999-07-24T09:49:26Z</time>
      </trkpt>
      <trkpt lat="43.328163" lon="-6.567961">
        <ele>717.237</ele>
        <time>1999-07-24T09:49:29Z</time>
      </trkpt>
      <trkpt lat="43.328111" lon="-6.568063">
        <ele>718.469</ele>
        <time>1999-07-24T09:49:35Z</time>
      </trkpt>
      <trkpt lat="43.328063" lon="-6.568106">
        <ele>719.042</ele>
        <time>1999-07-24T09:49:38Z</time>
      </trkpt>
      <trkpt lat="43.328021" lon="-6.568159">
        <ele>719.822</ele>
        <time>1999-07-24T09:49:41Z</time>
      </trkpt>
      <trkpt lat="43.327998" lon="-6.568246">
        <ele>720.214</ele>
        <time>1999-07-24T09:49:44Z</time>
      </trkpt>
      <trkpt lat="43.327991" lon="-6.568269">
        <ele>720.808</ele>
        <time>1999-07-24T09:49:45Z</time>
      </trkpt>
      <trkpt lat="43.327982" lon="-6.568323">
        <ele>721.267</ele>
        <time>1999-07-24T09:49:47Z</time>
      </trkpt>
      <trkpt lat="43.327978" lon="-6.568345">
        <ele>721.483</ele>
        <time>1999-07-24T09:49:48Z</time>
      </trkpt>
      <trkpt lat="43.327970" lon="-6.568418">
        <ele>722.044</ele>
        <time>1999-07-24T09:49:51Z</time>
      </trkpt>
      <trkpt lat="43.327965" lon="-6.568442">
        <ele>722.265</ele>
        <time>1999-07-24T09:49:52Z</time>
      </trkpt>
      <trkpt lat="43.327950" lon="-6.568497">
        <ele>722.639</ele>
        <time>1999-07-24T09:49:54Z</time>
      </trkpt>
      <trkpt lat="43.327912" lon="-6.568667">
        <ele>723.888</ele>
        <time>1999-07-24T09:49:59Z</time>
      </trkpt>
      <trkpt lat="43.327902" lon="-6.568699">
        <ele>724.044</ele>
        <time>1999-07-24T09:50:00Z</time>
      </trkpt>
      <trkpt lat="43.327870" lon="-6.568834">
        <ele>724.826</ele>
        <time>1999-07-24T09:50:04Z</time>
      </trkpt>
      <trkpt lat="43.327850" lon="-6.568972">
        <ele>725.281</ele>
        <time>1999-07-24T09:50:08Z</time>
      </trkpt>
      <trkpt lat="43.327825" lon="-6.569104">
        <ele>725.861</ele>
        <time>1999-07-24T09:50:12Z</time>
      </trkpt>
      <trkpt lat="43.327806" lon="-6.569233">
        <ele>726.617</ele>
        <time>1999-07-24T09:50:16Z</time>
      </trkpt>
      <trkpt lat="43.327800" lon="-6.569330">
        <ele>726.808</ele>
        <time>1999-07-24T09:50:19Z</time>
      </trkpt>
      <trkpt lat="43.327777" lon="-6.569416">
        <ele>727.411</ele>
        <time>1999-07-24T09:50:22Z</time>
      </trkpt>
      <trkpt lat="43.327766" lon="-6.569501">
        <ele>728.277</ele>
        <time>1999-07-24T09:50:25Z</time>
      </trkpt>
      <trkpt lat="43.327735" lon="-6.569642">
        <ele>729.048</ele>
        <time>1999-07-24T09:50:30Z</time>
      </trkpt>
      <trkpt lat="43.327726" lon="-6.569670">
        <ele>729.219</ele>
        <time>1999-07-24T09:50:31Z</time>
      </trkpt>
      <trkpt lat="43.327683" lon="-6.569811">
        <ele>730.273</ele>
        <time>1999-07-24T09:50:36Z</time>
      </trkpt>
      <trkpt lat="43.327664" lon="-6.569882">
        <ele>730.672</ele>
        <time>1999-07-24T09:50:39Z</time>
      </trkpt>
      <trkpt lat="43.327658" lon="-6.569949">
        <ele>731.238</ele>
        <time>1999-07-24T09:50:42Z</time>
      </trkpt>
      <trkpt lat="43.327646" lon="-6.570096">
        <ele>732.080</ele>
        <time>1999-07-24T09:50:47Z</time>
      </trkpt>
      <trkpt lat="43.327634" lon="-6.570163">
        <ele>732.237</ele>
        <time>1999-07-24T09:50:49Z</time>
      </trkpt>
      <trkpt lat="43.327598" lon="-6.570384">
        <ele>733.049</ele>
        <time>1999-07-24T09:50:55Z</time>
      </trkpt>
      <trkpt lat="43.327573" lon="-6.570590">
        <ele>733.413</ele>
        <time>1999-07-24T09:51:00Z</time>
      </trkpt>
      <trkpt lat="43.327549" lon="-6.570759">
        <ele>733.408</ele>
        <time>1999-07-24T09:51:04Z</time>
      </trkpt>
      <trkpt lat="43.327515" lon="-6.571075">
        <ele>734.466</ele>
        <time>1999-07-24T09:51:11Z</time>
      </trkpt>
      <trkpt lat="43.327517" lon="-6.571120">
        <ele>734.442</ele>
        <time>1999-07-24T09:51:12Z</time>
      </trkpt>
      <trkpt lat="43.327549" lon="-6.571482">
        <ele>735.463</ele>
        <time>1999-07-24T09:51:20Z</time>
      </trkpt>
      <trkpt lat="43.327555" lon="-6.571529">
        <ele>735.474</ele>
        <time>1999-07-24T09:51:21Z</time>
      </trkpt>
      <trkpt lat="43.327598" lon="-6.571850">
        <ele>736.048</ele>
        <time>1999-07-24T09:51:28Z</time>
      </trkpt>
      <trkpt lat="43.327603" lon="-6.571949">
        <ele>736.477</ele>
        <time>1999-07-24T09:51:30Z</time>
      </trkpt>
      <trkpt lat="43.327606" lon="-6.572192">
        <ele>736.843</ele>
        <time>1999-07-24T09:51:34Z</time>
      </trkpt>
      <trkpt lat="43.327620" lon="-6.572512">
        <ele>737.215</ele>
        <time>1999-07-24T09:51:39Z</time>
      </trkpt>
      <trkpt lat="43.327625" lon="-6.572564">
        <ele>737.225</ele>
        <time>1999-07-24T09:51:40Z</time>
      </trkpt>
      <trkpt lat="43.327636" lon="-6.572838">
        <ele>737.426</ele>
        <time>1999-07-24T09:51:46Z</time>
      </trkpt>
      <trkpt lat="43.327653" lon="-6.573108">
        <ele>737.408</ele>
        <time>1999-07-24T09:51:50Z</time>
      </trkpt>
      <trkpt lat="43.327663" lon="-6.573258">
        <ele>737.408</ele>
        <time>1999-07-24T09:51:52Z</time>
      </trkpt>
      <trkpt lat="43.327676" lon="-6.573394">
        <ele>737.445</ele>
        <time>1999-07-24T09:51:54Z</time>
      </trkpt>
      <trkpt lat="43.327683" lon="-6.573455">
        <ele>737.421</ele>
        <time>1999-07-24T09:51:55Z</time>
      </trkpt>
      <trkpt lat="43.327686" lon="-6.573514">
        <ele>737.482</ele>
        <time>1999-07-24T09:51:56Z</time>
      </trkpt>
      <trkpt lat="43.327693" lon="-6.573637">
        <ele>737.453</ele>
        <time>1999-07-24T09:51:58Z</time>
      </trkpt>
      <trkpt lat="43.327691" lon="-6.573779">
        <ele>737.227</ele>
        <time>1999-07-24T09:52:00Z</time>
      </trkpt>
      <trkpt lat="43.327688" lon="-6.573949">
        <ele>737.036</ele>
        <time>1999-07-24T09:52:02Z</time>
      </trkpt>
      <trkpt lat="43.327686" lon="-6.574040">
        <ele>737.042</ele>
        <time>1999-07-24T09:52:03Z</time>
      </trkpt>
      <trkpt lat="43.327683" lon="-6.574230">
        <ele>736.834</ele>
        <time>1999-07-24T09:52:05Z</time>
      </trkpt>
      <trkpt lat="43.327672" lon="-6.574501">
        <ele>736.811</ele>
        <time>1999-07-24T09:52:08Z</time>
      </trkpt>
      <trkpt lat="43.327665" lon="-6.574574">
        <ele>736.821</ele>
        <time>1999-07-24T09:52:09Z</time>
      </trkpt>
      <trkpt lat="43.327654" lon="-6.574637">
        <ele>736.803</ele>
        <time>1999-07-24T09:52:10Z</time>
      </trkpt>
      <trkpt lat="43.327601" lon="-6.574783">
        <ele>736.608</ele>
        <time>1999-07-24T09:52:13Z</time>
      </trkpt>
      <trkpt lat="43.327518" lon="-6.574975">
        <ele>736.464</ele>
        <time>1999-07-24T09:52:18Z</time>
      </trkpt>
      <trkpt lat="43.327384" lon="-6.575231">
        <ele>736.070</ele>
        <time>1999-07-24T09:52:23Z</time>
      </trkpt>
      <trkpt lat="43.327243" lon="-6.575469">
        <ele>735.871</ele>
        <time>1999-07-24T09:52:27Z</time>
      </trkpt>
      <trkpt lat="43.327207" lon="-6.575528">
        <ele>735.892</ele>
        <time>1999-07-24T09:52:28Z</time>
      </trkpt>
      <trkpt lat="43.327142" lon="-6.575647">
        <ele>735.846</ele>
        <time>1999-07-24T09:52:30Z</time>
      </trkpt>
      <trkpt lat="43.327056" lon="-6.575842">
        <ele>735.685</ele>
        <time>1999-07-24T09:52:33Z</time>
      </trkpt>
      <trkpt lat="43.327009" lon="-6.575976">
        <ele>735.261</ele>
        <time>1999-07-24T09:52:35Z</time>
      </trkpt>
      <trkpt lat="43.326977" lon="-6.576039">
        <ele>735.083</ele>
        <time>1999-07-24T09:52:36Z</time>
      </trkpt>
      <trkpt lat="43.326891" lon="-6.576156">
        <ele>734.692</ele>
        <time>1999-07-24T09:52:39Z</time>
      </trkpt>
      <trkpt lat="43.326858" lon="-6.576187">
        <ele>734.473</ele>
        <time>1999-07-24T09:52:41Z</time>
      </trkpt>
      <trkpt lat="43.326821" lon="-6.576243">
        <ele>734.220</ele>
        <time>1999-07-24T09:52:43Z</time>
      </trkpt>
      <trkpt lat="43.326797" lon="-6.576279">
        <ele>734.008</ele>
        <time>1999-07-24T09:52:44Z</time>
      </trkpt>
      <trkpt lat="43.326696" lon="-6.576412">
        <ele>733.262</ele>
        <time>1999-07-24T09:52:47Z</time>
      </trkpt>
      <trkpt lat="43.326653" lon="-6.576533">
        <ele>732.448</ele>
        <time>1999-07-24T09:52:49Z</time>
      </trkpt>
      <trkpt lat="43.326664" lon="-6.576659">
        <ele>732.099</ele>
        <time>1999-07-24T09:52:51Z</time>
      </trkpt>
      <trkpt lat="43.326679" lon="-6.576792">
        <ele>731.480</ele>
        <time>1999-07-24T09:52:53Z</time>
      </trkpt>
      <trkpt lat="43.326695" lon="-6.576980">
        <ele>731.064</ele>
        <time>1999-07-24T09:52:56Z</time>
      </trkpt>
      <trkpt lat="43.326712" lon="-6.577168">
        <ele>730.833</ele>
        <time>1999-07-24T09:52:59Z</time>
      </trkpt>
      <trkpt lat="43.326726" lon="-6.577366">
        <ele>730.689</ele>
        <time>1999-07-24T09:53:02Z</time>
      </trkpt>
      <trkpt lat="43.326731" lon="-6.577506">
        <ele>730.671</ele>
        <time>1999-07-24T09:53:04Z</time>
      </trkpt>
      <trkpt lat="43.326726" lon="-6.577580">
        <ele>730.619</ele>
        <time>1999-07-24T09:53:05Z</time>
      </trkpt>
      <trkpt lat="43.326684" lon="-6.577714">
        <ele>730.609</ele>
        <time>1999-07-24T09:53:07Z</time>
      </trkpt>
      <trkpt lat="43.326609" lon="-6.577923">
        <ele>730.619</ele>
        <time>1999-07-24T09:53:10Z</time>
      </trkpt>
      <trkpt lat="43.326570" lon="-6.578070">
        <ele>730.608</ele>
        <time>1999-07-24T09:53:12Z</time>
      </trkpt>
      <trkpt lat="43.326507" lon="-6.578354">
        <ele>730.654</ele>
        <time>1999-07-24T09:53:16Z</time>
      </trkpt>
      <trkpt lat="43.326454" lon="-6.578635">
        <ele>730.670</ele>
        <time>1999-07-24T09:53:20Z</time>
      </trkpt>
      <trkpt lat="43.326429" lon="-6.578909">
        <ele>731.071</ele>
        <time>1999-07-24T09:53:24Z</time>
      </trkpt>
      <trkpt lat="43.326443" lon="-6.579037">
        <ele>731.272</ele>
        <time>1999-07-24T09:53:26Z</time>
      </trkpt>
      <trkpt lat="43.326470" lon="-6.579168">
        <ele>731.686</ele>
        <time>1999-07-24T09:53:28Z</time>
      </trkpt>
      <trkpt lat="43.326507" lon="-6.579466">
        <ele>731.855</ele>
        <time>1999-07-24T09:53:32Z</time>
      </trkpt>
      <trkpt lat="43.326511" lon="-6.579635">
        <ele>731.851</ele>
        <time>1999-07-24T09:53:34Z</time>
      </trkpt>
      <trkpt lat="43.326474" lon="-6.579862">
        <ele>731.813</ele>
        <time>1999-07-24T09:53:37Z</time>
      </trkpt>
      <trkpt lat="43.326389" lon="-6.580115">
        <ele>731.819</ele>
        <time>1999-07-24T09:53:41Z</time>
      </trkpt>
      <trkpt lat="43.326367" lon="-6.580170">
        <ele>731.809</ele>
        <time>1999-07-24T09:53:42Z</time>
      </trkpt>
      <trkpt lat="43.326339" lon="-6.580221">
        <ele>731.819</ele>
        <time>1999-07-24T09:53:43Z</time>
      </trkpt>
      <trkpt lat="43.326283" lon="-6.580326">
        <ele>731.808</ele>
        <time>1999-07-24T09:53:45Z</time>
      </trkpt>
      <trkpt lat="43.326225" lon="-6.580428">
        <ele>731.884</ele>
        <time>1999-07-24T09:53:47Z</time>
      </trkpt>
      <trkpt lat="43.326099" lon="-6.580626">
        <ele>731.830</ele>
        <time>1999-07-24T09:53:51Z</time>
      </trkpt>
      <trkpt lat="43.326017" lon="-6.580706">
        <ele>732.041</ele>
        <time>1999-07-24T09:53:53Z</time>
      </trkpt>
      <trkpt lat="43.325843" lon="-6.580925">
        <ele>732.092</ele>
        <time>1999-07-24T09:53:57Z</time>
      </trkpt>
      <trkpt lat="43.325802" lon="-6.580999">
        <ele>732.086</ele>
        <time>1999-07-24T09:53:58Z</time>
      </trkpt>
      <trkpt lat="43.325702" lon="-6.581157">
        <ele>732.095</ele>
        <time>1999-07-24T09:54:00Z</time>
      </trkpt>
      <trkpt lat="43.325580" lon="-6.581303">
        <ele>732.031</ele>
        <time>1999-07-24T09:54:02Z</time>
      </trkpt>
      <trkpt lat="43.325463" lon="-6.581461">
        <ele>731.863</ele>
        <time>1999-07-24T09:54:04Z</time>
      </trkpt>
      <trkpt lat="43.325379" lon="-6.581639">
        <ele>731.615</ele>
        <time>1999-07-24T09:54:06Z</time>
      </trkpt>
      <trkpt lat="43.325344" lon="-6.581834">
        <ele>731.265</ele>
        <time>1999-07-24T09:54:08Z</time>
      </trkpt>
      <trkpt lat="43.325352" lon="-6.581939">
        <ele>730.611</ele>
        <time>1999-07-24T09:54:09Z</time>
      </trkpt>
      <trkpt lat="43.325371" lon="-6.582048">
        <ele>730.008</ele>
        <time>1999-07-24T09:54:10Z</time>
      </trkpt>
      <trkpt lat="43.325387" lon="-6.582159">
        <ele>729.214</ele>
        <time>1999-07-24T09:54:11Z</time>
      </trkpt>
      <trkpt lat="43.325403" lon="-6.582269">
        <ele>728.450</ele>
        <time>1999-07-24T09:54:12Z</time>
      </trkpt>
      <trkpt lat="43.325413" lon="-6.582379">
        <ele>727.691</ele>
        <time>1999-07-24T09:54:13Z</time>
      </trkpt>
      <trkpt lat="43.325423" lon="-6.582476">
        <ele>726.892</ele>
        <time>1999-07-24T09:54:14Z</time>
      </trkpt>
      <trkpt lat="43.325445" lon="-6.582619">
        <ele>725.216</ele>
        <time>1999-07-24T09:54:16Z</time>
      </trkpt>
      <trkpt lat="43.325448" lon="-6.582683">
        <ele>724.675</ele>
        <time>1999-07-24T09:54:17Z</time>
      </trkpt>
      <trkpt lat="43.325444" lon="-6.582736">
        <ele>724.071</ele>
        <time>1999-07-24T09:54:18Z</time>
      </trkpt>
      <trkpt lat="43.325462" lon="-6.582825">
        <ele>722.823</ele>
        <time>1999-07-24T09:54:21Z</time>
      </trkpt>
      <trkpt lat="43.325522" lon="-6.582828">
        <ele>721.864</ele>
        <time>1999-07-24T09:54:25Z</time>
      </trkpt>
      <trkpt lat="43.325537" lon="-6.582833">
        <ele>721.606</ele>
        <time>1999-07-24T09:54:26Z</time>
      </trkpt>
      <trkpt lat="43.325592" lon="-6.582897">
        <ele>721.616</ele>
        <time>1999-07-24T09:54:29Z</time>
      </trkpt>
      <trkpt lat="43.325631" lon="-6.582953">
        <ele>721.608</ele>
        <time>1999-07-24T09:54:31Z</time>
      </trkpt>
      <trkpt lat="43.325695" lon="-6.583035">
        <ele>721.619</ele>
        <time>1999-07-24T09:54:34Z</time>
      </trkpt>
      <trkpt lat="43.325751" lon="-6.583127">
        <ele>722.075</ele>
        <time>1999-07-24T09:54:37Z</time>
      </trkpt>
      <trkpt lat="43.325790" lon="-6.583198">
        <ele>722.436</ele>
        <time>1999-07-24T09:54:40Z</time>
      </trkpt>
      <trkpt lat="43.325812" lon="-6.583234">
        <ele>722.827</ele>
        <time>1999-07-24T09:54:42Z</time>
      </trkpt>
      <trkpt lat="43.325834" lon="-6.583266">
        <ele>722.811</ele>
        <time>1999-07-24T09:54:44Z</time>
      </trkpt>
      <trkpt lat="43.325843" lon="-6.583307">
        <ele>723.020</ele>
        <time>1999-07-24T09:54:46Z</time>
      </trkpt>
      <trkpt lat="43.325858" lon="-6.583348">
        <ele>723.646</ele>
        <time>1999-07-24T09:54:48Z</time>
      </trkpt>
      <trkpt lat="43.325867" lon="-6.583364">
        <ele>724.028</ele>
        <time>1999-07-24T09:54:49Z</time>
      </trkpt>
      <trkpt lat="43.325878" lon="-6.583404">
        <ele>724.617</ele>
        <time>1999-07-24T09:54:51Z</time>
      </trkpt>
      <trkpt lat="43.325878" lon="-6.583425">
        <ele>725.287</ele>
        <time>1999-07-24T09:54:52Z</time>
      </trkpt>
      <trkpt lat="43.325868" lon="-6.583492">
        <ele>726.015</ele>
        <time>1999-07-24T09:54:55Z</time>
      </trkpt>
      <trkpt lat="43.325864" lon="-6.583512">
        <ele>726.208</ele>
        <time>1999-07-24T09:54:56Z</time>
      </trkpt>
      <trkpt lat="43.325843" lon="-6.583591">
        <ele>727.464</ele>
        <time>1999-07-24T09:55:00Z</time>
      </trkpt>
      <trkpt lat="43.325797" lon="-6.583658">
        <ele>728.410</ele>
        <time>1999-07-24T09:55:04Z</time>
      </trkpt>
      <trkpt lat="43.325714" lon="-6.583763">
        <ele>729.661</ele>
        <time>1999-07-24T09:55:10Z</time>
      </trkpt>
      <trkpt lat="43.325677" lon="-6.583821">
        <ele>730.612</ele>
        <time>1999-07-24T09:55:13Z</time>
      </trkpt>
      <trkpt lat="43.325665" lon="-6.583842">
        <ele>730.896</ele>
        <time>1999-07-24T09:55:14Z</time>
      </trkpt>
      <trkpt lat="43.325581" lon="-6.583962">
        <ele>732.015</ele>
        <time>1999-07-24T09:55:20Z</time>
      </trkpt>
      <trkpt lat="43.325554" lon="-6.584004">
        <ele>732.431</ele>
        <time>1999-07-24T09:55:22Z</time>
      </trkpt>
      <trkpt lat="43.325505" lon="-6.584089">
        <ele>733.073</ele>
        <time>1999-07-24T09:55:26Z</time>
      </trkpt>
      <trkpt lat="43.325470" lon="-6.584183">
        <ele>733.843</ele>
        <time>1999-07-24T09:55:30Z</time>
      </trkpt>
      <trkpt lat="43.325456" lon="-6.584231">
        <ele>734.264</ele>
        <time>1999-07-24T09:55:32Z</time>
      </trkpt>
      <trkpt lat="43.325418" lon="-6.584388">
        <ele>735.410</ele>
        <time>1999-07-24T09:55:38Z</time>
      </trkpt>
      <trkpt lat="43.325415" lon="-6.584416">
        <ele>735.608</ele>
        <time>1999-07-24T09:55:39Z</time>
      </trkpt>
      <trkpt lat="43.325390" lon="-6.584520">
        <ele>736.427</ele>
        <time>1999-07-24T09:55:43Z</time>
      </trkpt>
      <trkpt lat="43.325346" lon="-6.584643">
        <ele>737.653</ele>
        <time>1999-07-24T09:55:48Z</time>
      </trkpt>
      <trkpt lat="43.325299" lon="-6.584795">
        <ele>738.894</ele>
        <time>1999-07-24T09:55:55Z</time>
      </trkpt>
      <trkpt lat="43.325296" lon="-6.584803">
        <ele>739.255</ele>
        <time>1999-07-24T09:55:57Z</time>
      </trkpt>
      <trkpt lat="43.325279" lon="-6.584875">
        <ele>740.629</ele>
        <time>1999-07-24T09:56:20Z</time>
      </trkpt>
      <trkpt lat="43.325275" lon="-6.584891">
        <ele>740.698</ele>
        <time>1999-07-24T09:56:21Z</time>
      </trkpt>
      <trkpt lat="43.325263" lon="-6.584924">
        <ele>740.654</ele>
        <time>1999-07-24T09:56:23Z</time>
      </trkpt>
      <trkpt lat="43.325214" lon="-6.585068">
        <ele>741.636</ele>
        <time>1999-07-24T09:56:30Z</time>
      </trkpt>
      <trkpt lat="43.325205" lon="-6.585091">
        <ele>741.813</ele>
        <time>1999-07-24T09:56:31Z</time>
      </trkpt>
      <trkpt lat="43.325178" lon="-6.585156">
        <ele>742.243</ele>
        <time>1999-07-24T09:56:34Z</time>
      </trkpt>
      <trkpt lat="43.325154" lon="-6.585220">
        <ele>742.807</ele>
        <time>1999-07-24T09:56:37Z</time>
      </trkpt>
      <trkpt lat="43.325122" lon="-6.585277">
        <ele>743.608</ele>
        <time>1999-07-24T09:56:40Z</time>
      </trkpt>
      <trkpt lat="43.325097" lon="-6.585307">
        <ele>744.064</ele>
        <time>1999-07-24T09:56:42Z</time>
      </trkpt>
      <trkpt lat="43.325060" lon="-6.585354">
        <ele>745.030</ele>
        <time>1999-07-24T09:56:45Z</time>
      </trkpt>
      <trkpt lat="43.325025" lon="-6.585400">
        <ele>745.841</ele>
        <time>1999-07-24T09:56:48Z</time>
      </trkpt>
      <trkpt lat="43.325014" lon="-6.585415">
        <ele>746.222</ele>
        <time>1999-07-24T09:56:49Z</time>
      </trkpt>
      <trkpt lat="43.324944" lon="-6.585475">
        <ele>747.496</ele>
        <time>1999-07-24T09:56:54Z</time>
      </trkpt>
      <trkpt lat="43.324920" lon="-6.585505">
        <ele>748.035</ele>
        <time>1999-07-24T09:56:56Z</time>
      </trkpt>
      <trkpt lat="43.324902" lon="-6.585541">
        <ele>748.881</ele>
        <time>1999-07-24T09:56:58Z</time>
      </trkpt>
      <trkpt lat="43.324863" lon="-6.585604">
        <ele>750.083</ele>
        <time>1999-07-24T09:57:02Z</time>
      </trkpt>
      <trkpt lat="43.324853" lon="-6.585618">
        <ele>750.223</ele>
        <time>1999-07-24T09:57:03Z</time>
      </trkpt>
      <trkpt lat="43.324823" lon="-6.585663">
        <ele>751.283</ele>
        <time>1999-07-24T09:57:06Z</time>
      </trkpt>
      <trkpt lat="43.324790" lon="-6.585726">
        <ele>752.411</ele>
        <time>1999-07-24T09:57:10Z</time>
      </trkpt>
      <trkpt lat="43.324771" lon="-6.585752">
        <ele>753.008</ele>
        <time>1999-07-24T09:57:12Z</time>
      </trkpt>
      <trkpt lat="43.324760" lon="-6.585761">
        <ele>753.445</ele>
        <time>1999-07-24T09:57:13Z</time>
      </trkpt>
      <trkpt lat="43.324713" lon="-6.585827">
        <ele>754.431</ele>
        <time>1999-07-24T09:57:18Z</time>
      </trkpt>
      <trkpt lat="43.324678" lon="-6.585852">
        <ele>755.242</ele>
        <time>1999-07-24T09:57:21Z</time>
      </trkpt>
      <trkpt lat="43.324665" lon="-6.585859">
        <ele>755.623</ele>
        <time>1999-07-24T09:57:22Z</time>
      </trkpt>
      <trkpt lat="43.324639" lon="-6.585875">
        <ele>756.017</ele>
        <time>1999-07-24T09:57:24Z</time>
      </trkpt>
      <trkpt lat="43.324622" lon="-6.585899">
        <ele>756.686</ele>
        <time>1999-07-24T09:57:26Z</time>
      </trkpt>
      <trkpt lat="43.324581" lon="-6.585941">
        <ele>757.672</ele>
        <time>1999-07-24T09:57:30Z</time>
      </trkpt>
      <trkpt lat="43.324540" lon="-6.585996">
        <ele>758.614</ele>
        <time>1999-07-24T09:57:34Z</time>
      </trkpt>
      <trkpt lat="43.324532" lon="-6.586012">
        <ele>758.825</ele>
        <time>1999-07-24T09:57:35Z</time>
      </trkpt>
      <trkpt lat="43.324497" lon="-6.586078">
        <ele>759.826</ele>
        <time>1999-07-24T09:57:39Z</time>
      </trkpt>
      <trkpt lat="43.324468" lon="-6.586118">
        <ele>760.808</ele>
        <time>1999-07-24T09:57:42Z</time>
      </trkpt>
      <trkpt lat="43.324459" lon="-6.586131">
        <ele>761.008</ele>
        <time>1999-07-24T09:57:43Z</time>
      </trkpt>
      <trkpt lat="43.324419" lon="-6.586176">
        <ele>762.015</ele>
        <time>1999-07-24T09:57:47Z</time>
      </trkpt>
      <trkpt lat="43.324373" lon="-6.586242">
        <ele>763.281</ele>
        <time>1999-07-24T09:57:52Z</time>
      </trkpt>
      <trkpt lat="43.324363" lon="-6.586254">
        <ele>763.472</ele>
        <time>1999-07-24T09:57:53Z</time>
      </trkpt>
      <trkpt lat="43.324327" lon="-6.586304">
        <ele>764.243</ele>
        <time>1999-07-24T09:57:57Z</time>
      </trkpt>
      <trkpt lat="43.324283" lon="-6.586351">
        <ele>765.237</ele>
        <time>1999-07-24T09:58:01Z</time>
      </trkpt>
      <trkpt lat="43.324272" lon="-6.586362">
        <ele>765.446</ele>
        <time>1999-07-24T09:58:02Z</time>
      </trkpt>
      <trkpt lat="43.324225" lon="-6.586433">
        <ele>766.682</ele>
        <time>1999-07-24T09:58:07Z</time>
      </trkpt>
      <trkpt lat="43.324217" lon="-6.586444">
        <ele>767.064</ele>
        <time>1999-07-24T09:58:08Z</time>
      </trkpt>
      <trkpt lat="43.324194" lon="-6.586482">
        <ele>768.073</ele>
        <time>1999-07-24T09:58:11Z</time>
      </trkpt>
      <trkpt lat="43.324174" lon="-6.586508">
        <ele>768.685</ele>
        <time>1999-07-24T09:58:13Z</time>
      </trkpt>
      <trkpt lat="43.324158" lon="-6.586544">
        <ele>769.013</ele>
        <time>1999-07-24T09:58:15Z</time>
      </trkpt>
      <trkpt lat="43.324121" lon="-6.586605">
        <ele>769.808</ele>
        <time>1999-07-24T09:58:19Z</time>
      </trkpt>
      <trkpt lat="43.324112" lon="-6.586617">
        <ele>770.070</ele>
        <time>1999-07-24T09:58:20Z</time>
      </trkpt>
      <trkpt lat="43.324102" lon="-6.586647">
        <ele>770.426</ele>
        <time>1999-07-24T09:58:22Z</time>
      </trkpt>
      <trkpt lat="43.324086" lon="-6.586700">
        <ele>771.057</ele>
        <time>1999-07-24T09:58:25Z</time>
      </trkpt>
      <trkpt lat="43.324058" lon="-6.586741">
        <ele>772.038</ele>
        <time>1999-07-24T09:58:28Z</time>
      </trkpt>
      <trkpt lat="43.324047" lon="-6.586758">
        <ele>772.252</ele>
        <time>1999-07-24T09:58:29Z</time>
      </trkpt>
      <trkpt lat="43.323997" lon="-6.586831">
        <ele>773.291</ele>
        <time>1999-07-24T09:58:34Z</time>
      </trkpt>
      <trkpt lat="43.323958" lon="-6.586873">
        <ele>774.087</ele>
        <time>1999-07-24T09:58:37Z</time>
      </trkpt>
      <trkpt lat="43.323933" lon="-6.586925">
        <ele>774.689</ele>
        <time>1999-07-24T09:58:40Z</time>
      </trkpt>
      <trkpt lat="43.323913" lon="-6.586958">
        <ele>775.262</ele>
        <time>1999-07-24T09:58:42Z</time>
      </trkpt>
      <trkpt lat="43.323891" lon="-6.586989">
        <ele>775.683</ele>
        <time>1999-07-24T09:58:44Z</time>
      </trkpt>
      <trkpt lat="43.323868" lon="-6.587035">
        <ele>776.411</ele>
        <time>1999-07-24T09:58:47Z</time>
      </trkpt>
      <trkpt lat="43.323850" lon="-6.587109">
        <ele>777.608</ele>
        <time>1999-07-24T09:58:51Z</time>
      </trkpt>
      <trkpt lat="43.323809" lon="-6.587180">
        <ele>778.669</ele>
        <time>1999-07-24T09:58:56Z</time>
      </trkpt>
      <trkpt lat="43.323789" lon="-6.587239">
        <ele>779.465</ele>
        <time>1999-07-24T09:58:59Z</time>
      </trkpt>
      <trkpt lat="43.323777" lon="-6.587254">
        <ele>779.656</ele>
        <time>1999-07-24T09:59:00Z</time>
      </trkpt>
      <trkpt lat="43.323753" lon="-6.587313">
        <ele>780.657</ele>
        <time>1999-07-24T09:59:04Z</time>
      </trkpt>
      <trkpt lat="43.323722" lon="-6.587373">
        <ele>781.411</ele>
        <time>1999-07-24T09:59:08Z</time>
      </trkpt>
      <trkpt lat="43.323711" lon="-6.587411">
        <ele>781.820</ele>
        <time>1999-07-24T09:59:10Z</time>
      </trkpt>
      <trkpt lat="43.323691" lon="-6.587502">
        <ele>783.016</ele>
        <time>1999-07-24T09:59:15Z</time>
      </trkpt>
      <trkpt lat="43.323679" lon="-6.587537">
        <ele>783.438</ele>
        <time>1999-07-24T09:59:17Z</time>
      </trkpt>
      <trkpt lat="43.323661" lon="-6.587589">
        <ele>784.289</ele>
        <time>1999-07-24T09:59:20Z</time>
      </trkpt>
      <trkpt lat="43.323661" lon="-6.587609">
        <ele>784.406</ele>
        <time>1999-07-24T09:59:21Z</time>
      </trkpt>
      <trkpt lat="43.323657" lon="-6.587643">
        <ele>784.626</ele>
        <time>1999-07-24T09:59:23Z</time>
      </trkpt>
      <trkpt lat="43.323648" lon="-6.587693">
        <ele>785.408</ele>
        <time>1999-07-24T09:59:26Z</time>
      </trkpt>
      <trkpt lat="43.323640" lon="-6.587778">
        <ele>786.431</ele>
        <time>1999-07-24T09:59:30Z</time>
      </trkpt>
      <trkpt lat="43.323633" lon="-6.587793">
        <ele>786.617</ele>
        <time>1999-07-24T09:59:31Z</time>
      </trkpt>
      <trkpt lat="43.323605" lon="-6.587894">
        <ele>787.868</ele>
        <time>1999-07-24T09:59:37Z</time>
      </trkpt>
      <trkpt lat="43.323596" lon="-6.587927">
        <ele>788.439</ele>
        <time>1999-07-24T09:59:39Z</time>
      </trkpt>
      <trkpt lat="43.323580" lon="-6.587976">
        <ele>789.223</ele>
        <time>1999-07-24T09:59:42Z</time>
      </trkpt>
      <trkpt lat="43.323560" lon="-6.588047">
        <ele>790.212</ele>
        <time>1999-07-24T09:59:46Z</time>
      </trkpt>
      <trkpt lat="43.323553" lon="-6.588067">
        <ele>790.648</ele>
        <time>1999-07-24T09:59:47Z</time>
      </trkpt>
      <trkpt lat="43.323540" lon="-6.588124">
        <ele>791.480</ele>
        <time>1999-07-24T09:59:50Z</time>
      </trkpt>
      <trkpt lat="43.323517" lon="-6.588240">
        <ele>792.454</ele>
        <time>1999-07-24T09:59:55Z</time>
      </trkpt>
      <trkpt lat="43.323506" lon="-6.588439">
        <ele>793.656</ele>
        <time>1999-07-24T10:00:02Z</time>
      </trkpt>
      <trkpt lat="43.323531" lon="-6.588629">
        <ele>794.611</ele>
        <time>1999-07-24T10:00:09Z</time>
      </trkpt>
      <trkpt lat="43.323542" lon="-6.588692">
        <ele>795.008</ele>
        <time>1999-07-24T10:00:11Z</time>
      </trkpt>
      <trkpt lat="43.323558" lon="-6.588786">
        <ele>795.898</ele>
        <time>1999-07-24T10:00:14Z</time>
      </trkpt>
      <trkpt lat="43.323585" lon="-6.588926">
        <ele>796.424</ele>
        <time>1999-07-24T10:00:18Z</time>
      </trkpt>
      <trkpt lat="43.323600" lon="-6.588994">
        <ele>796.675</ele>
        <time>1999-07-24T10:00:20Z</time>
      </trkpt>
      <trkpt lat="43.323615" lon="-6.589066">
        <ele>796.836</ele>
        <time>1999-07-24T10:00:22Z</time>
      </trkpt>
      <trkpt lat="43.323670" lon="-6.589250">
        <ele>797.270</ele>
        <time>1999-07-24T10:00:27Z</time>
      </trkpt>
      <trkpt lat="43.323685" lon="-6.589281">
        <ele>797.219</ele>
        <time>1999-07-24T10:00:28Z</time>
      </trkpt>
      <trkpt lat="43.323793" lon="-6.589488">
        <ele>797.815</ele>
        <time>1999-07-24T10:00:34Z</time>
      </trkpt>
      <trkpt lat="43.323815" lon="-6.589522">
        <ele>798.057</ele>
        <time>1999-07-24T10:00:35Z</time>
      </trkpt>
      <trkpt lat="43.323955" lon="-6.589744">
        <ele>798.694</ele>
        <time>1999-07-24T10:00:41Z</time>
      </trkpt>
      <trkpt lat="43.324064" lon="-6.589943">
        <ele>799.257</ele>
        <time>1999-07-24T10:00:46Z</time>
      </trkpt>
      <trkpt lat="43.324132" lon="-6.590062">
        <ele>799.422</ele>
        <time>1999-07-24T10:00:49Z</time>
      </trkpt>
      <trkpt lat="43.324257" lon="-6.590374">
        <ele>799.608</ele>
        <time>1999-07-24T10:00:56Z</time>
      </trkpt>
      <trkpt lat="43.324314" lon="-6.590735">
        <ele>800.092</ele>
        <time>1999-07-24T10:01:03Z</time>
      </trkpt>
      <trkpt lat="43.324337" lon="-6.590986">
        <ele>800.218</ele>
        <time>1999-07-24T10:01:08Z</time>
      </trkpt>
      <trkpt lat="43.324344" lon="-6.591029">
        <ele>800.299</ele>
        <time>1999-07-24T10:01:09Z</time>
      </trkpt>
      <trkpt lat="43.324367" lon="-6.591335">
        <ele>801.090</ele>
        <time>1999-07-24T10:01:16Z</time>
      </trkpt>
      <trkpt lat="43.324370" lon="-6.591373">
        <ele>801.224</ele>
        <time>1999-07-24T10:01:17Z</time>
      </trkpt>
      <trkpt lat="43.324395" lon="-6.591615">
        <ele>802.253</ele>
        <time>1999-07-24T10:01:24Z</time>
      </trkpt>
      <trkpt lat="43.324401" lon="-6.591848">
        <ele>803.419</ele>
        <time>1999-07-24T10:01:31Z</time>
      </trkpt>
      <trkpt lat="43.324400" lon="-6.591882">
        <ele>803.431</ele>
        <time>1999-07-24T10:01:32Z</time>
      </trkpt>
      <trkpt lat="43.324393" lon="-6.592075">
        <ele>804.471</ele>
        <time>1999-07-24T10:01:38Z</time>
      </trkpt>
      <trkpt lat="43.324383" lon="-6.592140">
        <ele>804.841</ele>
        <time>1999-07-24T10:01:40Z</time>
      </trkpt>
      <trkpt lat="43.324376" lon="-6.592207">
        <ele>805.415</ele>
        <time>1999-07-24T10:01:42Z</time>
      </trkpt>
      <trkpt lat="43.324373" lon="-6.592241">
        <ele>805.608</ele>
        <time>1999-07-24T10:01:43Z</time>
      </trkpt>
      <trkpt lat="43.324378" lon="-6.592364">
        <ele>806.230</ele>
        <time>1999-07-24T10:01:47Z</time>
      </trkpt>
      <trkpt lat="43.324395" lon="-6.592504">
        <ele>806.836</ele>
        <time>1999-07-24T10:01:51Z</time>
      </trkpt>
      <trkpt lat="43.324398" lon="-6.592537">
        <ele>807.077</ele>
        <time>1999-07-24T10:01:52Z</time>
      </trkpt>
      <trkpt lat="43.324419" lon="-6.592693">
        <ele>807.888</ele>
        <time>1999-07-24T10:01:57Z</time>
      </trkpt>
      <trkpt lat="43.324423" lon="-6.592724">
        <ele>808.062</ele>
        <time>1999-07-24T10:01:58Z</time>
      </trkpt>
      <trkpt lat="43.324436" lon="-6.592845">
        <ele>809.051</ele>
        <time>1999-07-24T10:02:02Z</time>
      </trkpt>
      <trkpt lat="43.324436" lon="-6.592935">
        <ele>809.817</ele>
        <time>1999-07-24T10:02:05Z</time>
      </trkpt>
      <trkpt lat="43.324438" lon="-6.592963">
        <ele>810.099</ele>
        <time>1999-07-24T10:02:06Z</time>
      </trkpt>
      <trkpt lat="43.324450" lon="-6.593083">
        <ele>811.081</ele>
        <time>1999-07-24T10:02:10Z</time>
      </trkpt>
      <trkpt lat="43.324450" lon="-6.593177">
        <ele>811.861</ele>
        <time>1999-07-24T10:02:13Z</time>
      </trkpt>
      <trkpt lat="43.324449" lon="-6.593276">
        <ele>812.417</ele>
        <time>1999-07-24T10:02:16Z</time>
      </trkpt>
      <trkpt lat="43.324458" lon="-6.593428">
        <ele>813.408</ele>
        <time>1999-07-24T10:02:21Z</time>
      </trkpt>
      <trkpt lat="43.324461" lon="-6.593458">
        <ele>813.641</ele>
        <time>1999-07-24T10:02:22Z</time>
      </trkpt>
      <trkpt lat="43.324484" lon="-6.593637">
        <ele>814.657</ele>
        <time>1999-07-24T10:02:28Z</time>
      </trkpt>
      <trkpt lat="43.324494" lon="-6.593689">
        <ele>815.088</ele>
        <time>1999-07-24T10:02:30Z</time>
      </trkpt>
      <trkpt lat="43.324521" lon="-6.593786">
        <ele>815.819</ele>
        <time>1999-07-24T10:02:34Z</time>
      </trkpt>
      <trkpt lat="43.324533" lon="-6.593927">
        <ele>816.863</ele>
        <time>1999-07-24T10:02:39Z</time>
      </trkpt>
      <trkpt lat="43.324550" lon="-6.594117">
        <ele>818.082</ele>
        <time>1999-07-24T10:02:46Z</time>
      </trkpt>
      <trkpt lat="43.324553" lon="-6.594172">
        <ele>818.298</ele>
        <time>1999-07-24T10:02:48Z</time>
      </trkpt>
      <trkpt lat="43.324560" lon="-6.594273">
        <ele>819.080</ele>
        <time>1999-07-24T10:02:52Z</time>
      </trkpt>
      <trkpt lat="43.324563" lon="-6.594379">
        <ele>819.693</ele>
        <time>1999-07-24T10:02:56Z</time>
      </trkpt>
      <trkpt lat="43.324565" lon="-6.594430">
        <ele>820.065</ele>
        <time>1999-07-24T10:02:58Z</time>
      </trkpt>
      <trkpt lat="43.324569" lon="-6.594570">
        <ele>821.021</ele>
        <time>1999-07-24T10:03:03Z</time>
      </trkpt>
      <trkpt lat="43.324571" lon="-6.594625">
        <ele>821.408</ele>
        <time>1999-07-24T10:03:05Z</time>
      </trkpt>
      <trkpt lat="43.324579" lon="-6.594730">
        <ele>822.022</ele>
        <time>1999-07-24T10:03:09Z</time>
      </trkpt>
      <trkpt lat="43.324580" lon="-6.594859">
        <ele>823.048</ele>
        <time>1999-07-24T10:03:14Z</time>
      </trkpt>
      <trkpt lat="43.324580" lon="-6.594886">
        <ele>823.299</ele>
        <time>1999-07-24T10:03:15Z</time>
      </trkpt>
      <trkpt lat="43.324584" lon="-6.595078">
        <ele>824.410</ele>
        <time>1999-07-24T10:03:22Z</time>
      </trkpt>
      <trkpt lat="43.324585" lon="-6.595108">
        <ele>824.684</ele>
        <time>1999-07-24T10:03:23Z</time>
      </trkpt>
      <trkpt lat="43.324590" lon="-6.595229">
        <ele>825.493</ele>
        <time>1999-07-24T10:03:27Z</time>
      </trkpt>
      <trkpt lat="43.324600" lon="-6.595302">
        <ele>826.049</ele>
        <time>1999-07-24T10:03:30Z</time>
      </trkpt>
      <trkpt lat="43.324609" lon="-6.595410">
        <ele>826.641</ele>
        <time>1999-07-24T10:03:34Z</time>
      </trkpt>
      <trkpt lat="43.324616" lon="-6.595524">
        <ele>827.426</ele>
        <time>1999-07-24T10:03:38Z</time>
      </trkpt>
      <trkpt lat="43.324616" lon="-6.595580">
        <ele>827.847</ele>
        <time>1999-07-24T10:03:40Z</time>
      </trkpt>
      <trkpt lat="43.324618" lon="-6.595724">
        <ele>828.611</ele>
        <time>1999-07-24T10:03:45Z</time>
      </trkpt>
      <trkpt lat="43.324611" lon="-6.595805">
        <ele>829.008</ele>
        <time>1999-07-24T10:03:48Z</time>
      </trkpt>
      <trkpt lat="43.324597" lon="-6.595953">
        <ele>830.245</ele>
        <time>1999-07-24T10:03:54Z</time>
      </trkpt>
      <trkpt lat="43.324591" lon="-6.596042">
        <ele>831.671</ele>
        <time>1999-07-24T10:03:58Z</time>
      </trkpt>
      <trkpt lat="43.324593" lon="-6.596127">
        <ele>832.242</ele>
        <time>1999-07-24T10:04:02Z</time>
      </trkpt>
      <trkpt lat="43.324591" lon="-6.596149">
        <ele>832.683</ele>
        <time>1999-07-24T10:04:03Z</time>
      </trkpt>
      <trkpt lat="43.324586" lon="-6.596263">
        <ele>833.887</ele>
        <time>1999-07-24T10:04:08Z</time>
      </trkpt>
      <trkpt lat="43.324569" lon="-6.596363">
        <ele>834.896</ele>
        <time>1999-07-24T10:04:13Z</time>
      </trkpt>
      <trkpt lat="43.324549" lon="-6.596474">
        <ele>836.032</ele>
        <time>1999-07-24T10:04:19Z</time>
      </trkpt>
      <trkpt lat="43.324539" lon="-6.596508">
        <ele>836.234</ele>
        <time>1999-07-24T10:04:21Z</time>
      </trkpt>
      <trkpt lat="43.324532" lon="-6.596568">
        <ele>836.811</ele>
        <time>1999-07-24T10:04:24Z</time>
      </trkpt>
      <trkpt lat="43.324527" lon="-6.596667">
        <ele>838.021</ele>
        <time>1999-07-24T10:04:29Z</time>
      </trkpt>
      <trkpt lat="43.324521" lon="-6.596690">
        <ele>838.203</ele>
        <time>1999-07-24T10:04:30Z</time>
      </trkpt>
      <trkpt lat="43.324504" lon="-6.596789">
        <ele>839.208</ele>
        <time>1999-07-24T10:04:35Z</time>
      </trkpt>
      <trkpt lat="43.324486" lon="-6.596825">
        <ele>839.874</ele>
        <time>1999-07-24T10:04:38Z</time>
      </trkpt>
      <trkpt lat="43.324468" lon="-6.596843">
        <ele>840.240</ele>
        <time>1999-07-24T10:04:40Z</time>
      </trkpt>
      <trkpt lat="43.324441" lon="-6.596842">
        <ele>841.221</ele>
        <time>1999-07-24T10:04:43Z</time>
      </trkpt>
      <trkpt lat="43.324439" lon="-6.596838">
        <ele>841.482</ele>
        <time>1999-07-24T10:04:44Z</time>
      </trkpt>
      <trkpt lat="43.324299" lon="-6.596924">
        <ele>843.896</ele>
        <time>1999-07-24T10:06:13Z</time>
      </trkpt>
      <trkpt lat="43.324281" lon="-6.596929">
        <ele>843.845</ele>
        <time>1999-07-24T10:06:14Z</time>
      </trkpt>
      <trkpt lat="43.324247" lon="-6.596939">
        <ele>843.861</ele>
        <time>1999-07-24T10:06:16Z</time>
      </trkpt>
      <trkpt lat="43.324165" lon="-6.596962">
        <ele>844.833</ele>
        <time>1999-07-24T10:06:21Z</time>
      </trkpt>
      <trkpt lat="43.324150" lon="-6.596968">
        <ele>844.888</ele>
        <time>1999-07-24T10:06:22Z</time>
      </trkpt>
      <trkpt lat="43.324120" lon="-6.596975">
        <ele>845.024</ele>
        <time>1999-07-24T10:06:24Z</time>
      </trkpt>
      <trkpt lat="43.324075" lon="-6.596982">
        <ele>845.426</ele>
        <time>1999-07-24T10:06:27Z</time>
      </trkpt>
      <trkpt lat="43.324031" lon="-6.596999">
        <ele>845.608</ele>
        <time>1999-07-24T10:06:30Z</time>
      </trkpt>
      <trkpt lat="43.324001" lon="-6.597004">
        <ele>845.831</ele>
        <time>1999-07-24T10:06:32Z</time>
      </trkpt>
      <trkpt lat="43.323972" lon="-6.597013">
        <ele>846.287</ele>
        <time>1999-07-24T10:06:34Z</time>
      </trkpt>
      <trkpt lat="43.323913" lon="-6.597033">
        <ele>847.078</ele>
        <time>1999-07-24T10:06:38Z</time>
      </trkpt>
      <trkpt lat="43.323853" lon="-6.597053">
        <ele>848.099</ele>
        <time>1999-07-24T10:06:42Z</time>
      </trkpt>
      <trkpt lat="43.323838" lon="-6.597053">
        <ele>848.283</ele>
        <time>1999-07-24T10:06:43Z</time>
      </trkpt>
      <trkpt lat="43.323775" lon="-6.597078">
        <ele>849.432</ele>
        <time>1999-07-24T10:06:48Z</time>
      </trkpt>
      <trkpt lat="43.323747" lon="-6.597074">
        <ele>850.078</ele>
        <time>1999-07-24T10:06:50Z</time>
      </trkpt>
      <trkpt lat="43.323719" lon="-6.597077">
        <ele>850.450</ele>
        <time>1999-07-24T10:06:52Z</time>
      </trkpt>
      <trkpt lat="43.323653" lon="-6.597110">
        <ele>851.282</ele>
        <time>1999-07-24T10:06:57Z</time>
      </trkpt>
      <trkpt lat="43.323639" lon="-6.597118">
        <ele>851.443</ele>
        <time>1999-07-24T10:06:58Z</time>
      </trkpt>
      <trkpt lat="43.323589" lon="-6.597131">
        <ele>852.417</ele>
        <time>1999-07-24T10:07:02Z</time>
      </trkpt>
      <trkpt lat="43.323546" lon="-6.597124">
        <ele>853.408</ele>
        <time>1999-07-24T10:07:05Z</time>
      </trkpt>
      <trkpt lat="43.323489" lon="-6.597116">
        <ele>854.631</ele>
        <time>1999-07-24T10:07:09Z</time>
      </trkpt>
      <trkpt lat="43.323448" lon="-6.597083">
        <ele>855.427</ele>
        <time>1999-07-24T10:07:12Z</time>
      </trkpt>
      <trkpt lat="43.323436" lon="-6.597066">
        <ele>855.648</ele>
        <time>1999-07-24T10:07:13Z</time>
      </trkpt>
      <trkpt lat="43.323382" lon="-6.596986">
        <ele>856.899</ele>
        <time>1999-07-24T10:07:18Z</time>
      </trkpt>
      <trkpt lat="43.323372" lon="-6.596968">
        <ele>857.043</ele>
        <time>1999-07-24T10:07:19Z</time>
      </trkpt>
      <trkpt lat="43.323330" lon="-6.596891">
        <ele>858.022</ele>
        <time>1999-07-24T10:07:24Z</time>
      </trkpt>
      <trkpt lat="43.323300" lon="-6.596841">
        <ele>859.278</ele>
        <time>1999-07-24T10:07:28Z</time>
      </trkpt>
      <trkpt lat="43.323260" lon="-6.596792">
        <ele>860.670</ele>
        <time>1999-07-24T10:07:33Z</time>
      </trkpt>
      <trkpt lat="43.323242" lon="-6.596776">
        <ele>861.217</ele>
        <time>1999-07-24T10:07:35Z</time>
      </trkpt>
      <trkpt lat="43.323223" lon="-6.596761">
        <ele>861.687</ele>
        <time>1999-07-24T10:07:37Z</time>
      </trkpt>
      <trkpt lat="43.323172" lon="-6.596711">
        <ele>862.815</ele>
        <time>1999-07-24T10:07:42Z</time>
      </trkpt>
      <trkpt lat="43.323150" lon="-6.596691">
        <ele>863.408</ele>
        <time>1999-07-24T10:07:44Z</time>
      </trkpt>
      <trkpt lat="43.323121" lon="-6.596671">
        <ele>864.024</ele>
        <time>1999-07-24T10:07:46Z</time>
      </trkpt>
      <trkpt lat="43.323066" lon="-6.596622">
        <ele>865.020</ele>
        <time>1999-07-24T10:07:50Z</time>
      </trkpt>
      <trkpt lat="43.322999" lon="-6.596547">
        <ele>866.041</ele>
        <time>1999-07-24T10:07:55Z</time>
      </trkpt>
      <trkpt lat="43.322953" lon="-6.596505">
        <ele>866.252</ele>
        <time>1999-07-24T10:07:58Z</time>
      </trkpt>
      <trkpt lat="43.322862" lon="-6.596434">
        <ele>867.016</ele>
        <time>1999-07-24T10:08:03Z</time>
      </trkpt>
      <trkpt lat="43.322782" lon="-6.596409">
        <ele>867.615</ele>
        <time>1999-07-24T10:08:07Z</time>
      </trkpt>
      <trkpt lat="43.322723" lon="-6.596397">
        <ele>868.291</ele>
        <time>1999-07-24T10:08:10Z</time>
      </trkpt>
      <trkpt lat="43.322640" lon="-6.596395">
        <ele>868.873</ele>
        <time>1999-07-24T10:08:14Z</time>
      </trkpt>
      <trkpt lat="43.322599" lon="-6.596408">
        <ele>869.215</ele>
        <time>1999-07-24T10:08:16Z</time>
      </trkpt>
      <trkpt lat="43.322461" lon="-6.596442">
        <ele>870.465</ele>
        <time>1999-07-24T10:08:23Z</time>
      </trkpt>
      <trkpt lat="43.322364" lon="-6.596473">
        <ele>871.411</ele>
        <time>1999-07-24T10:08:28Z</time>
      </trkpt>
      <trkpt lat="43.322311" lon="-6.596479">
        <ele>872.008</ele>
        <time>1999-07-24T10:08:31Z</time>
      </trkpt>
      <trkpt lat="43.322278" lon="-6.596488">
        <ele>872.684</ele>
        <time>1999-07-24T10:08:33Z</time>
      </trkpt>
      <trkpt lat="43.322243" lon="-6.596496">
        <ele>873.050</ele>
        <time>1999-07-24T10:08:35Z</time>
      </trkpt>
      <trkpt lat="43.322206" lon="-6.596505">
        <ele>873.461</ele>
        <time>1999-07-24T10:08:37Z</time>
      </trkpt>
      <trkpt lat="43.322188" lon="-6.596509">
        <ele>873.682</ele>
        <time>1999-07-24T10:08:38Z</time>
      </trkpt>
      <trkpt lat="43.322071" lon="-6.596532">
        <ele>874.866</ele>
        <time>1999-07-24T10:08:44Z</time>
      </trkpt>
      <trkpt lat="43.322019" lon="-6.596536">
        <ele>875.815</ele>
        <time>1999-07-24T10:08:47Z</time>
      </trkpt>
      <trkpt lat="43.322002" lon="-6.596538">
        <ele>876.041</ele>
        <time>1999-07-24T10:08:48Z</time>
      </trkpt>
      <trkpt lat="43.321905" lon="-6.596555">
        <ele>877.073</ele>
        <time>1999-07-24T10:08:54Z</time>
      </trkpt>
      <trkpt lat="43.321888" lon="-6.596554">
        <ele>877.276</ele>
        <time>1999-07-24T10:08:55Z</time>
      </trkpt>
      <trkpt lat="43.321803" lon="-6.596567">
        <ele>878.090</ele>
        <time>1999-07-24T10:09:00Z</time>
      </trkpt>
      <trkpt lat="43.321752" lon="-6.596581">
        <ele>878.819</ele>
        <time>1999-07-24T10:09:03Z</time>
      </trkpt>
      <trkpt lat="43.321736" lon="-6.596584">
        <ele>879.208</ele>
        <time>1999-07-24T10:09:04Z</time>
      </trkpt>
      <trkpt lat="43.321664" lon="-6.596600">
        <ele>880.290</ele>
        <time>1999-07-24T10:09:08Z</time>
      </trkpt>
      <trkpt lat="43.321612" lon="-6.596609">
        <ele>881.086</ele>
        <time>1999-07-24T10:09:11Z</time>
      </trkpt>
      <trkpt lat="43.321577" lon="-6.596616">
        <ele>881.447</ele>
        <time>1999-07-24T10:09:13Z</time>
      </trkpt>
      <trkpt lat="43.321501" lon="-6.596638">
        <ele>882.488</ele>
        <time>1999-07-24T10:09:17Z</time>
      </trkpt>
      <trkpt lat="43.321482" lon="-6.596642">
        <ele>882.652</ele>
        <time>1999-07-24T10:09:18Z</time>
      </trkpt>
      <trkpt lat="43.321403" lon="-6.596667">
        <ele>883.491</ele>
        <time>1999-07-24T10:09:22Z</time>
      </trkpt>
      <trkpt lat="43.321338" lon="-6.596703">
        <ele>884.057</ele>
        <time>1999-07-24T10:09:26Z</time>
      </trkpt>
      <trkpt lat="43.321288" lon="-6.596731">
        <ele>884.699</ele>
        <time>1999-07-24T10:09:29Z</time>
      </trkpt>
      <trkpt lat="43.321212" lon="-6.596781">
        <ele>885.466</ele>
        <time>1999-07-24T10:09:33Z</time>
      </trkpt>
      <trkpt lat="43.321194" lon="-6.596794">
        <ele>885.629</ele>
        <time>1999-07-24T10:09:34Z</time>
      </trkpt>
      <trkpt lat="43.321127" lon="-6.596884">
        <ele>886.421</ele>
        <time>1999-07-24T10:09:39Z</time>
      </trkpt>
      <trkpt lat="43.321103" lon="-6.596923">
        <ele>886.608</ele>
        <time>1999-07-24T10:09:41Z</time>
      </trkpt>
      <trkpt lat="43.321044" lon="-6.597033">
        <ele>887.659</ele>
        <time>1999-07-24T10:09:46Z</time>
      </trkpt>
      <trkpt lat="43.321037" lon="-6.597054">
        <ele>887.845</ele>
        <time>1999-07-24T10:09:47Z</time>
      </trkpt>
      <trkpt lat="43.321020" lon="-6.597172">
        <ele>888.826</ele>
        <time>1999-07-24T10:09:52Z</time>
      </trkpt>
      <trkpt lat="43.321022" lon="-6.597242">
        <ele>889.467</ele>
        <time>1999-07-24T10:09:55Z</time>
      </trkpt>
      <trkpt lat="43.321030" lon="-6.597304">
        <ele>890.021</ele>
        <time>1999-07-24T10:09:58Z</time>
      </trkpt>
      <trkpt lat="43.321037" lon="-6.597382">
        <ele>890.860</ele>
        <time>1999-07-24T10:10:02Z</time>
      </trkpt>
      <trkpt lat="43.321040" lon="-6.597401">
        <ele>891.036</ele>
        <time>1999-07-24T10:10:03Z</time>
      </trkpt>
      <trkpt lat="43.321059" lon="-6.597474">
        <ele>892.268</ele>
        <time>1999-07-24T10:10:07Z</time>
      </trkpt>
      <trkpt lat="43.321065" lon="-6.597495">
        <ele>892.485</ele>
        <time>1999-07-24T10:10:08Z</time>
      </trkpt>
      <trkpt lat="43.321089" lon="-6.597545">
        <ele>893.289</ele>
        <time>1999-07-24T10:10:11Z</time>
      </trkpt>
      <trkpt lat="43.321109" lon="-6.597612">
        <ele>894.017</ele>
        <time>1999-07-24T10:10:15Z</time>
      </trkpt>
      <trkpt lat="43.321118" lon="-6.597630">
        <ele>894.408</ele>
        <time>1999-07-24T10:10:16Z</time>
      </trkpt>
      <trkpt lat="43.321128" lon="-6.597682">
        <ele>895.691</ele>
        <time>1999-07-24T10:10:19Z</time>
      </trkpt>
      <trkpt lat="43.321117" lon="-6.597748">
        <ele>896.657</ele>
        <time>1999-07-24T10:10:22Z</time>
      </trkpt>
      <trkpt lat="43.321111" lon="-6.597765">
        <ele>896.838</ele>
        <time>1999-07-24T10:10:23Z</time>
      </trkpt>
      <trkpt lat="43.321093" lon="-6.597852">
        <ele>898.029</ele>
        <time>1999-07-24T10:10:28Z</time>
      </trkpt>
      <trkpt lat="43.321070" lon="-6.597920">
        <ele>899.043</ele>
        <time>1999-07-24T10:10:32Z</time>
      </trkpt>
      <trkpt lat="43.321061" lon="-6.597963">
        <ele>899.622</ele>
        <time>1999-07-24T10:10:34Z</time>
      </trkpt>
      <trkpt lat="43.321039" lon="-6.598042">
        <ele>900.228</ele>
        <time>1999-07-24T10:10:38Z</time>
      </trkpt>
      <trkpt lat="43.321018" lon="-6.598136">
        <ele>900.870</ele>
        <time>1999-07-24T10:10:42Z</time>
      </trkpt>
      <trkpt lat="43.320992" lon="-6.598218">
        <ele>901.225</ele>
        <time>1999-07-24T10:10:45Z</time>
      </trkpt>
      <trkpt lat="43.320953" lon="-6.598363">
        <ele>901.826</ele>
        <time>1999-07-24T10:10:50Z</time>
      </trkpt>
      <trkpt lat="43.320932" lon="-6.598421">
        <ele>902.008</ele>
        <time>1999-07-24T10:10:52Z</time>
      </trkpt>
      <trkpt lat="43.320888" lon="-6.598540">
        <ele>902.808</ele>
        <time>1999-07-24T10:10:56Z</time>
      </trkpt>
      <trkpt lat="43.320871" lon="-6.598607">
        <ele>903.285</ele>
        <time>1999-07-24T10:10:58Z</time>
      </trkpt>
      <trkpt lat="43.320833" lon="-6.598738">
        <ele>903.641</ele>
        <time>1999-07-24T10:11:02Z</time>
      </trkpt>
      <trkpt lat="43.320793" lon="-6.598856">
        <ele>904.082</ele>
        <time>1999-07-24T10:11:06Z</time>
      </trkpt>
      <trkpt lat="43.320774" lon="-6.598912">
        <ele>904.223</ele>
        <time>1999-07-24T10:11:08Z</time>
      </trkpt>
      <trkpt lat="43.320754" lon="-6.598969">
        <ele>904.687</ele>
        <time>1999-07-24T10:11:10Z</time>
      </trkpt>
      <trkpt lat="43.320696" lon="-6.599117">
        <ele>905.246</ele>
        <time>1999-07-24T10:11:15Z</time>
      </trkpt>
      <trkpt lat="43.320675" lon="-6.599172">
        <ele>905.642</ele>
        <time>1999-07-24T10:11:17Z</time>
      </trkpt>
      <trkpt lat="43.320633" lon="-6.599283">
        <ele>906.474</ele>
        <time>1999-07-24T10:11:21Z</time>
      </trkpt>
      <trkpt lat="43.320579" lon="-6.599401">
        <ele>907.272</ele>
        <time>1999-07-24T10:11:25Z</time>
      </trkpt>
      <trkpt lat="43.320565" lon="-6.599429">
        <ele>907.613</ele>
        <time>1999-07-24T10:11:26Z</time>
      </trkpt>
      <trkpt lat="43.320499" lon="-6.599568">
        <ele>908.614</ele>
        <time>1999-07-24T10:11:31Z</time>
      </trkpt>
      <trkpt lat="43.320469" lon="-6.599625">
        <ele>909.208</ele>
        <time>1999-07-24T10:11:33Z</time>
      </trkpt>
      <trkpt lat="43.320407" lon="-6.599734">
        <ele>909.650</ele>
        <time>1999-07-24T10:11:37Z</time>
      </trkpt>
      <trkpt lat="43.320341" lon="-6.599827">
        <ele>910.696</ele>
        <time>1999-07-24T10:11:41Z</time>
      </trkpt>
      <trkpt lat="43.320325" lon="-6.599850">
        <ele>910.847</ele>
        <time>1999-07-24T10:11:42Z</time>
      </trkpt>
      <trkpt lat="43.320310" lon="-6.599877">
        <ele>911.028</ele>
        <time>1999-07-24T10:11:43Z</time>
      </trkpt>
      <trkpt lat="43.320189" lon="-6.600068">
        <ele>912.032</ele>
        <time>1999-07-24T10:11:51Z</time>
      </trkpt>
      <trkpt lat="43.320116" lon="-6.600201">
        <ele>912.621</ele>
        <time>1999-07-24T10:11:57Z</time>
      </trkpt>
      <trkpt lat="43.320075" lon="-6.600278">
        <ele>913.017</ele>
        <time>1999-07-24T10:12:00Z</time>
      </trkpt>
      <trkpt lat="43.320038" lon="-6.600357">
        <ele>913.489</ele>
        <time>1999-07-24T10:12:03Z</time>
      </trkpt>
      <trkpt lat="43.320004" lon="-6.600431">
        <ele>914.071</ele>
        <time>1999-07-24T10:12:06Z</time>
      </trkpt>
      <trkpt lat="43.319965" lon="-6.600503">
        <ele>914.641</ele>
        <time>1999-07-24T10:12:09Z</time>
      </trkpt>
      <trkpt lat="43.319923" lon="-6.600574">
        <ele>915.215</ele>
        <time>1999-07-24T10:12:12Z</time>
      </trkpt>
      <trkpt lat="43.319878" lon="-6.600648">
        <ele>916.008</ele>
        <time>1999-07-24T10:12:15Z</time>
      </trkpt>
      <trkpt lat="43.319837" lon="-6.600729">
        <ele>916.280</ele>
        <time>1999-07-24T10:12:18Z</time>
      </trkpt>
      <trkpt lat="43.319772" lon="-6.600837">
        <ele>916.646</ele>
        <time>1999-07-24T10:12:22Z</time>
      </trkpt>
      <trkpt lat="43.319689" lon="-6.600975">
        <ele>917.267</ele>
        <time>1999-07-24T10:12:27Z</time>
      </trkpt>
      <trkpt lat="43.319556" lon="-6.601179">
        <ele>918.098</ele>
        <time>1999-07-24T10:12:34Z</time>
      </trkpt>
      <trkpt lat="43.319471" lon="-6.601296">
        <ele>918.412</ele>
        <time>1999-07-24T10:12:38Z</time>
      </trkpt>
      <trkpt lat="43.319429" lon="-6.601364">
        <ele>918.641</ele>
        <time>1999-07-24T10:12:40Z</time>
      </trkpt>
      <trkpt lat="43.319296" lon="-6.601572">
        <ele>918.857</ele>
        <time>1999-07-24T10:12:46Z</time>
      </trkpt>
      <trkpt lat="43.319276" lon="-6.601608">
        <ele>918.859</ele>
        <time>1999-07-24T10:12:47Z</time>
      </trkpt>
      <trkpt lat="43.319196" lon="-6.601742">
        <ele>919.264</ele>
        <time>1999-07-24T10:12:51Z</time>
      </trkpt>
      <trkpt lat="43.319118" lon="-6.601876">
        <ele>919.406</ele>
        <time>1999-07-24T10:12:55Z</time>
      </trkpt>
      <trkpt lat="43.318996" lon="-6.602093">
        <ele>920.216</ele>
        <time>1999-07-24T10:13:02Z</time>
      </trkpt>
      <trkpt lat="43.318931" lon="-6.602255">
        <ele>921.008</ele>
        <time>1999-07-24T10:13:08Z</time>
      </trkpt>
      <trkpt lat="43.318908" lon="-6.602310">
        <ele>921.299</ele>
        <time>1999-07-24T10:13:10Z</time>
      </trkpt>
      <trkpt lat="43.318837" lon="-6.602427">
        <ele>922.415</ele>
        <time>1999-07-24T10:13:14Z</time>
      </trkpt>
      <trkpt lat="43.318796" lon="-6.602497">
        <ele>922.876</ele>
        <time>1999-07-24T10:13:16Z</time>
      </trkpt>
      <trkpt lat="43.318611" lon="-6.602827">
        <ele>923.477</ele>
        <time>1999-07-24T10:13:25Z</time>
      </trkpt>
      <trkpt lat="43.318565" lon="-6.602904">
        <ele>923.241</ele>
        <time>1999-07-24T10:13:27Z</time>
      </trkpt>
      <trkpt lat="43.318462" lon="-6.603074">
        <ele>923.820</ele>
        <time>1999-07-24T10:13:31Z</time>
      </trkpt>
      <trkpt lat="43.318439" lon="-6.603119">
        <ele>923.896</ele>
        <time>1999-07-24T10:13:32Z</time>
      </trkpt>
      <trkpt lat="43.318361" lon="-6.603306">
        <ele>924.248</ele>
        <time>1999-07-24T10:13:37Z</time>
      </trkpt>
      <trkpt lat="43.318310" lon="-6.603419">
        <ele>924.236</ele>
        <time>1999-07-24T10:13:42Z</time>
      </trkpt>
      <trkpt lat="43.318292" lon="-6.603464">
        <ele>924.417</ele>
        <time>1999-07-24T10:13:44Z</time>
      </trkpt>
      <trkpt lat="43.318238" lon="-6.603539">
        <ele>925.618</ele>
        <time>1999-07-24T10:13:48Z</time>
      </trkpt>
      <trkpt lat="43.318222" lon="-6.603556">
        <ele>925.608</ele>
        <time>1999-07-24T10:13:49Z</time>
      </trkpt>
      <trkpt lat="43.318121" lon="-6.603586">
        <ele>926.676</ele>
        <time>1999-07-24T10:13:54Z</time>
      </trkpt>
      <trkpt lat="43.318098" lon="-6.603578">
        <ele>926.652</ele>
        <time>1999-07-24T10:13:55Z</time>
      </trkpt>
      <trkpt lat="43.317977" lon="-6.603548">
        <ele>927.453</ele>
        <time>1999-07-24T10:14:02Z</time>
      </trkpt>
      <trkpt lat="43.317879" lon="-6.603519">
        <ele>928.684</ele>
        <time>1999-07-24T10:14:08Z</time>
      </trkpt>
      <trkpt lat="43.317862" lon="-6.603511">
        <ele>928.638</ele>
        <time>1999-07-24T10:14:09Z</time>
      </trkpt>
      <trkpt lat="43.317787" lon="-6.603471">
        <ele>929.847</ele>
        <time>1999-07-24T10:14:14Z</time>
      </trkpt>
      <trkpt lat="43.317723" lon="-6.603444">
        <ele>930.483</ele>
        <time>1999-07-24T10:14:18Z</time>
      </trkpt>
      <trkpt lat="43.317704" lon="-6.603435">
        <ele>930.675</ele>
        <time>1999-07-24T10:14:19Z</time>
      </trkpt>
      <trkpt lat="43.317602" lon="-6.603396">
        <ele>931.816</ele>
        <time>1999-07-24T10:14:25Z</time>
      </trkpt>
      <trkpt lat="43.317488" lon="-6.603366">
        <ele>933.076</ele>
        <time>1999-07-24T10:14:32Z</time>
      </trkpt>
      <trkpt lat="43.317454" lon="-6.603350">
        <ele>933.213</ele>
        <time>1999-07-24T10:14:34Z</time>
      </trkpt>
      <trkpt lat="43.317376" lon="-6.603315">
        <ele>934.008</ele>
        <time>1999-07-24T10:14:38Z</time>
      </trkpt>
      <trkpt lat="43.317343" lon="-6.603305">
        <ele>934.824</ele>
        <time>1999-07-24T10:14:40Z</time>
      </trkpt>
      <trkpt lat="43.317327" lon="-6.603303">
        <ele>935.250</ele>
        <time>1999-07-24T10:14:41Z</time>
      </trkpt>
      <trkpt lat="43.317248" lon="-6.603275">
        <ele>936.211</ele>
        <time>1999-07-24T10:14:46Z</time>
      </trkpt>
      <trkpt lat="43.317215" lon="-6.603276">
        <ele>936.642</ele>
        <time>1999-07-24T10:14:48Z</time>
      </trkpt>
      <trkpt lat="43.317146" lon="-6.603263">
        <ele>937.226</ele>
        <time>1999-07-24T10:14:52Z</time>
      </trkpt>
      <trkpt lat="43.317116" lon="-6.603261">
        <ele>937.675</ele>
        <time>1999-07-24T10:14:54Z</time>
      </trkpt>
      <trkpt lat="43.317044" lon="-6.603237">
        <ele>938.281</ele>
        <time>1999-07-24T10:14:59Z</time>
      </trkpt>
      <trkpt lat="43.316928" lon="-6.603214">
        <ele>939.223</ele>
        <time>1999-07-24T10:15:04Z</time>
      </trkpt>
      <trkpt lat="43.316856" lon="-6.603209">
        <ele>939.641</ele>
        <time>1999-07-24T10:15:07Z</time>
      </trkpt>
      <trkpt lat="43.316788" lon="-6.603209">
        <ele>940.481</ele>
        <time>1999-07-24T10:15:10Z</time>
      </trkpt>
      <trkpt lat="43.316698" lon="-6.603219">
        <ele>941.609</ele>
        <time>1999-07-24T10:15:15Z</time>
      </trkpt>
      <trkpt lat="43.316607" lon="-6.603225">
        <ele>942.608</ele>
        <time>1999-07-24T10:15:20Z</time>
      </trkpt>
      <trkpt lat="43.316572" lon="-6.603230">
        <ele>943.077</ele>
        <time>1999-07-24T10:15:22Z</time>
      </trkpt>
      <trkpt lat="43.316519" lon="-6.603240">
        <ele>943.863</ele>
        <time>1999-07-24T10:15:25Z</time>
      </trkpt>
      <trkpt lat="43.316456" lon="-6.603262">
        <ele>944.624</ele>
        <time>1999-07-24T10:15:29Z</time>
      </trkpt>
      <trkpt lat="43.316430" lon="-6.603290">
        <ele>945.015</ele>
        <time>1999-07-24T10:15:31Z</time>
      </trkpt>
      <trkpt lat="43.316381" lon="-6.603337">
        <ele>946.029</ele>
        <time>1999-07-24T10:15:35Z</time>
      </trkpt>
      <trkpt lat="43.316368" lon="-6.603348">
        <ele>946.488</ele>
        <time>1999-07-24T10:15:36Z</time>
      </trkpt>
      <trkpt lat="43.316328" lon="-6.603384">
        <ele>947.034</ele>
        <time>1999-07-24T10:15:39Z</time>
      </trkpt>
      <trkpt lat="43.316302" lon="-6.603412">
        <ele>947.626</ele>
        <time>1999-07-24T10:15:41Z</time>
      </trkpt>
      <trkpt lat="43.316281" lon="-6.603446">
        <ele>948.014</ele>
        <time>1999-07-24T10:15:43Z</time>
      </trkpt>
      <trkpt lat="43.316249" lon="-6.603494">
        <ele>949.254</ele>
        <time>1999-07-24T10:15:46Z</time>
      </trkpt>
      <trkpt lat="43.316206" lon="-6.603556">
        <ele>950.409</ele>
        <time>1999-07-24T10:15:50Z</time>
      </trkpt>
      <trkpt lat="43.316168" lon="-6.603623">
        <ele>951.408</ele>
        <time>1999-07-24T10:15:54Z</time>
      </trkpt>
      <trkpt lat="43.316150" lon="-6.603650">
        <ele>952.034</ele>
        <time>1999-07-24T10:15:56Z</time>
      </trkpt>
      <trkpt lat="43.316139" lon="-6.603658">
        <ele>952.290</ele>
        <time>1999-07-24T10:15:57Z</time>
      </trkpt>
      <trkpt lat="43.316114" lon="-6.603679">
        <ele>952.631</ele>
        <time>1999-07-24T10:15:59Z</time>
      </trkpt>
      <trkpt lat="43.316094" lon="-6.603711">
        <ele>953.032</ele>
        <time>1999-07-24T10:16:01Z</time>
      </trkpt>
      <trkpt lat="43.316054" lon="-6.603756">
        <ele>953.836</ele>
        <time>1999-07-24T10:16:04Z</time>
      </trkpt>
      <trkpt lat="43.315991" lon="-6.603820">
        <ele>955.055</ele>
        <time>1999-07-24T10:16:08Z</time>
      </trkpt>
      <trkpt lat="43.315920" lon="-6.603907">
        <ele>956.011</ele>
        <time>1999-07-24T10:16:13Z</time>
      </trkpt>
      <trkpt lat="43.315874" lon="-6.603953">
        <ele>957.093</ele>
        <time>1999-07-24T10:16:16Z</time>
      </trkpt>
      <trkpt lat="43.315850" lon="-6.603992">
        <ele>957.292</ele>
        <time>1999-07-24T10:16:18Z</time>
      </trkpt>
      <trkpt lat="43.315783" lon="-6.604089">
        <ele>958.473</ele>
        <time>1999-07-24T10:16:23Z</time>
      </trkpt>
      <trkpt lat="43.315703" lon="-6.604271">
        <ele>959.020</ele>
        <time>1999-07-24T10:16:30Z</time>
      </trkpt>
      <trkpt lat="43.315684" lon="-6.604327">
        <ele>959.408</ele>
        <time>1999-07-24T10:16:32Z</time>
      </trkpt>
      <trkpt lat="43.315626" lon="-6.604489">
        <ele>960.492</ele>
        <time>1999-07-24T10:16:38Z</time>
      </trkpt>
      <trkpt lat="43.315617" lon="-6.604518">
        <ele>960.468</ele>
        <time>1999-07-24T10:16:39Z</time>
      </trkpt>
      <trkpt lat="43.315549" lon="-6.604713">
        <ele>961.479</ele>
        <time>1999-07-24T10:16:45Z</time>
      </trkpt>
      <trkpt lat="43.315536" lon="-6.604750">
        <ele>961.610</ele>
        <time>1999-07-24T10:16:46Z</time>
      </trkpt>
      <trkpt lat="43.315469" lon="-6.604952">
        <ele>962.444</ele>
        <time>1999-07-24T10:16:52Z</time>
      </trkpt>
      <trkpt lat="43.315457" lon="-6.604989">
        <ele>962.433</ele>
        <time>1999-07-24T10:16:53Z</time>
      </trkpt>
      <trkpt lat="43.315445" lon="-6.605026">
        <ele>962.649</ele>
        <time>1999-07-24T10:16:54Z</time>
      </trkpt>
      <trkpt lat="43.315364" lon="-6.605246">
        <ele>963.221</ele>
        <time>1999-07-24T10:17:00Z</time>
      </trkpt>
      <trkpt lat="43.315352" lon="-6.605288">
        <ele>963.291</ele>
        <time>1999-07-24T10:17:01Z</time>
      </trkpt>
      <trkpt lat="43.315319" lon="-6.605418">
        <ele>963.681</ele>
        <time>1999-07-24T10:17:04Z</time>
      </trkpt>
      <trkpt lat="43.315275" lon="-6.605585">
        <ele>964.219</ele>
        <time>1999-07-24T10:17:08Z</time>
      </trkpt>
      <trkpt lat="43.315218" lon="-6.605838">
        <ele>964.408</ele>
        <time>1999-07-24T10:17:14Z</time>
      </trkpt>
      <trkpt lat="43.315209" lon="-6.605877">
        <ele>964.672</ele>
        <time>1999-07-24T10:17:15Z</time>
      </trkpt>
      <trkpt lat="43.315170" lon="-6.606100">
        <ele>965.818</ele>
        <time>1999-07-24T10:17:21Z</time>
      </trkpt>
      <trkpt lat="43.315164" lon="-6.606136">
        <ele>965.849</ele>
        <time>1999-07-24T10:17:22Z</time>
      </trkpt>
      <trkpt lat="43.315142" lon="-6.606294">
        <ele>967.080</ele>
        <time>1999-07-24T10:17:27Z</time>
      </trkpt>
      <trkpt lat="43.315132" lon="-6.606354">
        <ele>967.244</ele>
        <time>1999-07-24T10:17:29Z</time>
      </trkpt>
      <trkpt lat="43.315092" lon="-6.606447">
        <ele>968.063</ele>
        <time>1999-07-24T10:17:32Z</time>
      </trkpt>
      <trkpt lat="43.315066" lon="-6.606522">
        <ele>968.449</ele>
        <time>1999-07-24T10:17:34Z</time>
      </trkpt>
      <trkpt lat="43.315036" lon="-6.606591">
        <ele>968.881</ele>
        <time>1999-07-24T10:17:36Z</time>
      </trkpt>
      <trkpt lat="43.314985" lon="-6.606705">
        <ele>969.271</ele>
        <time>1999-07-24T10:17:40Z</time>
      </trkpt>
      <trkpt lat="43.314970" lon="-6.606726">
        <ele>969.441</ele>
        <time>1999-07-24T10:17:41Z</time>
      </trkpt>
      <trkpt lat="43.314900" lon="-6.606805">
        <ele>969.815</ele>
        <time>1999-07-24T10:17:45Z</time>
      </trkpt>
      <trkpt lat="43.314741" lon="-6.606867">
        <ele>970.608</ele>
        <time>1999-07-24T10:17:51Z</time>
      </trkpt>
      <trkpt lat="43.314684" lon="-6.606872">
        <ele>971.030</ele>
        <time>1999-07-24T10:17:54Z</time>
      </trkpt>
      <trkpt lat="43.314638" lon="-6.606882">
        <ele>971.236</ele>
        <time>1999-07-24T10:17:57Z</time>
      </trkpt>
      <trkpt lat="43.314544" lon="-6.606898">
        <ele>972.077</ele>
        <time>1999-07-24T10:18:03Z</time>
      </trkpt>
      <trkpt lat="43.314511" lon="-6.606901">
        <ele>972.848</ele>
        <time>1999-07-24T10:18:05Z</time>
      </trkpt>
      <trkpt lat="43.314495" lon="-6.606903">
        <ele>973.012</ele>
        <time>1999-07-24T10:18:06Z</time>
      </trkpt>
      <trkpt lat="43.314429" lon="-6.606934">
        <ele>974.081</ele>
        <time>1999-07-24T10:18:10Z</time>
      </trkpt>
      <trkpt lat="43.314365" lon="-6.606982">
        <ele>974.867</ele>
        <time>1999-07-24T10:18:14Z</time>
      </trkpt>
      <trkpt lat="43.314350" lon="-6.606997">
        <ele>975.029</ele>
        <time>1999-07-24T10:18:15Z</time>
      </trkpt>
      <trkpt lat="43.314283" lon="-6.607088">
        <ele>976.415</ele>
        <time>1999-07-24T10:18:20Z</time>
      </trkpt>
      <trkpt lat="43.314225" lon="-6.607155">
        <ele>977.465</ele>
        <time>1999-07-24T10:18:24Z</time>
      </trkpt>
      <trkpt lat="43.314213" lon="-6.607174">
        <ele>977.611</ele>
        <time>1999-07-24T10:18:25Z</time>
      </trkpt>
      <trkpt lat="43.314179" lon="-6.607231">
        <ele>978.208</ele>
        <time>1999-07-24T10:18:28Z</time>
      </trkpt>
      <trkpt lat="43.314144" lon="-6.607288">
        <ele>978.614</ele>
        <time>1999-07-24T10:18:31Z</time>
      </trkpt>
      <trkpt lat="43.314102" lon="-6.607372">
        <ele>979.640</ele>
        <time>1999-07-24T10:18:35Z</time>
      </trkpt>
      <trkpt lat="43.314094" lon="-6.607394">
        <ele>979.851</ele>
        <time>1999-07-24T10:18:36Z</time>
      </trkpt>
      <trkpt lat="43.314059" lon="-6.607479">
        <ele>980.462</ele>
        <time>1999-07-24T10:18:40Z</time>
      </trkpt>
      <trkpt lat="43.314043" lon="-6.607518">
        <ele>980.856</ele>
        <time>1999-07-24T10:18:42Z</time>
      </trkpt>
      <trkpt lat="43.314026" lon="-6.607579">
        <ele>981.445</ele>
        <time>1999-07-24T10:18:45Z</time>
      </trkpt>
      <trkpt lat="43.313994" lon="-6.607682">
        <ele>982.631</ele>
        <time>1999-07-24T10:18:50Z</time>
      </trkpt>
      <trkpt lat="43.313972" lon="-6.607755">
        <ele>983.673</ele>
        <time>1999-07-24T10:18:54Z</time>
      </trkpt>
      <trkpt lat="43.313955" lon="-6.607813">
        <ele>984.226</ele>
        <time>1999-07-24T10:18:57Z</time>
      </trkpt>
      <trkpt lat="43.313946" lon="-6.607855">
        <ele>984.847</ele>
        <time>1999-07-24T10:18:59Z</time>
      </trkpt>
      <trkpt lat="43.313935" lon="-6.607916">
        <ele>985.811</ele>
        <time>1999-07-24T10:19:02Z</time>
      </trkpt>
      <trkpt lat="43.313925" lon="-6.607955">
        <ele>986.408</ele>
        <time>1999-07-24T10:19:04Z</time>
      </trkpt>
      <trkpt lat="43.313924" lon="-6.607996">
        <ele>987.265</ele>
        <time>1999-07-24T10:19:06Z</time>
      </trkpt>
      <trkpt lat="43.313908" lon="-6.608094">
        <ele>988.021</ele>
        <time>1999-07-24T10:19:11Z</time>
      </trkpt>
      <trkpt lat="43.313890" lon="-6.608195">
        <ele>989.232</ele>
        <time>1999-07-24T10:19:16Z</time>
      </trkpt>
      <trkpt lat="43.313883" lon="-6.608235">
        <ele>989.673</ele>
        <time>1999-07-24T10:19:18Z</time>
      </trkpt>
      <trkpt lat="43.313876" lon="-6.608255">
        <ele>989.847</ele>
        <time>1999-07-24T10:19:19Z</time>
      </trkpt>
      <trkpt lat="43.313863" lon="-6.608297">
        <ele>990.436</ele>
        <time>1999-07-24T10:19:21Z</time>
      </trkpt>
      <trkpt lat="43.313802" lon="-6.608466">
        <ele>991.462</ele>
        <time>1999-07-24T10:19:27Z</time>
      </trkpt>
      <trkpt lat="43.313713" lon="-6.608746">
        <ele>992.434</ele>
        <time>1999-07-24T10:19:33Z</time>
      </trkpt>
      <trkpt lat="43.313680" lon="-6.608901">
        <ele>992.627</ele>
        <time>1999-07-24T10:19:36Z</time>
      </trkpt>
      <trkpt lat="43.313633" lon="-6.609105">
        <ele>992.668</ele>
        <time>1999-07-24T10:19:40Z</time>
      </trkpt>
      <trkpt lat="43.313544" lon="-6.609429">
        <ele>993.414</ele>
        <time>1999-07-24T10:19:46Z</time>
      </trkpt>
      <trkpt lat="43.313529" lon="-6.609480">
        <ele>993.408</ele>
        <time>1999-07-24T10:19:47Z</time>
      </trkpt>
      <trkpt lat="43.313493" lon="-6.609581">
        <ele>993.655</ele>
        <time>1999-07-24T10:19:49Z</time>
      </trkpt>
      <trkpt lat="43.313451" lon="-6.609673">
        <ele>993.861</ele>
        <time>1999-07-24T10:19:51Z</time>
      </trkpt>
      <trkpt lat="43.313401" lon="-6.609762">
        <ele>994.062</ele>
        <time>1999-07-24T10:19:53Z</time>
      </trkpt>
      <trkpt lat="43.313376" lon="-6.609805">
        <ele>994.063</ele>
        <time>1999-07-24T10:19:54Z</time>
      </trkpt>
      <trkpt lat="43.313278" lon="-6.609954">
        <ele>994.437</ele>
        <time>1999-07-24T10:19:58Z</time>
      </trkpt>
      <trkpt lat="43.313241" lon="-6.610022">
        <ele>994.846</ele>
        <time>1999-07-24T10:20:00Z</time>
      </trkpt>
      <trkpt lat="43.313186" lon="-6.610199">
        <ele>995.692</ele>
        <time>1999-07-24T10:20:06Z</time>
      </trkpt>
      <trkpt lat="43.313180" lon="-6.610228">
        <ele>995.664</ele>
        <time>1999-07-24T10:20:07Z</time>
      </trkpt>
      <trkpt lat="43.313166" lon="-6.610340">
        <ele>996.839</ele>
        <time>1999-07-24T10:20:11Z</time>
      </trkpt>
      <trkpt lat="43.313152" lon="-6.610404">
        <ele>997.801</ele>
        <time>1999-07-24T10:20:14Z</time>
      </trkpt>
      <trkpt lat="43.313136" lon="-6.610499">
        <ele>999.221</ele>
        <time>1999-07-24T10:20:18Z</time>
      </trkpt>
      <trkpt lat="43.313114" lon="-6.610615">
        <ele>1000.008</ele>
        <time>1999-07-24T10:20:22Z</time>
      </trkpt>
      <trkpt lat="43.313018" lon="-6.610790">
        <ele>1000.666</ele>
        <time>1999-07-24T10:20:27Z</time>
      </trkpt>
      <trkpt lat="43.312909" lon="-6.610952">
        <ele>1000.832</ele>
        <time>1999-07-24T10:20:31Z</time>
      </trkpt>
      <trkpt lat="43.312831" lon="-6.611054">
        <ele>1000.863</ele>
        <time>1999-07-24T10:20:34Z</time>
      </trkpt>
      <trkpt lat="43.312801" lon="-6.611090">
        <ele>1000.814</ele>
        <time>1999-07-24T10:20:37Z</time>
      </trkpt>
      <trkpt lat="43.312786" lon="-6.611121">
        <ele>1000.428</ele>
        <time>1999-07-24T10:20:56Z</time>
      </trkpt>
      <trkpt lat="43.312774" lon="-6.611137">
        <ele>1000.417</ele>
        <time>1999-07-24T10:20:57Z</time>
      </trkpt>
      <trkpt lat="43.312743" lon="-6.611188">
        <ele>1000.473</ele>
        <time>1999-07-24T10:20:59Z</time>
      </trkpt>
      <trkpt lat="43.312617" lon="-6.611360">
        <ele>1000.425</ele>
        <time>1999-07-24T10:21:04Z</time>
      </trkpt>
      <trkpt lat="43.312533" lon="-6.611482">
        <ele>1000.432</ele>
        <time>1999-07-24T10:21:07Z</time>
      </trkpt>
      <trkpt lat="43.312443" lon="-6.611619">
        <ele>1000.692</ele>
        <time>1999-07-24T10:21:10Z</time>
      </trkpt>
      <trkpt lat="43.312411" lon="-6.611669">
        <ele>1000.611</ele>
        <time>1999-07-24T10:21:11Z</time>
      </trkpt>
      <trkpt lat="43.312249" lon="-6.611951">
        <ele>1000.808</ele>
        <time>1999-07-24T10:21:16Z</time>
      </trkpt>
      <trkpt lat="43.312197" lon="-6.612087">
        <ele>1001.056</ele>
        <time>1999-07-24T10:21:18Z</time>
      </trkpt>
      <trkpt lat="43.312175" lon="-6.612158">
        <ele>1001.012</ele>
        <time>1999-07-24T10:21:19Z</time>
      </trkpt>
      <trkpt lat="43.312091" lon="-6.612430">
        <ele>1001.023</ele>
        <time>1999-07-24T10:21:23Z</time>
      </trkpt>
      <trkpt lat="43.311880" lon="-6.612799">
        <ele>1000.864</ele>
        <time>1999-07-24T10:21:29Z</time>
      </trkpt>
      <trkpt lat="43.311798" lon="-6.612901">
        <ele>1000.818</ele>
        <time>1999-07-24T10:21:31Z</time>
      </trkpt>
      <trkpt lat="43.311647" lon="-6.613032">
        <ele>1000.697</ele>
        <time>1999-07-24T10:21:34Z</time>
      </trkpt>
      <trkpt lat="43.311588" lon="-6.613073">
        <ele>1000.423</ele>
        <time>1999-07-24T10:21:35Z</time>
      </trkpt>
      <trkpt lat="43.311458" lon="-6.613155">
        <ele>1000.485</ele>
        <time>1999-07-24T10:21:37Z</time>
      </trkpt>
      <trkpt lat="43.311391" lon="-6.613207">
        <ele>1000.219</ele>
        <time>1999-07-24T10:21:38Z</time>
      </trkpt>
      <trkpt lat="43.311178" lon="-6.613360">
        <ele>999.809</ele>
        <time>1999-07-24T10:21:41Z</time>
      </trkpt>
      <trkpt lat="43.311103" lon="-6.613410">
        <ele>999.419</ele>
        <time>1999-07-24T10:21:42Z</time>
      </trkpt>
      <trkpt lat="43.310950" lon="-6.613520">
        <ele>999.008</ele>
        <time>1999-07-24T10:21:44Z</time>
      </trkpt>
      <trkpt lat="43.310809" lon="-6.613650">
        <ele>998.254</ele>
        <time>1999-07-24T10:21:46Z</time>
      </trkpt>
      <trkpt lat="43.310625" lon="-6.613864">
        <ele>997.290</ele>
        <time>1999-07-24T10:21:49Z</time>
      </trkpt>
      <trkpt lat="43.310571" lon="-6.613940">
        <ele>996.891</ele>
        <time>1999-07-24T10:21:50Z</time>
      </trkpt>
      <trkpt lat="43.310473" lon="-6.614102">
        <ele>995.892</ele>
        <time>1999-07-24T10:21:52Z</time>
      </trkpt>
      <trkpt lat="43.310384" lon="-6.614277">
        <ele>995.296</ele>
        <time>1999-07-24T10:21:54Z</time>
      </trkpt>
      <trkpt lat="43.310347" lon="-6.614372">
        <ele>995.085</ele>
        <time>1999-07-24T10:21:55Z</time>
      </trkpt>
      <trkpt lat="43.310244" lon="-6.614681">
        <ele>994.881</ele>
        <time>1999-07-24T10:21:58Z</time>
      </trkpt>
      <trkpt lat="43.310207" lon="-6.614788">
        <ele>994.613</ele>
        <time>1999-07-24T10:21:59Z</time>
      </trkpt>
      <trkpt lat="43.310033" lon="-6.615216">
        <ele>993.495</ele>
        <time>1999-07-24T10:22:03Z</time>
      </trkpt>
      <trkpt lat="43.309992" lon="-6.615317">
        <ele>993.249</ele>
        <time>1999-07-24T10:22:04Z</time>
      </trkpt>
      <trkpt lat="43.309825" lon="-6.615672">
        <ele>992.223</ele>
        <time>1999-07-24T10:22:08Z</time>
      </trkpt>
      <trkpt lat="43.309787" lon="-6.615756">
        <ele>992.008</ele>
        <time>1999-07-24T10:22:09Z</time>
      </trkpt>
      <trkpt lat="43.309754" lon="-6.615844">
        <ele>991.812</ele>
        <time>1999-07-24T10:22:10Z</time>
      </trkpt>
      <trkpt lat="43.309691" lon="-6.616121">
        <ele>991.098</ele>
        <time>1999-07-24T10:22:13Z</time>
      </trkpt>
      <trkpt lat="43.309677" lon="-6.616222">
        <ele>990.899</ele>
        <time>1999-07-24T10:22:14Z</time>
      </trkpt>
      <trkpt lat="43.309652" lon="-6.616595">
        <ele>989.850</ele>
        <time>1999-07-24T10:22:18Z</time>
      </trkpt>
      <trkpt lat="43.309636" lon="-6.616745">
        <ele>989.284</ele>
        <time>1999-07-24T10:22:20Z</time>
      </trkpt>
      <trkpt lat="43.309606" lon="-6.616857">
        <ele>988.643</ele>
        <time>1999-07-24T10:22:22Z</time>
      </trkpt>
      <trkpt lat="43.309528" lon="-6.617077">
        <ele>988.249</ele>
        <time>1999-07-24T10:22:28Z</time>
      </trkpt>
      <trkpt lat="43.309472" lon="-6.617209">
        <ele>988.081</ele>
        <time>1999-07-24T10:22:33Z</time>
      </trkpt>
      <trkpt lat="43.309446" lon="-6.617290">
        <ele>989.085</ele>
        <time>1999-07-24T10:22:36Z</time>
      </trkpt>
      <trkpt lat="43.309412" lon="-6.617364">
        <ele>989.489</ele>
        <time>1999-07-24T10:22:39Z</time>
      </trkpt>
      <trkpt lat="43.309384" lon="-6.617406">
        <ele>989.817</ele>
        <time>1999-07-24T10:22:41Z</time>
      </trkpt>
      <trkpt lat="43.309372" lon="-6.617428">
        <ele>990.008</ele>
        <time>1999-07-24T10:22:42Z</time>
      </trkpt>
      <trkpt lat="43.309333" lon="-6.617499">
        <ele>990.411</ele>
        <time>1999-07-24T10:22:45Z</time>
      </trkpt>
      <trkpt lat="43.309293" lon="-6.617584">
        <ele>990.847</ele>
        <time>1999-07-24T10:22:49Z</time>
      </trkpt>
      <trkpt lat="43.309282" lon="-6.617602">
        <ele>991.088</ele>
        <time>1999-07-24T10:22:50Z</time>
      </trkpt>
      <trkpt lat="43.309271" lon="-6.617621">
        <ele>991.249</ele>
        <time>1999-07-24T10:22:51Z</time>
      </trkpt>
      <trkpt lat="43.309192" lon="-6.617778">
        <ele>991.813</ele>
        <time>1999-07-24T10:22:58Z</time>
      </trkpt>
      <trkpt lat="43.309172" lon="-6.617823">
        <ele>992.222</ele>
        <time>1999-07-24T10:23:00Z</time>
      </trkpt>
      <trkpt lat="43.309134" lon="-6.617937">
        <ele>993.048</ele>
        <time>1999-07-24T10:23:05Z</time>
      </trkpt>
      <trkpt lat="43.309127" lon="-6.617956">
        <ele>993.280</ele>
        <time>1999-07-24T10:23:06Z</time>
      </trkpt>
      <trkpt lat="43.309105" lon="-6.618081">
        <ele>993.854</ele>
        <time>1999-07-24T10:23:12Z</time>
      </trkpt>
      <trkpt lat="43.309100" lon="-6.618122">
        <ele>994.256</ele>
        <time>1999-07-24T10:23:14Z</time>
      </trkpt>
      <trkpt lat="43.309077" lon="-6.618199">
        <ele>994.811</ele>
        <time>1999-07-24T10:23:18Z</time>
      </trkpt>
      <trkpt lat="43.309048" lon="-6.618282">
        <ele>995.408</ele>
        <time>1999-07-24T10:23:22Z</time>
      </trkpt>
      <trkpt lat="43.309032" lon="-6.618352">
        <ele>996.098</ele>
        <time>1999-07-24T10:23:25Z</time>
      </trkpt>
      <trkpt lat="43.309022" lon="-6.618395">
        <ele>996.444</ele>
        <time>1999-07-24T10:23:27Z</time>
      </trkpt>
      <trkpt lat="43.308993" lon="-6.618527">
        <ele>997.035</ele>
        <time>1999-07-24T10:23:33Z</time>
      </trkpt>
      <trkpt lat="43.308975" lon="-6.618609">
        <ele>997.476</ele>
        <time>1999-07-24T10:23:37Z</time>
      </trkpt>
      <trkpt lat="43.308952" lon="-6.618698">
        <ele>998.050</ele>
        <time>1999-07-24T10:23:41Z</time>
      </trkpt>
      <trkpt lat="43.308928" lon="-6.618813">
        <ele>998.689</ele>
        <time>1999-07-24T10:23:47Z</time>
      </trkpt>
      <trkpt lat="43.308909" lon="-6.618867">
        <ele>999.445</ele>
        <time>1999-07-24T10:23:50Z</time>
      </trkpt>
      <trkpt lat="43.308887" lon="-6.618926">
        <ele>1000.077</ele>
        <time>1999-07-24T10:23:53Z</time>
      </trkpt>
      <trkpt lat="43.308862" lon="-6.619004">
        <ele>1001.013</ele>
        <time>1999-07-24T10:23:57Z</time>
      </trkpt>
      <trkpt lat="43.308852" lon="-6.619022">
        <ele>1001.243</ele>
        <time>1999-07-24T10:23:58Z</time>
      </trkpt>
      <trkpt lat="43.308818" lon="-6.619110">
        <ele>1002.207</ele>
        <time>1999-07-24T10:24:03Z</time>
      </trkpt>
      <trkpt lat="43.308805" lon="-6.619147">
        <ele>1002.608</ele>
        <time>1999-07-24T10:24:05Z</time>
      </trkpt>
      <trkpt lat="43.308799" lon="-6.619165">
        <ele>1002.654</ele>
        <time>1999-07-24T10:24:06Z</time>
      </trkpt>
      <trkpt lat="43.308784" lon="-6.619211">
        <ele>1003.210</ele>
        <time>1999-07-24T10:24:09Z</time>
      </trkpt>
      <trkpt lat="43.308766" lon="-6.619263">
        <ele>1004.081</ele>
        <time>1999-07-24T10:24:12Z</time>
      </trkpt>
      <trkpt lat="43.308756" lon="-6.619295">
        <ele>1004.432</ele>
        <time>1999-07-24T10:24:14Z</time>
      </trkpt>
      <trkpt lat="43.308731" lon="-6.619360">
        <ele>1005.476</ele>
        <time>1999-07-24T10:24:18Z</time>
      </trkpt>
      <trkpt lat="43.308706" lon="-6.619415">
        <ele>1006.645</ele>
        <time>1999-07-24T10:24:22Z</time>
      </trkpt>
      <trkpt lat="43.308687" lon="-6.619458">
        <ele>1007.621</ele>
        <time>1999-07-24T10:24:25Z</time>
      </trkpt>
      <trkpt lat="43.308681" lon="-6.619477">
        <ele>1007.873</ele>
        <time>1999-07-24T10:24:26Z</time>
      </trkpt>
      <trkpt lat="43.308653" lon="-6.619541">
        <ele>1009.086</ele>
        <time>1999-07-24T10:24:30Z</time>
      </trkpt>
      <trkpt lat="43.308647" lon="-6.619550">
        <ele>1009.260</ele>
        <time>1999-07-24T10:24:31Z</time>
      </trkpt>
      <trkpt lat="43.308639" lon="-6.619556">
        <ele>1010.026</ele>
        <time>1999-07-24T10:24:34Z</time>
      </trkpt>
      <trkpt lat="43.308524" lon="-6.619995">
        <ele>1019.008</ele>
        <time>1999-07-24T10:25:19Z</time>
      </trkpt>
      <trkpt lat="43.308520" lon="-6.620018">
        <ele>1019.231</ele>
        <time>1999-07-24T10:25:20Z</time>
      </trkpt>
      <trkpt lat="43.308497" lon="-6.620117">
        <ele>1020.027</ele>
        <time>1999-07-24T10:25:25Z</time>
      </trkpt>
      <trkpt lat="43.308479" lon="-6.620176">
        <ele>1021.288</ele>
        <time>1999-07-24T10:25:29Z</time>
      </trkpt>
      <trkpt lat="43.308478" lon="-6.620189">
        <ele>1021.419</ele>
        <time>1999-07-24T10:25:30Z</time>
      </trkpt>
      <trkpt lat="43.308475" lon="-6.620217">
        <ele>1022.263</ele>
        <time>1999-07-24T10:25:32Z</time>
      </trkpt>
      <trkpt lat="43.308469" lon="-6.620271">
        <ele>1023.022</ele>
        <time>1999-07-24T10:25:36Z</time>
      </trkpt>
      <trkpt lat="43.308467" lon="-6.620284">
        <ele>1023.288</ele>
        <time>1999-07-24T10:25:37Z</time>
      </trkpt>
      <trkpt lat="43.308464" lon="-6.620321">
        <ele>1024.420</ele>
        <time>1999-07-24T10:25:41Z</time>
      </trkpt>
      <trkpt lat="43.308456" lon="-6.620361">
        <ele>1025.426</ele>
        <time>1999-07-24T10:25:45Z</time>
      </trkpt>
      <trkpt lat="43.308454" lon="-6.620370">
        <ele>1025.647</ele>
        <time>1999-07-24T10:25:46Z</time>
      </trkpt>
      <trkpt lat="43.308443" lon="-6.620414">
        <ele>1026.811</ele>
        <time>1999-07-24T10:25:50Z</time>
      </trkpt>
      <trkpt lat="43.308430" lon="-6.620448">
        <ele>1027.408</ele>
        <time>1999-07-24T10:25:53Z</time>
      </trkpt>
      <trkpt lat="43.308421" lon="-6.620465">
        <ele>1028.065</ele>
        <time>1999-07-24T10:25:55Z</time>
      </trkpt>
      <trkpt lat="43.308396" lon="-6.620510">
        <ele>1029.291</ele>
        <time>1999-07-24T10:26:00Z</time>
      </trkpt>
      <trkpt lat="43.308391" lon="-6.620529">
        <ele>1029.682</ele>
        <time>1999-07-24T10:26:02Z</time>
      </trkpt>
      <trkpt lat="43.308385" lon="-6.620574">
        <ele>1030.213</ele>
        <time>1999-07-24T10:26:07Z</time>
      </trkpt>
      <trkpt lat="43.308377" lon="-6.620613">
        <ele>1031.457</ele>
        <time>1999-07-24T10:26:12Z</time>
      </trkpt>
      <trkpt lat="43.308375" lon="-6.620621">
        <ele>1031.646</ele>
        <time>1999-07-24T10:26:13Z</time>
      </trkpt>
      <trkpt lat="43.308372" lon="-6.620659">
        <ele>1032.832</ele>
        <time>1999-07-24T10:26:17Z</time>
      </trkpt>
      <trkpt lat="43.308365" lon="-6.620700">
        <ele>1033.674</ele>
        <time>1999-07-24T10:26:22Z</time>
      </trkpt>
      <trkpt lat="43.308359" lon="-6.620729">
        <ele>1034.236</ele>
        <time>1999-07-24T10:26:26Z</time>
      </trkpt>
      <trkpt lat="43.308353" lon="-6.620754">
        <ele>1034.817</ele>
        <time>1999-07-24T10:26:29Z</time>
      </trkpt>
      <trkpt lat="43.308345" lon="-6.620800">
        <ele>1035.818</ele>
        <time>1999-07-24T10:26:34Z</time>
      </trkpt>
      <trkpt lat="43.308327" lon="-6.620841">
        <ele>1036.808</ele>
        <time>1999-07-24T10:26:39Z</time>
      </trkpt>
      <trkpt lat="43.308324" lon="-6.620848">
        <ele>1037.096</ele>
        <time>1999-07-24T10:26:40Z</time>
      </trkpt>
      <trkpt lat="43.308301" lon="-6.620869">
        <ele>1038.072</ele>
        <time>1999-07-24T10:26:44Z</time>
      </trkpt>
      <trkpt lat="43.308287" lon="-6.620894">
        <ele>1038.823</ele>
        <time>1999-07-24T10:26:47Z</time>
      </trkpt>
      <trkpt lat="43.308282" lon="-6.620914">
        <ele>1039.094</ele>
        <time>1999-07-24T10:26:49Z</time>
      </trkpt>
      <trkpt lat="43.308263" lon="-6.620983">
        <ele>1040.218</ele>
        <time>1999-07-24T10:26:56Z</time>
      </trkpt>
      <trkpt lat="43.308255" lon="-6.621000">
        <ele>1040.657</ele>
        <time>1999-07-24T10:26:58Z</time>
      </trkpt>
      <trkpt lat="43.308246" lon="-6.621022">
        <ele>1041.263</ele>
        <time>1999-07-24T10:27:01Z</time>
      </trkpt>
      <trkpt lat="43.308244" lon="-6.621055">
        <ele>1042.295</ele>
        <time>1999-07-24T10:27:05Z</time>
      </trkpt>
      <trkpt lat="43.308245" lon="-6.621070">
        <ele>1042.468</ele>
        <time>1999-07-24T10:27:06Z</time>
      </trkpt>
      <trkpt lat="43.308245" lon="-6.621092">
        <ele>1042.642</ele>
        <time>1999-07-24T10:27:08Z</time>
      </trkpt>
      <trkpt lat="43.308233" lon="-6.621152">
        <ele>1043.426</ele>
        <time>1999-07-24T10:27:14Z</time>
      </trkpt>
      <trkpt lat="43.308227" lon="-6.621168">
        <ele>1044.008</ele>
        <time>1999-07-24T10:27:17Z</time>
      </trkpt>
      <trkpt lat="43.308217" lon="-6.621191">
        <ele>1044.689</ele>
        <time>1999-07-24T10:27:20Z</time>
      </trkpt>
      <trkpt lat="43.308192" lon="-6.621249">
        <ele>1045.815</ele>
        <time>1999-07-24T10:27:26Z</time>
      </trkpt>
      <trkpt lat="43.308189" lon="-6.621264">
        <ele>1045.846</ele>
        <time>1999-07-24T10:27:27Z</time>
      </trkpt>
      <trkpt lat="43.308177" lon="-6.621324">
        <ele>1046.667</ele>
        <time>1999-07-24T10:27:32Z</time>
      </trkpt>
      <trkpt lat="43.308170" lon="-6.621346">
        <ele>1047.021</ele>
        <time>1999-07-24T10:27:34Z</time>
      </trkpt>
      <trkpt lat="43.308160" lon="-6.621394">
        <ele>1047.810</ele>
        <time>1999-07-24T10:27:38Z</time>
      </trkpt>
      <trkpt lat="43.308146" lon="-6.621435">
        <ele>1048.456</ele>
        <time>1999-07-24T10:27:42Z</time>
      </trkpt>
      <trkpt lat="43.308141" lon="-6.621460">
        <ele>1048.868</ele>
        <time>1999-07-24T10:27:45Z</time>
      </trkpt>
      <trkpt lat="43.308127" lon="-6.621507">
        <ele>1050.086</ele>
        <time>1999-07-24T10:27:50Z</time>
      </trkpt>
      <trkpt lat="43.308123" lon="-6.621518">
        <ele>1050.060</ele>
        <time>1999-07-24T10:27:51Z</time>
      </trkpt>
      <trkpt lat="43.308104" lon="-6.621572">
        <ele>1051.026</ele>
        <time>1999-07-24T10:27:57Z</time>
      </trkpt>
      <trkpt lat="43.308097" lon="-6.621611">
        <ele>1051.408</ele>
        <time>1999-07-24T10:28:02Z</time>
      </trkpt>
      <trkpt lat="43.308093" lon="-6.621630">
        <ele>1052.041</ele>
        <time>1999-07-24T10:28:04Z</time>
      </trkpt>
      <trkpt lat="43.308086" lon="-6.621673">
        <ele>1053.027</ele>
        <time>1999-07-24T10:28:09Z</time>
      </trkpt>
      <trkpt lat="43.308087" lon="-6.621703">
        <ele>1053.648</ele>
        <time>1999-07-24T10:28:12Z</time>
      </trkpt>
      <trkpt lat="43.308083" lon="-6.621730">
        <ele>1054.499</ele>
        <time>1999-07-24T10:28:15Z</time>
      </trkpt>
      <trkpt lat="43.308088" lon="-6.621783">
        <ele>1055.423</ele>
        <time>1999-07-24T10:28:20Z</time>
      </trkpt>
      <trkpt lat="43.308086" lon="-6.621818">
        <ele>1056.052</ele>
        <time>1999-07-24T10:28:23Z</time>
      </trkpt>
      <trkpt lat="43.308084" lon="-6.621839">
        <ele>1056.488</ele>
        <time>1999-07-24T10:28:25Z</time>
      </trkpt>
      <trkpt lat="43.308077" lon="-6.621886">
        <ele>1057.410</ele>
        <time>1999-07-24T10:28:30Z</time>
      </trkpt>
      <trkpt lat="43.308074" lon="-6.621900">
        <ele>1057.888</ele>
        <time>1999-07-24T10:28:32Z</time>
      </trkpt>
      <trkpt lat="43.308066" lon="-6.621923">
        <ele>1058.624</ele>
        <time>1999-07-24T10:28:35Z</time>
      </trkpt>
      <trkpt lat="43.308048" lon="-6.621963">
        <ele>1059.626</ele>
        <time>1999-07-24T10:28:40Z</time>
      </trkpt>
      <trkpt lat="43.308039" lon="-6.622001">
        <ele>1060.608</ele>
        <time>1999-07-24T10:28:44Z</time>
      </trkpt>
      <trkpt lat="43.308037" lon="-6.622009">
        <ele>1060.811</ele>
        <time>1999-07-24T10:28:45Z</time>
      </trkpt>
      <trkpt lat="43.308030" lon="-6.622066">
        <ele>1061.687</ele>
        <time>1999-07-24T10:28:52Z</time>
      </trkpt>
      <trkpt lat="43.308029" lon="-6.622072">
        <ele>1061.838</ele>
        <time>1999-07-24T10:28:53Z</time>
      </trkpt>
      <trkpt lat="43.308029" lon="-6.622078">
        <ele>1062.059</ele>
        <time>1999-07-24T10:28:54Z</time>
      </trkpt>
      <trkpt lat="43.308001" lon="-6.622704">
        <ele>1069.853</ele>
        <time>1999-07-24T10:29:42Z</time>
      </trkpt>
      <trkpt lat="43.307990" lon="-6.622756">
        <ele>1070.822</ele>
        <time>1999-07-24T10:29:45Z</time>
      </trkpt>
      <trkpt lat="43.307985" lon="-6.622773">
        <ele>1071.068</ele>
        <time>1999-07-24T10:29:46Z</time>
      </trkpt>
      <trkpt lat="43.307972" lon="-6.622861">
        <ele>1072.010</ele>
        <time>1999-07-24T10:29:51Z</time>
      </trkpt>
      <trkpt lat="43.307974" lon="-6.622874">
        <ele>1072.295</ele>
        <time>1999-07-24T10:29:53Z</time>
      </trkpt>
      <trkpt lat="43.307957" lon="-6.622994">
        <ele>1074.849</ele>
        <time>1999-07-24T10:30:30Z</time>
      </trkpt>
      <trkpt lat="43.307951" lon="-6.623023">
        <ele>1074.823</ele>
        <time>1999-07-24T10:30:31Z</time>
      </trkpt>
      <trkpt lat="43.307947" lon="-6.623053">
        <ele>1075.008</ele>
        <time>1999-07-24T10:30:32Z</time>
      </trkpt>
      <trkpt lat="43.307929" lon="-6.623146">
        <ele>1075.012</ele>
        <time>1999-07-24T10:30:35Z</time>
      </trkpt>
      <trkpt lat="43.307902" lon="-6.623272">
        <ele>1075.618</ele>
        <time>1999-07-24T10:30:39Z</time>
      </trkpt>
      <trkpt lat="43.307894" lon="-6.623302">
        <ele>1075.819</ele>
        <time>1999-07-24T10:30:40Z</time>
      </trkpt>
      <trkpt lat="43.307868" lon="-6.623434">
        <ele>1077.250</ele>
        <time>1999-07-24T10:30:44Z</time>
      </trkpt>
      <trkpt lat="43.307845" lon="-6.623518">
        <ele>1078.014</ele>
        <time>1999-07-24T10:30:47Z</time>
      </trkpt>
      <trkpt lat="43.307826" lon="-6.623616">
        <ele>1079.093</ele>
        <time>1999-07-24T10:30:51Z</time>
      </trkpt>
      <trkpt lat="43.307812" lon="-6.623666">
        <ele>1079.439</ele>
        <time>1999-07-24T10:30:53Z</time>
      </trkpt>
      <trkpt lat="43.307792" lon="-6.623728">
        <ele>1080.081</ele>
        <time>1999-07-24T10:30:56Z</time>
      </trkpt>
      <trkpt lat="43.307759" lon="-6.623838">
        <ele>1081.083</ele>
        <time>1999-07-24T10:31:01Z</time>
      </trkpt>
      <trkpt lat="43.307731" lon="-6.623947">
        <ele>1082.025</ele>
        <time>1999-07-24T10:31:06Z</time>
      </trkpt>
      <trkpt lat="43.307710" lon="-6.624014">
        <ele>1082.617</ele>
        <time>1999-07-24T10:31:09Z</time>
      </trkpt>
      <trkpt lat="43.307696" lon="-6.624057">
        <ele>1083.208</ele>
        <time>1999-07-24T10:31:11Z</time>
      </trkpt>
      <trkpt lat="43.307654" lon="-6.624160">
        <ele>1084.461</ele>
        <time>1999-07-24T10:31:16Z</time>
      </trkpt>
      <trkpt lat="43.307602" lon="-6.624313">
        <ele>1085.627</ele>
        <time>1999-07-24T10:31:24Z</time>
      </trkpt>
      <trkpt lat="43.307578" lon="-6.624392">
        <ele>1086.488</ele>
        <time>1999-07-24T10:31:28Z</time>
      </trkpt>
      <trkpt lat="43.307559" lon="-6.624490">
        <ele>1087.669</ele>
        <time>1999-07-24T10:31:33Z</time>
      </trkpt>
      <trkpt lat="43.307534" lon="-6.624576">
        <ele>1088.663</ele>
        <time>1999-07-24T10:31:37Z</time>
      </trkpt>
      <trkpt lat="43.307494" lon="-6.624661">
        <ele>1089.212</ele>
        <time>1999-07-24T10:31:41Z</time>
      </trkpt>
      <trkpt lat="43.307466" lon="-6.624729">
        <ele>1089.878</ele>
        <time>1999-07-24T10:31:45Z</time>
      </trkpt>
      <trkpt lat="43.307428" lon="-6.624811">
        <ele>1090.670</ele>
        <time>1999-07-24T10:31:50Z</time>
      </trkpt>
      <trkpt lat="43.307399" lon="-6.624915">
        <ele>1091.871</ele>
        <time>1999-07-24T10:31:56Z</time>
      </trkpt>
      <trkpt lat="43.307364" lon="-6.624970">
        <ele>1093.041</ele>
        <time>1999-07-24T10:32:00Z</time>
      </trkpt>
      <trkpt lat="43.307346" lon="-6.624998">
        <ele>1093.215</ele>
        <time>1999-07-24T10:32:02Z</time>
      </trkpt>
      <trkpt lat="43.307324" lon="-6.625041">
        <ele>1094.008</ele>
        <time>1999-07-24T10:32:05Z</time>
      </trkpt>
      <trkpt lat="43.307289" lon="-6.625109">
        <ele>1095.050</ele>
        <time>1999-07-24T10:32:09Z</time>
      </trkpt>
      <trkpt lat="43.307277" lon="-6.625156">
        <ele>1096.496</ele>
        <time>1999-07-24T10:32:12Z</time>
      </trkpt>
      <trkpt lat="43.307256" lon="-6.625213">
        <ele>1097.067</ele>
        <time>1999-07-24T10:32:15Z</time>
      </trkpt>
      <trkpt lat="43.307229" lon="-6.625259">
        <ele>1097.458</ele>
        <time>1999-07-24T10:32:18Z</time>
      </trkpt>
      <trkpt lat="43.307221" lon="-6.625275">
        <ele>1097.652</ele>
        <time>1999-07-24T10:32:19Z</time>
      </trkpt>
      <trkpt lat="43.307199" lon="-6.625330">
        <ele>1098.031</ele>
        <time>1999-07-24T10:32:22Z</time>
      </trkpt>
      <trkpt lat="43.307159" lon="-6.625403">
        <ele>1098.637</ele>
        <time>1999-07-24T10:32:26Z</time>
      </trkpt>
      <trkpt lat="43.307114" lon="-6.625478">
        <ele>1099.299</ele>
        <time>1999-07-24T10:32:30Z</time>
      </trkpt>
      <trkpt lat="43.307102" lon="-6.625497">
        <ele>1099.442</ele>
        <time>1999-07-24T10:32:31Z</time>
      </trkpt>
      <trkpt lat="43.307039" lon="-6.625582">
        <ele>1100.422</ele>
        <time>1999-07-24T10:32:37Z</time>
      </trkpt>
      <trkpt lat="43.306987" lon="-6.625679">
        <ele>1101.614</ele>
        <time>1999-07-24T10:32:43Z</time>
      </trkpt>
      <trkpt lat="43.306973" lon="-6.625708">
        <ele>1102.008</ele>
        <time>1999-07-24T10:32:45Z</time>
      </trkpt>
      <trkpt lat="43.306952" lon="-6.625782">
        <ele>1102.827</ele>
        <time>1999-07-24T10:32:49Z</time>
      </trkpt>
      <trkpt lat="43.306946" lon="-6.625835">
        <ele>1103.243</ele>
        <time>1999-07-24T10:32:52Z</time>
      </trkpt>
      <trkpt lat="43.306960" lon="-6.625885">
        <ele>1103.854</ele>
        <time>1999-07-24T10:32:55Z</time>
      </trkpt>
      <trkpt lat="43.306971" lon="-6.625936">
        <ele>1104.655</ele>
        <time>1999-07-24T10:32:58Z</time>
      </trkpt>
      <trkpt lat="43.306977" lon="-6.625952">
        <ele>1105.069</ele>
        <time>1999-07-24T10:32:59Z</time>
      </trkpt>
      <trkpt lat="43.306985" lon="-6.625963">
        <ele>1105.238</ele>
        <time>1999-07-24T10:33:00Z</time>
      </trkpt>
      <trkpt lat="43.307008" lon="-6.625999">
        <ele>1105.854</ele>
        <time>1999-07-24T10:33:03Z</time>
      </trkpt>
      <trkpt lat="43.307011" lon="-6.626018">
        <ele>1106.246</ele>
        <time>1999-07-24T10:33:04Z</time>
      </trkpt>
      <trkpt lat="43.307028" lon="-6.626086">
        <ele>1106.874</ele>
        <time>1999-07-24T10:33:08Z</time>
      </trkpt>
      <trkpt lat="43.307039" lon="-6.626118">
        <ele>1107.656</ele>
        <time>1999-07-24T10:33:10Z</time>
      </trkpt>
      <trkpt lat="43.307031" lon="-6.626157">
        <ele>1108.221</ele>
        <time>1999-07-24T10:33:12Z</time>
      </trkpt>
      <trkpt lat="43.307028" lon="-6.626221">
        <ele>1108.808</ele>
        <time>1999-07-24T10:33:15Z</time>
      </trkpt>
      <trkpt lat="43.307028" lon="-6.626242">
        <ele>1109.080</ele>
        <time>1999-07-24T10:33:16Z</time>
      </trkpt>
      <trkpt lat="43.307026" lon="-6.626341">
        <ele>1109.866</ele>
        <time>1999-07-24T10:33:21Z</time>
      </trkpt>
      <trkpt lat="43.306981" lon="-6.626383">
        <ele>1110.017</ele>
        <time>1999-07-24T10:33:25Z</time>
      </trkpt>
      <trkpt lat="43.306967" lon="-6.626394">
        <ele>1110.098</ele>
        <time>1999-07-24T10:33:26Z</time>
      </trkpt>
      <trkpt lat="43.306938" lon="-6.626418">
        <ele>1110.422</ele>
        <time>1999-07-24T10:33:28Z</time>
      </trkpt>
      <trkpt lat="43.306893" lon="-6.626458">
        <ele>1110.681</ele>
        <time>1999-07-24T10:33:31Z</time>
      </trkpt>
      <trkpt lat="43.306838" lon="-6.626512">
        <ele>1111.227</ele>
        <time>1999-07-24T10:33:35Z</time>
      </trkpt>
      <trkpt lat="43.306791" lon="-6.626552">
        <ele>1111.839</ele>
        <time>1999-07-24T10:33:38Z</time>
      </trkpt>
      <trkpt lat="43.306759" lon="-6.626583">
        <ele>1112.264</ele>
        <time>1999-07-24T10:33:40Z</time>
      </trkpt>
      <trkpt lat="43.306743" lon="-6.626596">
        <ele>1112.406</ele>
        <time>1999-07-24T10:33:41Z</time>
      </trkpt>
      <trkpt lat="43.306652" lon="-6.626680">
        <ele>1113.416</ele>
        <time>1999-07-24T10:33:47Z</time>
      </trkpt>
      <trkpt lat="43.306559" lon="-6.626778">
        <ele>1114.408</ele>
        <time>1999-07-24T10:33:54Z</time>
      </trkpt>
      <trkpt lat="43.306470" lon="-6.626870">
        <ele>1115.459</ele>
        <time>1999-07-24T10:34:01Z</time>
      </trkpt>
      <trkpt lat="43.306434" lon="-6.626947">
        <ele>1116.635</ele>
        <time>1999-07-24T10:34:05Z</time>
      </trkpt>
      <trkpt lat="43.306410" lon="-6.626975">
        <ele>1117.086</ele>
        <time>1999-07-24T10:34:07Z</time>
      </trkpt>
      <trkpt lat="43.306397" lon="-6.626988">
        <ele>1117.667</ele>
        <time>1999-07-24T10:34:08Z</time>
      </trkpt>
      <trkpt lat="43.306335" lon="-6.627026">
        <ele>1118.681</ele>
        <time>1999-07-24T10:34:13Z</time>
      </trkpt>
      <trkpt lat="43.306312" lon="-6.627047">
        <ele>1119.040</ele>
        <time>1999-07-24T10:34:15Z</time>
      </trkpt>
      <trkpt lat="43.306262" lon="-6.627085">
        <ele>1119.626</ele>
        <time>1999-07-24T10:34:19Z</time>
      </trkpt>
      <trkpt lat="43.306250" lon="-6.627097">
        <ele>1119.628</ele>
        <time>1999-07-24T10:34:20Z</time>
      </trkpt>
      <trkpt lat="43.306212" lon="-6.627144">
        <ele>1120.427</ele>
        <time>1999-07-24T10:34:24Z</time>
      </trkpt>
      <trkpt lat="43.306208" lon="-6.627143">
        <ele>1121.068</ele>
        <time>1999-07-24T10:34:25Z</time>
      </trkpt>
      <trkpt lat="43.306210" lon="-6.627144">
        <ele>1121.614</ele>
        <time>1999-07-24T10:34:27Z</time>
      </trkpt>
      <trkpt lat="43.306182" lon="-6.627218">
        <ele>1123.608</ele>
        <time>1999-07-24T10:37:09Z</time>
      </trkpt>
      <trkpt lat="43.306175" lon="-6.627240">
        <ele>1123.645</ele>
        <time>1999-07-24T10:37:10Z</time>
      </trkpt>
      <trkpt lat="43.306165" lon="-6.627278">
        <ele>1123.831</ele>
        <time>1999-07-24T10:37:12Z</time>
      </trkpt>
      <trkpt lat="43.306140" lon="-6.627316">
        <ele>1123.842</ele>
        <time>1999-07-24T10:37:14Z</time>
      </trkpt>
      <trkpt lat="43.306125" lon="-6.627332">
        <ele>1123.893</ele>
        <time>1999-07-24T10:37:15Z</time>
      </trkpt>
      <trkpt lat="43.306081" lon="-6.627365">
        <ele>1124.097</ele>
        <time>1999-07-24T10:37:18Z</time>
      </trkpt>
      <trkpt lat="43.306048" lon="-6.627410">
        <ele>1124.286</ele>
        <time>1999-07-24T10:37:21Z</time>
      </trkpt>
      <trkpt lat="43.306038" lon="-6.627440">
        <ele>1124.652</ele>
        <time>1999-07-24T10:37:24Z</time>
      </trkpt>
      <trkpt lat="43.305983" lon="-6.627493">
        <ele>1126.434</ele>
        <time>1999-07-24T10:38:42Z</time>
      </trkpt>
      <trkpt lat="43.305969" lon="-6.627513">
        <ele>1126.477</ele>
        <time>1999-07-24T10:38:43Z</time>
      </trkpt>
      <trkpt lat="43.305936" lon="-6.627564">
        <ele>1126.461</ele>
        <time>1999-07-24T10:38:45Z</time>
      </trkpt>
      <trkpt lat="43.305876" lon="-6.627657">
        <ele>1126.227</ele>
        <time>1999-07-24T10:38:48Z</time>
      </trkpt>
      <trkpt lat="43.305835" lon="-6.627719">
        <ele>1126.008</ele>
        <time>1999-07-24T10:38:50Z</time>
      </trkpt>
      <trkpt lat="43.305799" lon="-6.627843">
        <ele>1125.650</ele>
        <time>1999-07-24T10:38:54Z</time>
      </trkpt>
      <trkpt lat="43.305795" lon="-6.627870">
        <ele>1125.696</ele>
        <time>1999-07-24T10:38:55Z</time>
      </trkpt>
      <trkpt lat="43.305787" lon="-6.627958">
        <ele>1125.667</ele>
        <time>1999-07-24T10:38:58Z</time>
      </trkpt>
      <trkpt lat="43.305773" lon="-6.628043">
        <ele>1125.868</ele>
        <time>1999-07-24T10:39:01Z</time>
      </trkpt>
      <trkpt lat="43.305764" lon="-6.628071">
        <ele>1126.082</ele>
        <time>1999-07-24T10:39:02Z</time>
      </trkpt>
      <trkpt lat="43.305740" lon="-6.628159">
        <ele>1126.481</ele>
        <time>1999-07-24T10:39:05Z</time>
      </trkpt>
      <trkpt lat="43.305716" lon="-6.628253">
        <ele>1126.847</ele>
        <time>1999-07-24T10:39:08Z</time>
      </trkpt>
      <trkpt lat="43.305706" lon="-6.628279">
        <ele>1127.049</ele>
        <time>1999-07-24T10:39:09Z</time>
      </trkpt>
      <trkpt lat="43.305674" lon="-6.628362">
        <ele>1127.266</ele>
        <time>1999-07-24T10:39:12Z</time>
      </trkpt>
      <trkpt lat="43.305663" lon="-6.628392">
        <ele>1127.429</ele>
        <time>1999-07-24T10:39:13Z</time>
      </trkpt>
      <trkpt lat="43.305624" lon="-6.628463">
        <ele>1127.821</ele>
        <time>1999-07-24T10:39:16Z</time>
      </trkpt>
      <trkpt lat="43.305575" lon="-6.628556">
        <ele>1128.808</ele>
        <time>1999-07-24T10:39:20Z</time>
      </trkpt>
      <trkpt lat="43.305527" lon="-6.628644">
        <ele>1129.879</ele>
        <time>1999-07-24T10:39:24Z</time>
      </trkpt>
      <trkpt lat="43.305493" lon="-6.628744">
        <ele>1130.035</ele>
        <time>1999-07-24T10:39:29Z</time>
      </trkpt>
      <trkpt lat="43.305435" lon="-6.628902">
        <ele>1130.826</ele>
        <time>1999-07-24T10:39:36Z</time>
      </trkpt>
      <trkpt lat="43.305374" lon="-6.629095">
        <ele>1131.627</ele>
        <time>1999-07-24T10:39:43Z</time>
      </trkpt>
      <trkpt lat="43.305337" lon="-6.629200">
        <ele>1131.891</ele>
        <time>1999-07-24T10:39:46Z</time>
      </trkpt>
      <trkpt lat="43.305298" lon="-6.629294">
        <ele>1132.050</ele>
        <time>1999-07-24T10:39:49Z</time>
      </trkpt>
      <trkpt lat="43.305200" lon="-6.629503">
        <ele>1132.496</ele>
        <time>1999-07-24T10:39:57Z</time>
      </trkpt>
      <trkpt lat="43.305182" lon="-6.629549">
        <ele>1132.848</ele>
        <time>1999-07-24T10:39:59Z</time>
      </trkpt>
      <trkpt lat="43.305126" lon="-6.629675">
        <ele>1133.878</ele>
        <time>1999-07-24T10:40:05Z</time>
      </trkpt>
      <trkpt lat="43.305118" lon="-6.629695">
        <ele>1134.033</ele>
        <time>1999-07-24T10:40:06Z</time>
      </trkpt>
      <trkpt lat="43.305070" lon="-6.629791">
        <ele>1134.426</ele>
        <time>1999-07-24T10:40:11Z</time>
      </trkpt>
      <trkpt lat="43.305035" lon="-6.629858">
        <ele>1135.608</ele>
        <time>1999-07-24T10:40:14Z</time>
      </trkpt>
      <trkpt lat="43.304954" lon="-6.630008">
        <ele>1136.680</ele>
        <time>1999-07-24T10:40:21Z</time>
      </trkpt>
      <trkpt lat="43.304911" lon="-6.630087">
        <ele>1137.026</ele>
        <time>1999-07-24T10:40:25Z</time>
      </trkpt>
      <trkpt lat="43.304873" lon="-6.630168">
        <ele>1137.227</ele>
        <time>1999-07-24T10:40:29Z</time>
      </trkpt>
      <trkpt lat="43.304798" lon="-6.630284">
        <ele>1137.628</ele>
        <time>1999-07-24T10:40:35Z</time>
      </trkpt>
      <trkpt lat="43.304789" lon="-6.630303">
        <ele>1137.842</ele>
        <time>1999-07-24T10:40:36Z</time>
      </trkpt>
      <trkpt lat="43.304703" lon="-6.630410">
        <ele>1138.461</ele>
        <time>1999-07-24T10:40:43Z</time>
      </trkpt>
      <trkpt lat="43.304694" lon="-6.630427">
        <ele>1138.667</ele>
        <time>1999-07-24T10:40:44Z</time>
      </trkpt>
      <trkpt lat="43.304626" lon="-6.630519">
        <ele>1139.439</ele>
        <time>1999-07-24T10:40:50Z</time>
      </trkpt>
      <trkpt lat="43.304604" lon="-6.630547">
        <ele>1139.844</ele>
        <time>1999-07-24T10:40:52Z</time>
      </trkpt>
      <trkpt lat="43.304560" lon="-6.630595">
        <ele>1141.005</ele>
        <time>1999-07-24T10:40:55Z</time>
      </trkpt>
      <trkpt lat="43.304533" lon="-6.630627">
        <ele>1141.215</ele>
        <time>1999-07-24T10:40:57Z</time>
      </trkpt>
      <trkpt lat="43.304484" lon="-6.630687">
        <ele>1141.808</ele>
        <time>1999-07-24T10:41:01Z</time>
      </trkpt>
      <trkpt lat="43.304442" lon="-6.630766">
        <ele>1142.017</ele>
        <time>1999-07-24T10:41:05Z</time>
      </trkpt>
      <trkpt lat="43.304405" lon="-6.630844">
        <ele>1143.283</ele>
        <time>1999-07-24T10:41:09Z</time>
      </trkpt>
      <trkpt lat="43.304339" lon="-6.630950">
        <ele>1143.874</ele>
        <time>1999-07-24T10:41:16Z</time>
      </trkpt>
      <trkpt lat="43.304300" lon="-6.630990">
        <ele>1144.265</ele>
        <time>1999-07-24T10:41:19Z</time>
      </trkpt>
      <trkpt lat="43.304247" lon="-6.631031">
        <ele>1145.069</ele>
        <time>1999-07-24T10:41:23Z</time>
      </trkpt>
      <trkpt lat="43.304235" lon="-6.631041">
        <ele>1145.288</ele>
        <time>1999-07-24T10:41:24Z</time>
      </trkpt>
      <trkpt lat="43.304206" lon="-6.631101">
        <ele>1146.284</ele>
        <time>1999-07-24T10:41:28Z</time>
      </trkpt>
      <trkpt lat="43.304206" lon="-6.631119">
        <ele>1146.466</ele>
        <time>1999-07-24T10:41:29Z</time>
      </trkpt>
      <trkpt lat="43.304203" lon="-6.631171">
        <ele>1146.856</ele>
        <time>1999-07-24T10:41:32Z</time>
      </trkpt>
      <trkpt lat="43.304186" lon="-6.631218">
        <ele>1147.659</ele>
        <time>1999-07-24T10:41:35Z</time>
      </trkpt>
      <trkpt lat="43.304171" lon="-6.631261">
        <ele>1148.614</ele>
        <time>1999-07-24T10:41:37Z</time>
      </trkpt>
      <trkpt lat="43.304161" lon="-6.631283">
        <ele>1148.808</ele>
        <time>1999-07-24T10:41:38Z</time>
      </trkpt>
      <trkpt lat="43.304138" lon="-6.631311">
        <ele>1149.258</ele>
        <time>1999-07-24T10:41:40Z</time>
      </trkpt>
      <trkpt lat="43.304114" lon="-6.631333">
        <ele>1149.864</ele>
        <time>1999-07-24T10:41:42Z</time>
      </trkpt>
      <trkpt lat="43.304104" lon="-6.631343">
        <ele>1150.025</ele>
        <time>1999-07-24T10:41:43Z</time>
      </trkpt>
      <trkpt lat="43.304070" lon="-6.631374">
        <ele>1151.096</ele>
        <time>1999-07-24T10:41:46Z</time>
      </trkpt>
      <trkpt lat="43.304042" lon="-6.631426">
        <ele>1151.470</ele>
        <time>1999-07-24T10:41:49Z</time>
      </trkpt>
      <trkpt lat="43.304020" lon="-6.631456">
        <ele>1152.019</ele>
        <time>1999-07-24T10:41:51Z</time>
      </trkpt>
      <trkpt lat="43.303966" lon="-6.631529">
        <ele>1153.045</ele>
        <time>1999-07-24T10:41:56Z</time>
      </trkpt>
      <trkpt lat="43.303892" lon="-6.631559">
        <ele>1154.287</ele>
        <time>1999-07-24T10:42:01Z</time>
      </trkpt>
      <trkpt lat="43.303876" lon="-6.631565">
        <ele>1154.432</ele>
        <time>1999-07-24T10:42:02Z</time>
      </trkpt>
      <trkpt lat="43.303860" lon="-6.631575">
        <ele>1154.492</ele>
        <time>1999-07-24T10:42:03Z</time>
      </trkpt>
      <trkpt lat="43.303843" lon="-6.631583">
        <ele>1155.211</ele>
        <time>1999-07-24T10:42:04Z</time>
      </trkpt>
      <trkpt lat="43.303780" lon="-6.631648">
        <ele>1156.208</ele>
        <time>1999-07-24T10:42:10Z</time>
      </trkpt>
      <trkpt lat="43.303761" lon="-6.631662">
        <ele>1156.416</ele>
        <time>1999-07-24T10:42:12Z</time>
      </trkpt>
      <trkpt lat="43.303734" lon="-6.631698">
        <ele>1156.862</ele>
        <time>1999-07-24T10:42:15Z</time>
      </trkpt>
      <trkpt lat="43.303726" lon="-6.631760">
        <ele>1157.413</ele>
        <time>1999-07-24T10:42:19Z</time>
      </trkpt>
      <trkpt lat="43.303711" lon="-6.631796">
        <ele>1157.464</ele>
        <time>1999-07-24T10:42:21Z</time>
      </trkpt>
      <trkpt lat="43.303706" lon="-6.631877">
        <ele>1158.458</ele>
        <time>1999-07-24T10:42:25Z</time>
      </trkpt>
      <trkpt lat="43.303703" lon="-6.631961">
        <ele>1159.447</ele>
        <time>1999-07-24T10:42:29Z</time>
      </trkpt>
      <trkpt lat="43.303699" lon="-6.632022">
        <ele>1160.643</ele>
        <time>1999-07-24T10:42:32Z</time>
      </trkpt>
      <trkpt lat="43.303695" lon="-6.632069">
        <ele>1161.655</ele>
        <time>1999-07-24T10:42:36Z</time>
      </trkpt>
      <trkpt lat="43.303694" lon="-6.632067">
        <ele>1161.878</ele>
        <time>1999-07-24T10:42:37Z</time>
      </trkpt>
      <trkpt lat="43.303413" lon="-6.632598">
        <ele>1170.633</ele>
        <time>1999-07-24T10:43:35Z</time>
      </trkpt>
      <trkpt lat="43.303405" lon="-6.632609">
        <ele>1170.626</ele>
        <time>1999-07-24T10:43:36Z</time>
      </trkpt>
      <trkpt lat="43.303391" lon="-6.632631">
        <ele>1171.008</ele>
        <time>1999-07-24T10:43:38Z</time>
      </trkpt>
      <trkpt lat="43.303375" lon="-6.632665">
        <ele>1171.610</ele>
        <time>1999-07-24T10:43:41Z</time>
      </trkpt>
      <trkpt lat="43.303369" lon="-6.632674">
        <ele>1171.896</ele>
        <time>1999-07-24T10:43:42Z</time>
      </trkpt>
      <trkpt lat="43.303357" lon="-6.632693">
        <ele>1172.097</ele>
        <time>1999-07-24T10:43:44Z</time>
      </trkpt>
      <trkpt lat="43.303353" lon="-6.632705">
        <ele>1172.278</ele>
        <time>1999-07-24T10:43:45Z</time>
      </trkpt>
      <trkpt lat="43.303336" lon="-6.632738">
        <ele>1172.862</ele>
        <time>1999-07-24T10:43:48Z</time>
      </trkpt>
      <trkpt lat="43.303329" lon="-6.632748">
        <ele>1173.051</ele>
        <time>1999-07-24T10:43:49Z</time>
      </trkpt>
      <trkpt lat="43.303314" lon="-6.632778">
        <ele>1174.047</ele>
        <time>1999-07-24T10:43:52Z</time>
      </trkpt>
      <trkpt lat="43.303307" lon="-6.632787">
        <ele>1174.259</ele>
        <time>1999-07-24T10:43:53Z</time>
      </trkpt>
      <trkpt lat="43.303273" lon="-6.632842">
        <ele>1175.072</ele>
        <time>1999-07-24T10:43:59Z</time>
      </trkpt>
      <trkpt lat="43.303267" lon="-6.632850">
        <ele>1175.213</ele>
        <time>1999-07-24T10:44:00Z</time>
      </trkpt>
      <trkpt lat="43.303241" lon="-6.632876">
        <ele>1176.414</ele>
        <time>1999-07-24T10:44:04Z</time>
      </trkpt>
      <trkpt lat="43.303217" lon="-6.632891">
        <ele>1177.208</ele>
        <time>1999-07-24T10:44:07Z</time>
      </trkpt>
      <trkpt lat="43.303207" lon="-6.632911">
        <ele>1177.480</ele>
        <time>1999-07-24T10:44:09Z</time>
      </trkpt>
      <trkpt lat="43.303171" lon="-6.632979">
        <ele>1178.646</ele>
        <time>1999-07-24T10:44:15Z</time>
      </trkpt>
      <trkpt lat="43.303124" lon="-6.633027">
        <ele>1179.637</ele>
        <time>1999-07-24T10:44:21Z</time>
      </trkpt>
      <trkpt lat="43.303114" lon="-6.633036">
        <ele>1179.898</ele>
        <time>1999-07-24T10:44:22Z</time>
      </trkpt>
      <trkpt lat="43.303070" lon="-6.633080">
        <ele>1180.672</ele>
        <time>1999-07-24T10:44:27Z</time>
      </trkpt>
      <trkpt lat="43.303030" lon="-6.633114">
        <ele>1181.621</ele>
        <time>1999-07-24T10:44:31Z</time>
      </trkpt>
      <trkpt lat="43.303012" lon="-6.633129">
        <ele>1181.657</ele>
        <time>1999-07-24T10:44:33Z</time>
      </trkpt>
      <trkpt lat="43.302961" lon="-6.633181">
        <ele>1182.649</ele>
        <time>1999-07-24T10:44:39Z</time>
      </trkpt>
      <trkpt lat="43.302951" lon="-6.633188">
        <ele>1182.838</ele>
        <time>1999-07-24T10:44:40Z</time>
      </trkpt>
      <trkpt lat="43.302932" lon="-6.633217">
        <ele>1183.470</ele>
        <time>1999-07-24T10:44:43Z</time>
      </trkpt>
      <trkpt lat="43.302926" lon="-6.633248">
        <ele>1183.817</ele>
        <time>1999-07-24T10:44:46Z</time>
      </trkpt>
      <trkpt lat="43.302925" lon="-6.633255">
        <ele>1184.208</ele>
        <time>1999-07-24T10:44:47Z</time>
      </trkpt>
      <trkpt lat="43.302923" lon="-6.633259">
        <ele>1184.456</ele>
        <time>1999-07-24T10:44:49Z</time>
      </trkpt>
      <trkpt lat="43.302886" lon="-6.633227">
        <ele>1184.672</ele>
        <time>1999-07-24T10:48:38Z</time>
      </trkpt>
      <trkpt lat="43.302864" lon="-6.633221">
        <ele>1184.683</ele>
        <time>1999-07-24T10:48:39Z</time>
      </trkpt>
      <trkpt lat="43.302778" lon="-6.633215">
        <ele>1184.664</ele>
        <time>1999-07-24T10:48:42Z</time>
      </trkpt>
      <trkpt lat="43.302719" lon="-6.633207">
        <ele>1184.698</ele>
        <time>1999-07-24T10:48:44Z</time>
      </trkpt>
      <trkpt lat="43.302686" lon="-6.633200">
        <ele>1184.697</ele>
        <time>1999-07-24T10:48:45Z</time>
      </trkpt>
      <trkpt lat="43.302496" lon="-6.633150">
        <ele>1184.663</ele>
        <time>1999-07-24T10:48:50Z</time>
      </trkpt>
      <trkpt lat="43.302352" lon="-6.633140">
        <ele>1184.625</ele>
        <time>1999-07-24T10:48:53Z</time>
      </trkpt>
      <trkpt lat="43.302254" lon="-6.633161">
        <ele>1184.644</ele>
        <time>1999-07-24T10:48:55Z</time>
      </trkpt>
      <trkpt lat="43.302157" lon="-6.633174">
        <ele>1184.605</ele>
        <time>1999-07-24T10:48:57Z</time>
      </trkpt>
      <trkpt lat="43.302006" lon="-6.633193">
        <ele>1184.615</ele>
        <time>1999-07-24T10:49:00Z</time>
      </trkpt>
      <trkpt lat="43.301959" lon="-6.633190">
        <ele>1184.608</ele>
        <time>1999-07-24T10:49:01Z</time>
      </trkpt>
      <trkpt lat="43.301811" lon="-6.633167">
        <ele>1184.287</ele>
        <time>1999-07-24T10:49:05Z</time>
      </trkpt>
      <trkpt lat="43.301632" lon="-6.633199">
        <ele>1184.063</ele>
        <time>1999-07-24T10:49:10Z</time>
      </trkpt>
      <trkpt lat="43.301528" lon="-6.633237">
        <ele>1183.434</ele>
        <time>1999-07-24T10:49:13Z</time>
      </trkpt>
      <trkpt lat="43.301453" lon="-6.633289">
        <ele>1182.855</ele>
        <time>1999-07-24T10:49:16Z</time>
      </trkpt>
      <trkpt lat="43.301338" lon="-6.633311">
        <ele>1182.699</ele>
        <time>1999-07-24T10:49:20Z</time>
      </trkpt>
      <trkpt lat="43.301309" lon="-6.633327">
        <ele>1182.618</ele>
        <time>1999-07-24T10:49:21Z</time>
      </trkpt>
      <trkpt lat="43.301160" lon="-6.633440">
        <ele>1182.444</ele>
        <time>1999-07-24T10:49:26Z</time>
      </trkpt>
      <trkpt lat="43.301130" lon="-6.633465">
        <ele>1182.256</ele>
        <time>1999-07-24T10:49:27Z</time>
      </trkpt>
      <trkpt lat="43.300970" lon="-6.633558">
        <ele>1182.012</ele>
        <time>1999-07-24T10:49:32Z</time>
      </trkpt>
      <trkpt lat="43.300884" lon="-6.633620">
        <ele>1182.032</ele>
        <time>1999-07-24T10:49:35Z</time>
      </trkpt>
      <trkpt lat="43.300773" lon="-6.633717">
        <ele>1182.005</ele>
        <time>1999-07-24T10:49:39Z</time>
      </trkpt>
      <trkpt lat="43.300753" lon="-6.633743">
        <ele>1182.008</ele>
        <time>1999-07-24T10:49:40Z</time>
      </trkpt>
      <trkpt lat="43.300690" lon="-6.633860">
        <ele>1181.884</ele>
        <time>1999-07-24T10:49:45Z</time>
      </trkpt>
      <trkpt lat="43.300623" lon="-6.633967">
        <ele>1181.630</ele>
        <time>1999-07-24T10:49:48Z</time>
      </trkpt>
      <trkpt lat="43.300569" lon="-6.634078">
        <ele>1181.681</ele>
        <time>1999-07-24T10:49:50Z</time>
      </trkpt>
      <trkpt lat="43.300510" lon="-6.634188">
        <ele>1181.692</ele>
        <time>1999-07-24T10:49:52Z</time>
      </trkpt>
      <trkpt lat="43.300433" lon="-6.634354">
        <ele>1181.696</ele>
        <time>1999-07-24T10:49:55Z</time>
      </trkpt>
      <trkpt lat="43.300412" lon="-6.634412">
        <ele>1181.485</ele>
        <time>1999-07-24T10:49:56Z</time>
      </trkpt>
      <trkpt lat="43.300353" lon="-6.634573">
        <ele>1181.421</ele>
        <time>1999-07-24T10:49:59Z</time>
      </trkpt>
      <trkpt lat="43.300316" lon="-6.634724">
        <ele>1181.443</ele>
        <time>1999-07-24T10:50:02Z</time>
      </trkpt>
      <trkpt lat="43.300278" lon="-6.634946">
        <ele>1180.888</ele>
        <time>1999-07-24T10:50:06Z</time>
      </trkpt>
      <trkpt lat="43.300265" lon="-6.635002">
        <ele>1180.824</ele>
        <time>1999-07-24T10:50:07Z</time>
      </trkpt>
      <trkpt lat="43.300247" lon="-6.635057">
        <ele>1180.826</ele>
        <time>1999-07-24T10:50:08Z</time>
      </trkpt>
      <trkpt lat="43.300234" lon="-6.635113">
        <ele>1180.808</ele>
        <time>1999-07-24T10:50:09Z</time>
      </trkpt>
      <trkpt lat="43.300249" lon="-6.635286">
        <ele>1180.261</ele>
        <time>1999-07-24T10:50:12Z</time>
      </trkpt>
      <trkpt lat="43.300264" lon="-6.635394">
        <ele>1179.877</ele>
        <time>1999-07-24T10:50:14Z</time>
      </trkpt>
      <trkpt lat="43.300265" lon="-6.635575">
        <ele>1179.468</ele>
        <time>1999-07-24T10:50:17Z</time>
      </trkpt>
      <trkpt lat="43.300270" lon="-6.635842">
        <ele>1179.079</ele>
        <time>1999-07-24T10:50:21Z</time>
      </trkpt>
      <trkpt lat="43.300275" lon="-6.635914">
        <ele>1178.863</ele>
        <time>1999-07-24T10:50:22Z</time>
      </trkpt>
      <trkpt lat="43.300284" lon="-6.635988">
        <ele>1178.872</ele>
        <time>1999-07-24T10:50:23Z</time>
      </trkpt>
      <trkpt lat="43.300324" lon="-6.636198">
        <ele>1178.248</ele>
        <time>1999-07-24T10:50:26Z</time>
      </trkpt>
      <trkpt lat="43.300342" lon="-6.636333">
        <ele>1177.840</ele>
        <time>1999-07-24T10:50:28Z</time>
      </trkpt>
      <trkpt lat="43.300390" lon="-6.636611">
        <ele>1176.656</ele>
        <time>1999-07-24T10:50:32Z</time>
      </trkpt>
      <trkpt lat="43.300425" lon="-6.636823">
        <ele>1175.859</ele>
        <time>1999-07-24T10:50:35Z</time>
      </trkpt>
      <trkpt lat="43.300437" lon="-6.636890">
        <ele>1175.414</ele>
        <time>1999-07-24T10:50:36Z</time>
      </trkpt>
      <trkpt lat="43.300466" lon="-6.637075">
        <ele>1174.008</ele>
        <time>1999-07-24T10:50:39Z</time>
      </trkpt>
      <trkpt lat="43.300471" lon="-6.637206">
        <ele>1173.478</ele>
        <time>1999-07-24T10:50:41Z</time>
      </trkpt>
      <trkpt lat="43.300478" lon="-6.637360">
        <ele>1173.434</ele>
        <time>1999-07-24T10:50:43Z</time>
      </trkpt>
      <trkpt lat="43.300488" lon="-6.637440">
        <ele>1173.095</ele>
        <time>1999-07-24T10:50:44Z</time>
      </trkpt>
      <trkpt lat="43.300498" lon="-6.637524">
        <ele>1173.096</ele>
        <time>1999-07-24T10:50:45Z</time>
      </trkpt>
      <trkpt lat="43.300532" lon="-6.637763">
        <ele>1172.850</ele>
        <time>1999-07-24T10:50:48Z</time>
      </trkpt>
      <trkpt lat="43.300557" lon="-6.637841">
        <ele>1172.679</ele>
        <time>1999-07-24T10:50:49Z</time>
      </trkpt>
      <trkpt lat="43.300611" lon="-6.637997">
        <ele>1171.855</ele>
        <time>1999-07-24T10:50:51Z</time>
      </trkpt>
      <trkpt lat="43.300639" lon="-6.638149">
        <ele>1171.237</ele>
        <time>1999-07-24T10:50:53Z</time>
      </trkpt>
      <trkpt lat="43.300682" lon="-6.638276">
        <ele>1170.423</ele>
        <time>1999-07-24T10:50:55Z</time>
      </trkpt>
      <trkpt lat="43.300735" lon="-6.638368">
        <ele>1169.083</ele>
        <time>1999-07-24T10:50:57Z</time>
      </trkpt>
      <trkpt lat="43.300753" lon="-6.638479">
        <ele>1168.211</ele>
        <time>1999-07-24T10:51:00Z</time>
      </trkpt>
      <trkpt lat="43.300753" lon="-6.638519">
        <ele>1168.208</ele>
        <time>1999-07-24T10:51:01Z</time>
      </trkpt>
      <trkpt lat="43.300737" lon="-6.638717">
        <ele>1167.825</ele>
        <time>1999-07-24T10:51:05Z</time>
      </trkpt>
      <trkpt lat="43.300726" lon="-6.638782">
        <ele>1167.661</ele>
        <time>1999-07-24T10:51:06Z</time>
      </trkpt>
      <trkpt lat="43.300713" lon="-6.638933">
        <ele>1167.472</ele>
        <time>1999-07-24T10:51:08Z</time>
      </trkpt>
      <trkpt lat="43.300728" lon="-6.639085">
        <ele>1167.433</ele>
        <time>1999-07-24T10:51:10Z</time>
      </trkpt>
      <trkpt lat="43.300797" lon="-6.639345">
        <ele>1166.847</ele>
        <time>1999-07-24T10:51:14Z</time>
      </trkpt>
      <trkpt lat="43.300808" lon="-6.639407">
        <ele>1166.476</ele>
        <time>1999-07-24T10:51:15Z</time>
      </trkpt>
      <trkpt lat="43.300826" lon="-6.639519">
        <ele>1165.252</ele>
        <time>1999-07-24T10:51:17Z</time>
      </trkpt>
      <trkpt lat="43.300865" lon="-6.639649">
        <ele>1164.424</ele>
        <time>1999-07-24T10:51:20Z</time>
      </trkpt>
      <trkpt lat="43.300894" lon="-6.639808">
        <ele>1164.088</ele>
        <time>1999-07-24T10:51:24Z</time>
      </trkpt>
      <trkpt lat="43.300902" lon="-6.639848">
        <ele>1164.024</ele>
        <time>1999-07-24T10:51:25Z</time>
      </trkpt>
      <trkpt lat="43.300926" lon="-6.639919">
        <ele>1163.826</ele>
        <time>1999-07-24T10:51:27Z</time>
      </trkpt>
      <trkpt lat="43.300978" lon="-6.640093">
        <ele>1163.808</ele>
        <time>1999-07-24T10:51:33Z</time>
      </trkpt>
      <trkpt lat="43.301007" lon="-6.640220">
        <ele>1164.281</ele>
        <time>1999-07-24T10:51:37Z</time>
      </trkpt>
      <trkpt lat="43.301023" lon="-6.640299">
        <ele>1164.467</ele>
        <time>1999-07-24T10:51:40Z</time>
      </trkpt>
      <trkpt lat="43.301033" lon="-6.640369">
        <ele>1165.038</ele>
        <time>1999-07-24T10:51:43Z</time>
      </trkpt>
      <trkpt lat="43.301030" lon="-6.640474">
        <ele>1165.459</ele>
        <time>1999-07-24T10:51:47Z</time>
      </trkpt>
      <trkpt lat="43.301021" lon="-6.640588">
        <ele>1165.843</ele>
        <time>1999-07-24T10:51:51Z</time>
      </trkpt>
      <trkpt lat="43.301020" lon="-6.640665">
        <ele>1166.242</ele>
        <time>1999-07-24T10:51:54Z</time>
      </trkpt>
      <trkpt lat="43.301016" lon="-6.640813">
        <ele>1166.878</ele>
        <time>1999-07-24T10:52:01Z</time>
      </trkpt>
      <trkpt lat="43.301014" lon="-6.640836">
        <ele>1166.890</ele>
        <time>1999-07-24T10:52:02Z</time>
      </trkpt>
      <trkpt lat="43.300958" lon="-6.640967">
        <ele>1168.054</ele>
        <time>1999-07-24T10:52:08Z</time>
      </trkpt>
      <trkpt lat="43.300899" lon="-6.641157">
        <ele>1169.056</ele>
        <time>1999-07-24T10:52:17Z</time>
      </trkpt>
      <trkpt lat="43.300895" lon="-6.641181">
        <ele>1169.211</ele>
        <time>1999-07-24T10:52:18Z</time>
      </trkpt>
      <trkpt lat="43.300881" lon="-6.641272">
        <ele>1170.008</ele>
        <time>1999-07-24T10:52:22Z</time>
      </trkpt>
      <trkpt lat="43.300874" lon="-6.641293">
        <ele>1170.258</ele>
        <time>1999-07-24T10:52:23Z</time>
      </trkpt>
      <trkpt lat="43.300856" lon="-6.641361">
        <ele>1170.894</ele>
        <time>1999-07-24T10:52:26Z</time>
      </trkpt>
      <trkpt lat="43.300851" lon="-6.641386">
        <ele>1171.265</ele>
        <time>1999-07-24T10:52:27Z</time>
      </trkpt>
      <trkpt lat="43.300831" lon="-6.641525">
        <ele>1172.086</ele>
        <time>1999-07-24T10:52:33Z</time>
      </trkpt>
      <trkpt lat="43.300831" lon="-6.641548">
        <ele>1172.270</ele>
        <time>1999-07-24T10:52:34Z</time>
      </trkpt>
      <trkpt lat="43.300810" lon="-6.641662">
        <ele>1173.449</ele>
        <time>1999-07-24T10:52:39Z</time>
      </trkpt>
      <trkpt lat="43.300806" lon="-6.641686">
        <ele>1173.435</ele>
        <time>1999-07-24T10:52:40Z</time>
      </trkpt>
      <trkpt lat="43.300765" lon="-6.641870">
        <ele>1174.457</ele>
        <time>1999-07-24T10:52:48Z</time>
      </trkpt>
      <trkpt lat="43.300763" lon="-6.641893">
        <ele>1174.495</ele>
        <time>1999-07-24T10:52:49Z</time>
      </trkpt>
      <trkpt lat="43.300741" lon="-6.642006">
        <ele>1175.449</ele>
        <time>1999-07-24T10:52:54Z</time>
      </trkpt>
      <trkpt lat="43.300739" lon="-6.642032">
        <ele>1175.623</ele>
        <time>1999-07-24T10:52:55Z</time>
      </trkpt>
      <trkpt lat="43.300724" lon="-6.642178">
        <ele>1176.408</ele>
        <time>1999-07-24T10:53:01Z</time>
      </trkpt>
      <trkpt lat="43.300725" lon="-6.642202">
        <ele>1176.632</ele>
        <time>1999-07-24T10:53:02Z</time>
      </trkpt>
      <trkpt lat="43.300720" lon="-6.642325">
        <ele>1177.898</ele>
        <time>1999-07-24T10:53:07Z</time>
      </trkpt>
      <trkpt lat="43.300713" lon="-6.642376">
        <ele>1178.439</ele>
        <time>1999-07-24T10:53:09Z</time>
      </trkpt>
      <trkpt lat="43.300714" lon="-6.642481">
        <ele>1178.690</ele>
        <time>1999-07-24T10:53:13Z</time>
      </trkpt>
      <trkpt lat="43.300722" lon="-6.642586">
        <ele>1179.424</ele>
        <time>1999-07-24T10:53:17Z</time>
      </trkpt>
      <trkpt lat="43.300720" lon="-6.642643">
        <ele>1179.853</ele>
        <time>1999-07-24T10:53:19Z</time>
      </trkpt>
      <trkpt lat="43.300721" lon="-6.642794">
        <ele>1180.469</ele>
        <time>1999-07-24T10:53:24Z</time>
      </trkpt>
      <trkpt lat="43.300726" lon="-6.642883">
        <ele>1180.841</ele>
        <time>1999-07-24T10:53:27Z</time>
      </trkpt>
      <trkpt lat="43.300726" lon="-6.643060">
        <ele>1181.639</ele>
        <time>1999-07-24T10:53:33Z</time>
      </trkpt>
      <trkpt lat="43.300725" lon="-6.643089">
        <ele>1182.001</ele>
        <time>1999-07-24T10:53:34Z</time>
      </trkpt>
      <trkpt lat="43.300733" lon="-6.643227">
        <ele>1183.021</ele>
        <time>1999-07-24T10:53:39Z</time>
      </trkpt>
      <trkpt lat="43.300733" lon="-6.643255">
        <ele>1183.408</ele>
        <time>1999-07-24T10:53:40Z</time>
      </trkpt>
      <trkpt lat="43.300738" lon="-6.643344">
        <ele>1184.096</ele>
        <time>1999-07-24T10:53:43Z</time>
      </trkpt>
      <trkpt lat="43.300744" lon="-6.643466">
        <ele>1185.032</ele>
        <time>1999-07-24T10:53:47Z</time>
      </trkpt>
      <trkpt lat="43.300747" lon="-6.643497">
        <ele>1185.293</ele>
        <time>1999-07-24T10:53:48Z</time>
      </trkpt>
      <trkpt lat="43.300746" lon="-6.643667">
        <ele>1186.424</ele>
        <time>1999-07-24T10:53:53Z</time>
      </trkpt>
      <trkpt lat="43.300745" lon="-6.643704">
        <ele>1186.638</ele>
        <time>1999-07-24T10:53:54Z</time>
      </trkpt>
      <trkpt lat="43.300730" lon="-6.643966">
        <ele>1187.457</ele>
        <time>1999-07-24T10:54:00Z</time>
      </trkpt>
      <trkpt lat="43.300730" lon="-6.644060">
        <ele>1187.833</ele>
        <time>1999-07-24T10:54:02Z</time>
      </trkpt>
      <trkpt lat="43.300725" lon="-6.644312">
        <ele>1188.245</ele>
        <time>1999-07-24T10:54:08Z</time>
      </trkpt>
      <trkpt lat="43.300725" lon="-6.644421">
        <ele>1188.636</ele>
        <time>1999-07-24T10:54:12Z</time>
      </trkpt>
      <trkpt lat="43.300731" lon="-6.644480">
        <ele>1188.617</ele>
        <time>1999-07-24T10:54:14Z</time>
      </trkpt>
      <trkpt lat="43.300754" lon="-6.644608">
        <ele>1189.218</ele>
        <time>1999-07-24T10:54:18Z</time>
      </trkpt>
      <trkpt lat="43.300769" lon="-6.644670">
        <ele>1189.408</ele>
        <time>1999-07-24T10:54:20Z</time>
      </trkpt>
      <trkpt lat="43.300779" lon="-6.644728">
        <ele>1189.886</ele>
        <time>1999-07-24T10:54:22Z</time>
      </trkpt>
      <trkpt lat="43.300782" lon="-6.644760">
        <ele>1190.262</ele>
        <time>1999-07-24T10:54:23Z</time>
      </trkpt>
      <trkpt lat="43.300784" lon="-6.644796">
        <ele>1190.673</ele>
        <time>1999-07-24T10:54:24Z</time>
      </trkpt>
      <trkpt lat="43.300765" lon="-6.644897">
        <ele>1191.254</ele>
        <time>1999-07-24T10:54:26Z</time>
      </trkpt>
      <trkpt lat="43.300758" lon="-6.644951">
        <ele>1191.818</ele>
        <time>1999-07-24T10:54:27Z</time>
      </trkpt>
      <trkpt lat="43.300754" lon="-6.644993">
        <ele>1192.037</ele>
        <time>1999-07-24T10:54:29Z</time>
      </trkpt>
      <trkpt lat="43.300753" lon="-6.644995">
        <ele>1192.043</ele>
        <time>1999-07-24T10:54:30Z</time>
      </trkpt>
      <trkpt lat="43.300750" lon="-6.645037">
        <ele>1191.295</ele>
        <time>1999-07-24T10:54:44Z</time>
      </trkpt>
      <trkpt lat="43.300750" lon="-6.645072">
        <ele>1191.233</ele>
        <time>1999-07-24T10:54:45Z</time>
      </trkpt>
      <trkpt lat="43.300750" lon="-6.645153">
        <ele>1191.223</ele>
        <time>1999-07-24T10:54:47Z</time>
      </trkpt>
      <trkpt lat="43.300769" lon="-6.645339">
        <ele>1191.015</ele>
        <time>1999-07-24T10:54:51Z</time>
      </trkpt>
      <trkpt lat="43.300787" lon="-6.645557">
        <ele>1190.808</ele>
        <time>1999-07-24T10:54:55Z</time>
      </trkpt>
      <trkpt lat="43.300796" lon="-6.645612">
        <ele>1190.876</ele>
        <time>1999-07-24T10:54:56Z</time>
      </trkpt>
      <trkpt lat="43.300809" lon="-6.645666">
        <ele>1190.632</ele>
        <time>1999-07-24T10:54:57Z</time>
      </trkpt>
      <trkpt lat="43.300880" lon="-6.645919">
        <ele>1190.443</ele>
        <time>1999-07-24T10:55:02Z</time>
      </trkpt>
      <trkpt lat="43.300884" lon="-6.645979">
        <ele>1190.474</ele>
        <time>1999-07-24T10:55:03Z</time>
      </trkpt>
      <trkpt lat="43.300872" lon="-6.646130">
        <ele>1190.848</ele>
        <time>1999-07-24T10:55:05Z</time>
      </trkpt>
      <trkpt lat="43.300869" lon="-6.646315">
        <ele>1190.847</ele>
        <time>1999-07-24T10:55:07Z</time>
      </trkpt>
      <trkpt lat="43.300886" lon="-6.646494">
        <ele>1191.033</ele>
        <time>1999-07-24T10:55:09Z</time>
      </trkpt>
      <trkpt lat="43.300912" lon="-6.646858">
        <ele>1191.295</ele>
        <time>1999-07-24T10:55:14Z</time>
      </trkpt>
      <trkpt lat="43.300911" lon="-6.647038">
        <ele>1191.493</ele>
        <time>1999-07-24T10:55:17Z</time>
      </trkpt>
      <trkpt lat="43.300913" lon="-6.647093">
        <ele>1191.465</ele>
        <time>1999-07-24T10:55:18Z</time>
      </trkpt>
      <trkpt lat="43.300925" lon="-6.647205">
        <ele>1191.421</ele>
        <time>1999-07-24T10:55:20Z</time>
      </trkpt>
      <trkpt lat="43.300952" lon="-6.647305">
        <ele>1191.408</ele>
        <time>1999-07-24T10:55:22Z</time>
      </trkpt>
      <trkpt lat="43.300969" lon="-6.647350">
        <ele>1191.842</ele>
        <time>1999-07-24T10:55:23Z</time>
      </trkpt>
      <trkpt lat="43.301011" lon="-6.647439">
        <ele>1192.828</ele>
        <time>1999-07-24T10:55:25Z</time>
      </trkpt>
      <trkpt lat="43.301057" lon="-6.647533">
        <ele>1193.889</ele>
        <time>1999-07-24T10:55:27Z</time>
      </trkpt>
      <trkpt lat="43.301081" lon="-6.647575">
        <ele>1194.480</ele>
        <time>1999-07-24T10:55:28Z</time>
      </trkpt>
      <trkpt lat="43.301153" lon="-6.647660">
        <ele>1195.684</ele>
        <time>1999-07-24T10:55:31Z</time>
      </trkpt>
      <trkpt lat="43.301200" lon="-6.647681">
        <ele>1196.893</ele>
        <time>1999-07-24T10:55:33Z</time>
      </trkpt>
      <trkpt lat="43.301260" lon="-6.647715">
        <ele>1198.029</ele>
        <time>1999-07-24T10:55:36Z</time>
      </trkpt>
      <trkpt lat="43.301278" lon="-6.647742">
        <ele>1198.241</ele>
        <time>1999-07-24T10:55:40Z</time>
      </trkpt>
      <trkpt lat="43.301330" lon="-6.647756">
        <ele>1199.481</ele>
        <time>1999-07-24T11:09:04Z</time>
      </trkpt>
      <trkpt lat="43.301356" lon="-6.647778">
        <ele>1199.461</ele>
        <time>1999-07-24T11:09:05Z</time>
      </trkpt>
      <trkpt lat="43.301385" lon="-6.647812">
        <ele>1199.417</ele>
        <time>1999-07-24T11:09:06Z</time>
      </trkpt>
      <trkpt lat="43.301509" lon="-6.647973">
        <ele>1199.408</ele>
        <time>1999-07-24T11:09:10Z</time>
      </trkpt>
      <trkpt lat="43.301624" lon="-6.648056">
        <ele>1198.811</ele>
        <time>1999-07-24T11:09:14Z</time>
      </trkpt>
      <trkpt lat="43.301683" lon="-6.648081">
        <ele>1198.477</ele>
        <time>1999-07-24T11:09:16Z</time>
      </trkpt>
      <trkpt lat="43.301726" lon="-6.648091">
        <ele>1197.238</ele>
        <time>1999-07-24T11:09:18Z</time>
      </trkpt>
      <trkpt lat="43.301740" lon="-6.648088">
        <ele>1195.699</ele>
        <time>1999-07-24T11:09:19Z</time>
      </trkpt>
      <trkpt lat="43.301755" lon="-6.648086">
        <ele>1194.613</ele>
        <time>1999-07-24T11:09:21Z</time>
      </trkpt>
      <trkpt lat="43.301756" lon="-6.648084">
        <ele>1194.242</ele>
        <time>1999-07-24T11:09:22Z</time>
      </trkpt>
      <trkpt lat="43.301814" lon="-6.648176">
        <ele>1190.658</ele>
        <time>1999-07-24T11:09:43Z</time>
      </trkpt>
      <trkpt lat="43.301877" lon="-6.648263">
        <ele>1190.020</ele>
        <time>1999-07-24T11:09:49Z</time>
      </trkpt>
      <trkpt lat="43.301883" lon="-6.648263">
        <ele>1189.227</ele>
        <time>1999-07-24T11:09:51Z</time>
      </trkpt>
      <trkpt lat="43.301927" lon="-6.648333">
        <ele>1186.268</ele>
        <time>1999-07-24T11:09:58Z</time>
      </trkpt>
      <trkpt lat="43.301941" lon="-6.648344">
        <ele>1186.014</ele>
        <time>1999-07-24T11:09:59Z</time>
      </trkpt>
      <trkpt lat="43.301987" lon="-6.648424">
        <ele>1185.608</ele>
        <time>1999-07-24T11:10:02Z</time>
      </trkpt>
      <trkpt lat="43.302009" lon="-6.648470">
        <ele>1185.415</ele>
        <time>1999-07-24T11:10:03Z</time>
      </trkpt>
      <trkpt lat="43.302032" lon="-6.648521">
        <ele>1185.271</ele>
        <time>1999-07-24T11:10:04Z</time>
      </trkpt>
      <trkpt lat="43.302062" lon="-6.648573">
        <ele>1185.032</ele>
        <time>1999-07-24T11:10:05Z</time>
      </trkpt>
      <trkpt lat="43.302180" lon="-6.648736">
        <ele>1184.023</ele>
        <time>1999-07-24T11:10:08Z</time>
      </trkpt>
      <trkpt lat="43.302317" lon="-6.648868">
        <ele>1182.667</ele>
        <time>1999-07-24T11:10:11Z</time>
      </trkpt>
      <trkpt lat="43.302354" lon="-6.648896">
        <ele>1182.246</ele>
        <time>1999-07-24T11:10:12Z</time>
      </trkpt>
      <trkpt lat="43.302389" lon="-6.648917">
        <ele>1181.442</ele>
        <time>1999-07-24T11:10:13Z</time>
      </trkpt>
      <trkpt lat="43.302424" lon="-6.648946">
        <ele>1180.224</ele>
        <time>1999-07-24T11:10:14Z</time>
      </trkpt>
      <trkpt lat="43.302494" lon="-6.649045">
        <ele>1178.852</ele>
        <time>1999-07-24T11:10:16Z</time>
      </trkpt>
      <trkpt lat="43.302544" lon="-6.649099">
        <ele>1177.053</ele>
        <time>1999-07-24T11:10:17Z</time>
      </trkpt>
      <trkpt lat="43.302651" lon="-6.649187">
        <ele>1175.008</ele>
        <time>1999-07-24T11:10:19Z</time>
      </trkpt>
      <trkpt lat="43.302695" lon="-6.649225">
        <ele>1174.008</ele>
        <time>1999-07-24T11:10:20Z</time>
      </trkpt>
      <trkpt lat="43.302728" lon="-6.649264">
        <ele>1173.038</ele>
        <time>1999-07-24T11:10:21Z</time>
      </trkpt>
      <trkpt lat="43.302752" lon="-6.649300">
        <ele>1172.684</ele>
        <time>1999-07-24T11:10:22Z</time>
      </trkpt>
      <trkpt lat="43.302792" lon="-6.649364">
        <ele>1171.665</ele>
        <time>1999-07-24T11:10:24Z</time>
      </trkpt>
      <trkpt lat="43.302814" lon="-6.649396">
        <ele>1171.056</ele>
        <time>1999-07-24T11:10:25Z</time>
      </trkpt>
      <trkpt lat="43.302848" lon="-6.649470">
        <ele>1169.480</ele>
        <time>1999-07-24T11:10:27Z</time>
      </trkpt>
      <trkpt lat="43.302881" lon="-6.649557">
        <ele>1168.089</ele>
        <time>1999-07-24T11:10:29Z</time>
      </trkpt>
      <trkpt lat="43.302937" lon="-6.649657">
        <ele>1166.895</ele>
        <time>1999-07-24T11:10:31Z</time>
      </trkpt>
      <trkpt lat="43.302987" lon="-6.649752">
        <ele>1165.667</ele>
        <time>1999-07-24T11:10:33Z</time>
      </trkpt>
      <trkpt lat="43.303017" lon="-6.649795">
        <ele>1165.245</ele>
        <time>1999-07-24T11:10:34Z</time>
      </trkpt>
      <trkpt lat="43.303050" lon="-6.649840">
        <ele>1164.647</ele>
        <time>1999-07-24T11:10:35Z</time>
      </trkpt>
      <trkpt lat="43.303148" lon="-6.650007">
        <ele>1163.411</ele>
        <time>1999-07-24T11:10:38Z</time>
      </trkpt>
      <trkpt lat="43.303184" lon="-6.650082">
        <ele>1163.008</ele>
        <time>1999-07-24T11:10:39Z</time>
      </trkpt>
      <trkpt lat="43.303226" lon="-6.650164">
        <ele>1162.627</ele>
        <time>1999-07-24T11:10:40Z</time>
      </trkpt>
      <trkpt lat="43.303275" lon="-6.650248">
        <ele>1162.223</ele>
        <time>1999-07-24T11:10:41Z</time>
      </trkpt>
      <trkpt lat="43.303382" lon="-6.650412">
        <ele>1161.224</ele>
        <time>1999-07-24T11:10:43Z</time>
      </trkpt>
      <trkpt lat="43.303424" lon="-6.650502">
        <ele>1160.695</ele>
        <time>1999-07-24T11:10:44Z</time>
      </trkpt>
      <trkpt lat="43.303457" lon="-6.650590">
        <ele>1160.039</ele>
        <time>1999-07-24T11:10:45Z</time>
      </trkpt>
      <trkpt lat="43.303488" lon="-6.650666">
        <ele>1159.668</ele>
        <time>1999-07-24T11:10:46Z</time>
      </trkpt>
      <trkpt lat="43.303516" lon="-6.650731">
        <ele>1158.654</ele>
        <time>1999-07-24T11:10:47Z</time>
      </trkpt>
      <trkpt lat="43.303540" lon="-6.650796">
        <ele>1157.856</ele>
        <time>1999-07-24T11:10:48Z</time>
      </trkpt>
      <trkpt lat="43.303565" lon="-6.650867">
        <ele>1157.426</ele>
        <time>1999-07-24T11:10:49Z</time>
      </trkpt>
      <trkpt lat="43.303593" lon="-6.650941">
        <ele>1156.847</ele>
        <time>1999-07-24T11:10:50Z</time>
      </trkpt>
      <trkpt lat="43.303664" lon="-6.651089">
        <ele>1156.011</ele>
        <time>1999-07-24T11:10:52Z</time>
      </trkpt>
      <trkpt lat="43.303694" lon="-6.651159">
        <ele>1155.808</ele>
        <time>1999-07-24T11:10:53Z</time>
      </trkpt>
      <trkpt lat="43.303709" lon="-6.651232">
        <ele>1156.025</ele>
        <time>1999-07-24T11:10:54Z</time>
      </trkpt>
      <trkpt lat="43.303726" lon="-6.651381">
        <ele>1155.811</ele>
        <time>1999-07-24T11:10:56Z</time>
      </trkpt>
      <trkpt lat="43.303737" lon="-6.651533">
        <ele>1155.642</ele>
        <time>1999-07-24T11:10:58Z</time>
      </trkpt>
      <trkpt lat="43.303752" lon="-6.651693">
        <ele>1155.693</ele>
        <time>1999-07-24T11:11:00Z</time>
      </trkpt>
      <trkpt lat="43.303774" lon="-6.651940">
        <ele>1155.647</ele>
        <time>1999-07-24T11:11:03Z</time>
      </trkpt>
      <trkpt lat="43.303811" lon="-6.652088">
        <ele>1155.626</ele>
        <time>1999-07-24T11:11:05Z</time>
      </trkpt>
      <trkpt lat="43.303856" lon="-6.652236">
        <ele>1155.442</ele>
        <time>1999-07-24T11:11:07Z</time>
      </trkpt>
      <trkpt lat="43.303909" lon="-6.652390">
        <ele>1155.254</ele>
        <time>1999-07-24T11:11:09Z</time>
      </trkpt>
      <trkpt lat="43.303932" lon="-6.652469">
        <ele>1155.065</ele>
        <time>1999-07-24T11:11:10Z</time>
      </trkpt>
      <trkpt lat="43.304079" lon="-6.652901">
        <ele>1154.468</ele>
        <time>1999-07-24T11:11:15Z</time>
      </trkpt>
      <trkpt lat="43.304129" lon="-6.652986">
        <ele>1153.814</ele>
        <time>1999-07-24T11:11:16Z</time>
      </trkpt>
      <trkpt lat="43.304300" lon="-6.653226">
        <ele>1153.208</ele>
        <time>1999-07-24T11:11:19Z</time>
      </trkpt>
      <trkpt lat="43.304405" lon="-6.653415">
        <ele>1152.419</ele>
        <time>1999-07-24T11:11:21Z</time>
      </trkpt>
      <trkpt lat="43.304450" lon="-6.653520">
        <ele>1151.895</ele>
        <time>1999-07-24T11:11:22Z</time>
      </trkpt>
      <trkpt lat="43.304484" lon="-6.653628">
        <ele>1151.456</ele>
        <time>1999-07-24T11:11:23Z</time>
      </trkpt>
      <trkpt lat="43.304510" lon="-6.653739">
        <ele>1151.077</ele>
        <time>1999-07-24T11:11:24Z</time>
      </trkpt>
      <trkpt lat="43.304543" lon="-6.653940">
        <ele>1150.441</ele>
        <time>1999-07-24T11:11:26Z</time>
      </trkpt>
      <trkpt lat="43.304551" lon="-6.654022">
        <ele>1150.260</ele>
        <time>1999-07-24T11:11:27Z</time>
      </trkpt>
      <trkpt lat="43.304549" lon="-6.654152">
        <ele>1149.656</ele>
        <time>1999-07-24T11:11:29Z</time>
      </trkpt>
      <trkpt lat="43.304547" lon="-6.654194">
        <ele>1149.048</ele>
        <time>1999-07-24T11:11:30Z</time>
      </trkpt>
      <trkpt lat="43.304547" lon="-6.654224">
        <ele>1148.463</ele>
        <time>1999-07-24T11:11:31Z</time>
      </trkpt>
      <trkpt lat="43.304548" lon="-6.654246">
        <ele>1147.044</ele>
        <time>1999-07-24T11:11:34Z</time>
      </trkpt>
      <trkpt lat="43.304548" lon="-6.654245">
        <ele>1146.418</ele>
        <time>1999-07-24T11:11:35Z</time>
      </trkpt>
      <trkpt lat="43.304539" lon="-6.654290">
        <ele>1142.408</ele>
        <time>1999-07-24T11:12:36Z</time>
      </trkpt>
      <trkpt lat="43.304532" lon="-6.654332">
        <ele>1142.499</ele>
        <time>1999-07-24T11:12:37Z</time>
      </trkpt>
      <trkpt lat="43.304508" lon="-6.654452">
        <ele>1142.425</ele>
        <time>1999-07-24T11:12:39Z</time>
      </trkpt>
      <trkpt lat="43.304479" lon="-6.654534">
        <ele>1142.466</ele>
        <time>1999-07-24T11:12:40Z</time>
      </trkpt>
      <trkpt lat="43.304420" lon="-6.654713">
        <ele>1142.447</ele>
        <time>1999-07-24T11:12:42Z</time>
      </trkpt>
      <trkpt lat="43.304356" lon="-6.654877">
        <ele>1142.291</ele>
        <time>1999-07-24T11:12:44Z</time>
      </trkpt>
      <trkpt lat="43.304318" lon="-6.654954">
        <ele>1141.850</ele>
        <time>1999-07-24T11:12:45Z</time>
      </trkpt>
      <trkpt lat="43.304284" lon="-6.655041">
        <ele>1141.616</ele>
        <time>1999-07-24T11:12:46Z</time>
      </trkpt>
      <trkpt lat="43.304227" lon="-6.655247">
        <ele>1141.248</ele>
        <time>1999-07-24T11:12:48Z</time>
      </trkpt>
      <trkpt lat="43.304121" lon="-6.655690">
        <ele>1139.469</ele>
        <time>1999-07-24T11:12:52Z</time>
      </trkpt>
      <trkpt lat="43.304046" lon="-6.656042">
        <ele>1137.804</ele>
        <time>1999-07-24T11:12:55Z</time>
      </trkpt>
      <trkpt lat="43.304015" lon="-6.656166">
        <ele>1137.024</ele>
        <time>1999-07-24T11:12:56Z</time>
      </trkpt>
      <trkpt lat="43.303982" lon="-6.656292">
        <ele>1136.608</ele>
        <time>1999-07-24T11:12:57Z</time>
      </trkpt>
      <trkpt lat="43.303923" lon="-6.656550">
        <ele>1135.679</ele>
        <time>1999-07-24T11:12:59Z</time>
      </trkpt>
      <trkpt lat="43.303889" lon="-6.656678">
        <ele>1134.855</ele>
        <time>1999-07-24T11:13:00Z</time>
      </trkpt>
      <trkpt lat="43.303813" lon="-6.656917">
        <ele>1133.676</ele>
        <time>1999-07-24T11:13:02Z</time>
      </trkpt>
      <trkpt lat="43.303723" lon="-6.657135">
        <ele>1132.887</ele>
        <time>1999-07-24T11:13:04Z</time>
      </trkpt>
      <trkpt lat="43.303672" lon="-6.657232">
        <ele>1132.221</ele>
        <time>1999-07-24T11:13:05Z</time>
      </trkpt>
      <trkpt lat="43.303508" lon="-6.657476">
        <ele>1130.670</ele>
        <time>1999-07-24T11:13:08Z</time>
      </trkpt>
      <trkpt lat="43.303400" lon="-6.657609">
        <ele>1130.236</ele>
        <time>1999-07-24T11:13:10Z</time>
      </trkpt>
      <trkpt lat="43.303236" lon="-6.657760">
        <ele>1129.658</ele>
        <time>1999-07-24T11:13:13Z</time>
      </trkpt>
      <trkpt lat="43.303184" lon="-6.657798">
        <ele>1128.294</ele>
        <time>1999-07-24T11:13:14Z</time>
      </trkpt>
      <trkpt lat="43.302990" lon="-6.657888">
        <ele>1127.857</ele>
        <time>1999-07-24T11:13:18Z</time>
      </trkpt>
      <trkpt lat="43.302833" lon="-6.657947">
        <ele>1127.822</ele>
        <time>1999-07-24T11:13:22Z</time>
      </trkpt>
      <trkpt lat="43.302776" lon="-6.657997">
        <ele>1128.008</ele>
        <time>1999-07-24T11:13:24Z</time>
      </trkpt>
      <trkpt lat="43.302708" lon="-6.658076">
        <ele>1128.882</ele>
        <time>1999-07-24T11:13:27Z</time>
      </trkpt>
      <trkpt lat="43.302669" lon="-6.658145">
        <ele>1129.238</ele>
        <time>1999-07-24T11:13:29Z</time>
      </trkpt>
      <trkpt lat="43.302646" lon="-6.658179">
        <ele>1129.619</ele>
        <time>1999-07-24T11:13:30Z</time>
      </trkpt>
      <trkpt lat="43.302566" lon="-6.658290">
        <ele>1130.820</ele>
        <time>1999-07-24T11:13:33Z</time>
      </trkpt>
      <trkpt lat="43.302490" lon="-6.658420">
        <ele>1131.884</ele>
        <time>1999-07-24T11:13:36Z</time>
      </trkpt>
      <trkpt lat="43.302468" lon="-6.658468">
        <ele>1132.073</ele>
        <time>1999-07-24T11:13:37Z</time>
      </trkpt>
      <trkpt lat="43.302385" lon="-6.658702">
        <ele>1132.879</ele>
        <time>1999-07-24T11:13:41Z</time>
      </trkpt>
      <trkpt lat="43.302345" lon="-6.658821">
        <ele>1133.051</ele>
        <time>1999-07-24T11:13:43Z</time>
      </trkpt>
      <trkpt lat="43.302308" lon="-6.658938">
        <ele>1133.269</ele>
        <time>1999-07-24T11:13:45Z</time>
      </trkpt>
      <trkpt lat="43.302273" lon="-6.659052">
        <ele>1133.204</ele>
        <time>1999-07-24T11:13:47Z</time>
      </trkpt>
      <trkpt lat="43.302215" lon="-6.659355">
        <ele>1133.224</ele>
        <time>1999-07-24T11:13:53Z</time>
      </trkpt>
      <trkpt lat="43.302186" lon="-6.659675">
        <ele>1133.608</ele>
        <time>1999-07-24T11:13:59Z</time>
      </trkpt>
      <trkpt lat="43.302185" lon="-6.659738">
        <ele>1133.899</ele>
        <time>1999-07-24T11:14:00Z</time>
      </trkpt>
      <trkpt lat="43.302192" lon="-6.659876">
        <ele>1133.835</ele>
        <time>1999-07-24T11:14:02Z</time>
      </trkpt>
      <trkpt lat="43.302211" lon="-6.660041">
        <ele>1133.886</ele>
        <time>1999-07-24T11:14:04Z</time>
      </trkpt>
      <trkpt lat="43.302233" lon="-6.660230">
        <ele>1133.847</ele>
        <time>1999-07-24T11:14:06Z</time>
      </trkpt>
      <trkpt lat="43.302257" lon="-6.660533">
        <ele>1133.081</ele>
        <time>1999-07-24T11:14:09Z</time>
      </trkpt>
      <trkpt lat="43.302270" lon="-6.660732">
        <ele>1131.840</ele>
        <time>1999-07-24T11:14:11Z</time>
      </trkpt>
      <trkpt lat="43.302266" lon="-6.660929">
        <ele>1130.286</ele>
        <time>1999-07-24T11:14:13Z</time>
      </trkpt>
      <trkpt lat="43.302260" lon="-6.661026">
        <ele>1129.018</ele>
        <time>1999-07-24T11:14:14Z</time>
      </trkpt>
      <trkpt lat="43.302254" lon="-6.661127">
        <ele>1128.853</ele>
        <time>1999-07-24T11:14:15Z</time>
      </trkpt>
      <trkpt lat="43.302235" lon="-6.661329">
        <ele>1127.804</ele>
        <time>1999-07-24T11:14:17Z</time>
      </trkpt>
      <trkpt lat="43.302185" lon="-6.661706">
        <ele>1127.214</ele>
        <time>1999-07-24T11:14:21Z</time>
      </trkpt>
      <trkpt lat="43.302103" lon="-6.662286">
        <ele>1127.208</ele>
        <time>1999-07-24T11:14:27Z</time>
      </trkpt>
      <trkpt lat="43.302006" lon="-6.662675">
        <ele>1127.288</ele>
        <time>1999-07-24T11:14:32Z</time>
      </trkpt>
      <trkpt lat="43.301866" lon="-6.662995">
        <ele>1127.624</ele>
        <time>1999-07-24T11:14:38Z</time>
      </trkpt>
      <trkpt lat="43.301814" lon="-6.663185">
        <ele>1129.045</ele>
        <time>1999-07-24T11:14:42Z</time>
      </trkpt>
      <trkpt lat="43.301807" lon="-6.663232">
        <ele>1129.626</ele>
        <time>1999-07-24T11:14:43Z</time>
      </trkpt>
      <trkpt lat="43.301798" lon="-6.663321">
        <ele>1130.070</ele>
        <time>1999-07-24T11:14:45Z</time>
      </trkpt>
      <trkpt lat="43.301804" lon="-6.663485">
        <ele>1130.699</ele>
        <time>1999-07-24T11:14:49Z</time>
      </trkpt>
      <trkpt lat="43.301828" lon="-6.663683">
        <ele>1131.085</ele>
        <time>1999-07-24T11:14:54Z</time>
      </trkpt>
      <trkpt lat="43.301831" lon="-6.663734">
        <ele>1131.097</ele>
        <time>1999-07-24T11:14:55Z</time>
      </trkpt>
      <trkpt lat="43.301833" lon="-6.663835">
        <ele>1131.071</ele>
        <time>1999-07-24T11:14:57Z</time>
      </trkpt>
      <trkpt lat="43.301807" lon="-6.663931">
        <ele>1131.041</ele>
        <time>1999-07-24T11:14:59Z</time>
      </trkpt>
      <trkpt lat="43.301682" lon="-6.664105">
        <ele>1130.815</ele>
        <time>1999-07-24T11:15:04Z</time>
      </trkpt>
      <trkpt lat="43.301586" lon="-6.664200">
        <ele>1130.408</ele>
        <time>1999-07-24T11:15:07Z</time>
      </trkpt>
      <trkpt lat="43.301501" lon="-6.664294">
        <ele>1130.490</ele>
        <time>1999-07-24T11:15:10Z</time>
      </trkpt>
      <trkpt lat="43.301450" lon="-6.664353">
        <ele>1130.246</ele>
        <time>1999-07-24T11:15:12Z</time>
      </trkpt>
      <trkpt lat="43.301418" lon="-6.664412">
        <ele>1130.097</ele>
        <time>1999-07-24T11:15:14Z</time>
      </trkpt>
      <trkpt lat="43.301414" lon="-6.664431">
        <ele>1130.038</ele>
        <time>1999-07-24T11:15:15Z</time>
      </trkpt>
      <trkpt lat="43.301411" lon="-6.664434">
        <ele>1129.872</ele>
        <time>1999-07-24T11:15:16Z</time>
      </trkpt>
      <trkpt lat="43.301410" lon="-6.664434">
        <ele>1129.811</ele>
        <time>1999-07-24T11:15:17Z</time>
      </trkpt>
      <trkpt lat="43.301375" lon="-6.664461">
        <ele>1128.237</ele>
        <time>1999-07-24T11:16:13Z</time>
      </trkpt>
      <trkpt lat="43.301355" lon="-6.664478">
        <ele>1128.249</ele>
        <time>1999-07-24T11:16:14Z</time>
      </trkpt>
      <trkpt lat="43.301288" lon="-6.664555">
        <ele>1128.489</ele>
        <time>1999-07-24T11:16:17Z</time>
      </trkpt>
      <trkpt lat="43.301248" lon="-6.664610">
        <ele>1128.406</ele>
        <time>1999-07-24T11:16:19Z</time>
      </trkpt>
      <trkpt lat="43.301234" lon="-6.664628">
        <ele>1128.426</ele>
        <time>1999-07-24T11:16:20Z</time>
      </trkpt>
      <trkpt lat="43.301208" lon="-6.664668">
        <ele>1128.408</ele>
        <time>1999-07-24T11:16:22Z</time>
      </trkpt>
      <trkpt lat="43.301158" lon="-6.664771">
        <ele>1128.271</ele>
        <time>1999-07-24T11:16:25Z</time>
      </trkpt>
      <trkpt lat="43.301125" lon="-6.664853">
        <ele>1128.227</ele>
        <time>1999-07-24T11:16:27Z</time>
      </trkpt>
      <trkpt lat="43.301077" lon="-6.664975">
        <ele>1127.848</ele>
        <time>1999-07-24T11:16:30Z</time>
      </trkpt>
      <trkpt lat="43.301057" lon="-6.665050">
        <ele>1127.649</ele>
        <time>1999-07-24T11:16:32Z</time>
      </trkpt>
      <trkpt lat="43.301038" lon="-6.665212">
        <ele>1127.443</ele>
        <time>1999-07-24T11:16:36Z</time>
      </trkpt>
      <trkpt lat="43.301010" lon="-6.665337">
        <ele>1127.452</ele>
        <time>1999-07-24T11:16:39Z</time>
      </trkpt>
      <trkpt lat="43.301004" lon="-6.665377">
        <ele>1127.458</ele>
        <time>1999-07-24T11:16:40Z</time>
      </trkpt>
      <trkpt lat="43.300977" lon="-6.665492">
        <ele>1127.620</ele>
        <time>1999-07-24T11:16:43Z</time>
      </trkpt>
      <trkpt lat="43.300914" lon="-6.665669">
        <ele>1128.038</ele>
        <time>1999-07-24T11:16:48Z</time>
      </trkpt>
      <trkpt lat="43.300774" lon="-6.665899">
        <ele>1128.670</ele>
        <time>1999-07-24T11:16:55Z</time>
      </trkpt>
      <trkpt lat="43.300714" lon="-6.665998">
        <ele>1128.817</ele>
        <time>1999-07-24T11:16:58Z</time>
      </trkpt>
      <trkpt lat="43.300607" lon="-6.666176">
        <ele>1129.208</ele>
        <time>1999-07-24T11:17:03Z</time>
      </trkpt>
      <trkpt lat="43.300561" lon="-6.666250">
        <ele>1129.686</ele>
        <time>1999-07-24T11:17:05Z</time>
      </trkpt>
      <trkpt lat="43.300433" lon="-6.666412">
        <ele>1130.472</ele>
        <time>1999-07-24T11:17:10Z</time>
      </trkpt>
      <trkpt lat="43.300406" lon="-6.666440">
        <ele>1130.883</ele>
        <time>1999-07-24T11:17:11Z</time>
      </trkpt>
      <trkpt lat="43.300377" lon="-6.666465">
        <ele>1131.054</ele>
        <time>1999-07-24T11:17:12Z</time>
      </trkpt>
      <trkpt lat="43.300183" lon="-6.666598">
        <ele>1132.028</ele>
        <time>1999-07-24T11:17:19Z</time>
      </trkpt>
      <trkpt lat="43.300051" lon="-6.666693">
        <ele>1132.887</ele>
        <time>1999-07-24T11:17:26Z</time>
      </trkpt>
      <trkpt lat="43.300034" lon="-6.666707">
        <ele>1133.213</ele>
        <time>1999-07-24T11:17:27Z</time>
      </trkpt>
      <trkpt lat="43.299975" lon="-6.666767">
        <ele>1134.435</ele>
        <time>1999-07-24T11:17:31Z</time>
      </trkpt>
      <trkpt lat="43.299938" lon="-6.666796">
        <ele>1135.274</ele>
        <time>1999-07-24T11:17:33Z</time>
      </trkpt>
      <trkpt lat="43.299917" lon="-6.666808">
        <ele>1135.456</ele>
        <time>1999-07-24T11:17:34Z</time>
      </trkpt>
      <trkpt lat="43.299853" lon="-6.666851">
        <ele>1136.621</ele>
        <time>1999-07-24T11:17:37Z</time>
      </trkpt>
      <trkpt lat="43.299792" lon="-6.666902">
        <ele>1137.608</ele>
        <time>1999-07-24T11:17:40Z</time>
      </trkpt>
      <trkpt lat="43.299729" lon="-6.666950">
        <ele>1139.070</ele>
        <time>1999-07-24T11:17:43Z</time>
      </trkpt>
      <trkpt lat="43.299650" lon="-6.667018">
        <ele>1139.426</ele>
        <time>1999-07-24T11:17:46Z</time>
      </trkpt>
      <trkpt lat="43.299422" lon="-6.667239">
        <ele>1139.437</ele>
        <time>1999-07-24T11:17:53Z</time>
      </trkpt>
      <trkpt lat="43.299299" lon="-6.667359">
        <ele>1139.448</ele>
        <time>1999-07-24T11:17:56Z</time>
      </trkpt>
      <trkpt lat="43.299185" lon="-6.667499">
        <ele>1139.082</ele>
        <time>1999-07-24T11:17:59Z</time>
      </trkpt>
      <trkpt lat="43.299149" lon="-6.667542">
        <ele>1139.051</ele>
        <time>1999-07-24T11:18:00Z</time>
      </trkpt>
      <trkpt lat="43.299079" lon="-6.667638">
        <ele>1138.077</ele>
        <time>1999-07-24T11:18:02Z</time>
      </trkpt>
      <trkpt lat="43.299040" lon="-6.667692">
        <ele>1137.699</ele>
        <time>1999-07-24T11:18:03Z</time>
      </trkpt>
      <trkpt lat="43.298961" lon="-6.667807">
        <ele>1136.818</ele>
        <time>1999-07-24T11:18:05Z</time>
      </trkpt>
      <trkpt lat="43.298877" lon="-6.667922">
        <ele>1136.698</ele>
        <time>1999-07-24T11:18:07Z</time>
      </trkpt>
      <trkpt lat="43.298839" lon="-6.667986">
        <ele>1136.417</ele>
        <time>1999-07-24T11:18:08Z</time>
      </trkpt>
      <trkpt lat="43.298803" lon="-6.668048">
        <ele>1135.408</ele>
        <time>1999-07-24T11:18:09Z</time>
      </trkpt>
      <trkpt lat="43.298744" lon="-6.668168">
        <ele>1134.484</ele>
        <time>1999-07-24T11:18:11Z</time>
      </trkpt>
      <trkpt lat="43.298711" lon="-6.668225">
        <ele>1134.070</ele>
        <time>1999-07-24T11:18:12Z</time>
      </trkpt>
      <trkpt lat="43.298633" lon="-6.668337">
        <ele>1133.291</ele>
        <time>1999-07-24T11:18:14Z</time>
      </trkpt>
      <trkpt lat="43.298519" lon="-6.668495">
        <ele>1132.222</ele>
        <time>1999-07-24T11:18:17Z</time>
      </trkpt>
      <trkpt lat="43.298450" lon="-6.668585">
        <ele>1131.866</ele>
        <time>1999-07-24T11:18:19Z</time>
      </trkpt>
      <trkpt lat="43.298382" lon="-6.668678">
        <ele>1130.875</ele>
        <time>1999-07-24T11:18:21Z</time>
      </trkpt>
      <trkpt lat="43.298320" lon="-6.668767">
        <ele>1130.031</ele>
        <time>1999-07-24T11:18:23Z</time>
      </trkpt>
      <trkpt lat="43.298290" lon="-6.668806">
        <ele>1129.693</ele>
        <time>1999-07-24T11:18:24Z</time>
      </trkpt>
      <trkpt lat="43.298216" lon="-6.668915">
        <ele>1128.429</ele>
        <time>1999-07-24T11:18:27Z</time>
      </trkpt>
      <trkpt lat="43.298130" lon="-6.669032">
        <ele>1126.800</ele>
        <time>1999-07-24T11:18:30Z</time>
      </trkpt>
      <trkpt lat="43.298061" lon="-6.669149">
        <ele>1125.020</ele>
        <time>1999-07-24T11:18:32Z</time>
      </trkpt>
      <trkpt lat="43.297997" lon="-6.669272">
        <ele>1123.808</ele>
        <time>1999-07-24T11:18:34Z</time>
      </trkpt>
      <trkpt lat="43.297958" lon="-6.669324">
        <ele>1123.425</ele>
        <time>1999-07-24T11:18:35Z</time>
      </trkpt>
      <trkpt lat="43.297834" lon="-6.669413">
        <ele>1122.691</ele>
        <time>1999-07-24T11:18:38Z</time>
      </trkpt>
      <trkpt lat="43.297796" lon="-6.669444">
        <ele>1122.452</ele>
        <time>1999-07-24T11:18:39Z</time>
      </trkpt>
      <trkpt lat="43.297714" lon="-6.669517">
        <ele>1121.453</ele>
        <time>1999-07-24T11:18:41Z</time>
      </trkpt>
      <trkpt lat="43.297618" lon="-6.669609">
        <ele>1121.017</ele>
        <time>1999-07-24T11:18:43Z</time>
      </trkpt>
      <trkpt lat="43.297569" lon="-6.669664">
        <ele>1120.666</ele>
        <time>1999-07-24T11:18:44Z</time>
      </trkpt>
      <trkpt lat="43.297516" lon="-6.669724">
        <ele>1120.452</ele>
        <time>1999-07-24T11:18:45Z</time>
      </trkpt>
      <trkpt lat="43.297407" lon="-6.669853">
        <ele>1120.014</ele>
        <time>1999-07-24T11:18:47Z</time>
      </trkpt>
      <trkpt lat="43.297300" lon="-6.669988">
        <ele>1119.022</ele>
        <time>1999-07-24T11:18:49Z</time>
      </trkpt>
      <trkpt lat="43.297136" lon="-6.670176">
        <ele>1118.262</ele>
        <time>1999-07-24T11:18:52Z</time>
      </trkpt>
      <trkpt lat="43.297071" lon="-6.670239">
        <ele>1117.008</ele>
        <time>1999-07-24T11:18:53Z</time>
      </trkpt>
      <trkpt lat="43.297004" lon="-6.670297">
        <ele>1116.208</ele>
        <time>1999-07-24T11:18:54Z</time>
      </trkpt>
      <trkpt lat="43.296939" lon="-6.670352">
        <ele>1115.695</ele>
        <time>1999-07-24T11:18:55Z</time>
      </trkpt>
      <trkpt lat="43.296771" lon="-6.670475">
        <ele>1114.421</ele>
        <time>1999-07-24T11:18:58Z</time>
      </trkpt>
      <trkpt lat="43.296723" lon="-6.670514">
        <ele>1113.422</ele>
        <time>1999-07-24T11:18:59Z</time>
      </trkpt>
      <trkpt lat="43.296680" lon="-6.670553">
        <ele>1112.893</ele>
        <time>1999-07-24T11:19:00Z</time>
      </trkpt>
      <trkpt lat="43.296590" lon="-6.670626">
        <ele>1112.067</ele>
        <time>1999-07-24T11:19:02Z</time>
      </trkpt>
      <trkpt lat="43.296542" lon="-6.670651">
        <ele>1111.446</ele>
        <time>1999-07-24T11:19:03Z</time>
      </trkpt>
      <trkpt lat="43.296444" lon="-6.670688">
        <ele>1110.022</ele>
        <time>1999-07-24T11:19:05Z</time>
      </trkpt>
      <trkpt lat="43.296345" lon="-6.670737">
        <ele>1109.014</ele>
        <time>1999-07-24T11:19:07Z</time>
      </trkpt>
      <trkpt lat="43.296298" lon="-6.670764">
        <ele>1108.821</ele>
        <time>1999-07-24T11:19:08Z</time>
      </trkpt>
      <trkpt lat="43.296199" lon="-6.670807">
        <ele>1108.441</ele>
        <time>1999-07-24T11:19:10Z</time>
      </trkpt>
      <trkpt lat="43.296003" lon="-6.670882">
        <ele>1107.605</ele>
        <time>1999-07-24T11:19:14Z</time>
      </trkpt>
      <trkpt lat="43.295854" lon="-6.670952">
        <ele>1106.408</ele>
        <time>1999-07-24T11:19:17Z</time>
      </trkpt>
      <trkpt lat="43.295711" lon="-6.671022">
        <ele>1105.445</ele>
        <time>1999-07-24T11:19:21Z</time>
      </trkpt>
      <trkpt lat="43.295645" lon="-6.671038">
        <ele>1104.041</ele>
        <time>1999-07-24T11:19:24Z</time>
      </trkpt>
      <trkpt lat="43.295630" lon="-6.671036">
        <ele>1103.242</ele>
        <time>1999-07-24T11:19:26Z</time>
      </trkpt>
      <trkpt lat="43.295631" lon="-6.671037">
        <ele>1102.813</ele>
        <time>1999-07-24T11:19:27Z</time>
      </trkpt>
      <trkpt lat="43.295604" lon="-6.670991">
        <ele>1101.447</ele>
        <time>1999-07-24T11:19:32Z</time>
      </trkpt>
      <trkpt lat="43.295585" lon="-6.670953">
        <ele>1101.056</ele>
        <time>1999-07-24T11:19:34Z</time>
      </trkpt>
      <trkpt lat="43.295619" lon="-6.670848">
        <ele>1100.612</ele>
        <time>1999-07-24T11:19:38Z</time>
      </trkpt>
      <trkpt lat="43.295636" lon="-6.670833">
        <ele>1100.664</ele>
        <time>1999-07-24T11:19:39Z</time>
      </trkpt>
      <trkpt lat="43.295673" lon="-6.670791">
        <ele>1100.218</ele>
        <time>1999-07-24T11:19:43Z</time>
      </trkpt>
      <trkpt lat="43.295725" lon="-6.670752">
        <ele>1098.898</ele>
        <time>1999-07-24T11:19:46Z</time>
      </trkpt>
      <trkpt lat="43.295740" lon="-6.670738">
        <ele>1098.617</ele>
        <time>1999-07-24T11:19:47Z</time>
      </trkpt>
      <trkpt lat="43.295785" lon="-6.670686">
        <ele>1098.408</ele>
        <time>1999-07-24T11:19:50Z</time>
      </trkpt>
      <trkpt lat="43.295816" lon="-6.670655">
        <ele>1098.474</ele>
        <time>1999-07-24T11:19:52Z</time>
      </trkpt>
      <trkpt lat="43.295923" lon="-6.670549">
        <ele>1098.090</ele>
        <time>1999-07-24T11:19:57Z</time>
      </trkpt>
      <trkpt lat="43.295957" lon="-6.670451">
        <ele>1097.241</ele>
        <time>1999-07-24T11:20:01Z</time>
      </trkpt>
      <trkpt lat="43.295971" lon="-6.670386">
        <ele>1097.062</ele>
        <time>1999-07-24T11:20:04Z</time>
      </trkpt>
      <trkpt lat="43.295980" lon="-6.670374">
        <ele>1097.076</ele>
        <time>1999-07-24T11:20:05Z</time>
      </trkpt>
      <trkpt lat="43.295986" lon="-6.670368">
        <ele>1096.295</ele>
        <time>1999-07-24T11:20:07Z</time>
      </trkpt>
      <trkpt lat="43.295950" lon="-6.670412">
        <ele>1093.661</ele>
        <time>1999-07-24T11:20:13Z</time>
      </trkpt>
      <trkpt lat="43.295928" lon="-6.670421">
        <ele>1093.473</ele>
        <time>1999-07-24T11:20:14Z</time>
      </trkpt>
      <trkpt lat="43.295906" lon="-6.670428">
        <ele>1093.413</ele>
        <time>1999-07-24T11:20:15Z</time>
      </trkpt>
      <trkpt lat="43.295877" lon="-6.670465">
        <ele>1093.243</ele>
        <time>1999-07-24T11:20:18Z</time>
      </trkpt>
      <trkpt lat="43.295866" lon="-6.670490">
        <ele>1093.007</ele>
        <time>1999-07-24T11:20:22Z</time>
      </trkpt>
      <trkpt lat="43.295787" lon="-6.670521">
        <ele>1092.608</ele>
        <time>1999-07-24T11:21:36Z</time>
      </trkpt>
      <trkpt lat="43.295767" lon="-6.670537">
        <ele>1092.664</ele>
        <time>1999-07-24T11:21:37Z</time>
      </trkpt>
      <trkpt lat="43.295730" lon="-6.670577">
        <ele>1092.810</ele>
        <time>1999-07-24T11:21:39Z</time>
      </trkpt>
      <trkpt lat="43.295649" lon="-6.670668">
        <ele>1092.811</ele>
        <time>1999-07-24T11:21:43Z</time>
      </trkpt>
      <trkpt lat="43.295544" lon="-6.670813">
        <ele>1093.832</ele>
        <time>1999-07-24T11:21:49Z</time>
      </trkpt>
      <trkpt lat="43.295530" lon="-6.670839">
        <ele>1093.866</ele>
        <time>1999-07-24T11:21:50Z</time>
      </trkpt>
      <trkpt lat="43.295429" lon="-6.670972">
        <ele>1094.485</ele>
        <time>1999-07-24T11:21:56Z</time>
      </trkpt>
      <trkpt lat="43.295416" lon="-6.670991">
        <ele>1094.881</ele>
        <time>1999-07-24T11:21:57Z</time>
      </trkpt>
      <trkpt lat="43.295377" lon="-6.671058">
        <ele>1096.273</ele>
        <time>1999-07-24T11:22:00Z</time>
      </trkpt>
      <trkpt lat="43.295362" lon="-6.671073">
        <ele>1096.453</ele>
        <time>1999-07-24T11:22:01Z</time>
      </trkpt>
      <trkpt lat="43.295303" lon="-6.671126">
        <ele>1097.204</ele>
        <time>1999-07-24T11:22:04Z</time>
      </trkpt>
      <trkpt lat="43.295279" lon="-6.671140">
        <ele>1097.414</ele>
        <time>1999-07-24T11:22:05Z</time>
      </trkpt>
      <trkpt lat="43.295255" lon="-6.671151">
        <ele>1097.808</ele>
        <time>1999-07-24T11:22:06Z</time>
      </trkpt>
      <trkpt lat="43.295200" lon="-6.671168">
        <ele>1098.488</ele>
        <time>1999-07-24T11:22:08Z</time>
      </trkpt>
      <trkpt lat="43.295169" lon="-6.671181">
        <ele>1098.884</ele>
        <time>1999-07-24T11:22:09Z</time>
      </trkpt>
      <trkpt lat="43.295099" lon="-6.671208">
        <ele>1099.215</ele>
        <time>1999-07-24T11:22:11Z</time>
      </trkpt>
      <trkpt lat="43.294883" lon="-6.671306">
        <ele>1099.696</ele>
        <time>1999-07-24T11:22:18Z</time>
      </trkpt>
      <trkpt lat="43.294689" lon="-6.671396">
        <ele>1099.640</ele>
        <time>1999-07-24T11:22:24Z</time>
      </trkpt>
      <trkpt lat="43.294565" lon="-6.671543">
        <ele>1099.849</ele>
        <time>1999-07-24T11:22:30Z</time>
      </trkpt>
      <trkpt lat="43.294544" lon="-6.671566">
        <ele>1100.235</ele>
        <time>1999-07-24T11:22:31Z</time>
      </trkpt>
      <trkpt lat="43.294448" lon="-6.671691">
        <ele>1101.417</ele>
        <time>1999-07-24T11:22:36Z</time>
      </trkpt>
      <trkpt lat="43.294398" lon="-6.671760">
        <ele>1101.811</ele>
        <time>1999-07-24T11:22:39Z</time>
      </trkpt>
      <trkpt lat="43.294327" lon="-6.671883">
        <ele>1102.621</ele>
        <time>1999-07-24T11:22:44Z</time>
      </trkpt>
      <trkpt lat="43.294309" lon="-6.671935">
        <ele>1103.003</ele>
        <time>1999-07-24T11:22:46Z</time>
      </trkpt>
      <trkpt lat="43.294270" lon="-6.672047">
        <ele>1103.608</ele>
        <time>1999-07-24T11:22:50Z</time>
      </trkpt>
      <trkpt lat="43.294245" lon="-6.672132">
        <ele>1104.624</ele>
        <time>1999-07-24T11:22:53Z</time>
      </trkpt>
      <trkpt lat="43.294237" lon="-6.672159">
        <ele>1104.860</ele>
        <time>1999-07-24T11:22:54Z</time>
      </trkpt>
      <trkpt lat="43.294211" lon="-6.672239">
        <ele>1105.831</ele>
        <time>1999-07-24T11:22:57Z</time>
      </trkpt>
      <trkpt lat="43.294169" lon="-6.672388">
        <ele>1106.872</ele>
        <time>1999-07-24T11:23:02Z</time>
      </trkpt>
      <trkpt lat="43.294136" lon="-6.672502">
        <ele>1108.056</ele>
        <time>1999-07-24T11:23:06Z</time>
      </trkpt>
      <trkpt lat="43.294119" lon="-6.672561">
        <ele>1108.245</ele>
        <time>1999-07-24T11:23:08Z</time>
      </trkpt>
      <trkpt lat="43.294111" lon="-6.672592">
        <ele>1108.431</ele>
        <time>1999-07-24T11:23:09Z</time>
      </trkpt>
      <trkpt lat="43.294087" lon="-6.672677">
        <ele>1109.033</ele>
        <time>1999-07-24T11:23:12Z</time>
      </trkpt>
      <trkpt lat="43.294060" lon="-6.672754">
        <ele>1110.259</ele>
        <time>1999-07-24T11:23:15Z</time>
      </trkpt>
      <trkpt lat="43.294049" lon="-6.672781">
        <ele>1110.403</ele>
        <time>1999-07-24T11:23:16Z</time>
      </trkpt>
      <trkpt lat="43.294021" lon="-6.672834">
        <ele>1111.223</ele>
        <time>1999-07-24T11:23:18Z</time>
      </trkpt>
      <trkpt lat="43.293959" lon="-6.672930">
        <ele>1112.008</ele>
        <time>1999-07-24T11:23:22Z</time>
      </trkpt>
      <trkpt lat="43.293922" lon="-6.672976">
        <ele>1112.428</ele>
        <time>1999-07-24T11:23:24Z</time>
      </trkpt>
      <trkpt lat="43.293788" lon="-6.673139">
        <ele>1113.484</ele>
        <time>1999-07-24T11:23:31Z</time>
      </trkpt>
      <trkpt lat="43.293771" lon="-6.673164">
        <ele>1113.655</ele>
        <time>1999-07-24T11:23:32Z</time>
      </trkpt>
      <trkpt lat="43.293649" lon="-6.673295">
        <ele>1114.036</ele>
        <time>1999-07-24T11:23:38Z</time>
      </trkpt>
      <trkpt lat="43.293546" lon="-6.673391">
        <ele>1114.630</ele>
        <time>1999-07-24T11:23:43Z</time>
      </trkpt>
      <trkpt lat="43.293501" lon="-6.673419">
        <ele>1114.899</ele>
        <time>1999-07-24T11:23:45Z</time>
      </trkpt>
      <trkpt lat="43.293367" lon="-6.673476">
        <ele>1115.245</ele>
        <time>1999-07-24T11:23:51Z</time>
      </trkpt>
      <trkpt lat="43.293301" lon="-6.673504">
        <ele>1115.637</ele>
        <time>1999-07-24T11:23:54Z</time>
      </trkpt>
      <trkpt lat="43.293277" lon="-6.673512">
        <ele>1115.625</ele>
        <time>1999-07-24T11:23:55Z</time>
      </trkpt>
      <trkpt lat="43.293168" lon="-6.673565">
        <ele>1116.026</ele>
        <time>1999-07-24T11:24:00Z</time>
      </trkpt>
      <trkpt lat="43.293132" lon="-6.673582">
        <ele>1116.808</ele>
        <time>1999-07-24T11:24:02Z</time>
      </trkpt>
      <trkpt lat="43.293099" lon="-6.673602">
        <ele>1117.808</ele>
        <time>1999-07-24T11:24:04Z</time>
      </trkpt>
      <trkpt lat="43.293053" lon="-6.673639">
        <ele>1118.835</ele>
        <time>1999-07-24T11:24:07Z</time>
      </trkpt>
      <trkpt lat="43.293035" lon="-6.673643">
        <ele>1119.071</ele>
        <time>1999-07-24T11:24:08Z</time>
      </trkpt>
      <trkpt lat="43.292982" lon="-6.673647">
        <ele>1120.242</ele>
        <time>1999-07-24T11:24:11Z</time>
      </trkpt>
      <trkpt lat="43.292948" lon="-6.673653">
        <ele>1121.073</ele>
        <time>1999-07-24T11:24:13Z</time>
      </trkpt>
      <trkpt lat="43.292914" lon="-6.673665">
        <ele>1121.477</ele>
        <time>1999-07-24T11:24:15Z</time>
      </trkpt>
      <trkpt lat="43.292865" lon="-6.673687">
        <ele>1122.486</ele>
        <time>1999-07-24T11:24:18Z</time>
      </trkpt>
      <trkpt lat="43.292814" lon="-6.673696">
        <ele>1123.082</ele>
        <time>1999-07-24T11:24:21Z</time>
      </trkpt>
      <trkpt lat="43.292768" lon="-6.673706">
        <ele>1123.474</ele>
        <time>1999-07-24T11:24:24Z</time>
      </trkpt>
      <trkpt lat="43.292693" lon="-6.673731">
        <ele>1124.068</ele>
        <time>1999-07-24T11:24:28Z</time>
      </trkpt>
      <trkpt lat="43.292649" lon="-6.673750">
        <ele>1124.842</ele>
        <time>1999-07-24T11:24:30Z</time>
      </trkpt>
      <trkpt lat="43.292557" lon="-6.673808">
        <ele>1125.426</ele>
        <time>1999-07-24T11:24:34Z</time>
      </trkpt>
      <trkpt lat="43.292366" lon="-6.673912">
        <ele>1126.008</ele>
        <time>1999-07-24T11:24:42Z</time>
      </trkpt>
      <trkpt lat="43.292344" lon="-6.673925">
        <ele>1126.019</ele>
        <time>1999-07-24T11:24:43Z</time>
      </trkpt>
      <trkpt lat="43.292261" lon="-6.673970">
        <ele>1126.445</ele>
        <time>1999-07-24T11:24:47Z</time>
      </trkpt>
      <trkpt lat="43.292198" lon="-6.674002">
        <ele>1126.616</ele>
        <time>1999-07-24T11:24:50Z</time>
      </trkpt>
      <trkpt lat="43.292156" lon="-6.674024">
        <ele>1127.097</ele>
        <time>1999-07-24T11:24:52Z</time>
      </trkpt>
      <trkpt lat="43.292000" lon="-6.674078">
        <ele>1128.051</ele>
        <time>1999-07-24T11:24:59Z</time>
      </trkpt>
      <trkpt lat="43.291978" lon="-6.674086">
        <ele>1128.230</ele>
        <time>1999-07-24T11:25:00Z</time>
      </trkpt>
      <trkpt lat="43.291837" lon="-6.674148">
        <ele>1129.226</ele>
        <time>1999-07-24T11:25:07Z</time>
      </trkpt>
      <trkpt lat="43.291819" lon="-6.674156">
        <ele>1129.278</ele>
        <time>1999-07-24T11:25:08Z</time>
      </trkpt>
      <trkpt lat="43.291730" lon="-6.674202">
        <ele>1130.042</ele>
        <time>1999-07-24T11:25:13Z</time>
      </trkpt>
      <trkpt lat="43.291693" lon="-6.674221">
        <ele>1130.422</ele>
        <time>1999-07-24T11:25:15Z</time>
      </trkpt>
      <trkpt lat="43.291675" lon="-6.674230">
        <ele>1130.614</ele>
        <time>1999-07-24T11:25:16Z</time>
      </trkpt>
      <trkpt lat="43.291597" lon="-6.674266">
        <ele>1131.808</ele>
        <time>1999-07-24T11:25:20Z</time>
      </trkpt>
      <trkpt lat="43.291498" lon="-6.674307">
        <ele>1132.697</ele>
        <time>1999-07-24T11:25:25Z</time>
      </trkpt>
      <trkpt lat="43.291480" lon="-6.674316">
        <ele>1132.853</ele>
        <time>1999-07-24T11:25:26Z</time>
      </trkpt>
      <trkpt lat="43.291412" lon="-6.674354">
        <ele>1133.824</ele>
        <time>1999-07-24T11:25:30Z</time>
      </trkpt>
      <trkpt lat="43.291345" lon="-6.674402">
        <ele>1134.615</ele>
        <time>1999-07-24T11:25:34Z</time>
      </trkpt>
      <trkpt lat="43.291326" lon="-6.674414">
        <ele>1135.019</ele>
        <time>1999-07-24T11:25:35Z</time>
      </trkpt>
      <trkpt lat="43.291205" lon="-6.674468">
        <ele>1135.878</ele>
        <time>1999-07-24T11:25:41Z</time>
      </trkpt>
      <trkpt lat="43.291162" lon="-6.674481">
        <ele>1136.074</ele>
        <time>1999-07-24T11:25:43Z</time>
      </trkpt>
      <trkpt lat="43.291074" lon="-6.674523">
        <ele>1136.276</ele>
        <time>1999-07-24T11:25:47Z</time>
      </trkpt>
      <trkpt lat="43.290949" lon="-6.674617">
        <ele>1137.033</ele>
        <time>1999-07-24T11:25:54Z</time>
      </trkpt>
      <trkpt lat="43.290920" lon="-6.674642">
        <ele>1137.223</ele>
        <time>1999-07-24T11:25:56Z</time>
      </trkpt>
      <trkpt lat="43.290868" lon="-6.674683">
        <ele>1137.615</ele>
        <time>1999-07-24T11:26:00Z</time>
      </trkpt>
      <trkpt lat="43.290856" lon="-6.674690">
        <ele>1137.808</ele>
        <time>1999-07-24T11:26:02Z</time>
      </trkpt>
      <trkpt lat="43.290855" lon="-6.674690">
        <ele>1137.846</ele>
        <time>1999-07-24T11:26:03Z</time>
      </trkpt>
      <trkpt lat="43.290803" lon="-6.674727">
        <ele>1138.442</ele>
        <time>1999-07-24T11:26:55Z</time>
      </trkpt>
      <trkpt lat="43.290780" lon="-6.674743">
        <ele>1138.413</ele>
        <time>1999-07-24T11:26:56Z</time>
      </trkpt>
      <trkpt lat="43.290758" lon="-6.674761">
        <ele>1138.424</ele>
        <time>1999-07-24T11:26:57Z</time>
      </trkpt>
      <trkpt lat="43.290610" lon="-6.674865">
        <ele>1138.828</ele>
        <time>1999-07-24T11:27:04Z</time>
      </trkpt>
      <trkpt lat="43.290521" lon="-6.674914">
        <ele>1139.247</ele>
        <time>1999-07-24T11:27:08Z</time>
      </trkpt>
      <trkpt lat="43.290479" lon="-6.674946">
        <ele>1139.483</ele>
        <time>1999-07-24T11:27:10Z</time>
      </trkpt>
      <trkpt lat="43.290459" lon="-6.674963">
        <ele>1139.655</ele>
        <time>1999-07-24T11:27:11Z</time>
      </trkpt>
      <trkpt lat="43.290409" lon="-6.675026">
        <ele>1140.062</ele>
        <time>1999-07-24T11:27:14Z</time>
      </trkpt>
      <trkpt lat="43.290370" lon="-6.675057">
        <ele>1140.483</ele>
        <time>1999-07-24T11:27:16Z</time>
      </trkpt>
      <trkpt lat="43.290349" lon="-6.675069">
        <ele>1140.611</ele>
        <time>1999-07-24T11:27:17Z</time>
      </trkpt>
      <trkpt lat="43.290292" lon="-6.675107">
        <ele>1141.208</ele>
        <time>1999-07-24T11:27:20Z</time>
      </trkpt>
      <trkpt lat="43.290253" lon="-6.675133">
        <ele>1141.629</ele>
        <time>1999-07-24T11:27:22Z</time>
      </trkpt>
      <trkpt lat="43.290156" lon="-6.675197">
        <ele>1142.865</ele>
        <time>1999-07-24T11:27:27Z</time>
      </trkpt>
      <trkpt lat="43.290065" lon="-6.675258">
        <ele>1144.096</ele>
        <time>1999-07-24T11:27:32Z</time>
      </trkpt>
      <trkpt lat="43.289995" lon="-6.675317">
        <ele>1144.637</ele>
        <time>1999-07-24T11:27:36Z</time>
      </trkpt>
      <trkpt lat="43.289961" lon="-6.675345">
        <ele>1145.061</ele>
        <time>1999-07-24T11:27:38Z</time>
      </trkpt>
      <trkpt lat="43.289887" lon="-6.675400">
        <ele>1145.890</ele>
        <time>1999-07-24T11:27:42Z</time>
      </trkpt>
      <trkpt lat="43.289868" lon="-6.675410">
        <ele>1146.026</ele>
        <time>1999-07-24T11:27:43Z</time>
      </trkpt>
      <trkpt lat="43.289796" lon="-6.675457">
        <ele>1147.088</ele>
        <time>1999-07-24T11:27:47Z</time>
      </trkpt>
      <trkpt lat="43.289780" lon="-6.675469">
        <ele>1147.213</ele>
        <time>1999-07-24T11:27:48Z</time>
      </trkpt>
      <trkpt lat="43.289763" lon="-6.675479">
        <ele>1147.443</ele>
        <time>1999-07-24T11:27:49Z</time>
      </trkpt>
      <trkpt lat="43.289685" lon="-6.675516">
        <ele>1148.207</ele>
        <time>1999-07-24T11:27:53Z</time>
      </trkpt>
      <trkpt lat="43.289666" lon="-6.675530">
        <ele>1148.208</ele>
        <time>1999-07-24T11:27:54Z</time>
      </trkpt>
      <trkpt lat="43.289647" lon="-6.675542">
        <ele>1148.654</ele>
        <time>1999-07-24T11:27:55Z</time>
      </trkpt>
      <trkpt lat="43.289592" lon="-6.675565">
        <ele>1149.650</ele>
        <time>1999-07-24T11:27:58Z</time>
      </trkpt>
      <trkpt lat="43.289479" lon="-6.675620">
        <ele>1150.661</ele>
        <time>1999-07-24T11:28:04Z</time>
      </trkpt>
      <trkpt lat="43.289370" lon="-6.675678">
        <ele>1151.822</ele>
        <time>1999-07-24T11:28:10Z</time>
      </trkpt>
      <trkpt lat="43.289329" lon="-6.675697">
        <ele>1152.286</ele>
        <time>1999-07-24T11:28:12Z</time>
      </trkpt>
      <trkpt lat="43.289248" lon="-6.675734">
        <ele>1152.845</ele>
        <time>1999-07-24T11:28:16Z</time>
      </trkpt>
      <trkpt lat="43.289146" lon="-6.675786">
        <ele>1153.821</ele>
        <time>1999-07-24T11:28:21Z</time>
      </trkpt>
      <trkpt lat="43.289062" lon="-6.675831">
        <ele>1155.043</ele>
        <time>1999-07-24T11:28:25Z</time>
      </trkpt>
      <trkpt lat="43.288978" lon="-6.675856">
        <ele>1155.258</ele>
        <time>1999-07-24T11:28:29Z</time>
      </trkpt>
      <trkpt lat="43.288844" lon="-6.675881">
        <ele>1156.052</ele>
        <time>1999-07-24T11:28:35Z</time>
      </trkpt>
      <trkpt lat="43.288822" lon="-6.675885">
        <ele>1156.417</ele>
        <time>1999-07-24T11:28:36Z</time>
      </trkpt>
      <trkpt lat="43.288723" lon="-6.675928">
        <ele>1157.208</ele>
        <time>1999-07-24T11:28:41Z</time>
      </trkpt>
      <trkpt lat="43.288661" lon="-6.675959">
        <ele>1157.628</ele>
        <time>1999-07-24T11:28:44Z</time>
      </trkpt>
      <trkpt lat="43.288622" lon="-6.675977">
        <ele>1158.284</ele>
        <time>1999-07-24T11:28:46Z</time>
      </trkpt>
      <trkpt lat="43.288507" lon="-6.676024">
        <ele>1159.265</ele>
        <time>1999-07-24T11:28:52Z</time>
      </trkpt>
      <trkpt lat="43.288398" lon="-6.676061">
        <ele>1160.486</ele>
        <time>1999-07-24T11:28:58Z</time>
      </trkpt>
      <trkpt lat="43.288310" lon="-6.676088">
        <ele>1161.460</ele>
        <time>1999-07-24T11:29:03Z</time>
      </trkpt>
      <trkpt lat="43.288249" lon="-6.676083">
        <ele>1161.879</ele>
        <time>1999-07-24T11:29:06Z</time>
      </trkpt>
      <trkpt lat="43.288187" lon="-6.676064">
        <ele>1162.695</ele>
        <time>1999-07-24T11:29:09Z</time>
      </trkpt>
      <trkpt lat="43.288108" lon="-6.676060">
        <ele>1163.237</ele>
        <time>1999-07-24T11:29:13Z</time>
      </trkpt>
      <trkpt lat="43.288054" lon="-6.676067">
        <ele>1164.055</ele>
        <time>1999-07-24T11:29:16Z</time>
      </trkpt>
      <trkpt lat="43.287958" lon="-6.676064">
        <ele>1164.607</ele>
        <time>1999-07-24T11:29:21Z</time>
      </trkpt>
      <trkpt lat="43.287904" lon="-6.676056">
        <ele>1165.217</ele>
        <time>1999-07-24T11:29:24Z</time>
      </trkpt>
      <trkpt lat="43.287866" lon="-6.676049">
        <ele>1165.608</ele>
        <time>1999-07-24T11:29:26Z</time>
      </trkpt>
      <trkpt lat="43.287848" lon="-6.676057">
        <ele>1165.638</ele>
        <time>1999-07-24T11:29:27Z</time>
      </trkpt>
      <trkpt lat="43.287791" lon="-6.676060">
        <ele>1166.214</ele>
        <time>1999-07-24T11:29:30Z</time>
      </trkpt>
      <trkpt lat="43.287772" lon="-6.676059">
        <ele>1166.225</ele>
        <time>1999-07-24T11:29:31Z</time>
      </trkpt>
      <trkpt lat="43.287735" lon="-6.676053">
        <ele>1166.476</ele>
        <time>1999-07-24T11:29:33Z</time>
      </trkpt>
      <trkpt lat="43.287603" lon="-6.676031">
        <ele>1167.230</ele>
        <time>1999-07-24T11:29:40Z</time>
      </trkpt>
      <trkpt lat="43.287565" lon="-6.676030">
        <ele>1167.619</ele>
        <time>1999-07-24T11:29:42Z</time>
      </trkpt>
      <trkpt lat="43.287507" lon="-6.676030">
        <ele>1168.245</ele>
        <time>1999-07-24T11:29:45Z</time>
      </trkpt>
      <trkpt lat="43.287419" lon="-6.676040">
        <ele>1169.227</ele>
        <time>1999-07-24T11:29:50Z</time>
      </trkpt>
      <trkpt lat="43.287403" lon="-6.676043">
        <ele>1169.497</ele>
        <time>1999-07-24T11:29:51Z</time>
      </trkpt>
      <trkpt lat="43.287323" lon="-6.676069">
        <ele>1170.423</ele>
        <time>1999-07-24T11:29:56Z</time>
      </trkpt>
      <trkpt lat="43.287220" lon="-6.676094">
        <ele>1171.625</ele>
        <time>1999-07-24T11:30:02Z</time>
      </trkpt>
      <trkpt lat="43.287203" lon="-6.676103">
        <ele>1171.808</ele>
        <time>1999-07-24T11:30:03Z</time>
      </trkpt>
      <trkpt lat="43.287185" lon="-6.676108">
        <ele>1172.072</ele>
        <time>1999-07-24T11:30:04Z</time>
      </trkpt>
      <trkpt lat="43.287167" lon="-6.676112">
        <ele>1172.628</ele>
        <time>1999-07-24T11:30:05Z</time>
      </trkpt>
      <trkpt lat="43.287078" lon="-6.676122">
        <ele>1173.869</ele>
        <time>1999-07-24T11:30:10Z</time>
      </trkpt>
      <trkpt lat="43.287044" lon="-6.676128">
        <ele>1173.890</ele>
        <time>1999-07-24T11:30:12Z</time>
      </trkpt>
      <trkpt lat="43.286991" lon="-6.676123">
        <ele>1174.644</ele>
        <time>1999-07-24T11:30:15Z</time>
      </trkpt>
      <trkpt lat="43.286924" lon="-6.676118">
        <ele>1175.053</ele>
        <time>1999-07-24T11:30:19Z</time>
      </trkpt>
      <trkpt lat="43.286867" lon="-6.676122">
        <ele>1175.649</ele>
        <time>1999-07-24T11:30:22Z</time>
      </trkpt>
      <trkpt lat="43.286786" lon="-6.676119">
        <ele>1176.411</ele>
        <time>1999-07-24T11:30:26Z</time>
      </trkpt>
      <trkpt lat="43.286720" lon="-6.676123">
        <ele>1176.851</ele>
        <time>1999-07-24T11:30:29Z</time>
      </trkpt>
      <trkpt lat="43.286564" lon="-6.676132">
        <ele>1177.801</ele>
        <time>1999-07-24T11:30:35Z</time>
      </trkpt>
      <trkpt lat="43.286536" lon="-6.676135">
        <ele>1177.811</ele>
        <time>1999-07-24T11:30:36Z</time>
      </trkpt>
      <trkpt lat="43.286290" lon="-6.676160">
        <ele>1178.408</ele>
        <time>1999-07-24T11:30:44Z</time>
      </trkpt>
      <trkpt lat="43.286155" lon="-6.676194">
        <ele>1178.698</ele>
        <time>1999-07-24T11:30:48Z</time>
      </trkpt>
      <trkpt lat="43.286120" lon="-6.676211">
        <ele>1178.644</ele>
        <time>1999-07-24T11:30:49Z</time>
      </trkpt>
      <trkpt lat="43.286048" lon="-6.676232">
        <ele>1178.675</ele>
        <time>1999-07-24T11:30:51Z</time>
      </trkpt>
      <trkpt lat="43.285818" lon="-6.676202">
        <ele>1178.666</ele>
        <time>1999-07-24T11:30:58Z</time>
      </trkpt>
      <trkpt lat="43.285593" lon="-6.676180">
        <ele>1178.650</ele>
        <time>1999-07-24T11:31:05Z</time>
      </trkpt>
      <trkpt lat="43.285522" lon="-6.676218">
        <ele>1179.089</ele>
        <time>1999-07-24T11:31:07Z</time>
      </trkpt>
      <trkpt lat="43.285405" lon="-6.676296">
        <ele>1180.245</ele>
        <time>1999-07-24T11:31:10Z</time>
      </trkpt>
      <trkpt lat="43.285310" lon="-6.676368">
        <ele>1180.427</ele>
        <time>1999-07-24T11:31:12Z</time>
      </trkpt>
      <trkpt lat="43.285198" lon="-6.676479">
        <ele>1180.411</ele>
        <time>1999-07-24T11:31:14Z</time>
      </trkpt>
      <trkpt lat="43.284864" lon="-6.676741">
        <ele>1180.221</ele>
        <time>1999-07-24T11:31:19Z</time>
      </trkpt>
      <trkpt lat="43.284628" lon="-6.676889">
        <ele>1179.403</ele>
        <time>1999-07-24T11:31:23Z</time>
      </trkpt>
      <trkpt lat="43.284572" lon="-6.676921">
        <ele>1179.008</ele>
        <time>1999-07-24T11:31:24Z</time>
      </trkpt>
      <trkpt lat="43.284452" lon="-6.676987">
        <ele>1177.234</ele>
        <time>1999-07-24T11:31:26Z</time>
      </trkpt>
      <trkpt lat="43.284334" lon="-6.677037">
        <ele>1175.460</ele>
        <time>1999-07-24T11:31:28Z</time>
      </trkpt>
      <trkpt lat="43.284283" lon="-6.677055">
        <ele>1174.441</ele>
        <time>1999-07-24T11:31:29Z</time>
      </trkpt>
      <trkpt lat="43.284236" lon="-6.677074">
        <ele>1173.812</ele>
        <time>1999-07-24T11:31:30Z</time>
      </trkpt>
      <trkpt lat="43.284150" lon="-6.677112">
        <ele>1172.696</ele>
        <time>1999-07-24T11:31:32Z</time>
      </trkpt>
      <trkpt lat="43.284071" lon="-6.677145">
        <ele>1172.275</ele>
        <time>1999-07-24T11:31:34Z</time>
      </trkpt>
      <trkpt lat="43.284035" lon="-6.677159">
        <ele>1171.681</ele>
        <time>1999-07-24T11:31:35Z</time>
      </trkpt>
      <trkpt lat="43.284000" lon="-6.677175">
        <ele>1170.823</ele>
        <time>1999-07-24T11:31:36Z</time>
      </trkpt>
      <trkpt lat="43.283932" lon="-6.677197">
        <ele>1170.036</ele>
        <time>1999-07-24T11:31:38Z</time>
      </trkpt>
      <trkpt lat="43.283825" lon="-6.677230">
        <ele>1169.017</ele>
        <time>1999-07-24T11:31:41Z</time>
      </trkpt>
      <trkpt lat="43.283783" lon="-6.677247">
        <ele>1168.818</ele>
        <time>1999-07-24T11:31:42Z</time>
      </trkpt>
      <trkpt lat="43.283584" lon="-6.677332">
        <ele>1168.408</ele>
        <time>1999-07-24T11:31:46Z</time>
      </trkpt>
      <trkpt lat="43.283525" lon="-6.677356">
        <ele>1168.476</ele>
        <time>1999-07-24T11:31:47Z</time>
      </trkpt>
      <trkpt lat="43.283406" lon="-6.677413">
        <ele>1167.892</ele>
        <time>1999-07-24T11:31:49Z</time>
      </trkpt>
      <trkpt lat="43.283254" lon="-6.677484">
        <ele>1166.813</ele>
        <time>1999-07-24T11:31:52Z</time>
      </trkpt>
      <trkpt lat="43.283211" lon="-6.677500">
        <ele>1166.644</ele>
        <time>1999-07-24T11:31:53Z</time>
      </trkpt>
      <trkpt lat="43.283116" lon="-6.677525">
        <ele>1165.288</ele>
        <time>1999-07-24T11:31:55Z</time>
      </trkpt>
      <trkpt lat="43.283063" lon="-6.677530">
        <ele>1165.087</ele>
        <time>1999-07-24T11:31:56Z</time>
      </trkpt>
      <trkpt lat="43.283007" lon="-6.677526">
        <ele>1164.853</ele>
        <time>1999-07-24T11:31:57Z</time>
      </trkpt>
      <trkpt lat="43.282885" lon="-6.677512">
        <ele>1164.485</ele>
        <time>1999-07-24T11:31:59Z</time>
      </trkpt>
      <trkpt lat="43.282759" lon="-6.677506">
        <ele>1164.232</ele>
        <time>1999-07-24T11:32:01Z</time>
      </trkpt>
      <trkpt lat="43.282695" lon="-6.677506">
        <ele>1164.292</ele>
        <time>1999-07-24T11:32:02Z</time>
      </trkpt>
      <trkpt lat="43.282566" lon="-6.677516">
        <ele>1163.811</ele>
        <time>1999-07-24T11:32:04Z</time>
      </trkpt>
      <trkpt lat="43.282453" lon="-6.677531">
        <ele>1163.008</ele>
        <time>1999-07-24T11:32:06Z</time>
      </trkpt>
      <trkpt lat="43.282366" lon="-6.677549">
        <ele>1162.656</ele>
        <time>1999-07-24T11:32:08Z</time>
      </trkpt>
      <trkpt lat="43.282290" lon="-6.677571">
        <ele>1162.072</ele>
        <time>1999-07-24T11:32:11Z</time>
      </trkpt>
      <trkpt lat="43.282272" lon="-6.677575">
        <ele>1161.673</ele>
        <time>1999-07-24T11:32:12Z</time>
      </trkpt>
      <trkpt lat="43.282146" lon="-6.677617">
        <ele>1161.214</ele>
        <time>1999-07-24T11:32:19Z</time>
      </trkpt>
      <trkpt lat="43.282099" lon="-6.677645">
        <ele>1161.448</ele>
        <time>1999-07-24T11:32:22Z</time>
      </trkpt>
      <trkpt lat="43.282036" lon="-6.677670">
        <ele>1161.817</ele>
        <time>1999-07-24T11:32:26Z</time>
      </trkpt>
      <trkpt lat="43.282019" lon="-6.677676">
        <ele>1162.093</ele>
        <time>1999-07-24T11:32:27Z</time>
      </trkpt>
      <trkpt lat="43.281986" lon="-6.677690">
        <ele>1162.425</ele>
        <time>1999-07-24T11:32:29Z</time>
      </trkpt>
      <trkpt lat="43.281941" lon="-6.677718">
        <ele>1162.877</ele>
        <time>1999-07-24T11:32:32Z</time>
      </trkpt>
      <trkpt lat="43.281910" lon="-6.677732">
        <ele>1163.061</ele>
        <time>1999-07-24T11:32:34Z</time>
      </trkpt>
      <trkpt lat="43.281884" lon="-6.677751">
        <ele>1163.427</ele>
        <time>1999-07-24T11:32:36Z</time>
      </trkpt>
      <trkpt lat="43.281828" lon="-6.677799">
        <ele>1164.008</ele>
        <time>1999-07-24T11:32:40Z</time>
      </trkpt>
      <trkpt lat="43.281756" lon="-6.677851">
        <ele>1165.040</ele>
        <time>1999-07-24T11:32:45Z</time>
      </trkpt>
      <trkpt lat="43.281727" lon="-6.677872">
        <ele>1165.476</ele>
        <time>1999-07-24T11:32:47Z</time>
      </trkpt>
      <trkpt lat="43.281658" lon="-6.677919">
        <ele>1166.477</ele>
        <time>1999-07-24T11:32:52Z</time>
      </trkpt>
      <trkpt lat="43.281629" lon="-6.677938">
        <ele>1166.848</ele>
        <time>1999-07-24T11:32:54Z</time>
      </trkpt>
      <trkpt lat="43.281583" lon="-6.677966">
        <ele>1167.642</ele>
        <time>1999-07-24T11:32:57Z</time>
      </trkpt>
      <trkpt lat="43.281524" lon="-6.677995">
        <ele>1168.661</ele>
        <time>1999-07-24T11:33:01Z</time>
      </trkpt>
      <trkpt lat="43.281490" lon="-6.678006">
        <ele>1169.067</ele>
        <time>1999-07-24T11:33:03Z</time>
      </trkpt>
      <trkpt lat="43.281442" lon="-6.678013">
        <ele>1169.839</ele>
        <time>1999-07-24T11:33:06Z</time>
      </trkpt>
      <trkpt lat="43.281359" lon="-6.678000">
        <ele>1170.868</ele>
        <time>1999-07-24T11:33:11Z</time>
      </trkpt>
      <trkpt lat="43.281281" lon="-6.677972">
        <ele>1172.042</ele>
        <time>1999-07-24T11:33:16Z</time>
      </trkpt>
      <trkpt lat="43.281266" lon="-6.677968">
        <ele>1172.226</ele>
        <time>1999-07-24T11:33:17Z</time>
      </trkpt>
      <trkpt lat="43.281198" lon="-6.677942">
        <ele>1173.008</ele>
        <time>1999-07-24T11:33:21Z</time>
      </trkpt>
      <trkpt lat="43.281115" lon="-6.677912">
        <ele>1174.059</ele>
        <time>1999-07-24T11:33:26Z</time>
      </trkpt>
      <trkpt lat="43.281098" lon="-6.677906">
        <ele>1174.465</ele>
        <time>1999-07-24T11:33:27Z</time>
      </trkpt>
      <trkpt lat="43.281016" lon="-6.677873">
        <ele>1175.226</ele>
        <time>1999-07-24T11:33:32Z</time>
      </trkpt>
      <trkpt lat="43.280962" lon="-6.677845">
        <ele>1175.677</ele>
        <time>1999-07-24T11:33:35Z</time>
      </trkpt>
      <trkpt lat="43.280894" lon="-6.677800">
        <ele>1176.271</ele>
        <time>1999-07-24T11:33:38Z</time>
      </trkpt>
      <trkpt lat="43.280807" lon="-6.677729">
        <ele>1176.660</ele>
        <time>1999-07-24T11:33:41Z</time>
      </trkpt>
      <trkpt lat="43.280578" lon="-6.677562">
        <ele>1177.036</ele>
        <time>1999-07-24T11:33:48Z</time>
      </trkpt>
      <trkpt lat="43.280489" lon="-6.677492">
        <ele>1177.018</ele>
        <time>1999-07-24T11:33:51Z</time>
      </trkpt>
      <trkpt lat="43.280385" lon="-6.677413">
        <ele>1177.051</ele>
        <time>1999-07-24T11:33:55Z</time>
      </trkpt>
      <trkpt lat="43.280238" lon="-6.677353">
        <ele>1177.201</ele>
        <time>1999-07-24T11:34:00Z</time>
      </trkpt>
      <trkpt lat="43.280202" lon="-6.677346">
        <ele>1177.211</ele>
        <time>1999-07-24T11:34:01Z</time>
      </trkpt>
      <trkpt lat="43.279987" lon="-6.677309">
        <ele>1177.208</ele>
        <time>1999-07-24T11:34:06Z</time>
      </trkpt>
      <trkpt lat="43.279947" lon="-6.677310">
        <ele>1177.268</ele>
        <time>1999-07-24T11:34:07Z</time>
      </trkpt>
      <trkpt lat="43.279866" lon="-6.677304">
        <ele>1177.064</ele>
        <time>1999-07-24T11:34:09Z</time>
      </trkpt>
      <trkpt lat="43.279780" lon="-6.677323">
        <ele>1176.825</ele>
        <time>1999-07-24T11:34:11Z</time>
      </trkpt>
      <trkpt lat="43.279733" lon="-6.677337">
        <ele>1176.686</ele>
        <time>1999-07-24T11:34:12Z</time>
      </trkpt>
      <trkpt lat="43.279355" lon="-6.677445">
        <ele>1175.880</ele>
        <time>1999-07-24T11:34:20Z</time>
      </trkpt>
      <trkpt lat="43.279303" lon="-6.677466">
        <ele>1175.679</ele>
        <time>1999-07-24T11:34:21Z</time>
      </trkpt>
      <trkpt lat="43.279247" lon="-6.677483">
        <ele>1175.425</ele>
        <time>1999-07-24T11:34:22Z</time>
      </trkpt>
      <trkpt lat="43.279128" lon="-6.677528">
        <ele>1175.247</ele>
        <time>1999-07-24T11:34:24Z</time>
      </trkpt>
      <trkpt lat="43.279065" lon="-6.677549">
        <ele>1175.022</ele>
        <time>1999-07-24T11:34:25Z</time>
      </trkpt>
      <trkpt lat="43.278728" lon="-6.677665">
        <ele>1173.862</ele>
        <time>1999-07-24T11:34:30Z</time>
      </trkpt>
      <trkpt lat="43.278657" lon="-6.677686">
        <ele>1173.208</ele>
        <time>1999-07-24T11:34:31Z</time>
      </trkpt>
      <trkpt lat="43.278584" lon="-6.677706">
        <ele>1172.808</ele>
        <time>1999-07-24T11:34:32Z</time>
      </trkpt>
      <trkpt lat="43.278297" lon="-6.677802">
        <ele>1171.625</ele>
        <time>1999-07-24T11:34:36Z</time>
      </trkpt>
      <trkpt lat="43.278161" lon="-6.677868">
        <ele>1170.461</ele>
        <time>1999-07-24T11:34:38Z</time>
      </trkpt>
      <trkpt lat="43.278030" lon="-6.677929">
        <ele>1169.022</ele>
        <time>1999-07-24T11:34:40Z</time>
      </trkpt>
      <trkpt lat="43.277965" lon="-6.677968">
        <ele>1168.623</ele>
        <time>1999-07-24T11:34:41Z</time>
      </trkpt>
      <trkpt lat="43.277835" lon="-6.678049">
        <ele>1168.047</ele>
        <time>1999-07-24T11:34:43Z</time>
      </trkpt>
      <trkpt lat="43.277767" lon="-6.678073">
        <ele>1167.026</ele>
        <time>1999-07-24T11:34:44Z</time>
      </trkpt>
      <trkpt lat="43.277639" lon="-6.678114">
        <ele>1165.072</ele>
        <time>1999-07-24T11:34:46Z</time>
      </trkpt>
      <trkpt lat="43.277582" lon="-6.678135">
        <ele>1163.854</ele>
        <time>1999-07-24T11:34:47Z</time>
      </trkpt>
      <trkpt lat="43.277470" lon="-6.678162">
        <ele>1162.642</ele>
        <time>1999-07-24T11:34:49Z</time>
      </trkpt>
      <trkpt lat="43.277352" lon="-6.678184">
        <ele>1161.822</ele>
        <time>1999-07-24T11:34:51Z</time>
      </trkpt>
      <trkpt lat="43.277294" lon="-6.678196">
        <ele>1161.414</ele>
        <time>1999-07-24T11:34:52Z</time>
      </trkpt>
      <trkpt lat="43.277172" lon="-6.678218">
        <ele>1161.208</ele>
        <time>1999-07-24T11:34:54Z</time>
      </trkpt>
      <trkpt lat="43.276906" lon="-6.678255">
        <ele>1160.497</ele>
        <time>1999-07-24T11:34:58Z</time>
      </trkpt>
      <trkpt lat="43.276777" lon="-6.678271">
        <ele>1160.263</ele>
        <time>1999-07-24T11:35:00Z</time>
      </trkpt>
      <trkpt lat="43.276585" lon="-6.678291">
        <ele>1159.444</ele>
        <time>1999-07-24T11:35:03Z</time>
      </trkpt>
      <trkpt lat="43.276451" lon="-6.678316">
        <ele>1158.085</ele>
        <time>1999-07-24T11:35:05Z</time>
      </trkpt>
      <trkpt lat="43.276318" lon="-6.678342">
        <ele>1157.099</ele>
        <time>1999-07-24T11:35:07Z</time>
      </trkpt>
      <trkpt lat="43.276249" lon="-6.678353">
        <ele>1156.688</ele>
        <time>1999-07-24T11:35:08Z</time>
      </trkpt>
      <trkpt lat="43.275978" lon="-6.678392">
        <ele>1155.234</ele>
        <time>1999-07-24T11:35:12Z</time>
      </trkpt>
      <trkpt lat="43.275849" lon="-6.678406">
        <ele>1154.066</ele>
        <time>1999-07-24T11:35:14Z</time>
      </trkpt>
      <trkpt lat="43.275788" lon="-6.678417">
        <ele>1153.652</ele>
        <time>1999-07-24T11:35:15Z</time>
      </trkpt>
      <trkpt lat="43.275675" lon="-6.678447">
        <ele>1152.653</ele>
        <time>1999-07-24T11:35:17Z</time>
      </trkpt>
      <trkpt lat="43.275578" lon="-6.678481">
        <ele>1151.608</ele>
        <time>1999-07-24T11:35:19Z</time>
      </trkpt>
      <trkpt lat="43.275285" lon="-6.678560">
        <ele>1150.608</ele>
        <time>1999-07-24T11:35:24Z</time>
      </trkpt>
      <trkpt lat="43.275222" lon="-6.678566">
        <ele>1150.618</ele>
        <time>1999-07-24T11:35:25Z</time>
      </trkpt>
      <trkpt lat="43.275017" lon="-6.678565">
        <ele>1149.284</ele>
        <time>1999-07-24T11:35:28Z</time>
      </trkpt>
      <trkpt lat="43.274889" lon="-6.678571">
        <ele>1148.215</ele>
        <time>1999-07-24T11:35:30Z</time>
      </trkpt>
      <trkpt lat="43.274833" lon="-6.678577">
        <ele>1147.856</ele>
        <time>1999-07-24T11:35:31Z</time>
      </trkpt>
      <trkpt lat="43.274727" lon="-6.678577">
        <ele>1146.640</ele>
        <time>1999-07-24T11:35:33Z</time>
      </trkpt>
      <trkpt lat="43.274618" lon="-6.678572">
        <ele>1145.279</ele>
        <time>1999-07-24T11:35:35Z</time>
      </trkpt>
      <trkpt lat="43.274440" lon="-6.678552">
        <ele>1144.035</ele>
        <time>1999-07-24T11:35:38Z</time>
      </trkpt>
      <trkpt lat="43.274320" lon="-6.678520">
        <ele>1143.067</ele>
        <time>1999-07-24T11:35:40Z</time>
      </trkpt>
      <trkpt lat="43.274264" lon="-6.678507">
        <ele>1141.893</ele>
        <time>1999-07-24T11:35:41Z</time>
      </trkpt>
      <trkpt lat="43.274091" lon="-6.678488">
        <ele>1140.465</ele>
        <time>1999-07-24T11:35:44Z</time>
      </trkpt>
      <trkpt lat="43.273998" lon="-6.678489">
        <ele>1139.221</ele>
        <time>1999-07-24T11:35:46Z</time>
      </trkpt>
      <trkpt lat="43.273844" lon="-6.678472">
        <ele>1138.008</ele>
        <time>1999-07-24T11:35:50Z</time>
      </trkpt>
      <trkpt lat="43.273755" lon="-6.678465">
        <ele>1137.442</ele>
        <time>1999-07-24T11:35:52Z</time>
      </trkpt>
      <trkpt lat="43.273656" lon="-6.678469">
        <ele>1136.688</ele>
        <time>1999-07-24T11:35:54Z</time>
      </trkpt>
      <trkpt lat="43.273516" lon="-6.678475">
        <ele>1135.469</ele>
        <time>1999-07-24T11:35:57Z</time>
      </trkpt>
      <trkpt lat="43.273420" lon="-6.678473">
        <ele>1135.080</ele>
        <time>1999-07-24T11:35:59Z</time>
      </trkpt>
      <trkpt lat="43.273181" lon="-6.678475">
        <ele>1134.054</ele>
        <time>1999-07-24T11:36:03Z</time>
      </trkpt>
      <trkpt lat="43.273110" lon="-6.678469">
        <ele>1133.433</ele>
        <time>1999-07-24T11:36:04Z</time>
      </trkpt>
      <trkpt lat="43.273040" lon="-6.678468">
        <ele>1133.259</ele>
        <time>1999-07-24T11:36:05Z</time>
      </trkpt>
      <trkpt lat="43.272969" lon="-6.678470">
        <ele>1132.861</ele>
        <time>1999-07-24T11:36:06Z</time>
      </trkpt>
      <trkpt lat="43.272897" lon="-6.678467">
        <ele>1132.695</ele>
        <time>1999-07-24T11:36:07Z</time>
      </trkpt>
      <trkpt lat="43.272756" lon="-6.678432">
        <ele>1131.249</ele>
        <time>1999-07-24T11:36:09Z</time>
      </trkpt>
      <trkpt lat="43.272632" lon="-6.678386">
        <ele>1130.023</ele>
        <time>1999-07-24T11:36:11Z</time>
      </trkpt>
      <trkpt lat="43.272586" lon="-6.678363">
        <ele>1129.608</ele>
        <time>1999-07-24T11:36:12Z</time>
      </trkpt>
      <trkpt lat="43.272545" lon="-6.678345">
        <ele>1129.222</ele>
        <time>1999-07-24T11:36:13Z</time>
      </trkpt>
      <trkpt lat="43.272506" lon="-6.678348">
        <ele>1128.668</ele>
        <time>1999-07-24T11:36:14Z</time>
      </trkpt>
      <trkpt lat="43.272455" lon="-6.678424">
        <ele>1128.299</ele>
        <time>1999-07-24T11:36:16Z</time>
      </trkpt>
      <trkpt lat="43.272437" lon="-6.678555">
        <ele>1127.870</ele>
        <time>1999-07-24T11:36:18Z</time>
      </trkpt>
      <trkpt lat="43.272410" lon="-6.678695">
        <ele>1127.694</ele>
        <time>1999-07-24T11:36:20Z</time>
      </trkpt>
      <trkpt lat="43.272385" lon="-6.678777">
        <ele>1126.643</ele>
        <time>1999-07-24T11:36:22Z</time>
      </trkpt>
      <trkpt lat="43.272372" lon="-6.678776">
        <ele>1126.219</ele>
        <time>1999-07-24T11:36:23Z</time>
      </trkpt>
      <trkpt lat="43.272404" lon="-6.678701">
        <ele>1125.431</ele>
        <time>1999-07-24T11:36:27Z</time>
      </trkpt>
      <trkpt lat="43.272418" lon="-6.678703">
        <ele>1125.043</ele>
        <time>1999-07-24T11:36:28Z</time>
      </trkpt>
      <trkpt lat="43.272411" lon="-6.678722">
        <ele>1124.464</ele>
        <time>1999-07-24T11:36:30Z</time>
      </trkpt>
      <trkpt lat="43.272375" lon="-6.678716">
        <ele>1124.410</ele>
        <time>1999-07-24T11:36:32Z</time>
      </trkpt>
      <trkpt lat="43.272344" lon="-6.678714">
        <ele>1124.208</ele>
        <time>1999-07-24T11:36:34Z</time>
      </trkpt>
      <trkpt lat="43.272338" lon="-6.678708">
        <ele>1124.227</ele>
        <time>1999-07-24T11:36:36Z</time>
      </trkpt>
      <trkpt lat="43.272381" lon="-6.678683">
        <ele>1124.253</ele>
        <time>1999-07-24T11:38:00Z</time>
      </trkpt>
      <trkpt lat="43.272400" lon="-6.678665">
        <ele>1124.294</ele>
        <time>1999-07-24T11:38:01Z</time>
      </trkpt>
      <trkpt lat="43.272412" lon="-6.678641">
        <ele>1124.285</ele>
        <time>1999-07-24T11:38:02Z</time>
      </trkpt>
      <trkpt lat="43.272422" lon="-6.678587">
        <ele>1124.299</ele>
        <time>1999-07-24T11:38:04Z</time>
      </trkpt>
      <trkpt lat="43.272426" lon="-6.678560">
        <ele>1124.258</ele>
        <time>1999-07-24T11:38:05Z</time>
      </trkpt>
      <trkpt lat="43.272439" lon="-6.678514">
        <ele>1124.214</ele>
        <time>1999-07-24T11:38:07Z</time>
      </trkpt>
      <trkpt lat="43.272474" lon="-6.678510">
        <ele>1124.246</ele>
        <time>1999-07-24T11:38:09Z</time>
      </trkpt>
      <trkpt lat="43.272544" lon="-6.678555">
        <ele>1124.255</ele>
        <time>1999-07-24T11:38:12Z</time>
      </trkpt>
      <trkpt lat="43.272561" lon="-6.678577">
        <ele>1124.207</ele>
        <time>1999-07-24T11:38:13Z</time>
      </trkpt>
      <trkpt lat="43.272574" lon="-6.678609">
        <ele>1124.417</ele>
        <time>1999-07-24T11:38:14Z</time>
      </trkpt>
      <trkpt lat="43.272581" lon="-6.678777">
        <ele>1124.408</ele>
        <time>1999-07-24T11:38:17Z</time>
      </trkpt>
      <trkpt lat="43.272541" lon="-6.678929">
        <ele>1124.428</ele>
        <time>1999-07-24T11:38:19Z</time>
      </trkpt>
      <trkpt lat="43.272514" lon="-6.679010">
        <ele>1124.414</ele>
        <time>1999-07-24T11:38:20Z</time>
      </trkpt>
      <trkpt lat="43.272482" lon="-6.679091">
        <ele>1124.475</ele>
        <time>1999-07-24T11:38:21Z</time>
      </trkpt>
      <trkpt lat="43.272391" lon="-6.679317">
        <ele>1124.426</ele>
        <time>1999-07-24T11:38:24Z</time>
      </trkpt>
      <trkpt lat="43.272338" lon="-6.679451">
        <ele>1123.870</ele>
        <time>1999-07-24T11:38:26Z</time>
      </trkpt>
      <trkpt lat="43.272309" lon="-6.679523">
        <ele>1123.699</ele>
        <time>1999-07-24T11:38:27Z</time>
      </trkpt>
      <trkpt lat="43.272276" lon="-6.679593">
        <ele>1123.465</ele>
        <time>1999-07-24T11:38:28Z</time>
      </trkpt>
      <trkpt lat="43.272239" lon="-6.679663">
        <ele>1122.457</ele>
        <time>1999-07-24T11:38:29Z</time>
      </trkpt>
      <trkpt lat="43.272171" lon="-6.679800">
        <ele>1121.473</ele>
        <time>1999-07-24T11:38:31Z</time>
      </trkpt>
      <trkpt lat="43.272141" lon="-6.679863">
        <ele>1120.885</ele>
        <time>1999-07-24T11:38:32Z</time>
      </trkpt>
      <trkpt lat="43.272119" lon="-6.679921">
        <ele>1120.213</ele>
        <time>1999-07-24T11:38:33Z</time>
      </trkpt>
      <trkpt lat="43.272097" lon="-6.680027">
        <ele>1118.408</ele>
        <time>1999-07-24T11:38:35Z</time>
      </trkpt>
      <trkpt lat="43.272087" lon="-6.680077">
        <ele>1116.860</ele>
        <time>1999-07-24T11:38:36Z</time>
      </trkpt>
      <trkpt lat="43.272057" lon="-6.680174">
        <ele>1115.246</ele>
        <time>1999-07-24T11:38:38Z</time>
      </trkpt>
      <trkpt lat="43.272041" lon="-6.680214">
        <ele>1114.247</ele>
        <time>1999-07-24T11:38:39Z</time>
      </trkpt>
      <trkpt lat="43.272023" lon="-6.680250">
        <ele>1113.288</ele>
        <time>1999-07-24T11:38:40Z</time>
      </trkpt>
      <trkpt lat="43.271995" lon="-6.680322">
        <ele>1111.452</ele>
        <time>1999-07-24T11:38:42Z</time>
      </trkpt>
      <trkpt lat="43.271992" lon="-6.680358">
        <ele>1110.291</ele>
        <time>1999-07-24T11:38:43Z</time>
      </trkpt>
      <trkpt lat="43.271989" lon="-6.680430">
        <ele>1108.677</ele>
        <time>1999-07-24T11:38:45Z</time>
      </trkpt>
      <trkpt lat="43.271976" lon="-6.680488">
        <ele>1106.829</ele>
        <time>1999-07-24T11:38:47Z</time>
      </trkpt>
      <trkpt lat="43.271955" lon="-6.680529">
        <ele>1105.094</ele>
        <time>1999-07-24T11:38:49Z</time>
      </trkpt>
      <trkpt lat="43.271943" lon="-6.680575">
        <ele>1103.257</ele>
        <time>1999-07-24T11:38:51Z</time>
      </trkpt>
      <trkpt lat="43.271943" lon="-6.680624">
        <ele>1101.822</ele>
        <time>1999-07-24T11:38:53Z</time>
      </trkpt>
      <trkpt lat="43.271946" lon="-6.680646">
        <ele>1100.208</ele>
        <time>1999-07-24T11:38:54Z</time>
      </trkpt>
      <trkpt lat="43.271947" lon="-6.680692">
        <ele>1098.842</ele>
        <time>1999-07-24T11:38:56Z</time>
      </trkpt>
      <trkpt lat="43.271936" lon="-6.680746">
        <ele>1097.228</ele>
        <time>1999-07-24T11:38:59Z</time>
      </trkpt>
      <trkpt lat="43.271926" lon="-6.680787">
        <ele>1096.029</ele>
        <time>1999-07-24T11:39:01Z</time>
      </trkpt>
      <trkpt lat="43.271923" lon="-6.680831">
        <ele>1094.870</ele>
        <time>1999-07-24T11:39:03Z</time>
      </trkpt>
      <trkpt lat="43.271911" lon="-6.680885">
        <ele>1093.614</ele>
        <time>1999-07-24T11:39:05Z</time>
      </trkpt>
      <trkpt lat="43.271893" lon="-6.680972">
        <ele>1092.243</ele>
        <time>1999-07-24T11:39:08Z</time>
      </trkpt>
      <trkpt lat="43.271877" lon="-6.681051">
        <ele>1091.259</ele>
        <time>1999-07-24T11:39:11Z</time>
      </trkpt>
      <trkpt lat="43.271863" lon="-6.681142">
        <ele>1090.051</ele>
        <time>1999-07-24T11:39:14Z</time>
      </trkpt>
      <trkpt lat="43.271852" lon="-6.681205">
        <ele>1088.669</ele>
        <time>1999-07-24T11:39:16Z</time>
      </trkpt>
      <trkpt lat="43.271850" lon="-6.681252">
        <ele>1087.204</ele>
        <time>1999-07-24T11:39:18Z</time>
      </trkpt>
      <trkpt lat="43.271842" lon="-6.681302">
        <ele>1086.024</ele>
        <time>1999-07-24T11:39:20Z</time>
      </trkpt>
      <trkpt lat="43.271834" lon="-6.681328">
        <ele>1084.608</ele>
        <time>1999-07-24T11:39:21Z</time>
      </trkpt>
      <trkpt lat="43.271828" lon="-6.681369">
        <ele>1082.819</ele>
        <time>1999-07-24T11:39:23Z</time>
      </trkpt>
      <trkpt lat="43.271823" lon="-6.681406">
        <ele>1081.485</ele>
        <time>1999-07-24T11:39:25Z</time>
      </trkpt>
      <trkpt lat="43.271808" lon="-6.681449">
        <ele>1080.266</ele>
        <time>1999-07-24T11:39:27Z</time>
      </trkpt>
      <trkpt lat="43.271792" lon="-6.681493">
        <ele>1079.097</ele>
        <time>1999-07-24T11:39:29Z</time>
      </trkpt>
      <trkpt lat="43.271783" lon="-6.681528">
        <ele>1077.651</ele>
        <time>1999-07-24T11:39:33Z</time>
      </trkpt>
      <trkpt lat="43.271765" lon="-6.681609">
        <ele>1074.210</ele>
        <time>1999-07-24T11:39:41Z</time>
      </trkpt>
      <trkpt lat="43.271760" lon="-6.681649">
        <ele>1074.296</ele>
        <time>1999-07-24T11:39:43Z</time>
      </trkpt>
      <trkpt lat="43.271758" lon="-6.681670">
        <ele>1074.088</ele>
        <time>1999-07-24T11:39:44Z</time>
      </trkpt>
      <trkpt lat="43.271753" lon="-6.681719">
        <ele>1073.488</ele>
        <time>1999-07-24T11:39:48Z</time>
      </trkpt>
      <trkpt lat="43.271754" lon="-6.681721">
        <ele>1072.224</ele>
        <time>1999-07-24T11:39:49Z</time>
      </trkpt>
      <trkpt lat="43.271743" lon="-6.681808">
        <ele>1069.426</ele>
        <time>1999-07-24T11:39:55Z</time>
      </trkpt>
      <trkpt lat="43.271738" lon="-6.681828">
        <ele>1069.208</ele>
        <time>1999-07-24T11:39:56Z</time>
      </trkpt>
      <trkpt lat="43.271718" lon="-6.681887">
        <ele>1068.641</ele>
        <time>1999-07-24T11:40:00Z</time>
      </trkpt>
      <trkpt lat="43.271717" lon="-6.681891">
        <ele>1068.457</ele>
        <time>1999-07-24T11:40:01Z</time>
      </trkpt>
      <trkpt lat="43.271673" lon="-6.682107">
        <ele>1062.848</ele>
        <time>1999-07-24T11:40:26Z</time>
      </trkpt>
      <trkpt lat="43.271660" lon="-6.682161">
        <ele>1062.069</ele>
        <time>1999-07-24T11:40:29Z</time>
      </trkpt>
      <trkpt lat="43.271656" lon="-6.682174">
        <ele>1061.693</ele>
        <time>1999-07-24T11:40:30Z</time>
      </trkpt>
      <trkpt lat="43.271653" lon="-6.682194">
        <ele>1060.442</ele>
        <time>1999-07-24T11:40:33Z</time>
      </trkpt>
      <trkpt lat="43.271653" lon="-6.682227">
        <ele>1059.068</ele>
        <time>1999-07-24T11:40:36Z</time>
      </trkpt>
      <trkpt lat="43.271649" lon="-6.682250">
        <ele>1058.030</ele>
        <time>1999-07-24T11:40:38Z</time>
      </trkpt>
      <trkpt lat="43.271644" lon="-6.682261">
        <ele>1057.624</ele>
        <time>1999-07-24T11:40:39Z</time>
      </trkpt>
      <trkpt lat="43.271625" lon="-6.682299">
        <ele>1057.004</ele>
        <time>1999-07-24T11:40:42Z</time>
      </trkpt>
      <trkpt lat="43.271612" lon="-6.682330">
        <ele>1056.014</ele>
        <time>1999-07-24T11:40:45Z</time>
      </trkpt>
      <trkpt lat="43.271591" lon="-6.682383">
        <ele>1054.608</ele>
        <time>1999-07-24T11:40:49Z</time>
      </trkpt>
      <trkpt lat="43.271587" lon="-6.682396">
        <ele>1054.275</ele>
        <time>1999-07-24T11:40:50Z</time>
      </trkpt>
      <trkpt lat="43.271570" lon="-6.682447">
        <ele>1053.631</ele>
        <time>1999-07-24T11:40:53Z</time>
      </trkpt>
      <trkpt lat="43.271542" lon="-6.682508">
        <ele>1052.432</ele>
        <time>1999-07-24T11:40:57Z</time>
      </trkpt>
      <trkpt lat="43.271536" lon="-6.682551">
        <ele>1051.663</ele>
        <time>1999-07-24T11:41:00Z</time>
      </trkpt>
      <trkpt lat="43.271540" lon="-6.682565">
        <ele>1051.267</ele>
        <time>1999-07-24T11:41:01Z</time>
      </trkpt>
      <trkpt lat="43.271541" lon="-6.682581">
        <ele>1050.696</ele>
        <time>1999-07-24T11:41:02Z</time>
      </trkpt>
      <trkpt lat="43.271538" lon="-6.682595">
        <ele>1050.052</ele>
        <time>1999-07-24T11:41:03Z</time>
      </trkpt>
      <trkpt lat="43.271522" lon="-6.682636">
        <ele>1048.894</ele>
        <time>1999-07-24T11:41:06Z</time>
      </trkpt>
      <trkpt lat="43.271519" lon="-6.682650">
        <ele>1048.414</ele>
        <time>1999-07-24T11:41:07Z</time>
      </trkpt>
      <trkpt lat="43.271511" lon="-6.682699">
        <ele>1047.654</ele>
        <time>1999-07-24T11:41:10Z</time>
      </trkpt>
      <trkpt lat="43.271508" lon="-6.682715">
        <ele>1047.609</ele>
        <time>1999-07-24T11:41:11Z</time>
      </trkpt>
      <trkpt lat="43.271501" lon="-6.682756">
        <ele>1046.408</ele>
        <time>1999-07-24T11:41:13Z</time>
      </trkpt>
      <trkpt lat="43.271493" lon="-6.682780">
        <ele>1046.084</ele>
        <time>1999-07-24T11:41:14Z</time>
      </trkpt>
      <trkpt lat="43.271478" lon="-6.682812">
        <ele>1045.640</ele>
        <time>1999-07-24T11:41:16Z</time>
      </trkpt>
      <trkpt lat="43.271474" lon="-6.682826">
        <ele>1045.271</ele>
        <time>1999-07-24T11:41:17Z</time>
      </trkpt>
      <trkpt lat="43.271470" lon="-6.682839">
        <ele>1044.222</ele>
        <time>1999-07-24T11:41:20Z</time>
      </trkpt>
      <trkpt lat="43.271451" lon="-6.682911">
        <ele>1041.496</ele>
        <time>1999-07-24T11:41:27Z</time>
      </trkpt>
      <trkpt lat="43.271391" lon="-6.683103">
        <ele>1041.085</ele>
        <time>1999-07-24T11:41:32Z</time>
      </trkpt>
      <trkpt lat="43.271367" lon="-6.683152">
        <ele>1041.071</ele>
        <time>1999-07-24T11:41:33Z</time>
      </trkpt>
      <trkpt lat="43.271277" lon="-6.683257">
        <ele>1040.433</ele>
        <time>1999-07-24T11:41:36Z</time>
      </trkpt>
      <trkpt lat="43.271258" lon="-6.683288">
        <ele>1040.073</ele>
        <time>1999-07-24T11:41:37Z</time>
      </trkpt>
      <trkpt lat="43.271236" lon="-6.683343">
        <ele>1038.885</ele>
        <time>1999-07-24T11:41:39Z</time>
      </trkpt>
      <trkpt lat="43.271227" lon="-6.683360">
        <ele>1038.413</ele>
        <time>1999-07-24T11:41:40Z</time>
      </trkpt>
      <trkpt lat="43.271197" lon="-6.683395">
        <ele>1037.408</ele>
        <time>1999-07-24T11:41:42Z</time>
      </trkpt>
      <trkpt lat="43.271172" lon="-6.683448">
        <ele>1036.410</ele>
        <time>1999-07-24T11:41:44Z</time>
      </trkpt>
      <trkpt lat="43.271135" lon="-6.683538">
        <ele>1035.476</ele>
        <time>1999-07-24T11:41:47Z</time>
      </trkpt>
      <trkpt lat="43.271107" lon="-6.683602">
        <ele>1034.897</ele>
        <time>1999-07-24T11:41:49Z</time>
      </trkpt>
      <trkpt lat="43.271092" lon="-6.683639">
        <ele>1034.298</ele>
        <time>1999-07-24T11:41:50Z</time>
      </trkpt>
      <trkpt lat="43.271072" lon="-6.683727">
        <ele>1033.282</ele>
        <time>1999-07-24T11:41:52Z</time>
      </trkpt>
      <trkpt lat="43.271062" lon="-6.683783">
        <ele>1032.671</ele>
        <time>1999-07-24T11:41:54Z</time>
      </trkpt>
      <trkpt lat="43.271058" lon="-6.683791">
        <ele>1032.037</ele>
        <time>1999-07-24T11:41:55Z</time>
      </trkpt>
      <trkpt lat="43.271057" lon="-6.683793">
        <ele>1031.069</ele>
        <time>1999-07-24T11:41:57Z</time>
      </trkpt>
      <trkpt lat="43.271014" lon="-6.683946">
        <ele>1026.247</ele>
        <time>1999-07-24T11:43:28Z</time>
      </trkpt>
      <trkpt lat="43.270988" lon="-6.683985">
        <ele>1026.229</ele>
        <time>1999-07-24T11:43:29Z</time>
      </trkpt>
      <trkpt lat="43.270917" lon="-6.684112">
        <ele>1026.021</ele>
        <time>1999-07-24T11:43:32Z</time>
      </trkpt>
      <trkpt lat="43.270849" lon="-6.684237">
        <ele>1025.808</ele>
        <time>1999-07-24T11:43:35Z</time>
      </trkpt>
      <trkpt lat="43.270796" lon="-6.684323">
        <ele>1025.257</ele>
        <time>1999-07-24T11:43:37Z</time>
      </trkpt>
      <trkpt lat="43.270755" lon="-6.684400">
        <ele>1024.223</ele>
        <time>1999-07-24T11:43:39Z</time>
      </trkpt>
      <trkpt lat="43.270719" lon="-6.684472">
        <ele>1022.664</ele>
        <time>1999-07-24T11:43:41Z</time>
      </trkpt>
      <trkpt lat="43.270682" lon="-6.684542">
        <ele>1021.425</ele>
        <time>1999-07-24T11:43:43Z</time>
      </trkpt>
      <trkpt lat="43.270643" lon="-6.684611">
        <ele>1020.269</ele>
        <time>1999-07-24T11:43:45Z</time>
      </trkpt>
      <trkpt lat="43.270600" lon="-6.684673">
        <ele>1018.488</ele>
        <time>1999-07-24T11:43:47Z</time>
      </trkpt>
      <trkpt lat="43.270586" lon="-6.684702">
        <ele>1017.224</ele>
        <time>1999-07-24T11:43:48Z</time>
      </trkpt>
      <trkpt lat="43.270568" lon="-6.684757">
        <ele>1015.886</ele>
        <time>1999-07-24T11:43:50Z</time>
      </trkpt>
      <trkpt lat="43.270552" lon="-6.684801">
        <ele>1014.665</ele>
        <time>1999-07-24T11:43:52Z</time>
      </trkpt>
      <trkpt lat="43.270540" lon="-6.684830">
        <ele>1014.268</ele>
        <time>1999-07-24T11:43:53Z</time>
      </trkpt>
      <trkpt lat="43.270529" lon="-6.684861">
        <ele>1013.814</ele>
        <time>1999-07-24T11:43:54Z</time>
      </trkpt>
      <trkpt lat="43.270506" lon="-6.684921">
        <ele>1012.408</ele>
        <time>1999-07-24T11:43:56Z</time>
      </trkpt>
      <trkpt lat="43.270482" lon="-6.684972">
        <ele>1011.059</ele>
        <time>1999-07-24T11:43:58Z</time>
      </trkpt>
      <trkpt lat="43.270470" lon="-6.684993">
        <ele>1010.485</ele>
        <time>1999-07-24T11:43:59Z</time>
      </trkpt>
      <trkpt lat="43.270453" lon="-6.685034">
        <ele>1009.446</ele>
        <time>1999-07-24T11:44:01Z</time>
      </trkpt>
      <trkpt lat="43.270435" lon="-6.685065">
        <ele>1008.497</ele>
        <time>1999-07-24T11:44:03Z</time>
      </trkpt>
      <trkpt lat="43.270421" lon="-6.685084">
        <ele>1007.831</ele>
        <time>1999-07-24T11:44:04Z</time>
      </trkpt>
      <trkpt lat="43.270405" lon="-6.685108">
        <ele>1007.070</ele>
        <time>1999-07-24T11:44:05Z</time>
      </trkpt>
      <trkpt lat="43.270356" lon="-6.685182">
        <ele>1005.626</ele>
        <time>1999-07-24T11:44:08Z</time>
      </trkpt>
      <trkpt lat="43.270342" lon="-6.685203">
        <ele>1005.078</ele>
        <time>1999-07-24T11:44:09Z</time>
      </trkpt>
      <trkpt lat="43.270311" lon="-6.685257">
        <ele>1004.459</ele>
        <time>1999-07-24T11:44:11Z</time>
      </trkpt>
      <trkpt lat="43.270244" lon="-6.685351">
        <ele>1003.003</ele>
        <time>1999-07-24T11:44:15Z</time>
      </trkpt>
      <trkpt lat="43.270203" lon="-6.685430">
        <ele>1001.623</ele>
        <time>1999-07-24T11:44:18Z</time>
      </trkpt>
      <trkpt lat="43.270170" lon="-6.685519">
        <ele>1000.208</ele>
        <time>1999-07-24T11:44:21Z</time>
      </trkpt>
      <trkpt lat="43.270119" lon="-6.685612">
        <ele>999.098</ele>
        <time>1999-07-24T11:44:24Z</time>
      </trkpt>
      <trkpt lat="43.270070" lon="-6.685712">
        <ele>997.844</ele>
        <time>1999-07-24T11:44:27Z</time>
      </trkpt>
      <trkpt lat="43.270024" lon="-6.685802">
        <ele>996.865</ele>
        <time>1999-07-24T11:44:29Z</time>
      </trkpt>
      <trkpt lat="43.269959" lon="-6.685913">
        <ele>995.886</ele>
        <time>1999-07-24T11:44:31Z</time>
      </trkpt>
      <trkpt lat="43.269880" lon="-6.686054">
        <ele>994.450</ele>
        <time>1999-07-24T11:44:34Z</time>
      </trkpt>
      <trkpt lat="43.269854" lon="-6.686099">
        <ele>994.019</ele>
        <time>1999-07-24T11:44:35Z</time>
      </trkpt>
      <trkpt lat="43.269810" lon="-6.686165">
        <ele>993.095</ele>
        <time>1999-07-24T11:44:37Z</time>
      </trkpt>
      <trkpt lat="43.269786" lon="-6.686219">
        <ele>991.687</ele>
        <time>1999-07-24T11:44:39Z</time>
      </trkpt>
      <trkpt lat="43.269781" lon="-6.686278">
        <ele>990.099</ele>
        <time>1999-07-24T11:44:41Z</time>
      </trkpt>
      <trkpt lat="43.269774" lon="-6.686342">
        <ele>988.607</ele>
        <time>1999-07-24T11:44:43Z</time>
      </trkpt>
      <trkpt lat="43.269754" lon="-6.686424">
        <ele>987.627</ele>
        <time>1999-07-24T11:44:45Z</time>
      </trkpt>
      <trkpt lat="43.269736" lon="-6.686475">
        <ele>987.008</ele>
        <time>1999-07-24T11:44:46Z</time>
      </trkpt>
      <trkpt lat="43.269696" lon="-6.686579">
        <ele>985.872</ele>
        <time>1999-07-24T11:44:48Z</time>
      </trkpt>
      <trkpt lat="43.269631" lon="-6.686712">
        <ele>984.258</ele>
        <time>1999-07-24T11:44:51Z</time>
      </trkpt>
      <trkpt lat="43.269599" lon="-6.686797">
        <ele>982.829</ele>
        <time>1999-07-24T11:44:53Z</time>
      </trkpt>
      <trkpt lat="43.269564" lon="-6.686899">
        <ele>981.490</ele>
        <time>1999-07-24T11:44:55Z</time>
      </trkpt>
      <trkpt lat="43.269540" lon="-6.686949">
        <ele>980.654</ele>
        <time>1999-07-24T11:44:56Z</time>
      </trkpt>
      <trkpt lat="43.269521" lon="-6.687002">
        <ele>980.223</ele>
        <time>1999-07-24T11:44:57Z</time>
      </trkpt>
      <trkpt lat="43.269480" lon="-6.687131">
        <ele>979.039</ele>
        <time>1999-07-24T11:44:59Z</time>
      </trkpt>
      <trkpt lat="43.269413" lon="-6.687312">
        <ele>977.271</ele>
        <time>1999-07-24T11:45:02Z</time>
      </trkpt>
      <trkpt lat="43.269381" lon="-6.687416">
        <ele>976.293</ele>
        <time>1999-07-24T11:45:04Z</time>
      </trkpt>
      <trkpt lat="43.269342" lon="-6.687530">
        <ele>974.865</ele>
        <time>1999-07-24T11:45:06Z</time>
      </trkpt>
      <trkpt lat="43.269294" lon="-6.687671">
        <ele>973.621</ele>
        <time>1999-07-24T11:45:08Z</time>
      </trkpt>
      <trkpt lat="43.269271" lon="-6.687742">
        <ele>973.008</ele>
        <time>1999-07-24T11:45:09Z</time>
      </trkpt>
      <trkpt lat="43.269246" lon="-6.687800">
        <ele>972.412</ele>
        <time>1999-07-24T11:45:10Z</time>
      </trkpt>
      <trkpt lat="43.269203" lon="-6.687898">
        <ele>970.878</ele>
        <time>1999-07-24T11:45:12Z</time>
      </trkpt>
      <trkpt lat="43.269188" lon="-6.687947">
        <ele>970.269</ele>
        <time>1999-07-24T11:45:13Z</time>
      </trkpt>
      <trkpt lat="43.269167" lon="-6.687999">
        <ele>969.670</ele>
        <time>1999-07-24T11:45:14Z</time>
      </trkpt>
      <trkpt lat="43.269119" lon="-6.688114">
        <ele>968.444</ele>
        <time>1999-07-24T11:45:16Z</time>
      </trkpt>
      <trkpt lat="43.269093" lon="-6.688180">
        <ele>967.833</ele>
        <time>1999-07-24T11:45:17Z</time>
      </trkpt>
      <trkpt lat="43.269068" lon="-6.688251">
        <ele>967.429</ele>
        <time>1999-07-24T11:45:18Z</time>
      </trkpt>
      <trkpt lat="43.269037" lon="-6.688318">
        <ele>966.861</ele>
        <time>1999-07-24T11:45:19Z</time>
      </trkpt>
      <trkpt lat="43.269000" lon="-6.688380">
        <ele>966.299</ele>
        <time>1999-07-24T11:45:20Z</time>
      </trkpt>
      <trkpt lat="43.268962" lon="-6.688436">
        <ele>965.207</ele>
        <time>1999-07-24T11:45:21Z</time>
      </trkpt>
      <trkpt lat="43.268925" lon="-6.688476">
        <ele>964.827</ele>
        <time>1999-07-24T11:45:22Z</time>
      </trkpt>
      <trkpt lat="43.268880" lon="-6.688499">
        <ele>964.008</ele>
        <time>1999-07-24T11:45:24Z</time>
      </trkpt>
      <trkpt lat="43.268862" lon="-6.688505">
        <ele>963.652</ele>
        <time>1999-07-24T11:45:25Z</time>
      </trkpt>
      <trkpt lat="43.268840" lon="-6.688518">
        <ele>962.628</ele>
        <time>1999-07-24T11:45:28Z</time>
      </trkpt>
      <trkpt lat="43.268842" lon="-6.688516">
        <ele>962.469</ele>
        <time>1999-07-24T11:45:29Z</time>
      </trkpt>
      <trkpt lat="43.268735" lon="-6.688680">
        <ele>957.650</ele>
        <time>1999-07-24T11:46:12Z</time>
      </trkpt>
      <trkpt lat="43.268720" lon="-6.688698">
        <ele>957.654</ele>
        <time>1999-07-24T11:46:13Z</time>
      </trkpt>
      <trkpt lat="43.268702" lon="-6.688718">
        <ele>957.453</ele>
        <time>1999-07-24T11:46:14Z</time>
      </trkpt>
      <trkpt lat="43.268596" lon="-6.688854">
        <ele>956.689</ele>
        <time>1999-07-24T11:46:19Z</time>
      </trkpt>
      <trkpt lat="43.268548" lon="-6.688916">
        <ele>955.671</ele>
        <time>1999-07-24T11:46:22Z</time>
      </trkpt>
      <trkpt lat="43.268540" lon="-6.688942">
        <ele>955.624</ele>
        <time>1999-07-24T11:46:23Z</time>
      </trkpt>
      <trkpt lat="43.268527" lon="-6.688968">
        <ele>955.204</ele>
        <time>1999-07-24T11:46:24Z</time>
      </trkpt>
      <trkpt lat="43.268483" lon="-6.689028">
        <ele>954.414</ele>
        <time>1999-07-24T11:46:26Z</time>
      </trkpt>
      <trkpt lat="43.268459" lon="-6.689083">
        <ele>953.808</ele>
        <time>1999-07-24T11:46:27Z</time>
      </trkpt>
      <trkpt lat="43.268432" lon="-6.689150">
        <ele>953.475</ele>
        <time>1999-07-24T11:46:28Z</time>
      </trkpt>
      <trkpt lat="43.268349" lon="-6.689356">
        <ele>952.081</ele>
        <time>1999-07-24T11:46:31Z</time>
      </trkpt>
      <trkpt lat="43.268290" lon="-6.689517">
        <ele>950.622</ele>
        <time>1999-07-24T11:46:34Z</time>
      </trkpt>
      <trkpt lat="43.268244" lon="-6.689675">
        <ele>949.063</ele>
        <time>1999-07-24T11:46:37Z</time>
      </trkpt>
      <trkpt lat="43.268213" lon="-6.689786">
        <ele>947.077</ele>
        <time>1999-07-24T11:46:39Z</time>
      </trkpt>
      <trkpt lat="43.268185" lon="-6.689906">
        <ele>945.236</ele>
        <time>1999-07-24T11:46:41Z</time>
      </trkpt>
      <trkpt lat="43.268167" lon="-6.689955">
        <ele>944.462</ele>
        <time>1999-07-24T11:46:42Z</time>
      </trkpt>
      <trkpt lat="43.268141" lon="-6.689988">
        <ele>943.874</ele>
        <time>1999-07-24T11:46:43Z</time>
      </trkpt>
      <trkpt lat="43.268111" lon="-6.690015">
        <ele>942.638</ele>
        <time>1999-07-24T11:46:44Z</time>
      </trkpt>
      <trkpt lat="43.268057" lon="-6.690067">
        <ele>941.270</ele>
        <time>1999-07-24T11:46:46Z</time>
      </trkpt>
      <trkpt lat="43.268001" lon="-6.690120">
        <ele>939.817</ele>
        <time>1999-07-24T11:46:48Z</time>
      </trkpt>
      <trkpt lat="43.267956" lon="-6.690187">
        <ele>938.408</ele>
        <time>1999-07-24T11:46:50Z</time>
      </trkpt>
      <trkpt lat="43.267934" lon="-6.690239">
        <ele>937.696</ele>
        <time>1999-07-24T11:46:51Z</time>
      </trkpt>
      <trkpt lat="43.267912" lon="-6.690301">
        <ele>936.892</ele>
        <time>1999-07-24T11:46:52Z</time>
      </trkpt>
      <trkpt lat="43.267880" lon="-6.690445">
        <ele>935.613</ele>
        <time>1999-07-24T11:46:54Z</time>
      </trkpt>
      <trkpt lat="43.267870" lon="-6.690517">
        <ele>935.044</ele>
        <time>1999-07-24T11:46:55Z</time>
      </trkpt>
      <trkpt lat="43.267861" lon="-6.690588">
        <ele>934.268</ele>
        <time>1999-07-24T11:46:56Z</time>
      </trkpt>
      <trkpt lat="43.267819" lon="-6.690720">
        <ele>932.847</ele>
        <time>1999-07-24T11:46:58Z</time>
      </trkpt>
      <trkpt lat="43.267792" lon="-6.690785">
        <ele>932.263</ele>
        <time>1999-07-24T11:46:59Z</time>
      </trkpt>
      <trkpt lat="43.267763" lon="-6.690854">
        <ele>931.665</ele>
        <time>1999-07-24T11:47:00Z</time>
      </trkpt>
      <trkpt lat="43.267703" lon="-6.691017">
        <ele>930.481</ele>
        <time>1999-07-24T11:47:02Z</time>
      </trkpt>
      <trkpt lat="43.267650" lon="-6.691191">
        <ele>929.261</ele>
        <time>1999-07-24T11:47:04Z</time>
      </trkpt>
      <trkpt lat="43.267588" lon="-6.691358">
        <ele>928.017</ele>
        <time>1999-07-24T11:47:06Z</time>
      </trkpt>
      <trkpt lat="43.267531" lon="-6.691519">
        <ele>926.808</ele>
        <time>1999-07-24T11:47:08Z</time>
      </trkpt>
      <trkpt lat="43.267474" lon="-6.691674">
        <ele>925.661</ele>
        <time>1999-07-24T11:47:10Z</time>
      </trkpt>
      <trkpt lat="43.267446" lon="-6.691747">
        <ele>925.047</ele>
        <time>1999-07-24T11:47:11Z</time>
      </trkpt>
      <trkpt lat="43.267421" lon="-6.691823">
        <ele>924.288</ele>
        <time>1999-07-24T11:47:12Z</time>
      </trkpt>
      <trkpt lat="43.267390" lon="-6.691954">
        <ele>923.639</ele>
        <time>1999-07-24T11:47:14Z</time>
      </trkpt>
      <trkpt lat="43.267362" lon="-6.692050">
        <ele>923.053</ele>
        <time>1999-07-24T11:47:16Z</time>
      </trkpt>
      <trkpt lat="43.267330" lon="-6.692213">
        <ele>922.492</ele>
        <time>1999-07-24T11:47:19Z</time>
      </trkpt>
      <trkpt lat="43.267326" lon="-6.692252">
        <ele>921.618</ele>
        <time>1999-07-24T11:47:20Z</time>
      </trkpt>
      <trkpt lat="43.267309" lon="-6.692317">
        <ele>920.810</ele>
        <time>1999-07-24T11:47:22Z</time>
      </trkpt>
      <trkpt lat="43.267292" lon="-6.692357">
        <ele>920.452</ele>
        <time>1999-07-24T11:47:23Z</time>
      </trkpt>
      <trkpt lat="43.267276" lon="-6.692397">
        <ele>920.253</ele>
        <time>1999-07-24T11:47:24Z</time>
      </trkpt>
      <trkpt lat="43.267262" lon="-6.692437">
        <ele>919.408</ele>
        <time>1999-07-24T11:47:25Z</time>
      </trkpt>
      <trkpt lat="43.267232" lon="-6.692535">
        <ele>918.408</ele>
        <time>1999-07-24T11:47:28Z</time>
      </trkpt>
      <trkpt lat="43.267222" lon="-6.692560">
        <ele>918.068</ele>
        <time>1999-07-24T11:47:29Z</time>
      </trkpt>
      <trkpt lat="43.267179" lon="-6.692690">
        <ele>917.694</ele>
        <time>1999-07-24T11:47:32Z</time>
      </trkpt>
      <trkpt lat="43.267172" lon="-6.692748">
        <ele>917.415</ele>
        <time>1999-07-24T11:47:33Z</time>
      </trkpt>
      <trkpt lat="43.267167" lon="-6.692809">
        <ele>917.036</ele>
        <time>1999-07-24T11:47:34Z</time>
      </trkpt>
      <trkpt lat="43.267154" lon="-6.692938">
        <ele>916.260</ele>
        <time>1999-07-24T11:47:36Z</time>
      </trkpt>
      <trkpt lat="43.267143" lon="-6.692996">
        <ele>915.839</ele>
        <time>1999-07-24T11:47:37Z</time>
      </trkpt>
      <trkpt lat="43.267123" lon="-6.693104">
        <ele>915.035</ele>
        <time>1999-07-24T11:47:39Z</time>
      </trkpt>
      <trkpt lat="43.267106" lon="-6.693209">
        <ele>914.867</ele>
        <time>1999-07-24T11:47:41Z</time>
      </trkpt>
      <trkpt lat="43.267066" lon="-6.693339">
        <ele>914.671</ele>
        <time>1999-07-24T11:47:44Z</time>
      </trkpt>
      <trkpt lat="43.267035" lon="-6.693368">
        <ele>914.641</ele>
        <time>1999-07-24T11:47:45Z</time>
      </trkpt>
      <trkpt lat="43.266968" lon="-6.693435">
        <ele>914.415</ele>
        <time>1999-07-24T11:47:47Z</time>
      </trkpt>
      <trkpt lat="43.266898" lon="-6.693520">
        <ele>914.408</ele>
        <time>1999-07-24T11:47:49Z</time>
      </trkpt>
      <trkpt lat="43.266771" lon="-6.693753">
        <ele>914.020</ele>
        <time>1999-07-24T11:47:53Z</time>
      </trkpt>
      <trkpt lat="43.266740" lon="-6.693795">
        <ele>913.646</ele>
        <time>1999-07-24T11:47:54Z</time>
      </trkpt>
      <trkpt lat="43.266673" lon="-6.693877">
        <ele>912.637</ele>
        <time>1999-07-24T11:47:56Z</time>
      </trkpt>
      <trkpt lat="43.266642" lon="-6.693932">
        <ele>912.078</ele>
        <time>1999-07-24T11:47:57Z</time>
      </trkpt>
      <trkpt lat="43.266617" lon="-6.693992">
        <ele>911.832</ele>
        <time>1999-07-24T11:47:58Z</time>
      </trkpt>
      <trkpt lat="43.266598" lon="-6.694046">
        <ele>911.431</ele>
        <time>1999-07-24T11:47:59Z</time>
      </trkpt>
      <trkpt lat="43.266563" lon="-6.694143">
        <ele>910.857</ele>
        <time>1999-07-24T11:48:01Z</time>
      </trkpt>
      <trkpt lat="43.266547" lon="-6.694185">
        <ele>910.669</ele>
        <time>1999-07-24T11:48:02Z</time>
      </trkpt>
      <trkpt lat="43.266519" lon="-6.694246">
        <ele>909.875</ele>
        <time>1999-07-24T11:48:04Z</time>
      </trkpt>
      <trkpt lat="43.266487" lon="-6.694318">
        <ele>909.228</ele>
        <time>1999-07-24T11:48:07Z</time>
      </trkpt>
      <trkpt lat="43.266477" lon="-6.694341">
        <ele>909.220</ele>
        <time>1999-07-24T11:48:08Z</time>
      </trkpt>
      <trkpt lat="43.266449" lon="-6.694386">
        <ele>909.008</ele>
        <time>1999-07-24T11:48:10Z</time>
      </trkpt>
      <trkpt lat="43.266410" lon="-6.694456">
        <ele>909.030</ele>
        <time>1999-07-24T11:48:13Z</time>
      </trkpt>
      <trkpt lat="43.266368" lon="-6.694514">
        <ele>909.436</ele>
        <time>1999-07-24T11:48:16Z</time>
      </trkpt>
      <trkpt lat="43.266323" lon="-6.694570">
        <ele>910.017</ele>
        <time>1999-07-24T11:48:19Z</time>
      </trkpt>
      <trkpt lat="43.266270" lon="-6.694618">
        <ele>910.878</ele>
        <time>1999-07-24T11:48:22Z</time>
      </trkpt>
      <trkpt lat="43.266225" lon="-6.694654">
        <ele>911.672</ele>
        <time>1999-07-24T11:48:25Z</time>
      </trkpt>
      <trkpt lat="43.266209" lon="-6.694667">
        <ele>911.851</ele>
        <time>1999-07-24T11:48:26Z</time>
      </trkpt>
      <trkpt lat="43.266166" lon="-6.694719">
        <ele>912.667</ele>
        <time>1999-07-24T11:48:29Z</time>
      </trkpt>
      <trkpt lat="43.266141" lon="-6.694758">
        <ele>913.219</ele>
        <time>1999-07-24T11:48:31Z</time>
      </trkpt>
      <trkpt lat="43.266095" lon="-6.694845">
        <ele>914.446</ele>
        <time>1999-07-24T11:48:35Z</time>
      </trkpt>
      <trkpt lat="43.266070" lon="-6.694893">
        <ele>915.288</ele>
        <time>1999-07-24T11:48:37Z</time>
      </trkpt>
      <trkpt lat="43.266056" lon="-6.694917">
        <ele>915.416</ele>
        <time>1999-07-24T11:48:38Z</time>
      </trkpt>
      <trkpt lat="43.265988" lon="-6.695048">
        <ele>916.608</ele>
        <time>1999-07-24T11:48:43Z</time>
      </trkpt>
      <trkpt lat="43.265977" lon="-6.695073">
        <ele>916.687</ele>
        <time>1999-07-24T11:48:44Z</time>
      </trkpt>
      <trkpt lat="43.265926" lon="-6.695173">
        <ele>917.023</ele>
        <time>1999-07-24T11:48:48Z</time>
      </trkpt>
      <trkpt lat="43.265923" lon="-6.695195">
        <ele>917.234</ele>
        <time>1999-07-24T11:48:49Z</time>
      </trkpt>
      <trkpt lat="43.265921" lon="-6.695213">
        <ele>917.845</ele>
        <time>1999-07-24T11:48:51Z</time>
      </trkpt>
      <trkpt lat="43.265921" lon="-6.695214">
        <ele>918.029</ele>
        <time>1999-07-24T11:48:52Z</time>
      </trkpt>
      <trkpt lat="43.265865" lon="-6.695256">
        <ele>918.868</ele>
        <time>1999-07-24T11:49:04Z</time>
      </trkpt>
      <trkpt lat="43.265737" lon="-6.695410">
        <ele>918.834</ele>
        <time>1999-07-24T11:49:10Z</time>
      </trkpt>
      <trkpt lat="43.265686" lon="-6.695476">
        <ele>918.686</ele>
        <time>1999-07-24T11:49:12Z</time>
      </trkpt>
      <trkpt lat="43.265634" lon="-6.695539">
        <ele>918.441</ele>
        <time>1999-07-24T11:49:14Z</time>
      </trkpt>
      <trkpt lat="43.265576" lon="-6.695593">
        <ele>918.081</ele>
        <time>1999-07-24T11:49:16Z</time>
      </trkpt>
      <trkpt lat="43.265547" lon="-6.695621">
        <ele>918.009</ele>
        <time>1999-07-24T11:49:17Z</time>
      </trkpt>
      <trkpt lat="43.265488" lon="-6.695669">
        <ele>917.808</ele>
        <time>1999-07-24T11:49:19Z</time>
      </trkpt>
      <trkpt lat="43.265402" lon="-6.695734">
        <ele>917.287</ele>
        <time>1999-07-24T11:49:22Z</time>
      </trkpt>
      <trkpt lat="43.265377" lon="-6.695749">
        <ele>916.813</ele>
        <time>1999-07-24T11:49:23Z</time>
      </trkpt>
      <trkpt lat="43.265305" lon="-6.695787">
        <ele>916.444</ele>
        <time>1999-07-24T11:49:26Z</time>
      </trkpt>
      <trkpt lat="43.265275" lon="-6.695805">
        <ele>916.445</ele>
        <time>1999-07-24T11:49:27Z</time>
      </trkpt>
      <trkpt lat="43.265207" lon="-6.695848">
        <ele>916.279</ele>
        <time>1999-07-24T11:49:29Z</time>
      </trkpt>
      <trkpt lat="43.265167" lon="-6.695871">
        <ele>916.228</ele>
        <time>1999-07-24T11:49:30Z</time>
      </trkpt>
      <trkpt lat="43.265126" lon="-6.695902">
        <ele>916.064</ele>
        <time>1999-07-24T11:49:31Z</time>
      </trkpt>
      <trkpt lat="43.265088" lon="-6.695934">
        <ele>916.096</ele>
        <time>1999-07-24T11:49:32Z</time>
      </trkpt>
      <trkpt lat="43.265040" lon="-6.696026">
        <ele>915.861</ele>
        <time>1999-07-24T11:49:35Z</time>
      </trkpt>
      <trkpt lat="43.264993" lon="-6.696125">
        <ele>915.421</ele>
        <time>1999-07-24T11:49:39Z</time>
      </trkpt>
      <trkpt lat="43.264966" lon="-6.696151">
        <ele>915.413</ele>
        <time>1999-07-24T11:49:40Z</time>
      </trkpt>
      <trkpt lat="43.264904" lon="-6.696206">
        <ele>915.408</ele>
        <time>1999-07-24T11:49:42Z</time>
      </trkpt>
      <trkpt lat="43.264867" lon="-6.696231">
        <ele>915.459</ele>
        <time>1999-07-24T11:49:43Z</time>
      </trkpt>
      <trkpt lat="43.264794" lon="-6.696287">
        <ele>915.445</ele>
        <time>1999-07-24T11:49:45Z</time>
      </trkpt>
      <trkpt lat="43.264635" lon="-6.696422">
        <ele>915.456</ele>
        <time>1999-07-24T11:49:50Z</time>
      </trkpt>
      <trkpt lat="43.264612" lon="-6.696442">
        <ele>915.417</ele>
        <time>1999-07-24T11:49:51Z</time>
      </trkpt>
      <trkpt lat="43.264573" lon="-6.696481">
        <ele>915.481</ele>
        <time>1999-07-24T11:49:53Z</time>
      </trkpt>
      <trkpt lat="43.264529" lon="-6.696515">
        <ele>915.870</ele>
        <time>1999-07-24T11:49:55Z</time>
      </trkpt>
      <trkpt lat="43.264468" lon="-6.696574">
        <ele>916.036</ele>
        <time>1999-07-24T11:49:58Z</time>
      </trkpt>
      <trkpt lat="43.264363" lon="-6.696692">
        <ele>917.228</ele>
        <time>1999-07-24T11:50:03Z</time>
      </trkpt>
      <trkpt lat="43.264325" lon="-6.696745">
        <ele>917.652</ele>
        <time>1999-07-24T11:50:05Z</time>
      </trkpt>
      <trkpt lat="43.264228" lon="-6.696906">
        <ele>918.253</ele>
        <time>1999-07-24T11:50:11Z</time>
      </trkpt>
      <trkpt lat="43.264196" lon="-6.696976">
        <ele>918.608</ele>
        <time>1999-07-24T11:50:14Z</time>
      </trkpt>
      <trkpt lat="43.264162" lon="-6.697055">
        <ele>918.608</ele>
        <time>1999-07-24T11:50:18Z</time>
      </trkpt>
      <trkpt lat="43.264090" lon="-6.697181">
        <ele>919.468</ele>
        <time>1999-07-24T11:50:26Z</time>
      </trkpt>
      <trkpt lat="43.264083" lon="-6.697194">
        <ele>919.644</ele>
        <time>1999-07-24T11:50:27Z</time>
      </trkpt>
      <trkpt lat="43.264032" lon="-6.697293">
        <ele>919.865</ele>
        <time>1999-07-24T11:50:31Z</time>
      </trkpt>
      <trkpt lat="43.264021" lon="-6.697318">
        <ele>919.826</ele>
        <time>1999-07-24T11:50:32Z</time>
      </trkpt>
      <trkpt lat="43.264000" lon="-6.697370">
        <ele>920.270</ele>
        <time>1999-07-24T11:50:35Z</time>
      </trkpt>
      <trkpt lat="43.263956" lon="-6.697435">
        <ele>920.879</ele>
        <time>1999-07-24T11:50:38Z</time>
      </trkpt>
      <trkpt lat="43.263917" lon="-6.697474">
        <ele>922.455</ele>
        <time>1999-07-24T11:50:41Z</time>
      </trkpt>
      <trkpt lat="43.263911" lon="-6.697475">
        <ele>922.857</ele>
        <time>1999-07-24T11:50:43Z</time>
      </trkpt>
      <trkpt lat="43.263768" lon="-6.697627">
        <ele>926.211</ele>
        <time>1999-07-24T11:51:36Z</time>
      </trkpt>
      <trkpt lat="43.263758" lon="-6.697640">
        <ele>926.221</ele>
        <time>1999-07-24T11:51:37Z</time>
      </trkpt>
      <trkpt lat="43.263686" lon="-6.697769">
        <ele>926.403</ele>
        <time>1999-07-24T11:51:44Z</time>
      </trkpt>
      <trkpt lat="43.263674" lon="-6.697780">
        <ele>926.608</ele>
        <time>1999-07-24T11:51:45Z</time>
      </trkpt>
      <trkpt lat="43.263608" lon="-6.697833">
        <ele>927.444</ele>
        <time>1999-07-24T11:51:49Z</time>
      </trkpt>
      <trkpt lat="43.263588" lon="-6.697846">
        <ele>927.460</ele>
        <time>1999-07-24T11:51:50Z</time>
      </trkpt>
      <trkpt lat="43.263507" lon="-6.697922">
        <ele>928.661</ele>
        <time>1999-07-24T11:51:55Z</time>
      </trkpt>
      <trkpt lat="43.263463" lon="-6.697975">
        <ele>928.842</ele>
        <time>1999-07-24T11:51:58Z</time>
      </trkpt>
      <trkpt lat="43.263374" lon="-6.698095">
        <ele>929.686</ele>
        <time>1999-07-24T11:52:05Z</time>
      </trkpt>
      <trkpt lat="43.263362" lon="-6.698113">
        <ele>929.845</ele>
        <time>1999-07-24T11:52:06Z</time>
      </trkpt>
      <trkpt lat="43.263290" lon="-6.698230">
        <ele>930.871</ele>
        <time>1999-07-24T11:52:12Z</time>
      </trkpt>
      <trkpt lat="43.263272" lon="-6.698265">
        <ele>931.223</ele>
        <time>1999-07-24T11:52:14Z</time>
      </trkpt>
      <trkpt lat="43.263203" lon="-6.698332">
        <ele>932.084</ele>
        <time>1999-07-24T11:52:19Z</time>
      </trkpt>
      <trkpt lat="43.263176" lon="-6.698368">
        <ele>932.607</ele>
        <time>1999-07-24T11:52:21Z</time>
      </trkpt>
      <trkpt lat="43.263156" lon="-6.698407">
        <ele>933.017</ele>
        <time>1999-07-24T11:52:23Z</time>
      </trkpt>
      <trkpt lat="43.263103" lon="-6.698513">
        <ele>933.808</ele>
        <time>1999-07-24T11:52:28Z</time>
      </trkpt>
      <trkpt lat="43.263081" lon="-6.698556">
        <ele>934.031</ele>
        <time>1999-07-24T11:52:30Z</time>
      </trkpt>
      <trkpt lat="43.263070" lon="-6.698578">
        <ele>934.077</ele>
        <time>1999-07-24T11:52:31Z</time>
      </trkpt>
      <trkpt lat="43.262989" lon="-6.698712">
        <ele>935.068</ele>
        <time>1999-07-24T11:52:38Z</time>
      </trkpt>
      <trkpt lat="43.262979" lon="-6.698730">
        <ele>935.279</ele>
        <time>1999-07-24T11:52:39Z</time>
      </trkpt>
      <trkpt lat="43.262902" lon="-6.698831">
        <ele>936.243</ele>
        <time>1999-07-24T11:52:45Z</time>
      </trkpt>
      <trkpt lat="43.262890" lon="-6.698850">
        <ele>936.452</ele>
        <time>1999-07-24T11:52:46Z</time>
      </trkpt>
      <trkpt lat="43.262845" lon="-6.698922">
        <ele>936.898</ele>
        <time>1999-07-24T11:52:50Z</time>
      </trkpt>
      <trkpt lat="43.262797" lon="-6.699003">
        <ele>937.410</ele>
        <time>1999-07-24T11:52:54Z</time>
      </trkpt>
      <trkpt lat="43.262775" lon="-6.699046">
        <ele>937.671</ele>
        <time>1999-07-24T11:52:56Z</time>
      </trkpt>
      <trkpt lat="43.262693" lon="-6.699175">
        <ele>938.641</ele>
        <time>1999-07-24T11:53:03Z</time>
      </trkpt>
      <trkpt lat="43.262622" lon="-6.699279">
        <ele>939.615</ele>
        <time>1999-07-24T11:53:09Z</time>
      </trkpt>
      <trkpt lat="43.262609" lon="-6.699292">
        <ele>939.608</ele>
        <time>1999-07-24T11:53:10Z</time>
      </trkpt>
      <trkpt lat="43.262535" lon="-6.699369">
        <ele>940.610</ele>
        <time>1999-07-24T11:53:15Z</time>
      </trkpt>
      <trkpt lat="43.262507" lon="-6.699397">
        <ele>941.026</ele>
        <time>1999-07-24T11:53:17Z</time>
      </trkpt>
      <trkpt lat="43.262459" lon="-6.699440">
        <ele>941.647</ele>
        <time>1999-07-24T11:53:21Z</time>
      </trkpt>
      <trkpt lat="43.262401" lon="-6.699482">
        <ele>942.268</ele>
        <time>1999-07-24T11:53:25Z</time>
      </trkpt>
      <trkpt lat="43.262345" lon="-6.699512">
        <ele>942.612</ele>
        <time>1999-07-24T11:53:28Z</time>
      </trkpt>
      <trkpt lat="43.262229" lon="-6.699611">
        <ele>943.271</ele>
        <time>1999-07-24T11:53:35Z</time>
      </trkpt>
      <trkpt lat="43.262114" lon="-6.699694">
        <ele>944.247</ele>
        <time>1999-07-24T11:53:41Z</time>
      </trkpt>
      <trkpt lat="43.262069" lon="-6.699721">
        <ele>944.469</ele>
        <time>1999-07-24T11:53:43Z</time>
      </trkpt>
      <trkpt lat="43.262000" lon="-6.699784">
        <ele>945.036</ele>
        <time>1999-07-24T11:53:47Z</time>
      </trkpt>
      <trkpt lat="43.261966" lon="-6.699811">
        <ele>945.417</ele>
        <time>1999-07-24T11:53:49Z</time>
      </trkpt>
      <trkpt lat="43.261916" lon="-6.699875">
        <ele>946.418</ele>
        <time>1999-07-24T11:53:53Z</time>
      </trkpt>
      <trkpt lat="43.261882" lon="-6.699925">
        <ele>946.808</ele>
        <time>1999-07-24T11:53:56Z</time>
      </trkpt>
      <trkpt lat="43.261824" lon="-6.699980">
        <ele>947.486</ele>
        <time>1999-07-24T11:54:00Z</time>
      </trkpt>
      <trkpt lat="43.261799" lon="-6.700016">
        <ele>947.652</ele>
        <time>1999-07-24T11:54:02Z</time>
      </trkpt>
      <trkpt lat="43.261776" lon="-6.700055">
        <ele>948.083</ele>
        <time>1999-07-24T11:54:04Z</time>
      </trkpt>
      <trkpt lat="43.261740" lon="-6.700107">
        <ele>948.874</ele>
        <time>1999-07-24T11:54:07Z</time>
      </trkpt>
      <trkpt lat="43.261701" lon="-6.700155">
        <ele>949.268</ele>
        <time>1999-07-24T11:54:10Z</time>
      </trkpt>
      <trkpt lat="43.261675" lon="-6.700186">
        <ele>949.847</ele>
        <time>1999-07-24T11:54:12Z</time>
      </trkpt>
      <trkpt lat="43.261603" lon="-6.700295">
        <ele>950.863</ele>
        <time>1999-07-24T11:54:18Z</time>
      </trkpt>
      <trkpt lat="43.261594" lon="-6.700313">
        <ele>950.895</ele>
        <time>1999-07-24T11:54:19Z</time>
      </trkpt>
      <trkpt lat="43.261552" lon="-6.700379">
        <ele>952.076</ele>
        <time>1999-07-24T11:54:23Z</time>
      </trkpt>
      <trkpt lat="43.261518" lon="-6.700431">
        <ele>952.490</ele>
        <time>1999-07-24T11:54:26Z</time>
      </trkpt>
      <trkpt lat="43.261488" lon="-6.700484">
        <ele>953.019</ele>
        <time>1999-07-24T11:54:29Z</time>
      </trkpt>
      <trkpt lat="43.261463" lon="-6.700543">
        <ele>953.408</ele>
        <time>1999-07-24T11:54:32Z</time>
      </trkpt>
      <trkpt lat="43.261443" lon="-6.700600">
        <ele>954.050</ele>
        <time>1999-07-24T11:54:35Z</time>
      </trkpt>
      <trkpt lat="43.261413" lon="-6.700695">
        <ele>955.286</ele>
        <time>1999-07-24T11:54:40Z</time>
      </trkpt>
      <trkpt lat="43.261383" lon="-6.700820">
        <ele>956.037</ele>
        <time>1999-07-24T11:54:46Z</time>
      </trkpt>
      <trkpt lat="43.261373" lon="-6.700844">
        <ele>956.498</ele>
        <time>1999-07-24T11:54:47Z</time>
      </trkpt>
      <trkpt lat="43.261352" lon="-6.700911">
        <ele>957.822</ele>
        <time>1999-07-24T11:54:50Z</time>
      </trkpt>
      <trkpt lat="43.261338" lon="-6.700944">
        <ele>958.411</ele>
        <time>1999-07-24T11:54:52Z</time>
      </trkpt>
      <trkpt lat="43.261333" lon="-6.700948">
        <ele>958.617</ele>
        <time>1999-07-24T11:54:53Z</time>
      </trkpt>
      <trkpt lat="43.261331" lon="-6.700949">
        <ele>958.689</ele>
        <time>1999-07-24T11:54:54Z</time>
      </trkpt>
      <trkpt lat="43.260644" lon="-6.702232">
        <ele>979.458</ele>
        <time>1999-07-24T11:58:10Z</time>
      </trkpt>
      <trkpt lat="43.260631" lon="-6.702245">
        <ele>979.452</ele>
        <time>1999-07-24T11:58:11Z</time>
      </trkpt>
      <trkpt lat="43.260619" lon="-6.702262">
        <ele>979.417</ele>
        <time>1999-07-24T11:58:12Z</time>
      </trkpt>
      <trkpt lat="43.260559" lon="-6.702334">
        <ele>979.608</ele>
        <time>1999-07-24T11:58:16Z</time>
      </trkpt>
      <trkpt lat="43.260516" lon="-6.702386">
        <ele>979.888</ele>
        <time>1999-07-24T11:58:19Z</time>
      </trkpt>
      <trkpt lat="43.260505" lon="-6.702402">
        <ele>979.864</ele>
        <time>1999-07-24T11:58:20Z</time>
      </trkpt>
      <trkpt lat="43.260467" lon="-6.702461">
        <ele>980.485</ele>
        <time>1999-07-24T11:58:24Z</time>
      </trkpt>
      <trkpt lat="43.260444" lon="-6.702504">
        <ele>981.086</ele>
        <time>1999-07-24T11:58:27Z</time>
      </trkpt>
      <trkpt lat="43.260437" lon="-6.702518">
        <ele>981.250</ele>
        <time>1999-07-24T11:58:28Z</time>
      </trkpt>
      <trkpt lat="43.260428" lon="-6.702548">
        <ele>981.649</ele>
        <time>1999-07-24T11:58:30Z</time>
      </trkpt>
      <trkpt lat="43.260415" lon="-6.702609">
        <ele>982.045</ele>
        <time>1999-07-24T11:58:33Z</time>
      </trkpt>
      <trkpt lat="43.260414" lon="-6.702630">
        <ele>982.027</ele>
        <time>1999-07-24T11:58:34Z</time>
      </trkpt>
      <trkpt lat="43.260414" lon="-6.702674">
        <ele>982.277</ele>
        <time>1999-07-24T11:58:36Z</time>
      </trkpt>
      <trkpt lat="43.260413" lon="-6.702714">
        <ele>982.661</ele>
        <time>1999-07-24T11:58:38Z</time>
      </trkpt>
      <trkpt lat="43.260407" lon="-6.702751">
        <ele>983.227</ele>
        <time>1999-07-24T11:58:40Z</time>
      </trkpt>
      <trkpt lat="43.260406" lon="-6.702787">
        <ele>983.808</ele>
        <time>1999-07-24T11:58:42Z</time>
      </trkpt>
      <trkpt lat="43.260415" lon="-6.702868">
        <ele>985.020</ele>
        <time>1999-07-24T11:58:46Z</time>
      </trkpt>
      <trkpt lat="43.260409" lon="-6.702877">
        <ele>986.096</ele>
        <time>1999-07-24T11:58:48Z</time>
      </trkpt>
      <trkpt lat="43.260390" lon="-6.703027">
        <ele>988.277</ele>
        <time>1999-07-24T11:59:24Z</time>
      </trkpt>
      <trkpt lat="43.260386" lon="-6.703059">
        <ele>988.218</ele>
        <time>1999-07-24T11:59:25Z</time>
      </trkpt>
      <trkpt lat="43.260382" lon="-6.703099">
        <ele>988.212</ele>
        <time>1999-07-24T11:59:26Z</time>
      </trkpt>
      <trkpt lat="43.260341" lon="-6.703231">
        <ele>988.091</ele>
        <time>1999-07-24T11:59:29Z</time>
      </trkpt>
      <trkpt lat="43.260243" lon="-6.703465">
        <ele>987.457</ele>
        <time>1999-07-24T11:59:34Z</time>
      </trkpt>
      <trkpt lat="43.260214" lon="-6.703513">
        <ele>987.239</ele>
        <time>1999-07-24T11:59:35Z</time>
      </trkpt>
      <trkpt lat="43.260182" lon="-6.703559">
        <ele>987.024</ele>
        <time>1999-07-24T11:59:36Z</time>
      </trkpt>
      <trkpt lat="43.260110" lon="-6.703640">
        <ele>986.804</ele>
        <time>1999-07-24T11:59:38Z</time>
      </trkpt>
      <trkpt lat="43.260039" lon="-6.703722">
        <ele>986.614</ele>
        <time>1999-07-24T11:59:40Z</time>
      </trkpt>
      <trkpt lat="43.259955" lon="-6.703803">
        <ele>986.208</ele>
        <time>1999-07-24T11:59:42Z</time>
      </trkpt>
      <trkpt lat="43.259911" lon="-6.703842">
        <ele>986.215</ele>
        <time>1999-07-24T11:59:43Z</time>
      </trkpt>
      <trkpt lat="43.259871" lon="-6.703881">
        <ele>986.081</ele>
        <time>1999-07-24T11:59:44Z</time>
      </trkpt>
      <trkpt lat="43.259797" lon="-6.703962">
        <ele>985.822</ele>
        <time>1999-07-24T11:59:46Z</time>
      </trkpt>
      <trkpt lat="43.259725" lon="-6.704051">
        <ele>985.843</ele>
        <time>1999-07-24T11:59:48Z</time>
      </trkpt>
      <trkpt lat="43.259644" lon="-6.704134">
        <ele>985.667</ele>
        <time>1999-07-24T11:59:50Z</time>
      </trkpt>
      <trkpt lat="43.259562" lon="-6.704220">
        <ele>985.696</ele>
        <time>1999-07-24T11:59:52Z</time>
      </trkpt>
      <trkpt lat="43.259523" lon="-6.704275">
        <ele>985.822</ele>
        <time>1999-07-24T11:59:53Z</time>
      </trkpt>
      <trkpt lat="43.259382" lon="-6.704552">
        <ele>985.484</ele>
        <time>1999-07-24T11:59:57Z</time>
      </trkpt>
      <trkpt lat="43.259354" lon="-6.704614">
        <ele>985.424</ele>
        <time>1999-07-24T11:59:58Z</time>
      </trkpt>
      <trkpt lat="43.259252" lon="-6.704839">
        <ele>985.204</ele>
        <time>1999-07-24T12:00:02Z</time>
      </trkpt>
      <trkpt lat="43.259202" lon="-6.704927">
        <ele>984.214</ele>
        <time>1999-07-24T12:00:04Z</time>
      </trkpt>
      <trkpt lat="43.259129" lon="-6.705063">
        <ele>983.008</ele>
        <time>1999-07-24T12:00:07Z</time>
      </trkpt>
      <trkpt lat="43.259062" lon="-6.705170">
        <ele>981.685</ele>
        <time>1999-07-24T12:00:10Z</time>
      </trkpt>
      <trkpt lat="43.259018" lon="-6.705221">
        <ele>979.821</ele>
        <time>1999-07-24T12:00:12Z</time>
      </trkpt>
      <trkpt lat="43.258980" lon="-6.705297">
        <ele>978.442</ele>
        <time>1999-07-24T12:00:14Z</time>
      </trkpt>
      <trkpt lat="43.258943" lon="-6.705428">
        <ele>977.033</ele>
        <time>1999-07-24T12:00:17Z</time>
      </trkpt>
      <trkpt lat="43.258912" lon="-6.705506">
        <ele>975.847</ele>
        <time>1999-07-24T12:00:19Z</time>
      </trkpt>
      <trkpt lat="43.258892" lon="-6.705541">
        <ele>975.426</ele>
        <time>1999-07-24T12:00:20Z</time>
      </trkpt>
      <trkpt lat="43.258836" lon="-6.705619">
        <ele>974.482</ele>
        <time>1999-07-24T12:00:22Z</time>
      </trkpt>
      <trkpt lat="43.258777" lon="-6.705740">
        <ele>973.264</ele>
        <time>1999-07-24T12:00:24Z</time>
      </trkpt>
      <trkpt lat="43.258659" lon="-6.705980">
        <ele>972.284</ele>
        <time>1999-07-24T12:00:27Z</time>
      </trkpt>
      <trkpt lat="43.258627" lon="-6.706057">
        <ele>971.407</ele>
        <time>1999-07-24T12:00:28Z</time>
      </trkpt>
      <trkpt lat="43.258597" lon="-6.706126">
        <ele>971.017</ele>
        <time>1999-07-24T12:00:29Z</time>
      </trkpt>
      <trkpt lat="43.258478" lon="-6.706343">
        <ele>969.808</ele>
        <time>1999-07-24T12:00:32Z</time>
      </trkpt>
      <trkpt lat="43.258432" lon="-6.706415">
        <ele>969.251</ele>
        <time>1999-07-24T12:00:33Z</time>
      </trkpt>
      <trkpt lat="43.258383" lon="-6.706569">
        <ele>968.487</ele>
        <time>1999-07-24T12:00:35Z</time>
      </trkpt>
      <trkpt lat="43.258377" lon="-6.706645">
        <ele>967.828</ele>
        <time>1999-07-24T12:00:36Z</time>
      </trkpt>
      <trkpt lat="43.258377" lon="-6.706722">
        <ele>967.069</ele>
        <time>1999-07-24T12:00:37Z</time>
      </trkpt>
      <trkpt lat="43.258392" lon="-6.706878">
        <ele>965.833</ele>
        <time>1999-07-24T12:00:39Z</time>
      </trkpt>
      <trkpt lat="43.258414" lon="-6.707033">
        <ele>964.422</ele>
        <time>1999-07-24T12:00:41Z</time>
      </trkpt>
      <trkpt lat="43.258465" lon="-6.707242">
        <ele>963.248</ele>
        <time>1999-07-24T12:00:44Z</time>
      </trkpt>
      <trkpt lat="43.258498" lon="-6.707378">
        <ele>962.890</ele>
        <time>1999-07-24T12:00:46Z</time>
      </trkpt>
      <trkpt lat="43.258508" lon="-6.707442">
        <ele>962.839</ele>
        <time>1999-07-24T12:00:47Z</time>
      </trkpt>
      <trkpt lat="43.258513" lon="-6.707646">
        <ele>962.401</ele>
        <time>1999-07-24T12:00:50Z</time>
      </trkpt>
      <trkpt lat="43.258508" lon="-6.707716">
        <ele>962.421</ele>
        <time>1999-07-24T12:00:51Z</time>
      </trkpt>
      <trkpt lat="43.258502" lon="-6.707778">
        <ele>962.208</ele>
        <time>1999-07-24T12:00:52Z</time>
      </trkpt>
      <trkpt lat="43.258451" lon="-6.707975">
        <ele>961.656</ele>
        <time>1999-07-24T12:00:56Z</time>
      </trkpt>
      <trkpt lat="43.258432" lon="-6.708021">
        <ele>961.472</ele>
        <time>1999-07-24T12:00:57Z</time>
      </trkpt>
      <trkpt lat="43.258407" lon="-6.708073">
        <ele>961.063</ele>
        <time>1999-07-24T12:00:59Z</time>
      </trkpt>
      <trkpt lat="43.258404" lon="-6.708074">
        <ele>960.434</ele>
        <time>1999-07-24T12:01:00Z</time>
      </trkpt>
      <trkpt lat="43.258403" lon="-6.708074">
        <ele>959.428</ele>
        <time>1999-07-24T12:01:01Z</time>
      </trkpt>
      <trkpt lat="43.258374" lon="-6.708082">
        <ele>955.027</ele>
        <time>1999-07-24T12:02:00Z</time>
      </trkpt>
      <trkpt lat="43.258360" lon="-6.708116">
        <ele>955.073</ele>
        <time>1999-07-24T12:02:01Z</time>
      </trkpt>
      <trkpt lat="43.258344" lon="-6.708156">
        <ele>955.025</ele>
        <time>1999-07-24T12:02:02Z</time>
      </trkpt>
      <trkpt lat="43.258328" lon="-6.708203">
        <ele>954.892</ele>
        <time>1999-07-24T12:02:03Z</time>
      </trkpt>
      <trkpt lat="43.258288" lon="-6.708310">
        <ele>954.873</ele>
        <time>1999-07-24T12:02:05Z</time>
      </trkpt>
      <trkpt lat="43.258259" lon="-6.708367">
        <ele>954.620</ele>
        <time>1999-07-24T12:02:06Z</time>
      </trkpt>
      <trkpt lat="43.258231" lon="-6.708420">
        <ele>954.408</ele>
        <time>1999-07-24T12:02:07Z</time>
      </trkpt>
      <trkpt lat="43.258207" lon="-6.708473">
        <ele>954.272</ele>
        <time>1999-07-24T12:02:08Z</time>
      </trkpt>
      <trkpt lat="43.258151" lon="-6.708625">
        <ele>953.678</ele>
        <time>1999-07-24T12:02:11Z</time>
      </trkpt>
      <trkpt lat="43.258126" lon="-6.708677">
        <ele>953.479</ele>
        <time>1999-07-24T12:02:12Z</time>
      </trkpt>
      <trkpt lat="43.258102" lon="-6.708729">
        <ele>952.890</ele>
        <time>1999-07-24T12:02:13Z</time>
      </trkpt>
      <trkpt lat="43.258080" lon="-6.708777">
        <ele>952.274</ele>
        <time>1999-07-24T12:02:14Z</time>
      </trkpt>
      <trkpt lat="43.258049" lon="-6.708863">
        <ele>950.613</ele>
        <time>1999-07-24T12:02:16Z</time>
      </trkpt>
      <trkpt lat="43.258039" lon="-6.708901">
        <ele>949.889</ele>
        <time>1999-07-24T12:02:17Z</time>
      </trkpt>
      <trkpt lat="43.258029" lon="-6.708940">
        <ele>949.011</ele>
        <time>1999-07-24T12:02:18Z</time>
      </trkpt>
      <trkpt lat="43.258008" lon="-6.709015">
        <ele>947.878</ele>
        <time>1999-07-24T12:02:20Z</time>
      </trkpt>
      <trkpt lat="43.258004" lon="-6.709094">
        <ele>946.633</ele>
        <time>1999-07-24T12:02:22Z</time>
      </trkpt>
      <trkpt lat="43.258009" lon="-6.709129">
        <ele>945.826</ele>
        <time>1999-07-24T12:02:23Z</time>
      </trkpt>
      <trkpt lat="43.258003" lon="-6.709164">
        <ele>945.208</ele>
        <time>1999-07-24T12:02:24Z</time>
      </trkpt>
      <trkpt lat="43.257977" lon="-6.709247">
        <ele>944.210</ele>
        <time>1999-07-24T12:02:26Z</time>
      </trkpt>
      <trkpt lat="43.257944" lon="-6.709327">
        <ele>943.076</ele>
        <time>1999-07-24T12:02:28Z</time>
      </trkpt>
      <trkpt lat="43.257913" lon="-6.709416">
        <ele>942.217</ele>
        <time>1999-07-24T12:02:30Z</time>
      </trkpt>
      <trkpt lat="43.257883" lon="-6.709503">
        <ele>941.448</ele>
        <time>1999-07-24T12:02:32Z</time>
      </trkpt>
      <trkpt lat="43.257871" lon="-6.709540">
        <ele>940.662</ele>
        <time>1999-07-24T12:02:33Z</time>
      </trkpt>
      <trkpt lat="43.257859" lon="-6.709576">
        <ele>939.441</ele>
        <time>1999-07-24T12:02:34Z</time>
      </trkpt>
      <trkpt lat="43.257836" lon="-6.709666">
        <ele>938.617</ele>
        <time>1999-07-24T12:02:36Z</time>
      </trkpt>
      <trkpt lat="43.257830" lon="-6.709715">
        <ele>938.279</ele>
        <time>1999-07-24T12:02:37Z</time>
      </trkpt>
      <trkpt lat="43.257823" lon="-6.709834">
        <ele>936.614</ele>
        <time>1999-07-24T12:02:39Z</time>
      </trkpt>
      <trkpt lat="43.257817" lon="-6.709944">
        <ele>935.254</ele>
        <time>1999-07-24T12:02:41Z</time>
      </trkpt>
      <trkpt lat="43.257818" lon="-6.710113">
        <ele>934.009</ele>
        <time>1999-07-24T12:02:44Z</time>
      </trkpt>
      <trkpt lat="43.257814" lon="-6.710187">
        <ele>933.808</ele>
        <time>1999-07-24T12:02:45Z</time>
      </trkpt>
      <trkpt lat="43.257809" lon="-6.710347">
        <ele>933.224</ele>
        <time>1999-07-24T12:02:47Z</time>
      </trkpt>
      <trkpt lat="43.257816" lon="-6.710429">
        <ele>932.440</ele>
        <time>1999-07-24T12:02:48Z</time>
      </trkpt>
      <trkpt lat="43.257832" lon="-6.710586">
        <ele>931.211</ele>
        <time>1999-07-24T12:02:50Z</time>
      </trkpt>
      <trkpt lat="43.257846" lon="-6.710751">
        <ele>930.462</ele>
        <time>1999-07-24T12:02:52Z</time>
      </trkpt>
      <trkpt lat="43.257854" lon="-6.711000">
        <ele>929.296</ele>
        <time>1999-07-24T12:02:55Z</time>
      </trkpt>
      <trkpt lat="43.257859" lon="-6.711102">
        <ele>927.495</ele>
        <time>1999-07-24T12:02:57Z</time>
      </trkpt>
      <trkpt lat="43.257856" lon="-6.711137">
        <ele>926.661</ele>
        <time>1999-07-24T12:02:58Z</time>
      </trkpt>
      <trkpt lat="43.257854" lon="-6.711169">
        <ele>925.643</ele>
        <time>1999-07-24T12:02:59Z</time>
      </trkpt>
      <trkpt lat="43.257853" lon="-6.711211">
        <ele>924.041</ele>
        <time>1999-07-24T12:03:00Z</time>
      </trkpt>
      <trkpt lat="43.257856" lon="-6.711262">
        <ele>922.081</ele>
        <time>1999-07-24T12:03:01Z</time>
      </trkpt>
      <trkpt lat="43.257877" lon="-6.711401">
        <ele>920.009</ele>
        <time>1999-07-24T12:03:03Z</time>
      </trkpt>
      <trkpt lat="43.257910" lon="-6.711577">
        <ele>918.608</ele>
        <time>1999-07-24T12:03:05Z</time>
      </trkpt>
      <trkpt lat="43.257935" lon="-6.711772">
        <ele>917.477</ele>
        <time>1999-07-24T12:03:07Z</time>
      </trkpt>
      <trkpt lat="43.257939" lon="-6.712001">
        <ele>916.033</ele>
        <time>1999-07-24T12:03:10Z</time>
      </trkpt>
      <trkpt lat="43.257935" lon="-6.712069">
        <ele>915.864</ele>
        <time>1999-07-24T12:03:11Z</time>
      </trkpt>
      <trkpt lat="43.257933" lon="-6.712221">
        <ele>914.655</ele>
        <time>1999-07-24T12:03:13Z</time>
      </trkpt>
      <trkpt lat="43.257931" lon="-6.712401">
        <ele>913.429</ele>
        <time>1999-07-24T12:03:15Z</time>
      </trkpt>
      <trkpt lat="43.257934" lon="-6.712502">
        <ele>912.898</ele>
        <time>1999-07-24T12:03:16Z</time>
      </trkpt>
      <trkpt lat="43.257937" lon="-6.712608">
        <ele>912.234</ele>
        <time>1999-07-24T12:03:17Z</time>
      </trkpt>
      <trkpt lat="43.257939" lon="-6.712828">
        <ele>910.666</ele>
        <time>1999-07-24T12:03:19Z</time>
      </trkpt>
      <trkpt lat="43.257957" lon="-6.713063">
        <ele>909.659</ele>
        <time>1999-07-24T12:03:21Z</time>
      </trkpt>
      <trkpt lat="43.257966" lon="-6.713174">
        <ele>909.203</ele>
        <time>1999-07-24T12:03:22Z</time>
      </trkpt>
      <trkpt lat="43.257981" lon="-6.713462">
        <ele>908.423</ele>
        <time>1999-07-24T12:03:25Z</time>
      </trkpt>
      <trkpt lat="43.257986" lon="-6.713544">
        <ele>907.808</ele>
        <time>1999-07-24T12:03:26Z</time>
      </trkpt>
      <trkpt lat="43.257994" lon="-6.713622">
        <ele>907.298</ele>
        <time>1999-07-24T12:03:27Z</time>
      </trkpt>
      <trkpt lat="43.258015" lon="-6.713767">
        <ele>905.684</ele>
        <time>1999-07-24T12:03:29Z</time>
      </trkpt>
      <trkpt lat="43.258029" lon="-6.713830">
        <ele>904.275</ele>
        <time>1999-07-24T12:03:30Z</time>
      </trkpt>
      <trkpt lat="43.258047" lon="-6.713882">
        <ele>902.866</ele>
        <time>1999-07-24T12:03:31Z</time>
      </trkpt>
      <trkpt lat="43.258065" lon="-6.713934">
        <ele>901.470</ele>
        <time>1999-07-24T12:03:32Z</time>
      </trkpt>
      <trkpt lat="43.258096" lon="-6.714055">
        <ele>899.459</ele>
        <time>1999-07-24T12:03:34Z</time>
      </trkpt>
      <trkpt lat="43.258139" lon="-6.714192">
        <ele>897.865</ele>
        <time>1999-07-24T12:03:36Z</time>
      </trkpt>
      <trkpt lat="43.258138" lon="-6.714343">
        <ele>896.457</ele>
        <time>1999-07-24T12:03:38Z</time>
      </trkpt>
      <trkpt lat="43.258132" lon="-6.714521">
        <ele>894.875</ele>
        <time>1999-07-24T12:03:40Z</time>
      </trkpt>
      <trkpt lat="43.258126" lon="-6.714711">
        <ele>893.628</ele>
        <time>1999-07-24T12:03:42Z</time>
      </trkpt>
      <trkpt lat="43.258126" lon="-6.714908">
        <ele>892.620</ele>
        <time>1999-07-24T12:03:44Z</time>
      </trkpt>
      <trkpt lat="43.258130" lon="-6.715001">
        <ele>891.808</ele>
        <time>1999-07-24T12:03:45Z</time>
      </trkpt>
      <trkpt lat="43.258142" lon="-6.715081">
        <ele>891.430</ele>
        <time>1999-07-24T12:03:46Z</time>
      </trkpt>
      <trkpt lat="43.258167" lon="-6.715224">
        <ele>890.216</ele>
        <time>1999-07-24T12:03:48Z</time>
      </trkpt>
      <trkpt lat="43.258177" lon="-6.715384">
        <ele>889.457</ele>
        <time>1999-07-24T12:03:50Z</time>
      </trkpt>
      <trkpt lat="43.258173" lon="-6.715471">
        <ele>888.838</ele>
        <time>1999-07-24T12:03:51Z</time>
      </trkpt>
      <trkpt lat="43.258137" lon="-6.715655">
        <ele>887.692</ele>
        <time>1999-07-24T12:03:53Z</time>
      </trkpt>
      <trkpt lat="43.258121" lon="-6.715755">
        <ele>886.831</ele>
        <time>1999-07-24T12:03:54Z</time>
      </trkpt>
      <trkpt lat="43.258110" lon="-6.715854">
        <ele>885.497</ele>
        <time>1999-07-24T12:03:55Z</time>
      </trkpt>
      <trkpt lat="43.258100" lon="-6.716023">
        <ele>884.629</ele>
        <time>1999-07-24T12:03:57Z</time>
      </trkpt>
      <trkpt lat="43.258102" lon="-6.716105">
        <ele>884.292</ele>
        <time>1999-07-24T12:03:58Z</time>
      </trkpt>
      <trkpt lat="43.258109" lon="-6.716347">
        <ele>882.873</ele>
        <time>1999-07-24T12:04:01Z</time>
      </trkpt>
      <trkpt lat="43.258116" lon="-6.716498">
        <ele>881.620</ele>
        <time>1999-07-24T12:04:03Z</time>
      </trkpt>
      <trkpt lat="43.258118" lon="-6.716642">
        <ele>879.608</ele>
        <time>1999-07-24T12:04:05Z</time>
      </trkpt>
      <trkpt lat="43.258118" lon="-6.716855">
        <ele>878.032</ele>
        <time>1999-07-24T12:04:08Z</time>
      </trkpt>
      <trkpt lat="43.258103" lon="-6.716983">
        <ele>876.868</ele>
        <time>1999-07-24T12:04:10Z</time>
      </trkpt>
      <trkpt lat="43.258094" lon="-6.717037">
        <ele>876.279</ele>
        <time>1999-07-24T12:04:11Z</time>
      </trkpt>
      <trkpt lat="43.258090" lon="-6.717091">
        <ele>875.610</ele>
        <time>1999-07-24T12:04:12Z</time>
      </trkpt>
      <trkpt lat="43.258089" lon="-6.717145">
        <ele>874.624</ele>
        <time>1999-07-24T12:04:13Z</time>
      </trkpt>
      <trkpt lat="43.258088" lon="-6.717195">
        <ele>873.683</ele>
        <time>1999-07-24T12:04:14Z</time>
      </trkpt>
      <trkpt lat="43.258088" lon="-6.717245">
        <ele>872.879</ele>
        <time>1999-07-24T12:04:15Z</time>
      </trkpt>
      <trkpt lat="43.258090" lon="-6.717300">
        <ele>872.221</ele>
        <time>1999-07-24T12:04:16Z</time>
      </trkpt>
      <trkpt lat="43.258090" lon="-6.717356">
        <ele>871.672</ele>
        <time>1999-07-24T12:04:17Z</time>
      </trkpt>
      <trkpt lat="43.258084" lon="-6.717403">
        <ele>870.813</ele>
        <time>1999-07-24T12:04:18Z</time>
      </trkpt>
      <trkpt lat="43.258078" lon="-6.717439">
        <ele>869.814</ele>
        <time>1999-07-24T12:04:19Z</time>
      </trkpt>
      <trkpt lat="43.258070" lon="-6.717470">
        <ele>868.808</ele>
        <time>1999-07-24T12:04:20Z</time>
      </trkpt>
      <trkpt lat="43.258046" lon="-6.717551">
        <ele>867.430</ele>
        <time>1999-07-24T12:04:22Z</time>
      </trkpt>
      <trkpt lat="43.258003" lon="-6.717662">
        <ele>865.826</ele>
        <time>1999-07-24T12:04:24Z</time>
      </trkpt>
      <trkpt lat="43.257955" lon="-6.717804">
        <ele>864.837</ele>
        <time>1999-07-24T12:04:26Z</time>
      </trkpt>
      <trkpt lat="43.257901" lon="-6.717972">
        <ele>863.658</ele>
        <time>1999-07-24T12:04:28Z</time>
      </trkpt>
      <trkpt lat="43.257859" lon="-6.718178">
        <ele>862.452</ele>
        <time>1999-07-24T12:04:31Z</time>
      </trkpt>
      <trkpt lat="43.257869" lon="-6.718279">
        <ele>861.441</ele>
        <time>1999-07-24T12:04:33Z</time>
      </trkpt>
      <trkpt lat="43.257892" lon="-6.718322">
        <ele>860.847</ele>
        <time>1999-07-24T12:04:34Z</time>
      </trkpt>
      <trkpt lat="43.257924" lon="-6.718368">
        <ele>860.239</ele>
        <time>1999-07-24T12:04:35Z</time>
      </trkpt>
      <trkpt lat="43.258009" lon="-6.718545">
        <ele>858.427</ele>
        <time>1999-07-24T12:04:38Z</time>
      </trkpt>
      <trkpt lat="43.258055" lon="-6.718669">
        <ele>857.068</ele>
        <time>1999-07-24T12:04:40Z</time>
      </trkpt>
      <trkpt lat="43.258073" lon="-6.718816">
        <ele>855.814</ele>
        <time>1999-07-24T12:04:42Z</time>
      </trkpt>
      <trkpt lat="43.258070" lon="-6.718895">
        <ele>855.408</ele>
        <time>1999-07-24T12:04:43Z</time>
      </trkpt>
      <trkpt lat="43.258040" lon="-6.719045">
        <ele>854.835</ele>
        <time>1999-07-24T12:04:45Z</time>
      </trkpt>
      <trkpt lat="43.258018" lon="-6.719183">
        <ele>852.851</ele>
        <time>1999-07-24T12:04:47Z</time>
      </trkpt>
      <trkpt lat="43.258031" lon="-6.719338">
        <ele>851.882</ele>
        <time>1999-07-24T12:04:49Z</time>
      </trkpt>
      <trkpt lat="43.258042" lon="-6.719406">
        <ele>851.473</ele>
        <time>1999-07-24T12:04:50Z</time>
      </trkpt>
      <trkpt lat="43.258051" lon="-6.719464">
        <ele>850.627</ele>
        <time>1999-07-24T12:04:51Z</time>
      </trkpt>
      <trkpt lat="43.258061" lon="-6.719570">
        <ele>849.436</ele>
        <time>1999-07-24T12:04:53Z</time>
      </trkpt>
      <trkpt lat="43.258062" lon="-6.719721">
        <ele>848.272</ele>
        <time>1999-07-24T12:04:56Z</time>
      </trkpt>
      <trkpt lat="43.258066" lon="-6.719893">
        <ele>847.274</ele>
        <time>1999-07-24T12:04:59Z</time>
      </trkpt>
      <trkpt lat="43.258090" lon="-6.719995">
        <ele>846.249</ele>
        <time>1999-07-24T12:05:01Z</time>
      </trkpt>
      <trkpt lat="43.258097" lon="-6.720045">
        <ele>846.002</ele>
        <time>1999-07-24T12:05:02Z</time>
      </trkpt>
      <trkpt lat="43.258081" lon="-6.720191">
        <ele>845.422</ele>
        <time>1999-07-24T12:05:05Z</time>
      </trkpt>
      <trkpt lat="43.258062" lon="-6.720383">
        <ele>845.008</ele>
        <time>1999-07-24T12:05:09Z</time>
      </trkpt>
      <trkpt lat="43.258037" lon="-6.720534">
        <ele>844.857</ele>
        <time>1999-07-24T12:05:12Z</time>
      </trkpt>
      <trkpt lat="43.257994" lon="-6.720686">
        <ele>844.823</ele>
        <time>1999-07-24T12:05:15Z</time>
      </trkpt>
      <trkpt lat="43.257978" lon="-6.720737">
        <ele>844.844</ele>
        <time>1999-07-24T12:05:16Z</time>
      </trkpt>
      <trkpt lat="43.257928" lon="-6.720897">
        <ele>844.865</ele>
        <time>1999-07-24T12:05:19Z</time>
      </trkpt>
      <trkpt lat="43.257892" lon="-6.721006">
        <ele>844.839</ele>
        <time>1999-07-24T12:05:21Z</time>
      </trkpt>
      <trkpt lat="43.257857" lon="-6.721123">
        <ele>844.868</ele>
        <time>1999-07-24T12:05:23Z</time>
      </trkpt>
      <trkpt lat="43.257818" lon="-6.721241">
        <ele>845.024</ele>
        <time>1999-07-24T12:05:25Z</time>
      </trkpt>
      <trkpt lat="43.257780" lon="-6.721353">
        <ele>845.096</ele>
        <time>1999-07-24T12:05:27Z</time>
      </trkpt>
      <trkpt lat="43.257667" lon="-6.721716">
        <ele>845.253</ele>
        <time>1999-07-24T12:05:33Z</time>
      </trkpt>
      <trkpt lat="43.257648" lon="-6.721781">
        <ele>845.204</ele>
        <time>1999-07-24T12:05:34Z</time>
      </trkpt>
      <trkpt lat="43.257589" lon="-6.721980">
        <ele>845.414</ele>
        <time>1999-07-24T12:05:37Z</time>
      </trkpt>
      <trkpt lat="43.257504" lon="-6.722250">
        <ele>845.808</ele>
        <time>1999-07-24T12:05:41Z</time>
      </trkpt>
      <trkpt lat="43.257480" lon="-6.722316">
        <ele>845.878</ele>
        <time>1999-07-24T12:05:42Z</time>
      </trkpt>
      <trkpt lat="43.257415" lon="-6.722438">
        <ele>846.084</ele>
        <time>1999-07-24T12:05:44Z</time>
      </trkpt>
      <trkpt lat="43.257330" lon="-6.722531">
        <ele>846.465</ele>
        <time>1999-07-24T12:05:46Z</time>
      </trkpt>
      <trkpt lat="43.257226" lon="-6.722585">
        <ele>846.436</ele>
        <time>1999-07-24T12:05:48Z</time>
      </trkpt>
      <trkpt lat="43.257114" lon="-6.722613">
        <ele>846.680</ele>
        <time>1999-07-24T12:05:50Z</time>
      </trkpt>
      <trkpt lat="43.257056" lon="-6.722618">
        <ele>846.689</ele>
        <time>1999-07-24T12:05:51Z</time>
      </trkpt>
      <trkpt lat="43.256829" lon="-6.722585">
        <ele>847.085</ele>
        <time>1999-07-24T12:05:55Z</time>
      </trkpt>
      <trkpt lat="43.256776" lon="-6.722574">
        <ele>847.237</ele>
        <time>1999-07-24T12:05:56Z</time>
      </trkpt>
      <trkpt lat="43.256586" lon="-6.722533">
        <ele>847.836</ele>
        <time>1999-07-24T12:06:00Z</time>
      </trkpt>
      <trkpt lat="43.256542" lon="-6.722522">
        <ele>847.817</ele>
        <time>1999-07-24T12:06:01Z</time>
      </trkpt>
      <trkpt lat="43.256412" lon="-6.722488">
        <ele>848.218</ele>
        <time>1999-07-24T12:06:04Z</time>
      </trkpt>
      <trkpt lat="43.256199" lon="-6.722447">
        <ele>848.608</ele>
        <time>1999-07-24T12:06:09Z</time>
      </trkpt>
      <trkpt lat="43.256158" lon="-6.722439">
        <ele>848.856</ele>
        <time>1999-07-24T12:06:10Z</time>
      </trkpt>
      <trkpt lat="43.256079" lon="-6.722424">
        <ele>849.232</ele>
        <time>1999-07-24T12:06:12Z</time>
      </trkpt>
      <trkpt lat="43.255921" lon="-6.722399">
        <ele>850.423</ele>
        <time>1999-07-24T12:06:16Z</time>
      </trkpt>
      <trkpt lat="43.255848" lon="-6.722386">
        <ele>850.844</ele>
        <time>1999-07-24T12:06:18Z</time>
      </trkpt>
      <trkpt lat="43.255742" lon="-6.722359">
        <ele>851.698</ele>
        <time>1999-07-24T12:06:21Z</time>
      </trkpt>
      <trkpt lat="43.255562" lon="-6.722328">
        <ele>852.697</ele>
        <time>1999-07-24T12:06:26Z</time>
      </trkpt>
      <trkpt lat="43.255492" lon="-6.722342">
        <ele>853.253</ele>
        <time>1999-07-24T12:06:28Z</time>
      </trkpt>
      <trkpt lat="43.255393" lon="-6.722414">
        <ele>854.095</ele>
        <time>1999-07-24T12:06:31Z</time>
      </trkpt>
      <trkpt lat="43.255324" lon="-6.722465">
        <ele>854.419</ele>
        <time>1999-07-24T12:06:33Z</time>
      </trkpt>
      <trkpt lat="43.255258" lon="-6.722523">
        <ele>855.009</ele>
        <time>1999-07-24T12:06:35Z</time>
      </trkpt>
      <trkpt lat="43.255110" lon="-6.722703">
        <ele>856.019</ele>
        <time>1999-07-24T12:06:40Z</time>
      </trkpt>
      <trkpt lat="43.254980" lon="-6.722911">
        <ele>857.008</ele>
        <time>1999-07-24T12:06:45Z</time>
      </trkpt>
      <trkpt lat="43.254882" lon="-6.723089">
        <ele>857.894</ele>
        <time>1999-07-24T12:06:49Z</time>
      </trkpt>
      <trkpt lat="43.254833" lon="-6.723180">
        <ele>858.290</ele>
        <time>1999-07-24T12:06:51Z</time>
      </trkpt>
      <trkpt lat="43.254811" lon="-6.723230">
        <ele>858.681</ele>
        <time>1999-07-24T12:06:52Z</time>
      </trkpt>
      <trkpt lat="43.254775" lon="-6.723336">
        <ele>858.872</ele>
        <time>1999-07-24T12:06:54Z</time>
      </trkpt>
      <trkpt lat="43.254747" lon="-6.723447">
        <ele>859.246</ele>
        <time>1999-07-24T12:06:56Z</time>
      </trkpt>
      <trkpt lat="43.254732" lon="-6.723502">
        <ele>859.295</ele>
        <time>1999-07-24T12:06:57Z</time>
      </trkpt>
      <trkpt lat="43.254605" lon="-6.723992">
        <ele>860.621</ele>
        <time>1999-07-24T12:07:06Z</time>
      </trkpt>
      <trkpt lat="43.254560" lon="-6.724260">
        <ele>861.273</ele>
        <time>1999-07-24T12:07:11Z</time>
      </trkpt>
      <trkpt lat="43.254549" lon="-6.724347">
        <ele>861.452</ele>
        <time>1999-07-24T12:07:13Z</time>
      </trkpt>
      <trkpt lat="43.254542" lon="-6.724446">
        <ele>862.053</ele>
        <time>1999-07-24T12:07:16Z</time>
      </trkpt>
      <trkpt lat="43.254534" lon="-6.724467">
        <ele>862.008</ele>
        <time>1999-07-24T12:07:17Z</time>
      </trkpt>
      <trkpt lat="43.254523" lon="-6.724469">
        <ele>862.008</ele>
        <time>1999-07-24T12:07:18Z</time>
      </trkpt>
      <trkpt lat="43.254513" lon="-6.724404">
        <ele>862.618</ele>
        <time>1999-07-24T12:07:21Z</time>
      </trkpt>
      <trkpt lat="43.254518" lon="-6.724374">
        <ele>862.614</ele>
        <time>1999-07-24T12:07:22Z</time>
      </trkpt>
      <trkpt lat="43.254522" lon="-6.724342">
        <ele>862.625</ele>
        <time>1999-07-24T12:07:23Z</time>
      </trkpt>
      <trkpt lat="43.254525" lon="-6.724310">
        <ele>862.666</ele>
        <time>1999-07-24T12:07:24Z</time>
      </trkpt>
      <trkpt lat="43.254535" lon="-6.724245">
        <ele>862.660</ele>
        <time>1999-07-24T12:07:26Z</time>
      </trkpt>
      <trkpt lat="43.254567" lon="-6.724090">
        <ele>862.659</ele>
        <time>1999-07-24T12:07:30Z</time>
      </trkpt>
      <trkpt lat="43.254585" lon="-6.723996">
        <ele>862.695</ele>
        <time>1999-07-24T12:07:32Z</time>
      </trkpt>
      <trkpt lat="43.254608" lon="-6.723903">
        <ele>862.617</ele>
        <time>1999-07-24T12:07:34Z</time>
      </trkpt>
      <trkpt lat="43.254617" lon="-6.723859">
        <ele>862.242</ele>
        <time>1999-07-24T12:07:35Z</time>
      </trkpt>
      <trkpt lat="43.254636" lon="-6.723783">
        <ele>862.222</ele>
        <time>1999-07-24T12:07:37Z</time>
      </trkpt>
      <trkpt lat="43.254657" lon="-6.723702">
        <ele>862.214</ele>
        <time>1999-07-24T12:07:40Z</time>
      </trkpt>
      <trkpt lat="43.254668" lon="-6.723692">
        <ele>862.008</ele>
        <time>1999-07-24T12:07:41Z</time>
      </trkpt>
      <trkpt lat="43.254675" lon="-6.723757">
        <ele>861.837</ele>
        <time>1999-07-24T12:07:44Z</time>
      </trkpt>
      <trkpt lat="43.254631" lon="-6.723835">
        <ele>861.663</ele>
        <time>1999-07-24T12:07:47Z</time>
      </trkpt>
      <trkpt lat="43.254610" lon="-6.723907">
        <ele>861.424</ele>
        <time>1999-07-24T12:07:49Z</time>
      </trkpt>
      <trkpt lat="43.254574" lon="-6.724055">
        <ele>861.445</ele>
        <time>1999-07-24T12:07:54Z</time>
      </trkpt>
      <trkpt lat="43.254574" lon="-6.724055">
        <ele>861.489</ele>
        <time>1999-07-24T12:07:55Z</time>
      </trkpt>
      <trkpt lat="43.254574" lon="-6.724136">
        <ele>862.048</ele>
        <time>1999-07-24T12:08:12Z</time>
      </trkpt>
      <trkpt lat="43.254573" lon="-6.724208">
        <ele>862.074</ele>
        <time>1999-07-24T12:08:14Z</time>
      </trkpt>
      <trkpt lat="43.254566" lon="-6.724355">
        <ele>862.066</ele>
        <time>1999-07-24T12:08:17Z</time>
      </trkpt>
      <trkpt lat="43.254563" lon="-6.724507">
        <ele>862.011</ele>
        <time>1999-07-24T12:08:20Z</time>
      </trkpt>
      <trkpt lat="43.254532" lon="-6.724814">
        <ele>862.821</ele>
        <time>1999-07-24T12:08:26Z</time>
      </trkpt>
      <trkpt lat="43.254493" lon="-6.725019">
        <ele>863.203</ele>
        <time>1999-07-24T12:08:30Z</time>
      </trkpt>
      <trkpt lat="43.254490" lon="-6.725123">
        <ele>863.408</ele>
        <time>1999-07-24T12:08:32Z</time>
      </trkpt>
      <trkpt lat="43.254507" lon="-6.725280">
        <ele>863.864</ele>
        <time>1999-07-24T12:08:35Z</time>
      </trkpt>
      <trkpt lat="43.254517" lon="-6.725444">
        <ele>864.270</ele>
        <time>1999-07-24T12:08:38Z</time>
      </trkpt>
      <trkpt lat="43.254516" lon="-6.725663">
        <ele>864.891</ele>
        <time>1999-07-24T12:08:42Z</time>
      </trkpt>
      <trkpt lat="43.254517" lon="-6.725768">
        <ele>865.092</ele>
        <time>1999-07-24T12:08:44Z</time>
      </trkpt>
      <trkpt lat="43.254523" lon="-6.725926">
        <ele>865.236</ele>
        <time>1999-07-24T12:08:47Z</time>
      </trkpt>
      <trkpt lat="43.254544" lon="-6.726259">
        <ele>866.095</ele>
        <time>1999-07-24T12:08:53Z</time>
      </trkpt>
      <trkpt lat="43.254547" lon="-6.726369">
        <ele>866.461</ele>
        <time>1999-07-24T12:08:55Z</time>
      </trkpt>
      <trkpt lat="43.254533" lon="-6.726586">
        <ele>867.053</ele>
        <time>1999-07-24T12:08:59Z</time>
      </trkpt>
      <trkpt lat="43.254524" lon="-6.726803">
        <ele>867.661</ele>
        <time>1999-07-24T12:09:03Z</time>
      </trkpt>
      <trkpt lat="43.254529" lon="-6.726997">
        <ele>868.221</ele>
        <time>1999-07-24T12:09:07Z</time>
      </trkpt>
      <trkpt lat="43.254472" lon="-6.727220">
        <ele>868.613</ele>
        <time>1999-07-24T12:09:11Z</time>
      </trkpt>
      <trkpt lat="43.254451" lon="-6.727278">
        <ele>868.808</ele>
        <time>1999-07-24T12:09:12Z</time>
      </trkpt>
      <trkpt lat="43.254375" lon="-6.727427">
        <ele>869.469</ele>
        <time>1999-07-24T12:09:15Z</time>
      </trkpt>
      <trkpt lat="43.254345" lon="-6.727471">
        <ele>869.415</ele>
        <time>1999-07-24T12:09:16Z</time>
      </trkpt>
      <trkpt lat="43.254314" lon="-6.727510">
        <ele>869.626</ele>
        <time>1999-07-24T12:09:17Z</time>
      </trkpt>
      <trkpt lat="43.254242" lon="-6.727580">
        <ele>869.897</ele>
        <time>1999-07-24T12:09:19Z</time>
      </trkpt>
      <trkpt lat="43.254162" lon="-6.727629">
        <ele>870.041</ele>
        <time>1999-07-24T12:09:21Z</time>
      </trkpt>
      <trkpt lat="43.254040" lon="-6.727672">
        <ele>870.210</ele>
        <time>1999-07-24T12:09:24Z</time>
      </trkpt>
      <trkpt lat="43.253954" lon="-6.727689">
        <ele>870.696</ele>
        <time>1999-07-24T12:09:26Z</time>
      </trkpt>
      <trkpt lat="43.253735" lon="-6.727680">
        <ele>871.658</ele>
        <time>1999-07-24T12:09:31Z</time>
      </trkpt>
      <trkpt lat="43.253645" lon="-6.727669">
        <ele>871.893</ele>
        <time>1999-07-24T12:09:33Z</time>
      </trkpt>
      <trkpt lat="43.253478" lon="-6.727671">
        <ele>872.465</ele>
        <time>1999-07-24T12:09:37Z</time>
      </trkpt>
      <trkpt lat="43.253311" lon="-6.727700">
        <ele>873.021</ele>
        <time>1999-07-24T12:09:41Z</time>
      </trkpt>
      <trkpt lat="43.253188" lon="-6.727728">
        <ele>873.608</ele>
        <time>1999-07-24T12:09:44Z</time>
      </trkpt>
      <trkpt lat="43.253000" lon="-6.727801">
        <ele>874.252</ele>
        <time>1999-07-24T12:09:49Z</time>
      </trkpt>
      <trkpt lat="43.252967" lon="-6.727832">
        <ele>874.238</ele>
        <time>1999-07-24T12:09:50Z</time>
      </trkpt>
      <trkpt lat="43.252909" lon="-6.727911">
        <ele>874.859</ele>
        <time>1999-07-24T12:09:52Z</time>
      </trkpt>
      <trkpt lat="43.252862" lon="-6.728001">
        <ele>874.830</ele>
        <time>1999-07-24T12:09:54Z</time>
      </trkpt>
      <trkpt lat="43.252751" lon="-6.728241">
        <ele>875.464</ele>
        <time>1999-07-24T12:10:00Z</time>
      </trkpt>
      <trkpt lat="43.252740" lon="-6.728261">
        <ele>875.683</ele>
        <time>1999-07-24T12:10:01Z</time>
      </trkpt>
      <trkpt lat="43.252734" lon="-6.728265">
        <ele>875.899</ele>
        <time>1999-07-24T12:10:03Z</time>
      </trkpt>
      <trkpt lat="43.252735" lon="-6.728265">
        <ele>876.281</ele>
        <time>1999-07-24T12:10:04Z</time>
      </trkpt>
      <trkpt lat="43.252694" lon="-6.728305">
        <ele>876.861</ele>
        <time>1999-07-24T12:10:28Z</time>
      </trkpt>
      <trkpt lat="43.252661" lon="-6.728333">
        <ele>876.821</ele>
        <time>1999-07-24T12:10:29Z</time>
      </trkpt>
      <trkpt lat="43.252624" lon="-6.728366">
        <ele>876.613</ele>
        <time>1999-07-24T12:10:30Z</time>
      </trkpt>
      <trkpt lat="43.252592" lon="-6.728408">
        <ele>876.608</ele>
        <time>1999-07-24T12:10:31Z</time>
      </trkpt>
      <trkpt lat="43.252564" lon="-6.728459">
        <ele>876.629</ele>
        <time>1999-07-24T12:10:32Z</time>
      </trkpt>
      <trkpt lat="43.252540" lon="-6.728521">
        <ele>876.615</ele>
        <time>1999-07-24T12:10:33Z</time>
      </trkpt>
      <trkpt lat="43.252530" lon="-6.728596">
        <ele>876.626</ele>
        <time>1999-07-24T12:10:34Z</time>
      </trkpt>
      <trkpt lat="43.252536" lon="-6.728775">
        <ele>876.247</ele>
        <time>1999-07-24T12:10:36Z</time>
      </trkpt>
      <trkpt lat="43.252537" lon="-6.728862">
        <ele>875.811</ele>
        <time>1999-07-24T12:10:37Z</time>
      </trkpt>
      <trkpt lat="43.252543" lon="-6.729021">
        <ele>874.470</ele>
        <time>1999-07-24T12:10:39Z</time>
      </trkpt>
      <trkpt lat="43.252553" lon="-6.729090">
        <ele>873.666</ele>
        <time>1999-07-24T12:10:40Z</time>
      </trkpt>
      <trkpt lat="43.252566" lon="-6.729161">
        <ele>872.888</ele>
        <time>1999-07-24T12:10:41Z</time>
      </trkpt>
      <trkpt lat="43.252643" lon="-6.729275">
        <ele>871.049</ele>
        <time>1999-07-24T12:10:43Z</time>
      </trkpt>
      <trkpt lat="43.252687" lon="-6.729327">
        <ele>870.202</ele>
        <time>1999-07-24T12:10:44Z</time>
      </trkpt>
      <trkpt lat="43.252732" lon="-6.729394">
        <ele>869.022</ele>
        <time>1999-07-24T12:10:45Z</time>
      </trkpt>
      <trkpt lat="43.252772" lon="-6.729476">
        <ele>868.008</ele>
        <time>1999-07-24T12:10:46Z</time>
      </trkpt>
      <trkpt lat="43.252808" lon="-6.729566">
        <ele>866.827</ele>
        <time>1999-07-24T12:10:47Z</time>
      </trkpt>
      <trkpt lat="43.252838" lon="-6.729656">
        <ele>865.653</ele>
        <time>1999-07-24T12:10:48Z</time>
      </trkpt>
      <trkpt lat="43.252867" lon="-6.729745">
        <ele>864.834</ele>
        <time>1999-07-24T12:10:49Z</time>
      </trkpt>
      <trkpt lat="43.252900" lon="-6.729822">
        <ele>864.485</ele>
        <time>1999-07-24T12:10:50Z</time>
      </trkpt>
      <trkpt lat="43.252961" lon="-6.729963">
        <ele>863.659</ele>
        <time>1999-07-24T12:10:52Z</time>
      </trkpt>
      <trkpt lat="43.252997" lon="-6.730022">
        <ele>863.468</ele>
        <time>1999-07-24T12:10:53Z</time>
      </trkpt>
      <trkpt lat="43.253029" lon="-6.730090">
        <ele>863.064</ele>
        <time>1999-07-24T12:10:54Z</time>
      </trkpt>
      <trkpt lat="43.253107" lon="-6.730228">
        <ele>861.876</ele>
        <time>1999-07-24T12:10:56Z</time>
      </trkpt>
      <trkpt lat="43.253149" lon="-6.730304">
        <ele>861.681</ele>
        <time>1999-07-24T12:10:57Z</time>
      </trkpt>
      <trkpt lat="43.253302" lon="-6.730615">
        <ele>861.261</ele>
        <time>1999-07-24T12:11:01Z</time>
      </trkpt>
      <trkpt lat="43.253318" lon="-6.730716">
        <ele>861.017</ele>
        <time>1999-07-24T12:11:02Z</time>
      </trkpt>
      <trkpt lat="43.253345" lon="-6.730905">
        <ele>860.808</ele>
        <time>1999-07-24T12:11:04Z</time>
      </trkpt>
      <trkpt lat="43.253369" lon="-6.731030">
        <ele>860.261</ele>
        <time>1999-07-24T12:11:06Z</time>
      </trkpt>
      <trkpt lat="43.253358" lon="-6.731101">
        <ele>859.827</ele>
        <time>1999-07-24T12:11:09Z</time>
      </trkpt>
      <trkpt lat="43.253361" lon="-6.731115">
        <ele>859.668</ele>
        <time>1999-07-24T12:11:10Z</time>
      </trkpt>
      <trkpt lat="43.253357" lon="-6.731140">
        <ele>859.679</ele>
        <time>1999-07-24T12:11:12Z</time>
      </trkpt>
      <trkpt lat="43.253344" lon="-6.731171">
        <ele>859.643</ele>
        <time>1999-07-24T12:11:14Z</time>
      </trkpt>
      <trkpt lat="43.253338" lon="-6.731189">
        <ele>859.692</ele>
        <time>1999-07-24T12:11:15Z</time>
      </trkpt>
      <trkpt lat="43.253329" lon="-6.731219">
        <ele>859.698</ele>
        <time>1999-07-24T12:11:17Z</time>
      </trkpt>
      <trkpt lat="43.253322" lon="-6.731255">
        <ele>859.670</ele>
        <time>1999-07-24T12:11:19Z</time>
      </trkpt>
      <trkpt lat="43.253316" lon="-6.731301">
        <ele>859.835</ele>
        <time>1999-07-24T12:11:21Z</time>
      </trkpt>
      <trkpt lat="43.253324" lon="-6.731344">
        <ele>860.686</ele>
        <time>1999-07-24T12:11:23Z</time>
      </trkpt>
      <trkpt lat="43.253352" lon="-6.731374">
        <ele>861.214</ele>
        <time>1999-07-24T12:11:25Z</time>
      </trkpt>
      <trkpt lat="43.253366" lon="-6.731388">
        <ele>861.608</ele>
        <time>1999-07-24T12:11:26Z</time>
      </trkpt>
      <trkpt lat="43.253380" lon="-6.731399">
        <ele>861.826</ele>
        <time>1999-07-24T12:11:27Z</time>
      </trkpt>
      <trkpt lat="43.253426" lon="-6.731442">
        <ele>863.072</ele>
        <time>1999-07-24T12:11:31Z</time>
      </trkpt>
      <trkpt lat="43.253448" lon="-6.731471">
        <ele>863.453</ele>
        <time>1999-07-24T12:11:33Z</time>
      </trkpt>
      <trkpt lat="43.253460" lon="-6.731545">
        <ele>864.214</ele>
        <time>1999-07-24T12:11:36Z</time>
      </trkpt>
      <trkpt lat="43.253448" lon="-6.731607">
        <ele>865.218</ele>
        <time>1999-07-24T12:11:39Z</time>
      </trkpt>
      <trkpt lat="43.253435" lon="-6.731625">
        <ele>865.427</ele>
        <time>1999-07-24T12:11:40Z</time>
      </trkpt>
      <trkpt lat="43.253415" lon="-6.731686">
        <ele>866.433</ele>
        <time>1999-07-24T12:11:43Z</time>
      </trkpt>
      <trkpt lat="43.253416" lon="-6.731708">
        <ele>866.645</ele>
        <time>1999-07-24T12:11:44Z</time>
      </trkpt>
      <trkpt lat="43.253409" lon="-6.731750">
        <ele>867.234</ele>
        <time>1999-07-24T12:11:46Z</time>
      </trkpt>
      <trkpt lat="43.253413" lon="-6.731789">
        <ele>867.855</ele>
        <time>1999-07-24T12:11:48Z</time>
      </trkpt>
      <trkpt lat="43.253425" lon="-6.731821">
        <ele>869.010</ele>
        <time>1999-07-24T12:11:50Z</time>
      </trkpt>
      <trkpt lat="43.253438" lon="-6.731896">
        <ele>870.208</ele>
        <time>1999-07-24T12:11:54Z</time>
      </trkpt>
      <trkpt lat="43.253453" lon="-6.731943">
        <ele>871.076</ele>
        <time>1999-07-24T12:11:57Z</time>
      </trkpt>
      <trkpt lat="43.253460" lon="-6.731954">
        <ele>871.272</ele>
        <time>1999-07-24T12:11:58Z</time>
      </trkpt>
      <trkpt lat="43.253465" lon="-6.732037">
        <ele>872.293</ele>
        <time>1999-07-24T12:12:02Z</time>
      </trkpt>
      <trkpt lat="43.253461" lon="-6.732063">
        <ele>872.414</ele>
        <time>1999-07-24T12:12:03Z</time>
      </trkpt>
      <trkpt lat="43.253437" lon="-6.732125">
        <ele>873.288</ele>
        <time>1999-07-24T12:12:06Z</time>
      </trkpt>
      <trkpt lat="43.253429" lon="-6.732162">
        <ele>873.877</ele>
        <time>1999-07-24T12:12:08Z</time>
      </trkpt>
      <trkpt lat="43.253393" lon="-6.732229">
        <ele>874.893</ele>
        <time>1999-07-24T12:12:12Z</time>
      </trkpt>
      <trkpt lat="43.253374" lon="-6.732265">
        <ele>875.475</ele>
        <time>1999-07-24T12:12:14Z</time>
      </trkpt>
      <trkpt lat="43.253344" lon="-6.732313">
        <ele>875.826</ele>
        <time>1999-07-24T12:12:17Z</time>
      </trkpt>
      <trkpt lat="43.253325" lon="-6.732343">
        <ele>876.447</ele>
        <time>1999-07-24T12:12:19Z</time>
      </trkpt>
      <trkpt lat="43.253318" lon="-6.732362">
        <ele>876.811</ele>
        <time>1999-07-24T12:12:20Z</time>
      </trkpt>
      <trkpt lat="43.253318" lon="-6.732383">
        <ele>876.808</ele>
        <time>1999-07-24T12:12:21Z</time>
      </trkpt>
      <trkpt lat="43.253339" lon="-6.732418">
        <ele>877.455</ele>
        <time>1999-07-24T12:12:23Z</time>
      </trkpt>
      <trkpt lat="43.253361" lon="-6.732445">
        <ele>877.811</ele>
        <time>1999-07-24T12:12:25Z</time>
      </trkpt>
      <trkpt lat="43.253372" lon="-6.732460">
        <ele>878.032</ele>
        <time>1999-07-24T12:12:26Z</time>
      </trkpt>
      <trkpt lat="43.253419" lon="-6.732511">
        <ele>878.813</ele>
        <time>1999-07-24T12:12:30Z</time>
      </trkpt>
      <trkpt lat="43.253428" lon="-6.732509">
        <ele>879.027</ele>
        <time>1999-07-24T12:12:31Z</time>
      </trkpt>
      <trkpt lat="43.253439" lon="-6.732507">
        <ele>879.466</ele>
        <time>1999-07-24T12:12:32Z</time>
      </trkpt>
      <trkpt lat="43.253480" lon="-6.732509">
        <ele>880.662</ele>
        <time>1999-07-24T12:12:36Z</time>
      </trkpt>
      <trkpt lat="43.253508" lon="-6.732510">
        <ele>881.284</ele>
        <time>1999-07-24T12:12:38Z</time>
      </trkpt>
      <trkpt lat="43.253523" lon="-6.732502">
        <ele>882.031</ele>
        <time>1999-07-24T12:12:39Z</time>
      </trkpt>
      <trkpt lat="43.253578" lon="-6.732466">
        <ele>882.861</ele>
        <time>1999-07-24T12:12:43Z</time>
      </trkpt>
      <trkpt lat="43.253617" lon="-6.732429">
        <ele>883.407</ele>
        <time>1999-07-24T12:12:46Z</time>
      </trkpt>
      <trkpt lat="43.253637" lon="-6.732402">
        <ele>883.808</ele>
        <time>1999-07-24T12:12:48Z</time>
      </trkpt>
      <trkpt lat="43.253666" lon="-6.732373">
        <ele>884.626</ele>
        <time>1999-07-24T12:12:50Z</time>
      </trkpt>
      <trkpt lat="43.253698" lon="-6.732382">
        <ele>884.872</ele>
        <time>1999-07-24T12:12:52Z</time>
      </trkpt>
      <trkpt lat="43.253705" lon="-6.732401">
        <ele>885.253</ele>
        <time>1999-07-24T12:12:53Z</time>
      </trkpt>
      <trkpt lat="43.253687" lon="-6.732473">
        <ele>885.674</ele>
        <time>1999-07-24T12:12:56Z</time>
      </trkpt>
      <trkpt lat="43.253665" lon="-6.732515">
        <ele>886.298</ele>
        <time>1999-07-24T12:12:58Z</time>
      </trkpt>
      <trkpt lat="43.253591" lon="-6.732642">
        <ele>887.217</ele>
        <time>1999-07-24T12:13:03Z</time>
      </trkpt>
      <trkpt lat="43.253539" lon="-6.732719">
        <ele>887.853</ele>
        <time>1999-07-24T12:13:06Z</time>
      </trkpt>
      <trkpt lat="43.253489" lon="-6.732802">
        <ele>887.875</ele>
        <time>1999-07-24T12:13:09Z</time>
      </trkpt>
      <trkpt lat="43.253420" lon="-6.732930">
        <ele>888.219</ele>
        <time>1999-07-24T12:13:13Z</time>
      </trkpt>
      <trkpt lat="43.253383" lon="-6.732991">
        <ele>888.409</ele>
        <time>1999-07-24T12:13:15Z</time>
      </trkpt>
      <trkpt lat="43.253286" lon="-6.733136">
        <ele>889.219</ele>
        <time>1999-07-24T12:13:20Z</time>
      </trkpt>
      <trkpt lat="43.253266" lon="-6.733165">
        <ele>889.408</ele>
        <time>1999-07-24T12:13:21Z</time>
      </trkpt>
      <trkpt lat="43.253179" lon="-6.733272">
        <ele>890.224</ele>
        <time>1999-07-24T12:13:25Z</time>
      </trkpt>
      <trkpt lat="43.253137" lon="-6.733324">
        <ele>890.480</ele>
        <time>1999-07-24T12:13:27Z</time>
      </trkpt>
      <trkpt lat="43.253095" lon="-6.733372">
        <ele>890.491</ele>
        <time>1999-07-24T12:13:29Z</time>
      </trkpt>
      <trkpt lat="43.252930" lon="-6.733529">
        <ele>891.492</ele>
        <time>1999-07-24T12:13:36Z</time>
      </trkpt>
      <trkpt lat="43.252908" lon="-6.733552">
        <ele>891.456</ele>
        <time>1999-07-24T12:13:37Z</time>
      </trkpt>
      <trkpt lat="43.252829" lon="-6.733678">
        <ele>892.225</ele>
        <time>1999-07-24T12:13:42Z</time>
      </trkpt>
      <trkpt lat="43.252793" lon="-6.733708">
        <ele>892.411</ele>
        <time>1999-07-24T12:13:44Z</time>
      </trkpt>
      <trkpt lat="43.252719" lon="-6.733768">
        <ele>893.473</ele>
        <time>1999-07-24T12:13:49Z</time>
      </trkpt>
      <trkpt lat="43.252706" lon="-6.733779">
        <ele>893.618</ele>
        <time>1999-07-24T12:13:50Z</time>
      </trkpt>
      <trkpt lat="43.252635" lon="-6.733846">
        <ele>894.898</ele>
        <time>1999-07-24T12:13:56Z</time>
      </trkpt>
      <trkpt lat="43.252629" lon="-6.733860">
        <ele>895.017</ele>
        <time>1999-07-24T12:13:57Z</time>
      </trkpt>
      <trkpt lat="43.252615" lon="-6.733889">
        <ele>895.808</ele>
        <time>1999-07-24T12:13:59Z</time>
      </trkpt>
      <trkpt lat="43.252564" lon="-6.733931">
        <ele>896.814</ele>
        <time>1999-07-24T12:14:03Z</time>
      </trkpt>
      <trkpt lat="43.252553" lon="-6.733941">
        <ele>897.060</ele>
        <time>1999-07-24T12:14:04Z</time>
      </trkpt>
      <trkpt lat="43.252469" lon="-6.734014">
        <ele>898.291</ele>
        <time>1999-07-24T12:14:09Z</time>
      </trkpt>
      <trkpt lat="43.252395" lon="-6.734117">
        <ele>899.232</ele>
        <time>1999-07-24T12:14:14Z</time>
      </trkpt>
      <trkpt lat="43.252361" lon="-6.734147">
        <ele>899.816</ele>
        <time>1999-07-24T12:14:16Z</time>
      </trkpt>
      <trkpt lat="43.252326" lon="-6.734183">
        <ele>900.455</ele>
        <time>1999-07-24T12:14:18Z</time>
      </trkpt>
      <trkpt lat="43.252234" lon="-6.734284">
        <ele>901.291</ele>
        <time>1999-07-24T12:14:24Z</time>
      </trkpt>
      <trkpt lat="43.252219" lon="-6.734302">
        <ele>901.433</ele>
        <time>1999-07-24T12:14:25Z</time>
      </trkpt>
      <trkpt lat="43.252124" lon="-6.734409">
        <ele>902.657</ele>
        <time>1999-07-24T12:14:31Z</time>
      </trkpt>
      <trkpt lat="43.252106" lon="-6.734427">
        <ele>902.600</ele>
        <time>1999-07-24T12:14:32Z</time>
      </trkpt>
      <trkpt lat="43.251995" lon="-6.734556">
        <ele>903.420</ele>
        <time>1999-07-24T12:14:39Z</time>
      </trkpt>
      <trkpt lat="43.251979" lon="-6.734575">
        <ele>903.408</ele>
        <time>1999-07-24T12:14:40Z</time>
      </trkpt>
      <trkpt lat="43.251938" lon="-6.734613">
        <ele>903.628</ele>
        <time>1999-07-24T12:14:42Z</time>
      </trkpt>
      <trkpt lat="43.251804" lon="-6.734725">
        <ele>904.244</ele>
        <time>1999-07-24T12:14:48Z</time>
      </trkpt>
      <trkpt lat="43.251720" lon="-6.734796">
        <ele>904.615</ele>
        <time>1999-07-24T12:14:52Z</time>
      </trkpt>
      <trkpt lat="43.251605" lon="-6.734888">
        <ele>905.076</ele>
        <time>1999-07-24T12:14:57Z</time>
      </trkpt>
      <trkpt lat="43.251427" lon="-6.735044">
        <ele>905.670</ele>
        <time>1999-07-24T12:15:05Z</time>
      </trkpt>
      <trkpt lat="43.251407" lon="-6.735052">
        <ele>905.879</ele>
        <time>1999-07-24T12:15:06Z</time>
      </trkpt>
      <trkpt lat="43.251351" lon="-6.735085">
        <ele>906.295</ele>
        <time>1999-07-24T12:15:09Z</time>
      </trkpt>
      <trkpt lat="43.251328" lon="-6.735122">
        <ele>906.627</ele>
        <time>1999-07-24T12:15:11Z</time>
      </trkpt>
      <trkpt lat="43.251313" lon="-6.735137">
        <ele>906.867</ele>
        <time>1999-07-24T12:15:12Z</time>
      </trkpt>
      <trkpt lat="43.251298" lon="-6.735154">
        <ele>907.081</ele>
        <time>1999-07-24T12:15:13Z</time>
      </trkpt>
      <trkpt lat="43.251263" lon="-6.735218">
        <ele>908.019</ele>
        <time>1999-07-24T12:15:16Z</time>
      </trkpt>
      <trkpt lat="43.251241" lon="-6.735264">
        <ele>908.608</ele>
        <time>1999-07-24T12:15:18Z</time>
      </trkpt>
      <trkpt lat="43.251211" lon="-6.735361">
        <ele>909.279</ele>
        <time>1999-07-24T12:15:22Z</time>
      </trkpt>
      <trkpt lat="43.251201" lon="-6.735465">
        <ele>909.855</ele>
        <time>1999-07-24T12:15:26Z</time>
      </trkpt>
      <trkpt lat="43.251200" lon="-6.735586">
        <ele>910.476</ele>
        <time>1999-07-24T12:15:31Z</time>
      </trkpt>
      <trkpt lat="43.251202" lon="-6.735609">
        <ele>910.647</ele>
        <time>1999-07-24T12:15:32Z</time>
      </trkpt>
      <trkpt lat="43.251202" lon="-6.735656">
        <ele>911.231</ele>
        <time>1999-07-24T12:15:34Z</time>
      </trkpt>
      <trkpt lat="43.251202" lon="-6.735681">
        <ele>911.650</ele>
        <time>1999-07-24T12:15:35Z</time>
      </trkpt>
      <trkpt lat="43.251199" lon="-6.735775">
        <ele>912.636</ele>
        <time>1999-07-24T12:15:39Z</time>
      </trkpt>
      <trkpt lat="43.251192" lon="-6.735802">
        <ele>912.838</ele>
        <time>1999-07-24T12:15:40Z</time>
      </trkpt>
      <trkpt lat="43.251146" lon="-6.735923">
        <ele>913.839</ele>
        <time>1999-07-24T12:15:44Z</time>
      </trkpt>
      <trkpt lat="43.251106" lon="-6.736001">
        <ele>914.201</ele>
        <time>1999-07-24T12:15:46Z</time>
      </trkpt>
      <trkpt lat="43.250962" lon="-6.736237">
        <ele>914.421</ele>
        <time>1999-07-24T12:15:51Z</time>
      </trkpt>
      <trkpt lat="43.250925" lon="-6.736291">
        <ele>914.408</ele>
        <time>1999-07-24T12:15:52Z</time>
      </trkpt>
      <trkpt lat="43.250855" lon="-6.736412">
        <ele>914.426</ele>
        <time>1999-07-24T12:15:54Z</time>
      </trkpt>
      <trkpt lat="43.250797" lon="-6.736545">
        <ele>914.482</ele>
        <time>1999-07-24T12:15:56Z</time>
      </trkpt>
      <trkpt lat="43.250769" lon="-6.736615">
        <ele>914.443</ele>
        <time>1999-07-24T12:15:57Z</time>
      </trkpt>
      <trkpt lat="43.250717" lon="-6.736755">
        <ele>914.254</ele>
        <time>1999-07-24T12:15:59Z</time>
      </trkpt>
      <trkpt lat="43.250600" lon="-6.737013">
        <ele>913.468</ele>
        <time>1999-07-24T12:16:03Z</time>
      </trkpt>
      <trkpt lat="43.250511" lon="-6.737176">
        <ele>912.827</ele>
        <time>1999-07-24T12:16:06Z</time>
      </trkpt>
      <trkpt lat="43.250447" lon="-6.737332">
        <ele>912.213</ele>
        <time>1999-07-24T12:16:09Z</time>
      </trkpt>
      <trkpt lat="43.250430" lon="-6.737380">
        <ele>912.235</ele>
        <time>1999-07-24T12:16:10Z</time>
      </trkpt>
      <trkpt lat="43.250368" lon="-6.737675">
        <ele>912.224</ele>
        <time>1999-07-24T12:16:16Z</time>
      </trkpt>
      <trkpt lat="43.250277" lon="-6.737986">
        <ele>912.604</ele>
        <time>1999-07-24T12:16:23Z</time>
      </trkpt>
      <trkpt lat="43.250183" lon="-6.738249">
        <ele>913.414</ele>
        <time>1999-07-24T12:16:30Z</time>
      </trkpt>
      <trkpt lat="43.250134" lon="-6.738367">
        <ele>913.808</ele>
        <time>1999-07-24T12:16:33Z</time>
      </trkpt>
      <trkpt lat="43.250044" lon="-6.738548">
        <ele>914.455</ele>
        <time>1999-07-24T12:16:38Z</time>
      </trkpt>
      <trkpt lat="43.249991" lon="-6.738660">
        <ele>914.891</ele>
        <time>1999-07-24T12:16:41Z</time>
      </trkpt>
      <trkpt lat="43.249878" lon="-6.738878">
        <ele>915.682</ele>
        <time>1999-07-24T12:16:47Z</time>
      </trkpt>
      <trkpt lat="43.249794" lon="-6.739004">
        <ele>916.053</ele>
        <time>1999-07-24T12:16:51Z</time>
      </trkpt>
      <trkpt lat="43.249682" lon="-6.739176">
        <ele>916.657</ele>
        <time>1999-07-24T12:16:56Z</time>
      </trkpt>
      <trkpt lat="43.249605" lon="-6.739295">
        <ele>917.016</ele>
        <time>1999-07-24T12:16:59Z</time>
      </trkpt>
      <trkpt lat="43.249476" lon="-6.739518">
        <ele>917.622</ele>
        <time>1999-07-24T12:17:04Z</time>
      </trkpt>
      <trkpt lat="43.249424" lon="-6.739610">
        <ele>917.884</ele>
        <time>1999-07-24T12:17:06Z</time>
      </trkpt>
      <trkpt lat="43.249361" lon="-6.739698">
        <ele>918.083</ele>
        <time>1999-07-24T12:17:08Z</time>
      </trkpt>
      <trkpt lat="43.249296" lon="-6.739785">
        <ele>918.225</ele>
        <time>1999-07-24T12:17:10Z</time>
      </trkpt>
      <trkpt lat="43.249049" lon="-6.740124">
        <ele>918.417</ele>
        <time>1999-07-24T12:17:17Z</time>
      </trkpt>
      <trkpt lat="43.248851" lon="-6.740392">
        <ele>918.408</ele>
        <time>1999-07-24T12:17:23Z</time>
      </trkpt>
      <trkpt lat="43.248692" lon="-6.740611">
        <ele>918.611</ele>
        <time>1999-07-24T12:17:29Z</time>
      </trkpt>
      <trkpt lat="43.248550" lon="-6.740835">
        <ele>918.817</ele>
        <time>1999-07-24T12:17:35Z</time>
      </trkpt>
      <trkpt lat="43.248467" lon="-6.740973">
        <ele>919.018</ele>
        <time>1999-07-24T12:17:39Z</time>
      </trkpt>
      <trkpt lat="43.248434" lon="-6.741041">
        <ele>919.219</ele>
        <time>1999-07-24T12:17:41Z</time>
      </trkpt>
      <trkpt lat="43.248305" lon="-6.741231">
        <ele>919.673</ele>
        <time>1999-07-24T12:17:46Z</time>
      </trkpt>
      <trkpt lat="43.248188" lon="-6.741433">
        <ele>920.052</ele>
        <time>1999-07-24T12:17:51Z</time>
      </trkpt>
      <trkpt lat="43.248174" lon="-6.741475">
        <ele>920.058</ele>
        <time>1999-07-24T12:17:52Z</time>
      </trkpt>
      <trkpt lat="43.248080" lon="-6.741667">
        <ele>920.640</ele>
        <time>1999-07-24T12:17:56Z</time>
      </trkpt>
      <trkpt lat="43.248030" lon="-6.741757">
        <ele>921.047</ele>
        <time>1999-07-24T12:17:58Z</time>
      </trkpt>
      <trkpt lat="43.247979" lon="-6.741930">
        <ele>921.629</ele>
        <time>1999-07-24T12:18:02Z</time>
      </trkpt>
      <trkpt lat="43.247943" lon="-6.742067">
        <ele>922.021</ele>
        <time>1999-07-24T12:18:05Z</time>
      </trkpt>
      <trkpt lat="43.247894" lon="-6.742187">
        <ele>922.408</ele>
        <time>1999-07-24T12:18:08Z</time>
      </trkpt>
      <trkpt lat="43.247802" lon="-6.742415">
        <ele>923.087</ele>
        <time>1999-07-24T12:18:13Z</time>
      </trkpt>
      <trkpt lat="43.247790" lon="-6.742450">
        <ele>923.073</ele>
        <time>1999-07-24T12:18:14Z</time>
      </trkpt>
      <trkpt lat="43.247654" lon="-6.742720">
        <ele>923.464</ele>
        <time>1999-07-24T12:18:19Z</time>
      </trkpt>
      <trkpt lat="43.247567" lon="-6.742926">
        <ele>923.485</ele>
        <time>1999-07-24T12:18:23Z</time>
      </trkpt>
      <trkpt lat="43.247530" lon="-6.742983">
        <ele>923.459</ele>
        <time>1999-07-24T12:18:24Z</time>
      </trkpt>
      <trkpt lat="43.247490" lon="-6.743032">
        <ele>923.478</ele>
        <time>1999-07-24T12:18:25Z</time>
      </trkpt>
      <trkpt lat="43.247345" lon="-6.743214">
        <ele>923.484</ele>
        <time>1999-07-24T12:18:28Z</time>
      </trkpt>
      <trkpt lat="43.247295" lon="-6.743288">
        <ele>923.286</ele>
        <time>1999-07-24T12:18:29Z</time>
      </trkpt>
      <trkpt lat="43.247210" lon="-6.743416">
        <ele>923.091</ele>
        <time>1999-07-24T12:18:31Z</time>
      </trkpt>
      <trkpt lat="43.247138" lon="-6.743473">
        <ele>922.481</ele>
        <time>1999-07-24T12:18:33Z</time>
      </trkpt>
      <trkpt lat="43.247061" lon="-6.743487">
        <ele>921.819</ele>
        <time>1999-07-24T12:18:36Z</time>
      </trkpt>
      <trkpt lat="43.247022" lon="-6.743528">
        <ele>921.208</ele>
        <time>1999-07-24T12:18:38Z</time>
      </trkpt>
      <trkpt lat="43.246970" lon="-6.743565">
        <ele>920.472</ele>
        <time>1999-07-24T12:18:40Z</time>
      </trkpt>
      <trkpt lat="43.246904" lon="-6.743581">
        <ele>919.628</ele>
        <time>1999-07-24T12:18:42Z</time>
      </trkpt>
      <trkpt lat="43.246820" lon="-6.743580">
        <ele>919.469</ele>
        <time>1999-07-24T12:18:44Z</time>
      </trkpt>
      <trkpt lat="43.246746" lon="-6.743542">
        <ele>919.260</ele>
        <time>1999-07-24T12:18:46Z</time>
      </trkpt>
      <trkpt lat="43.246671" lon="-6.743496">
        <ele>919.044</ele>
        <time>1999-07-24T12:18:48Z</time>
      </trkpt>
      <trkpt lat="43.246605" lon="-6.743462">
        <ele>918.673</ele>
        <time>1999-07-24T12:18:50Z</time>
      </trkpt>
      <trkpt lat="43.246587" lon="-6.743454">
        <ele>918.459</ele>
        <time>1999-07-24T12:18:51Z</time>
      </trkpt>
      <trkpt lat="43.246563" lon="-6.743456">
        <ele>918.241</ele>
        <time>1999-07-24T12:18:52Z</time>
      </trkpt>
      <trkpt lat="43.246535" lon="-6.743455">
        <ele>917.879</ele>
        <time>1999-07-24T12:18:55Z</time>
      </trkpt>
      <trkpt lat="43.246836" lon="-6.743943">
        <ele>919.005</ele>
        <time>1999-07-24T12:21:04Z</time>
      </trkpt>
      <trkpt lat="43.246832" lon="-6.743973">
        <ele>919.025</ele>
        <time>1999-07-24T12:21:05Z</time>
      </trkpt>
      <trkpt lat="43.246852" lon="-6.744076">
        <ele>919.208</ele>
        <time>1999-07-24T12:21:08Z</time>
      </trkpt>
      <trkpt lat="43.246858" lon="-6.744115">
        <ele>919.210</ele>
        <time>1999-07-24T12:21:09Z</time>
      </trkpt>
      <trkpt lat="43.246842" lon="-6.744402">
        <ele>919.646</ele>
        <time>1999-07-24T12:21:16Z</time>
      </trkpt>
      <trkpt lat="43.246728" lon="-6.744659">
        <ele>919.647</ele>
        <time>1999-07-24T12:21:22Z</time>
      </trkpt>
      <trkpt lat="43.246661" lon="-6.744760">
        <ele>919.818</ele>
        <time>1999-07-24T12:21:24Z</time>
      </trkpt>
      <trkpt lat="43.246538" lon="-6.744916">
        <ele>920.252</ele>
        <time>1999-07-24T12:21:28Z</time>
      </trkpt>
      <trkpt lat="43.246419" lon="-6.745051">
        <ele>920.411</ele>
        <time>1999-07-24T12:21:33Z</time>
      </trkpt>
      <trkpt lat="43.246245" lon="-6.745209">
        <ele>920.497</ele>
        <time>1999-07-24T12:21:39Z</time>
      </trkpt>
      <trkpt lat="43.245997" lon="-6.745474">
        <ele>920.659</ele>
        <time>1999-07-24T12:21:46Z</time>
      </trkpt>
      <trkpt lat="43.245816" lon="-6.745826">
        <ele>921.065</ele>
        <time>1999-07-24T12:21:53Z</time>
      </trkpt>
      <trkpt lat="43.245638" lon="-6.746229">
        <ele>921.268</ele>
        <time>1999-07-24T12:22:00Z</time>
      </trkpt>
      <trkpt lat="43.245486" lon="-6.746592">
        <ele>921.814</ele>
        <time>1999-07-24T12:22:06Z</time>
      </trkpt>
      <trkpt lat="43.245460" lon="-6.746648">
        <ele>921.808</ele>
        <time>1999-07-24T12:22:07Z</time>
      </trkpt>
      <trkpt lat="43.245323" lon="-6.746937">
        <ele>922.089</ele>
        <time>1999-07-24T12:22:12Z</time>
      </trkpt>
      <trkpt lat="43.245161" lon="-6.747289">
        <ele>922.255</ele>
        <time>1999-07-24T12:22:18Z</time>
      </trkpt>
      <trkpt lat="43.244967" lon="-6.747653">
        <ele>922.286</ele>
        <time>1999-07-24T12:22:24Z</time>
      </trkpt>
      <trkpt lat="43.244801" lon="-6.747979">
        <ele>922.437</ele>
        <time>1999-07-24T12:22:29Z</time>
      </trkpt>
      <trkpt lat="43.244636" lon="-6.748338">
        <ele>922.851</ele>
        <time>1999-07-24T12:22:34Z</time>
      </trkpt>
      <trkpt lat="43.244544" lon="-6.748552">
        <ele>923.250</ele>
        <time>1999-07-24T12:22:37Z</time>
      </trkpt>
      <trkpt lat="43.244388" lon="-6.749000">
        <ele>923.826</ele>
        <time>1999-07-24T12:22:43Z</time>
      </trkpt>
      <trkpt lat="43.244297" lon="-6.749379">
        <ele>923.848</ele>
        <time>1999-07-24T12:22:48Z</time>
      </trkpt>
      <trkpt lat="43.244266" lon="-6.749534">
        <ele>924.056</ele>
        <time>1999-07-24T12:22:50Z</time>
      </trkpt>
      <trkpt lat="43.244145" lon="-6.750172">
        <ele>924.459</ele>
        <time>1999-07-24T12:22:58Z</time>
      </trkpt>
      <trkpt lat="43.244021" lon="-6.750832">
        <ele>924.614</ele>
        <time>1999-07-24T12:23:06Z</time>
      </trkpt>
      <trkpt lat="43.244006" lon="-6.751299">
        <ele>924.808</ele>
        <time>1999-07-24T12:23:11Z</time>
      </trkpt>
      <trkpt lat="43.244048" lon="-6.752052">
        <ele>924.858</ele>
        <time>1999-07-24T12:23:19Z</time>
      </trkpt>
      <trkpt lat="43.244053" lon="-6.752151">
        <ele>924.844</ele>
        <time>1999-07-24T12:23:20Z</time>
      </trkpt>
      <trkpt lat="43.244050" lon="-6.752689">
        <ele>924.445</ele>
        <time>1999-07-24T12:23:26Z</time>
      </trkpt>
      <trkpt lat="43.244006" lon="-6.753024">
        <ele>924.236</ele>
        <time>1999-07-24T12:23:30Z</time>
      </trkpt>
      <trkpt lat="43.243922" lon="-6.753175">
        <ele>924.030</ele>
        <time>1999-07-24T12:23:32Z</time>
      </trkpt>
      <trkpt lat="43.243815" lon="-6.753405">
        <ele>923.889</ele>
        <time>1999-07-24T12:23:35Z</time>
      </trkpt>
      <trkpt lat="43.243784" lon="-6.753474">
        <ele>923.695</ele>
        <time>1999-07-24T12:23:36Z</time>
      </trkpt>
      <trkpt lat="43.243761" lon="-6.753540">
        <ele>923.637</ele>
        <time>1999-07-24T12:23:37Z</time>
      </trkpt>
      <trkpt lat="43.243714" lon="-6.753714">
        <ele>923.411</ele>
        <time>1999-07-24T12:23:40Z</time>
      </trkpt>
      <trkpt lat="43.243696" lon="-6.753779">
        <ele>923.421</ele>
        <time>1999-07-24T12:23:41Z</time>
      </trkpt>
      <trkpt lat="43.243669" lon="-6.753851">
        <ele>923.003</ele>
        <time>1999-07-24T12:23:42Z</time>
      </trkpt>
      <trkpt lat="43.243645" lon="-6.753925">
        <ele>922.608</ele>
        <time>1999-07-24T12:23:43Z</time>
      </trkpt>
      <trkpt lat="43.243560" lon="-6.754127">
        <ele>922.024</ele>
        <time>1999-07-24T12:23:46Z</time>
      </trkpt>
      <trkpt lat="43.243403" lon="-6.754500">
        <ele>921.830</ele>
        <time>1999-07-24T12:23:51Z</time>
      </trkpt>
      <trkpt lat="43.243376" lon="-6.754565">
        <ele>921.861</ele>
        <time>1999-07-24T12:23:52Z</time>
      </trkpt>
      <trkpt lat="43.243280" lon="-6.754877">
        <ele>922.052</ele>
        <time>1999-07-24T12:23:57Z</time>
      </trkpt>
      <trkpt lat="43.243177" lon="-6.755128">
        <ele>922.256</ele>
        <time>1999-07-24T12:24:01Z</time>
      </trkpt>
      <trkpt lat="43.243156" lon="-6.755235">
        <ele>922.495</ele>
        <time>1999-07-24T12:24:03Z</time>
      </trkpt>
      <trkpt lat="43.243041" lon="-6.755425">
        <ele>922.861</ele>
        <time>1999-07-24T12:24:07Z</time>
      </trkpt>
      <trkpt lat="43.243004" lon="-6.755477">
        <ele>923.033</ele>
        <time>1999-07-24T12:24:08Z</time>
      </trkpt>
      <trkpt lat="43.242931" lon="-6.755617">
        <ele>923.233</ele>
        <time>1999-07-24T12:24:11Z</time>
      </trkpt>
      <trkpt lat="43.242881" lon="-6.755799">
        <ele>923.623</ele>
        <time>1999-07-24T12:24:17Z</time>
      </trkpt>
      <trkpt lat="43.242835" lon="-6.755930">
        <ele>924.815</ele>
        <time>1999-07-24T12:24:22Z</time>
      </trkpt>
      <trkpt lat="43.242818" lon="-6.755977">
        <ele>925.208</ele>
        <time>1999-07-24T12:24:24Z</time>
      </trkpt>
      <trkpt lat="43.242803" lon="-6.756023">
        <ele>925.896</ele>
        <time>1999-07-24T12:24:26Z</time>
      </trkpt>
      <trkpt lat="43.242760" lon="-6.756109">
        <ele>926.892</ele>
        <time>1999-07-24T12:24:30Z</time>
      </trkpt>
      <trkpt lat="43.242752" lon="-6.756131">
        <ele>927.013</ele>
        <time>1999-07-24T12:24:31Z</time>
      </trkpt>
      <trkpt lat="43.242692" lon="-6.756279">
        <ele>928.244</ele>
        <time>1999-07-24T12:24:36Z</time>
      </trkpt>
      <trkpt lat="43.242680" lon="-6.756308">
        <ele>928.488</ele>
        <time>1999-07-24T12:24:37Z</time>
      </trkpt>
      <trkpt lat="43.242647" lon="-6.756392">
        <ele>929.257</ele>
        <time>1999-07-24T12:24:40Z</time>
      </trkpt>
      <trkpt lat="43.242603" lon="-6.756504">
        <ele>930.483</ele>
        <time>1999-07-24T12:24:44Z</time>
      </trkpt>
      <trkpt lat="43.242593" lon="-6.756535">
        <ele>930.665</ele>
        <time>1999-07-24T12:24:45Z</time>
      </trkpt>
      <trkpt lat="43.242540" lon="-6.756706">
        <ele>931.684</ele>
        <time>1999-07-24T12:24:50Z</time>
      </trkpt>
      <trkpt lat="43.242502" lon="-6.756822">
        <ele>931.807</ele>
        <time>1999-07-24T12:24:53Z</time>
      </trkpt>
      <trkpt lat="43.242429" lon="-6.757098">
        <ele>932.417</ele>
        <time>1999-07-24T12:24:59Z</time>
      </trkpt>
      <trkpt lat="43.242414" lon="-6.757148">
        <ele>932.408</ele>
        <time>1999-07-24T12:25:00Z</time>
      </trkpt>
      <trkpt lat="43.242374" lon="-6.757354">
        <ele>932.631</ele>
        <time>1999-07-24T12:25:04Z</time>
      </trkpt>
      <trkpt lat="43.242364" lon="-6.757412">
        <ele>932.637</ele>
        <time>1999-07-24T12:25:05Z</time>
      </trkpt>
      <trkpt lat="43.242353" lon="-6.757471">
        <ele>932.618</ele>
        <time>1999-07-24T12:25:06Z</time>
      </trkpt>
      <trkpt lat="43.242342" lon="-6.757663">
        <ele>932.689</ele>
        <time>1999-07-24T12:25:09Z</time>
      </trkpt>
      <trkpt lat="43.242332" lon="-6.757727">
        <ele>932.463</ele>
        <time>1999-07-24T12:25:10Z</time>
      </trkpt>
      <trkpt lat="43.242313" lon="-6.757791">
        <ele>932.452</ele>
        <time>1999-07-24T12:25:11Z</time>
      </trkpt>
      <trkpt lat="43.242150" lon="-6.758160">
        <ele>931.628</ele>
        <time>1999-07-24T12:25:17Z</time>
      </trkpt>
      <trkpt lat="43.242124" lon="-6.758218">
        <ele>931.410</ele>
        <time>1999-07-24T12:25:18Z</time>
      </trkpt>
      <trkpt lat="43.242069" lon="-6.758336">
        <ele>931.445</ele>
        <time>1999-07-24T12:25:20Z</time>
      </trkpt>
      <trkpt lat="43.241957" lon="-6.758586">
        <ele>931.047</ele>
        <time>1999-07-24T12:25:24Z</time>
      </trkpt>
      <trkpt lat="43.241774" lon="-6.758993">
        <ele>930.611</ele>
        <time>1999-07-24T12:25:30Z</time>
      </trkpt>
      <trkpt lat="43.241661" lon="-6.759203">
        <ele>930.408</ele>
        <time>1999-07-24T12:25:33Z</time>
      </trkpt>
      <trkpt lat="43.241583" lon="-6.759331">
        <ele>930.267</ele>
        <time>1999-07-24T12:25:35Z</time>
      </trkpt>
      <trkpt lat="43.241324" lon="-6.759675">
        <ele>929.423</ele>
        <time>1999-07-24T12:25:41Z</time>
      </trkpt>
      <trkpt lat="43.241278" lon="-6.759728">
        <ele>929.274</ele>
        <time>1999-07-24T12:25:42Z</time>
      </trkpt>
      <trkpt lat="43.241074" lon="-6.760017">
        <ele>928.245</ele>
        <time>1999-07-24T12:25:47Z</time>
      </trkpt>
      <trkpt lat="43.241032" lon="-6.760083">
        <ele>928.299</ele>
        <time>1999-07-24T12:25:48Z</time>
      </trkpt>
      <trkpt lat="43.240659" lon="-6.760652">
        <ele>927.428</ele>
        <time>1999-07-24T12:25:56Z</time>
      </trkpt>
      <trkpt lat="43.240614" lon="-6.760728">
        <ele>927.224</ele>
        <time>1999-07-24T12:25:57Z</time>
      </trkpt>
      <trkpt lat="43.240373" lon="-6.761108">
        <ele>926.616</ele>
        <time>1999-07-24T12:26:02Z</time>
      </trkpt>
      <trkpt lat="43.240156" lon="-6.761378">
        <ele>926.233</ele>
        <time>1999-07-24T12:26:06Z</time>
      </trkpt>
      <trkpt lat="43.240050" lon="-6.761514">
        <ele>926.023</ele>
        <time>1999-07-24T12:26:08Z</time>
      </trkpt>
      <trkpt lat="43.239788" lon="-6.761864">
        <ele>925.615</ele>
        <time>1999-07-24T12:26:13Z</time>
      </trkpt>
      <trkpt lat="43.239745" lon="-6.761936">
        <ele>925.408</ele>
        <time>1999-07-24T12:26:14Z</time>
      </trkpt>
      <trkpt lat="43.239510" lon="-6.762364">
        <ele>925.296</ele>
        <time>1999-07-24T12:26:20Z</time>
      </trkpt>
      <trkpt lat="43.239282" lon="-6.762805">
        <ele>925.472</ele>
        <time>1999-07-24T12:26:27Z</time>
      </trkpt>
      <trkpt lat="43.239068" lon="-6.763151">
        <ele>925.613</ele>
        <time>1999-07-24T12:26:33Z</time>
      </trkpt>
      <trkpt lat="43.238737" lon="-6.763694">
        <ele>925.644</ele>
        <time>1999-07-24T12:26:41Z</time>
      </trkpt>
      <trkpt lat="43.238564" lon="-6.763994">
        <ele>925.428</ele>
        <time>1999-07-24T12:26:45Z</time>
      </trkpt>
      <trkpt lat="43.238459" lon="-6.764136">
        <ele>925.487</ele>
        <time>1999-07-24T12:26:47Z</time>
      </trkpt>
      <trkpt lat="43.238396" lon="-6.764196">
        <ele>925.233</ele>
        <time>1999-07-24T12:26:48Z</time>
      </trkpt>
      <trkpt lat="43.238123" lon="-6.764429">
        <ele>923.825</ele>
        <time>1999-07-24T12:26:52Z</time>
      </trkpt>
      <trkpt lat="43.237921" lon="-6.764600">
        <ele>923.061</ele>
        <time>1999-07-24T12:26:55Z</time>
      </trkpt>
      <trkpt lat="43.237851" lon="-6.764657">
        <ele>922.621</ele>
        <time>1999-07-24T12:26:56Z</time>
      </trkpt>
      <trkpt lat="43.237708" lon="-6.764768">
        <ele>921.013</ele>
        <time>1999-07-24T12:26:58Z</time>
      </trkpt>
      <trkpt lat="43.237490" lon="-6.764918">
        <ele>919.208</ele>
        <time>1999-07-24T12:27:01Z</time>
      </trkpt>
      <trkpt lat="43.237239" lon="-6.765038">
        <ele>917.669</ele>
        <time>1999-07-24T12:27:04Z</time>
      </trkpt>
      <trkpt lat="43.237064" lon="-6.765077">
        <ele>916.215</ele>
        <time>1999-07-24T12:27:06Z</time>
      </trkpt>
      <trkpt lat="43.236791" lon="-6.765146">
        <ele>915.246</ele>
        <time>1999-07-24T12:27:09Z</time>
      </trkpt>
      <trkpt lat="43.236533" lon="-6.765210">
        <ele>914.047</ele>
        <time>1999-07-24T12:27:12Z</time>
      </trkpt>
      <trkpt lat="43.236381" lon="-6.765279">
        <ele>912.841</ele>
        <time>1999-07-24T12:27:14Z</time>
      </trkpt>
      <trkpt lat="43.236236" lon="-6.765353">
        <ele>911.440</ele>
        <time>1999-07-24T12:27:16Z</time>
      </trkpt>
      <trkpt lat="43.236089" lon="-6.765428">
        <ele>910.026</ele>
        <time>1999-07-24T12:27:18Z</time>
      </trkpt>
      <trkpt lat="43.235944" lon="-6.765489">
        <ele>909.298</ele>
        <time>1999-07-24T12:27:20Z</time>
      </trkpt>
      <trkpt lat="43.235869" lon="-6.765516">
        <ele>909.013</ele>
        <time>1999-07-24T12:27:21Z</time>
      </trkpt>
      <trkpt lat="43.235661" lon="-6.765587">
        <ele>907.643</ele>
        <time>1999-07-24T12:27:24Z</time>
      </trkpt>
      <trkpt lat="43.235593" lon="-6.765617">
        <ele>907.407</ele>
        <time>1999-07-24T12:27:25Z</time>
      </trkpt>
      <trkpt lat="43.235322" lon="-6.765754">
        <ele>906.208</ele>
        <time>1999-07-24T12:27:29Z</time>
      </trkpt>
      <trkpt lat="43.235259" lon="-6.765794">
        <ele>906.044</ele>
        <time>1999-07-24T12:27:30Z</time>
      </trkpt>
      <trkpt lat="43.235028" lon="-6.766016">
        <ele>905.620</ele>
        <time>1999-07-24T12:27:34Z</time>
      </trkpt>
      <trkpt lat="43.234984" lon="-6.766076">
        <ele>905.441</ele>
        <time>1999-07-24T12:27:35Z</time>
      </trkpt>
      <trkpt lat="43.234951" lon="-6.766131">
        <ele>905.092</ele>
        <time>1999-07-24T12:27:36Z</time>
      </trkpt>
      <trkpt lat="43.234914" lon="-6.766208">
        <ele>904.476</ele>
        <time>1999-07-24T12:27:38Z</time>
      </trkpt>
      <trkpt lat="43.234887" lon="-6.766275">
        <ele>903.865</ele>
        <time>1999-07-24T12:27:40Z</time>
      </trkpt>
      <trkpt lat="43.234852" lon="-6.766354">
        <ele>903.031</ele>
        <time>1999-07-24T12:27:42Z</time>
      </trkpt>
      <trkpt lat="43.234839" lon="-6.766388">
        <ele>902.283</ele>
        <time>1999-07-24T12:27:43Z</time>
      </trkpt>
      <trkpt lat="43.234826" lon="-6.766413">
        <ele>901.645</ele>
        <time>1999-07-24T12:27:44Z</time>
      </trkpt>
      <trkpt lat="43.234814" lon="-6.766423">
        <ele>901.047</ele>
        <time>1999-07-24T12:27:45Z</time>
      </trkpt>
      <trkpt lat="43.234797" lon="-6.766429">
        <ele>900.411</ele>
        <time>1999-07-24T12:27:46Z</time>
      </trkpt>
      <trkpt lat="43.234770" lon="-6.766431">
        <ele>899.408</ele>
        <time>1999-07-24T12:27:47Z</time>
      </trkpt>
      <trkpt lat="43.234719" lon="-6.766431">
        <ele>898.257</ele>
        <time>1999-07-24T12:27:49Z</time>
      </trkpt>
      <trkpt lat="43.234630" lon="-6.766428">
        <ele>897.653</ele>
        <time>1999-07-24T12:27:52Z</time>
      </trkpt>
      <trkpt lat="43.234523" lon="-6.766442">
        <ele>897.244</ele>
        <time>1999-07-24T12:27:55Z</time>
      </trkpt>
      <trkpt lat="43.234408" lon="-6.766499">
        <ele>897.275</ele>
        <time>1999-07-24T12:27:58Z</time>
      </trkpt>
      <trkpt lat="43.234243" lon="-6.766643">
        <ele>897.239</ele>
        <time>1999-07-24T12:28:01Z</time>
      </trkpt>
      <trkpt lat="43.234123" lon="-6.766736">
        <ele>897.018</ele>
        <time>1999-07-24T12:28:03Z</time>
      </trkpt>
      <trkpt lat="43.233972" lon="-6.766899">
        <ele>897.094</ele>
        <time>1999-07-24T12:28:06Z</time>
      </trkpt>
      <trkpt lat="43.233790" lon="-6.767051">
        <ele>895.876</ele>
        <time>1999-07-24T12:28:10Z</time>
      </trkpt>
      <trkpt lat="43.233758" lon="-6.767078">
        <ele>894.665</ele>
        <time>1999-07-24T12:28:11Z</time>
      </trkpt>
      <trkpt lat="43.233698" lon="-6.767108">
        <ele>892.668</ele>
        <time>1999-07-24T12:28:13Z</time>
      </trkpt>
      <trkpt lat="43.233664" lon="-6.767115">
        <ele>891.814</ele>
        <time>1999-07-24T12:28:14Z</time>
      </trkpt>
      <trkpt lat="43.233627" lon="-6.767120">
        <ele>891.208</ele>
        <time>1999-07-24T12:28:15Z</time>
      </trkpt>
      <trkpt lat="43.233550" lon="-6.767144">
        <ele>890.289</ele>
        <time>1999-07-24T12:28:17Z</time>
      </trkpt>
      <trkpt lat="43.233483" lon="-6.767183">
        <ele>889.245</ele>
        <time>1999-07-24T12:28:19Z</time>
      </trkpt>
      <trkpt lat="43.233449" lon="-6.767184">
        <ele>888.266</ele>
        <time>1999-07-24T12:28:22Z</time>
      </trkpt>
      <trkpt lat="43.233450" lon="-6.767178">
        <ele>888.017</ele>
        <time>1999-07-24T12:28:23Z</time>
      </trkpt>
      <trkpt lat="43.233452" lon="-6.767176">
        <ele>888.081</ele>
        <time>1999-07-24T12:28:24Z</time>
      </trkpt>
      <trkpt lat="43.233358" lon="-6.767195">
        <ele>886.820</ele>
        <time>1999-07-24T12:28:35Z</time>
      </trkpt>
      <trkpt lat="43.233319" lon="-6.767211">
        <ele>886.826</ele>
        <time>1999-07-24T12:28:36Z</time>
      </trkpt>
      <trkpt lat="43.233107" lon="-6.767315">
        <ele>886.858</ele>
        <time>1999-07-24T12:28:42Z</time>
      </trkpt>
      <trkpt lat="43.233084" lon="-6.767528">
        <ele>886.874</ele>
        <time>1999-07-24T12:28:45Z</time>
      </trkpt>
      <trkpt lat="43.233088" lon="-6.767606">
        <ele>886.856</ele>
        <time>1999-07-24T12:28:46Z</time>
      </trkpt>
      <trkpt lat="43.233084" lon="-6.767839">
        <ele>886.621</ele>
        <time>1999-07-24T12:28:50Z</time>
      </trkpt>
      <trkpt lat="43.233079" lon="-6.767857">
        <ele>885.808</ele>
        <time>1999-07-24T12:28:53Z</time>
      </trkpt>
      <trkpt lat="43.233099" lon="-6.767750">
        <ele>884.210</ele>
        <time>1999-07-24T12:32:05Z</time>
      </trkpt>
      <trkpt lat="43.233094" lon="-6.767721">
        <ele>884.296</ele>
        <time>1999-07-24T12:32:06Z</time>
      </trkpt>
      <trkpt lat="43.233089" lon="-6.767666">
        <ele>884.247</ele>
        <time>1999-07-24T12:32:08Z</time>
      </trkpt>
      <trkpt lat="43.233074" lon="-6.767576">
        <ele>884.298</ele>
        <time>1999-07-24T12:32:11Z</time>
      </trkpt>
      <trkpt lat="43.233071" lon="-6.767543">
        <ele>884.442</ele>
        <time>1999-07-24T12:32:12Z</time>
      </trkpt>
      <trkpt lat="43.233063" lon="-6.767424">
        <ele>884.441</ele>
        <time>1999-07-24T12:32:16Z</time>
      </trkpt>
      <trkpt lat="43.233081" lon="-6.767415">
        <ele>884.687</ele>
        <time>1999-07-24T12:32:18Z</time>
      </trkpt>
      <trkpt lat="43.233094" lon="-6.767504">
        <ele>884.839</ele>
        <time>1999-07-24T12:32:21Z</time>
      </trkpt>
      <trkpt lat="43.233102" lon="-6.767782">
        <ele>885.068</ele>
        <time>1999-07-24T12:32:26Z</time>
      </trkpt>
      <trkpt lat="43.233104" lon="-6.768154">
        <ele>884.842</ele>
        <time>1999-07-24T12:32:32Z</time>
      </trkpt>
      <trkpt lat="43.233115" lon="-6.768290">
        <ele>884.826</ele>
        <time>1999-07-24T12:32:34Z</time>
      </trkpt>
      <trkpt lat="43.233149" lon="-6.768418">
        <ele>884.608</ele>
        <time>1999-07-24T12:32:36Z</time>
      </trkpt>
      <trkpt lat="43.233173" lon="-6.768473">
        <ele>884.639</ele>
        <time>1999-07-24T12:32:37Z</time>
      </trkpt>
      <trkpt lat="43.233317" lon="-6.768669">
        <ele>884.465</ele>
        <time>1999-07-24T12:32:42Z</time>
      </trkpt>
      <trkpt lat="43.233343" lon="-6.768689">
        <ele>884.256</ele>
        <time>1999-07-24T12:32:43Z</time>
      </trkpt>
      <trkpt lat="43.233416" lon="-6.768758">
        <ele>884.057</ele>
        <time>1999-07-24T12:32:47Z</time>
      </trkpt>
      <trkpt lat="43.233453" lon="-6.768764">
        <ele>884.091</ele>
        <time>1999-07-24T12:32:49Z</time>
      </trkpt>
      <trkpt lat="43.233484" lon="-6.768752">
        <ele>884.050</ele>
        <time>1999-07-24T12:32:51Z</time>
      </trkpt>
      <trkpt lat="43.233543" lon="-6.768724">
        <ele>884.276</ele>
        <time>1999-07-24T12:32:54Z</time>
      </trkpt>
      <trkpt lat="43.233609" lon="-6.768695">
        <ele>885.078</ele>
        <time>1999-07-24T12:32:57Z</time>
      </trkpt>
      <trkpt lat="43.233628" lon="-6.768685">
        <ele>885.483</ele>
        <time>1999-07-24T12:32:58Z</time>
      </trkpt>
      <trkpt lat="43.233670" lon="-6.768692">
        <ele>886.025</ele>
        <time>1999-07-24T12:33:00Z</time>
      </trkpt>
      <trkpt lat="43.233717" lon="-6.768719">
        <ele>886.417</ele>
        <time>1999-07-24T12:33:02Z</time>
      </trkpt>
      <trkpt lat="43.233743" lon="-6.768737">
        <ele>886.808</ele>
        <time>1999-07-24T12:33:03Z</time>
      </trkpt>
      <trkpt lat="43.233810" lon="-6.768748">
        <ele>887.441</ele>
        <time>1999-07-24T12:33:06Z</time>
      </trkpt>
      <trkpt lat="43.233833" lon="-6.768747">
        <ele>887.697</ele>
        <time>1999-07-24T12:33:07Z</time>
      </trkpt>
      <trkpt lat="43.233885" lon="-6.768760">
        <ele>888.068</ele>
        <time>1999-07-24T12:33:10Z</time>
      </trkpt>
      <trkpt lat="43.233937" lon="-6.768766">
        <ele>888.649</ele>
        <time>1999-07-24T12:33:13Z</time>
      </trkpt>
      <trkpt lat="43.233992" lon="-6.768789">
        <ele>889.453</ele>
        <time>1999-07-24T12:33:16Z</time>
      </trkpt>
      <trkpt lat="43.234044" lon="-6.768812">
        <ele>889.832</ele>
        <time>1999-07-24T12:33:19Z</time>
      </trkpt>
      <trkpt lat="43.234111" lon="-6.768861">
        <ele>890.278</ele>
        <time>1999-07-24T12:33:23Z</time>
      </trkpt>
      <trkpt lat="43.234174" lon="-6.768906">
        <ele>890.810</ele>
        <time>1999-07-24T12:33:27Z</time>
      </trkpt>
      <trkpt lat="43.234238" lon="-6.768936">
        <ele>891.836</ele>
        <time>1999-07-24T12:33:31Z</time>
      </trkpt>
      <trkpt lat="43.234254" lon="-6.768952">
        <ele>892.217</ele>
        <time>1999-07-24T12:33:32Z</time>
      </trkpt>
      <trkpt lat="43.234290" lon="-6.769003">
        <ele>893.418</ele>
        <time>1999-07-24T12:33:36Z</time>
      </trkpt>
      <trkpt lat="43.234307" lon="-6.769026">
        <ele>893.808</ele>
        <time>1999-07-24T12:33:38Z</time>
      </trkpt>
      <trkpt lat="43.234323" lon="-6.769070">
        <ele>894.696</ele>
        <time>1999-07-24T12:33:41Z</time>
      </trkpt>
      <trkpt lat="43.234320" lon="-6.769090">
        <ele>894.812</ele>
        <time>1999-07-24T12:33:42Z</time>
      </trkpt>
      <trkpt lat="43.234318" lon="-6.769135">
        <ele>895.223</ele>
        <time>1999-07-24T12:33:44Z</time>
      </trkpt>
      <trkpt lat="43.234317" lon="-6.769177">
        <ele>895.814</ele>
        <time>1999-07-24T12:33:46Z</time>
      </trkpt>
      <trkpt lat="43.234321" lon="-6.769271">
        <ele>896.678</ele>
        <time>1999-07-24T12:33:51Z</time>
      </trkpt>
      <trkpt lat="43.234317" lon="-6.769291">
        <ele>896.887</ele>
        <time>1999-07-24T12:33:52Z</time>
      </trkpt>
      <trkpt lat="43.234325" lon="-6.769348">
        <ele>898.283</ele>
        <time>1999-07-24T12:33:55Z</time>
      </trkpt>
      <trkpt lat="43.234324" lon="-6.769406">
        <ele>898.615</ele>
        <time>1999-07-24T12:33:58Z</time>
      </trkpt>
      <trkpt lat="43.234302" lon="-6.769483">
        <ele>899.286</ele>
        <time>1999-07-24T12:34:01Z</time>
      </trkpt>
      <trkpt lat="43.234290" lon="-6.769533">
        <ele>899.660</ele>
        <time>1999-07-24T12:34:03Z</time>
      </trkpt>
      <trkpt lat="43.234249" lon="-6.769657">
        <ele>900.226</ele>
        <time>1999-07-24T12:34:07Z</time>
      </trkpt>
      <trkpt lat="43.234245" lon="-6.769687">
        <ele>900.208</ele>
        <time>1999-07-24T12:34:08Z</time>
      </trkpt>
      <trkpt lat="43.234240" lon="-6.769720">
        <ele>900.411</ele>
        <time>1999-07-24T12:34:09Z</time>
      </trkpt>
      <trkpt lat="43.234231" lon="-6.769932">
        <ele>901.217</ele>
        <time>1999-07-24T12:34:16Z</time>
      </trkpt>
      <trkpt lat="43.234227" lon="-6.769965">
        <ele>901.218</ele>
        <time>1999-07-24T12:34:17Z</time>
      </trkpt>
      <trkpt lat="43.234224" lon="-6.769998">
        <ele>901.469</ele>
        <time>1999-07-24T12:34:18Z</time>
      </trkpt>
      <trkpt lat="43.234179" lon="-6.770213">
        <ele>902.653</ele>
        <time>1999-07-24T12:34:25Z</time>
      </trkpt>
      <trkpt lat="43.234122" lon="-6.770446">
        <ele>903.612</ele>
        <time>1999-07-24T12:34:32Z</time>
      </trkpt>
      <trkpt lat="43.234110" lon="-6.770486">
        <ele>903.848</ele>
        <time>1999-07-24T12:34:33Z</time>
      </trkpt>
      <trkpt lat="43.234033" lon="-6.770726">
        <ele>904.620</ele>
        <time>1999-07-24T12:34:40Z</time>
      </trkpt>
      <trkpt lat="43.233995" lon="-6.770823">
        <ele>904.874</ele>
        <time>1999-07-24T12:34:43Z</time>
      </trkpt>
      <trkpt lat="43.233912" lon="-6.770999">
        <ele>905.256</ele>
        <time>1999-07-24T12:34:50Z</time>
      </trkpt>
      <trkpt lat="43.233884" lon="-6.771044">
        <ele>905.821</ele>
        <time>1999-07-24T12:34:52Z</time>
      </trkpt>
      <trkpt lat="43.233837" lon="-6.771151">
        <ele>906.608</ele>
        <time>1999-07-24T12:34:56Z</time>
      </trkpt>
      <trkpt lat="43.233824" lon="-6.771212">
        <ele>906.840</ele>
        <time>1999-07-24T12:34:58Z</time>
      </trkpt>
      <trkpt lat="43.233785" lon="-6.771348">
        <ele>907.666</ele>
        <time>1999-07-24T12:35:03Z</time>
      </trkpt>
      <trkpt lat="43.233770" lon="-6.771382">
        <ele>907.867</ele>
        <time>1999-07-24T12:35:04Z</time>
      </trkpt>
      <trkpt lat="43.233693" lon="-6.771528">
        <ele>908.698</ele>
        <time>1999-07-24T12:35:10Z</time>
      </trkpt>
      <trkpt lat="43.233682" lon="-6.771548">
        <ele>909.022</ele>
        <time>1999-07-24T12:35:11Z</time>
      </trkpt>
      <trkpt lat="43.233654" lon="-6.771655">
        <ele>910.221</ele>
        <time>1999-07-24T12:35:15Z</time>
      </trkpt>
      <trkpt lat="43.233635" lon="-6.771784">
        <ele>911.457</ele>
        <time>1999-07-24T12:35:20Z</time>
      </trkpt>
      <trkpt lat="43.233621" lon="-6.771825">
        <ele>912.069</ele>
        <time>1999-07-24T12:35:22Z</time>
      </trkpt>
      <trkpt lat="43.233608" lon="-6.771861">
        <ele>912.433</ele>
        <time>1999-07-24T12:35:24Z</time>
      </trkpt>
      <trkpt lat="43.233590" lon="-6.771970">
        <ele>913.223</ele>
        <time>1999-07-24T12:35:28Z</time>
      </trkpt>
      <trkpt lat="43.233582" lon="-6.772030">
        <ele>913.415</ele>
        <time>1999-07-24T12:35:30Z</time>
      </trkpt>
      <trkpt lat="43.233574" lon="-6.772169">
        <ele>914.208</ele>
        <time>1999-07-24T12:35:35Z</time>
      </trkpt>
      <trkpt lat="43.233580" lon="-6.772253">
        <ele>914.626</ele>
        <time>1999-07-24T12:35:38Z</time>
      </trkpt>
      <trkpt lat="43.233599" lon="-6.772403">
        <ele>915.212</ele>
        <time>1999-07-24T12:35:43Z</time>
      </trkpt>
      <trkpt lat="43.233641" lon="-6.772543">
        <ele>915.853</ele>
        <time>1999-07-24T12:35:48Z</time>
      </trkpt>
      <trkpt lat="43.233658" lon="-6.772637">
        <ele>916.024</ele>
        <time>1999-07-24T12:35:51Z</time>
      </trkpt>
      <trkpt lat="43.233719" lon="-6.772754">
        <ele>916.638</ele>
        <time>1999-07-24T12:35:57Z</time>
      </trkpt>
      <trkpt lat="43.233729" lon="-6.772769">
        <ele>916.887</ele>
        <time>1999-07-24T12:35:58Z</time>
      </trkpt>
      <trkpt lat="43.233758" lon="-6.772900">
        <ele>917.673</ele>
        <time>1999-07-24T12:36:04Z</time>
      </trkpt>
      <trkpt lat="43.233774" lon="-6.772943">
        <ele>917.885</ele>
        <time>1999-07-24T12:36:06Z</time>
      </trkpt>
      <trkpt lat="43.233780" lon="-6.773088">
        <ele>918.832</ele>
        <time>1999-07-24T12:36:12Z</time>
      </trkpt>
      <trkpt lat="43.233758" lon="-6.773162">
        <ele>919.692</ele>
        <time>1999-07-24T12:36:15Z</time>
      </trkpt>
      <trkpt lat="43.233757" lon="-6.773203">
        <ele>920.411</ele>
        <time>1999-07-24T12:36:17Z</time>
      </trkpt>
      <trkpt lat="43.233768" lon="-6.773241">
        <ele>920.808</ele>
        <time>1999-07-24T12:36:19Z</time>
      </trkpt>
      <trkpt lat="43.233782" lon="-6.773305">
        <ele>921.866</ele>
        <time>1999-07-24T12:36:22Z</time>
      </trkpt>
      <trkpt lat="43.233781" lon="-6.773367">
        <ele>923.062</ele>
        <time>1999-07-24T12:36:25Z</time>
      </trkpt>
      <trkpt lat="43.233784" lon="-6.773388">
        <ele>923.423</ele>
        <time>1999-07-24T12:36:26Z</time>
      </trkpt>
      <trkpt lat="43.233780" lon="-6.773433">
        <ele>924.274</ele>
        <time>1999-07-24T12:36:28Z</time>
      </trkpt>
      <trkpt lat="43.233792" lon="-6.773542">
        <ele>925.268</ele>
        <time>1999-07-24T12:36:33Z</time>
      </trkpt>
      <trkpt lat="43.233797" lon="-6.773563">
        <ele>925.487</ele>
        <time>1999-07-24T12:36:34Z</time>
      </trkpt>
      <trkpt lat="43.233808" lon="-6.773665">
        <ele>926.443</ele>
        <time>1999-07-24T12:36:39Z</time>
      </trkpt>
      <trkpt lat="43.233838" lon="-6.773713">
        <ele>927.485</ele>
        <time>1999-07-24T12:36:42Z</time>
      </trkpt>
      <trkpt lat="43.233855" lon="-6.773750">
        <ele>927.686</ele>
        <time>1999-07-24T12:36:44Z</time>
      </trkpt>
      <trkpt lat="43.233890" lon="-6.773811">
        <ele>928.860</ele>
        <time>1999-07-24T12:36:48Z</time>
      </trkpt>
      <trkpt lat="43.233930" lon="-6.773906">
        <ele>930.226</ele>
        <time>1999-07-24T12:36:54Z</time>
      </trkpt>
      <trkpt lat="43.233931" lon="-6.773926">
        <ele>930.408</ele>
        <time>1999-07-24T12:36:55Z</time>
      </trkpt>
      <trkpt lat="43.233938" lon="-6.774004">
        <ele>931.221</ele>
        <time>1999-07-24T12:36:59Z</time>
      </trkpt>
      <trkpt lat="43.233945" lon="-6.774078">
        <ele>932.287</ele>
        <time>1999-07-24T12:37:03Z</time>
      </trkpt>
      <trkpt lat="43.233919" lon="-6.774177">
        <ele>933.458</ele>
        <time>1999-07-24T12:37:09Z</time>
      </trkpt>
      <trkpt lat="43.233926" lon="-6.774217">
        <ele>934.259</ele>
        <time>1999-07-24T12:37:12Z</time>
      </trkpt>
      <trkpt lat="43.233930" lon="-6.774228">
        <ele>935.233</ele>
        <time>1999-07-24T12:37:13Z</time>
      </trkpt>
      <trkpt lat="43.233930" lon="-6.774257">
        <ele>935.852</ele>
        <time>1999-07-24T12:37:15Z</time>
      </trkpt>
      <trkpt lat="43.233930" lon="-6.774270">
        <ele>936.258</ele>
        <time>1999-07-24T12:37:16Z</time>
      </trkpt>
      <trkpt lat="43.233930" lon="-6.774286">
        <ele>936.430</ele>
        <time>1999-07-24T12:37:17Z</time>
      </trkpt>
      <trkpt lat="43.233939" lon="-6.774352">
        <ele>937.427</ele>
        <time>1999-07-24T12:37:21Z</time>
      </trkpt>
      <trkpt lat="43.233942" lon="-6.774372">
        <ele>937.668</ele>
        <time>1999-07-24T12:37:22Z</time>
      </trkpt>
      <trkpt lat="43.233941" lon="-6.774447">
        <ele>938.414</ele>
        <time>1999-07-24T12:37:26Z</time>
      </trkpt>
      <trkpt lat="43.233932" lon="-6.774521">
        <ele>939.208</ele>
        <time>1999-07-24T12:37:30Z</time>
      </trkpt>
      <trkpt lat="43.233931" lon="-6.774541">
        <ele>939.425</ele>
        <time>1999-07-24T12:37:31Z</time>
      </trkpt>
      <trkpt lat="43.233915" lon="-6.774636">
        <ele>940.641</ele>
        <time>1999-07-24T12:37:36Z</time>
      </trkpt>
      <trkpt lat="43.233902" lon="-6.774687">
        <ele>941.442</ele>
        <time>1999-07-24T12:37:39Z</time>
      </trkpt>
      <trkpt lat="43.233892" lon="-6.774722">
        <ele>942.493</ele>
        <time>1999-07-24T12:37:41Z</time>
      </trkpt>
      <trkpt lat="43.233844" lon="-6.774795">
        <ele>943.437</ele>
        <time>1999-07-24T12:37:46Z</time>
      </trkpt>
      <trkpt lat="43.233824" lon="-6.774827">
        <ele>943.656</ele>
        <time>1999-07-24T12:37:48Z</time>
      </trkpt>
      <trkpt lat="43.233786" lon="-6.774909">
        <ele>944.462</ele>
        <time>1999-07-24T12:37:53Z</time>
      </trkpt>
      <trkpt lat="43.233774" lon="-6.774944">
        <ele>945.084</ele>
        <time>1999-07-24T12:37:55Z</time>
      </trkpt>
      <trkpt lat="43.233754" lon="-6.774990">
        <ele>945.647</ele>
        <time>1999-07-24T12:37:58Z</time>
      </trkpt>
      <trkpt lat="43.233750" lon="-6.775007">
        <ele>945.829</ele>
        <time>1999-07-24T12:37:59Z</time>
      </trkpt>
      <trkpt lat="43.233738" lon="-6.775039">
        <ele>946.021</ele>
        <time>1999-07-24T12:38:01Z</time>
      </trkpt>
      <trkpt lat="43.233716" lon="-6.775068">
        <ele>946.608</ele>
        <time>1999-07-24T12:38:03Z</time>
      </trkpt>
      <trkpt lat="43.233701" lon="-6.775099">
        <ele>947.057</ele>
        <time>1999-07-24T12:38:05Z</time>
      </trkpt>
      <trkpt lat="43.233677" lon="-6.775151">
        <ele>947.473</ele>
        <time>1999-07-24T12:38:08Z</time>
      </trkpt>
      <trkpt lat="43.233668" lon="-6.775172">
        <ele>947.614</ele>
        <time>1999-07-24T12:38:09Z</time>
      </trkpt>
      <trkpt lat="43.233620" lon="-6.775309">
        <ele>948.835</ele>
        <time>1999-07-24T12:38:15Z</time>
      </trkpt>
      <trkpt lat="43.233555" lon="-6.775416">
        <ele>949.829</ele>
        <time>1999-07-24T12:38:21Z</time>
      </trkpt>
      <trkpt lat="43.233501" lon="-6.775482">
        <ele>951.058</ele>
        <time>1999-07-24T12:38:26Z</time>
      </trkpt>
      <trkpt lat="43.233461" lon="-6.775528">
        <ele>951.834</ele>
        <time>1999-07-24T12:38:29Z</time>
      </trkpt>
      <trkpt lat="43.233442" lon="-6.775565">
        <ele>952.056</ele>
        <time>1999-07-24T12:38:31Z</time>
      </trkpt>
      <trkpt lat="43.233401" lon="-6.775646">
        <ele>952.623</ele>
        <time>1999-07-24T12:38:36Z</time>
      </trkpt>
      <trkpt lat="43.233378" lon="-6.775730">
        <ele>953.283</ele>
        <time>1999-07-24T12:38:40Z</time>
      </trkpt>
      <trkpt lat="43.233356" lon="-6.775804">
        <ele>953.611</ele>
        <time>1999-07-24T12:38:44Z</time>
      </trkpt>
      <trkpt lat="43.233331" lon="-6.775885">
        <ele>954.408</ele>
        <time>1999-07-24T12:38:48Z</time>
      </trkpt>
      <trkpt lat="43.233327" lon="-6.775904">
        <ele>954.655</ele>
        <time>1999-07-24T12:38:49Z</time>
      </trkpt>
      <trkpt lat="43.233313" lon="-6.776053">
        <ele>955.681</ele>
        <time>1999-07-24T12:38:57Z</time>
      </trkpt>
      <trkpt lat="43.233297" lon="-6.776136">
        <ele>956.682</ele>
        <time>1999-07-24T12:39:01Z</time>
      </trkpt>
      <trkpt lat="43.233283" lon="-6.776174">
        <ele>957.673</ele>
        <time>1999-07-24T12:39:03Z</time>
      </trkpt>
      <trkpt lat="43.233279" lon="-6.776207">
        <ele>958.247</ele>
        <time>1999-07-24T12:39:05Z</time>
      </trkpt>
      <trkpt lat="43.233281" lon="-6.776265">
        <ele>958.816</ele>
        <time>1999-07-24T12:39:08Z</time>
      </trkpt>
      <trkpt lat="43.233283" lon="-6.776334">
        <ele>959.632</ele>
        <time>1999-07-24T12:39:12Z</time>
      </trkpt>
      <trkpt lat="43.233281" lon="-6.776352">
        <ele>959.844</ele>
        <time>1999-07-24T12:39:13Z</time>
      </trkpt>
      <trkpt lat="43.233282" lon="-6.776413">
        <ele>960.444</ele>
        <time>1999-07-24T12:39:16Z</time>
      </trkpt>
      <trkpt lat="43.233281" lon="-6.776450">
        <ele>960.805</ele>
        <time>1999-07-24T12:39:18Z</time>
      </trkpt>
      <trkpt lat="43.233272" lon="-6.776486">
        <ele>961.215</ele>
        <time>1999-07-24T12:39:20Z</time>
      </trkpt>
      <trkpt lat="43.233256" lon="-6.776570">
        <ele>962.008</ele>
        <time>1999-07-24T12:39:24Z</time>
      </trkpt>
      <trkpt lat="43.233233" lon="-6.776679">
        <ele>962.887</ele>
        <time>1999-07-24T12:39:29Z</time>
      </trkpt>
      <trkpt lat="43.233228" lon="-6.776701">
        <ele>963.013</ele>
        <time>1999-07-24T12:39:30Z</time>
      </trkpt>
      <trkpt lat="43.233232" lon="-6.776839">
        <ele>964.034</ele>
        <time>1999-07-24T12:39:36Z</time>
      </trkpt>
      <trkpt lat="43.233237" lon="-6.776859">
        <ele>964.045</ele>
        <time>1999-07-24T12:39:37Z</time>
      </trkpt>
      <trkpt lat="43.233230" lon="-6.776957">
        <ele>965.229</ele>
        <time>1999-07-24T12:39:42Z</time>
      </trkpt>
      <trkpt lat="43.233227" lon="-6.776998">
        <ele>965.838</ele>
        <time>1999-07-24T12:39:44Z</time>
      </trkpt>
      <trkpt lat="43.233224" lon="-6.777020">
        <ele>966.214</ele>
        <time>1999-07-24T12:39:45Z</time>
      </trkpt>
      <trkpt lat="43.233213" lon="-6.777138">
        <ele>967.086</ele>
        <time>1999-07-24T12:39:51Z</time>
      </trkpt>
      <trkpt lat="43.233216" lon="-6.777181">
        <ele>967.437</ele>
        <time>1999-07-24T12:39:53Z</time>
      </trkpt>
      <trkpt lat="43.233222" lon="-6.777278">
        <ele>968.249</ele>
        <time>1999-07-24T12:39:58Z</time>
      </trkpt>
      <trkpt lat="43.233218" lon="-6.777296">
        <ele>968.413</ele>
        <time>1999-07-24T12:39:59Z</time>
      </trkpt>
      <trkpt lat="43.233217" lon="-6.777397">
        <ele>969.608</ele>
        <time>1999-07-24T12:40:04Z</time>
      </trkpt>
      <trkpt lat="43.233215" lon="-6.777417">
        <ele>969.616</ele>
        <time>1999-07-24T12:40:05Z</time>
      </trkpt>
      <trkpt lat="43.233240" lon="-6.777551">
        <ele>970.682</ele>
        <time>1999-07-24T12:40:11Z</time>
      </trkpt>
      <trkpt lat="43.233241" lon="-6.777573">
        <ele>970.873</ele>
        <time>1999-07-24T12:40:12Z</time>
      </trkpt>
      <trkpt lat="43.233234" lon="-6.777668">
        <ele>971.874</ele>
        <time>1999-07-24T12:40:16Z</time>
      </trkpt>
      <trkpt lat="43.233240" lon="-6.777715">
        <ele>972.068</ele>
        <time>1999-07-24T12:40:18Z</time>
      </trkpt>
      <trkpt lat="43.233253" lon="-6.777778">
        <ele>972.877</ele>
        <time>1999-07-24T12:40:21Z</time>
      </trkpt>
      <trkpt lat="43.233239" lon="-6.777845">
        <ele>973.493</ele>
        <time>1999-07-24T12:40:24Z</time>
      </trkpt>
      <trkpt lat="43.233219" lon="-6.777896">
        <ele>974.095</ele>
        <time>1999-07-24T12:40:26Z</time>
      </trkpt>
      <trkpt lat="43.233130" lon="-6.778076">
        <ele>974.642</ele>
        <time>1999-07-24T12:40:33Z</time>
      </trkpt>
      <trkpt lat="43.233076" lon="-6.778140">
        <ele>975.022</ele>
        <time>1999-07-24T12:40:36Z</time>
      </trkpt>
      <trkpt lat="43.233022" lon="-6.778243">
        <ele>975.214</ele>
        <time>1999-07-24T12:40:40Z</time>
      </trkpt>
      <trkpt lat="43.232956" lon="-6.778443">
        <ele>975.408</ele>
        <time>1999-07-24T12:40:46Z</time>
      </trkpt>
      <trkpt lat="43.232944" lon="-6.778484">
        <ele>975.677</ele>
        <time>1999-07-24T12:40:47Z</time>
      </trkpt>
      <trkpt lat="43.232901" lon="-6.778691">
        <ele>975.843</ele>
        <time>1999-07-24T12:40:52Z</time>
      </trkpt>
      <trkpt lat="43.232871" lon="-6.778824">
        <ele>976.084</ele>
        <time>1999-07-24T12:40:55Z</time>
      </trkpt>
      <trkpt lat="43.232834" lon="-6.778986">
        <ele>976.265</ele>
        <time>1999-07-24T12:40:58Z</time>
      </trkpt>
      <trkpt lat="43.232802" lon="-6.779348">
        <ele>976.699</ele>
        <time>1999-07-24T12:41:04Z</time>
      </trkpt>
      <trkpt lat="43.232740" lon="-6.779737">
        <ele>977.028</ele>
        <time>1999-07-24T12:41:11Z</time>
      </trkpt>
      <trkpt lat="43.232732" lon="-6.779795">
        <ele>977.014</ele>
        <time>1999-07-24T12:41:12Z</time>
      </trkpt>
      <trkpt lat="43.232652" lon="-6.780216">
        <ele>977.646</ele>
        <time>1999-07-24T12:41:19Z</time>
      </trkpt>
      <trkpt lat="43.232545" lon="-6.780625">
        <ele>977.695</ele>
        <time>1999-07-24T12:41:24Z</time>
      </trkpt>
      <trkpt lat="43.232462" lon="-6.780923">
        <ele>977.249</ele>
        <time>1999-07-24T12:41:27Z</time>
      </trkpt>
      <trkpt lat="43.232394" lon="-6.781139">
        <ele>977.023</ele>
        <time>1999-07-24T12:41:29Z</time>
      </trkpt>
      <trkpt lat="43.232305" lon="-6.781350">
        <ele>976.008</ele>
        <time>1999-07-24T12:41:31Z</time>
      </trkpt>
      <trkpt lat="43.232180" lon="-6.781538">
        <ele>975.472</ele>
        <time>1999-07-24T12:41:33Z</time>
      </trkpt>
      <trkpt lat="43.231972" lon="-6.781800">
        <ele>974.858</ele>
        <time>1999-07-24T12:41:36Z</time>
      </trkpt>
      <trkpt lat="43.231742" lon="-6.782047">
        <ele>973.219</ele>
        <time>1999-07-24T12:41:39Z</time>
      </trkpt>
      <trkpt lat="43.231657" lon="-6.782132">
        <ele>972.480</ele>
        <time>1999-07-24T12:41:40Z</time>
      </trkpt>
      <trkpt lat="43.231574" lon="-6.782216">
        <ele>972.034</ele>
        <time>1999-07-24T12:41:41Z</time>
      </trkpt>
      <trkpt lat="43.231407" lon="-6.782375">
        <ele>971.023</ele>
        <time>1999-07-24T12:41:43Z</time>
      </trkpt>
      <trkpt lat="43.231237" lon="-6.782514">
        <ele>969.889</ele>
        <time>1999-07-24T12:41:45Z</time>
      </trkpt>
      <trkpt lat="43.231159" lon="-6.782579">
        <ele>968.441</ele>
        <time>1999-07-24T12:41:46Z</time>
      </trkpt>
      <trkpt lat="43.231000" lon="-6.782698">
        <ele>967.233</ele>
        <time>1999-07-24T12:41:48Z</time>
      </trkpt>
      <trkpt lat="43.230852" lon="-6.782827">
        <ele>966.023</ele>
        <time>1999-07-24T12:41:50Z</time>
      </trkpt>
      <trkpt lat="43.230784" lon="-6.782897">
        <ele>965.415</ele>
        <time>1999-07-24T12:41:51Z</time>
      </trkpt>
      <trkpt lat="43.230727" lon="-6.782981">
        <ele>964.208</ele>
        <time>1999-07-24T12:41:52Z</time>
      </trkpt>
      <trkpt lat="43.230637" lon="-6.783165">
        <ele>963.236</ele>
        <time>1999-07-24T12:41:54Z</time>
      </trkpt>
      <trkpt lat="43.230592" lon="-6.783374">
        <ele>962.262</ele>
        <time>1999-07-24T12:41:56Z</time>
      </trkpt>
      <trkpt lat="43.230579" lon="-6.783479">
        <ele>961.823</ele>
        <time>1999-07-24T12:41:57Z</time>
      </trkpt>
      <trkpt lat="43.230623" lon="-6.783860">
        <ele>961.024</ele>
        <time>1999-07-24T12:42:01Z</time>
      </trkpt>
      <trkpt lat="43.230639" lon="-6.783940">
        <ele>960.648</ele>
        <time>1999-07-24T12:42:02Z</time>
      </trkpt>
      <trkpt lat="43.230698" lon="-6.784370">
        <ele>959.877</ele>
        <time>1999-07-24T12:42:07Z</time>
      </trkpt>
      <trkpt lat="43.230693" lon="-6.784469">
        <ele>959.643</ele>
        <time>1999-07-24T12:42:08Z</time>
      </trkpt>
      <trkpt lat="43.230631" lon="-6.784748">
        <ele>959.255</ele>
        <time>1999-07-24T12:42:11Z</time>
      </trkpt>
      <trkpt lat="43.230496" lon="-6.785008">
        <ele>959.012</ele>
        <time>1999-07-24T12:42:14Z</time>
      </trkpt>
      <trkpt lat="43.230446" lon="-6.785089">
        <ele>958.432</ele>
        <time>1999-07-24T12:42:15Z</time>
      </trkpt>
      <trkpt lat="43.230301" lon="-6.785333">
        <ele>957.405</ele>
        <time>1999-07-24T12:42:18Z</time>
      </trkpt>
      <trkpt lat="43.230130" lon="-6.785687">
        <ele>956.208</ele>
        <time>1999-07-24T12:42:22Z</time>
      </trkpt>
      <trkpt lat="43.230026" lon="-6.785984">
        <ele>955.094</ele>
        <time>1999-07-24T12:42:25Z</time>
      </trkpt>
      <trkpt lat="43.229937" lon="-6.786188">
        <ele>954.080</ele>
        <time>1999-07-24T12:42:27Z</time>
      </trkpt>
      <trkpt lat="43.229881" lon="-6.786277">
        <ele>953.881</ele>
        <time>1999-07-24T12:42:28Z</time>
      </trkpt>
      <trkpt lat="43.229751" lon="-6.786425">
        <ele>953.092</ele>
        <time>1999-07-24T12:42:30Z</time>
      </trkpt>
      <trkpt lat="43.229676" lon="-6.786493">
        <ele>952.646</ele>
        <time>1999-07-24T12:42:31Z</time>
      </trkpt>
      <trkpt lat="43.229446" lon="-6.786678">
        <ele>951.265</ele>
        <time>1999-07-24T12:42:34Z</time>
      </trkpt>
      <trkpt lat="43.229376" lon="-6.786728">
        <ele>950.881</ele>
        <time>1999-07-24T12:42:35Z</time>
      </trkpt>
      <trkpt lat="43.229266" lon="-6.786796">
        <ele>949.613</ele>
        <time>1999-07-24T12:42:37Z</time>
      </trkpt>
      <trkpt lat="43.229191" lon="-6.786833">
        <ele>948.689</ele>
        <time>1999-07-24T12:42:39Z</time>
      </trkpt>
      <trkpt lat="43.229159" lon="-6.786854">
        <ele>948.006</ele>
        <time>1999-07-24T12:42:40Z</time>
      </trkpt>
      <trkpt lat="43.229122" lon="-6.786874">
        <ele>946.226</ele>
        <time>1999-07-24T12:42:41Z</time>
      </trkpt>
      <trkpt lat="43.229086" lon="-6.786892">
        <ele>945.008</ele>
        <time>1999-07-24T12:42:42Z</time>
      </trkpt>
      <trkpt lat="43.229045" lon="-6.786908">
        <ele>943.691</ele>
        <time>1999-07-24T12:42:43Z</time>
      </trkpt>
      <trkpt lat="43.228998" lon="-6.786922">
        <ele>942.417</ele>
        <time>1999-07-24T12:42:44Z</time>
      </trkpt>
      <trkpt lat="43.228948" lon="-6.786932">
        <ele>941.678</ele>
        <time>1999-07-24T12:42:45Z</time>
      </trkpt>
      <trkpt lat="43.228897" lon="-6.786934">
        <ele>940.889</ele>
        <time>1999-07-24T12:42:46Z</time>
      </trkpt>
      <trkpt lat="43.228782" lon="-6.786931">
        <ele>939.213</ele>
        <time>1999-07-24T12:42:48Z</time>
      </trkpt>
      <trkpt lat="43.228713" lon="-6.786933">
        <ele>938.682</ele>
        <time>1999-07-24T12:42:49Z</time>
      </trkpt>
      <trkpt lat="43.228654" lon="-6.786960">
        <ele>938.498</ele>
        <time>1999-07-24T12:42:50Z</time>
      </trkpt>
      <trkpt lat="43.228609" lon="-6.787017">
        <ele>938.040</ele>
        <time>1999-07-24T12:42:51Z</time>
      </trkpt>
      <trkpt lat="43.228553" lon="-6.787175">
        <ele>937.261</ele>
        <time>1999-07-24T12:42:53Z</time>
      </trkpt>
      <trkpt lat="43.228531" lon="-6.787254">
        <ele>937.021</ele>
        <time>1999-07-24T12:42:54Z</time>
      </trkpt>
      <trkpt lat="43.228457" lon="-6.787507">
        <ele>936.013</ele>
        <time>1999-07-24T12:42:58Z</time>
      </trkpt>
      <trkpt lat="43.228402" lon="-6.787613">
        <ele>936.008</ele>
        <time>1999-07-24T12:43:00Z</time>
      </trkpt>
      <trkpt lat="43.228326" lon="-6.787771">
        <ele>936.069</ele>
        <time>1999-07-24T12:43:03Z</time>
      </trkpt>
      <trkpt lat="43.228278" lon="-6.787876">
        <ele>936.085</ele>
        <time>1999-07-24T12:43:05Z</time>
      </trkpt>
      <trkpt lat="43.228220" lon="-6.788032">
        <ele>936.216</ele>
        <time>1999-07-24T12:43:08Z</time>
      </trkpt>
      <trkpt lat="43.228171" lon="-6.788207">
        <ele>936.647</ele>
        <time>1999-07-24T12:43:11Z</time>
      </trkpt>
      <trkpt lat="43.228152" lon="-6.788261">
        <ele>936.631</ele>
        <time>1999-07-24T12:43:12Z</time>
      </trkpt>
      <trkpt lat="43.228071" lon="-6.788485">
        <ele>936.820</ele>
        <time>1999-07-24T12:43:16Z</time>
      </trkpt>
      <trkpt lat="43.227993" lon="-6.788678">
        <ele>937.416</ele>
        <time>1999-07-24T12:43:20Z</time>
      </trkpt>
      <trkpt lat="43.227933" lon="-6.788810">
        <ele>937.878</ele>
        <time>1999-07-24T12:43:23Z</time>
      </trkpt>
      <trkpt lat="43.227912" lon="-6.788850">
        <ele>938.238</ele>
        <time>1999-07-24T12:43:24Z</time>
      </trkpt>
      <trkpt lat="43.227798" lon="-6.789039">
        <ele>939.070</ele>
        <time>1999-07-24T12:43:29Z</time>
      </trkpt>
      <trkpt lat="43.227746" lon="-6.789126">
        <ele>939.417</ele>
        <time>1999-07-24T12:43:31Z</time>
      </trkpt>
      <trkpt lat="43.227552" lon="-6.789412">
        <ele>940.008</ele>
        <time>1999-07-24T12:43:37Z</time>
      </trkpt>
      <trkpt lat="43.227291" lon="-6.789724">
        <ele>940.036</ele>
        <time>1999-07-24T12:43:43Z</time>
      </trkpt>
      <trkpt lat="43.226998" lon="-6.789968">
        <ele>939.272</ele>
        <time>1999-07-24T12:43:48Z</time>
      </trkpt>
      <trkpt lat="43.226791" lon="-6.790111">
        <ele>938.633</ele>
        <time>1999-07-24T12:43:51Z</time>
      </trkpt>
      <trkpt lat="43.226637" lon="-6.790210">
        <ele>938.034</ele>
        <time>1999-07-24T12:43:53Z</time>
      </trkpt>
      <trkpt lat="43.226554" lon="-6.790258">
        <ele>937.818</ele>
        <time>1999-07-24T12:43:54Z</time>
      </trkpt>
      <trkpt lat="43.226379" lon="-6.790349">
        <ele>936.837</ele>
        <time>1999-07-24T12:43:56Z</time>
      </trkpt>
      <trkpt lat="43.226282" lon="-6.790375">
        <ele>936.413</ele>
        <time>1999-07-24T12:43:57Z</time>
      </trkpt>
      <trkpt lat="43.226185" lon="-6.790382">
        <ele>936.045</ele>
        <time>1999-07-24T12:43:58Z</time>
      </trkpt>
      <trkpt lat="43.226087" lon="-6.790366">
        <ele>935.688</ele>
        <time>1999-07-24T12:43:59Z</time>
      </trkpt>
      <trkpt lat="43.225889" lon="-6.790303">
        <ele>935.424</ele>
        <time>1999-07-24T12:44:01Z</time>
      </trkpt>
      <trkpt lat="43.225695" lon="-6.790226">
        <ele>934.826</ele>
        <time>1999-07-24T12:44:03Z</time>
      </trkpt>
      <trkpt lat="43.225603" lon="-6.790188">
        <ele>934.008</ele>
        <time>1999-07-24T12:44:04Z</time>
      </trkpt>
      <trkpt lat="43.225516" lon="-6.790175">
        <ele>933.041</ele>
        <time>1999-07-24T12:44:05Z</time>
      </trkpt>
      <trkpt lat="43.225382" lon="-6.790267">
        <ele>930.217</ele>
        <time>1999-07-24T12:44:07Z</time>
      </trkpt>
      <trkpt lat="43.225347" lon="-6.790356">
        <ele>929.248</ele>
        <time>1999-07-24T12:44:08Z</time>
      </trkpt>
      <trkpt lat="43.225335" lon="-6.790455">
        <ele>928.429</ele>
        <time>1999-07-24T12:44:09Z</time>
      </trkpt>
      <trkpt lat="43.225335" lon="-6.790642">
        <ele>926.413</ele>
        <time>1999-07-24T12:44:11Z</time>
      </trkpt>
      <trkpt lat="43.225341" lon="-6.790731">
        <ele>925.632</ele>
        <time>1999-07-24T12:44:12Z</time>
      </trkpt>
      <trkpt lat="43.225348" lon="-6.790820">
        <ele>925.218</ele>
        <time>1999-07-24T12:44:13Z</time>
      </trkpt>
      <trkpt lat="43.225344" lon="-6.790910">
        <ele>925.020</ele>
        <time>1999-07-24T12:44:14Z</time>
      </trkpt>
      <trkpt lat="43.225256" lon="-6.791159">
        <ele>924.672</ele>
        <time>1999-07-24T12:44:17Z</time>
      </trkpt>
      <trkpt lat="43.225151" lon="-6.791318">
        <ele>924.213</ele>
        <time>1999-07-24T12:44:19Z</time>
      </trkpt>
      <trkpt lat="43.225095" lon="-6.791405">
        <ele>924.014</ele>
        <time>1999-07-24T12:44:20Z</time>
      </trkpt>
      <trkpt lat="43.225039" lon="-6.791495">
        <ele>923.608</ele>
        <time>1999-07-24T12:44:21Z</time>
      </trkpt>
      <trkpt lat="43.224687" lon="-6.792018">
        <ele>923.010</ele>
        <time>1999-07-24T12:44:27Z</time>
      </trkpt>
      <trkpt lat="43.224615" lon="-6.792082">
        <ele>922.616</ele>
        <time>1999-07-24T12:44:28Z</time>
      </trkpt>
      <trkpt lat="43.224458" lon="-6.792180">
        <ele>921.697</ele>
        <time>1999-07-24T12:44:30Z</time>
      </trkpt>
      <trkpt lat="43.224373" lon="-6.792220">
        <ele>921.298</ele>
        <time>1999-07-24T12:44:31Z</time>
      </trkpt>
      <trkpt lat="43.224286" lon="-6.792256">
        <ele>920.662</ele>
        <time>1999-07-24T12:44:32Z</time>
      </trkpt>
      <trkpt lat="43.224016" lon="-6.792353">
        <ele>919.661</ele>
        <time>1999-07-24T12:44:35Z</time>
      </trkpt>
      <trkpt lat="43.223831" lon="-6.792410">
        <ele>918.657</ele>
        <time>1999-07-24T12:44:37Z</time>
      </trkpt>
      <trkpt lat="43.223738" lon="-6.792434">
        <ele>918.259</ele>
        <time>1999-07-24T12:44:38Z</time>
      </trkpt>
      <trkpt lat="43.223554" lon="-6.792481">
        <ele>917.059</ele>
        <time>1999-07-24T12:44:40Z</time>
      </trkpt>
      <trkpt lat="43.223281" lon="-6.792560">
        <ele>915.403</ele>
        <time>1999-07-24T12:44:43Z</time>
      </trkpt>
      <trkpt lat="43.223189" lon="-6.792577">
        <ele>914.823</ele>
        <time>1999-07-24T12:44:44Z</time>
      </trkpt>
      <trkpt lat="43.223097" lon="-6.792581">
        <ele>914.208</ele>
        <time>1999-07-24T12:44:45Z</time>
      </trkpt>
      <trkpt lat="43.222911" lon="-6.792560">
        <ele>913.278</ele>
        <time>1999-07-24T12:44:47Z</time>
      </trkpt>
      <trkpt lat="43.222731" lon="-6.792516">
        <ele>912.054</ele>
        <time>1999-07-24T12:44:49Z</time>
      </trkpt>
      <trkpt lat="43.222640" lon="-6.792491">
        <ele>911.475</ele>
        <time>1999-07-24T12:44:50Z</time>
      </trkpt>
      <trkpt lat="43.222551" lon="-6.792478">
        <ele>910.826</ele>
        <time>1999-07-24T12:44:51Z</time>
      </trkpt>
      <trkpt lat="43.222400" lon="-6.792538">
        <ele>909.830</ele>
        <time>1999-07-24T12:44:53Z</time>
      </trkpt>
      <trkpt lat="43.222294" lon="-6.792672">
        <ele>908.629</ele>
        <time>1999-07-24T12:44:55Z</time>
      </trkpt>
      <trkpt lat="43.222250" lon="-6.792735">
        <ele>908.045</ele>
        <time>1999-07-24T12:44:56Z</time>
      </trkpt>
      <trkpt lat="43.222207" lon="-6.792792">
        <ele>907.447</ele>
        <time>1999-07-24T12:44:57Z</time>
      </trkpt>
      <trkpt lat="43.222162" lon="-6.792846">
        <ele>907.082</ele>
        <time>1999-07-24T12:44:58Z</time>
      </trkpt>
      <trkpt lat="43.222029" lon="-6.792998">
        <ele>906.643</ele>
        <time>1999-07-24T12:45:01Z</time>
      </trkpt>
      <trkpt lat="43.221891" lon="-6.793141">
        <ele>906.417</ele>
        <time>1999-07-24T12:45:04Z</time>
      </trkpt>
      <trkpt lat="43.221847" lon="-6.793185">
        <ele>906.408</ele>
        <time>1999-07-24T12:45:05Z</time>
      </trkpt>
      <trkpt lat="43.221569" lon="-6.793474">
        <ele>906.871</ele>
        <time>1999-07-24T12:45:11Z</time>
      </trkpt>
      <trkpt lat="43.221520" lon="-6.793534">
        <ele>906.857</ele>
        <time>1999-07-24T12:45:12Z</time>
      </trkpt>
      <trkpt lat="43.221387" lon="-6.793741">
        <ele>906.858</ele>
        <time>1999-07-24T12:45:15Z</time>
      </trkpt>
      <trkpt lat="43.221366" lon="-6.793825">
        <ele>906.869</ele>
        <time>1999-07-24T12:45:16Z</time>
      </trkpt>
      <trkpt lat="43.221404" lon="-6.794100">
        <ele>906.863</ele>
        <time>1999-07-24T12:45:19Z</time>
      </trkpt>
      <trkpt lat="43.221544" lon="-6.794301">
        <ele>906.442</ele>
        <time>1999-07-24T12:45:22Z</time>
      </trkpt>
      <trkpt lat="43.221806" lon="-6.794445">
        <ele>906.028</ele>
        <time>1999-07-24T12:45:26Z</time>
      </trkpt>
      <trkpt lat="43.221876" lon="-6.794466">
        <ele>906.020</ele>
        <time>1999-07-24T12:45:27Z</time>
      </trkpt>
      <trkpt lat="43.221925" lon="-6.794525">
        <ele>906.022</ele>
        <time>1999-07-24T12:45:28Z</time>
      </trkpt>
      <trkpt lat="43.222056" lon="-6.794712">
        <ele>905.862</ele>
        <time>1999-07-24T12:45:31Z</time>
      </trkpt>
      <trkpt lat="43.222095" lon="-6.794965">
        <ele>905.808</ele>
        <time>1999-07-24T12:45:34Z</time>
      </trkpt>
      <trkpt lat="43.222061" lon="-6.795227">
        <ele>905.808</ele>
        <time>1999-07-24T12:45:37Z</time>
      </trkpt>
      <trkpt lat="43.222041" lon="-6.795312">
        <ele>905.865</ele>
        <time>1999-07-24T12:45:38Z</time>
      </trkpt>
      <trkpt lat="43.221862" lon="-6.795840">
        <ele>905.851</ele>
        <time>1999-07-24T12:45:44Z</time>
      </trkpt>
      <trkpt lat="43.221816" lon="-6.795924">
        <ele>905.842</ele>
        <time>1999-07-24T12:45:45Z</time>
      </trkpt>
      <trkpt lat="43.221706" lon="-6.796074">
        <ele>905.893</ele>
        <time>1999-07-24T12:45:47Z</time>
      </trkpt>
      <trkpt lat="43.221646" lon="-6.796144">
        <ele>905.697</ele>
        <time>1999-07-24T12:45:48Z</time>
      </trkpt>
      <trkpt lat="43.221459" lon="-6.796366">
        <ele>905.286</ele>
        <time>1999-07-24T12:45:51Z</time>
      </trkpt>
      <trkpt lat="43.221195" lon="-6.796706">
        <ele>904.212</ele>
        <time>1999-07-24T12:45:55Z</time>
      </trkpt>
      <trkpt lat="43.221124" lon="-6.796794">
        <ele>904.094</ele>
        <time>1999-07-24T12:45:56Z</time>
      </trkpt>
      <trkpt lat="43.220899" lon="-6.797055">
        <ele>903.086</ele>
        <time>1999-07-24T12:45:59Z</time>
      </trkpt>
      <trkpt lat="43.220823" lon="-6.797141">
        <ele>902.660</ele>
        <time>1999-07-24T12:46:00Z</time>
      </trkpt>
      <trkpt lat="43.220669" lon="-6.797315">
        <ele>901.626</ele>
        <time>1999-07-24T12:46:02Z</time>
      </trkpt>
      <trkpt lat="43.220588" lon="-6.797396">
        <ele>901.008</ele>
        <time>1999-07-24T12:46:03Z</time>
      </trkpt>
      <trkpt lat="43.220503" lon="-6.797468">
        <ele>900.421</ele>
        <time>1999-07-24T12:46:04Z</time>
      </trkpt>
      <trkpt lat="43.220412" lon="-6.797528">
        <ele>899.657</ele>
        <time>1999-07-24T12:46:05Z</time>
      </trkpt>
      <trkpt lat="43.220319" lon="-6.797579">
        <ele>898.818</ele>
        <time>1999-07-24T12:46:06Z</time>
      </trkpt>
      <trkpt lat="43.220224" lon="-6.797626">
        <ele>898.269</ele>
        <time>1999-07-24T12:46:07Z</time>
      </trkpt>
      <trkpt lat="43.220126" lon="-6.797658">
        <ele>897.413</ele>
        <time>1999-07-24T12:46:08Z</time>
      </trkpt>
      <trkpt lat="43.220025" lon="-6.797670">
        <ele>896.612</ele>
        <time>1999-07-24T12:46:09Z</time>
      </trkpt>
      <trkpt lat="43.219922" lon="-6.797661">
        <ele>896.068</ele>
        <time>1999-07-24T12:46:10Z</time>
      </trkpt>
      <trkpt lat="43.219821" lon="-6.797632">
        <ele>895.480</ele>
        <time>1999-07-24T12:46:11Z</time>
      </trkpt>
      <trkpt lat="43.219634" lon="-6.797514">
        <ele>893.846</ele>
        <time>1999-07-24T12:46:13Z</time>
      </trkpt>
      <trkpt lat="43.219545" lon="-6.797438">
        <ele>892.888</ele>
        <time>1999-07-24T12:46:14Z</time>
      </trkpt>
      <trkpt lat="43.219460" lon="-6.797354">
        <ele>892.216</ele>
        <time>1999-07-24T12:46:15Z</time>
      </trkpt>
      <trkpt lat="43.219300" lon="-6.797183">
        <ele>890.408</ele>
        <time>1999-07-24T12:46:17Z</time>
      </trkpt>
      <trkpt lat="43.219228" lon="-6.797108">
        <ele>889.497</ele>
        <time>1999-07-24T12:46:18Z</time>
      </trkpt>
      <trkpt lat="43.219162" lon="-6.797054">
        <ele>888.433</ele>
        <time>1999-07-24T12:46:19Z</time>
      </trkpt>
      <trkpt lat="43.219099" lon="-6.797032">
        <ele>887.884</ele>
        <time>1999-07-24T12:46:20Z</time>
      </trkpt>
      <trkpt lat="43.219045" lon="-6.797050">
        <ele>887.045</ele>
        <time>1999-07-24T12:46:21Z</time>
      </trkpt>
      <trkpt lat="43.219007" lon="-6.797101">
        <ele>886.499</ele>
        <time>1999-07-24T12:46:22Z</time>
      </trkpt>
      <trkpt lat="43.218985" lon="-6.797175">
        <ele>884.828</ele>
        <time>1999-07-24T12:46:23Z</time>
      </trkpt>
      <trkpt lat="43.218969" lon="-6.797257">
        <ele>884.474</ele>
        <time>1999-07-24T12:46:24Z</time>
      </trkpt>
      <trkpt lat="43.218956" lon="-6.797343">
        <ele>884.036</ele>
        <time>1999-07-24T12:46:25Z</time>
      </trkpt>
      <trkpt lat="43.218943" lon="-6.797431">
        <ele>883.419</ele>
        <time>1999-07-24T12:46:26Z</time>
      </trkpt>
      <trkpt lat="43.218916" lon="-6.797610">
        <ele>882.209</ele>
        <time>1999-07-24T12:46:28Z</time>
      </trkpt>
      <trkpt lat="43.218904" lon="-6.797696">
        <ele>881.619</ele>
        <time>1999-07-24T12:46:29Z</time>
      </trkpt>
      <trkpt lat="43.218894" lon="-6.797784">
        <ele>881.208</ele>
        <time>1999-07-24T12:46:30Z</time>
      </trkpt>
      <trkpt lat="43.218851" lon="-6.798165">
        <ele>880.494</ele>
        <time>1999-07-24T12:46:34Z</time>
      </trkpt>
      <trkpt lat="43.218834" lon="-6.798260">
        <ele>880.270</ele>
        <time>1999-07-24T12:46:35Z</time>
      </trkpt>
      <trkpt lat="43.218810" lon="-6.798452">
        <ele>879.471</ele>
        <time>1999-07-24T12:46:37Z</time>
      </trkpt>
      <trkpt lat="43.218831" lon="-6.798634">
        <ele>879.032</ele>
        <time>1999-07-24T12:46:39Z</time>
      </trkpt>
      <trkpt lat="43.218852" lon="-6.798718">
        <ele>878.846</ele>
        <time>1999-07-24T12:46:40Z</time>
      </trkpt>
      <trkpt lat="43.218912" lon="-6.798865">
        <ele>878.475</ele>
        <time>1999-07-24T12:46:42Z</time>
      </trkpt>
      <trkpt lat="43.218946" lon="-6.799017">
        <ele>878.291</ele>
        <time>1999-07-24T12:46:44Z</time>
      </trkpt>
      <trkpt lat="43.219029" lon="-6.799499">
        <ele>878.053</ele>
        <time>1999-07-24T12:46:49Z</time>
      </trkpt>
      <trkpt lat="43.219041" lon="-6.799730">
        <ele>877.628</ele>
        <time>1999-07-24T12:46:51Z</time>
      </trkpt>
      <trkpt lat="43.219010" lon="-6.799969">
        <ele>877.689</ele>
        <time>1999-07-24T12:46:53Z</time>
      </trkpt>
      <trkpt lat="43.218930" lon="-6.800210">
        <ele>877.017</ele>
        <time>1999-07-24T12:46:55Z</time>
      </trkpt>
      <trkpt lat="43.218828" lon="-6.800451">
        <ele>876.408</ele>
        <time>1999-07-24T12:46:57Z</time>
      </trkpt>
      <trkpt lat="43.218661" lon="-6.800822">
        <ele>875.295</ele>
        <time>1999-07-24T12:47:00Z</time>
      </trkpt>
      <trkpt lat="43.218575" lon="-6.801055">
        <ele>874.291</ele>
        <time>1999-07-24T12:47:02Z</time>
      </trkpt>
      <trkpt lat="43.218538" lon="-6.801162">
        <ele>873.662</ele>
        <time>1999-07-24T12:47:03Z</time>
      </trkpt>
      <trkpt lat="43.218461" lon="-6.801358">
        <ele>872.433</ele>
        <time>1999-07-24T12:47:05Z</time>
      </trkpt>
      <trkpt lat="43.218418" lon="-6.801444">
        <ele>871.867</ele>
        <time>1999-07-24T12:47:06Z</time>
      </trkpt>
      <trkpt lat="43.218381" lon="-6.801519">
        <ele>871.226</ele>
        <time>1999-07-24T12:47:07Z</time>
      </trkpt>
      <trkpt lat="43.218335" lon="-6.801639">
        <ele>869.842</ele>
        <time>1999-07-24T12:47:09Z</time>
      </trkpt>
      <trkpt lat="43.218312" lon="-6.801757">
        <ele>867.874</ele>
        <time>1999-07-24T12:47:11Z</time>
      </trkpt>
      <trkpt lat="43.218303" lon="-6.801816">
        <ele>866.655</ele>
        <time>1999-07-24T12:47:12Z</time>
      </trkpt>
      <trkpt lat="43.218302" lon="-6.801875">
        <ele>865.407</ele>
        <time>1999-07-24T12:47:13Z</time>
      </trkpt>
      <trkpt lat="43.218322" lon="-6.801991">
        <ele>864.017</ele>
        <time>1999-07-24T12:47:15Z</time>
      </trkpt>
      <trkpt lat="43.218369" lon="-6.802090">
        <ele>862.408</ele>
        <time>1999-07-24T12:47:17Z</time>
      </trkpt>
      <trkpt lat="43.218415" lon="-6.802177">
        <ele>861.268</ele>
        <time>1999-07-24T12:47:19Z</time>
      </trkpt>
      <trkpt lat="43.218439" lon="-6.802216">
        <ele>861.034</ele>
        <time>1999-07-24T12:47:20Z</time>
      </trkpt>
      <trkpt lat="43.218464" lon="-6.802298">
        <ele>860.895</ele>
        <time>1999-07-24T12:47:22Z</time>
      </trkpt>
      <trkpt lat="43.218417" lon="-6.802441">
        <ele>860.456</ele>
        <time>1999-07-24T12:47:26Z</time>
      </trkpt>
      <trkpt lat="43.218394" lon="-6.802495">
        <ele>860.230</ele>
        <time>1999-07-24T12:47:28Z</time>
      </trkpt>
      <trkpt lat="43.218382" lon="-6.802560">
        <ele>860.069</ele>
        <time>1999-07-24T12:47:31Z</time>
      </trkpt>
      <trkpt lat="43.218332" lon="-6.802781">
        <ele>859.685</ele>
        <time>1999-07-24T12:47:38Z</time>
      </trkpt>
      <trkpt lat="43.218273" lon="-6.803059">
        <ele>859.487</ele>
        <time>1999-07-24T12:47:45Z</time>
      </trkpt>
      <trkpt lat="43.218252" lon="-6.803245">
        <ele>859.883</ele>
        <time>1999-07-24T12:47:50Z</time>
      </trkpt>
      <trkpt lat="43.218241" lon="-6.803315">
        <ele>859.825</ele>
        <time>1999-07-24T12:47:52Z</time>
      </trkpt>
      <trkpt lat="43.218249" lon="-6.803422">
        <ele>860.017</ele>
        <time>1999-07-24T12:47:55Z</time>
      </trkpt>
      <trkpt lat="43.218244" lon="-6.803458">
        <ele>860.408</ele>
        <time>1999-07-24T12:47:56Z</time>
      </trkpt>
      <trkpt lat="43.218228" lon="-6.803523">
        <ele>860.661</ele>
        <time>1999-07-24T12:47:58Z</time>
      </trkpt>
      <trkpt lat="43.218205" lon="-6.803613">
        <ele>860.877</ele>
        <time>1999-07-24T12:48:01Z</time>
      </trkpt>
      <trkpt lat="43.218202" lon="-6.803678">
        <ele>861.048</ele>
        <time>1999-07-24T12:48:03Z</time>
      </trkpt>
      <trkpt lat="43.218212" lon="-6.803780">
        <ele>861.629</ele>
        <time>1999-07-24T12:48:06Z</time>
      </trkpt>
      <trkpt lat="43.218251" lon="-6.803860">
        <ele>862.263</ele>
        <time>1999-07-24T12:48:09Z</time>
      </trkpt>
      <trkpt lat="43.218306" lon="-6.803958">
        <ele>862.612</ele>
        <time>1999-07-24T12:48:13Z</time>
      </trkpt>
      <trkpt lat="43.218370" lon="-6.804036">
        <ele>863.638</ele>
        <time>1999-07-24T12:48:17Z</time>
      </trkpt>
      <trkpt lat="43.218388" lon="-6.804051">
        <ele>863.670</ele>
        <time>1999-07-24T12:48:18Z</time>
      </trkpt>
      <trkpt lat="43.218473" lon="-6.804067">
        <ele>864.451</ele>
        <time>1999-07-24T12:48:22Z</time>
      </trkpt>
      <trkpt lat="43.218511" lon="-6.804075">
        <ele>864.801</ele>
        <time>1999-07-24T12:48:24Z</time>
      </trkpt>
      <trkpt lat="43.218595" lon="-6.804069">
        <ele>865.611</ele>
        <time>1999-07-24T12:48:28Z</time>
      </trkpt>
      <trkpt lat="43.218617" lon="-6.804063">
        <ele>865.808</ele>
        <time>1999-07-24T12:48:29Z</time>
      </trkpt>
      <trkpt lat="43.218709" lon="-6.804036">
        <ele>867.048</ele>
        <time>1999-07-24T12:48:33Z</time>
      </trkpt>
      <trkpt lat="43.218751" lon="-6.804028">
        <ele>867.454</ele>
        <time>1999-07-24T12:48:35Z</time>
      </trkpt>
      <trkpt lat="43.218842" lon="-6.804000">
        <ele>868.065</ele>
        <time>1999-07-24T12:48:39Z</time>
      </trkpt>
      <trkpt lat="43.218934" lon="-6.803978">
        <ele>869.056</ele>
        <time>1999-07-24T12:48:43Z</time>
      </trkpt>
      <trkpt lat="43.218956" lon="-6.803973">
        <ele>869.210</ele>
        <time>1999-07-24T12:48:44Z</time>
      </trkpt>
      <trkpt lat="43.219077" lon="-6.803967">
        <ele>870.219</ele>
        <time>1999-07-24T12:48:49Z</time>
      </trkpt>
      <trkpt lat="43.219183" lon="-6.803942">
        <ele>871.485</ele>
        <time>1999-07-24T12:48:54Z</time>
      </trkpt>
      <trkpt lat="43.219263" lon="-6.803932">
        <ele>872.477</ele>
        <time>1999-07-24T12:48:59Z</time>
      </trkpt>
      <trkpt lat="43.219311" lon="-6.803945">
        <ele>873.214</ele>
        <time>1999-07-24T12:49:02Z</time>
      </trkpt>
      <trkpt lat="43.219334" lon="-6.803961">
        <ele>873.654</ele>
        <time>1999-07-24T12:49:04Z</time>
      </trkpt>
      <trkpt lat="43.219400" lon="-6.804002">
        <ele>874.809</ele>
        <time>1999-07-24T12:49:09Z</time>
      </trkpt>
      <trkpt lat="43.219458" lon="-6.804040">
        <ele>875.808</ele>
        <time>1999-07-24T12:49:13Z</time>
      </trkpt>
      <trkpt lat="43.219517" lon="-6.804071">
        <ele>876.894</ele>
        <time>1999-07-24T12:49:17Z</time>
      </trkpt>
      <trkpt lat="43.219576" lon="-6.804107">
        <ele>878.090</ele>
        <time>1999-07-24T12:49:21Z</time>
      </trkpt>
      <trkpt lat="43.219612" lon="-6.804121">
        <ele>878.461</ele>
        <time>1999-07-24T12:49:23Z</time>
      </trkpt>
      <trkpt lat="43.219669" lon="-6.804127">
        <ele>879.292</ele>
        <time>1999-07-24T12:49:26Z</time>
      </trkpt>
      <trkpt lat="43.219720" lon="-6.804132">
        <ele>879.636</ele>
        <time>1999-07-24T12:49:29Z</time>
      </trkpt>
      <trkpt lat="43.219754" lon="-6.804143">
        <ele>880.225</ele>
        <time>1999-07-24T12:49:31Z</time>
      </trkpt>
      <trkpt lat="43.219845" lon="-6.804184">
        <ele>881.271</ele>
        <time>1999-07-24T12:49:37Z</time>
      </trkpt>
      <trkpt lat="43.219860" lon="-6.804193">
        <ele>881.693</ele>
        <time>1999-07-24T12:49:38Z</time>
      </trkpt>
      <trkpt lat="43.219922" lon="-6.804222">
        <ele>882.437</ele>
        <time>1999-07-24T12:49:42Z</time>
      </trkpt>
      <trkpt lat="43.220004" lon="-6.804251">
        <ele>883.449</ele>
        <time>1999-07-24T12:49:47Z</time>
      </trkpt>
      <trkpt lat="43.220074" lon="-6.804300">
        <ele>884.613</ele>
        <time>1999-07-24T12:49:52Z</time>
      </trkpt>
      <trkpt lat="43.220120" lon="-6.804321">
        <ele>885.408</ele>
        <time>1999-07-24T12:49:55Z</time>
      </trkpt>
      <trkpt lat="43.220151" lon="-6.804327">
        <ele>885.836</ele>
        <time>1999-07-24T12:49:57Z</time>
      </trkpt>
      <trkpt lat="43.220209" lon="-6.804367">
        <ele>886.672</ele>
        <time>1999-07-24T12:50:01Z</time>
      </trkpt>
      <trkpt lat="43.220241" lon="-6.804382">
        <ele>887.023</ele>
        <time>1999-07-24T12:50:03Z</time>
      </trkpt>
      <trkpt lat="43.220249" lon="-6.804394">
        <ele>887.294</ele>
        <time>1999-07-24T12:50:04Z</time>
      </trkpt>
      <trkpt lat="43.220300" lon="-6.804410">
        <ele>888.028</ele>
        <time>1999-07-24T12:50:08Z</time>
      </trkpt>
      <trkpt lat="43.220311" lon="-6.804415">
        <ele>888.217</ele>
        <time>1999-07-24T12:50:09Z</time>
      </trkpt>
      <trkpt lat="43.220336" lon="-6.804433">
        <ele>888.423</ele>
        <time>1999-07-24T12:50:11Z</time>
      </trkpt>
      <trkpt lat="43.220381" lon="-6.804445">
        <ele>889.075</ele>
        <time>1999-07-24T12:50:14Z</time>
      </trkpt>
      <trkpt lat="43.220411" lon="-6.804458">
        <ele>889.453</ele>
        <time>1999-07-24T12:50:16Z</time>
      </trkpt>
      <trkpt lat="43.220455" lon="-6.804477">
        <ele>890.204</ele>
        <time>1999-07-24T12:50:19Z</time>
      </trkpt>
      <trkpt lat="43.220499" lon="-6.804507">
        <ele>890.814</ele>
        <time>1999-07-24T12:50:22Z</time>
      </trkpt>
      <trkpt lat="43.220537" lon="-6.804508">
        <ele>891.408</ele>
        <time>1999-07-24T12:50:24Z</time>
      </trkpt>
      <trkpt lat="43.220585" lon="-6.804516">
        <ele>892.058</ele>
        <time>1999-07-24T12:50:27Z</time>
      </trkpt>
      <trkpt lat="43.220599" lon="-6.804520">
        <ele>892.474</ele>
        <time>1999-07-24T12:50:28Z</time>
      </trkpt>
      <trkpt lat="43.220647" lon="-6.804524">
        <ele>893.665</ele>
        <time>1999-07-24T12:50:31Z</time>
      </trkpt>
      <trkpt lat="43.220708" lon="-6.804543">
        <ele>894.876</ele>
        <time>1999-07-24T12:50:35Z</time>
      </trkpt>
      <trkpt lat="43.220750" lon="-6.804576">
        <ele>895.660</ele>
        <time>1999-07-24T12:50:38Z</time>
      </trkpt>
      <trkpt lat="43.220765" lon="-6.804578">
        <ele>896.069</ele>
        <time>1999-07-24T12:50:39Z</time>
      </trkpt>
      <trkpt lat="43.220795" lon="-6.804577">
        <ele>896.455</ele>
        <time>1999-07-24T12:50:41Z</time>
      </trkpt>
      <trkpt lat="43.220822" lon="-6.804590">
        <ele>897.037</ele>
        <time>1999-07-24T12:50:43Z</time>
      </trkpt>
      <trkpt lat="43.220837" lon="-6.804601">
        <ele>897.242</ele>
        <time>1999-07-24T12:50:44Z</time>
      </trkpt>
      <trkpt lat="43.220891" lon="-6.804611">
        <ele>897.822</ele>
        <time>1999-07-24T12:50:47Z</time>
      </trkpt>
      <trkpt lat="43.220905" lon="-6.804610">
        <ele>898.014</ele>
        <time>1999-07-24T12:50:48Z</time>
      </trkpt>
      <trkpt lat="43.220969" lon="-6.804617">
        <ele>899.008</ele>
        <time>1999-07-24T12:50:52Z</time>
      </trkpt>
      <trkpt lat="43.220984" lon="-6.804616">
        <ele>899.297</ele>
        <time>1999-07-24T12:50:53Z</time>
      </trkpt>
      <trkpt lat="43.221055" lon="-6.804662">
        <ele>900.463</ele>
        <time>1999-07-24T12:50:58Z</time>
      </trkpt>
      <trkpt lat="43.221074" lon="-6.804668">
        <ele>900.694</ele>
        <time>1999-07-24T12:50:59Z</time>
      </trkpt>
      <trkpt lat="43.221142" lon="-6.804667">
        <ele>901.415</ele>
        <time>1999-07-24T12:51:03Z</time>
      </trkpt>
      <trkpt lat="43.221188" lon="-6.804689">
        <ele>902.219</ele>
        <time>1999-07-24T12:51:06Z</time>
      </trkpt>
      <trkpt lat="43.221204" lon="-6.804694">
        <ele>902.638</ele>
        <time>1999-07-24T12:51:07Z</time>
      </trkpt>
      <trkpt lat="43.221266" lon="-6.804708">
        <ele>903.494</ele>
        <time>1999-07-24T12:51:11Z</time>
      </trkpt>
      <trkpt lat="43.221279" lon="-6.804719">
        <ele>903.666</ele>
        <time>1999-07-24T12:51:12Z</time>
      </trkpt>
      <trkpt lat="43.221352" lon="-6.804729">
        <ele>904.674</ele>
        <time>1999-07-24T12:51:17Z</time>
      </trkpt>
      <trkpt lat="43.221368" lon="-6.804729">
        <ele>904.856</ele>
        <time>1999-07-24T12:51:18Z</time>
      </trkpt>
      <trkpt lat="43.221431" lon="-6.804775">
        <ele>905.821</ele>
        <time>1999-07-24T12:51:23Z</time>
      </trkpt>
      <trkpt lat="43.221504" lon="-6.804811">
        <ele>906.808</ele>
        <time>1999-07-24T12:51:28Z</time>
      </trkpt>
      <trkpt lat="43.221559" lon="-6.804824">
        <ele>907.410</ele>
        <time>1999-07-24T12:51:31Z</time>
      </trkpt>
      <trkpt lat="43.221593" lon="-6.804837">
        <ele>907.896</ele>
        <time>1999-07-24T12:51:33Z</time>
      </trkpt>
      <trkpt lat="43.221659" lon="-6.804910">
        <ele>909.077</ele>
        <time>1999-07-24T12:51:38Z</time>
      </trkpt>
      <trkpt lat="43.221722" lon="-6.804995">
        <ele>910.018</ele>
        <time>1999-07-24T12:51:43Z</time>
      </trkpt>
      <trkpt lat="43.221760" lon="-6.805036">
        <ele>910.642</ele>
        <time>1999-07-24T12:51:46Z</time>
      </trkpt>
      <trkpt lat="43.221796" lon="-6.805084">
        <ele>911.281</ele>
        <time>1999-07-24T12:51:49Z</time>
      </trkpt>
      <trkpt lat="43.221826" lon="-6.805187">
        <ele>912.277</ele>
        <time>1999-07-24T12:51:54Z</time>
      </trkpt>
      <trkpt lat="43.221828" lon="-6.805210">
        <ele>912.489</ele>
        <time>1999-07-24T12:51:55Z</time>
      </trkpt>
      <trkpt lat="43.221840" lon="-6.805222">
        <ele>912.684</ele>
        <time>1999-07-24T12:51:56Z</time>
      </trkpt>
      <trkpt lat="43.221868" lon="-6.805241">
        <ele>913.007</ele>
        <time>1999-07-24T12:51:58Z</time>
      </trkpt>
      <trkpt lat="43.221888" lon="-6.805275">
        <ele>913.417</ele>
        <time>1999-07-24T12:52:00Z</time>
      </trkpt>
      <trkpt lat="43.221897" lon="-6.805340">
        <ele>914.208</ele>
        <time>1999-07-24T12:52:03Z</time>
      </trkpt>
      <trkpt lat="43.221914" lon="-6.805349">
        <ele>914.631</ele>
        <time>1999-07-24T12:52:04Z</time>
      </trkpt>
      <trkpt lat="43.221947" lon="-6.805365">
        <ele>915.027</ele>
        <time>1999-07-24T12:52:06Z</time>
      </trkpt>
      <trkpt lat="43.221961" lon="-6.805463">
        <ele>915.858</ele>
        <time>1999-07-24T12:52:10Z</time>
      </trkpt>
      <trkpt lat="43.222001" lon="-6.805501">
        <ele>916.639</ele>
        <time>1999-07-24T12:52:13Z</time>
      </trkpt>
      <trkpt lat="43.222016" lon="-6.805515">
        <ele>916.813</ele>
        <time>1999-07-24T12:52:14Z</time>
      </trkpt>
      <trkpt lat="43.222026" lon="-6.805536">
        <ele>916.892</ele>
        <time>1999-07-24T12:52:15Z</time>
      </trkpt>
      <trkpt lat="43.222045" lon="-6.805631">
        <ele>917.868</ele>
        <time>1999-07-24T12:52:19Z</time>
      </trkpt>
      <trkpt lat="43.222104" lon="-6.805686">
        <ele>918.840</ele>
        <time>1999-07-24T12:52:23Z</time>
      </trkpt>
      <trkpt lat="43.222116" lon="-6.805707">
        <ele>919.065</ele>
        <time>1999-07-24T12:52:24Z</time>
      </trkpt>
      <trkpt lat="43.222145" lon="-6.805756">
        <ele>920.068</ele>
        <time>1999-07-24T12:52:27Z</time>
      </trkpt>
      <trkpt lat="43.222162" lon="-6.805761">
        <ele>920.214</ele>
        <time>1999-07-24T12:52:28Z</time>
      </trkpt>
      <trkpt lat="43.222182" lon="-6.805766">
        <ele>920.408</ele>
        <time>1999-07-24T12:52:29Z</time>
      </trkpt>
      <trkpt lat="43.222240" lon="-6.805819">
        <ele>921.849</ele>
        <time>1999-07-24T12:52:33Z</time>
      </trkpt>
      <trkpt lat="43.222253" lon="-6.805828">
        <ele>921.885</ele>
        <time>1999-07-24T12:52:34Z</time>
      </trkpt>
      <trkpt lat="43.222271" lon="-6.805833">
        <ele>922.086</ele>
        <time>1999-07-24T12:52:35Z</time>
      </trkpt>
      <trkpt lat="43.222331" lon="-6.805834">
        <ele>922.677</ele>
        <time>1999-07-24T12:52:38Z</time>
      </trkpt>
      <trkpt lat="43.222345" lon="-6.805850">
        <ele>922.831</ele>
        <time>1999-07-24T12:52:39Z</time>
      </trkpt>
      <trkpt lat="43.222391" lon="-6.805884">
        <ele>923.490</ele>
        <time>1999-07-24T12:52:42Z</time>
      </trkpt>
      <trkpt lat="43.222408" lon="-6.805878">
        <ele>923.616</ele>
        <time>1999-07-24T12:52:43Z</time>
      </trkpt>
      <trkpt lat="43.222444" lon="-6.805865">
        <ele>924.038</ele>
        <time>1999-07-24T12:52:45Z</time>
      </trkpt>
      <trkpt lat="43.222472" lon="-6.805881">
        <ele>924.497</ele>
        <time>1999-07-24T12:52:47Z</time>
      </trkpt>
      <trkpt lat="43.222487" lon="-6.805897">
        <ele>924.623</ele>
        <time>1999-07-24T12:52:48Z</time>
      </trkpt>
      <trkpt lat="43.222508" lon="-6.805905">
        <ele>924.825</ele>
        <time>1999-07-24T12:52:49Z</time>
      </trkpt>
      <trkpt lat="43.222577" lon="-6.805871">
        <ele>925.608</ele>
        <time>1999-07-24T12:52:53Z</time>
      </trkpt>
      <trkpt lat="43.222598" lon="-6.805869">
        <ele>925.692</ele>
        <time>1999-07-24T12:52:54Z</time>
      </trkpt>
      <trkpt lat="43.222667" lon="-6.805878">
        <ele>926.238</ele>
        <time>1999-07-24T12:52:57Z</time>
      </trkpt>
      <trkpt lat="43.222687" lon="-6.805874">
        <ele>926.449</ele>
        <time>1999-07-24T12:52:58Z</time>
      </trkpt>
      <trkpt lat="43.222728" lon="-6.805853">
        <ele>926.840</ele>
        <time>1999-07-24T12:53:00Z</time>
      </trkpt>
      <trkpt lat="43.222806" lon="-6.805871">
        <ele>927.884</ele>
        <time>1999-07-24T12:53:04Z</time>
      </trkpt>
      <trkpt lat="43.222827" lon="-6.805880">
        <ele>928.293</ele>
        <time>1999-07-24T12:53:05Z</time>
      </trkpt>
      <trkpt lat="43.222844" lon="-6.805878">
        <ele>928.439</ele>
        <time>1999-07-24T12:53:06Z</time>
      </trkpt>
      <trkpt lat="43.222890" lon="-6.805859">
        <ele>929.211</ele>
        <time>1999-07-24T12:53:09Z</time>
      </trkpt>
      <trkpt lat="43.222906" lon="-6.805860">
        <ele>929.454</ele>
        <time>1999-07-24T12:53:10Z</time>
      </trkpt>
      <trkpt lat="43.222975" lon="-6.805896">
        <ele>930.456</ele>
        <time>1999-07-24T12:53:14Z</time>
      </trkpt>
      <trkpt lat="43.222993" lon="-6.805888">
        <ele>930.611</ele>
        <time>1999-07-24T12:53:15Z</time>
      </trkpt>
      <trkpt lat="43.223010" lon="-6.805876">
        <ele>930.808</ele>
        <time>1999-07-24T12:53:16Z</time>
      </trkpt>
      <trkpt lat="43.223066" lon="-6.805876">
        <ele>931.478</ele>
        <time>1999-07-24T12:53:19Z</time>
      </trkpt>
      <trkpt lat="43.223084" lon="-6.805887">
        <ele>931.824</ele>
        <time>1999-07-24T12:53:20Z</time>
      </trkpt>
      <trkpt lat="43.223136" lon="-6.805887">
        <ele>932.485</ele>
        <time>1999-07-24T12:53:23Z</time>
      </trkpt>
      <trkpt lat="43.223172" lon="-6.805888">
        <ele>932.816</ele>
        <time>1999-07-24T12:53:25Z</time>
      </trkpt>
      <trkpt lat="43.223235" lon="-6.805940">
        <ele>933.860</ele>
        <time>1999-07-24T12:53:29Z</time>
      </trkpt>
      <trkpt lat="43.223251" lon="-6.805943">
        <ele>934.059</ele>
        <time>1999-07-24T12:53:30Z</time>
      </trkpt>
      <trkpt lat="43.223314" lon="-6.805945">
        <ele>935.295</ele>
        <time>1999-07-24T12:53:34Z</time>
      </trkpt>
      <trkpt lat="43.223354" lon="-6.805993">
        <ele>935.877</ele>
        <time>1999-07-24T12:53:37Z</time>
      </trkpt>
      <trkpt lat="43.223371" lon="-6.806004">
        <ele>936.226</ele>
        <time>1999-07-24T12:53:38Z</time>
      </trkpt>
      <trkpt lat="43.223388" lon="-6.806007">
        <ele>936.447</ele>
        <time>1999-07-24T12:53:39Z</time>
      </trkpt>
      <trkpt lat="43.223424" lon="-6.806006">
        <ele>936.611</ele>
        <time>1999-07-24T12:53:41Z</time>
      </trkpt>
      <trkpt lat="43.223464" lon="-6.806048">
        <ele>937.208</ele>
        <time>1999-07-24T12:53:44Z</time>
      </trkpt>
      <trkpt lat="43.223494" lon="-6.806071">
        <ele>937.825</ele>
        <time>1999-07-24T12:53:46Z</time>
      </trkpt>
      <trkpt lat="43.223523" lon="-6.806065">
        <ele>938.291</ele>
        <time>1999-07-24T12:53:48Z</time>
      </trkpt>
      <trkpt lat="43.223550" lon="-6.806085">
        <ele>938.882</ele>
        <time>1999-07-24T12:53:50Z</time>
      </trkpt>
      <trkpt lat="43.223583" lon="-6.806129">
        <ele>939.443</ele>
        <time>1999-07-24T12:53:53Z</time>
      </trkpt>
      <trkpt lat="43.223615" lon="-6.806126">
        <ele>940.067</ele>
        <time>1999-07-24T12:53:55Z</time>
      </trkpt>
      <trkpt lat="43.223631" lon="-6.806122">
        <ele>940.436</ele>
        <time>1999-07-24T12:53:56Z</time>
      </trkpt>
      <trkpt lat="43.223650" lon="-6.806123">
        <ele>940.642</ele>
        <time>1999-07-24T12:53:57Z</time>
      </trkpt>
      <trkpt lat="43.223662" lon="-6.806135">
        <ele>941.064</ele>
        <time>1999-07-24T12:53:58Z</time>
      </trkpt>
      <trkpt lat="43.223681" lon="-6.806176">
        <ele>941.647</ele>
        <time>1999-07-24T12:54:00Z</time>
      </trkpt>
      <trkpt lat="43.223694" lon="-6.806191">
        <ele>942.029</ele>
        <time>1999-07-24T12:54:01Z</time>
      </trkpt>
      <trkpt lat="43.223740" lon="-6.806184">
        <ele>942.621</ele>
        <time>1999-07-24T12:54:04Z</time>
      </trkpt>
      <trkpt lat="43.223758" lon="-6.806185">
        <ele>943.008</ele>
        <time>1999-07-24T12:54:05Z</time>
      </trkpt>
      <trkpt lat="43.223824" lon="-6.806233">
        <ele>943.857</ele>
        <time>1999-07-24T12:54:09Z</time>
      </trkpt>
      <trkpt lat="43.223838" lon="-6.806245">
        <ele>944.073</ele>
        <time>1999-07-24T12:54:10Z</time>
      </trkpt>
      <trkpt lat="43.223852" lon="-6.806245">
        <ele>944.284</ele>
        <time>1999-07-24T12:54:11Z</time>
      </trkpt>
      <trkpt lat="43.223899" lon="-6.806242">
        <ele>945.255</ele>
        <time>1999-07-24T12:54:14Z</time>
      </trkpt>
      <trkpt lat="43.223911" lon="-6.806254">
        <ele>945.449</ele>
        <time>1999-07-24T12:54:15Z</time>
      </trkpt>
      <trkpt lat="43.223953" lon="-6.806298">
        <ele>946.218</ele>
        <time>1999-07-24T12:54:18Z</time>
      </trkpt>
      <trkpt lat="43.223966" lon="-6.806295">
        <ele>946.434</ele>
        <time>1999-07-24T12:54:19Z</time>
      </trkpt>
      <trkpt lat="43.223977" lon="-6.806289">
        <ele>946.886</ele>
        <time>1999-07-24T12:54:20Z</time>
      </trkpt>
      <trkpt lat="43.223991" lon="-6.806288">
        <ele>947.012</ele>
        <time>1999-07-24T12:54:21Z</time>
      </trkpt>
      <trkpt lat="43.224004" lon="-6.806294">
        <ele>947.232</ele>
        <time>1999-07-24T12:54:22Z</time>
      </trkpt>
      <trkpt lat="43.224024" lon="-6.806327">
        <ele>947.805</ele>
        <time>1999-07-24T12:54:24Z</time>
      </trkpt>
      <trkpt lat="43.224063" lon="-6.806351">
        <ele>948.608</ele>
        <time>1999-07-24T12:54:27Z</time>
      </trkpt>
      <trkpt lat="43.224077" lon="-6.806346">
        <ele>948.864</ele>
        <time>1999-07-24T12:54:28Z</time>
      </trkpt>
      <trkpt lat="43.224120" lon="-6.806357">
        <ele>949.610</ele>
        <time>1999-07-24T12:54:31Z</time>
      </trkpt>
      <trkpt lat="43.224143" lon="-6.806376">
        <ele>950.051</ele>
        <time>1999-07-24T12:54:33Z</time>
      </trkpt>
      <trkpt lat="43.224188" lon="-6.806399">
        <ele>950.892</ele>
        <time>1999-07-24T12:54:36Z</time>
      </trkpt>
      <trkpt lat="43.224226" lon="-6.806452">
        <ele>951.646</ele>
        <time>1999-07-24T12:54:39Z</time>
      </trkpt>
      <trkpt lat="43.224243" lon="-6.806454">
        <ele>951.865</ele>
        <time>1999-07-24T12:54:40Z</time>
      </trkpt>
      <trkpt lat="43.224294" lon="-6.806442">
        <ele>952.641</ele>
        <time>1999-07-24T12:54:43Z</time>
      </trkpt>
      <trkpt lat="43.224321" lon="-6.806466">
        <ele>953.073</ele>
        <time>1999-07-24T12:54:45Z</time>
      </trkpt>
      <trkpt lat="43.224350" lon="-6.806492">
        <ele>953.438</ele>
        <time>1999-07-24T12:54:47Z</time>
      </trkpt>
      <trkpt lat="43.224401" lon="-6.806482">
        <ele>954.070</ele>
        <time>1999-07-24T12:54:50Z</time>
      </trkpt>
      <trkpt lat="43.224436" lon="-6.806481">
        <ele>954.417</ele>
        <time>1999-07-24T12:54:52Z</time>
      </trkpt>
      <trkpt lat="43.224476" lon="-6.806527">
        <ele>955.208</ele>
        <time>1999-07-24T12:54:55Z</time>
      </trkpt>
      <trkpt lat="43.224507" lon="-6.806535">
        <ele>955.626</ele>
        <time>1999-07-24T12:54:57Z</time>
      </trkpt>
      <trkpt lat="43.224560" lon="-6.806538">
        <ele>956.632</ele>
        <time>1999-07-24T12:55:00Z</time>
      </trkpt>
      <trkpt lat="43.224585" lon="-6.806575">
        <ele>957.013</ele>
        <time>1999-07-24T12:55:02Z</time>
      </trkpt>
      <trkpt lat="43.224634" lon="-6.806607">
        <ele>957.894</ele>
        <time>1999-07-24T12:55:05Z</time>
      </trkpt>
      <trkpt lat="43.224690" lon="-6.806631">
        <ele>958.618</ele>
        <time>1999-07-24T12:55:08Z</time>
      </trkpt>
      <trkpt lat="43.224696" lon="-6.806654">
        <ele>958.817</ele>
        <time>1999-07-24T12:55:09Z</time>
      </trkpt>
      <trkpt lat="43.224733" lon="-6.806724">
        <ele>959.873</ele>
        <time>1999-07-24T12:55:13Z</time>
      </trkpt>
      <trkpt lat="43.224747" lon="-6.806729">
        <ele>960.065</ele>
        <time>1999-07-24T12:55:14Z</time>
      </trkpt>
      <trkpt lat="43.224773" lon="-6.806752">
        <ele>960.615</ele>
        <time>1999-07-24T12:55:16Z</time>
      </trkpt>
      <trkpt lat="43.224788" lon="-6.806794">
        <ele>961.065</ele>
        <time>1999-07-24T12:55:18Z</time>
      </trkpt>
      <trkpt lat="43.224797" lon="-6.806815">
        <ele>961.411</ele>
        <time>1999-07-24T12:55:19Z</time>
      </trkpt>
      <trkpt lat="43.224810" lon="-6.806828">
        <ele>961.608</ele>
        <time>1999-07-24T12:55:20Z</time>
      </trkpt>
      <trkpt lat="43.224852" lon="-6.806854">
        <ele>962.234</ele>
        <time>1999-07-24T12:55:23Z</time>
      </trkpt>
      <trkpt lat="43.224862" lon="-6.806871">
        <ele>962.460</ele>
        <time>1999-07-24T12:55:24Z</time>
      </trkpt>
      <trkpt lat="43.224903" lon="-6.806943">
        <ele>963.261</ele>
        <time>1999-07-24T12:55:28Z</time>
      </trkpt>
      <trkpt lat="43.224919" lon="-6.806945">
        <ele>963.672</ele>
        <time>1999-07-24T12:55:29Z</time>
      </trkpt>
      <trkpt lat="43.224972" lon="-6.806953">
        <ele>964.266</ele>
        <time>1999-07-24T12:55:32Z</time>
      </trkpt>
      <trkpt lat="43.224983" lon="-6.806971">
        <ele>964.625</ele>
        <time>1999-07-24T12:55:33Z</time>
      </trkpt>
      <trkpt lat="43.224993" lon="-6.806992">
        <ele>964.841</ele>
        <time>1999-07-24T12:55:34Z</time>
      </trkpt>
      <trkpt lat="43.225052" lon="-6.806990">
        <ele>965.693</ele>
        <time>1999-07-24T12:55:38Z</time>
      </trkpt>
      <trkpt lat="43.225069" lon="-6.806988">
        <ele>966.077</ele>
        <time>1999-07-24T12:55:39Z</time>
      </trkpt>
      <trkpt lat="43.225124" lon="-6.807027">
        <ele>967.061</ele>
        <time>1999-07-24T12:55:43Z</time>
      </trkpt>
      <trkpt lat="43.225139" lon="-6.807021">
        <ele>967.027</ele>
        <time>1999-07-24T12:55:44Z</time>
      </trkpt>
      <trkpt lat="43.225183" lon="-6.806980">
        <ele>967.608</ele>
        <time>1999-07-24T12:55:47Z</time>
      </trkpt>
      <trkpt lat="43.225214" lon="-6.806975">
        <ele>968.220</ele>
        <time>1999-07-24T12:55:49Z</time>
      </trkpt>
      <trkpt lat="43.225264" lon="-6.806996">
        <ele>969.086</ele>
        <time>1999-07-24T12:55:52Z</time>
      </trkpt>
      <trkpt lat="43.225279" lon="-6.806988">
        <ele>969.447</ele>
        <time>1999-07-24T12:55:53Z</time>
      </trkpt>
      <trkpt lat="43.225339" lon="-6.806950">
        <ele>970.498</ele>
        <time>1999-07-24T12:55:57Z</time>
      </trkpt>
      <trkpt lat="43.225354" lon="-6.806943">
        <ele>970.652</ele>
        <time>1999-07-24T12:55:58Z</time>
      </trkpt>
      <trkpt lat="43.225401" lon="-6.806935">
        <ele>971.421</ele>
        <time>1999-07-24T12:56:01Z</time>
      </trkpt>
      <trkpt lat="43.225438" lon="-6.806934">
        <ele>971.817</ele>
        <time>1999-07-24T12:56:03Z</time>
      </trkpt>
      <trkpt lat="43.225452" lon="-6.806942">
        <ele>972.099</ele>
        <time>1999-07-24T12:56:04Z</time>
      </trkpt>
      <trkpt lat="43.225519" lon="-6.806944">
        <ele>973.029</ele>
        <time>1999-07-24T12:56:08Z</time>
      </trkpt>
      <trkpt lat="43.225614" lon="-6.806925">
        <ele>973.800</ele>
        <time>1999-07-24T12:56:13Z</time>
      </trkpt>
      <trkpt lat="43.225634" lon="-6.806925">
        <ele>974.020</ele>
        <time>1999-07-24T12:56:14Z</time>
      </trkpt>
      <trkpt lat="43.225710" lon="-6.806925">
        <ele>974.808</ele>
        <time>1999-07-24T12:56:18Z</time>
      </trkpt>
      <trkpt lat="43.225757" lon="-6.806926">
        <ele>975.495</ele>
        <time>1999-07-24T12:56:21Z</time>
      </trkpt>
      <trkpt lat="43.225793" lon="-6.806923">
        <ele>976.081</ele>
        <time>1999-07-24T12:56:23Z</time>
      </trkpt>
      <trkpt lat="43.225876" lon="-6.806949">
        <ele>977.242</ele>
        <time>1999-07-24T12:56:28Z</time>
      </trkpt>
      <trkpt lat="43.225941" lon="-6.806996">
        <ele>978.453</ele>
        <time>1999-07-24T12:56:32Z</time>
      </trkpt>
      <trkpt lat="43.225975" lon="-6.806990">
        <ele>979.087</ele>
        <time>1999-07-24T12:56:34Z</time>
      </trkpt>
      <trkpt lat="43.226027" lon="-6.806986">
        <ele>979.496</ele>
        <time>1999-07-24T12:56:37Z</time>
      </trkpt>
      <trkpt lat="43.226091" lon="-6.807030">
        <ele>980.422</ele>
        <time>1999-07-24T12:56:41Z</time>
      </trkpt>
      <trkpt lat="43.226106" lon="-6.807043">
        <ele>980.634</ele>
        <time>1999-07-24T12:56:42Z</time>
      </trkpt>
      <trkpt lat="43.226137" lon="-6.807058">
        <ele>981.215</ele>
        <time>1999-07-24T12:56:44Z</time>
      </trkpt>
      <trkpt lat="43.226168" lon="-6.807051">
        <ele>981.665</ele>
        <time>1999-07-24T12:56:46Z</time>
      </trkpt>
      <trkpt lat="43.226183" lon="-6.807048">
        <ele>982.011</ele>
        <time>1999-07-24T12:56:47Z</time>
      </trkpt>
      <trkpt lat="43.226223" lon="-6.807063">
        <ele>982.808</ele>
        <time>1999-07-24T12:56:50Z</time>
      </trkpt>
      <trkpt lat="43.226266" lon="-6.807102">
        <ele>983.494</ele>
        <time>1999-07-24T12:56:53Z</time>
      </trkpt>
      <trkpt lat="43.226297" lon="-6.807117">
        <ele>983.870</ele>
        <time>1999-07-24T12:56:55Z</time>
      </trkpt>
      <trkpt lat="43.226350" lon="-6.807098">
        <ele>984.461</ele>
        <time>1999-07-24T12:56:58Z</time>
      </trkpt>
      <trkpt lat="43.226382" lon="-6.807092">
        <ele>985.072</ele>
        <time>1999-07-24T12:57:00Z</time>
      </trkpt>
      <trkpt lat="43.226430" lon="-6.807124">
        <ele>985.636</ele>
        <time>1999-07-24T12:57:03Z</time>
      </trkpt>
      <trkpt lat="43.226465" lon="-6.807131">
        <ele>986.025</ele>
        <time>1999-07-24T12:57:05Z</time>
      </trkpt>
      <trkpt lat="43.226515" lon="-6.807116">
        <ele>986.681</ele>
        <time>1999-07-24T12:57:08Z</time>
      </trkpt>
      <trkpt lat="43.226566" lon="-6.807100">
        <ele>987.243</ele>
        <time>1999-07-24T12:57:11Z</time>
      </trkpt>
      <trkpt lat="43.226626" lon="-6.807122">
        <ele>988.282</ele>
        <time>1999-07-24T12:57:15Z</time>
      </trkpt>
      <trkpt lat="43.226642" lon="-6.807128">
        <ele>988.443</ele>
        <time>1999-07-24T12:57:16Z</time>
      </trkpt>
      <trkpt lat="43.226660" lon="-6.807126">
        <ele>988.817</ele>
        <time>1999-07-24T12:57:17Z</time>
      </trkpt>
      <trkpt lat="43.226710" lon="-6.807113">
        <ele>989.608</ele>
        <time>1999-07-24T12:57:20Z</time>
      </trkpt>
      <trkpt lat="43.226778" lon="-6.807140">
        <ele>990.671</ele>
        <time>1999-07-24T12:57:24Z</time>
      </trkpt>
      <trkpt lat="43.226810" lon="-6.807142">
        <ele>991.487</ele>
        <time>1999-07-24T12:57:26Z</time>
      </trkpt>
      <trkpt lat="43.226827" lon="-6.807141">
        <ele>991.638</ele>
        <time>1999-07-24T12:57:27Z</time>
      </trkpt>
      <trkpt lat="43.226871" lon="-6.807174">
        <ele>992.639</ele>
        <time>1999-07-24T12:57:30Z</time>
      </trkpt>
      <trkpt lat="43.226881" lon="-6.807196">
        <ele>993.043</ele>
        <time>1999-07-24T12:57:31Z</time>
      </trkpt>
      <trkpt lat="43.226903" lon="-6.807322">
        <ele>994.092</ele>
        <time>1999-07-24T12:57:36Z</time>
      </trkpt>
      <trkpt lat="43.226895" lon="-6.807376">
        <ele>994.458</ele>
        <time>1999-07-24T12:57:38Z</time>
      </trkpt>
      <trkpt lat="43.226872" lon="-6.807478">
        <ele>995.210</ele>
        <time>1999-07-24T12:57:42Z</time>
      </trkpt>
      <trkpt lat="43.226867" lon="-6.807528">
        <ele>995.654</ele>
        <time>1999-07-24T12:57:44Z</time>
      </trkpt>
      <trkpt lat="43.226826" lon="-6.807632">
        <ele>996.256</ele>
        <time>1999-07-24T12:57:49Z</time>
      </trkpt>
      <trkpt lat="43.226811" lon="-6.807646">
        <ele>996.411</ele>
        <time>1999-07-24T12:57:50Z</time>
      </trkpt>
      <trkpt lat="43.226758" lon="-6.807761">
        <ele>997.608</ele>
        <time>1999-07-24T12:57:55Z</time>
      </trkpt>
      <trkpt lat="43.226752" lon="-6.807787">
        <ele>997.898</ele>
        <time>1999-07-24T12:57:56Z</time>
      </trkpt>
      <trkpt lat="43.226701" lon="-6.807907">
        <ele>998.864</ele>
        <time>1999-07-24T12:58:01Z</time>
      </trkpt>
      <trkpt lat="43.226684" lon="-6.807976">
        <ele>999.425</ele>
        <time>1999-07-24T12:58:04Z</time>
      </trkpt>
      <trkpt lat="43.226673" lon="-6.808023">
        <ele>999.866</ele>
        <time>1999-07-24T12:58:06Z</time>
      </trkpt>
      <trkpt lat="43.226641" lon="-6.808108">
        <ele>1000.880</ele>
        <time>1999-07-24T12:58:10Z</time>
      </trkpt>
      <trkpt lat="43.226617" lon="-6.808172">
        <ele>1001.649</ele>
        <time>1999-07-24T12:58:13Z</time>
      </trkpt>
      <trkpt lat="43.226603" lon="-6.808213">
        <ele>1002.045</ele>
        <time>1999-07-24T12:58:15Z</time>
      </trkpt>
      <trkpt lat="43.226556" lon="-6.808312">
        <ele>1003.097</ele>
        <time>1999-07-24T12:58:20Z</time>
      </trkpt>
      <trkpt lat="43.226552" lon="-6.808338">
        <ele>1003.266</ele>
        <time>1999-07-24T12:58:21Z</time>
      </trkpt>
      <trkpt lat="43.226547" lon="-6.808411">
        <ele>1004.029</ele>
        <time>1999-07-24T12:58:24Z</time>
      </trkpt>
      <trkpt lat="43.226511" lon="-6.808490">
        <ele>1004.821</ele>
        <time>1999-07-24T12:58:28Z</time>
      </trkpt>
      <trkpt lat="43.226499" lon="-6.808507">
        <ele>1005.008</ele>
        <time>1999-07-24T12:58:29Z</time>
      </trkpt>
      <trkpt lat="43.226438" lon="-6.808627">
        <ele>1006.259</ele>
        <time>1999-07-24T12:58:35Z</time>
      </trkpt>
      <trkpt lat="43.226391" lon="-6.808747">
        <ele>1007.235</ele>
        <time>1999-07-24T12:58:41Z</time>
      </trkpt>
      <trkpt lat="43.226379" lon="-6.808766">
        <ele>1007.476</ele>
        <time>1999-07-24T12:58:42Z</time>
      </trkpt>
      <trkpt lat="43.226334" lon="-6.808861">
        <ele>1008.297</ele>
        <time>1999-07-24T12:58:47Z</time>
      </trkpt>
      <trkpt lat="43.226313" lon="-6.808899">
        <ele>1008.631</ele>
        <time>1999-07-24T12:58:49Z</time>
      </trkpt>
      <trkpt lat="43.226291" lon="-6.808965">
        <ele>1009.420</ele>
        <time>1999-07-24T12:58:52Z</time>
      </trkpt>
      <trkpt lat="43.226262" lon="-6.809032">
        <ele>1010.236</ele>
        <time>1999-07-24T12:58:55Z</time>
      </trkpt>
      <trkpt lat="43.226252" lon="-6.809054">
        <ele>1010.618</ele>
        <time>1999-07-24T12:58:56Z</time>
      </trkpt>
      <trkpt lat="43.226224" lon="-6.809173">
        <ele>1011.625</ele>
        <time>1999-07-24T12:59:01Z</time>
      </trkpt>
      <trkpt lat="43.226217" lon="-6.809194">
        <ele>1011.826</ele>
        <time>1999-07-24T12:59:02Z</time>
      </trkpt>
      <trkpt lat="43.226203" lon="-6.809283">
        <ele>1012.608</ele>
        <time>1999-07-24T12:59:06Z</time>
      </trkpt>
      <trkpt lat="43.226198" lon="-6.809331">
        <ele>1012.808</ele>
        <time>1999-07-24T12:59:08Z</time>
      </trkpt>
      <trkpt lat="43.226194" lon="-6.809452">
        <ele>1013.825</ele>
        <time>1999-07-24T12:59:13Z</time>
      </trkpt>
      <trkpt lat="43.226193" lon="-6.809533">
        <ele>1014.281</ele>
        <time>1999-07-24T12:59:16Z</time>
      </trkpt>
      <trkpt lat="43.226200" lon="-6.809673">
        <ele>1014.872</ele>
        <time>1999-07-24T12:59:21Z</time>
      </trkpt>
      <trkpt lat="43.226205" lon="-6.809753">
        <ele>1015.413</ele>
        <time>1999-07-24T12:59:24Z</time>
      </trkpt>
      <trkpt lat="43.226201" lon="-6.809836">
        <ele>1015.857</ele>
        <time>1999-07-24T12:59:27Z</time>
      </trkpt>
      <trkpt lat="43.226191" lon="-6.809975">
        <ele>1016.446</ele>
        <time>1999-07-24T12:59:32Z</time>
      </trkpt>
      <trkpt lat="43.226182" lon="-6.810064">
        <ele>1017.232</ele>
        <time>1999-07-24T12:59:35Z</time>
      </trkpt>
      <trkpt lat="43.226168" lon="-6.810181">
        <ele>1017.634</ele>
        <time>1999-07-24T12:59:39Z</time>
      </trkpt>
      <trkpt lat="43.226154" lon="-6.810252">
        <ele>1018.296</ele>
        <time>1999-07-24T12:59:41Z</time>
      </trkpt>
      <trkpt lat="43.226136" lon="-6.810401">
        <ele>1018.431</ele>
        <time>1999-07-24T12:59:45Z</time>
      </trkpt>
      <trkpt lat="43.226090" lon="-6.810616">
        <ele>1019.424</ele>
        <time>1999-07-24T12:59:51Z</time>
      </trkpt>
      <trkpt lat="43.226072" lon="-6.810722">
        <ele>1020.008</ele>
        <time>1999-07-24T12:59:54Z</time>
      </trkpt>
      <trkpt lat="43.226032" lon="-6.810895">
        <ele>1020.612</ele>
        <time>1999-07-24T12:59:59Z</time>
      </trkpt>
      <trkpt lat="43.226013" lon="-6.810966">
        <ele>1020.818</ele>
        <time>1999-07-24T13:00:01Z</time>
      </trkpt>
      <trkpt lat="43.225942" lon="-6.811188">
        <ele>1021.669</ele>
        <time>1999-07-24T13:00:07Z</time>
      </trkpt>
      <trkpt lat="43.225901" lon="-6.811328">
        <ele>1022.240</ele>
        <time>1999-07-24T13:00:11Z</time>
      </trkpt>
      <trkpt lat="43.225845" lon="-6.811519">
        <ele>1022.874</ele>
        <time>1999-07-24T13:00:17Z</time>
      </trkpt>
      <trkpt lat="43.225838" lon="-6.811546">
        <ele>1023.223</ele>
        <time>1999-07-24T13:00:18Z</time>
      </trkpt>
      <trkpt lat="43.225783" lon="-6.811722">
        <ele>1023.489</ele>
        <time>1999-07-24T13:00:25Z</time>
      </trkpt>
      <trkpt lat="43.225749" lon="-6.811814">
        <ele>1023.261</ele>
        <time>1999-07-24T13:00:30Z</time>
      </trkpt>
      <trkpt lat="43.225739" lon="-6.811853">
        <ele>1023.213</ele>
        <time>1999-07-24T13:00:32Z</time>
      </trkpt>
      <trkpt lat="43.225689" lon="-6.812025">
        <ele>1023.243</ele>
        <time>1999-07-24T13:00:37Z</time>
      </trkpt>
      <trkpt lat="43.225660" lon="-6.812110">
        <ele>1023.207</ele>
        <time>1999-07-24T13:00:39Z</time>
      </trkpt>
      <trkpt lat="43.225631" lon="-6.812204">
        <ele>1023.208</ele>
        <time>1999-07-24T13:00:41Z</time>
      </trkpt>
      <trkpt lat="43.225582" lon="-6.812360">
        <ele>1023.424</ele>
        <time>1999-07-24T13:00:44Z</time>
      </trkpt>
      <trkpt lat="43.225420" lon="-6.812817">
        <ele>1023.650</ele>
        <time>1999-07-24T13:00:52Z</time>
      </trkpt>
      <trkpt lat="43.225270" lon="-6.813208">
        <ele>1023.671</ele>
        <time>1999-07-24T13:00:58Z</time>
      </trkpt>
      <trkpt lat="43.225248" lon="-6.813275">
        <ele>1023.432</ele>
        <time>1999-07-24T13:00:59Z</time>
      </trkpt>
      <trkpt lat="43.225190" lon="-6.813486">
        <ele>1023.486</ele>
        <time>1999-07-24T13:01:02Z</time>
      </trkpt>
      <trkpt lat="43.225124" lon="-6.813690">
        <ele>1022.465</ele>
        <time>1999-07-24T13:01:05Z</time>
      </trkpt>
      <trkpt lat="43.225103" lon="-6.813756">
        <ele>1022.291</ele>
        <time>1999-07-24T13:01:06Z</time>
      </trkpt>
      <trkpt lat="43.225022" lon="-6.814028">
        <ele>1021.483</ele>
        <time>1999-07-24T13:01:10Z</time>
      </trkpt>
      <trkpt lat="43.224893" lon="-6.814468">
        <ele>1020.419</ele>
        <time>1999-07-24T13:01:16Z</time>
      </trkpt>
      <trkpt lat="43.224870" lon="-6.814543">
        <ele>1020.409</ele>
        <time>1999-07-24T13:01:17Z</time>
      </trkpt>
      <trkpt lat="43.224677" lon="-6.815133">
        <ele>1019.619</ele>
        <time>1999-07-24T13:01:25Z</time>
      </trkpt>
      <trkpt lat="43.224596" lon="-6.815347">
        <ele>1019.608</ele>
        <time>1999-07-24T13:01:28Z</time>
      </trkpt>
      <trkpt lat="43.224545" lon="-6.815494">
        <ele>1019.234</ele>
        <time>1999-07-24T13:01:30Z</time>
      </trkpt>
      <trkpt lat="43.224437" lon="-6.815791">
        <ele>1018.680</ele>
        <time>1999-07-24T13:01:34Z</time>
      </trkpt>
      <trkpt lat="43.224379" lon="-6.815942">
        <ele>1018.231</ele>
        <time>1999-07-24T13:01:36Z</time>
      </trkpt>
      <trkpt lat="43.224294" lon="-6.816169">
        <ele>1017.242</ele>
        <time>1999-07-24T13:01:39Z</time>
      </trkpt>
      <trkpt lat="43.224200" lon="-6.816397">
        <ele>1016.696</ele>
        <time>1999-07-24T13:01:42Z</time>
      </trkpt>
      <trkpt lat="43.224137" lon="-6.816553">
        <ele>1016.435</ele>
        <time>1999-07-24T13:01:44Z</time>
      </trkpt>
      <trkpt lat="43.224106" lon="-6.816640">
        <ele>1016.291</ele>
        <time>1999-07-24T13:01:45Z</time>
      </trkpt>
      <trkpt lat="43.224085" lon="-6.816734">
        <ele>1016.023</ele>
        <time>1999-07-24T13:01:46Z</time>
      </trkpt>
      <trkpt lat="43.224079" lon="-6.816835">
        <ele>1016.026</ele>
        <time>1999-07-24T13:01:47Z</time>
      </trkpt>
      <trkpt lat="43.224103" lon="-6.817059">
        <ele>1015.247</ele>
        <time>1999-07-24T13:01:49Z</time>
      </trkpt>
      <trkpt lat="43.224126" lon="-6.817180">
        <ele>1015.011</ele>
        <time>1999-07-24T13:01:50Z</time>
      </trkpt>
      <trkpt lat="43.224153" lon="-6.817307">
        <ele>1014.608</ele>
        <time>1999-07-24T13:01:51Z</time>
      </trkpt>
      <trkpt lat="43.224244" lon="-6.817827">
        <ele>1013.435</ele>
        <time>1999-07-24T13:01:55Z</time>
      </trkpt>
      <trkpt lat="43.224250" lon="-6.817925">
        <ele>1012.811</ele>
        <time>1999-07-24T13:01:56Z</time>
      </trkpt>
      <trkpt lat="43.224251" lon="-6.818006">
        <ele>1012.462</ele>
        <time>1999-07-24T13:01:57Z</time>
      </trkpt>
      <trkpt lat="43.224251" lon="-6.818067">
        <ele>1011.873</ele>
        <time>1999-07-24T13:01:58Z</time>
      </trkpt>
      <trkpt lat="43.224253" lon="-6.818120">
        <ele>1011.247</ele>
        <time>1999-07-24T13:01:59Z</time>
      </trkpt>
      <trkpt lat="43.224261" lon="-6.818173">
        <ele>1010.676</ele>
        <time>1999-07-24T13:02:00Z</time>
      </trkpt>
      <trkpt lat="43.224274" lon="-6.818237">
        <ele>1009.882</ele>
        <time>1999-07-24T13:02:01Z</time>
      </trkpt>
      <trkpt lat="43.224295" lon="-6.818312">
        <ele>1008.664</ele>
        <time>1999-07-24T13:02:02Z</time>
      </trkpt>
      <trkpt lat="43.224319" lon="-6.818401">
        <ele>1007.015</ele>
        <time>1999-07-24T13:02:03Z</time>
      </trkpt>
      <trkpt lat="43.224345" lon="-6.818501">
        <ele>1005.265</ele>
        <time>1999-07-24T13:02:04Z</time>
      </trkpt>
      <trkpt lat="43.224371" lon="-6.818614">
        <ele>1003.611</ele>
        <time>1999-07-24T13:02:05Z</time>
      </trkpt>
      <trkpt lat="43.224394" lon="-6.818739">
        <ele>1002.208</ele>
        <time>1999-07-24T13:02:06Z</time>
      </trkpt>
      <trkpt lat="43.224421" lon="-6.818873">
        <ele>1001.044</ele>
        <time>1999-07-24T13:02:07Z</time>
      </trkpt>
      <trkpt lat="43.224455" lon="-6.819015">
        <ele>1000.260</ele>
        <time>1999-07-24T13:02:08Z</time>
      </trkpt>
      <trkpt lat="43.224506" lon="-6.819155">
        <ele>999.661</ele>
        <time>1999-07-24T13:02:09Z</time>
      </trkpt>
      <trkpt lat="43.224573" lon="-6.819293">
        <ele>998.612</ele>
        <time>1999-07-24T13:02:10Z</time>
      </trkpt>
      <trkpt lat="43.224719" lon="-6.819541">
        <ele>997.446</ele>
        <time>1999-07-24T13:02:12Z</time>
      </trkpt>
      <trkpt lat="43.224841" lon="-6.819743">
        <ele>996.025</ele>
        <time>1999-07-24T13:02:14Z</time>
      </trkpt>
      <trkpt lat="43.224880" lon="-6.819847">
        <ele>995.061</ele>
        <time>1999-07-24T13:02:15Z</time>
      </trkpt>
      <trkpt lat="43.224909" lon="-6.819952">
        <ele>994.293</ele>
        <time>1999-07-24T13:02:16Z</time>
      </trkpt>
      <trkpt lat="43.224955" lon="-6.820120">
        <ele>992.453</ele>
        <time>1999-07-24T13:02:18Z</time>
      </trkpt>
      <trkpt lat="43.224976" lon="-6.820180">
        <ele>991.004</ele>
        <time>1999-07-24T13:02:19Z</time>
      </trkpt>
      <trkpt lat="43.225000" lon="-6.820241">
        <ele>989.614</ele>
        <time>1999-07-24T13:02:20Z</time>
      </trkpt>
      <trkpt lat="43.225028" lon="-6.820306">
        <ele>988.208</ele>
        <time>1999-07-24T13:02:21Z</time>
      </trkpt>
      <trkpt lat="43.225054" lon="-6.820381">
        <ele>986.438</ele>
        <time>1999-07-24T13:02:22Z</time>
      </trkpt>
      <trkpt lat="43.225081" lon="-6.820464">
        <ele>985.044</ele>
        <time>1999-07-24T13:02:23Z</time>
      </trkpt>
      <trkpt lat="43.225105" lon="-6.820558">
        <ele>983.625</ele>
        <time>1999-07-24T13:02:24Z</time>
      </trkpt>
      <trkpt lat="43.225120" lon="-6.820655">
        <ele>982.276</ele>
        <time>1999-07-24T13:02:25Z</time>
      </trkpt>
      <trkpt lat="43.225129" lon="-6.820740">
        <ele>981.030</ele>
        <time>1999-07-24T13:02:26Z</time>
      </trkpt>
      <trkpt lat="43.225134" lon="-6.820812">
        <ele>979.869</ele>
        <time>1999-07-24T13:02:27Z</time>
      </trkpt>
      <trkpt lat="43.225139" lon="-6.820876">
        <ele>978.855</ele>
        <time>1999-07-24T13:02:28Z</time>
      </trkpt>
      <trkpt lat="43.225136" lon="-6.821000">
        <ele>977.677</ele>
        <time>1999-07-24T13:02:30Z</time>
      </trkpt>
      <trkpt lat="43.225112" lon="-6.821108">
        <ele>976.495</ele>
        <time>1999-07-24T13:02:32Z</time>
      </trkpt>
      <trkpt lat="43.225081" lon="-6.821199">
        <ele>974.649</ele>
        <time>1999-07-24T13:02:34Z</time>
      </trkpt>
      <trkpt lat="43.225058" lon="-6.821290">
        <ele>972.623</ele>
        <time>1999-07-24T13:02:36Z</time>
      </trkpt>
      <trkpt lat="43.225048" lon="-6.821381">
        <ele>970.608</ele>
        <time>1999-07-24T13:02:38Z</time>
      </trkpt>
      <trkpt lat="43.225027" lon="-6.821513">
        <ele>969.052</ele>
        <time>1999-07-24T13:02:41Z</time>
      </trkpt>
      <trkpt lat="43.225003" lon="-6.821603">
        <ele>968.058</ele>
        <time>1999-07-24T13:02:43Z</time>
      </trkpt>
      <trkpt lat="43.224985" lon="-6.821642">
        <ele>967.649</ele>
        <time>1999-07-24T13:02:44Z</time>
      </trkpt>
      <trkpt lat="43.224932" lon="-6.821724">
        <ele>966.660</ele>
        <time>1999-07-24T13:02:46Z</time>
      </trkpt>
      <trkpt lat="43.224850" lon="-6.821879">
        <ele>965.454</ele>
        <time>1999-07-24T13:02:49Z</time>
      </trkpt>
      <trkpt lat="43.224816" lon="-6.821975">
        <ele>964.813</ele>
        <time>1999-07-24T13:02:52Z</time>
      </trkpt>
      <trkpt lat="43.224813" lon="-6.821971">
        <ele>964.469</ele>
        <time>1999-07-24T13:02:54Z</time>
      </trkpt>
      <trkpt lat="43.224817" lon="-6.822044">
        <ele>961.621</ele>
        <time>1999-07-24T13:04:19Z</time>
      </trkpt>
      <trkpt lat="43.224812" lon="-6.822060">
        <ele>961.652</ele>
        <time>1999-07-24T13:04:20Z</time>
      </trkpt>
      <trkpt lat="43.224800" lon="-6.822095">
        <ele>961.653</ele>
        <time>1999-07-24T13:04:23Z</time>
      </trkpt>
      <trkpt lat="43.224801" lon="-6.822095">
        <ele>961.608</ele>
        <time>1999-07-24T13:04:24Z</time>
      </trkpt>
      <trkpt lat="43.224801" lon="-6.822095">
        <ele>961.608</ele>
        <time>1999-07-24T13:04:25Z</time>
      </trkpt>
      <trkpt lat="43.224835" lon="-6.822177">
        <ele>961.658</ele>
        <time>1999-07-24T13:06:08Z</time>
      </trkpt>
      <trkpt lat="43.224843" lon="-6.822206">
        <ele>961.614</ele>
        <time>1999-07-24T13:06:09Z</time>
      </trkpt>
      <trkpt lat="43.224861" lon="-6.822324">
        <ele>961.675</ele>
        <time>1999-07-24T13:06:12Z</time>
      </trkpt>
      <trkpt lat="43.224867" lon="-6.822370">
        <ele>961.676</ele>
        <time>1999-07-24T13:06:13Z</time>
      </trkpt>
      <trkpt lat="43.224892" lon="-6.822521">
        <ele>961.680</ele>
        <time>1999-07-24T13:06:16Z</time>
      </trkpt>
      <trkpt lat="43.224908" lon="-6.822642">
        <ele>961.419</ele>
        <time>1999-07-24T13:06:18Z</time>
      </trkpt>
      <trkpt lat="43.224936" lon="-6.822771">
        <ele>961.415</ele>
        <time>1999-07-24T13:06:20Z</time>
      </trkpt>
      <trkpt lat="43.224986" lon="-6.822903">
        <ele>961.257</ele>
        <time>1999-07-24T13:06:23Z</time>
      </trkpt>
      <trkpt lat="43.224997" lon="-6.822944">
        <ele>960.877</ele>
        <time>1999-07-24T13:06:27Z</time>
      </trkpt>
      <trkpt lat="43.225046" lon="-6.823017">
        <ele>958.861</ele>
        <time>1999-07-24T13:06:35Z</time>
      </trkpt>
      <trkpt lat="43.225068" lon="-6.823094">
        <ele>958.627</ele>
        <time>1999-07-24T13:06:37Z</time>
      </trkpt>
      <trkpt lat="43.225071" lon="-6.823146">
        <ele>958.608</ele>
        <time>1999-07-24T13:06:40Z</time>
      </trkpt>
      <trkpt lat="43.225071" lon="-6.823146">
        <ele>958.630</ele>
        <time>1999-07-24T13:06:41Z</time>
      </trkpt>
      <trkpt lat="43.225083" lon="-6.823179">
        <ele>957.496</ele>
        <time>1999-07-24T13:08:02Z</time>
      </trkpt>
      <trkpt lat="43.225087" lon="-6.823224">
        <ele>957.497</ele>
        <time>1999-07-24T13:08:03Z</time>
      </trkpt>
      <trkpt lat="43.225070" lon="-6.823323">
        <ele>957.428</ele>
        <time>1999-07-24T13:08:05Z</time>
      </trkpt>
      <trkpt lat="43.225046" lon="-6.823361">
        <ele>957.462</ele>
        <time>1999-07-24T13:08:06Z</time>
      </trkpt>
      <trkpt lat="43.224950" lon="-6.823495">
        <ele>957.251</ele>
        <time>1999-07-24T13:08:09Z</time>
      </trkpt>
      <trkpt lat="43.224911" lon="-6.823540">
        <ele>957.287</ele>
        <time>1999-07-24T13:08:10Z</time>
      </trkpt>
      <trkpt lat="43.224864" lon="-6.823581">
        <ele>956.819</ele>
        <time>1999-07-24T13:08:11Z</time>
      </trkpt>
      <trkpt lat="43.224758" lon="-6.823656">
        <ele>956.441</ele>
        <time>1999-07-24T13:08:13Z</time>
      </trkpt>
      <trkpt lat="43.224676" lon="-6.823716">
        <ele>955.481</ele>
        <time>1999-07-24T13:08:15Z</time>
      </trkpt>
      <trkpt lat="43.224639" lon="-6.823740">
        <ele>954.809</ele>
        <time>1999-07-24T13:08:16Z</time>
      </trkpt>
      <trkpt lat="43.224564" lon="-6.823784">
        <ele>953.408</ele>
        <time>1999-07-24T13:08:18Z</time>
      </trkpt>
      <trkpt lat="43.224457" lon="-6.823853">
        <ele>951.697</ele>
        <time>1999-07-24T13:08:21Z</time>
      </trkpt>
      <trkpt lat="43.224385" lon="-6.823909">
        <ele>949.883</ele>
        <time>1999-07-24T13:08:23Z</time>
      </trkpt>
      <trkpt lat="43.224347" lon="-6.823938">
        <ele>948.444</ele>
        <time>1999-07-24T13:08:24Z</time>
      </trkpt>
      <trkpt lat="43.224313" lon="-6.824039">
        <ele>947.225</ele>
        <time>1999-07-24T13:08:26Z</time>
      </trkpt>
      <trkpt lat="43.224323" lon="-6.824173">
        <ele>945.889</ele>
        <time>1999-07-24T13:08:28Z</time>
      </trkpt>
      <trkpt lat="43.224346" lon="-6.824240">
        <ele>945.418</ele>
        <time>1999-07-24T13:08:29Z</time>
      </trkpt>
      <trkpt lat="43.224377" lon="-6.824309">
        <ele>944.664</ele>
        <time>1999-07-24T13:08:30Z</time>
      </trkpt>
      <trkpt lat="43.224409" lon="-6.824381">
        <ele>943.646</ele>
        <time>1999-07-24T13:08:31Z</time>
      </trkpt>
      <trkpt lat="43.224441" lon="-6.824449">
        <ele>943.025</ele>
        <time>1999-07-24T13:08:32Z</time>
      </trkpt>
      <trkpt lat="43.224492" lon="-6.824544">
        <ele>941.626</ele>
        <time>1999-07-24T13:08:34Z</time>
      </trkpt>
      <trkpt lat="43.224554" lon="-6.824617">
        <ele>940.008</ele>
        <time>1999-07-24T13:08:36Z</time>
      </trkpt>
      <trkpt lat="43.224635" lon="-6.824698">
        <ele>938.808</ele>
        <time>1999-07-24T13:08:38Z</time>
      </trkpt>
      <trkpt lat="43.224726" lon="-6.824787">
        <ele>937.415</ele>
        <time>1999-07-24T13:08:40Z</time>
      </trkpt>
      <trkpt lat="43.224775" lon="-6.824844">
        <ele>936.811</ele>
        <time>1999-07-24T13:08:41Z</time>
      </trkpt>
      <trkpt lat="43.224811" lon="-6.824916">
        <ele>936.232</ele>
        <time>1999-07-24T13:08:42Z</time>
      </trkpt>
      <trkpt lat="43.224863" lon="-6.825133">
        <ele>934.893</ele>
        <time>1999-07-24T13:08:45Z</time>
      </trkpt>
      <trkpt lat="43.224906" lon="-6.825250">
        <ele>933.487</ele>
        <time>1999-07-24T13:08:47Z</time>
      </trkpt>
      <trkpt lat="43.224933" lon="-6.825301">
        <ele>932.686</ele>
        <time>1999-07-24T13:08:48Z</time>
      </trkpt>
      <trkpt lat="43.224960" lon="-6.825351">
        <ele>931.642</ele>
        <time>1999-07-24T13:08:49Z</time>
      </trkpt>
      <trkpt lat="43.224989" lon="-6.825404">
        <ele>930.874</ele>
        <time>1999-07-24T13:08:50Z</time>
      </trkpt>
      <trkpt lat="43.225019" lon="-6.825455">
        <ele>930.291</ele>
        <time>1999-07-24T13:08:51Z</time>
      </trkpt>
      <trkpt lat="43.225076" lon="-6.825544">
        <ele>929.081</ele>
        <time>1999-07-24T13:08:53Z</time>
      </trkpt>
      <trkpt lat="43.225131" lon="-6.825644">
        <ele>927.419</ele>
        <time>1999-07-24T13:08:55Z</time>
      </trkpt>
      <trkpt lat="43.225185" lon="-6.825736">
        <ele>925.808</ele>
        <time>1999-07-24T13:08:57Z</time>
      </trkpt>
      <trkpt lat="43.225214" lon="-6.825779">
        <ele>925.062</ele>
        <time>1999-07-24T13:08:58Z</time>
      </trkpt>
      <trkpt lat="43.225245" lon="-6.825827">
        <ele>924.098</ele>
        <time>1999-07-24T13:08:59Z</time>
      </trkpt>
      <trkpt lat="43.225270" lon="-6.825886">
        <ele>923.239</ele>
        <time>1999-07-24T13:09:00Z</time>
      </trkpt>
      <trkpt lat="43.225293" lon="-6.825946">
        <ele>922.460</ele>
        <time>1999-07-24T13:09:01Z</time>
      </trkpt>
      <trkpt lat="43.225318" lon="-6.826004">
        <ele>921.484</ele>
        <time>1999-07-24T13:09:02Z</time>
      </trkpt>
      <trkpt lat="43.225344" lon="-6.826062">
        <ele>919.293</ele>
        <time>1999-07-24T13:09:03Z</time>
      </trkpt>
      <trkpt lat="43.225365" lon="-6.826119">
        <ele>918.049</ele>
        <time>1999-07-24T13:09:04Z</time>
      </trkpt>
      <trkpt lat="43.225381" lon="-6.826170">
        <ele>916.861</ele>
        <time>1999-07-24T13:09:05Z</time>
      </trkpt>
      <trkpt lat="43.225415" lon="-6.826247">
        <ele>915.057</ele>
        <time>1999-07-24T13:09:07Z</time>
      </trkpt>
      <trkpt lat="43.225431" lon="-6.826278">
        <ele>913.800</ele>
        <time>1999-07-24T13:09:08Z</time>
      </trkpt>
      <trkpt lat="43.225452" lon="-6.826302">
        <ele>912.820</ele>
        <time>1999-07-24T13:09:09Z</time>
      </trkpt>
      <trkpt lat="43.225471" lon="-6.826326">
        <ele>911.808</ele>
        <time>1999-07-24T13:09:10Z</time>
      </trkpt>
      <trkpt lat="43.225484" lon="-6.826350">
        <ele>910.848</ele>
        <time>1999-07-24T13:09:11Z</time>
      </trkpt>
      <trkpt lat="43.225489" lon="-6.826375">
        <ele>909.844</ele>
        <time>1999-07-24T13:09:12Z</time>
      </trkpt>
      <trkpt lat="43.225483" lon="-6.826403">
        <ele>908.875</ele>
        <time>1999-07-24T13:09:13Z</time>
      </trkpt>
      <trkpt lat="43.225466" lon="-6.826431">
        <ele>908.096</ele>
        <time>1999-07-24T13:09:14Z</time>
      </trkpt>
      <trkpt lat="43.225442" lon="-6.826459">
        <ele>907.460</ele>
        <time>1999-07-24T13:09:15Z</time>
      </trkpt>
      <trkpt lat="43.225412" lon="-6.826490">
        <ele>906.469</ele>
        <time>1999-07-24T13:09:16Z</time>
      </trkpt>
      <trkpt lat="43.225380" lon="-6.826524">
        <ele>905.615</ele>
        <time>1999-07-24T13:09:17Z</time>
      </trkpt>
      <trkpt lat="43.225314" lon="-6.826581">
        <ele>904.417</ele>
        <time>1999-07-24T13:09:19Z</time>
      </trkpt>
      <trkpt lat="43.225235" lon="-6.826638">
        <ele>903.462</ele>
        <time>1999-07-24T13:09:21Z</time>
      </trkpt>
      <trkpt lat="43.225120" lon="-6.826739">
        <ele>902.083</ele>
        <time>1999-07-24T13:09:24Z</time>
      </trkpt>
      <trkpt lat="43.225055" lon="-6.826800">
        <ele>900.811</ele>
        <time>1999-07-24T13:09:26Z</time>
      </trkpt>
      <trkpt lat="43.224990" lon="-6.826859">
        <ele>898.808</ele>
        <time>1999-07-24T13:09:28Z</time>
      </trkpt>
      <trkpt lat="43.224909" lon="-6.826917">
        <ele>897.619</ele>
        <time>1999-07-24T13:09:30Z</time>
      </trkpt>
      <trkpt lat="43.224870" lon="-6.826940">
        <ele>896.015</ele>
        <time>1999-07-24T13:09:31Z</time>
      </trkpt>
      <trkpt lat="43.224805" lon="-6.826990">
        <ele>894.256</ele>
        <time>1999-07-24T13:09:33Z</time>
      </trkpt>
      <trkpt lat="43.224773" lon="-6.827011">
        <ele>893.447</ele>
        <time>1999-07-24T13:09:34Z</time>
      </trkpt>
      <trkpt lat="43.224737" lon="-6.827032">
        <ele>892.681</ele>
        <time>1999-07-24T13:09:35Z</time>
      </trkpt>
      <trkpt lat="43.224661" lon="-6.827075">
        <ele>891.230</ele>
        <time>1999-07-24T13:09:37Z</time>
      </trkpt>
      <trkpt lat="43.224630" lon="-6.827099">
        <ele>890.266</ele>
        <time>1999-07-24T13:09:38Z</time>
      </trkpt>
      <trkpt lat="43.224593" lon="-6.827121">
        <ele>889.688</ele>
        <time>1999-07-24T13:09:39Z</time>
      </trkpt>
      <trkpt lat="43.224515" lon="-6.827167">
        <ele>888.211</ele>
        <time>1999-07-24T13:09:41Z</time>
      </trkpt>
      <trkpt lat="43.224442" lon="-6.827214">
        <ele>887.021</ele>
        <time>1999-07-24T13:09:43Z</time>
      </trkpt>
      <trkpt lat="43.224375" lon="-6.827248">
        <ele>885.603</ele>
        <time>1999-07-24T13:09:45Z</time>
      </trkpt>
      <trkpt lat="43.224313" lon="-6.827287">
        <ele>884.008</ele>
        <time>1999-07-24T13:09:47Z</time>
      </trkpt>
      <trkpt lat="43.224247" lon="-6.827332">
        <ele>882.884</ele>
        <time>1999-07-24T13:09:49Z</time>
      </trkpt>
      <trkpt lat="43.224172" lon="-6.827377">
        <ele>881.260</ele>
        <time>1999-07-24T13:09:51Z</time>
      </trkpt>
      <trkpt lat="43.224103" lon="-6.827417">
        <ele>879.681</ele>
        <time>1999-07-24T13:09:53Z</time>
      </trkpt>
      <trkpt lat="43.224073" lon="-6.827438">
        <ele>878.832</ele>
        <time>1999-07-24T13:09:54Z</time>
      </trkpt>
      <trkpt lat="43.224043" lon="-6.827458">
        <ele>878.266</ele>
        <time>1999-07-24T13:09:55Z</time>
      </trkpt>
      <trkpt lat="43.223990" lon="-6.827511">
        <ele>877.275</ele>
        <time>1999-07-24T13:09:57Z</time>
      </trkpt>
      <trkpt lat="43.223935" lon="-6.827560">
        <ele>875.091</ele>
        <time>1999-07-24T13:09:59Z</time>
      </trkpt>
      <trkpt lat="43.223876" lon="-6.827597">
        <ele>873.863</ele>
        <time>1999-07-24T13:10:01Z</time>
      </trkpt>
      <trkpt lat="43.223795" lon="-6.827655">
        <ele>872.661</ele>
        <time>1999-07-24T13:10:03Z</time>
      </trkpt>
      <trkpt lat="43.223716" lon="-6.827708">
        <ele>871.421</ele>
        <time>1999-07-24T13:10:05Z</time>
      </trkpt>
      <trkpt lat="43.223655" lon="-6.827750">
        <ele>870.413</ele>
        <time>1999-07-24T13:10:07Z</time>
      </trkpt>
      <trkpt lat="43.223630" lon="-6.827768">
        <ele>869.608</ele>
        <time>1999-07-24T13:10:08Z</time>
      </trkpt>
      <trkpt lat="43.223609" lon="-6.827787">
        <ele>869.249</ele>
        <time>1999-07-24T13:10:09Z</time>
      </trkpt>
      <trkpt lat="43.223588" lon="-6.827803">
        <ele>868.895</ele>
        <time>1999-07-24T13:10:10Z</time>
      </trkpt>
      <trkpt lat="43.223548" lon="-6.827826">
        <ele>867.486</ele>
        <time>1999-07-24T13:10:12Z</time>
      </trkpt>
      <trkpt lat="43.223514" lon="-6.827863">
        <ele>865.687</ele>
        <time>1999-07-24T13:10:14Z</time>
      </trkpt>
      <trkpt lat="43.223481" lon="-6.827891">
        <ele>864.011</ele>
        <time>1999-07-24T13:10:16Z</time>
      </trkpt>
      <trkpt lat="43.223459" lon="-6.827923">
        <ele>862.650</ele>
        <time>1999-07-24T13:10:18Z</time>
      </trkpt>
      <trkpt lat="43.223461" lon="-6.827945">
        <ele>862.056</ele>
        <time>1999-07-24T13:10:19Z</time>
      </trkpt>
      <trkpt lat="43.223490" lon="-6.828001">
        <ele>861.248</ele>
        <time>1999-07-24T13:10:21Z</time>
      </trkpt>
      <trkpt lat="43.223578" lon="-6.828091">
        <ele>860.279</ele>
        <time>1999-07-24T13:10:24Z</time>
      </trkpt>
      <trkpt lat="43.223606" lon="-6.828130">
        <ele>859.605</ele>
        <time>1999-07-24T13:10:25Z</time>
      </trkpt>
      <trkpt lat="43.223671" lon="-6.828208">
        <ele>858.225</ele>
        <time>1999-07-24T13:10:27Z</time>
      </trkpt>
      <trkpt lat="43.223751" lon="-6.828285">
        <ele>857.208</ele>
        <time>1999-07-24T13:10:29Z</time>
      </trkpt>
      <trkpt lat="43.223798" lon="-6.828323">
        <ele>856.680</ele>
        <time>1999-07-24T13:10:30Z</time>
      </trkpt>
      <trkpt lat="43.223849" lon="-6.828359">
        <ele>856.036</ele>
        <time>1999-07-24T13:10:31Z</time>
      </trkpt>
      <trkpt lat="43.223939" lon="-6.828440">
        <ele>854.417</ele>
        <time>1999-07-24T13:10:33Z</time>
      </trkpt>
      <trkpt lat="43.223975" lon="-6.828495">
        <ele>854.088</ele>
        <time>1999-07-24T13:10:34Z</time>
      </trkpt>
      <trkpt lat="43.224030" lon="-6.828591">
        <ele>852.832</ele>
        <time>1999-07-24T13:10:36Z</time>
      </trkpt>
      <trkpt lat="43.224085" lon="-6.828683">
        <ele>852.081</ele>
        <time>1999-07-24T13:10:38Z</time>
      </trkpt>
      <trkpt lat="43.224113" lon="-6.828738">
        <ele>851.457</ele>
        <time>1999-07-24T13:10:39Z</time>
      </trkpt>
      <trkpt lat="43.224196" lon="-6.828913">
        <ele>850.089</ele>
        <time>1999-07-24T13:10:42Z</time>
      </trkpt>
      <trkpt lat="43.224224" lon="-6.828964">
        <ele>849.249</ele>
        <time>1999-07-24T13:10:43Z</time>
      </trkpt>
      <trkpt lat="43.224250" lon="-6.829007">
        <ele>848.202</ele>
        <time>1999-07-24T13:10:44Z</time>
      </trkpt>
      <trkpt lat="43.224275" lon="-6.829042">
        <ele>847.222</ele>
        <time>1999-07-24T13:10:45Z</time>
      </trkpt>
      <trkpt lat="43.224285" lon="-6.829084">
        <ele>846.208</ele>
        <time>1999-07-24T13:10:46Z</time>
      </trkpt>
      <trkpt lat="43.224293" lon="-6.829121">
        <ele>845.437</ele>
        <time>1999-07-24T13:10:47Z</time>
      </trkpt>
      <trkpt lat="43.224291" lon="-6.829149">
        <ele>844.683</ele>
        <time>1999-07-24T13:10:48Z</time>
      </trkpt>
      <trkpt lat="43.224276" lon="-6.829168">
        <ele>843.834</ele>
        <time>1999-07-24T13:10:49Z</time>
      </trkpt>
      <trkpt lat="43.224241" lon="-6.829185">
        <ele>843.085</ele>
        <time>1999-07-24T13:10:50Z</time>
      </trkpt>
      <trkpt lat="43.224194" lon="-6.829204">
        <ele>842.229</ele>
        <time>1999-07-24T13:10:51Z</time>
      </trkpt>
      <trkpt lat="43.224078" lon="-6.829268">
        <ele>840.458</ele>
        <time>1999-07-24T13:10:53Z</time>
      </trkpt>
      <trkpt lat="43.223935" lon="-6.829373">
        <ele>837.874</ele>
        <time>1999-07-24T13:10:55Z</time>
      </trkpt>
      <trkpt lat="43.223765" lon="-6.829505">
        <ele>837.046</ele>
        <time>1999-07-24T13:10:57Z</time>
      </trkpt>
      <trkpt lat="43.223672" lon="-6.829583">
        <ele>836.445</ele>
        <time>1999-07-24T13:10:58Z</time>
      </trkpt>
      <trkpt lat="43.223399" lon="-6.829810">
        <ele>835.447</ele>
        <time>1999-07-24T13:11:01Z</time>
      </trkpt>
      <trkpt lat="43.223252" lon="-6.829939">
        <ele>834.211</ele>
        <time>1999-07-24T13:11:03Z</time>
      </trkpt>
      <trkpt lat="43.223122" lon="-6.830056">
        <ele>832.808</ele>
        <time>1999-07-24T13:11:05Z</time>
      </trkpt>
      <trkpt lat="43.222993" lon="-6.830181">
        <ele>831.457</ele>
        <time>1999-07-24T13:11:07Z</time>
      </trkpt>
      <trkpt lat="43.222922" lon="-6.830255">
        <ele>830.263</ele>
        <time>1999-07-24T13:11:08Z</time>
      </trkpt>
      <trkpt lat="43.222845" lon="-6.830338">
        <ele>828.284</ele>
        <time>1999-07-24T13:11:09Z</time>
      </trkpt>
      <trkpt lat="43.222758" lon="-6.830421">
        <ele>825.865</ele>
        <time>1999-07-24T13:11:10Z</time>
      </trkpt>
      <trkpt lat="43.222666" lon="-6.830514">
        <ele>823.869</ele>
        <time>1999-07-24T13:11:11Z</time>
      </trkpt>
      <trkpt lat="43.222573" lon="-6.830609">
        <ele>822.068</ele>
        <time>1999-07-24T13:11:12Z</time>
      </trkpt>
      <trkpt lat="43.222482" lon="-6.830702">
        <ele>820.444</ele>
        <time>1999-07-24T13:11:13Z</time>
      </trkpt>
      <trkpt lat="43.222399" lon="-6.830785">
        <ele>819.086</ele>
        <time>1999-07-24T13:11:14Z</time>
      </trkpt>
      <trkpt lat="43.222325" lon="-6.830851">
        <ele>818.084</ele>
        <time>1999-07-24T13:11:15Z</time>
      </trkpt>
      <trkpt lat="43.222192" lon="-6.830954">
        <ele>816.207</ele>
        <time>1999-07-24T13:11:17Z</time>
      </trkpt>
      <trkpt lat="43.222051" lon="-6.831066">
        <ele>814.217</ele>
        <time>1999-07-24T13:11:19Z</time>
      </trkpt>
      <trkpt lat="43.221973" lon="-6.831125">
        <ele>813.208</ele>
        <time>1999-07-24T13:11:20Z</time>
      </trkpt>
      <trkpt lat="43.221890" lon="-6.831185">
        <ele>812.291</ele>
        <time>1999-07-24T13:11:21Z</time>
      </trkpt>
      <trkpt lat="43.221800" lon="-6.831244">
        <ele>809.077</ele>
        <time>1999-07-24T13:11:22Z</time>
      </trkpt>
      <trkpt lat="43.221711" lon="-6.831298">
        <ele>807.038</ele>
        <time>1999-07-24T13:11:23Z</time>
      </trkpt>
      <trkpt lat="43.221627" lon="-6.831346">
        <ele>805.699</ele>
        <time>1999-07-24T13:11:24Z</time>
      </trkpt>
      <trkpt lat="43.221547" lon="-6.831387">
        <ele>804.243</ele>
        <time>1999-07-24T13:11:25Z</time>
      </trkpt>
      <trkpt lat="43.221475" lon="-6.831417">
        <ele>803.032</ele>
        <time>1999-07-24T13:11:26Z</time>
      </trkpt>
      <trkpt lat="43.221411" lon="-6.831431">
        <ele>802.478</ele>
        <time>1999-07-24T13:11:27Z</time>
      </trkpt>
      <trkpt lat="43.221354" lon="-6.831427">
        <ele>801.410</ele>
        <time>1999-07-24T13:11:28Z</time>
      </trkpt>
      <trkpt lat="43.221260" lon="-6.831353">
        <ele>799.625</ele>
        <time>1999-07-24T13:11:30Z</time>
      </trkpt>
      <trkpt lat="43.221225" lon="-6.831285">
        <ele>798.826</ele>
        <time>1999-07-24T13:11:31Z</time>
      </trkpt>
      <trkpt lat="43.221199" lon="-6.831199">
        <ele>797.808</ele>
        <time>1999-07-24T13:11:32Z</time>
      </trkpt>
      <trkpt lat="43.221174" lon="-6.831111">
        <ele>796.608</ele>
        <time>1999-07-24T13:11:33Z</time>
      </trkpt>
      <trkpt lat="43.221149" lon="-6.831026">
        <ele>795.235</ele>
        <time>1999-07-24T13:11:34Z</time>
      </trkpt>
      <trkpt lat="43.221114" lon="-6.830958">
        <ele>794.091</ele>
        <time>1999-07-24T13:11:35Z</time>
      </trkpt>
      <trkpt lat="43.221056" lon="-6.830912">
        <ele>792.652</ele>
        <time>1999-07-24T13:11:36Z</time>
      </trkpt>
      <trkpt lat="43.220989" lon="-6.830884">
        <ele>791.483</ele>
        <time>1999-07-24T13:11:37Z</time>
      </trkpt>
      <trkpt lat="43.220921" lon="-6.830861">
        <ele>790.647</ele>
        <time>1999-07-24T13:11:38Z</time>
      </trkpt>
      <trkpt lat="43.220859" lon="-6.830841">
        <ele>790.046</ele>
        <time>1999-07-24T13:11:39Z</time>
      </trkpt>
      <trkpt lat="43.220758" lon="-6.830815">
        <ele>788.822</ele>
        <time>1999-07-24T13:11:41Z</time>
      </trkpt>
      <trkpt lat="43.220718" lon="-6.830803">
        <ele>788.074</ele>
        <time>1999-07-24T13:11:42Z</time>
      </trkpt>
      <trkpt lat="43.220681" lon="-6.830792">
        <ele>786.888</ele>
        <time>1999-07-24T13:11:43Z</time>
      </trkpt>
      <trkpt lat="43.220645" lon="-6.830788">
        <ele>785.624</ele>
        <time>1999-07-24T13:11:44Z</time>
      </trkpt>
      <trkpt lat="43.220613" lon="-6.830793">
        <ele>785.026</ele>
        <time>1999-07-24T13:11:45Z</time>
      </trkpt>
      <trkpt lat="43.220588" lon="-6.830812">
        <ele>784.408</ele>
        <time>1999-07-24T13:11:46Z</time>
      </trkpt>
      <trkpt lat="43.220557" lon="-6.830859">
        <ele>782.491</ele>
        <time>1999-07-24T13:11:48Z</time>
      </trkpt>
      <trkpt lat="43.220554" lon="-6.830868">
        <ele>781.297</ele>
        <time>1999-07-24T13:11:49Z</time>
      </trkpt>
      <trkpt lat="43.220554" lon="-6.830866">
        <ele>778.638</ele>
        <time>1999-07-24T13:11:50Z</time>
      </trkpt>
      <trkpt lat="43.220558" lon="-6.830934">
        <ele>772.259</ele>
        <time>1999-07-24T13:12:30Z</time>
      </trkpt>
      <trkpt lat="43.220570" lon="-6.830983">
        <ele>772.283</ele>
        <time>1999-07-24T13:12:31Z</time>
      </trkpt>
      <trkpt lat="43.220599" lon="-6.831171">
        <ele>772.292</ele>
        <time>1999-07-24T13:12:34Z</time>
      </trkpt>
      <trkpt lat="43.220598" lon="-6.831250">
        <ele>772.248</ele>
        <time>1999-07-24T13:12:35Z</time>
      </trkpt>
      <trkpt lat="43.220592" lon="-6.831332">
        <ele>772.210</ele>
        <time>1999-07-24T13:12:36Z</time>
      </trkpt>
      <trkpt lat="43.220580" lon="-6.831416">
        <ele>772.057</ele>
        <time>1999-07-24T13:12:37Z</time>
      </trkpt>
      <trkpt lat="43.220564" lon="-6.831498">
        <ele>772.000</ele>
        <time>1999-07-24T13:12:38Z</time>
      </trkpt>
      <trkpt lat="43.220514" lon="-6.831647">
        <ele>771.420</ele>
        <time>1999-07-24T13:12:40Z</time>
      </trkpt>
      <trkpt lat="43.220479" lon="-6.831721">
        <ele>771.008</ele>
        <time>1999-07-24T13:12:41Z</time>
      </trkpt>
      <trkpt lat="43.220454" lon="-6.831802">
        <ele>770.258</ele>
        <time>1999-07-24T13:12:42Z</time>
      </trkpt>
      <trkpt lat="43.220439" lon="-6.831889">
        <ele>769.414</ele>
        <time>1999-07-24T13:12:43Z</time>
      </trkpt>
      <trkpt lat="43.220429" lon="-6.831986">
        <ele>768.655</ele>
        <time>1999-07-24T13:12:44Z</time>
      </trkpt>
      <trkpt lat="43.220420" lon="-6.832095">
        <ele>767.096</ele>
        <time>1999-07-24T13:12:45Z</time>
      </trkpt>
      <trkpt lat="43.220415" lon="-6.832318">
        <ele>765.430</ele>
        <time>1999-07-24T13:12:47Z</time>
      </trkpt>
      <trkpt lat="43.220411" lon="-6.832418">
        <ele>764.239</ele>
        <time>1999-07-24T13:12:48Z</time>
      </trkpt>
      <trkpt lat="43.220412" lon="-6.832582">
        <ele>762.245</ele>
        <time>1999-07-24T13:12:50Z</time>
      </trkpt>
      <trkpt lat="43.220438" lon="-6.832735">
        <ele>760.887</ele>
        <time>1999-07-24T13:12:52Z</time>
      </trkpt>
      <trkpt lat="43.220460" lon="-6.832819">
        <ele>759.665</ele>
        <time>1999-07-24T13:12:53Z</time>
      </trkpt>
      <trkpt lat="43.220514" lon="-6.832997">
        <ele>757.868</ele>
        <time>1999-07-24T13:12:55Z</time>
      </trkpt>
      <trkpt lat="43.220576" lon="-6.833165">
        <ele>755.814</ele>
        <time>1999-07-24T13:12:57Z</time>
      </trkpt>
      <trkpt lat="43.220633" lon="-6.833334">
        <ele>754.208</ele>
        <time>1999-07-24T13:12:59Z</time>
      </trkpt>
      <trkpt lat="43.220689" lon="-6.833512">
        <ele>752.089</ele>
        <time>1999-07-24T13:13:01Z</time>
      </trkpt>
      <trkpt lat="43.220731" lon="-6.833681">
        <ele>750.095</ele>
        <time>1999-07-24T13:13:03Z</time>
      </trkpt>
      <trkpt lat="43.220759" lon="-6.833761">
        <ele>749.096</ele>
        <time>1999-07-24T13:13:04Z</time>
      </trkpt>
      <trkpt lat="43.220796" lon="-6.833841">
        <ele>748.047</ele>
        <time>1999-07-24T13:13:05Z</time>
      </trkpt>
      <trkpt lat="43.220835" lon="-6.833917">
        <ele>746.491</ele>
        <time>1999-07-24T13:13:06Z</time>
      </trkpt>
      <trkpt lat="43.220881" lon="-6.833989">
        <ele>745.010</ele>
        <time>1999-07-24T13:13:07Z</time>
      </trkpt>
      <trkpt lat="43.220936" lon="-6.834059">
        <ele>743.836</ele>
        <time>1999-07-24T13:13:08Z</time>
      </trkpt>
      <trkpt lat="43.220997" lon="-6.834136">
        <ele>742.428</ele>
        <time>1999-07-24T13:13:09Z</time>
      </trkpt>
      <trkpt lat="43.221065" lon="-6.834216">
        <ele>741.453</ele>
        <time>1999-07-24T13:13:10Z</time>
      </trkpt>
      <trkpt lat="43.221133" lon="-6.834291">
        <ele>740.204</ele>
        <time>1999-07-24T13:13:11Z</time>
      </trkpt>
      <trkpt lat="43.221202" lon="-6.834366">
        <ele>739.014</ele>
        <time>1999-07-24T13:13:12Z</time>
      </trkpt>
      <trkpt lat="43.221272" lon="-6.834444">
        <ele>736.808</ele>
        <time>1999-07-24T13:13:13Z</time>
      </trkpt>
      <trkpt lat="43.221344" lon="-6.834526">
        <ele>735.498</ele>
        <time>1999-07-24T13:13:14Z</time>
      </trkpt>
      <trkpt lat="43.221420" lon="-6.834607">
        <ele>734.284</ele>
        <time>1999-07-24T13:13:15Z</time>
      </trkpt>
      <trkpt lat="43.221495" lon="-6.834682">
        <ele>733.035</ele>
        <time>1999-07-24T13:13:16Z</time>
      </trkpt>
      <trkpt lat="43.221566" lon="-6.834750">
        <ele>732.056</ele>
        <time>1999-07-24T13:13:17Z</time>
      </trkpt>
      <trkpt lat="43.221637" lon="-6.834807">
        <ele>730.880</ele>
        <time>1999-07-24T13:13:18Z</time>
      </trkpt>
      <trkpt lat="43.221700" lon="-6.834863">
        <ele>729.629</ele>
        <time>1999-07-24T13:13:19Z</time>
      </trkpt>
      <trkpt lat="43.221754" lon="-6.834915">
        <ele>728.465</ele>
        <time>1999-07-24T13:13:20Z</time>
      </trkpt>
      <trkpt lat="43.221842" lon="-6.834994">
        <ele>726.247</ele>
        <time>1999-07-24T13:13:22Z</time>
      </trkpt>
      <trkpt lat="43.221895" lon="-6.835025">
        <ele>724.667</ele>
        <time>1999-07-24T13:13:23Z</time>
      </trkpt>
      <trkpt lat="43.221951" lon="-6.835072">
        <ele>723.081</ele>
        <time>1999-07-24T13:13:24Z</time>
      </trkpt>
      <trkpt lat="43.222014" lon="-6.835127">
        <ele>721.419</ele>
        <time>1999-07-24T13:13:25Z</time>
      </trkpt>
      <trkpt lat="43.222086" lon="-6.835183">
        <ele>719.808</ele>
        <time>1999-07-24T13:13:26Z</time>
      </trkpt>
      <trkpt lat="43.222156" lon="-6.835238">
        <ele>718.469</ele>
        <time>1999-07-24T13:13:27Z</time>
      </trkpt>
      <trkpt lat="43.222222" lon="-6.835286">
        <ele>717.065</ele>
        <time>1999-07-24T13:13:28Z</time>
      </trkpt>
      <trkpt lat="43.222279" lon="-6.835324">
        <ele>715.496</ele>
        <time>1999-07-24T13:13:29Z</time>
      </trkpt>
      <trkpt lat="43.222319" lon="-6.835367">
        <ele>714.027</ele>
        <time>1999-07-24T13:13:30Z</time>
      </trkpt>
      <trkpt lat="43.222340" lon="-6.835416">
        <ele>712.631</ele>
        <time>1999-07-24T13:13:31Z</time>
      </trkpt>
      <trkpt lat="43.222343" lon="-6.835473">
        <ele>711.460</ele>
        <time>1999-07-24T13:13:32Z</time>
      </trkpt>
      <trkpt lat="43.222274" lon="-6.835593">
        <ele>709.876</ele>
        <time>1999-07-24T13:13:34Z</time>
      </trkpt>
      <trkpt lat="43.222164" lon="-6.835707">
        <ele>707.848</ele>
        <time>1999-07-24T13:13:36Z</time>
      </trkpt>
      <trkpt lat="43.222105" lon="-6.835756">
        <ele>706.421</ele>
        <time>1999-07-24T13:13:37Z</time>
      </trkpt>
      <trkpt lat="43.222040" lon="-6.835812">
        <ele>705.041</ele>
        <time>1999-07-24T13:13:38Z</time>
      </trkpt>
      <trkpt lat="43.221977" lon="-6.835873">
        <ele>703.805</ele>
        <time>1999-07-24T13:13:39Z</time>
      </trkpt>
      <trkpt lat="43.221870" lon="-6.835985">
        <ele>701.408</ele>
        <time>1999-07-24T13:13:41Z</time>
      </trkpt>
      <trkpt lat="43.221813" lon="-6.836034">
        <ele>700.615</ele>
        <time>1999-07-24T13:13:42Z</time>
      </trkpt>
      <trkpt lat="43.221754" lon="-6.836078">
        <ele>699.631</ele>
        <time>1999-07-24T13:13:43Z</time>
      </trkpt>
      <trkpt lat="43.221637" lon="-6.836157">
        <ele>697.862</ele>
        <time>1999-07-24T13:13:45Z</time>
      </trkpt>
      <trkpt lat="43.221510" lon="-6.836236">
        <ele>696.623</ele>
        <time>1999-07-24T13:13:47Z</time>
      </trkpt>
      <trkpt lat="43.221444" lon="-6.836274">
        <ele>695.627</ele>
        <time>1999-07-24T13:13:48Z</time>
      </trkpt>
      <trkpt lat="43.221383" lon="-6.836312">
        <ele>694.686</ele>
        <time>1999-07-24T13:13:49Z</time>
      </trkpt>
      <trkpt lat="43.221329" lon="-6.836351">
        <ele>693.662</ele>
        <time>1999-07-24T13:13:50Z</time>
      </trkpt>
      <trkpt lat="43.221276" lon="-6.836384">
        <ele>692.654</ele>
        <time>1999-07-24T13:13:51Z</time>
      </trkpt>
      <trkpt lat="43.221222" lon="-6.836404">
        <ele>691.465</ele>
        <time>1999-07-24T13:13:52Z</time>
      </trkpt>
      <trkpt lat="43.221161" lon="-6.836402">
        <ele>690.068</ele>
        <time>1999-07-24T13:13:53Z</time>
      </trkpt>
      <trkpt lat="43.221090" lon="-6.836388">
        <ele>688.814</ele>
        <time>1999-07-24T13:13:54Z</time>
      </trkpt>
      <trkpt lat="43.221013" lon="-6.836365">
        <ele>687.808</ele>
        <time>1999-07-24T13:13:55Z</time>
      </trkpt>
      <trkpt lat="43.220937" lon="-6.836339">
        <ele>686.669</ele>
        <time>1999-07-24T13:13:56Z</time>
      </trkpt>
      <trkpt lat="43.220872" lon="-6.836316">
        <ele>685.465</ele>
        <time>1999-07-24T13:13:57Z</time>
      </trkpt>
      <trkpt lat="43.220821" lon="-6.836299">
        <ele>683.896</ele>
        <time>1999-07-24T13:13:58Z</time>
      </trkpt>
      <trkpt lat="43.220789" lon="-6.836303">
        <ele>682.237</ele>
        <time>1999-07-24T13:13:59Z</time>
      </trkpt>
      <trkpt lat="43.220779" lon="-6.836331">
        <ele>680.891</ele>
        <time>1999-07-24T13:14:00Z</time>
      </trkpt>
      <trkpt lat="43.220784" lon="-6.836377">
        <ele>679.620</ele>
        <time>1999-07-24T13:14:01Z</time>
      </trkpt>
      <trkpt lat="43.220810" lon="-6.836431">
        <ele>678.636</ele>
        <time>1999-07-24T13:14:02Z</time>
      </trkpt>
      <trkpt lat="43.220902" lon="-6.836569">
        <ele>677.228</ele>
        <time>1999-07-24T13:14:04Z</time>
      </trkpt>
      <trkpt lat="43.221015" lon="-6.836719">
        <ele>675.021</ele>
        <time>1999-07-24T13:14:06Z</time>
      </trkpt>
      <trkpt lat="43.221077" lon="-6.836788">
        <ele>673.841</ele>
        <time>1999-07-24T13:14:07Z</time>
      </trkpt>
      <trkpt lat="43.221142" lon="-6.836859">
        <ele>672.805</ele>
        <time>1999-07-24T13:14:08Z</time>
      </trkpt>
      <trkpt lat="43.221204" lon="-6.836937">
        <ele>671.208</ele>
        <time>1999-07-24T13:14:09Z</time>
      </trkpt>
      <trkpt lat="43.221337" lon="-6.837077">
        <ele>670.055</ele>
        <time>1999-07-24T13:14:11Z</time>
      </trkpt>
      <trkpt lat="43.221492" lon="-6.837190">
        <ele>668.431</ele>
        <time>1999-07-24T13:14:13Z</time>
      </trkpt>
      <trkpt lat="43.221639" lon="-6.837272">
        <ele>667.042</ele>
        <time>1999-07-24T13:14:15Z</time>
      </trkpt>
      <trkpt lat="43.221765" lon="-6.837338">
        <ele>665.643</ele>
        <time>1999-07-24T13:14:17Z</time>
      </trkpt>
      <trkpt lat="43.221819" lon="-6.837368">
        <ele>664.657</ele>
        <time>1999-07-24T13:14:18Z</time>
      </trkpt>
      <trkpt lat="43.221868" lon="-6.837399">
        <ele>663.686</ele>
        <time>1999-07-24T13:14:19Z</time>
      </trkpt>
      <trkpt lat="43.221979" lon="-6.837469">
        <ele>661.652</ele>
        <time>1999-07-24T13:14:21Z</time>
      </trkpt>
      <trkpt lat="43.222042" lon="-6.837496">
        <ele>660.424</ele>
        <time>1999-07-24T13:14:22Z</time>
      </trkpt>
      <trkpt lat="43.222112" lon="-6.837509">
        <ele>659.286</ele>
        <time>1999-07-24T13:14:23Z</time>
      </trkpt>
      <trkpt lat="43.222186" lon="-6.837515">
        <ele>657.860</ele>
        <time>1999-07-24T13:14:24Z</time>
      </trkpt>
      <trkpt lat="43.222260" lon="-6.837520">
        <ele>656.426</ele>
        <time>1999-07-24T13:14:25Z</time>
      </trkpt>
      <trkpt lat="43.222331" lon="-6.837526">
        <ele>655.008</ele>
        <time>1999-07-24T13:14:26Z</time>
      </trkpt>
      <trkpt lat="43.222392" lon="-6.837531">
        <ele>654.231</ele>
        <time>1999-07-24T13:14:27Z</time>
      </trkpt>
      <trkpt lat="43.222444" lon="-6.837534">
        <ele>653.217</ele>
        <time>1999-07-24T13:14:28Z</time>
      </trkpt>
      <trkpt lat="43.222496" lon="-6.837534">
        <ele>652.228</ele>
        <time>1999-07-24T13:14:29Z</time>
      </trkpt>
      <trkpt lat="43.222549" lon="-6.837528">
        <ele>651.069</ele>
        <time>1999-07-24T13:14:30Z</time>
      </trkpt>
      <trkpt lat="43.222604" lon="-6.837508">
        <ele>649.813</ele>
        <time>1999-07-24T13:14:31Z</time>
      </trkpt>
      <trkpt lat="43.222707" lon="-6.837463">
        <ele>647.872</ele>
        <time>1999-07-24T13:14:33Z</time>
      </trkpt>
      <trkpt lat="43.222758" lon="-6.837433">
        <ele>646.448</ele>
        <time>1999-07-24T13:14:34Z</time>
      </trkpt>
      <trkpt lat="43.222809" lon="-6.837400">
        <ele>645.280</ele>
        <time>1999-07-24T13:14:35Z</time>
      </trkpt>
      <trkpt lat="43.222859" lon="-6.837364">
        <ele>644.044</ele>
        <time>1999-07-24T13:14:36Z</time>
      </trkpt>
      <trkpt lat="43.222914" lon="-6.837319">
        <ele>641.205</ele>
        <time>1999-07-24T13:14:37Z</time>
      </trkpt>
      <trkpt lat="43.222972" lon="-6.837267">
        <ele>640.415</ele>
        <time>1999-07-24T13:14:38Z</time>
      </trkpt>
      <trkpt lat="43.223037" lon="-6.837208">
        <ele>639.608</ele>
        <time>1999-07-24T13:14:39Z</time>
      </trkpt>
      <trkpt lat="43.223098" lon="-6.837144">
        <ele>638.677</ele>
        <time>1999-07-24T13:14:40Z</time>
      </trkpt>
      <trkpt lat="43.223199" lon="-6.837018">
        <ele>637.043</ele>
        <time>1999-07-24T13:14:42Z</time>
      </trkpt>
      <trkpt lat="43.223271" lon="-6.836922">
        <ele>635.494</ele>
        <time>1999-07-24T13:14:44Z</time>
      </trkpt>
      <trkpt lat="43.223296" lon="-6.836899">
        <ele>635.045</ele>
        <time>1999-07-24T13:14:45Z</time>
      </trkpt>
      <trkpt lat="43.223321" lon="-6.836889">
        <ele>634.269</ele>
        <time>1999-07-24T13:14:46Z</time>
      </trkpt>
      <trkpt lat="43.223337" lon="-6.836901">
        <ele>633.268</ele>
        <time>1999-07-24T13:14:47Z</time>
      </trkpt>
      <trkpt lat="43.223344" lon="-6.836924">
        <ele>632.084</ele>
        <time>1999-07-24T13:14:48Z</time>
      </trkpt>
      <trkpt lat="43.223342" lon="-6.836946">
        <ele>630.896</ele>
        <time>1999-07-24T13:14:49Z</time>
      </trkpt>
      <trkpt lat="43.223336" lon="-6.836956">
        <ele>628.816</ele>
        <time>1999-07-24T13:14:51Z</time>
      </trkpt>
      <trkpt lat="43.223335" lon="-6.836954">
        <ele>627.676</ele>
        <time>1999-07-24T13:14:52Z</time>
      </trkpt>
      <trkpt lat="43.223358" lon="-6.836863">
        <ele>623.613</ele>
        <time>1999-07-24T13:15:04Z</time>
      </trkpt>
      <trkpt lat="43.223363" lon="-6.836845">
        <ele>623.608</ele>
        <time>1999-07-24T13:15:05Z</time>
      </trkpt>
      <trkpt lat="43.223370" lon="-6.836829">
        <ele>623.644</ele>
        <time>1999-07-24T13:15:06Z</time>
      </trkpt>
      <trkpt lat="43.223378" lon="-6.836820">
        <ele>623.680</ele>
        <time>1999-07-24T13:15:07Z</time>
      </trkpt>
      <trkpt lat="43.223383" lon="-6.836817">
        <ele>624.091</ele>
        <time>1999-07-24T13:15:09Z</time>
      </trkpt>
      <trkpt lat="43.223344" lon="-6.836907">
        <ele>623.892</ele>
        <time>1999-07-24T13:21:15Z</time>
      </trkpt>
      <trkpt lat="43.223332" lon="-6.836938">
        <ele>623.876</ele>
        <time>1999-07-24T13:21:16Z</time>
      </trkpt>
      <trkpt lat="43.223274" lon="-6.837108">
        <ele>623.825</ele>
        <time>1999-07-24T13:21:19Z</time>
      </trkpt>
      <trkpt lat="43.223263" lon="-6.837169">
        <ele>623.891</ele>
        <time>1999-07-24T13:21:20Z</time>
      </trkpt>
      <trkpt lat="43.223243" lon="-6.837362">
        <ele>623.873</ele>
        <time>1999-07-24T13:21:23Z</time>
      </trkpt>
      <trkpt lat="43.223161" lon="-6.837585">
        <ele>622.628</ele>
        <time>1999-07-24T13:21:27Z</time>
      </trkpt>
      <trkpt lat="43.223095" lon="-6.837737">
        <ele>620.889</ele>
        <time>1999-07-24T13:21:29Z</time>
      </trkpt>
      <trkpt lat="43.223056" lon="-6.837821">
        <ele>620.417</ele>
        <time>1999-07-24T13:21:30Z</time>
      </trkpt>
      <trkpt lat="43.223018" lon="-6.837903">
        <ele>618.808</ele>
        <time>1999-07-24T13:21:31Z</time>
      </trkpt>
      <trkpt lat="43.222944" lon="-6.838068">
        <ele>617.075</ele>
        <time>1999-07-24T13:21:33Z</time>
      </trkpt>
      <trkpt lat="43.222847" lon="-6.838248">
        <ele>615.281</ele>
        <time>1999-07-24T13:21:35Z</time>
      </trkpt>
      <trkpt lat="43.222782" lon="-6.838342">
        <ele>614.432</ele>
        <time>1999-07-24T13:21:36Z</time>
      </trkpt>
      <trkpt lat="43.222720" lon="-6.838429">
        <ele>613.453</ele>
        <time>1999-07-24T13:21:37Z</time>
      </trkpt>
      <trkpt lat="43.222668" lon="-6.838512">
        <ele>611.867</ele>
        <time>1999-07-24T13:21:38Z</time>
      </trkpt>
      <trkpt lat="43.222633" lon="-6.838602">
        <ele>610.276</ele>
        <time>1999-07-24T13:21:39Z</time>
      </trkpt>
      <trkpt lat="43.222607" lon="-6.838706">
        <ele>608.892</ele>
        <time>1999-07-24T13:21:40Z</time>
      </trkpt>
      <trkpt lat="43.222578" lon="-6.838813">
        <ele>607.454</ele>
        <time>1999-07-24T13:21:41Z</time>
      </trkpt>
      <trkpt lat="43.222548" lon="-6.838916">
        <ele>606.247</ele>
        <time>1999-07-24T13:21:42Z</time>
      </trkpt>
      <trkpt lat="43.222523" lon="-6.839017">
        <ele>605.029</ele>
        <time>1999-07-24T13:21:43Z</time>
      </trkpt>
      <trkpt lat="43.222500" lon="-6.839115">
        <ele>603.821</ele>
        <time>1999-07-24T13:21:44Z</time>
      </trkpt>
      <trkpt lat="43.222480" lon="-6.839203">
        <ele>602.408</ele>
        <time>1999-07-24T13:21:45Z</time>
      </trkpt>
      <trkpt lat="43.222460" lon="-6.839287">
        <ele>601.037</ele>
        <time>1999-07-24T13:21:46Z</time>
      </trkpt>
      <trkpt lat="43.222436" lon="-6.839363">
        <ele>599.283</ele>
        <time>1999-07-24T13:21:47Z</time>
      </trkpt>
      <trkpt lat="43.222413" lon="-6.839432">
        <ele>598.064</ele>
        <time>1999-07-24T13:21:48Z</time>
      </trkpt>
      <trkpt lat="43.222386" lon="-6.839498">
        <ele>597.285</ele>
        <time>1999-07-24T13:21:49Z</time>
      </trkpt>
      <trkpt lat="43.222347" lon="-6.839553">
        <ele>595.869</ele>
        <time>1999-07-24T13:21:50Z</time>
      </trkpt>
      <trkpt lat="43.222304" lon="-6.839601">
        <ele>594.628</ele>
        <time>1999-07-24T13:21:51Z</time>
      </trkpt>
      <trkpt lat="43.222255" lon="-6.839648">
        <ele>593.254</ele>
        <time>1999-07-24T13:21:52Z</time>
      </trkpt>
      <trkpt lat="43.222204" lon="-6.839694">
        <ele>592.086</ele>
        <time>1999-07-24T13:21:53Z</time>
      </trkpt>
      <trkpt lat="43.222155" lon="-6.839733">
        <ele>590.493</ele>
        <time>1999-07-24T13:21:54Z</time>
      </trkpt>
      <trkpt lat="43.222101" lon="-6.839765">
        <ele>589.065</ele>
        <time>1999-07-24T13:21:55Z</time>
      </trkpt>
      <trkpt lat="43.222038" lon="-6.839792">
        <ele>587.421</ele>
        <time>1999-07-24T13:21:56Z</time>
      </trkpt>
      <trkpt lat="43.221972" lon="-6.839815">
        <ele>586.008</ele>
        <time>1999-07-24T13:21:57Z</time>
      </trkpt>
      <trkpt lat="43.221907" lon="-6.839832">
        <ele>582.642</ele>
        <time>1999-07-24T13:21:58Z</time>
      </trkpt>
      <trkpt lat="43.221842" lon="-6.839842">
        <ele>581.438</ele>
        <time>1999-07-24T13:21:59Z</time>
      </trkpt>
      <trkpt lat="43.221770" lon="-6.839846">
        <ele>580.429</ele>
        <time>1999-07-24T13:22:00Z</time>
      </trkpt>
      <trkpt lat="43.221691" lon="-6.839846">
        <ele>579.420</ele>
        <time>1999-07-24T13:22:01Z</time>
      </trkpt>
      <trkpt lat="43.221616" lon="-6.839846">
        <ele>578.044</ele>
        <time>1999-07-24T13:22:02Z</time>
      </trkpt>
      <trkpt lat="43.221543" lon="-6.839846">
        <ele>577.033</ele>
        <time>1999-07-24T13:22:03Z</time>
      </trkpt>
      <trkpt lat="43.221467" lon="-6.839840">
        <ele>576.279</ele>
        <time>1999-07-24T13:22:04Z</time>
      </trkpt>
      <trkpt lat="43.221389" lon="-6.839832">
        <ele>575.091</ele>
        <time>1999-07-24T13:22:05Z</time>
      </trkpt>
      <trkpt lat="43.221314" lon="-6.839827">
        <ele>573.656</ele>
        <time>1999-07-24T13:22:06Z</time>
      </trkpt>
      <trkpt lat="43.221247" lon="-6.839827">
        <ele>572.459</ele>
        <time>1999-07-24T13:22:07Z</time>
      </trkpt>
      <trkpt lat="43.221141" lon="-6.839838">
        <ele>570.814</ele>
        <time>1999-07-24T13:22:09Z</time>
      </trkpt>
      <trkpt lat="43.221115" lon="-6.839856">
        <ele>569.808</ele>
        <time>1999-07-24T13:22:10Z</time>
      </trkpt>
      <trkpt lat="43.221117" lon="-6.839882">
        <ele>568.048</ele>
        <time>1999-07-24T13:22:11Z</time>
      </trkpt>
      <trkpt lat="43.221132" lon="-6.839921">
        <ele>566.684</ele>
        <time>1999-07-24T13:22:12Z</time>
      </trkpt>
      <trkpt lat="43.221171" lon="-6.839960">
        <ele>565.615</ele>
        <time>1999-07-24T13:22:13Z</time>
      </trkpt>
      <trkpt lat="43.221222" lon="-6.840006">
        <ele>564.236</ele>
        <time>1999-07-24T13:22:14Z</time>
      </trkpt>
      <trkpt lat="43.221277" lon="-6.840072">
        <ele>562.660</ele>
        <time>1999-07-24T13:22:15Z</time>
      </trkpt>
      <trkpt lat="43.221330" lon="-6.840153">
        <ele>561.019</ele>
        <time>1999-07-24T13:22:16Z</time>
      </trkpt>
      <trkpt lat="43.221384" lon="-6.840236">
        <ele>559.495</ele>
        <time>1999-07-24T13:22:17Z</time>
      </trkpt>
      <trkpt lat="43.221443" lon="-6.840317">
        <ele>557.897</ele>
        <time>1999-07-24T13:22:18Z</time>
      </trkpt>
      <trkpt lat="43.221512" lon="-6.840398">
        <ele>556.684</ele>
        <time>1999-07-24T13:22:19Z</time>
      </trkpt>
      <trkpt lat="43.221665" lon="-6.840555">
        <ele>555.207</ele>
        <time>1999-07-24T13:22:21Z</time>
      </trkpt>
      <trkpt lat="43.221737" lon="-6.840618">
        <ele>554.217</ele>
        <time>1999-07-24T13:22:22Z</time>
      </trkpt>
      <trkpt lat="43.221801" lon="-6.840664">
        <ele>553.208</ele>
        <time>1999-07-24T13:22:23Z</time>
      </trkpt>
      <trkpt lat="43.221854" lon="-6.840697">
        <ele>552.681</ele>
        <time>1999-07-24T13:22:24Z</time>
      </trkpt>
      <trkpt lat="43.221884" lon="-6.840720">
        <ele>550.497</ele>
        <time>1999-07-24T13:22:25Z</time>
      </trkpt>
      <trkpt lat="43.221885" lon="-6.840747">
        <ele>548.498</ele>
        <time>1999-07-24T13:22:26Z</time>
      </trkpt>
      <trkpt lat="43.221864" lon="-6.840770">
        <ele>547.289</ele>
        <time>1999-07-24T13:22:27Z</time>
      </trkpt>
      <trkpt lat="43.221834" lon="-6.840779">
        <ele>546.263</ele>
        <time>1999-07-24T13:22:28Z</time>
      </trkpt>
      <trkpt lat="43.221797" lon="-6.840773">
        <ele>544.672</ele>
        <time>1999-07-24T13:22:29Z</time>
      </trkpt>
      <trkpt lat="43.221750" lon="-6.840767">
        <ele>543.248</ele>
        <time>1999-07-24T13:22:30Z</time>
      </trkpt>
      <trkpt lat="43.221696" lon="-6.840768">
        <ele>541.870</ele>
        <time>1999-07-24T13:22:31Z</time>
      </trkpt>
      <trkpt lat="43.221632" lon="-6.840775">
        <ele>540.476</ele>
        <time>1999-07-24T13:22:32Z</time>
      </trkpt>
      <trkpt lat="43.221562" lon="-6.840787">
        <ele>539.090</ele>
        <time>1999-07-24T13:22:33Z</time>
      </trkpt>
      <trkpt lat="43.221494" lon="-6.840803">
        <ele>537.819</ele>
        <time>1999-07-24T13:22:34Z</time>
      </trkpt>
      <trkpt lat="43.221360" lon="-6.840827">
        <ele>536.008</ele>
        <time>1999-07-24T13:22:36Z</time>
      </trkpt>
      <trkpt lat="43.221213" lon="-6.840839">
        <ele>535.660</ele>
        <time>1999-07-24T13:22:38Z</time>
      </trkpt>
      <trkpt lat="43.221070" lon="-6.840831">
        <ele>534.886</ele>
        <time>1999-07-24T13:22:40Z</time>
      </trkpt>
      <trkpt lat="43.220943" lon="-6.840805">
        <ele>533.867</ele>
        <time>1999-07-24T13:22:42Z</time>
      </trkpt>
      <trkpt lat="43.220889" lon="-6.840795">
        <ele>532.878</ele>
        <time>1999-07-24T13:22:43Z</time>
      </trkpt>
      <trkpt lat="43.220851" lon="-6.840806">
        <ele>531.412</ele>
        <time>1999-07-24T13:22:44Z</time>
      </trkpt>
      <trkpt lat="43.220846" lon="-6.840838">
        <ele>530.261</ele>
        <time>1999-07-24T13:22:45Z</time>
      </trkpt>
      <trkpt lat="43.220864" lon="-6.840884">
        <ele>529.057</ele>
        <time>1999-07-24T13:22:46Z</time>
      </trkpt>
      <trkpt lat="43.220901" lon="-6.840937">
        <ele>527.859</ele>
        <time>1999-07-24T13:22:47Z</time>
      </trkpt>
      <trkpt lat="43.220948" lon="-6.840998">
        <ele>526.689</ele>
        <time>1999-07-24T13:22:48Z</time>
      </trkpt>
      <trkpt lat="43.220997" lon="-6.841062">
        <ele>525.206</ele>
        <time>1999-07-24T13:22:49Z</time>
      </trkpt>
      <trkpt lat="43.221047" lon="-6.841129">
        <ele>523.826</ele>
        <time>1999-07-24T13:22:50Z</time>
      </trkpt>
      <trkpt lat="43.221102" lon="-6.841196">
        <ele>522.608</ele>
        <time>1999-07-24T13:22:51Z</time>
      </trkpt>
      <trkpt lat="43.221163" lon="-6.841262">
        <ele>521.021</ele>
        <time>1999-07-24T13:22:52Z</time>
      </trkpt>
      <trkpt lat="43.221222" lon="-6.841325">
        <ele>518.697</ele>
        <time>1999-07-24T13:22:53Z</time>
      </trkpt>
      <trkpt lat="43.221317" lon="-6.841461">
        <ele>517.088</ele>
        <time>1999-07-24T13:22:55Z</time>
      </trkpt>
      <trkpt lat="43.221356" lon="-6.841539">
        <ele>516.079</ele>
        <time>1999-07-24T13:22:56Z</time>
      </trkpt>
      <trkpt lat="43.221397" lon="-6.841620">
        <ele>515.043</ele>
        <time>1999-07-24T13:22:57Z</time>
      </trkpt>
      <trkpt lat="43.221443" lon="-6.841701">
        <ele>514.032</ele>
        <time>1999-07-24T13:22:58Z</time>
      </trkpt>
      <trkpt lat="43.221497" lon="-6.841773">
        <ele>512.678</ele>
        <time>1999-07-24T13:22:59Z</time>
      </trkpt>
      <trkpt lat="43.221565" lon="-6.841833">
        <ele>511.420</ele>
        <time>1999-07-24T13:23:00Z</time>
      </trkpt>
      <trkpt lat="43.221633" lon="-6.841891">
        <ele>510.086</ele>
        <time>1999-07-24T13:23:01Z</time>
      </trkpt>
      <trkpt lat="43.221698" lon="-6.841940">
        <ele>508.660</ele>
        <time>1999-07-24T13:23:02Z</time>
      </trkpt>
      <trkpt lat="43.221754" lon="-6.841968">
        <ele>507.226</ele>
        <time>1999-07-24T13:23:03Z</time>
      </trkpt>
      <trkpt lat="43.221805" lon="-6.841986">
        <ele>505.808</ele>
        <time>1999-07-24T13:23:04Z</time>
      </trkpt>
      <trkpt lat="43.221841" lon="-6.842010">
        <ele>504.041</ele>
        <time>1999-07-24T13:23:05Z</time>
      </trkpt>
      <trkpt lat="43.221855" lon="-6.842047">
        <ele>502.297</ele>
        <time>1999-07-24T13:23:06Z</time>
      </trkpt>
      <trkpt lat="43.221849" lon="-6.842088">
        <ele>500.658</ele>
        <time>1999-07-24T13:23:07Z</time>
      </trkpt>
      <trkpt lat="43.221814" lon="-6.842127">
        <ele>499.269</ele>
        <time>1999-07-24T13:23:08Z</time>
      </trkpt>
      <trkpt lat="43.221764" lon="-6.842159">
        <ele>498.053</ele>
        <time>1999-07-24T13:23:09Z</time>
      </trkpt>
      <trkpt lat="43.221707" lon="-6.842188">
        <ele>496.662</ele>
        <time>1999-07-24T13:23:10Z</time>
      </trkpt>
      <trkpt lat="43.221649" lon="-6.842204">
        <ele>495.418</ele>
        <time>1999-07-24T13:23:11Z</time>
      </trkpt>
      <trkpt lat="43.221597" lon="-6.842212">
        <ele>494.290</ele>
        <time>1999-07-24T13:23:12Z</time>
      </trkpt>
      <trkpt lat="43.221564" lon="-6.842216">
        <ele>493.214</ele>
        <time>1999-07-24T13:23:13Z</time>
      </trkpt>
      <trkpt lat="43.221548" lon="-6.842232">
        <ele>492.054</ele>
        <time>1999-07-24T13:23:14Z</time>
      </trkpt>
      <trkpt lat="43.221556" lon="-6.842263">
        <ele>491.009</ele>
        <time>1999-07-24T13:23:15Z</time>
      </trkpt>
      <trkpt lat="43.221619" lon="-6.842345">
        <ele>489.608</ele>
        <time>1999-07-24T13:23:17Z</time>
      </trkpt>
      <trkpt lat="43.221673" lon="-6.842383">
        <ele>489.054</ele>
        <time>1999-07-24T13:23:18Z</time>
      </trkpt>
      <trkpt lat="43.221739" lon="-6.842419">
        <ele>488.490</ele>
        <time>1999-07-24T13:23:19Z</time>
      </trkpt>
      <trkpt lat="43.221814" lon="-6.842452">
        <ele>486.271</ele>
        <time>1999-07-24T13:23:20Z</time>
      </trkpt>
      <trkpt lat="43.221895" lon="-6.842480">
        <ele>485.042</ele>
        <time>1999-07-24T13:23:21Z</time>
      </trkpt>
      <trkpt lat="43.221979" lon="-6.842507">
        <ele>483.856</ele>
        <time>1999-07-24T13:23:22Z</time>
      </trkpt>
      <trkpt lat="43.222127" lon="-6.842547">
        <ele>482.255</ele>
        <time>1999-07-24T13:23:24Z</time>
      </trkpt>
      <trkpt lat="43.222272" lon="-6.842563">
        <ele>480.831</ele>
        <time>1999-07-24T13:23:26Z</time>
      </trkpt>
      <trkpt lat="43.222429" lon="-6.842565">
        <ele>479.213</ele>
        <time>1999-07-24T13:23:28Z</time>
      </trkpt>
      <trkpt lat="43.222510" lon="-6.842564">
        <ele>478.234</ele>
        <time>1999-07-24T13:23:29Z</time>
      </trkpt>
      <trkpt lat="43.222660" lon="-6.842551">
        <ele>475.655</ele>
        <time>1999-07-24T13:23:31Z</time>
      </trkpt>
      <trkpt lat="43.222711" lon="-6.842536">
        <ele>474.210</ele>
        <time>1999-07-24T13:23:32Z</time>
      </trkpt>
      <trkpt lat="43.222755" lon="-6.842521">
        <ele>472.808</ele>
        <time>1999-07-24T13:23:33Z</time>
      </trkpt>
      <trkpt lat="43.222806" lon="-6.842504">
        <ele>471.646</ele>
        <time>1999-07-24T13:23:34Z</time>
      </trkpt>
      <trkpt lat="43.222859" lon="-6.842485">
        <ele>470.492</ele>
        <time>1999-07-24T13:23:35Z</time>
      </trkpt>
      <trkpt lat="43.222978" lon="-6.842410">
        <ele>468.463</ele>
        <time>1999-07-24T13:23:37Z</time>
      </trkpt>
      <trkpt lat="43.223034" lon="-6.842355">
        <ele>467.214</ele>
        <time>1999-07-24T13:23:38Z</time>
      </trkpt>
      <trkpt lat="43.223074" lon="-6.842289">
        <ele>465.888</ele>
        <time>1999-07-24T13:23:39Z</time>
      </trkpt>
      <trkpt lat="43.223110" lon="-6.842230">
        <ele>464.247</ele>
        <time>1999-07-24T13:23:40Z</time>
      </trkpt>
      <trkpt lat="43.223133" lon="-6.842180">
        <ele>462.893</ele>
        <time>1999-07-24T13:23:41Z</time>
      </trkpt>
      <trkpt lat="43.223153" lon="-6.842140">
        <ele>461.445</ele>
        <time>1999-07-24T13:23:42Z</time>
      </trkpt>
      <trkpt lat="43.223168" lon="-6.842106">
        <ele>460.095</ele>
        <time>1999-07-24T13:23:43Z</time>
      </trkpt>
      <trkpt lat="43.223185" lon="-6.842074">
        <ele>458.849</ele>
        <time>1999-07-24T13:23:44Z</time>
      </trkpt>
      <trkpt lat="43.223205" lon="-6.842041">
        <ele>458.023</ele>
        <time>1999-07-24T13:23:45Z</time>
      </trkpt>
      <trkpt lat="43.223221" lon="-6.842008">
        <ele>457.808</ele>
        <time>1999-07-24T13:23:46Z</time>
      </trkpt>
      <trkpt lat="43.223250" lon="-6.841944">
        <ele>457.472</ele>
        <time>1999-07-24T13:23:48Z</time>
      </trkpt>
      <trkpt lat="43.223275" lon="-6.841889">
        <ele>457.478</ele>
        <time>1999-07-24T13:23:50Z</time>
      </trkpt>
      <trkpt lat="43.223299" lon="-6.841832">
        <ele>457.439</ele>
        <time>1999-07-24T13:23:52Z</time>
      </trkpt>
      <trkpt lat="43.223350" lon="-6.841746">
        <ele>457.680</ele>
        <time>1999-07-24T13:23:55Z</time>
      </trkpt>
      <trkpt lat="43.223363" lon="-6.841718">
        <ele>457.814</ele>
        <time>1999-07-24T13:23:56Z</time>
      </trkpt>
      <trkpt lat="43.223407" lon="-6.841619">
        <ele>458.423</ele>
        <time>1999-07-24T13:23:59Z</time>
      </trkpt>
      <trkpt lat="43.223443" lon="-6.841555">
        <ele>458.859</ele>
        <time>1999-07-24T13:24:01Z</time>
      </trkpt>
      <trkpt lat="43.223462" lon="-6.841522">
        <ele>459.081</ele>
        <time>1999-07-24T13:24:02Z</time>
      </trkpt>
      <trkpt lat="43.223510" lon="-6.841416">
        <ele>459.612</ele>
        <time>1999-07-24T13:24:05Z</time>
      </trkpt>
      <trkpt lat="43.223538" lon="-6.841347">
        <ele>460.232</ele>
        <time>1999-07-24T13:24:07Z</time>
      </trkpt>
      <trkpt lat="43.223556" lon="-6.841311">
        <ele>460.205</ele>
        <time>1999-07-24T13:24:08Z</time>
      </trkpt>
      <trkpt lat="43.223613" lon="-6.841240">
        <ele>460.808</ele>
        <time>1999-07-24T13:24:11Z</time>
      </trkpt>
      <trkpt lat="43.223663" lon="-6.841256">
        <ele>461.214</ele>
        <time>1999-07-24T13:24:13Z</time>
      </trkpt>
      <trkpt lat="43.223743" lon="-6.841346">
        <ele>461.820</ele>
        <time>1999-07-24T13:24:17Z</time>
      </trkpt>
      <trkpt lat="43.223778" lon="-6.841391">
        <ele>462.041</ele>
        <time>1999-07-24T13:24:19Z</time>
      </trkpt>
      <trkpt lat="43.223838" lon="-6.841449">
        <ele>462.242</ele>
        <time>1999-07-24T13:24:22Z</time>
      </trkpt>
      <trkpt lat="43.223875" lon="-6.841502">
        <ele>462.616</ele>
        <time>1999-07-24T13:24:24Z</time>
      </trkpt>
      <trkpt lat="43.223946" lon="-6.841633">
        <ele>463.445</ele>
        <time>1999-07-24T13:24:29Z</time>
      </trkpt>
      <trkpt lat="43.223969" lon="-6.841655">
        <ele>463.681</ele>
        <time>1999-07-24T13:24:30Z</time>
      </trkpt>
      <trkpt lat="43.224035" lon="-6.841724">
        <ele>464.013</ele>
        <time>1999-07-24T13:24:33Z</time>
      </trkpt>
      <trkpt lat="43.224140" lon="-6.841857">
        <ele>464.871</ele>
        <time>1999-07-24T13:24:38Z</time>
      </trkpt>
      <trkpt lat="43.224164" lon="-6.841881">
        <ele>465.241</ele>
        <time>1999-07-24T13:24:39Z</time>
      </trkpt>
      <trkpt lat="43.224244" lon="-6.841994">
        <ele>466.215</ele>
        <time>1999-07-24T13:24:43Z</time>
      </trkpt>
      <trkpt lat="43.224298" lon="-6.842086">
        <ele>467.008</ele>
        <time>1999-07-24T13:24:46Z</time>
      </trkpt>
      <trkpt lat="43.224314" lon="-6.842116">
        <ele>467.450</ele>
        <time>1999-07-24T13:24:47Z</time>
      </trkpt>
      <trkpt lat="43.224392" lon="-6.842232">
        <ele>468.496</ele>
        <time>1999-07-24T13:24:51Z</time>
      </trkpt>
      <trkpt lat="43.224413" lon="-6.842258">
        <ele>468.667</ele>
        <time>1999-07-24T13:24:52Z</time>
      </trkpt>
      <trkpt lat="43.224551" lon="-6.842424">
        <ele>469.638</ele>
        <time>1999-07-24T13:24:59Z</time>
      </trkpt>
      <trkpt lat="43.224624" lon="-6.842511">
        <ele>471.052</ele>
        <time>1999-07-24T13:25:03Z</time>
      </trkpt>
      <trkpt lat="43.224683" lon="-6.842599">
        <ele>471.821</ele>
        <time>1999-07-24T13:25:06Z</time>
      </trkpt>
      <trkpt lat="43.224727" lon="-6.842648">
        <ele>472.257</ele>
        <time>1999-07-24T13:25:08Z</time>
      </trkpt>
      <trkpt lat="43.224793" lon="-6.842698">
        <ele>473.659</ele>
        <time>1999-07-24T13:25:11Z</time>
      </trkpt>
      <trkpt lat="43.224815" lon="-6.842708">
        <ele>473.823</ele>
        <time>1999-07-24T13:25:12Z</time>
      </trkpt>
      <trkpt lat="43.224910" lon="-6.842743">
        <ele>474.883</ele>
        <time>1999-07-24T13:25:16Z</time>
      </trkpt>
      <trkpt lat="43.225020" lon="-6.842755">
        <ele>475.611</ele>
        <time>1999-07-24T13:25:20Z</time>
      </trkpt>
      <trkpt lat="43.225058" lon="-6.842750">
        <ele>476.008</ele>
        <time>1999-07-24T13:25:21Z</time>
      </trkpt>
      <trkpt lat="43.225156" lon="-6.842746">
        <ele>476.425</ele>
        <time>1999-07-24T13:25:23Z</time>
      </trkpt>
      <trkpt lat="43.225218" lon="-6.842746">
        <ele>476.461</ele>
        <time>1999-07-24T13:25:24Z</time>
      </trkpt>
      <trkpt lat="43.225434" lon="-6.842760">
        <ele>476.642</ele>
        <time>1999-07-24T13:25:27Z</time>
      </trkpt>
      <trkpt lat="43.225509" lon="-6.842758">
        <ele>476.663</ele>
        <time>1999-07-24T13:25:28Z</time>
      </trkpt>
      <trkpt lat="43.225661" lon="-6.842733">
        <ele>476.637</ele>
        <time>1999-07-24T13:25:30Z</time>
      </trkpt>
      <trkpt lat="43.225822" lon="-6.842640">
        <ele>476.246</ele>
        <time>1999-07-24T13:25:32Z</time>
      </trkpt>
      <trkpt lat="43.226010" lon="-6.842409">
        <ele>474.832</ele>
        <time>1999-07-24T13:25:35Z</time>
      </trkpt>
      <trkpt lat="43.226067" lon="-6.842345">
        <ele>474.044</ele>
        <time>1999-07-24T13:25:36Z</time>
      </trkpt>
      <trkpt lat="43.226119" lon="-6.842293">
        <ele>473.058</ele>
        <time>1999-07-24T13:25:37Z</time>
      </trkpt>
      <trkpt lat="43.226166" lon="-6.842252">
        <ele>471.252</ele>
        <time>1999-07-24T13:25:38Z</time>
      </trkpt>
      <trkpt lat="43.226203" lon="-6.842213">
        <ele>470.617</ele>
        <time>1999-07-24T13:25:39Z</time>
      </trkpt>
      <trkpt lat="43.226235" lon="-6.842177">
        <ele>470.408</ele>
        <time>1999-07-24T13:25:40Z</time>
      </trkpt>
      <trkpt lat="43.226266" lon="-6.842134">
        <ele>470.278</ele>
        <time>1999-07-24T13:25:41Z</time>
      </trkpt>
      <trkpt lat="43.226324" lon="-6.842030">
        <ele>470.094</ele>
        <time>1999-07-24T13:25:43Z</time>
      </trkpt>
      <trkpt lat="43.226355" lon="-6.841973">
        <ele>469.875</ele>
        <time>1999-07-24T13:25:44Z</time>
      </trkpt>
      <trkpt lat="43.226455" lon="-6.841813">
        <ele>469.886</ele>
        <time>1999-07-24T13:25:47Z</time>
      </trkpt>
      <trkpt lat="43.226553" lon="-6.841694">
        <ele>469.850</ele>
        <time>1999-07-24T13:25:50Z</time>
      </trkpt>
      <trkpt lat="43.226694" lon="-6.841501">
        <ele>470.249</ele>
        <time>1999-07-24T13:25:56Z</time>
      </trkpt>
      <trkpt lat="43.226833" lon="-6.841313">
        <ele>471.425</ele>
        <time>1999-07-24T13:26:03Z</time>
      </trkpt>
      <trkpt lat="43.226850" lon="-6.841287">
        <ele>471.617</ele>
        <time>1999-07-24T13:26:04Z</time>
      </trkpt>
      <trkpt lat="43.226918" lon="-6.841173">
        <ele>472.642</ele>
        <time>1999-07-24T13:26:08Z</time>
      </trkpt>
      <trkpt lat="43.226944" lon="-6.841108">
        <ele>473.422</ele>
        <time>1999-07-24T13:26:10Z</time>
      </trkpt>
      <trkpt lat="43.226976" lon="-6.841009">
        <ele>474.014</ele>
        <time>1999-07-24T13:26:13Z</time>
      </trkpt>
      <trkpt lat="43.227002" lon="-6.840908">
        <ele>475.008</ele>
        <time>1999-07-24T13:26:16Z</time>
      </trkpt>
      <trkpt lat="43.227011" lon="-6.840873">
        <ele>475.497</ele>
        <time>1999-07-24T13:26:17Z</time>
      </trkpt>
      <trkpt lat="43.227038" lon="-6.840775">
        <ele>476.433</ele>
        <time>1999-07-24T13:26:20Z</time>
      </trkpt>
      <trkpt lat="43.227095" lon="-6.840606">
        <ele>477.684</ele>
        <time>1999-07-24T13:26:25Z</time>
      </trkpt>
      <trkpt lat="43.227121" lon="-6.840527">
        <ele>478.255</ele>
        <time>1999-07-24T13:26:27Z</time>
      </trkpt>
      <trkpt lat="43.227177" lon="-6.840371">
        <ele>478.819</ele>
        <time>1999-07-24T13:26:31Z</time>
      </trkpt>
      <trkpt lat="43.227234" lon="-6.840226">
        <ele>479.698</ele>
        <time>1999-07-24T13:26:35Z</time>
      </trkpt>
      <trkpt lat="43.227256" lon="-6.840151">
        <ele>479.884</ele>
        <time>1999-07-24T13:26:37Z</time>
      </trkpt>
      <trkpt lat="43.227343" lon="-6.839920">
        <ele>480.876</ele>
        <time>1999-07-24T13:26:43Z</time>
      </trkpt>
      <trkpt lat="43.227365" lon="-6.839883">
        <ele>481.041</ele>
        <time>1999-07-24T13:26:44Z</time>
      </trkpt>
      <trkpt lat="43.227471" lon="-6.839736">
        <ele>481.681</ele>
        <time>1999-07-24T13:26:49Z</time>
      </trkpt>
      <trkpt lat="43.227526" lon="-6.839632">
        <ele>482.209</ele>
        <time>1999-07-24T13:26:52Z</time>
      </trkpt>
      <trkpt lat="43.227579" lon="-6.839528">
        <ele>482.608</ele>
        <time>1999-07-24T13:26:55Z</time>
      </trkpt>
      <trkpt lat="43.227643" lon="-6.839318">
        <ele>483.227</ele>
        <time>1999-07-24T13:27:01Z</time>
      </trkpt>
      <trkpt lat="43.227654" lon="-6.839277">
        <ele>483.433</ele>
        <time>1999-07-24T13:27:02Z</time>
      </trkpt>
      <trkpt lat="43.227699" lon="-6.839170">
        <ele>483.624</ele>
        <time>1999-07-24T13:27:04Z</time>
      </trkpt>
      <trkpt lat="43.227745" lon="-6.839106">
        <ele>483.835</ele>
        <time>1999-07-24T13:27:05Z</time>
      </trkpt>
      <trkpt lat="43.227918" lon="-6.838874">
        <ele>483.839</ele>
        <time>1999-07-24T13:27:08Z</time>
      </trkpt>
      <trkpt lat="43.227989" lon="-6.838789">
        <ele>483.818</ele>
        <time>1999-07-24T13:27:09Z</time>
      </trkpt>
      <trkpt lat="43.228194" lon="-6.838547">
        <ele>483.824</ele>
        <time>1999-07-24T13:27:12Z</time>
      </trkpt>
      <trkpt lat="43.228306" lon="-6.838419">
        <ele>483.666</ele>
        <time>1999-07-24T13:27:14Z</time>
      </trkpt>
      <trkpt lat="43.228398" lon="-6.838354">
        <ele>481.822</ele>
        <time>1999-07-24T13:27:16Z</time>
      </trkpt>
      <trkpt lat="43.228422" lon="-6.838371">
        <ele>480.662</ele>
        <time>1999-07-24T13:27:17Z</time>
      </trkpt>
      <trkpt lat="43.228437" lon="-6.838412">
        <ele>479.608</ele>
        <time>1999-07-24T13:27:18Z</time>
      </trkpt>
      <trkpt lat="43.228432" lon="-6.838457">
        <ele>478.408</ele>
        <time>1999-07-24T13:27:19Z</time>
      </trkpt>
      <trkpt lat="43.228417" lon="-6.838529">
        <ele>477.015</ele>
        <time>1999-07-24T13:27:20Z</time>
      </trkpt>
      <trkpt lat="43.228406" lon="-6.838616">
        <ele>475.841</ele>
        <time>1999-07-24T13:27:21Z</time>
      </trkpt>
      <trkpt lat="43.228401" lon="-6.838712">
        <ele>474.882</ele>
        <time>1999-07-24T13:27:22Z</time>
      </trkpt>
      <trkpt lat="43.228406" lon="-6.838827">
        <ele>473.243</ele>
        <time>1999-07-24T13:27:23Z</time>
      </trkpt>
      <trkpt lat="43.228413" lon="-6.838946">
        <ele>471.417</ele>
        <time>1999-07-24T13:27:24Z</time>
      </trkpt>
      <trkpt lat="43.228407" lon="-6.839066">
        <ele>469.876</ele>
        <time>1999-07-24T13:27:25Z</time>
      </trkpt>
      <trkpt lat="43.228390" lon="-6.839181">
        <ele>468.882</ele>
        <time>1999-07-24T13:27:26Z</time>
      </trkpt>
      <trkpt lat="43.228374" lon="-6.839282">
        <ele>468.074</ele>
        <time>1999-07-24T13:27:27Z</time>
      </trkpt>
      <trkpt lat="43.228375" lon="-6.839373">
        <ele>467.696</ele>
        <time>1999-07-24T13:27:28Z</time>
      </trkpt>
      <trkpt lat="43.228422" lon="-6.839538">
        <ele>467.031</ele>
        <time>1999-07-24T13:27:30Z</time>
      </trkpt>
      <trkpt lat="43.228529" lon="-6.839811">
        <ele>466.824</ele>
        <time>1999-07-24T13:27:34Z</time>
      </trkpt>
      <trkpt lat="43.228559" lon="-6.839933">
        <ele>466.808</ele>
        <time>1999-07-24T13:27:36Z</time>
      </trkpt>
      <trkpt lat="43.228665" lon="-6.840206">
        <ele>466.872</ele>
        <time>1999-07-24T13:27:42Z</time>
      </trkpt>
      <trkpt lat="43.228745" lon="-6.840385">
        <ele>467.848</ele>
        <time>1999-07-24T13:27:47Z</time>
      </trkpt>
      <trkpt lat="43.228756" lon="-6.840456">
        <ele>468.029</ele>
        <time>1999-07-24T13:27:49Z</time>
      </trkpt>
      <trkpt lat="43.228759" lon="-6.840524">
        <ele>468.450</ele>
        <time>1999-07-24T13:27:51Z</time>
      </trkpt>
      <trkpt lat="43.228767" lon="-6.840562">
        <ele>468.824</ele>
        <time>1999-07-24T13:27:52Z</time>
      </trkpt>
      <trkpt lat="43.228799" lon="-6.840670">
        <ele>469.453</ele>
        <time>1999-07-24T13:27:54Z</time>
      </trkpt>
      <trkpt lat="43.228844" lon="-6.840820">
        <ele>469.839</ele>
        <time>1999-07-24T13:27:56Z</time>
      </trkpt>
      <trkpt lat="43.228918" lon="-6.841050">
        <ele>470.221</ele>
        <time>1999-07-24T13:27:59Z</time>
      </trkpt>
      <trkpt lat="43.228986" lon="-6.841265">
        <ele>470.245</ele>
        <time>1999-07-24T13:28:03Z</time>
      </trkpt>
      <trkpt lat="43.229044" lon="-6.841504">
        <ele>470.247</ele>
        <time>1999-07-24T13:28:08Z</time>
      </trkpt>
      <trkpt lat="43.229089" lon="-6.841755">
        <ele>470.411</ele>
        <time>1999-07-24T13:28:14Z</time>
      </trkpt>
      <trkpt lat="43.229133" lon="-6.841890">
        <ele>470.608</ele>
        <time>1999-07-24T13:28:17Z</time>
      </trkpt>
      <trkpt lat="43.229155" lon="-6.841954">
        <ele>470.827</ele>
        <time>1999-07-24T13:28:18Z</time>
      </trkpt>
      <trkpt lat="43.229179" lon="-6.842025">
        <ele>471.263</ele>
        <time>1999-07-24T13:28:19Z</time>
      </trkpt>
      <trkpt lat="43.229227" lon="-6.842174">
        <ele>471.234</ele>
        <time>1999-07-24T13:28:21Z</time>
      </trkpt>
      <trkpt lat="43.229276" lon="-6.842305">
        <ele>471.215</ele>
        <time>1999-07-24T13:28:23Z</time>
      </trkpt>
      <trkpt lat="43.229328" lon="-6.842420">
        <ele>471.499</ele>
        <time>1999-07-24T13:28:25Z</time>
      </trkpt>
      <trkpt lat="43.229447" lon="-6.842644">
        <ele>471.898</ele>
        <time>1999-07-24T13:28:29Z</time>
      </trkpt>
      <trkpt lat="43.229539" lon="-6.842718">
        <ele>471.814</ele>
        <time>1999-07-24T13:28:31Z</time>
      </trkpt>
      <trkpt lat="43.229643" lon="-6.842779">
        <ele>471.826</ele>
        <time>1999-07-24T13:28:33Z</time>
      </trkpt>
      <trkpt lat="43.229913" lon="-6.842977">
        <ele>471.439</ele>
        <time>1999-07-24T13:28:38Z</time>
      </trkpt>
      <trkpt lat="43.229981" lon="-6.843025">
        <ele>471.401</ele>
        <time>1999-07-24T13:28:39Z</time>
      </trkpt>
      <trkpt lat="43.230140" lon="-6.843122">
        <ele>471.421</ele>
        <time>1999-07-24T13:28:41Z</time>
      </trkpt>
      <trkpt lat="43.230400" lon="-6.843240">
        <ele>471.208</ele>
        <time>1999-07-24T13:28:44Z</time>
      </trkpt>
      <trkpt lat="43.230499" lon="-6.843265">
        <ele>471.236</ele>
        <time>1999-07-24T13:28:45Z</time>
      </trkpt>
      <trkpt lat="43.230720" lon="-6.843288">
        <ele>471.052</ele>
        <time>1999-07-24T13:28:47Z</time>
      </trkpt>
      <trkpt lat="43.230938" lon="-6.843335">
        <ele>470.283</ele>
        <time>1999-07-24T13:28:49Z</time>
      </trkpt>
      <trkpt lat="43.231152" lon="-6.843419">
        <ele>469.254</ele>
        <time>1999-07-24T13:28:51Z</time>
      </trkpt>
      <trkpt lat="43.231359" lon="-6.843497">
        <ele>467.648</ele>
        <time>1999-07-24T13:28:53Z</time>
      </trkpt>
      <trkpt lat="43.231460" lon="-6.843527">
        <ele>466.057</ele>
        <time>1999-07-24T13:28:54Z</time>
      </trkpt>
      <trkpt lat="43.231662" lon="-6.843564">
        <ele>464.673</ele>
        <time>1999-07-24T13:28:56Z</time>
      </trkpt>
      <trkpt lat="43.231955" lon="-6.843636">
        <ele>463.415</ele>
        <time>1999-07-24T13:28:59Z</time>
      </trkpt>
      <trkpt lat="43.232168" lon="-6.843683">
        <ele>462.081</ele>
        <time>1999-07-24T13:29:01Z</time>
      </trkpt>
      <trkpt lat="43.232380" lon="-6.843722">
        <ele>460.461</ele>
        <time>1999-07-24T13:29:03Z</time>
      </trkpt>
      <trkpt lat="43.232700" lon="-6.843758">
        <ele>459.417</ele>
        <time>1999-07-24T13:29:06Z</time>
      </trkpt>
      <trkpt lat="43.232810" lon="-6.843771">
        <ele>459.408</ele>
        <time>1999-07-24T13:29:07Z</time>
      </trkpt>
      <trkpt lat="43.233031" lon="-6.843802">
        <ele>458.281</ele>
        <time>1999-07-24T13:29:09Z</time>
      </trkpt>
      <trkpt lat="43.233254" lon="-6.843833">
        <ele>456.887</ele>
        <time>1999-07-24T13:29:11Z</time>
      </trkpt>
      <trkpt lat="43.233469" lon="-6.843856">
        <ele>455.498</ele>
        <time>1999-07-24T13:29:13Z</time>
      </trkpt>
      <trkpt lat="43.233717" lon="-6.843833">
        <ele>454.089</ele>
        <time>1999-07-24T13:29:16Z</time>
      </trkpt>
      <trkpt lat="43.233764" lon="-6.843807">
        <ele>453.253</ele>
        <time>1999-07-24T13:29:17Z</time>
      </trkpt>
      <trkpt lat="43.233797" lon="-6.843765">
        <ele>452.622</ele>
        <time>1999-07-24T13:29:18Z</time>
      </trkpt>
      <trkpt lat="43.233841" lon="-6.843616">
        <ele>451.078</ele>
        <time>1999-07-24T13:29:20Z</time>
      </trkpt>
      <trkpt lat="43.233896" lon="-6.843447">
        <ele>447.630</ele>
        <time>1999-07-24T13:29:22Z</time>
      </trkpt>
      <trkpt lat="43.233931" lon="-6.843351">
        <ele>446.067</ele>
        <time>1999-07-24T13:29:23Z</time>
      </trkpt>
      <trkpt lat="43.233969" lon="-6.843247">
        <ele>444.881</ele>
        <time>1999-07-24T13:29:24Z</time>
      </trkpt>
      <trkpt lat="43.234004" lon="-6.843131">
        <ele>443.619</ele>
        <time>1999-07-24T13:29:25Z</time>
      </trkpt>
      <trkpt lat="43.234062" lon="-6.842874">
        <ele>442.008</ele>
        <time>1999-07-24T13:29:27Z</time>
      </trkpt>
      <trkpt lat="43.234082" lon="-6.842744">
        <ele>441.669</ele>
        <time>1999-07-24T13:29:28Z</time>
      </trkpt>
      <trkpt lat="43.234120" lon="-6.842526">
        <ele>440.875</ele>
        <time>1999-07-24T13:29:30Z</time>
      </trkpt>
      <trkpt lat="43.234150" lon="-6.842444">
        <ele>440.056</ele>
        <time>1999-07-24T13:29:31Z</time>
      </trkpt>
      <trkpt lat="43.234174" lon="-6.842375">
        <ele>439.087</ele>
        <time>1999-07-24T13:29:32Z</time>
      </trkpt>
      <trkpt lat="43.234237" lon="-6.842244">
        <ele>437.231</ele>
        <time>1999-07-24T13:29:34Z</time>
      </trkpt>
      <trkpt lat="43.234287" lon="-6.842177">
        <ele>436.870</ele>
        <time>1999-07-24T13:29:35Z</time>
      </trkpt>
      <trkpt lat="43.234336" lon="-6.842107">
        <ele>436.256</ele>
        <time>1999-07-24T13:29:36Z</time>
      </trkpt>
      <trkpt lat="43.234422" lon="-6.841965">
        <ele>435.498</ele>
        <time>1999-07-24T13:29:38Z</time>
      </trkpt>
      <trkpt lat="43.234479" lon="-6.841833">
        <ele>434.094</ele>
        <time>1999-07-24T13:29:40Z</time>
      </trkpt>
      <trkpt lat="43.234522" lon="-6.841724">
        <ele>432.457</ele>
        <time>1999-07-24T13:29:42Z</time>
      </trkpt>
      <trkpt lat="43.234561" lon="-6.841653">
        <ele>432.022</ele>
        <time>1999-07-24T13:29:44Z</time>
      </trkpt>
      <trkpt lat="43.234671" lon="-6.841491">
        <ele>431.808</ele>
        <time>1999-07-24T13:29:49Z</time>
      </trkpt>
      <trkpt lat="43.234692" lon="-6.841453">
        <ele>431.842</ele>
        <time>1999-07-24T13:29:50Z</time>
      </trkpt>
      <trkpt lat="43.234749" lon="-6.841334">
        <ele>432.448</ele>
        <time>1999-07-24T13:29:53Z</time>
      </trkpt>
      <trkpt lat="43.234787" lon="-6.841183">
        <ele>433.219</ele>
        <time>1999-07-24T13:29:56Z</time>
      </trkpt>
      <trkpt lat="43.234787" lon="-6.841072">
        <ele>433.870</ele>
        <time>1999-07-24T13:29:58Z</time>
      </trkpt>
      <trkpt lat="43.234772" lon="-6.840950">
        <ele>434.014</ele>
        <time>1999-07-24T13:30:00Z</time>
      </trkpt>
      <trkpt lat="43.234772" lon="-6.840832">
        <ele>434.263</ele>
        <time>1999-07-24T13:30:02Z</time>
      </trkpt>
      <trkpt lat="43.234824" lon="-6.840640">
        <ele>434.239</ele>
        <time>1999-07-24T13:30:05Z</time>
      </trkpt>
      <trkpt lat="43.234917" lon="-6.840477">
        <ele>434.231</ele>
        <time>1999-07-24T13:30:08Z</time>
      </trkpt>
      <trkpt lat="43.234975" lon="-6.840368">
        <ele>434.463</ele>
        <time>1999-07-24T13:30:10Z</time>
      </trkpt>
      <trkpt lat="43.235140" lon="-6.840082">
        <ele>434.644</ele>
        <time>1999-07-24T13:30:16Z</time>
      </trkpt>
      <trkpt lat="43.235169" lon="-6.840024">
        <ele>434.818</ele>
        <time>1999-07-24T13:30:17Z</time>
      </trkpt>
      <trkpt lat="43.235256" lon="-6.839842">
        <ele>434.808</ele>
        <time>1999-07-24T13:30:20Z</time>
      </trkpt>
      <trkpt lat="43.235311" lon="-6.839718">
        <ele>434.869</ele>
        <time>1999-07-24T13:30:22Z</time>
      </trkpt>
      <trkpt lat="43.235340" lon="-6.839663">
        <ele>434.875</ele>
        <time>1999-07-24T13:30:23Z</time>
      </trkpt>
      <trkpt lat="43.235396" lon="-6.839586">
        <ele>434.816</ele>
        <time>1999-07-24T13:30:26Z</time>
      </trkpt>
      <trkpt lat="43.235405" lon="-6.839607">
        <ele>434.887</ele>
        <time>1999-07-24T13:30:28Z</time>
      </trkpt>
      <trkpt lat="43.235403" lon="-6.839625">
        <ele>434.851</ele>
        <time>1999-07-24T13:30:29Z</time>
      </trkpt>
      <trkpt lat="43.235372" lon="-6.839699">
        <ele>434.210</ele>
        <time>1999-07-24T13:30:32Z</time>
      </trkpt>
      <trkpt lat="43.235356" lon="-6.839751">
        <ele>433.866</ele>
        <time>1999-07-24T13:30:33Z</time>
      </trkpt>
      <trkpt lat="43.235324" lon="-6.839894">
        <ele>433.268</ele>
        <time>1999-07-24T13:30:37Z</time>
      </trkpt>
      <trkpt lat="43.235325" lon="-6.839909">
        <ele>432.835</ele>
        <time>1999-07-24T13:30:38Z</time>
      </trkpt>
      <trkpt lat="43.235330" lon="-6.839917">
        <ele>432.886</ele>
        <time>1999-07-24T13:30:39Z</time>
      </trkpt>
      <trkpt lat="43.235334" lon="-6.839924">
        <ele>432.414</ele>
        <time>1999-07-24T13:30:40Z</time>
      </trkpt>
      <trkpt lat="43.235343" lon="-6.839934">
        <ele>431.608</ele>
        <time>1999-07-24T13:30:42Z</time>
      </trkpt>
      <trkpt lat="43.235364" lon="-6.839913">
        <ele>430.226</ele>
        <time>1999-07-24T13:30:44Z</time>
      </trkpt>
      <trkpt lat="43.235373" lon="-6.839898">
        <ele>428.892</ele>
        <time>1999-07-24T13:30:45Z</time>
      </trkpt>
      <trkpt lat="43.235400" lon="-6.839846">
        <ele>427.823</ele>
        <time>1999-07-24T13:30:47Z</time>
      </trkpt>
      <trkpt lat="43.235459" lon="-6.839763">
        <ele>427.224</ele>
        <time>1999-07-24T13:30:50Z</time>
      </trkpt>
      <trkpt lat="43.235478" lon="-6.839734">
        <ele>427.078</ele>
        <time>1999-07-24T13:30:51Z</time>
      </trkpt>
      <trkpt lat="43.235531" lon="-6.839667">
        <ele>426.867</ele>
        <time>1999-07-24T13:30:53Z</time>
      </trkpt>
      <trkpt lat="43.235562" lon="-6.839639">
        <ele>426.653</ele>
        <time>1999-07-24T13:30:54Z</time>
      </trkpt>
      <trkpt lat="43.235585" lon="-6.839603">
        <ele>426.455</ele>
        <time>1999-07-24T13:30:55Z</time>
      </trkpt>
      <trkpt lat="43.235655" lon="-6.839525">
        <ele>424.891</ele>
        <time>1999-07-24T13:30:57Z</time>
      </trkpt>
      <trkpt lat="43.235696" lon="-6.839497">
        <ele>423.881</ele>
        <time>1999-07-24T13:30:58Z</time>
      </trkpt>
      <trkpt lat="43.235739" lon="-6.839469">
        <ele>422.819</ele>
        <time>1999-07-24T13:30:59Z</time>
      </trkpt>
      <trkpt lat="43.235817" lon="-6.839426">
        <ele>421.008</ele>
        <time>1999-07-24T13:31:01Z</time>
      </trkpt>
      <trkpt lat="43.235870" lon="-6.839390">
        <ele>419.442</ele>
        <time>1999-07-24T13:31:03Z</time>
      </trkpt>
      <trkpt lat="43.235903" lon="-6.839371">
        <ele>417.888</ele>
        <time>1999-07-24T13:31:05Z</time>
      </trkpt>
      <trkpt lat="43.235917" lon="-6.839359">
        <ele>416.019</ele>
        <time>1999-07-24T13:31:07Z</time>
      </trkpt>
      <trkpt lat="43.236019" lon="-6.839287">
        <ele>409.090</ele>
        <time>1999-07-24T13:31:19Z</time>
      </trkpt>
      <trkpt lat="43.236057" lon="-6.839280">
        <ele>408.814</ele>
        <time>1999-07-24T13:31:20Z</time>
      </trkpt>
      <trkpt lat="43.236097" lon="-6.839259">
        <ele>408.863</ele>
        <time>1999-07-24T13:31:21Z</time>
      </trkpt>
      <trkpt lat="43.236158" lon="-6.839209">
        <ele>408.829</ele>
        <time>1999-07-24T13:31:22Z</time>
      </trkpt>
      <trkpt lat="43.236263" lon="-6.839116">
        <ele>408.651</ele>
        <time>1999-07-24T13:31:24Z</time>
      </trkpt>
      <trkpt lat="43.236354" lon="-6.839028">
        <ele>408.044</ele>
        <time>1999-07-24T13:31:27Z</time>
      </trkpt>
      <trkpt lat="43.236373" lon="-6.839019">
        <ele>407.405</ele>
        <time>1999-07-24T13:31:28Z</time>
      </trkpt>
      <trkpt lat="43.236371" lon="-6.839043">
        <ele>406.015</ele>
        <time>1999-07-24T13:31:30Z</time>
      </trkpt>
      <trkpt lat="43.236367" lon="-6.839066">
        <ele>405.408</ele>
        <time>1999-07-24T13:31:31Z</time>
      </trkpt>
      <trkpt lat="43.236355" lon="-6.839103">
        <ele>404.217</ele>
        <time>1999-07-24T13:31:32Z</time>
      </trkpt>
      <trkpt lat="43.236334" lon="-6.839142">
        <ele>403.043</ele>
        <time>1999-07-24T13:31:33Z</time>
      </trkpt>
      <trkpt lat="43.236311" lon="-6.839183">
        <ele>401.864</ele>
        <time>1999-07-24T13:31:34Z</time>
      </trkpt>
      <trkpt lat="43.236282" lon="-6.839225">
        <ele>401.035</ele>
        <time>1999-07-24T13:31:35Z</time>
      </trkpt>
      <trkpt lat="43.236255" lon="-6.839273">
        <ele>400.289</ele>
        <time>1999-07-24T13:31:36Z</time>
      </trkpt>
      <trkpt lat="43.236177" lon="-6.839415">
        <ele>399.018</ele>
        <time>1999-07-24T13:31:39Z</time>
      </trkpt>
      <trkpt lat="43.236165" lon="-6.839449">
        <ele>398.294</ele>
        <time>1999-07-24T13:31:40Z</time>
      </trkpt>
      <trkpt lat="43.236153" lon="-6.839489">
        <ele>397.836</ele>
        <time>1999-07-24T13:31:41Z</time>
      </trkpt>
      <trkpt lat="43.236109" lon="-6.839585">
        <ele>396.852</ele>
        <time>1999-07-24T13:31:43Z</time>
      </trkpt>
      <trkpt lat="43.236055" lon="-6.839695">
        <ele>395.653</ele>
        <time>1999-07-24T13:31:45Z</time>
      </trkpt>
      <trkpt lat="43.235997" lon="-6.839818">
        <ele>394.208</ele>
        <time>1999-07-24T13:31:47Z</time>
      </trkpt>
      <trkpt lat="43.235949" lon="-6.839953">
        <ele>392.208</ele>
        <time>1999-07-24T13:31:49Z</time>
      </trkpt>
      <trkpt lat="43.235906" lon="-6.840040">
        <ele>391.668</ele>
        <time>1999-07-24T13:31:50Z</time>
      </trkpt>
      <trkpt lat="43.235851" lon="-6.840235">
        <ele>390.674</ele>
        <time>1999-07-24T13:31:52Z</time>
      </trkpt>
      <trkpt lat="43.235814" lon="-6.840403">
        <ele>389.675</ele>
        <time>1999-07-24T13:31:54Z</time>
      </trkpt>
      <trkpt lat="43.235795" lon="-6.840480">
        <ele>389.236</ele>
        <time>1999-07-24T13:31:55Z</time>
      </trkpt>
      <trkpt lat="43.235752" lon="-6.840611">
        <ele>388.210</ele>
        <time>1999-07-24T13:31:57Z</time>
      </trkpt>
      <trkpt lat="43.235697" lon="-6.840755">
        <ele>387.239</ele>
        <time>1999-07-24T13:31:59Z</time>
      </trkpt>
      <trkpt lat="43.235676" lon="-6.840822">
        <ele>386.815</ele>
        <time>1999-07-24T13:32:00Z</time>
      </trkpt>
      <trkpt lat="43.235632" lon="-6.840933">
        <ele>385.257</ele>
        <time>1999-07-24T13:32:02Z</time>
      </trkpt>
      <trkpt lat="43.235607" lon="-6.840984">
        <ele>384.429</ele>
        <time>1999-07-24T13:32:03Z</time>
      </trkpt>
      <trkpt lat="43.235600" lon="-6.841011">
        <ele>383.600</ele>
        <time>1999-07-24T13:32:04Z</time>
      </trkpt>
      <trkpt lat="43.235588" lon="-6.841040">
        <ele>382.420</ele>
        <time>1999-07-24T13:32:06Z</time>
      </trkpt>
      <trkpt lat="43.235583" lon="-6.841051">
        <ele>380.808</ele>
        <time>1999-07-24T13:32:07Z</time>
      </trkpt>
      <trkpt lat="43.235625" lon="-6.841013">
        <ele>375.895</ele>
        <time>1999-07-24T13:32:13Z</time>
      </trkpt>
      <trkpt lat="43.235647" lon="-6.840989">
        <ele>375.411</ele>
        <time>1999-07-24T13:32:14Z</time>
      </trkpt>
      <trkpt lat="43.235784" lon="-6.840827">
        <ele>374.862</ele>
        <time>1999-07-24T13:32:19Z</time>
      </trkpt>
      <trkpt lat="43.235808" lon="-6.840785">
        <ele>374.623</ele>
        <time>1999-07-24T13:32:20Z</time>
      </trkpt>
      <trkpt lat="43.235830" lon="-6.840737">
        <ele>374.487</ele>
        <time>1999-07-24T13:32:21Z</time>
      </trkpt>
      <trkpt lat="43.235877" lon="-6.840626">
        <ele>374.076</ele>
        <time>1999-07-24T13:32:23Z</time>
      </trkpt>
      <trkpt lat="43.235896" lon="-6.840566">
        <ele>373.422</ele>
        <time>1999-07-24T13:32:24Z</time>
      </trkpt>
      <trkpt lat="43.235969" lon="-6.840374">
        <ele>372.684</ele>
        <time>1999-07-24T13:32:27Z</time>
      </trkpt>
      <trkpt lat="43.235994" lon="-6.840317">
        <ele>372.066</ele>
        <time>1999-07-24T13:32:28Z</time>
      </trkpt>
      <trkpt lat="43.236048" lon="-6.840210">
        <ele>371.429</ele>
        <time>1999-07-24T13:32:30Z</time>
      </trkpt>
      <trkpt lat="43.236192" lon="-6.840018">
        <ele>370.421</ele>
        <time>1999-07-24T13:32:34Z</time>
      </trkpt>
      <trkpt lat="43.236246" lon="-6.839966">
        <ele>370.008</ele>
        <time>1999-07-24T13:32:35Z</time>
      </trkpt>
      <trkpt lat="43.236323" lon="-6.839894">
        <ele>369.699</ele>
        <time>1999-07-24T13:32:37Z</time>
      </trkpt>
      <trkpt lat="43.236370" lon="-6.839874">
        <ele>369.225</ele>
        <time>1999-07-24T13:32:38Z</time>
      </trkpt>
      <trkpt lat="43.236416" lon="-6.839854">
        <ele>368.836</ele>
        <time>1999-07-24T13:32:39Z</time>
      </trkpt>
      <trkpt lat="43.236486" lon="-6.839813">
        <ele>368.487</ele>
        <time>1999-07-24T13:32:41Z</time>
      </trkpt>
      <trkpt lat="43.236510" lon="-6.839809">
        <ele>368.251</ele>
        <time>1999-07-24T13:32:42Z</time>
      </trkpt>
      <trkpt lat="43.236525" lon="-6.839810">
        <ele>368.020</ele>
        <time>1999-07-24T13:32:43Z</time>
      </trkpt>
      <trkpt lat="43.236525" lon="-6.839822">
        <ele>367.466</ele>
        <time>1999-07-24T13:32:44Z</time>
      </trkpt>
      <trkpt lat="43.236513" lon="-6.839831">
        <ele>366.818</ele>
        <time>1999-07-24T13:32:45Z</time>
      </trkpt>
      <trkpt lat="43.236494" lon="-6.839838">
        <ele>366.219</ele>
        <time>1999-07-24T13:32:46Z</time>
      </trkpt>
      <trkpt lat="43.236452" lon="-6.839872">
        <ele>364.409</ele>
        <time>1999-07-24T13:32:48Z</time>
      </trkpt>
      <trkpt lat="43.236436" lon="-6.839898">
        <ele>363.819</ele>
        <time>1999-07-24T13:32:49Z</time>
      </trkpt>
      <trkpt lat="43.236426" lon="-6.839928">
        <ele>363.008</ele>
        <time>1999-07-24T13:32:50Z</time>
      </trkpt>
      <trkpt lat="43.236393" lon="-6.840018">
        <ele>362.074</ele>
        <time>1999-07-24T13:32:52Z</time>
      </trkpt>
      <trkpt lat="43.236378" lon="-6.840068">
        <ele>361.630</ele>
        <time>1999-07-24T13:32:53Z</time>
      </trkpt>
      <trkpt lat="43.236349" lon="-6.840153">
        <ele>361.251</ele>
        <time>1999-07-24T13:32:55Z</time>
      </trkpt>
      <trkpt lat="43.236334" lon="-6.840203">
        <ele>361.072</ele>
        <time>1999-07-24T13:32:56Z</time>
      </trkpt>
      <trkpt lat="43.236275" lon="-6.840349">
        <ele>359.846</ele>
        <time>1999-07-24T13:32:58Z</time>
      </trkpt>
      <trkpt lat="43.236253" lon="-6.840430">
        <ele>359.275</ele>
        <time>1999-07-24T13:32:59Z</time>
      </trkpt>
      <trkpt lat="43.236230" lon="-6.840508">
        <ele>358.461</ele>
        <time>1999-07-24T13:33:00Z</time>
      </trkpt>
      <trkpt lat="43.236193" lon="-6.840640">
        <ele>355.293</ele>
        <time>1999-07-24T13:33:02Z</time>
      </trkpt>
      <trkpt lat="43.236177" lon="-6.840708">
        <ele>354.219</ele>
        <time>1999-07-24T13:33:03Z</time>
      </trkpt>
      <trkpt lat="43.236144" lon="-6.840850">
        <ele>352.209</ele>
        <time>1999-07-24T13:33:05Z</time>
      </trkpt>
      <trkpt lat="43.236105" lon="-6.840975">
        <ele>350.419</ele>
        <time>1999-07-24T13:33:07Z</time>
      </trkpt>
      <trkpt lat="43.236075" lon="-6.841047">
        <ele>349.408</ele>
        <time>1999-07-24T13:33:08Z</time>
      </trkpt>
      <trkpt lat="43.236049" lon="-6.841101">
        <ele>348.244</ele>
        <time>1999-07-24T13:33:09Z</time>
      </trkpt>
      <trkpt lat="43.236018" lon="-6.841165">
        <ele>347.080</ele>
        <time>1999-07-24T13:33:10Z</time>
      </trkpt>
      <trkpt lat="43.236002" lon="-6.841213">
        <ele>345.821</ele>
        <time>1999-07-24T13:33:11Z</time>
      </trkpt>
      <trkpt lat="43.235988" lon="-6.841291">
        <ele>344.082</ele>
        <time>1999-07-24T13:33:13Z</time>
      </trkpt>
      <trkpt lat="43.235969" lon="-6.841406">
        <ele>342.486</ele>
        <time>1999-07-24T13:33:15Z</time>
      </trkpt>
      <trkpt lat="43.235971" lon="-6.841539">
        <ele>341.235</ele>
        <time>1999-07-24T13:33:17Z</time>
      </trkpt>
      <trkpt lat="43.235952" lon="-6.841670">
        <ele>340.281</ele>
        <time>1999-07-24T13:33:19Z</time>
      </trkpt>
      <trkpt lat="43.235953" lon="-6.841763">
        <ele>339.083</ele>
        <time>1999-07-24T13:33:21Z</time>
      </trkpt>
      <trkpt lat="43.235942" lon="-6.841809">
        <ele>338.676</ele>
        <time>1999-07-24T13:33:22Z</time>
      </trkpt>
      <trkpt lat="43.235924" lon="-6.841924">
        <ele>337.690</ele>
        <time>1999-07-24T13:33:24Z</time>
      </trkpt>
      <trkpt lat="43.235922" lon="-6.842020">
        <ele>336.619</ele>
        <time>1999-07-24T13:33:26Z</time>
      </trkpt>
      <trkpt lat="43.235929" lon="-6.842052">
        <ele>336.008</ele>
        <time>1999-07-24T13:33:27Z</time>
      </trkpt>
      <trkpt lat="43.235956" lon="-6.842087">
        <ele>334.460</ele>
        <time>1999-07-24T13:33:29Z</time>
      </trkpt>
      <trkpt lat="43.235968" lon="-6.842088">
        <ele>333.436</ele>
        <time>1999-07-24T13:33:30Z</time>
      </trkpt>
      <trkpt lat="43.235975" lon="-6.842081">
        <ele>332.277</ele>
        <time>1999-07-24T13:33:32Z</time>
      </trkpt>
      <trkpt lat="43.235979" lon="-6.842061">
        <ele>331.488</ele>
        <time>1999-07-24T13:33:33Z</time>
      </trkpt>
      <trkpt lat="43.235987" lon="-6.842025">
        <ele>330.662</ele>
        <time>1999-07-24T13:33:34Z</time>
      </trkpt>
      <trkpt lat="43.236024" lon="-6.841937">
        <ele>329.421</ele>
        <time>1999-07-24T13:33:36Z</time>
      </trkpt>
      <trkpt lat="43.236049" lon="-6.841897">
        <ele>329.077</ele>
        <time>1999-07-24T13:33:37Z</time>
      </trkpt>
      <trkpt lat="43.236087" lon="-6.841823">
        <ele>328.499</ele>
        <time>1999-07-24T13:33:39Z</time>
      </trkpt>
      <trkpt lat="43.236121" lon="-6.841720">
        <ele>327.845</ele>
        <time>1999-07-24T13:33:41Z</time>
      </trkpt>
      <trkpt lat="43.236147" lon="-6.841626">
        <ele>327.247</ele>
        <time>1999-07-24T13:33:43Z</time>
      </trkpt>
      <trkpt lat="43.236172" lon="-6.841570">
        <ele>325.611</ele>
        <time>1999-07-24T13:33:45Z</time>
      </trkpt>
      <trkpt lat="43.236193" lon="-6.841532">
        <ele>324.208</ele>
        <time>1999-07-24T13:33:47Z</time>
      </trkpt>
      <trkpt lat="43.236220" lon="-6.841491">
        <ele>322.637</ele>
        <time>1999-07-24T13:33:49Z</time>
      </trkpt>
      <trkpt lat="43.236231" lon="-6.841475">
        <ele>321.843</ele>
        <time>1999-07-24T13:33:50Z</time>
      </trkpt>
      <trkpt lat="43.236249" lon="-6.841454">
        <ele>320.814</ele>
        <time>1999-07-24T13:33:51Z</time>
      </trkpt>
      <trkpt lat="43.236283" lon="-6.841402">
        <ele>319.675</ele>
        <time>1999-07-24T13:33:53Z</time>
      </trkpt>
      <trkpt lat="43.236335" lon="-6.841321">
        <ele>318.299</ele>
        <time>1999-07-24T13:33:56Z</time>
      </trkpt>
      <trkpt lat="43.236395" lon="-6.841251">
        <ele>316.488</ele>
        <time>1999-07-24T13:33:58Z</time>
      </trkpt>
      <trkpt lat="43.236440" lon="-6.841190">
        <ele>315.244</ele>
        <time>1999-07-24T13:34:00Z</time>
      </trkpt>
      <trkpt lat="43.236470" lon="-6.841156">
        <ele>314.686</ele>
        <time>1999-07-24T13:34:01Z</time>
      </trkpt>
      <trkpt lat="43.236500" lon="-6.841115">
        <ele>314.021</ele>
        <time>1999-07-24T13:34:02Z</time>
      </trkpt>
      <trkpt lat="43.236568" lon="-6.841018">
        <ele>312.841</ele>
        <time>1999-07-24T13:34:04Z</time>
      </trkpt>
      <trkpt lat="43.236624" lon="-6.840932">
        <ele>312.005</ele>
        <time>1999-07-24T13:34:06Z</time>
      </trkpt>
      <trkpt lat="43.236653" lon="-6.840899">
        <ele>311.608</ele>
        <time>1999-07-24T13:34:07Z</time>
      </trkpt>
      <trkpt lat="43.236723" lon="-6.840829">
        <ele>310.275</ele>
        <time>1999-07-24T13:34:09Z</time>
      </trkpt>
      <trkpt lat="43.236824" lon="-6.840758">
        <ele>309.051</ele>
        <time>1999-07-24T13:34:11Z</time>
      </trkpt>
      <trkpt lat="43.236927" lon="-6.840687">
        <ele>307.422</ele>
        <time>1999-07-24T13:34:13Z</time>
      </trkpt>
      <trkpt lat="43.237029" lon="-6.840611">
        <ele>306.023</ele>
        <time>1999-07-24T13:34:15Z</time>
      </trkpt>
      <trkpt lat="43.237149" lon="-6.840485">
        <ele>304.817</ele>
        <time>1999-07-24T13:34:17Z</time>
      </trkpt>
      <trkpt lat="43.237277" lon="-6.840371">
        <ele>303.836</ele>
        <time>1999-07-24T13:34:19Z</time>
      </trkpt>
      <trkpt lat="43.237402" lon="-6.840228">
        <ele>302.222</ele>
        <time>1999-07-24T13:34:21Z</time>
      </trkpt>
      <trkpt lat="43.237453" lon="-6.840166">
        <ele>301.654</ele>
        <time>1999-07-24T13:34:22Z</time>
      </trkpt>
      <trkpt lat="43.237494" lon="-6.840122">
        <ele>301.073</ele>
        <time>1999-07-24T13:34:23Z</time>
      </trkpt>
      <trkpt lat="43.237595" lon="-6.840033">
        <ele>299.885</ele>
        <time>1999-07-24T13:34:25Z</time>
      </trkpt>
      <trkpt lat="43.237640" lon="-6.839989">
        <ele>299.013</ele>
        <time>1999-07-24T13:34:26Z</time>
      </trkpt>
      <trkpt lat="43.237681" lon="-6.839945">
        <ele>298.208</ele>
        <time>1999-07-24T13:34:27Z</time>
      </trkpt>
      <trkpt lat="43.237739" lon="-6.839891">
        <ele>296.430</ele>
        <time>1999-07-24T13:34:29Z</time>
      </trkpt>
      <trkpt lat="43.237765" lon="-6.839874">
        <ele>295.656</ele>
        <time>1999-07-24T13:34:30Z</time>
      </trkpt>
      <trkpt lat="43.237785" lon="-6.839868">
        <ele>294.677</ele>
        <time>1999-07-24T13:34:31Z</time>
      </trkpt>
      <trkpt lat="43.237806" lon="-6.839869">
        <ele>293.828</ele>
        <time>1999-07-24T13:34:32Z</time>
      </trkpt>
      <trkpt lat="43.237831" lon="-6.839878">
        <ele>292.812</ele>
        <time>1999-07-24T13:34:33Z</time>
      </trkpt>
      <trkpt lat="43.237848" lon="-6.839898">
        <ele>292.081</ele>
        <time>1999-07-24T13:34:34Z</time>
      </trkpt>
      <trkpt lat="43.237864" lon="-6.839921">
        <ele>291.027</ele>
        <time>1999-07-24T13:34:35Z</time>
      </trkpt>
      <trkpt lat="43.237874" lon="-6.839958">
        <ele>289.429</ele>
        <time>1999-07-24T13:34:37Z</time>
      </trkpt>
      <trkpt lat="43.237883" lon="-6.839959">
        <ele>288.615</ele>
        <time>1999-07-24T13:34:38Z</time>
      </trkpt>
      <trkpt lat="43.237892" lon="-6.839962">
        <ele>288.065</ele>
        <time>1999-07-24T13:34:39Z</time>
      </trkpt>
      <trkpt lat="43.237891" lon="-6.840007">
        <ele>286.411</ele>
        <time>1999-07-24T13:34:46Z</time>
      </trkpt>
      <trkpt lat="43.237857" lon="-6.840066">
        <ele>286.208</ele>
        <time>1999-07-24T13:34:48Z</time>
      </trkpt>
      <trkpt lat="43.237827" lon="-6.840104">
        <ele>286.264</ele>
        <time>1999-07-24T13:34:49Z</time>
      </trkpt>
      <trkpt lat="43.237756" lon="-6.840191">
        <ele>286.020</ele>
        <time>1999-07-24T13:34:51Z</time>
      </trkpt>
      <trkpt lat="43.237604" lon="-6.840406">
        <ele>286.011</ele>
        <time>1999-07-24T13:34:55Z</time>
      </trkpt>
      <trkpt lat="43.237497" lon="-6.840527">
        <ele>285.682</ele>
        <time>1999-07-24T13:34:57Z</time>
      </trkpt>
      <trkpt lat="43.237185" lon="-6.840872">
        <ele>284.486</ele>
        <time>1999-07-24T13:35:02Z</time>
      </trkpt>
      <trkpt lat="43.237124" lon="-6.840942">
        <ele>284.245</ele>
        <time>1999-07-24T13:35:03Z</time>
      </trkpt>
      <trkpt lat="43.237003" lon="-6.841081">
        <ele>283.281</ele>
        <time>1999-07-24T13:35:05Z</time>
      </trkpt>
      <trkpt lat="43.236870" lon="-6.841229">
        <ele>282.233</ele>
        <time>1999-07-24T13:35:07Z</time>
      </trkpt>
      <trkpt lat="43.236757" lon="-6.841430">
        <ele>281.421</ele>
        <time>1999-07-24T13:35:09Z</time>
      </trkpt>
      <trkpt lat="43.236680" lon="-6.841855">
        <ele>280.241</ele>
        <time>1999-07-24T13:35:12Z</time>
      </trkpt>
      <trkpt lat="43.236649" lon="-6.841990">
        <ele>279.805</ele>
        <time>1999-07-24T13:35:13Z</time>
      </trkpt>
      <trkpt lat="43.236562" lon="-6.842235">
        <ele>279.008</ele>
        <time>1999-07-24T13:35:15Z</time>
      </trkpt>
      <trkpt lat="43.236443" lon="-6.842462">
        <ele>278.075</ele>
        <time>1999-07-24T13:35:17Z</time>
      </trkpt>
      <trkpt lat="43.236396" lon="-6.842570">
        <ele>277.431</ele>
        <time>1999-07-24T13:35:18Z</time>
      </trkpt>
      <trkpt lat="43.236362" lon="-6.842678">
        <ele>276.832</ele>
        <time>1999-07-24T13:35:19Z</time>
      </trkpt>
      <trkpt lat="43.236340" lon="-6.842767">
        <ele>275.843</ele>
        <time>1999-07-24T13:35:20Z</time>
      </trkpt>
      <trkpt lat="43.236315" lon="-6.842875">
        <ele>275.027</ele>
        <time>1999-07-24T13:35:22Z</time>
      </trkpt>
      <trkpt lat="43.236311" lon="-6.842894">
        <ele>274.476</ele>
        <time>1999-07-24T13:35:23Z</time>
      </trkpt>
      <trkpt lat="43.236302" lon="-6.842895">
        <ele>273.272</ele>
        <time>1999-07-24T13:35:25Z</time>
      </trkpt>
      <trkpt lat="43.236308" lon="-6.842893">
        <ele>272.244</ele>
        <time>1999-07-24T13:35:26Z</time>
      </trkpt>
      <trkpt lat="43.236279" lon="-6.843000">
        <ele>266.848</ele>
        <time>1999-07-24T13:38:39Z</time>
      </trkpt>
      <trkpt lat="43.236214" lon="-6.842985">
        <ele>266.861</ele>
        <time>1999-07-24T13:38:41Z</time>
      </trkpt>
      <trkpt lat="43.236158" lon="-6.843010">
        <ele>266.817</ele>
        <time>1999-07-24T13:38:44Z</time>
      </trkpt>
      <trkpt lat="43.236122" lon="-6.843044">
        <ele>267.008</ele>
        <time>1999-07-24T13:38:45Z</time>
      </trkpt>
      <trkpt lat="43.236090" lon="-6.843081">
        <ele>267.037</ele>
        <time>1999-07-24T13:38:46Z</time>
      </trkpt>
      <trkpt lat="43.235990" lon="-6.843242">
        <ele>267.023</ele>
        <time>1999-07-24T13:38:49Z</time>
      </trkpt>
      <trkpt lat="43.235960" lon="-6.843312">
        <ele>267.054</ele>
        <time>1999-07-24T13:38:50Z</time>
      </trkpt>
      <trkpt lat="43.235909" lon="-6.843473">
        <ele>267.015</ele>
        <time>1999-07-24T13:38:52Z</time>
      </trkpt>
      <trkpt lat="43.235899" lon="-6.843669">
        <ele>267.219</ele>
        <time>1999-07-24T13:38:54Z</time>
      </trkpt>
      <trkpt lat="43.235920" lon="-6.843871">
        <ele>266.838</ele>
        <time>1999-07-24T13:38:56Z</time>
      </trkpt>
      <trkpt lat="43.235933" lon="-6.844181">
        <ele>266.274</ele>
        <time>1999-07-24T13:38:59Z</time>
      </trkpt>
      <trkpt lat="43.235913" lon="-6.844275">
        <ele>265.876</ele>
        <time>1999-07-24T13:39:00Z</time>
      </trkpt>
      <trkpt lat="43.235827" lon="-6.844453">
        <ele>265.243</ele>
        <time>1999-07-24T13:39:02Z</time>
      </trkpt>
      <trkpt lat="43.235773" lon="-6.844539">
        <ele>265.064</ele>
        <time>1999-07-24T13:39:03Z</time>
      </trkpt>
      <trkpt lat="43.235713" lon="-6.844626">
        <ele>264.610</ele>
        <time>1999-07-24T13:39:04Z</time>
      </trkpt>
      <trkpt lat="43.235543" lon="-6.844917">
        <ele>263.808</ele>
        <time>1999-07-24T13:39:07Z</time>
      </trkpt>
      <trkpt lat="43.235503" lon="-6.845027">
        <ele>263.617</ele>
        <time>1999-07-24T13:39:08Z</time>
      </trkpt>
      <trkpt lat="43.235416" lon="-6.845385">
        <ele>262.863</ele>
        <time>1999-07-24T13:39:11Z</time>
      </trkpt>
      <trkpt lat="43.235391" lon="-6.845511">
        <ele>262.464</ele>
        <time>1999-07-24T13:39:12Z</time>
      </trkpt>
      <trkpt lat="43.235377" lon="-6.845637">
        <ele>261.885</ele>
        <time>1999-07-24T13:39:13Z</time>
      </trkpt>
      <trkpt lat="43.235386" lon="-6.845883">
        <ele>261.239</ele>
        <time>1999-07-24T13:39:15Z</time>
      </trkpt>
      <trkpt lat="43.235432" lon="-6.846226">
        <ele>259.818</ele>
        <time>1999-07-24T13:39:18Z</time>
      </trkpt>
      <trkpt lat="43.235434" lon="-6.846328">
        <ele>259.454</ele>
        <time>1999-07-24T13:39:19Z</time>
      </trkpt>
      <trkpt lat="43.235433" lon="-6.846427">
        <ele>259.056</ele>
        <time>1999-07-24T13:39:20Z</time>
      </trkpt>
      <trkpt lat="43.235425" lon="-6.846622">
        <ele>257.645</ele>
        <time>1999-07-24T13:39:22Z</time>
      </trkpt>
      <trkpt lat="43.235432" lon="-6.846717">
        <ele>257.047</ele>
        <time>1999-07-24T13:39:23Z</time>
      </trkpt>
      <trkpt lat="43.235452" lon="-6.846809">
        <ele>256.411</ele>
        <time>1999-07-24T13:39:24Z</time>
      </trkpt>
      <trkpt lat="43.235489" lon="-6.846891">
        <ele>256.208</ele>
        <time>1999-07-24T13:39:25Z</time>
      </trkpt>
      <trkpt lat="43.235602" lon="-6.847009">
        <ele>255.447</ele>
        <time>1999-07-24T13:39:27Z</time>
      </trkpt>
      <trkpt lat="43.235661" lon="-6.847055">
        <ele>255.223</ele>
        <time>1999-07-24T13:39:28Z</time>
      </trkpt>
      <trkpt lat="43.235839" lon="-6.847184">
        <ele>254.484</ele>
        <time>1999-07-24T13:39:31Z</time>
      </trkpt>
      <trkpt lat="43.235899" lon="-6.847225">
        <ele>254.255</ele>
        <time>1999-07-24T13:39:32Z</time>
      </trkpt>
      <trkpt lat="43.236016" lon="-6.847298">
        <ele>254.239</ele>
        <time>1999-07-24T13:39:34Z</time>
      </trkpt>
      <trkpt lat="43.236069" lon="-6.847330">
        <ele>254.068</ele>
        <time>1999-07-24T13:39:35Z</time>
      </trkpt>
      <trkpt lat="43.236314" lon="-6.847463">
        <ele>253.664</ele>
        <time>1999-07-24T13:39:40Z</time>
      </trkpt>
      <trkpt lat="43.236342" lon="-6.847467">
        <ele>253.466</ele>
        <time>1999-07-24T13:39:43Z</time>
      </trkpt>
      <trkpt lat="43.236424" lon="-6.847469">
        <ele>252.054</ele>
        <time>1999-07-24T13:40:31Z</time>
      </trkpt>
      <trkpt lat="43.236454" lon="-6.847484">
        <ele>252.056</ele>
        <time>1999-07-24T13:40:32Z</time>
      </trkpt>
      <trkpt lat="43.236487" lon="-6.847501">
        <ele>252.011</ele>
        <time>1999-07-24T13:40:33Z</time>
      </trkpt>
      <trkpt lat="43.236599" lon="-6.847544">
        <ele>252.008</ele>
        <time>1999-07-24T13:40:36Z</time>
      </trkpt>
      <trkpt lat="43.236725" lon="-6.847590">
        <ele>252.018</ele>
        <time>1999-07-24T13:40:39Z</time>
      </trkpt>
      <trkpt lat="43.237096" lon="-6.847684">
        <ele>252.254</ele>
        <time>1999-07-24T13:40:47Z</time>
      </trkpt>
      <trkpt lat="43.237143" lon="-6.847692">
        <ele>252.265</ele>
        <time>1999-07-24T13:40:50Z</time>
      </trkpt>
      <trkpt lat="43.237143" lon="-6.847692">
        <ele>252.286</ele>
        <time>1999-07-24T13:40:51Z</time>
      </trkpt>
      <trkpt lat="43.237209" lon="-6.847681">
        <ele>252.420</ele>
        <time>1999-07-24T13:41:48Z</time>
      </trkpt>
      <trkpt lat="43.237262" lon="-6.847687">
        <ele>252.479</ele>
        <time>1999-07-24T13:41:50Z</time>
      </trkpt>
      <trkpt lat="43.237482" lon="-6.847721">
        <ele>252.615</ele>
        <time>1999-07-24T13:41:56Z</time>
      </trkpt>
      <trkpt lat="43.237590" lon="-6.847812">
        <ele>252.877</ele>
        <time>1999-07-24T13:41:59Z</time>
      </trkpt>
      <trkpt lat="43.237617" lon="-6.847851">
        <ele>252.824</ele>
        <time>1999-07-24T13:42:00Z</time>
      </trkpt>
      <trkpt lat="43.237669" lon="-6.847942">
        <ele>253.004</ele>
        <time>1999-07-24T13:42:02Z</time>
      </trkpt>
      <trkpt lat="43.237712" lon="-6.848042">
        <ele>253.214</ele>
        <time>1999-07-24T13:42:04Z</time>
      </trkpt>
      <trkpt lat="43.237744" lon="-6.848148">
        <ele>253.208</ele>
        <time>1999-07-24T13:42:06Z</time>
      </trkpt>
      <trkpt lat="43.237758" lon="-6.848201">
        <ele>253.445</ele>
        <time>1999-07-24T13:42:07Z</time>
      </trkpt>
      <trkpt lat="43.237792" lon="-6.848300">
        <ele>253.651</ele>
        <time>1999-07-24T13:42:09Z</time>
      </trkpt>
      <trkpt lat="43.237828" lon="-6.848399">
        <ele>253.862</ele>
        <time>1999-07-24T13:42:11Z</time>
      </trkpt>
      <trkpt lat="43.237864" lon="-6.848488">
        <ele>253.813</ele>
        <time>1999-07-24T13:42:13Z</time>
      </trkpt>
      <trkpt lat="43.237894" lon="-6.848583">
        <ele>253.827</ele>
        <time>1999-07-24T13:42:15Z</time>
      </trkpt>
      <trkpt lat="43.237912" lon="-6.848718">
        <ele>254.096</ele>
        <time>1999-07-24T13:42:18Z</time>
      </trkpt>
      <trkpt lat="43.237918" lon="-6.848761">
        <ele>254.072</ele>
        <time>1999-07-24T13:42:19Z</time>
      </trkpt>
      <trkpt lat="43.237908" lon="-6.848927">
        <ele>254.624</ele>
        <time>1999-07-24T13:42:23Z</time>
      </trkpt>
      <trkpt lat="43.237894" lon="-6.848960">
        <ele>254.877</ele>
        <time>1999-07-24T13:42:24Z</time>
      </trkpt>
      <trkpt lat="43.237818" lon="-6.849073">
        <ele>255.861</ele>
        <time>1999-07-24T13:42:28Z</time>
      </trkpt>
      <trkpt lat="43.237746" lon="-6.849136">
        <ele>256.627</ele>
        <time>1999-07-24T13:42:31Z</time>
      </trkpt>
      <trkpt lat="43.237692" lon="-6.849159">
        <ele>257.008</ele>
        <time>1999-07-24T13:42:33Z</time>
      </trkpt>
      <trkpt lat="43.237601" lon="-6.849183">
        <ele>258.090</ele>
        <time>1999-07-24T13:42:36Z</time>
      </trkpt>
      <trkpt lat="43.237534" lon="-6.849195">
        <ele>258.656</ele>
        <time>1999-07-24T13:42:38Z</time>
      </trkpt>
      <trkpt lat="43.237477" lon="-6.849223">
        <ele>259.277</ele>
        <time>1999-07-24T13:42:40Z</time>
      </trkpt>
      <trkpt lat="43.237384" lon="-6.849318">
        <ele>259.838</ele>
        <time>1999-07-24T13:42:44Z</time>
      </trkpt>
      <trkpt lat="43.237343" lon="-6.849401">
        <ele>260.422</ele>
        <time>1999-07-24T13:42:47Z</time>
      </trkpt>
      <trkpt lat="43.237303" lon="-6.849508">
        <ele>261.031</ele>
        <time>1999-07-24T13:42:50Z</time>
      </trkpt>
      <trkpt lat="43.237273" lon="-6.849571">
        <ele>261.457</ele>
        <time>1999-07-24T13:42:52Z</time>
      </trkpt>
      <trkpt lat="43.237195" lon="-6.849716">
        <ele>262.229</ele>
        <time>1999-07-24T13:42:57Z</time>
      </trkpt>
      <trkpt lat="43.237170" lon="-6.849780">
        <ele>262.676</ele>
        <time>1999-07-24T13:42:59Z</time>
      </trkpt>
      <trkpt lat="43.237102" lon="-6.849985">
        <ele>263.490</ele>
        <time>1999-07-24T13:43:05Z</time>
      </trkpt>
      <trkpt lat="43.237090" lon="-6.850016">
        <ele>263.619</ele>
        <time>1999-07-24T13:43:06Z</time>
      </trkpt>
      <trkpt lat="43.237025" lon="-6.850187">
        <ele>264.608</ele>
        <time>1999-07-24T13:43:11Z</time>
      </trkpt>
      <trkpt lat="43.236978" lon="-6.850278">
        <ele>265.440</ele>
        <time>1999-07-24T13:43:14Z</time>
      </trkpt>
      <trkpt lat="43.236940" lon="-6.850332">
        <ele>265.866</ele>
        <time>1999-07-24T13:43:16Z</time>
      </trkpt>
      <trkpt lat="43.236844" lon="-6.850474">
        <ele>266.457</ele>
        <time>1999-07-24T13:43:21Z</time>
      </trkpt>
      <trkpt lat="43.236823" lon="-6.850496">
        <ele>266.678</ele>
        <time>1999-07-24T13:43:22Z</time>
      </trkpt>
      <trkpt lat="43.236801" lon="-6.850515">
        <ele>266.872</ele>
        <time>1999-07-24T13:43:23Z</time>
      </trkpt>
      <trkpt lat="43.236669" lon="-6.850636">
        <ele>267.681</ele>
        <time>1999-07-24T13:43:29Z</time>
      </trkpt>
      <trkpt lat="43.236626" lon="-6.850673">
        <ele>268.237</ele>
        <time>1999-07-24T13:43:31Z</time>
      </trkpt>
      <trkpt lat="43.236506" lon="-6.850823">
        <ele>269.269</ele>
        <time>1999-07-24T13:43:37Z</time>
      </trkpt>
      <trkpt lat="43.236388" lon="-6.851022">
        <ele>270.469</ele>
        <time>1999-07-24T13:43:44Z</time>
      </trkpt>
      <trkpt lat="43.236355" lon="-6.851080">
        <ele>270.604</ele>
        <time>1999-07-24T13:43:46Z</time>
      </trkpt>
      <trkpt lat="43.236278" lon="-6.851181">
        <ele>271.424</ele>
        <time>1999-07-24T13:43:50Z</time>
      </trkpt>
      <trkpt lat="43.236220" lon="-6.851254">
        <ele>271.808</ele>
        <time>1999-07-24T13:43:53Z</time>
      </trkpt>
      <trkpt lat="43.236133" lon="-6.851316">
        <ele>272.489</ele>
        <time>1999-07-24T13:43:57Z</time>
      </trkpt>
      <trkpt lat="43.236058" lon="-6.851356">
        <ele>273.075</ele>
        <time>1999-07-24T13:44:00Z</time>
      </trkpt>
      <trkpt lat="43.236007" lon="-6.851379">
        <ele>273.416</ele>
        <time>1999-07-24T13:44:02Z</time>
      </trkpt>
      <trkpt lat="43.235851" lon="-6.851438">
        <ele>274.667</ele>
        <time>1999-07-24T13:44:08Z</time>
      </trkpt>
      <trkpt lat="43.235827" lon="-6.851445">
        <ele>274.851</ele>
        <time>1999-07-24T13:44:09Z</time>
      </trkpt>
      <trkpt lat="43.235705" lon="-6.851503">
        <ele>275.640</ele>
        <time>1999-07-24T13:44:14Z</time>
      </trkpt>
      <trkpt lat="43.235638" lon="-6.851560">
        <ele>276.246</ele>
        <time>1999-07-24T13:44:17Z</time>
      </trkpt>
      <trkpt lat="43.235585" lon="-6.851625">
        <ele>276.698</ele>
        <time>1999-07-24T13:44:20Z</time>
      </trkpt>
      <trkpt lat="43.235533" lon="-6.851749">
        <ele>277.465</ele>
        <time>1999-07-24T13:44:24Z</time>
      </trkpt>
      <trkpt lat="43.235513" lon="-6.851820">
        <ele>277.868</ele>
        <time>1999-07-24T13:44:26Z</time>
      </trkpt>
      <trkpt lat="43.235477" lon="-6.851999">
        <ele>278.814</ele>
        <time>1999-07-24T13:44:31Z</time>
      </trkpt>
      <trkpt lat="43.235372" lon="-6.852165">
        <ele>279.608</ele>
        <time>1999-07-24T13:44:37Z</time>
      </trkpt>
      <trkpt lat="43.235349" lon="-6.852184">
        <ele>279.839</ele>
        <time>1999-07-24T13:44:38Z</time>
      </trkpt>
      <trkpt lat="43.235196" lon="-6.852268">
        <ele>281.075</ele>
        <time>1999-07-24T13:44:44Z</time>
      </trkpt>
      <trkpt lat="43.235036" lon="-6.852245">
        <ele>282.056</ele>
        <time>1999-07-24T13:44:50Z</time>
      </trkpt>
      <trkpt lat="43.235011" lon="-6.852231">
        <ele>282.027</ele>
        <time>1999-07-24T13:44:51Z</time>
      </trkpt>
      <trkpt lat="43.234866" lon="-6.852122">
        <ele>283.091</ele>
        <time>1999-07-24T13:44:57Z</time>
      </trkpt>
      <trkpt lat="43.234842" lon="-6.852109">
        <ele>283.470</ele>
        <time>1999-07-24T13:44:58Z</time>
      </trkpt>
      <trkpt lat="43.234692" lon="-6.852025">
        <ele>284.426</ele>
        <time>1999-07-24T13:45:04Z</time>
      </trkpt>
      <trkpt lat="43.234666" lon="-6.852020">
        <ele>284.618</ele>
        <time>1999-07-24T13:45:05Z</time>
      </trkpt>
      <trkpt lat="43.234509" lon="-6.852051">
        <ele>285.615</ele>
        <time>1999-07-24T13:45:11Z</time>
      </trkpt>
      <trkpt lat="43.234486" lon="-6.852066">
        <ele>285.865</ele>
        <time>1999-07-24T13:45:12Z</time>
      </trkpt>
      <trkpt lat="43.234382" lon="-6.852181">
        <ele>286.811</ele>
        <time>1999-07-24T13:45:17Z</time>
      </trkpt>
      <trkpt lat="43.234366" lon="-6.852210">
        <ele>287.008</ele>
        <time>1999-07-24T13:45:18Z</time>
      </trkpt>
      <trkpt lat="43.234292" lon="-6.852448">
        <ele>287.864</ele>
        <time>1999-07-24T13:45:25Z</time>
      </trkpt>
      <trkpt lat="43.234244" lon="-6.852644">
        <ele>289.090</ele>
        <time>1999-07-24T13:45:31Z</time>
      </trkpt>
      <trkpt lat="43.234216" lon="-6.852706">
        <ele>289.451</ele>
        <time>1999-07-24T13:45:33Z</time>
      </trkpt>
      <trkpt lat="43.234129" lon="-6.852842">
        <ele>290.642</ele>
        <time>1999-07-24T13:45:38Z</time>
      </trkpt>
      <trkpt lat="43.234037" lon="-6.852974">
        <ele>291.436</ele>
        <time>1999-07-24T13:45:43Z</time>
      </trkpt>
      <trkpt lat="43.234016" lon="-6.852996">
        <ele>291.665</ele>
        <time>1999-07-24T13:45:44Z</time>
      </trkpt>
      <trkpt lat="43.233880" lon="-6.853088">
        <ele>292.691</ele>
        <time>1999-07-24T13:45:50Z</time>
      </trkpt>
      <trkpt lat="43.233854" lon="-6.853097">
        <ele>292.883</ele>
        <time>1999-07-24T13:45:51Z</time>
      </trkpt>
      <trkpt lat="43.233742" lon="-6.853106">
        <ele>293.871</ele>
        <time>1999-07-24T13:45:55Z</time>
      </trkpt>
      <trkpt lat="43.233689" lon="-6.853087">
        <ele>294.641</ele>
        <time>1999-07-24T13:45:57Z</time>
      </trkpt>
      <trkpt lat="43.233589" lon="-6.853037">
        <ele>295.015</ele>
        <time>1999-07-24T13:46:01Z</time>
      </trkpt>
      <trkpt lat="43.233548" lon="-6.852986">
        <ele>295.208</ele>
        <time>1999-07-24T13:46:03Z</time>
      </trkpt>
      <trkpt lat="43.233445" lon="-6.852835">
        <ele>296.020</ele>
        <time>1999-07-24T13:46:09Z</time>
      </trkpt>
      <trkpt lat="43.233427" lon="-6.852809">
        <ele>296.216</ele>
        <time>1999-07-24T13:46:10Z</time>
      </trkpt>
      <trkpt lat="43.233329" lon="-6.852694">
        <ele>297.047</ele>
        <time>1999-07-24T13:46:15Z</time>
      </trkpt>
      <trkpt lat="43.233264" lon="-6.852650">
        <ele>297.698</ele>
        <time>1999-07-24T13:46:18Z</time>
      </trkpt>
      <trkpt lat="43.233192" lon="-6.852636">
        <ele>298.252</ele>
        <time>1999-07-24T13:46:21Z</time>
      </trkpt>
      <trkpt lat="43.233099" lon="-6.852645">
        <ele>299.011</ele>
        <time>1999-07-24T13:46:25Z</time>
      </trkpt>
      <trkpt lat="43.233082" lon="-6.852674">
        <ele>299.237</ele>
        <time>1999-07-24T13:46:26Z</time>
      </trkpt>
      <trkpt lat="43.232990" lon="-6.852758">
        <ele>300.489</ele>
        <time>1999-07-24T13:46:31Z</time>
      </trkpt>
      <trkpt lat="43.232913" lon="-6.852919">
        <ele>301.648</ele>
        <time>1999-07-24T13:46:37Z</time>
      </trkpt>
      <trkpt lat="43.232900" lon="-6.852943">
        <ele>301.861</ele>
        <time>1999-07-24T13:46:38Z</time>
      </trkpt>
      <trkpt lat="43.232871" lon="-6.853057">
        <ele>302.417</ele>
        <time>1999-07-24T13:46:42Z</time>
      </trkpt>
      <trkpt lat="43.232862" lon="-6.853084">
        <ele>302.608</ele>
        <time>1999-07-24T13:46:43Z</time>
      </trkpt>
      <trkpt lat="43.232804" lon="-6.853233">
        <ele>303.827</ele>
        <time>1999-07-24T13:46:48Z</time>
      </trkpt>
      <trkpt lat="43.232792" lon="-6.853260">
        <ele>303.853</ele>
        <time>1999-07-24T13:46:49Z</time>
      </trkpt>
      <trkpt lat="43.232762" lon="-6.853297">
        <ele>304.274</ele>
        <time>1999-07-24T13:46:51Z</time>
      </trkpt>
      <trkpt lat="43.232749" lon="-6.853277">
        <ele>304.615</ele>
        <time>1999-07-24T13:46:53Z</time>
      </trkpt>
      <trkpt lat="43.232774" lon="-6.853230">
        <ele>305.269</ele>
        <time>1999-07-24T13:46:55Z</time>
      </trkpt>
      <trkpt lat="43.232829" lon="-6.853102">
        <ele>305.478</ele>
        <time>1999-07-24T13:46:58Z</time>
      </trkpt>
      <trkpt lat="43.232870" lon="-6.852984">
        <ele>305.464</ele>
        <time>1999-07-24T13:47:00Z</time>
      </trkpt>
      <trkpt lat="43.232940" lon="-6.852811">
        <ele>305.496</ele>
        <time>1999-07-24T13:47:03Z</time>
      </trkpt>
      <trkpt lat="43.232966" lon="-6.852760">
        <ele>305.432</ele>
        <time>1999-07-24T13:47:04Z</time>
      </trkpt>
      <trkpt lat="43.232990" lon="-6.852719">
        <ele>305.492</ele>
        <time>1999-07-24T13:47:05Z</time>
      </trkpt>
      <trkpt lat="43.233029" lon="-6.852648">
        <ele>305.211</ele>
        <time>1999-07-24T13:47:07Z</time>
      </trkpt>
      <trkpt lat="43.233031" lon="-6.852616">
        <ele>305.008</ele>
        <time>1999-07-24T13:47:08Z</time>
      </trkpt>
      <trkpt lat="43.233003" lon="-6.852550">
        <ele>304.036</ele>
        <time>1999-07-24T13:47:11Z</time>
      </trkpt>
      <trkpt lat="43.233006" lon="-6.852534">
        <ele>304.012</ele>
        <time>1999-07-24T13:47:12Z</time>
      </trkpt>
      <trkpt lat="43.233040" lon="-6.852529">
        <ele>303.483</ele>
        <time>1999-07-24T13:47:15Z</time>
      </trkpt>
      <trkpt lat="43.233057" lon="-6.852524">
        <ele>303.054</ele>
        <time>1999-07-24T13:47:16Z</time>
      </trkpt>
      <trkpt lat="43.233066" lon="-6.852520">
        <ele>303.078</ele>
        <time>1999-07-24T13:47:20Z</time>
      </trkpt>
      <trkpt lat="43.233047" lon="-6.852776">
        <ele>257.011</ele>
        <time>1999-07-25T08:57:26Z</time>
      </trkpt>
      <trkpt lat="43.233040" lon="-6.852799">
        <ele>257.021</ele>
        <time>1999-07-25T08:57:27Z</time>
      </trkpt>
      <trkpt lat="43.233009" lon="-6.852846">
        <ele>257.003</ele>
        <time>1999-07-25T08:57:29Z</time>
      </trkpt>
      <trkpt lat="43.232993" lon="-6.852870">
        <ele>257.008</ele>
        <time>1999-07-25T08:57:30Z</time>
      </trkpt>
      <trkpt lat="43.232945" lon="-6.852944">
        <ele>257.034</ele>
        <time>1999-07-25T08:57:33Z</time>
      </trkpt>
      <trkpt lat="43.232917" lon="-6.853011">
        <ele>257.010</ele>
        <time>1999-07-25T08:57:35Z</time>
      </trkpt>
      <trkpt lat="43.232904" lon="-6.853043">
        <ele>257.091</ele>
        <time>1999-07-25T08:57:36Z</time>
      </trkpt>
      <trkpt lat="43.232876" lon="-6.853108">
        <ele>257.256</ele>
        <time>1999-07-25T08:57:38Z</time>
      </trkpt>
      <trkpt lat="43.232851" lon="-6.853180">
        <ele>257.226</ele>
        <time>1999-07-25T08:57:40Z</time>
      </trkpt>
      <trkpt lat="43.232815" lon="-6.853287">
        <ele>257.643</ele>
        <time>1999-07-25T08:57:43Z</time>
      </trkpt>
      <trkpt lat="43.232793" lon="-6.853361">
        <ele>258.060</ele>
        <time>1999-07-25T08:57:45Z</time>
      </trkpt>
      <trkpt lat="43.232733" lon="-6.853502">
        <ele>259.248</ele>
        <time>1999-07-25T08:57:49Z</time>
      </trkpt>
      <trkpt lat="43.232673" lon="-6.853631">
        <ele>259.838</ele>
        <time>1999-07-25T08:57:53Z</time>
      </trkpt>
      <trkpt lat="43.232656" lon="-6.853662">
        <ele>260.070</ele>
        <time>1999-07-25T08:57:54Z</time>
      </trkpt>
      <trkpt lat="43.232611" lon="-6.853770">
        <ele>260.817</ele>
        <time>1999-07-25T08:57:58Z</time>
      </trkpt>
      <trkpt lat="43.232587" lon="-6.853820">
        <ele>261.208</ele>
        <time>1999-07-25T08:58:00Z</time>
      </trkpt>
      <trkpt lat="43.232544" lon="-6.853903">
        <ele>261.896</ele>
        <time>1999-07-25T08:58:03Z</time>
      </trkpt>
      <trkpt lat="43.232485" lon="-6.854022">
        <ele>262.242</ele>
        <time>1999-07-25T08:58:07Z</time>
      </trkpt>
      <trkpt lat="43.232405" lon="-6.854154">
        <ele>263.473</ele>
        <time>1999-07-25T08:58:12Z</time>
      </trkpt>
      <trkpt lat="43.232298" lon="-6.854272">
        <ele>264.488</ele>
        <time>1999-07-25T08:58:17Z</time>
      </trkpt>
      <trkpt lat="43.232258" lon="-6.854313">
        <ele>264.888</ele>
        <time>1999-07-25T08:58:19Z</time>
      </trkpt>
      <trkpt lat="43.232184" lon="-6.854364">
        <ele>265.485</ele>
        <time>1999-07-25T08:58:22Z</time>
      </trkpt>
      <trkpt lat="43.232118" lon="-6.854421">
        <ele>265.872</ele>
        <time>1999-07-25T08:58:25Z</time>
      </trkpt>
      <trkpt lat="43.232079" lon="-6.854469">
        <ele>266.250</ele>
        <time>1999-07-25T08:58:27Z</time>
      </trkpt>
      <trkpt lat="43.231976" lon="-6.854633">
        <ele>267.242</ele>
        <time>1999-07-25T08:58:33Z</time>
      </trkpt>
      <trkpt lat="43.231958" lon="-6.854657">
        <ele>267.422</ele>
        <time>1999-07-25T08:58:34Z</time>
      </trkpt>
      <trkpt lat="43.231859" lon="-6.854779">
        <ele>268.414</ele>
        <time>1999-07-25T08:58:39Z</time>
      </trkpt>
      <trkpt lat="43.231796" lon="-6.854857">
        <ele>269.008</ele>
        <time>1999-07-25T08:58:42Z</time>
      </trkpt>
      <trkpt lat="43.231775" lon="-6.854882">
        <ele>269.277</ele>
        <time>1999-07-25T08:58:43Z</time>
      </trkpt>
      <trkpt lat="43.231668" lon="-6.855005">
        <ele>270.473</ele>
        <time>1999-07-25T08:58:48Z</time>
      </trkpt>
      <trkpt lat="43.231619" lon="-6.855098">
        <ele>270.834</ele>
        <time>1999-07-25T08:58:51Z</time>
      </trkpt>
      <trkpt lat="43.231589" lon="-6.855157">
        <ele>271.429</ele>
        <time>1999-07-25T08:58:53Z</time>
      </trkpt>
      <trkpt lat="43.231503" lon="-6.855352">
        <ele>272.649</ele>
        <time>1999-07-25T08:58:59Z</time>
      </trkpt>
      <trkpt lat="43.231489" lon="-6.855383">
        <ele>272.836</ele>
        <time>1999-07-25T08:59:00Z</time>
      </trkpt>
      <trkpt lat="43.231437" lon="-6.855508">
        <ele>273.613</ele>
        <time>1999-07-25T08:59:04Z</time>
      </trkpt>
      <trkpt lat="43.231359" lon="-6.855660">
        <ele>274.681</ele>
        <time>1999-07-25T08:59:09Z</time>
      </trkpt>
      <trkpt lat="43.231342" lon="-6.855690">
        <ele>274.822</ele>
        <time>1999-07-25T08:59:10Z</time>
      </trkpt>
      <trkpt lat="43.231267" lon="-6.855845">
        <ele>276.062</ele>
        <time>1999-07-25T08:59:15Z</time>
      </trkpt>
      <trkpt lat="43.231227" lon="-6.855983">
        <ele>276.608</ele>
        <time>1999-07-25T08:59:19Z</time>
      </trkpt>
      <trkpt lat="43.231219" lon="-6.856017">
        <ele>277.008</ele>
        <time>1999-07-25T08:59:20Z</time>
      </trkpt>
      <trkpt lat="43.231146" lon="-6.856168">
        <ele>278.075</ele>
        <time>1999-07-25T08:59:25Z</time>
      </trkpt>
      <trkpt lat="43.231128" lon="-6.856198">
        <ele>278.271</ele>
        <time>1999-07-25T08:59:26Z</time>
      </trkpt>
      <trkpt lat="43.231055" lon="-6.856311">
        <ele>278.812</ele>
        <time>1999-07-25T08:59:30Z</time>
      </trkpt>
      <trkpt lat="43.230984" lon="-6.856411">
        <ele>279.677</ele>
        <time>1999-07-25T08:59:34Z</time>
      </trkpt>
      <trkpt lat="43.230966" lon="-6.856440">
        <ele>279.857</ele>
        <time>1999-07-25T08:59:35Z</time>
      </trkpt>
      <trkpt lat="43.230902" lon="-6.856549">
        <ele>281.034</ele>
        <time>1999-07-25T08:59:39Z</time>
      </trkpt>
      <trkpt lat="43.230887" lon="-6.856576">
        <ele>281.021</ele>
        <time>1999-07-25T08:59:40Z</time>
      </trkpt>
      <trkpt lat="43.230837" lon="-6.856666">
        <ele>282.069</ele>
        <time>1999-07-25T08:59:43Z</time>
      </trkpt>
      <trkpt lat="43.230783" lon="-6.856749">
        <ele>282.667</ele>
        <time>1999-07-25T08:59:46Z</time>
      </trkpt>
      <trkpt lat="43.230771" lon="-6.856779">
        <ele>282.881</ele>
        <time>1999-07-25T08:59:47Z</time>
      </trkpt>
      <trkpt lat="43.230696" lon="-6.856908">
        <ele>283.819</ele>
        <time>1999-07-25T08:59:52Z</time>
      </trkpt>
      <trkpt lat="43.230665" lon="-6.856944">
        <ele>284.408</ele>
        <time>1999-07-25T08:59:54Z</time>
      </trkpt>
      <trkpt lat="43.230629" lon="-6.856971">
        <ele>284.899</ele>
        <time>1999-07-25T08:59:56Z</time>
      </trkpt>
      <trkpt lat="43.230551" lon="-6.856974">
        <ele>285.655</ele>
        <time>1999-07-25T09:00:00Z</time>
      </trkpt>
      <trkpt lat="43.230533" lon="-6.856974">
        <ele>285.866</ele>
        <time>1999-07-25T09:00:01Z</time>
      </trkpt>
      <trkpt lat="43.230516" lon="-6.856964">
        <ele>286.261</ele>
        <time>1999-07-25T09:00:02Z</time>
      </trkpt>
      <trkpt lat="43.230462" lon="-6.856919">
        <ele>286.861</ele>
        <time>1999-07-25T09:00:05Z</time>
      </trkpt>
      <trkpt lat="43.230402" lon="-6.856825">
        <ele>287.818</ele>
        <time>1999-07-25T09:00:09Z</time>
      </trkpt>
      <trkpt lat="43.230380" lon="-6.856732">
        <ele>288.475</ele>
        <time>1999-07-25T09:00:12Z</time>
      </trkpt>
      <trkpt lat="43.230377" lon="-6.856655">
        <ele>288.693</ele>
        <time>1999-07-25T09:00:14Z</time>
      </trkpt>
      <trkpt lat="43.230369" lon="-6.856496">
        <ele>289.673</ele>
        <time>1999-07-25T09:00:18Z</time>
      </trkpt>
      <trkpt lat="43.230361" lon="-6.856453">
        <ele>289.885</ele>
        <time>1999-07-25T09:00:19Z</time>
      </trkpt>
      <trkpt lat="43.230359" lon="-6.856336">
        <ele>290.413</ele>
        <time>1999-07-25T09:00:22Z</time>
      </trkpt>
      <trkpt lat="43.230359" lon="-6.856297">
        <ele>290.608</ele>
        <time>1999-07-25T09:00:23Z</time>
      </trkpt>
      <trkpt lat="43.230366" lon="-6.856229">
        <ele>291.070</ele>
        <time>1999-07-25T09:00:25Z</time>
      </trkpt>
      <trkpt lat="43.230379" lon="-6.856130">
        <ele>291.476</ele>
        <time>1999-07-25T09:00:28Z</time>
      </trkpt>
      <trkpt lat="43.230376" lon="-6.855986">
        <ele>292.457</ele>
        <time>1999-07-25T09:00:32Z</time>
      </trkpt>
      <trkpt lat="43.230364" lon="-6.855796">
        <ele>293.412</ele>
        <time>1999-07-25T09:00:37Z</time>
      </trkpt>
      <trkpt lat="43.230364" lon="-6.855760">
        <ele>293.452</ele>
        <time>1999-07-25T09:00:38Z</time>
      </trkpt>
      <trkpt lat="43.230382" lon="-6.855582">
        <ele>294.239</ele>
        <time>1999-07-25T09:00:43Z</time>
      </trkpt>
      <trkpt lat="43.230387" lon="-6.855515">
        <ele>294.466</ele>
        <time>1999-07-25T09:00:45Z</time>
      </trkpt>
      <trkpt lat="43.230406" lon="-6.855377">
        <ele>295.214</ele>
        <time>1999-07-25T09:00:49Z</time>
      </trkpt>
      <trkpt lat="43.230413" lon="-6.855344">
        <ele>295.429</ele>
        <time>1999-07-25T09:00:50Z</time>
      </trkpt>
      <trkpt lat="43.230422" lon="-6.855236">
        <ele>296.200</ele>
        <time>1999-07-25T09:00:53Z</time>
      </trkpt>
      <trkpt lat="43.230427" lon="-6.855174">
        <ele>296.220</ele>
        <time>1999-07-25T09:00:55Z</time>
      </trkpt>
      <trkpt lat="43.230414" lon="-6.855072">
        <ele>297.008</ele>
        <time>1999-07-25T09:00:58Z</time>
      </trkpt>
      <trkpt lat="43.230387" lon="-6.854914">
        <ele>297.835</ele>
        <time>1999-07-25T09:01:02Z</time>
      </trkpt>
      <trkpt lat="43.230384" lon="-6.854878">
        <ele>298.051</ele>
        <time>1999-07-25T09:01:03Z</time>
      </trkpt>
      <trkpt lat="43.230366" lon="-6.854703">
        <ele>299.072</ele>
        <time>1999-07-25T09:01:08Z</time>
      </trkpt>
      <trkpt lat="43.230385" lon="-6.854527">
        <ele>300.277</ele>
        <time>1999-07-25T09:01:13Z</time>
      </trkpt>
      <trkpt lat="43.230395" lon="-6.854493">
        <ele>300.477</ele>
        <time>1999-07-25T09:01:14Z</time>
      </trkpt>
      <trkpt lat="43.230408" lon="-6.854351">
        <ele>301.054</ele>
        <time>1999-07-25T09:01:18Z</time>
      </trkpt>
      <trkpt lat="43.230395" lon="-6.854300">
        <ele>301.231</ele>
        <time>1999-07-25T09:01:19Z</time>
      </trkpt>
      <trkpt lat="43.230347" lon="-6.854128">
        <ele>302.019</ele>
        <time>1999-07-25T09:01:23Z</time>
      </trkpt>
      <trkpt lat="43.230320" lon="-6.854016">
        <ele>302.899</ele>
        <time>1999-07-25T09:01:26Z</time>
      </trkpt>
      <trkpt lat="43.230316" lon="-6.853948">
        <ele>303.207</ele>
        <time>1999-07-25T09:01:28Z</time>
      </trkpt>
      <trkpt lat="43.230353" lon="-6.853812">
        <ele>303.827</ele>
        <time>1999-07-25T09:01:32Z</time>
      </trkpt>
      <trkpt lat="43.230352" lon="-6.853773">
        <ele>304.008</ele>
        <time>1999-07-25T09:01:33Z</time>
      </trkpt>
      <trkpt lat="43.230364" lon="-6.853567">
        <ele>305.042</ele>
        <time>1999-07-25T09:01:38Z</time>
      </trkpt>
      <trkpt lat="43.230371" lon="-6.853530">
        <ele>305.258</ele>
        <time>1999-07-25T09:01:39Z</time>
      </trkpt>
      <trkpt lat="43.230479" lon="-6.853349">
        <ele>306.279</ele>
        <time>1999-07-25T09:01:44Z</time>
      </trkpt>
      <trkpt lat="43.230569" lon="-6.853166">
        <ele>307.284</ele>
        <time>1999-07-25T09:01:49Z</time>
      </trkpt>
      <trkpt lat="43.230606" lon="-6.853052">
        <ele>308.014</ele>
        <time>1999-07-25T09:01:52Z</time>
      </trkpt>
      <trkpt lat="43.230635" lon="-6.852986">
        <ele>308.221</ele>
        <time>1999-07-25T09:01:54Z</time>
      </trkpt>
      <trkpt lat="43.230692" lon="-6.852880">
        <ele>309.068</ele>
        <time>1999-07-25T09:01:58Z</time>
      </trkpt>
      <trkpt lat="43.230700" lon="-6.852877">
        <ele>309.446</ele>
        <time>1999-07-25T09:01:59Z</time>
      </trkpt>
      <trkpt lat="43.230715" lon="-6.852863">
        <ele>309.838</ele>
        <time>1999-07-25T09:02:02Z</time>
      </trkpt>
      <trkpt lat="43.230718" lon="-6.852856">
        <ele>310.070</ele>
        <time>1999-07-25T09:02:03Z</time>
      </trkpt>
      <trkpt lat="43.230693" lon="-6.852758">
        <ele>310.817</ele>
        <time>1999-07-25T09:02:10Z</time>
      </trkpt>
      <trkpt lat="43.230681" lon="-6.852647">
        <ele>311.008</ele>
        <time>1999-07-25T09:02:14Z</time>
      </trkpt>
      <trkpt lat="43.230679" lon="-6.852581">
        <ele>311.086</ele>
        <time>1999-07-25T09:02:16Z</time>
      </trkpt>
      <trkpt lat="43.230630" lon="-6.852420">
        <ele>311.492</ele>
        <time>1999-07-25T09:02:21Z</time>
      </trkpt>
      <trkpt lat="43.230612" lon="-6.852312">
        <ele>312.033</ele>
        <time>1999-07-25T09:02:25Z</time>
      </trkpt>
      <trkpt lat="43.230575" lon="-6.852237">
        <ele>312.698</ele>
        <time>1999-07-25T09:02:28Z</time>
      </trkpt>
      <trkpt lat="43.230530" lon="-6.852177">
        <ele>312.878</ele>
        <time>1999-07-25T09:02:30Z</time>
      </trkpt>
      <trkpt lat="43.230484" lon="-6.852065">
        <ele>313.835</ele>
        <time>1999-07-25T09:02:34Z</time>
      </trkpt>
      <trkpt lat="43.230411" lon="-6.851918">
        <ele>315.072</ele>
        <time>1999-07-25T09:02:39Z</time>
      </trkpt>
      <trkpt lat="43.230369" lon="-6.851872">
        <ele>315.470</ele>
        <time>1999-07-25T09:02:41Z</time>
      </trkpt>
      <trkpt lat="43.230276" lon="-6.851809">
        <ele>316.228</ele>
        <time>1999-07-25T09:02:45Z</time>
      </trkpt>
      <trkpt lat="43.230223" lon="-6.851792">
        <ele>316.689</ele>
        <time>1999-07-25T09:02:47Z</time>
      </trkpt>
      <trkpt lat="43.230144" lon="-6.851782">
        <ele>317.217</ele>
        <time>1999-07-25T09:02:50Z</time>
      </trkpt>
      <trkpt lat="43.230067" lon="-6.851798">
        <ele>317.808</ele>
        <time>1999-07-25T09:02:53Z</time>
      </trkpt>
      <trkpt lat="43.229984" lon="-6.851816">
        <ele>318.455</ele>
        <time>1999-07-25T09:02:56Z</time>
      </trkpt>
      <trkpt lat="43.229879" lon="-6.851872">
        <ele>319.291</ele>
        <time>1999-07-25T09:03:00Z</time>
      </trkpt>
      <trkpt lat="43.229854" lon="-6.851883">
        <ele>319.422</ele>
        <time>1999-07-25T09:03:01Z</time>
      </trkpt>
      <trkpt lat="43.229760" lon="-6.851905">
        <ele>320.447</ele>
        <time>1999-07-25T09:03:05Z</time>
      </trkpt>
      <trkpt lat="43.229702" lon="-6.851913">
        <ele>321.037</ele>
        <time>1999-07-25T09:03:08Z</time>
      </trkpt>
      <trkpt lat="43.229679" lon="-6.851906">
        <ele>321.234</ele>
        <time>1999-07-25T09:03:09Z</time>
      </trkpt>
      <trkpt lat="43.229610" lon="-6.851897">
        <ele>322.061</ele>
        <time>1999-07-25T09:03:12Z</time>
      </trkpt>
      <trkpt lat="43.229589" lon="-6.851897">
        <ele>322.479</ele>
        <time>1999-07-25T09:03:13Z</time>
      </trkpt>
      <trkpt lat="43.229442" lon="-6.851852">
        <ele>323.419</ele>
        <time>1999-07-25T09:03:19Z</time>
      </trkpt>
      <trkpt lat="43.229395" lon="-6.851848">
        <ele>323.809</ele>
        <time>1999-07-25T09:03:21Z</time>
      </trkpt>
      <trkpt lat="43.229315" lon="-6.851835">
        <ele>324.419</ele>
        <time>1999-07-25T09:03:25Z</time>
      </trkpt>
      <trkpt lat="43.229272" lon="-6.851823">
        <ele>324.808</ele>
        <time>1999-07-25T09:03:27Z</time>
      </trkpt>
      <trkpt lat="43.229139" lon="-6.851793">
        <ele>325.464</ele>
        <time>1999-07-25T09:03:32Z</time>
      </trkpt>
      <trkpt lat="43.229100" lon="-6.851795">
        <ele>325.870</ele>
        <time>1999-07-25T09:03:34Z</time>
      </trkpt>
      <trkpt lat="43.228967" lon="-6.851810">
        <ele>326.661</ele>
        <time>1999-07-25T09:03:39Z</time>
      </trkpt>
      <trkpt lat="43.228855" lon="-6.851813">
        <ele>327.626</ele>
        <time>1999-07-25T09:03:43Z</time>
      </trkpt>
      <trkpt lat="43.228829" lon="-6.851809">
        <ele>327.846</ele>
        <time>1999-07-25T09:03:44Z</time>
      </trkpt>
      <trkpt lat="43.228700" lon="-6.851842">
        <ele>328.483</ele>
        <time>1999-07-25T09:03:50Z</time>
      </trkpt>
      <trkpt lat="43.228648" lon="-6.851851">
        <ele>328.650</ele>
        <time>1999-07-25T09:03:52Z</time>
      </trkpt>
      <trkpt lat="43.228477" lon="-6.851887">
        <ele>329.848</ele>
        <time>1999-07-25T09:03:58Z</time>
      </trkpt>
      <trkpt lat="43.228312" lon="-6.851922">
        <ele>330.897</ele>
        <time>1999-07-25T09:04:04Z</time>
      </trkpt>
      <trkpt lat="43.228285" lon="-6.851929">
        <ele>330.823</ele>
        <time>1999-07-25T09:04:05Z</time>
      </trkpt>
      <trkpt lat="43.228173" lon="-6.851943">
        <ele>331.625</ele>
        <time>1999-07-25T09:04:09Z</time>
      </trkpt>
      <trkpt lat="43.228118" lon="-6.851967">
        <ele>332.008</ele>
        <time>1999-07-25T09:04:11Z</time>
      </trkpt>
      <trkpt lat="43.227972" lon="-6.852035">
        <ele>332.832</ele>
        <time>1999-07-25T09:04:16Z</time>
      </trkpt>
      <trkpt lat="43.227845" lon="-6.852078">
        <ele>333.648</ele>
        <time>1999-07-25T09:04:20Z</time>
      </trkpt>
      <trkpt lat="43.227814" lon="-6.852082">
        <ele>334.059</ele>
        <time>1999-07-25T09:04:21Z</time>
      </trkpt>
      <trkpt lat="43.227705" lon="-6.852115">
        <ele>335.064</ele>
        <time>1999-07-25T09:04:25Z</time>
      </trkpt>
      <trkpt lat="43.227659" lon="-6.852135">
        <ele>335.434</ele>
        <time>1999-07-25T09:04:27Z</time>
      </trkpt>
      <trkpt lat="43.227586" lon="-6.852155">
        <ele>335.861</ele>
        <time>1999-07-25T09:04:30Z</time>
      </trkpt>
      <trkpt lat="43.227477" lon="-6.852177">
        <ele>336.428</ele>
        <time>1999-07-25T09:04:34Z</time>
      </trkpt>
      <trkpt lat="43.227459" lon="-6.852188">
        <ele>336.846</ele>
        <time>1999-07-25T09:04:35Z</time>
      </trkpt>
      <trkpt lat="43.227442" lon="-6.852194">
        <ele>337.074</ele>
        <time>1999-07-25T09:04:36Z</time>
      </trkpt>
      <trkpt lat="43.227358" lon="-6.852239">
        <ele>337.856</ele>
        <time>1999-07-25T09:04:40Z</time>
      </trkpt>
      <trkpt lat="43.227332" lon="-6.852241">
        <ele>338.021</ele>
        <time>1999-07-25T09:04:41Z</time>
      </trkpt>
      <trkpt lat="43.227177" lon="-6.852224">
        <ele>338.208</ele>
        <time>1999-07-25T09:04:47Z</time>
      </trkpt>
      <trkpt lat="43.227036" lon="-6.852222">
        <ele>338.890</ele>
        <time>1999-07-25T09:04:52Z</time>
      </trkpt>
      <trkpt lat="43.226960" lon="-6.852227">
        <ele>339.426</ele>
        <time>1999-07-25T09:04:55Z</time>
      </trkpt>
      <trkpt lat="43.226824" lon="-6.852227">
        <ele>340.097</ele>
        <time>1999-07-25T09:05:00Z</time>
      </trkpt>
      <trkpt lat="43.226732" lon="-6.852231">
        <ele>340.262</ele>
        <time>1999-07-25T09:05:03Z</time>
      </trkpt>
      <trkpt lat="43.226611" lon="-6.852266">
        <ele>341.052</ele>
        <time>1999-07-25T09:05:08Z</time>
      </trkpt>
      <trkpt lat="43.226521" lon="-6.852275">
        <ele>341.469</ele>
        <time>1999-07-25T09:05:11Z</time>
      </trkpt>
      <trkpt lat="43.226466" lon="-6.852284">
        <ele>341.816</ele>
        <time>1999-07-25T09:05:13Z</time>
      </trkpt>
      <trkpt lat="43.226440" lon="-6.852285">
        <ele>342.024</ele>
        <time>1999-07-25T09:05:14Z</time>
      </trkpt>
      <trkpt lat="43.226316" lon="-6.852290">
        <ele>342.848</ele>
        <time>1999-07-25T09:05:19Z</time>
      </trkpt>
      <trkpt lat="43.226289" lon="-6.852294">
        <ele>343.061</ele>
        <time>1999-07-25T09:05:20Z</time>
      </trkpt>
      <trkpt lat="43.226178" lon="-6.852314">
        <ele>343.617</ele>
        <time>1999-07-25T09:05:25Z</time>
      </trkpt>
      <trkpt lat="43.226102" lon="-6.852323">
        <ele>344.008</ele>
        <time>1999-07-25T09:05:28Z</time>
      </trkpt>
      <trkpt lat="43.225996" lon="-6.852364">
        <ele>344.497</ele>
        <time>1999-07-25T09:05:32Z</time>
      </trkpt>
      <trkpt lat="43.225939" lon="-6.852369">
        <ele>345.413</ele>
        <time>1999-07-25T09:05:34Z</time>
      </trkpt>
      <trkpt lat="43.225778" lon="-6.852383">
        <ele>346.064</ele>
        <time>1999-07-25T09:05:39Z</time>
      </trkpt>
      <trkpt lat="43.225750" lon="-6.852393">
        <ele>346.299</ele>
        <time>1999-07-25T09:05:40Z</time>
      </trkpt>
      <trkpt lat="43.225540" lon="-6.852388">
        <ele>347.219</ele>
        <time>1999-07-25T09:05:47Z</time>
      </trkpt>
      <trkpt lat="43.225520" lon="-6.852401">
        <ele>347.456</ele>
        <time>1999-07-25T09:05:48Z</time>
      </trkpt>
      <trkpt lat="43.225382" lon="-6.852434">
        <ele>348.223</ele>
        <time>1999-07-25T09:05:53Z</time>
      </trkpt>
      <trkpt lat="43.225350" lon="-6.852444">
        <ele>348.671</ele>
        <time>1999-07-25T09:05:54Z</time>
      </trkpt>
      <trkpt lat="43.225205" lon="-6.852578">
        <ele>349.444</ele>
        <time>1999-07-25T09:06:00Z</time>
      </trkpt>
      <trkpt lat="43.225105" lon="-6.852717">
        <ele>350.405</ele>
        <time>1999-07-25T09:06:05Z</time>
      </trkpt>
      <trkpt lat="43.225050" lon="-6.852818">
        <ele>351.015</ele>
        <time>1999-07-25T09:06:08Z</time>
      </trkpt>
      <trkpt lat="43.225008" lon="-6.852912">
        <ele>351.608</ele>
        <time>1999-07-25T09:06:11Z</time>
      </trkpt>
      <trkpt lat="43.224960" lon="-6.853005">
        <ele>352.087</ele>
        <time>1999-07-25T09:06:14Z</time>
      </trkpt>
      <trkpt lat="43.224917" lon="-6.853101">
        <ele>352.463</ele>
        <time>1999-07-25T09:06:17Z</time>
      </trkpt>
      <trkpt lat="43.224841" lon="-6.853212">
        <ele>353.244</ele>
        <time>1999-07-25T09:06:21Z</time>
      </trkpt>
      <trkpt lat="43.224792" lon="-6.853262">
        <ele>353.619</ele>
        <time>1999-07-25T09:06:23Z</time>
      </trkpt>
      <trkpt lat="43.224668" lon="-6.853369">
        <ele>354.829</ele>
        <time>1999-07-25T09:06:28Z</time>
      </trkpt>
      <trkpt lat="43.224522" lon="-6.853410">
        <ele>355.886</ele>
        <time>1999-07-25T09:06:33Z</time>
      </trkpt>
      <trkpt lat="43.224497" lon="-6.853410">
        <ele>355.823</ele>
        <time>1999-07-25T09:06:34Z</time>
      </trkpt>
      <trkpt lat="43.224419" lon="-6.853400">
        <ele>356.481</ele>
        <time>1999-07-25T09:06:37Z</time>
      </trkpt>
      <trkpt lat="43.224372" lon="-6.853377">
        <ele>356.859</ele>
        <time>1999-07-25T09:06:39Z</time>
      </trkpt>
      <trkpt lat="43.224321" lon="-6.853341">
        <ele>357.203</ele>
        <time>1999-07-25T09:06:41Z</time>
      </trkpt>
      <trkpt lat="43.224238" lon="-6.853293">
        <ele>357.823</ele>
        <time>1999-07-25T09:06:45Z</time>
      </trkpt>
      <trkpt lat="43.224194" lon="-6.853269">
        <ele>358.208</ele>
        <time>1999-07-25T09:06:47Z</time>
      </trkpt>
      <trkpt lat="43.224051" lon="-6.853229">
        <ele>358.648</ele>
        <time>1999-07-25T09:06:52Z</time>
      </trkpt>
      <trkpt lat="43.223991" lon="-6.853215">
        <ele>359.034</ele>
        <time>1999-07-25T09:06:54Z</time>
      </trkpt>
      <trkpt lat="43.223848" lon="-6.853216">
        <ele>359.675</ele>
        <time>1999-07-25T09:06:59Z</time>
      </trkpt>
      <trkpt lat="43.223764" lon="-6.853226">
        <ele>360.260</ele>
        <time>1999-07-25T09:07:02Z</time>
      </trkpt>
      <trkpt lat="43.223681" lon="-6.853254">
        <ele>360.610</ele>
        <time>1999-07-25T09:07:05Z</time>
      </trkpt>
      <trkpt lat="43.223599" lon="-6.853285">
        <ele>361.257</ele>
        <time>1999-07-25T09:07:08Z</time>
      </trkpt>
      <trkpt lat="43.223522" lon="-6.853344">
        <ele>361.494</ele>
        <time>1999-07-25T09:07:11Z</time>
      </trkpt>
      <trkpt lat="43.223392" lon="-6.853431">
        <ele>362.422</ele>
        <time>1999-07-25T09:07:16Z</time>
      </trkpt>
      <trkpt lat="43.223368" lon="-6.853451">
        <ele>362.662</ele>
        <time>1999-07-25T09:07:17Z</time>
      </trkpt>
      <trkpt lat="43.223226" lon="-6.853553">
        <ele>363.683</ele>
        <time>1999-07-25T09:07:23Z</time>
      </trkpt>
      <trkpt lat="43.223120" lon="-6.853658">
        <ele>364.411</ele>
        <time>1999-07-25T09:07:28Z</time>
      </trkpt>
      <trkpt lat="43.223099" lon="-6.853686">
        <ele>364.608</ele>
        <time>1999-07-25T09:07:29Z</time>
      </trkpt>
      <trkpt lat="43.222967" lon="-6.853802">
        <ele>365.639</ele>
        <time>1999-07-25T09:07:34Z</time>
      </trkpt>
      <trkpt lat="43.222939" lon="-6.853820">
        <ele>365.695</ele>
        <time>1999-07-25T09:07:35Z</time>
      </trkpt>
      <trkpt lat="43.222803" lon="-6.853884">
        <ele>366.646</ele>
        <time>1999-07-25T09:07:40Z</time>
      </trkpt>
      <trkpt lat="43.222729" lon="-6.853924">
        <ele>367.021</ele>
        <time>1999-07-25T09:07:43Z</time>
      </trkpt>
      <trkpt lat="43.222679" lon="-6.853944">
        <ele>367.421</ele>
        <time>1999-07-25T09:07:45Z</time>
      </trkpt>
      <trkpt lat="43.222605" lon="-6.853978">
        <ele>368.268</ele>
        <time>1999-07-25T09:07:48Z</time>
      </trkpt>
      <trkpt lat="43.222578" lon="-6.853990">
        <ele>368.425</ele>
        <time>1999-07-25T09:07:49Z</time>
      </trkpt>
      <trkpt lat="43.222501" lon="-6.854041">
        <ele>369.013</ele>
        <time>1999-07-25T09:07:52Z</time>
      </trkpt>
      <trkpt lat="43.222415" lon="-6.854080">
        <ele>369.446</ele>
        <time>1999-07-25T09:07:55Z</time>
      </trkpt>
      <trkpt lat="43.222332" lon="-6.854122">
        <ele>369.888</ele>
        <time>1999-07-25T09:07:58Z</time>
      </trkpt>
      <trkpt lat="43.222247" lon="-6.854214">
        <ele>370.416</ele>
        <time>1999-07-25T09:08:02Z</time>
      </trkpt>
      <trkpt lat="43.222168" lon="-6.854318">
        <ele>371.208</ele>
        <time>1999-07-25T09:08:06Z</time>
      </trkpt>
      <trkpt lat="43.222126" lon="-6.854369">
        <ele>371.477</ele>
        <time>1999-07-25T09:08:08Z</time>
      </trkpt>
      <trkpt lat="43.222006" lon="-6.854587">
        <ele>372.463</ele>
        <time>1999-07-25T09:08:15Z</time>
      </trkpt>
      <trkpt lat="43.221932" lon="-6.854800">
        <ele>373.494</ele>
        <time>1999-07-25T09:08:21Z</time>
      </trkpt>
      <trkpt lat="43.221900" lon="-6.854909">
        <ele>374.039</ele>
        <time>1999-07-25T09:08:24Z</time>
      </trkpt>
      <trkpt lat="43.221870" lon="-6.855049">
        <ele>374.489</ele>
        <time>1999-07-25T09:08:28Z</time>
      </trkpt>
      <trkpt lat="43.221864" lon="-6.855159">
        <ele>375.256</ele>
        <time>1999-07-25T09:08:31Z</time>
      </trkpt>
      <trkpt lat="43.221862" lon="-6.855196">
        <ele>375.453</ele>
        <time>1999-07-25T09:08:32Z</time>
      </trkpt>
      <trkpt lat="43.221867" lon="-6.855374">
        <ele>376.491</ele>
        <time>1999-07-25T09:08:37Z</time>
      </trkpt>
      <trkpt lat="43.221849" lon="-6.855569">
        <ele>377.487</ele>
        <time>1999-07-25T09:08:42Z</time>
      </trkpt>
      <trkpt lat="43.221772" lon="-6.855746">
        <ele>378.442</ele>
        <time>1999-07-25T09:08:47Z</time>
      </trkpt>
      <trkpt lat="43.221736" lon="-6.855804">
        <ele>378.826</ele>
        <time>1999-07-25T09:08:49Z</time>
      </trkpt>
      <trkpt lat="43.221672" lon="-6.855932">
        <ele>379.408</ele>
        <time>1999-07-25T09:08:53Z</time>
      </trkpt>
      <trkpt lat="43.221628" lon="-6.856026">
        <ele>380.011</ele>
        <time>1999-07-25T09:08:56Z</time>
      </trkpt>
      <trkpt lat="43.221578" lon="-6.856114">
        <ele>380.417</ele>
        <time>1999-07-25T09:08:59Z</time>
      </trkpt>
      <trkpt lat="43.221522" lon="-6.856290">
        <ele>381.488</ele>
        <time>1999-07-25T09:09:04Z</time>
      </trkpt>
      <trkpt lat="43.221518" lon="-6.856328">
        <ele>381.633</ele>
        <time>1999-07-25T09:09:05Z</time>
      </trkpt>
      <trkpt lat="43.221538" lon="-6.856481">
        <ele>382.223</ele>
        <time>1999-07-25T09:09:09Z</time>
      </trkpt>
      <trkpt lat="43.221584" lon="-6.856581">
        <ele>382.880</ele>
        <time>1999-07-25T09:09:12Z</time>
      </trkpt>
      <trkpt lat="43.221624" lon="-6.856686">
        <ele>382.887</ele>
        <time>1999-07-25T09:09:15Z</time>
      </trkpt>
      <trkpt lat="43.221659" lon="-6.856829">
        <ele>383.625</ele>
        <time>1999-07-25T09:09:19Z</time>
      </trkpt>
      <trkpt lat="43.221667" lon="-6.856941">
        <ele>384.268</ele>
        <time>1999-07-25T09:09:22Z</time>
      </trkpt>
      <trkpt lat="43.221665" lon="-6.857060">
        <ele>384.842</ele>
        <time>1999-07-25T09:09:25Z</time>
      </trkpt>
      <trkpt lat="43.221667" lon="-6.857212">
        <ele>385.426</ele>
        <time>1999-07-25T09:09:29Z</time>
      </trkpt>
      <trkpt lat="43.221672" lon="-6.857286">
        <ele>385.608</ele>
        <time>1999-07-25T09:09:31Z</time>
      </trkpt>
      <trkpt lat="43.221672" lon="-6.857324">
        <ele>385.829</ele>
        <time>1999-07-25T09:09:32Z</time>
      </trkpt>
      <trkpt lat="43.221655" lon="-6.857456">
        <ele>386.665</ele>
        <time>1999-07-25T09:09:36Z</time>
      </trkpt>
      <trkpt lat="43.221644" lon="-6.857488">
        <ele>386.846</ele>
        <time>1999-07-25T09:09:37Z</time>
      </trkpt>
      <trkpt lat="43.221568" lon="-6.857598">
        <ele>387.471</ele>
        <time>1999-07-25T09:09:42Z</time>
      </trkpt>
      <trkpt lat="43.221552" lon="-6.857613">
        <ele>387.631</ele>
        <time>1999-07-25T09:09:43Z</time>
      </trkpt>
      <trkpt lat="43.221443" lon="-6.857655">
        <ele>388.458</ele>
        <time>1999-07-25T09:09:48Z</time>
      </trkpt>
      <trkpt lat="43.221422" lon="-6.857660">
        <ele>388.445</ele>
        <time>1999-07-25T09:09:49Z</time>
      </trkpt>
      <trkpt lat="43.221271" lon="-6.857674">
        <ele>389.663</ele>
        <time>1999-07-25T09:09:55Z</time>
      </trkpt>
      <trkpt lat="43.221106" lon="-6.857755">
        <ele>390.671</ele>
        <time>1999-07-25T09:10:00Z</time>
      </trkpt>
      <trkpt lat="43.220902" lon="-6.857877">
        <ele>391.641</ele>
        <time>1999-07-25T09:10:06Z</time>
      </trkpt>
      <trkpt lat="43.220741" lon="-6.858024">
        <ele>392.615</ele>
        <time>1999-07-25T09:10:12Z</time>
      </trkpt>
      <trkpt lat="43.220621" lon="-6.858144">
        <ele>393.608</ele>
        <time>1999-07-25T09:10:17Z</time>
      </trkpt>
      <trkpt lat="43.220592" lon="-6.858165">
        <ele>393.880</ele>
        <time>1999-07-25T09:10:18Z</time>
      </trkpt>
      <trkpt lat="43.220450" lon="-6.858272">
        <ele>394.616</ele>
        <time>1999-07-25T09:10:23Z</time>
      </trkpt>
      <trkpt lat="43.220388" lon="-6.858345">
        <ele>394.817</ele>
        <time>1999-07-25T09:10:26Z</time>
      </trkpt>
      <trkpt lat="43.220346" lon="-6.858390">
        <ele>395.422</ele>
        <time>1999-07-25T09:10:28Z</time>
      </trkpt>
      <trkpt lat="43.220281" lon="-6.858498">
        <ele>396.262</ele>
        <time>1999-07-25T09:10:32Z</time>
      </trkpt>
      <trkpt lat="43.220260" lon="-6.858523">
        <ele>396.499</ele>
        <time>1999-07-25T09:10:33Z</time>
      </trkpt>
      <trkpt lat="43.220189" lon="-6.858644">
        <ele>397.086</ele>
        <time>1999-07-25T09:10:38Z</time>
      </trkpt>
      <trkpt lat="43.220174" lon="-6.858667">
        <ele>397.234</ele>
        <time>1999-07-25T09:10:39Z</time>
      </trkpt>
      <trkpt lat="43.220074" lon="-6.858791">
        <ele>398.253</ele>
        <time>1999-07-25T09:10:44Z</time>
      </trkpt>
      <trkpt lat="43.219938" lon="-6.858927">
        <ele>399.204</ele>
        <time>1999-07-25T09:10:49Z</time>
      </trkpt>
      <trkpt lat="43.219913" lon="-6.858954">
        <ele>399.414</ele>
        <time>1999-07-25T09:10:50Z</time>
      </trkpt>
      <trkpt lat="43.219801" lon="-6.859078">
        <ele>400.208</ele>
        <time>1999-07-25T09:10:55Z</time>
      </trkpt>
      <trkpt lat="43.219732" lon="-6.859185">
        <ele>401.258</ele>
        <time>1999-07-25T09:10:59Z</time>
      </trkpt>
      <trkpt lat="43.219714" lon="-6.859215">
        <ele>401.264</ele>
        <time>1999-07-25T09:11:00Z</time>
      </trkpt>
      <trkpt lat="43.219603" lon="-6.859348">
        <ele>402.225</ele>
        <time>1999-07-25T09:11:05Z</time>
      </trkpt>
      <trkpt lat="43.219585" lon="-6.859376">
        <ele>402.470</ele>
        <time>1999-07-25T09:11:06Z</time>
      </trkpt>
      <trkpt lat="43.219468" lon="-6.859530">
        <ele>403.250</ele>
        <time>1999-07-25T09:11:12Z</time>
      </trkpt>
      <trkpt lat="43.219373" lon="-6.859700">
        <ele>404.237</ele>
        <time>1999-07-25T09:11:18Z</time>
      </trkpt>
      <trkpt lat="43.219336" lon="-6.859751">
        <ele>404.664</ele>
        <time>1999-07-25T09:11:20Z</time>
      </trkpt>
      <trkpt lat="43.219273" lon="-6.859868">
        <ele>405.212</ele>
        <time>1999-07-25T09:11:24Z</time>
      </trkpt>
      <trkpt lat="43.219188" lon="-6.860003">
        <ele>406.493</ele>
        <time>1999-07-25T09:11:29Z</time>
      </trkpt>
      <trkpt lat="43.219091" lon="-6.860154">
        <ele>407.465</ele>
        <time>1999-07-25T09:11:34Z</time>
      </trkpt>
      <trkpt lat="43.219052" lon="-6.860252">
        <ele>408.021</ele>
        <time>1999-07-25T09:11:37Z</time>
      </trkpt>
      <trkpt lat="43.219038" lon="-6.860320">
        <ele>408.608</ele>
        <time>1999-07-25T09:11:39Z</time>
      </trkpt>
      <trkpt lat="43.218995" lon="-6.860366">
        <ele>409.262</ele>
        <time>1999-07-25T09:11:41Z</time>
      </trkpt>
      <trkpt lat="43.218968" lon="-6.860387">
        <ele>409.448</ele>
        <time>1999-07-25T09:11:42Z</time>
      </trkpt>
      <trkpt lat="43.218944" lon="-6.860407">
        <ele>409.439</ele>
        <time>1999-07-25T09:11:43Z</time>
      </trkpt>
      <trkpt lat="43.218839" lon="-6.860427">
        <ele>410.444</ele>
        <time>1999-07-25T09:11:47Z</time>
      </trkpt>
      <trkpt lat="43.218818" lon="-6.860426">
        <ele>410.684</ele>
        <time>1999-07-25T09:11:48Z</time>
      </trkpt>
      <trkpt lat="43.218666" lon="-6.860387">
        <ele>411.691</ele>
        <time>1999-07-25T09:11:54Z</time>
      </trkpt>
      <trkpt lat="43.218541" lon="-6.860231">
        <ele>412.668</ele>
        <time>1999-07-25T09:11:59Z</time>
      </trkpt>
      <trkpt lat="43.218527" lon="-6.860198">
        <ele>412.856</ele>
        <time>1999-07-25T09:12:00Z</time>
      </trkpt>
      <trkpt lat="43.218474" lon="-6.860027">
        <ele>413.873</ele>
        <time>1999-07-25T09:12:05Z</time>
      </trkpt>
      <trkpt lat="43.218443" lon="-6.859924">
        <ele>414.485</ele>
        <time>1999-07-25T09:12:08Z</time>
      </trkpt>
      <trkpt lat="43.218446" lon="-6.859893">
        <ele>414.813</ele>
        <time>1999-07-25T09:12:09Z</time>
      </trkpt>
      <trkpt lat="43.218415" lon="-6.859743">
        <ele>416.008</ele>
        <time>1999-07-25T09:12:14Z</time>
      </trkpt>
      <trkpt lat="43.218337" lon="-6.859571">
        <ele>417.040</ele>
        <time>1999-07-25T09:12:20Z</time>
      </trkpt>
      <trkpt lat="43.218296" lon="-6.859517">
        <ele>417.456</ele>
        <time>1999-07-25T09:12:22Z</time>
      </trkpt>
      <trkpt lat="43.218245" lon="-6.859427">
        <ele>418.227</ele>
        <time>1999-07-25T09:12:25Z</time>
      </trkpt>
      <trkpt lat="43.218177" lon="-6.859321">
        <ele>418.672</ele>
        <time>1999-07-25T09:12:29Z</time>
      </trkpt>
      <trkpt lat="43.218152" lon="-6.859264">
        <ele>419.042</ele>
        <time>1999-07-25T09:12:31Z</time>
      </trkpt>
      <trkpt lat="43.218144" lon="-6.859139">
        <ele>419.889</ele>
        <time>1999-07-25T09:12:35Z</time>
      </trkpt>
      <trkpt lat="43.218147" lon="-6.859105">
        <ele>420.036</ele>
        <time>1999-07-25T09:12:36Z</time>
      </trkpt>
      <trkpt lat="43.218125" lon="-6.858917">
        <ele>421.284</ele>
        <time>1999-07-25T09:12:42Z</time>
      </trkpt>
      <trkpt lat="43.218098" lon="-6.858859">
        <ele>421.694</ele>
        <time>1999-07-25T09:12:44Z</time>
      </trkpt>
      <trkpt lat="43.218080" lon="-6.858795">
        <ele>422.257</ele>
        <time>1999-07-25T09:12:46Z</time>
      </trkpt>
      <trkpt lat="43.218042" lon="-6.858643">
        <ele>423.022</ele>
        <time>1999-07-25T09:12:51Z</time>
      </trkpt>
      <trkpt lat="43.218022" lon="-6.858614">
        <ele>423.408</ele>
        <time>1999-07-25T09:12:52Z</time>
      </trkpt>
      <trkpt lat="43.217954" lon="-6.858510">
        <ele>424.032</ele>
        <time>1999-07-25T09:12:56Z</time>
      </trkpt>
      <trkpt lat="43.217876" lon="-6.858450">
        <ele>424.658</ele>
        <time>1999-07-25T09:12:59Z</time>
      </trkpt>
      <trkpt lat="43.217825" lon="-6.858414">
        <ele>425.069</ele>
        <time>1999-07-25T09:13:01Z</time>
      </trkpt>
      <trkpt lat="43.217712" lon="-6.858333">
        <ele>426.044</ele>
        <time>1999-07-25T09:13:06Z</time>
      </trkpt>
      <trkpt lat="43.217690" lon="-6.858309">
        <ele>426.264</ele>
        <time>1999-07-25T09:13:07Z</time>
      </trkpt>
      <trkpt lat="43.217593" lon="-6.858165">
        <ele>427.261</ele>
        <time>1999-07-25T09:13:12Z</time>
      </trkpt>
      <trkpt lat="43.217518" lon="-6.857984">
        <ele>428.278</ele>
        <time>1999-07-25T09:13:18Z</time>
      </trkpt>
      <trkpt lat="43.217505" lon="-6.857960">
        <ele>428.496</ele>
        <time>1999-07-25T09:13:19Z</time>
      </trkpt>
      <trkpt lat="43.217438" lon="-6.857865">
        <ele>428.815</ele>
        <time>1999-07-25T09:13:23Z</time>
      </trkpt>
      <trkpt lat="43.217420" lon="-6.857837">
        <ele>429.065</ele>
        <time>1999-07-25T09:13:24Z</time>
      </trkpt>
      <trkpt lat="43.217405" lon="-6.857808">
        <ele>429.411</ele>
        <time>1999-07-25T09:13:25Z</time>
      </trkpt>
      <trkpt lat="43.217443" lon="-6.857613">
        <ele>430.408</ele>
        <time>1999-07-25T09:13:30Z</time>
      </trkpt>
      <trkpt lat="43.217539" lon="-6.857372">
        <ele>431.684</ele>
        <time>1999-07-25T09:13:36Z</time>
      </trkpt>
      <trkpt lat="43.217541" lon="-6.857329">
        <ele>431.610</ele>
        <time>1999-07-25T09:13:37Z</time>
      </trkpt>
      <trkpt lat="43.217560" lon="-6.857072">
        <ele>432.411</ele>
        <time>1999-07-25T09:13:43Z</time>
      </trkpt>
      <trkpt lat="43.217547" lon="-6.856939">
        <ele>432.696</ele>
        <time>1999-07-25T09:13:46Z</time>
      </trkpt>
      <trkpt lat="43.217509" lon="-6.856712">
        <ele>433.426</ele>
        <time>1999-07-25T09:13:52Z</time>
      </trkpt>
      <trkpt lat="43.217507" lon="-6.856642">
        <ele>433.823</ele>
        <time>1999-07-25T09:13:54Z</time>
      </trkpt>
      <trkpt lat="43.217482" lon="-6.856501">
        <ele>434.480</ele>
        <time>1999-07-25T09:13:58Z</time>
      </trkpt>
      <trkpt lat="43.217430" lon="-6.856405">
        <ele>434.898</ele>
        <time>1999-07-25T09:14:01Z</time>
      </trkpt>
      <trkpt lat="43.217404" lon="-6.856305">
        <ele>435.478</ele>
        <time>1999-07-25T09:14:04Z</time>
      </trkpt>
      <trkpt lat="43.217395" lon="-6.856223">
        <ele>435.633</ele>
        <time>1999-07-25T09:14:06Z</time>
      </trkpt>
      <trkpt lat="43.217335" lon="-6.856013">
        <ele>436.426</ele>
        <time>1999-07-25T09:14:11Z</time>
      </trkpt>
      <trkpt lat="43.217311" lon="-6.855933">
        <ele>436.608</ele>
        <time>1999-07-25T09:14:13Z</time>
      </trkpt>
      <trkpt lat="43.217307" lon="-6.855643">
        <ele>437.640</ele>
        <time>1999-07-25T09:14:20Z</time>
      </trkpt>
      <trkpt lat="43.217395" lon="-6.855353">
        <ele>438.226</ele>
        <time>1999-07-25T09:14:27Z</time>
      </trkpt>
      <trkpt lat="43.217424" lon="-6.855291">
        <ele>438.237</ele>
        <time>1999-07-25T09:14:29Z</time>
      </trkpt>
      <trkpt lat="43.217433" lon="-6.855274">
        <ele>438.432</ele>
        <time>1999-07-25T09:14:30Z</time>
      </trkpt>
      <trkpt lat="43.217455" lon="-6.855265">
        <ele>438.682</ele>
        <time>1999-07-25T09:14:32Z</time>
      </trkpt>
      <trkpt lat="43.217527" lon="-6.855177">
        <ele>439.259</ele>
        <time>1999-07-25T09:15:06Z</time>
      </trkpt>
      <trkpt lat="43.217504" lon="-6.855166">
        <ele>439.296</ele>
        <time>1999-07-25T09:15:07Z</time>
      </trkpt>
      <trkpt lat="43.217407" lon="-6.855102">
        <ele>439.294</ele>
        <time>1999-07-25T09:15:11Z</time>
      </trkpt>
      <trkpt lat="43.217241" lon="-6.855124">
        <ele>439.416</ele>
        <time>1999-07-25T09:15:17Z</time>
      </trkpt>
      <trkpt lat="43.217216" lon="-6.855142">
        <ele>439.476</ele>
        <time>1999-07-25T09:15:18Z</time>
      </trkpt>
      <trkpt lat="43.217152" lon="-6.855216">
        <ele>439.813</ele>
        <time>1999-07-25T09:15:21Z</time>
      </trkpt>
      <trkpt lat="43.217140" lon="-6.855247">
        <ele>440.008</ele>
        <time>1999-07-25T09:15:22Z</time>
      </trkpt>
      <trkpt lat="43.217128" lon="-6.855351">
        <ele>440.654</ele>
        <time>1999-07-25T09:15:25Z</time>
      </trkpt>
      <trkpt lat="43.217138" lon="-6.855420">
        <ele>440.830</ele>
        <time>1999-07-25T09:15:27Z</time>
      </trkpt>
      <trkpt lat="43.217196" lon="-6.855561">
        <ele>441.671</ele>
        <time>1999-07-25T09:15:32Z</time>
      </trkpt>
      <trkpt lat="43.217198" lon="-6.855592">
        <ele>441.876</ele>
        <time>1999-07-25T09:15:33Z</time>
      </trkpt>
      <trkpt lat="43.217273" lon="-6.855712">
        <ele>442.666</ele>
        <time>1999-07-25T09:15:38Z</time>
      </trkpt>
      <trkpt lat="43.217300" lon="-6.855830">
        <ele>443.813</ele>
        <time>1999-07-25T09:15:43Z</time>
      </trkpt>
      <trkpt lat="43.217290" lon="-6.855957">
        <ele>444.840</ele>
        <time>1999-07-25T09:15:48Z</time>
      </trkpt>
      <trkpt lat="43.217304" lon="-6.855982">
        <ele>445.058</ele>
        <time>1999-07-25T09:15:49Z</time>
      </trkpt>
      <trkpt lat="43.217350" lon="-6.856138">
        <ele>445.817</ele>
        <time>1999-07-25T09:15:54Z</time>
      </trkpt>
      <trkpt lat="43.217362" lon="-6.856206">
        <ele>445.887</ele>
        <time>1999-07-25T09:15:56Z</time>
      </trkpt>
      <trkpt lat="43.217424" lon="-6.856459">
        <ele>447.015</ele>
        <time>1999-07-25T09:16:03Z</time>
      </trkpt>
      <trkpt lat="43.217406" lon="-6.856676">
        <ele>447.808</ele>
        <time>1999-07-25T09:16:09Z</time>
      </trkpt>
      <trkpt lat="43.217392" lon="-6.856716">
        <ele>448.034</ele>
        <time>1999-07-25T09:16:10Z</time>
      </trkpt>
      <trkpt lat="43.217312" lon="-6.856934">
        <ele>449.030</ele>
        <time>1999-07-25T09:16:16Z</time>
      </trkpt>
      <trkpt lat="43.217303" lon="-6.856971">
        <ele>449.021</ele>
        <time>1999-07-25T09:16:17Z</time>
      </trkpt>
      <trkpt lat="43.217229" lon="-6.857158">
        <ele>450.026</ele>
        <time>1999-07-25T09:16:22Z</time>
      </trkpt>
      <trkpt lat="43.217216" lon="-6.857195">
        <ele>450.276</ele>
        <time>1999-07-25T09:16:23Z</time>
      </trkpt>
      <trkpt lat="43.217126" lon="-6.857476">
        <ele>451.233</ele>
        <time>1999-07-25T09:16:31Z</time>
      </trkpt>
      <trkpt lat="43.217080" lon="-6.857623">
        <ele>452.020</ele>
        <time>1999-07-25T09:16:37Z</time>
      </trkpt>
      <trkpt lat="43.217077" lon="-6.857630">
        <ele>452.298</ele>
        <time>1999-07-25T09:16:39Z</time>
      </trkpt>
      <trkpt lat="43.217014" lon="-6.857391">
        <ele>465.217</ele>
        <time>1999-07-25T09:17:44Z</time>
      </trkpt>
      <trkpt lat="43.217009" lon="-6.857407">
        <ele>465.287</ele>
        <time>1999-07-25T09:17:45Z</time>
      </trkpt>
      <trkpt lat="43.217002" lon="-6.857422">
        <ele>465.215</ele>
        <time>1999-07-25T09:17:46Z</time>
      </trkpt>
      <trkpt lat="43.216977" lon="-6.857507">
        <ele>465.808</ele>
        <time>1999-07-25T09:17:51Z</time>
      </trkpt>
      <trkpt lat="43.216958" lon="-6.857534">
        <ele>466.484</ele>
        <time>1999-07-25T09:17:53Z</time>
      </trkpt>
      <trkpt lat="43.216951" lon="-6.857551">
        <ele>466.620</ele>
        <time>1999-07-25T09:17:54Z</time>
      </trkpt>
      <trkpt lat="43.216925" lon="-6.857623">
        <ele>467.451</ele>
        <time>1999-07-25T09:17:58Z</time>
      </trkpt>
      <trkpt lat="43.216903" lon="-6.857709">
        <ele>468.686</ele>
        <time>1999-07-25T09:18:02Z</time>
      </trkpt>
      <trkpt lat="43.216901" lon="-6.857769">
        <ele>469.636</ele>
        <time>1999-07-25T09:18:06Z</time>
      </trkpt>
      <trkpt lat="43.216906" lon="-6.857772">
        <ele>469.843</ele>
        <time>1999-07-25T09:18:07Z</time>
      </trkpt>
      <trkpt lat="43.216946" lon="-6.857882">
        <ele>474.010</ele>
        <time>1999-07-25T09:18:24Z</time>
      </trkpt>
      <trkpt lat="43.216945" lon="-6.857908">
        <ele>474.068</ele>
        <time>1999-07-25T09:18:25Z</time>
      </trkpt>
      <trkpt lat="43.216923" lon="-6.857959">
        <ele>474.075</ele>
        <time>1999-07-25T09:18:27Z</time>
      </trkpt>
      <trkpt lat="43.216875" lon="-6.858060">
        <ele>474.228</ele>
        <time>1999-07-25T09:18:32Z</time>
      </trkpt>
      <trkpt lat="43.216858" lon="-6.858079">
        <ele>474.420</ele>
        <time>1999-07-25T09:18:33Z</time>
      </trkpt>
      <trkpt lat="43.216816" lon="-6.858132">
        <ele>475.008</ele>
        <time>1999-07-25T09:18:36Z</time>
      </trkpt>
      <trkpt lat="43.216761" lon="-6.858186">
        <ele>475.860</ele>
        <time>1999-07-25T09:18:39Z</time>
      </trkpt>
      <trkpt lat="43.216729" lon="-6.858220">
        <ele>476.256</ele>
        <time>1999-07-25T09:18:41Z</time>
      </trkpt>
      <trkpt lat="43.216707" lon="-6.858298">
        <ele>476.887</ele>
        <time>1999-07-25T09:18:44Z</time>
      </trkpt>
      <trkpt lat="43.216708" lon="-6.858317">
        <ele>477.082</ele>
        <time>1999-07-25T09:18:45Z</time>
      </trkpt>
      <trkpt lat="43.216721" lon="-6.858357">
        <ele>477.672</ele>
        <time>1999-07-25T09:18:48Z</time>
      </trkpt>
      <trkpt lat="43.216733" lon="-6.858392">
        <ele>477.869</ele>
        <time>1999-07-25T09:18:50Z</time>
      </trkpt>
      <trkpt lat="43.216736" lon="-6.858413">
        <ele>478.226</ele>
        <time>1999-07-25T09:18:51Z</time>
      </trkpt>
      <trkpt lat="43.216758" lon="-6.858483">
        <ele>479.454</ele>
        <time>1999-07-25T09:18:54Z</time>
      </trkpt>
      <trkpt lat="43.216767" lon="-6.858573">
        <ele>480.296</ele>
        <time>1999-07-25T09:18:58Z</time>
      </trkpt>
      <trkpt lat="43.216765" lon="-6.858618">
        <ele>480.631</ele>
        <time>1999-07-25T09:19:00Z</time>
      </trkpt>
      <trkpt lat="43.216773" lon="-6.858710">
        <ele>481.424</ele>
        <time>1999-07-25T09:19:04Z</time>
      </trkpt>
      <trkpt lat="43.216776" lon="-6.858766">
        <ele>481.808</ele>
        <time>1999-07-25T09:19:06Z</time>
      </trkpt>
      <trkpt lat="43.216787" lon="-6.858826">
        <ele>483.082</ele>
        <time>1999-07-25T09:19:09Z</time>
      </trkpt>
      <trkpt lat="43.216799" lon="-6.858881">
        <ele>483.838</ele>
        <time>1999-07-25T09:19:12Z</time>
      </trkpt>
      <trkpt lat="43.216806" lon="-6.858894">
        <ele>484.029</ele>
        <time>1999-07-25T09:19:13Z</time>
      </trkpt>
      <trkpt lat="43.216834" lon="-6.858938">
        <ele>484.854</ele>
        <time>1999-07-25T09:19:16Z</time>
      </trkpt>
      <trkpt lat="43.216850" lon="-6.858975">
        <ele>485.224</ele>
        <time>1999-07-25T09:19:18Z</time>
      </trkpt>
      <trkpt lat="43.216882" lon="-6.859019">
        <ele>485.881</ele>
        <time>1999-07-25T09:19:20Z</time>
      </trkpt>
      <trkpt lat="43.216920" lon="-6.859080">
        <ele>486.428</ele>
        <time>1999-07-25T09:19:23Z</time>
      </trkpt>
      <trkpt lat="43.216947" lon="-6.859185">
        <ele>487.096</ele>
        <time>1999-07-25T09:19:27Z</time>
      </trkpt>
      <trkpt lat="43.216960" lon="-6.859241">
        <ele>487.266</ele>
        <time>1999-07-25T09:19:29Z</time>
      </trkpt>
      <trkpt lat="43.217002" lon="-6.859348">
        <ele>488.029</ele>
        <time>1999-07-25T09:19:34Z</time>
      </trkpt>
      <trkpt lat="43.217006" lon="-6.859373">
        <ele>488.221</ele>
        <time>1999-07-25T09:19:35Z</time>
      </trkpt>
      <trkpt lat="43.217076" lon="-6.859498">
        <ele>489.008</ele>
        <time>1999-07-25T09:19:41Z</time>
      </trkpt>
      <trkpt lat="43.217148" lon="-6.859645">
        <ele>489.839</ele>
        <time>1999-07-25T09:19:46Z</time>
      </trkpt>
      <trkpt lat="43.217161" lon="-6.859676">
        <ele>490.055</ele>
        <time>1999-07-25T09:19:47Z</time>
      </trkpt>
      <trkpt lat="43.217177" lon="-6.859712">
        <ele>490.016</ele>
        <time>1999-07-25T09:19:48Z</time>
      </trkpt>
      <trkpt lat="43.217227" lon="-6.859832">
        <ele>490.661</ele>
        <time>1999-07-25T09:19:53Z</time>
      </trkpt>
      <trkpt lat="43.217226" lon="-6.859952">
        <ele>490.881</ele>
        <time>1999-07-25T09:19:59Z</time>
      </trkpt>
      <trkpt lat="43.217227" lon="-6.859974">
        <ele>490.878</ele>
        <time>1999-07-25T09:20:00Z</time>
      </trkpt>
      <trkpt lat="43.217227" lon="-6.860095">
        <ele>492.095</ele>
        <time>1999-07-25T09:20:05Z</time>
      </trkpt>
      <trkpt lat="43.217234" lon="-6.860140">
        <ele>492.473</ele>
        <time>1999-07-25T09:20:07Z</time>
      </trkpt>
      <trkpt lat="43.217241" lon="-6.860218">
        <ele>493.271</ele>
        <time>1999-07-25T09:20:10Z</time>
      </trkpt>
      <trkpt lat="43.217239" lon="-6.860238">
        <ele>493.441</ele>
        <time>1999-07-25T09:20:11Z</time>
      </trkpt>
      <trkpt lat="43.217244" lon="-6.860264">
        <ele>493.415</ele>
        <time>1999-07-25T09:20:12Z</time>
      </trkpt>
      <trkpt lat="43.217249" lon="-6.860307">
        <ele>494.208</ele>
        <time>1999-07-25T09:20:14Z</time>
      </trkpt>
      <trkpt lat="43.217246" lon="-6.860378">
        <ele>495.090</ele>
        <time>1999-07-25T09:20:17Z</time>
      </trkpt>
      <trkpt lat="43.217241" lon="-6.860437">
        <ele>495.486</ele>
        <time>1999-07-25T09:20:19Z</time>
      </trkpt>
      <trkpt lat="43.217247" lon="-6.860575">
        <ele>496.697</ele>
        <time>1999-07-25T09:20:24Z</time>
      </trkpt>
      <trkpt lat="43.217246" lon="-6.860618">
        <ele>497.092</ele>
        <time>1999-07-25T09:20:26Z</time>
      </trkpt>
      <trkpt lat="43.217245" lon="-6.860729">
        <ele>497.672</ele>
        <time>1999-07-25T09:20:31Z</time>
      </trkpt>
      <trkpt lat="43.217234" lon="-6.860763">
        <ele>497.899</ele>
        <time>1999-07-25T09:20:32Z</time>
      </trkpt>
      <trkpt lat="43.217227" lon="-6.860846">
        <ele>498.216</ele>
        <time>1999-07-25T09:20:35Z</time>
      </trkpt>
      <trkpt lat="43.217204" lon="-6.860891">
        <ele>498.454</ele>
        <time>1999-07-25T09:20:37Z</time>
      </trkpt>
      <trkpt lat="43.217196" lon="-6.860912">
        <ele>498.692</ele>
        <time>1999-07-25T09:20:38Z</time>
      </trkpt>
      <trkpt lat="43.217193" lon="-6.861020">
        <ele>498.873</ele>
        <time>1999-07-25T09:20:41Z</time>
      </trkpt>
      <trkpt lat="43.217234" lon="-6.861116">
        <ele>499.420</ele>
        <time>1999-07-25T09:20:44Z</time>
      </trkpt>
      <trkpt lat="43.217250" lon="-6.861144">
        <ele>499.408</ele>
        <time>1999-07-25T09:20:45Z</time>
      </trkpt>
      <trkpt lat="43.217259" lon="-6.861172">
        <ele>499.492</ele>
        <time>1999-07-25T09:20:46Z</time>
      </trkpt>
      <trkpt lat="43.217266" lon="-6.861274">
        <ele>499.468</ele>
        <time>1999-07-25T09:20:49Z</time>
      </trkpt>
      <trkpt lat="43.217298" lon="-6.861348">
        <ele>499.419</ele>
        <time>1999-07-25T09:20:51Z</time>
      </trkpt>
      <trkpt lat="43.217337" lon="-6.861403">
        <ele>499.414</ele>
        <time>1999-07-25T09:20:53Z</time>
      </trkpt>
      <trkpt lat="43.217374" lon="-6.861428">
        <ele>499.244</ele>
        <time>1999-07-25T09:20:55Z</time>
      </trkpt>
      <trkpt lat="43.217519" lon="-6.861524">
        <ele>499.251</ele>
        <time>1999-07-25T09:21:00Z</time>
      </trkpt>
      <trkpt lat="43.217564" lon="-6.861594">
        <ele>499.218</ele>
        <time>1999-07-25T09:21:02Z</time>
      </trkpt>
      <trkpt lat="43.217603" lon="-6.861736">
        <ele>499.226</ele>
        <time>1999-07-25T09:21:06Z</time>
      </trkpt>
      <trkpt lat="43.217619" lon="-6.861837">
        <ele>499.491</ele>
        <time>1999-07-25T09:21:09Z</time>
      </trkpt>
      <trkpt lat="43.217630" lon="-6.861952">
        <ele>500.681</ele>
        <time>1999-07-25T09:21:13Z</time>
      </trkpt>
      <trkpt lat="43.217668" lon="-6.862139">
        <ele>501.419</ele>
        <time>1999-07-25T09:21:19Z</time>
      </trkpt>
      <trkpt lat="43.217675" lon="-6.862172">
        <ele>501.608</ele>
        <time>1999-07-25T09:21:20Z</time>
      </trkpt>
      <trkpt lat="43.217749" lon="-6.862340">
        <ele>502.412</ele>
        <time>1999-07-25T09:21:26Z</time>
      </trkpt>
      <trkpt lat="43.217757" lon="-6.862400">
        <ele>502.698</ele>
        <time>1999-07-25T09:21:28Z</time>
      </trkpt>
      <trkpt lat="43.217782" lon="-6.862483">
        <ele>503.239</ele>
        <time>1999-07-25T09:21:31Z</time>
      </trkpt>
      <trkpt lat="43.217802" lon="-6.862534">
        <ele>503.484</ele>
        <time>1999-07-25T09:21:33Z</time>
      </trkpt>
      <trkpt lat="43.217813" lon="-6.862559">
        <ele>503.654</ele>
        <time>1999-07-25T09:21:34Z</time>
      </trkpt>
      <trkpt lat="43.217838" lon="-6.862613">
        <ele>504.231</ele>
        <time>1999-07-25T09:21:36Z</time>
      </trkpt>
      <trkpt lat="43.217851" lon="-6.862643">
        <ele>504.658</ele>
        <time>1999-07-25T09:21:37Z</time>
      </trkpt>
      <trkpt lat="43.217882" lon="-6.862745">
        <ele>505.886</ele>
        <time>1999-07-25T09:21:40Z</time>
      </trkpt>
      <trkpt lat="43.217878" lon="-6.862815">
        <ele>506.412</ele>
        <time>1999-07-25T09:21:42Z</time>
      </trkpt>
      <trkpt lat="43.217864" lon="-6.862876">
        <ele>506.832</ele>
        <time>1999-07-25T09:21:44Z</time>
      </trkpt>
      <trkpt lat="43.217831" lon="-6.862967">
        <ele>507.205</ele>
        <time>1999-07-25T09:21:48Z</time>
      </trkpt>
      <trkpt lat="43.217797" lon="-6.863030">
        <ele>507.808</ele>
        <time>1999-07-25T09:21:51Z</time>
      </trkpt>
      <trkpt lat="43.217775" lon="-6.863096">
        <ele>508.684</ele>
        <time>1999-07-25T09:21:54Z</time>
      </trkpt>
      <trkpt lat="43.217765" lon="-6.863119">
        <ele>508.840</ele>
        <time>1999-07-25T09:21:55Z</time>
      </trkpt>
      <trkpt lat="43.217720" lon="-6.863216">
        <ele>509.871</ele>
        <time>1999-07-25T09:21:59Z</time>
      </trkpt>
      <trkpt lat="43.217717" lon="-6.863324">
        <ele>510.626</ele>
        <time>1999-07-25T09:22:03Z</time>
      </trkpt>
      <trkpt lat="43.217726" lon="-6.863344">
        <ele>510.816</ele>
        <time>1999-07-25T09:22:04Z</time>
      </trkpt>
      <trkpt lat="43.217736" lon="-6.863360">
        <ele>511.073</ele>
        <time>1999-07-25T09:22:05Z</time>
      </trkpt>
      <trkpt lat="43.217787" lon="-6.863424">
        <ele>512.010</ele>
        <time>1999-07-25T09:22:09Z</time>
      </trkpt>
      <trkpt lat="43.217805" lon="-6.863437">
        <ele>512.438</ele>
        <time>1999-07-25T09:22:10Z</time>
      </trkpt>
      <trkpt lat="43.217822" lon="-6.863459">
        <ele>512.672</ele>
        <time>1999-07-25T09:22:11Z</time>
      </trkpt>
      <trkpt lat="43.217907" lon="-6.863551">
        <ele>513.613</ele>
        <time>1999-07-25T09:22:16Z</time>
      </trkpt>
      <trkpt lat="43.217951" lon="-6.863582">
        <ele>514.214</ele>
        <time>1999-07-25T09:22:18Z</time>
      </trkpt>
      <trkpt lat="43.217974" lon="-6.863594">
        <ele>514.608</ele>
        <time>1999-07-25T09:22:19Z</time>
      </trkpt>
      <trkpt lat="43.218036" lon="-6.863681">
        <ele>515.660</ele>
        <time>1999-07-25T09:22:24Z</time>
      </trkpt>
      <trkpt lat="43.218052" lon="-6.863723">
        <ele>516.096</ele>
        <time>1999-07-25T09:22:26Z</time>
      </trkpt>
      <trkpt lat="43.218077" lon="-6.863804">
        <ele>516.867</ele>
        <time>1999-07-25T09:22:29Z</time>
      </trkpt>
      <trkpt lat="43.218118" lon="-6.863917">
        <ele>517.652</ele>
        <time>1999-07-25T09:22:33Z</time>
      </trkpt>
      <trkpt lat="43.218133" lon="-6.863979">
        <ele>517.822</ele>
        <time>1999-07-25T09:22:35Z</time>
      </trkpt>
      <trkpt lat="43.218177" lon="-6.864104">
        <ele>518.269</ele>
        <time>1999-07-25T09:22:39Z</time>
      </trkpt>
      <trkpt lat="43.218185" lon="-6.864138">
        <ele>518.416</ele>
        <time>1999-07-25T09:22:40Z</time>
      </trkpt>
      <trkpt lat="43.218220" lon="-6.864301">
        <ele>518.894</ele>
        <time>1999-07-25T09:22:45Z</time>
      </trkpt>
      <trkpt lat="43.218234" lon="-6.864367">
        <ele>519.048</ele>
        <time>1999-07-25T09:22:47Z</time>
      </trkpt>
      <trkpt lat="43.218220" lon="-6.864598">
        <ele>519.261</ele>
        <time>1999-07-25T09:22:54Z</time>
      </trkpt>
      <trkpt lat="43.218205" lon="-6.864623">
        <ele>519.217</ele>
        <time>1999-07-25T09:22:55Z</time>
      </trkpt>
      <trkpt lat="43.218184" lon="-6.864753">
        <ele>519.408</ele>
        <time>1999-07-25T09:22:58Z</time>
      </trkpt>
      <trkpt lat="43.218183" lon="-6.864884">
        <ele>519.437</ele>
        <time>1999-07-25T09:23:00Z</time>
      </trkpt>
      <trkpt lat="43.218177" lon="-6.864951">
        <ele>519.473</ele>
        <time>1999-07-25T09:23:01Z</time>
      </trkpt>
      <trkpt lat="43.218153" lon="-6.865094">
        <ele>519.414</ele>
        <time>1999-07-25T09:23:03Z</time>
      </trkpt>
      <trkpt lat="43.218140" lon="-6.865169">
        <ele>519.459</ele>
        <time>1999-07-25T09:23:04Z</time>
      </trkpt>
      <trkpt lat="43.218077" lon="-6.865363">
        <ele>519.449</ele>
        <time>1999-07-25T09:23:07Z</time>
      </trkpt>
      <trkpt lat="43.218056" lon="-6.865414">
        <ele>519.496</ele>
        <time>1999-07-25T09:23:08Z</time>
      </trkpt>
      <trkpt lat="43.218038" lon="-6.865516">
        <ele>518.643</ele>
        <time>1999-07-25T09:23:10Z</time>
      </trkpt>
      <trkpt lat="43.217999" lon="-6.865638">
        <ele>518.041</ele>
        <time>1999-07-25T09:23:13Z</time>
      </trkpt>
      <trkpt lat="43.218000" lon="-6.865769">
        <ele>517.692</ele>
        <time>1999-07-25T09:23:16Z</time>
      </trkpt>
      <trkpt lat="43.218015" lon="-6.865809">
        <ele>517.473</ele>
        <time>1999-07-25T09:23:17Z</time>
      </trkpt>
      <trkpt lat="43.218050" lon="-6.865856">
        <ele>517.420</ele>
        <time>1999-07-25T09:23:19Z</time>
      </trkpt>
      <trkpt lat="43.218106" lon="-6.865898">
        <ele>517.408</ele>
        <time>1999-07-25T09:23:21Z</time>
      </trkpt>
      <trkpt lat="43.218145" lon="-6.865929">
        <ele>517.442</ele>
        <time>1999-07-25T09:23:23Z</time>
      </trkpt>
      <trkpt lat="43.218180" lon="-6.865946">
        <ele>517.698</ele>
        <time>1999-07-25T09:23:28Z</time>
      </trkpt>
      <trkpt lat="43.218198" lon="-6.865955">
        <ele>517.869</ele>
        <time>1999-07-25T09:23:30Z</time>
      </trkpt>
      <trkpt lat="43.218216" lon="-6.865981">
        <ele>518.214</ele>
        <time>1999-07-25T09:23:34Z</time>
      </trkpt>
      <trkpt lat="43.218225" lon="-6.865989">
        <ele>518.414</ele>
        <time>1999-07-25T09:23:35Z</time>
      </trkpt>
      <trkpt lat="43.218261" lon="-6.866008">
        <ele>519.441</ele>
        <time>1999-07-25T09:23:39Z</time>
      </trkpt>
      <trkpt lat="43.218293" lon="-6.866021">
        <ele>520.228</ele>
        <time>1999-07-25T09:23:42Z</time>
      </trkpt>
      <trkpt lat="43.218308" lon="-6.866026">
        <ele>520.426</ele>
        <time>1999-07-25T09:23:43Z</time>
      </trkpt>
      <trkpt lat="43.218422" lon="-6.866036">
        <ele>521.663</ele>
        <time>1999-07-25T09:23:47Z</time>
      </trkpt>
      <trkpt lat="43.218604" lon="-6.866024">
        <ele>522.844</ele>
        <time>1999-07-25T09:23:53Z</time>
      </trkpt>
      <trkpt lat="43.218678" lon="-6.866021">
        <ele>523.218</ele>
        <time>1999-07-25T09:23:56Z</time>
      </trkpt>
      <trkpt lat="43.218760" lon="-6.866101">
        <ele>523.408</ele>
        <time>1999-07-25T09:24:01Z</time>
      </trkpt>
      <trkpt lat="43.218814" lon="-6.866253">
        <ele>524.059</ele>
        <time>1999-07-25T09:24:08Z</time>
      </trkpt>
      <trkpt lat="43.218864" lon="-6.866373">
        <ele>525.065</ele>
        <time>1999-07-25T09:24:14Z</time>
      </trkpt>
      <trkpt lat="43.218875" lon="-6.866396">
        <ele>525.436</ele>
        <time>1999-07-25T09:24:16Z</time>
      </trkpt>
      <trkpt lat="43.218902" lon="-6.866425">
        <ele>526.091</ele>
        <time>1999-07-25T09:24:19Z</time>
      </trkpt>
      <trkpt lat="43.218917" lon="-6.866470">
        <ele>526.261</ele>
        <time>1999-07-25T09:24:21Z</time>
      </trkpt>
      <trkpt lat="43.218929" lon="-6.866491">
        <ele>526.668</ele>
        <time>1999-07-25T09:24:22Z</time>
      </trkpt>
      <trkpt lat="43.218960" lon="-6.866584">
        <ele>527.485</ele>
        <time>1999-07-25T09:24:26Z</time>
      </trkpt>
      <trkpt lat="43.218967" lon="-6.866652">
        <ele>528.033</ele>
        <time>1999-07-25T09:24:29Z</time>
      </trkpt>
      <trkpt lat="43.218967" lon="-6.866678">
        <ele>528.463</ele>
        <time>1999-07-25T09:24:30Z</time>
      </trkpt>
      <trkpt lat="43.218971" lon="-6.866786">
        <ele>529.444</ele>
        <time>1999-07-25T09:24:35Z</time>
      </trkpt>
      <trkpt lat="43.219017" lon="-6.866938">
        <ele>530.018</ele>
        <time>1999-07-25T09:24:41Z</time>
      </trkpt>
      <trkpt lat="43.219031" lon="-6.867096">
        <ele>530.608</ele>
        <time>1999-07-25T09:24:47Z</time>
      </trkpt>
      <trkpt lat="43.219035" lon="-6.867125">
        <ele>530.649</ele>
        <time>1999-07-25T09:24:48Z</time>
      </trkpt>
      <trkpt lat="43.219027" lon="-6.867265">
        <ele>531.675</ele>
        <time>1999-07-25T09:24:54Z</time>
      </trkpt>
      <trkpt lat="43.219028" lon="-6.867288">
        <ele>531.616</ele>
        <time>1999-07-25T09:24:55Z</time>
      </trkpt>
      <trkpt lat="43.219060" lon="-6.867429">
        <ele>532.421</ele>
        <time>1999-07-25T09:25:01Z</time>
      </trkpt>
      <trkpt lat="43.219063" lon="-6.867453">
        <ele>532.651</ele>
        <time>1999-07-25T09:25:02Z</time>
      </trkpt>
      <trkpt lat="43.219057" lon="-6.867625">
        <ele>533.648</ele>
        <time>1999-07-25T09:25:08Z</time>
      </trkpt>
      <trkpt lat="43.219051" lon="-6.867650">
        <ele>533.685</ele>
        <time>1999-07-25T09:25:09Z</time>
      </trkpt>
      <trkpt lat="43.219015" lon="-6.867778">
        <ele>534.683</ele>
        <time>1999-07-25T09:25:14Z</time>
      </trkpt>
      <trkpt lat="43.219004" lon="-6.867807">
        <ele>535.038</ele>
        <time>1999-07-25T09:25:15Z</time>
      </trkpt>
      <trkpt lat="43.218981" lon="-6.867963">
        <ele>535.670</ele>
        <time>1999-07-25T09:25:20Z</time>
      </trkpt>
      <trkpt lat="43.218971" lon="-6.867996">
        <ele>535.617</ele>
        <time>1999-07-25T09:25:21Z</time>
      </trkpt>
      <trkpt lat="43.218951" lon="-6.868179">
        <ele>536.408</ele>
        <time>1999-07-25T09:25:26Z</time>
      </trkpt>
      <trkpt lat="43.218946" lon="-6.868222">
        <ele>536.686</ele>
        <time>1999-07-25T09:25:27Z</time>
      </trkpt>
      <trkpt lat="43.218844" lon="-6.868482">
        <ele>537.012</ele>
        <time>1999-07-25T09:25:32Z</time>
      </trkpt>
      <trkpt lat="43.218744" lon="-6.868645">
        <ele>537.293</ele>
        <time>1999-07-25T09:25:35Z</time>
      </trkpt>
      <trkpt lat="43.218688" lon="-6.868775">
        <ele>537.248</ele>
        <time>1999-07-25T09:25:37Z</time>
      </trkpt>
      <trkpt lat="43.218639" lon="-6.868905">
        <ele>537.268</ele>
        <time>1999-07-25T09:25:39Z</time>
      </trkpt>
      <trkpt lat="43.218575" lon="-6.869156">
        <ele>537.295</ele>
        <time>1999-07-25T09:25:42Z</time>
      </trkpt>
      <trkpt lat="43.218553" lon="-6.869312">
        <ele>537.292</ele>
        <time>1999-07-25T09:25:44Z</time>
      </trkpt>
      <trkpt lat="43.218513" lon="-6.869546">
        <ele>536.490</ele>
        <time>1999-07-25T09:25:47Z</time>
      </trkpt>
      <trkpt lat="43.218460" lon="-6.869778">
        <ele>535.855</ele>
        <time>1999-07-25T09:25:50Z</time>
      </trkpt>
      <trkpt lat="43.218436" lon="-6.869863">
        <ele>535.607</ele>
        <time>1999-07-25T09:25:51Z</time>
      </trkpt>
      <trkpt lat="43.218418" lon="-6.869951">
        <ele>535.417</ele>
        <time>1999-07-25T09:25:52Z</time>
      </trkpt>
      <trkpt lat="43.218305" lon="-6.870405">
        <ele>534.808</ele>
        <time>1999-07-25T09:25:57Z</time>
      </trkpt>
      <trkpt lat="43.218254" lon="-6.870561">
        <ele>534.638</ele>
        <time>1999-07-25T09:25:59Z</time>
      </trkpt>
      <trkpt lat="43.218101" lon="-6.870883">
        <ele>533.064</ele>
        <time>1999-07-25T09:26:03Z</time>
      </trkpt>
      <trkpt lat="43.218006" lon="-6.871027">
        <ele>531.255</ele>
        <time>1999-07-25T09:26:05Z</time>
      </trkpt>
      <trkpt lat="43.217878" lon="-6.871281">
        <ele>530.040</ele>
        <time>1999-07-25T09:26:08Z</time>
      </trkpt>
      <trkpt lat="43.217780" lon="-6.871475">
        <ele>529.010</ele>
        <time>1999-07-25T09:26:10Z</time>
      </trkpt>
      <trkpt lat="43.217591" lon="-6.871765">
        <ele>527.617</ele>
        <time>1999-07-25T09:26:13Z</time>
      </trkpt>
      <trkpt lat="43.217491" lon="-6.871929">
        <ele>526.414</ele>
        <time>1999-07-25T09:26:15Z</time>
      </trkpt>
      <trkpt lat="43.217445" lon="-6.872004">
        <ele>525.282</ele>
        <time>1999-07-25T09:26:16Z</time>
      </trkpt>
      <trkpt lat="43.217400" lon="-6.872075">
        <ele>524.052</ele>
        <time>1999-07-25T09:26:17Z</time>
      </trkpt>
      <trkpt lat="43.217356" lon="-6.872140">
        <ele>523.053</ele>
        <time>1999-07-25T09:26:18Z</time>
      </trkpt>
      <trkpt lat="43.217272" lon="-6.872262">
        <ele>521.608</ele>
        <time>1999-07-25T09:26:20Z</time>
      </trkpt>
      <trkpt lat="43.217236" lon="-6.872336">
        <ele>521.008</ele>
        <time>1999-07-25T09:26:21Z</time>
      </trkpt>
      <trkpt lat="43.217201" lon="-6.872415">
        <ele>520.628</ele>
        <time>1999-07-25T09:26:22Z</time>
      </trkpt>
      <trkpt lat="43.217167" lon="-6.872485">
        <ele>520.054</ele>
        <time>1999-07-25T09:26:23Z</time>
      </trkpt>
      <trkpt lat="43.217093" lon="-6.872673">
        <ele>518.885</ele>
        <time>1999-07-25T09:26:26Z</time>
      </trkpt>
      <trkpt lat="43.217078" lon="-6.872724">
        <ele>518.460</ele>
        <time>1999-07-25T09:26:27Z</time>
      </trkpt>
      <trkpt lat="43.217038" lon="-6.872853">
        <ele>517.610</ele>
        <time>1999-07-25T09:26:30Z</time>
      </trkpt>
      <trkpt lat="43.217024" lon="-6.872890">
        <ele>517.427</ele>
        <time>1999-07-25T09:26:31Z</time>
      </trkpt>
      <trkpt lat="43.217012" lon="-6.872994">
        <ele>517.234</ele>
        <time>1999-07-25T09:26:34Z</time>
      </trkpt>
      <trkpt lat="43.217013" lon="-6.873100">
        <ele>517.242</ele>
        <time>1999-07-25T09:26:37Z</time>
      </trkpt>
      <trkpt lat="43.217004" lon="-6.873177">
        <ele>517.423</ele>
        <time>1999-07-25T09:26:39Z</time>
      </trkpt>
      <trkpt lat="43.216983" lon="-6.873253">
        <ele>517.483</ele>
        <time>1999-07-25T09:26:41Z</time>
      </trkpt>
      <trkpt lat="43.216954" lon="-6.873328">
        <ele>517.811</ele>
        <time>1999-07-25T09:26:43Z</time>
      </trkpt>
      <trkpt lat="43.216853" lon="-6.873523">
        <ele>518.408</ele>
        <time>1999-07-25T09:26:48Z</time>
      </trkpt>
      <trkpt lat="43.216808" lon="-6.873553">
        <ele>518.455</ele>
        <time>1999-07-25T09:26:49Z</time>
      </trkpt>
      <trkpt lat="43.216779" lon="-6.873582">
        <ele>518.651</ele>
        <time>1999-07-25T09:26:50Z</time>
      </trkpt>
      <trkpt lat="43.216663" lon="-6.873706">
        <ele>518.872</ele>
        <time>1999-07-25T09:26:55Z</time>
      </trkpt>
      <trkpt lat="43.216585" lon="-6.873793">
        <ele>519.657</ele>
        <time>1999-07-25T09:26:58Z</time>
      </trkpt>
      <trkpt lat="43.216494" lon="-6.873902">
        <ele>520.257</ele>
        <time>1999-07-25T09:27:01Z</time>
      </trkpt>
      <trkpt lat="43.216388" lon="-6.873988">
        <ele>520.664</ele>
        <time>1999-07-25T09:27:03Z</time>
      </trkpt>
      <trkpt lat="43.216268" lon="-6.874134">
        <ele>521.021</ele>
        <time>1999-07-25T09:27:06Z</time>
      </trkpt>
      <trkpt lat="43.216148" lon="-6.874355">
        <ele>521.699</ele>
        <time>1999-07-25T09:27:10Z</time>
      </trkpt>
      <trkpt lat="43.216130" lon="-6.874407">
        <ele>521.681</ele>
        <time>1999-07-25T09:27:11Z</time>
      </trkpt>
      <trkpt lat="43.216106" lon="-6.874506">
        <ele>522.061</ele>
        <time>1999-07-25T09:27:13Z</time>
      </trkpt>
      <trkpt lat="43.216132" lon="-6.874730">
        <ele>522.617</ele>
        <time>1999-07-25T09:27:18Z</time>
      </trkpt>
      <trkpt lat="43.216255" lon="-6.874921">
        <ele>523.808</ele>
        <time>1999-07-25T09:27:23Z</time>
      </trkpt>
      <trkpt lat="43.216438" lon="-6.875035">
        <ele>524.641</ele>
        <time>1999-07-25T09:27:29Z</time>
      </trkpt>
      <trkpt lat="43.216468" lon="-6.875050">
        <ele>525.027</ele>
        <time>1999-07-25T09:27:30Z</time>
      </trkpt>
      <trkpt lat="43.216663" lon="-6.875134">
        <ele>526.248</ele>
        <time>1999-07-25T09:27:37Z</time>
      </trkpt>
      <trkpt lat="43.216841" lon="-6.875217">
        <ele>527.263</ele>
        <time>1999-07-25T09:27:43Z</time>
      </trkpt>
      <trkpt lat="43.216872" lon="-6.875231">
        <ele>527.493</ele>
        <time>1999-07-25T09:27:44Z</time>
      </trkpt>
      <trkpt lat="43.217077" lon="-6.875318">
        <ele>528.280</ele>
        <time>1999-07-25T09:27:51Z</time>
      </trkpt>
      <trkpt lat="43.217306" lon="-6.875445">
        <ele>529.287</ele>
        <time>1999-07-25T09:27:59Z</time>
      </trkpt>
      <trkpt lat="43.217500" lon="-6.875608">
        <ele>530.015</ele>
        <time>1999-07-25T09:28:05Z</time>
      </trkpt>
      <trkpt lat="43.217563" lon="-6.875683">
        <ele>530.283</ele>
        <time>1999-07-25T09:28:07Z</time>
      </trkpt>
      <trkpt lat="43.217656" lon="-6.875802">
        <ele>530.825</ele>
        <time>1999-07-25T09:28:11Z</time>
      </trkpt>
      <trkpt lat="43.217662" lon="-6.875877">
        <ele>531.217</ele>
        <time>1999-07-25T09:28:14Z</time>
      </trkpt>
      <trkpt lat="43.217654" lon="-6.875902">
        <ele>531.408</ele>
        <time>1999-07-25T09:28:15Z</time>
      </trkpt>
      <trkpt lat="43.217634" lon="-6.876029">
        <ele>532.021</ele>
        <time>1999-07-25T09:28:20Z</time>
      </trkpt>
      <trkpt lat="43.217662" lon="-6.876181">
        <ele>532.467</ele>
        <time>1999-07-25T09:28:25Z</time>
      </trkpt>
      <trkpt lat="43.217660" lon="-6.876206">
        <ele>532.648</ele>
        <time>1999-07-25T09:28:26Z</time>
      </trkpt>
      <trkpt lat="43.217642" lon="-6.876419">
        <ele>533.023</ele>
        <time>1999-07-25T09:28:34Z</time>
      </trkpt>
      <trkpt lat="43.217641" lon="-6.876463">
        <ele>533.473</ele>
        <time>1999-07-25T09:28:36Z</time>
      </trkpt>
      <trkpt lat="43.217616" lon="-6.876475">
        <ele>533.620</ele>
        <time>1999-07-25T09:28:38Z</time>
      </trkpt>
      <trkpt lat="43.217605" lon="-6.876493">
        <ele>533.877</ele>
        <time>1999-07-25T09:28:39Z</time>
      </trkpt>
      <trkpt lat="43.217616" lon="-6.876611">
        <ele>534.255</ele>
        <time>1999-07-25T09:28:44Z</time>
      </trkpt>
      <trkpt lat="43.217623" lon="-6.876633">
        <ele>534.472</ele>
        <time>1999-07-25T09:28:45Z</time>
      </trkpt>
      <trkpt lat="43.217697" lon="-6.876812">
        <ele>535.213</ele>
        <time>1999-07-25T09:28:52Z</time>
      </trkpt>
      <trkpt lat="43.217709" lon="-6.876837">
        <ele>535.614</ele>
        <time>1999-07-25T09:28:53Z</time>
      </trkpt>
      <trkpt lat="43.217747" lon="-6.876957">
        <ele>536.208</ele>
        <time>1999-07-25T09:28:57Z</time>
      </trkpt>
      <trkpt lat="43.217765" lon="-6.876979">
        <ele>536.280</ele>
        <time>1999-07-25T09:28:58Z</time>
      </trkpt>
      <trkpt lat="43.217821" lon="-6.877066">
        <ele>536.656</ele>
        <time>1999-07-25T09:29:01Z</time>
      </trkpt>
      <trkpt lat="43.217844" lon="-6.877094">
        <ele>536.887</ele>
        <time>1999-07-25T09:29:02Z</time>
      </trkpt>
      <trkpt lat="43.217928" lon="-6.877138">
        <ele>537.052</ele>
        <time>1999-07-25T09:29:04Z</time>
      </trkpt>
      <trkpt lat="43.217995" lon="-6.877315">
        <ele>537.692</ele>
        <time>1999-07-25T09:29:09Z</time>
      </trkpt>
      <trkpt lat="43.218002" lon="-6.877349">
        <ele>537.899</ele>
        <time>1999-07-25T09:29:10Z</time>
      </trkpt>
      <trkpt lat="43.218021" lon="-6.877435">
        <ele>538.266</ele>
        <time>1999-07-25T09:29:13Z</time>
      </trkpt>
      <trkpt lat="43.218036" lon="-6.877459">
        <ele>538.254</ele>
        <time>1999-07-25T09:29:15Z</time>
      </trkpt>
      <trkpt lat="43.218036" lon="-6.877481">
        <ele>538.844</ele>
        <time>1999-07-25T09:29:17Z</time>
      </trkpt>
      <trkpt lat="43.218027" lon="-6.877547">
        <ele>540.005</ele>
        <time>1999-07-25T09:29:20Z</time>
      </trkpt>
      <trkpt lat="43.218022" lon="-6.877572">
        <ele>540.815</ele>
        <time>1999-07-25T09:29:21Z</time>
      </trkpt>
      <trkpt lat="43.218017" lon="-6.877596">
        <ele>541.208</ele>
        <time>1999-07-25T09:29:22Z</time>
      </trkpt>
      <trkpt lat="43.217973" lon="-6.877810">
        <ele>542.097</ele>
        <time>1999-07-25T09:29:31Z</time>
      </trkpt>
      <trkpt lat="43.217965" lon="-6.877883">
        <ele>542.433</ele>
        <time>1999-07-25T09:29:34Z</time>
      </trkpt>
      <trkpt lat="43.217951" lon="-6.877956">
        <ele>542.694</ele>
        <time>1999-07-25T09:29:37Z</time>
      </trkpt>
      <trkpt lat="43.217928" lon="-6.878045">
        <ele>543.689</ele>
        <time>1999-07-25T09:29:41Z</time>
      </trkpt>
      <trkpt lat="43.217912" lon="-6.878091">
        <ele>544.019</ele>
        <time>1999-07-25T09:29:43Z</time>
      </trkpt>
      <trkpt lat="43.217871" lon="-6.878174">
        <ele>544.436</ele>
        <time>1999-07-25T09:29:47Z</time>
      </trkpt>
      <trkpt lat="43.217843" lon="-6.878227">
        <ele>545.043</ele>
        <time>1999-07-25T09:29:50Z</time>
      </trkpt>
      <trkpt lat="43.217843" lon="-6.878248">
        <ele>545.291</ele>
        <time>1999-07-25T09:29:51Z</time>
      </trkpt>
      <trkpt lat="43.217842" lon="-6.878269">
        <ele>545.493</ele>
        <time>1999-07-25T09:29:52Z</time>
      </trkpt>
      <trkpt lat="43.217814" lon="-6.878327">
        <ele>546.065</ele>
        <time>1999-07-25T09:29:55Z</time>
      </trkpt>
      <trkpt lat="43.217791" lon="-6.878365">
        <ele>546.221</ele>
        <time>1999-07-25T09:29:57Z</time>
      </trkpt>
      <trkpt lat="43.217751" lon="-6.878436">
        <ele>546.408</ele>
        <time>1999-07-25T09:30:01Z</time>
      </trkpt>
      <trkpt lat="43.217733" lon="-6.878505">
        <ele>546.652</ele>
        <time>1999-07-25T09:30:04Z</time>
      </trkpt>
      <trkpt lat="43.217694" lon="-6.878617">
        <ele>547.638</ele>
        <time>1999-07-25T09:30:09Z</time>
      </trkpt>
      <trkpt lat="43.217660" lon="-6.878684">
        <ele>548.229</ele>
        <time>1999-07-25T09:30:12Z</time>
      </trkpt>
      <trkpt lat="43.217632" lon="-6.878723">
        <ele>548.814</ele>
        <time>1999-07-25T09:30:14Z</time>
      </trkpt>
      <trkpt lat="43.217551" lon="-6.878790">
        <ele>549.244</ele>
        <time>1999-07-25T09:30:19Z</time>
      </trkpt>
      <trkpt lat="43.217505" lon="-6.878816">
        <ele>550.441</ele>
        <time>1999-07-25T09:30:22Z</time>
      </trkpt>
      <trkpt lat="43.217451" lon="-6.878850">
        <ele>551.248</ele>
        <time>1999-07-25T09:30:26Z</time>
      </trkpt>
      <trkpt lat="43.217407" lon="-6.878887">
        <ele>551.416</ele>
        <time>1999-07-25T09:30:29Z</time>
      </trkpt>
      <trkpt lat="43.217374" lon="-6.878926">
        <ele>551.817</ele>
        <time>1999-07-25T09:30:32Z</time>
      </trkpt>
      <trkpt lat="43.217364" lon="-6.878942">
        <ele>551.887</ele>
        <time>1999-07-25T09:30:33Z</time>
      </trkpt>
      <trkpt lat="43.217321" lon="-6.878943">
        <ele>552.015</ele>
        <time>1999-07-25T09:30:35Z</time>
      </trkpt>
      <trkpt lat="43.217316" lon="-6.878917">
        <ele>552.408</ele>
        <time>1999-07-25T09:30:37Z</time>
      </trkpt>
      <trkpt lat="43.217328" lon="-6.878912">
        <ele>552.624</ele>
        <time>1999-07-25T09:30:38Z</time>
      </trkpt>
      <trkpt lat="43.217406" lon="-6.878866">
        <ele>552.810</ele>
        <time>1999-07-25T09:30:42Z</time>
      </trkpt>
      <trkpt lat="43.217483" lon="-6.878842">
        <ele>552.891</ele>
        <time>1999-07-25T09:30:45Z</time>
      </trkpt>
      <trkpt lat="43.217507" lon="-6.878862">
        <ele>552.876</ele>
        <time>1999-07-25T09:30:46Z</time>
      </trkpt>
      <trkpt lat="43.217529" lon="-6.878944">
        <ele>552.846</ele>
        <time>1999-07-25T09:30:50Z</time>
      </trkpt>
      <trkpt lat="43.217510" lon="-6.878979">
        <ele>552.893</ele>
        <time>1999-07-25T09:30:52Z</time>
      </trkpt>
      <trkpt lat="43.217496" lon="-6.879021">
        <ele>552.650</ele>
        <time>1999-07-25T09:30:54Z</time>
      </trkpt>
      <trkpt lat="43.217485" lon="-6.879061">
        <ele>552.638</ele>
        <time>1999-07-25T09:30:56Z</time>
      </trkpt>
      <trkpt lat="43.217463" lon="-6.879113">
        <ele>552.636</ele>
        <time>1999-07-25T09:30:59Z</time>
      </trkpt>
      <trkpt lat="43.217436" lon="-6.879191">
        <ele>553.617</ele>
        <time>1999-07-25T09:31:03Z</time>
      </trkpt>
      <trkpt lat="43.217427" lon="-6.879212">
        <ele>553.818</ele>
        <time>1999-07-25T09:31:04Z</time>
      </trkpt>
      <trkpt lat="43.217409" lon="-6.879256">
        <ele>554.408</ele>
        <time>1999-07-25T09:31:06Z</time>
      </trkpt>
      <trkpt lat="43.217400" lon="-6.879297">
        <ele>554.896</ele>
        <time>1999-07-25T09:31:08Z</time>
      </trkpt>
      <trkpt lat="43.217373" lon="-6.879298">
        <ele>555.282</ele>
        <time>1999-07-25T09:31:09Z</time>
      </trkpt>
      <trkpt lat="43.217355" lon="-6.879305">
        <ele>555.613</ele>
        <time>1999-07-25T09:31:10Z</time>
      </trkpt>
      <trkpt lat="43.217344" lon="-6.879322">
        <ele>555.898</ele>
        <time>1999-07-25T09:31:11Z</time>
      </trkpt>
      <trkpt lat="43.217327" lon="-6.879381">
        <ele>556.638</ele>
        <time>1999-07-25T09:31:14Z</time>
      </trkpt>
      <trkpt lat="43.217312" lon="-6.879415">
        <ele>557.275</ele>
        <time>1999-07-25T09:31:16Z</time>
      </trkpt>
      <trkpt lat="43.217292" lon="-6.879488">
        <ele>558.262</ele>
        <time>1999-07-25T09:31:20Z</time>
      </trkpt>
      <trkpt lat="43.217287" lon="-6.879506">
        <ele>558.680</ele>
        <time>1999-07-25T09:31:21Z</time>
      </trkpt>
      <trkpt lat="43.217285" lon="-6.879549">
        <ele>559.458</ele>
        <time>1999-07-25T09:31:23Z</time>
      </trkpt>
      <trkpt lat="43.217280" lon="-6.879571">
        <ele>559.852</ele>
        <time>1999-07-25T09:31:24Z</time>
      </trkpt>
      <trkpt lat="43.217273" lon="-6.879592">
        <ele>560.017</ele>
        <time>1999-07-25T09:31:25Z</time>
      </trkpt>
      <trkpt lat="43.217262" lon="-6.879660">
        <ele>560.608</ele>
        <time>1999-07-25T09:31:28Z</time>
      </trkpt>
      <trkpt lat="43.217250" lon="-6.879753">
        <ele>561.618</ele>
        <time>1999-07-25T09:31:32Z</time>
      </trkpt>
      <trkpt lat="43.217210" lon="-6.879874">
        <ele>562.864</ele>
        <time>1999-07-25T09:31:37Z</time>
      </trkpt>
      <trkpt lat="43.217194" lon="-6.879901">
        <ele>563.095</ele>
        <time>1999-07-25T09:31:38Z</time>
      </trkpt>
      <trkpt lat="43.217079" lon="-6.880077">
        <ele>564.080</ele>
        <time>1999-07-25T09:31:44Z</time>
      </trkpt>
      <trkpt lat="43.216902" lon="-6.880181">
        <ele>564.480</ele>
        <time>1999-07-25T09:31:50Z</time>
      </trkpt>
      <trkpt lat="43.216721" lon="-6.880179">
        <ele>565.017</ele>
        <time>1999-07-25T09:31:56Z</time>
      </trkpt>
      <trkpt lat="43.216557" lon="-6.880135">
        <ele>566.294</ele>
        <time>1999-07-25T09:32:02Z</time>
      </trkpt>
      <trkpt lat="43.216501" lon="-6.880127">
        <ele>566.832</ele>
        <time>1999-07-25T09:32:04Z</time>
      </trkpt>
      <trkpt lat="43.216473" lon="-6.880127">
        <ele>567.245</ele>
        <time>1999-07-25T09:32:05Z</time>
      </trkpt>
      <trkpt lat="43.216365" lon="-6.880138">
        <ele>568.247</ele>
        <time>1999-07-25T09:32:09Z</time>
      </trkpt>
      <trkpt lat="43.216286" lon="-6.880156">
        <ele>569.011</ele>
        <time>1999-07-25T09:32:12Z</time>
      </trkpt>
      <trkpt lat="43.216260" lon="-6.880163">
        <ele>569.208</ele>
        <time>1999-07-25T09:32:13Z</time>
      </trkpt>
      <trkpt lat="43.216163" lon="-6.880193">
        <ele>570.477</ele>
        <time>1999-07-25T09:32:17Z</time>
      </trkpt>
      <trkpt lat="43.216088" lon="-6.880230">
        <ele>571.413</ele>
        <time>1999-07-25T09:32:20Z</time>
      </trkpt>
      <trkpt lat="43.215925" lon="-6.880366">
        <ele>572.494</ele>
        <time>1999-07-25T09:32:27Z</time>
      </trkpt>
      <trkpt lat="43.215903" lon="-6.880393">
        <ele>572.639</ele>
        <time>1999-07-25T09:32:28Z</time>
      </trkpt>
      <trkpt lat="43.215770" lon="-6.880596">
        <ele>573.489</ele>
        <time>1999-07-25T09:32:35Z</time>
      </trkpt>
      <trkpt lat="43.215753" lon="-6.880629">
        <ele>573.666</ele>
        <time>1999-07-25T09:32:36Z</time>
      </trkpt>
      <trkpt lat="43.215603" lon="-6.880866">
        <ele>574.233</ele>
        <time>1999-07-25T09:32:44Z</time>
      </trkpt>
      <trkpt lat="43.215541" lon="-6.880993">
        <ele>574.451</ele>
        <time>1999-07-25T09:32:48Z</time>
      </trkpt>
      <trkpt lat="43.215527" lon="-6.881053">
        <ele>574.878</ele>
        <time>1999-07-25T09:32:50Z</time>
      </trkpt>
      <trkpt lat="43.215475" lon="-6.881181">
        <ele>575.433</ele>
        <time>1999-07-25T09:32:55Z</time>
      </trkpt>
      <trkpt lat="43.215459" lon="-6.881228">
        <ele>576.026</ele>
        <time>1999-07-25T09:32:57Z</time>
      </trkpt>
      <trkpt lat="43.215447" lon="-6.881324">
        <ele>576.608</ele>
        <time>1999-07-25T09:33:01Z</time>
      </trkpt>
      <trkpt lat="43.215433" lon="-6.881376">
        <ele>577.070</ele>
        <time>1999-07-25T09:33:03Z</time>
      </trkpt>
      <trkpt lat="43.215429" lon="-6.881404">
        <ele>577.266</ele>
        <time>1999-07-25T09:33:04Z</time>
      </trkpt>
      <trkpt lat="43.215413" lon="-6.881485">
        <ele>577.887</ele>
        <time>1999-07-25T09:33:07Z</time>
      </trkpt>
      <trkpt lat="43.215365" lon="-6.881680">
        <ele>578.892</ele>
        <time>1999-07-25T09:33:14Z</time>
      </trkpt>
      <trkpt lat="43.215307" lon="-6.881875">
        <ele>579.892</ele>
        <time>1999-07-25T09:33:21Z</time>
      </trkpt>
      <trkpt lat="43.215298" lon="-6.881903">
        <ele>579.829</ele>
        <time>1999-07-25T09:33:22Z</time>
      </trkpt>
      <trkpt lat="43.215239" lon="-6.882149">
        <ele>580.416</ele>
        <time>1999-07-25T09:33:31Z</time>
      </trkpt>
      <trkpt lat="43.215223" lon="-6.882261">
        <ele>580.834</ele>
        <time>1999-07-25T09:33:35Z</time>
      </trkpt>
      <trkpt lat="43.215209" lon="-6.882346">
        <ele>581.423</ele>
        <time>1999-07-25T09:33:38Z</time>
      </trkpt>
      <trkpt lat="43.215181" lon="-6.882468">
        <ele>581.883</ele>
        <time>1999-07-25T09:33:43Z</time>
      </trkpt>
      <trkpt lat="43.215159" lon="-6.882569">
        <ele>583.011</ele>
        <time>1999-07-25T09:33:47Z</time>
      </trkpt>
      <trkpt lat="43.215153" lon="-6.882595">
        <ele>583.408</ele>
        <time>1999-07-25T09:33:48Z</time>
      </trkpt>
      <trkpt lat="43.215143" lon="-6.882644">
        <ele>584.045</ele>
        <time>1999-07-25T09:33:50Z</time>
      </trkpt>
      <trkpt lat="43.215134" lon="-6.882747">
        <ele>585.251</ele>
        <time>1999-07-25T09:33:54Z</time>
      </trkpt>
      <trkpt lat="43.215126" lon="-6.882846">
        <ele>585.882</ele>
        <time>1999-07-25T09:33:58Z</time>
      </trkpt>
      <trkpt lat="43.215120" lon="-6.882918">
        <ele>586.247</ele>
        <time>1999-07-25T09:34:01Z</time>
      </trkpt>
      <trkpt lat="43.215118" lon="-6.882991">
        <ele>586.877</ele>
        <time>1999-07-25T09:34:04Z</time>
      </trkpt>
      <trkpt lat="43.215119" lon="-6.883074">
        <ele>587.684</ele>
        <time>1999-07-25T09:34:07Z</time>
      </trkpt>
      <trkpt lat="43.215108" lon="-6.883179">
        <ele>588.061</ele>
        <time>1999-07-25T09:34:11Z</time>
      </trkpt>
      <trkpt lat="43.215101" lon="-6.883226">
        <ele>588.479</ele>
        <time>1999-07-25T09:34:13Z</time>
      </trkpt>
      <trkpt lat="43.215082" lon="-6.883322">
        <ele>589.884</ele>
        <time>1999-07-25T09:34:18Z</time>
      </trkpt>
      <trkpt lat="43.215062" lon="-6.883353">
        <ele>590.807</ele>
        <time>1999-07-25T09:34:20Z</time>
      </trkpt>
      <trkpt lat="43.215053" lon="-6.883370">
        <ele>591.017</ele>
        <time>1999-07-25T09:34:21Z</time>
      </trkpt>
      <trkpt lat="43.215037" lon="-6.883427">
        <ele>592.008</ele>
        <time>1999-07-25T09:34:24Z</time>
      </trkpt>
      <trkpt lat="43.215014" lon="-6.883480">
        <ele>593.221</ele>
        <time>1999-07-25T09:34:27Z</time>
      </trkpt>
      <trkpt lat="43.215000" lon="-6.883518">
        <ele>593.687</ele>
        <time>1999-07-25T09:34:29Z</time>
      </trkpt>
      <trkpt lat="43.214991" lon="-6.883580">
        <ele>594.478</ele>
        <time>1999-07-25T09:34:32Z</time>
      </trkpt>
      <trkpt lat="43.214968" lon="-6.883690">
        <ele>595.443</ele>
        <time>1999-07-25T09:34:38Z</time>
      </trkpt>
      <trkpt lat="43.214966" lon="-6.883705">
        <ele>595.693</ele>
        <time>1999-07-25T09:34:39Z</time>
      </trkpt>
      <trkpt lat="43.214970" lon="-6.883808">
        <ele>596.430</ele>
        <time>1999-07-25T09:34:45Z</time>
      </trkpt>
      <trkpt lat="43.214973" lon="-6.883825">
        <ele>596.497</ele>
        <time>1999-07-25T09:34:46Z</time>
      </trkpt>
      <trkpt lat="43.214972" lon="-6.883844">
        <ele>596.645</ele>
        <time>1999-07-25T09:34:47Z</time>
      </trkpt>
      <trkpt lat="43.214957" lon="-6.883915">
        <ele>597.467</ele>
        <time>1999-07-25T09:34:50Z</time>
      </trkpt>
      <trkpt lat="43.214949" lon="-6.883941">
        <ele>597.881</ele>
        <time>1999-07-25T09:34:51Z</time>
      </trkpt>
      <trkpt lat="43.214895" lon="-6.884033">
        <ele>598.619</ele>
        <time>1999-07-25T09:34:55Z</time>
      </trkpt>
      <trkpt lat="43.214854" lon="-6.884081">
        <ele>599.008</ele>
        <time>1999-07-25T09:34:57Z</time>
      </trkpt>
      <trkpt lat="43.214792" lon="-6.884165">
        <ele>599.429</ele>
        <time>1999-07-25T09:35:00Z</time>
      </trkpt>
      <trkpt lat="43.214737" lon="-6.884253">
        <ele>599.615</ele>
        <time>1999-07-25T09:35:03Z</time>
      </trkpt>
      <trkpt lat="43.214704" lon="-6.884309">
        <ele>599.616</ele>
        <time>1999-07-25T09:35:05Z</time>
      </trkpt>
      <trkpt lat="43.214683" lon="-6.884365">
        <ele>599.831</ele>
        <time>1999-07-25T09:35:07Z</time>
      </trkpt>
      <trkpt lat="43.214653" lon="-6.884462">
        <ele>599.841</ele>
        <time>1999-07-25T09:35:11Z</time>
      </trkpt>
      <trkpt lat="43.214598" lon="-6.884591">
        <ele>600.298</ele>
        <time>1999-07-25T09:35:16Z</time>
      </trkpt>
      <trkpt lat="43.214569" lon="-6.884642">
        <ele>600.815</ele>
        <time>1999-07-25T09:35:18Z</time>
      </trkpt>
      <trkpt lat="43.214509" lon="-6.884751">
        <ele>602.073</ele>
        <time>1999-07-25T09:35:22Z</time>
      </trkpt>
      <trkpt lat="43.214465" lon="-6.884827">
        <ele>602.486</ele>
        <time>1999-07-25T09:35:25Z</time>
      </trkpt>
      <trkpt lat="43.214403" lon="-6.884919">
        <ele>603.260</ele>
        <time>1999-07-25T09:35:29Z</time>
      </trkpt>
      <trkpt lat="43.214368" lon="-6.884964">
        <ele>603.626</ele>
        <time>1999-07-25T09:35:31Z</time>
      </trkpt>
      <trkpt lat="43.214312" lon="-6.885078">
        <ele>604.408</ele>
        <time>1999-07-25T09:35:35Z</time>
      </trkpt>
      <trkpt lat="43.214263" lon="-6.885158">
        <ele>605.081</ele>
        <time>1999-07-25T09:35:38Z</time>
      </trkpt>
      <trkpt lat="43.214212" lon="-6.885230">
        <ele>605.427</ele>
        <time>1999-07-25T09:35:41Z</time>
      </trkpt>
      <trkpt lat="43.214164" lon="-6.885315">
        <ele>606.098</ele>
        <time>1999-07-25T09:35:45Z</time>
      </trkpt>
      <trkpt lat="43.214117" lon="-6.885398">
        <ele>606.273</ele>
        <time>1999-07-25T09:35:48Z</time>
      </trkpt>
      <trkpt lat="43.214074" lon="-6.885477">
        <ele>606.853</ele>
        <time>1999-07-25T09:35:50Z</time>
      </trkpt>
      <trkpt lat="43.214035" lon="-6.885551">
        <ele>607.270</ele>
        <time>1999-07-25T09:35:52Z</time>
      </trkpt>
      <trkpt lat="43.213945" lon="-6.885757">
        <ele>607.627</ele>
        <time>1999-07-25T09:35:57Z</time>
      </trkpt>
      <trkpt lat="43.213882" lon="-6.886017">
        <ele>607.895</ele>
        <time>1999-07-25T09:36:03Z</time>
      </trkpt>
      <trkpt lat="43.213848" lon="-6.886117">
        <ele>608.233</ele>
        <time>1999-07-25T09:36:06Z</time>
      </trkpt>
      <trkpt lat="43.213832" lon="-6.886146">
        <ele>608.423</ele>
        <time>1999-07-25T09:36:07Z</time>
      </trkpt>
      <trkpt lat="43.213807" lon="-6.886206">
        <ele>608.615</ele>
        <time>1999-07-25T09:36:09Z</time>
      </trkpt>
      <trkpt lat="43.213764" lon="-6.886298">
        <ele>609.408</ele>
        <time>1999-07-25T09:36:12Z</time>
      </trkpt>
      <trkpt lat="43.213704" lon="-6.886384">
        <ele>610.666</ele>
        <time>1999-07-25T09:36:16Z</time>
      </trkpt>
      <trkpt lat="43.213654" lon="-6.886458">
        <ele>611.682</ele>
        <time>1999-07-25T09:36:19Z</time>
      </trkpt>
      <trkpt lat="43.213545" lon="-6.886612">
        <ele>612.633</ele>
        <time>1999-07-25T09:36:26Z</time>
      </trkpt>
      <trkpt lat="43.213453" lon="-6.886704">
        <ele>613.868</ele>
        <time>1999-07-25T09:36:32Z</time>
      </trkpt>
      <trkpt lat="43.213393" lon="-6.886757">
        <ele>614.818</ele>
        <time>1999-07-25T09:36:36Z</time>
      </trkpt>
      <trkpt lat="43.213377" lon="-6.886769">
        <ele>615.035</ele>
        <time>1999-07-25T09:36:37Z</time>
      </trkpt>
      <trkpt lat="43.213277" lon="-6.886827">
        <ele>616.282</ele>
        <time>1999-07-25T09:36:43Z</time>
      </trkpt>
      <trkpt lat="43.213249" lon="-6.886851">
        <ele>616.430</ele>
        <time>1999-07-25T09:36:45Z</time>
      </trkpt>
      <trkpt lat="43.213184" lon="-6.886889">
        <ele>617.237</ele>
        <time>1999-07-25T09:36:49Z</time>
      </trkpt>
      <trkpt lat="43.213141" lon="-6.886928">
        <ele>618.249</ele>
        <time>1999-07-25T09:36:52Z</time>
      </trkpt>
      <trkpt lat="43.213127" lon="-6.886940">
        <ele>618.613</ele>
        <time>1999-07-25T09:36:53Z</time>
      </trkpt>
      <trkpt lat="43.213082" lon="-6.886974">
        <ele>619.408</ele>
        <time>1999-07-25T09:36:56Z</time>
      </trkpt>
      <trkpt lat="43.213028" lon="-6.887049">
        <ele>620.686</ele>
        <time>1999-07-25T09:37:01Z</time>
      </trkpt>
      <trkpt lat="43.213021" lon="-6.887066">
        <ele>620.892</ele>
        <time>1999-07-25T09:37:02Z</time>
      </trkpt>
      <trkpt lat="43.212986" lon="-6.887113">
        <ele>621.613</ele>
        <time>1999-07-25T09:37:05Z</time>
      </trkpt>
      <trkpt lat="43.212934" lon="-6.887193">
        <ele>622.828</ele>
        <time>1999-07-25T09:37:09Z</time>
      </trkpt>
      <trkpt lat="43.212872" lon="-6.887285">
        <ele>624.048</ele>
        <time>1999-07-25T09:37:14Z</time>
      </trkpt>
      <trkpt lat="43.212863" lon="-6.887298">
        <ele>624.255</ele>
        <time>1999-07-25T09:37:15Z</time>
      </trkpt>
      <trkpt lat="43.212781" lon="-6.887373">
        <ele>625.052</ele>
        <time>1999-07-25T09:37:21Z</time>
      </trkpt>
      <trkpt lat="43.212758" lon="-6.887387">
        <ele>625.080</ele>
        <time>1999-07-25T09:37:22Z</time>
      </trkpt>
      <trkpt lat="43.212632" lon="-6.887445">
        <ele>625.834</ele>
        <time>1999-07-25T09:37:27Z</time>
      </trkpt>
      <trkpt lat="43.212591" lon="-6.887476">
        <ele>626.055</ele>
        <time>1999-07-25T09:37:29Z</time>
      </trkpt>
      <trkpt lat="43.212567" lon="-6.887492">
        <ele>626.410</ele>
        <time>1999-07-25T09:37:30Z</time>
      </trkpt>
      <trkpt lat="43.212455" lon="-6.887570">
        <ele>627.008</ele>
        <time>1999-07-25T09:37:35Z</time>
      </trkpt>
      <trkpt lat="43.212432" lon="-6.887585">
        <ele>627.286</ele>
        <time>1999-07-25T09:37:36Z</time>
      </trkpt>
      <trkpt lat="43.212284" lon="-6.887637">
        <ele>628.042</ele>
        <time>1999-07-25T09:37:41Z</time>
      </trkpt>
      <trkpt lat="43.212257" lon="-6.887649">
        <ele>628.223</ele>
        <time>1999-07-25T09:37:42Z</time>
      </trkpt>
      <trkpt lat="43.212093" lon="-6.887713">
        <ele>629.278</ele>
        <time>1999-07-25T09:37:48Z</time>
      </trkpt>
      <trkpt lat="43.212045" lon="-6.887732">
        <ele>629.488</ele>
        <time>1999-07-25T09:37:50Z</time>
      </trkpt>
      <trkpt lat="43.211977" lon="-6.887765">
        <ele>630.295</ele>
        <time>1999-07-25T09:37:53Z</time>
      </trkpt>
      <trkpt lat="43.211868" lon="-6.887842">
        <ele>630.642</ele>
        <time>1999-07-25T09:37:58Z</time>
      </trkpt>
      <trkpt lat="43.211797" lon="-6.887891">
        <ele>631.270</ele>
        <time>1999-07-25T09:38:01Z</time>
      </trkpt>
      <trkpt lat="43.211693" lon="-6.887945">
        <ele>631.684</ele>
        <time>1999-07-25T09:38:05Z</time>
      </trkpt>
      <trkpt lat="43.211568" lon="-6.888056">
        <ele>632.407</ele>
        <time>1999-07-25T09:38:10Z</time>
      </trkpt>
      <trkpt lat="43.211456" lon="-6.888144">
        <ele>633.017</ele>
        <time>1999-07-25T09:38:14Z</time>
      </trkpt>
      <trkpt lat="43.211376" lon="-6.888216">
        <ele>633.408</ele>
        <time>1999-07-25T09:38:17Z</time>
      </trkpt>
      <trkpt lat="43.211282" lon="-6.888371">
        <ele>634.251</ele>
        <time>1999-07-25T09:38:22Z</time>
      </trkpt>
      <trkpt lat="43.211263" lon="-6.888403">
        <ele>634.417</ele>
        <time>1999-07-25T09:38:23Z</time>
      </trkpt>
      <trkpt lat="43.211180" lon="-6.888600">
        <ele>635.258</ele>
        <time>1999-07-25T09:38:29Z</time>
      </trkpt>
      <trkpt lat="43.211173" lon="-6.888634">
        <ele>635.463</ele>
        <time>1999-07-25T09:38:30Z</time>
      </trkpt>
      <trkpt lat="43.211167" lon="-6.888667">
        <ele>635.653</ele>
        <time>1999-07-25T09:38:31Z</time>
      </trkpt>
      <trkpt lat="43.211153" lon="-6.888803">
        <ele>636.410</ele>
        <time>1999-07-25T09:38:35Z</time>
      </trkpt>
      <trkpt lat="43.211158" lon="-6.888956">
        <ele>637.497</ele>
        <time>1999-07-25T09:38:39Z</time>
      </trkpt>
      <trkpt lat="43.211162" lon="-6.888994">
        <ele>637.685</ele>
        <time>1999-07-25T09:38:40Z</time>
      </trkpt>
      <trkpt lat="43.211205" lon="-6.889209">
        <ele>638.645</ele>
        <time>1999-07-25T09:38:46Z</time>
      </trkpt>
      <trkpt lat="43.211217" lon="-6.889243">
        <ele>638.847</ele>
        <time>1999-07-25T09:38:47Z</time>
      </trkpt>
      <trkpt lat="43.211271" lon="-6.889379">
        <ele>639.611</ele>
        <time>1999-07-25T09:38:51Z</time>
      </trkpt>
      <trkpt lat="43.211339" lon="-6.889502">
        <ele>640.408</ele>
        <time>1999-07-25T09:38:55Z</time>
      </trkpt>
      <trkpt lat="43.211395" lon="-6.889594">
        <ele>640.857</ele>
        <time>1999-07-25T09:38:58Z</time>
      </trkpt>
      <trkpt lat="43.211521" lon="-6.889767">
        <ele>641.883</ele>
        <time>1999-07-25T09:39:04Z</time>
      </trkpt>
      <trkpt lat="43.211547" lon="-6.889793">
        <ele>641.874</ele>
        <time>1999-07-25T09:39:05Z</time>
      </trkpt>
      <trkpt lat="43.211611" lon="-6.889867">
        <ele>642.219</ele>
        <time>1999-07-25T09:39:08Z</time>
      </trkpt>
      <trkpt lat="43.211671" lon="-6.889927">
        <ele>642.469</ele>
        <time>1999-07-25T09:39:11Z</time>
      </trkpt>
      <trkpt lat="43.211851" lon="-6.890090">
        <ele>642.636</ele>
        <time>1999-07-25T09:39:18Z</time>
      </trkpt>
      <trkpt lat="43.211933" lon="-6.890115">
        <ele>642.613</ele>
        <time>1999-07-25T09:39:20Z</time>
      </trkpt>
      <trkpt lat="43.212109" lon="-6.890140">
        <ele>642.641</ele>
        <time>1999-07-25T09:39:24Z</time>
      </trkpt>
      <trkpt lat="43.212158" lon="-6.890151">
        <ele>642.647</ele>
        <time>1999-07-25T09:39:25Z</time>
      </trkpt>
      <trkpt lat="43.212317" lon="-6.890215">
        <ele>642.629</ele>
        <time>1999-07-25T09:39:28Z</time>
      </trkpt>
      <trkpt lat="43.212358" lon="-6.890245">
        <ele>642.621</ele>
        <time>1999-07-25T09:39:29Z</time>
      </trkpt>
      <trkpt lat="43.212432" lon="-6.890347">
        <ele>642.608</ele>
        <time>1999-07-25T09:39:31Z</time>
      </trkpt>
      <trkpt lat="43.212459" lon="-6.890414">
        <ele>642.457</ele>
        <time>1999-07-25T09:39:32Z</time>
      </trkpt>
      <trkpt lat="43.212490" lon="-6.890575">
        <ele>642.253</ele>
        <time>1999-07-25T09:39:34Z</time>
      </trkpt>
      <trkpt lat="43.212496" lon="-6.890656">
        <ele>642.294</ele>
        <time>1999-07-25T09:39:35Z</time>
      </trkpt>
      <trkpt lat="43.212482" lon="-6.890821">
        <ele>642.029</ele>
        <time>1999-07-25T09:39:37Z</time>
      </trkpt>
      <trkpt lat="43.212446" lon="-6.890967">
        <ele>641.849</ele>
        <time>1999-07-25T09:39:39Z</time>
      </trkpt>
      <trkpt lat="43.212277" lon="-6.891261">
        <ele>641.816</ele>
        <time>1999-07-25T09:39:44Z</time>
      </trkpt>
      <trkpt lat="43.212121" lon="-6.891523">
        <ele>642.253</ele>
        <time>1999-07-25T09:39:50Z</time>
      </trkpt>
      <trkpt lat="43.211971" lon="-6.891762">
        <ele>642.491</ele>
        <time>1999-07-25T09:39:57Z</time>
      </trkpt>
      <trkpt lat="43.211895" lon="-6.891877">
        <ele>642.637</ele>
        <time>1999-07-25T09:40:01Z</time>
      </trkpt>
      <trkpt lat="43.211824" lon="-6.891988">
        <ele>643.049</ele>
        <time>1999-07-25T09:40:05Z</time>
      </trkpt>
      <trkpt lat="43.211700" lon="-6.892175">
        <ele>643.813</ele>
        <time>1999-07-25T09:40:12Z</time>
      </trkpt>
      <trkpt lat="43.211681" lon="-6.892202">
        <ele>643.808</ele>
        <time>1999-07-25T09:40:13Z</time>
      </trkpt>
      <trkpt lat="43.211563" lon="-6.892376">
        <ele>645.056</ele>
        <time>1999-07-25T09:40:19Z</time>
      </trkpt>
      <trkpt lat="43.211500" lon="-6.892462">
        <ele>645.422</ele>
        <time>1999-07-25T09:40:22Z</time>
      </trkpt>
      <trkpt lat="43.211396" lon="-6.892664">
        <ele>645.813</ele>
        <time>1999-07-25T09:40:28Z</time>
      </trkpt>
      <trkpt lat="43.211386" lon="-6.892703">
        <ele>646.038</ele>
        <time>1999-07-25T09:40:29Z</time>
      </trkpt>
      <trkpt lat="43.211265" lon="-6.892956">
        <ele>646.498</ele>
        <time>1999-07-25T09:40:35Z</time>
      </trkpt>
      <trkpt lat="43.211149" lon="-6.893252">
        <ele>647.055</ele>
        <time>1999-07-25T09:40:41Z</time>
      </trkpt>
      <trkpt lat="43.211133" lon="-6.893308">
        <ele>647.092</ele>
        <time>1999-07-25T09:40:42Z</time>
      </trkpt>
      <trkpt lat="43.210949" lon="-6.893793">
        <ele>647.680</ele>
        <time>1999-07-25T09:40:50Z</time>
      </trkpt>
      <trkpt lat="43.210846" lon="-6.894101">
        <ele>647.612</ele>
        <time>1999-07-25T09:40:55Z</time>
      </trkpt>
      <trkpt lat="43.210792" lon="-6.894272">
        <ele>647.832</ele>
        <time>1999-07-25T09:40:58Z</time>
      </trkpt>
      <trkpt lat="43.210755" lon="-6.894378">
        <ele>647.805</ele>
        <time>1999-07-25T09:41:00Z</time>
      </trkpt>
      <trkpt lat="43.210709" lon="-6.894527">
        <ele>647.608</ele>
        <time>1999-07-25T09:41:03Z</time>
      </trkpt>
      <trkpt lat="43.210684" lon="-6.894635">
        <ele>647.684</ele>
        <time>1999-07-25T09:41:05Z</time>
      </trkpt>
      <trkpt lat="43.210565" lon="-6.895022">
        <ele>647.250</ele>
        <time>1999-07-25T09:41:11Z</time>
      </trkpt>
      <trkpt lat="43.210542" lon="-6.895094">
        <ele>647.031</ele>
        <time>1999-07-25T09:41:12Z</time>
      </trkpt>
      <trkpt lat="43.210370" lon="-6.895674">
        <ele>646.416</ele>
        <time>1999-07-25T09:41:19Z</time>
      </trkpt>
      <trkpt lat="43.210311" lon="-6.895982">
        <ele>646.296</ele>
        <time>1999-07-25T09:41:22Z</time>
      </trkpt>
      <trkpt lat="43.210276" lon="-6.896319">
        <ele>646.073</ele>
        <time>1999-07-25T09:41:25Z</time>
      </trkpt>
      <trkpt lat="43.210271" lon="-6.896436">
        <ele>645.840</ele>
        <time>1999-07-25T09:41:26Z</time>
      </trkpt>
      <trkpt lat="43.210277" lon="-6.896673">
        <ele>645.468</ele>
        <time>1999-07-25T09:41:28Z</time>
      </trkpt>
      <trkpt lat="43.210302" lon="-6.896914">
        <ele>645.028</ele>
        <time>1999-07-25T09:41:30Z</time>
      </trkpt>
      <trkpt lat="43.210342" lon="-6.897162">
        <ele>644.889</ele>
        <time>1999-07-25T09:41:32Z</time>
      </trkpt>
      <trkpt lat="43.210451" lon="-6.897534">
        <ele>644.017</ele>
        <time>1999-07-25T09:41:35Z</time>
      </trkpt>
      <trkpt lat="43.210497" lon="-6.897656">
        <ele>643.608</ele>
        <time>1999-07-25T09:41:36Z</time>
      </trkpt>
      <trkpt lat="43.210644" lon="-6.897966">
        <ele>642.485</ele>
        <time>1999-07-25T09:41:39Z</time>
      </trkpt>
      <trkpt lat="43.210716" lon="-6.898073">
        <ele>641.461</ele>
        <time>1999-07-25T09:41:41Z</time>
      </trkpt>
      <trkpt lat="43.210755" lon="-6.898107">
        <ele>640.892</ele>
        <time>1999-07-25T09:41:42Z</time>
      </trkpt>
      <trkpt lat="43.210799" lon="-6.898134">
        <ele>640.277</ele>
        <time>1999-07-25T09:41:43Z</time>
      </trkpt>
      <trkpt lat="43.210837" lon="-6.898160">
        <ele>639.887</ele>
        <time>1999-07-25T09:41:44Z</time>
      </trkpt>
      <trkpt lat="43.210870" lon="-6.898187">
        <ele>639.264</ele>
        <time>1999-07-25T09:41:45Z</time>
      </trkpt>
      <trkpt lat="43.210892" lon="-6.898219">
        <ele>638.851</ele>
        <time>1999-07-25T09:41:46Z</time>
      </trkpt>
      <trkpt lat="43.210911" lon="-6.898253">
        <ele>638.249</ele>
        <time>1999-07-25T09:41:47Z</time>
      </trkpt>
      <trkpt lat="43.210949" lon="-6.898315">
        <ele>635.221</ele>
        <time>1999-07-25T09:41:49Z</time>
      </trkpt>
      <trkpt lat="43.210993" lon="-6.898372">
        <ele>634.441</ele>
        <time>1999-07-25T09:41:51Z</time>
      </trkpt>
      <trkpt lat="43.211018" lon="-6.898391">
        <ele>634.405</ele>
        <time>1999-07-25T09:41:52Z</time>
      </trkpt>
      <trkpt lat="43.211078" lon="-6.898392">
        <ele>634.208</ele>
        <time>1999-07-25T09:41:54Z</time>
      </trkpt>
      <trkpt lat="43.211123" lon="-6.898353">
        <ele>634.265</ele>
        <time>1999-07-25T09:41:56Z</time>
      </trkpt>
      <trkpt lat="43.211177" lon="-6.898282">
        <ele>634.271</ele>
        <time>1999-07-25T09:41:59Z</time>
      </trkpt>
      <trkpt lat="43.211214" lon="-6.898242">
        <ele>634.282</ele>
        <time>1999-07-25T09:42:01Z</time>
      </trkpt>
      <trkpt lat="43.211243" lon="-6.898207">
        <ele>634.497</ele>
        <time>1999-07-25T09:42:03Z</time>
      </trkpt>
      <trkpt lat="43.211259" lon="-6.898187">
        <ele>634.817</ele>
        <time>1999-07-25T09:42:04Z</time>
      </trkpt>
      <trkpt lat="43.211311" lon="-6.898129">
        <ele>635.614</ele>
        <time>1999-07-25T09:42:07Z</time>
      </trkpt>
      <trkpt lat="43.211349" lon="-6.898080">
        <ele>636.271</ele>
        <time>1999-07-25T09:42:09Z</time>
      </trkpt>
      <trkpt lat="43.211395" lon="-6.898013">
        <ele>637.029</ele>
        <time>1999-07-25T09:42:12Z</time>
      </trkpt>
      <trkpt lat="43.211411" lon="-6.898009">
        <ele>637.219</ele>
        <time>1999-07-25T09:42:13Z</time>
      </trkpt>
      <trkpt lat="43.211469" lon="-6.898059">
        <ele>638.009</ele>
        <time>1999-07-25T09:42:16Z</time>
      </trkpt>
      <trkpt lat="43.211490" lon="-6.898086">
        <ele>638.419</ele>
        <time>1999-07-25T09:42:17Z</time>
      </trkpt>
      <trkpt lat="43.211593" lon="-6.898270">
        <ele>639.208</ele>
        <time>1999-07-25T09:42:21Z</time>
      </trkpt>
      <trkpt lat="43.211681" lon="-6.898473">
        <ele>639.234</ele>
        <time>1999-07-25T09:42:24Z</time>
      </trkpt>
      <trkpt lat="43.211765" lon="-6.898612">
        <ele>639.250</ele>
        <time>1999-07-25T09:42:26Z</time>
      </trkpt>
      <trkpt lat="43.212013" lon="-6.899034">
        <ele>638.651</ele>
        <time>1999-07-25T09:42:31Z</time>
      </trkpt>
      <trkpt lat="43.212179" lon="-6.899295">
        <ele>637.466</ele>
        <time>1999-07-25T09:42:34Z</time>
      </trkpt>
      <trkpt lat="43.212229" lon="-6.899375">
        <ele>637.496</ele>
        <time>1999-07-25T09:42:35Z</time>
      </trkpt>
      <trkpt lat="43.212309" lon="-6.899539">
        <ele>636.233</ele>
        <time>1999-07-25T09:42:37Z</time>
      </trkpt>
      <trkpt lat="43.212367" lon="-6.899728">
        <ele>635.090</ele>
        <time>1999-07-25T09:42:39Z</time>
      </trkpt>
      <trkpt lat="43.212421" lon="-6.899930">
        <ele>633.068</ele>
        <time>1999-07-25T09:42:41Z</time>
      </trkpt>
      <trkpt lat="43.212445" lon="-6.900022">
        <ele>632.255</ele>
        <time>1999-07-25T09:42:42Z</time>
      </trkpt>
      <trkpt lat="43.212468" lon="-6.900099">
        <ele>631.407</ele>
        <time>1999-07-25T09:42:43Z</time>
      </trkpt>
      <trkpt lat="43.212476" lon="-6.900167">
        <ele>630.017</ele>
        <time>1999-07-25T09:42:44Z</time>
      </trkpt>
      <trkpt lat="43.212481" lon="-6.900226">
        <ele>628.608</ele>
        <time>1999-07-25T09:42:45Z</time>
      </trkpt>
      <trkpt lat="43.212480" lon="-6.900270">
        <ele>627.648</ele>
        <time>1999-07-25T09:42:46Z</time>
      </trkpt>
      <trkpt lat="43.212475" lon="-6.900309">
        <ele>626.084</ele>
        <time>1999-07-25T09:42:47Z</time>
      </trkpt>
      <trkpt lat="43.212481" lon="-6.900349">
        <ele>625.235</ele>
        <time>1999-07-25T09:42:48Z</time>
      </trkpt>
      <trkpt lat="43.212500" lon="-6.900385">
        <ele>624.060</ele>
        <time>1999-07-25T09:42:49Z</time>
      </trkpt>
      <trkpt lat="43.212527" lon="-6.900425">
        <ele>622.650</ele>
        <time>1999-07-25T09:42:50Z</time>
      </trkpt>
      <trkpt lat="43.212555" lon="-6.900476">
        <ele>621.227</ele>
        <time>1999-07-25T09:42:51Z</time>
      </trkpt>
      <trkpt lat="43.212576" lon="-6.900543">
        <ele>620.244</ele>
        <time>1999-07-25T09:42:52Z</time>
      </trkpt>
      <trkpt lat="43.212584" lon="-6.900621">
        <ele>619.222</ele>
        <time>1999-07-25T09:42:53Z</time>
      </trkpt>
      <trkpt lat="43.212556" lon="-6.900789">
        <ele>618.024</ele>
        <time>1999-07-25T09:42:55Z</time>
      </trkpt>
      <trkpt lat="43.212533" lon="-6.900873">
        <ele>617.604</ele>
        <time>1999-07-25T09:42:56Z</time>
      </trkpt>
      <trkpt lat="43.212467" lon="-6.901033">
        <ele>617.214</ele>
        <time>1999-07-25T09:42:58Z</time>
      </trkpt>
      <trkpt lat="43.212396" lon="-6.901186">
        <ele>617.008</ele>
        <time>1999-07-25T09:43:00Z</time>
      </trkpt>
      <trkpt lat="43.212328" lon="-6.901337">
        <ele>616.835</ele>
        <time>1999-07-25T09:43:02Z</time>
      </trkpt>
      <trkpt lat="43.212172" lon="-6.901717">
        <ele>616.211</ele>
        <time>1999-07-25T09:43:07Z</time>
      </trkpt>
      <trkpt lat="43.212114" lon="-6.901965">
        <ele>615.892</ele>
        <time>1999-07-25T09:43:10Z</time>
      </trkpt>
      <trkpt lat="43.212071" lon="-6.902315">
        <ele>615.447</ele>
        <time>1999-07-25T09:43:14Z</time>
      </trkpt>
      <trkpt lat="43.212033" lon="-6.902655">
        <ele>615.297</ele>
        <time>1999-07-25T09:43:18Z</time>
      </trkpt>
      <trkpt lat="43.211910" lon="-6.903146">
        <ele>615.294</ele>
        <time>1999-07-25T09:43:24Z</time>
      </trkpt>
      <trkpt lat="43.211770" lon="-6.903427">
        <ele>615.221</ele>
        <time>1999-07-25T09:43:28Z</time>
      </trkpt>
      <trkpt lat="43.211730" lon="-6.903487">
        <ele>615.269</ele>
        <time>1999-07-25T09:43:29Z</time>
      </trkpt>
      <trkpt lat="43.211591" lon="-6.903745">
        <ele>615.046</ele>
        <time>1999-07-25T09:43:33Z</time>
      </trkpt>
      <trkpt lat="43.211481" lon="-6.903948">
        <ele>615.088</ele>
        <time>1999-07-25T09:43:36Z</time>
      </trkpt>
      <trkpt lat="43.211450" lon="-6.904021">
        <ele>615.016</ele>
        <time>1999-07-25T09:43:37Z</time>
      </trkpt>
      <trkpt lat="43.211422" lon="-6.904095">
        <ele>614.808</ele>
        <time>1999-07-25T09:43:38Z</time>
      </trkpt>
      <trkpt lat="43.211340" lon="-6.904304">
        <ele>614.427</ele>
        <time>1999-07-25T09:43:41Z</time>
      </trkpt>
      <trkpt lat="43.211317" lon="-6.904369">
        <ele>614.273</ele>
        <time>1999-07-25T09:43:42Z</time>
      </trkpt>
      <trkpt lat="43.211271" lon="-6.904489">
        <ele>613.624</ele>
        <time>1999-07-25T09:43:44Z</time>
      </trkpt>
      <trkpt lat="43.211206" lon="-6.904612">
        <ele>613.279</ele>
        <time>1999-07-25T09:43:46Z</time>
      </trkpt>
      <trkpt lat="43.211099" lon="-6.904832">
        <ele>612.899</ele>
        <time>1999-07-25T09:43:49Z</time>
      </trkpt>
      <trkpt lat="43.211023" lon="-6.904992">
        <ele>612.646</ele>
        <time>1999-07-25T09:43:51Z</time>
      </trkpt>
      <trkpt lat="43.210984" lon="-6.905075">
        <ele>612.273</ele>
        <time>1999-07-25T09:43:52Z</time>
      </trkpt>
      <trkpt lat="43.210787" lon="-6.905493">
        <ele>611.271</ele>
        <time>1999-07-25T09:43:57Z</time>
      </trkpt>
      <trkpt lat="43.210653" lon="-6.905791">
        <ele>610.058</ele>
        <time>1999-07-25T09:44:01Z</time>
      </trkpt>
      <trkpt lat="43.210603" lon="-6.905942">
        <ele>609.452</ele>
        <time>1999-07-25T09:44:03Z</time>
      </trkpt>
      <trkpt lat="43.210581" lon="-6.906111">
        <ele>609.217</ele>
        <time>1999-07-25T09:44:05Z</time>
      </trkpt>
      <trkpt lat="43.210578" lon="-6.906288">
        <ele>609.008</ele>
        <time>1999-07-25T09:44:07Z</time>
      </trkpt>
      <trkpt lat="43.210580" lon="-6.906376">
        <ele>609.028</ele>
        <time>1999-07-25T09:44:08Z</time>
      </trkpt>
      <trkpt lat="43.210587" lon="-6.906460">
        <ele>609.024</ele>
        <time>1999-07-25T09:44:09Z</time>
      </trkpt>
      <trkpt lat="43.210627" lon="-6.906620">
        <ele>608.835</ele>
        <time>1999-07-25T09:44:11Z</time>
      </trkpt>
      <trkpt lat="43.210722" lon="-6.906830">
        <ele>608.650</ele>
        <time>1999-07-25T09:44:14Z</time>
      </trkpt>
      <trkpt lat="43.210791" lon="-6.906960">
        <ele>608.450</ele>
        <time>1999-07-25T09:44:16Z</time>
      </trkpt>
      <trkpt lat="43.210988" lon="-6.907344">
        <ele>608.267</ele>
        <time>1999-07-25T09:44:22Z</time>
      </trkpt>
      <trkpt lat="43.211048" lon="-6.907474">
        <ele>608.294</ele>
        <time>1999-07-25T09:44:24Z</time>
      </trkpt>
      <trkpt lat="43.211135" lon="-6.907661">
        <ele>608.232</ele>
        <time>1999-07-25T09:44:27Z</time>
      </trkpt>
      <trkpt lat="43.211249" lon="-6.907891">
        <ele>608.461</ele>
        <time>1999-07-25T09:44:31Z</time>
      </trkpt>
      <trkpt lat="43.211333" lon="-6.908050">
        <ele>608.421</ele>
        <time>1999-07-25T09:44:34Z</time>
      </trkpt>
      <trkpt lat="43.211343" lon="-6.908150">
        <ele>608.413</ele>
        <time>1999-07-25T09:44:36Z</time>
      </trkpt>
      <trkpt lat="43.211313" lon="-6.908256">
        <ele>608.408</ele>
        <time>1999-07-25T09:44:38Z</time>
      </trkpt>
      <trkpt lat="43.211270" lon="-6.908421">
        <ele>608.469</ele>
        <time>1999-07-25T09:44:41Z</time>
      </trkpt>
      <trkpt lat="43.211158" lon="-6.908845">
        <ele>608.445</ele>
        <time>1999-07-25T09:44:49Z</time>
      </trkpt>
      <trkpt lat="43.211136" lon="-6.908943">
        <ele>608.496</ele>
        <time>1999-07-25T09:44:51Z</time>
      </trkpt>
      <trkpt lat="43.211034" lon="-6.909301">
        <ele>608.861</ele>
        <time>1999-07-25T09:44:58Z</time>
      </trkpt>
      <trkpt lat="43.210889" lon="-6.909852">
        <ele>609.261</ele>
        <time>1999-07-25T09:45:08Z</time>
      </trkpt>
      <trkpt lat="43.210777" lon="-6.910280">
        <ele>609.658</ele>
        <time>1999-07-25T09:45:16Z</time>
      </trkpt>
      <trkpt lat="43.210697" lon="-6.910556">
        <ele>610.075</ele>
        <time>1999-07-25T09:45:22Z</time>
      </trkpt>
      <trkpt lat="43.210662" lon="-6.910646">
        <ele>610.293</ele>
        <time>1999-07-25T09:45:24Z</time>
      </trkpt>
      <trkpt lat="43.210592" lon="-6.910945">
        <ele>610.615</ele>
        <time>1999-07-25T09:45:30Z</time>
      </trkpt>
      <trkpt lat="43.210504" lon="-6.911160">
        <ele>610.865</ele>
        <time>1999-07-25T09:45:35Z</time>
      </trkpt>
      <trkpt lat="43.210433" lon="-6.911348">
        <ele>611.211</ele>
        <time>1999-07-25T09:45:39Z</time>
      </trkpt>
      <trkpt lat="43.210422" lon="-6.911404">
        <ele>611.208</ele>
        <time>1999-07-25T09:45:40Z</time>
      </trkpt>
      <trkpt lat="43.210405" lon="-6.911458">
        <ele>611.494</ele>
        <time>1999-07-25T09:45:41Z</time>
      </trkpt>
      <trkpt lat="43.210333" lon="-6.911624">
        <ele>611.660</ele>
        <time>1999-07-25T09:45:44Z</time>
      </trkpt>
      <trkpt lat="43.210199" lon="-6.911921">
        <ele>611.861</ele>
        <time>1999-07-25T09:45:50Z</time>
      </trkpt>
      <trkpt lat="43.210099" lon="-6.911882">
        <ele>611.896</ele>
        <time>1999-07-25T09:45:53Z</time>
      </trkpt>
      <trkpt lat="43.210007" lon="-6.911836">
        <ele>611.866</ele>
        <time>1999-07-25T09:45:55Z</time>
      </trkpt>
      <trkpt lat="43.209851" lon="-6.911783">
        <ele>611.833</ele>
        <time>1999-07-25T09:45:58Z</time>
      </trkpt>
      <trkpt lat="43.209795" lon="-6.911768">
        <ele>611.890</ele>
        <time>1999-07-25T09:45:59Z</time>
      </trkpt>
      <trkpt lat="43.209512" lon="-6.911734">
        <ele>611.888</ele>
        <time>1999-07-25T09:46:04Z</time>
      </trkpt>
      <trkpt lat="43.209294" lon="-6.911724">
        <ele>611.614</ele>
        <time>1999-07-25T09:46:08Z</time>
      </trkpt>
      <trkpt lat="43.209243" lon="-6.911734">
        <ele>611.654</ele>
        <time>1999-07-25T09:46:09Z</time>
      </trkpt>
      <trkpt lat="43.209195" lon="-6.911757">
        <ele>611.409</ele>
        <time>1999-07-25T09:46:10Z</time>
      </trkpt>
      <trkpt lat="43.209032" lon="-6.911872">
        <ele>610.808</ele>
        <time>1999-07-25T09:46:14Z</time>
      </trkpt>
      <trkpt lat="43.208957" lon="-6.911932">
        <ele>610.644</ele>
        <time>1999-07-25T09:46:16Z</time>
      </trkpt>
      <trkpt lat="43.208878" lon="-6.912006">
        <ele>610.610</ele>
        <time>1999-07-25T09:46:18Z</time>
      </trkpt>
      <trkpt lat="43.208776" lon="-6.912147">
        <ele>610.491</ele>
        <time>1999-07-25T09:46:21Z</time>
      </trkpt>
      <trkpt lat="43.208714" lon="-6.912248">
        <ele>610.486</ele>
        <time>1999-07-25T09:46:23Z</time>
      </trkpt>
      <trkpt lat="43.208626" lon="-6.912436">
        <ele>610.666</ele>
        <time>1999-07-25T09:46:27Z</time>
      </trkpt>
      <trkpt lat="43.208454" lon="-6.912781">
        <ele>611.043</ele>
        <time>1999-07-25T09:46:34Z</time>
      </trkpt>
      <trkpt lat="43.208253" lon="-6.913045">
        <ele>611.420</ele>
        <time>1999-07-25T09:46:39Z</time>
      </trkpt>
      <trkpt lat="43.208179" lon="-6.913129">
        <ele>611.688</ele>
        <time>1999-07-25T09:46:41Z</time>
      </trkpt>
      <trkpt lat="43.208049" lon="-6.913308">
        <ele>612.078</ele>
        <time>1999-07-25T09:46:45Z</time>
      </trkpt>
      <trkpt lat="43.207977" lon="-6.913451">
        <ele>612.633</ele>
        <time>1999-07-25T09:46:48Z</time>
      </trkpt>
      <trkpt lat="43.207840" lon="-6.913729">
        <ele>613.026</ele>
        <time>1999-07-25T09:46:54Z</time>
      </trkpt>
      <trkpt lat="43.207821" lon="-6.913771">
        <ele>613.208</ele>
        <time>1999-07-25T09:46:55Z</time>
      </trkpt>
      <trkpt lat="43.207742" lon="-6.913973">
        <ele>614.260</ele>
        <time>1999-07-25T09:47:00Z</time>
      </trkpt>
      <trkpt lat="43.207713" lon="-6.914044">
        <ele>614.416</ele>
        <time>1999-07-25T09:47:02Z</time>
      </trkpt>
      <trkpt lat="43.207610" lon="-6.914251">
        <ele>615.097</ele>
        <time>1999-07-25T09:47:08Z</time>
      </trkpt>
      <trkpt lat="43.207595" lon="-6.914281">
        <ele>615.232</ele>
        <time>1999-07-25T09:47:09Z</time>
      </trkpt>
      <trkpt lat="43.207503" lon="-6.914496">
        <ele>616.232</ele>
        <time>1999-07-25T09:47:15Z</time>
      </trkpt>
      <trkpt lat="43.207355" lon="-6.914788">
        <ele>617.259</ele>
        <time>1999-07-25T09:47:22Z</time>
      </trkpt>
      <trkpt lat="43.207166" lon="-6.915047">
        <ele>618.246</ele>
        <time>1999-07-25T09:47:29Z</time>
      </trkpt>
      <trkpt lat="43.207140" lon="-6.915074">
        <ele>618.464</ele>
        <time>1999-07-25T09:47:30Z</time>
      </trkpt>
      <trkpt lat="43.206992" lon="-6.915298">
        <ele>619.271</ele>
        <time>1999-07-25T09:47:37Z</time>
      </trkpt>
      <trkpt lat="43.206950" lon="-6.915365">
        <ele>619.441</ele>
        <time>1999-07-25T09:47:39Z</time>
      </trkpt>
      <trkpt lat="43.206876" lon="-6.915523">
        <ele>619.815</ele>
        <time>1999-07-25T09:47:43Z</time>
      </trkpt>
      <trkpt lat="43.206737" lon="-6.915794">
        <ele>620.008</ele>
        <time>1999-07-25T09:47:49Z</time>
      </trkpt>
      <trkpt lat="43.206665" lon="-6.915964">
        <ele>620.040</ele>
        <time>1999-07-25T09:47:52Z</time>
      </trkpt>
      <trkpt lat="43.206560" lon="-6.916147">
        <ele>619.896</ele>
        <time>1999-07-25T09:47:55Z</time>
      </trkpt>
      <trkpt lat="43.206281" lon="-6.916612">
        <ele>619.827</ele>
        <time>1999-07-25T09:48:03Z</time>
      </trkpt>
      <trkpt lat="43.206059" lon="-6.916851">
        <ele>620.432</ele>
        <time>1999-07-25T09:48:09Z</time>
      </trkpt>
      <trkpt lat="43.205867" lon="-6.917051">
        <ele>620.472</ele>
        <time>1999-07-25T09:48:14Z</time>
      </trkpt>
      <trkpt lat="43.205798" lon="-6.917132">
        <ele>620.469</ele>
        <time>1999-07-25T09:48:16Z</time>
      </trkpt>
      <trkpt lat="43.205619" lon="-6.917388">
        <ele>620.696</ele>
        <time>1999-07-25T09:48:22Z</time>
      </trkpt>
      <trkpt lat="43.205364" lon="-6.917688">
        <ele>620.864</ele>
        <time>1999-07-25T09:48:29Z</time>
      </trkpt>
      <trkpt lat="43.205238" lon="-6.917838">
        <ele>620.834</ele>
        <time>1999-07-25T09:48:32Z</time>
      </trkpt>
      <trkpt lat="43.205102" lon="-6.917974">
        <ele>621.055</ele>
        <time>1999-07-25T09:48:35Z</time>
      </trkpt>
      <trkpt lat="43.204811" lon="-6.918192">
        <ele>621.010</ele>
        <time>1999-07-25T09:48:41Z</time>
      </trkpt>
      <trkpt lat="43.204760" lon="-6.918221">
        <ele>621.008</ele>
        <time>1999-07-25T09:48:42Z</time>
      </trkpt>
      <trkpt lat="43.204567" lon="-6.918325">
        <ele>621.066</ele>
        <time>1999-07-25T09:48:46Z</time>
      </trkpt>
      <trkpt lat="43.204284" lon="-6.918486">
        <ele>621.042</ele>
        <time>1999-07-25T09:48:52Z</time>
      </trkpt>
      <trkpt lat="43.204040" lon="-6.918561">
        <ele>621.243</ele>
        <time>1999-07-25T09:48:58Z</time>
      </trkpt>
      <trkpt lat="43.203962" lon="-6.918587">
        <ele>621.278</ele>
        <time>1999-07-25T09:49:00Z</time>
      </trkpt>
      <trkpt lat="43.203839" lon="-6.918602">
        <ele>621.658</ele>
        <time>1999-07-25T09:49:03Z</time>
      </trkpt>
      <trkpt lat="43.203663" lon="-6.918641">
        <ele>622.225</ele>
        <time>1999-07-25T09:49:07Z</time>
      </trkpt>
      <trkpt lat="43.203615" lon="-6.918655">
        <ele>622.212</ele>
        <time>1999-07-25T09:49:08Z</time>
      </trkpt>
      <trkpt lat="43.203563" lon="-6.918670">
        <ele>622.490</ele>
        <time>1999-07-25T09:49:09Z</time>
      </trkpt>
      <trkpt lat="43.203505" lon="-6.918673">
        <ele>622.496</ele>
        <time>1999-07-25T09:49:10Z</time>
      </trkpt>
      <trkpt lat="43.203268" lon="-6.918684">
        <ele>623.031</ele>
        <time>1999-07-25T09:49:14Z</time>
      </trkpt>
      <trkpt lat="43.203054" lon="-6.918706">
        <ele>623.424</ele>
        <time>1999-07-25T09:49:18Z</time>
      </trkpt>
      <trkpt lat="43.202966" lon="-6.918724">
        <ele>623.408</ele>
        <time>1999-07-25T09:49:20Z</time>
      </trkpt>
      <trkpt lat="43.202706" lon="-6.918800">
        <ele>624.412</ele>
        <time>1999-07-25T09:49:25Z</time>
      </trkpt>
      <trkpt lat="43.202304" lon="-6.918966">
        <ele>625.028</ele>
        <time>1999-07-25T09:49:33Z</time>
      </trkpt>
      <trkpt lat="43.202146" lon="-6.919140">
        <ele>625.249</ele>
        <time>1999-07-25T09:49:38Z</time>
      </trkpt>
      <trkpt lat="43.202115" lon="-6.919169">
        <ele>625.424</ele>
        <time>1999-07-25T09:49:39Z</time>
      </trkpt>
      <trkpt lat="43.201961" lon="-6.919394">
        <ele>626.444</ele>
        <time>1999-07-25T09:49:45Z</time>
      </trkpt>
      <trkpt lat="43.201912" lon="-6.919457">
        <ele>626.891</ele>
        <time>1999-07-25T09:49:47Z</time>
      </trkpt>
      <trkpt lat="43.201758" lon="-6.919667">
        <ele>627.428</ele>
        <time>1999-07-25T09:49:54Z</time>
      </trkpt>
      <trkpt lat="43.201738" lon="-6.919698">
        <ele>627.466</ele>
        <time>1999-07-25T09:49:55Z</time>
      </trkpt>
      <trkpt lat="43.201603" lon="-6.919870">
        <ele>628.466</ele>
        <time>1999-07-25T09:50:01Z</time>
      </trkpt>
      <trkpt lat="43.201544" lon="-6.919964">
        <ele>629.029</ele>
        <time>1999-07-25T09:50:04Z</time>
      </trkpt>
      <trkpt lat="43.201508" lon="-6.920025">
        <ele>629.621</ele>
        <time>1999-07-25T09:50:06Z</time>
      </trkpt>
      <trkpt lat="43.201405" lon="-6.920180">
        <ele>630.608</ele>
        <time>1999-07-25T09:50:11Z</time>
      </trkpt>
      <trkpt lat="43.201296" lon="-6.920376">
        <ele>631.849</ele>
        <time>1999-07-25T09:50:17Z</time>
      </trkpt>
      <trkpt lat="43.201234" lon="-6.920458">
        <ele>632.425</ele>
        <time>1999-07-25T09:50:20Z</time>
      </trkpt>
      <trkpt lat="43.201160" lon="-6.920576">
        <ele>632.626</ele>
        <time>1999-07-25T09:50:24Z</time>
      </trkpt>
      <trkpt lat="43.201098" lon="-6.920654">
        <ele>632.891</ele>
        <time>1999-07-25T09:50:27Z</time>
      </trkpt>
      <trkpt lat="43.200938" lon="-6.920864">
        <ele>633.871</ele>
        <time>1999-07-25T09:50:35Z</time>
      </trkpt>
      <trkpt lat="43.200917" lon="-6.920888">
        <ele>634.028</ele>
        <time>1999-07-25T09:50:36Z</time>
      </trkpt>
      <trkpt lat="43.200805" lon="-6.921039">
        <ele>635.015</ele>
        <time>1999-07-25T09:50:42Z</time>
      </trkpt>
      <trkpt lat="43.200708" lon="-6.921140">
        <ele>636.093</ele>
        <time>1999-07-25T09:50:47Z</time>
      </trkpt>
      <trkpt lat="43.200693" lon="-6.921160">
        <ele>636.668</ele>
        <time>1999-07-25T09:50:48Z</time>
      </trkpt>
      <trkpt lat="43.200648" lon="-6.921214">
        <ele>637.442</ele>
        <time>1999-07-25T09:50:51Z</time>
      </trkpt>
      <trkpt lat="43.200603" lon="-6.921261">
        <ele>638.226</ele>
        <time>1999-07-25T09:50:54Z</time>
      </trkpt>
      <trkpt lat="43.200599" lon="-6.921287">
        <ele>638.608</ele>
        <time>1999-07-25T09:50:55Z</time>
      </trkpt>
      <trkpt lat="43.200564" lon="-6.921337">
        <ele>639.499</ele>
        <time>1999-07-25T09:50:58Z</time>
      </trkpt>
      <trkpt lat="43.200547" lon="-6.921343">
        <ele>639.625</ele>
        <time>1999-07-25T09:50:59Z</time>
      </trkpt>
      <trkpt lat="43.200508" lon="-6.921382">
        <ele>640.666</ele>
        <time>1999-07-25T09:51:02Z</time>
      </trkpt>
      <trkpt lat="43.200499" lon="-6.921422">
        <ele>641.211</ele>
        <time>1999-07-25T09:51:04Z</time>
      </trkpt>
      <trkpt lat="43.200487" lon="-6.921461">
        <ele>641.871</ele>
        <time>1999-07-25T09:51:06Z</time>
      </trkpt>
      <trkpt lat="43.200441" lon="-6.921490">
        <ele>642.888</ele>
        <time>1999-07-25T09:51:09Z</time>
      </trkpt>
      <trkpt lat="43.200392" lon="-6.921527">
        <ele>643.825</ele>
        <time>1999-07-25T09:51:12Z</time>
      </trkpt>
      <trkpt lat="43.200377" lon="-6.921540">
        <ele>643.843</ele>
        <time>1999-07-25T09:51:13Z</time>
      </trkpt>
      <trkpt lat="43.200339" lon="-6.921562">
        <ele>644.254</ele>
        <time>1999-07-25T09:51:16Z</time>
      </trkpt>
      <trkpt lat="43.200335" lon="-6.921565">
        <ele>644.656</ele>
        <time>1999-07-25T09:51:18Z</time>
      </trkpt>
      <trkpt lat="43.200291" lon="-6.921652">
        <ele>645.011</ele>
        <time>1999-07-25T09:51:36Z</time>
      </trkpt>
      <trkpt lat="43.200276" lon="-6.921665">
        <ele>645.008</ele>
        <time>1999-07-25T09:51:37Z</time>
      </trkpt>
      <trkpt lat="43.200256" lon="-6.921676">
        <ele>645.098</ele>
        <time>1999-07-25T09:51:38Z</time>
      </trkpt>
      <trkpt lat="43.200141" lon="-6.921692">
        <ele>645.094</ele>
        <time>1999-07-25T09:51:42Z</time>
      </trkpt>
      <trkpt lat="43.200106" lon="-6.921698">
        <ele>645.025</ele>
        <time>1999-07-25T09:51:43Z</time>
      </trkpt>
      <trkpt lat="43.199953" lon="-6.921720">
        <ele>645.050</ele>
        <time>1999-07-25T09:51:47Z</time>
      </trkpt>
      <trkpt lat="43.199873" lon="-6.921727">
        <ele>645.080</ele>
        <time>1999-07-25T09:51:49Z</time>
      </trkpt>
      <trkpt lat="43.199789" lon="-6.921732">
        <ele>644.877</ele>
        <time>1999-07-25T09:51:51Z</time>
      </trkpt>
      <trkpt lat="43.199655" lon="-6.921755">
        <ele>644.854</ele>
        <time>1999-07-25T09:51:54Z</time>
      </trkpt>
      <trkpt lat="43.199505" lon="-6.921809">
        <ele>644.842</ele>
        <time>1999-07-25T09:51:57Z</time>
      </trkpt>
      <trkpt lat="43.199401" lon="-6.921861">
        <ele>644.659</ele>
        <time>1999-07-25T09:51:59Z</time>
      </trkpt>
      <trkpt lat="43.199299" lon="-6.921917">
        <ele>644.603</ele>
        <time>1999-07-25T09:52:01Z</time>
      </trkpt>
      <trkpt lat="43.199178" lon="-6.922004">
        <ele>644.623</ele>
        <time>1999-07-25T09:52:04Z</time>
      </trkpt>
      <trkpt lat="43.199011" lon="-6.922114">
        <ele>644.208</ele>
        <time>1999-07-25T09:52:08Z</time>
      </trkpt>
      <trkpt lat="43.198946" lon="-6.922184">
        <ele>644.238</ele>
        <time>1999-07-25T09:52:10Z</time>
      </trkpt>
      <trkpt lat="43.198916" lon="-6.922225">
        <ele>644.274</ele>
        <time>1999-07-25T09:52:11Z</time>
      </trkpt>
      <trkpt lat="43.198864" lon="-6.922308">
        <ele>644.295</ele>
        <time>1999-07-25T09:52:13Z</time>
      </trkpt>
      <trkpt lat="43.198784" lon="-6.922416">
        <ele>644.260</ele>
        <time>1999-07-25T09:52:16Z</time>
      </trkpt>
      <trkpt lat="43.198688" lon="-6.922489">
        <ele>644.480</ele>
        <time>1999-07-25T09:52:19Z</time>
      </trkpt>
      <trkpt lat="43.198592" lon="-6.922551">
        <ele>644.817</ele>
        <time>1999-07-25T09:52:22Z</time>
      </trkpt>
      <trkpt lat="43.198390" lon="-6.922620">
        <ele>645.854</ele>
        <time>1999-07-25T09:52:28Z</time>
      </trkpt>
      <trkpt lat="43.198312" lon="-6.922607">
        <ele>646.212</ele>
        <time>1999-07-25T09:52:30Z</time>
      </trkpt>
      <trkpt lat="43.198183" lon="-6.922577">
        <ele>646.425</ele>
        <time>1999-07-25T09:52:33Z</time>
      </trkpt>
      <trkpt lat="43.198009" lon="-6.922654">
        <ele>646.626</ele>
        <time>1999-07-25T09:52:37Z</time>
      </trkpt>
      <trkpt lat="43.197967" lon="-6.922689">
        <ele>646.608</ele>
        <time>1999-07-25T09:52:38Z</time>
      </trkpt>
      <trkpt lat="43.197643" lon="-6.922964">
        <ele>646.008</ele>
        <time>1999-07-25T09:52:46Z</time>
      </trkpt>
      <trkpt lat="43.197445" lon="-6.923100">
        <ele>646.025</ele>
        <time>1999-07-25T09:52:51Z</time>
      </trkpt>
      <trkpt lat="43.197366" lon="-6.923113">
        <ele>646.251</ele>
        <time>1999-07-25T09:52:53Z</time>
      </trkpt>
      <trkpt lat="43.197165" lon="-6.923086">
        <ele>646.812</ele>
        <time>1999-07-25T09:52:58Z</time>
      </trkpt>
      <trkpt lat="43.197058" lon="-6.923085">
        <ele>647.047</ele>
        <time>1999-07-25T09:53:01Z</time>
      </trkpt>
      <trkpt lat="43.197027" lon="-6.923087">
        <ele>647.027</ele>
        <time>1999-07-25T09:53:02Z</time>
      </trkpt>
      <trkpt lat="43.196956" lon="-6.923087">
        <ele>647.464</ele>
        <time>1999-07-25T09:53:04Z</time>
      </trkpt>
      <trkpt lat="43.196684" lon="-6.923076">
        <ele>648.041</ele>
        <time>1999-07-25T09:53:11Z</time>
      </trkpt>
      <trkpt lat="43.196641" lon="-6.923075">
        <ele>648.039</ele>
        <time>1999-07-25T09:53:12Z</time>
      </trkpt>
      <trkpt lat="43.196597" lon="-6.923076">
        <ele>648.271</ele>
        <time>1999-07-25T09:53:13Z</time>
      </trkpt>
      <trkpt lat="43.196327" lon="-6.923026">
        <ele>649.041</ele>
        <time>1999-07-25T09:53:19Z</time>
      </trkpt>
      <trkpt lat="43.196280" lon="-6.923005">
        <ele>649.215</ele>
        <time>1999-07-25T09:53:20Z</time>
      </trkpt>
      <trkpt lat="43.196117" lon="-6.922886">
        <ele>649.408</ele>
        <time>1999-07-25T09:53:24Z</time>
      </trkpt>
      <trkpt lat="43.195971" lon="-6.922775">
        <ele>649.840</ele>
        <time>1999-07-25T09:53:29Z</time>
      </trkpt>
      <trkpt lat="43.195850" lon="-6.922715">
        <ele>650.236</ele>
        <time>1999-07-25T09:53:34Z</time>
      </trkpt>
      <trkpt lat="43.195823" lon="-6.922703">
        <ele>650.237</ele>
        <time>1999-07-25T09:53:35Z</time>
      </trkpt>
      <trkpt lat="43.195754" lon="-6.922666">
        <ele>650.642</ele>
        <time>1999-07-25T09:53:38Z</time>
      </trkpt>
      <trkpt lat="43.195717" lon="-6.922623">
        <ele>651.072</ele>
        <time>1999-07-25T09:53:40Z</time>
      </trkpt>
      <trkpt lat="43.195697" lon="-6.922604">
        <ele>651.439</ele>
        <time>1999-07-25T09:53:41Z</time>
      </trkpt>
      <trkpt lat="43.195592" lon="-6.922544">
        <ele>652.696</ele>
        <time>1999-07-25T09:53:46Z</time>
      </trkpt>
      <trkpt lat="43.195572" lon="-6.922531">
        <ele>652.824</ele>
        <time>1999-07-25T09:53:47Z</time>
      </trkpt>
      <trkpt lat="43.195498" lon="-6.922482">
        <ele>653.662</ele>
        <time>1999-07-25T09:53:51Z</time>
      </trkpt>
      <trkpt lat="43.195412" lon="-6.922422">
        <ele>654.883</ele>
        <time>1999-07-25T09:53:55Z</time>
      </trkpt>
      <trkpt lat="43.195293" lon="-6.922391">
        <ele>655.411</ele>
        <time>1999-07-25T09:54:01Z</time>
      </trkpt>
      <trkpt lat="43.195257" lon="-6.922362">
        <ele>655.808</ele>
        <time>1999-07-25T09:54:03Z</time>
      </trkpt>
      <trkpt lat="43.195148" lon="-6.922307">
        <ele>656.839</ele>
        <time>1999-07-25T09:54:09Z</time>
      </trkpt>
      <trkpt lat="43.195031" lon="-6.922264">
        <ele>658.055</ele>
        <time>1999-07-25T09:54:15Z</time>
      </trkpt>
      <trkpt lat="43.195016" lon="-6.922258">
        <ele>658.276</ele>
        <time>1999-07-25T09:54:16Z</time>
      </trkpt>
      <trkpt lat="43.194939" lon="-6.922238">
        <ele>658.851</ele>
        <time>1999-07-25T09:54:20Z</time>
      </trkpt>
      <trkpt lat="43.194906" lon="-6.922233">
        <ele>659.081</ele>
        <time>1999-07-25T09:54:22Z</time>
      </trkpt>
      <trkpt lat="43.194888" lon="-6.922222">
        <ele>659.218</ele>
        <time>1999-07-25T09:54:23Z</time>
      </trkpt>
      <trkpt lat="43.194744" lon="-6.922198">
        <ele>660.215</ele>
        <time>1999-07-25T09:54:30Z</time>
      </trkpt>
      <trkpt lat="43.194717" lon="-6.922191">
        <ele>660.483</ele>
        <time>1999-07-25T09:54:31Z</time>
      </trkpt>
      <trkpt lat="43.194526" lon="-6.922168">
        <ele>661.243</ele>
        <time>1999-07-25T09:54:38Z</time>
      </trkpt>
      <trkpt lat="43.194371" lon="-6.922157">
        <ele>661.864</ele>
        <time>1999-07-25T09:54:45Z</time>
      </trkpt>
      <trkpt lat="43.194233" lon="-6.922159">
        <ele>662.210</ele>
        <time>1999-07-25T09:54:49Z</time>
      </trkpt>
      <trkpt lat="43.194124" lon="-6.922174">
        <ele>662.408</ele>
        <time>1999-07-25T09:54:52Z</time>
      </trkpt>
      <trkpt lat="43.194035" lon="-6.922198">
        <ele>663.257</ele>
        <time>1999-07-25T09:54:55Z</time>
      </trkpt>
      <trkpt lat="43.193925" lon="-6.922248">
        <ele>663.893</ele>
        <time>1999-07-25T09:54:59Z</time>
      </trkpt>
      <trkpt lat="43.193761" lon="-6.922303">
        <ele>664.254</ele>
        <time>1999-07-25T09:55:06Z</time>
      </trkpt>
      <trkpt lat="43.193736" lon="-6.922306">
        <ele>664.499</ele>
        <time>1999-07-25T09:55:07Z</time>
      </trkpt>
      <trkpt lat="43.193567" lon="-6.922343">
        <ele>665.269</ele>
        <time>1999-07-25T09:55:14Z</time>
      </trkpt>
      <trkpt lat="43.193539" lon="-6.922341">
        <ele>665.486</ele>
        <time>1999-07-25T09:55:15Z</time>
      </trkpt>
      <trkpt lat="43.193416" lon="-6.922353">
        <ele>665.893</ele>
        <time>1999-07-25T09:55:20Z</time>
      </trkpt>
      <trkpt lat="43.193309" lon="-6.922389">
        <ele>666.491</ele>
        <time>1999-07-25T09:55:24Z</time>
      </trkpt>
      <trkpt lat="43.193268" lon="-6.922403">
        <ele>666.615</ele>
        <time>1999-07-25T09:55:26Z</time>
      </trkpt>
      <trkpt lat="43.193164" lon="-6.922422">
        <ele>667.265</ele>
        <time>1999-07-25T09:55:30Z</time>
      </trkpt>
      <trkpt lat="43.193113" lon="-6.922416">
        <ele>667.611</ele>
        <time>1999-07-25T09:55:32Z</time>
      </trkpt>
      <trkpt lat="43.192949" lon="-6.922383">
        <ele>668.408</ele>
        <time>1999-07-25T09:55:38Z</time>
      </trkpt>
      <trkpt lat="43.192922" lon="-6.922381">
        <ele>668.494</ele>
        <time>1999-07-25T09:55:39Z</time>
      </trkpt>
      <trkpt lat="43.192771" lon="-6.922371">
        <ele>669.650</ele>
        <time>1999-07-25T09:55:45Z</time>
      </trkpt>
      <trkpt lat="43.192752" lon="-6.922370">
        <ele>669.631</ele>
        <time>1999-07-25T09:55:46Z</time>
      </trkpt>
      <trkpt lat="43.192621" lon="-6.922372">
        <ele>670.426</ele>
        <time>1999-07-25T09:55:51Z</time>
      </trkpt>
      <trkpt lat="43.192583" lon="-6.922374">
        <ele>670.646</ele>
        <time>1999-07-25T09:55:52Z</time>
      </trkpt>
      <trkpt lat="43.192434" lon="-6.922387">
        <ele>671.493</ele>
        <time>1999-07-25T09:55:56Z</time>
      </trkpt>
      <trkpt lat="43.192328" lon="-6.922396">
        <ele>671.870</ele>
        <time>1999-07-25T09:55:59Z</time>
      </trkpt>
      <trkpt lat="43.192191" lon="-6.922411">
        <ele>672.448</ele>
        <time>1999-07-25T09:56:03Z</time>
      </trkpt>
      <trkpt lat="43.192045" lon="-6.922427">
        <ele>673.026</ele>
        <time>1999-07-25T09:56:07Z</time>
      </trkpt>
      <trkpt lat="43.191911" lon="-6.922431">
        <ele>673.647</ele>
        <time>1999-07-25T09:56:12Z</time>
      </trkpt>
      <trkpt lat="43.191754" lon="-6.922453">
        <ele>674.011</ele>
        <time>1999-07-25T09:56:17Z</time>
      </trkpt>
      <trkpt lat="43.191633" lon="-6.922467">
        <ele>674.808</ele>
        <time>1999-07-25T09:56:21Z</time>
      </trkpt>
      <trkpt lat="43.191430" lon="-6.922501">
        <ele>675.415</ele>
        <time>1999-07-25T09:56:28Z</time>
      </trkpt>
      <trkpt lat="43.191319" lon="-6.922539">
        <ele>675.811</ele>
        <time>1999-07-25T09:56:32Z</time>
      </trkpt>
      <trkpt lat="43.191207" lon="-6.922608">
        <ele>676.292</ele>
        <time>1999-07-25T09:56:36Z</time>
      </trkpt>
      <trkpt lat="43.191106" lon="-6.922664">
        <ele>676.897</ele>
        <time>1999-07-25T09:56:40Z</time>
      </trkpt>
      <trkpt lat="43.191038" lon="-6.922686">
        <ele>677.027</ele>
        <time>1999-07-25T09:56:43Z</time>
      </trkpt>
      <trkpt lat="43.190951" lon="-6.922702">
        <ele>677.834</ele>
        <time>1999-07-25T09:56:47Z</time>
      </trkpt>
      <trkpt lat="43.190888" lon="-6.922730">
        <ele>678.451</ele>
        <time>1999-07-25T09:56:50Z</time>
      </trkpt>
      <trkpt lat="43.190841" lon="-6.922749">
        <ele>679.419</ele>
        <time>1999-07-25T09:56:52Z</time>
      </trkpt>
      <trkpt lat="43.190820" lon="-6.922759">
        <ele>679.649</ele>
        <time>1999-07-25T09:56:53Z</time>
      </trkpt>
      <trkpt lat="43.190765" lon="-6.922771">
        <ele>680.402</ele>
        <time>1999-07-25T09:56:56Z</time>
      </trkpt>
      <trkpt lat="43.190638" lon="-6.922809">
        <ele>681.422</ele>
        <time>1999-07-25T09:57:02Z</time>
      </trkpt>
      <trkpt lat="43.190436" lon="-6.922890">
        <ele>681.808</ele>
        <time>1999-07-25T09:57:08Z</time>
      </trkpt>
      <trkpt lat="43.190295" lon="-6.922968">
        <ele>681.827</ele>
        <time>1999-07-25T09:57:12Z</time>
      </trkpt>
      <trkpt lat="43.190187" lon="-6.923039">
        <ele>681.873</ele>
        <time>1999-07-25T09:57:15Z</time>
      </trkpt>
      <trkpt lat="43.190024" lon="-6.923113">
        <ele>682.614</ele>
        <time>1999-07-25T09:57:20Z</time>
      </trkpt>
      <trkpt lat="43.189870" lon="-6.923126">
        <ele>683.069</ele>
        <time>1999-07-25T09:57:25Z</time>
      </trkpt>
      <trkpt lat="43.189839" lon="-6.923127">
        <ele>683.279</ele>
        <time>1999-07-25T09:57:26Z</time>
      </trkpt>
      <trkpt lat="43.189807" lon="-6.923126">
        <ele>683.456</ele>
        <time>1999-07-25T09:57:27Z</time>
      </trkpt>
      <trkpt lat="43.189622" lon="-6.923154">
        <ele>684.433</ele>
        <time>1999-07-25T09:57:33Z</time>
      </trkpt>
      <trkpt lat="43.189567" lon="-6.923167">
        <ele>684.821</ele>
        <time>1999-07-25T09:57:35Z</time>
      </trkpt>
      <trkpt lat="43.189404" lon="-6.923160">
        <ele>685.498</ele>
        <time>1999-07-25T09:57:41Z</time>
      </trkpt>
      <trkpt lat="43.189378" lon="-6.923157">
        <ele>685.415</ele>
        <time>1999-07-25T09:57:42Z</time>
      </trkpt>
      <trkpt lat="43.189302" lon="-6.923133">
        <ele>685.826</ele>
        <time>1999-07-25T09:57:45Z</time>
      </trkpt>
      <trkpt lat="43.189233" lon="-6.923101">
        <ele>686.408</ele>
        <time>1999-07-25T09:57:48Z</time>
      </trkpt>
      <trkpt lat="43.189208" lon="-6.923093">
        <ele>686.882</ele>
        <time>1999-07-25T09:57:49Z</time>
      </trkpt>
      <trkpt lat="43.189098" lon="-6.923051">
        <ele>688.028</ele>
        <time>1999-07-25T09:57:53Z</time>
      </trkpt>
      <trkpt lat="43.189048" lon="-6.923033">
        <ele>688.639</ele>
        <time>1999-07-25T09:57:55Z</time>
      </trkpt>
      <trkpt lat="43.189005" lon="-6.923005">
        <ele>689.094</ele>
        <time>1999-07-25T09:57:57Z</time>
      </trkpt>
      <trkpt lat="43.188890" lon="-6.922930">
        <ele>689.614</ele>
        <time>1999-07-25T09:58:02Z</time>
      </trkpt>
      <trkpt lat="43.188802" lon="-6.922884">
        <ele>690.011</ele>
        <time>1999-07-25T09:58:05Z</time>
      </trkpt>
      <trkpt lat="43.188690" lon="-6.922849">
        <ele>690.478</ele>
        <time>1999-07-25T09:58:08Z</time>
      </trkpt>
      <trkpt lat="43.188539" lon="-6.922853">
        <ele>690.896</ele>
        <time>1999-07-25T09:58:12Z</time>
      </trkpt>
      <trkpt lat="43.188500" lon="-6.922849">
        <ele>690.827</ele>
        <time>1999-07-25T09:58:13Z</time>
      </trkpt>
      <trkpt lat="43.188344" lon="-6.922835">
        <ele>691.068</ele>
        <time>1999-07-25T09:58:18Z</time>
      </trkpt>
      <trkpt lat="43.188177" lon="-6.922847">
        <ele>691.014</ele>
        <time>1999-07-25T09:58:22Z</time>
      </trkpt>
      <trkpt lat="43.188139" lon="-6.922847">
        <ele>691.008</ele>
        <time>1999-07-25T09:58:23Z</time>
      </trkpt>
      <trkpt lat="43.187937" lon="-6.922888">
        <ele>691.045</ele>
        <time>1999-07-25T09:58:28Z</time>
      </trkpt>
      <trkpt lat="43.187900" lon="-6.922902">
        <ele>690.811</ele>
        <time>1999-07-25T09:58:29Z</time>
      </trkpt>
      <trkpt lat="43.187660" lon="-6.922980">
        <ele>690.882</ele>
        <time>1999-07-25T09:58:35Z</time>
      </trkpt>
      <trkpt lat="43.187422" lon="-6.923088">
        <ele>690.837</ele>
        <time>1999-07-25T09:58:41Z</time>
      </trkpt>
      <trkpt lat="43.187132" lon="-6.923151">
        <ele>691.037</ele>
        <time>1999-07-25T09:58:47Z</time>
      </trkpt>
      <trkpt lat="43.187080" lon="-6.923129">
        <ele>691.044</ele>
        <time>1999-07-25T09:58:49Z</time>
      </trkpt>
      <trkpt lat="43.187034" lon="-6.923131">
        <ele>691.041</ele>
        <time>1999-07-25T09:58:51Z</time>
      </trkpt>
      <trkpt lat="43.186844" lon="-6.923164">
        <ele>690.869</ele>
        <time>1999-07-25T09:58:58Z</time>
      </trkpt>
      <trkpt lat="43.186783" lon="-6.923172">
        <ele>690.617</ele>
        <time>1999-07-25T09:59:00Z</time>
      </trkpt>
      <trkpt lat="43.186675" lon="-6.923219">
        <ele>690.687</ele>
        <time>1999-07-25T09:59:03Z</time>
      </trkpt>
      <trkpt lat="43.186519" lon="-6.923269">
        <ele>690.615</ele>
        <time>1999-07-25T09:59:08Z</time>
      </trkpt>
      <trkpt lat="43.186329" lon="-6.923270">
        <ele>689.808</ele>
        <time>1999-07-25T09:59:13Z</time>
      </trkpt>
      <trkpt lat="43.186095" lon="-6.923220">
        <ele>689.414</ele>
        <time>1999-07-25T09:59:19Z</time>
      </trkpt>
      <trkpt lat="43.185877" lon="-6.923129">
        <ele>689.470</ele>
        <time>1999-07-25T09:59:24Z</time>
      </trkpt>
      <trkpt lat="43.185541" lon="-6.922996">
        <ele>689.881</ele>
        <time>1999-07-25T09:59:32Z</time>
      </trkpt>
      <trkpt lat="43.185146" lon="-6.922893">
        <ele>690.256</ele>
        <time>1999-07-25T09:59:40Z</time>
      </trkpt>
      <trkpt lat="43.184821" lon="-6.922906">
        <ele>690.446</ele>
        <time>1999-07-25T09:59:47Z</time>
      </trkpt>
      <trkpt lat="43.184782" lon="-6.922904">
        <ele>690.493</ele>
        <time>1999-07-25T09:59:48Z</time>
      </trkpt>
      <trkpt lat="43.184606" lon="-6.922897">
        <ele>690.650</ele>
        <time>1999-07-25T09:59:53Z</time>
      </trkpt>
      <trkpt lat="43.184339" lon="-6.922884">
        <ele>690.868</ele>
        <time>1999-07-25T10:00:00Z</time>
      </trkpt>
      <trkpt lat="43.184118" lon="-6.922905">
        <ele>691.079</ele>
        <time>1999-07-25T10:00:05Z</time>
      </trkpt>
      <trkpt lat="43.184065" lon="-6.922923">
        <ele>691.005</ele>
        <time>1999-07-25T10:00:06Z</time>
      </trkpt>
      <trkpt lat="43.183900" lon="-6.922980">
        <ele>691.025</ele>
        <time>1999-07-25T10:00:09Z</time>
      </trkpt>
      <trkpt lat="43.183860" lon="-6.923006">
        <ele>691.008</ele>
        <time>1999-07-25T10:00:10Z</time>
      </trkpt>
      <trkpt lat="43.183696" lon="-6.923049">
        <ele>691.070</ele>
        <time>1999-07-25T10:00:14Z</time>
      </trkpt>
      <trkpt lat="43.183656" lon="-6.923056">
        <ele>691.076</ele>
        <time>1999-07-25T10:00:15Z</time>
      </trkpt>
      <trkpt lat="43.183542" lon="-6.923081">
        <ele>691.047</ele>
        <time>1999-07-25T10:00:19Z</time>
      </trkpt>
      <trkpt lat="43.183515" lon="-6.923077">
        <ele>691.062</ele>
        <time>1999-07-25T10:00:20Z</time>
      </trkpt>
      <trkpt lat="43.183372" lon="-6.923029">
        <ele>690.652</ele>
        <time>1999-07-25T10:00:24Z</time>
      </trkpt>
      <trkpt lat="43.183326" lon="-6.923017">
        <ele>690.659</ele>
        <time>1999-07-25T10:00:25Z</time>
      </trkpt>
      <trkpt lat="43.183230" lon="-6.922996">
        <ele>690.676</ele>
        <time>1999-07-25T10:00:27Z</time>
      </trkpt>
      <trkpt lat="43.183132" lon="-6.922979">
        <ele>690.614</ele>
        <time>1999-07-25T10:00:29Z</time>
      </trkpt>
      <trkpt lat="43.182997" lon="-6.922946">
        <ele>690.653</ele>
        <time>1999-07-25T10:00:32Z</time>
      </trkpt>
      <trkpt lat="43.182811" lon="-6.922914">
        <ele>691.004</ele>
        <time>1999-07-25T10:00:36Z</time>
      </trkpt>
      <trkpt lat="43.182762" lon="-6.922911">
        <ele>691.214</ele>
        <time>1999-07-25T10:00:37Z</time>
      </trkpt>
      <trkpt lat="43.182716" lon="-6.922914">
        <ele>691.408</ele>
        <time>1999-07-25T10:00:38Z</time>
      </trkpt>
      <trkpt lat="43.182486" lon="-6.922917">
        <ele>691.898</ele>
        <time>1999-07-25T10:00:42Z</time>
      </trkpt>
      <trkpt lat="43.182428" lon="-6.922907">
        <ele>691.814</ele>
        <time>1999-07-25T10:00:43Z</time>
      </trkpt>
      <trkpt lat="43.182088" lon="-6.922809">
        <ele>692.025</ele>
        <time>1999-07-25T10:00:49Z</time>
      </trkpt>
      <trkpt lat="43.181944" lon="-6.922767">
        <ele>692.210</ele>
        <time>1999-07-25T10:00:52Z</time>
      </trkpt>
      <trkpt lat="43.181815" lon="-6.922735">
        <ele>692.410</ele>
        <time>1999-07-25T10:00:55Z</time>
      </trkpt>
      <trkpt lat="43.181595" lon="-6.922679">
        <ele>692.637</ele>
        <time>1999-07-25T10:01:00Z</time>
      </trkpt>
      <trkpt lat="43.181498" lon="-6.922628">
        <ele>692.484</ele>
        <time>1999-07-25T10:01:02Z</time>
      </trkpt>
      <trkpt lat="43.181370" lon="-6.922521">
        <ele>692.482</ele>
        <time>1999-07-25T10:01:05Z</time>
      </trkpt>
      <trkpt lat="43.181241" lon="-6.922429">
        <ele>692.439</ele>
        <time>1999-07-25T10:01:10Z</time>
      </trkpt>
      <trkpt lat="43.181105" lon="-6.922346">
        <ele>692.601</ele>
        <time>1999-07-25T10:01:17Z</time>
      </trkpt>
      <trkpt lat="43.181086" lon="-6.922336">
        <ele>692.821</ele>
        <time>1999-07-25T10:01:18Z</time>
      </trkpt>
      <trkpt lat="43.180992" lon="-6.922297">
        <ele>694.008</ele>
        <time>1999-07-25T10:01:22Z</time>
      </trkpt>
      <trkpt lat="43.180945" lon="-6.922281">
        <ele>694.646</ele>
        <time>1999-07-25T10:01:24Z</time>
      </trkpt>
      <trkpt lat="43.180862" lon="-6.922251">
        <ele>695.222</ele>
        <time>1999-07-25T10:01:27Z</time>
      </trkpt>
      <trkpt lat="43.180769" lon="-6.922224">
        <ele>696.043</ele>
        <time>1999-07-25T10:01:30Z</time>
      </trkpt>
      <trkpt lat="43.180737" lon="-6.922216">
        <ele>696.258</ele>
        <time>1999-07-25T10:01:31Z</time>
      </trkpt>
      <trkpt lat="43.180520" lon="-6.922164">
        <ele>696.628</ele>
        <time>1999-07-25T10:01:37Z</time>
      </trkpt>
      <trkpt lat="43.180400" lon="-6.922136">
        <ele>696.685</ele>
        <time>1999-07-25T10:01:40Z</time>
      </trkpt>
      <trkpt lat="43.180314" lon="-6.922122">
        <ele>696.652</ele>
        <time>1999-07-25T10:01:42Z</time>
      </trkpt>
      <trkpt lat="43.180226" lon="-6.922112">
        <ele>696.680</ele>
        <time>1999-07-25T10:01:44Z</time>
      </trkpt>
      <trkpt lat="43.180145" lon="-6.922105">
        <ele>696.431</ele>
        <time>1999-07-25T10:01:46Z</time>
      </trkpt>
      <trkpt lat="43.180063" lon="-6.922096">
        <ele>696.461</ele>
        <time>1999-07-25T10:01:48Z</time>
      </trkpt>
      <trkpt lat="43.179832" lon="-6.922057">
        <ele>695.607</ele>
        <time>1999-07-25T10:01:53Z</time>
      </trkpt>
      <trkpt lat="43.179686" lon="-6.922029">
        <ele>695.408</ele>
        <time>1999-07-25T10:01:56Z</time>
      </trkpt>
      <trkpt lat="43.179579" lon="-6.922010">
        <ele>695.416</ele>
        <time>1999-07-25T10:01:58Z</time>
      </trkpt>
      <trkpt lat="43.179525" lon="-6.922000">
        <ele>695.292</ele>
        <time>1999-07-25T10:01:59Z</time>
      </trkpt>
      <trkpt lat="43.179477" lon="-6.921997">
        <ele>695.223</ele>
        <time>1999-07-25T10:02:00Z</time>
      </trkpt>
      <trkpt lat="43.179387" lon="-6.921983">
        <ele>695.048</ele>
        <time>1999-07-25T10:02:02Z</time>
      </trkpt>
      <trkpt lat="43.179248" lon="-6.921911">
        <ele>694.678</ele>
        <time>1999-07-25T10:02:06Z</time>
      </trkpt>
      <trkpt lat="43.179206" lon="-6.921875">
        <ele>693.835</ele>
        <time>1999-07-25T10:02:08Z</time>
      </trkpt>
      <trkpt lat="43.179185" lon="-6.921880">
        <ele>692.452</ele>
        <time>1999-07-25T10:02:10Z</time>
      </trkpt>
      <trkpt lat="43.179176" lon="-6.921939">
        <ele>691.490</ele>
        <time>1999-07-25T10:02:13Z</time>
      </trkpt>
      <trkpt lat="43.179166" lon="-6.921993">
        <ele>691.261</ele>
        <time>1999-07-25T10:02:15Z</time>
      </trkpt>
      <trkpt lat="43.179075" lon="-6.922148">
        <ele>691.221</ele>
        <time>1999-07-25T10:02:22Z</time>
      </trkpt>
      <trkpt lat="43.179010" lon="-6.922245">
        <ele>691.813</ele>
        <time>1999-07-25T10:02:28Z</time>
      </trkpt>
      <trkpt lat="43.178959" lon="-6.922320">
        <ele>692.408</ele>
        <time>1999-07-25T10:02:31Z</time>
      </trkpt>
      <trkpt lat="43.178940" lon="-6.922350">
        <ele>692.449</ele>
        <time>1999-07-25T10:02:32Z</time>
      </trkpt>
      <trkpt lat="43.178902" lon="-6.922420">
        <ele>692.645</ele>
        <time>1999-07-25T10:02:34Z</time>
      </trkpt>
      <trkpt lat="43.178885" lon="-6.922458">
        <ele>692.676</ele>
        <time>1999-07-25T10:02:35Z</time>
      </trkpt>
      <trkpt lat="43.178845" lon="-6.922532">
        <ele>692.891</ele>
        <time>1999-07-25T10:02:37Z</time>
      </trkpt>
      <trkpt lat="43.178789" lon="-6.922590">
        <ele>693.031</ele>
        <time>1999-07-25T10:02:39Z</time>
      </trkpt>
      <trkpt lat="43.178760" lon="-6.922619">
        <ele>693.098</ele>
        <time>1999-07-25T10:02:40Z</time>
      </trkpt>
      <trkpt lat="43.178698" lon="-6.922674">
        <ele>693.415</ele>
        <time>1999-07-25T10:02:42Z</time>
      </trkpt>
      <trkpt lat="43.178541" lon="-6.922831">
        <ele>694.683</ele>
        <time>1999-07-25T10:02:47Z</time>
      </trkpt>
      <trkpt lat="43.178446" lon="-6.922912">
        <ele>695.675</ele>
        <time>1999-07-25T10:02:50Z</time>
      </trkpt>
      <trkpt lat="43.178363" lon="-6.923002">
        <ele>696.428</ele>
        <time>1999-07-25T10:02:53Z</time>
      </trkpt>
      <trkpt lat="43.178304" lon="-6.923050">
        <ele>696.820</ele>
        <time>1999-07-25T10:02:55Z</time>
      </trkpt>
      <trkpt lat="43.178153" lon="-6.923161">
        <ele>697.608</ele>
        <time>1999-07-25T10:03:00Z</time>
      </trkpt>
      <trkpt lat="43.178094" lon="-6.923209">
        <ele>698.080</ele>
        <time>1999-07-25T10:03:02Z</time>
      </trkpt>
      <trkpt lat="43.177904" lon="-6.923338">
        <ele>699.056</ele>
        <time>1999-07-25T10:03:08Z</time>
      </trkpt>
      <trkpt lat="43.177809" lon="-6.923404">
        <ele>699.667</ele>
        <time>1999-07-25T10:03:11Z</time>
      </trkpt>
      <trkpt lat="43.177688" lon="-6.923500">
        <ele>700.252</ele>
        <time>1999-07-25T10:03:15Z</time>
      </trkpt>
      <trkpt lat="43.177586" lon="-6.923533">
        <ele>700.822</ele>
        <time>1999-07-25T10:03:18Z</time>
      </trkpt>
      <trkpt lat="43.177516" lon="-6.923555">
        <ele>701.299</ele>
        <time>1999-07-25T10:03:20Z</time>
      </trkpt>
      <trkpt lat="43.177337" lon="-6.923622">
        <ele>702.246</ele>
        <time>1999-07-25T10:03:25Z</time>
      </trkpt>
      <trkpt lat="43.177302" lon="-6.923632">
        <ele>702.654</ele>
        <time>1999-07-25T10:03:26Z</time>
      </trkpt>
      <trkpt lat="43.177181" lon="-6.923700">
        <ele>703.048</ele>
        <time>1999-07-25T10:03:30Z</time>
      </trkpt>
      <trkpt lat="43.177118" lon="-6.923734">
        <ele>703.461</ele>
        <time>1999-07-25T10:03:32Z</time>
      </trkpt>
      <trkpt lat="43.176966" lon="-6.923829">
        <ele>704.617</ele>
        <time>1999-07-25T10:03:37Z</time>
      </trkpt>
      <trkpt lat="43.176910" lon="-6.923878">
        <ele>704.808</ele>
        <time>1999-07-25T10:03:39Z</time>
      </trkpt>
      <trkpt lat="43.176802" lon="-6.923987">
        <ele>705.637</ele>
        <time>1999-07-25T10:03:43Z</time>
      </trkpt>
      <trkpt lat="43.176712" lon="-6.924124">
        <ele>706.423</ele>
        <time>1999-07-25T10:03:47Z</time>
      </trkpt>
      <trkpt lat="43.176695" lon="-6.924165">
        <ele>706.824</ele>
        <time>1999-07-25T10:03:48Z</time>
      </trkpt>
      <trkpt lat="43.176653" lon="-6.924329">
        <ele>707.679</ele>
        <time>1999-07-25T10:03:52Z</time>
      </trkpt>
      <trkpt lat="43.176649" lon="-6.924367">
        <ele>707.859</ele>
        <time>1999-07-25T10:03:53Z</time>
      </trkpt>
      <trkpt lat="43.176626" lon="-6.924473">
        <ele>708.256</ele>
        <time>1999-07-25T10:03:56Z</time>
      </trkpt>
      <trkpt lat="43.176519" lon="-6.924576">
        <ele>709.073</ele>
        <time>1999-07-25T10:04:00Z</time>
      </trkpt>
      <trkpt lat="43.176344" lon="-6.924644">
        <ele>710.291</ele>
        <time>1999-07-25T10:04:05Z</time>
      </trkpt>
      <trkpt lat="43.176309" lon="-6.924657">
        <ele>710.436</ele>
        <time>1999-07-25T10:04:06Z</time>
      </trkpt>
      <trkpt lat="43.176067" lon="-6.924742">
        <ele>711.217</ele>
        <time>1999-07-25T10:04:13Z</time>
      </trkpt>
      <trkpt lat="43.176035" lon="-6.924757">
        <ele>711.218</ele>
        <time>1999-07-25T10:04:14Z</time>
      </trkpt>
      <trkpt lat="43.175852" lon="-6.924847">
        <ele>712.408</ele>
        <time>1999-07-25T10:04:20Z</time>
      </trkpt>
      <trkpt lat="43.175629" lon="-6.924948">
        <ele>713.496</ele>
        <time>1999-07-25T10:04:27Z</time>
      </trkpt>
      <trkpt lat="43.175563" lon="-6.924977">
        <ele>713.642</ele>
        <time>1999-07-25T10:04:29Z</time>
      </trkpt>
      <trkpt lat="43.175475" lon="-6.925026">
        <ele>714.243</ele>
        <time>1999-07-25T10:04:32Z</time>
      </trkpt>
      <trkpt lat="43.175358" lon="-6.925095">
        <ele>715.048</ele>
        <time>1999-07-25T10:04:36Z</time>
      </trkpt>
      <trkpt lat="43.175328" lon="-6.925108">
        <ele>715.418</ele>
        <time>1999-07-25T10:04:37Z</time>
      </trkpt>
      <trkpt lat="43.175163" lon="-6.925184">
        <ele>716.415</ele>
        <time>1999-07-25T10:04:43Z</time>
      </trkpt>
      <trkpt lat="43.175136" lon="-6.925197">
        <ele>716.662</ele>
        <time>1999-07-25T10:04:44Z</time>
      </trkpt>
      <trkpt lat="43.175056" lon="-6.925238">
        <ele>717.650</ele>
        <time>1999-07-25T10:04:47Z</time>
      </trkpt>
      <trkpt lat="43.174921" lon="-6.925307">
        <ele>718.883</ele>
        <time>1999-07-25T10:04:52Z</time>
      </trkpt>
      <trkpt lat="43.174753" lon="-6.925392">
        <ele>719.625</ele>
        <time>1999-07-25T10:04:58Z</time>
      </trkpt>
      <trkpt lat="43.174531" lon="-6.925503">
        <ele>720.617</ele>
        <time>1999-07-25T10:05:06Z</time>
      </trkpt>
      <trkpt lat="43.174358" lon="-6.925575">
        <ele>722.008</ele>
        <time>1999-07-25T10:05:12Z</time>
      </trkpt>
      <trkpt lat="43.174328" lon="-6.925589">
        <ele>722.071</ele>
        <time>1999-07-25T10:05:13Z</time>
      </trkpt>
      <trkpt lat="43.174157" lon="-6.925680">
        <ele>723.217</ele>
        <time>1999-07-25T10:05:19Z</time>
      </trkpt>
      <trkpt lat="43.174106" lon="-6.925709">
        <ele>723.438</ele>
        <time>1999-07-25T10:05:21Z</time>
      </trkpt>
      <trkpt lat="43.174005" lon="-6.925768">
        <ele>724.243</ele>
        <time>1999-07-25T10:05:25Z</time>
      </trkpt>
      <trkpt lat="43.173927" lon="-6.925815">
        <ele>724.833</ele>
        <time>1999-07-25T10:05:28Z</time>
      </trkpt>
      <trkpt lat="43.173848" lon="-6.925864">
        <ele>725.290</ele>
        <time>1999-07-25T10:05:31Z</time>
      </trkpt>
      <trkpt lat="43.173736" lon="-6.925933">
        <ele>726.087</ele>
        <time>1999-07-25T10:05:35Z</time>
      </trkpt>
      <trkpt lat="43.173676" lon="-6.925964">
        <ele>726.265</ele>
        <time>1999-07-25T10:05:37Z</time>
      </trkpt>
      <trkpt lat="43.173504" lon="-6.926050">
        <ele>727.431</ele>
        <time>1999-07-25T10:05:43Z</time>
      </trkpt>
      <trkpt lat="43.173331" lon="-6.926148">
        <ele>728.261</ele>
        <time>1999-07-25T10:05:49Z</time>
      </trkpt>
      <trkpt lat="43.173268" lon="-6.926177">
        <ele>728.607</ele>
        <time>1999-07-25T10:05:51Z</time>
      </trkpt>
      <trkpt lat="43.173150" lon="-6.926235">
        <ele>729.408</ele>
        <time>1999-07-25T10:05:55Z</time>
      </trkpt>
      <trkpt lat="43.173033" lon="-6.926298">
        <ele>730.226</ele>
        <time>1999-07-25T10:05:59Z</time>
      </trkpt>
      <trkpt lat="43.172974" lon="-6.926331">
        <ele>730.432</ele>
        <time>1999-07-25T10:06:01Z</time>
      </trkpt>
      <trkpt lat="43.172796" lon="-6.926443">
        <ele>731.653</ele>
        <time>1999-07-25T10:06:07Z</time>
      </trkpt>
      <trkpt lat="43.172661" lon="-6.926547">
        <ele>732.888</ele>
        <time>1999-07-25T10:06:12Z</time>
      </trkpt>
      <trkpt lat="43.172576" lon="-6.926606">
        <ele>733.498</ele>
        <time>1999-07-25T10:06:15Z</time>
      </trkpt>
      <trkpt lat="43.172521" lon="-6.926649">
        <ele>733.845</ele>
        <time>1999-07-25T10:06:17Z</time>
      </trkpt>
      <trkpt lat="43.172362" lon="-6.926768">
        <ele>734.622</ele>
        <time>1999-07-25T10:06:23Z</time>
      </trkpt>
      <trkpt lat="43.172205" lon="-6.926894">
        <ele>735.880</ele>
        <time>1999-07-25T10:06:29Z</time>
      </trkpt>
      <trkpt lat="43.172077" lon="-6.927012">
        <ele>736.442</ele>
        <time>1999-07-25T10:06:34Z</time>
      </trkpt>
      <trkpt lat="43.172023" lon="-6.927060">
        <ele>736.822</ele>
        <time>1999-07-25T10:06:36Z</time>
      </trkpt>
      <trkpt lat="43.171897" lon="-6.927184">
        <ele>738.014</ele>
        <time>1999-07-25T10:06:41Z</time>
      </trkpt>
      <trkpt lat="43.171793" lon="-6.927284">
        <ele>739.008</ele>
        <time>1999-07-25T10:06:45Z</time>
      </trkpt>
      <trkpt lat="43.171722" lon="-6.927358">
        <ele>739.627</ele>
        <time>1999-07-25T10:06:48Z</time>
      </trkpt>
      <trkpt lat="43.171650" lon="-6.927437">
        <ele>740.213</ele>
        <time>1999-07-25T10:06:51Z</time>
      </trkpt>
      <trkpt lat="43.171500" lon="-6.927605">
        <ele>741.294</ele>
        <time>1999-07-25T10:06:57Z</time>
      </trkpt>
      <trkpt lat="43.171368" lon="-6.927780">
        <ele>742.239</ele>
        <time>1999-07-25T10:07:03Z</time>
      </trkpt>
      <trkpt lat="43.171326" lon="-6.927837">
        <ele>742.879</ele>
        <time>1999-07-25T10:07:05Z</time>
      </trkpt>
      <trkpt lat="43.171260" lon="-6.927928">
        <ele>743.446</ele>
        <time>1999-07-25T10:07:08Z</time>
      </trkpt>
      <trkpt lat="43.171127" lon="-6.928077">
        <ele>744.013</ele>
        <time>1999-07-25T10:07:13Z</time>
      </trkpt>
      <trkpt lat="43.171061" lon="-6.928182">
        <ele>744.451</ele>
        <time>1999-07-25T10:07:16Z</time>
      </trkpt>
      <trkpt lat="43.170975" lon="-6.928325">
        <ele>745.239</ele>
        <time>1999-07-25T10:07:20Z</time>
      </trkpt>
      <trkpt lat="43.170932" lon="-6.928398">
        <ele>745.601</ele>
        <time>1999-07-25T10:07:22Z</time>
      </trkpt>
      <trkpt lat="43.170757" lon="-6.928662">
        <ele>746.621</ele>
        <time>1999-07-25T10:07:30Z</time>
      </trkpt>
      <trkpt lat="43.170734" lon="-6.928693">
        <ele>746.608</ele>
        <time>1999-07-25T10:07:31Z</time>
      </trkpt>
      <trkpt lat="43.170602" lon="-6.928889">
        <ele>747.616</ele>
        <time>1999-07-25T10:07:37Z</time>
      </trkpt>
      <trkpt lat="43.170535" lon="-6.928988">
        <ele>748.262</ele>
        <time>1999-07-25T10:07:40Z</time>
      </trkpt>
      <trkpt lat="43.170448" lon="-6.929119">
        <ele>748.853</ele>
        <time>1999-07-25T10:07:44Z</time>
      </trkpt>
      <trkpt lat="43.170314" lon="-6.929336">
        <ele>749.658</ele>
        <time>1999-07-25T10:07:51Z</time>
      </trkpt>
      <trkpt lat="43.170270" lon="-6.929398">
        <ele>749.868</ele>
        <time>1999-07-25T10:07:53Z</time>
      </trkpt>
      <trkpt lat="43.170147" lon="-6.929592">
        <ele>750.675</ele>
        <time>1999-07-25T10:07:59Z</time>
      </trkpt>
      <trkpt lat="43.170103" lon="-6.929658">
        <ele>750.852</ele>
        <time>1999-07-25T10:08:01Z</time>
      </trkpt>
      <trkpt lat="43.169992" lon="-6.929815">
        <ele>751.660</ele>
        <time>1999-07-25T10:08:06Z</time>
      </trkpt>
      <trkpt lat="43.169946" lon="-6.929878">
        <ele>752.068</ele>
        <time>1999-07-25T10:08:08Z</time>
      </trkpt>
      <trkpt lat="43.169925" lon="-6.929910">
        <ele>752.042</ele>
        <time>1999-07-25T10:08:09Z</time>
      </trkpt>
      <trkpt lat="43.169787" lon="-6.930080">
        <ele>753.026</ele>
        <time>1999-07-25T10:08:15Z</time>
      </trkpt>
      <trkpt lat="43.169740" lon="-6.930138">
        <ele>753.408</ele>
        <time>1999-07-25T10:08:17Z</time>
      </trkpt>
      <trkpt lat="43.169606" lon="-6.930273">
        <ele>754.039</ele>
        <time>1999-07-25T10:08:22Z</time>
      </trkpt>
      <trkpt lat="43.169557" lon="-6.930327">
        <ele>754.455</ele>
        <time>1999-07-25T10:08:24Z</time>
      </trkpt>
      <trkpt lat="43.169406" lon="-6.930485">
        <ele>755.266</ele>
        <time>1999-07-25T10:08:30Z</time>
      </trkpt>
      <trkpt lat="43.169321" lon="-6.930549">
        <ele>755.621</ele>
        <time>1999-07-25T10:08:33Z</time>
      </trkpt>
      <trkpt lat="43.169213" lon="-6.930643">
        <ele>756.211</ele>
        <time>1999-07-25T10:08:37Z</time>
      </trkpt>
      <trkpt lat="43.169082" lon="-6.930751">
        <ele>756.858</ele>
        <time>1999-07-25T10:08:42Z</time>
      </trkpt>
      <trkpt lat="43.169024" lon="-6.930776">
        <ele>757.265</ele>
        <time>1999-07-25T10:08:44Z</time>
      </trkpt>
      <trkpt lat="43.168942" lon="-6.930829">
        <ele>757.843</ele>
        <time>1999-07-25T10:08:47Z</time>
      </trkpt>
      <trkpt lat="43.168835" lon="-6.930910">
        <ele>758.492</ele>
        <time>1999-07-25T10:08:51Z</time>
      </trkpt>
      <trkpt lat="43.168689" lon="-6.931020">
        <ele>759.473</ele>
        <time>1999-07-25T10:08:56Z</time>
      </trkpt>
      <trkpt lat="43.168659" lon="-6.931040">
        <ele>759.620</ele>
        <time>1999-07-25T10:08:57Z</time>
      </trkpt>
      <trkpt lat="43.168541" lon="-6.931126">
        <ele>760.808</ele>
        <time>1999-07-25T10:09:01Z</time>
      </trkpt>
      <trkpt lat="43.168422" lon="-6.931209">
        <ele>762.092</ele>
        <time>1999-07-25T10:09:05Z</time>
      </trkpt>
      <trkpt lat="43.168290" lon="-6.931322">
        <ele>763.018</ele>
        <time>1999-07-25T10:09:10Z</time>
      </trkpt>
      <trkpt lat="43.168213" lon="-6.931382">
        <ele>763.619</ele>
        <time>1999-07-25T10:09:13Z</time>
      </trkpt>
      <trkpt lat="43.168160" lon="-6.931421">
        <ele>764.284</ele>
        <time>1999-07-25T10:09:15Z</time>
      </trkpt>
      <trkpt lat="43.168027" lon="-6.931519">
        <ele>765.224</ele>
        <time>1999-07-25T10:09:20Z</time>
      </trkpt>
      <trkpt lat="43.168001" lon="-6.931540">
        <ele>765.411</ele>
        <time>1999-07-25T10:09:21Z</time>
      </trkpt>
      <trkpt lat="43.167867" lon="-6.931638">
        <ele>766.448</ele>
        <time>1999-07-25T10:09:26Z</time>
      </trkpt>
      <trkpt lat="43.167812" lon="-6.931678">
        <ele>767.046</ele>
        <time>1999-07-25T10:09:28Z</time>
      </trkpt>
      <trkpt lat="43.167758" lon="-6.931719">
        <ele>767.476</ele>
        <time>1999-07-25T10:09:30Z</time>
      </trkpt>
      <trkpt lat="43.167616" lon="-6.931822">
        <ele>768.490</ele>
        <time>1999-07-25T10:09:35Z</time>
      </trkpt>
      <trkpt lat="43.167471" lon="-6.931926">
        <ele>769.419</ele>
        <time>1999-07-25T10:09:40Z</time>
      </trkpt>
      <trkpt lat="43.167326" lon="-6.932021">
        <ele>770.408</ele>
        <time>1999-07-25T10:09:45Z</time>
      </trkpt>
      <trkpt lat="43.167184" lon="-6.932122">
        <ele>771.490</ele>
        <time>1999-07-25T10:09:50Z</time>
      </trkpt>
      <trkpt lat="43.167157" lon="-6.932138">
        <ele>771.686</ele>
        <time>1999-07-25T10:09:51Z</time>
      </trkpt>
      <trkpt lat="43.167023" lon="-6.932238">
        <ele>772.887</ele>
        <time>1999-07-25T10:09:56Z</time>
      </trkpt>
      <trkpt lat="43.166996" lon="-6.932255">
        <ele>773.092</ele>
        <time>1999-07-25T10:09:57Z</time>
      </trkpt>
      <trkpt lat="43.166887" lon="-6.932340">
        <ele>773.862</ele>
        <time>1999-07-25T10:10:01Z</time>
      </trkpt>
      <trkpt lat="43.166810" lon="-6.932410">
        <ele>774.499</ele>
        <time>1999-07-25T10:10:04Z</time>
      </trkpt>
      <trkpt lat="43.166758" lon="-6.932451">
        <ele>775.096</ele>
        <time>1999-07-25T10:10:06Z</time>
      </trkpt>
      <trkpt lat="43.166651" lon="-6.932542">
        <ele>776.084</ele>
        <time>1999-07-25T10:10:10Z</time>
      </trkpt>
      <trkpt lat="43.166602" lon="-6.932580">
        <ele>776.418</ele>
        <time>1999-07-25T10:10:12Z</time>
      </trkpt>
      <trkpt lat="43.166504" lon="-6.932662">
        <ele>777.098</ele>
        <time>1999-07-25T10:10:16Z</time>
      </trkpt>
      <trkpt lat="43.166431" lon="-6.932723">
        <ele>777.817</ele>
        <time>1999-07-25T10:10:19Z</time>
      </trkpt>
      <trkpt lat="43.166381" lon="-6.932764">
        <ele>778.208</ele>
        <time>1999-07-25T10:10:21Z</time>
      </trkpt>
      <trkpt lat="43.166228" lon="-6.932885">
        <ele>779.294</ele>
        <time>1999-07-25T10:10:27Z</time>
      </trkpt>
      <trkpt lat="43.166203" lon="-6.932906">
        <ele>779.430</ele>
        <time>1999-07-25T10:10:28Z</time>
      </trkpt>
      <trkpt lat="43.166076" lon="-6.933001">
        <ele>780.411</ele>
        <time>1999-07-25T10:10:33Z</time>
      </trkpt>
      <trkpt lat="43.166004" lon="-6.933056">
        <ele>781.066</ele>
        <time>1999-07-25T10:10:36Z</time>
      </trkpt>
      <trkpt lat="43.165953" lon="-6.933094">
        <ele>781.646</ele>
        <time>1999-07-25T10:10:38Z</time>
      </trkpt>
      <trkpt lat="43.165849" lon="-6.933168">
        <ele>782.633</ele>
        <time>1999-07-25T10:10:42Z</time>
      </trkpt>
      <trkpt lat="43.165823" lon="-6.933188">
        <ele>782.610</ele>
        <time>1999-07-25T10:10:43Z</time>
      </trkpt>
      <trkpt lat="43.165721" lon="-6.933270">
        <ele>783.448</ele>
        <time>1999-07-25T10:10:47Z</time>
      </trkpt>
      <trkpt lat="43.165669" lon="-6.933309">
        <ele>783.665</ele>
        <time>1999-07-25T10:10:49Z</time>
      </trkpt>
      <trkpt lat="43.165527" lon="-6.933401">
        <ele>784.868</ele>
        <time>1999-07-25T10:10:54Z</time>
      </trkpt>
      <trkpt lat="43.165445" lon="-6.933460">
        <ele>785.614</ele>
        <time>1999-07-25T10:10:57Z</time>
      </trkpt>
      <trkpt lat="43.165419" lon="-6.933479">
        <ele>785.808</ele>
        <time>1999-07-25T10:10:58Z</time>
      </trkpt>
      <trkpt lat="43.165296" lon="-6.933570">
        <ele>786.859</ele>
        <time>1999-07-25T10:11:03Z</time>
      </trkpt>
      <trkpt lat="43.165221" lon="-6.933606">
        <ele>787.435</ele>
        <time>1999-07-25T10:11:06Z</time>
      </trkpt>
      <trkpt lat="43.165174" lon="-6.933641">
        <ele>787.866</ele>
        <time>1999-07-25T10:11:08Z</time>
      </trkpt>
      <trkpt lat="43.165072" lon="-6.933698">
        <ele>789.051</ele>
        <time>1999-07-25T10:11:12Z</time>
      </trkpt>
      <trkpt lat="43.165047" lon="-6.933715">
        <ele>789.211</ele>
        <time>1999-07-25T10:11:13Z</time>
      </trkpt>
      <trkpt lat="43.164943" lon="-6.933774">
        <ele>790.068</ele>
        <time>1999-07-25T10:11:17Z</time>
      </trkpt>
      <trkpt lat="43.164865" lon="-6.933813">
        <ele>790.245</ele>
        <time>1999-07-25T10:11:20Z</time>
      </trkpt>
      <trkpt lat="43.164765" lon="-6.933864">
        <ele>791.283</ele>
        <time>1999-07-25T10:11:24Z</time>
      </trkpt>
      <trkpt lat="43.164719" lon="-6.933888">
        <ele>791.685</ele>
        <time>1999-07-25T10:11:26Z</time>
      </trkpt>
      <trkpt lat="43.164619" lon="-6.933934">
        <ele>792.489</ele>
        <time>1999-07-25T10:11:30Z</time>
      </trkpt>
      <trkpt lat="43.164540" lon="-6.933966">
        <ele>792.817</ele>
        <time>1999-07-25T10:11:33Z</time>
      </trkpt>
      <trkpt lat="43.164463" lon="-6.933990">
        <ele>793.608</ele>
        <time>1999-07-25T10:11:36Z</time>
      </trkpt>
      <trkpt lat="43.164311" lon="-6.934047">
        <ele>794.421</ele>
        <time>1999-07-25T10:11:42Z</time>
      </trkpt>
      <trkpt lat="43.164210" lon="-6.934085">
        <ele>795.447</ele>
        <time>1999-07-25T10:11:46Z</time>
      </trkpt>
      <trkpt lat="43.164126" lon="-6.934105">
        <ele>796.098</ele>
        <time>1999-07-25T10:11:49Z</time>
      </trkpt>
      <trkpt lat="43.164070" lon="-6.934114">
        <ele>796.463</ele>
        <time>1999-07-25T10:11:51Z</time>
      </trkpt>
      <trkpt lat="43.163926" lon="-6.934149">
        <ele>797.653</ele>
        <time>1999-07-25T10:11:56Z</time>
      </trkpt>
      <trkpt lat="43.163897" lon="-6.934157">
        <ele>797.850</ele>
        <time>1999-07-25T10:11:57Z</time>
      </trkpt>
      <trkpt lat="43.163773" lon="-6.934230">
        <ele>798.887</ele>
        <time>1999-07-25T10:12:02Z</time>
      </trkpt>
      <trkpt lat="43.163734" lon="-6.934290">
        <ele>799.085</ele>
        <time>1999-07-25T10:12:04Z</time>
      </trkpt>
      <trkpt lat="43.163631" lon="-6.934397">
        <ele>799.894</ele>
        <time>1999-07-25T10:12:09Z</time>
      </trkpt>
      <trkpt lat="43.163583" lon="-6.934421">
        <ele>800.457</ele>
        <time>1999-07-25T10:12:11Z</time>
      </trkpt>
      <trkpt lat="43.163510" lon="-6.934460">
        <ele>801.022</ele>
        <time>1999-07-25T10:12:14Z</time>
      </trkpt>
      <trkpt lat="43.163445" lon="-6.934480">
        <ele>801.408</ele>
        <time>1999-07-25T10:12:17Z</time>
      </trkpt>
      <trkpt lat="43.163387" lon="-6.934491">
        <ele>802.232</ele>
        <time>1999-07-25T10:12:20Z</time>
      </trkpt>
      <trkpt lat="43.163374" lon="-6.934501">
        <ele>802.628</ele>
        <time>1999-07-25T10:12:21Z</time>
      </trkpt>
      <trkpt lat="43.163354" lon="-6.934540">
        <ele>803.279</ele>
        <time>1999-07-25T10:12:23Z</time>
      </trkpt>
      <trkpt lat="43.163347" lon="-6.934562">
        <ele>803.474</ele>
        <time>1999-07-25T10:12:24Z</time>
      </trkpt>
      <trkpt lat="43.163337" lon="-6.934609">
        <ele>804.214</ele>
        <time>1999-07-25T10:12:26Z</time>
      </trkpt>
      <trkpt lat="43.163341" lon="-6.934644">
        <ele>804.671</ele>
        <time>1999-07-25T10:12:28Z</time>
      </trkpt>
      <trkpt lat="43.163350" lon="-6.934661">
        <ele>804.658</ele>
        <time>1999-07-25T10:12:29Z</time>
      </trkpt>
      <trkpt lat="43.163376" lon="-6.934708">
        <ele>805.486</ele>
        <time>1999-07-25T10:12:32Z</time>
      </trkpt>
      <trkpt lat="43.163384" lon="-6.934727">
        <ele>805.674</ele>
        <time>1999-07-25T10:12:33Z</time>
      </trkpt>
      <trkpt lat="43.163420" lon="-6.934780">
        <ele>806.456</ele>
        <time>1999-07-25T10:12:36Z</time>
      </trkpt>
      <trkpt lat="43.163435" lon="-6.934801">
        <ele>806.821</ele>
        <time>1999-07-25T10:12:37Z</time>
      </trkpt>
      <trkpt lat="43.163471" lon="-6.934865">
        <ele>807.808</ele>
        <time>1999-07-25T10:12:40Z</time>
      </trkpt>
      <trkpt lat="43.163483" lon="-6.934916">
        <ele>808.690</ele>
        <time>1999-07-25T10:12:42Z</time>
      </trkpt>
      <trkpt lat="43.163494" lon="-6.934964">
        <ele>809.026</ele>
        <time>1999-07-25T10:12:44Z</time>
      </trkpt>
      <trkpt lat="43.163498" lon="-6.935015">
        <ele>809.497</ele>
        <time>1999-07-25T10:12:46Z</time>
      </trkpt>
      <trkpt lat="43.163482" lon="-6.935062">
        <ele>810.032</ele>
        <time>1999-07-25T10:12:48Z</time>
      </trkpt>
      <trkpt lat="43.163382" lon="-6.935113">
        <ele>811.082</ele>
        <time>1999-07-25T10:12:53Z</time>
      </trkpt>
      <trkpt lat="43.163269" lon="-6.935130">
        <ele>812.289</ele>
        <time>1999-07-25T10:12:58Z</time>
      </trkpt>
      <trkpt lat="43.163202" lon="-6.935130">
        <ele>813.096</ele>
        <time>1999-07-25T10:13:01Z</time>
      </trkpt>
      <trkpt lat="43.163157" lon="-6.935131">
        <ele>813.464</ele>
        <time>1999-07-25T10:13:03Z</time>
      </trkpt>
      <trkpt lat="43.163065" lon="-6.935124">
        <ele>814.839</ele>
        <time>1999-07-25T10:13:07Z</time>
      </trkpt>
      <trkpt lat="43.162990" lon="-6.935119">
        <ele>815.601</ele>
        <time>1999-07-25T10:13:10Z</time>
      </trkpt>
      <trkpt lat="43.162939" lon="-6.935114">
        <ele>815.821</ele>
        <time>1999-07-25T10:13:12Z</time>
      </trkpt>
      <trkpt lat="43.162782" lon="-6.935089">
        <ele>816.808</ele>
        <time>1999-07-25T10:13:18Z</time>
      </trkpt>
      <trkpt lat="43.162755" lon="-6.935082">
        <ele>816.846</ele>
        <time>1999-07-25T10:13:19Z</time>
      </trkpt>
      <trkpt lat="43.162650" lon="-6.935063">
        <ele>817.272</ele>
        <time>1999-07-25T10:13:23Z</time>
      </trkpt>
      <trkpt lat="43.162549" lon="-6.935042">
        <ele>817.853</ele>
        <time>1999-07-25T10:13:27Z</time>
      </trkpt>
      <trkpt lat="43.162524" lon="-6.935044">
        <ele>818.098</ele>
        <time>1999-07-25T10:13:28Z</time>
      </trkpt>
      <trkpt lat="43.162423" lon="-6.935044">
        <ele>818.468</ele>
        <time>1999-07-25T10:13:32Z</time>
      </trkpt>
      <trkpt lat="43.162249" lon="-6.935032">
        <ele>818.815</ele>
        <time>1999-07-25T10:13:39Z</time>
      </trkpt>
      <trkpt lat="43.162078" lon="-6.935054">
        <ele>819.862</ele>
        <time>1999-07-25T10:13:46Z</time>
      </trkpt>
      <trkpt lat="43.161973" lon="-6.935071">
        <ele>821.090</ele>
        <time>1999-07-25T10:13:51Z</time>
      </trkpt>
      <trkpt lat="43.161905" lon="-6.935093">
        <ele>822.072</ele>
        <time>1999-07-25T10:13:54Z</time>
      </trkpt>
      <trkpt lat="43.161882" lon="-6.935096">
        <ele>822.213</ele>
        <time>1999-07-25T10:13:55Z</time>
      </trkpt>
      <trkpt lat="43.161819" lon="-6.935106">
        <ele>823.214</ele>
        <time>1999-07-25T10:13:58Z</time>
      </trkpt>
      <trkpt lat="43.161713" lon="-6.935133">
        <ele>824.008</ele>
        <time>1999-07-25T10:14:03Z</time>
      </trkpt>
      <trkpt lat="43.161693" lon="-6.935135">
        <ele>824.220</ele>
        <time>1999-07-25T10:14:04Z</time>
      </trkpt>
      <trkpt lat="43.161595" lon="-6.935172">
        <ele>825.496</ele>
        <time>1999-07-25T10:14:09Z</time>
      </trkpt>
      <trkpt lat="43.161501" lon="-6.935204">
        <ele>826.417</ele>
        <time>1999-07-25T10:14:14Z</time>
      </trkpt>
      <trkpt lat="43.161441" lon="-6.935221">
        <ele>827.062</ele>
        <time>1999-07-25T10:14:17Z</time>
      </trkpt>
      <trkpt lat="43.161349" lon="-6.935216">
        <ele>827.662</ele>
        <time>1999-07-25T10:14:22Z</time>
      </trkpt>
      <trkpt lat="43.161313" lon="-6.935205">
        <ele>828.049</ele>
        <time>1999-07-25T10:14:24Z</time>
      </trkpt>
      <trkpt lat="43.161264" lon="-6.935192">
        <ele>828.856</ele>
        <time>1999-07-25T10:14:27Z</time>
      </trkpt>
      <trkpt lat="43.161213" lon="-6.935190">
        <ele>829.444</ele>
        <time>1999-07-25T10:14:30Z</time>
      </trkpt>
      <trkpt lat="43.161186" lon="-6.935182">
        <ele>829.666</ele>
        <time>1999-07-25T10:14:32Z</time>
      </trkpt>
      <trkpt lat="43.161171" lon="-6.935174">
        <ele>830.029</ele>
        <time>1999-07-25T10:14:33Z</time>
      </trkpt>
      <trkpt lat="43.161139" lon="-6.935170">
        <ele>830.621</ele>
        <time>1999-07-25T10:14:35Z</time>
      </trkpt>
      <trkpt lat="43.161107" lon="-6.935158">
        <ele>830.808</ele>
        <time>1999-07-25T10:14:37Z</time>
      </trkpt>
      <trkpt lat="43.161057" lon="-6.935155">
        <ele>831.899</ele>
        <time>1999-07-25T10:14:40Z</time>
      </trkpt>
      <trkpt lat="43.161042" lon="-6.935152">
        <ele>832.065</ele>
        <time>1999-07-25T10:14:41Z</time>
      </trkpt>
      <trkpt lat="43.161013" lon="-6.935152">
        <ele>832.676</ele>
        <time>1999-07-25T10:14:43Z</time>
      </trkpt>
      <trkpt lat="43.160983" lon="-6.935154">
        <ele>833.231</ele>
        <time>1999-07-25T10:14:45Z</time>
      </trkpt>
      <trkpt lat="43.160935" lon="-6.935152">
        <ele>834.291</ele>
        <time>1999-07-25T10:14:48Z</time>
      </trkpt>
      <trkpt lat="43.160920" lon="-6.935154">
        <ele>834.438</ele>
        <time>1999-07-25T10:14:49Z</time>
      </trkpt>
      <trkpt lat="43.160846" lon="-6.935157">
        <ele>835.475</ele>
        <time>1999-07-25T10:14:54Z</time>
      </trkpt>
      <trkpt lat="43.160820" lon="-6.935163">
        <ele>835.883</ele>
        <time>1999-07-25T10:14:56Z</time>
      </trkpt>
      <trkpt lat="43.160808" lon="-6.935162">
        <ele>836.673</ele>
        <time>1999-07-25T10:14:59Z</time>
      </trkpt>
      <trkpt lat="43.160100" lon="-6.935398">
        <ele>852.885</ele>
        <time>1999-07-25T10:16:30Z</time>
      </trkpt>
      <trkpt lat="43.160081" lon="-6.935400">
        <ele>853.013</ele>
        <time>1999-07-25T10:16:31Z</time>
      </trkpt>
      <trkpt lat="43.159978" lon="-6.935427">
        <ele>853.408</ele>
        <time>1999-07-25T10:16:38Z</time>
      </trkpt>
      <trkpt lat="43.159935" lon="-6.935463">
        <ele>854.010</ele>
        <time>1999-07-25T10:16:41Z</time>
      </trkpt>
      <trkpt lat="43.159885" lon="-6.935516">
        <ele>854.886</ele>
        <time>1999-07-25T10:16:45Z</time>
      </trkpt>
      <trkpt lat="43.159872" lon="-6.935532">
        <ele>855.077</ele>
        <time>1999-07-25T10:16:46Z</time>
      </trkpt>
      <trkpt lat="43.159807" lon="-6.935578">
        <ele>855.882</ele>
        <time>1999-07-25T10:16:50Z</time>
      </trkpt>
      <trkpt lat="43.159792" lon="-6.935585">
        <ele>856.212</ele>
        <time>1999-07-25T10:16:51Z</time>
      </trkpt>
      <trkpt lat="43.159709" lon="-6.935612">
        <ele>857.099</ele>
        <time>1999-07-25T10:16:56Z</time>
      </trkpt>
      <trkpt lat="43.159676" lon="-6.935629">
        <ele>857.446</ele>
        <time>1999-07-25T10:16:58Z</time>
      </trkpt>
      <trkpt lat="43.159645" lon="-6.935651">
        <ele>858.014</ele>
        <time>1999-07-25T10:17:00Z</time>
      </trkpt>
      <trkpt lat="43.159564" lon="-6.935714">
        <ele>859.211</ele>
        <time>1999-07-25T10:17:05Z</time>
      </trkpt>
      <trkpt lat="43.159509" lon="-6.935754">
        <ele>860.421</ele>
        <time>1999-07-25T10:17:09Z</time>
      </trkpt>
      <trkpt lat="43.159478" lon="-6.935770">
        <ele>861.003</ele>
        <time>1999-07-25T10:17:11Z</time>
      </trkpt>
      <trkpt lat="43.159431" lon="-6.935800">
        <ele>861.408</ele>
        <time>1999-07-25T10:17:14Z</time>
      </trkpt>
      <trkpt lat="43.159369" lon="-6.935858">
        <ele>862.684</ele>
        <time>1999-07-25T10:17:18Z</time>
      </trkpt>
      <trkpt lat="43.159356" lon="-6.935875">
        <ele>862.890</ele>
        <time>1999-07-25T10:17:19Z</time>
      </trkpt>
      <trkpt lat="43.159292" lon="-6.935927">
        <ele>863.641</ele>
        <time>1999-07-25T10:17:23Z</time>
      </trkpt>
      <trkpt lat="43.159262" lon="-6.935952">
        <ele>864.226</ele>
        <time>1999-07-25T10:17:25Z</time>
      </trkpt>
      <trkpt lat="43.159210" lon="-6.935992">
        <ele>864.826</ele>
        <time>1999-07-25T10:17:29Z</time>
      </trkpt>
      <trkpt lat="43.159170" lon="-6.936024">
        <ele>865.253</ele>
        <time>1999-07-25T10:17:32Z</time>
      </trkpt>
      <trkpt lat="43.159128" lon="-6.936066">
        <ele>866.030</ele>
        <time>1999-07-25T10:17:35Z</time>
      </trkpt>
      <trkpt lat="43.159075" lon="-6.936128">
        <ele>867.028</ele>
        <time>1999-07-25T10:17:39Z</time>
      </trkpt>
      <trkpt lat="43.159061" lon="-6.936143">
        <ele>867.267</ele>
        <time>1999-07-25T10:17:40Z</time>
      </trkpt>
      <trkpt lat="43.159036" lon="-6.936172">
        <ele>868.081</ele>
        <time>1999-07-25T10:17:42Z</time>
      </trkpt>
      <trkpt lat="43.158958" lon="-6.936249">
        <ele>869.019</ele>
        <time>1999-07-25T10:17:48Z</time>
      </trkpt>
      <trkpt lat="43.158863" lon="-6.936331">
        <ele>870.008</ele>
        <time>1999-07-25T10:17:55Z</time>
      </trkpt>
      <trkpt lat="43.158848" lon="-6.936343">
        <ele>870.029</ele>
        <time>1999-07-25T10:17:56Z</time>
      </trkpt>
      <trkpt lat="43.158780" lon="-6.936416">
        <ele>871.095</ele>
        <time>1999-07-25T10:18:01Z</time>
      </trkpt>
      <trkpt lat="43.158744" lon="-6.936462">
        <ele>871.276</ele>
        <time>1999-07-25T10:18:04Z</time>
      </trkpt>
      <trkpt lat="43.158694" lon="-6.936517">
        <ele>872.071</ele>
        <time>1999-07-25T10:18:08Z</time>
      </trkpt>
      <trkpt lat="43.158664" lon="-6.936561">
        <ele>872.491</ele>
        <time>1999-07-25T10:18:11Z</time>
      </trkpt>
      <trkpt lat="43.158631" lon="-6.936598">
        <ele>873.298</ele>
        <time>1999-07-25T10:18:14Z</time>
      </trkpt>
      <trkpt lat="43.158594" lon="-6.936658">
        <ele>874.235</ele>
        <time>1999-07-25T10:18:18Z</time>
      </trkpt>
      <trkpt lat="43.158550" lon="-6.936732">
        <ele>875.413</ele>
        <time>1999-07-25T10:18:23Z</time>
      </trkpt>
      <trkpt lat="43.158523" lon="-6.936777">
        <ele>876.413</ele>
        <time>1999-07-25T10:18:26Z</time>
      </trkpt>
      <trkpt lat="43.158512" lon="-6.936791">
        <ele>876.643</ele>
        <time>1999-07-25T10:18:27Z</time>
      </trkpt>
      <trkpt lat="43.158487" lon="-6.936843">
        <ele>877.407</ele>
        <time>1999-07-25T10:18:30Z</time>
      </trkpt>
      <trkpt lat="43.158446" lon="-6.936933">
        <ele>878.208</ele>
        <time>1999-07-25T10:18:35Z</time>
      </trkpt>
      <trkpt lat="43.158398" lon="-6.936993">
        <ele>879.464</ele>
        <time>1999-07-25T10:18:40Z</time>
      </trkpt>
      <trkpt lat="43.158390" lon="-6.937009">
        <ele>879.660</ele>
        <time>1999-07-25T10:18:41Z</time>
      </trkpt>
      <trkpt lat="43.158351" lon="-6.937065">
        <ele>880.451</ele>
        <time>1999-07-25T10:18:45Z</time>
      </trkpt>
      <trkpt lat="43.158324" lon="-6.937113">
        <ele>881.096</ele>
        <time>1999-07-25T10:18:48Z</time>
      </trkpt>
      <trkpt lat="43.158300" lon="-6.937150">
        <ele>881.416</ele>
        <time>1999-07-25T10:18:50Z</time>
      </trkpt>
      <trkpt lat="43.158247" lon="-6.937246">
        <ele>882.643</ele>
        <time>1999-07-25T10:18:55Z</time>
      </trkpt>
      <trkpt lat="43.158239" lon="-6.937265">
        <ele>882.870</ele>
        <time>1999-07-25T10:18:56Z</time>
      </trkpt>
      <trkpt lat="43.158202" lon="-6.937360">
        <ele>883.818</ele>
        <time>1999-07-25T10:19:01Z</time>
      </trkpt>
      <trkpt lat="43.158189" lon="-6.937396">
        <ele>884.034</ele>
        <time>1999-07-25T10:19:03Z</time>
      </trkpt>
      <trkpt lat="43.158155" lon="-6.937467">
        <ele>884.855</ele>
        <time>1999-07-25T10:19:07Z</time>
      </trkpt>
      <trkpt lat="43.158142" lon="-6.937496">
        <ele>885.210</ele>
        <time>1999-07-25T10:19:09Z</time>
      </trkpt>
      <trkpt lat="43.158107" lon="-6.937573">
        <ele>885.808</ele>
        <time>1999-07-25T10:19:13Z</time>
      </trkpt>
      <trkpt lat="43.158081" lon="-6.937625">
        <ele>886.696</ele>
        <time>1999-07-25T10:19:16Z</time>
      </trkpt>
      <trkpt lat="43.158072" lon="-6.937642">
        <ele>886.862</ele>
        <time>1999-07-25T10:19:17Z</time>
      </trkpt>
      <trkpt lat="43.158011" lon="-6.937757">
        <ele>888.013</ele>
        <time>1999-07-25T10:19:23Z</time>
      </trkpt>
      <trkpt lat="43.157991" lon="-6.937800">
        <ele>888.428</ele>
        <time>1999-07-25T10:19:25Z</time>
      </trkpt>
      <trkpt lat="43.157960" lon="-6.937871">
        <ele>889.298</ele>
        <time>1999-07-25T10:19:29Z</time>
      </trkpt>
      <trkpt lat="43.157948" lon="-6.937925">
        <ele>889.675</ele>
        <time>1999-07-25T10:19:32Z</time>
      </trkpt>
      <trkpt lat="43.157900" lon="-6.938019">
        <ele>890.252</ele>
        <time>1999-07-25T10:19:37Z</time>
      </trkpt>
      <trkpt lat="43.157869" lon="-6.938080">
        <ele>890.890</ele>
        <time>1999-07-25T10:19:40Z</time>
      </trkpt>
      <trkpt lat="43.157810" lon="-6.938219">
        <ele>891.456</ele>
        <time>1999-07-25T10:19:46Z</time>
      </trkpt>
      <trkpt lat="43.157768" lon="-6.938316">
        <ele>892.059</ele>
        <time>1999-07-25T10:19:51Z</time>
      </trkpt>
      <trkpt lat="43.157753" lon="-6.938358">
        <ele>892.414</ele>
        <time>1999-07-25T10:19:53Z</time>
      </trkpt>
      <trkpt lat="43.157707" lon="-6.938480">
        <ele>893.208</ele>
        <time>1999-07-25T10:19:59Z</time>
      </trkpt>
      <trkpt lat="43.157698" lon="-6.938500">
        <ele>893.678</ele>
        <time>1999-07-25T10:20:00Z</time>
      </trkpt>
      <trkpt lat="43.157647" lon="-6.938621">
        <ele>894.694</ele>
        <time>1999-07-25T10:20:06Z</time>
      </trkpt>
      <trkpt lat="43.157579" lon="-6.938729">
        <ele>895.635</ele>
        <time>1999-07-25T10:20:12Z</time>
      </trkpt>
      <trkpt lat="43.157558" lon="-6.938764">
        <ele>896.260</ele>
        <time>1999-07-25T10:20:14Z</time>
      </trkpt>
      <trkpt lat="43.157512" lon="-6.938840">
        <ele>896.640</ele>
        <time>1999-07-25T10:20:18Z</time>
      </trkpt>
      <trkpt lat="43.157486" lon="-6.938892">
        <ele>897.037</ele>
        <time>1999-07-25T10:20:21Z</time>
      </trkpt>
      <trkpt lat="43.157449" lon="-6.938949">
        <ele>897.634</ele>
        <time>1999-07-25T10:20:25Z</time>
      </trkpt>
      <trkpt lat="43.157399" lon="-6.939030">
        <ele>898.252</ele>
        <time>1999-07-25T10:20:30Z</time>
      </trkpt>
      <trkpt lat="43.157367" lon="-6.939073">
        <ele>898.854</ele>
        <time>1999-07-25T10:20:33Z</time>
      </trkpt>
      <trkpt lat="43.157323" lon="-6.939142">
        <ele>899.256</ele>
        <time>1999-07-25T10:20:37Z</time>
      </trkpt>
      <trkpt lat="43.157248" lon="-6.939234">
        <ele>899.811</ele>
        <time>1999-07-25T10:20:43Z</time>
      </trkpt>
      <trkpt lat="43.157205" lon="-6.939267">
        <ele>900.008</ele>
        <time>1999-07-25T10:20:46Z</time>
      </trkpt>
      <trkpt lat="43.157136" lon="-6.939335">
        <ele>900.888</ele>
        <time>1999-07-25T10:20:51Z</time>
      </trkpt>
      <trkpt lat="43.157109" lon="-6.939358">
        <ele>901.034</ele>
        <time>1999-07-25T10:20:53Z</time>
      </trkpt>
      <trkpt lat="43.157040" lon="-6.939417">
        <ele>901.885</ele>
        <time>1999-07-25T10:20:58Z</time>
      </trkpt>
      <trkpt lat="43.157012" lon="-6.939443">
        <ele>902.040</ele>
        <time>1999-07-25T10:21:00Z</time>
      </trkpt>
      <trkpt lat="43.156953" lon="-6.939486">
        <ele>902.630</ele>
        <time>1999-07-25T10:21:04Z</time>
      </trkpt>
      <trkpt lat="43.156908" lon="-6.939508">
        <ele>902.887</ele>
        <time>1999-07-25T10:21:07Z</time>
      </trkpt>
      <trkpt lat="43.156834" lon="-6.939561">
        <ele>903.654</ele>
        <time>1999-07-25T10:21:12Z</time>
      </trkpt>
      <trkpt lat="43.156761" lon="-6.939619">
        <ele>904.632</ele>
        <time>1999-07-25T10:21:17Z</time>
      </trkpt>
      <trkpt lat="43.156699" lon="-6.939658">
        <ele>905.672</ele>
        <time>1999-07-25T10:21:21Z</time>
      </trkpt>
      <trkpt lat="43.156640" lon="-6.939699">
        <ele>906.413</ele>
        <time>1999-07-25T10:21:25Z</time>
      </trkpt>
      <trkpt lat="43.156608" lon="-6.939723">
        <ele>906.814</ele>
        <time>1999-07-25T10:21:27Z</time>
      </trkpt>
      <trkpt lat="43.156542" lon="-6.939762">
        <ele>907.408</ele>
        <time>1999-07-25T10:21:31Z</time>
      </trkpt>
      <trkpt lat="43.156509" lon="-6.939788">
        <ele>907.810</ele>
        <time>1999-07-25T10:21:33Z</time>
      </trkpt>
      <trkpt lat="43.156431" lon="-6.939831">
        <ele>908.426</ele>
        <time>1999-07-25T10:21:38Z</time>
      </trkpt>
      <trkpt lat="43.156399" lon="-6.939845">
        <ele>908.877</ele>
        <time>1999-07-25T10:21:40Z</time>
      </trkpt>
      <trkpt lat="43.156328" lon="-6.939909">
        <ele>909.622</ele>
        <time>1999-07-25T10:21:45Z</time>
      </trkpt>
      <trkpt lat="43.156297" lon="-6.939935">
        <ele>909.822</ele>
        <time>1999-07-25T10:21:47Z</time>
      </trkpt>
      <trkpt lat="43.156223" lon="-6.939993">
        <ele>910.619</ele>
        <time>1999-07-25T10:21:52Z</time>
      </trkpt>
      <trkpt lat="43.156193" lon="-6.940020">
        <ele>910.866</ele>
        <time>1999-07-25T10:21:54Z</time>
      </trkpt>
      <trkpt lat="43.156124" lon="-6.940090">
        <ele>912.014</ele>
        <time>1999-07-25T10:21:59Z</time>
      </trkpt>
      <trkpt lat="43.156047" lon="-6.940168">
        <ele>913.083</ele>
        <time>1999-07-25T10:22:05Z</time>
      </trkpt>
      <trkpt lat="43.156020" lon="-6.940198">
        <ele>913.225</ele>
        <time>1999-07-25T10:22:07Z</time>
      </trkpt>
      <trkpt lat="43.155962" lon="-6.940252">
        <ele>914.217</ele>
        <time>1999-07-25T10:22:11Z</time>
      </trkpt>
      <trkpt lat="43.155912" lon="-6.940309">
        <ele>914.808</ele>
        <time>1999-07-25T10:22:15Z</time>
      </trkpt>
      <trkpt lat="43.155876" lon="-6.940348">
        <ele>915.251</ele>
        <time>1999-07-25T10:22:18Z</time>
      </trkpt>
      <trkpt lat="43.155805" lon="-6.940399">
        <ele>915.827</ele>
        <time>1999-07-25T10:22:23Z</time>
      </trkpt>
      <trkpt lat="43.155794" lon="-6.940414">
        <ele>916.018</ele>
        <time>1999-07-25T10:22:24Z</time>
      </trkpt>
      <trkpt lat="43.155712" lon="-6.940514">
        <ele>917.233</ele>
        <time>1999-07-25T10:22:31Z</time>
      </trkpt>
      <trkpt lat="43.155698" lon="-6.940526">
        <ele>917.433</ele>
        <time>1999-07-25T10:22:32Z</time>
      </trkpt>
      <trkpt lat="43.155634" lon="-6.940573">
        <ele>918.230</ele>
        <time>1999-07-25T10:22:36Z</time>
      </trkpt>
      <trkpt lat="43.155577" lon="-6.940629">
        <ele>919.037</ele>
        <time>1999-07-25T10:22:40Z</time>
      </trkpt>
      <trkpt lat="43.155538" lon="-6.940688">
        <ele>919.435</ele>
        <time>1999-07-25T10:22:43Z</time>
      </trkpt>
      <trkpt lat="43.155503" lon="-6.940780">
        <ele>920.271</ele>
        <time>1999-07-25T10:22:47Z</time>
      </trkpt>
      <trkpt lat="43.155493" lon="-6.940800">
        <ele>920.441</ele>
        <time>1999-07-25T10:22:48Z</time>
      </trkpt>
      <trkpt lat="43.155456" lon="-6.940956">
        <ele>921.215</ele>
        <time>1999-07-25T10:22:55Z</time>
      </trkpt>
      <trkpt lat="43.155450" lon="-6.940980">
        <ele>921.208</ele>
        <time>1999-07-25T10:22:56Z</time>
      </trkpt>
      <trkpt lat="43.155391" lon="-6.941166">
        <ele>922.460</ele>
        <time>1999-07-25T10:23:04Z</time>
      </trkpt>
      <trkpt lat="43.155339" lon="-6.941363">
        <ele>923.456</ele>
        <time>1999-07-25T10:23:11Z</time>
      </trkpt>
      <trkpt lat="43.155328" lon="-6.941389">
        <ele>923.467</ele>
        <time>1999-07-25T10:23:12Z</time>
      </trkpt>
      <trkpt lat="43.155248" lon="-6.941577">
        <ele>924.012</ele>
        <time>1999-07-25T10:23:19Z</time>
      </trkpt>
      <trkpt lat="43.155206" lon="-6.941646">
        <ele>924.472</ele>
        <time>1999-07-25T10:23:22Z</time>
      </trkpt>
      <trkpt lat="43.155187" lon="-6.941705">
        <ele>924.689</ele>
        <time>1999-07-25T10:23:24Z</time>
      </trkpt>
      <trkpt lat="43.155163" lon="-6.941800">
        <ele>925.426</ele>
        <time>1999-07-25T10:23:27Z</time>
      </trkpt>
      <trkpt lat="43.155133" lon="-6.942029">
        <ele>926.814</ele>
        <time>1999-07-25T10:23:34Z</time>
      </trkpt>
      <trkpt lat="43.155146" lon="-6.942276">
        <ele>927.857</ele>
        <time>1999-07-25T10:23:41Z</time>
      </trkpt>
      <trkpt lat="43.155149" lon="-6.942309">
        <ele>928.000</ele>
        <time>1999-07-25T10:23:42Z</time>
      </trkpt>
      <trkpt lat="43.155154" lon="-6.942574">
        <ele>928.220</ele>
        <time>1999-07-25T10:23:49Z</time>
      </trkpt>
      <trkpt lat="43.155147" lon="-6.942816">
        <ele>928.608</ele>
        <time>1999-07-25T10:23:56Z</time>
      </trkpt>
      <trkpt lat="43.155142" lon="-6.942976">
        <ele>928.878</ele>
        <time>1999-07-25T10:24:01Z</time>
      </trkpt>
      <trkpt lat="43.155142" lon="-6.943071">
        <ele>929.694</ele>
        <time>1999-07-25T10:24:04Z</time>
      </trkpt>
      <trkpt lat="43.155141" lon="-6.943129">
        <ele>929.835</ele>
        <time>1999-07-25T10:24:06Z</time>
      </trkpt>
      <trkpt lat="43.155124" lon="-6.943260">
        <ele>930.840</ele>
        <time>1999-07-25T10:24:11Z</time>
      </trkpt>
      <trkpt lat="43.155124" lon="-6.943287">
        <ele>931.280</ele>
        <time>1999-07-25T10:24:12Z</time>
      </trkpt>
      <trkpt lat="43.155105" lon="-6.943407">
        <ele>931.817</ele>
        <time>1999-07-25T10:24:16Z</time>
      </trkpt>
      <trkpt lat="43.155095" lon="-6.943461">
        <ele>932.254</ele>
        <time>1999-07-25T10:24:18Z</time>
      </trkpt>
      <trkpt lat="43.155077" lon="-6.943578">
        <ele>932.812</ele>
        <time>1999-07-25T10:24:23Z</time>
      </trkpt>
      <trkpt lat="43.155070" lon="-6.943624">
        <ele>933.251</ele>
        <time>1999-07-25T10:24:25Z</time>
      </trkpt>
      <trkpt lat="43.155054" lon="-6.943757">
        <ele>934.001</ele>
        <time>1999-07-25T10:24:30Z</time>
      </trkpt>
      <trkpt lat="43.155050" lon="-6.943784">
        <ele>934.211</ele>
        <time>1999-07-25T10:24:31Z</time>
      </trkpt>
      <trkpt lat="43.155016" lon="-6.943946">
        <ele>935.208</ele>
        <time>1999-07-25T10:24:38Z</time>
      </trkpt>
      <trkpt lat="43.155013" lon="-6.943963">
        <ele>935.228</ele>
        <time>1999-07-25T10:24:39Z</time>
      </trkpt>
      <trkpt lat="43.154988" lon="-6.944033">
        <ele>936.094</ele>
        <time>1999-07-25T10:24:44Z</time>
      </trkpt>
      <trkpt lat="43.154994" lon="-6.944072">
        <ele>936.495</ele>
        <time>1999-07-25T10:24:46Z</time>
      </trkpt>
      <trkpt lat="43.154996" lon="-6.944129">
        <ele>937.050</ele>
        <time>1999-07-25T10:24:49Z</time>
      </trkpt>
      <trkpt lat="43.154994" lon="-6.944142">
        <ele>937.230</ele>
        <time>1999-07-25T10:24:50Z</time>
      </trkpt>
      <trkpt lat="43.154996" lon="-6.944185">
        <ele>937.477</ele>
        <time>1999-07-25T10:24:52Z</time>
      </trkpt>
      <trkpt lat="43.154994" lon="-6.944210">
        <ele>937.644</ele>
        <time>1999-07-25T10:24:53Z</time>
      </trkpt>
      <trkpt lat="43.154998" lon="-6.944294">
        <ele>937.852</ele>
        <time>1999-07-25T10:24:55Z</time>
      </trkpt>
      <trkpt lat="43.154996" lon="-6.944403">
        <ele>938.411</ele>
        <time>1999-07-25T10:24:59Z</time>
      </trkpt>
      <trkpt lat="43.154994" lon="-6.944465">
        <ele>938.621</ele>
        <time>1999-07-25T10:25:01Z</time>
      </trkpt>
      <trkpt lat="43.154986" lon="-6.944536">
        <ele>939.203</ele>
        <time>1999-07-25T10:25:04Z</time>
      </trkpt>
      <trkpt lat="43.154979" lon="-6.944567">
        <ele>939.608</ele>
        <time>1999-07-25T10:25:05Z</time>
      </trkpt>
      <trkpt lat="43.154968" lon="-6.944621">
        <ele>939.844</ele>
        <time>1999-07-25T10:25:07Z</time>
      </trkpt>
      <trkpt lat="43.154950" lon="-6.944706">
        <ele>940.820</ele>
        <time>1999-07-25T10:25:10Z</time>
      </trkpt>
      <trkpt lat="43.154927" lon="-6.944813">
        <ele>941.411</ele>
        <time>1999-07-25T10:25:14Z</time>
      </trkpt>
      <trkpt lat="43.154918" lon="-6.944874">
        <ele>942.026</ele>
        <time>1999-07-25T10:25:16Z</time>
      </trkpt>
      <trkpt lat="43.154904" lon="-6.945001">
        <ele>942.446</ele>
        <time>1999-07-25T10:25:20Z</time>
      </trkpt>
      <trkpt lat="43.154900" lon="-6.945059">
        <ele>942.893</ele>
        <time>1999-07-25T10:25:22Z</time>
      </trkpt>
      <trkpt lat="43.154897" lon="-6.945207">
        <ele>943.640</ele>
        <time>1999-07-25T10:25:27Z</time>
      </trkpt>
      <trkpt lat="43.154899" lon="-6.945263">
        <ele>944.058</ele>
        <time>1999-07-25T10:25:29Z</time>
      </trkpt>
      <trkpt lat="43.154900" lon="-6.945423">
        <ele>945.027</ele>
        <time>1999-07-25T10:25:35Z</time>
      </trkpt>
      <trkpt lat="43.154903" lon="-6.945453">
        <ele>945.268</ele>
        <time>1999-07-25T10:25:36Z</time>
      </trkpt>
      <trkpt lat="43.154949" lon="-6.945637">
        <ele>946.214</ele>
        <time>1999-07-25T10:25:42Z</time>
      </trkpt>
      <trkpt lat="43.154959" lon="-6.945668">
        <ele>946.208</ele>
        <time>1999-07-25T10:25:43Z</time>
      </trkpt>
      <trkpt lat="43.155041" lon="-6.945896">
        <ele>946.625</ele>
        <time>1999-07-25T10:25:49Z</time>
      </trkpt>
      <trkpt lat="43.155185" lon="-6.946175">
        <ele>947.081</ele>
        <time>1999-07-25T10:25:56Z</time>
      </trkpt>
      <trkpt lat="43.155228" lon="-6.946243">
        <ele>947.032</ele>
        <time>1999-07-25T10:25:58Z</time>
      </trkpt>
      <trkpt lat="43.155348" lon="-6.946413">
        <ele>947.267</ele>
        <time>1999-07-25T10:26:03Z</time>
      </trkpt>
      <trkpt lat="43.155518" lon="-6.946624">
        <ele>947.477</ele>
        <time>1999-07-25T10:26:10Z</time>
      </trkpt>
      <trkpt lat="43.155636" lon="-6.946791">
        <ele>948.294</ele>
        <time>1999-07-25T10:26:15Z</time>
      </trkpt>
      <trkpt lat="43.155683" lon="-6.946858">
        <ele>948.491</ele>
        <time>1999-07-25T10:26:17Z</time>
      </trkpt>
      <trkpt lat="43.155850" lon="-6.947107">
        <ele>949.029</ele>
        <time>1999-07-25T10:26:24Z</time>
      </trkpt>
      <trkpt lat="43.155983" lon="-6.947318">
        <ele>949.256</ele>
        <time>1999-07-25T10:26:30Z</time>
      </trkpt>
      <trkpt lat="43.156033" lon="-6.947425">
        <ele>949.459</ele>
        <time>1999-07-25T10:26:33Z</time>
      </trkpt>
      <trkpt lat="43.156087" lon="-6.947558">
        <ele>949.814</ele>
        <time>1999-07-25T10:26:37Z</time>
      </trkpt>
      <trkpt lat="43.156095" lon="-6.947592">
        <ele>950.008</ele>
        <time>1999-07-25T10:26:38Z</time>
      </trkpt>
      <trkpt lat="43.156101" lon="-6.947629">
        <ele>950.218</ele>
        <time>1999-07-25T10:26:39Z</time>
      </trkpt>
      <trkpt lat="43.156125" lon="-6.947862">
        <ele>951.284</ele>
        <time>1999-07-25T10:26:45Z</time>
      </trkpt>
      <trkpt lat="43.156128" lon="-6.947885">
        <ele>951.255</ele>
        <time>1999-07-25T10:26:46Z</time>
      </trkpt>
      <trkpt lat="43.156152" lon="-6.948008">
        <ele>951.630</ele>
        <time>1999-07-25T10:26:51Z</time>
      </trkpt>
      <trkpt lat="43.156156" lon="-6.948080">
        <ele>951.630</ele>
        <time>1999-07-25T10:26:54Z</time>
      </trkpt>
      <trkpt lat="43.156162" lon="-6.948143">
        <ele>952.227</ele>
        <time>1999-07-25T10:26:57Z</time>
      </trkpt>
      <trkpt lat="43.156163" lon="-6.948161">
        <ele>952.694</ele>
        <time>1999-07-25T10:26:58Z</time>
      </trkpt>
      <trkpt lat="43.156176" lon="-6.948223">
        <ele>953.422</ele>
        <time>1999-07-25T10:27:01Z</time>
      </trkpt>
      <trkpt lat="43.156163" lon="-6.948267">
        <ele>954.413</ele>
        <time>1999-07-25T10:27:04Z</time>
      </trkpt>
      <trkpt lat="43.156157" lon="-6.948274">
        <ele>954.443</ele>
        <time>1999-07-25T10:27:05Z</time>
      </trkpt>
      <trkpt lat="43.156153" lon="-6.948288">
        <ele>955.007</ele>
        <time>1999-07-25T10:27:07Z</time>
      </trkpt>
      <trkpt lat="43.156200" lon="-6.948502">
        <ele>955.408</ele>
        <time>1999-07-25T10:33:43Z</time>
      </trkpt>
      <trkpt lat="43.156192" lon="-6.948531">
        <ele>955.474</ele>
        <time>1999-07-25T10:33:44Z</time>
      </trkpt>
      <trkpt lat="43.156159" lon="-6.948604">
        <ele>955.660</ele>
        <time>1999-07-25T10:33:47Z</time>
      </trkpt>
      <trkpt lat="43.156110" lon="-6.948655">
        <ele>955.651</ele>
        <time>1999-07-25T10:33:50Z</time>
      </trkpt>
      <trkpt lat="43.155969" lon="-6.948753">
        <ele>956.026</ele>
        <time>1999-07-25T10:33:56Z</time>
      </trkpt>
      <trkpt lat="43.155911" lon="-6.948791">
        <ele>956.216</ele>
        <time>1999-07-25T10:33:58Z</time>
      </trkpt>
      <trkpt lat="43.155791" lon="-6.948849">
        <ele>956.433</ele>
        <time>1999-07-25T10:34:01Z</time>
      </trkpt>
      <trkpt lat="43.155563" lon="-6.948966">
        <ele>956.490</ele>
        <time>1999-07-25T10:34:05Z</time>
      </trkpt>
      <trkpt lat="43.155502" lon="-6.949011">
        <ele>956.258</ele>
        <time>1999-07-25T10:34:06Z</time>
      </trkpt>
      <trkpt lat="43.155441" lon="-6.949062">
        <ele>956.077</ele>
        <time>1999-07-25T10:34:07Z</time>
      </trkpt>
      <trkpt lat="43.155262" lon="-6.949251">
        <ele>955.861</ele>
        <time>1999-07-25T10:34:10Z</time>
      </trkpt>
      <trkpt lat="43.155156" lon="-6.949354">
        <ele>955.427</ele>
        <time>1999-07-25T10:34:12Z</time>
      </trkpt>
      <trkpt lat="43.155067" lon="-6.949401">
        <ele>954.808</ele>
        <time>1999-07-25T10:34:14Z</time>
      </trkpt>
      <trkpt lat="43.155033" lon="-6.949399">
        <ele>954.410</ele>
        <time>1999-07-25T10:34:15Z</time>
      </trkpt>
      <trkpt lat="43.155004" lon="-6.949393">
        <ele>954.016</ele>
        <time>1999-07-25T10:34:16Z</time>
      </trkpt>
      <trkpt lat="43.154961" lon="-6.949392">
        <ele>953.437</ele>
        <time>1999-07-25T10:34:18Z</time>
      </trkpt>
      <trkpt lat="43.154944" lon="-6.949397">
        <ele>953.072</ele>
        <time>1999-07-25T10:34:19Z</time>
      </trkpt>
      <trkpt lat="43.154928" lon="-6.949403">
        <ele>951.862</ele>
        <time>1999-07-25T10:34:21Z</time>
      </trkpt>
      <trkpt lat="43.154929" lon="-6.949402">
        <ele>951.069</ele>
        <time>1999-07-25T10:34:22Z</time>
      </trkpt>
      <trkpt lat="43.154981" lon="-6.949345">
        <ele>947.856</ele>
        <time>1999-07-25T10:34:44Z</time>
      </trkpt>
      <trkpt lat="43.154999" lon="-6.949360">
        <ele>947.864</ele>
        <time>1999-07-25T10:34:45Z</time>
      </trkpt>
      <trkpt lat="43.155051" lon="-6.949391">
        <ele>947.842</ele>
        <time>1999-07-25T10:34:48Z</time>
      </trkpt>
      <trkpt lat="43.155068" lon="-6.949390">
        <ele>947.822</ele>
        <time>1999-07-25T10:34:49Z</time>
      </trkpt>
      <trkpt lat="43.155178" lon="-6.949312">
        <ele>948.014</ele>
        <time>1999-07-25T10:34:56Z</time>
      </trkpt>
      <trkpt lat="43.155258" lon="-6.949178">
        <ele>948.808</ele>
        <time>1999-07-25T10:35:02Z</time>
      </trkpt>
      <trkpt lat="43.155309" lon="-6.949124">
        <ele>950.097</ele>
        <time>1999-07-25T10:35:05Z</time>
      </trkpt>
      <trkpt lat="43.155357" lon="-6.949068">
        <ele>950.663</ele>
        <time>1999-07-25T10:35:08Z</time>
      </trkpt>
      <trkpt lat="43.155422" lon="-6.948992">
        <ele>950.844</ele>
        <time>1999-07-25T10:35:12Z</time>
      </trkpt>
      <trkpt lat="43.155438" lon="-6.948972">
        <ele>951.059</ele>
        <time>1999-07-25T10:35:13Z</time>
      </trkpt>
      <trkpt lat="43.155456" lon="-6.948954">
        <ele>951.299</ele>
        <time>1999-07-25T10:35:14Z</time>
      </trkpt>
      <trkpt lat="43.155567" lon="-6.948889">
        <ele>951.636</ele>
        <time>1999-07-25T10:35:20Z</time>
      </trkpt>
      <trkpt lat="43.155625" lon="-6.948876">
        <ele>952.013</ele>
        <time>1999-07-25T10:35:23Z</time>
      </trkpt>
      <trkpt lat="43.155681" lon="-6.948844">
        <ele>953.011</ele>
        <time>1999-07-25T10:35:26Z</time>
      </trkpt>
      <trkpt lat="43.155751" lon="-6.948807">
        <ele>953.414</ele>
        <time>1999-07-25T10:35:30Z</time>
      </trkpt>
      <trkpt lat="43.155797" lon="-6.948803">
        <ele>953.854</ele>
        <time>1999-07-25T10:35:33Z</time>
      </trkpt>
      <trkpt lat="43.155822" lon="-6.948830">
        <ele>954.009</ele>
        <time>1999-07-25T10:35:35Z</time>
      </trkpt>
      <trkpt lat="43.155825" lon="-6.948839">
        <ele>954.208</ele>
        <time>1999-07-25T10:35:36Z</time>
      </trkpt>
      <trkpt lat="43.155825" lon="-6.948842">
        <ele>954.444</ele>
        <time>1999-07-25T10:35:37Z</time>
      </trkpt>
      <trkpt lat="43.155760" lon="-6.949086">
        <ele>956.050</ele>
        <time>1999-07-25T10:36:02Z</time>
      </trkpt>
      <trkpt lat="43.155746" lon="-6.949109">
        <ele>956.291</ele>
        <time>1999-07-25T10:36:03Z</time>
      </trkpt>
      <trkpt lat="43.155732" lon="-6.949129">
        <ele>956.216</ele>
        <time>1999-07-25T10:36:04Z</time>
      </trkpt>
      <trkpt lat="43.155708" lon="-6.949201">
        <ele>956.276</ele>
        <time>1999-07-25T10:36:07Z</time>
      </trkpt>
      <trkpt lat="43.155702" lon="-6.949225">
        <ele>956.443</ele>
        <time>1999-07-25T10:36:08Z</time>
      </trkpt>
      <trkpt lat="43.155690" lon="-6.949265">
        <ele>956.640</ele>
        <time>1999-07-25T10:36:10Z</time>
      </trkpt>
      <trkpt lat="43.155672" lon="-6.949330">
        <ele>957.068</ele>
        <time>1999-07-25T10:36:13Z</time>
      </trkpt>
      <trkpt lat="43.155630" lon="-6.949440">
        <ele>958.229</ele>
        <time>1999-07-25T10:36:18Z</time>
      </trkpt>
      <trkpt lat="43.155617" lon="-6.949483">
        <ele>958.400</ele>
        <time>1999-07-25T10:36:20Z</time>
      </trkpt>
      <trkpt lat="43.155591" lon="-6.949559">
        <ele>959.220</ele>
        <time>1999-07-25T10:36:24Z</time>
      </trkpt>
      <trkpt lat="43.155586" lon="-6.949577">
        <ele>959.408</ele>
        <time>1999-07-25T10:36:25Z</time>
      </trkpt>
      <trkpt lat="43.155567" lon="-6.949667">
        <ele>960.045</ele>
        <time>1999-07-25T10:36:29Z</time>
      </trkpt>
      <trkpt lat="43.155548" lon="-6.949737">
        <ele>960.691</ele>
        <time>1999-07-25T10:36:32Z</time>
      </trkpt>
      <trkpt lat="43.155522" lon="-6.949811">
        <ele>961.612</ele>
        <time>1999-07-25T10:36:36Z</time>
      </trkpt>
      <trkpt lat="43.155499" lon="-6.949903">
        <ele>962.877</ele>
        <time>1999-07-25T10:36:40Z</time>
      </trkpt>
      <trkpt lat="43.155464" lon="-6.949985">
        <ele>963.697</ele>
        <time>1999-07-25T10:36:44Z</time>
      </trkpt>
      <trkpt lat="43.155445" lon="-6.950045">
        <ele>964.034</ele>
        <time>1999-07-25T10:36:47Z</time>
      </trkpt>
      <trkpt lat="43.155428" lon="-6.950102">
        <ele>964.611</ele>
        <time>1999-07-25T10:36:50Z</time>
      </trkpt>
      <trkpt lat="43.155419" lon="-6.950135">
        <ele>965.089</ele>
        <time>1999-07-25T10:36:52Z</time>
      </trkpt>
      <trkpt lat="43.155412" lon="-6.950204">
        <ele>966.215</ele>
        <time>1999-07-25T10:36:56Z</time>
      </trkpt>
      <trkpt lat="43.155406" lon="-6.950238">
        <ele>966.865</ele>
        <time>1999-07-25T10:36:58Z</time>
      </trkpt>
      <trkpt lat="43.155396" lon="-6.950278">
        <ele>967.211</ele>
        <time>1999-07-25T10:37:00Z</time>
      </trkpt>
      <trkpt lat="43.155372" lon="-6.950379">
        <ele>968.208</ele>
        <time>1999-07-25T10:37:05Z</time>
      </trkpt>
      <trkpt lat="43.155361" lon="-6.950419">
        <ele>968.414</ele>
        <time>1999-07-25T10:37:07Z</time>
      </trkpt>
      <trkpt lat="43.155333" lon="-6.950520">
        <ele>969.420</ele>
        <time>1999-07-25T10:37:12Z</time>
      </trkpt>
      <trkpt lat="43.155296" lon="-6.950616">
        <ele>970.481</ele>
        <time>1999-07-25T10:37:17Z</time>
      </trkpt>
      <trkpt lat="43.155292" lon="-6.950635">
        <ele>970.496</ele>
        <time>1999-07-25T10:37:18Z</time>
      </trkpt>
      <trkpt lat="43.155273" lon="-6.950734">
        <ele>971.866</ele>
        <time>1999-07-25T10:37:23Z</time>
      </trkpt>
      <trkpt lat="43.155260" lon="-6.950792">
        <ele>972.863</ele>
        <time>1999-07-25T10:37:26Z</time>
      </trkpt>
      <trkpt lat="43.155255" lon="-6.950814">
        <ele>973.090</ele>
        <time>1999-07-25T10:37:27Z</time>
      </trkpt>
      <trkpt lat="43.155226" lon="-6.950911">
        <ele>974.248</ele>
        <time>1999-07-25T10:37:32Z</time>
      </trkpt>
      <trkpt lat="43.155195" lon="-6.950978">
        <ele>975.066</ele>
        <time>1999-07-25T10:37:36Z</time>
      </trkpt>
      <trkpt lat="43.155187" lon="-6.950995">
        <ele>975.229</ele>
        <time>1999-07-25T10:37:37Z</time>
      </trkpt>
      <trkpt lat="43.155165" lon="-6.951094">
        <ele>976.421</ele>
        <time>1999-07-25T10:37:42Z</time>
      </trkpt>
      <trkpt lat="43.155163" lon="-6.951117">
        <ele>976.608</ele>
        <time>1999-07-25T10:37:43Z</time>
      </trkpt>
      <trkpt lat="43.155140" lon="-6.951193">
        <ele>977.439</ele>
        <time>1999-07-25T10:37:47Z</time>
      </trkpt>
      <trkpt lat="43.155115" lon="-6.951243">
        <ele>977.855</ele>
        <time>1999-07-25T10:37:50Z</time>
      </trkpt>
      <trkpt lat="43.155105" lon="-6.951282">
        <ele>978.466</ele>
        <time>1999-07-25T10:37:52Z</time>
      </trkpt>
      <trkpt lat="43.155091" lon="-6.951355">
        <ele>979.681</ele>
        <time>1999-07-25T10:37:56Z</time>
      </trkpt>
      <trkpt lat="43.155080" lon="-6.951412">
        <ele>980.451</ele>
        <time>1999-07-25T10:37:59Z</time>
      </trkpt>
      <trkpt lat="43.155073" lon="-6.951431">
        <ele>980.668</ele>
        <time>1999-07-25T10:38:00Z</time>
      </trkpt>
      <trkpt lat="43.155056" lon="-6.951518">
        <ele>981.875</ele>
        <time>1999-07-25T10:38:04Z</time>
      </trkpt>
      <trkpt lat="43.155039" lon="-6.951582">
        <ele>982.833</ele>
        <time>1999-07-25T10:38:07Z</time>
      </trkpt>
      <trkpt lat="43.155032" lon="-6.951602">
        <ele>983.062</ele>
        <time>1999-07-25T10:38:08Z</time>
      </trkpt>
      <trkpt lat="43.155001" lon="-6.951727">
        <ele>984.083</ele>
        <time>1999-07-25T10:38:14Z</time>
      </trkpt>
      <trkpt lat="43.154993" lon="-6.951790">
        <ele>984.611</ele>
        <time>1999-07-25T10:38:17Z</time>
      </trkpt>
      <trkpt lat="43.154982" lon="-6.951853">
        <ele>985.208</ele>
        <time>1999-07-25T10:38:20Z</time>
      </trkpt>
      <trkpt lat="43.154964" lon="-6.951973">
        <ele>986.289</ele>
        <time>1999-07-25T10:38:25Z</time>
      </trkpt>
      <trkpt lat="43.154959" lon="-6.951998">
        <ele>986.485</ele>
        <time>1999-07-25T10:38:26Z</time>
      </trkpt>
      <trkpt lat="43.154943" lon="-6.952108">
        <ele>986.866</ele>
        <time>1999-07-25T10:38:31Z</time>
      </trkpt>
      <trkpt lat="43.154939" lon="-6.952203">
        <ele>987.631</ele>
        <time>1999-07-25T10:38:35Z</time>
      </trkpt>
      <trkpt lat="43.154910" lon="-6.952293">
        <ele>988.411</ele>
        <time>1999-07-25T10:38:39Z</time>
      </trkpt>
      <trkpt lat="43.154899" lon="-6.952310">
        <ele>988.638</ele>
        <time>1999-07-25T10:38:40Z</time>
      </trkpt>
      <trkpt lat="43.154834" lon="-6.952361">
        <ele>989.295</ele>
        <time>1999-07-25T10:38:45Z</time>
      </trkpt>
      <trkpt lat="43.154819" lon="-6.952366">
        <ele>989.463</ele>
        <time>1999-07-25T10:38:46Z</time>
      </trkpt>
      <trkpt lat="43.154729" lon="-6.952383">
        <ele>990.427</ele>
        <time>1999-07-25T10:38:52Z</time>
      </trkpt>
      <trkpt lat="43.154714" lon="-6.952383">
        <ele>990.668</ele>
        <time>1999-07-25T10:38:53Z</time>
      </trkpt>
      <trkpt lat="43.154636" lon="-6.952373">
        <ele>991.814</ele>
        <time>1999-07-25T10:38:58Z</time>
      </trkpt>
      <trkpt lat="43.154610" lon="-6.952370">
        <ele>992.408</ele>
        <time>1999-07-25T10:39:00Z</time>
      </trkpt>
      <trkpt lat="43.154561" lon="-6.952359">
        <ele>992.835</ele>
        <time>1999-07-25T10:39:03Z</time>
      </trkpt>
      <trkpt lat="43.154516" lon="-6.952334">
        <ele>993.671</ele>
        <time>1999-07-25T10:39:06Z</time>
      </trkpt>
      <trkpt lat="43.154501" lon="-6.952332">
        <ele>993.862</ele>
        <time>1999-07-25T10:39:07Z</time>
      </trkpt>
      <trkpt lat="43.154442" lon="-6.952310">
        <ele>995.027</ele>
        <time>1999-07-25T10:39:11Z</time>
      </trkpt>
      <trkpt lat="43.154401" lon="-6.952289">
        <ele>996.037</ele>
        <time>1999-07-25T10:39:14Z</time>
      </trkpt>
      <trkpt lat="43.154333" lon="-6.952269">
        <ele>997.224</ele>
        <time>1999-07-25T10:39:18Z</time>
      </trkpt>
      <trkpt lat="43.154305" lon="-6.952279">
        <ele>997.821</ele>
        <time>1999-07-25T10:39:20Z</time>
      </trkpt>
      <trkpt lat="43.154241" lon="-6.952288">
        <ele>998.699</ele>
        <time>1999-07-25T10:39:24Z</time>
      </trkpt>
      <trkpt lat="43.154229" lon="-6.952290">
        <ele>999.093</ele>
        <time>1999-07-25T10:39:25Z</time>
      </trkpt>
      <trkpt lat="43.154220" lon="-6.952298">
        <ele>999.265</ele>
        <time>1999-07-25T10:39:26Z</time>
      </trkpt>
      <trkpt lat="43.154208" lon="-6.952303">
        <ele>999.621</ele>
        <time>1999-07-25T10:39:27Z</time>
      </trkpt>
      <trkpt lat="43.154152" lon="-6.952310">
        <ele>1000.808</ele>
        <time>1999-07-25T10:39:31Z</time>
      </trkpt>
      <trkpt lat="43.154123" lon="-6.952313">
        <ele>1001.472</ele>
        <time>1999-07-25T10:39:33Z</time>
      </trkpt>
      <trkpt lat="43.154093" lon="-6.952324">
        <ele>1001.828</ele>
        <time>1999-07-25T10:39:35Z</time>
      </trkpt>
      <trkpt lat="43.154036" lon="-6.952344">
        <ele>1003.079</ele>
        <time>1999-07-25T10:39:39Z</time>
      </trkpt>
      <trkpt lat="43.153956" lon="-6.952383">
        <ele>1004.054</ele>
        <time>1999-07-25T10:39:45Z</time>
      </trkpt>
      <trkpt lat="43.153943" lon="-6.952393">
        <ele>1004.214</ele>
        <time>1999-07-25T10:39:46Z</time>
      </trkpt>
      <trkpt lat="43.153906" lon="-6.952423">
        <ele>1005.461</ele>
        <time>1999-07-25T10:39:49Z</time>
      </trkpt>
      <trkpt lat="43.153860" lon="-6.952470">
        <ele>1006.448</ele>
        <time>1999-07-25T10:39:53Z</time>
      </trkpt>
      <trkpt lat="43.153796" lon="-6.952517">
        <ele>1007.476</ele>
        <time>1999-07-25T10:39:58Z</time>
      </trkpt>
      <trkpt lat="43.153774" lon="-6.952532">
        <ele>1007.871</ele>
        <time>1999-07-25T10:40:00Z</time>
      </trkpt>
      <trkpt lat="43.153728" lon="-6.952572">
        <ele>1008.441</ele>
        <time>1999-07-25T10:40:04Z</time>
      </trkpt>
      <trkpt lat="43.153676" lon="-6.952620">
        <ele>1009.415</ele>
        <time>1999-07-25T10:40:08Z</time>
      </trkpt>
      <trkpt lat="43.153662" lon="-6.952632">
        <ele>1009.608</ele>
        <time>1999-07-25T10:40:09Z</time>
      </trkpt>
      <trkpt lat="43.153609" lon="-6.952679">
        <ele>1010.470</ele>
        <time>1999-07-25T10:40:13Z</time>
      </trkpt>
      <trkpt lat="43.153594" lon="-6.952687">
        <ele>1010.626</ele>
        <time>1999-07-25T10:40:14Z</time>
      </trkpt>
      <trkpt lat="43.153564" lon="-6.952710">
        <ele>1011.027</ele>
        <time>1999-07-25T10:40:16Z</time>
      </trkpt>
      <trkpt lat="43.153486" lon="-6.952782">
        <ele>1011.872</ele>
        <time>1999-07-25T10:40:22Z</time>
      </trkpt>
      <trkpt lat="43.153454" lon="-6.952825">
        <ele>1012.272</ele>
        <time>1999-07-25T10:40:25Z</time>
      </trkpt>
      <trkpt lat="43.153422" lon="-6.952873">
        <ele>1013.019</ele>
        <time>1999-07-25T10:40:28Z</time>
      </trkpt>
      <trkpt lat="43.153367" lon="-6.952963">
        <ele>1014.016</ele>
        <time>1999-07-25T10:40:34Z</time>
      </trkpt>
      <trkpt lat="43.153357" lon="-6.952977">
        <ele>1014.264</ele>
        <time>1999-07-25T10:40:35Z</time>
      </trkpt>
      <trkpt lat="43.153295" lon="-6.953045">
        <ele>1015.268</ele>
        <time>1999-07-25T10:40:40Z</time>
      </trkpt>
      <trkpt lat="43.153274" lon="-6.953079">
        <ele>1015.842</ele>
        <time>1999-07-25T10:40:42Z</time>
      </trkpt>
      <trkpt lat="43.153260" lon="-6.953111">
        <ele>1016.226</ele>
        <time>1999-07-25T10:40:44Z</time>
      </trkpt>
      <trkpt lat="43.153204" lon="-6.953198">
        <ele>1017.408</ele>
        <time>1999-07-25T10:40:50Z</time>
      </trkpt>
      <trkpt lat="43.153187" lon="-6.953234">
        <ele>1017.819</ele>
        <time>1999-07-25T10:40:52Z</time>
      </trkpt>
      <trkpt lat="43.153160" lon="-6.953291">
        <ele>1018.455</ele>
        <time>1999-07-25T10:40:56Z</time>
      </trkpt>
      <trkpt lat="43.153129" lon="-6.953352">
        <ele>1019.296</ele>
        <time>1999-07-25T10:41:00Z</time>
      </trkpt>
      <trkpt lat="43.153108" lon="-6.953382">
        <ele>1019.411</ele>
        <time>1999-07-25T10:41:02Z</time>
      </trkpt>
      <trkpt lat="43.153048" lon="-6.953437">
        <ele>1020.661</ele>
        <time>1999-07-25T10:41:07Z</time>
      </trkpt>
      <trkpt lat="43.152991" lon="-6.953549">
        <ele>1021.838</ele>
        <time>1999-07-25T10:41:13Z</time>
      </trkpt>
      <trkpt lat="43.152975" lon="-6.953580">
        <ele>1022.265</ele>
        <time>1999-07-25T10:41:15Z</time>
      </trkpt>
      <trkpt lat="43.152936" lon="-6.953648">
        <ele>1023.083</ele>
        <time>1999-07-25T10:41:19Z</time>
      </trkpt>
      <trkpt lat="43.152889" lon="-6.953734">
        <ele>1024.032</ele>
        <time>1999-07-25T10:41:24Z</time>
      </trkpt>
      <trkpt lat="43.152872" lon="-6.953768">
        <ele>1024.292</ele>
        <time>1999-07-25T10:41:26Z</time>
      </trkpt>
      <trkpt lat="43.152839" lon="-6.953840">
        <ele>1025.211</ele>
        <time>1999-07-25T10:41:30Z</time>
      </trkpt>
      <trkpt lat="43.152804" lon="-6.953931">
        <ele>1026.408</ele>
        <time>1999-07-25T10:41:35Z</time>
      </trkpt>
      <trkpt lat="43.152795" lon="-6.953945">
        <ele>1026.696</ele>
        <time>1999-07-25T10:41:36Z</time>
      </trkpt>
      <trkpt lat="43.152758" lon="-6.954003">
        <ele>1027.442</ele>
        <time>1999-07-25T10:41:40Z</time>
      </trkpt>
      <trkpt lat="43.152734" lon="-6.954054">
        <ele>1028.413</ele>
        <time>1999-07-25T10:41:43Z</time>
      </trkpt>
      <trkpt lat="43.152726" lon="-6.954073">
        <ele>1028.888</ele>
        <time>1999-07-25T10:41:44Z</time>
      </trkpt>
      <trkpt lat="43.152698" lon="-6.954146">
        <ele>1029.658</ele>
        <time>1999-07-25T10:41:48Z</time>
      </trkpt>
      <trkpt lat="43.152667" lon="-6.954219">
        <ele>1030.465</ele>
        <time>1999-07-25T10:41:52Z</time>
      </trkpt>
      <trkpt lat="43.152659" lon="-6.954238">
        <ele>1030.612</ele>
        <time>1999-07-25T10:41:53Z</time>
      </trkpt>
      <trkpt lat="43.152604" lon="-6.954350">
        <ele>1031.630</ele>
        <time>1999-07-25T10:41:59Z</time>
      </trkpt>
      <trkpt lat="43.152587" lon="-6.954383">
        <ele>1032.057</ele>
        <time>1999-07-25T10:42:01Z</time>
      </trkpt>
      <trkpt lat="43.152540" lon="-6.954481">
        <ele>1032.800</ele>
        <time>1999-07-25T10:42:07Z</time>
      </trkpt>
      <trkpt lat="43.152496" lon="-6.954543">
        <ele>1033.820</ele>
        <time>1999-07-25T10:42:11Z</time>
      </trkpt>
      <trkpt lat="43.152451" lon="-6.954600">
        <ele>1034.808</ele>
        <time>1999-07-25T10:42:15Z</time>
      </trkpt>
      <trkpt lat="43.152403" lon="-6.954680">
        <ele>1035.818</ele>
        <time>1999-07-25T10:42:20Z</time>
      </trkpt>
      <trkpt lat="43.152391" lon="-6.954692">
        <ele>1036.074</ele>
        <time>1999-07-25T10:42:21Z</time>
      </trkpt>
      <trkpt lat="43.152318" lon="-6.954746">
        <ele>1036.895</ele>
        <time>1999-07-25T10:42:26Z</time>
      </trkpt>
      <trkpt lat="43.152305" lon="-6.954752">
        <ele>1037.060</ele>
        <time>1999-07-25T10:42:27Z</time>
      </trkpt>
      <trkpt lat="43.152203" lon="-6.954740">
        <ele>1037.810</ele>
        <time>1999-07-25T10:42:34Z</time>
      </trkpt>
      <trkpt lat="43.152189" lon="-6.954731">
        <ele>1038.037</ele>
        <time>1999-07-25T10:42:35Z</time>
      </trkpt>
      <trkpt lat="43.152131" lon="-6.954689">
        <ele>1039.044</ele>
        <time>1999-07-25T10:42:39Z</time>
      </trkpt>
      <trkpt lat="43.152052" lon="-6.954656">
        <ele>1040.032</ele>
        <time>1999-07-25T10:42:44Z</time>
      </trkpt>
      <trkpt lat="43.152036" lon="-6.954654">
        <ele>1040.252</ele>
        <time>1999-07-25T10:42:45Z</time>
      </trkpt>
      <trkpt lat="43.151968" lon="-6.954653">
        <ele>1041.053</ele>
        <time>1999-07-25T10:42:49Z</time>
      </trkpt>
      <trkpt lat="43.151950" lon="-6.954652">
        <ele>1041.208</ele>
        <time>1999-07-25T10:42:50Z</time>
      </trkpt>
      <trkpt lat="43.151882" lon="-6.954657">
        <ele>1042.208</ele>
        <time>1999-07-25T10:42:54Z</time>
      </trkpt>
      <trkpt lat="43.151868" lon="-6.954663">
        <ele>1042.498</ele>
        <time>1999-07-25T10:42:55Z</time>
      </trkpt>
      <trkpt lat="43.151806" lon="-6.954673">
        <ele>1043.654</ele>
        <time>1999-07-25T10:42:59Z</time>
      </trkpt>
      <trkpt lat="43.151777" lon="-6.954688">
        <ele>1044.285</ele>
        <time>1999-07-25T10:43:01Z</time>
      </trkpt>
      <trkpt lat="43.151729" lon="-6.954715">
        <ele>1044.850</ele>
        <time>1999-07-25T10:43:04Z</time>
      </trkpt>
      <trkpt lat="43.151650" lon="-6.954747">
        <ele>1046.050</ele>
        <time>1999-07-25T10:43:09Z</time>
      </trkpt>
      <trkpt lat="43.151633" lon="-6.954750">
        <ele>1046.037</ele>
        <time>1999-07-25T10:43:10Z</time>
      </trkpt>
      <trkpt lat="43.151574" lon="-6.954769">
        <ele>1046.434</ele>
        <time>1999-07-25T10:43:14Z</time>
      </trkpt>
      <trkpt lat="43.151569" lon="-6.954771">
        <ele>1046.682</ele>
        <time>1999-07-25T10:43:16Z</time>
      </trkpt>
      <trkpt lat="43.151436" lon="-6.954849">
        <ele>1048.416</ele>
        <time>1999-07-25T10:45:31Z</time>
      </trkpt>
      <trkpt lat="43.151416" lon="-6.954857">
        <ele>1048.476</ele>
        <time>1999-07-25T10:45:32Z</time>
      </trkpt>
      <trkpt lat="43.151393" lon="-6.954864">
        <ele>1048.413</ele>
        <time>1999-07-25T10:45:33Z</time>
      </trkpt>
      <trkpt lat="43.151350" lon="-6.954875">
        <ele>1048.408</ele>
        <time>1999-07-25T10:45:35Z</time>
      </trkpt>
      <trkpt lat="43.151278" lon="-6.954889">
        <ele>1048.474</ele>
        <time>1999-07-25T10:45:38Z</time>
      </trkpt>
      <trkpt lat="43.151219" lon="-6.954900">
        <ele>1048.690</ele>
        <time>1999-07-25T10:45:40Z</time>
      </trkpt>
      <trkpt lat="43.151131" lon="-6.954935">
        <ele>1048.631</ele>
        <time>1999-07-25T10:45:43Z</time>
      </trkpt>
      <trkpt lat="43.151024" lon="-6.954980">
        <ele>1048.816</ele>
        <time>1999-07-25T10:45:46Z</time>
      </trkpt>
      <trkpt lat="43.150863" lon="-6.955066">
        <ele>1049.066</ele>
        <time>1999-07-25T10:45:50Z</time>
      </trkpt>
      <trkpt lat="43.150790" lon="-6.955121">
        <ele>1049.023</ele>
        <time>1999-07-25T10:45:52Z</time>
      </trkpt>
      <trkpt lat="43.150756" lon="-6.955147">
        <ele>1049.220</ele>
        <time>1999-07-25T10:45:53Z</time>
      </trkpt>
      <trkpt lat="43.150655" lon="-6.955227">
        <ele>1049.288</ele>
        <time>1999-07-25T10:45:56Z</time>
      </trkpt>
      <trkpt lat="43.150551" lon="-6.955310">
        <ele>1049.464</ele>
        <time>1999-07-25T10:45:59Z</time>
      </trkpt>
      <trkpt lat="43.150450" lon="-6.955388">
        <ele>1049.806</ele>
        <time>1999-07-25T10:46:02Z</time>
      </trkpt>
      <trkpt lat="43.150277" lon="-6.955491">
        <ele>1050.416</ele>
        <time>1999-07-25T10:46:07Z</time>
      </trkpt>
      <trkpt lat="43.150209" lon="-6.955529">
        <ele>1050.608</ele>
        <time>1999-07-25T10:46:09Z</time>
      </trkpt>
      <trkpt lat="43.150136" lon="-6.955556">
        <ele>1050.819</ele>
        <time>1999-07-25T10:46:11Z</time>
      </trkpt>
      <trkpt lat="43.149904" lon="-6.955626">
        <ele>1051.675</ele>
        <time>1999-07-25T10:46:17Z</time>
      </trkpt>
      <trkpt lat="43.149828" lon="-6.955656">
        <ele>1051.846</ele>
        <time>1999-07-25T10:46:19Z</time>
      </trkpt>
      <trkpt lat="43.149605" lon="-6.955737">
        <ele>1052.441</ele>
        <time>1999-07-25T10:46:25Z</time>
      </trkpt>
      <trkpt lat="43.149510" lon="-6.955766">
        <ele>1052.481</ele>
        <time>1999-07-25T10:46:29Z</time>
      </trkpt>
      <trkpt lat="43.149478" lon="-6.955780">
        <ele>1052.428</ele>
        <time>1999-07-25T10:46:31Z</time>
      </trkpt>
      <trkpt lat="43.149425" lon="-6.955835">
        <ele>1052.685</ele>
        <time>1999-07-25T10:46:35Z</time>
      </trkpt>
      <trkpt lat="43.149414" lon="-6.955848">
        <ele>1052.843</ele>
        <time>1999-07-25T10:46:36Z</time>
      </trkpt>
      <trkpt lat="43.149377" lon="-6.955896">
        <ele>1053.296</ele>
        <time>1999-07-25T10:46:39Z</time>
      </trkpt>
      <trkpt lat="43.149357" lon="-6.955931">
        <ele>1053.631</ele>
        <time>1999-07-25T10:46:41Z</time>
      </trkpt>
      <trkpt lat="43.149348" lon="-6.955943">
        <ele>1054.024</ele>
        <time>1999-07-25T10:46:42Z</time>
      </trkpt>
      <trkpt lat="43.149327" lon="-6.955963">
        <ele>1054.608</ele>
        <time>1999-07-25T10:46:44Z</time>
      </trkpt>
      <trkpt lat="43.149318" lon="-6.955977">
        <ele>1054.842</ele>
        <time>1999-07-25T10:46:45Z</time>
      </trkpt>
      <trkpt lat="43.149295" lon="-6.956004">
        <ele>1056.288</ele>
        <time>1999-07-25T10:46:48Z</time>
      </trkpt>
      <trkpt lat="43.149280" lon="-6.956027">
        <ele>1057.429</ele>
        <time>1999-07-25T10:46:50Z</time>
      </trkpt>
      <trkpt lat="43.149256" lon="-6.956058">
        <ele>1058.234</ele>
        <time>1999-07-25T10:46:53Z</time>
      </trkpt>
      <trkpt lat="43.149229" lon="-6.956106">
        <ele>1059.434</ele>
        <time>1999-07-25T10:46:57Z</time>
      </trkpt>
      <trkpt lat="43.149197" lon="-6.956149">
        <ele>1060.851</ele>
        <time>1999-07-25T10:47:01Z</time>
      </trkpt>
      <trkpt lat="43.149160" lon="-6.956218">
        <ele>1062.288</ele>
        <time>1999-07-25T10:47:06Z</time>
      </trkpt>
      <trkpt lat="43.149127" lon="-6.956291">
        <ele>1063.446</ele>
        <time>1999-07-25T10:47:11Z</time>
      </trkpt>
      <trkpt lat="43.149116" lon="-6.956306">
        <ele>1063.671</ele>
        <time>1999-07-25T10:47:12Z</time>
      </trkpt>
      <trkpt lat="43.149087" lon="-6.956362">
        <ele>1064.441</ele>
        <time>1999-07-25T10:47:16Z</time>
      </trkpt>
      <trkpt lat="43.149053" lon="-6.956447">
        <ele>1065.615</ele>
        <time>1999-07-25T10:47:21Z</time>
      </trkpt>
      <trkpt lat="43.149035" lon="-6.956493">
        <ele>1066.608</ele>
        <time>1999-07-25T10:47:25Z</time>
      </trkpt>
      <trkpt lat="43.149013" lon="-6.956545">
        <ele>1067.640</ele>
        <time>1999-07-25T10:47:28Z</time>
      </trkpt>
      <trkpt lat="43.149004" lon="-6.956565">
        <ele>1067.856</ele>
        <time>1999-07-25T10:47:29Z</time>
      </trkpt>
      <trkpt lat="43.148977" lon="-6.956622">
        <ele>1069.047</ele>
        <time>1999-07-25T10:47:33Z</time>
      </trkpt>
      <trkpt lat="43.148971" lon="-6.956638">
        <ele>1069.232</ele>
        <time>1999-07-25T10:47:34Z</time>
      </trkpt>
      <trkpt lat="43.148954" lon="-6.956714">
        <ele>1070.232</ele>
        <time>1999-07-25T10:47:38Z</time>
      </trkpt>
      <trkpt lat="43.148960" lon="-6.956785">
        <ele>1070.849</ele>
        <time>1999-07-25T10:47:41Z</time>
      </trkpt>
      <trkpt lat="43.148972" lon="-6.956831">
        <ele>1071.246</ele>
        <time>1999-07-25T10:47:43Z</time>
      </trkpt>
      <trkpt lat="43.149011" lon="-6.956960">
        <ele>1072.464</ele>
        <time>1999-07-25T10:47:48Z</time>
      </trkpt>
      <trkpt lat="43.149040" lon="-6.957166">
        <ele>1073.035</ele>
        <time>1999-07-25T10:47:53Z</time>
      </trkpt>
      <trkpt lat="43.149043" lon="-6.957273">
        <ele>1073.086</ele>
        <time>1999-07-25T10:47:56Z</time>
      </trkpt>
      <trkpt lat="43.149047" lon="-6.957386">
        <ele>1073.214</ele>
        <time>1999-07-25T10:47:59Z</time>
      </trkpt>
      <trkpt lat="43.149047" lon="-6.957432">
        <ele>1073.208</ele>
        <time>1999-07-25T10:48:00Z</time>
      </trkpt>
      <trkpt lat="43.149058" lon="-6.957527">
        <ele>1073.456</ele>
        <time>1999-07-25T10:48:02Z</time>
      </trkpt>
      <trkpt lat="43.149065" lon="-6.957636">
        <ele>1073.412</ele>
        <time>1999-07-25T10:48:04Z</time>
      </trkpt>
      <trkpt lat="43.149062" lon="-6.957700">
        <ele>1073.463</ele>
        <time>1999-07-25T10:48:05Z</time>
      </trkpt>
      <trkpt lat="43.149048" lon="-6.957832">
        <ele>1073.428</ele>
        <time>1999-07-25T10:48:07Z</time>
      </trkpt>
      <trkpt lat="43.149021" lon="-6.957998">
        <ele>1073.468</ele>
        <time>1999-07-25T10:48:09Z</time>
      </trkpt>
      <trkpt lat="43.149002" lon="-6.958084">
        <ele>1073.465</ele>
        <time>1999-07-25T10:48:10Z</time>
      </trkpt>
      <trkpt lat="43.148973" lon="-6.958260">
        <ele>1073.212</ele>
        <time>1999-07-25T10:48:12Z</time>
      </trkpt>
      <trkpt lat="43.148961" lon="-6.958353">
        <ele>1072.890</ele>
        <time>1999-07-25T10:48:13Z</time>
      </trkpt>
      <trkpt lat="43.148955" lon="-6.958441">
        <ele>1072.685</ele>
        <time>1999-07-25T10:48:14Z</time>
      </trkpt>
      <trkpt lat="43.148946" lon="-6.958615">
        <ele>1072.289</ele>
        <time>1999-07-25T10:48:16Z</time>
      </trkpt>
      <trkpt lat="43.148927" lon="-6.958850">
        <ele>1071.417</ele>
        <time>1999-07-25T10:48:19Z</time>
      </trkpt>
      <trkpt lat="43.148902" lon="-6.959001">
        <ele>1071.008</ele>
        <time>1999-07-25T10:48:21Z</time>
      </trkpt>
      <trkpt lat="43.148876" lon="-6.959148">
        <ele>1070.831</ele>
        <time>1999-07-25T10:48:23Z</time>
      </trkpt>
      <trkpt lat="43.148792" lon="-6.959665">
        <ele>1070.657</ele>
        <time>1999-07-25T10:48:30Z</time>
      </trkpt>
      <trkpt lat="43.148781" lon="-6.959738">
        <ele>1070.828</ele>
        <time>1999-07-25T10:48:31Z</time>
      </trkpt>
      <trkpt lat="43.148729" lon="-6.960102">
        <ele>1070.823</ele>
        <time>1999-07-25T10:48:36Z</time>
      </trkpt>
      <trkpt lat="43.148709" lon="-6.960242">
        <ele>1070.813</ele>
        <time>1999-07-25T10:48:38Z</time>
      </trkpt>
      <trkpt lat="43.148690" lon="-6.960316">
        <ele>1070.850</ele>
        <time>1999-07-25T10:48:39Z</time>
      </trkpt>
      <trkpt lat="43.148569" lon="-6.960707">
        <ele>1071.097</ele>
        <time>1999-07-25T10:48:44Z</time>
      </trkpt>
      <trkpt lat="43.148439" lon="-6.961145">
        <ele>1070.825</ele>
        <time>1999-07-25T10:48:49Z</time>
      </trkpt>
      <trkpt lat="43.148391" lon="-6.961287">
        <ele>1070.663</ele>
        <time>1999-07-25T10:48:51Z</time>
      </trkpt>
      <trkpt lat="43.148316" lon="-6.961384">
        <ele>1070.244</ele>
        <time>1999-07-25T10:48:53Z</time>
      </trkpt>
      <trkpt lat="43.148244" lon="-6.961426">
        <ele>1069.818</ele>
        <time>1999-07-25T10:48:55Z</time>
      </trkpt>
      <trkpt lat="43.148169" lon="-6.961455">
        <ele>1068.808</ele>
        <time>1999-07-25T10:48:57Z</time>
      </trkpt>
      <trkpt lat="43.148133" lon="-6.961465">
        <ele>1068.019</ele>
        <time>1999-07-25T10:48:58Z</time>
      </trkpt>
      <trkpt lat="43.148098" lon="-6.961477">
        <ele>1066.445</ele>
        <time>1999-07-25T10:48:59Z</time>
      </trkpt>
      <trkpt lat="43.147938" lon="-6.961518">
        <ele>1066.046</ele>
        <time>1999-07-25T10:49:04Z</time>
      </trkpt>
      <trkpt lat="43.147914" lon="-6.961520">
        <ele>1066.051</ele>
        <time>1999-07-25T10:49:05Z</time>
      </trkpt>
      <trkpt lat="43.147847" lon="-6.961537">
        <ele>1066.081</ele>
        <time>1999-07-25T10:49:08Z</time>
      </trkpt>
      <trkpt lat="43.147790" lon="-6.961554">
        <ele>1066.038</ele>
        <time>1999-07-25T10:49:10Z</time>
      </trkpt>
      <trkpt lat="43.147758" lon="-6.961564">
        <ele>1066.025</ele>
        <time>1999-07-25T10:49:11Z</time>
      </trkpt>
      <trkpt lat="43.147696" lon="-6.961598">
        <ele>1066.033</ele>
        <time>1999-07-25T10:49:13Z</time>
      </trkpt>
      <trkpt lat="43.147630" lon="-6.961633">
        <ele>1066.217</ele>
        <time>1999-07-25T10:49:15Z</time>
      </trkpt>
      <trkpt lat="43.147568" lon="-6.961663">
        <ele>1066.687</ele>
        <time>1999-07-25T10:49:17Z</time>
      </trkpt>
      <trkpt lat="43.147434" lon="-6.961715">
        <ele>1067.615</ele>
        <time>1999-07-25T10:49:21Z</time>
      </trkpt>
      <trkpt lat="43.147336" lon="-6.961762">
        <ele>1068.008</ele>
        <time>1999-07-25T10:49:24Z</time>
      </trkpt>
      <trkpt lat="43.147307" lon="-6.961779">
        <ele>1068.474</ele>
        <time>1999-07-25T10:49:25Z</time>
      </trkpt>
      <trkpt lat="43.147100" lon="-6.961891">
        <ele>1069.630</ele>
        <time>1999-07-25T10:49:32Z</time>
      </trkpt>
      <trkpt lat="43.146926" lon="-6.962001">
        <ele>1070.661</ele>
        <time>1999-07-25T10:49:38Z</time>
      </trkpt>
      <trkpt lat="43.146892" lon="-6.962024">
        <ele>1070.856</ele>
        <time>1999-07-25T10:49:39Z</time>
      </trkpt>
      <trkpt lat="43.146714" lon="-6.962155">
        <ele>1071.856</ele>
        <time>1999-07-25T10:49:44Z</time>
      </trkpt>
      <trkpt lat="43.146632" lon="-6.962217">
        <ele>1072.023</ele>
        <time>1999-07-25T10:49:46Z</time>
      </trkpt>
      <trkpt lat="43.146349" lon="-6.962425">
        <ele>1072.260</ele>
        <time>1999-07-25T10:49:52Z</time>
      </trkpt>
      <trkpt lat="43.146218" lon="-6.962601">
        <ele>1072.288</ele>
        <time>1999-07-25T10:49:55Z</time>
      </trkpt>
      <trkpt lat="43.146113" lon="-6.962762">
        <ele>1072.275</ele>
        <time>1999-07-25T10:49:57Z</time>
      </trkpt>
      <trkpt lat="43.146059" lon="-6.962858">
        <ele>1072.028</ele>
        <time>1999-07-25T10:49:58Z</time>
      </trkpt>
      <trkpt lat="43.145952" lon="-6.963043">
        <ele>1072.020</ele>
        <time>1999-07-25T10:50:00Z</time>
      </trkpt>
      <trkpt lat="43.145842" lon="-6.963210">
        <ele>1071.808</ele>
        <time>1999-07-25T10:50:02Z</time>
      </trkpt>
      <trkpt lat="43.145718" lon="-6.963410">
        <ele>1070.870</ele>
        <time>1999-07-25T10:50:05Z</time>
      </trkpt>
      <trkpt lat="43.145679" lon="-6.963470">
        <ele>1069.826</ele>
        <time>1999-07-25T10:50:06Z</time>
      </trkpt>
      <trkpt lat="43.145637" lon="-6.963534">
        <ele>1068.837</ele>
        <time>1999-07-25T10:50:07Z</time>
      </trkpt>
      <trkpt lat="43.145599" lon="-6.963606">
        <ele>1067.622</ele>
        <time>1999-07-25T10:50:08Z</time>
      </trkpt>
      <trkpt lat="43.145560" lon="-6.963686">
        <ele>1066.032</ele>
        <time>1999-07-25T10:50:09Z</time>
      </trkpt>
      <trkpt lat="43.145519" lon="-6.963771">
        <ele>1064.669</ele>
        <time>1999-07-25T10:50:10Z</time>
      </trkpt>
      <trkpt lat="43.145471" lon="-6.963858">
        <ele>1063.276</ele>
        <time>1999-07-25T10:50:11Z</time>
      </trkpt>
      <trkpt lat="43.145418" lon="-6.963957">
        <ele>1062.244</ele>
        <time>1999-07-25T10:50:12Z</time>
      </trkpt>
      <trkpt lat="43.145362" lon="-6.964059">
        <ele>1060.879</ele>
        <time>1999-07-25T10:50:13Z</time>
      </trkpt>
      <trkpt lat="43.145303" lon="-6.964155">
        <ele>1059.605</ele>
        <time>1999-07-25T10:50:14Z</time>
      </trkpt>
      <trkpt lat="43.145238" lon="-6.964247">
        <ele>1058.225</ele>
        <time>1999-07-25T10:50:15Z</time>
      </trkpt>
      <trkpt lat="43.145174" lon="-6.964337">
        <ele>1056.808</ele>
        <time>1999-07-25T10:50:16Z</time>
      </trkpt>
      <trkpt lat="43.145110" lon="-6.964420">
        <ele>1055.870</ele>
        <time>1999-07-25T10:50:17Z</time>
      </trkpt>
      <trkpt lat="43.145048" lon="-6.964499">
        <ele>1054.496</ele>
        <time>1999-07-25T10:50:18Z</time>
      </trkpt>
      <trkpt lat="43.144988" lon="-6.964581">
        <ele>1053.057</ele>
        <time>1999-07-25T10:50:19Z</time>
      </trkpt>
      <trkpt lat="43.144933" lon="-6.964673">
        <ele>1051.812</ele>
        <time>1999-07-25T10:50:20Z</time>
      </trkpt>
      <trkpt lat="43.144889" lon="-6.964779">
        <ele>1050.412</ele>
        <time>1999-07-25T10:50:21Z</time>
      </trkpt>
      <trkpt lat="43.144854" lon="-6.964893">
        <ele>1048.829</ele>
        <time>1999-07-25T10:50:22Z</time>
      </trkpt>
      <trkpt lat="43.144829" lon="-6.965011">
        <ele>1047.056</ele>
        <time>1999-07-25T10:50:23Z</time>
      </trkpt>
      <trkpt lat="43.144811" lon="-6.965132">
        <ele>1045.264</ele>
        <time>1999-07-25T10:50:24Z</time>
      </trkpt>
      <trkpt lat="43.144795" lon="-6.965253">
        <ele>1043.419</ele>
        <time>1999-07-25T10:50:25Z</time>
      </trkpt>
      <trkpt lat="43.144781" lon="-6.965371">
        <ele>1041.609</ele>
        <time>1999-07-25T10:50:26Z</time>
      </trkpt>
      <trkpt lat="43.144770" lon="-6.965486">
        <ele>1039.819</ele>
        <time>1999-07-25T10:50:27Z</time>
      </trkpt>
      <trkpt lat="43.144756" lon="-6.965598">
        <ele>1039.008</ele>
        <time>1999-07-25T10:50:28Z</time>
      </trkpt>
      <trkpt lat="43.144736" lon="-6.965702">
        <ele>1038.224</ele>
        <time>1999-07-25T10:50:29Z</time>
      </trkpt>
      <trkpt lat="43.144690" lon="-6.965886">
        <ele>1037.090</ele>
        <time>1999-07-25T10:50:31Z</time>
      </trkpt>
      <trkpt lat="43.144670" lon="-6.965969">
        <ele>1036.841</ele>
        <time>1999-07-25T10:50:32Z</time>
      </trkpt>
      <trkpt lat="43.144627" lon="-6.966119">
        <ele>1036.026</ele>
        <time>1999-07-25T10:50:34Z</time>
      </trkpt>
      <trkpt lat="43.144585" lon="-6.966247">
        <ele>1034.416</ele>
        <time>1999-07-25T10:50:36Z</time>
      </trkpt>
      <trkpt lat="43.144553" lon="-6.966315">
        <ele>1033.243</ele>
        <time>1999-07-25T10:50:37Z</time>
      </trkpt>
      <trkpt lat="43.144508" lon="-6.966392">
        <ele>1031.840</ele>
        <time>1999-07-25T10:50:38Z</time>
      </trkpt>
      <trkpt lat="43.144457" lon="-6.966472">
        <ele>1030.498</ele>
        <time>1999-07-25T10:50:39Z</time>
      </trkpt>
      <trkpt lat="43.144393" lon="-6.966553">
        <ele>1028.849</ele>
        <time>1999-07-25T10:50:40Z</time>
      </trkpt>
      <trkpt lat="43.144314" lon="-6.966632">
        <ele>1027.602</ele>
        <time>1999-07-25T10:50:41Z</time>
      </trkpt>
      <trkpt lat="43.144138" lon="-6.966771">
        <ele>1025.622</ele>
        <time>1999-07-25T10:50:43Z</time>
      </trkpt>
      <trkpt lat="43.144049" lon="-6.966832">
        <ele>1024.208</ele>
        <time>1999-07-25T10:50:44Z</time>
      </trkpt>
      <trkpt lat="43.143968" lon="-6.966887">
        <ele>1023.057</ele>
        <time>1999-07-25T10:50:45Z</time>
      </trkpt>
      <trkpt lat="43.143825" lon="-6.966977">
        <ele>1021.613</ele>
        <time>1999-07-25T10:50:47Z</time>
      </trkpt>
      <trkpt lat="43.143750" lon="-6.967014">
        <ele>1020.864</ele>
        <time>1999-07-25T10:50:48Z</time>
      </trkpt>
      <trkpt lat="43.143677" lon="-6.967045">
        <ele>1019.839</ele>
        <time>1999-07-25T10:50:49Z</time>
      </trkpt>
      <trkpt lat="43.143537" lon="-6.967090">
        <ele>1017.629</ele>
        <time>1999-07-25T10:50:51Z</time>
      </trkpt>
      <trkpt lat="43.143480" lon="-6.967110">
        <ele>1016.656</ele>
        <time>1999-07-25T10:50:52Z</time>
      </trkpt>
      <trkpt lat="43.143434" lon="-6.967131">
        <ele>1015.263</ele>
        <time>1999-07-25T10:50:53Z</time>
      </trkpt>
      <trkpt lat="43.143401" lon="-6.967157">
        <ele>1013.681</ele>
        <time>1999-07-25T10:50:54Z</time>
      </trkpt>
      <trkpt lat="43.143386" lon="-6.967199">
        <ele>1011.811</ele>
        <time>1999-07-25T10:50:55Z</time>
      </trkpt>
      <trkpt lat="43.143387" lon="-6.967240">
        <ele>1010.221</ele>
        <time>1999-07-25T10:50:56Z</time>
      </trkpt>
      <trkpt lat="43.143404" lon="-6.967282">
        <ele>1007.603</ele>
        <time>1999-07-25T10:50:57Z</time>
      </trkpt>
      <trkpt lat="43.143432" lon="-6.967324">
        <ele>1006.408</ele>
        <time>1999-07-25T10:50:58Z</time>
      </trkpt>
      <trkpt lat="43.143469" lon="-6.967368">
        <ele>1005.094</ele>
        <time>1999-07-25T10:50:59Z</time>
      </trkpt>
      <trkpt lat="43.143517" lon="-6.967410">
        <ele>1003.480</ele>
        <time>1999-07-25T10:51:00Z</time>
      </trkpt>
      <trkpt lat="43.143571" lon="-6.967455">
        <ele>1002.081</ele>
        <time>1999-07-25T10:51:01Z</time>
      </trkpt>
      <trkpt lat="43.143631" lon="-6.967508">
        <ele>1000.856</ele>
        <time>1999-07-25T10:51:02Z</time>
      </trkpt>
      <trkpt lat="43.143692" lon="-6.967570">
        <ele>999.846</ele>
        <time>1999-07-25T10:51:03Z</time>
      </trkpt>
      <trkpt lat="43.143799" lon="-6.967683">
        <ele>998.013</ele>
        <time>1999-07-25T10:51:05Z</time>
      </trkpt>
      <trkpt lat="43.143839" lon="-6.967741">
        <ele>997.480</ele>
        <time>1999-07-25T10:51:06Z</time>
      </trkpt>
      <trkpt lat="43.143891" lon="-6.967840">
        <ele>996.848</ele>
        <time>1999-07-25T10:51:08Z</time>
      </trkpt>
      <trkpt lat="43.143893" lon="-6.967883">
        <ele>996.236</ele>
        <time>1999-07-25T10:51:09Z</time>
      </trkpt>
      <trkpt lat="43.143875" lon="-6.967922">
        <ele>995.617</ele>
        <time>1999-07-25T10:51:10Z</time>
      </trkpt>
      <trkpt lat="43.143853" lon="-6.967952">
        <ele>995.018</ele>
        <time>1999-07-25T10:51:11Z</time>
      </trkpt>
      <trkpt lat="43.143834" lon="-6.967978">
        <ele>994.208</ele>
        <time>1999-07-25T10:51:12Z</time>
      </trkpt>
      <trkpt lat="43.143819" lon="-6.968014">
        <ele>993.226</ele>
        <time>1999-07-25T10:51:13Z</time>
      </trkpt>
      <trkpt lat="43.143804" lon="-6.968059">
        <ele>991.622</ele>
        <time>1999-07-25T10:51:15Z</time>
      </trkpt>
      <trkpt lat="43.143801" lon="-6.968082">
        <ele>990.673</ele>
        <time>1999-07-25T10:51:16Z</time>
      </trkpt>
      <trkpt lat="43.143799" lon="-6.968108">
        <ele>989.658</ele>
        <time>1999-07-25T10:51:17Z</time>
      </trkpt>
      <trkpt lat="43.143799" lon="-6.968138">
        <ele>988.638</ele>
        <time>1999-07-25T10:51:18Z</time>
      </trkpt>
      <trkpt lat="43.143799" lon="-6.968213">
        <ele>987.455</ele>
        <time>1999-07-25T10:51:20Z</time>
      </trkpt>
      <trkpt lat="43.143798" lon="-6.968255">
        <ele>987.022</ele>
        <time>1999-07-25T10:51:21Z</time>
      </trkpt>
      <trkpt lat="43.143738" lon="-6.968468">
        <ele>986.430</ele>
        <time>1999-07-25T10:51:26Z</time>
      </trkpt>
      <trkpt lat="43.143725" lon="-6.968521">
        <ele>986.427</ele>
        <time>1999-07-25T10:51:27Z</time>
      </trkpt>
      <trkpt lat="43.143685" lon="-6.968692">
        <ele>986.268</ele>
        <time>1999-07-25T10:51:30Z</time>
      </trkpt>
      <trkpt lat="43.143652" lon="-6.968863">
        <ele>986.014</ele>
        <time>1999-07-25T10:51:33Z</time>
      </trkpt>
      <trkpt lat="43.143634" lon="-6.968966">
        <ele>986.008</ele>
        <time>1999-07-25T10:51:35Z</time>
      </trkpt>
      <trkpt lat="43.143635" lon="-6.969120">
        <ele>985.835</ele>
        <time>1999-07-25T10:51:38Z</time>
      </trkpt>
      <trkpt lat="43.143638" lon="-6.969221">
        <ele>985.881</ele>
        <time>1999-07-25T10:51:40Z</time>
      </trkpt>
      <trkpt lat="43.143599" lon="-6.969300">
        <ele>985.832</ele>
        <time>1999-07-25T10:51:42Z</time>
      </trkpt>
      <trkpt lat="43.143508" lon="-6.969366">
        <ele>985.867</ele>
        <time>1999-07-25T10:51:45Z</time>
      </trkpt>
      <trkpt lat="43.143452" lon="-6.969398">
        <ele>986.047</ele>
        <time>1999-07-25T10:51:47Z</time>
      </trkpt>
      <trkpt lat="43.143365" lon="-6.969472">
        <ele>986.464</ele>
        <time>1999-07-25T10:51:52Z</time>
      </trkpt>
      <trkpt lat="43.143331" lon="-6.969490">
        <ele>986.891</ele>
        <time>1999-07-25T10:51:54Z</time>
      </trkpt>
      <trkpt lat="43.143300" lon="-6.969505">
        <ele>987.099</ele>
        <time>1999-07-25T10:51:56Z</time>
      </trkpt>
      <trkpt lat="43.143272" lon="-6.969520">
        <ele>987.495</ele>
        <time>1999-07-25T10:51:58Z</time>
      </trkpt>
      <trkpt lat="43.143259" lon="-6.969527">
        <ele>987.649</ele>
        <time>1999-07-25T10:51:59Z</time>
      </trkpt>
      <trkpt lat="43.143224" lon="-6.969543">
        <ele>988.423</ele>
        <time>1999-07-25T10:52:02Z</time>
      </trkpt>
      <trkpt lat="43.143185" lon="-6.969569">
        <ele>989.208</ele>
        <time>1999-07-25T10:52:05Z</time>
      </trkpt>
      <trkpt lat="43.143158" lon="-6.969587">
        <ele>989.642</ele>
        <time>1999-07-25T10:52:07Z</time>
      </trkpt>
      <trkpt lat="43.143109" lon="-6.969619">
        <ele>990.698</ele>
        <time>1999-07-25T10:52:11Z</time>
      </trkpt>
      <trkpt lat="43.143061" lon="-6.969666">
        <ele>991.499</ele>
        <time>1999-07-25T10:52:15Z</time>
      </trkpt>
      <trkpt lat="43.143051" lon="-6.969674">
        <ele>991.814</ele>
        <time>1999-07-25T10:52:16Z</time>
      </trkpt>
      <trkpt lat="43.143004" lon="-6.969701">
        <ele>993.024</ele>
        <time>1999-07-25T10:52:20Z</time>
      </trkpt>
      <trkpt lat="43.142968" lon="-6.969716">
        <ele>993.891</ele>
        <time>1999-07-25T10:52:23Z</time>
      </trkpt>
      <trkpt lat="43.142937" lon="-6.969725">
        <ele>994.288</ele>
        <time>1999-07-25T10:52:25Z</time>
      </trkpt>
      <trkpt lat="43.142851" lon="-6.969760">
        <ele>995.286</ele>
        <time>1999-07-25T10:52:30Z</time>
      </trkpt>
      <trkpt lat="43.142817" lon="-6.969771">
        <ele>995.488</ele>
        <time>1999-07-25T10:52:32Z</time>
      </trkpt>
      <trkpt lat="43.142735" lon="-6.969797">
        <ele>996.424</ele>
        <time>1999-07-25T10:52:37Z</time>
      </trkpt>
      <trkpt lat="43.142689" lon="-6.969856">
        <ele>997.026</ele>
        <time>1999-07-25T10:52:41Z</time>
      </trkpt>
      <trkpt lat="43.142690" lon="-6.969883">
        <ele>997.408</ele>
        <time>1999-07-25T10:52:43Z</time>
      </trkpt>
      <trkpt lat="43.142695" lon="-6.969884">
        <ele>997.641</ele>
        <time>1999-07-25T10:52:45Z</time>
      </trkpt>
      <trkpt lat="43.142807" lon="-6.969901">
        <ele>999.817</ele>
        <time>1999-07-25T10:52:58Z</time>
      </trkpt>
      <trkpt lat="43.142890" lon="-6.969913">
        <ele>1000.478</ele>
        <time>1999-07-25T10:53:03Z</time>
      </trkpt>
      <trkpt lat="43.142906" lon="-6.969915">
        <ele>1000.643</ele>
        <time>1999-07-25T10:53:04Z</time>
      </trkpt>
      <trkpt lat="43.142952" lon="-6.969927">
        <ele>1000.823</ele>
        <time>1999-07-25T10:53:07Z</time>
      </trkpt>
      <trkpt lat="43.143022" lon="-6.969971">
        <ele>1001.890</ele>
        <time>1999-07-25T10:53:12Z</time>
      </trkpt>
      <trkpt lat="43.143035" lon="-6.969979">
        <ele>1002.087</ele>
        <time>1999-07-25T10:53:13Z</time>
      </trkpt>
      <trkpt lat="43.143117" lon="-6.970042">
        <ele>1003.025</ele>
        <time>1999-07-25T10:53:19Z</time>
      </trkpt>
      <trkpt lat="43.143148" lon="-6.970055">
        <ele>1003.687</ele>
        <time>1999-07-25T10:53:21Z</time>
      </trkpt>
      <trkpt lat="43.143177" lon="-6.970062">
        <ele>1004.042</ele>
        <time>1999-07-25T10:53:23Z</time>
      </trkpt>
      <trkpt lat="43.143236" lon="-6.970087">
        <ele>1005.426</ele>
        <time>1999-07-25T10:53:27Z</time>
      </trkpt>
      <trkpt lat="43.143296" lon="-6.970121">
        <ele>1006.208</ele>
        <time>1999-07-25T10:53:31Z</time>
      </trkpt>
      <trkpt lat="43.143323" lon="-6.970148">
        <ele>1006.471</ele>
        <time>1999-07-25T10:53:33Z</time>
      </trkpt>
      <trkpt lat="43.143391" lon="-6.970223">
        <ele>1007.487</ele>
        <time>1999-07-25T10:53:39Z</time>
      </trkpt>
      <trkpt lat="43.143405" lon="-6.970225">
        <ele>1007.658</ele>
        <time>1999-07-25T10:53:40Z</time>
      </trkpt>
      <trkpt lat="43.143478" lon="-6.970260">
        <ele>1009.053</ele>
        <time>1999-07-25T10:53:45Z</time>
      </trkpt>
      <trkpt lat="43.143510" lon="-6.970276">
        <ele>1009.453</ele>
        <time>1999-07-25T10:53:47Z</time>
      </trkpt>
      <trkpt lat="43.143590" lon="-6.970323">
        <ele>1010.260</ele>
        <time>1999-07-25T10:53:52Z</time>
      </trkpt>
      <trkpt lat="43.143644" lon="-6.970360">
        <ele>1010.867</ele>
        <time>1999-07-25T10:53:55Z</time>
      </trkpt>
      <trkpt lat="43.143693" lon="-6.970393">
        <ele>1011.225</ele>
        <time>1999-07-25T10:53:58Z</time>
      </trkpt>
      <trkpt lat="43.143786" lon="-6.970446">
        <ele>1012.477</ele>
        <time>1999-07-25T10:54:04Z</time>
      </trkpt>
      <trkpt lat="43.143899" lon="-6.970521">
        <ele>1013.461</ele>
        <time>1999-07-25T10:54:12Z</time>
      </trkpt>
      <trkpt lat="43.143934" lon="-6.970660">
        <ele>1014.427</ele>
        <time>1999-07-25T10:54:19Z</time>
      </trkpt>
      <trkpt lat="43.143935" lon="-6.970683">
        <ele>1014.608</ele>
        <time>1999-07-25T10:54:20Z</time>
      </trkpt>
      <trkpt lat="43.143931" lon="-6.970809">
        <ele>1015.870</ele>
        <time>1999-07-25T10:54:25Z</time>
      </trkpt>
      <trkpt lat="43.143920" lon="-6.970860">
        <ele>1016.226</ele>
        <time>1999-07-25T10:54:27Z</time>
      </trkpt>
      <trkpt lat="43.143890" lon="-6.970951">
        <ele>1016.887</ele>
        <time>1999-07-25T10:54:31Z</time>
      </trkpt>
      <trkpt lat="43.143842" lon="-6.971087">
        <ele>1017.652</ele>
        <time>1999-07-25T10:54:37Z</time>
      </trkpt>
      <trkpt lat="43.143827" lon="-6.971143">
        <ele>1018.062</ele>
        <time>1999-07-25T10:54:39Z</time>
      </trkpt>
      <trkpt lat="43.143799" lon="-6.971334">
        <ele>1018.669</ele>
        <time>1999-07-25T10:54:45Z</time>
      </trkpt>
      <trkpt lat="43.143793" lon="-6.971398">
        <ele>1019.056</ele>
        <time>1999-07-25T10:54:47Z</time>
      </trkpt>
      <trkpt lat="43.143766" lon="-6.971556">
        <ele>1019.284</ele>
        <time>1999-07-25T10:54:51Z</time>
      </trkpt>
      <trkpt lat="43.143758" lon="-6.971608">
        <ele>1019.261</ele>
        <time>1999-07-25T10:54:52Z</time>
      </trkpt>
      <trkpt lat="43.143721" lon="-6.971960">
        <ele>1019.421</ele>
        <time>1999-07-25T10:54:57Z</time>
      </trkpt>
      <trkpt lat="43.143734" lon="-6.972211">
        <ele>1019.213</ele>
        <time>1999-07-25T10:55:00Z</time>
      </trkpt>
      <trkpt lat="43.143742" lon="-6.972300">
        <ele>1018.808</ele>
        <time>1999-07-25T10:55:01Z</time>
      </trkpt>
      <trkpt lat="43.143750" lon="-6.972389">
        <ele>1018.669</ele>
        <time>1999-07-25T10:55:02Z</time>
      </trkpt>
      <trkpt lat="43.143770" lon="-6.972570">
        <ele>1018.285</ele>
        <time>1999-07-25T10:55:04Z</time>
      </trkpt>
      <trkpt lat="43.143796" lon="-6.972757">
        <ele>1017.656</ele>
        <time>1999-07-25T10:55:06Z</time>
      </trkpt>
      <trkpt lat="43.143812" lon="-6.972840">
        <ele>1016.891</ele>
        <time>1999-07-25T10:55:07Z</time>
      </trkpt>
      <trkpt lat="43.143828" lon="-6.972913">
        <ele>1016.041</ele>
        <time>1999-07-25T10:55:08Z</time>
      </trkpt>
      <trkpt lat="43.143848" lon="-6.973029">
        <ele>1014.478</ele>
        <time>1999-07-25T10:55:10Z</time>
      </trkpt>
      <trkpt lat="43.143858" lon="-6.973076">
        <ele>1013.455</ele>
        <time>1999-07-25T10:55:11Z</time>
      </trkpt>
      <trkpt lat="43.143895" lon="-6.973213">
        <ele>1011.273</ele>
        <time>1999-07-25T10:55:13Z</time>
      </trkpt>
      <trkpt lat="43.143919" lon="-6.973308">
        <ele>1010.427</ele>
        <time>1999-07-25T10:55:14Z</time>
      </trkpt>
      <trkpt lat="43.143945" lon="-6.973409">
        <ele>1009.268</ele>
        <time>1999-07-25T10:55:15Z</time>
      </trkpt>
      <trkpt lat="43.143998" lon="-6.973619">
        <ele>1007.414</ele>
        <time>1999-07-25T10:55:17Z</time>
      </trkpt>
      <trkpt lat="43.144027" lon="-6.973737">
        <ele>1006.008</ele>
        <time>1999-07-25T10:55:18Z</time>
      </trkpt>
      <trkpt lat="43.144059" lon="-6.973849">
        <ele>1005.025</ele>
        <time>1999-07-25T10:55:19Z</time>
      </trkpt>
      <trkpt lat="43.144085" lon="-6.973957">
        <ele>1004.221</ele>
        <time>1999-07-25T10:55:20Z</time>
      </trkpt>
      <trkpt lat="43.144103" lon="-6.974060">
        <ele>1003.662</ele>
        <time>1999-07-25T10:55:21Z</time>
      </trkpt>
      <trkpt lat="43.144106" lon="-6.974227">
        <ele>1002.267</ele>
        <time>1999-07-25T10:55:23Z</time>
      </trkpt>
      <trkpt lat="43.144060" lon="-6.974402">
        <ele>1000.467</ele>
        <time>1999-07-25T10:55:25Z</time>
      </trkpt>
      <trkpt lat="43.144030" lon="-6.974504">
        <ele>999.214</ele>
        <time>1999-07-25T10:55:26Z</time>
      </trkpt>
      <trkpt lat="43.144011" lon="-6.974617">
        <ele>998.281</ele>
        <time>1999-07-25T10:55:27Z</time>
      </trkpt>
      <trkpt lat="43.144002" lon="-6.974735">
        <ele>996.049</ele>
        <time>1999-07-25T10:55:28Z</time>
      </trkpt>
      <trkpt lat="43.143996" lon="-6.974855">
        <ele>995.014</ele>
        <time>1999-07-25T10:55:29Z</time>
      </trkpt>
      <trkpt lat="43.143984" lon="-6.974966">
        <ele>993.854</ele>
        <time>1999-07-25T10:55:30Z</time>
      </trkpt>
      <trkpt lat="43.143963" lon="-6.975061">
        <ele>992.809</ele>
        <time>1999-07-25T10:55:31Z</time>
      </trkpt>
      <trkpt lat="43.143930" lon="-6.975133">
        <ele>992.008</ele>
        <time>1999-07-25T10:55:32Z</time>
      </trkpt>
      <trkpt lat="43.143888" lon="-6.975184">
        <ele>991.034</ele>
        <time>1999-07-25T10:55:33Z</time>
      </trkpt>
      <trkpt lat="43.143802" lon="-6.975229">
        <ele>989.620</ele>
        <time>1999-07-25T10:55:35Z</time>
      </trkpt>
      <trkpt lat="43.143706" lon="-6.975245">
        <ele>988.241</ele>
        <time>1999-07-25T10:55:37Z</time>
      </trkpt>
      <trkpt lat="43.143616" lon="-6.975263">
        <ele>986.676</ele>
        <time>1999-07-25T10:55:39Z</time>
      </trkpt>
      <trkpt lat="43.143532" lon="-6.975289">
        <ele>985.846</ele>
        <time>1999-07-25T10:55:41Z</time>
      </trkpt>
      <trkpt lat="43.143489" lon="-6.975306">
        <ele>985.683</ele>
        <time>1999-07-25T10:55:42Z</time>
      </trkpt>
      <trkpt lat="43.143356" lon="-6.975375">
        <ele>985.440</ele>
        <time>1999-07-25T10:55:45Z</time>
      </trkpt>
      <trkpt lat="43.143202" lon="-6.975459">
        <ele>985.468</ele>
        <time>1999-07-25T10:55:48Z</time>
      </trkpt>
      <trkpt lat="43.143041" lon="-6.975603">
        <ele>985.283</ele>
        <time>1999-07-25T10:55:51Z</time>
      </trkpt>
      <trkpt lat="43.142994" lon="-6.975670">
        <ele>985.225</ele>
        <time>1999-07-25T10:55:52Z</time>
      </trkpt>
      <trkpt lat="43.142813" lon="-6.976061">
        <ele>985.217</ele>
        <time>1999-07-25T10:55:57Z</time>
      </trkpt>
      <trkpt lat="43.142691" lon="-6.976424">
        <ele>984.408</ele>
        <time>1999-07-25T10:56:01Z</time>
      </trkpt>
      <trkpt lat="43.142641" lon="-6.976623">
        <ele>984.011</ele>
        <time>1999-07-25T10:56:03Z</time>
      </trkpt>
      <trkpt lat="43.142494" lon="-6.977180">
        <ele>983.227</ele>
        <time>1999-07-25T10:56:09Z</time>
      </trkpt>
      <trkpt lat="43.142463" lon="-6.977267">
        <ele>983.058</ele>
        <time>1999-07-25T10:56:10Z</time>
      </trkpt>
      <trkpt lat="43.142281" lon="-6.977530">
        <ele>982.483</ele>
        <time>1999-07-25T10:56:14Z</time>
      </trkpt>
      <trkpt lat="43.142191" lon="-6.977657">
        <ele>982.443</ele>
        <time>1999-07-25T10:56:16Z</time>
      </trkpt>
      <trkpt lat="43.142123" lon="-6.977806">
        <ele>982.270</ele>
        <time>1999-07-25T10:56:18Z</time>
      </trkpt>
      <trkpt lat="43.142098" lon="-6.977890">
        <ele>982.217</ele>
        <time>1999-07-25T10:56:19Z</time>
      </trkpt>
      <trkpt lat="43.142051" lon="-6.978163">
        <ele>982.255</ele>
        <time>1999-07-25T10:56:22Z</time>
      </trkpt>
      <trkpt lat="43.142067" lon="-6.978550">
        <ele>981.824</ele>
        <time>1999-07-25T10:56:26Z</time>
      </trkpt>
      <trkpt lat="43.142078" lon="-6.978743">
        <ele>981.804</ele>
        <time>1999-07-25T10:56:28Z</time>
      </trkpt>
      <trkpt lat="43.142056" lon="-6.978926">
        <ele>981.614</ele>
        <time>1999-07-25T10:56:30Z</time>
      </trkpt>
      <trkpt lat="43.141948" lon="-6.979154">
        <ele>981.008</ele>
        <time>1999-07-25T10:56:33Z</time>
      </trkpt>
      <trkpt lat="43.141844" lon="-6.979261">
        <ele>980.625</ele>
        <time>1999-07-25T10:56:35Z</time>
      </trkpt>
      <trkpt lat="43.141689" lon="-6.979399">
        <ele>980.431</ele>
        <time>1999-07-25T10:56:38Z</time>
      </trkpt>
      <trkpt lat="43.141383" lon="-6.979664">
        <ele>980.462</ele>
        <time>1999-07-25T10:56:44Z</time>
      </trkpt>
      <trkpt lat="43.141149" lon="-6.979858">
        <ele>980.417</ele>
        <time>1999-07-25T10:56:49Z</time>
      </trkpt>
      <trkpt lat="43.141121" lon="-6.979904">
        <ele>980.427</ele>
        <time>1999-07-25T10:56:50Z</time>
      </trkpt>
      <trkpt lat="43.141114" lon="-6.980036">
        <ele>980.614</ele>
        <time>1999-07-25T10:56:53Z</time>
      </trkpt>
      <trkpt lat="43.141153" lon="-6.980096">
        <ele>980.821</ele>
        <time>1999-07-25T10:56:55Z</time>
      </trkpt>
      <trkpt lat="43.141209" lon="-6.980189">
        <ele>981.039</ele>
        <time>1999-07-25T10:56:58Z</time>
      </trkpt>
      <trkpt lat="43.141225" lon="-6.980261">
        <ele>981.494</ele>
        <time>1999-07-25T10:57:00Z</time>
      </trkpt>
      <trkpt lat="43.141218" lon="-6.980299">
        <ele>981.657</ele>
        <time>1999-07-25T10:57:01Z</time>
      </trkpt>
      <trkpt lat="43.141157" lon="-6.980409">
        <ele>982.422</ele>
        <time>1999-07-25T10:57:04Z</time>
      </trkpt>
      <trkpt lat="43.141100" lon="-6.980476">
        <ele>982.808</ele>
        <time>1999-07-25T10:57:06Z</time>
      </trkpt>
      <trkpt lat="43.140854" lon="-6.980718">
        <ele>983.412</ele>
        <time>1999-07-25T10:57:12Z</time>
      </trkpt>
      <trkpt lat="43.140809" lon="-6.980763">
        <ele>983.488</ele>
        <time>1999-07-25T10:57:13Z</time>
      </trkpt>
      <trkpt lat="43.140580" lon="-6.981000">
        <ele>983.619</ele>
        <time>1999-07-25T10:57:18Z</time>
      </trkpt>
      <trkpt lat="43.140446" lon="-6.981147">
        <ele>983.474</ele>
        <time>1999-07-25T10:57:21Z</time>
      </trkpt>
      <trkpt lat="43.140182" lon="-6.981428">
        <ele>983.424</ele>
        <time>1999-07-25T10:57:27Z</time>
      </trkpt>
      <trkpt lat="43.140141" lon="-6.981472">
        <ele>983.431</ele>
        <time>1999-07-25T10:57:28Z</time>
      </trkpt>
      <trkpt lat="43.139903" lon="-6.981745">
        <ele>983.228</ele>
        <time>1999-07-25T10:57:33Z</time>
      </trkpt>
      <trkpt lat="43.139783" lon="-6.981881">
        <ele>983.066</ele>
        <time>1999-07-25T10:57:35Z</time>
      </trkpt>
      <trkpt lat="43.139649" lon="-6.982019">
        <ele>982.891</ele>
        <time>1999-07-25T10:57:37Z</time>
      </trkpt>
      <trkpt lat="43.139578" lon="-6.982091">
        <ele>982.681</ele>
        <time>1999-07-25T10:57:38Z</time>
      </trkpt>
      <trkpt lat="43.139503" lon="-6.982158">
        <ele>982.419</ele>
        <time>1999-07-25T10:57:39Z</time>
      </trkpt>
      <trkpt lat="43.139350" lon="-6.982280">
        <ele>982.008</ele>
        <time>1999-07-25T10:57:41Z</time>
      </trkpt>
      <trkpt lat="43.139196" lon="-6.982397">
        <ele>981.232</ele>
        <time>1999-07-25T10:57:43Z</time>
      </trkpt>
      <trkpt lat="43.139042" lon="-6.982522">
        <ele>980.028</ele>
        <time>1999-07-25T10:57:45Z</time>
      </trkpt>
      <trkpt lat="43.138876" lon="-6.982642">
        <ele>979.049</ele>
        <time>1999-07-25T10:57:47Z</time>
      </trkpt>
      <trkpt lat="43.138699" lon="-6.982769">
        <ele>978.254</ele>
        <time>1999-07-25T10:57:49Z</time>
      </trkpt>
      <trkpt lat="43.138611" lon="-6.982832">
        <ele>977.834</ele>
        <time>1999-07-25T10:57:50Z</time>
      </trkpt>
      <trkpt lat="43.138515" lon="-6.982885">
        <ele>977.421</ele>
        <time>1999-07-25T10:57:51Z</time>
      </trkpt>
      <trkpt lat="43.138314" lon="-6.982975">
        <ele>976.448</ele>
        <time>1999-07-25T10:57:53Z</time>
      </trkpt>
      <trkpt lat="43.138113" lon="-6.983050">
        <ele>975.076</ele>
        <time>1999-07-25T10:57:55Z</time>
      </trkpt>
      <trkpt lat="43.137920" lon="-6.983133">
        <ele>973.433</ele>
        <time>1999-07-25T10:57:57Z</time>
      </trkpt>
      <trkpt lat="43.137740" lon="-6.983217">
        <ele>971.223</ele>
        <time>1999-07-25T10:57:59Z</time>
      </trkpt>
      <trkpt lat="43.137661" lon="-6.983267">
        <ele>970.215</ele>
        <time>1999-07-25T10:58:00Z</time>
      </trkpt>
      <trkpt lat="43.137586" lon="-6.983331">
        <ele>968.808</ele>
        <time>1999-07-25T10:58:01Z</time>
      </trkpt>
      <trkpt lat="43.137516" lon="-6.983406">
        <ele>968.466</ele>
        <time>1999-07-25T10:58:02Z</time>
      </trkpt>
      <trkpt lat="43.137373" lon="-6.983561">
        <ele>967.252</ele>
        <time>1999-07-25T10:58:04Z</time>
      </trkpt>
      <trkpt lat="43.137231" lon="-6.983696">
        <ele>965.643</ele>
        <time>1999-07-25T10:58:06Z</time>
      </trkpt>
      <trkpt lat="43.137158" lon="-6.983746">
        <ele>965.058</ele>
        <time>1999-07-25T10:58:07Z</time>
      </trkpt>
      <trkpt lat="43.137083" lon="-6.983795">
        <ele>964.238</ele>
        <time>1999-07-25T10:58:08Z</time>
      </trkpt>
      <trkpt lat="43.136940" lon="-6.983903">
        <ele>963.065</ele>
        <time>1999-07-25T10:58:10Z</time>
      </trkpt>
      <trkpt lat="43.136816" lon="-6.984020">
        <ele>961.622</ele>
        <time>1999-07-25T10:58:12Z</time>
      </trkpt>
      <trkpt lat="43.136707" lon="-6.984144">
        <ele>960.670</ele>
        <time>1999-07-25T10:58:14Z</time>
      </trkpt>
      <trkpt lat="43.136595" lon="-6.984297">
        <ele>959.478</ele>
        <time>1999-07-25T10:58:16Z</time>
      </trkpt>
      <trkpt lat="43.136540" lon="-6.984385">
        <ele>959.033</ele>
        <time>1999-07-25T10:58:17Z</time>
      </trkpt>
      <trkpt lat="43.136428" lon="-6.984573">
        <ele>958.626</ele>
        <time>1999-07-25T10:58:19Z</time>
      </trkpt>
      <trkpt lat="43.136375" lon="-6.984676">
        <ele>958.208</ele>
        <time>1999-07-25T10:58:20Z</time>
      </trkpt>
      <trkpt lat="43.136282" lon="-6.984897">
        <ele>956.820</ele>
        <time>1999-07-25T10:58:22Z</time>
      </trkpt>
      <trkpt lat="43.136209" lon="-6.985138">
        <ele>956.016</ele>
        <time>1999-07-25T10:58:24Z</time>
      </trkpt>
      <trkpt lat="43.136180" lon="-6.985264">
        <ele>955.667</ele>
        <time>1999-07-25T10:58:25Z</time>
      </trkpt>
      <trkpt lat="43.136134" lon="-6.985512">
        <ele>955.082</ele>
        <time>1999-07-25T10:58:27Z</time>
      </trkpt>
      <trkpt lat="43.136098" lon="-6.985747">
        <ele>954.242</ele>
        <time>1999-07-25T10:58:29Z</time>
      </trkpt>
      <trkpt lat="43.136080" lon="-6.985971">
        <ele>952.629</ele>
        <time>1999-07-25T10:58:31Z</time>
      </trkpt>
      <trkpt lat="43.136069" lon="-6.986194">
        <ele>951.846</ele>
        <time>1999-07-25T10:58:33Z</time>
      </trkpt>
      <trkpt lat="43.136072" lon="-6.986303">
        <ele>951.444</ele>
        <time>1999-07-25T10:58:34Z</time>
      </trkpt>
      <trkpt lat="43.136101" lon="-6.986595">
        <ele>950.428</ele>
        <time>1999-07-25T10:58:37Z</time>
      </trkpt>
      <trkpt lat="43.136113" lon="-6.986682">
        <ele>950.289</ele>
        <time>1999-07-25T10:58:38Z</time>
      </trkpt>
      <trkpt lat="43.136141" lon="-6.986911">
        <ele>949.417</ele>
        <time>1999-07-25T10:58:41Z</time>
      </trkpt>
      <trkpt lat="43.136143" lon="-6.986978">
        <ele>949.408</ele>
        <time>1999-07-25T10:58:42Z</time>
      </trkpt>
      <trkpt lat="43.136193" lon="-6.987242">
        <ele>949.425</ele>
        <time>1999-07-25T10:58:46Z</time>
      </trkpt>
      <trkpt lat="43.136269" lon="-6.987354">
        <ele>949.481</ele>
        <time>1999-07-25T10:58:48Z</time>
      </trkpt>
      <trkpt lat="43.136341" lon="-6.987477">
        <ele>949.452</ele>
        <time>1999-07-25T10:58:50Z</time>
      </trkpt>
      <trkpt lat="43.136373" lon="-6.987544">
        <ele>949.447</ele>
        <time>1999-07-25T10:58:51Z</time>
      </trkpt>
      <trkpt lat="43.136529" lon="-6.987889">
        <ele>949.897</ele>
        <time>1999-07-25T10:58:56Z</time>
      </trkpt>
      <trkpt lat="43.136582" lon="-6.988041">
        <ele>949.874</ele>
        <time>1999-07-25T10:58:58Z</time>
      </trkpt>
      <trkpt lat="43.136700" lon="-6.988331">
        <ele>950.021</ele>
        <time>1999-07-25T10:59:02Z</time>
      </trkpt>
      <trkpt lat="43.136844" lon="-6.988690">
        <ele>950.279</ele>
        <time>1999-07-25T10:59:07Z</time>
      </trkpt>
      <trkpt lat="43.136873" lon="-6.988757">
        <ele>950.213</ele>
        <time>1999-07-25T10:59:08Z</time>
      </trkpt>
      <trkpt lat="43.137135" lon="-6.989270">
        <ele>950.443</ele>
        <time>1999-07-25T10:59:16Z</time>
      </trkpt>
      <trkpt lat="43.137172" lon="-6.989330">
        <ele>950.407</ele>
        <time>1999-07-25T10:59:17Z</time>
      </trkpt>
      <trkpt lat="43.137379" lon="-6.989587">
        <ele>950.608</ele>
        <time>1999-07-25T10:59:22Z</time>
      </trkpt>
      <trkpt lat="43.137661" lon="-6.989876">
        <ele>950.694</ele>
        <time>1999-07-25T10:59:29Z</time>
      </trkpt>
      <trkpt lat="43.137702" lon="-6.989917">
        <ele>950.620</ele>
        <time>1999-07-25T10:59:30Z</time>
      </trkpt>
      <trkpt lat="43.137828" lon="-6.990035">
        <ele>951.251</ele>
        <time>1999-07-25T10:59:33Z</time>
      </trkpt>
      <trkpt lat="43.138072" lon="-6.990288">
        <ele>952.046</ele>
        <time>1999-07-25T10:59:39Z</time>
      </trkpt>
      <trkpt lat="43.138142" lon="-6.990378">
        <ele>952.256</ele>
        <time>1999-07-25T10:59:41Z</time>
      </trkpt>
      <trkpt lat="43.138316" lon="-6.990620">
        <ele>953.073</ele>
        <time>1999-07-25T10:59:46Z</time>
      </trkpt>
      <trkpt lat="43.138409" lon="-6.990774">
        <ele>953.420</ele>
        <time>1999-07-25T10:59:49Z</time>
      </trkpt>
      <trkpt lat="43.138483" lon="-6.990914">
        <ele>953.678</ele>
        <time>1999-07-25T10:59:52Z</time>
      </trkpt>
      <trkpt lat="43.138504" lon="-6.990964">
        <ele>953.618</ele>
        <time>1999-07-25T10:59:53Z</time>
      </trkpt>
      <trkpt lat="43.138594" lon="-6.991258">
        <ele>953.898</ele>
        <time>1999-07-25T10:59:58Z</time>
      </trkpt>
      <trkpt lat="43.138627" lon="-6.991376">
        <ele>953.817</ele>
        <time>1999-07-25T11:00:00Z</time>
      </trkpt>
      <trkpt lat="43.138664" lon="-6.991601">
        <ele>954.008</ele>
        <time>1999-07-25T11:00:04Z</time>
      </trkpt>
      <trkpt lat="43.138673" lon="-6.991889">
        <ele>954.494</ele>
        <time>1999-07-25T11:00:10Z</time>
      </trkpt>
      <trkpt lat="43.138672" lon="-6.991937">
        <ele>954.630</ele>
        <time>1999-07-25T11:00:11Z</time>
      </trkpt>
      <trkpt lat="43.138684" lon="-6.992183">
        <ele>955.811</ele>
        <time>1999-07-25T11:00:16Z</time>
      </trkpt>
      <trkpt lat="43.138690" lon="-6.992232">
        <ele>956.016</ele>
        <time>1999-07-25T11:00:17Z</time>
      </trkpt>
      <trkpt lat="43.138730" lon="-6.992496">
        <ele>956.846</ele>
        <time>1999-07-25T11:00:22Z</time>
      </trkpt>
      <trkpt lat="43.138774" lon="-6.992769">
        <ele>957.433</ele>
        <time>1999-07-25T11:00:27Z</time>
      </trkpt>
      <trkpt lat="43.138807" lon="-6.992939">
        <ele>958.080</ele>
        <time>1999-07-25T11:00:30Z</time>
      </trkpt>
      <trkpt lat="43.138875" lon="-6.993214">
        <ele>958.418</ele>
        <time>1999-07-25T11:00:35Z</time>
      </trkpt>
      <trkpt lat="43.138934" lon="-6.993433">
        <ele>958.872</ele>
        <time>1999-07-25T11:00:39Z</time>
      </trkpt>
      <trkpt lat="43.138981" lon="-6.993590">
        <ele>959.013</ele>
        <time>1999-07-25T11:00:42Z</time>
      </trkpt>
      <trkpt lat="43.138997" lon="-6.993636">
        <ele>959.014</ele>
        <time>1999-07-25T11:00:43Z</time>
      </trkpt>
      <trkpt lat="43.139085" lon="-6.993875">
        <ele>959.608</ele>
        <time>1999-07-25T11:00:49Z</time>
      </trkpt>
      <trkpt lat="43.139098" lon="-6.993919">
        <ele>959.620</ele>
        <time>1999-07-25T11:00:50Z</time>
      </trkpt>
      <trkpt lat="43.139145" lon="-6.994056">
        <ele>960.276</ele>
        <time>1999-07-25T11:00:53Z</time>
      </trkpt>
      <trkpt lat="43.139194" lon="-6.994192">
        <ele>961.287</ele>
        <time>1999-07-25T11:00:56Z</time>
      </trkpt>
      <trkpt lat="43.139236" lon="-6.994337">
        <ele>961.612</ele>
        <time>1999-07-25T11:00:59Z</time>
      </trkpt>
      <trkpt lat="43.139262" lon="-6.994429">
        <ele>962.422</ele>
        <time>1999-07-25T11:01:01Z</time>
      </trkpt>
      <trkpt lat="43.139297" lon="-6.994557">
        <ele>962.849</ele>
        <time>1999-07-25T11:01:04Z</time>
      </trkpt>
      <trkpt lat="43.139353" lon="-6.994674">
        <ele>963.016</ele>
        <time>1999-07-25T11:01:07Z</time>
      </trkpt>
      <trkpt lat="43.139470" lon="-6.994689">
        <ele>963.294</ele>
        <time>1999-07-25T11:01:10Z</time>
      </trkpt>
      <trkpt lat="43.139515" lon="-6.994690">
        <ele>963.299</ele>
        <time>1999-07-25T11:01:11Z</time>
      </trkpt>
      <trkpt lat="43.139606" lon="-6.994698">
        <ele>963.207</ele>
        <time>1999-07-25T11:01:13Z</time>
      </trkpt>
      <trkpt lat="43.139703" lon="-6.994714">
        <ele>963.027</ele>
        <time>1999-07-25T11:01:15Z</time>
      </trkpt>
      <trkpt lat="43.139754" lon="-6.994725">
        <ele>963.008</ele>
        <time>1999-07-25T11:01:16Z</time>
      </trkpt>
      <trkpt lat="43.140051" lon="-6.994859">
        <ele>962.462</ele>
        <time>1999-07-25T11:01:21Z</time>
      </trkpt>
      <trkpt lat="43.140188" lon="-6.994951">
        <ele>962.228</ele>
        <time>1999-07-25T11:01:23Z</time>
      </trkpt>
      <trkpt lat="43.140264" lon="-6.994998">
        <ele>962.249</ele>
        <time>1999-07-25T11:01:24Z</time>
      </trkpt>
      <trkpt lat="43.140405" lon="-6.995103">
        <ele>961.674</ele>
        <time>1999-07-25T11:01:26Z</time>
      </trkpt>
      <trkpt lat="43.140459" lon="-6.995150">
        <ele>961.494</ele>
        <time>1999-07-25T11:01:27Z</time>
      </trkpt>
      <trkpt lat="43.140544" lon="-6.995231">
        <ele>961.031</ele>
        <time>1999-07-25T11:01:29Z</time>
      </trkpt>
      <trkpt lat="43.140583" lon="-6.995276">
        <ele>960.268</ele>
        <time>1999-07-25T11:01:30Z</time>
      </trkpt>
      <trkpt lat="43.140618" lon="-6.995327">
        <ele>959.876</ele>
        <time>1999-07-25T11:01:31Z</time>
      </trkpt>
      <trkpt lat="43.140677" lon="-6.995447">
        <ele>959.048</ele>
        <time>1999-07-25T11:01:33Z</time>
      </trkpt>
      <trkpt lat="43.140730" lon="-6.995574">
        <ele>957.861</ele>
        <time>1999-07-25T11:01:35Z</time>
      </trkpt>
      <trkpt lat="43.140793" lon="-6.995701">
        <ele>956.417</ele>
        <time>1999-07-25T11:01:37Z</time>
      </trkpt>
      <trkpt lat="43.140870" lon="-6.995816">
        <ele>955.808</ele>
        <time>1999-07-25T11:01:39Z</time>
      </trkpt>
      <trkpt lat="43.140960" lon="-6.995921">
        <ele>955.627</ele>
        <time>1999-07-25T11:01:41Z</time>
      </trkpt>
      <trkpt lat="43.141119" lon="-6.996080">
        <ele>955.493</ele>
        <time>1999-07-25T11:01:44Z</time>
      </trkpt>
      <trkpt lat="43.141244" lon="-6.996151">
        <ele>955.414</ele>
        <time>1999-07-25T11:01:46Z</time>
      </trkpt>
      <trkpt lat="43.141380" lon="-6.996195">
        <ele>955.219</ele>
        <time>1999-07-25T11:01:48Z</time>
      </trkpt>
      <trkpt lat="43.141623" lon="-6.996263">
        <ele>954.229</ele>
        <time>1999-07-25T11:01:52Z</time>
      </trkpt>
      <trkpt lat="43.141803" lon="-6.996315">
        <ele>953.246</ele>
        <time>1999-07-25T11:01:55Z</time>
      </trkpt>
      <trkpt lat="43.141947" lon="-6.996384">
        <ele>952.683</ele>
        <time>1999-07-25T11:01:57Z</time>
      </trkpt>
      <trkpt lat="43.142105" lon="-6.996487">
        <ele>951.461</ele>
        <time>1999-07-25T11:01:59Z</time>
      </trkpt>
      <trkpt lat="43.142170" lon="-6.996542">
        <ele>951.031</ele>
        <time>1999-07-25T11:02:00Z</time>
      </trkpt>
      <trkpt lat="43.142229" lon="-6.996596">
        <ele>950.461</ele>
        <time>1999-07-25T11:02:01Z</time>
      </trkpt>
      <trkpt lat="43.142365" lon="-6.996713">
        <ele>949.007</ele>
        <time>1999-07-25T11:02:04Z</time>
      </trkpt>
      <trkpt lat="43.142407" lon="-6.996747">
        <ele>948.808</ele>
        <time>1999-07-25T11:02:05Z</time>
      </trkpt>
      <trkpt lat="43.142449" lon="-6.996781">
        <ele>948.266</ele>
        <time>1999-07-25T11:02:06Z</time>
      </trkpt>
      <trkpt lat="43.142496" lon="-6.996809">
        <ele>947.422</ele>
        <time>1999-07-25T11:02:07Z</time>
      </trkpt>
      <trkpt lat="43.142542" lon="-6.996841">
        <ele>946.423</ele>
        <time>1999-07-25T11:02:08Z</time>
      </trkpt>
      <trkpt lat="43.142591" lon="-6.996877">
        <ele>945.088</ele>
        <time>1999-07-25T11:02:09Z</time>
      </trkpt>
      <trkpt lat="43.142639" lon="-6.996920">
        <ele>944.228</ele>
        <time>1999-07-25T11:02:10Z</time>
      </trkpt>
      <trkpt lat="43.142688" lon="-6.996975">
        <ele>943.635</ele>
        <time>1999-07-25T11:02:11Z</time>
      </trkpt>
      <trkpt lat="43.142739" lon="-6.997028">
        <ele>943.492</ele>
        <time>1999-07-25T11:02:12Z</time>
      </trkpt>
      <trkpt lat="43.142853" lon="-6.997134">
        <ele>943.010</ele>
        <time>1999-07-25T11:02:14Z</time>
      </trkpt>
      <trkpt lat="43.142913" lon="-6.997187">
        <ele>942.857</ele>
        <time>1999-07-25T11:02:15Z</time>
      </trkpt>
      <trkpt lat="43.143046" lon="-6.997289">
        <ele>942.600</ele>
        <time>1999-07-25T11:02:17Z</time>
      </trkpt>
      <trkpt lat="43.143273" lon="-6.997409">
        <ele>942.420</ele>
        <time>1999-07-25T11:02:20Z</time>
      </trkpt>
      <trkpt lat="43.143575" lon="-6.997548">
        <ele>942.208</ele>
        <time>1999-07-25T11:02:24Z</time>
      </trkpt>
      <trkpt lat="43.143727" lon="-6.997603">
        <ele>942.038</ele>
        <time>1999-07-25T11:02:26Z</time>
      </trkpt>
      <trkpt lat="43.143805" lon="-6.997626">
        <ele>941.834</ele>
        <time>1999-07-25T11:02:27Z</time>
      </trkpt>
      <trkpt lat="43.143884" lon="-6.997650">
        <ele>941.445</ele>
        <time>1999-07-25T11:02:28Z</time>
      </trkpt>
      <trkpt lat="43.144034" lon="-6.997686">
        <ele>940.210</ele>
        <time>1999-07-25T11:02:30Z</time>
      </trkpt>
      <trkpt lat="43.144186" lon="-6.997727">
        <ele>939.240</ele>
        <time>1999-07-25T11:02:32Z</time>
      </trkpt>
      <trkpt lat="43.144262" lon="-6.997743">
        <ele>938.497</ele>
        <time>1999-07-25T11:02:33Z</time>
      </trkpt>
      <trkpt lat="43.144323" lon="-6.997753">
        <ele>937.844</ele>
        <time>1999-07-25T11:02:34Z</time>
      </trkpt>
      <trkpt lat="43.144420" lon="-6.997766">
        <ele>936.822</ele>
        <time>1999-07-25T11:02:36Z</time>
      </trkpt>
      <trkpt lat="43.144472" lon="-6.997775">
        <ele>936.445</ele>
        <time>1999-07-25T11:02:37Z</time>
      </trkpt>
      <trkpt lat="43.144674" lon="-6.997810">
        <ele>935.247</ele>
        <time>1999-07-25T11:02:40Z</time>
      </trkpt>
      <trkpt lat="43.144915" lon="-6.997878">
        <ele>934.011</ele>
        <time>1999-07-25T11:02:43Z</time>
      </trkpt>
      <trkpt lat="43.145010" lon="-6.997904">
        <ele>933.408</ele>
        <time>1999-07-25T11:02:44Z</time>
      </trkpt>
      <trkpt lat="43.145112" lon="-6.997930">
        <ele>932.817</ele>
        <time>1999-07-25T11:02:45Z</time>
      </trkpt>
      <trkpt lat="43.145541" lon="-6.998016">
        <ele>932.013</ele>
        <time>1999-07-25T11:02:49Z</time>
      </trkpt>
      <trkpt lat="43.145752" lon="-6.998045">
        <ele>931.624</ele>
        <time>1999-07-25T11:02:51Z</time>
      </trkpt>
      <trkpt lat="43.146025" lon="-6.998063">
        <ele>930.289</ele>
        <time>1999-07-25T11:02:54Z</time>
      </trkpt>
      <trkpt lat="43.146182" lon="-6.998071">
        <ele>929.289</ele>
        <time>1999-07-25T11:02:56Z</time>
      </trkpt>
      <trkpt lat="43.146325" lon="-6.998082">
        <ele>927.616</ele>
        <time>1999-07-25T11:02:58Z</time>
      </trkpt>
      <trkpt lat="43.146467" lon="-6.998104">
        <ele>927.253</ele>
        <time>1999-07-25T11:03:00Z</time>
      </trkpt>
      <trkpt lat="43.146871" lon="-6.998185">
        <ele>926.871</ele>
        <time>1999-07-25T11:03:06Z</time>
      </trkpt>
      <trkpt lat="43.147172" lon="-6.998299">
        <ele>926.619</ele>
        <time>1999-07-25T11:03:10Z</time>
      </trkpt>
      <trkpt lat="43.147321" lon="-6.998385">
        <ele>926.409</ele>
        <time>1999-07-25T11:03:12Z</time>
      </trkpt>
      <trkpt lat="43.147448" lon="-6.998491">
        <ele>926.419</ele>
        <time>1999-07-25T11:03:14Z</time>
      </trkpt>
      <trkpt lat="43.147531" lon="-6.998610">
        <ele>926.008</ele>
        <time>1999-07-25T11:03:16Z</time>
      </trkpt>
      <trkpt lat="43.147586" lon="-6.998723">
        <ele>925.254</ele>
        <time>1999-07-25T11:03:18Z</time>
      </trkpt>
      <trkpt lat="43.147603" lon="-6.998771">
        <ele>925.060</ele>
        <time>1999-07-25T11:03:19Z</time>
      </trkpt>
      <trkpt lat="43.147614" lon="-6.998806">
        <ele>924.851</ele>
        <time>1999-07-25T11:03:20Z</time>
      </trkpt>
      <trkpt lat="43.147618" lon="-6.998833">
        <ele>924.236</ele>
        <time>1999-07-25T11:03:21Z</time>
      </trkpt>
      <trkpt lat="43.147607" lon="-6.998859">
        <ele>923.876</ele>
        <time>1999-07-25T11:03:22Z</time>
      </trkpt>
      <trkpt lat="43.147579" lon="-6.998880">
        <ele>923.223</ele>
        <time>1999-07-25T11:03:23Z</time>
      </trkpt>
      <trkpt lat="43.147542" lon="-6.998890">
        <ele>922.830</ele>
        <time>1999-07-25T11:03:24Z</time>
      </trkpt>
      <trkpt lat="43.147509" lon="-6.998899">
        <ele>921.698</ele>
        <time>1999-07-25T11:03:25Z</time>
      </trkpt>
      <trkpt lat="43.147487" lon="-6.998940">
        <ele>919.885</ele>
        <time>1999-07-25T11:03:27Z</time>
      </trkpt>
      <trkpt lat="43.147501" lon="-6.998959">
        <ele>918.489</ele>
        <time>1999-07-25T11:03:28Z</time>
      </trkpt>
      <trkpt lat="43.147556" lon="-6.998965">
        <ele>917.017</ele>
        <time>1999-07-25T11:03:30Z</time>
      </trkpt>
      <trkpt lat="43.147634" lon="-6.998984">
        <ele>916.208</ele>
        <time>1999-07-25T11:03:32Z</time>
      </trkpt>
      <trkpt lat="43.147679" lon="-6.999004">
        <ele>915.611</ele>
        <time>1999-07-25T11:03:33Z</time>
      </trkpt>
      <trkpt lat="43.147725" lon="-6.999027">
        <ele>915.257</ele>
        <time>1999-07-25T11:03:34Z</time>
      </trkpt>
      <trkpt lat="43.147814" lon="-6.999093">
        <ele>914.428</ele>
        <time>1999-07-25T11:03:36Z</time>
      </trkpt>
      <trkpt lat="43.147898" lon="-6.999156">
        <ele>914.233</ele>
        <time>1999-07-25T11:03:38Z</time>
      </trkpt>
      <trkpt lat="43.147936" lon="-6.999176">
        <ele>914.263</ele>
        <time>1999-07-25T11:03:39Z</time>
      </trkpt>
      <trkpt lat="43.147995" lon="-6.999246">
        <ele>914.220</ele>
        <time>1999-07-25T11:03:41Z</time>
      </trkpt>
      <trkpt lat="43.148025" lon="-6.999298">
        <ele>914.247</ele>
        <time>1999-07-25T11:03:42Z</time>
      </trkpt>
      <trkpt lat="43.148218" lon="-6.999667">
        <ele>914.695</ele>
        <time>1999-07-25T11:03:48Z</time>
      </trkpt>
      <trkpt lat="43.148248" lon="-6.999740">
        <ele>914.875</ele>
        <time>1999-07-25T11:03:49Z</time>
      </trkpt>
      <trkpt lat="43.148347" lon="-7.000081">
        <ele>915.028</ele>
        <time>1999-07-25T11:03:53Z</time>
      </trkpt>
      <trkpt lat="43.148368" lon="-7.000171">
        <ele>915.020</ele>
        <time>1999-07-25T11:03:54Z</time>
      </trkpt>
      <trkpt lat="43.148410" lon="-7.000350">
        <ele>915.008</ele>
        <time>1999-07-25T11:03:56Z</time>
      </trkpt>
      <trkpt lat="43.148454" lon="-7.000524">
        <ele>914.820</ele>
        <time>1999-07-25T11:03:58Z</time>
      </trkpt>
      <trkpt lat="43.148471" lon="-7.000616">
        <ele>914.496</ele>
        <time>1999-07-25T11:03:59Z</time>
      </trkpt>
      <trkpt lat="43.148502" lon="-7.000805">
        <ele>914.027</ele>
        <time>1999-07-25T11:04:01Z</time>
      </trkpt>
      <trkpt lat="43.148533" lon="-7.001000">
        <ele>913.652</ele>
        <time>1999-07-25T11:04:03Z</time>
      </trkpt>
      <trkpt lat="43.148556" lon="-7.001188">
        <ele>913.612</ele>
        <time>1999-07-25T11:04:05Z</time>
      </trkpt>
      <trkpt lat="43.148572" lon="-7.001412">
        <ele>913.669</ele>
        <time>1999-07-25T11:04:08Z</time>
      </trkpt>
      <trkpt lat="43.148580" lon="-7.001534">
        <ele>913.646</ele>
        <time>1999-07-25T11:04:10Z</time>
      </trkpt>
      <trkpt lat="43.148626" lon="-7.001696">
        <ele>914.434</ele>
        <time>1999-07-25T11:04:14Z</time>
      </trkpt>
      <trkpt lat="43.148651" lon="-7.001717">
        <ele>914.831</ele>
        <time>1999-07-25T11:04:15Z</time>
      </trkpt>
      <trkpt lat="43.148672" lon="-7.001744">
        <ele>915.061</ele>
        <time>1999-07-25T11:04:16Z</time>
      </trkpt>
      <trkpt lat="43.148698" lon="-7.001838">
        <ele>915.407</ele>
        <time>1999-07-25T11:04:18Z</time>
      </trkpt>
      <trkpt lat="43.148703" lon="-7.001959">
        <ele>915.608</ele>
        <time>1999-07-25T11:04:20Z</time>
      </trkpt>
      <trkpt lat="43.148707" lon="-7.002020">
        <ele>915.656</ele>
        <time>1999-07-25T11:04:21Z</time>
      </trkpt>
      <trkpt lat="43.148731" lon="-7.002146">
        <ele>915.882</ele>
        <time>1999-07-25T11:04:23Z</time>
      </trkpt>
      <trkpt lat="43.148747" lon="-7.002209">
        <ele>915.873</ele>
        <time>1999-07-25T11:04:24Z</time>
      </trkpt>
      <trkpt lat="43.148767" lon="-7.002271">
        <ele>915.858</ele>
        <time>1999-07-25T11:04:25Z</time>
      </trkpt>
      <trkpt lat="43.148845" lon="-7.002451">
        <ele>915.818</ele>
        <time>1999-07-25T11:04:28Z</time>
      </trkpt>
      <trkpt lat="43.148866" lon="-7.002516">
        <ele>915.885</ele>
        <time>1999-07-25T11:04:29Z</time>
      </trkpt>
      <trkpt lat="43.148931" lon="-7.002707">
        <ele>915.882</ele>
        <time>1999-07-25T11:04:32Z</time>
      </trkpt>
      <trkpt lat="43.148976" lon="-7.002827">
        <ele>915.810</ele>
        <time>1999-07-25T11:04:34Z</time>
      </trkpt>
      <trkpt lat="43.149039" lon="-7.003020">
        <ele>915.821</ele>
        <time>1999-07-25T11:04:37Z</time>
      </trkpt>
      <trkpt lat="43.149249" lon="-7.003592">
        <ele>915.441</ele>
        <time>1999-07-25T11:04:45Z</time>
      </trkpt>
      <trkpt lat="43.149345" lon="-7.003893">
        <ele>915.005</ele>
        <time>1999-07-25T11:04:49Z</time>
      </trkpt>
      <trkpt lat="43.149418" lon="-7.004098">
        <ele>914.808</ele>
        <time>1999-07-25T11:04:52Z</time>
      </trkpt>
      <trkpt lat="43.149540" lon="-7.004391">
        <ele>914.625</ele>
        <time>1999-07-25T11:04:57Z</time>
      </trkpt>
      <trkpt lat="43.149557" lon="-7.004447">
        <ele>914.451</ele>
        <time>1999-07-25T11:04:58Z</time>
      </trkpt>
      <trkpt lat="43.149566" lon="-7.004629">
        <ele>914.472</ele>
        <time>1999-07-25T11:05:01Z</time>
      </trkpt>
      <trkpt lat="43.149559" lon="-7.004690">
        <ele>914.467</ele>
        <time>1999-07-25T11:05:02Z</time>
      </trkpt>
      <trkpt lat="43.149538" lon="-7.004921">
        <ele>914.457</ele>
        <time>1999-07-25T11:05:07Z</time>
      </trkpt>
      <trkpt lat="43.149510" lon="-7.005187">
        <ele>914.884</ele>
        <time>1999-07-25T11:05:14Z</time>
      </trkpt>
      <trkpt lat="43.149495" lon="-7.005362">
        <ele>915.821</ele>
        <time>1999-07-25T11:05:18Z</time>
      </trkpt>
      <trkpt lat="43.149485" lon="-7.005492">
        <ele>916.269</ele>
        <time>1999-07-25T11:05:21Z</time>
      </trkpt>
      <trkpt lat="43.149477" lon="-7.005579">
        <ele>916.296</ele>
        <time>1999-07-25T11:05:23Z</time>
      </trkpt>
      <trkpt lat="43.149473" lon="-7.005624">
        <ele>916.231</ele>
        <time>1999-07-25T11:05:24Z</time>
      </trkpt>
      <trkpt lat="43.149450" lon="-7.005763">
        <ele>916.624</ele>
        <time>1999-07-25T11:05:27Z</time>
      </trkpt>
      <trkpt lat="43.149440" lon="-7.005812">
        <ele>917.008</ele>
        <time>1999-07-25T11:05:28Z</time>
      </trkpt>
      <trkpt lat="43.149413" lon="-7.005917">
        <ele>917.292</ele>
        <time>1999-07-25T11:05:30Z</time>
      </trkpt>
      <trkpt lat="43.149349" lon="-7.006140">
        <ele>918.018</ele>
        <time>1999-07-25T11:05:34Z</time>
      </trkpt>
      <trkpt lat="43.149235" lon="-7.006486">
        <ele>918.029</ele>
        <time>1999-07-25T11:05:40Z</time>
      </trkpt>
      <trkpt lat="43.149054" lon="-7.006855">
        <ele>918.274</ele>
        <time>1999-07-25T11:05:47Z</time>
      </trkpt>
      <trkpt lat="43.148850" lon="-7.007188">
        <ele>918.214</ele>
        <time>1999-07-25T11:05:55Z</time>
      </trkpt>
      <trkpt lat="43.148743" lon="-7.007350">
        <ele>918.831</ele>
        <time>1999-07-25T11:06:00Z</time>
      </trkpt>
      <trkpt lat="43.148702" lon="-7.007410">
        <ele>919.078</ele>
        <time>1999-07-25T11:06:02Z</time>
      </trkpt>
      <trkpt lat="43.148637" lon="-7.007504">
        <ele>919.626</ele>
        <time>1999-07-25T11:06:05Z</time>
      </trkpt>
      <trkpt lat="43.148503" lon="-7.007710">
        <ele>920.013</ele>
        <time>1999-07-25T11:06:11Z</time>
      </trkpt>
      <trkpt lat="43.148360" lon="-7.007922">
        <ele>920.443</ele>
        <time>1999-07-25T11:06:17Z</time>
      </trkpt>
      <trkpt lat="43.148262" lon="-7.008066">
        <ele>920.807</ele>
        <time>1999-07-25T11:06:22Z</time>
      </trkpt>
      <trkpt lat="43.148241" lon="-7.008094">
        <ele>921.008</ele>
        <time>1999-07-25T11:06:23Z</time>
      </trkpt>
      <trkpt lat="43.148197" lon="-7.008149">
        <ele>921.054</ele>
        <time>1999-07-25T11:06:25Z</time>
      </trkpt>
      <trkpt lat="43.148060" lon="-7.008252">
        <ele>922.020</ele>
        <time>1999-07-25T11:06:30Z</time>
      </trkpt>
      <trkpt lat="43.148026" lon="-7.008280">
        <ele>922.221</ele>
        <time>1999-07-25T11:06:31Z</time>
      </trkpt>
      <trkpt lat="43.147832" lon="-7.008439">
        <ele>922.866</ele>
        <time>1999-07-25T11:06:36Z</time>
      </trkpt>
      <trkpt lat="43.147668" lon="-7.008635">
        <ele>923.276</ele>
        <time>1999-07-25T11:06:42Z</time>
      </trkpt>
      <trkpt lat="43.147647" lon="-7.008667">
        <ele>923.233</ele>
        <time>1999-07-25T11:06:43Z</time>
      </trkpt>
      <trkpt lat="43.147464" lon="-7.008896">
        <ele>923.660</ele>
        <time>1999-07-25T11:06:50Z</time>
      </trkpt>
      <trkpt lat="43.147331" lon="-7.009065">
        <ele>924.218</ele>
        <time>1999-07-25T11:06:55Z</time>
      </trkpt>
      <trkpt lat="43.147282" lon="-7.009131">
        <ele>924.629</ele>
        <time>1999-07-25T11:06:57Z</time>
      </trkpt>
      <trkpt lat="43.147154" lon="-7.009316">
        <ele>925.200</ele>
        <time>1999-07-25T11:07:03Z</time>
      </trkpt>
      <trkpt lat="43.147071" lon="-7.009530">
        <ele>926.420</ele>
        <time>1999-07-25T11:07:09Z</time>
      </trkpt>
      <trkpt lat="43.147045" lon="-7.009603">
        <ele>926.408</ele>
        <time>1999-07-25T11:07:11Z</time>
      </trkpt>
      <trkpt lat="43.146995" lon="-7.009801">
        <ele>927.475</ele>
        <time>1999-07-25T11:07:16Z</time>
      </trkpt>
      <trkpt lat="43.146944" lon="-7.009968">
        <ele>927.841</ele>
        <time>1999-07-25T11:07:20Z</time>
      </trkpt>
      <trkpt lat="43.146889" lon="-7.010089">
        <ele>928.412</ele>
        <time>1999-07-25T11:07:23Z</time>
      </trkpt>
      <trkpt lat="43.146830" lon="-7.010210">
        <ele>928.897</ele>
        <time>1999-07-25T11:07:26Z</time>
      </trkpt>
      <trkpt lat="43.146809" lon="-7.010252">
        <ele>928.827</ele>
        <time>1999-07-25T11:07:27Z</time>
      </trkpt>
      <trkpt lat="43.146722" lon="-7.010420">
        <ele>929.024</ele>
        <time>1999-07-25T11:07:31Z</time>
      </trkpt>
      <trkpt lat="43.146665" lon="-7.010560">
        <ele>929.261</ele>
        <time>1999-07-25T11:07:34Z</time>
      </trkpt>
      <trkpt lat="43.146553" lon="-7.010914">
        <ele>929.239</ele>
        <time>1999-07-25T11:07:41Z</time>
      </trkpt>
      <trkpt lat="43.146478" lon="-7.011241">
        <ele>929.419</ele>
        <time>1999-07-25T11:07:47Z</time>
      </trkpt>
      <trkpt lat="43.146467" lon="-7.011349">
        <ele>929.409</ele>
        <time>1999-07-25T11:07:49Z</time>
      </trkpt>
      <trkpt lat="43.146457" lon="-7.011451">
        <ele>929.419</ele>
        <time>1999-07-25T11:07:51Z</time>
      </trkpt>
      <trkpt lat="43.146424" lon="-7.011730">
        <ele>929.808</ele>
        <time>1999-07-25T11:07:56Z</time>
      </trkpt>
      <trkpt lat="43.146421" lon="-7.011785">
        <ele>929.824</ele>
        <time>1999-07-25T11:07:57Z</time>
      </trkpt>
      <trkpt lat="43.146418" lon="-7.011973">
        <ele>929.820</ele>
        <time>1999-07-25T11:08:00Z</time>
      </trkpt>
      <trkpt lat="43.146431" lon="-7.012093">
        <ele>929.871</ele>
        <time>1999-07-25T11:08:02Z</time>
      </trkpt>
      <trkpt lat="43.146442" lon="-7.012153">
        <ele>930.076</ele>
        <time>1999-07-25T11:08:03Z</time>
      </trkpt>
      <trkpt lat="43.146524" lon="-7.012388">
        <ele>930.266</ele>
        <time>1999-07-25T11:08:07Z</time>
      </trkpt>
      <trkpt lat="43.146574" lon="-7.012518">
        <ele>930.433</ele>
        <time>1999-07-25T11:08:09Z</time>
      </trkpt>
      <trkpt lat="43.146692" lon="-7.012783">
        <ele>930.820</ele>
        <time>1999-07-25T11:08:13Z</time>
      </trkpt>
      <trkpt lat="43.146757" lon="-7.012951">
        <ele>930.838</ele>
        <time>1999-07-25T11:08:15Z</time>
      </trkpt>
      <trkpt lat="43.146829" lon="-7.013145">
        <ele>930.887</ele>
        <time>1999-07-25T11:08:17Z</time>
      </trkpt>
      <trkpt lat="43.146914" lon="-7.013349">
        <ele>930.842</ele>
        <time>1999-07-25T11:08:19Z</time>
      </trkpt>
      <trkpt lat="43.147021" lon="-7.013559">
        <ele>930.826</ele>
        <time>1999-07-25T11:08:21Z</time>
      </trkpt>
      <trkpt lat="43.147088" lon="-7.013669">
        <ele>930.408</ele>
        <time>1999-07-25T11:08:22Z</time>
      </trkpt>
      <trkpt lat="43.147247" lon="-7.013895">
        <ele>929.811</ele>
        <time>1999-07-25T11:08:24Z</time>
      </trkpt>
      <trkpt lat="43.147332" lon="-7.014009">
        <ele>929.647</ele>
        <time>1999-07-25T11:08:25Z</time>
      </trkpt>
      <trkpt lat="43.147419" lon="-7.014127">
        <ele>929.018</ele>
        <time>1999-07-25T11:08:26Z</time>
      </trkpt>
      <trkpt lat="43.147508" lon="-7.014248">
        <ele>926.633</ele>
        <time>1999-07-25T11:08:27Z</time>
      </trkpt>
      <trkpt lat="43.147599" lon="-7.014371">
        <ele>925.233</ele>
        <time>1999-07-25T11:08:28Z</time>
      </trkpt>
      <trkpt lat="43.147691" lon="-7.014494">
        <ele>924.020</ele>
        <time>1999-07-25T11:08:29Z</time>
      </trkpt>
      <trkpt lat="43.147778" lon="-7.014614">
        <ele>922.847</ele>
        <time>1999-07-25T11:08:30Z</time>
      </trkpt>
      <trkpt lat="43.147856" lon="-7.014730">
        <ele>921.615</ele>
        <time>1999-07-25T11:08:31Z</time>
      </trkpt>
      <trkpt lat="43.147923" lon="-7.014853">
        <ele>920.639</ele>
        <time>1999-07-25T11:08:32Z</time>
      </trkpt>
      <trkpt lat="43.147977" lon="-7.014992">
        <ele>919.401</ele>
        <time>1999-07-25T11:08:33Z</time>
      </trkpt>
      <trkpt lat="43.148026" lon="-7.015137">
        <ele>918.221</ele>
        <time>1999-07-25T11:08:34Z</time>
      </trkpt>
      <trkpt lat="43.148073" lon="-7.015284">
        <ele>917.208</ele>
        <time>1999-07-25T11:08:35Z</time>
      </trkpt>
      <trkpt lat="43.148123" lon="-7.015433">
        <ele>915.836</ele>
        <time>1999-07-25T11:08:36Z</time>
      </trkpt>
      <trkpt lat="43.148177" lon="-7.015580">
        <ele>914.432</ele>
        <time>1999-07-25T11:08:37Z</time>
      </trkpt>
      <trkpt lat="43.148236" lon="-7.015723">
        <ele>913.283</ele>
        <time>1999-07-25T11:08:38Z</time>
      </trkpt>
      <trkpt lat="43.148299" lon="-7.015860">
        <ele>912.058</ele>
        <time>1999-07-25T11:08:39Z</time>
      </trkpt>
      <trkpt lat="43.148363" lon="-7.015994">
        <ele>910.658</ele>
        <time>1999-07-25T11:08:40Z</time>
      </trkpt>
      <trkpt lat="43.148494" lon="-7.016261">
        <ele>909.095</ele>
        <time>1999-07-25T11:08:42Z</time>
      </trkpt>
      <trkpt lat="43.148626" lon="-7.016523">
        <ele>907.292</ele>
        <time>1999-07-25T11:08:44Z</time>
      </trkpt>
      <trkpt lat="43.148692" lon="-7.016650">
        <ele>906.020</ele>
        <time>1999-07-25T11:08:45Z</time>
      </trkpt>
      <trkpt lat="43.148758" lon="-7.016777">
        <ele>905.054</ele>
        <time>1999-07-25T11:08:46Z</time>
      </trkpt>
      <trkpt lat="43.148884" lon="-7.017025">
        <ele>903.656</ele>
        <time>1999-07-25T11:08:48Z</time>
      </trkpt>
      <trkpt lat="43.148988" lon="-7.017266">
        <ele>901.811</ele>
        <time>1999-07-25T11:08:50Z</time>
      </trkpt>
      <trkpt lat="43.149024" lon="-7.017365">
        <ele>901.008</ele>
        <time>1999-07-25T11:08:51Z</time>
      </trkpt>
      <trkpt lat="43.149051" lon="-7.017447">
        <ele>900.438</ele>
        <time>1999-07-25T11:08:52Z</time>
      </trkpt>
      <trkpt lat="43.149066" lon="-7.017517">
        <ele>899.824</ele>
        <time>1999-07-25T11:08:53Z</time>
      </trkpt>
      <trkpt lat="43.149065" lon="-7.017583">
        <ele>899.225</ele>
        <time>1999-07-25T11:08:54Z</time>
      </trkpt>
      <trkpt lat="43.149018" lon="-7.017701">
        <ele>897.860</ele>
        <time>1999-07-25T11:08:56Z</time>
      </trkpt>
      <trkpt lat="43.148984" lon="-7.017759">
        <ele>896.490</ele>
        <time>1999-07-25T11:08:57Z</time>
      </trkpt>
      <trkpt lat="43.148919" lon="-7.017889">
        <ele>894.857</ele>
        <time>1999-07-25T11:08:59Z</time>
      </trkpt>
      <trkpt lat="43.148848" lon="-7.018022">
        <ele>893.084</ele>
        <time>1999-07-25T11:09:01Z</time>
      </trkpt>
      <trkpt lat="43.148775" lon="-7.018160">
        <ele>892.432</ele>
        <time>1999-07-25T11:09:03Z</time>
      </trkpt>
      <trkpt lat="43.148753" lon="-7.018240">
        <ele>892.024</ele>
        <time>1999-07-25T11:09:04Z</time>
      </trkpt>
      <trkpt lat="43.148747" lon="-7.018372">
        <ele>891.804</ele>
        <time>1999-07-25T11:09:06Z</time>
      </trkpt>
      <trkpt lat="43.148830" lon="-7.018555">
        <ele>891.614</ele>
        <time>1999-07-25T11:09:10Z</time>
      </trkpt>
      <trkpt lat="43.148834" lon="-7.018672">
        <ele>891.408</ele>
        <time>1999-07-25T11:09:12Z</time>
      </trkpt>
      <trkpt lat="43.148782" lon="-7.018779">
        <ele>891.055</ele>
        <time>1999-07-25T11:09:14Z</time>
      </trkpt>
      <trkpt lat="43.148729" lon="-7.018886">
        <ele>890.821</ele>
        <time>1999-07-25T11:09:16Z</time>
      </trkpt>
      <trkpt lat="43.148687" lon="-7.018993">
        <ele>890.862</ele>
        <time>1999-07-25T11:09:18Z</time>
      </trkpt>
      <trkpt lat="43.148623" lon="-7.019162">
        <ele>890.637</ele>
        <time>1999-07-25T11:09:21Z</time>
      </trkpt>
      <trkpt lat="43.148551" lon="-7.019339">
        <ele>890.887</ele>
        <time>1999-07-25T11:09:24Z</time>
      </trkpt>
      <trkpt lat="43.148421" lon="-7.019705">
        <ele>891.874</ele>
        <time>1999-07-25T11:09:30Z</time>
      </trkpt>
      <trkpt lat="43.148382" lon="-7.019819">
        <ele>891.851</ele>
        <time>1999-07-25T11:09:32Z</time>
      </trkpt>
      <trkpt lat="43.148245" lon="-7.020185">
        <ele>891.869</ele>
        <time>1999-07-25T11:09:38Z</time>
      </trkpt>
      <trkpt lat="43.148188" lon="-7.020399">
        <ele>891.876</ele>
        <time>1999-07-25T11:09:41Z</time>
      </trkpt>
      <trkpt lat="43.148149" lon="-7.020529">
        <ele>891.890</ele>
        <time>1999-07-25T11:09:43Z</time>
      </trkpt>
      <trkpt lat="43.147977" lon="-7.021022">
        <ele>892.219</ele>
        <time>1999-07-25T11:09:51Z</time>
      </trkpt>
      <trkpt lat="43.147954" lon="-7.021084">
        <ele>892.208</ele>
        <time>1999-07-25T11:09:52Z</time>
      </trkpt>
      <trkpt lat="43.147905" lon="-7.021205">
        <ele>892.490</ele>
        <time>1999-07-25T11:09:54Z</time>
      </trkpt>
      <trkpt lat="43.147792" lon="-7.021426">
        <ele>892.896</ele>
        <time>1999-07-25T11:09:58Z</time>
      </trkpt>
      <trkpt lat="43.147610" lon="-7.021723">
        <ele>893.277</ele>
        <time>1999-07-25T11:10:04Z</time>
      </trkpt>
      <trkpt lat="43.147571" lon="-7.021769">
        <ele>893.252</ele>
        <time>1999-07-25T11:10:05Z</time>
      </trkpt>
      <trkpt lat="43.147489" lon="-7.021846">
        <ele>893.422</ele>
        <time>1999-07-25T11:10:07Z</time>
      </trkpt>
      <trkpt lat="43.147402" lon="-7.021941">
        <ele>893.489</ele>
        <time>1999-07-25T11:10:09Z</time>
      </trkpt>
      <trkpt lat="43.147348" lon="-7.022123">
        <ele>893.466</ele>
        <time>1999-07-25T11:10:11Z</time>
      </trkpt>
      <trkpt lat="43.147334" lon="-7.022222">
        <ele>893.484</ele>
        <time>1999-07-25T11:10:12Z</time>
      </trkpt>
      <trkpt lat="43.147322" lon="-7.022320">
        <ele>893.442</ele>
        <time>1999-07-25T11:10:13Z</time>
      </trkpt>
      <trkpt lat="43.147281" lon="-7.022612">
        <ele>892.022</ele>
        <time>1999-07-25T11:10:16Z</time>
      </trkpt>
      <trkpt lat="43.147250" lon="-7.022810">
        <ele>890.414</ele>
        <time>1999-07-25T11:10:18Z</time>
      </trkpt>
      <trkpt lat="43.147232" lon="-7.022902">
        <ele>889.608</ele>
        <time>1999-07-25T11:10:19Z</time>
      </trkpt>
      <trkpt lat="43.147216" lon="-7.022990">
        <ele>889.227</ele>
        <time>1999-07-25T11:10:20Z</time>
      </trkpt>
      <trkpt lat="43.147209" lon="-7.023077">
        <ele>888.833</ele>
        <time>1999-07-25T11:10:21Z</time>
      </trkpt>
      <trkpt lat="43.147221" lon="-7.023245">
        <ele>888.434</ele>
        <time>1999-07-25T11:10:23Z</time>
      </trkpt>
      <trkpt lat="43.147221" lon="-7.023317">
        <ele>888.089</ele>
        <time>1999-07-25T11:10:24Z</time>
      </trkpt>
      <trkpt lat="43.147173" lon="-7.023439">
        <ele>887.489</ele>
        <time>1999-07-25T11:10:26Z</time>
      </trkpt>
      <trkpt lat="43.147101" lon="-7.023573">
        <ele>886.866</ele>
        <time>1999-07-25T11:10:28Z</time>
      </trkpt>
      <trkpt lat="43.147067" lon="-7.023647">
        <ele>886.623</ele>
        <time>1999-07-25T11:10:29Z</time>
      </trkpt>
      <trkpt lat="43.147015" lon="-7.023806">
        <ele>886.081</ele>
        <time>1999-07-25T11:10:31Z</time>
      </trkpt>
      <trkpt lat="43.146994" lon="-7.023893">
        <ele>885.659</ele>
        <time>1999-07-25T11:10:32Z</time>
      </trkpt>
      <trkpt lat="43.146943" lon="-7.024077">
        <ele>885.003</ele>
        <time>1999-07-25T11:10:34Z</time>
      </trkpt>
      <trkpt lat="43.146889" lon="-7.024262">
        <ele>884.823</ele>
        <time>1999-07-25T11:10:36Z</time>
      </trkpt>
      <trkpt lat="43.146841" lon="-7.024439">
        <ele>884.808</ele>
        <time>1999-07-25T11:10:38Z</time>
      </trkpt>
      <trkpt lat="43.146723" lon="-7.024893">
        <ele>884.618</ele>
        <time>1999-07-25T11:10:43Z</time>
      </trkpt>
      <trkpt lat="43.146641" lon="-7.025193">
        <ele>884.674</ele>
        <time>1999-07-25T11:10:46Z</time>
      </trkpt>
      <trkpt lat="43.146536" lon="-7.025526">
        <ele>884.685</ele>
        <time>1999-07-25T11:10:49Z</time>
      </trkpt>
      <trkpt lat="43.146456" lon="-7.025762">
        <ele>884.440</ele>
        <time>1999-07-25T11:10:51Z</time>
      </trkpt>
      <trkpt lat="43.146332" lon="-7.026122">
        <ele>884.420</ele>
        <time>1999-07-25T11:10:54Z</time>
      </trkpt>
      <trkpt lat="43.146259" lon="-7.026364">
        <ele>883.487</ele>
        <time>1999-07-25T11:10:56Z</time>
      </trkpt>
      <trkpt lat="43.146183" lon="-7.026619">
        <ele>881.694</ele>
        <time>1999-07-25T11:10:58Z</time>
      </trkpt>
      <trkpt lat="43.146113" lon="-7.026885">
        <ele>880.622</ele>
        <time>1999-07-25T11:11:00Z</time>
      </trkpt>
      <trkpt lat="43.146045" lon="-7.027150">
        <ele>879.253</ele>
        <time>1999-07-25T11:11:02Z</time>
      </trkpt>
      <trkpt lat="43.146008" lon="-7.027281">
        <ele>878.004</ele>
        <time>1999-07-25T11:11:03Z</time>
      </trkpt>
      <trkpt lat="43.145934" lon="-7.027518">
        <ele>876.414</ele>
        <time>1999-07-25T11:11:05Z</time>
      </trkpt>
      <trkpt lat="43.145900" lon="-7.027614">
        <ele>875.608</ele>
        <time>1999-07-25T11:11:06Z</time>
      </trkpt>
      <trkpt lat="43.145867" lon="-7.027689">
        <ele>874.488</ele>
        <time>1999-07-25T11:11:07Z</time>
      </trkpt>
      <trkpt lat="43.145805" lon="-7.027801">
        <ele>873.054</ele>
        <time>1999-07-25T11:11:09Z</time>
      </trkpt>
      <trkpt lat="43.145771" lon="-7.027847">
        <ele>872.085</ele>
        <time>1999-07-25T11:11:10Z</time>
      </trkpt>
      <trkpt lat="43.145734" lon="-7.027890">
        <ele>871.060</ele>
        <time>1999-07-25T11:11:11Z</time>
      </trkpt>
      <trkpt lat="43.145656" lon="-7.027991">
        <ele>869.640</ele>
        <time>1999-07-25T11:11:13Z</time>
      </trkpt>
      <trkpt lat="43.145555" lon="-7.028099">
        <ele>868.067</ele>
        <time>1999-07-25T11:11:15Z</time>
      </trkpt>
      <trkpt lat="43.145496" lon="-7.028152">
        <ele>867.444</ele>
        <time>1999-07-25T11:11:16Z</time>
      </trkpt>
      <trkpt lat="43.145429" lon="-7.028206">
        <ele>866.462</ele>
        <time>1999-07-25T11:11:17Z</time>
      </trkpt>
      <trkpt lat="43.145284" lon="-7.028319">
        <ele>865.072</ele>
        <time>1999-07-25T11:11:19Z</time>
      </trkpt>
      <trkpt lat="43.145130" lon="-7.028411">
        <ele>864.413</ele>
        <time>1999-07-25T11:11:21Z</time>
      </trkpt>
      <trkpt lat="43.145048" lon="-7.028442">
        <ele>864.014</ele>
        <time>1999-07-25T11:11:22Z</time>
      </trkpt>
      <trkpt lat="43.144751" lon="-7.028560">
        <ele>863.408</ele>
        <time>1999-07-25T11:11:26Z</time>
      </trkpt>
      <trkpt lat="43.144585" lon="-7.028612">
        <ele>863.060</ele>
        <time>1999-07-25T11:11:29Z</time>
      </trkpt>
      <trkpt lat="43.144523" lon="-7.028640">
        <ele>863.086</ele>
        <time>1999-07-25T11:11:30Z</time>
      </trkpt>
      <trkpt lat="43.144378" lon="-7.028776">
        <ele>862.627</ele>
        <time>1999-07-25T11:11:33Z</time>
      </trkpt>
      <trkpt lat="43.144286" lon="-7.028881">
        <ele>861.852</ele>
        <time>1999-07-25T11:11:35Z</time>
      </trkpt>
      <trkpt lat="43.144187" lon="-7.028993">
        <ele>860.672</ele>
        <time>1999-07-25T11:11:37Z</time>
      </trkpt>
      <trkpt lat="43.144085" lon="-7.029108">
        <ele>859.489</ele>
        <time>1999-07-25T11:11:39Z</time>
      </trkpt>
      <trkpt lat="43.144030" lon="-7.029167">
        <ele>859.246</ele>
        <time>1999-07-25T11:11:40Z</time>
      </trkpt>
      <trkpt lat="43.143907" lon="-7.029277">
        <ele>858.884</ele>
        <time>1999-07-25T11:11:42Z</time>
      </trkpt>
      <trkpt lat="43.143780" lon="-7.029357">
        <ele>858.633</ele>
        <time>1999-07-25T11:11:44Z</time>
      </trkpt>
      <trkpt lat="43.143647" lon="-7.029433">
        <ele>858.423</ele>
        <time>1999-07-25T11:11:47Z</time>
      </trkpt>
      <trkpt lat="43.143603" lon="-7.029463">
        <ele>858.415</ele>
        <time>1999-07-25T11:11:48Z</time>
      </trkpt>
      <trkpt lat="43.143557" lon="-7.029497">
        <ele>858.208</ele>
        <time>1999-07-25T11:11:49Z</time>
      </trkpt>
      <trkpt lat="43.143393" lon="-7.029604">
        <ele>857.236</ele>
        <time>1999-07-25T11:11:52Z</time>
      </trkpt>
      <trkpt lat="43.143339" lon="-7.029632">
        <ele>856.862</ele>
        <time>1999-07-25T11:11:53Z</time>
      </trkpt>
      <trkpt lat="43.143232" lon="-7.029699">
        <ele>856.283</ele>
        <time>1999-07-25T11:11:55Z</time>
      </trkpt>
      <trkpt lat="43.143175" lon="-7.029759">
        <ele>856.098</ele>
        <time>1999-07-25T11:11:56Z</time>
      </trkpt>
      <trkpt lat="43.143118" lon="-7.029835">
        <ele>855.638</ele>
        <time>1999-07-25T11:11:57Z</time>
      </trkpt>
      <trkpt lat="43.143067" lon="-7.029925">
        <ele>853.875</ele>
        <time>1999-07-25T11:11:58Z</time>
      </trkpt>
      <trkpt lat="43.143019" lon="-7.030020">
        <ele>852.852</ele>
        <time>1999-07-25T11:11:59Z</time>
      </trkpt>
      <trkpt lat="43.142931" lon="-7.030205">
        <ele>851.020</ele>
        <time>1999-07-25T11:12:01Z</time>
      </trkpt>
      <trkpt lat="43.142895" lon="-7.030287">
        <ele>849.854</ele>
        <time>1999-07-25T11:12:02Z</time>
      </trkpt>
      <trkpt lat="43.142860" lon="-7.030369">
        <ele>848.656</ele>
        <time>1999-07-25T11:12:03Z</time>
      </trkpt>
      <trkpt lat="43.142828" lon="-7.030457">
        <ele>847.611</ele>
        <time>1999-07-25T11:12:04Z</time>
      </trkpt>
      <trkpt lat="43.142804" lon="-7.030551">
        <ele>846.608</ele>
        <time>1999-07-25T11:12:05Z</time>
      </trkpt>
      <trkpt lat="43.142790" lon="-7.030652">
        <ele>845.868</ele>
        <time>1999-07-25T11:12:06Z</time>
      </trkpt>
      <trkpt lat="43.142791" lon="-7.030866">
        <ele>844.884</ele>
        <time>1999-07-25T11:12:08Z</time>
      </trkpt>
      <trkpt lat="43.142791" lon="-7.031090">
        <ele>843.225</ele>
        <time>1999-07-25T11:12:10Z</time>
      </trkpt>
      <trkpt lat="43.142796" lon="-7.031330">
        <ele>841.480</ele>
        <time>1999-07-25T11:12:12Z</time>
      </trkpt>
      <trkpt lat="43.142799" lon="-7.031452">
        <ele>841.040</ele>
        <time>1999-07-25T11:12:13Z</time>
      </trkpt>
      <trkpt lat="43.142819" lon="-7.031704">
        <ele>840.467</ele>
        <time>1999-07-25T11:12:15Z</time>
      </trkpt>
      <trkpt lat="43.142881" lon="-7.032059">
        <ele>839.274</ele>
        <time>1999-07-25T11:12:18Z</time>
      </trkpt>
      <trkpt lat="43.142960" lon="-7.032375">
        <ele>838.242</ele>
        <time>1999-07-25T11:12:21Z</time>
      </trkpt>
      <trkpt lat="43.143030" lon="-7.032662">
        <ele>837.069</ele>
        <time>1999-07-25T11:12:24Z</time>
      </trkpt>
      <trkpt lat="43.143067" lon="-7.032833">
        <ele>836.204</ele>
        <time>1999-07-25T11:12:26Z</time>
      </trkpt>
      <trkpt lat="43.143068" lon="-7.032915">
        <ele>835.824</ele>
        <time>1999-07-25T11:12:27Z</time>
      </trkpt>
      <trkpt lat="43.143053" lon="-7.032989">
        <ele>835.208</ele>
        <time>1999-07-25T11:12:28Z</time>
      </trkpt>
      <trkpt lat="43.142984" lon="-7.033100">
        <ele>834.659</ele>
        <time>1999-07-25T11:12:30Z</time>
      </trkpt>
      <trkpt lat="43.142940" lon="-7.033135">
        <ele>834.665</ele>
        <time>1999-07-25T11:12:31Z</time>
      </trkpt>
      <trkpt lat="43.142895" lon="-7.033164">
        <ele>834.476</ele>
        <time>1999-07-25T11:12:32Z</time>
      </trkpt>
      <trkpt lat="43.142851" lon="-7.033196">
        <ele>834.431</ele>
        <time>1999-07-25T11:12:33Z</time>
      </trkpt>
      <trkpt lat="43.142800" lon="-7.033296">
        <ele>834.461</ele>
        <time>1999-07-25T11:12:35Z</time>
      </trkpt>
      <trkpt lat="43.142791" lon="-7.033426">
        <ele>834.458</ele>
        <time>1999-07-25T11:12:37Z</time>
      </trkpt>
      <trkpt lat="43.142781" lon="-7.033673">
        <ele>834.465</ele>
        <time>1999-07-25T11:12:41Z</time>
      </trkpt>
      <trkpt lat="43.142779" lon="-7.033729">
        <ele>834.473</ele>
        <time>1999-07-25T11:12:42Z</time>
      </trkpt>
      <trkpt lat="43.142795" lon="-7.033953">
        <ele>834.676</ele>
        <time>1999-07-25T11:12:46Z</time>
      </trkpt>
      <trkpt lat="43.142796" lon="-7.034012">
        <ele>834.890</ele>
        <time>1999-07-25T11:12:47Z</time>
      </trkpt>
      <trkpt lat="43.142767" lon="-7.034268">
        <ele>835.219</ele>
        <time>1999-07-25T11:12:52Z</time>
      </trkpt>
      <trkpt lat="43.142742" lon="-7.034298">
        <ele>835.408</ele>
        <time>1999-07-25T11:12:53Z</time>
      </trkpt>
      <trkpt lat="43.142676" lon="-7.034308">
        <ele>835.620</ele>
        <time>1999-07-25T11:12:55Z</time>
      </trkpt>
      <trkpt lat="43.142645" lon="-7.034294">
        <ele>835.846</ele>
        <time>1999-07-25T11:12:56Z</time>
      </trkpt>
      <trkpt lat="43.142616" lon="-7.034274">
        <ele>836.087</ele>
        <time>1999-07-25T11:12:57Z</time>
      </trkpt>
      <trkpt lat="43.142530" lon="-7.034271">
        <ele>836.662</ele>
        <time>1999-07-25T11:13:00Z</time>
      </trkpt>
      <trkpt lat="43.142517" lon="-7.034369">
        <ele>836.852</ele>
        <time>1999-07-25T11:13:03Z</time>
      </trkpt>
      <trkpt lat="43.142499" lon="-7.034488">
        <ele>837.099</ele>
        <time>1999-07-25T11:13:06Z</time>
      </trkpt>
      <trkpt lat="43.142480" lon="-7.034526">
        <ele>837.066</ele>
        <time>1999-07-25T11:13:07Z</time>
      </trkpt>
      <trkpt lat="43.142424" lon="-7.034642">
        <ele>837.224</ele>
        <time>1999-07-25T11:13:10Z</time>
      </trkpt>
      <trkpt lat="43.142381" lon="-7.034712">
        <ele>837.224</ele>
        <time>1999-07-25T11:13:12Z</time>
      </trkpt>
      <trkpt lat="43.142359" lon="-7.034747">
        <ele>837.404</ele>
        <time>1999-07-25T11:13:13Z</time>
      </trkpt>
      <trkpt lat="43.142237" lon="-7.034885">
        <ele>837.614</ele>
        <time>1999-07-25T11:13:18Z</time>
      </trkpt>
      <trkpt lat="43.142157" lon="-7.034945">
        <ele>838.008</ele>
        <time>1999-07-25T11:13:21Z</time>
      </trkpt>
      <trkpt lat="43.142056" lon="-7.035005">
        <ele>838.255</ele>
        <time>1999-07-25T11:13:25Z</time>
      </trkpt>
      <trkpt lat="43.141904" lon="-7.035117">
        <ele>839.021</ele>
        <time>1999-07-25T11:13:32Z</time>
      </trkpt>
      <trkpt lat="43.141865" lon="-7.035149">
        <ele>839.242</ele>
        <time>1999-07-25T11:13:34Z</time>
      </trkpt>
      <trkpt lat="43.141783" lon="-7.035200">
        <ele>840.097</ele>
        <time>1999-07-25T11:13:38Z</time>
      </trkpt>
      <trkpt lat="43.141748" lon="-7.035216">
        <ele>840.417</ele>
        <time>1999-07-25T11:13:40Z</time>
      </trkpt>
      <trkpt lat="43.141665" lon="-7.035248">
        <ele>841.664</ele>
        <time>1999-07-25T11:13:45Z</time>
      </trkpt>
      <trkpt lat="43.141648" lon="-7.035256">
        <ele>842.091</ele>
        <time>1999-07-25T11:13:46Z</time>
      </trkpt>
      <trkpt lat="43.141587" lon="-7.035297">
        <ele>842.639</ele>
        <time>1999-07-25T11:13:50Z</time>
      </trkpt>
      <trkpt lat="43.141532" lon="-7.035353">
        <ele>843.412</ele>
        <time>1999-07-25T11:13:54Z</time>
      </trkpt>
      <trkpt lat="43.141503" lon="-7.035374">
        <ele>843.832</ele>
        <time>1999-07-25T11:13:56Z</time>
      </trkpt>
      <trkpt lat="43.141422" lon="-7.035431">
        <ele>844.805</ele>
        <time>1999-07-25T11:14:01Z</time>
      </trkpt>
      <trkpt lat="43.141406" lon="-7.035443">
        <ele>845.008</ele>
        <time>1999-07-25T11:14:02Z</time>
      </trkpt>
      <trkpt lat="43.141284" lon="-7.035550">
        <ele>846.244</ele>
        <time>1999-07-25T11:14:10Z</time>
      </trkpt>
      <trkpt lat="43.141268" lon="-7.035563">
        <ele>846.610</ele>
        <time>1999-07-25T11:14:11Z</time>
      </trkpt>
      <trkpt lat="43.141229" lon="-7.035600">
        <ele>847.451</ele>
        <time>1999-07-25T11:14:14Z</time>
      </trkpt>
      <trkpt lat="43.141175" lon="-7.035646">
        <ele>848.426</ele>
        <time>1999-07-25T11:14:18Z</time>
      </trkpt>
      <trkpt lat="43.141164" lon="-7.035657">
        <ele>848.856</ele>
        <time>1999-07-25T11:14:19Z</time>
      </trkpt>
      <trkpt lat="43.141097" lon="-7.035731">
        <ele>849.853</ele>
        <time>1999-07-25T11:14:25Z</time>
      </trkpt>
      <trkpt lat="43.141061" lon="-7.035763">
        <ele>851.050</ele>
        <time>1999-07-25T11:14:28Z</time>
      </trkpt>
      <trkpt lat="43.141005" lon="-7.035805">
        <ele>852.018</ele>
        <time>1999-07-25T11:14:32Z</time>
      </trkpt>
      <trkpt lat="43.140991" lon="-7.035815">
        <ele>852.281</ele>
        <time>1999-07-25T11:14:33Z</time>
      </trkpt>
      <trkpt lat="43.140932" lon="-7.035847">
        <ele>853.061</ele>
        <time>1999-07-25T11:14:37Z</time>
      </trkpt>
      <trkpt lat="43.140864" lon="-7.035873">
        <ele>853.817</ele>
        <time>1999-07-25T11:14:41Z</time>
      </trkpt>
      <trkpt lat="43.140826" lon="-7.035888">
        <ele>854.208</ele>
        <time>1999-07-25T11:14:43Z</time>
      </trkpt>
      <trkpt lat="43.140751" lon="-7.035942">
        <ele>855.061</ele>
        <time>1999-07-25T11:14:48Z</time>
      </trkpt>
      <trkpt lat="43.140716" lon="-7.035991">
        <ele>855.297</ele>
        <time>1999-07-25T11:14:51Z</time>
      </trkpt>
      <trkpt lat="43.140663" lon="-7.036068">
        <ele>855.428</ele>
        <time>1999-07-25T11:14:55Z</time>
      </trkpt>
      <trkpt lat="43.140610" lon="-7.036175">
        <ele>856.273</ele>
        <time>1999-07-25T11:15:00Z</time>
      </trkpt>
      <trkpt lat="43.140596" lon="-7.036195">
        <ele>856.243</ele>
        <time>1999-07-25T11:15:01Z</time>
      </trkpt>
      <trkpt lat="43.140542" lon="-7.036266">
        <ele>857.020</ele>
        <time>1999-07-25T11:15:05Z</time>
      </trkpt>
      <trkpt lat="43.140501" lon="-7.036289">
        <ele>857.297</ele>
        <time>1999-07-25T11:15:07Z</time>
      </trkpt>
      <trkpt lat="43.140463" lon="-7.036303">
        <ele>857.465</ele>
        <time>1999-07-25T11:15:09Z</time>
      </trkpt>
      <trkpt lat="43.140412" lon="-7.036318">
        <ele>857.661</ele>
        <time>1999-07-25T11:15:11Z</time>
      </trkpt>
      <trkpt lat="43.140233" lon="-7.036381">
        <ele>858.421</ele>
        <time>1999-07-25T11:15:18Z</time>
      </trkpt>
      <trkpt lat="43.140212" lon="-7.036397">
        <ele>858.413</ele>
        <time>1999-07-25T11:15:19Z</time>
      </trkpt>
      <trkpt lat="43.140194" lon="-7.036414">
        <ele>858.608</ele>
        <time>1999-07-25T11:15:20Z</time>
      </trkpt>
      <trkpt lat="43.140154" lon="-7.036436">
        <ele>859.019</ele>
        <time>1999-07-25T11:15:22Z</time>
      </trkpt>
      <trkpt lat="43.140052" lon="-7.036482">
        <ele>859.695</ele>
        <time>1999-07-25T11:15:27Z</time>
      </trkpt>
      <trkpt lat="43.139971" lon="-7.036519">
        <ele>860.296</ele>
        <time>1999-07-25T11:15:31Z</time>
      </trkpt>
      <trkpt lat="43.139939" lon="-7.036541">
        <ele>860.861</ele>
        <time>1999-07-25T11:15:33Z</time>
      </trkpt>
      <trkpt lat="43.139890" lon="-7.036582">
        <ele>861.411</ele>
        <time>1999-07-25T11:15:37Z</time>
      </trkpt>
      <trkpt lat="43.139853" lon="-7.036608">
        <ele>861.818</ele>
        <time>1999-07-25T11:15:39Z</time>
      </trkpt>
      <trkpt lat="43.139775" lon="-7.036661">
        <ele>863.075</ele>
        <time>1999-07-25T11:15:43Z</time>
      </trkpt>
      <trkpt lat="43.139663" lon="-7.036746">
        <ele>864.053</ele>
        <time>1999-07-25T11:15:48Z</time>
      </trkpt>
      <trkpt lat="43.139638" lon="-7.036762">
        <ele>864.267</ele>
        <time>1999-07-25T11:15:49Z</time>
      </trkpt>
      <trkpt lat="43.139493" lon="-7.036865">
        <ele>864.881</ele>
        <time>1999-07-25T11:15:55Z</time>
      </trkpt>
      <trkpt lat="43.139451" lon="-7.036894">
        <ele>865.019</ele>
        <time>1999-07-25T11:15:57Z</time>
      </trkpt>
      <trkpt lat="43.139340" lon="-7.036964">
        <ele>865.608</ele>
        <time>1999-07-25T11:16:02Z</time>
      </trkpt>
      <trkpt lat="43.139249" lon="-7.037051">
        <ele>866.249</ele>
        <time>1999-07-25T11:16:06Z</time>
      </trkpt>
      <trkpt lat="43.139222" lon="-7.037075">
        <ele>866.215</ele>
        <time>1999-07-25T11:16:07Z</time>
      </trkpt>
      <trkpt lat="43.139126" lon="-7.037165">
        <ele>866.686</ele>
        <time>1999-07-25T11:16:10Z</time>
      </trkpt>
      <trkpt lat="43.139094" lon="-7.037197">
        <ele>866.661</ele>
        <time>1999-07-25T11:16:11Z</time>
      </trkpt>
      <trkpt lat="43.139059" lon="-7.037228">
        <ele>866.681</ele>
        <time>1999-07-25T11:16:12Z</time>
      </trkpt>
      <trkpt lat="43.138991" lon="-7.037300">
        <ele>866.698</ele>
        <time>1999-07-25T11:16:14Z</time>
      </trkpt>
      <trkpt lat="43.138956" lon="-7.037346">
        <ele>866.625</ele>
        <time>1999-07-25T11:16:15Z</time>
      </trkpt>
      <trkpt lat="43.138919" lon="-7.037394">
        <ele>866.623</ele>
        <time>1999-07-25T11:16:16Z</time>
      </trkpt>
      <trkpt lat="43.138785" lon="-7.037555">
        <ele>866.425</ele>
        <time>1999-07-25T11:16:19Z</time>
      </trkpt>
      <trkpt lat="43.138678" lon="-7.037677">
        <ele>866.226</ele>
        <time>1999-07-25T11:16:21Z</time>
      </trkpt>
      <trkpt lat="43.138567" lon="-7.037817">
        <ele>866.008</ele>
        <time>1999-07-25T11:16:23Z</time>
      </trkpt>
      <trkpt lat="43.138444" lon="-7.037942">
        <ele>865.808</ele>
        <time>1999-07-25T11:16:25Z</time>
      </trkpt>
      <trkpt lat="43.138383" lon="-7.038002">
        <ele>865.445</ele>
        <time>1999-07-25T11:16:26Z</time>
      </trkpt>
      <trkpt lat="43.138320" lon="-7.038059">
        <ele>865.271</ele>
        <time>1999-07-25T11:16:27Z</time>
      </trkpt>
      <trkpt lat="43.138188" lon="-7.038183">
        <ele>863.842</ele>
        <time>1999-07-25T11:16:29Z</time>
      </trkpt>
      <trkpt lat="43.138059" lon="-7.038313">
        <ele>862.477</ele>
        <time>1999-07-25T11:16:31Z</time>
      </trkpt>
      <trkpt lat="43.137999" lon="-7.038387">
        <ele>861.877</ele>
        <time>1999-07-25T11:16:32Z</time>
      </trkpt>
      <trkpt lat="43.137942" lon="-7.038464">
        <ele>861.244</ele>
        <time>1999-07-25T11:16:33Z</time>
      </trkpt>
      <trkpt lat="43.137824" lon="-7.038632">
        <ele>860.061</ele>
        <time>1999-07-25T11:16:35Z</time>
      </trkpt>
      <trkpt lat="43.137707" lon="-7.038790">
        <ele>858.819</ele>
        <time>1999-07-25T11:16:37Z</time>
      </trkpt>
      <trkpt lat="43.137645" lon="-7.038860">
        <ele>858.659</ele>
        <time>1999-07-25T11:16:38Z</time>
      </trkpt>
      <trkpt lat="43.137470" lon="-7.039026">
        <ele>857.403</ele>
        <time>1999-07-25T11:16:41Z</time>
      </trkpt>
      <trkpt lat="43.137366" lon="-7.039131">
        <ele>856.623</ele>
        <time>1999-07-25T11:16:43Z</time>
      </trkpt>
      <trkpt lat="43.137316" lon="-7.039187">
        <ele>856.208</ele>
        <time>1999-07-25T11:16:44Z</time>
      </trkpt>
      <trkpt lat="43.137229" lon="-7.039304">
        <ele>855.638</ele>
        <time>1999-07-25T11:16:46Z</time>
      </trkpt>
      <trkpt lat="43.137162" lon="-7.039434">
        <ele>855.224</ele>
        <time>1999-07-25T11:16:48Z</time>
      </trkpt>
      <trkpt lat="43.137095" lon="-7.039562">
        <ele>854.875</ele>
        <time>1999-07-25T11:16:50Z</time>
      </trkpt>
      <trkpt lat="43.136999" lon="-7.039750">
        <ele>854.860</ele>
        <time>1999-07-25T11:16:53Z</time>
      </trkpt>
      <trkpt lat="43.136975" lon="-7.039820">
        <ele>854.870</ele>
        <time>1999-07-25T11:16:54Z</time>
      </trkpt>
      <trkpt lat="43.136939" lon="-7.039966">
        <ele>854.687</ele>
        <time>1999-07-25T11:16:56Z</time>
      </trkpt>
      <trkpt lat="43.136885" lon="-7.040256">
        <ele>854.474</ele>
        <time>1999-07-25T11:17:00Z</time>
      </trkpt>
      <trkpt lat="43.136871" lon="-7.040584">
        <ele>854.272</ele>
        <time>1999-07-25T11:17:05Z</time>
      </trkpt>
      <trkpt lat="43.136876" lon="-7.040643">
        <ele>854.266</ele>
        <time>1999-07-25T11:17:06Z</time>
      </trkpt>
      <trkpt lat="43.136896" lon="-7.040856">
        <ele>854.429</ele>
        <time>1999-07-25T11:17:11Z</time>
      </trkpt>
      <trkpt lat="43.136892" lon="-7.040873">
        <ele>854.421</ele>
        <time>1999-07-25T11:17:14Z</time>
      </trkpt>
      <trkpt lat="43.136924" lon="-7.040927">
        <ele>854.808</ele>
        <time>1999-07-25T11:17:28Z</time>
      </trkpt>
      <trkpt lat="43.136928" lon="-7.040954">
        <ele>854.879</ele>
        <time>1999-07-25T11:17:29Z</time>
      </trkpt>
      <trkpt lat="43.136931" lon="-7.040984">
        <ele>854.855</ele>
        <time>1999-07-25T11:17:30Z</time>
      </trkpt>
      <trkpt lat="43.136938" lon="-7.041063">
        <ele>854.866</ele>
        <time>1999-07-25T11:17:32Z</time>
      </trkpt>
      <trkpt lat="43.136960" lon="-7.041154">
        <ele>855.091</ele>
        <time>1999-07-25T11:17:34Z</time>
      </trkpt>
      <trkpt lat="43.136981" lon="-7.041421">
        <ele>855.091</ele>
        <time>1999-07-25T11:17:39Z</time>
      </trkpt>
      <trkpt lat="43.136970" lon="-7.041807">
        <ele>855.218</ele>
        <time>1999-07-25T11:17:45Z</time>
      </trkpt>
      <trkpt lat="43.136964" lon="-7.041939">
        <ele>855.275</ele>
        <time>1999-07-25T11:17:47Z</time>
      </trkpt>
      <trkpt lat="43.136925" lon="-7.042656">
        <ele>855.843</ele>
        <time>1999-07-25T11:17:57Z</time>
      </trkpt>
      <trkpt lat="43.136889" lon="-7.043194">
        <ele>856.039</ele>
        <time>1999-07-25T11:18:04Z</time>
      </trkpt>
      <trkpt lat="43.136883" lon="-7.043267">
        <ele>856.001</ele>
        <time>1999-07-25T11:18:05Z</time>
      </trkpt>
      <trkpt lat="43.136879" lon="-7.043339">
        <ele>856.221</ele>
        <time>1999-07-25T11:18:06Z</time>
      </trkpt>
      <trkpt lat="43.136871" lon="-7.043549">
        <ele>856.408</ele>
        <time>1999-07-25T11:18:09Z</time>
      </trkpt>
      <trkpt lat="43.136873" lon="-7.043819">
        <ele>856.656</ele>
        <time>1999-07-25T11:18:13Z</time>
      </trkpt>
      <trkpt lat="43.136899" lon="-7.044094">
        <ele>857.042</ele>
        <time>1999-07-25T11:18:17Z</time>
      </trkpt>
      <trkpt lat="43.136929" lon="-7.044278">
        <ele>857.443</ele>
        <time>1999-07-25T11:18:20Z</time>
      </trkpt>
      <trkpt lat="43.136971" lon="-7.044450">
        <ele>857.888</ele>
        <time>1999-07-25T11:18:23Z</time>
      </trkpt>
      <trkpt lat="43.137004" lon="-7.044560">
        <ele>858.448</ele>
        <time>1999-07-25T11:18:25Z</time>
      </trkpt>
      <trkpt lat="43.137063" lon="-7.044718">
        <ele>859.215</ele>
        <time>1999-07-25T11:18:28Z</time>
      </trkpt>
      <trkpt lat="43.137085" lon="-7.044772">
        <ele>859.492</ele>
        <time>1999-07-25T11:18:29Z</time>
      </trkpt>
      <trkpt lat="43.137210" lon="-7.045074">
        <ele>860.620</ele>
        <time>1999-07-25T11:18:35Z</time>
      </trkpt>
      <trkpt lat="43.137250" lon="-7.045173">
        <ele>861.291</ele>
        <time>1999-07-25T11:18:37Z</time>
      </trkpt>
      <trkpt lat="43.137289" lon="-7.045270">
        <ele>861.881</ele>
        <time>1999-07-25T11:18:39Z</time>
      </trkpt>
      <trkpt lat="43.137359" lon="-7.045466">
        <ele>862.819</ele>
        <time>1999-07-25T11:18:43Z</time>
      </trkpt>
      <trkpt lat="43.137405" lon="-7.045624">
        <ele>863.608</ele>
        <time>1999-07-25T11:18:46Z</time>
      </trkpt>
      <trkpt lat="43.137419" lon="-7.045675">
        <ele>864.042</ele>
        <time>1999-07-25T11:18:47Z</time>
      </trkpt>
      <trkpt lat="43.137471" lon="-7.045941">
        <ele>865.058</ele>
        <time>1999-07-25T11:18:52Z</time>
      </trkpt>
      <trkpt lat="43.137474" lon="-7.045996">
        <ele>865.259</ele>
        <time>1999-07-25T11:18:53Z</time>
      </trkpt>
      <trkpt lat="43.137479" lon="-7.046230">
        <ele>866.234</ele>
        <time>1999-07-25T11:18:57Z</time>
      </trkpt>
      <trkpt lat="43.137477" lon="-7.046291">
        <ele>866.634</ele>
        <time>1999-07-25T11:18:58Z</time>
      </trkpt>
      <trkpt lat="43.137465" lon="-7.046486">
        <ele>867.021</ele>
        <time>1999-07-25T11:19:01Z</time>
      </trkpt>
      <trkpt lat="43.137428" lon="-7.046684">
        <ele>867.618</ele>
        <time>1999-07-25T11:19:04Z</time>
      </trkpt>
      <trkpt lat="43.137354" lon="-7.046946">
        <ele>868.066</ele>
        <time>1999-07-25T11:19:08Z</time>
      </trkpt>
      <trkpt lat="43.137271" lon="-7.047132">
        <ele>868.244</ele>
        <time>1999-07-25T11:19:11Z</time>
      </trkpt>
      <trkpt lat="43.137201" lon="-7.047256">
        <ele>868.205</ele>
        <time>1999-07-25T11:19:13Z</time>
      </trkpt>
      <trkpt lat="43.137115" lon="-7.047379">
        <ele>868.215</ele>
        <time>1999-07-25T11:19:15Z</time>
      </trkpt>
      <trkpt lat="43.137017" lon="-7.047493">
        <ele>868.008</ele>
        <time>1999-07-25T11:19:17Z</time>
      </trkpt>
      <trkpt lat="43.136904" lon="-7.047601">
        <ele>868.067</ele>
        <time>1999-07-25T11:19:19Z</time>
      </trkpt>
      <trkpt lat="43.136775" lon="-7.047694">
        <ele>867.683</ele>
        <time>1999-07-25T11:19:21Z</time>
      </trkpt>
      <trkpt lat="43.136704" lon="-7.047734">
        <ele>867.444</ele>
        <time>1999-07-25T11:19:22Z</time>
      </trkpt>
      <trkpt lat="43.136630" lon="-7.047768">
        <ele>867.479</ele>
        <time>1999-07-25T11:19:23Z</time>
      </trkpt>
      <trkpt lat="43.136553" lon="-7.047799">
        <ele>867.249</ele>
        <time>1999-07-25T11:19:24Z</time>
      </trkpt>
      <trkpt lat="43.136476" lon="-7.047826">
        <ele>867.266</ele>
        <time>1999-07-25T11:19:25Z</time>
      </trkpt>
      <trkpt lat="43.136397" lon="-7.047850">
        <ele>866.833</ele>
        <time>1999-07-25T11:19:26Z</time>
      </trkpt>
      <trkpt lat="43.136316" lon="-7.047872">
        <ele>866.481</ele>
        <time>1999-07-25T11:19:27Z</time>
      </trkpt>
      <trkpt lat="43.136233" lon="-7.047892">
        <ele>866.084</ele>
        <time>1999-07-25T11:19:28Z</time>
      </trkpt>
      <trkpt lat="43.136061" lon="-7.047933">
        <ele>865.207</ele>
        <time>1999-07-25T11:19:30Z</time>
      </trkpt>
      <trkpt lat="43.135973" lon="-7.047954">
        <ele>865.017</ele>
        <time>1999-07-25T11:19:31Z</time>
      </trkpt>
      <trkpt lat="43.135790" lon="-7.047996">
        <ele>864.608</ele>
        <time>1999-07-25T11:19:33Z</time>
      </trkpt>
      <trkpt lat="43.135608" lon="-7.048062">
        <ele>863.661</ele>
        <time>1999-07-25T11:19:35Z</time>
      </trkpt>
      <trkpt lat="43.135519" lon="-7.048108">
        <ele>863.287</ele>
        <time>1999-07-25T11:19:36Z</time>
      </trkpt>
      <trkpt lat="43.135432" lon="-7.048165">
        <ele>862.648</ele>
        <time>1999-07-25T11:19:37Z</time>
      </trkpt>
      <trkpt lat="43.135352" lon="-7.048232">
        <ele>862.213</ele>
        <time>1999-07-25T11:19:38Z</time>
      </trkpt>
      <trkpt lat="43.135199" lon="-7.048393">
        <ele>861.453</ele>
        <time>1999-07-25T11:19:40Z</time>
      </trkpt>
      <trkpt lat="43.135129" lon="-7.048483">
        <ele>861.020</ele>
        <time>1999-07-25T11:19:41Z</time>
      </trkpt>
      <trkpt lat="43.135065" lon="-7.048581">
        <ele>860.687</ele>
        <time>1999-07-25T11:19:42Z</time>
      </trkpt>
      <trkpt lat="43.134959" lon="-7.048799">
        <ele>859.845</ele>
        <time>1999-07-25T11:19:44Z</time>
      </trkpt>
      <trkpt lat="43.134916" lon="-7.048917">
        <ele>859.484</ele>
        <time>1999-07-25T11:19:45Z</time>
      </trkpt>
      <trkpt lat="43.134837" lon="-7.049291">
        <ele>858.607</ele>
        <time>1999-07-25T11:19:48Z</time>
      </trkpt>
      <trkpt lat="43.134828" lon="-7.049419">
        <ele>858.217</ele>
        <time>1999-07-25T11:19:49Z</time>
      </trkpt>
      <trkpt lat="43.134834" lon="-7.049678">
        <ele>857.208</ele>
        <time>1999-07-25T11:19:51Z</time>
      </trkpt>
      <trkpt lat="43.134863" lon="-7.049922">
        <ele>855.221</ele>
        <time>1999-07-25T11:19:53Z</time>
      </trkpt>
      <trkpt lat="43.134918" lon="-7.050143">
        <ele>854.037</ele>
        <time>1999-07-25T11:19:55Z</time>
      </trkpt>
      <trkpt lat="43.134994" lon="-7.050352">
        <ele>853.288</ele>
        <time>1999-07-25T11:19:57Z</time>
      </trkpt>
      <trkpt lat="43.135037" lon="-7.050447">
        <ele>852.853</ele>
        <time>1999-07-25T11:19:58Z</time>
      </trkpt>
      <trkpt lat="43.135084" lon="-7.050536">
        <ele>851.633</ele>
        <time>1999-07-25T11:19:59Z</time>
      </trkpt>
      <trkpt lat="43.135189" lon="-7.050699">
        <ele>850.850</ele>
        <time>1999-07-25T11:20:01Z</time>
      </trkpt>
      <trkpt lat="43.135250" lon="-7.050768">
        <ele>850.677</ele>
        <time>1999-07-25T11:20:02Z</time>
      </trkpt>
      <trkpt lat="43.135443" lon="-7.050945">
        <ele>849.695</ele>
        <time>1999-07-25T11:20:05Z</time>
      </trkpt>
      <trkpt lat="43.135510" lon="-7.050988">
        <ele>849.495</ele>
        <time>1999-07-25T11:20:06Z</time>
      </trkpt>
      <trkpt lat="43.135641" lon="-7.051078">
        <ele>849.049</ele>
        <time>1999-07-25T11:20:08Z</time>
      </trkpt>
      <trkpt lat="43.135733" lon="-7.051207">
        <ele>848.623</ele>
        <time>1999-07-25T11:20:10Z</time>
      </trkpt>
      <trkpt lat="43.135877" lon="-7.051346">
        <ele>848.608</ele>
        <time>1999-07-25T11:20:13Z</time>
      </trkpt>
      <trkpt lat="43.135929" lon="-7.051376">
        <ele>848.452</ele>
        <time>1999-07-25T11:20:14Z</time>
      </trkpt>
      <trkpt lat="43.135982" lon="-7.051411">
        <ele>848.468</ele>
        <time>1999-07-25T11:20:15Z</time>
      </trkpt>
      <trkpt lat="43.136142" lon="-7.051494">
        <ele>848.269</ele>
        <time>1999-07-25T11:20:18Z</time>
      </trkpt>
      <trkpt lat="43.136197" lon="-7.051519">
        <ele>848.294</ele>
        <time>1999-07-25T11:20:19Z</time>
      </trkpt>
      <trkpt lat="43.136253" lon="-7.051549">
        <ele>848.294</ele>
        <time>1999-07-25T11:20:20Z</time>
      </trkpt>
      <trkpt lat="43.136408" lon="-7.051679">
        <ele>848.241</ele>
        <time>1999-07-25T11:20:23Z</time>
      </trkpt>
      <trkpt lat="43.136452" lon="-7.051710">
        <ele>848.298</ele>
        <time>1999-07-25T11:20:24Z</time>
      </trkpt>
      <trkpt lat="43.136490" lon="-7.051733">
        <ele>848.266</ele>
        <time>1999-07-25T11:20:25Z</time>
      </trkpt>
      <trkpt lat="43.136522" lon="-7.051754">
        <ele>848.236</ele>
        <time>1999-07-25T11:20:26Z</time>
      </trkpt>
      <trkpt lat="43.136550" lon="-7.051775">
        <ele>848.217</ele>
        <time>1999-07-25T11:20:27Z</time>
      </trkpt>
      <trkpt lat="43.136600" lon="-7.051824">
        <ele>848.218</ele>
        <time>1999-07-25T11:20:29Z</time>
      </trkpt>
      <trkpt lat="43.136624" lon="-7.051843">
        <ele>848.208</ele>
        <time>1999-07-25T11:20:30Z</time>
      </trkpt>
      <trkpt lat="43.136675" lon="-7.051885">
        <ele>848.226</ele>
        <time>1999-07-25T11:20:32Z</time>
      </trkpt>
      <trkpt lat="43.136758" lon="-7.051959">
        <ele>849.222</ele>
        <time>1999-07-25T11:20:35Z</time>
      </trkpt>
      <trkpt lat="43.136815" lon="-7.052028">
        <ele>849.623</ele>
        <time>1999-07-25T11:20:37Z</time>
      </trkpt>
      <trkpt lat="43.136873" lon="-7.052167">
        <ele>850.668</ele>
        <time>1999-07-25T11:20:40Z</time>
      </trkpt>
      <trkpt lat="43.136873" lon="-7.052226">
        <ele>850.878</ele>
        <time>1999-07-25T11:20:41Z</time>
      </trkpt>
      <trkpt lat="43.136826" lon="-7.052351">
        <ele>850.875</ele>
        <time>1999-07-25T11:20:43Z</time>
      </trkpt>
      <trkpt lat="43.136687" lon="-7.052501">
        <ele>850.862</ele>
        <time>1999-07-25T11:20:46Z</time>
      </trkpt>
      <trkpt lat="43.136466" lon="-7.052712">
        <ele>850.860</ele>
        <time>1999-07-25T11:20:50Z</time>
      </trkpt>
      <trkpt lat="43.136409" lon="-7.052776">
        <ele>850.661</ele>
        <time>1999-07-25T11:20:51Z</time>
      </trkpt>
      <trkpt lat="43.136293" lon="-7.052894">
        <ele>850.621</ele>
        <time>1999-07-25T11:20:53Z</time>
      </trkpt>
      <trkpt lat="43.136241" lon="-7.052950">
        <ele>850.013</ele>
        <time>1999-07-25T11:20:54Z</time>
      </trkpt>
      <trkpt lat="43.136140" lon="-7.053079">
        <ele>849.608</ele>
        <time>1999-07-25T11:20:56Z</time>
      </trkpt>
      <trkpt lat="43.135899" lon="-7.053370">
        <ele>848.029</ele>
        <time>1999-07-25T11:21:00Z</time>
      </trkpt>
      <trkpt lat="43.135835" lon="-7.053448">
        <ele>847.095</ele>
        <time>1999-07-25T11:21:01Z</time>
      </trkpt>
      <trkpt lat="43.135720" lon="-7.053583">
        <ele>845.676</ele>
        <time>1999-07-25T11:21:03Z</time>
      </trkpt>
      <trkpt lat="43.135671" lon="-7.053657">
        <ele>844.841</ele>
        <time>1999-07-25T11:21:04Z</time>
      </trkpt>
      <trkpt lat="43.135618" lon="-7.053736">
        <ele>844.451</ele>
        <time>1999-07-25T11:21:05Z</time>
      </trkpt>
      <trkpt lat="43.135506" lon="-7.053910">
        <ele>842.878</ele>
        <time>1999-07-25T11:21:07Z</time>
      </trkpt>
      <trkpt lat="43.135410" lon="-7.054078">
        <ele>841.285</ele>
        <time>1999-07-25T11:21:09Z</time>
      </trkpt>
      <trkpt lat="43.135319" lon="-7.054234">
        <ele>839.283</ele>
        <time>1999-07-25T11:21:11Z</time>
      </trkpt>
      <trkpt lat="43.135267" lon="-7.054326">
        <ele>838.081</ele>
        <time>1999-07-25T11:21:12Z</time>
      </trkpt>
      <trkpt lat="43.135218" lon="-7.054425">
        <ele>836.861</ele>
        <time>1999-07-25T11:21:13Z</time>
      </trkpt>
      <trkpt lat="43.135120" lon="-7.054624">
        <ele>835.617</ele>
        <time>1999-07-25T11:21:15Z</time>
      </trkpt>
      <trkpt lat="43.135072" lon="-7.054698">
        <ele>834.608</ele>
        <time>1999-07-25T11:21:16Z</time>
      </trkpt>
      <trkpt lat="43.135031" lon="-7.054765">
        <ele>833.621</ele>
        <time>1999-07-25T11:21:17Z</time>
      </trkpt>
      <trkpt lat="43.134996" lon="-7.054834">
        <ele>832.447</ele>
        <time>1999-07-25T11:21:18Z</time>
      </trkpt>
      <trkpt lat="43.134960" lon="-7.054918">
        <ele>831.478</ele>
        <time>1999-07-25T11:21:19Z</time>
      </trkpt>
      <trkpt lat="43.134894" lon="-7.055103">
        <ele>830.273</ele>
        <time>1999-07-25T11:21:21Z</time>
      </trkpt>
      <trkpt lat="43.134877" lon="-7.055197">
        <ele>829.073</ele>
        <time>1999-07-25T11:21:22Z</time>
      </trkpt>
      <trkpt lat="43.134876" lon="-7.055348">
        <ele>827.250</ele>
        <time>1999-07-25T11:21:24Z</time>
      </trkpt>
      <trkpt lat="43.134888" lon="-7.055428">
        <ele>826.277</ele>
        <time>1999-07-25T11:21:25Z</time>
      </trkpt>
      <trkpt lat="43.134903" lon="-7.055507">
        <ele>825.295</ele>
        <time>1999-07-25T11:21:26Z</time>
      </trkpt>
      <trkpt lat="43.134918" lon="-7.055583">
        <ele>824.053</ele>
        <time>1999-07-25T11:21:27Z</time>
      </trkpt>
      <trkpt lat="43.134932" lon="-7.055783">
        <ele>822.404</ele>
        <time>1999-07-25T11:21:29Z</time>
      </trkpt>
      <trkpt lat="43.134940" lon="-7.055876">
        <ele>821.014</ele>
        <time>1999-07-25T11:21:30Z</time>
      </trkpt>
      <trkpt lat="43.134945" lon="-7.055971">
        <ele>820.208</ele>
        <time>1999-07-25T11:21:31Z</time>
      </trkpt>
      <trkpt lat="43.134944" lon="-7.056065">
        <ele>819.698</ele>
        <time>1999-07-25T11:21:32Z</time>
      </trkpt>
      <trkpt lat="43.134921" lon="-7.056225">
        <ele>818.454</ele>
        <time>1999-07-25T11:21:34Z</time>
      </trkpt>
      <trkpt lat="43.134899" lon="-7.056293">
        <ele>817.455</ele>
        <time>1999-07-25T11:21:36Z</time>
      </trkpt>
      <trkpt lat="43.134892" lon="-7.056313">
        <ele>817.010</ele>
        <time>1999-07-25T11:21:37Z</time>
      </trkpt>
      <trkpt lat="43.134882" lon="-7.056328">
        <ele>816.630</ele>
        <time>1999-07-25T11:21:38Z</time>
      </trkpt>
      <trkpt lat="43.134848" lon="-7.056316">
        <ele>816.297</ele>
        <time>1999-07-25T11:21:40Z</time>
      </trkpt>
      <trkpt lat="43.134835" lon="-7.056306">
        <ele>816.044</ele>
        <time>1999-07-25T11:21:41Z</time>
      </trkpt>
      <trkpt lat="43.134793" lon="-7.056273">
        <ele>815.062</ele>
        <time>1999-07-25T11:21:44Z</time>
      </trkpt>
      <trkpt lat="43.134791" lon="-7.056230">
        <ele>814.452</ele>
        <time>1999-07-25T11:21:47Z</time>
      </trkpt>
      <trkpt lat="43.134818" lon="-7.056217">
        <ele>814.253</ele>
        <time>1999-07-25T11:21:49Z</time>
      </trkpt>
      <trkpt lat="43.134833" lon="-7.056210">
        <ele>814.008</ele>
        <time>1999-07-25T11:21:51Z</time>
      </trkpt>
      <trkpt lat="43.134837" lon="-7.056210">
        <ele>814.008</ele>
        <time>1999-07-25T11:21:52Z</time>
      </trkpt>
      <trkpt lat="43.134841" lon="-7.056211">
        <ele>814.038</ele>
        <time>1999-07-25T11:21:53Z</time>
      </trkpt>
      <trkpt lat="43.134840" lon="-7.056218">
        <ele>814.034</ele>
        <time>1999-07-25T11:21:56Z</time>
      </trkpt>
      <trkpt lat="43.134868" lon="-7.056310">
        <ele>814.015</ele>
        <time>1999-07-25T11:22:03Z</time>
      </trkpt>
      <trkpt lat="43.134875" lon="-7.056345">
        <ele>814.070</ele>
        <time>1999-07-25T11:22:04Z</time>
      </trkpt>
      <trkpt lat="43.134911" lon="-7.056530">
        <ele>814.060</ele>
        <time>1999-07-25T11:22:08Z</time>
      </trkpt>
      <trkpt lat="43.134911" lon="-7.056694">
        <ele>814.047</ele>
        <time>1999-07-25T11:22:11Z</time>
      </trkpt>
      <trkpt lat="43.134890" lon="-7.056865">
        <ele>814.084</ele>
        <time>1999-07-25T11:22:14Z</time>
      </trkpt>
      <trkpt lat="43.134878" lon="-7.057154">
        <ele>814.252</ele>
        <time>1999-07-25T11:22:19Z</time>
      </trkpt>
      <trkpt lat="43.134872" lon="-7.057260">
        <ele>814.231</ele>
        <time>1999-07-25T11:22:21Z</time>
      </trkpt>
      <trkpt lat="43.134855" lon="-7.057399">
        <ele>814.261</ele>
        <time>1999-07-25T11:22:24Z</time>
      </trkpt>
      <trkpt lat="43.134840" lon="-7.057529">
        <ele>814.407</ele>
        <time>1999-07-25T11:22:27Z</time>
      </trkpt>
      <trkpt lat="43.134832" lon="-7.057610">
        <ele>814.808</ele>
        <time>1999-07-25T11:22:29Z</time>
      </trkpt>
      <trkpt lat="43.134828" lon="-7.057650">
        <ele>815.216</ele>
        <time>1999-07-25T11:22:30Z</time>
      </trkpt>
      <trkpt lat="43.134807" lon="-7.057850">
        <ele>816.452</ele>
        <time>1999-07-25T11:22:35Z</time>
      </trkpt>
      <trkpt lat="43.134783" lon="-7.057959">
        <ele>817.013</ele>
        <time>1999-07-25T11:22:38Z</time>
      </trkpt>
      <trkpt lat="43.134768" lon="-7.058033">
        <ele>817.678</ele>
        <time>1999-07-25T11:22:40Z</time>
      </trkpt>
      <trkpt lat="43.134740" lon="-7.058134">
        <ele>818.248</ele>
        <time>1999-07-25T11:22:43Z</time>
      </trkpt>
      <trkpt lat="43.134712" lon="-7.058215">
        <ele>818.665</ele>
        <time>1999-07-25T11:22:46Z</time>
      </trkpt>
      <trkpt lat="43.134702" lon="-7.058308">
        <ele>819.252</ele>
        <time>1999-07-25T11:22:49Z</time>
      </trkpt>
      <trkpt lat="43.134678" lon="-7.058396">
        <ele>819.810</ele>
        <time>1999-07-25T11:22:52Z</time>
      </trkpt>
      <trkpt lat="43.134588" lon="-7.058567">
        <ele>821.055</ele>
        <time>1999-07-25T11:22:59Z</time>
      </trkpt>
      <trkpt lat="43.134515" lon="-7.058689">
        <ele>822.207</ele>
        <time>1999-07-25T11:23:05Z</time>
      </trkpt>
      <trkpt lat="43.134508" lon="-7.058698">
        <ele>822.417</ele>
        <time>1999-07-25T11:23:06Z</time>
      </trkpt>
      <trkpt lat="43.134500" lon="-7.058701">
        <ele>822.608</ele>
        <time>1999-07-25T11:23:08Z</time>
      </trkpt>
      <trkpt lat="43.134491" lon="-7.058779">
        <ele>824.088</ele>
        <time>1999-07-25T11:23:40Z</time>
      </trkpt>
      <trkpt lat="43.134494" lon="-7.058800">
        <ele>824.014</ele>
        <time>1999-07-25T11:23:41Z</time>
      </trkpt>
      <trkpt lat="43.134490" lon="-7.058867">
        <ele>824.275</ele>
        <time>1999-07-25T11:23:44Z</time>
      </trkpt>
      <trkpt lat="43.134480" lon="-7.058887">
        <ele>824.260</ele>
        <time>1999-07-25T11:23:45Z</time>
      </trkpt>
      <trkpt lat="43.134471" lon="-7.058910">
        <ele>824.220</ele>
        <time>1999-07-25T11:23:46Z</time>
      </trkpt>
      <trkpt lat="43.134457" lon="-7.059008">
        <ele>824.697</ele>
        <time>1999-07-25T11:23:50Z</time>
      </trkpt>
      <trkpt lat="43.134452" lon="-7.059055">
        <ele>824.884</ele>
        <time>1999-07-25T11:23:52Z</time>
      </trkpt>
      <trkpt lat="43.134445" lon="-7.059098">
        <ele>825.092</ele>
        <time>1999-07-25T11:23:54Z</time>
      </trkpt>
      <trkpt lat="43.134443" lon="-7.059119">
        <ele>825.235</ele>
        <time>1999-07-25T11:23:55Z</time>
      </trkpt>
      <trkpt lat="43.134434" lon="-7.059157">
        <ele>825.486</ele>
        <time>1999-07-25T11:23:57Z</time>
      </trkpt>
      <trkpt lat="43.134423" lon="-7.059194">
        <ele>825.814</ele>
        <time>1999-07-25T11:23:59Z</time>
      </trkpt>
      <trkpt lat="43.134411" lon="-7.059235">
        <ele>826.608</ele>
        <time>1999-07-25T11:24:01Z</time>
      </trkpt>
      <trkpt lat="43.134408" lon="-7.059299">
        <ele>827.666</ele>
        <time>1999-07-25T11:24:04Z</time>
      </trkpt>
      <trkpt lat="43.134410" lon="-7.059319">
        <ele>827.842</ele>
        <time>1999-07-25T11:24:05Z</time>
      </trkpt>
      <trkpt lat="43.134408" lon="-7.059356">
        <ele>828.443</ele>
        <time>1999-07-25T11:24:07Z</time>
      </trkpt>
      <trkpt lat="43.134403" lon="-7.059411">
        <ele>829.298</ele>
        <time>1999-07-25T11:24:10Z</time>
      </trkpt>
      <trkpt lat="43.134407" lon="-7.059471">
        <ele>830.418</ele>
        <time>1999-07-25T11:24:14Z</time>
      </trkpt>
      <trkpt lat="43.134409" lon="-7.059487">
        <ele>830.445</ele>
        <time>1999-07-25T11:24:15Z</time>
      </trkpt>
      <trkpt lat="43.134418" lon="-7.059531">
        <ele>831.692</ele>
        <time>1999-07-25T11:24:18Z</time>
      </trkpt>
      <trkpt lat="43.134427" lon="-7.059599">
        <ele>832.670</ele>
        <time>1999-07-25T11:24:22Z</time>
      </trkpt>
      <trkpt lat="43.134423" lon="-7.059618">
        <ele>832.822</ele>
        <time>1999-07-25T11:24:23Z</time>
      </trkpt>
      <trkpt lat="43.134413" lon="-7.059676">
        <ele>833.862</ele>
        <time>1999-07-25T11:24:26Z</time>
      </trkpt>
      <trkpt lat="43.134401" lon="-7.059765">
        <ele>834.808</ele>
        <time>1999-07-25T11:24:31Z</time>
      </trkpt>
      <trkpt lat="43.134400" lon="-7.059850">
        <ele>836.008</ele>
        <time>1999-07-25T11:24:35Z</time>
      </trkpt>
      <trkpt lat="43.134404" lon="-7.059919">
        <ele>836.875</ele>
        <time>1999-07-25T11:24:38Z</time>
      </trkpt>
      <trkpt lat="43.134411" lon="-7.059965">
        <ele>837.481</ele>
        <time>1999-07-25T11:24:40Z</time>
      </trkpt>
      <trkpt lat="43.134436" lon="-7.060075">
        <ele>838.462</ele>
        <time>1999-07-25T11:24:45Z</time>
      </trkpt>
      <trkpt lat="43.134464" lon="-7.060181">
        <ele>839.647</ele>
        <time>1999-07-25T11:24:50Z</time>
      </trkpt>
      <trkpt lat="43.134475" lon="-7.060228">
        <ele>840.077</ele>
        <time>1999-07-25T11:24:52Z</time>
      </trkpt>
      <trkpt lat="43.134500" lon="-7.060294">
        <ele>840.684</ele>
        <time>1999-07-25T11:24:55Z</time>
      </trkpt>
      <trkpt lat="43.134521" lon="-7.060335">
        <ele>841.251</ele>
        <time>1999-07-25T11:24:57Z</time>
      </trkpt>
      <trkpt lat="43.134541" lon="-7.060377">
        <ele>841.889</ele>
        <time>1999-07-25T11:24:59Z</time>
      </trkpt>
      <trkpt lat="43.134551" lon="-7.060397">
        <ele>841.853</ele>
        <time>1999-07-25T11:25:00Z</time>
      </trkpt>
      <trkpt lat="43.134613" lon="-7.060513">
        <ele>842.804</ele>
        <time>1999-07-25T11:25:06Z</time>
      </trkpt>
      <trkpt lat="43.134646" lon="-7.060565">
        <ele>843.614</ele>
        <time>1999-07-25T11:25:09Z</time>
      </trkpt>
      <trkpt lat="43.134667" lon="-7.060597">
        <ele>844.008</ele>
        <time>1999-07-25T11:25:11Z</time>
      </trkpt>
      <trkpt lat="43.134725" lon="-7.060713">
        <ele>845.288</ele>
        <time>1999-07-25T11:25:17Z</time>
      </trkpt>
      <trkpt lat="43.134783" lon="-7.060813">
        <ele>846.244</ele>
        <time>1999-07-25T11:25:22Z</time>
      </trkpt>
      <trkpt lat="43.134819" lon="-7.060866">
        <ele>846.675</ele>
        <time>1999-07-25T11:25:25Z</time>
      </trkpt>
      <trkpt lat="43.134849" lon="-7.060922">
        <ele>847.240</ele>
        <time>1999-07-25T11:25:28Z</time>
      </trkpt>
      <trkpt lat="43.134895" lon="-7.060997">
        <ele>848.470</ele>
        <time>1999-07-25T11:25:32Z</time>
      </trkpt>
      <trkpt lat="43.134913" lon="-7.061042">
        <ele>848.657</ele>
        <time>1999-07-25T11:25:34Z</time>
      </trkpt>
      <trkpt lat="43.134965" lon="-7.061139">
        <ele>849.624</ele>
        <time>1999-07-25T11:25:39Z</time>
      </trkpt>
      <trkpt lat="43.134977" lon="-7.061152">
        <ele>849.892</ele>
        <time>1999-07-25T11:25:40Z</time>
      </trkpt>
      <trkpt lat="43.135011" lon="-7.061202">
        <ele>850.867</ele>
        <time>1999-07-25T11:25:43Z</time>
      </trkpt>
      <trkpt lat="43.135072" lon="-7.061303">
        <ele>851.681</ele>
        <time>1999-07-25T11:25:49Z</time>
      </trkpt>
      <trkpt lat="43.135082" lon="-7.061323">
        <ele>851.819</ele>
        <time>1999-07-25T11:25:50Z</time>
      </trkpt>
      <trkpt lat="43.135127" lon="-7.061405">
        <ele>852.808</ele>
        <time>1999-07-25T11:25:54Z</time>
      </trkpt>
      <trkpt lat="43.135173" lon="-7.061481">
        <ele>853.469</ele>
        <time>1999-07-25T11:25:58Z</time>
      </trkpt>
      <trkpt lat="43.135199" lon="-7.061521">
        <ele>853.825</ele>
        <time>1999-07-25T11:26:00Z</time>
      </trkpt>
      <trkpt lat="43.135241" lon="-7.061617">
        <ele>854.426</ele>
        <time>1999-07-25T11:26:04Z</time>
      </trkpt>
      <trkpt lat="43.135262" lon="-7.061705">
        <ele>854.821</ele>
        <time>1999-07-25T11:26:07Z</time>
      </trkpt>
      <trkpt lat="43.135272" lon="-7.061731">
        <ele>855.031</ele>
        <time>1999-07-25T11:26:08Z</time>
      </trkpt>
      <trkpt lat="43.135315" lon="-7.061909">
        <ele>856.038</ele>
        <time>1999-07-25T11:26:14Z</time>
      </trkpt>
      <trkpt lat="43.135330" lon="-7.061959">
        <ele>856.495</ele>
        <time>1999-07-25T11:26:16Z</time>
      </trkpt>
      <trkpt lat="43.135348" lon="-7.062063">
        <ele>857.293</ele>
        <time>1999-07-25T11:26:20Z</time>
      </trkpt>
      <trkpt lat="43.135369" lon="-7.062192">
        <ele>858.072</ele>
        <time>1999-07-25T11:26:25Z</time>
      </trkpt>
      <trkpt lat="43.135370" lon="-7.062221">
        <ele>858.213</ele>
        <time>1999-07-25T11:26:26Z</time>
      </trkpt>
      <trkpt lat="43.135394" lon="-7.062399">
        <ele>859.414</ele>
        <time>1999-07-25T11:26:33Z</time>
      </trkpt>
      <trkpt lat="43.135397" lon="-7.062582">
        <ele>860.408</ele>
        <time>1999-07-25T11:26:40Z</time>
      </trkpt>
      <trkpt lat="43.135402" lon="-7.062682">
        <ele>861.030</ele>
        <time>1999-07-25T11:26:44Z</time>
      </trkpt>
      <trkpt lat="43.135400" lon="-7.062735">
        <ele>861.466</ele>
        <time>1999-07-25T11:26:46Z</time>
      </trkpt>
      <trkpt lat="43.135418" lon="-7.062910">
        <ele>862.687</ele>
        <time>1999-07-25T11:26:53Z</time>
      </trkpt>
      <trkpt lat="43.135418" lon="-7.062934">
        <ele>862.622</ele>
        <time>1999-07-25T11:26:54Z</time>
      </trkpt>
      <trkpt lat="43.135416" lon="-7.063089">
        <ele>863.662</ele>
        <time>1999-07-25T11:27:00Z</time>
      </trkpt>
      <trkpt lat="43.135420" lon="-7.063142">
        <ele>864.019</ele>
        <time>1999-07-25T11:27:02Z</time>
      </trkpt>
      <trkpt lat="43.135439" lon="-7.063270">
        <ele>864.856</ele>
        <time>1999-07-25T11:27:07Z</time>
      </trkpt>
      <trkpt lat="43.135461" lon="-7.063410">
        <ele>865.654</ele>
        <time>1999-07-25T11:27:12Z</time>
      </trkpt>
      <trkpt lat="43.135474" lon="-7.063538">
        <ele>866.093</ele>
        <time>1999-07-25T11:27:16Z</time>
      </trkpt>
      <trkpt lat="43.135480" lon="-7.063666">
        <ele>866.465</ele>
        <time>1999-07-25T11:27:20Z</time>
      </trkpt>
      <trkpt lat="43.135485" lon="-7.063838">
        <ele>867.021</ele>
        <time>1999-07-25T11:27:25Z</time>
      </trkpt>
      <trkpt lat="43.135476" lon="-7.063929">
        <ele>867.208</ele>
        <time>1999-07-25T11:27:28Z</time>
      </trkpt>
      <trkpt lat="43.135472" lon="-7.064028">
        <ele>868.292</ele>
        <time>1999-07-25T11:27:31Z</time>
      </trkpt>
      <trkpt lat="43.135458" lon="-7.064155">
        <ele>869.288</ele>
        <time>1999-07-25T11:27:35Z</time>
      </trkpt>
      <trkpt lat="43.135450" lon="-7.064186">
        <ele>869.239</ele>
        <time>1999-07-25T11:27:36Z</time>
      </trkpt>
      <trkpt lat="43.135430" lon="-7.064371">
        <ele>870.494</ele>
        <time>1999-07-25T11:27:42Z</time>
      </trkpt>
      <trkpt lat="43.135422" lon="-7.064588">
        <ele>871.614</ele>
        <time>1999-07-25T11:27:49Z</time>
      </trkpt>
      <trkpt lat="43.135421" lon="-7.064621">
        <ele>871.851</ele>
        <time>1999-07-25T11:27:50Z</time>
      </trkpt>
      <trkpt lat="43.135422" lon="-7.064745">
        <ele>872.848</ele>
        <time>1999-07-25T11:27:54Z</time>
      </trkpt>
      <trkpt lat="43.135423" lon="-7.064866">
        <ele>873.486</ele>
        <time>1999-07-25T11:27:58Z</time>
      </trkpt>
      <trkpt lat="43.135422" lon="-7.064929">
        <ele>873.881</ele>
        <time>1999-07-25T11:28:00Z</time>
      </trkpt>
      <trkpt lat="43.135404" lon="-7.065049">
        <ele>875.061</ele>
        <time>1999-07-25T11:28:04Z</time>
      </trkpt>
      <trkpt lat="43.135394" lon="-7.065110">
        <ele>875.617</ele>
        <time>1999-07-25T11:28:06Z</time>
      </trkpt>
      <trkpt lat="43.135377" lon="-7.065166">
        <ele>876.208</ele>
        <time>1999-07-25T11:28:08Z</time>
      </trkpt>
      <trkpt lat="43.135351" lon="-7.065248">
        <ele>877.061</ele>
        <time>1999-07-25T11:28:11Z</time>
      </trkpt>
      <trkpt lat="43.135344" lon="-7.065281">
        <ele>877.267</ele>
        <time>1999-07-25T11:28:12Z</time>
      </trkpt>
      <trkpt lat="43.135288" lon="-7.065472">
        <ele>878.018</ele>
        <time>1999-07-25T11:28:17Z</time>
      </trkpt>
      <trkpt lat="43.135268" lon="-7.065509">
        <ele>878.013</ele>
        <time>1999-07-25T11:28:18Z</time>
      </trkpt>
      <trkpt lat="43.135140" lon="-7.065692">
        <ele>878.253</ele>
        <time>1999-07-25T11:28:24Z</time>
      </trkpt>
      <trkpt lat="43.135111" lon="-7.065718">
        <ele>878.240</ele>
        <time>1999-07-25T11:28:25Z</time>
      </trkpt>
      <trkpt lat="43.134968" lon="-7.065852">
        <ele>878.217</ele>
        <time>1999-07-25T11:28:30Z</time>
      </trkpt>
      <trkpt lat="43.134905" lon="-7.065906">
        <ele>878.445</ele>
        <time>1999-07-25T11:28:32Z</time>
      </trkpt>
      <trkpt lat="43.134623" lon="-7.066102">
        <ele>879.226</ele>
        <time>1999-07-25T11:28:41Z</time>
      </trkpt>
      <trkpt lat="43.134592" lon="-7.066121">
        <ele>879.447</ele>
        <time>1999-07-25T11:28:42Z</time>
      </trkpt>
      <trkpt lat="43.134401" lon="-7.066263">
        <ele>880.411</ele>
        <time>1999-07-25T11:28:48Z</time>
      </trkpt>
      <trkpt lat="43.134335" lon="-7.066305">
        <ele>880.808</ele>
        <time>1999-07-25T11:28:50Z</time>
      </trkpt>
      <trkpt lat="43.134213" lon="-7.066392">
        <ele>881.695</ele>
        <time>1999-07-25T11:28:54Z</time>
      </trkpt>
      <trkpt lat="43.134060" lon="-7.066502">
        <ele>882.271</ele>
        <time>1999-07-25T11:28:59Z</time>
      </trkpt>
      <trkpt lat="43.133876" lon="-7.066591">
        <ele>882.862</ele>
        <time>1999-07-25T11:29:05Z</time>
      </trkpt>
      <trkpt lat="43.133848" lon="-7.066604">
        <ele>882.817</ele>
        <time>1999-07-25T11:29:06Z</time>
      </trkpt>
      <trkpt lat="43.133705" lon="-7.066666">
        <ele>883.837</ele>
        <time>1999-07-25T11:29:11Z</time>
      </trkpt>
      <trkpt lat="43.133678" lon="-7.066681">
        <ele>883.894</ele>
        <time>1999-07-25T11:29:12Z</time>
      </trkpt>
      <trkpt lat="43.133633" lon="-7.066708">
        <ele>884.471</ele>
        <time>1999-07-25T11:29:14Z</time>
      </trkpt>
      <trkpt lat="43.133571" lon="-7.066750">
        <ele>885.099</ele>
        <time>1999-07-25T11:29:17Z</time>
      </trkpt>
      <trkpt lat="43.133492" lon="-7.066859">
        <ele>886.285</ele>
        <time>1999-07-25T11:29:22Z</time>
      </trkpt>
      <trkpt lat="43.133465" lon="-7.066910">
        <ele>887.489</ele>
        <time>1999-07-25T11:29:24Z</time>
      </trkpt>
      <trkpt lat="43.133408" lon="-7.067029">
        <ele>888.617</ele>
        <time>1999-07-25T11:29:29Z</time>
      </trkpt>
      <trkpt lat="43.133398" lon="-7.067056">
        <ele>888.808</ele>
        <time>1999-07-25T11:29:30Z</time>
      </trkpt>
      <trkpt lat="43.133354" lon="-7.067163">
        <ele>889.641</ele>
        <time>1999-07-25T11:29:35Z</time>
      </trkpt>
      <trkpt lat="43.133334" lon="-7.067204">
        <ele>890.027</ele>
        <time>1999-07-25T11:29:37Z</time>
      </trkpt>
      <trkpt lat="43.133257" lon="-7.067354">
        <ele>890.878</ele>
        <time>1999-07-25T11:29:43Z</time>
      </trkpt>
      <trkpt lat="43.133240" lon="-7.067377">
        <ele>890.833</ele>
        <time>1999-07-25T11:29:44Z</time>
      </trkpt>
      <trkpt lat="43.133159" lon="-7.067469">
        <ele>891.813</ele>
        <time>1999-07-25T11:29:48Z</time>
      </trkpt>
      <trkpt lat="43.133088" lon="-7.067546">
        <ele>892.830</ele>
        <time>1999-07-25T11:29:52Z</time>
      </trkpt>
      <trkpt lat="43.133072" lon="-7.067570">
        <ele>893.047</ele>
        <time>1999-07-25T11:29:53Z</time>
      </trkpt>
      <trkpt lat="43.132972" lon="-7.067664">
        <ele>894.245</ele>
        <time>1999-07-25T11:29:58Z</time>
      </trkpt>
      <trkpt lat="43.132894" lon="-7.067728">
        <ele>895.498</ele>
        <time>1999-07-25T11:30:02Z</time>
      </trkpt>
      <trkpt lat="43.132777" lon="-7.067828">
        <ele>896.415</ele>
        <time>1999-07-25T11:30:08Z</time>
      </trkpt>
      <trkpt lat="43.132755" lon="-7.067843">
        <ele>896.626</ele>
        <time>1999-07-25T11:30:09Z</time>
      </trkpt>
      <trkpt lat="43.132655" lon="-7.067926">
        <ele>897.208</ele>
        <time>1999-07-25T11:30:14Z</time>
      </trkpt>
      <trkpt lat="43.132636" lon="-7.067945">
        <ele>897.462</ele>
        <time>1999-07-25T11:30:15Z</time>
      </trkpt>
      <trkpt lat="43.132539" lon="-7.068032">
        <ele>898.298</ele>
        <time>1999-07-25T11:30:20Z</time>
      </trkpt>
      <trkpt lat="43.132497" lon="-7.068061">
        <ele>898.469</ele>
        <time>1999-07-25T11:30:22Z</time>
      </trkpt>
      <trkpt lat="43.132404" lon="-7.068104">
        <ele>899.014</ele>
        <time>1999-07-25T11:30:26Z</time>
      </trkpt>
      <trkpt lat="43.132361" lon="-7.068130">
        <ele>899.624</ele>
        <time>1999-07-25T11:30:28Z</time>
      </trkpt>
      <trkpt lat="43.132236" lon="-7.068223">
        <ele>900.621</ele>
        <time>1999-07-25T11:30:34Z</time>
      </trkpt>
      <trkpt lat="43.132214" lon="-7.068233">
        <ele>900.878</ele>
        <time>1999-07-25T11:30:35Z</time>
      </trkpt>
      <trkpt lat="43.132079" lon="-7.068279">
        <ele>901.816</ele>
        <time>1999-07-25T11:30:41Z</time>
      </trkpt>
      <trkpt lat="43.132033" lon="-7.068285">
        <ele>902.242</ele>
        <time>1999-07-25T11:30:43Z</time>
      </trkpt>
      <trkpt lat="43.131944" lon="-7.068307">
        <ele>902.822</ele>
        <time>1999-07-25T11:30:47Z</time>
      </trkpt>
      <trkpt lat="43.131874" lon="-7.068305">
        <ele>903.414</ele>
        <time>1999-07-25T11:30:50Z</time>
      </trkpt>
      <trkpt lat="43.131814" lon="-7.068317">
        <ele>904.008</ele>
        <time>1999-07-25T11:30:53Z</time>
      </trkpt>
      <trkpt lat="43.131752" lon="-7.068308">
        <ele>904.847</ele>
        <time>1999-07-25T11:30:56Z</time>
      </trkpt>
      <trkpt lat="43.131706" lon="-7.068296">
        <ele>905.233</ele>
        <time>1999-07-25T11:30:58Z</time>
      </trkpt>
      <trkpt lat="43.131586" lon="-7.068252">
        <ele>906.644</ele>
        <time>1999-07-25T11:31:03Z</time>
      </trkpt>
      <trkpt lat="43.131540" lon="-7.068228">
        <ele>907.059</ele>
        <time>1999-07-25T11:31:05Z</time>
      </trkpt>
      <trkpt lat="43.131447" lon="-7.068204">
        <ele>907.819</ele>
        <time>1999-07-25T11:31:09Z</time>
      </trkpt>
      <trkpt lat="43.131389" lon="-7.068174">
        <ele>908.286</ele>
        <time>1999-07-25T11:31:12Z</time>
      </trkpt>
      <trkpt lat="43.131309" lon="-7.068141">
        <ele>909.053</ele>
        <time>1999-07-25T11:31:16Z</time>
      </trkpt>
      <trkpt lat="43.131263" lon="-7.068135">
        <ele>909.481</ele>
        <time>1999-07-25T11:31:18Z</time>
      </trkpt>
      <trkpt lat="43.131242" lon="-7.068131">
        <ele>909.664</ele>
        <time>1999-07-25T11:31:19Z</time>
      </trkpt>
      <trkpt lat="43.131198" lon="-7.068119">
        <ele>910.006</ele>
        <time>1999-07-25T11:31:21Z</time>
      </trkpt>
      <trkpt lat="43.131046" lon="-7.068055">
        <ele>911.216</ele>
        <time>1999-07-25T11:31:28Z</time>
      </trkpt>
      <trkpt lat="43.131023" lon="-7.068044">
        <ele>911.408</ele>
        <time>1999-07-25T11:31:29Z</time>
      </trkpt>
      <trkpt lat="43.130903" lon="-7.067987">
        <ele>912.449</ele>
        <time>1999-07-25T11:31:34Z</time>
      </trkpt>
      <trkpt lat="43.130802" lon="-7.067962">
        <ele>913.055</ele>
        <time>1999-07-25T11:31:38Z</time>
      </trkpt>
      <trkpt lat="43.130692" lon="-7.067939">
        <ele>913.426</ele>
        <time>1999-07-25T11:31:42Z</time>
      </trkpt>
      <trkpt lat="43.130572" lon="-7.067912">
        <ele>913.831</ele>
        <time>1999-07-25T11:31:46Z</time>
      </trkpt>
      <trkpt lat="43.130326" lon="-7.067847">
        <ele>914.651</ele>
        <time>1999-07-25T11:31:53Z</time>
      </trkpt>
      <trkpt lat="43.130178" lon="-7.067799">
        <ele>914.838</ele>
        <time>1999-07-25T11:31:57Z</time>
      </trkpt>
      <trkpt lat="43.129935" lon="-7.067730">
        <ele>915.435</ele>
        <time>1999-07-25T11:32:04Z</time>
      </trkpt>
      <trkpt lat="43.129855" lon="-7.067710">
        <ele>915.693</ele>
        <time>1999-07-25T11:32:06Z</time>
      </trkpt>
      <trkpt lat="43.129723" lon="-7.067689">
        <ele>915.684</ele>
        <time>1999-07-25T11:32:09Z</time>
      </trkpt>
      <trkpt lat="43.129632" lon="-7.067680">
        <ele>915.607</ele>
        <time>1999-07-25T11:32:11Z</time>
      </trkpt>
      <trkpt lat="43.129229" lon="-7.067672">
        <ele>915.817</ele>
        <time>1999-07-25T11:32:19Z</time>
      </trkpt>
      <trkpt lat="43.129124" lon="-7.067681">
        <ele>915.608</ele>
        <time>1999-07-25T11:32:21Z</time>
      </trkpt>
      <trkpt lat="43.129015" lon="-7.067685">
        <ele>915.461</ele>
        <time>1999-07-25T11:32:23Z</time>
      </trkpt>
      <trkpt lat="43.128960" lon="-7.067690">
        <ele>915.477</ele>
        <time>1999-07-25T11:32:24Z</time>
      </trkpt>
      <trkpt lat="43.128785" lon="-7.067699">
        <ele>915.058</ele>
        <time>1999-07-25T11:32:27Z</time>
      </trkpt>
      <trkpt lat="43.128723" lon="-7.067692">
        <ele>915.023</ele>
        <time>1999-07-25T11:32:28Z</time>
      </trkpt>
      <trkpt lat="43.128529" lon="-7.067639">
        <ele>914.663</ele>
        <time>1999-07-25T11:32:31Z</time>
      </trkpt>
      <trkpt lat="43.128465" lon="-7.067619">
        <ele>914.670</ele>
        <time>1999-07-25T11:32:32Z</time>
      </trkpt>
      <trkpt lat="43.128342" lon="-7.067579">
        <ele>914.287</ele>
        <time>1999-07-25T11:32:34Z</time>
      </trkpt>
      <trkpt lat="43.128198" lon="-7.067548">
        <ele>913.475</ele>
        <time>1999-07-25T11:32:37Z</time>
      </trkpt>
      <trkpt lat="43.128148" lon="-7.067545">
        <ele>913.284</ele>
        <time>1999-07-25T11:32:38Z</time>
      </trkpt>
      <trkpt lat="43.128046" lon="-7.067546">
        <ele>913.007</ele>
        <time>1999-07-25T11:32:40Z</time>
      </trkpt>
      <trkpt lat="43.127986" lon="-7.067561">
        <ele>912.817</ele>
        <time>1999-07-25T11:32:41Z</time>
      </trkpt>
      <trkpt lat="43.127907" lon="-7.067558">
        <ele>912.608</ele>
        <time>1999-07-25T11:32:43Z</time>
      </trkpt>
      <trkpt lat="43.127862" lon="-7.067562">
        <ele>912.431</ele>
        <time>1999-07-25T11:32:44Z</time>
      </trkpt>
      <trkpt lat="43.127815" lon="-7.067561">
        <ele>912.467</ele>
        <time>1999-07-25T11:32:45Z</time>
      </trkpt>
      <trkpt lat="43.127648" lon="-7.067578">
        <ele>912.458</ele>
        <time>1999-07-25T11:32:48Z</time>
      </trkpt>
      <trkpt lat="43.127533" lon="-7.067571">
        <ele>912.443</ele>
        <time>1999-07-25T11:32:50Z</time>
      </trkpt>
      <trkpt lat="43.127479" lon="-7.067564">
        <ele>912.453</ele>
        <time>1999-07-25T11:32:51Z</time>
      </trkpt>
      <trkpt lat="43.127041" lon="-7.067493">
        <ele>912.450</ele>
        <time>1999-07-25T11:32:59Z</time>
      </trkpt>
      <trkpt lat="43.126940" lon="-7.067461">
        <ele>912.487</ele>
        <time>1999-07-25T11:33:01Z</time>
      </trkpt>
      <trkpt lat="43.126847" lon="-7.067424">
        <ele>912.415</ele>
        <time>1999-07-25T11:33:03Z</time>
      </trkpt>
      <trkpt lat="43.126804" lon="-7.067406">
        <ele>912.432</ele>
        <time>1999-07-25T11:33:04Z</time>
      </trkpt>
      <trkpt lat="43.126741" lon="-7.067349">
        <ele>912.692</ele>
        <time>1999-07-25T11:33:07Z</time>
      </trkpt>
      <trkpt lat="43.126588" lon="-7.067377">
        <ele>912.811</ele>
        <time>1999-07-25T11:33:13Z</time>
      </trkpt>
      <trkpt lat="43.126518" lon="-7.067368">
        <ele>913.208</ele>
        <time>1999-07-25T11:33:17Z</time>
      </trkpt>
      <trkpt lat="43.126449" lon="-7.067330">
        <ele>913.466</ele>
        <time>1999-07-25T11:33:21Z</time>
      </trkpt>
      <trkpt lat="43.126441" lon="-7.067333">
        <ele>913.632</ele>
        <time>1999-07-25T11:33:22Z</time>
      </trkpt>
      <trkpt lat="43.126416" lon="-7.067325">
        <ele>913.863</ele>
        <time>1999-07-25T11:33:23Z</time>
      </trkpt>
      <trkpt lat="43.126324" lon="-7.067295">
        <ele>914.648</ele>
        <time>1999-07-25T11:33:26Z</time>
      </trkpt>
      <trkpt lat="43.126150" lon="-7.067283">
        <ele>915.488</ele>
        <time>1999-07-25T11:33:32Z</time>
      </trkpt>
      <trkpt lat="43.126131" lon="-7.067292">
        <ele>915.825</ele>
        <time>1999-07-25T11:33:33Z</time>
      </trkpt>
      <trkpt lat="43.126055" lon="-7.067400">
        <ele>916.632</ele>
        <time>1999-07-25T11:33:38Z</time>
      </trkpt>
      <trkpt lat="43.126040" lon="-7.067471">
        <ele>916.820</ele>
        <time>1999-07-25T11:33:40Z</time>
      </trkpt>
      <trkpt lat="43.126014" lon="-7.067510">
        <ele>917.447</ele>
        <time>1999-07-25T11:33:43Z</time>
      </trkpt>
      <trkpt lat="43.125932" lon="-7.067499">
        <ele>918.029</ele>
        <time>1999-07-25T11:33:47Z</time>
      </trkpt>
      <trkpt lat="43.125908" lon="-7.067498">
        <ele>918.021</ele>
        <time>1999-07-25T11:33:48Z</time>
      </trkpt>
      <trkpt lat="43.125737" lon="-7.067478">
        <ele>919.008</ele>
        <time>1999-07-25T11:33:56Z</time>
      </trkpt>
      <trkpt lat="43.125716" lon="-7.067475">
        <ele>919.217</ele>
        <time>1999-07-25T11:33:57Z</time>
      </trkpt>
      <trkpt lat="43.125629" lon="-7.067508">
        <ele>920.013</ele>
        <time>1999-07-25T11:34:02Z</time>
      </trkpt>
      <trkpt lat="43.125609" lon="-7.067518">
        <ele>920.294</ele>
        <time>1999-07-25T11:34:03Z</time>
      </trkpt>
      <trkpt lat="43.125499" lon="-7.067539">
        <ele>921.069</ele>
        <time>1999-07-25T11:34:09Z</time>
      </trkpt>
      <trkpt lat="43.125484" lon="-7.067535">
        <ele>921.439</ele>
        <time>1999-07-25T11:34:10Z</time>
      </trkpt>
      <trkpt lat="43.125463" lon="-7.067529">
        <ele>921.636</ele>
        <time>1999-07-25T11:34:12Z</time>
      </trkpt>
      <trkpt lat="43.125441" lon="-7.067527">
        <ele>921.633</ele>
        <time>1999-07-25T11:34:14Z</time>
      </trkpt>
      <trkpt lat="43.125384" lon="-7.067557">
        <ele>922.251</ele>
        <time>1999-07-25T11:34:17Z</time>
      </trkpt>
      <trkpt lat="43.125345" lon="-7.067574">
        <ele>922.694</ele>
        <time>1999-07-25T11:34:20Z</time>
      </trkpt>
      <trkpt lat="43.125333" lon="-7.067583">
        <ele>923.057</ele>
        <time>1999-07-25T11:34:23Z</time>
      </trkpt>
      <trkpt lat="43.125249" lon="-7.067661">
        <ele>924.422</ele>
        <time>1999-07-25T11:34:37Z</time>
      </trkpt>
      <trkpt lat="43.125234" lon="-7.067673">
        <ele>924.408</ele>
        <time>1999-07-25T11:34:38Z</time>
      </trkpt>
      <trkpt lat="43.125162" lon="-7.067777">
        <ele>924.622</ele>
        <time>1999-07-25T11:34:44Z</time>
      </trkpt>
      <trkpt lat="43.125084" lon="-7.067839">
        <ele>925.078</ele>
        <time>1999-07-25T11:34:49Z</time>
      </trkpt>
      <trkpt lat="43.125049" lon="-7.067846">
        <ele>925.459</ele>
        <time>1999-07-25T11:34:51Z</time>
      </trkpt>
      <trkpt lat="43.125024" lon="-7.067868">
        <ele>926.064</ele>
        <time>1999-07-25T11:34:53Z</time>
      </trkpt>
      <trkpt lat="43.125013" lon="-7.067896">
        <ele>926.214</ele>
        <time>1999-07-25T11:34:55Z</time>
      </trkpt>
      <trkpt lat="43.125024" lon="-7.067911">
        <ele>926.611</ele>
        <time>1999-07-25T11:34:56Z</time>
      </trkpt>
      <trkpt lat="43.125048" lon="-7.067964">
        <ele>927.018</ele>
        <time>1999-07-25T11:34:58Z</time>
      </trkpt>
      <trkpt lat="43.125066" lon="-7.068005">
        <ele>927.436</ele>
        <time>1999-07-25T11:35:00Z</time>
      </trkpt>
      <trkpt lat="43.125093" lon="-7.068049">
        <ele>927.611</ele>
        <time>1999-07-25T11:35:02Z</time>
      </trkpt>
      <trkpt lat="43.125138" lon="-7.068117">
        <ele>927.821</ele>
        <time>1999-07-25T11:35:05Z</time>
      </trkpt>
      <trkpt lat="43.125274" lon="-7.068309">
        <ele>928.003</ele>
        <time>1999-07-25T11:35:12Z</time>
      </trkpt>
      <trkpt lat="43.125332" lon="-7.068435">
        <ele>927.808</ele>
        <time>1999-07-25T11:35:15Z</time>
      </trkpt>
      <trkpt lat="43.125378" lon="-7.068562">
        <ele>927.664</ele>
        <time>1999-07-25T11:35:18Z</time>
      </trkpt>
      <trkpt lat="43.125423" lon="-7.068642">
        <ele>927.490</ele>
        <time>1999-07-25T11:35:20Z</time>
      </trkpt>
      <trkpt lat="43.125451" lon="-7.068831">
        <ele>927.471</ele>
        <time>1999-07-25T11:35:23Z</time>
      </trkpt>
      <trkpt lat="43.125495" lon="-7.068984">
        <ele>927.036</ele>
        <time>1999-07-25T11:35:26Z</time>
      </trkpt>
      <trkpt lat="43.125517" lon="-7.069033">
        <ele>927.086</ele>
        <time>1999-07-25T11:35:27Z</time>
      </trkpt>
      <trkpt lat="43.125535" lon="-7.069087">
        <ele>927.093</ele>
        <time>1999-07-25T11:35:28Z</time>
      </trkpt>
      <trkpt lat="43.125671" lon="-7.069441">
        <ele>926.850</ele>
        <time>1999-07-25T11:35:35Z</time>
      </trkpt>
      <trkpt lat="43.125722" lon="-7.069542">
        <ele>926.858</ele>
        <time>1999-07-25T11:35:38Z</time>
      </trkpt>
      <trkpt lat="43.125738" lon="-7.069586">
        <ele>926.679</ele>
        <time>1999-07-25T11:35:40Z</time>
      </trkpt>
      <trkpt lat="43.125743" lon="-7.069607">
        <ele>926.405</ele>
        <time>1999-07-25T11:35:41Z</time>
      </trkpt>
      <trkpt lat="43.125760" lon="-7.069661">
        <ele>926.025</ele>
        <time>1999-07-25T11:35:43Z</time>
      </trkpt>
      <trkpt lat="43.125766" lon="-7.069699">
        <ele>925.808</ele>
        <time>1999-07-25T11:35:44Z</time>
      </trkpt>
      <trkpt lat="43.125765" lon="-7.069742">
        <ele>925.650</ele>
        <time>1999-07-25T11:35:45Z</time>
      </trkpt>
      <trkpt lat="43.125735" lon="-7.069828">
        <ele>925.646</ele>
        <time>1999-07-25T11:35:47Z</time>
      </trkpt>
      <trkpt lat="43.125690" lon="-7.069908">
        <ele>925.697</ele>
        <time>1999-07-25T11:35:49Z</time>
      </trkpt>
      <trkpt lat="43.125639" lon="-7.069982">
        <ele>925.632</ele>
        <time>1999-07-25T11:35:51Z</time>
      </trkpt>
      <trkpt lat="43.125570" lon="-7.070058">
        <ele>925.622</ele>
        <time>1999-07-25T11:35:53Z</time>
      </trkpt>
      <trkpt lat="43.125489" lon="-7.070126">
        <ele>925.629</ele>
        <time>1999-07-25T11:35:55Z</time>
      </trkpt>
      <trkpt lat="43.125280" lon="-7.070205">
        <ele>925.216</ele>
        <time>1999-07-25T11:35:59Z</time>
      </trkpt>
      <trkpt lat="43.125116" lon="-7.070159">
        <ele>925.224</ele>
        <time>1999-07-25T11:36:02Z</time>
      </trkpt>
      <trkpt lat="43.125009" lon="-7.070089">
        <ele>925.083</ele>
        <time>1999-07-25T11:36:04Z</time>
      </trkpt>
      <trkpt lat="43.124953" lon="-7.070062">
        <ele>924.825</ele>
        <time>1999-07-25T11:36:05Z</time>
      </trkpt>
      <trkpt lat="43.124835" lon="-7.070007">
        <ele>924.617</ele>
        <time>1999-07-25T11:36:07Z</time>
      </trkpt>
      <trkpt lat="43.124640" lon="-7.069936">
        <ele>924.008</ele>
        <time>1999-07-25T11:36:10Z</time>
      </trkpt>
      <trkpt lat="43.124426" lon="-7.069853">
        <ele>923.641</ele>
        <time>1999-07-25T11:36:13Z</time>
      </trkpt>
      <trkpt lat="43.124355" lon="-7.069821">
        <ele>923.417</ele>
        <time>1999-07-25T11:36:14Z</time>
      </trkpt>
      <trkpt lat="43.124132" lon="-7.069717">
        <ele>922.858</ele>
        <time>1999-07-25T11:36:17Z</time>
      </trkpt>
      <trkpt lat="43.123980" lon="-7.069644">
        <ele>922.483</ele>
        <time>1999-07-25T11:36:19Z</time>
      </trkpt>
      <trkpt lat="43.123902" lon="-7.069611">
        <ele>921.683</ele>
        <time>1999-07-25T11:36:20Z</time>
      </trkpt>
      <trkpt lat="43.123747" lon="-7.069542">
        <ele>921.240</ele>
        <time>1999-07-25T11:36:22Z</time>
      </trkpt>
      <trkpt lat="43.123532" lon="-7.069409">
        <ele>920.057</ele>
        <time>1999-07-25T11:36:25Z</time>
      </trkpt>
      <trkpt lat="43.123399" lon="-7.069312">
        <ele>919.235</ele>
        <time>1999-07-25T11:36:27Z</time>
      </trkpt>
      <trkpt lat="43.123326" lon="-7.069266">
        <ele>918.815</ele>
        <time>1999-07-25T11:36:28Z</time>
      </trkpt>
      <trkpt lat="43.123176" lon="-7.069159">
        <ele>917.465</ele>
        <time>1999-07-25T11:36:30Z</time>
      </trkpt>
      <trkpt lat="43.123059" lon="-7.069033">
        <ele>917.011</ele>
        <time>1999-07-25T11:36:32Z</time>
      </trkpt>
      <trkpt lat="43.122978" lon="-7.068894">
        <ele>916.408</ele>
        <time>1999-07-25T11:36:34Z</time>
      </trkpt>
      <trkpt lat="43.122914" lon="-7.068840">
        <ele>915.824</ele>
        <time>1999-07-25T11:36:35Z</time>
      </trkpt>
      <trkpt lat="43.122850" lon="-7.068777">
        <ele>915.650</ele>
        <time>1999-07-25T11:36:36Z</time>
      </trkpt>
      <trkpt lat="43.122765" lon="-7.068739">
        <ele>915.671</ele>
        <time>1999-07-25T11:36:37Z</time>
      </trkpt>
      <trkpt lat="43.122658" lon="-7.068723">
        <ele>915.256</ele>
        <time>1999-07-25T11:36:38Z</time>
      </trkpt>
      <trkpt lat="43.122564" lon="-7.068709">
        <ele>914.886</ele>
        <time>1999-07-25T11:36:39Z</time>
      </trkpt>
      <trkpt lat="43.122280" lon="-7.068795">
        <ele>913.813</ele>
        <time>1999-07-25T11:36:42Z</time>
      </trkpt>
      <trkpt lat="43.122189" lon="-7.068837">
        <ele>913.260</ele>
        <time>1999-07-25T11:36:43Z</time>
      </trkpt>
      <trkpt lat="43.122105" lon="-7.068898">
        <ele>912.888</ele>
        <time>1999-07-25T11:36:44Z</time>
      </trkpt>
      <trkpt lat="43.121950" lon="-7.069034">
        <ele>911.815</ele>
        <time>1999-07-25T11:36:46Z</time>
      </trkpt>
      <trkpt lat="43.121881" lon="-7.069117">
        <ele>911.465</ele>
        <time>1999-07-25T11:36:47Z</time>
      </trkpt>
      <trkpt lat="43.121759" lon="-7.069283">
        <ele>909.611</ele>
        <time>1999-07-25T11:36:49Z</time>
      </trkpt>
      <trkpt lat="43.121639" lon="-7.069440">
        <ele>908.808</ele>
        <time>1999-07-25T11:36:51Z</time>
      </trkpt>
      <trkpt lat="43.121573" lon="-7.069510">
        <ele>908.454</ele>
        <time>1999-07-25T11:36:52Z</time>
      </trkpt>
      <trkpt lat="43.121356" lon="-7.069702">
        <ele>907.490</ele>
        <time>1999-07-25T11:36:55Z</time>
      </trkpt>
      <trkpt lat="43.121201" lon="-7.069824">
        <ele>906.291</ele>
        <time>1999-07-25T11:36:57Z</time>
      </trkpt>
      <trkpt lat="43.121027" lon="-7.070082">
        <ele>905.076</ele>
        <time>1999-07-25T11:37:00Z</time>
      </trkpt>
      <trkpt lat="43.120981" lon="-7.070169">
        <ele>904.456</ele>
        <time>1999-07-25T11:37:01Z</time>
      </trkpt>
      <trkpt lat="43.120942" lon="-7.070256">
        <ele>903.823</ele>
        <time>1999-07-25T11:37:02Z</time>
      </trkpt>
      <trkpt lat="43.120876" lon="-7.070443">
        <ele>902.690</ele>
        <time>1999-07-25T11:37:04Z</time>
      </trkpt>
      <trkpt lat="43.120839" lon="-7.070539">
        <ele>902.218</ele>
        <time>1999-07-25T11:37:05Z</time>
      </trkpt>
      <trkpt lat="43.120706" lon="-7.070804">
        <ele>901.249</ele>
        <time>1999-07-25T11:37:08Z</time>
      </trkpt>
      <trkpt lat="43.120592" lon="-7.070979">
        <ele>900.602</ele>
        <time>1999-07-25T11:37:10Z</time>
      </trkpt>
      <trkpt lat="43.120525" lon="-7.071068">
        <ele>900.022</ele>
        <time>1999-07-25T11:37:11Z</time>
      </trkpt>
      <trkpt lat="43.120292" lon="-7.071347">
        <ele>898.608</ele>
        <time>1999-07-25T11:37:14Z</time>
      </trkpt>
      <trkpt lat="43.120127" lon="-7.071562">
        <ele>897.437</ele>
        <time>1999-07-25T11:37:16Z</time>
      </trkpt>
      <trkpt lat="43.119853" lon="-7.071898">
        <ele>896.273</ele>
        <time>1999-07-25T11:37:19Z</time>
      </trkpt>
      <trkpt lat="43.119670" lon="-7.072108">
        <ele>894.844</ele>
        <time>1999-07-25T11:37:21Z</time>
      </trkpt>
      <trkpt lat="43.119496" lon="-7.072270">
        <ele>893.459</ele>
        <time>1999-07-25T11:37:23Z</time>
      </trkpt>
      <trkpt lat="43.119357" lon="-7.072387">
        <ele>891.229</ele>
        <time>1999-07-25T11:37:25Z</time>
      </trkpt>
      <trkpt lat="43.119297" lon="-7.072431">
        <ele>890.276</ele>
        <time>1999-07-25T11:37:26Z</time>
      </trkpt>
      <trkpt lat="43.119239" lon="-7.072478">
        <ele>889.093</ele>
        <time>1999-07-25T11:37:27Z</time>
      </trkpt>
      <trkpt lat="43.119182" lon="-7.072530">
        <ele>887.831</ele>
        <time>1999-07-25T11:37:28Z</time>
      </trkpt>
      <trkpt lat="43.119138" lon="-7.072583">
        <ele>886.638</ele>
        <time>1999-07-25T11:37:29Z</time>
      </trkpt>
      <trkpt lat="43.119115" lon="-7.072630">
        <ele>885.670</ele>
        <time>1999-07-25T11:37:30Z</time>
      </trkpt>
      <trkpt lat="43.119099" lon="-7.072664">
        <ele>884.617</ele>
        <time>1999-07-25T11:37:31Z</time>
      </trkpt>
      <trkpt lat="43.119087" lon="-7.072689">
        <ele>883.408</ele>
        <time>1999-07-25T11:37:32Z</time>
      </trkpt>
      <trkpt lat="43.119077" lon="-7.072716">
        <ele>882.266</ele>
        <time>1999-07-25T11:37:33Z</time>
      </trkpt>
      <trkpt lat="43.119072" lon="-7.072749">
        <ele>881.052</ele>
        <time>1999-07-25T11:37:34Z</time>
      </trkpt>
      <trkpt lat="43.119069" lon="-7.072790">
        <ele>880.043</ele>
        <time>1999-07-25T11:37:35Z</time>
      </trkpt>
      <trkpt lat="43.119067" lon="-7.072895">
        <ele>878.418</ele>
        <time>1999-07-25T11:37:37Z</time>
      </trkpt>
      <trkpt lat="43.119058" lon="-7.073029">
        <ele>877.298</ele>
        <time>1999-07-25T11:37:39Z</time>
      </trkpt>
      <trkpt lat="43.119050" lon="-7.073281">
        <ele>876.045</ele>
        <time>1999-07-25T11:37:42Z</time>
      </trkpt>
      <trkpt lat="43.119058" lon="-7.073377">
        <ele>875.832</ele>
        <time>1999-07-25T11:37:43Z</time>
      </trkpt>
      <trkpt lat="43.119071" lon="-7.073478">
        <ele>875.650</ele>
        <time>1999-07-25T11:37:44Z</time>
      </trkpt>
      <trkpt lat="43.119102" lon="-7.073695">
        <ele>875.043</ele>
        <time>1999-07-25T11:37:46Z</time>
      </trkpt>
      <trkpt lat="43.119165" lon="-7.074046">
        <ele>874.464</ele>
        <time>1999-07-25T11:37:49Z</time>
      </trkpt>
      <trkpt lat="43.119175" lon="-7.074173">
        <ele>874.010</ele>
        <time>1999-07-25T11:37:50Z</time>
      </trkpt>
      <trkpt lat="43.119177" lon="-7.074298">
        <ele>873.608</ele>
        <time>1999-07-25T11:37:51Z</time>
      </trkpt>
      <trkpt lat="43.119158" lon="-7.074535">
        <ele>872.837</ele>
        <time>1999-07-25T11:37:53Z</time>
      </trkpt>
      <trkpt lat="43.119131" lon="-7.074636">
        <ele>872.463</ele>
        <time>1999-07-25T11:37:54Z</time>
      </trkpt>
      <trkpt lat="43.119062" lon="-7.074783">
        <ele>871.694</ele>
        <time>1999-07-25T11:37:56Z</time>
      </trkpt>
      <trkpt lat="43.119034" lon="-7.074823">
        <ele>871.049</ele>
        <time>1999-07-25T11:37:57Z</time>
      </trkpt>
      <trkpt lat="43.119014" lon="-7.074845">
        <ele>870.239</ele>
        <time>1999-07-25T11:37:58Z</time>
      </trkpt>
      <trkpt lat="43.118999" lon="-7.074868">
        <ele>869.626</ele>
        <time>1999-07-25T11:37:59Z</time>
      </trkpt>
      <trkpt lat="43.118973" lon="-7.074930">
        <ele>868.643</ele>
        <time>1999-07-25T11:38:01Z</time>
      </trkpt>
      <trkpt lat="43.118925" lon="-7.075001">
        <ele>867.041</ele>
        <time>1999-07-25T11:38:03Z</time>
      </trkpt>
      <trkpt lat="43.118890" lon="-7.075036">
        <ele>866.259</ele>
        <time>1999-07-25T11:38:04Z</time>
      </trkpt>
      <trkpt lat="43.118849" lon="-7.075073">
        <ele>865.403</ele>
        <time>1999-07-25T11:38:05Z</time>
      </trkpt>
      <trkpt lat="43.118764" lon="-7.075150">
        <ele>864.223</ele>
        <time>1999-07-25T11:38:07Z</time>
      </trkpt>
      <trkpt lat="43.118677" lon="-7.075246">
        <ele>863.608</ele>
        <time>1999-07-25T11:38:09Z</time>
      </trkpt>
      <trkpt lat="43.118519" lon="-7.075414">
        <ele>863.058</ele>
        <time>1999-07-25T11:38:12Z</time>
      </trkpt>
      <trkpt lat="43.118453" lon="-7.075468">
        <ele>862.864</ele>
        <time>1999-07-25T11:38:13Z</time>
      </trkpt>
      <trkpt lat="43.118150" lon="-7.075693">
        <ele>862.085</ele>
        <time>1999-07-25T11:38:17Z</time>
      </trkpt>
      <trkpt lat="43.118069" lon="-7.075754">
        <ele>861.670</ele>
        <time>1999-07-25T11:38:18Z</time>
      </trkpt>
      <trkpt lat="43.117902" lon="-7.075874">
        <ele>860.630</ele>
        <time>1999-07-25T11:38:20Z</time>
      </trkpt>
      <trkpt lat="43.117640" lon="-7.076062">
        <ele>859.227</ele>
        <time>1999-07-25T11:38:23Z</time>
      </trkpt>
      <trkpt lat="43.117476" lon="-7.076182">
        <ele>858.414</ele>
        <time>1999-07-25T11:38:25Z</time>
      </trkpt>
      <trkpt lat="43.117402" lon="-7.076241">
        <ele>858.012</ele>
        <time>1999-07-25T11:38:26Z</time>
      </trkpt>
      <trkpt lat="43.117341" lon="-7.076311">
        <ele>857.474</ele>
        <time>1999-07-25T11:38:27Z</time>
      </trkpt>
      <trkpt lat="43.117290" lon="-7.076395">
        <ele>857.056</ele>
        <time>1999-07-25T11:38:28Z</time>
      </trkpt>
      <trkpt lat="43.117255" lon="-7.076493">
        <ele>856.821</ele>
        <time>1999-07-25T11:38:29Z</time>
      </trkpt>
      <trkpt lat="43.117240" lon="-7.076707">
        <ele>855.808</ele>
        <time>1999-07-25T11:38:31Z</time>
      </trkpt>
      <trkpt lat="43.117246" lon="-7.076811">
        <ele>855.230</ele>
        <time>1999-07-25T11:38:32Z</time>
      </trkpt>
      <trkpt lat="43.117278" lon="-7.076994">
        <ele>853.496</ele>
        <time>1999-07-25T11:38:34Z</time>
      </trkpt>
      <trkpt lat="43.117300" lon="-7.077069">
        <ele>852.627</ele>
        <time>1999-07-25T11:38:35Z</time>
      </trkpt>
      <trkpt lat="43.117324" lon="-7.077133">
        <ele>851.892</ele>
        <time>1999-07-25T11:38:36Z</time>
      </trkpt>
      <trkpt lat="43.117382" lon="-7.077237">
        <ele>850.812</ele>
        <time>1999-07-25T11:38:38Z</time>
      </trkpt>
      <trkpt lat="43.117405" lon="-7.077282">
        <ele>850.639</ele>
        <time>1999-07-25T11:38:39Z</time>
      </trkpt>
      <trkpt lat="43.117438" lon="-7.077363">
        <ele>850.446</ele>
        <time>1999-07-25T11:38:41Z</time>
      </trkpt>
      <trkpt lat="43.117451" lon="-7.077445">
        <ele>850.434</ele>
        <time>1999-07-25T11:38:43Z</time>
      </trkpt>
      <trkpt lat="43.117451" lon="-7.077484">
        <ele>850.415</ele>
        <time>1999-07-25T11:38:44Z</time>
      </trkpt>
      <trkpt lat="43.117452" lon="-7.077523">
        <ele>850.465</ele>
        <time>1999-07-25T11:38:45Z</time>
      </trkpt>
      <trkpt lat="43.117430" lon="-7.077587">
        <ele>850.611</ele>
        <time>1999-07-25T11:38:47Z</time>
      </trkpt>
      <trkpt lat="43.117410" lon="-7.077612">
        <ele>850.808</ele>
        <time>1999-07-25T11:38:48Z</time>
      </trkpt>
      <trkpt lat="43.117394" lon="-7.077638">
        <ele>851.054</ele>
        <time>1999-07-25T11:38:49Z</time>
      </trkpt>
      <trkpt lat="43.117377" lon="-7.077665">
        <ele>851.280</ele>
        <time>1999-07-25T11:38:50Z</time>
      </trkpt>
      <trkpt lat="43.117337" lon="-7.077713">
        <ele>851.641</ele>
        <time>1999-07-25T11:38:52Z</time>
      </trkpt>
      <trkpt lat="43.117316" lon="-7.077739">
        <ele>852.016</ele>
        <time>1999-07-25T11:38:53Z</time>
      </trkpt>
      <trkpt lat="43.117290" lon="-7.077793">
        <ele>852.826</ele>
        <time>1999-07-25T11:38:55Z</time>
      </trkpt>
      <trkpt lat="43.117288" lon="-7.077822">
        <ele>853.493</ele>
        <time>1999-07-25T11:38:56Z</time>
      </trkpt>
      <trkpt lat="43.117264" lon="-7.077909">
        <ele>854.650</ele>
        <time>1999-07-25T11:38:59Z</time>
      </trkpt>
      <trkpt lat="43.117254" lon="-7.077942">
        <ele>855.068</ele>
        <time>1999-07-25T11:39:00Z</time>
      </trkpt>
      <trkpt lat="43.117231" lon="-7.078042">
        <ele>855.635</ele>
        <time>1999-07-25T11:39:02Z</time>
      </trkpt>
      <trkpt lat="43.117191" lon="-7.078173">
        <ele>855.886</ele>
        <time>1999-07-25T11:39:04Z</time>
      </trkpt>
      <trkpt lat="43.117113" lon="-7.078487">
        <ele>856.014</ele>
        <time>1999-07-25T11:39:08Z</time>
      </trkpt>
      <trkpt lat="43.117001" lon="-7.078647">
        <ele>856.008</ele>
        <time>1999-07-25T11:39:11Z</time>
      </trkpt>
      <trkpt lat="43.116955" lon="-7.078688">
        <ele>855.676</ele>
        <time>1999-07-25T11:39:12Z</time>
      </trkpt>
      <trkpt lat="43.116869" lon="-7.078775">
        <ele>854.432</ele>
        <time>1999-07-25T11:39:14Z</time>
      </trkpt>
      <trkpt lat="43.116777" lon="-7.078869">
        <ele>852.823</ele>
        <time>1999-07-25T11:39:16Z</time>
      </trkpt>
      <trkpt lat="43.116737" lon="-7.078926">
        <ele>852.068</ele>
        <time>1999-07-25T11:39:17Z</time>
      </trkpt>
      <trkpt lat="43.116706" lon="-7.078993">
        <ele>851.448</ele>
        <time>1999-07-25T11:39:18Z</time>
      </trkpt>
      <trkpt lat="43.116661" lon="-7.079143">
        <ele>851.095</ele>
        <time>1999-07-25T11:39:20Z</time>
      </trkpt>
      <trkpt lat="43.116648" lon="-7.079222">
        <ele>851.052</ele>
        <time>1999-07-25T11:39:21Z</time>
      </trkpt>
      <trkpt lat="43.116640" lon="-7.079302">
        <ele>850.840</ele>
        <time>1999-07-25T11:39:22Z</time>
      </trkpt>
      <trkpt lat="43.116636" lon="-7.079462">
        <ele>850.466</ele>
        <time>1999-07-25T11:39:24Z</time>
      </trkpt>
      <trkpt lat="43.116647" lon="-7.079721">
        <ele>849.829</ele>
        <time>1999-07-25T11:39:27Z</time>
      </trkpt>
      <trkpt lat="43.116652" lon="-7.079808">
        <ele>849.621</ele>
        <time>1999-07-25T11:39:28Z</time>
      </trkpt>
      <trkpt lat="43.116705" lon="-7.080351">
        <ele>848.808</ele>
        <time>1999-07-25T11:39:34Z</time>
      </trkpt>
      <trkpt lat="43.116762" lon="-7.080594">
        <ele>848.629</ele>
        <time>1999-07-25T11:39:37Z</time>
      </trkpt>
      <trkpt lat="43.116799" lon="-7.080736">
        <ele>848.415</ele>
        <time>1999-07-25T11:39:39Z</time>
      </trkpt>
      <trkpt lat="43.116866" lon="-7.081105">
        <ele>848.236</ele>
        <time>1999-07-25T11:39:44Z</time>
      </trkpt>
      <trkpt lat="43.116862" lon="-7.081178">
        <ele>848.241</ele>
        <time>1999-07-25T11:39:45Z</time>
      </trkpt>
      <trkpt lat="43.116849" lon="-7.081339">
        <ele>848.291</ele>
        <time>1999-07-25T11:39:47Z</time>
      </trkpt>
      <trkpt lat="43.116832" lon="-7.081419">
        <ele>848.018</ele>
        <time>1999-07-25T11:39:48Z</time>
      </trkpt>
      <trkpt lat="43.116767" lon="-7.081572">
        <ele>848.015</ele>
        <time>1999-07-25T11:39:50Z</time>
      </trkpt>
      <trkpt lat="43.116613" lon="-7.081748">
        <ele>848.013</ele>
        <time>1999-07-25T11:39:53Z</time>
      </trkpt>
      <trkpt lat="43.116558" lon="-7.081791">
        <ele>848.043</ele>
        <time>1999-07-25T11:39:54Z</time>
      </trkpt>
      <trkpt lat="43.116377" lon="-7.081898">
        <ele>847.664</ele>
        <time>1999-07-25T11:39:57Z</time>
      </trkpt>
      <trkpt lat="43.116250" lon="-7.081970">
        <ele>847.210</ele>
        <time>1999-07-25T11:39:59Z</time>
      </trkpt>
      <trkpt lat="43.116004" lon="-7.082133">
        <ele>846.408</ele>
        <time>1999-07-25T11:40:03Z</time>
      </trkpt>
      <trkpt lat="43.115872" lon="-7.082203">
        <ele>846.037</ele>
        <time>1999-07-25T11:40:05Z</time>
      </trkpt>
      <trkpt lat="43.115656" lon="-7.082303">
        <ele>845.263</ele>
        <time>1999-07-25T11:40:08Z</time>
      </trkpt>
      <trkpt lat="43.115360" lon="-7.082447">
        <ele>844.474</ele>
        <time>1999-07-25T11:40:12Z</time>
      </trkpt>
      <trkpt lat="43.115287" lon="-7.082484">
        <ele>844.259</ele>
        <time>1999-07-25T11:40:13Z</time>
      </trkpt>
      <trkpt lat="43.115014" lon="-7.082673">
        <ele>843.499</ele>
        <time>1999-07-25T11:40:17Z</time>
      </trkpt>
      <trkpt lat="43.114946" lon="-7.082717">
        <ele>843.076</ele>
        <time>1999-07-25T11:40:18Z</time>
      </trkpt>
      <trkpt lat="43.114675" lon="-7.082859">
        <ele>842.243</ele>
        <time>1999-07-25T11:40:22Z</time>
      </trkpt>
      <trkpt lat="43.114555" lon="-7.082927">
        <ele>842.041</ele>
        <time>1999-07-25T11:40:24Z</time>
      </trkpt>
      <trkpt lat="43.114279" lon="-7.083061">
        <ele>841.264</ele>
        <time>1999-07-25T11:40:29Z</time>
      </trkpt>
      <trkpt lat="43.114128" lon="-7.083137">
        <ele>841.006</ele>
        <time>1999-07-25T11:40:33Z</time>
      </trkpt>
      <trkpt lat="43.114095" lon="-7.083156">
        <ele>841.016</ele>
        <time>1999-07-25T11:40:34Z</time>
      </trkpt>
      <trkpt lat="43.113836" lon="-7.083313">
        <ele>841.208</ele>
        <time>1999-07-25T11:40:41Z</time>
      </trkpt>
      <trkpt lat="43.113713" lon="-7.083419">
        <ele>841.669</ele>
        <time>1999-07-25T11:40:44Z</time>
      </trkpt>
      <trkpt lat="43.113600" lon="-7.083562">
        <ele>841.665</ele>
        <time>1999-07-25T11:40:47Z</time>
      </trkpt>
      <trkpt lat="43.113492" lon="-7.083738">
        <ele>841.696</ele>
        <time>1999-07-25T11:40:50Z</time>
      </trkpt>
      <trkpt lat="43.113395" lon="-7.083907">
        <ele>841.481</ele>
        <time>1999-07-25T11:40:53Z</time>
      </trkpt>
      <trkpt lat="43.113325" lon="-7.084082">
        <ele>841.251</ele>
        <time>1999-07-25T11:40:56Z</time>
      </trkpt>
      <trkpt lat="43.113309" lon="-7.084141">
        <ele>841.068</ele>
        <time>1999-07-25T11:40:57Z</time>
      </trkpt>
      <trkpt lat="43.113294" lon="-7.084198">
        <ele>840.855</ele>
        <time>1999-07-25T11:40:58Z</time>
      </trkpt>
      <trkpt lat="43.113282" lon="-7.084253">
        <ele>840.423</ele>
        <time>1999-07-25T11:40:59Z</time>
      </trkpt>
      <trkpt lat="43.113271" lon="-7.084310">
        <ele>840.298</ele>
        <time>1999-07-25T11:41:00Z</time>
      </trkpt>
      <trkpt lat="43.113241" lon="-7.084490">
        <ele>840.015</ele>
        <time>1999-07-25T11:41:03Z</time>
      </trkpt>
      <trkpt lat="43.113218" lon="-7.084675">
        <ele>839.826</ele>
        <time>1999-07-25T11:41:06Z</time>
      </trkpt>
      <trkpt lat="43.113152" lon="-7.085015">
        <ele>839.608</ele>
        <time>1999-07-25T11:41:13Z</time>
      </trkpt>
      <trkpt lat="43.113102" lon="-7.084985">
        <ele>839.672</ele>
        <time>1999-07-25T11:41:16Z</time>
      </trkpt>
      <trkpt lat="43.113067" lon="-7.084937">
        <ele>839.688</ele>
        <time>1999-07-25T11:41:20Z</time>
      </trkpt>
      <trkpt lat="43.113057" lon="-7.084987">
        <ele>839.619</ele>
        <time>1999-07-25T11:41:22Z</time>
      </trkpt>
      <trkpt lat="43.113045" lon="-7.085060">
        <ele>839.424</ele>
        <time>1999-07-25T11:41:24Z</time>
      </trkpt>
      <trkpt lat="43.113001" lon="-7.085224">
        <ele>839.484</ele>
        <time>1999-07-25T11:41:28Z</time>
      </trkpt>
      <trkpt lat="43.112983" lon="-7.085371">
        <ele>839.421</ele>
        <time>1999-07-25T11:41:31Z</time>
      </trkpt>
      <trkpt lat="43.112957" lon="-7.085642">
        <ele>839.228</ele>
        <time>1999-07-25T11:41:36Z</time>
      </trkpt>
      <trkpt lat="43.112950" lon="-7.085744">
        <ele>839.296</ele>
        <time>1999-07-25T11:41:38Z</time>
      </trkpt>
      <trkpt lat="43.112932" lon="-7.086088">
        <ele>839.445</ele>
        <time>1999-07-25T11:41:44Z</time>
      </trkpt>
      <trkpt lat="43.112936" lon="-7.086200">
        <ele>839.447</ele>
        <time>1999-07-25T11:41:47Z</time>
      </trkpt>
      <trkpt lat="43.112933" lon="-7.086205">
        <ele>839.411</ele>
        <time>1999-07-25T11:41:48Z</time>
      </trkpt>
      <trkpt lat="43.112921" lon="-7.086210">
        <ele>839.408</ele>
        <time>1999-07-25T11:41:50Z</time>
      </trkpt>
      <trkpt lat="43.112886" lon="-7.086322">
        <ele>838.097</ele>
        <time>1999-07-25T11:49:59Z</time>
      </trkpt>
      <trkpt lat="43.112890" lon="-7.086396">
        <ele>838.233</ele>
        <time>1999-07-25T11:50:01Z</time>
      </trkpt>
      <trkpt lat="43.112891" lon="-7.086700">
        <ele>838.234</ele>
        <time>1999-07-25T11:50:06Z</time>
      </trkpt>
      <trkpt lat="43.112879" lon="-7.086857">
        <ele>838.249</ele>
        <time>1999-07-25T11:50:08Z</time>
      </trkpt>
      <trkpt lat="43.112861" lon="-7.087149">
        <ele>837.849</ele>
        <time>1999-07-25T11:50:11Z</time>
      </trkpt>
      <trkpt lat="43.112834" lon="-7.087600">
        <ele>837.086</ele>
        <time>1999-07-25T11:50:15Z</time>
      </trkpt>
      <trkpt lat="43.112828" lon="-7.087697">
        <ele>836.873</ele>
        <time>1999-07-25T11:50:16Z</time>
      </trkpt>
      <trkpt lat="43.112784" lon="-7.087890">
        <ele>835.891</ele>
        <time>1999-07-25T11:50:19Z</time>
      </trkpt>
      <trkpt lat="43.112755" lon="-7.087930">
        <ele>834.825</ele>
        <time>1999-07-25T11:50:20Z</time>
      </trkpt>
      <trkpt lat="43.112702" lon="-7.087974">
        <ele>833.626</ele>
        <time>1999-07-25T11:50:22Z</time>
      </trkpt>
      <trkpt lat="43.112682" lon="-7.087985">
        <ele>833.008</ele>
        <time>1999-07-25T11:50:23Z</time>
      </trkpt>
      <trkpt lat="43.112660" lon="-7.087985">
        <ele>832.608</ele>
        <time>1999-07-25T11:50:24Z</time>
      </trkpt>
      <trkpt lat="43.112605" lon="-7.087987">
        <ele>831.425</ele>
        <time>1999-07-25T11:50:27Z</time>
      </trkpt>
      <trkpt lat="43.112585" lon="-7.087984">
        <ele>831.431</ele>
        <time>1999-07-25T11:50:29Z</time>
      </trkpt>
      <trkpt lat="43.112553" lon="-7.087989">
        <ele>831.422</ele>
        <time>1999-07-25T11:50:32Z</time>
      </trkpt>
      <trkpt lat="43.112463" lon="-7.088005">
        <ele>831.627</ele>
        <time>1999-07-25T11:50:36Z</time>
      </trkpt>
      <trkpt lat="43.112396" lon="-7.088049">
        <ele>832.067</ele>
        <time>1999-07-25T11:50:39Z</time>
      </trkpt>
      <trkpt lat="43.112363" lon="-7.088063">
        <ele>832.634</ele>
        <time>1999-07-25T11:50:41Z</time>
      </trkpt>
      <trkpt lat="43.112343" lon="-7.088071">
        <ele>832.831</ele>
        <time>1999-07-25T11:50:42Z</time>
      </trkpt>
      <trkpt lat="43.112265" lon="-7.088106">
        <ele>833.669</ele>
        <time>1999-07-25T11:50:46Z</time>
      </trkpt>
      <trkpt lat="43.112221" lon="-7.088144">
        <ele>834.241</ele>
        <time>1999-07-25T11:50:49Z</time>
      </trkpt>
      <trkpt lat="43.112199" lon="-7.088161">
        <ele>835.081</ele>
        <time>1999-07-25T11:50:51Z</time>
      </trkpt>
      <trkpt lat="43.112153" lon="-7.088218">
        <ele>836.009</ele>
        <time>1999-07-25T11:50:55Z</time>
      </trkpt>
      <trkpt lat="43.112121" lon="-7.088260">
        <ele>836.208</ele>
        <time>1999-07-25T11:50:57Z</time>
      </trkpt>
      <trkpt lat="43.112037" lon="-7.088364">
        <ele>836.627</ele>
        <time>1999-07-25T11:51:03Z</time>
      </trkpt>
      <trkpt lat="43.112003" lon="-7.088441">
        <ele>836.623</ele>
        <time>1999-07-25T11:51:07Z</time>
      </trkpt>
      <trkpt lat="43.111994" lon="-7.088493">
        <ele>836.694</ele>
        <time>1999-07-25T11:51:09Z</time>
      </trkpt>
      <trkpt lat="43.111868" lon="-7.088608">
        <ele>837.099</ele>
        <time>1999-07-25T11:51:13Z</time>
      </trkpt>
      <trkpt lat="43.111779" lon="-7.088643">
        <ele>837.249</ele>
        <time>1999-07-25T11:51:15Z</time>
      </trkpt>
      <trkpt lat="43.111685" lon="-7.088660">
        <ele>837.496</ele>
        <time>1999-07-25T11:51:17Z</time>
      </trkpt>
      <trkpt lat="43.111286" lon="-7.088718">
        <ele>837.823</ele>
        <time>1999-07-25T11:51:26Z</time>
      </trkpt>
      <trkpt lat="43.110967" lon="-7.088797">
        <ele>838.251</ele>
        <time>1999-07-25T11:51:34Z</time>
      </trkpt>
      <trkpt lat="43.110930" lon="-7.088806">
        <ele>838.456</ele>
        <time>1999-07-25T11:51:35Z</time>
      </trkpt>
      <trkpt lat="43.110589" lon="-7.088908">
        <ele>839.459</ele>
        <time>1999-07-25T11:51:44Z</time>
      </trkpt>
      <trkpt lat="43.110348" lon="-7.089020">
        <ele>840.814</ele>
        <time>1999-07-25T11:51:51Z</time>
      </trkpt>
      <trkpt lat="43.110316" lon="-7.089039">
        <ele>840.808</ele>
        <time>1999-07-25T11:51:52Z</time>
      </trkpt>
      <trkpt lat="43.110084" lon="-7.089170">
        <ele>841.828</ele>
        <time>1999-07-25T11:51:59Z</time>
      </trkpt>
      <trkpt lat="43.110004" lon="-7.089318">
        <ele>842.234</ele>
        <time>1999-07-25T11:52:03Z</time>
      </trkpt>
      <trkpt lat="43.109920" lon="-7.089579">
        <ele>842.685</ele>
        <time>1999-07-25T11:52:09Z</time>
      </trkpt>
      <trkpt lat="43.109848" lon="-7.089756">
        <ele>842.870</ele>
        <time>1999-07-25T11:52:13Z</time>
      </trkpt>
      <trkpt lat="43.109812" lon="-7.089847">
        <ele>842.860</ele>
        <time>1999-07-25T11:52:15Z</time>
      </trkpt>
      <trkpt lat="43.109746" lon="-7.090077">
        <ele>843.837</ele>
        <time>1999-07-25T11:52:20Z</time>
      </trkpt>
      <trkpt lat="43.109743" lon="-7.090363">
        <ele>844.624</ele>
        <time>1999-07-25T11:52:26Z</time>
      </trkpt>
      <trkpt lat="43.109750" lon="-7.090459">
        <ele>844.812</ele>
        <time>1999-07-25T11:52:28Z</time>
      </trkpt>
      <trkpt lat="43.109770" lon="-7.090611">
        <ele>845.235</ele>
        <time>1999-07-25T11:52:32Z</time>
      </trkpt>
      <trkpt lat="43.109785" lon="-7.090719">
        <ele>845.486</ele>
        <time>1999-07-25T11:52:36Z</time>
      </trkpt>
      <trkpt lat="43.109795" lon="-7.090757">
        <ele>845.814</ele>
        <time>1999-07-25T11:52:38Z</time>
      </trkpt>
      <trkpt lat="43.109801" lon="-7.090772">
        <ele>846.008</ele>
        <time>1999-07-25T11:52:39Z</time>
      </trkpt>
      <trkpt lat="43.109808" lon="-7.090836">
        <ele>846.626</ele>
        <time>1999-07-25T11:52:42Z</time>
      </trkpt>
      <trkpt lat="43.109821" lon="-7.090880">
        <ele>847.082</ele>
        <time>1999-07-25T11:52:44Z</time>
      </trkpt>
      <trkpt lat="43.109828" lon="-7.090928">
        <ele>847.653</ele>
        <time>1999-07-25T11:52:46Z</time>
      </trkpt>
      <trkpt lat="43.109841" lon="-7.090965">
        <ele>848.228</ele>
        <time>1999-07-25T11:52:48Z</time>
      </trkpt>
      <trkpt lat="43.109858" lon="-7.091070">
        <ele>849.688</ele>
        <time>1999-07-25T11:52:52Z</time>
      </trkpt>
      <trkpt lat="43.109858" lon="-7.091122">
        <ele>850.275</ele>
        <time>1999-07-25T11:52:54Z</time>
      </trkpt>
      <trkpt lat="43.109855" lon="-7.091174">
        <ele>850.692</ele>
        <time>1999-07-25T11:52:56Z</time>
      </trkpt>
      <trkpt lat="43.109854" lon="-7.091274">
        <ele>851.890</ele>
        <time>1999-07-25T11:53:00Z</time>
      </trkpt>
      <trkpt lat="43.109854" lon="-7.091302">
        <ele>852.256</ele>
        <time>1999-07-25T11:53:01Z</time>
      </trkpt>
      <trkpt lat="43.109853" lon="-7.091363">
        <ele>853.059</ele>
        <time>1999-07-25T11:53:03Z</time>
      </trkpt>
      <trkpt lat="43.109843" lon="-7.091505">
        <ele>854.014</ele>
        <time>1999-07-25T11:53:08Z</time>
      </trkpt>
      <trkpt lat="43.109837" lon="-7.091532">
        <ele>854.208</ele>
        <time>1999-07-25T11:53:09Z</time>
      </trkpt>
      <trkpt lat="43.109795" lon="-7.091720">
        <ele>855.298</ele>
        <time>1999-07-25T11:53:15Z</time>
      </trkpt>
      <trkpt lat="43.109811" lon="-7.091880">
        <ele>855.814</ele>
        <time>1999-07-25T11:53:20Z</time>
      </trkpt>
      <trkpt lat="43.109824" lon="-7.091953">
        <ele>856.275</ele>
        <time>1999-07-25T11:53:22Z</time>
      </trkpt>
      <trkpt lat="43.109873" lon="-7.092115">
        <ele>856.440</ele>
        <time>1999-07-25T11:53:27Z</time>
      </trkpt>
      <trkpt lat="43.109915" lon="-7.092230">
        <ele>856.810</ele>
        <time>1999-07-25T11:53:31Z</time>
      </trkpt>
      <trkpt lat="43.109943" lon="-7.092300">
        <ele>857.037</ele>
        <time>1999-07-25T11:53:34Z</time>
      </trkpt>
      <trkpt lat="43.109950" lon="-7.092353">
        <ele>857.224</ele>
        <time>1999-07-25T11:53:36Z</time>
      </trkpt>
      <trkpt lat="43.109983" lon="-7.092434">
        <ele>858.072</ele>
        <time>1999-07-25T11:53:40Z</time>
      </trkpt>
      <trkpt lat="43.109994" lon="-7.092477">
        <ele>858.451</ele>
        <time>1999-07-25T11:53:42Z</time>
      </trkpt>
      <trkpt lat="43.110020" lon="-7.092575">
        <ele>859.201</ele>
        <time>1999-07-25T11:53:47Z</time>
      </trkpt>
      <trkpt lat="43.110025" lon="-7.092588">
        <ele>859.411</ele>
        <time>1999-07-25T11:53:48Z</time>
      </trkpt>
      <trkpt lat="43.110054" lon="-7.092681">
        <ele>860.208</ele>
        <time>1999-07-25T11:53:53Z</time>
      </trkpt>
      <trkpt lat="43.110063" lon="-7.092697">
        <ele>860.478</ele>
        <time>1999-07-25T11:53:54Z</time>
      </trkpt>
      <trkpt lat="43.110092" lon="-7.092812">
        <ele>861.494</ele>
        <time>1999-07-25T11:53:59Z</time>
      </trkpt>
      <trkpt lat="43.110111" lon="-7.092893">
        <ele>862.295</ele>
        <time>1999-07-25T11:54:02Z</time>
      </trkpt>
      <trkpt lat="43.110115" lon="-7.092921">
        <ele>862.440</ele>
        <time>1999-07-25T11:54:03Z</time>
      </trkpt>
      <trkpt lat="43.110126" lon="-7.093041">
        <ele>863.690</ele>
        <time>1999-07-25T11:54:08Z</time>
      </trkpt>
      <trkpt lat="43.110125" lon="-7.093156">
        <ele>864.627</ele>
        <time>1999-07-25T11:54:13Z</time>
      </trkpt>
      <trkpt lat="43.110118" lon="-7.093218">
        <ele>865.494</ele>
        <time>1999-07-25T11:54:16Z</time>
      </trkpt>
      <trkpt lat="43.110113" lon="-7.093252">
        <ele>865.882</ele>
        <time>1999-07-25T11:54:18Z</time>
      </trkpt>
      <trkpt lat="43.110094" lon="-7.093325">
        <ele>866.856</ele>
        <time>1999-07-25T11:54:22Z</time>
      </trkpt>
      <trkpt lat="43.110071" lon="-7.093428">
        <ele>868.059</ele>
        <time>1999-07-25T11:54:27Z</time>
      </trkpt>
      <trkpt lat="43.110064" lon="-7.093492">
        <ele>868.614</ele>
        <time>1999-07-25T11:54:30Z</time>
      </trkpt>
      <trkpt lat="43.110058" lon="-7.093511">
        <ele>868.808</ele>
        <time>1999-07-25T11:54:31Z</time>
      </trkpt>
      <trkpt lat="43.110041" lon="-7.093575">
        <ele>869.048</ele>
        <time>1999-07-25T11:54:33Z</time>
      </trkpt>
      <trkpt lat="43.110027" lon="-7.093637">
        <ele>869.414</ele>
        <time>1999-07-25T11:54:35Z</time>
      </trkpt>
      <trkpt lat="43.109988" lon="-7.093750">
        <ele>869.895</ele>
        <time>1999-07-25T11:54:38Z</time>
      </trkpt>
      <trkpt lat="43.109968" lon="-7.093866">
        <ele>870.040</ele>
        <time>1999-07-25T11:54:41Z</time>
      </trkpt>
      <trkpt lat="43.109955" lon="-7.093913">
        <ele>870.260</ele>
        <time>1999-07-25T11:54:42Z</time>
      </trkpt>
      <trkpt lat="43.109880" lon="-7.094105">
        <ele>870.627</ele>
        <time>1999-07-25T11:54:47Z</time>
      </trkpt>
      <trkpt lat="43.109854" lon="-7.094218">
        <ele>870.894</ele>
        <time>1999-07-25T11:54:50Z</time>
      </trkpt>
      <trkpt lat="43.109820" lon="-7.094340">
        <ele>871.222</ele>
        <time>1999-07-25T11:54:53Z</time>
      </trkpt>
      <trkpt lat="43.109810" lon="-7.094385">
        <ele>871.244</ele>
        <time>1999-07-25T11:54:54Z</time>
      </trkpt>
      <trkpt lat="43.109723" lon="-7.094624">
        <ele>871.405</ele>
        <time>1999-07-25T11:55:00Z</time>
      </trkpt>
      <trkpt lat="43.109684" lon="-7.094802">
        <ele>872.015</ele>
        <time>1999-07-25T11:55:06Z</time>
      </trkpt>
      <trkpt lat="43.109685" lon="-7.094828">
        <ele>872.208</ele>
        <time>1999-07-25T11:55:07Z</time>
      </trkpt>
      <trkpt lat="43.109649" lon="-7.094969">
        <ele>873.067</ele>
        <time>1999-07-25T11:55:12Z</time>
      </trkpt>
      <trkpt lat="43.109647" lon="-7.095000">
        <ele>873.433</ele>
        <time>1999-07-25T11:55:13Z</time>
      </trkpt>
      <trkpt lat="43.109666" lon="-7.095162">
        <ele>874.474</ele>
        <time>1999-07-25T11:55:18Z</time>
      </trkpt>
      <trkpt lat="43.109683" lon="-7.095308">
        <ele>875.419</ele>
        <time>1999-07-25T11:55:22Z</time>
      </trkpt>
      <trkpt lat="43.109697" lon="-7.095417">
        <ele>876.049</ele>
        <time>1999-07-25T11:55:25Z</time>
      </trkpt>
      <trkpt lat="43.109688" lon="-7.095524">
        <ele>876.656</ele>
        <time>1999-07-25T11:55:28Z</time>
      </trkpt>
      <trkpt lat="43.109670" lon="-7.095639">
        <ele>876.873</ele>
        <time>1999-07-25T11:55:31Z</time>
      </trkpt>
      <trkpt lat="43.109627" lon="-7.095777">
        <ele>877.621</ele>
        <time>1999-07-25T11:55:35Z</time>
      </trkpt>
      <trkpt lat="43.109619" lon="-7.095805">
        <ele>877.867</ele>
        <time>1999-07-25T11:55:36Z</time>
      </trkpt>
      <trkpt lat="43.109618" lon="-7.095833">
        <ele>877.881</ele>
        <time>1999-07-25T11:55:37Z</time>
      </trkpt>
      <trkpt lat="43.109615" lon="-7.095977">
        <ele>878.019</ele>
        <time>1999-07-25T11:55:40Z</time>
      </trkpt>
      <trkpt lat="43.109613" lon="-7.096034">
        <ele>878.008</ele>
        <time>1999-07-25T11:55:41Z</time>
      </trkpt>
      <trkpt lat="43.109613" lon="-7.096157">
        <ele>878.049</ele>
        <time>1999-07-25T11:55:43Z</time>
      </trkpt>
      <trkpt lat="43.109599" lon="-7.096299">
        <ele>878.075</ele>
        <time>1999-07-25T11:55:45Z</time>
      </trkpt>
      <trkpt lat="43.109537" lon="-7.096504">
        <ele>878.086</ele>
        <time>1999-07-25T11:55:48Z</time>
      </trkpt>
      <trkpt lat="43.109509" lon="-7.096587">
        <ele>877.821</ele>
        <time>1999-07-25T11:55:49Z</time>
      </trkpt>
      <trkpt lat="43.109425" lon="-7.096841">
        <ele>877.271</ele>
        <time>1999-07-25T11:55:52Z</time>
      </trkpt>
      <trkpt lat="43.109390" lon="-7.097001">
        <ele>877.038</ele>
        <time>1999-07-25T11:55:54Z</time>
      </trkpt>
      <trkpt lat="43.109378" lon="-7.097071">
        <ele>876.685</ele>
        <time>1999-07-25T11:55:55Z</time>
      </trkpt>
      <trkpt lat="43.109358" lon="-7.097139">
        <ele>876.273</ele>
        <time>1999-07-25T11:55:56Z</time>
      </trkpt>
      <trkpt lat="43.109350" lon="-7.097207">
        <ele>875.825</ele>
        <time>1999-07-25T11:55:57Z</time>
      </trkpt>
      <trkpt lat="43.109347" lon="-7.097267">
        <ele>875.226</ele>
        <time>1999-07-25T11:55:58Z</time>
      </trkpt>
      <trkpt lat="43.109345" lon="-7.097373">
        <ele>874.208</ele>
        <time>1999-07-25T11:56:00Z</time>
      </trkpt>
      <trkpt lat="43.109345" lon="-7.097428">
        <ele>873.008</ele>
        <time>1999-07-25T11:56:01Z</time>
      </trkpt>
      <trkpt lat="43.109345" lon="-7.097487">
        <ele>871.825</ele>
        <time>1999-07-25T11:56:02Z</time>
      </trkpt>
      <trkpt lat="43.109346" lon="-7.097544">
        <ele>870.861</ele>
        <time>1999-07-25T11:56:03Z</time>
      </trkpt>
      <trkpt lat="43.109338" lon="-7.097599">
        <ele>869.832</ele>
        <time>1999-07-25T11:56:04Z</time>
      </trkpt>
      <trkpt lat="43.109335" lon="-7.097651">
        <ele>869.057</ele>
        <time>1999-07-25T11:56:05Z</time>
      </trkpt>
      <trkpt lat="43.109327" lon="-7.097756">
        <ele>867.217</ele>
        <time>1999-07-25T11:56:07Z</time>
      </trkpt>
      <trkpt lat="43.109323" lon="-7.097811">
        <ele>866.214</ele>
        <time>1999-07-25T11:56:08Z</time>
      </trkpt>
      <trkpt lat="43.109321" lon="-7.097857">
        <ele>864.831</ele>
        <time>1999-07-25T11:56:09Z</time>
      </trkpt>
      <trkpt lat="43.109323" lon="-7.097913">
        <ele>863.639</ele>
        <time>1999-07-25T11:56:10Z</time>
      </trkpt>
      <trkpt lat="43.109327" lon="-7.097966">
        <ele>862.476</ele>
        <time>1999-07-25T11:56:11Z</time>
      </trkpt>
      <trkpt lat="43.109347" lon="-7.098012">
        <ele>861.490</ele>
        <time>1999-07-25T11:56:12Z</time>
      </trkpt>
      <trkpt lat="43.109376" lon="-7.098059">
        <ele>860.419</ele>
        <time>1999-07-25T11:56:13Z</time>
      </trkpt>
      <trkpt lat="43.109398" lon="-7.098107">
        <ele>859.408</ele>
        <time>1999-07-25T11:56:14Z</time>
      </trkpt>
      <trkpt lat="43.109418" lon="-7.098155">
        <ele>858.440</ele>
        <time>1999-07-25T11:56:15Z</time>
      </trkpt>
      <trkpt lat="43.109434" lon="-7.098202">
        <ele>857.496</ele>
        <time>1999-07-25T11:56:16Z</time>
      </trkpt>
      <trkpt lat="43.109459" lon="-7.098296">
        <ele>855.657</ele>
        <time>1999-07-25T11:56:18Z</time>
      </trkpt>
      <trkpt lat="43.109467" lon="-7.098347">
        <ele>854.872</ele>
        <time>1999-07-25T11:56:19Z</time>
      </trkpt>
      <trkpt lat="43.109473" lon="-7.098391">
        <ele>852.672</ele>
        <time>1999-07-25T11:56:20Z</time>
      </trkpt>
      <trkpt lat="43.109485" lon="-7.098420">
        <ele>851.489</ele>
        <time>1999-07-25T11:56:21Z</time>
      </trkpt>
      <trkpt lat="43.109500" lon="-7.098444">
        <ele>850.436</ele>
        <time>1999-07-25T11:56:22Z</time>
      </trkpt>
      <trkpt lat="43.109497" lon="-7.098479">
        <ele>849.654</ele>
        <time>1999-07-25T11:56:23Z</time>
      </trkpt>
      <trkpt lat="43.109505" lon="-7.098509">
        <ele>849.278</ele>
        <time>1999-07-25T11:56:24Z</time>
      </trkpt>
      <trkpt lat="43.109515" lon="-7.098562">
        <ele>847.833</ele>
        <time>1999-07-25T11:56:26Z</time>
      </trkpt>
      <trkpt lat="43.109519" lon="-7.098593">
        <ele>847.226</ele>
        <time>1999-07-25T11:56:27Z</time>
      </trkpt>
      <trkpt lat="43.109502" lon="-7.098629">
        <ele>846.608</ele>
        <time>1999-07-25T11:56:28Z</time>
      </trkpt>
      <trkpt lat="43.109459" lon="-7.098671">
        <ele>845.410</ele>
        <time>1999-07-25T11:56:31Z</time>
      </trkpt>
      <trkpt lat="43.109501" lon="-7.098802">
        <ele>844.836</ele>
        <time>1999-07-25T11:56:35Z</time>
      </trkpt>
      <trkpt lat="43.109530" lon="-7.098857">
        <ele>844.617</ele>
        <time>1999-07-25T11:56:36Z</time>
      </trkpt>
      <trkpt lat="43.109615" lon="-7.099006">
        <ele>844.492</ele>
        <time>1999-07-25T11:56:38Z</time>
      </trkpt>
      <trkpt lat="43.109786" lon="-7.099294">
        <ele>843.662</ele>
        <time>1999-07-25T11:56:42Z</time>
      </trkpt>
      <trkpt lat="43.109815" lon="-7.099360">
        <ele>843.499</ele>
        <time>1999-07-25T11:56:43Z</time>
      </trkpt>
      <trkpt lat="43.109846" lon="-7.099514">
        <ele>841.686</ele>
        <time>1999-07-25T11:56:45Z</time>
      </trkpt>
      <trkpt lat="43.109856" lon="-7.099676">
        <ele>839.894</ele>
        <time>1999-07-25T11:56:47Z</time>
      </trkpt>
      <trkpt lat="43.109846" lon="-7.099828">
        <ele>838.417</ele>
        <time>1999-07-25T11:56:49Z</time>
      </trkpt>
      <trkpt lat="43.109831" lon="-7.099906">
        <ele>837.087</ele>
        <time>1999-07-25T11:56:50Z</time>
      </trkpt>
      <trkpt lat="43.109827" lon="-7.099968">
        <ele>836.415</ele>
        <time>1999-07-25T11:56:51Z</time>
      </trkpt>
      <trkpt lat="43.109814" lon="-7.100041">
        <ele>836.008</ele>
        <time>1999-07-25T11:56:52Z</time>
      </trkpt>
      <trkpt lat="43.109795" lon="-7.100169">
        <ele>835.634</ele>
        <time>1999-07-25T11:56:54Z</time>
      </trkpt>
      <trkpt lat="43.109727" lon="-7.100367">
        <ele>835.420</ele>
        <time>1999-07-25T11:56:57Z</time>
      </trkpt>
      <trkpt lat="43.109677" lon="-7.100509">
        <ele>834.831</ele>
        <time>1999-07-25T11:57:00Z</time>
      </trkpt>
      <trkpt lat="43.109623" lon="-7.100634">
        <ele>834.456</ele>
        <time>1999-07-25T11:57:03Z</time>
      </trkpt>
      <trkpt lat="43.109597" lon="-7.100676">
        <ele>834.456</ele>
        <time>1999-07-25T11:57:04Z</time>
      </trkpt>
      <trkpt lat="43.109500" lon="-7.100794">
        <ele>834.253</ele>
        <time>1999-07-25T11:57:07Z</time>
      </trkpt>
      <trkpt lat="43.109434" lon="-7.100850">
        <ele>834.230</ele>
        <time>1999-07-25T11:57:09Z</time>
      </trkpt>
      <trkpt lat="43.109370" lon="-7.100932">
        <ele>834.278</ele>
        <time>1999-07-25T11:57:13Z</time>
      </trkpt>
      <trkpt lat="43.109346" lon="-7.100954">
        <ele>834.481</ele>
        <time>1999-07-25T11:57:15Z</time>
      </trkpt>
      <trkpt lat="43.109312" lon="-7.100993">
        <ele>834.661</ele>
        <time>1999-07-25T11:57:18Z</time>
      </trkpt>
      <trkpt lat="43.109284" lon="-7.101021">
        <ele>835.017</ele>
        <time>1999-07-25T11:57:20Z</time>
      </trkpt>
      <trkpt lat="43.109272" lon="-7.101038">
        <ele>835.408</ele>
        <time>1999-07-25T11:57:21Z</time>
      </trkpt>
      <trkpt lat="43.109242" lon="-7.101078">
        <ele>836.041</ele>
        <time>1999-07-25T11:57:23Z</time>
      </trkpt>
      <trkpt lat="43.109226" lon="-7.101117">
        <ele>836.887</ele>
        <time>1999-07-25T11:57:25Z</time>
      </trkpt>
      <trkpt lat="43.109210" lon="-7.101136">
        <ele>837.278</ele>
        <time>1999-07-25T11:57:26Z</time>
      </trkpt>
      <trkpt lat="43.109198" lon="-7.101155">
        <ele>837.453</ele>
        <time>1999-07-25T11:57:27Z</time>
      </trkpt>
      <trkpt lat="43.109209" lon="-7.101186">
        <ele>838.293</ele>
        <time>1999-07-25T11:57:29Z</time>
      </trkpt>
      <trkpt lat="43.109252" lon="-7.101194">
        <ele>839.410</ele>
        <time>1999-07-25T11:57:32Z</time>
      </trkpt>
      <trkpt lat="43.109293" lon="-7.101213">
        <ele>840.437</ele>
        <time>1999-07-25T11:57:35Z</time>
      </trkpt>
      <trkpt lat="43.109305" lon="-7.101260">
        <ele>840.845</ele>
        <time>1999-07-25T11:57:37Z</time>
      </trkpt>
      <trkpt lat="43.109287" lon="-7.101307">
        <ele>841.094</ele>
        <time>1999-07-25T11:57:41Z</time>
      </trkpt>
      <trkpt lat="43.109285" lon="-7.101310">
        <ele>841.057</ele>
        <time>1999-07-25T11:57:42Z</time>
      </trkpt>
      <trkpt lat="43.109528" lon="-7.101538">
        <ele>845.222</ele>
        <time>1999-07-25T11:58:26Z</time>
      </trkpt>
      <trkpt lat="43.109536" lon="-7.101557">
        <ele>845.208</ele>
        <time>1999-07-25T11:58:27Z</time>
      </trkpt>
      <trkpt lat="43.109556" lon="-7.101591">
        <ele>845.682</ele>
        <time>1999-07-25T11:58:29Z</time>
      </trkpt>
      <trkpt lat="43.109577" lon="-7.101673">
        <ele>846.268</ele>
        <time>1999-07-25T11:58:34Z</time>
      </trkpt>
      <trkpt lat="43.109581" lon="-7.101740">
        <ele>846.849</ele>
        <time>1999-07-25T11:58:38Z</time>
      </trkpt>
      <trkpt lat="43.109580" lon="-7.101759">
        <ele>847.224</ele>
        <time>1999-07-25T11:58:39Z</time>
      </trkpt>
      <trkpt lat="43.109565" lon="-7.101857">
        <ele>848.294</ele>
        <time>1999-07-25T11:58:44Z</time>
      </trkpt>
      <trkpt lat="43.109555" lon="-7.101937">
        <ele>848.651</ele>
        <time>1999-07-25T11:58:48Z</time>
      </trkpt>
      <trkpt lat="43.109553" lon="-7.101956">
        <ele>848.858</ele>
        <time>1999-07-25T11:58:49Z</time>
      </trkpt>
      <trkpt lat="43.109556" lon="-7.102033">
        <ele>848.866</ele>
        <time>1999-07-25T11:58:53Z</time>
      </trkpt>
      <trkpt lat="43.109578" lon="-7.102095">
        <ele>849.093</ele>
        <time>1999-07-25T11:58:56Z</time>
      </trkpt>
      <trkpt lat="43.109586" lon="-7.102125">
        <ele>849.265</ele>
        <time>1999-07-25T11:58:58Z</time>
      </trkpt>
      <trkpt lat="43.109592" lon="-7.102214">
        <ele>849.821</ele>
        <time>1999-07-25T11:59:04Z</time>
      </trkpt>
      <trkpt lat="43.109589" lon="-7.102227">
        <ele>850.008</ele>
        <time>1999-07-25T11:59:05Z</time>
      </trkpt>
      <trkpt lat="43.109595" lon="-7.102245">
        <ele>850.242</ele>
        <time>1999-07-25T11:59:06Z</time>
      </trkpt>
      <trkpt lat="43.109600" lon="-7.102261">
        <ele>850.668</ele>
        <time>1999-07-25T11:59:07Z</time>
      </trkpt>
      <trkpt lat="43.109609" lon="-7.102304">
        <ele>851.019</ele>
        <time>1999-07-25T11:59:10Z</time>
      </trkpt>
      <trkpt lat="43.109622" lon="-7.102360">
        <ele>851.614</ele>
        <time>1999-07-25T11:59:14Z</time>
      </trkpt>
      <trkpt lat="43.109630" lon="-7.102403">
        <ele>852.254</ele>
        <time>1999-07-25T11:59:17Z</time>
      </trkpt>
      <trkpt lat="43.109640" lon="-7.102436">
        <ele>852.831</ele>
        <time>1999-07-25T11:59:19Z</time>
      </trkpt>
      <trkpt lat="43.109669" lon="-7.102501">
        <ele>853.658</ele>
        <time>1999-07-25T11:59:24Z</time>
      </trkpt>
      <trkpt lat="43.109680" lon="-7.102528">
        <ele>854.016</ele>
        <time>1999-07-25T11:59:26Z</time>
      </trkpt>
      <trkpt lat="43.109681" lon="-7.102537">
        <ele>854.483</ele>
        <time>1999-07-25T11:59:28Z</time>
      </trkpt>
      <trkpt lat="43.109744" lon="-7.102817">
        <ele>856.425</ele>
        <time>1999-07-25T12:02:02Z</time>
      </trkpt>
      <trkpt lat="43.109744" lon="-7.102842">
        <ele>856.417</ele>
        <time>1999-07-25T12:02:03Z</time>
      </trkpt>
      <trkpt lat="43.109745" lon="-7.102896">
        <ele>856.608</ele>
        <time>1999-07-25T12:02:05Z</time>
      </trkpt>
      <trkpt lat="43.109752" lon="-7.102940">
        <ele>856.821</ele>
        <time>1999-07-25T12:02:07Z</time>
      </trkpt>
      <trkpt lat="43.109752" lon="-7.102983">
        <ele>857.277</ele>
        <time>1999-07-25T12:02:09Z</time>
      </trkpt>
      <trkpt lat="43.109751" lon="-7.103005">
        <ele>857.468</ele>
        <time>1999-07-25T12:02:10Z</time>
      </trkpt>
      <trkpt lat="43.109745" lon="-7.103052">
        <ele>857.873</ele>
        <time>1999-07-25T12:02:12Z</time>
      </trkpt>
      <trkpt lat="43.109742" lon="-7.103106">
        <ele>858.843</ele>
        <time>1999-07-25T12:02:14Z</time>
      </trkpt>
      <trkpt lat="43.109724" lon="-7.103210">
        <ele>859.820</ele>
        <time>1999-07-25T12:02:17Z</time>
      </trkpt>
      <trkpt lat="43.109716" lon="-7.103247">
        <ele>860.017</ele>
        <time>1999-07-25T12:02:18Z</time>
      </trkpt>
      <trkpt lat="43.109705" lon="-7.103344">
        <ele>861.275</ele>
        <time>1999-07-25T12:02:21Z</time>
      </trkpt>
      <trkpt lat="43.109681" lon="-7.103457">
        <ele>862.044</ele>
        <time>1999-07-25T12:02:24Z</time>
      </trkpt>
      <trkpt lat="43.109669" lon="-7.103494">
        <ele>862.205</ele>
        <time>1999-07-25T12:02:25Z</time>
      </trkpt>
      <trkpt lat="43.109629" lon="-7.103665">
        <ele>863.215</ele>
        <time>1999-07-25T12:02:30Z</time>
      </trkpt>
      <trkpt lat="43.109621" lon="-7.103698">
        <ele>863.408</ele>
        <time>1999-07-25T12:02:31Z</time>
      </trkpt>
      <trkpt lat="43.109592" lon="-7.103836">
        <ele>864.467</ele>
        <time>1999-07-25T12:02:35Z</time>
      </trkpt>
      <trkpt lat="43.109569" lon="-7.103902">
        <ele>864.863</ele>
        <time>1999-07-25T12:02:37Z</time>
      </trkpt>
      <trkpt lat="43.109539" lon="-7.103968">
        <ele>865.494</ele>
        <time>1999-07-25T12:02:40Z</time>
      </trkpt>
      <trkpt lat="43.109516" lon="-7.104000">
        <ele>865.669</ele>
        <time>1999-07-25T12:02:42Z</time>
      </trkpt>
      <trkpt lat="43.109436" lon="-7.104068">
        <ele>866.459</ele>
        <time>1999-07-25T12:02:46Z</time>
      </trkpt>
      <trkpt lat="43.109404" lon="-7.104120">
        <ele>867.056</ele>
        <time>1999-07-25T12:02:48Z</time>
      </trkpt>
      <trkpt lat="43.109343" lon="-7.104237">
        <ele>867.663</ele>
        <time>1999-07-25T12:02:52Z</time>
      </trkpt>
      <trkpt lat="43.109273" lon="-7.104402">
        <ele>868.421</ele>
        <time>1999-07-25T12:02:57Z</time>
      </trkpt>
      <trkpt lat="43.109247" lon="-7.104471">
        <ele>868.635</ele>
        <time>1999-07-25T12:02:59Z</time>
      </trkpt>
      <trkpt lat="43.109193" lon="-7.104701">
        <ele>869.886</ele>
        <time>1999-07-25T12:03:06Z</time>
      </trkpt>
      <trkpt lat="43.109163" lon="-7.104881">
        <ele>870.814</ele>
        <time>1999-07-25T12:03:12Z</time>
      </trkpt>
      <trkpt lat="43.109151" lon="-7.104968">
        <ele>872.008</ele>
        <time>1999-07-25T12:03:15Z</time>
      </trkpt>
      <trkpt lat="43.109137" lon="-7.105114">
        <ele>873.246</ele>
        <time>1999-07-25T12:03:20Z</time>
      </trkpt>
      <trkpt lat="43.109106" lon="-7.105261">
        <ele>874.492</ele>
        <time>1999-07-25T12:03:25Z</time>
      </trkpt>
      <trkpt lat="43.109071" lon="-7.105384">
        <ele>875.623</ele>
        <time>1999-07-25T12:03:29Z</time>
      </trkpt>
      <trkpt lat="43.109025" lon="-7.105505">
        <ele>876.648</ele>
        <time>1999-07-25T12:03:33Z</time>
      </trkpt>
      <trkpt lat="43.108964" lon="-7.105678">
        <ele>877.458</ele>
        <time>1999-07-25T12:03:38Z</time>
      </trkpt>
      <trkpt lat="43.108927" lon="-7.105787">
        <ele>877.865</ele>
        <time>1999-07-25T12:03:41Z</time>
      </trkpt>
      <trkpt lat="43.108875" lon="-7.105988">
        <ele>878.442</ele>
        <time>1999-07-25T12:03:46Z</time>
      </trkpt>
      <trkpt lat="43.108838" lon="-7.106246">
        <ele>879.240</ele>
        <time>1999-07-25T12:03:51Z</time>
      </trkpt>
      <trkpt lat="43.108823" lon="-7.106295">
        <ele>879.462</ele>
        <time>1999-07-25T12:03:52Z</time>
      </trkpt>
      <trkpt lat="43.108725" lon="-7.106594">
        <ele>880.083</ele>
        <time>1999-07-25T12:03:58Z</time>
      </trkpt>
      <trkpt lat="43.108663" lon="-7.106737">
        <ele>880.211</ele>
        <time>1999-07-25T12:04:01Z</time>
      </trkpt>
      <trkpt lat="43.108570" lon="-7.106974">
        <ele>880.608</ele>
        <time>1999-07-25T12:04:06Z</time>
      </trkpt>
      <trkpt lat="43.108547" lon="-7.107068">
        <ele>880.869</ele>
        <time>1999-07-25T12:04:08Z</time>
      </trkpt>
      <trkpt lat="43.108498" lon="-7.107414">
        <ele>881.245</ele>
        <time>1999-07-25T12:04:15Z</time>
      </trkpt>
      <trkpt lat="43.108486" lon="-7.107462">
        <ele>881.486</ele>
        <time>1999-07-25T12:04:16Z</time>
      </trkpt>
      <trkpt lat="43.108428" lon="-7.107670">
        <ele>882.061</ele>
        <time>1999-07-25T12:04:21Z</time>
      </trkpt>
      <trkpt lat="43.108419" lon="-7.107715">
        <ele>882.671</ele>
        <time>1999-07-25T12:04:22Z</time>
      </trkpt>
      <trkpt lat="43.108337" lon="-7.108070">
        <ele>883.668</ele>
        <time>1999-07-25T12:04:30Z</time>
      </trkpt>
      <trkpt lat="43.108324" lon="-7.108113">
        <ele>883.655</ele>
        <time>1999-07-25T12:04:31Z</time>
      </trkpt>
      <trkpt lat="43.108213" lon="-7.108440">
        <ele>884.673</ele>
        <time>1999-07-25T12:04:39Z</time>
      </trkpt>
      <trkpt lat="43.108160" lon="-7.108632">
        <ele>885.281</ele>
        <time>1999-07-25T12:04:44Z</time>
      </trkpt>
      <trkpt lat="43.108116" lon="-7.108778">
        <ele>885.861</ele>
        <time>1999-07-25T12:04:48Z</time>
      </trkpt>
      <trkpt lat="43.108084" lon="-7.108935">
        <ele>886.417</ele>
        <time>1999-07-25T12:04:52Z</time>
      </trkpt>
      <trkpt lat="43.108052" lon="-7.109077">
        <ele>886.808</ele>
        <time>1999-07-25T12:04:56Z</time>
      </trkpt>
      <trkpt lat="43.108018" lon="-7.109191">
        <ele>887.441</ele>
        <time>1999-07-25T12:04:59Z</time>
      </trkpt>
      <trkpt lat="43.107997" lon="-7.109271">
        <ele>888.037</ele>
        <time>1999-07-25T12:05:01Z</time>
      </trkpt>
      <trkpt lat="43.107952" lon="-7.109423">
        <ele>888.848</ele>
        <time>1999-07-25T12:05:05Z</time>
      </trkpt>
      <trkpt lat="43.107931" lon="-7.109505">
        <ele>889.233</ele>
        <time>1999-07-25T12:05:07Z</time>
      </trkpt>
      <trkpt lat="43.107871" lon="-7.109690">
        <ele>890.053</ele>
        <time>1999-07-25T12:05:12Z</time>
      </trkpt>
      <trkpt lat="43.107858" lon="-7.109730">
        <ele>890.250</ele>
        <time>1999-07-25T12:05:13Z</time>
      </trkpt>
      <trkpt lat="43.107803" lon="-7.109883">
        <ele>891.257</ele>
        <time>1999-07-25T12:05:17Z</time>
      </trkpt>
      <trkpt lat="43.107792" lon="-7.109921">
        <ele>891.445</ele>
        <time>1999-07-25T12:05:18Z</time>
      </trkpt>
      <trkpt lat="43.107769" lon="-7.109989">
        <ele>891.841</ele>
        <time>1999-07-25T12:05:20Z</time>
      </trkpt>
      <trkpt lat="43.107736" lon="-7.110087">
        <ele>892.481</ele>
        <time>1999-07-25T12:05:23Z</time>
      </trkpt>
      <trkpt lat="43.107704" lon="-7.110210">
        <ele>893.209</ele>
        <time>1999-07-25T12:05:27Z</time>
      </trkpt>
      <trkpt lat="43.107687" lon="-7.110271">
        <ele>893.608</ele>
        <time>1999-07-25T12:05:29Z</time>
      </trkpt>
      <trkpt lat="43.107647" lon="-7.110424">
        <ele>894.867</ele>
        <time>1999-07-25T12:05:34Z</time>
      </trkpt>
      <trkpt lat="43.107633" lon="-7.110494">
        <ele>895.423</ele>
        <time>1999-07-25T12:05:36Z</time>
      </trkpt>
      <trkpt lat="43.107618" lon="-7.110585">
        <ele>896.014</ele>
        <time>1999-07-25T12:05:39Z</time>
      </trkpt>
      <trkpt lat="43.107584" lon="-7.110675">
        <ele>896.859</ele>
        <time>1999-07-25T12:05:42Z</time>
      </trkpt>
      <trkpt lat="43.107562" lon="-7.110738">
        <ele>897.459</ele>
        <time>1999-07-25T12:05:44Z</time>
      </trkpt>
      <trkpt lat="43.107500" lon="-7.110936">
        <ele>898.226</ele>
        <time>1999-07-25T12:05:50Z</time>
      </trkpt>
      <trkpt lat="43.107490" lon="-7.110965">
        <ele>898.453</ele>
        <time>1999-07-25T12:05:51Z</time>
      </trkpt>
      <trkpt lat="43.107424" lon="-7.111145">
        <ele>899.681</ele>
        <time>1999-07-25T12:05:58Z</time>
      </trkpt>
      <trkpt lat="43.107415" lon="-7.111167">
        <ele>899.864</ele>
        <time>1999-07-25T12:05:59Z</time>
      </trkpt>
      <trkpt lat="43.107392" lon="-7.111228">
        <ele>900.606</ele>
        <time>1999-07-25T12:06:02Z</time>
      </trkpt>
      <trkpt lat="43.107367" lon="-7.111296">
        <ele>901.816</ele>
        <time>1999-07-25T12:06:06Z</time>
      </trkpt>
      <trkpt lat="43.107356" lon="-7.111335">
        <ele>902.608</ele>
        <time>1999-07-25T12:06:08Z</time>
      </trkpt>
      <trkpt lat="43.107344" lon="-7.111367">
        <ele>903.269</ele>
        <time>1999-07-25T12:06:10Z</time>
      </trkpt>
      <trkpt lat="43.107323" lon="-7.111425">
        <ele>904.275</ele>
        <time>1999-07-25T12:06:13Z</time>
      </trkpt>
      <trkpt lat="43.107287" lon="-7.111512">
        <ele>905.416</ele>
        <time>1999-07-25T12:06:17Z</time>
      </trkpt>
      <trkpt lat="43.107260" lon="-7.111572">
        <ele>906.871</ele>
        <time>1999-07-25T12:06:20Z</time>
      </trkpt>
      <trkpt lat="43.107239" lon="-7.111645">
        <ele>907.841</ele>
        <time>1999-07-25T12:06:23Z</time>
      </trkpt>
      <trkpt lat="43.107228" lon="-7.111692">
        <ele>908.218</ele>
        <time>1999-07-25T12:06:25Z</time>
      </trkpt>
      <trkpt lat="43.107211" lon="-7.111759">
        <ele>908.845</ele>
        <time>1999-07-25T12:06:28Z</time>
      </trkpt>
      <trkpt lat="43.107183" lon="-7.111847">
        <ele>910.023</ele>
        <time>1999-07-25T12:06:32Z</time>
      </trkpt>
      <trkpt lat="43.107175" lon="-7.111867">
        <ele>910.413</ele>
        <time>1999-07-25T12:06:33Z</time>
      </trkpt>
      <trkpt lat="43.107150" lon="-7.111928">
        <ele>911.443</ele>
        <time>1999-07-25T12:06:36Z</time>
      </trkpt>
      <trkpt lat="43.107115" lon="-7.112020">
        <ele>912.607</ele>
        <time>1999-07-25T12:06:41Z</time>
      </trkpt>
      <trkpt lat="43.107107" lon="-7.112040">
        <ele>912.808</ele>
        <time>1999-07-25T12:06:42Z</time>
      </trkpt>
      <trkpt lat="43.107094" lon="-7.112083">
        <ele>913.654</ele>
        <time>1999-07-25T12:06:44Z</time>
      </trkpt>
      <trkpt lat="43.107062" lon="-7.112171">
        <ele>914.880</ele>
        <time>1999-07-25T12:06:49Z</time>
      </trkpt>
      <trkpt lat="43.107056" lon="-7.112190">
        <ele>915.011</ele>
        <time>1999-07-25T12:06:50Z</time>
      </trkpt>
      <trkpt lat="43.107036" lon="-7.112245">
        <ele>915.896</ele>
        <time>1999-07-25T12:06:53Z</time>
      </trkpt>
      <trkpt lat="43.107021" lon="-7.112295">
        <ele>916.896</ele>
        <time>1999-07-25T12:06:56Z</time>
      </trkpt>
      <trkpt lat="43.107002" lon="-7.112340">
        <ele>917.843</ele>
        <time>1999-07-25T12:06:59Z</time>
      </trkpt>
      <trkpt lat="43.106980" lon="-7.112411">
        <ele>918.890</ele>
        <time>1999-07-25T12:07:03Z</time>
      </trkpt>
      <trkpt lat="43.106970" lon="-7.112424">
        <ele>919.258</ele>
        <time>1999-07-25T12:07:04Z</time>
      </trkpt>
      <trkpt lat="43.106960" lon="-7.112439">
        <ele>919.621</ele>
        <time>1999-07-25T12:07:05Z</time>
      </trkpt>
      <trkpt lat="43.106953" lon="-7.112457">
        <ele>920.041</ele>
        <time>1999-07-25T12:07:06Z</time>
      </trkpt>
      <trkpt lat="43.106931" lon="-7.112541">
        <ele>921.405</ele>
        <time>1999-07-25T12:07:10Z</time>
      </trkpt>
      <trkpt lat="43.106915" lon="-7.112582">
        <ele>922.008</ele>
        <time>1999-07-25T12:07:12Z</time>
      </trkpt>
      <trkpt lat="43.106907" lon="-7.112601">
        <ele>922.625</ele>
        <time>1999-07-25T12:07:13Z</time>
      </trkpt>
      <trkpt lat="43.106869" lon="-7.112698">
        <ele>923.671</ele>
        <time>1999-07-25T12:07:18Z</time>
      </trkpt>
      <trkpt lat="43.106850" lon="-7.112739">
        <ele>924.212</ele>
        <time>1999-07-25T12:07:20Z</time>
      </trkpt>
      <trkpt lat="43.106829" lon="-7.112802">
        <ele>924.887</ele>
        <time>1999-07-25T12:07:23Z</time>
      </trkpt>
      <trkpt lat="43.106807" lon="-7.112880">
        <ele>925.687</ele>
        <time>1999-07-25T12:07:27Z</time>
      </trkpt>
      <trkpt lat="43.106792" lon="-7.112940">
        <ele>925.894</ele>
        <time>1999-07-25T12:07:29Z</time>
      </trkpt>
      <trkpt lat="43.106759" lon="-7.113052">
        <ele>926.821</ele>
        <time>1999-07-25T12:07:33Z</time>
      </trkpt>
      <trkpt lat="43.106751" lon="-7.113081">
        <ele>927.449</ele>
        <time>1999-07-25T12:07:34Z</time>
      </trkpt>
      <trkpt lat="43.106675" lon="-7.113314">
        <ele>928.296</ele>
        <time>1999-07-25T12:07:41Z</time>
      </trkpt>
      <trkpt lat="43.106663" lon="-7.113346">
        <ele>928.831</ele>
        <time>1999-07-25T12:07:42Z</time>
      </trkpt>
      <trkpt lat="43.106596" lon="-7.113504">
        <ele>929.424</ele>
        <time>1999-07-25T12:07:46Z</time>
      </trkpt>
      <trkpt lat="43.106499" lon="-7.113645">
        <ele>929.808</ele>
        <time>1999-07-25T12:07:50Z</time>
      </trkpt>
      <trkpt lat="43.106454" lon="-7.113743">
        <ele>930.472</ele>
        <time>1999-07-25T12:07:52Z</time>
      </trkpt>
      <trkpt lat="43.106384" lon="-7.113974">
        <ele>930.858</ele>
        <time>1999-07-25T12:07:56Z</time>
      </trkpt>
      <trkpt lat="43.106361" lon="-7.114176">
        <ele>930.859</ele>
        <time>1999-07-25T12:07:59Z</time>
      </trkpt>
      <trkpt lat="43.106335" lon="-7.114371">
        <ele>931.074</ele>
        <time>1999-07-25T12:08:02Z</time>
      </trkpt>
      <trkpt lat="43.106294" lon="-7.114807">
        <ele>931.254</ele>
        <time>1999-07-25T12:08:09Z</time>
      </trkpt>
      <trkpt lat="43.106276" lon="-7.115036">
        <ele>931.211</ele>
        <time>1999-07-25T12:08:13Z</time>
      </trkpt>
      <trkpt lat="43.106251" lon="-7.115237">
        <ele>931.478</ele>
        <time>1999-07-25T12:08:16Z</time>
      </trkpt>
      <trkpt lat="43.106179" lon="-7.115647">
        <ele>931.866</ele>
        <time>1999-07-25T12:08:22Z</time>
      </trkpt>
      <trkpt lat="43.106127" lon="-7.116018">
        <ele>931.831</ele>
        <time>1999-07-25T12:08:26Z</time>
      </trkpt>
      <trkpt lat="43.106020" lon="-7.116345">
        <ele>931.861</ele>
        <time>1999-07-25T12:08:29Z</time>
      </trkpt>
      <trkpt lat="43.105993" lon="-7.116457">
        <ele>931.807</ele>
        <time>1999-07-25T12:08:30Z</time>
      </trkpt>
      <trkpt lat="43.105942" lon="-7.116683">
        <ele>931.608</ele>
        <time>1999-07-25T12:08:32Z</time>
      </trkpt>
      <trkpt lat="43.105870" lon="-7.117009">
        <ele>930.816</ele>
        <time>1999-07-25T12:08:35Z</time>
      </trkpt>
      <trkpt lat="43.105849" lon="-7.117092">
        <ele>930.652</ele>
        <time>1999-07-25T12:08:36Z</time>
      </trkpt>
      <trkpt lat="43.105811" lon="-7.117250">
        <ele>929.673</ele>
        <time>1999-07-25T12:08:38Z</time>
      </trkpt>
      <trkpt lat="43.105761" lon="-7.117419">
        <ele>928.658</ele>
        <time>1999-07-25T12:08:40Z</time>
      </trkpt>
      <trkpt lat="43.105685" lon="-7.117602">
        <ele>928.058</ele>
        <time>1999-07-25T12:08:42Z</time>
      </trkpt>
      <trkpt lat="43.105646" lon="-7.117693">
        <ele>927.445</ele>
        <time>1999-07-25T12:08:43Z</time>
      </trkpt>
      <trkpt lat="43.105576" lon="-7.117865">
        <ele>927.032</ele>
        <time>1999-07-25T12:08:45Z</time>
      </trkpt>
      <trkpt lat="43.105515" lon="-7.118020">
        <ele>926.210</ele>
        <time>1999-07-25T12:08:47Z</time>
      </trkpt>
      <trkpt lat="43.105482" lon="-7.118105">
        <ele>926.034</ele>
        <time>1999-07-25T12:08:48Z</time>
      </trkpt>
      <trkpt lat="43.105414" lon="-7.118298">
        <ele>925.655</ele>
        <time>1999-07-25T12:08:50Z</time>
      </trkpt>
      <trkpt lat="43.105335" lon="-7.118507">
        <ele>925.210</ele>
        <time>1999-07-25T12:08:52Z</time>
      </trkpt>
      <trkpt lat="43.105295" lon="-7.118617">
        <ele>924.608</ele>
        <time>1999-07-25T12:08:53Z</time>
      </trkpt>
      <trkpt lat="43.105256" lon="-7.118722">
        <ele>924.256</ele>
        <time>1999-07-25T12:08:54Z</time>
      </trkpt>
      <trkpt lat="43.105190" lon="-7.118894">
        <ele>923.012</ele>
        <time>1999-07-25T12:08:56Z</time>
      </trkpt>
      <trkpt lat="43.105159" lon="-7.118968">
        <ele>922.413</ele>
        <time>1999-07-25T12:08:57Z</time>
      </trkpt>
      <trkpt lat="43.105127" lon="-7.119041">
        <ele>922.068</ele>
        <time>1999-07-25T12:08:58Z</time>
      </trkpt>
      <trkpt lat="43.105064" lon="-7.119199">
        <ele>921.278</ele>
        <time>1999-07-25T12:09:00Z</time>
      </trkpt>
      <trkpt lat="43.105031" lon="-7.119281">
        <ele>920.875</ele>
        <time>1999-07-25T12:09:01Z</time>
      </trkpt>
      <trkpt lat="43.104966" lon="-7.119446">
        <ele>919.252</ele>
        <time>1999-07-25T12:09:03Z</time>
      </trkpt>
      <trkpt lat="43.104900" lon="-7.119612">
        <ele>917.890</ele>
        <time>1999-07-25T12:09:05Z</time>
      </trkpt>
      <trkpt lat="43.104808" lon="-7.119857">
        <ele>916.686</ele>
        <time>1999-07-25T12:09:08Z</time>
      </trkpt>
      <trkpt lat="43.104716" lon="-7.120094">
        <ele>916.260</ele>
        <time>1999-07-25T12:09:11Z</time>
      </trkpt>
      <trkpt lat="43.104690" lon="-7.120161">
        <ele>916.226</ele>
        <time>1999-07-25T12:09:12Z</time>
      </trkpt>
      <trkpt lat="43.104621" lon="-7.120366">
        <ele>916.008</ele>
        <time>1999-07-25T12:09:15Z</time>
      </trkpt>
      <trkpt lat="43.104553" lon="-7.120582">
        <ele>915.881</ele>
        <time>1999-07-25T12:09:18Z</time>
      </trkpt>
      <trkpt lat="43.104532" lon="-7.120657">
        <ele>915.667</ele>
        <time>1999-07-25T12:09:19Z</time>
      </trkpt>
      <trkpt lat="43.104510" lon="-7.120732">
        <ele>915.438</ele>
        <time>1999-07-25T12:09:20Z</time>
      </trkpt>
      <trkpt lat="43.104411" lon="-7.121004">
        <ele>915.093</ele>
        <time>1999-07-25T12:09:24Z</time>
      </trkpt>
      <trkpt lat="43.104374" lon="-7.121059">
        <ele>915.023</ele>
        <time>1999-07-25T12:09:25Z</time>
      </trkpt>
      <trkpt lat="43.104114" lon="-7.121417">
        <ele>915.050</ele>
        <time>1999-07-25T12:09:31Z</time>
      </trkpt>
      <trkpt lat="43.103956" lon="-7.121756">
        <ele>915.047</ele>
        <time>1999-07-25T12:09:35Z</time>
      </trkpt>
      <trkpt lat="43.103922" lon="-7.121853">
        <ele>915.075</ele>
        <time>1999-07-25T12:09:36Z</time>
      </trkpt>
      <trkpt lat="43.103861" lon="-7.122033">
        <ele>914.615</ele>
        <time>1999-07-25T12:09:38Z</time>
      </trkpt>
      <trkpt lat="43.103831" lon="-7.122104">
        <ele>914.665</ele>
        <time>1999-07-25T12:09:39Z</time>
      </trkpt>
      <trkpt lat="43.103791" lon="-7.122154">
        <ele>914.411</ele>
        <time>1999-07-25T12:09:40Z</time>
      </trkpt>
      <trkpt lat="43.103686" lon="-7.122161">
        <ele>913.608</ele>
        <time>1999-07-25T12:09:42Z</time>
      </trkpt>
      <trkpt lat="43.103627" lon="-7.122141">
        <ele>912.424</ele>
        <time>1999-07-25T12:09:43Z</time>
      </trkpt>
      <trkpt lat="43.103564" lon="-7.122132">
        <ele>912.080</ele>
        <time>1999-07-25T12:09:44Z</time>
      </trkpt>
      <trkpt lat="43.103501" lon="-7.122133">
        <ele>911.871</ele>
        <time>1999-07-25T12:09:45Z</time>
      </trkpt>
      <trkpt lat="43.103445" lon="-7.122148">
        <ele>911.476</ele>
        <time>1999-07-25T12:09:46Z</time>
      </trkpt>
      <trkpt lat="43.103362" lon="-7.122196">
        <ele>910.886</ele>
        <time>1999-07-25T12:09:48Z</time>
      </trkpt>
      <trkpt lat="43.103287" lon="-7.122259">
        <ele>910.663</ele>
        <time>1999-07-25T12:09:50Z</time>
      </trkpt>
      <trkpt lat="43.103249" lon="-7.122296">
        <ele>910.460</ele>
        <time>1999-07-25T12:09:51Z</time>
      </trkpt>
      <trkpt lat="43.103219" lon="-7.122331">
        <ele>910.268</ele>
        <time>1999-07-25T12:09:52Z</time>
      </trkpt>
      <trkpt lat="43.103175" lon="-7.122376">
        <ele>908.458</ele>
        <time>1999-07-25T12:09:54Z</time>
      </trkpt>
      <trkpt lat="43.103162" lon="-7.122388">
        <ele>907.252</ele>
        <time>1999-07-25T12:09:55Z</time>
      </trkpt>
      <trkpt lat="43.103158" lon="-7.122392">
        <ele>906.017</ele>
        <time>1999-07-25T12:09:56Z</time>
      </trkpt>
      <trkpt lat="43.103159" lon="-7.122394">
        <ele>905.208</ele>
        <time>1999-07-25T12:09:57Z</time>
      </trkpt>
      <trkpt lat="43.103238" lon="-7.122274">
        <ele>901.098</ele>
        <time>1999-07-25T12:12:55Z</time>
      </trkpt>
      <trkpt lat="43.103250" lon="-7.122255">
        <ele>901.214</ele>
        <time>1999-07-25T12:12:56Z</time>
      </trkpt>
      <trkpt lat="43.103299" lon="-7.122228">
        <ele>901.215</ele>
        <time>1999-07-25T12:12:58Z</time>
      </trkpt>
      <trkpt lat="43.103330" lon="-7.122213">
        <ele>901.280</ele>
        <time>1999-07-25T12:12:59Z</time>
      </trkpt>
      <trkpt lat="43.103361" lon="-7.122197">
        <ele>901.220</ele>
        <time>1999-07-25T12:13:00Z</time>
      </trkpt>
      <trkpt lat="43.103427" lon="-7.122170">
        <ele>901.227</ele>
        <time>1999-07-25T12:13:02Z</time>
      </trkpt>
      <trkpt lat="43.103463" lon="-7.122162">
        <ele>901.274</ele>
        <time>1999-07-25T12:13:03Z</time>
      </trkpt>
      <trkpt lat="43.103502" lon="-7.122156">
        <ele>901.272</ele>
        <time>1999-07-25T12:13:04Z</time>
      </trkpt>
      <trkpt lat="43.103569" lon="-7.122144">
        <ele>901.678</ele>
        <time>1999-07-25T12:13:06Z</time>
      </trkpt>
      <trkpt lat="43.103624" lon="-7.122135">
        <ele>902.033</ele>
        <time>1999-07-25T12:13:08Z</time>
      </trkpt>
      <trkpt lat="43.103649" lon="-7.122141">
        <ele>902.226</ele>
        <time>1999-07-25T12:13:09Z</time>
      </trkpt>
      <trkpt lat="43.103696" lon="-7.122158">
        <ele>902.808</ele>
        <time>1999-07-25T12:13:11Z</time>
      </trkpt>
      <trkpt lat="43.103749" lon="-7.122178">
        <ele>903.670</ele>
        <time>1999-07-25T12:13:13Z</time>
      </trkpt>
      <trkpt lat="43.103774" lon="-7.122199">
        <ele>904.876</ele>
        <time>1999-07-25T12:13:14Z</time>
      </trkpt>
      <trkpt lat="43.103788" lon="-7.122218">
        <ele>905.467</ele>
        <time>1999-07-25T12:13:15Z</time>
      </trkpt>
      <trkpt lat="43.103795" lon="-7.122240">
        <ele>905.842</ele>
        <time>1999-07-25T12:13:16Z</time>
      </trkpt>
      <trkpt lat="43.103797" lon="-7.122257">
        <ele>906.422</ele>
        <time>1999-07-25T12:13:17Z</time>
      </trkpt>
      <trkpt lat="43.103778" lon="-7.122296">
        <ele>907.479</ele>
        <time>1999-07-25T12:13:19Z</time>
      </trkpt>
      <trkpt lat="43.103761" lon="-7.122326">
        <ele>907.866</ele>
        <time>1999-07-25T12:13:20Z</time>
      </trkpt>
      <trkpt lat="43.103714" lon="-7.122377">
        <ele>909.094</ele>
        <time>1999-07-25T12:13:22Z</time>
      </trkpt>
      <trkpt lat="43.103658" lon="-7.122423">
        <ele>909.639</ele>
        <time>1999-07-25T12:13:24Z</time>
      </trkpt>
      <trkpt lat="43.103545" lon="-7.122556">
        <ele>909.801</ele>
        <time>1999-07-25T12:13:29Z</time>
      </trkpt>
      <trkpt lat="43.103435" lon="-7.122705">
        <ele>909.621</ele>
        <time>1999-07-25T12:13:34Z</time>
      </trkpt>
      <trkpt lat="43.103343" lon="-7.122874">
        <ele>909.408</ele>
        <time>1999-07-25T12:13:38Z</time>
      </trkpt>
      <trkpt lat="43.103314" lon="-7.122928">
        <ele>909.476</ele>
        <time>1999-07-25T12:13:39Z</time>
      </trkpt>
      <trkpt lat="43.103249" lon="-7.123033">
        <ele>909.442</ele>
        <time>1999-07-25T12:13:41Z</time>
      </trkpt>
      <trkpt lat="43.103175" lon="-7.123175">
        <ele>909.483</ele>
        <time>1999-07-25T12:13:43Z</time>
      </trkpt>
      <trkpt lat="43.103143" lon="-7.123252">
        <ele>909.488</ele>
        <time>1999-07-25T12:13:44Z</time>
      </trkpt>
      <trkpt lat="43.103084" lon="-7.123404">
        <ele>909.018</ele>
        <time>1999-07-25T12:13:46Z</time>
      </trkpt>
      <trkpt lat="43.103026" lon="-7.123553">
        <ele>908.875</ele>
        <time>1999-07-25T12:13:48Z</time>
      </trkpt>
      <trkpt lat="43.102978" lon="-7.123674">
        <ele>908.482</ele>
        <time>1999-07-25T12:13:50Z</time>
      </trkpt>
      <trkpt lat="43.102914" lon="-7.123792">
        <ele>907.640</ele>
        <time>1999-07-25T12:13:52Z</time>
      </trkpt>
      <trkpt lat="43.102863" lon="-7.123903">
        <ele>907.274</ele>
        <time>1999-07-25T12:13:54Z</time>
      </trkpt>
      <trkpt lat="43.102835" lon="-7.123955">
        <ele>907.056</ele>
        <time>1999-07-25T12:13:55Z</time>
      </trkpt>
      <trkpt lat="43.102764" lon="-7.124141">
        <ele>906.821</ele>
        <time>1999-07-25T12:14:00Z</time>
      </trkpt>
      <trkpt lat="43.102737" lon="-7.124204">
        <ele>906.808</ele>
        <time>1999-07-25T12:14:03Z</time>
      </trkpt>
      <trkpt lat="43.102718" lon="-7.124259">
        <ele>906.830</ele>
        <time>1999-07-25T12:14:05Z</time>
      </trkpt>
      <trkpt lat="43.102703" lon="-7.124303">
        <ele>907.066</ele>
        <time>1999-07-25T12:14:07Z</time>
      </trkpt>
      <trkpt lat="43.102686" lon="-7.124373">
        <ele>907.427</ele>
        <time>1999-07-25T12:14:10Z</time>
      </trkpt>
      <trkpt lat="43.102678" lon="-7.124433">
        <ele>907.852</ele>
        <time>1999-07-25T12:14:12Z</time>
      </trkpt>
      <trkpt lat="43.102663" lon="-7.124490">
        <ele>908.262</ele>
        <time>1999-07-25T12:14:14Z</time>
      </trkpt>
      <trkpt lat="43.102642" lon="-7.124544">
        <ele>908.659</ele>
        <time>1999-07-25T12:14:16Z</time>
      </trkpt>
      <trkpt lat="43.102606" lon="-7.124615">
        <ele>909.476</ele>
        <time>1999-07-25T12:14:19Z</time>
      </trkpt>
      <trkpt lat="43.102595" lon="-7.124638">
        <ele>909.694</ele>
        <time>1999-07-25T12:14:20Z</time>
      </trkpt>
      <trkpt lat="43.102540" lon="-7.124756">
        <ele>910.844</ele>
        <time>1999-07-25T12:14:25Z</time>
      </trkpt>
      <trkpt lat="43.102532" lon="-7.124775">
        <ele>911.405</ele>
        <time>1999-07-25T12:14:26Z</time>
      </trkpt>
      <trkpt lat="43.102521" lon="-7.124818">
        <ele>912.015</ele>
        <time>1999-07-25T12:14:28Z</time>
      </trkpt>
      <trkpt lat="43.102498" lon="-7.124903">
        <ele>912.808</ele>
        <time>1999-07-25T12:14:32Z</time>
      </trkpt>
      <trkpt lat="43.102491" lon="-7.124925">
        <ele>913.287</ele>
        <time>1999-07-25T12:14:33Z</time>
      </trkpt>
      <trkpt lat="43.102467" lon="-7.125008">
        <ele>914.263</ele>
        <time>1999-07-25T12:14:37Z</time>
      </trkpt>
      <trkpt lat="43.102451" lon="-7.125067">
        <ele>915.454</ele>
        <time>1999-07-25T12:14:40Z</time>
      </trkpt>
      <trkpt lat="43.102430" lon="-7.125147">
        <ele>916.619</ele>
        <time>1999-07-25T12:14:44Z</time>
      </trkpt>
      <trkpt lat="43.102423" lon="-7.125164">
        <ele>916.879</ele>
        <time>1999-07-25T12:14:45Z</time>
      </trkpt>
      <trkpt lat="43.102410" lon="-7.125208">
        <ele>917.496</ele>
        <time>1999-07-25T12:14:47Z</time>
      </trkpt>
      <trkpt lat="43.102401" lon="-7.125230">
        <ele>917.653</ele>
        <time>1999-07-25T12:14:48Z</time>
      </trkpt>
      <trkpt lat="43.102365" lon="-7.125282">
        <ele>918.271</ele>
        <time>1999-07-25T12:14:50Z</time>
      </trkpt>
      <trkpt lat="43.102334" lon="-7.125323">
        <ele>918.895</ele>
        <time>1999-07-25T12:14:52Z</time>
      </trkpt>
      <trkpt lat="43.102301" lon="-7.125363">
        <ele>919.449</ele>
        <time>1999-07-25T12:14:54Z</time>
      </trkpt>
      <trkpt lat="43.102267" lon="-7.125398">
        <ele>920.023</ele>
        <time>1999-07-25T12:14:56Z</time>
      </trkpt>
      <trkpt lat="43.102198" lon="-7.125499">
        <ele>921.008</ele>
        <time>1999-07-25T12:15:01Z</time>
      </trkpt>
      <trkpt lat="43.102124" lon="-7.125639">
        <ele>921.822</ele>
        <time>1999-07-25T12:15:08Z</time>
      </trkpt>
      <trkpt lat="43.102105" lon="-7.125675">
        <ele>922.048</ele>
        <time>1999-07-25T12:15:10Z</time>
      </trkpt>
      <trkpt lat="43.102062" lon="-7.125740">
        <ele>923.019</ele>
        <time>1999-07-25T12:15:14Z</time>
      </trkpt>
      <trkpt lat="43.102048" lon="-7.125754">
        <ele>923.294</ele>
        <time>1999-07-25T12:15:15Z</time>
      </trkpt>
      <trkpt lat="43.102008" lon="-7.125797">
        <ele>924.424</ele>
        <time>1999-07-25T12:15:18Z</time>
      </trkpt>
      <trkpt lat="43.101960" lon="-7.125846">
        <ele>925.241</ele>
        <time>1999-07-25T12:15:21Z</time>
      </trkpt>
      <trkpt lat="43.101945" lon="-7.125864">
        <ele>925.698</ele>
        <time>1999-07-25T12:15:22Z</time>
      </trkpt>
      <trkpt lat="43.101874" lon="-7.125927">
        <ele>926.666</ele>
        <time>1999-07-25T12:15:26Z</time>
      </trkpt>
      <trkpt lat="43.101827" lon="-7.125953">
        <ele>927.021</ele>
        <time>1999-07-25T12:15:28Z</time>
      </trkpt>
      <trkpt lat="43.101721" lon="-7.125994">
        <ele>927.441</ele>
        <time>1999-07-25T12:15:31Z</time>
      </trkpt>
      <trkpt lat="43.101667" lon="-7.126005">
        <ele>927.405</ele>
        <time>1999-07-25T12:15:32Z</time>
      </trkpt>
      <trkpt lat="43.101602" lon="-7.126013">
        <ele>927.408</ele>
        <time>1999-07-25T12:15:33Z</time>
      </trkpt>
      <trkpt lat="43.101410" lon="-7.126008">
        <ele>927.475</ele>
        <time>1999-07-25T12:15:36Z</time>
      </trkpt>
      <trkpt lat="43.101299" lon="-7.125918">
        <ele>927.481</ele>
        <time>1999-07-25T12:15:38Z</time>
      </trkpt>
      <trkpt lat="43.101245" lon="-7.125851">
        <ele>927.482</ele>
        <time>1999-07-25T12:15:39Z</time>
      </trkpt>
      <trkpt lat="43.101182" lon="-7.125785">
        <ele>927.297</ele>
        <time>1999-07-25T12:15:40Z</time>
      </trkpt>
      <trkpt lat="43.101050" lon="-7.125716">
        <ele>926.677</ele>
        <time>1999-07-25T12:15:42Z</time>
      </trkpt>
      <trkpt lat="43.100979" lon="-7.125712">
        <ele>925.664</ele>
        <time>1999-07-25T12:15:43Z</time>
      </trkpt>
      <trkpt lat="43.100911" lon="-7.125705">
        <ele>924.221</ele>
        <time>1999-07-25T12:15:44Z</time>
      </trkpt>
      <trkpt lat="43.100848" lon="-7.125683">
        <ele>923.099</ele>
        <time>1999-07-25T12:15:45Z</time>
      </trkpt>
      <trkpt lat="43.100782" lon="-7.125660">
        <ele>921.817</ele>
        <time>1999-07-25T12:15:46Z</time>
      </trkpt>
      <trkpt lat="43.100648" lon="-7.125700">
        <ele>920.287</ele>
        <time>1999-07-25T12:15:48Z</time>
      </trkpt>
      <trkpt lat="43.100581" lon="-7.125739">
        <ele>919.615</ele>
        <time>1999-07-25T12:15:49Z</time>
      </trkpt>
      <trkpt lat="43.100514" lon="-7.125786">
        <ele>919.008</ele>
        <time>1999-07-25T12:15:50Z</time>
      </trkpt>
      <trkpt lat="43.100453" lon="-7.125847">
        <ele>918.434</ele>
        <time>1999-07-25T12:15:51Z</time>
      </trkpt>
      <trkpt lat="43.100401" lon="-7.125926">
        <ele>917.670</ele>
        <time>1999-07-25T12:15:52Z</time>
      </trkpt>
      <trkpt lat="43.100361" lon="-7.126015">
        <ele>917.041</ele>
        <time>1999-07-25T12:15:53Z</time>
      </trkpt>
      <trkpt lat="43.100351" lon="-7.126096">
        <ele>916.236</ele>
        <time>1999-07-25T12:15:54Z</time>
      </trkpt>
      <trkpt lat="43.100361" lon="-7.126167">
        <ele>915.246</ele>
        <time>1999-07-25T12:15:55Z</time>
      </trkpt>
      <trkpt lat="43.100375" lon="-7.126232">
        <ele>914.413</ele>
        <time>1999-07-25T12:15:56Z</time>
      </trkpt>
      <trkpt lat="43.100406" lon="-7.126349">
        <ele>912.690</ele>
        <time>1999-07-25T12:15:58Z</time>
      </trkpt>
      <trkpt lat="43.100449" lon="-7.126459">
        <ele>911.898</ele>
        <time>1999-07-25T12:16:00Z</time>
      </trkpt>
      <trkpt lat="43.100475" lon="-7.126513">
        <ele>911.645</ele>
        <time>1999-07-25T12:16:01Z</time>
      </trkpt>
      <trkpt lat="43.100629" lon="-7.126759">
        <ele>910.847</ele>
        <time>1999-07-25T12:16:06Z</time>
      </trkpt>
      <trkpt lat="43.100745" lon="-7.126899">
        <ele>910.811</ele>
        <time>1999-07-25T12:16:09Z</time>
      </trkpt>
      <trkpt lat="43.100863" lon="-7.127031">
        <ele>910.808</ele>
        <time>1999-07-25T12:16:12Z</time>
      </trkpt>
      <trkpt lat="43.101119" lon="-7.127241">
        <ele>911.087</ele>
        <time>1999-07-25T12:16:18Z</time>
      </trkpt>
      <trkpt lat="43.101233" lon="-7.127373">
        <ele>911.053</ele>
        <time>1999-07-25T12:16:21Z</time>
      </trkpt>
      <trkpt lat="43.101296" lon="-7.127480">
        <ele>911.244</ele>
        <time>1999-07-25T12:16:23Z</time>
      </trkpt>
      <trkpt lat="43.101334" lon="-7.127532">
        <ele>911.299</ele>
        <time>1999-07-25T12:16:24Z</time>
      </trkpt>
      <trkpt lat="43.101472" lon="-7.127667">
        <ele>911.479</ele>
        <time>1999-07-25T12:16:27Z</time>
      </trkpt>
      <trkpt lat="43.101524" lon="-7.127708">
        <ele>911.456</ele>
        <time>1999-07-25T12:16:28Z</time>
      </trkpt>
      <trkpt lat="43.101753" lon="-7.127927">
        <ele>911.473</ele>
        <time>1999-07-25T12:16:33Z</time>
      </trkpt>
      <trkpt lat="43.101883" lon="-7.128100">
        <ele>911.211</ele>
        <time>1999-07-25T12:16:36Z</time>
      </trkpt>
      <trkpt lat="43.101939" lon="-7.128245">
        <ele>911.035</ele>
        <time>1999-07-25T12:16:38Z</time>
      </trkpt>
      <trkpt lat="43.101977" lon="-7.128369">
        <ele>910.886</ele>
        <time>1999-07-25T12:16:40Z</time>
      </trkpt>
      <trkpt lat="43.102019" lon="-7.128528">
        <ele>910.614</ele>
        <time>1999-07-25T12:16:43Z</time>
      </trkpt>
      <trkpt lat="43.102036" lon="-7.128577">
        <ele>910.408</ele>
        <time>1999-07-25T12:16:44Z</time>
      </trkpt>
      <trkpt lat="43.102096" lon="-7.128825">
        <ele>910.436</ele>
        <time>1999-07-25T12:16:49Z</time>
      </trkpt>
      <trkpt lat="43.102147" lon="-7.129052">
        <ele>910.642</ele>
        <time>1999-07-25T12:16:55Z</time>
      </trkpt>
      <trkpt lat="43.102159" lon="-7.129210">
        <ele>911.423</ele>
        <time>1999-07-25T12:17:00Z</time>
      </trkpt>
      <trkpt lat="43.102166" lon="-7.129241">
        <ele>911.678</ele>
        <time>1999-07-25T12:17:01Z</time>
      </trkpt>
      <trkpt lat="43.102171" lon="-7.129307">
        <ele>912.498</ele>
        <time>1999-07-25T12:17:03Z</time>
      </trkpt>
      <trkpt lat="43.102138" lon="-7.129452">
        <ele>913.475</ele>
        <time>1999-07-25T12:17:07Z</time>
      </trkpt>
      <trkpt lat="43.102134" lon="-7.129496">
        <ele>913.692</ele>
        <time>1999-07-25T12:17:09Z</time>
      </trkpt>
      <trkpt lat="43.102152" lon="-7.129561">
        <ele>914.230</ele>
        <time>1999-07-25T12:17:12Z</time>
      </trkpt>
      <trkpt lat="43.102166" lon="-7.129603">
        <ele>914.495</ele>
        <time>1999-07-25T12:17:14Z</time>
      </trkpt>
      <trkpt lat="43.102167" lon="-7.129646">
        <ele>914.849</ele>
        <time>1999-07-25T12:17:16Z</time>
      </trkpt>
      <trkpt lat="43.102160" lon="-7.129675">
        <ele>915.223</ele>
        <time>1999-07-25T12:17:18Z</time>
      </trkpt>
      <trkpt lat="43.102153" lon="-7.129681">
        <ele>915.608</ele>
        <time>1999-07-25T12:17:19Z</time>
      </trkpt>
      <trkpt lat="43.102140" lon="-7.129685">
        <ele>915.822</ele>
        <time>1999-07-25T12:17:20Z</time>
      </trkpt>
      <trkpt lat="43.102101" lon="-7.129667">
        <ele>916.448</ele>
        <time>1999-07-25T12:17:23Z</time>
      </trkpt>
      <trkpt lat="43.102094" lon="-7.129660">
        <ele>916.689</ele>
        <time>1999-07-25T12:17:24Z</time>
      </trkpt>
      <trkpt lat="43.102082" lon="-7.129646">
        <ele>918.084</ele>
        <time>1999-07-25T12:17:27Z</time>
      </trkpt>
      <trkpt lat="43.102068" lon="-7.129630">
        <ele>918.654</ele>
        <time>1999-07-25T12:17:29Z</time>
      </trkpt>
      <trkpt lat="43.102038" lon="-7.129621">
        <ele>919.061</ele>
        <time>1999-07-25T12:17:31Z</time>
      </trkpt>
      <trkpt lat="43.102017" lon="-7.129610">
        <ele>919.428</ele>
        <time>1999-07-25T12:17:32Z</time>
      </trkpt>
      <trkpt lat="43.102001" lon="-7.129597">
        <ele>919.456</ele>
        <time>1999-07-25T12:17:33Z</time>
      </trkpt>
      <trkpt lat="43.101956" lon="-7.129560">
        <ele>920.255</ele>
        <time>1999-07-25T12:17:36Z</time>
      </trkpt>
      <trkpt lat="43.101893" lon="-7.129526">
        <ele>921.407</ele>
        <time>1999-07-25T12:17:40Z</time>
      </trkpt>
      <trkpt lat="43.101874" lon="-7.129506">
        <ele>921.617</ele>
        <time>1999-07-25T12:17:41Z</time>
      </trkpt>
      <trkpt lat="43.101823" lon="-7.129453">
        <ele>922.608</ele>
        <time>1999-07-25T12:17:44Z</time>
      </trkpt>
      <trkpt lat="43.101757" lon="-7.129378">
        <ele>923.288</ele>
        <time>1999-07-25T12:17:48Z</time>
      </trkpt>
      <trkpt lat="43.101745" lon="-7.129361">
        <ele>923.444</ele>
        <time>1999-07-25T12:17:49Z</time>
      </trkpt>
      <trkpt lat="43.101660" lon="-7.129298">
        <ele>923.865</ele>
        <time>1999-07-25T12:17:54Z</time>
      </trkpt>
      <trkpt lat="43.101593" lon="-7.129269">
        <ele>924.420</ele>
        <time>1999-07-25T12:17:57Z</time>
      </trkpt>
      <trkpt lat="43.101541" lon="-7.129268">
        <ele>924.680</ele>
        <time>1999-07-25T12:17:59Z</time>
      </trkpt>
      <trkpt lat="43.101406" lon="-7.129302">
        <ele>925.077</ele>
        <time>1999-07-25T12:18:04Z</time>
      </trkpt>
      <trkpt lat="43.101335" lon="-7.129321">
        <ele>925.274</ele>
        <time>1999-07-25T12:18:07Z</time>
      </trkpt>
      <trkpt lat="43.101278" lon="-7.129348">
        <ele>925.452</ele>
        <time>1999-07-25T12:18:09Z</time>
      </trkpt>
      <trkpt lat="43.101242" lon="-7.129365">
        <ele>925.663</ele>
        <time>1999-07-25T12:18:10Z</time>
      </trkpt>
      <trkpt lat="43.101181" lon="-7.129389">
        <ele>925.844</ele>
        <time>1999-07-25T12:18:12Z</time>
      </trkpt>
      <trkpt lat="43.101099" lon="-7.129426">
        <ele>926.218</ele>
        <time>1999-07-25T12:18:15Z</time>
      </trkpt>
      <trkpt lat="43.101025" lon="-7.129442">
        <ele>926.408</ele>
        <time>1999-07-25T12:18:18Z</time>
      </trkpt>
      <trkpt lat="43.100953" lon="-7.129469">
        <ele>926.639</ele>
        <time>1999-07-25T12:18:21Z</time>
      </trkpt>
      <trkpt lat="43.100805" lon="-7.129520">
        <ele>926.615</ele>
        <time>1999-07-25T12:18:26Z</time>
      </trkpt>
      <trkpt lat="43.100647" lon="-7.129636">
        <ele>926.826</ele>
        <time>1999-07-25T12:18:31Z</time>
      </trkpt>
      <trkpt lat="43.100496" lon="-7.129754">
        <ele>927.281</ele>
        <time>1999-07-25T12:18:36Z</time>
      </trkpt>
      <trkpt lat="43.100422" lon="-7.129816">
        <ele>927.671</ele>
        <time>1999-07-25T12:18:39Z</time>
      </trkpt>
      <trkpt lat="43.100342" lon="-7.129888">
        <ele>928.228</ele>
        <time>1999-07-25T12:18:43Z</time>
      </trkpt>
      <trkpt lat="43.100297" lon="-7.129928">
        <ele>928.865</ele>
        <time>1999-07-25T12:18:46Z</time>
      </trkpt>
      <trkpt lat="43.100226" lon="-7.129985">
        <ele>929.023</ele>
        <time>1999-07-25T12:18:48Z</time>
      </trkpt>
      <trkpt lat="43.100011" lon="-7.130155">
        <ele>929.829</ele>
        <time>1999-07-25T12:18:54Z</time>
      </trkpt>
      <trkpt lat="43.099850" lon="-7.130280">
        <ele>930.800</ele>
        <time>1999-07-25T12:18:59Z</time>
      </trkpt>
      <trkpt lat="43.099823" lon="-7.130294">
        <ele>930.820</ele>
        <time>1999-07-25T12:19:00Z</time>
      </trkpt>
      <trkpt lat="43.099674" lon="-7.130410">
        <ele>931.608</ele>
        <time>1999-07-25T12:19:05Z</time>
      </trkpt>
      <trkpt lat="43.099571" lon="-7.130498">
        <ele>932.015</ele>
        <time>1999-07-25T12:19:08Z</time>
      </trkpt>
      <trkpt lat="43.099450" lon="-7.130622">
        <ele>932.421</ele>
        <time>1999-07-25T12:19:12Z</time>
      </trkpt>
      <trkpt lat="43.099251" lon="-7.130814">
        <ele>932.842</ele>
        <time>1999-07-25T12:19:19Z</time>
      </trkpt>
      <trkpt lat="43.099199" lon="-7.130877">
        <ele>933.247</ele>
        <time>1999-07-25T12:19:21Z</time>
      </trkpt>
      <trkpt lat="43.099098" lon="-7.131008">
        <ele>933.867</ele>
        <time>1999-07-25T12:19:25Z</time>
      </trkpt>
      <trkpt lat="43.099058" lon="-7.131067">
        <ele>934.444</ele>
        <time>1999-07-25T12:19:27Z</time>
      </trkpt>
      <trkpt lat="43.098954" lon="-7.131180">
        <ele>934.681</ele>
        <time>1999-07-25T12:19:32Z</time>
      </trkpt>
      <trkpt lat="43.098882" lon="-7.131294">
        <ele>935.429</ele>
        <time>1999-07-25T12:19:37Z</time>
      </trkpt>
      <trkpt lat="43.098828" lon="-7.131431">
        <ele>936.684</ele>
        <time>1999-07-25T12:19:43Z</time>
      </trkpt>
      <trkpt lat="43.098802" lon="-7.131557">
        <ele>937.407</ele>
        <time>1999-07-25T12:19:48Z</time>
      </trkpt>
      <trkpt lat="43.098786" lon="-7.131607">
        <ele>937.617</ele>
        <time>1999-07-25T12:19:50Z</time>
      </trkpt>
      <trkpt lat="43.098752" lon="-7.131728">
        <ele>938.008</ele>
        <time>1999-07-25T12:19:55Z</time>
      </trkpt>
      <trkpt lat="43.098687" lon="-7.131880">
        <ele>938.491</ele>
        <time>1999-07-25T12:20:01Z</time>
      </trkpt>
      <trkpt lat="43.098660" lon="-7.131912">
        <ele>938.677</ele>
        <time>1999-07-25T12:20:02Z</time>
      </trkpt>
      <trkpt lat="43.098641" lon="-7.131941">
        <ele>938.638</ele>
        <time>1999-07-25T12:20:03Z</time>
      </trkpt>
      <trkpt lat="43.098628" lon="-7.131995">
        <ele>938.873</ele>
        <time>1999-07-25T12:20:05Z</time>
      </trkpt>
      <trkpt lat="43.098597" lon="-7.132091">
        <ele>939.853</ele>
        <time>1999-07-25T12:20:09Z</time>
      </trkpt>
      <trkpt lat="43.098560" lon="-7.132148">
        <ele>940.090</ele>
        <time>1999-07-25T12:20:11Z</time>
      </trkpt>
      <trkpt lat="43.098484" lon="-7.132268">
        <ele>940.827</ele>
        <time>1999-07-25T12:20:16Z</time>
      </trkpt>
      <trkpt lat="43.098464" lon="-7.132293">
        <ele>941.065</ele>
        <time>1999-07-25T12:20:17Z</time>
      </trkpt>
      <trkpt lat="43.098401" lon="-7.132411">
        <ele>941.827</ele>
        <time>1999-07-25T12:20:21Z</time>
      </trkpt>
      <trkpt lat="43.098389" lon="-7.132440">
        <ele>942.068</ele>
        <time>1999-07-25T12:20:22Z</time>
      </trkpt>
      <trkpt lat="43.098325" lon="-7.132601">
        <ele>943.014</ele>
        <time>1999-07-25T12:20:28Z</time>
      </trkpt>
      <trkpt lat="43.098313" lon="-7.132627">
        <ele>943.208</ele>
        <time>1999-07-25T12:20:29Z</time>
      </trkpt>
      <trkpt lat="43.098252" lon="-7.132784">
        <ele>944.085</ele>
        <time>1999-07-25T12:20:35Z</time>
      </trkpt>
      <trkpt lat="43.098238" lon="-7.132810">
        <ele>944.251</ele>
        <time>1999-07-25T12:20:36Z</time>
      </trkpt>
      <trkpt lat="43.098189" lon="-7.132923">
        <ele>945.432</ele>
        <time>1999-07-25T12:20:40Z</time>
      </trkpt>
      <trkpt lat="43.098163" lon="-7.132976">
        <ele>946.297</ele>
        <time>1999-07-25T12:20:42Z</time>
      </trkpt>
      <trkpt lat="43.098131" lon="-7.133018">
        <ele>946.657</ele>
        <time>1999-07-25T12:20:44Z</time>
      </trkpt>
      <trkpt lat="43.098073" lon="-7.133111">
        <ele>947.484</ele>
        <time>1999-07-25T12:20:48Z</time>
      </trkpt>
      <trkpt lat="43.098030" lon="-7.133191">
        <ele>947.811</ele>
        <time>1999-07-25T12:20:51Z</time>
      </trkpt>
      <trkpt lat="43.097951" lon="-7.133292">
        <ele>948.419</ele>
        <time>1999-07-25T12:20:55Z</time>
      </trkpt>
      <trkpt lat="43.097903" lon="-7.133347">
        <ele>948.814</ele>
        <time>1999-07-25T12:20:57Z</time>
      </trkpt>
      <trkpt lat="43.097856" lon="-7.133394">
        <ele>949.054</ele>
        <time>1999-07-25T12:20:59Z</time>
      </trkpt>
      <trkpt lat="43.097764" lon="-7.133473">
        <ele>949.009</ele>
        <time>1999-07-25T12:21:02Z</time>
      </trkpt>
      <trkpt lat="43.097656" lon="-7.133574">
        <ele>949.008</ele>
        <time>1999-07-25T12:21:05Z</time>
      </trkpt>
      <trkpt lat="43.097589" lon="-7.133678">
        <ele>949.084</ele>
        <time>1999-07-25T12:21:07Z</time>
      </trkpt>
      <trkpt lat="43.097557" lon="-7.133736">
        <ele>948.850</ele>
        <time>1999-07-25T12:21:08Z</time>
      </trkpt>
      <trkpt lat="43.097528" lon="-7.133792">
        <ele>948.641</ele>
        <time>1999-07-25T12:21:09Z</time>
      </trkpt>
      <trkpt lat="43.097505" lon="-7.133848">
        <ele>948.426</ele>
        <time>1999-07-25T12:21:10Z</time>
      </trkpt>
      <trkpt lat="43.097459" lon="-7.133966">
        <ele>947.656</ele>
        <time>1999-07-25T12:21:12Z</time>
      </trkpt>
      <trkpt lat="43.097437" lon="-7.134032">
        <ele>947.293</ele>
        <time>1999-07-25T12:21:13Z</time>
      </trkpt>
      <trkpt lat="43.097393" lon="-7.134173">
        <ele>946.430</ele>
        <time>1999-07-25T12:21:15Z</time>
      </trkpt>
      <trkpt lat="43.097341" lon="-7.134402">
        <ele>945.278</ele>
        <time>1999-07-25T12:21:18Z</time>
      </trkpt>
      <trkpt lat="43.097313" lon="-7.134552">
        <ele>944.499</ele>
        <time>1999-07-25T12:21:20Z</time>
      </trkpt>
      <trkpt lat="43.097289" lon="-7.134695">
        <ele>944.007</ele>
        <time>1999-07-25T12:21:22Z</time>
      </trkpt>
      <trkpt lat="43.097285" lon="-7.134763">
        <ele>944.027</ele>
        <time>1999-07-25T12:21:23Z</time>
      </trkpt>
      <trkpt lat="43.097285" lon="-7.134829">
        <ele>944.008</ele>
        <time>1999-07-25T12:21:24Z</time>
      </trkpt>
      <trkpt lat="43.097327" lon="-7.135015">
        <ele>943.422</ele>
        <time>1999-07-25T12:21:27Z</time>
      </trkpt>
      <trkpt lat="43.097350" lon="-7.135070">
        <ele>943.278</ele>
        <time>1999-07-25T12:21:28Z</time>
      </trkpt>
      <trkpt lat="43.097426" lon="-7.135201">
        <ele>943.249</ele>
        <time>1999-07-25T12:21:31Z</time>
      </trkpt>
      <trkpt lat="43.097482" lon="-7.135256">
        <ele>943.264</ele>
        <time>1999-07-25T12:21:33Z</time>
      </trkpt>
      <trkpt lat="43.097548" lon="-7.135312">
        <ele>943.294</ele>
        <time>1999-07-25T12:21:35Z</time>
      </trkpt>
      <trkpt lat="43.097688" lon="-7.135499">
        <ele>943.661</ele>
        <time>1999-07-25T12:21:40Z</time>
      </trkpt>
      <trkpt lat="43.097863" lon="-7.135872">
        <ele>943.828</ele>
        <time>1999-07-25T12:21:47Z</time>
      </trkpt>
      <trkpt lat="43.097923" lon="-7.136056">
        <ele>943.846</ele>
        <time>1999-07-25T12:21:51Z</time>
      </trkpt>
      <trkpt lat="43.097908" lon="-7.136088">
        <ele>943.818</ele>
        <time>1999-07-25T12:21:52Z</time>
      </trkpt>
      <trkpt lat="43.097847" lon="-7.136096">
        <ele>943.898</ele>
        <time>1999-07-25T12:21:54Z</time>
      </trkpt>
      <trkpt lat="43.097813" lon="-7.136094">
        <ele>943.817</ele>
        <time>1999-07-25T12:21:55Z</time>
      </trkpt>
      <trkpt lat="43.097693" lon="-7.136076">
        <ele>943.808</ele>
        <time>1999-07-25T12:21:58Z</time>
      </trkpt>
      <trkpt lat="43.097651" lon="-7.136069">
        <ele>943.814</ele>
        <time>1999-07-25T12:21:59Z</time>
      </trkpt>
      <trkpt lat="43.097611" lon="-7.136068">
        <ele>943.890</ele>
        <time>1999-07-25T12:22:00Z</time>
      </trkpt>
      <trkpt lat="43.097405" lon="-7.136072">
        <ele>944.471</ele>
        <time>1999-07-25T12:22:06Z</time>
      </trkpt>
      <trkpt lat="43.097309" lon="-7.136060">
        <ele>945.486</ele>
        <time>1999-07-25T12:22:09Z</time>
      </trkpt>
      <trkpt lat="43.097238" lon="-7.136058">
        <ele>945.866</ele>
        <time>1999-07-25T12:22:11Z</time>
      </trkpt>
      <trkpt lat="43.097113" lon="-7.136065">
        <ele>946.473</ele>
        <time>1999-07-25T12:22:15Z</time>
      </trkpt>
      <trkpt lat="43.097022" lon="-7.136096">
        <ele>947.460</ele>
        <time>1999-07-25T12:22:18Z</time>
      </trkpt>
      <trkpt lat="43.096994" lon="-7.136112">
        <ele>947.628</ele>
        <time>1999-07-25T12:22:19Z</time>
      </trkpt>
      <trkpt lat="43.096915" lon="-7.136161">
        <ele>948.237</ele>
        <time>1999-07-25T12:22:23Z</time>
      </trkpt>
      <trkpt lat="43.096863" lon="-7.136208">
        <ele>948.649</ele>
        <time>1999-07-25T12:22:26Z</time>
      </trkpt>
      <trkpt lat="43.096827" lon="-7.136268">
        <ele>949.413</ele>
        <time>1999-07-25T12:22:29Z</time>
      </trkpt>
      <trkpt lat="43.096820" lon="-7.136313">
        <ele>949.808</ele>
        <time>1999-07-25T12:22:31Z</time>
      </trkpt>
      <trkpt lat="43.096828" lon="-7.136386">
        <ele>950.466</ele>
        <time>1999-07-25T12:22:34Z</time>
      </trkpt>
      <trkpt lat="43.096820" lon="-7.136455">
        <ele>951.022</ele>
        <time>1999-07-25T12:22:37Z</time>
      </trkpt>
      <trkpt lat="43.096802" lon="-7.136534">
        <ele>952.043</ele>
        <time>1999-07-25T12:22:40Z</time>
      </trkpt>
      <trkpt lat="43.096793" lon="-7.136561">
        <ele>952.438</ele>
        <time>1999-07-25T12:22:41Z</time>
      </trkpt>
      <trkpt lat="43.096767" lon="-7.136721">
        <ele>953.688</ele>
        <time>1999-07-25T12:22:46Z</time>
      </trkpt>
      <trkpt lat="43.096755" lon="-7.136968">
        <ele>954.095</ele>
        <time>1999-07-25T12:22:51Z</time>
      </trkpt>
      <trkpt lat="43.096751" lon="-7.137160">
        <ele>954.262</ele>
        <time>1999-07-25T12:22:55Z</time>
      </trkpt>
      <trkpt lat="43.096767" lon="-7.137257">
        <ele>954.210</ele>
        <time>1999-07-25T12:22:57Z</time>
      </trkpt>
      <trkpt lat="43.096792" lon="-7.137432">
        <ele>954.217</ele>
        <time>1999-07-25T12:23:01Z</time>
      </trkpt>
      <trkpt lat="43.096798" lon="-7.137515">
        <ele>954.287</ele>
        <time>1999-07-25T12:23:03Z</time>
      </trkpt>
      <trkpt lat="43.096795" lon="-7.137702">
        <ele>954.215</ele>
        <time>1999-07-25T12:23:07Z</time>
      </trkpt>
      <trkpt lat="43.096773" lon="-7.137802">
        <ele>954.408</ele>
        <time>1999-07-25T12:23:09Z</time>
      </trkpt>
      <trkpt lat="43.096766" lon="-7.137853">
        <ele>954.854</ele>
        <time>1999-07-25T12:23:10Z</time>
      </trkpt>
      <trkpt lat="43.096698" lon="-7.138194">
        <ele>955.010</ele>
        <time>1999-07-25T12:23:16Z</time>
      </trkpt>
      <trkpt lat="43.096671" lon="-7.138451">
        <ele>955.211</ele>
        <time>1999-07-25T12:23:20Z</time>
      </trkpt>
      <trkpt lat="43.096669" lon="-7.138519">
        <ele>955.216</ele>
        <time>1999-07-25T12:23:21Z</time>
      </trkpt>
      <trkpt lat="43.096661" lon="-7.138587">
        <ele>955.266</ele>
        <time>1999-07-25T12:23:22Z</time>
      </trkpt>
      <trkpt lat="43.096619" lon="-7.138840">
        <ele>955.213</ele>
        <time>1999-07-25T12:23:26Z</time>
      </trkpt>
      <trkpt lat="43.096586" lon="-7.139006">
        <ele>955.270</ele>
        <time>1999-07-25T12:23:29Z</time>
      </trkpt>
      <trkpt lat="43.096551" lon="-7.139165">
        <ele>955.088</ele>
        <time>1999-07-25T12:23:32Z</time>
      </trkpt>
      <trkpt lat="43.096520" lon="-7.139322">
        <ele>955.056</ele>
        <time>1999-07-25T12:23:35Z</time>
      </trkpt>
      <trkpt lat="43.096474" lon="-7.139580">
        <ele>955.059</ele>
        <time>1999-07-25T12:23:40Z</time>
      </trkpt>
      <trkpt lat="43.096457" lon="-7.139727">
        <ele>955.014</ele>
        <time>1999-07-25T12:23:43Z</time>
      </trkpt>
      <trkpt lat="43.096431" lon="-7.139864">
        <ele>955.208</ele>
        <time>1999-07-25T12:23:46Z</time>
      </trkpt>
      <trkpt lat="43.096415" lon="-7.139938">
        <ele>955.898</ele>
        <time>1999-07-25T12:23:48Z</time>
      </trkpt>
      <trkpt lat="43.096392" lon="-7.140033">
        <ele>956.234</ele>
        <time>1999-07-25T12:23:51Z</time>
      </trkpt>
      <trkpt lat="43.096385" lon="-7.140071">
        <ele>956.435</ele>
        <time>1999-07-25T12:23:52Z</time>
      </trkpt>
      <trkpt lat="43.096324" lon="-7.140334">
        <ele>956.660</ele>
        <time>1999-07-25T12:23:58Z</time>
      </trkpt>
      <trkpt lat="43.096301" lon="-7.140427">
        <ele>956.810</ele>
        <time>1999-07-25T12:24:00Z</time>
      </trkpt>
      <trkpt lat="43.096278" lon="-7.140509">
        <ele>957.077</ele>
        <time>1999-07-25T12:24:02Z</time>
      </trkpt>
      <trkpt lat="43.096265" lon="-7.140543">
        <ele>957.084</ele>
        <time>1999-07-25T12:24:03Z</time>
      </trkpt>
      <trkpt lat="43.096225" lon="-7.140664">
        <ele>957.252</ele>
        <time>1999-07-25T12:24:07Z</time>
      </trkpt>
      <trkpt lat="43.096212" lon="-7.140722">
        <ele>957.411</ele>
        <time>1999-07-25T12:24:09Z</time>
      </trkpt>
      <trkpt lat="43.096187" lon="-7.140813">
        <ele>958.021</ele>
        <time>1999-07-25T12:24:13Z</time>
      </trkpt>
      <trkpt lat="43.096176" lon="-7.140835">
        <ele>958.203</ele>
        <time>1999-07-25T12:24:14Z</time>
      </trkpt>
      <trkpt lat="43.096154" lon="-7.140913">
        <ele>959.008</ele>
        <time>1999-07-25T12:24:17Z</time>
      </trkpt>
      <trkpt lat="43.096121" lon="-7.141021">
        <ele>960.044</ele>
        <time>1999-07-25T12:24:21Z</time>
      </trkpt>
      <trkpt lat="43.096118" lon="-7.141053">
        <ele>960.220</ele>
        <time>1999-07-25T12:24:22Z</time>
      </trkpt>
      <trkpt lat="43.096082" lon="-7.141205">
        <ele>961.031</ele>
        <time>1999-07-25T12:24:27Z</time>
      </trkpt>
      <trkpt lat="43.096064" lon="-7.141258">
        <ele>961.226</ele>
        <time>1999-07-25T12:24:29Z</time>
      </trkpt>
      <trkpt lat="43.095991" lon="-7.141356">
        <ele>961.836</ele>
        <time>1999-07-25T12:24:34Z</time>
      </trkpt>
      <trkpt lat="43.095938" lon="-7.141454">
        <ele>962.423</ele>
        <time>1999-07-25T12:24:38Z</time>
      </trkpt>
      <trkpt lat="43.095919" lon="-7.141508">
        <ele>963.020</ele>
        <time>1999-07-25T12:24:40Z</time>
      </trkpt>
      <trkpt lat="43.095896" lon="-7.141583">
        <ele>963.688</ele>
        <time>1999-07-25T12:24:43Z</time>
      </trkpt>
      <trkpt lat="43.095878" lon="-7.141639">
        <ele>964.425</ele>
        <time>1999-07-25T12:24:45Z</time>
      </trkpt>
      <trkpt lat="43.095870" lon="-7.141663">
        <ele>964.826</ele>
        <time>1999-07-25T12:24:46Z</time>
      </trkpt>
      <trkpt lat="43.095799" lon="-7.141790">
        <ele>965.808</ele>
        <time>1999-07-25T12:24:52Z</time>
      </trkpt>
      <trkpt lat="43.095789" lon="-7.141811">
        <ele>966.008</ele>
        <time>1999-07-25T12:24:53Z</time>
      </trkpt>
      <trkpt lat="43.095768" lon="-7.141953">
        <ele>967.045</ele>
        <time>1999-07-25T12:24:58Z</time>
      </trkpt>
      <trkpt lat="43.095764" lon="-7.142073">
        <ele>968.011</ele>
        <time>1999-07-25T12:25:02Z</time>
      </trkpt>
      <trkpt lat="43.095758" lon="-7.142135">
        <ele>968.412</ele>
        <time>1999-07-25T12:25:04Z</time>
      </trkpt>
      <trkpt lat="43.095733" lon="-7.142290">
        <ele>968.657</ele>
        <time>1999-07-25T12:25:09Z</time>
      </trkpt>
      <trkpt lat="43.095675" lon="-7.142453">
        <ele>968.837</ele>
        <time>1999-07-25T12:25:15Z</time>
      </trkpt>
      <trkpt lat="43.095659" lon="-7.142494">
        <ele>969.024</ele>
        <time>1999-07-25T12:25:17Z</time>
      </trkpt>
      <trkpt lat="43.095638" lon="-7.142525">
        <ele>969.481</ele>
        <time>1999-07-25T12:25:19Z</time>
      </trkpt>
      <trkpt lat="43.095592" lon="-7.142582">
        <ele>970.079</ele>
        <time>1999-07-25T12:25:23Z</time>
      </trkpt>
      <trkpt lat="43.095577" lon="-7.142612">
        <ele>970.689</ele>
        <time>1999-07-25T12:25:25Z</time>
      </trkpt>
      <trkpt lat="43.095557" lon="-7.142638">
        <ele>971.206</ele>
        <time>1999-07-25T12:25:27Z</time>
      </trkpt>
      <trkpt lat="43.095530" lon="-7.142679">
        <ele>972.026</ele>
        <time>1999-07-25T12:25:30Z</time>
      </trkpt>
      <trkpt lat="43.095504" lon="-7.142699">
        <ele>972.408</ele>
        <time>1999-07-25T12:25:32Z</time>
      </trkpt>
      <trkpt lat="43.095461" lon="-7.142735">
        <ele>973.271</ele>
        <time>1999-07-25T12:25:35Z</time>
      </trkpt>
      <trkpt lat="43.095446" lon="-7.142748">
        <ele>973.657</ele>
        <time>1999-07-25T12:25:36Z</time>
      </trkpt>
      <trkpt lat="43.095412" lon="-7.142776">
        <ele>974.648</ele>
        <time>1999-07-25T12:25:39Z</time>
      </trkpt>
      <trkpt lat="43.095366" lon="-7.142805">
        <ele>975.663</ele>
        <time>1999-07-25T12:25:42Z</time>
      </trkpt>
      <trkpt lat="43.095351" lon="-7.142812">
        <ele>975.833</ele>
        <time>1999-07-25T12:25:43Z</time>
      </trkpt>
      <trkpt lat="43.095284" lon="-7.142848">
        <ele>977.010</ele>
        <time>1999-07-25T12:25:47Z</time>
      </trkpt>
      <trkpt lat="43.095251" lon="-7.142849">
        <ele>977.657</ele>
        <time>1999-07-25T12:25:49Z</time>
      </trkpt>
      <trkpt lat="43.095224" lon="-7.142846">
        <ele>978.215</ele>
        <time>1999-07-25T12:25:51Z</time>
      </trkpt>
      <trkpt lat="43.095161" lon="-7.142828">
        <ele>979.277</ele>
        <time>1999-07-25T12:25:55Z</time>
      </trkpt>
      <trkpt lat="43.095092" lon="-7.142787">
        <ele>980.461</ele>
        <time>1999-07-25T12:26:00Z</time>
      </trkpt>
      <trkpt lat="43.095051" lon="-7.142756">
        <ele>981.027</ele>
        <time>1999-07-25T12:26:03Z</time>
      </trkpt>
      <trkpt lat="43.095024" lon="-7.142732">
        <ele>981.608</ele>
        <time>1999-07-25T12:26:05Z</time>
      </trkpt>
      <trkpt lat="43.094986" lon="-7.142689">
        <ele>982.640</ele>
        <time>1999-07-25T12:26:08Z</time>
      </trkpt>
      <trkpt lat="43.094973" lon="-7.142679">
        <ele>982.866</ele>
        <time>1999-07-25T12:26:09Z</time>
      </trkpt>
      <trkpt lat="43.094920" lon="-7.142625">
        <ele>983.657</ele>
        <time>1999-07-25T12:26:13Z</time>
      </trkpt>
      <trkpt lat="43.094906" lon="-7.142610">
        <ele>983.832</ele>
        <time>1999-07-25T12:26:14Z</time>
      </trkpt>
      <trkpt lat="43.094856" lon="-7.142580">
        <ele>984.252</ele>
        <time>1999-07-25T12:26:17Z</time>
      </trkpt>
      <trkpt lat="43.094785" lon="-7.142597">
        <ele>984.839</ele>
        <time>1999-07-25T12:26:21Z</time>
      </trkpt>
      <trkpt lat="43.094774" lon="-7.142613">
        <ele>985.016</ele>
        <time>1999-07-25T12:26:22Z</time>
      </trkpt>
      <trkpt lat="43.094780" lon="-7.142699">
        <ele>985.654</ele>
        <time>1999-07-25T12:26:26Z</time>
      </trkpt>
      <trkpt lat="43.094782" lon="-7.142722">
        <ele>985.874</ele>
        <time>1999-07-25T12:26:27Z</time>
      </trkpt>
      <trkpt lat="43.094783" lon="-7.142746">
        <ele>986.056</ele>
        <time>1999-07-25T12:26:28Z</time>
      </trkpt>
      <trkpt lat="43.094792" lon="-7.142825">
        <ele>987.421</ele>
        <time>1999-07-25T12:26:31Z</time>
      </trkpt>
      <trkpt lat="43.094803" lon="-7.142908">
        <ele>988.208</ele>
        <time>1999-07-25T12:26:34Z</time>
      </trkpt>
      <trkpt lat="43.094805" lon="-7.142937">
        <ele>988.860</ele>
        <time>1999-07-25T12:26:35Z</time>
      </trkpt>
      <trkpt lat="43.094820" lon="-7.143110">
        <ele>989.896</ele>
        <time>1999-07-25T12:26:41Z</time>
      </trkpt>
      <trkpt lat="43.094820" lon="-7.143140">
        <ele>989.857</ele>
        <time>1999-07-25T12:26:42Z</time>
      </trkpt>
      <trkpt lat="43.094828" lon="-7.143237">
        <ele>990.242</ele>
        <time>1999-07-25T12:26:45Z</time>
      </trkpt>
      <trkpt lat="43.094844" lon="-7.143334">
        <ele>990.462</ele>
        <time>1999-07-25T12:26:48Z</time>
      </trkpt>
      <trkpt lat="43.094867" lon="-7.143482">
        <ele>990.839</ele>
        <time>1999-07-25T12:26:53Z</time>
      </trkpt>
      <trkpt lat="43.094894" lon="-7.143578">
        <ele>991.436</ele>
        <time>1999-07-25T12:26:56Z</time>
      </trkpt>
      <trkpt lat="43.094924" lon="-7.143694">
        <ele>992.274</ele>
        <time>1999-07-25T12:27:00Z</time>
      </trkpt>
      <trkpt lat="43.094929" lon="-7.143767">
        <ele>992.494</ele>
        <time>1999-07-25T12:27:02Z</time>
      </trkpt>
      <trkpt lat="43.094871" lon="-7.143996">
        <ele>992.857</ele>
        <time>1999-07-25T12:27:07Z</time>
      </trkpt>
      <trkpt lat="43.094850" lon="-7.144045">
        <ele>992.822</ele>
        <time>1999-07-25T12:27:08Z</time>
      </trkpt>
      <trkpt lat="43.094805" lon="-7.144147">
        <ele>992.808</ele>
        <time>1999-07-25T12:27:10Z</time>
      </trkpt>
      <trkpt lat="43.094733" lon="-7.144278">
        <ele>992.812</ele>
        <time>1999-07-25T12:27:13Z</time>
      </trkpt>
      <trkpt lat="43.094646" lon="-7.144386">
        <ele>992.858</ele>
        <time>1999-07-25T12:27:16Z</time>
      </trkpt>
      <trkpt lat="43.094575" lon="-7.144459">
        <ele>992.829</ele>
        <time>1999-07-25T12:27:18Z</time>
      </trkpt>
      <trkpt lat="43.094490" lon="-7.144528">
        <ele>992.634</ele>
        <time>1999-07-25T12:27:20Z</time>
      </trkpt>
      <trkpt lat="43.094432" lon="-7.144564">
        <ele>992.634</ele>
        <time>1999-07-25T12:27:21Z</time>
      </trkpt>
      <trkpt lat="43.094239" lon="-7.144619">
        <ele>992.481</ele>
        <time>1999-07-25T12:27:24Z</time>
      </trkpt>
      <trkpt lat="43.094099" lon="-7.144640">
        <ele>992.248</ele>
        <time>1999-07-25T12:27:26Z</time>
      </trkpt>
      <trkpt lat="43.093963" lon="-7.144678">
        <ele>992.066</ele>
        <time>1999-07-25T12:27:28Z</time>
      </trkpt>
      <trkpt lat="43.093894" lon="-7.144712">
        <ele>991.827</ele>
        <time>1999-07-25T12:27:29Z</time>
      </trkpt>
      <trkpt lat="43.093822" lon="-7.144758">
        <ele>991.268</ele>
        <time>1999-07-25T12:27:30Z</time>
      </trkpt>
      <trkpt lat="43.093750" lon="-7.144803">
        <ele>990.614</ele>
        <time>1999-07-25T12:27:31Z</time>
      </trkpt>
      <trkpt lat="43.093674" lon="-7.144839">
        <ele>990.008</ele>
        <time>1999-07-25T12:27:32Z</time>
      </trkpt>
      <trkpt lat="43.093595" lon="-7.144861">
        <ele>989.895</ele>
        <time>1999-07-25T12:27:33Z</time>
      </trkpt>
      <trkpt lat="43.093516" lon="-7.144873">
        <ele>989.211</ele>
        <time>1999-07-25T12:27:34Z</time>
      </trkpt>
      <trkpt lat="43.093357" lon="-7.144884">
        <ele>987.842</ele>
        <time>1999-07-25T12:27:36Z</time>
      </trkpt>
      <trkpt lat="43.093202" lon="-7.144891">
        <ele>986.027</ele>
        <time>1999-07-25T12:27:38Z</time>
      </trkpt>
      <trkpt lat="43.092889" lon="-7.144957">
        <ele>984.897</ele>
        <time>1999-07-25T12:27:42Z</time>
      </trkpt>
      <trkpt lat="43.092739" lon="-7.144970">
        <ele>983.484</ele>
        <time>1999-07-25T12:27:44Z</time>
      </trkpt>
      <trkpt lat="43.092591" lon="-7.145010">
        <ele>982.641</ele>
        <time>1999-07-25T12:27:46Z</time>
      </trkpt>
      <trkpt lat="43.092518" lon="-7.145024">
        <ele>982.269</ele>
        <time>1999-07-25T12:27:47Z</time>
      </trkpt>
      <trkpt lat="43.092368" lon="-7.145039">
        <ele>981.244</ele>
        <time>1999-07-25T12:27:49Z</time>
      </trkpt>
      <trkpt lat="43.092207" lon="-7.145036">
        <ele>980.005</ele>
        <time>1999-07-25T12:27:51Z</time>
      </trkpt>
      <trkpt lat="43.092127" lon="-7.145036">
        <ele>979.415</ele>
        <time>1999-07-25T12:27:52Z</time>
      </trkpt>
      <trkpt lat="43.092046" lon="-7.145044">
        <ele>978.808</ele>
        <time>1999-07-25T12:27:53Z</time>
      </trkpt>
      <trkpt lat="43.091815" lon="-7.145074">
        <ele>977.827</ele>
        <time>1999-07-25T12:27:56Z</time>
      </trkpt>
      <trkpt lat="43.091736" lon="-7.145084">
        <ele>977.463</ele>
        <time>1999-07-25T12:27:57Z</time>
      </trkpt>
      <trkpt lat="43.091588" lon="-7.145086">
        <ele>976.454</ele>
        <time>1999-07-25T12:27:59Z</time>
      </trkpt>
      <trkpt lat="43.091352" lon="-7.145103">
        <ele>975.469</ele>
        <time>1999-07-25T12:28:02Z</time>
      </trkpt>
      <trkpt lat="43.091274" lon="-7.145108">
        <ele>975.289</ele>
        <time>1999-07-25T12:28:03Z</time>
      </trkpt>
      <trkpt lat="43.091197" lon="-7.145123">
        <ele>974.256</ele>
        <time>1999-07-25T12:28:04Z</time>
      </trkpt>
      <trkpt lat="43.090960" lon="-7.145162">
        <ele>973.213</ele>
        <time>1999-07-25T12:28:07Z</time>
      </trkpt>
      <trkpt lat="43.090709" lon="-7.145207">
        <ele>972.241</ele>
        <time>1999-07-25T12:28:10Z</time>
      </trkpt>
      <trkpt lat="43.090474" lon="-7.145228">
        <ele>971.032</ele>
        <time>1999-07-25T12:28:13Z</time>
      </trkpt>
      <trkpt lat="43.090314" lon="-7.145217">
        <ele>969.892</ele>
        <time>1999-07-25T12:28:15Z</time>
      </trkpt>
      <trkpt lat="43.090068" lon="-7.145181">
        <ele>968.211</ele>
        <time>1999-07-25T12:28:18Z</time>
      </trkpt>
      <trkpt lat="43.089908" lon="-7.145167">
        <ele>967.208</ele>
        <time>1999-07-25T12:28:20Z</time>
      </trkpt>
      <trkpt lat="43.089827" lon="-7.145172">
        <ele>966.426</ele>
        <time>1999-07-25T12:28:21Z</time>
      </trkpt>
      <trkpt lat="43.089748" lon="-7.145179">
        <ele>965.472</ele>
        <time>1999-07-25T12:28:22Z</time>
      </trkpt>
      <trkpt lat="43.089622" lon="-7.145186">
        <ele>964.023</ele>
        <time>1999-07-25T12:28:24Z</time>
      </trkpt>
      <trkpt lat="43.089568" lon="-7.145194">
        <ele>963.458</ele>
        <time>1999-07-25T12:28:25Z</time>
      </trkpt>
      <trkpt lat="43.089505" lon="-7.145210">
        <ele>962.688</ele>
        <time>1999-07-25T12:28:26Z</time>
      </trkpt>
      <trkpt lat="43.089361" lon="-7.145229">
        <ele>961.015</ele>
        <time>1999-07-25T12:28:28Z</time>
      </trkpt>
      <trkpt lat="43.089202" lon="-7.145243">
        <ele>959.642</ele>
        <time>1999-07-25T12:28:30Z</time>
      </trkpt>
      <trkpt lat="43.089059" lon="-7.145289">
        <ele>958.420</ele>
        <time>1999-07-25T12:28:32Z</time>
      </trkpt>
      <trkpt lat="43.088985" lon="-7.145333">
        <ele>955.838</ele>
        <time>1999-07-25T12:28:33Z</time>
      </trkpt>
      <trkpt lat="43.088842" lon="-7.145429">
        <ele>954.470</ele>
        <time>1999-07-25T12:28:35Z</time>
      </trkpt>
      <trkpt lat="43.088768" lon="-7.145489">
        <ele>953.817</ele>
        <time>1999-07-25T12:28:36Z</time>
      </trkpt>
      <trkpt lat="43.088691" lon="-7.145557">
        <ele>953.408</ele>
        <time>1999-07-25T12:28:37Z</time>
      </trkpt>
      <trkpt lat="43.088617" lon="-7.145629">
        <ele>952.846</ele>
        <time>1999-07-25T12:28:38Z</time>
      </trkpt>
      <trkpt lat="43.088471" lon="-7.145784">
        <ele>951.222</ele>
        <time>1999-07-25T12:28:40Z</time>
      </trkpt>
      <trkpt lat="43.088331" lon="-7.145946">
        <ele>949.813</ele>
        <time>1999-07-25T12:28:42Z</time>
      </trkpt>
      <trkpt lat="43.088265" lon="-7.146033">
        <ele>948.828</ele>
        <time>1999-07-25T12:28:43Z</time>
      </trkpt>
      <trkpt lat="43.088199" lon="-7.146117">
        <ele>947.628</ele>
        <time>1999-07-25T12:28:44Z</time>
      </trkpt>
      <trkpt lat="43.088079" lon="-7.146268">
        <ele>946.295</ele>
        <time>1999-07-25T12:28:46Z</time>
      </trkpt>
      <trkpt lat="43.088024" lon="-7.146346">
        <ele>945.492</ele>
        <time>1999-07-25T12:28:47Z</time>
      </trkpt>
      <trkpt lat="43.087970" lon="-7.146422">
        <ele>944.820</ele>
        <time>1999-07-25T12:28:48Z</time>
      </trkpt>
      <trkpt lat="43.087902" lon="-7.146502">
        <ele>943.662</ele>
        <time>1999-07-25T12:28:49Z</time>
      </trkpt>
      <trkpt lat="43.087774" lon="-7.146657">
        <ele>942.083</ele>
        <time>1999-07-25T12:28:51Z</time>
      </trkpt>
      <trkpt lat="43.087708" lon="-7.146733">
        <ele>941.211</ele>
        <time>1999-07-25T12:28:52Z</time>
      </trkpt>
      <trkpt lat="43.087644" lon="-7.146802">
        <ele>940.608</ele>
        <time>1999-07-25T12:28:53Z</time>
      </trkpt>
      <trkpt lat="43.087494" lon="-7.146937">
        <ele>939.039</ele>
        <time>1999-07-25T12:28:55Z</time>
      </trkpt>
      <trkpt lat="43.087408" lon="-7.146995">
        <ele>938.025</ele>
        <time>1999-07-25T12:28:56Z</time>
      </trkpt>
      <trkpt lat="43.087332" lon="-7.147059">
        <ele>937.226</ele>
        <time>1999-07-25T12:28:57Z</time>
      </trkpt>
      <trkpt lat="43.087165" lon="-7.147207">
        <ele>935.831</ele>
        <time>1999-07-25T12:28:59Z</time>
      </trkpt>
      <trkpt lat="43.087081" lon="-7.147280">
        <ele>934.811</ele>
        <time>1999-07-25T12:29:00Z</time>
      </trkpt>
      <trkpt lat="43.086923" lon="-7.147405">
        <ele>933.078</ele>
        <time>1999-07-25T12:29:02Z</time>
      </trkpt>
      <trkpt lat="43.086859" lon="-7.147472">
        <ele>931.255</ele>
        <time>1999-07-25T12:29:03Z</time>
      </trkpt>
      <trkpt lat="43.086798" lon="-7.147538">
        <ele>930.213</ele>
        <time>1999-07-25T12:29:04Z</time>
      </trkpt>
      <trkpt lat="43.086672" lon="-7.147671">
        <ele>928.461</ele>
        <time>1999-07-25T12:29:06Z</time>
      </trkpt>
      <trkpt lat="43.086564" lon="-7.147815">
        <ele>927.021</ele>
        <time>1999-07-25T12:29:08Z</time>
      </trkpt>
      <trkpt lat="43.086523" lon="-7.147881">
        <ele>926.213</ele>
        <time>1999-07-25T12:29:09Z</time>
      </trkpt>
      <trkpt lat="43.086491" lon="-7.147945">
        <ele>925.408</ele>
        <time>1999-07-25T12:29:10Z</time>
      </trkpt>
      <trkpt lat="43.086436" lon="-7.148084">
        <ele>923.619</ele>
        <time>1999-07-25T12:29:12Z</time>
      </trkpt>
      <trkpt lat="43.086421" lon="-7.148162">
        <ele>922.815</ele>
        <time>1999-07-25T12:29:13Z</time>
      </trkpt>
      <trkpt lat="43.086404" lon="-7.148246">
        <ele>922.266</ele>
        <time>1999-07-25T12:29:14Z</time>
      </trkpt>
      <trkpt lat="43.086382" lon="-7.148427">
        <ele>920.621</ele>
        <time>1999-07-25T12:29:16Z</time>
      </trkpt>
      <trkpt lat="43.086366" lon="-7.148531">
        <ele>919.641</ele>
        <time>1999-07-25T12:29:17Z</time>
      </trkpt>
      <trkpt lat="43.086353" lon="-7.148639">
        <ele>918.218</ele>
        <time>1999-07-25T12:29:18Z</time>
      </trkpt>
      <trkpt lat="43.086337" lon="-7.148756">
        <ele>917.245</ele>
        <time>1999-07-25T12:29:19Z</time>
      </trkpt>
      <trkpt lat="43.086300" lon="-7.148997">
        <ele>916.053</ele>
        <time>1999-07-25T12:29:21Z</time>
      </trkpt>
      <trkpt lat="43.086264" lon="-7.149218">
        <ele>914.285</ele>
        <time>1999-07-25T12:29:23Z</time>
      </trkpt>
      <trkpt lat="43.086216" lon="-7.149421">
        <ele>913.089</ele>
        <time>1999-07-25T12:29:25Z</time>
      </trkpt>
      <trkpt lat="43.086108" lon="-7.149736">
        <ele>911.417</ele>
        <time>1999-07-25T12:29:28Z</time>
      </trkpt>
      <trkpt lat="43.086062" lon="-7.149829">
        <ele>910.808</ele>
        <time>1999-07-25T12:29:29Z</time>
      </trkpt>
      <trkpt lat="43.085954" lon="-7.150034">
        <ele>910.031</ele>
        <time>1999-07-25T12:29:31Z</time>
      </trkpt>
      <trkpt lat="43.085869" lon="-7.150260">
        <ele>908.227</ele>
        <time>1999-07-25T12:29:33Z</time>
      </trkpt>
      <trkpt lat="43.085780" lon="-7.150488">
        <ele>906.628</ele>
        <time>1999-07-25T12:29:35Z</time>
      </trkpt>
      <trkpt lat="43.085717" lon="-7.150696">
        <ele>905.033</ele>
        <time>1999-07-25T12:29:37Z</time>
      </trkpt>
      <trkpt lat="43.085702" lon="-7.150790">
        <ele>904.233</ele>
        <time>1999-07-25T12:29:38Z</time>
      </trkpt>
      <trkpt lat="43.085692" lon="-7.150897">
        <ele>903.670</ele>
        <time>1999-07-25T12:29:39Z</time>
      </trkpt>
      <trkpt lat="43.085716" lon="-7.151088">
        <ele>901.887</ele>
        <time>1999-07-25T12:29:41Z</time>
      </trkpt>
      <trkpt lat="43.085730" lon="-7.151188">
        <ele>901.085</ele>
        <time>1999-07-25T12:29:42Z</time>
      </trkpt>
      <trkpt lat="43.085742" lon="-7.151294">
        <ele>900.252</ele>
        <time>1999-07-25T12:29:43Z</time>
      </trkpt>
      <trkpt lat="43.085757" lon="-7.151483">
        <ele>898.253</ele>
        <time>1999-07-25T12:29:45Z</time>
      </trkpt>
      <trkpt lat="43.085751" lon="-7.151569">
        <ele>897.208</ele>
        <time>1999-07-25T12:29:46Z</time>
      </trkpt>
      <trkpt lat="43.085737" lon="-7.151649">
        <ele>896.208</ele>
        <time>1999-07-25T12:29:47Z</time>
      </trkpt>
      <trkpt lat="43.085706" lon="-7.151733">
        <ele>895.498</ele>
        <time>1999-07-25T12:29:48Z</time>
      </trkpt>
      <trkpt lat="43.085621" lon="-7.151926">
        <ele>894.464</ele>
        <time>1999-07-25T12:29:50Z</time>
      </trkpt>
      <trkpt lat="43.085570" lon="-7.152017">
        <ele>893.865</ele>
        <time>1999-07-25T12:29:51Z</time>
      </trkpt>
      <trkpt lat="43.085531" lon="-7.152084">
        <ele>893.480</ele>
        <time>1999-07-25T12:29:52Z</time>
      </trkpt>
      <trkpt lat="43.085500" lon="-7.152120">
        <ele>893.070</ele>
        <time>1999-07-25T12:29:53Z</time>
      </trkpt>
      <trkpt lat="43.085478" lon="-7.152153">
        <ele>892.017</ele>
        <time>1999-07-25T12:29:54Z</time>
      </trkpt>
      <trkpt lat="43.085454" lon="-7.152188">
        <ele>891.044</ele>
        <time>1999-07-25T12:29:55Z</time>
      </trkpt>
      <trkpt lat="43.085426" lon="-7.152222">
        <ele>889.612</ele>
        <time>1999-07-25T12:29:56Z</time>
      </trkpt>
      <trkpt lat="43.085375" lon="-7.152287">
        <ele>888.652</ele>
        <time>1999-07-25T12:29:58Z</time>
      </trkpt>
      <trkpt lat="43.085308" lon="-7.152372">
        <ele>887.853</ele>
        <time>1999-07-25T12:30:00Z</time>
      </trkpt>
      <trkpt lat="43.085276" lon="-7.152417">
        <ele>887.008</ele>
        <time>1999-07-25T12:30:01Z</time>
      </trkpt>
      <trkpt lat="43.085160" lon="-7.152574">
        <ele>884.808</ele>
        <time>1999-07-25T12:30:03Z</time>
      </trkpt>
      <trkpt lat="43.085105" lon="-7.152658">
        <ele>884.478</ele>
        <time>1999-07-25T12:30:04Z</time>
      </trkpt>
      <trkpt lat="43.085010" lon="-7.152832">
        <ele>883.644</ele>
        <time>1999-07-25T12:30:06Z</time>
      </trkpt>
      <trkpt lat="43.084788" lon="-7.153140">
        <ele>882.285</ele>
        <time>1999-07-25T12:30:10Z</time>
      </trkpt>
      <trkpt lat="43.084616" lon="-7.153398">
        <ele>881.060</ele>
        <time>1999-07-25T12:30:13Z</time>
      </trkpt>
      <trkpt lat="43.084527" lon="-7.153580">
        <ele>879.640</ele>
        <time>1999-07-25T12:30:15Z</time>
      </trkpt>
      <trkpt lat="43.084476" lon="-7.153666">
        <ele>879.067</ele>
        <time>1999-07-25T12:30:16Z</time>
      </trkpt>
      <trkpt lat="43.084426" lon="-7.153744">
        <ele>878.044</ele>
        <time>1999-07-25T12:30:17Z</time>
      </trkpt>
      <trkpt lat="43.084293" lon="-7.153928">
        <ele>876.632</ele>
        <time>1999-07-25T12:30:19Z</time>
      </trkpt>
      <trkpt lat="43.084228" lon="-7.154023">
        <ele>876.468</ele>
        <time>1999-07-25T12:30:20Z</time>
      </trkpt>
      <trkpt lat="43.084184" lon="-7.154124">
        <ele>875.642</ele>
        <time>1999-07-25T12:30:21Z</time>
      </trkpt>
      <trkpt lat="43.084152" lon="-7.154228">
        <ele>874.426</ele>
        <time>1999-07-25T12:30:22Z</time>
      </trkpt>
      <trkpt lat="43.084148" lon="-7.154326">
        <ele>873.408</ele>
        <time>1999-07-25T12:30:23Z</time>
      </trkpt>
      <trkpt lat="43.084140" lon="-7.154436">
        <ele>872.259</ele>
        <time>1999-07-25T12:30:24Z</time>
      </trkpt>
      <trkpt lat="43.084163" lon="-7.154646">
        <ele>870.875</ele>
        <time>1999-07-25T12:30:26Z</time>
      </trkpt>
      <trkpt lat="43.084170" lon="-7.154735">
        <ele>870.076</ele>
        <time>1999-07-25T12:30:27Z</time>
      </trkpt>
      <trkpt lat="43.084180" lon="-7.154824">
        <ele>869.481</ele>
        <time>1999-07-25T12:30:28Z</time>
      </trkpt>
      <trkpt lat="43.084208" lon="-7.154990">
        <ele>868.011</ele>
        <time>1999-07-25T12:30:30Z</time>
      </trkpt>
      <trkpt lat="43.084229" lon="-7.155185">
        <ele>866.418</ele>
        <time>1999-07-25T12:30:32Z</time>
      </trkpt>
      <trkpt lat="43.084227" lon="-7.155290">
        <ele>865.445</ele>
        <time>1999-07-25T12:30:33Z</time>
      </trkpt>
      <trkpt lat="43.084228" lon="-7.155483">
        <ele>863.833</ele>
        <time>1999-07-25T12:30:35Z</time>
      </trkpt>
      <trkpt lat="43.084227" lon="-7.155587">
        <ele>863.242</ele>
        <time>1999-07-25T12:30:36Z</time>
      </trkpt>
      <trkpt lat="43.084224" lon="-7.155697">
        <ele>862.422</ele>
        <time>1999-07-25T12:30:37Z</time>
      </trkpt>
      <trkpt lat="43.084195" lon="-7.155926">
        <ele>860.814</ele>
        <time>1999-07-25T12:30:39Z</time>
      </trkpt>
      <trkpt lat="43.084130" lon="-7.156163">
        <ele>859.208</ele>
        <time>1999-07-25T12:30:41Z</time>
      </trkpt>
      <trkpt lat="43.084046" lon="-7.156384">
        <ele>857.477</ele>
        <time>1999-07-25T12:30:43Z</time>
      </trkpt>
      <trkpt lat="43.083921" lon="-7.156686">
        <ele>856.053</ele>
        <time>1999-07-25T12:30:46Z</time>
      </trkpt>
      <trkpt lat="43.083879" lon="-7.156780">
        <ele>855.414</ele>
        <time>1999-07-25T12:30:47Z</time>
      </trkpt>
      <trkpt lat="43.083836" lon="-7.156873">
        <ele>854.819</ele>
        <time>1999-07-25T12:30:48Z</time>
      </trkpt>
      <trkpt lat="43.083747" lon="-7.157051">
        <ele>853.439</ele>
        <time>1999-07-25T12:30:50Z</time>
      </trkpt>
      <trkpt lat="43.083657" lon="-7.157233">
        <ele>852.086</ele>
        <time>1999-07-25T12:30:52Z</time>
      </trkpt>
      <trkpt lat="43.083605" lon="-7.157319">
        <ele>851.433</ele>
        <time>1999-07-25T12:30:53Z</time>
      </trkpt>
      <trkpt lat="43.083551" lon="-7.157395">
        <ele>850.681</ele>
        <time>1999-07-25T12:30:54Z</time>
      </trkpt>
      <trkpt lat="43.083439" lon="-7.157549">
        <ele>849.654</ele>
        <time>1999-07-25T12:30:56Z</time>
      </trkpt>
      <trkpt lat="43.083320" lon="-7.157719">
        <ele>847.656</ele>
        <time>1999-07-25T12:30:58Z</time>
      </trkpt>
      <trkpt lat="43.083223" lon="-7.157900">
        <ele>846.411</ele>
        <time>1999-07-25T12:31:00Z</time>
      </trkpt>
      <trkpt lat="43.083147" lon="-7.158111">
        <ele>845.408</ele>
        <time>1999-07-25T12:31:02Z</time>
      </trkpt>
      <trkpt lat="43.083120" lon="-7.158207">
        <ele>843.818</ele>
        <time>1999-07-25T12:31:03Z</time>
      </trkpt>
      <trkpt lat="43.083083" lon="-7.158353">
        <ele>842.284</ele>
        <time>1999-07-25T12:31:05Z</time>
      </trkpt>
      <trkpt lat="43.083055" lon="-7.158482">
        <ele>841.065</ele>
        <time>1999-07-25T12:31:07Z</time>
      </trkpt>
      <trkpt lat="43.082983" lon="-7.158549">
        <ele>839.830</ele>
        <time>1999-07-25T12:31:09Z</time>
      </trkpt>
      <trkpt lat="43.082962" lon="-7.158554">
        <ele>838.870</ele>
        <time>1999-07-25T12:31:11Z</time>
      </trkpt>
      <trkpt lat="43.082958" lon="-7.158550">
        <ele>838.267</ele>
        <time>1999-07-25T12:31:12Z</time>
      </trkpt>
      <trkpt lat="43.082913" lon="-7.158639">
        <ele>834.664</ele>
        <time>1999-07-25T12:31:52Z</time>
      </trkpt>
      <trkpt lat="43.082905" lon="-7.158697">
        <ele>834.682</ele>
        <time>1999-07-25T12:31:53Z</time>
      </trkpt>
      <trkpt lat="43.082884" lon="-7.158833">
        <ele>834.668</ele>
        <time>1999-07-25T12:31:55Z</time>
      </trkpt>
      <trkpt lat="43.082873" lon="-7.158912">
        <ele>834.642</ele>
        <time>1999-07-25T12:31:56Z</time>
      </trkpt>
      <trkpt lat="43.082868" lon="-7.159047">
        <ele>834.626</ele>
        <time>1999-07-25T12:31:58Z</time>
      </trkpt>
      <trkpt lat="43.082877" lon="-7.159183">
        <ele>834.408</ele>
        <time>1999-07-25T12:32:00Z</time>
      </trkpt>
      <trkpt lat="43.082904" lon="-7.159351">
        <ele>834.249</ele>
        <time>1999-07-25T12:32:02Z</time>
      </trkpt>
      <trkpt lat="43.082923" lon="-7.159437">
        <ele>833.665</ele>
        <time>1999-07-25T12:32:03Z</time>
      </trkpt>
      <trkpt lat="43.082939" lon="-7.159521">
        <ele>833.476</ele>
        <time>1999-07-25T12:32:04Z</time>
      </trkpt>
      <trkpt lat="43.083017" lon="-7.159845">
        <ele>832.441</ele>
        <time>1999-07-25T12:32:08Z</time>
      </trkpt>
      <trkpt lat="43.083042" lon="-7.160020">
        <ele>832.051</ele>
        <time>1999-07-25T12:32:10Z</time>
      </trkpt>
      <trkpt lat="43.083069" lon="-7.160194">
        <ele>831.468</ele>
        <time>1999-07-25T12:32:12Z</time>
      </trkpt>
      <trkpt lat="43.083117" lon="-7.160341">
        <ele>831.025</ele>
        <time>1999-07-25T12:32:14Z</time>
      </trkpt>
      <trkpt lat="43.083166" lon="-7.160507">
        <ele>830.813</ele>
        <time>1999-07-25T12:32:16Z</time>
      </trkpt>
      <trkpt lat="43.083191" lon="-7.160605">
        <ele>830.666</ele>
        <time>1999-07-25T12:32:17Z</time>
      </trkpt>
      <trkpt lat="43.083250" lon="-7.160887">
        <ele>830.029</ele>
        <time>1999-07-25T12:32:20Z</time>
      </trkpt>
      <trkpt lat="43.083315" lon="-7.161136">
        <ele>829.621</ele>
        <time>1999-07-25T12:32:23Z</time>
      </trkpt>
      <trkpt lat="43.083347" lon="-7.161236">
        <ele>829.408</ele>
        <time>1999-07-25T12:32:24Z</time>
      </trkpt>
      <trkpt lat="43.083500" lon="-7.161666">
        <ele>828.039</ele>
        <time>1999-07-25T12:32:28Z</time>
      </trkpt>
      <trkpt lat="43.083542" lon="-7.161775">
        <ele>827.275</ele>
        <time>1999-07-25T12:32:29Z</time>
      </trkpt>
      <trkpt lat="43.083585" lon="-7.161890">
        <ele>826.876</ele>
        <time>1999-07-25T12:32:30Z</time>
      </trkpt>
      <trkpt lat="43.083637" lon="-7.161990">
        <ele>826.281</ele>
        <time>1999-07-25T12:32:31Z</time>
      </trkpt>
      <trkpt lat="43.083692" lon="-7.162072">
        <ele>825.621</ele>
        <time>1999-07-25T12:32:32Z</time>
      </trkpt>
      <trkpt lat="43.083739" lon="-7.162141">
        <ele>824.848</ele>
        <time>1999-07-25T12:32:33Z</time>
      </trkpt>
      <trkpt lat="43.083785" lon="-7.162194">
        <ele>823.825</ele>
        <time>1999-07-25T12:32:34Z</time>
      </trkpt>
      <trkpt lat="43.083826" lon="-7.162243">
        <ele>820.873</ele>
        <time>1999-07-25T12:32:35Z</time>
      </trkpt>
      <trkpt lat="43.083858" lon="-7.162292">
        <ele>819.465</ele>
        <time>1999-07-25T12:32:36Z</time>
      </trkpt>
      <trkpt lat="43.083890" lon="-7.162350">
        <ele>818.268</ele>
        <time>1999-07-25T12:32:37Z</time>
      </trkpt>
      <trkpt lat="43.083916" lon="-7.162423">
        <ele>817.014</ele>
        <time>1999-07-25T12:32:38Z</time>
      </trkpt>
      <trkpt lat="43.083944" lon="-7.162498">
        <ele>815.808</ele>
        <time>1999-07-25T12:32:39Z</time>
      </trkpt>
      <trkpt lat="43.083959" lon="-7.162579">
        <ele>814.219</ele>
        <time>1999-07-25T12:32:40Z</time>
      </trkpt>
      <trkpt lat="43.083966" lon="-7.162667">
        <ele>812.665</ele>
        <time>1999-07-25T12:32:41Z</time>
      </trkpt>
      <trkpt lat="43.083961" lon="-7.162765">
        <ele>811.016</ele>
        <time>1999-07-25T12:32:42Z</time>
      </trkpt>
      <trkpt lat="43.083947" lon="-7.162870">
        <ele>809.861</ele>
        <time>1999-07-25T12:32:43Z</time>
      </trkpt>
      <trkpt lat="43.083935" lon="-7.162970">
        <ele>808.641</ele>
        <time>1999-07-25T12:32:44Z</time>
      </trkpt>
      <trkpt lat="43.083915" lon="-7.163065">
        <ele>807.848</ele>
        <time>1999-07-25T12:32:45Z</time>
      </trkpt>
      <trkpt lat="43.083879" lon="-7.163170">
        <ele>807.085</ele>
        <time>1999-07-25T12:32:46Z</time>
      </trkpt>
      <trkpt lat="43.083841" lon="-7.163269">
        <ele>806.023</ele>
        <time>1999-07-25T12:32:47Z</time>
      </trkpt>
      <trkpt lat="43.083795" lon="-7.163369">
        <ele>804.817</ele>
        <time>1999-07-25T12:32:48Z</time>
      </trkpt>
      <trkpt lat="43.083758" lon="-7.163458">
        <ele>803.687</ele>
        <time>1999-07-25T12:32:49Z</time>
      </trkpt>
      <trkpt lat="43.083724" lon="-7.163532">
        <ele>802.615</ele>
        <time>1999-07-25T12:32:50Z</time>
      </trkpt>
      <trkpt lat="43.083688" lon="-7.163605">
        <ele>801.408</ele>
        <time>1999-07-25T12:32:51Z</time>
      </trkpt>
      <trkpt lat="43.083646" lon="-7.163696">
        <ele>800.294</ele>
        <time>1999-07-25T12:32:52Z</time>
      </trkpt>
      <trkpt lat="43.083607" lon="-7.163800">
        <ele>799.040</ele>
        <time>1999-07-25T12:32:53Z</time>
      </trkpt>
      <trkpt lat="43.083564" lon="-7.163912">
        <ele>797.691</ele>
        <time>1999-07-25T12:32:54Z</time>
      </trkpt>
      <trkpt lat="43.083512" lon="-7.164023">
        <ele>796.686</ele>
        <time>1999-07-25T12:32:55Z</time>
      </trkpt>
      <trkpt lat="43.083457" lon="-7.164132">
        <ele>795.436</ele>
        <time>1999-07-25T12:32:56Z</time>
      </trkpt>
      <trkpt lat="43.083398" lon="-7.164239">
        <ele>794.423</ele>
        <time>1999-07-25T12:32:57Z</time>
      </trkpt>
      <trkpt lat="43.083350" lon="-7.164337">
        <ele>793.080</ele>
        <time>1999-07-25T12:32:58Z</time>
      </trkpt>
      <trkpt lat="43.083301" lon="-7.164432">
        <ele>791.628</ele>
        <time>1999-07-25T12:32:59Z</time>
      </trkpt>
      <trkpt lat="43.083258" lon="-7.164521">
        <ele>790.294</ele>
        <time>1999-07-25T12:33:00Z</time>
      </trkpt>
      <trkpt lat="43.083201" lon="-7.164662">
        <ele>788.457</ele>
        <time>1999-07-25T12:33:02Z</time>
      </trkpt>
      <trkpt lat="43.083166" lon="-7.164803">
        <ele>786.822</ele>
        <time>1999-07-25T12:33:04Z</time>
      </trkpt>
      <trkpt lat="43.083149" lon="-7.164883">
        <ele>785.808</ele>
        <time>1999-07-25T12:33:05Z</time>
      </trkpt>
      <trkpt lat="43.083127" lon="-7.164971">
        <ele>782.252</ele>
        <time>1999-07-25T12:33:06Z</time>
      </trkpt>
      <trkpt lat="43.083096" lon="-7.165072">
        <ele>780.478</ele>
        <time>1999-07-25T12:33:07Z</time>
      </trkpt>
      <trkpt lat="43.083062" lon="-7.165177">
        <ele>778.899</ele>
        <time>1999-07-25T12:33:08Z</time>
      </trkpt>
      <trkpt lat="43.083028" lon="-7.165286">
        <ele>777.434</ele>
        <time>1999-07-25T12:33:09Z</time>
      </trkpt>
      <trkpt lat="43.083000" lon="-7.165396">
        <ele>776.294</ele>
        <time>1999-07-25T12:33:10Z</time>
      </trkpt>
      <trkpt lat="43.082976" lon="-7.165506">
        <ele>775.031</ele>
        <time>1999-07-25T12:33:11Z</time>
      </trkpt>
      <trkpt lat="43.082954" lon="-7.165617">
        <ele>774.428</ele>
        <time>1999-07-25T12:33:12Z</time>
      </trkpt>
      <trkpt lat="43.082925" lon="-7.165728">
        <ele>773.486</ele>
        <time>1999-07-25T12:33:13Z</time>
      </trkpt>
      <trkpt lat="43.082865" lon="-7.165942">
        <ele>772.251</ele>
        <time>1999-07-25T12:33:15Z</time>
      </trkpt>
      <trkpt lat="43.082819" lon="-7.166133">
        <ele>770.801</ele>
        <time>1999-07-25T12:33:17Z</time>
      </trkpt>
      <trkpt lat="43.082805" lon="-7.166225">
        <ele>769.411</ele>
        <time>1999-07-25T12:33:18Z</time>
      </trkpt>
      <trkpt lat="43.082791" lon="-7.166307">
        <ele>768.008</ele>
        <time>1999-07-25T12:33:19Z</time>
      </trkpt>
      <trkpt lat="43.082779" lon="-7.166376">
        <ele>766.688</ele>
        <time>1999-07-25T12:33:20Z</time>
      </trkpt>
      <trkpt lat="43.082769" lon="-7.166433">
        <ele>765.424</ele>
        <time>1999-07-25T12:33:21Z</time>
      </trkpt>
      <trkpt lat="43.082752" lon="-7.166492">
        <ele>764.455</ele>
        <time>1999-07-25T12:33:22Z</time>
      </trkpt>
      <trkpt lat="43.082730" lon="-7.166558">
        <ele>763.060</ele>
        <time>1999-07-25T12:33:23Z</time>
      </trkpt>
      <trkpt lat="43.082703" lon="-7.166634">
        <ele>761.640</ele>
        <time>1999-07-25T12:33:24Z</time>
      </trkpt>
      <trkpt lat="43.082677" lon="-7.166729">
        <ele>760.497</ele>
        <time>1999-07-25T12:33:25Z</time>
      </trkpt>
      <trkpt lat="43.082657" lon="-7.166836">
        <ele>759.434</ele>
        <time>1999-07-25T12:33:26Z</time>
      </trkpt>
      <trkpt lat="43.082644" lon="-7.166945">
        <ele>758.442</ele>
        <time>1999-07-25T12:33:27Z</time>
      </trkpt>
      <trkpt lat="43.082629" lon="-7.167055">
        <ele>757.277</ele>
        <time>1999-07-25T12:33:28Z</time>
      </trkpt>
      <trkpt lat="43.082613" lon="-7.167158">
        <ele>755.861</ele>
        <time>1999-07-25T12:33:29Z</time>
      </trkpt>
      <trkpt lat="43.082595" lon="-7.167254">
        <ele>754.427</ele>
        <time>1999-07-25T12:33:30Z</time>
      </trkpt>
      <trkpt lat="43.082587" lon="-7.167345">
        <ele>753.208</ele>
        <time>1999-07-25T12:33:31Z</time>
      </trkpt>
      <trkpt lat="43.082577" lon="-7.167438">
        <ele>752.270</ele>
        <time>1999-07-25T12:33:32Z</time>
      </trkpt>
      <trkpt lat="43.082567" lon="-7.167650">
        <ele>750.646</ele>
        <time>1999-07-25T12:33:34Z</time>
      </trkpt>
      <trkpt lat="43.082555" lon="-7.167898">
        <ele>748.097</ele>
        <time>1999-07-25T12:33:36Z</time>
      </trkpt>
      <trkpt lat="43.082541" lon="-7.168020">
        <ele>746.682</ele>
        <time>1999-07-25T12:33:37Z</time>
      </trkpt>
      <trkpt lat="43.082525" lon="-7.168138">
        <ele>745.882</ele>
        <time>1999-07-25T12:33:38Z</time>
      </trkpt>
      <trkpt lat="43.082509" lon="-7.168261">
        <ele>744.689</ele>
        <time>1999-07-25T12:33:39Z</time>
      </trkpt>
      <trkpt lat="43.082500" lon="-7.168385">
        <ele>743.446</ele>
        <time>1999-07-25T12:33:40Z</time>
      </trkpt>
      <trkpt lat="43.082503" lon="-7.168597">
        <ele>742.094</ele>
        <time>1999-07-25T12:33:42Z</time>
      </trkpt>
      <trkpt lat="43.082500" lon="-7.168679">
        <ele>741.216</ele>
        <time>1999-07-25T12:33:43Z</time>
      </trkpt>
      <trkpt lat="43.082487" lon="-7.168757">
        <ele>740.476</ele>
        <time>1999-07-25T12:33:44Z</time>
      </trkpt>
      <trkpt lat="43.082468" lon="-7.168833">
        <ele>739.413</ele>
        <time>1999-07-25T12:33:45Z</time>
      </trkpt>
      <trkpt lat="43.082400" lon="-7.169009">
        <ele>737.408</ele>
        <time>1999-07-25T12:33:47Z</time>
      </trkpt>
      <trkpt lat="43.082357" lon="-7.169101">
        <ele>736.454</ele>
        <time>1999-07-25T12:33:48Z</time>
      </trkpt>
      <trkpt lat="43.082310" lon="-7.169189">
        <ele>735.490</ele>
        <time>1999-07-25T12:33:49Z</time>
      </trkpt>
      <trkpt lat="43.082262" lon="-7.169272">
        <ele>734.231</ele>
        <time>1999-07-25T12:33:50Z</time>
      </trkpt>
      <trkpt lat="43.082216" lon="-7.169347">
        <ele>733.226</ele>
        <time>1999-07-25T12:33:51Z</time>
      </trkpt>
      <trkpt lat="43.082173" lon="-7.169413">
        <ele>731.886</ele>
        <time>1999-07-25T12:33:52Z</time>
      </trkpt>
      <trkpt lat="43.082138" lon="-7.169463">
        <ele>730.893</ele>
        <time>1999-07-25T12:33:53Z</time>
      </trkpt>
      <trkpt lat="43.082073" lon="-7.169547">
        <ele>729.020</ele>
        <time>1999-07-25T12:33:55Z</time>
      </trkpt>
      <trkpt lat="43.082036" lon="-7.169595">
        <ele>728.238</ele>
        <time>1999-07-25T12:33:56Z</time>
      </trkpt>
      <trkpt lat="43.081992" lon="-7.169648">
        <ele>727.215</ele>
        <time>1999-07-25T12:33:57Z</time>
      </trkpt>
      <trkpt lat="43.081945" lon="-7.169708">
        <ele>726.065</ele>
        <time>1999-07-25T12:33:58Z</time>
      </trkpt>
      <trkpt lat="43.081895" lon="-7.169772">
        <ele>725.011</ele>
        <time>1999-07-25T12:33:59Z</time>
      </trkpt>
      <trkpt lat="43.081806" lon="-7.169891">
        <ele>723.208</ele>
        <time>1999-07-25T12:34:01Z</time>
      </trkpt>
      <trkpt lat="43.081755" lon="-7.169948">
        <ele>722.064</ele>
        <time>1999-07-25T12:34:02Z</time>
      </trkpt>
      <trkpt lat="43.081695" lon="-7.170004">
        <ele>721.280</ele>
        <time>1999-07-25T12:34:03Z</time>
      </trkpt>
      <trkpt lat="43.081628" lon="-7.170071">
        <ele>720.631</ele>
        <time>1999-07-25T12:34:04Z</time>
      </trkpt>
      <trkpt lat="43.081560" lon="-7.170142">
        <ele>719.826</ele>
        <time>1999-07-25T12:34:05Z</time>
      </trkpt>
      <trkpt lat="43.081497" lon="-7.170211">
        <ele>718.616</ele>
        <time>1999-07-25T12:34:06Z</time>
      </trkpt>
      <trkpt lat="43.081371" lon="-7.170324">
        <ele>717.623</ele>
        <time>1999-07-25T12:34:08Z</time>
      </trkpt>
      <trkpt lat="43.081248" lon="-7.170422">
        <ele>716.410</ele>
        <time>1999-07-25T12:34:10Z</time>
      </trkpt>
      <trkpt lat="43.081186" lon="-7.170486">
        <ele>715.468</ele>
        <time>1999-07-25T12:34:11Z</time>
      </trkpt>
      <trkpt lat="43.081119" lon="-7.170554">
        <ele>714.445</ele>
        <time>1999-07-25T12:34:12Z</time>
      </trkpt>
      <trkpt lat="43.081059" lon="-7.170615">
        <ele>713.247</ele>
        <time>1999-07-25T12:34:13Z</time>
      </trkpt>
      <trkpt lat="43.081007" lon="-7.170666">
        <ele>712.011</ele>
        <time>1999-07-25T12:34:14Z</time>
      </trkpt>
      <trkpt lat="43.080957" lon="-7.170710">
        <ele>710.808</ele>
        <time>1999-07-25T12:34:15Z</time>
      </trkpt>
      <trkpt lat="43.080921" lon="-7.170735">
        <ele>709.437</ele>
        <time>1999-07-25T12:34:16Z</time>
      </trkpt>
      <trkpt lat="43.080880" lon="-7.170768">
        <ele>708.493</ele>
        <time>1999-07-25T12:34:17Z</time>
      </trkpt>
      <trkpt lat="43.080792" lon="-7.170841">
        <ele>706.484</ele>
        <time>1999-07-25T12:34:19Z</time>
      </trkpt>
      <trkpt lat="43.080732" lon="-7.170888">
        <ele>705.459</ele>
        <time>1999-07-25T12:34:20Z</time>
      </trkpt>
      <trkpt lat="43.080613" lon="-7.170995">
        <ele>703.449</ele>
        <time>1999-07-25T12:34:22Z</time>
      </trkpt>
      <trkpt lat="43.080561" lon="-7.171044">
        <ele>702.066</ele>
        <time>1999-07-25T12:34:23Z</time>
      </trkpt>
      <trkpt lat="43.080479" lon="-7.171128">
        <ele>700.233</ele>
        <time>1999-07-25T12:34:25Z</time>
      </trkpt>
      <trkpt lat="43.080390" lon="-7.171232">
        <ele>699.491</ele>
        <time>1999-07-25T12:34:27Z</time>
      </trkpt>
      <trkpt lat="43.080342" lon="-7.171286">
        <ele>699.241</ele>
        <time>1999-07-25T12:34:28Z</time>
      </trkpt>
      <trkpt lat="43.080242" lon="-7.171383">
        <ele>697.881</ele>
        <time>1999-07-25T12:34:30Z</time>
      </trkpt>
      <trkpt lat="43.080125" lon="-7.171472">
        <ele>696.609</ele>
        <time>1999-07-25T12:34:32Z</time>
      </trkpt>
      <trkpt lat="43.080001" lon="-7.171549">
        <ele>695.608</ele>
        <time>1999-07-25T12:34:34Z</time>
      </trkpt>
      <trkpt lat="43.079893" lon="-7.171607">
        <ele>694.697</ele>
        <time>1999-07-25T12:34:36Z</time>
      </trkpt>
      <trkpt lat="43.079836" lon="-7.171634">
        <ele>694.443</ele>
        <time>1999-07-25T12:34:37Z</time>
      </trkpt>
      <trkpt lat="43.079737" lon="-7.171684">
        <ele>693.854</ele>
        <time>1999-07-25T12:34:39Z</time>
      </trkpt>
      <trkpt lat="43.079684" lon="-7.171704">
        <ele>693.699</ele>
        <time>1999-07-25T12:34:40Z</time>
      </trkpt>
      <trkpt lat="43.079649" lon="-7.171721">
        <ele>693.439</ele>
        <time>1999-07-25T12:34:41Z</time>
      </trkpt>
      <trkpt lat="43.079599" lon="-7.171742">
        <ele>693.096</ele>
        <time>1999-07-25T12:34:42Z</time>
      </trkpt>
      <trkpt lat="43.079516" lon="-7.171812">
        <ele>692.433</ele>
        <time>1999-07-25T12:34:44Z</time>
      </trkpt>
      <trkpt lat="43.079464" lon="-7.171849">
        <ele>692.041</ele>
        <time>1999-07-25T12:34:45Z</time>
      </trkpt>
      <trkpt lat="43.079389" lon="-7.171901">
        <ele>691.496</ele>
        <time>1999-07-25T12:34:46Z</time>
      </trkpt>
      <trkpt lat="43.079320" lon="-7.171965">
        <ele>690.831</ele>
        <time>1999-07-25T12:34:47Z</time>
      </trkpt>
      <trkpt lat="43.079250" lon="-7.172036">
        <ele>690.224</ele>
        <time>1999-07-25T12:34:48Z</time>
      </trkpt>
      <trkpt lat="43.079177" lon="-7.172115">
        <ele>689.808</ele>
        <time>1999-07-25T12:34:49Z</time>
      </trkpt>
      <trkpt lat="43.079107" lon="-7.172203">
        <ele>689.422</ele>
        <time>1999-07-25T12:34:50Z</time>
      </trkpt>
      <trkpt lat="43.078970" lon="-7.172393">
        <ele>689.028</ele>
        <time>1999-07-25T12:34:52Z</time>
      </trkpt>
      <trkpt lat="43.078852" lon="-7.172576">
        <ele>688.869</ele>
        <time>1999-07-25T12:34:54Z</time>
      </trkpt>
      <trkpt lat="43.078742" lon="-7.172706">
        <ele>688.464</ele>
        <time>1999-07-25T12:34:56Z</time>
      </trkpt>
      <trkpt lat="43.078683" lon="-7.172750">
        <ele>688.074</ele>
        <time>1999-07-25T12:34:57Z</time>
      </trkpt>
      <trkpt lat="43.078627" lon="-7.172795">
        <ele>687.661</ele>
        <time>1999-07-25T12:34:58Z</time>
      </trkpt>
      <trkpt lat="43.078576" lon="-7.172848">
        <ele>687.028</ele>
        <time>1999-07-25T12:34:59Z</time>
      </trkpt>
      <trkpt lat="43.078525" lon="-7.172912">
        <ele>686.476</ele>
        <time>1999-07-25T12:35:00Z</time>
      </trkpt>
      <trkpt lat="43.078419" lon="-7.173036">
        <ele>684.862</ele>
        <time>1999-07-25T12:35:02Z</time>
      </trkpt>
      <trkpt lat="43.078300" lon="-7.173157">
        <ele>683.283</ele>
        <time>1999-07-25T12:35:04Z</time>
      </trkpt>
      <trkpt lat="43.078242" lon="-7.173215">
        <ele>681.811</ele>
        <time>1999-07-25T12:35:05Z</time>
      </trkpt>
      <trkpt lat="43.078183" lon="-7.173275">
        <ele>681.408</ele>
        <time>1999-07-25T12:35:06Z</time>
      </trkpt>
      <trkpt lat="43.078126" lon="-7.173337">
        <ele>680.829</ele>
        <time>1999-07-25T12:35:07Z</time>
      </trkpt>
      <trkpt lat="43.077962" lon="-7.173518">
        <ele>679.675</ele>
        <time>1999-07-25T12:35:10Z</time>
      </trkpt>
      <trkpt lat="43.077809" lon="-7.173701">
        <ele>678.866</ele>
        <time>1999-07-25T12:35:13Z</time>
      </trkpt>
      <trkpt lat="43.077760" lon="-7.173759">
        <ele>678.681</ele>
        <time>1999-07-25T12:35:14Z</time>
      </trkpt>
      <trkpt lat="43.077667" lon="-7.173875">
        <ele>678.211</ele>
        <time>1999-07-25T12:35:16Z</time>
      </trkpt>
      <trkpt lat="43.077625" lon="-7.173940">
        <ele>678.478</ele>
        <time>1999-07-25T12:35:17Z</time>
      </trkpt>
      <trkpt lat="43.077564" lon="-7.174091">
        <ele>678.055</ele>
        <time>1999-07-25T12:35:19Z</time>
      </trkpt>
      <trkpt lat="43.077537" lon="-7.174459">
        <ele>677.623</ele>
        <time>1999-07-25T12:35:23Z</time>
      </trkpt>
      <trkpt lat="43.077609" lon="-7.174734">
        <ele>676.827</ele>
        <time>1999-07-25T12:35:26Z</time>
      </trkpt>
      <trkpt lat="43.077636" lon="-7.174824">
        <ele>676.668</ele>
        <time>1999-07-25T12:35:27Z</time>
      </trkpt>
      <trkpt lat="43.077706" lon="-7.175202">
        <ele>675.814</ele>
        <time>1999-07-25T12:35:31Z</time>
      </trkpt>
      <trkpt lat="43.077728" lon="-7.175292">
        <ele>675.408</ele>
        <time>1999-07-25T12:35:32Z</time>
      </trkpt>
      <trkpt lat="43.077793" lon="-7.175535">
        <ele>674.695</ele>
        <time>1999-07-25T12:35:35Z</time>
      </trkpt>
      <trkpt lat="43.077823" lon="-7.175700">
        <ele>674.071</ele>
        <time>1999-07-25T12:35:38Z</time>
      </trkpt>
      <trkpt lat="43.077827" lon="-7.175748">
        <ele>673.812</ele>
        <time>1999-07-25T12:35:39Z</time>
      </trkpt>
      <trkpt lat="43.077842" lon="-7.175843">
        <ele>673.637</ele>
        <time>1999-07-25T12:35:41Z</time>
      </trkpt>
      <trkpt lat="43.077847" lon="-7.175898">
        <ele>673.637</ele>
        <time>1999-07-25T12:35:42Z</time>
      </trkpt>
      <trkpt lat="43.077846" lon="-7.176017">
        <ele>673.244</ele>
        <time>1999-07-25T12:35:44Z</time>
      </trkpt>
      <trkpt lat="43.077846" lon="-7.176073">
        <ele>673.241</ele>
        <time>1999-07-25T12:35:45Z</time>
      </trkpt>
      <trkpt lat="43.077812" lon="-7.176229">
        <ele>672.689</ele>
        <time>1999-07-25T12:35:49Z</time>
      </trkpt>
      <trkpt lat="43.077796" lon="-7.176248">
        <ele>672.279</ele>
        <time>1999-07-25T12:35:53Z</time>
      </trkpt>
      <trkpt lat="43.077854" lon="-7.176240">
        <ele>671.805</ele>
        <time>1999-07-25T12:41:06Z</time>
      </trkpt>
      <trkpt lat="43.077853" lon="-7.176267">
        <ele>671.825</ele>
        <time>1999-07-25T12:41:07Z</time>
      </trkpt>
      <trkpt lat="43.077857" lon="-7.176295">
        <ele>671.808</ele>
        <time>1999-07-25T12:41:08Z</time>
      </trkpt>
      <trkpt lat="43.077840" lon="-7.176515">
        <ele>671.870</ele>
        <time>1999-07-25T12:41:14Z</time>
      </trkpt>
      <trkpt lat="43.077828" lon="-7.176630">
        <ele>671.836</ele>
        <time>1999-07-25T12:41:18Z</time>
      </trkpt>
      <trkpt lat="43.077821" lon="-7.176659">
        <ele>671.857</ele>
        <time>1999-07-25T12:41:19Z</time>
      </trkpt>
      <trkpt lat="43.077816" lon="-7.176737">
        <ele>672.062</ele>
        <time>1999-07-25T12:41:22Z</time>
      </trkpt>
      <trkpt lat="43.077815" lon="-7.176795">
        <ele>672.212</ele>
        <time>1999-07-25T12:41:24Z</time>
      </trkpt>
      <trkpt lat="43.077812" lon="-7.176828">
        <ele>672.469</ele>
        <time>1999-07-25T12:41:25Z</time>
      </trkpt>
      <trkpt lat="43.077813" lon="-7.176892">
        <ele>673.016</ele>
        <time>1999-07-25T12:41:27Z</time>
      </trkpt>
      <trkpt lat="43.077795" lon="-7.176966">
        <ele>673.844</ele>
        <time>1999-07-25T12:41:30Z</time>
      </trkpt>
      <trkpt lat="43.077779" lon="-7.177001">
        <ele>674.248</ele>
        <time>1999-07-25T12:41:32Z</time>
      </trkpt>
      <trkpt lat="43.077769" lon="-7.177022">
        <ele>674.461</ele>
        <time>1999-07-25T12:41:33Z</time>
      </trkpt>
      <trkpt lat="43.077753" lon="-7.177081">
        <ele>675.217</ele>
        <time>1999-07-25T12:41:35Z</time>
      </trkpt>
      <trkpt lat="43.077748" lon="-7.177103">
        <ele>675.408</ele>
        <time>1999-07-25T12:41:36Z</time>
      </trkpt>
      <trkpt lat="43.077727" lon="-7.177141">
        <ele>675.857</ele>
        <time>1999-07-25T12:41:38Z</time>
      </trkpt>
      <trkpt lat="43.077714" lon="-7.177189">
        <ele>676.443</ele>
        <time>1999-07-25T12:41:41Z</time>
      </trkpt>
      <trkpt lat="43.077711" lon="-7.177238">
        <ele>676.824</ele>
        <time>1999-07-25T12:41:44Z</time>
      </trkpt>
      <trkpt lat="43.077651" lon="-7.177379">
        <ele>677.619</ele>
        <time>1999-07-25T12:41:50Z</time>
      </trkpt>
      <trkpt lat="43.077636" lon="-7.177408">
        <ele>677.629</ele>
        <time>1999-07-25T12:41:51Z</time>
      </trkpt>
      <trkpt lat="43.077564" lon="-7.177575">
        <ele>678.676</ele>
        <time>1999-07-25T12:41:57Z</time>
      </trkpt>
      <trkpt lat="43.077548" lon="-7.177606">
        <ele>678.813</ele>
        <time>1999-07-25T12:41:58Z</time>
      </trkpt>
      <trkpt lat="43.077477" lon="-7.177780">
        <ele>680.291</ele>
        <time>1999-07-25T12:42:04Z</time>
      </trkpt>
      <trkpt lat="43.077466" lon="-7.177807">
        <ele>680.417</ele>
        <time>1999-07-25T12:42:05Z</time>
      </trkpt>
      <trkpt lat="43.077420" lon="-7.177915">
        <ele>680.887</ele>
        <time>1999-07-25T12:42:10Z</time>
      </trkpt>
      <trkpt lat="43.077396" lon="-7.177944">
        <ele>681.215</ele>
        <time>1999-07-25T12:42:12Z</time>
      </trkpt>
      <trkpt lat="43.077373" lon="-7.177986">
        <ele>681.808</ele>
        <time>1999-07-25T12:42:15Z</time>
      </trkpt>
      <trkpt lat="43.077346" lon="-7.178000">
        <ele>682.444</ele>
        <time>1999-07-25T12:42:17Z</time>
      </trkpt>
      <trkpt lat="43.077295" lon="-7.177998">
        <ele>683.270</ele>
        <time>1999-07-25T12:42:20Z</time>
      </trkpt>
      <trkpt lat="43.077275" lon="-7.177998">
        <ele>683.661</ele>
        <time>1999-07-25T12:42:21Z</time>
      </trkpt>
      <trkpt lat="43.077194" lon="-7.177982">
        <ele>684.846</ele>
        <time>1999-07-25T12:42:25Z</time>
      </trkpt>
      <trkpt lat="43.077172" lon="-7.177984">
        <ele>685.236</ele>
        <time>1999-07-25T12:42:26Z</time>
      </trkpt>
      <trkpt lat="43.077105" lon="-7.177989">
        <ele>685.813</ele>
        <time>1999-07-25T12:42:29Z</time>
      </trkpt>
      <trkpt lat="43.076992" lon="-7.178039">
        <ele>686.690</ele>
        <time>1999-07-25T12:42:34Z</time>
      </trkpt>
      <trkpt lat="43.076910" lon="-7.178093">
        <ele>687.078</ele>
        <time>1999-07-25T12:42:37Z</time>
      </trkpt>
      <trkpt lat="43.076780" lon="-7.178176">
        <ele>687.282</ele>
        <time>1999-07-25T12:42:41Z</time>
      </trkpt>
      <trkpt lat="43.076697" lon="-7.178188">
        <ele>687.243</ele>
        <time>1999-07-25T12:42:44Z</time>
      </trkpt>
      <trkpt lat="43.076687" lon="-7.178167">
        <ele>687.217</ele>
        <time>1999-07-25T12:42:45Z</time>
      </trkpt>
      <trkpt lat="43.076675" lon="-7.178052">
        <ele>687.208</ele>
        <time>1999-07-25T12:42:49Z</time>
      </trkpt>
      <trkpt lat="43.076673" lon="-7.178026">
        <ele>687.231</ele>
        <time>1999-07-25T12:42:50Z</time>
      </trkpt>
      <trkpt lat="43.076688" lon="-7.177883">
        <ele>687.267</ele>
        <time>1999-07-25T12:42:56Z</time>
      </trkpt>
      <trkpt lat="43.076657" lon="-7.177715">
        <ele>688.068</ele>
        <time>1999-07-25T12:43:01Z</time>
      </trkpt>
      <trkpt lat="43.076642" lon="-7.177689">
        <ele>688.283</ele>
        <time>1999-07-25T12:43:02Z</time>
      </trkpt>
      <trkpt lat="43.076598" lon="-7.177592">
        <ele>688.493</ele>
        <time>1999-07-25T12:43:06Z</time>
      </trkpt>
      <trkpt lat="43.076540" lon="-7.177396">
        <ele>688.450</ele>
        <time>1999-07-25T12:43:12Z</time>
      </trkpt>
      <trkpt lat="43.076505" lon="-7.177313">
        <ele>689.277</ele>
        <time>1999-07-25T12:43:16Z</time>
      </trkpt>
      <trkpt lat="43.076491" lon="-7.177292">
        <ele>689.445</ele>
        <time>1999-07-25T12:43:17Z</time>
      </trkpt>
      <trkpt lat="43.076426" lon="-7.177176">
        <ele>690.253</ele>
        <time>1999-07-25T12:43:22Z</time>
      </trkpt>
      <trkpt lat="43.076395" lon="-7.177112">
        <ele>690.804</ele>
        <time>1999-07-25T12:43:25Z</time>
      </trkpt>
      <trkpt lat="43.076349" lon="-7.177052">
        <ele>691.214</ele>
        <time>1999-07-25T12:43:28Z</time>
      </trkpt>
      <trkpt lat="43.076300" lon="-7.176949">
        <ele>692.208</ele>
        <time>1999-07-25T12:43:32Z</time>
      </trkpt>
      <trkpt lat="43.076289" lon="-7.176925">
        <ele>692.468</ele>
        <time>1999-07-25T12:43:33Z</time>
      </trkpt>
      <trkpt lat="43.076224" lon="-7.176854">
        <ele>693.694</ele>
        <time>1999-07-25T12:43:37Z</time>
      </trkpt>
      <trkpt lat="43.076207" lon="-7.176840">
        <ele>693.815</ele>
        <time>1999-07-25T12:43:38Z</time>
      </trkpt>
      <trkpt lat="43.076096" lon="-7.176734">
        <ele>694.830</ele>
        <time>1999-07-25T12:43:44Z</time>
      </trkpt>
      <trkpt lat="43.075975" lon="-7.176659">
        <ele>696.090</ele>
        <time>1999-07-25T12:43:51Z</time>
      </trkpt>
      <trkpt lat="43.075939" lon="-7.176636">
        <ele>696.267</ele>
        <time>1999-07-25T12:43:53Z</time>
      </trkpt>
      <trkpt lat="43.075851" lon="-7.176550">
        <ele>696.894</ele>
        <time>1999-07-25T12:43:58Z</time>
      </trkpt>
      <trkpt lat="43.075814" lon="-7.176512">
        <ele>697.012</ele>
        <time>1999-07-25T12:44:00Z</time>
      </trkpt>
      <trkpt lat="43.075753" lon="-7.176448">
        <ele>697.634</ele>
        <time>1999-07-25T12:44:04Z</time>
      </trkpt>
      <trkpt lat="43.075730" lon="-7.176442">
        <ele>697.855</ele>
        <time>1999-07-25T12:44:05Z</time>
      </trkpt>
      <trkpt lat="43.075683" lon="-7.176425">
        <ele>698.210</ele>
        <time>1999-07-25T12:44:07Z</time>
      </trkpt>
      <trkpt lat="43.075596" lon="-7.176381">
        <ele>698.808</ele>
        <time>1999-07-25T12:44:11Z</time>
      </trkpt>
      <trkpt lat="43.075508" lon="-7.176364">
        <ele>699.496</ele>
        <time>1999-07-25T12:44:15Z</time>
      </trkpt>
      <trkpt lat="43.075444" lon="-7.176349">
        <ele>700.022</ele>
        <time>1999-07-25T12:44:18Z</time>
      </trkpt>
      <trkpt lat="43.075383" lon="-7.176326">
        <ele>700.463</ele>
        <time>1999-07-25T12:44:21Z</time>
      </trkpt>
      <trkpt lat="43.075273" lon="-7.176288">
        <ele>701.258</ele>
        <time>1999-07-25T12:44:26Z</time>
      </trkpt>
      <trkpt lat="43.075229" lon="-7.176267">
        <ele>701.688</ele>
        <time>1999-07-25T12:44:28Z</time>
      </trkpt>
      <trkpt lat="43.075147" lon="-7.176223">
        <ele>702.235</ele>
        <time>1999-07-25T12:44:32Z</time>
      </trkpt>
      <trkpt lat="43.075079" lon="-7.176190">
        <ele>702.892</ele>
        <time>1999-07-25T12:44:35Z</time>
      </trkpt>
      <trkpt lat="43.074985" lon="-7.176156">
        <ele>703.240</ele>
        <time>1999-07-25T12:44:39Z</time>
      </trkpt>
      <trkpt lat="43.074856" lon="-7.176125">
        <ele>703.891</ele>
        <time>1999-07-25T12:44:44Z</time>
      </trkpt>
      <trkpt lat="43.074814" lon="-7.176126">
        <ele>704.081</ele>
        <time>1999-07-25T12:44:46Z</time>
      </trkpt>
      <trkpt lat="43.074685" lon="-7.176143">
        <ele>704.619</ele>
        <time>1999-07-25T12:44:52Z</time>
      </trkpt>
      <trkpt lat="43.074664" lon="-7.176148">
        <ele>704.808</ele>
        <time>1999-07-25T12:44:53Z</time>
      </trkpt>
      <trkpt lat="43.074576" lon="-7.176164">
        <ele>706.022</ele>
        <time>1999-07-25T12:44:57Z</time>
      </trkpt>
      <trkpt lat="43.074532" lon="-7.176169">
        <ele>706.848</ele>
        <time>1999-07-25T12:44:59Z</time>
      </trkpt>
      <trkpt lat="43.074454" lon="-7.176190">
        <ele>707.419</ele>
        <time>1999-07-25T12:45:02Z</time>
      </trkpt>
      <trkpt lat="43.074350" lon="-7.176233">
        <ele>708.044</ele>
        <time>1999-07-25T12:45:06Z</time>
      </trkpt>
      <trkpt lat="43.074202" lon="-7.176317">
        <ele>708.234</ele>
        <time>1999-07-25T12:45:12Z</time>
      </trkpt>
      <trkpt lat="43.074130" lon="-7.176375">
        <ele>708.491</ele>
        <time>1999-07-25T12:45:15Z</time>
      </trkpt>
      <trkpt lat="43.074082" lon="-7.176458">
        <ele>708.848</ele>
        <time>1999-07-25T12:45:18Z</time>
      </trkpt>
      <trkpt lat="43.073989" lon="-7.176595">
        <ele>709.816</ele>
        <time>1999-07-25T12:45:22Z</time>
      </trkpt>
      <trkpt lat="43.073917" lon="-7.176704">
        <ele>710.238</ele>
        <time>1999-07-25T12:45:25Z</time>
      </trkpt>
      <trkpt lat="43.073733" lon="-7.176968">
        <ele>710.870</ele>
        <time>1999-07-25T12:45:32Z</time>
      </trkpt>
      <trkpt lat="43.073709" lon="-7.177002">
        <ele>710.817</ele>
        <time>1999-07-25T12:45:33Z</time>
      </trkpt>
      <trkpt lat="43.073564" lon="-7.177226">
        <ele>711.208</ele>
        <time>1999-07-25T12:45:39Z</time>
      </trkpt>
      <trkpt lat="43.073465" lon="-7.177524">
        <ele>711.626</ele>
        <time>1999-07-25T12:45:46Z</time>
      </trkpt>
      <trkpt lat="43.073440" lon="-7.177605">
        <ele>712.032</ele>
        <time>1999-07-25T12:45:48Z</time>
      </trkpt>
      <trkpt lat="43.073404" lon="-7.177731">
        <ele>713.283</ele>
        <time>1999-07-25T12:45:52Z</time>
      </trkpt>
      <trkpt lat="43.073394" lon="-7.177754">
        <ele>713.268</ele>
        <time>1999-07-25T12:45:53Z</time>
      </trkpt>
      <trkpt lat="43.073303" lon="-7.177918">
        <ele>714.218</ele>
        <time>1999-07-25T12:45:59Z</time>
      </trkpt>
      <trkpt lat="43.073282" lon="-7.177950">
        <ele>714.475</ele>
        <time>1999-07-25T12:46:00Z</time>
      </trkpt>
      <trkpt lat="43.073187" lon="-7.178120">
        <ele>715.492</ele>
        <time>1999-07-25T12:46:04Z</time>
      </trkpt>
      <trkpt lat="43.073164" lon="-7.178170">
        <ele>715.680</ele>
        <time>1999-07-25T12:46:05Z</time>
      </trkpt>
      <trkpt lat="43.073085" lon="-7.178371">
        <ele>716.426</ele>
        <time>1999-07-25T12:46:10Z</time>
      </trkpt>
      <trkpt lat="43.073048" lon="-7.178444">
        <ele>716.447</ele>
        <time>1999-07-25T12:46:12Z</time>
      </trkpt>
      <trkpt lat="43.072948" lon="-7.178555">
        <ele>716.611</ele>
        <time>1999-07-25T12:46:16Z</time>
      </trkpt>
      <trkpt lat="43.072925" lon="-7.178576">
        <ele>716.808</ele>
        <time>1999-07-25T12:46:17Z</time>
      </trkpt>
      <trkpt lat="43.072803" lon="-7.178688">
        <ele>717.455</ele>
        <time>1999-07-25T12:46:22Z</time>
      </trkpt>
      <trkpt lat="43.072776" lon="-7.178723">
        <ele>717.481</ele>
        <time>1999-07-25T12:46:24Z</time>
      </trkpt>
      <trkpt lat="43.072721" lon="-7.178779">
        <ele>717.812</ele>
        <time>1999-07-25T12:46:27Z</time>
      </trkpt>
      <trkpt lat="43.072702" lon="-7.178801">
        <ele>717.857</ele>
        <time>1999-07-25T12:46:28Z</time>
      </trkpt>
      <trkpt lat="43.072685" lon="-7.178824">
        <ele>718.077</ele>
        <time>1999-07-25T12:46:29Z</time>
      </trkpt>
      <trkpt lat="43.072636" lon="-7.178869">
        <ele>718.654</ele>
        <time>1999-07-25T12:46:32Z</time>
      </trkpt>
      <trkpt lat="43.072607" lon="-7.178921">
        <ele>719.071</ele>
        <time>1999-07-25T12:46:35Z</time>
      </trkpt>
      <trkpt lat="43.072593" lon="-7.178938">
        <ele>719.279</ele>
        <time>1999-07-25T12:46:36Z</time>
      </trkpt>
      <trkpt lat="43.072570" lon="-7.178963">
        <ele>719.895</ele>
        <time>1999-07-25T12:46:38Z</time>
      </trkpt>
      <trkpt lat="43.072529" lon="-7.179002">
        <ele>720.849</ele>
        <time>1999-07-25T12:46:42Z</time>
      </trkpt>
      <trkpt lat="43.072517" lon="-7.179012">
        <ele>721.223</ele>
        <time>1999-07-25T12:46:43Z</time>
      </trkpt>
      <trkpt lat="43.072470" lon="-7.179029">
        <ele>722.008</ele>
        <time>1999-07-25T12:46:46Z</time>
      </trkpt>
      <trkpt lat="43.072435" lon="-7.178991">
        <ele>722.892</ele>
        <time>1999-07-25T12:46:49Z</time>
      </trkpt>
      <trkpt lat="43.072430" lon="-7.178967">
        <ele>723.218</ele>
        <time>1999-07-25T12:46:50Z</time>
      </trkpt>
      <trkpt lat="43.072398" lon="-7.178829">
        <ele>724.059</ele>
        <time>1999-07-25T12:46:54Z</time>
      </trkpt>
      <trkpt lat="43.072362" lon="-7.178741">
        <ele>724.234</ele>
        <time>1999-07-25T12:46:58Z</time>
      </trkpt>
      <trkpt lat="43.072347" lon="-7.178690">
        <ele>724.444</ele>
        <time>1999-07-25T12:47:00Z</time>
      </trkpt>
      <trkpt lat="43.072333" lon="-7.178537">
        <ele>724.441</ele>
        <time>1999-07-25T12:47:04Z</time>
      </trkpt>
      <trkpt lat="43.072280" lon="-7.178393">
        <ele>724.648</ele>
        <time>1999-07-25T12:47:07Z</time>
      </trkpt>
      <trkpt lat="43.072255" lon="-7.178364">
        <ele>724.636</ele>
        <time>1999-07-25T12:47:08Z</time>
      </trkpt>
      <trkpt lat="43.072193" lon="-7.178311">
        <ele>724.694</ele>
        <time>1999-07-25T12:47:12Z</time>
      </trkpt>
      <trkpt lat="43.072172" lon="-7.178285">
        <ele>724.857</ele>
        <time>1999-07-25T12:47:14Z</time>
      </trkpt>
      <trkpt lat="43.072151" lon="-7.178229">
        <ele>725.022</ele>
        <time>1999-07-25T12:47:17Z</time>
      </trkpt>
      <trkpt lat="43.072143" lon="-7.178220">
        <ele>725.208</ele>
        <time>1999-07-25T12:47:18Z</time>
      </trkpt>
      <trkpt lat="43.072140" lon="-7.178214">
        <ele>725.222</ele>
        <time>1999-07-25T12:47:19Z</time>
      </trkpt>
      <trkpt lat="43.072138" lon="-7.178210">
        <ele>725.628</ele>
        <time>1999-07-25T12:47:20Z</time>
      </trkpt>
      <trkpt lat="43.071910" lon="-7.177751">
        <ele>731.899</ele>
        <time>1999-07-25T12:48:18Z</time>
      </trkpt>
      <trkpt lat="43.071904" lon="-7.177727">
        <ele>731.884</ele>
        <time>1999-07-25T12:48:19Z</time>
      </trkpt>
      <trkpt lat="43.071893" lon="-7.177680">
        <ele>731.854</ele>
        <time>1999-07-25T12:48:21Z</time>
      </trkpt>
      <trkpt lat="43.071845" lon="-7.177537">
        <ele>732.231</ele>
        <time>1999-07-25T12:48:27Z</time>
      </trkpt>
      <trkpt lat="43.071787" lon="-7.177335">
        <ele>733.298</ele>
        <time>1999-07-25T12:48:33Z</time>
      </trkpt>
      <trkpt lat="43.071741" lon="-7.177106">
        <ele>733.826</ele>
        <time>1999-07-25T12:48:38Z</time>
      </trkpt>
      <trkpt lat="43.071732" lon="-7.177013">
        <ele>733.873</ele>
        <time>1999-07-25T12:48:40Z</time>
      </trkpt>
      <trkpt lat="43.071711" lon="-7.176875">
        <ele>733.885</ele>
        <time>1999-07-25T12:48:43Z</time>
      </trkpt>
      <trkpt lat="43.071652" lon="-7.176742">
        <ele>733.613</ele>
        <time>1999-07-25T12:48:46Z</time>
      </trkpt>
      <trkpt lat="43.071618" lon="-7.176711">
        <ele>732.808</ele>
        <time>1999-07-25T12:48:47Z</time>
      </trkpt>
      <trkpt lat="43.071582" lon="-7.176684">
        <ele>731.640</ele>
        <time>1999-07-25T12:48:48Z</time>
      </trkpt>
      <trkpt lat="43.071513" lon="-7.176640">
        <ele>730.266</ele>
        <time>1999-07-25T12:48:50Z</time>
      </trkpt>
      <trkpt lat="43.071478" lon="-7.176620">
        <ele>729.427</ele>
        <time>1999-07-25T12:48:51Z</time>
      </trkpt>
      <trkpt lat="43.071447" lon="-7.176595">
        <ele>728.662</ele>
        <time>1999-07-25T12:48:52Z</time>
      </trkpt>
      <trkpt lat="43.071322" lon="-7.176498">
        <ele>727.842</ele>
        <time>1999-07-25T12:48:57Z</time>
      </trkpt>
      <trkpt lat="43.071174" lon="-7.176445">
        <ele>728.249</ele>
        <time>1999-07-25T12:49:04Z</time>
      </trkpt>
      <trkpt lat="43.071067" lon="-7.176406">
        <ele>728.626</ele>
        <time>1999-07-25T12:49:08Z</time>
      </trkpt>
      <trkpt lat="43.071038" lon="-7.176398">
        <ele>728.614</ele>
        <time>1999-07-25T12:49:09Z</time>
      </trkpt>
      <trkpt lat="43.071011" lon="-7.176389">
        <ele>728.864</ele>
        <time>1999-07-25T12:49:10Z</time>
      </trkpt>
      <trkpt lat="43.070874" lon="-7.176349">
        <ele>729.206</ele>
        <time>1999-07-25T12:49:15Z</time>
      </trkpt>
      <trkpt lat="43.070847" lon="-7.176341">
        <ele>729.416</ele>
        <time>1999-07-25T12:49:16Z</time>
      </trkpt>
      <trkpt lat="43.070711" lon="-7.176316">
        <ele>729.808</ele>
        <time>1999-07-25T12:49:21Z</time>
      </trkpt>
      <trkpt lat="43.070622" lon="-7.176317">
        <ele>730.459</ele>
        <time>1999-07-25T12:49:24Z</time>
      </trkpt>
      <trkpt lat="43.070406" lon="-7.176369">
        <ele>730.835</ele>
        <time>1999-07-25T12:49:32Z</time>
      </trkpt>
      <trkpt lat="43.070381" lon="-7.176378">
        <ele>731.036</ele>
        <time>1999-07-25T12:49:33Z</time>
      </trkpt>
      <trkpt lat="43.070300" lon="-7.176414">
        <ele>731.211</ele>
        <time>1999-07-25T12:49:36Z</time>
      </trkpt>
      <trkpt lat="43.070223" lon="-7.176457">
        <ele>731.681</ele>
        <time>1999-07-25T12:49:39Z</time>
      </trkpt>
      <trkpt lat="43.070122" lon="-7.176507">
        <ele>732.088</ele>
        <time>1999-07-25T12:49:43Z</time>
      </trkpt>
      <trkpt lat="43.070052" lon="-7.176534">
        <ele>732.435</ele>
        <time>1999-07-25T12:49:46Z</time>
      </trkpt>
      <trkpt lat="43.069932" lon="-7.176565">
        <ele>733.483</ele>
        <time>1999-07-25T12:49:50Z</time>
      </trkpt>
      <trkpt lat="43.069877" lon="-7.176542">
        <ele>734.017</ele>
        <time>1999-07-25T12:49:52Z</time>
      </trkpt>
      <trkpt lat="43.069803" lon="-7.176430">
        <ele>734.287</ele>
        <time>1999-07-25T12:49:57Z</time>
      </trkpt>
      <trkpt lat="43.069738" lon="-7.176329">
        <ele>734.415</ele>
        <time>1999-07-25T12:50:00Z</time>
      </trkpt>
      <trkpt lat="43.069690" lon="-7.176272">
        <ele>734.408</ele>
        <time>1999-07-25T12:50:02Z</time>
      </trkpt>
      <trkpt lat="43.069668" lon="-7.176242">
        <ele>734.424</ele>
        <time>1999-07-25T12:50:03Z</time>
      </trkpt>
      <trkpt lat="43.069558" lon="-7.176015">
        <ele>734.460</ele>
        <time>1999-07-25T12:50:07Z</time>
      </trkpt>
      <trkpt lat="43.069530" lon="-7.175930">
        <ele>734.441</ele>
        <time>1999-07-25T12:50:08Z</time>
      </trkpt>
      <trkpt lat="43.069456" lon="-7.175690">
        <ele>734.296</ele>
        <time>1999-07-25T12:50:11Z</time>
      </trkpt>
      <trkpt lat="43.069372" lon="-7.175521">
        <ele>734.256</ele>
        <time>1999-07-25T12:50:14Z</time>
      </trkpt>
      <trkpt lat="43.069331" lon="-7.175409">
        <ele>734.093</ele>
        <time>1999-07-25T12:50:16Z</time>
      </trkpt>
      <trkpt lat="43.069317" lon="-7.175354">
        <ele>733.210</ele>
        <time>1999-07-25T12:50:17Z</time>
      </trkpt>
      <trkpt lat="43.069289" lon="-7.175250">
        <ele>731.868</ele>
        <time>1999-07-25T12:50:19Z</time>
      </trkpt>
      <trkpt lat="43.069263" lon="-7.175147">
        <ele>730.097</ele>
        <time>1999-07-25T12:50:21Z</time>
      </trkpt>
      <trkpt lat="43.069260" lon="-7.175107">
        <ele>728.623</ele>
        <time>1999-07-25T12:50:22Z</time>
      </trkpt>
      <trkpt lat="43.069258" lon="-7.175070">
        <ele>727.425</ele>
        <time>1999-07-25T12:50:23Z</time>
      </trkpt>
      <trkpt lat="43.069255" lon="-7.175036">
        <ele>726.408</ele>
        <time>1999-07-25T12:50:24Z</time>
      </trkpt>
      <trkpt lat="43.069249" lon="-7.175004">
        <ele>725.232</ele>
        <time>1999-07-25T12:50:25Z</time>
      </trkpt>
      <trkpt lat="43.069245" lon="-7.174936">
        <ele>723.458</ele>
        <time>1999-07-25T12:50:27Z</time>
      </trkpt>
      <trkpt lat="43.069246" lon="-7.174903">
        <ele>722.229</ele>
        <time>1999-07-25T12:50:28Z</time>
      </trkpt>
      <trkpt lat="43.069250" lon="-7.174870">
        <ele>721.014</ele>
        <time>1999-07-25T12:50:29Z</time>
      </trkpt>
      <trkpt lat="43.069257" lon="-7.174808">
        <ele>719.654</ele>
        <time>1999-07-25T12:50:31Z</time>
      </trkpt>
      <trkpt lat="43.069266" lon="-7.174781">
        <ele>718.651</ele>
        <time>1999-07-25T12:50:33Z</time>
      </trkpt>
      <trkpt lat="43.069268" lon="-7.174779">
        <ele>718.638</ele>
        <time>1999-07-25T12:50:34Z</time>
      </trkpt>
      <trkpt lat="43.069161" lon="-7.174692">
        <ele>718.436</ele>
        <time>1999-07-25T12:53:00Z</time>
      </trkpt>
      <trkpt lat="43.069101" lon="-7.174673">
        <ele>718.435</ele>
        <time>1999-07-25T12:53:02Z</time>
      </trkpt>
      <trkpt lat="43.069032" lon="-7.174627">
        <ele>718.486</ele>
        <time>1999-07-25T12:53:04Z</time>
      </trkpt>
      <trkpt lat="43.068922" lon="-7.174541">
        <ele>719.014</ele>
        <time>1999-07-25T12:53:07Z</time>
      </trkpt>
      <trkpt lat="43.068799" lon="-7.174479">
        <ele>719.408</ele>
        <time>1999-07-25T12:53:10Z</time>
      </trkpt>
      <trkpt lat="43.068755" lon="-7.174470">
        <ele>719.446</ele>
        <time>1999-07-25T12:53:11Z</time>
      </trkpt>
      <trkpt lat="43.068586" lon="-7.174483">
        <ele>719.442</ele>
        <time>1999-07-25T12:53:15Z</time>
      </trkpt>
      <trkpt lat="43.068550" lon="-7.174495">
        <ele>719.443</ele>
        <time>1999-07-25T12:53:16Z</time>
      </trkpt>
      <trkpt lat="43.068376" lon="-7.174621">
        <ele>719.678</ele>
        <time>1999-07-25T12:53:21Z</time>
      </trkpt>
      <trkpt lat="43.068184" lon="-7.174878">
        <ele>719.698</ele>
        <time>1999-07-25T12:53:27Z</time>
      </trkpt>
      <trkpt lat="43.068154" lon="-7.174927">
        <ele>719.635</ele>
        <time>1999-07-25T12:53:28Z</time>
      </trkpt>
      <trkpt lat="43.067975" lon="-7.175286">
        <ele>720.832</ele>
        <time>1999-07-25T12:53:35Z</time>
      </trkpt>
      <trkpt lat="43.067783" lon="-7.175739">
        <ele>721.430</ele>
        <time>1999-07-25T12:53:44Z</time>
      </trkpt>
      <trkpt lat="43.067729" lon="-7.175828">
        <ele>721.871</ele>
        <time>1999-07-25T12:53:46Z</time>
      </trkpt>
      <trkpt lat="43.067668" lon="-7.175910">
        <ele>722.041</ele>
        <time>1999-07-25T12:53:48Z</time>
      </trkpt>
      <trkpt lat="43.067567" lon="-7.176012">
        <ele>722.615</ele>
        <time>1999-07-25T12:53:51Z</time>
      </trkpt>
      <trkpt lat="43.067492" lon="-7.176072">
        <ele>722.608</ele>
        <time>1999-07-25T12:53:53Z</time>
      </trkpt>
      <trkpt lat="43.067411" lon="-7.176117">
        <ele>722.810</ele>
        <time>1999-07-25T12:53:55Z</time>
      </trkpt>
      <trkpt lat="43.067330" lon="-7.176146">
        <ele>723.026</ele>
        <time>1999-07-25T12:53:57Z</time>
      </trkpt>
      <trkpt lat="43.067159" lon="-7.176156">
        <ele>723.637</ele>
        <time>1999-07-25T12:54:01Z</time>
      </trkpt>
      <trkpt lat="43.067117" lon="-7.176143">
        <ele>723.832</ele>
        <time>1999-07-25T12:54:02Z</time>
      </trkpt>
      <trkpt lat="43.067035" lon="-7.176105">
        <ele>724.462</ele>
        <time>1999-07-25T12:54:04Z</time>
      </trkpt>
      <trkpt lat="43.066953" lon="-7.176050">
        <ele>724.669</ele>
        <time>1999-07-25T12:54:06Z</time>
      </trkpt>
      <trkpt lat="43.066880" lon="-7.175979">
        <ele>725.056</ele>
        <time>1999-07-25T12:54:08Z</time>
      </trkpt>
      <trkpt lat="43.066759" lon="-7.175774">
        <ele>725.454</ele>
        <time>1999-07-25T12:54:12Z</time>
      </trkpt>
      <trkpt lat="43.066712" lon="-7.175667">
        <ele>725.662</ele>
        <time>1999-07-25T12:54:14Z</time>
      </trkpt>
      <trkpt lat="43.066694" lon="-7.175611">
        <ele>725.683</ele>
        <time>1999-07-25T12:54:15Z</time>
      </trkpt>
      <trkpt lat="43.066663" lon="-7.175492">
        <ele>726.011</ele>
        <time>1999-07-25T12:54:17Z</time>
      </trkpt>
      <trkpt lat="43.066617" lon="-7.175252">
        <ele>726.408</ele>
        <time>1999-07-25T12:54:21Z</time>
      </trkpt>
      <trkpt lat="43.066592" lon="-7.175008">
        <ele>726.619</ele>
        <time>1999-07-25T12:54:25Z</time>
      </trkpt>
      <trkpt lat="43.066576" lon="-7.174771">
        <ele>727.095</ele>
        <time>1999-07-25T12:54:29Z</time>
      </trkpt>
      <trkpt lat="43.066549" lon="-7.174535">
        <ele>727.256</ele>
        <time>1999-07-25T12:54:33Z</time>
      </trkpt>
      <trkpt lat="43.066483" lon="-7.174328">
        <ele>727.671</ele>
        <time>1999-07-25T12:54:37Z</time>
      </trkpt>
      <trkpt lat="43.066459" lon="-7.174284">
        <ele>727.881</ele>
        <time>1999-07-25T12:54:38Z</time>
      </trkpt>
      <trkpt lat="43.066329" lon="-7.174141">
        <ele>728.288</ele>
        <time>1999-07-25T12:54:42Z</time>
      </trkpt>
      <trkpt lat="43.066171" lon="-7.174049">
        <ele>728.695</ele>
        <time>1999-07-25T12:54:46Z</time>
      </trkpt>
      <trkpt lat="43.066128" lon="-7.174041">
        <ele>728.613</ele>
        <time>1999-07-25T12:54:47Z</time>
      </trkpt>
      <trkpt lat="43.065994" lon="-7.174049">
        <ele>729.222</ele>
        <time>1999-07-25T12:54:50Z</time>
      </trkpt>
      <trkpt lat="43.065950" lon="-7.174060">
        <ele>729.462</ele>
        <time>1999-07-25T12:54:51Z</time>
      </trkpt>
      <trkpt lat="43.065866" lon="-7.174091">
        <ele>729.608</ele>
        <time>1999-07-25T12:54:53Z</time>
      </trkpt>
      <trkpt lat="43.065827" lon="-7.174114">
        <ele>730.008</ele>
        <time>1999-07-25T12:54:54Z</time>
      </trkpt>
      <trkpt lat="43.065694" lon="-7.174251">
        <ele>730.475</ele>
        <time>1999-07-25T12:54:58Z</time>
      </trkpt>
      <trkpt lat="43.065666" lon="-7.174295">
        <ele>730.671</ele>
        <time>1999-07-25T12:54:59Z</time>
      </trkpt>
      <trkpt lat="43.065614" lon="-7.174393">
        <ele>731.282</ele>
        <time>1999-07-25T12:55:01Z</time>
      </trkpt>
      <trkpt lat="43.065495" lon="-7.174643">
        <ele>731.847</ele>
        <time>1999-07-25T12:55:06Z</time>
      </trkpt>
      <trkpt lat="43.065392" lon="-7.174839">
        <ele>732.247</ele>
        <time>1999-07-25T12:55:10Z</time>
      </trkpt>
      <trkpt lat="43.065283" lon="-7.175024">
        <ele>733.074</ele>
        <time>1999-07-25T12:55:14Z</time>
      </trkpt>
      <trkpt lat="43.065126" lon="-7.175221">
        <ele>733.431</ele>
        <time>1999-07-25T12:55:19Z</time>
      </trkpt>
      <trkpt lat="43.065055" lon="-7.175293">
        <ele>733.699</ele>
        <time>1999-07-25T12:55:21Z</time>
      </trkpt>
      <trkpt lat="43.064899" lon="-7.175412">
        <ele>734.287</ele>
        <time>1999-07-25T12:55:25Z</time>
      </trkpt>
      <trkpt lat="43.064769" lon="-7.175478">
        <ele>734.442</ele>
        <time>1999-07-25T12:55:28Z</time>
      </trkpt>
      <trkpt lat="43.064587" lon="-7.175546">
        <ele>734.826</ele>
        <time>1999-07-25T12:55:32Z</time>
      </trkpt>
      <trkpt lat="43.064391" lon="-7.175651">
        <ele>735.008</ele>
        <time>1999-07-25T12:55:36Z</time>
      </trkpt>
      <trkpt lat="43.064251" lon="-7.175772">
        <ele>735.081</ele>
        <time>1999-07-25T12:55:39Z</time>
      </trkpt>
      <trkpt lat="43.064167" lon="-7.175880">
        <ele>735.067</ele>
        <time>1999-07-25T12:55:41Z</time>
      </trkpt>
      <trkpt lat="43.064094" lon="-7.175994">
        <ele>735.068</ele>
        <time>1999-07-25T12:55:43Z</time>
      </trkpt>
      <trkpt lat="43.063949" lon="-7.176215">
        <ele>735.253</ele>
        <time>1999-07-25T12:55:47Z</time>
      </trkpt>
      <trkpt lat="43.063908" lon="-7.176262">
        <ele>735.243</ele>
        <time>1999-07-25T12:55:48Z</time>
      </trkpt>
      <trkpt lat="43.063770" lon="-7.176378">
        <ele>735.230</ele>
        <time>1999-07-25T12:55:51Z</time>
      </trkpt>
      <trkpt lat="43.063719" lon="-7.176407">
        <ele>735.477</ele>
        <time>1999-07-25T12:55:52Z</time>
      </trkpt>
      <trkpt lat="43.063286" lon="-7.176664">
        <ele>736.035</ele>
        <time>1999-07-25T12:56:00Z</time>
      </trkpt>
      <trkpt lat="43.063131" lon="-7.176911">
        <ele>736.087</ele>
        <time>1999-07-25T12:56:04Z</time>
      </trkpt>
      <trkpt lat="43.063068" lon="-7.177240">
        <ele>736.042</ele>
        <time>1999-07-25T12:56:08Z</time>
      </trkpt>
      <trkpt lat="43.063031" lon="-7.177943">
        <ele>736.026</ele>
        <time>1999-07-25T12:56:17Z</time>
      </trkpt>
      <trkpt lat="43.063015" lon="-7.178543">
        <ele>736.408</ele>
        <time>1999-07-25T12:56:25Z</time>
      </trkpt>
      <trkpt lat="43.062955" lon="-7.178898">
        <ele>737.291</ele>
        <time>1999-07-25T12:56:30Z</time>
      </trkpt>
      <trkpt lat="43.062932" lon="-7.178963">
        <ele>737.477</ele>
        <time>1999-07-25T12:56:31Z</time>
      </trkpt>
      <trkpt lat="43.062874" lon="-7.179084">
        <ele>737.618</ele>
        <time>1999-07-25T12:56:33Z</time>
      </trkpt>
      <trkpt lat="43.062838" lon="-7.179142">
        <ele>737.873</ele>
        <time>1999-07-25T12:56:34Z</time>
      </trkpt>
      <trkpt lat="43.062799" lon="-7.179196">
        <ele>737.853</ele>
        <time>1999-07-25T12:56:35Z</time>
      </trkpt>
      <trkpt lat="43.062754" lon="-7.179244">
        <ele>738.050</ele>
        <time>1999-07-25T12:56:36Z</time>
      </trkpt>
      <trkpt lat="43.062605" lon="-7.179355">
        <ele>738.227</ele>
        <time>1999-07-25T12:56:39Z</time>
      </trkpt>
      <trkpt lat="43.062553" lon="-7.179380">
        <ele>738.285</ele>
        <time>1999-07-25T12:56:40Z</time>
      </trkpt>
      <trkpt lat="43.062499" lon="-7.179403">
        <ele>738.222</ele>
        <time>1999-07-25T12:56:41Z</time>
      </trkpt>
      <trkpt lat="43.062448" lon="-7.179420">
        <ele>738.462</ele>
        <time>1999-07-25T12:56:42Z</time>
      </trkpt>
      <trkpt lat="43.062250" lon="-7.179419">
        <ele>738.408</ele>
        <time>1999-07-25T12:56:46Z</time>
      </trkpt>
      <trkpt lat="43.062153" lon="-7.179390">
        <ele>738.608</ele>
        <time>1999-07-25T12:56:48Z</time>
      </trkpt>
      <trkpt lat="43.061963" lon="-7.179316">
        <ele>739.625</ele>
        <time>1999-07-25T12:56:52Z</time>
      </trkpt>
      <trkpt lat="43.061919" lon="-7.179298">
        <ele>739.841</ele>
        <time>1999-07-25T12:56:53Z</time>
      </trkpt>
      <trkpt lat="43.061623" lon="-7.179126">
        <ele>740.872</ele>
        <time>1999-07-25T12:57:00Z</time>
      </trkpt>
      <trkpt lat="43.061543" lon="-7.179081">
        <ele>740.837</ele>
        <time>1999-07-25T12:57:02Z</time>
      </trkpt>
      <trkpt lat="43.061342" lon="-7.178947">
        <ele>741.627</ele>
        <time>1999-07-25T12:57:07Z</time>
      </trkpt>
      <trkpt lat="43.061260" lon="-7.178888">
        <ele>741.844</ele>
        <time>1999-07-25T12:57:09Z</time>
      </trkpt>
      <trkpt lat="43.061104" lon="-7.178763">
        <ele>742.441</ele>
        <time>1999-07-25T12:57:13Z</time>
      </trkpt>
      <trkpt lat="43.060987" lon="-7.178676">
        <ele>742.819</ele>
        <time>1999-07-25T12:57:16Z</time>
      </trkpt>
      <trkpt lat="43.060950" lon="-7.178642">
        <ele>743.056</ele>
        <time>1999-07-25T12:57:17Z</time>
      </trkpt>
      <trkpt lat="43.060915" lon="-7.178605">
        <ele>743.259</ele>
        <time>1999-07-25T12:57:18Z</time>
      </trkpt>
      <trkpt lat="43.060823" lon="-7.178478">
        <ele>743.814</ele>
        <time>1999-07-25T12:57:21Z</time>
      </trkpt>
      <trkpt lat="43.060795" lon="-7.178431">
        <ele>744.008</ele>
        <time>1999-07-25T12:57:22Z</time>
      </trkpt>
      <trkpt lat="43.060745" lon="-7.178328">
        <ele>744.268</ele>
        <time>1999-07-25T12:57:24Z</time>
      </trkpt>
      <trkpt lat="43.060650" lon="-7.178039">
        <ele>745.064</ele>
        <time>1999-07-25T12:57:29Z</time>
      </trkpt>
      <trkpt lat="43.060618" lon="-7.177913">
        <ele>745.415</ele>
        <time>1999-07-25T12:57:31Z</time>
      </trkpt>
      <trkpt lat="43.060522" lon="-7.177539">
        <ele>745.830</ele>
        <time>1999-07-25T12:57:37Z</time>
      </trkpt>
      <trkpt lat="43.060443" lon="-7.177302">
        <ele>745.880</ele>
        <time>1999-07-25T12:57:41Z</time>
      </trkpt>
      <trkpt lat="43.060418" lon="-7.177245">
        <ele>746.087</ele>
        <time>1999-07-25T12:57:42Z</time>
      </trkpt>
      <trkpt lat="43.060365" lon="-7.177143">
        <ele>746.244</ele>
        <time>1999-07-25T12:57:44Z</time>
      </trkpt>
      <trkpt lat="43.060284" lon="-7.176999">
        <ele>746.422</ele>
        <time>1999-07-25T12:57:47Z</time>
      </trkpt>
      <trkpt lat="43.060072" lon="-7.176617">
        <ele>747.081</ele>
        <time>1999-07-25T12:57:55Z</time>
      </trkpt>
      <trkpt lat="43.060027" lon="-7.176514">
        <ele>747.461</ele>
        <time>1999-07-25T12:57:57Z</time>
      </trkpt>
      <trkpt lat="43.059911" lon="-7.176244">
        <ele>748.417</ele>
        <time>1999-07-25T12:58:02Z</time>
      </trkpt>
      <trkpt lat="43.059752" lon="-7.175844">
        <ele>749.408</ele>
        <time>1999-07-25T12:58:09Z</time>
      </trkpt>
      <trkpt lat="43.059688" lon="-7.175748">
        <ele>749.641</ele>
        <time>1999-07-25T12:58:11Z</time>
      </trkpt>
      <trkpt lat="43.059579" lon="-7.175637">
        <ele>749.897</ele>
        <time>1999-07-25T12:58:14Z</time>
      </trkpt>
      <trkpt lat="43.059499" lon="-7.175592">
        <ele>750.088</ele>
        <time>1999-07-25T12:58:16Z</time>
      </trkpt>
      <trkpt lat="43.059372" lon="-7.175540">
        <ele>750.233</ele>
        <time>1999-07-25T12:58:19Z</time>
      </trkpt>
      <trkpt lat="43.059251" lon="-7.175539">
        <ele>750.653</ele>
        <time>1999-07-25T12:58:22Z</time>
      </trkpt>
      <trkpt lat="43.059098" lon="-7.175577">
        <ele>751.280</ele>
        <time>1999-07-25T12:58:26Z</time>
      </trkpt>
      <trkpt lat="43.059024" lon="-7.175619">
        <ele>751.647</ele>
        <time>1999-07-25T12:58:28Z</time>
      </trkpt>
      <trkpt lat="43.058989" lon="-7.175645">
        <ele>752.055</ele>
        <time>1999-07-25T12:58:29Z</time>
      </trkpt>
      <trkpt lat="43.058839" lon="-7.175824">
        <ele>752.841</ele>
        <time>1999-07-25T12:58:34Z</time>
      </trkpt>
      <trkpt lat="43.058815" lon="-7.175865">
        <ele>753.081</ele>
        <time>1999-07-25T12:58:35Z</time>
      </trkpt>
      <trkpt lat="43.058697" lon="-7.176127">
        <ele>754.009</ele>
        <time>1999-07-25T12:58:41Z</time>
      </trkpt>
      <trkpt lat="43.058679" lon="-7.176172">
        <ele>754.408</ele>
        <time>1999-07-25T12:58:42Z</time>
      </trkpt>
      <trkpt lat="43.058580" lon="-7.176422">
        <ele>755.277</ele>
        <time>1999-07-25T12:58:48Z</time>
      </trkpt>
      <trkpt lat="43.058562" lon="-7.176460">
        <ele>755.483</ele>
        <time>1999-07-25T12:58:49Z</time>
      </trkpt>
      <trkpt lat="43.058498" lon="-7.176613">
        <ele>756.434</ele>
        <time>1999-07-25T12:58:53Z</time>
      </trkpt>
      <trkpt lat="43.058448" lon="-7.176726">
        <ele>757.279</ele>
        <time>1999-07-25T12:58:56Z</time>
      </trkpt>
      <trkpt lat="43.058413" lon="-7.176802">
        <ele>757.619</ele>
        <time>1999-07-25T12:58:58Z</time>
      </trkpt>
      <trkpt lat="43.058278" lon="-7.176963">
        <ele>758.686</ele>
        <time>1999-07-25T12:59:03Z</time>
      </trkpt>
      <trkpt lat="43.058078" lon="-7.177076">
        <ele>759.833</ele>
        <time>1999-07-25T12:59:09Z</time>
      </trkpt>
      <trkpt lat="43.057876" lon="-7.177084">
        <ele>761.011</ele>
        <time>1999-07-25T12:59:15Z</time>
      </trkpt>
      <trkpt lat="43.057681" lon="-7.176986">
        <ele>762.094</ele>
        <time>1999-07-25T12:59:21Z</time>
      </trkpt>
      <trkpt lat="43.057502" lon="-7.176800">
        <ele>763.257</ele>
        <time>1999-07-25T12:59:27Z</time>
      </trkpt>
      <trkpt lat="43.057475" lon="-7.176772">
        <ele>763.222</ele>
        <time>1999-07-25T12:59:28Z</time>
      </trkpt>
      <trkpt lat="43.057364" lon="-7.176661">
        <ele>764.208</ele>
        <time>1999-07-25T12:59:32Z</time>
      </trkpt>
      <trkpt lat="43.057257" lon="-7.176555">
        <ele>764.812</ele>
        <time>1999-07-25T12:59:36Z</time>
      </trkpt>
      <trkpt lat="43.057181" lon="-7.176470">
        <ele>765.418</ele>
        <time>1999-07-25T12:59:39Z</time>
      </trkpt>
      <trkpt lat="43.057019" lon="-7.176312">
        <ele>766.479</ele>
        <time>1999-07-25T12:59:45Z</time>
      </trkpt>
      <trkpt lat="43.056992" lon="-7.176286">
        <ele>766.674</ele>
        <time>1999-07-25T12:59:46Z</time>
      </trkpt>
      <trkpt lat="43.056778" lon="-7.176131">
        <ele>767.684</ele>
        <time>1999-07-25T12:59:53Z</time>
      </trkpt>
      <trkpt lat="43.056593" lon="-7.176131">
        <ele>768.611</ele>
        <time>1999-07-25T12:59:59Z</time>
      </trkpt>
      <trkpt lat="43.056564" lon="-7.176143">
        <ele>768.878</ele>
        <time>1999-07-25T13:00:00Z</time>
      </trkpt>
      <trkpt lat="43.056437" lon="-7.176251">
        <ele>770.046</ele>
        <time>1999-07-25T13:00:05Z</time>
      </trkpt>
      <trkpt lat="43.056416" lon="-7.176282">
        <ele>770.225</ele>
        <time>1999-07-25T13:00:06Z</time>
      </trkpt>
      <trkpt lat="43.056341" lon="-7.176424">
        <ele>771.226</ele>
        <time>1999-07-25T13:00:10Z</time>
      </trkpt>
      <trkpt lat="43.056306" lon="-7.176546">
        <ele>771.808</ele>
        <time>1999-07-25T13:00:13Z</time>
      </trkpt>
      <trkpt lat="43.056285" lon="-7.176620">
        <ele>772.208</ele>
        <time>1999-07-25T13:00:15Z</time>
      </trkpt>
      <trkpt lat="43.056228" lon="-7.176769">
        <ele>773.695</ele>
        <time>1999-07-25T13:00:19Z</time>
      </trkpt>
      <trkpt lat="43.056208" lon="-7.176804">
        <ele>773.851</ele>
        <time>1999-07-25T13:00:20Z</time>
      </trkpt>
      <trkpt lat="43.056116" lon="-7.176929">
        <ele>774.632</ele>
        <time>1999-07-25T13:00:24Z</time>
      </trkpt>
      <trkpt lat="43.056026" lon="-7.176996">
        <ele>774.887</ele>
        <time>1999-07-25T13:00:27Z</time>
      </trkpt>
      <trkpt lat="43.055857" lon="-7.177048">
        <ele>775.417</ele>
        <time>1999-07-25T13:00:32Z</time>
      </trkpt>
      <trkpt lat="43.055821" lon="-7.177049">
        <ele>775.664</ele>
        <time>1999-07-25T13:00:33Z</time>
      </trkpt>
      <trkpt lat="43.055610" lon="-7.176993">
        <ele>776.491</ele>
        <time>1999-07-25T13:00:39Z</time>
      </trkpt>
      <trkpt lat="43.055578" lon="-7.176977">
        <ele>776.659</ele>
        <time>1999-07-25T13:00:40Z</time>
      </trkpt>
      <trkpt lat="43.055298" lon="-7.176887">
        <ele>777.672</ele>
        <time>1999-07-25T13:00:48Z</time>
      </trkpt>
      <trkpt lat="43.055013" lon="-7.176872">
        <ele>778.613</ele>
        <time>1999-07-25T13:00:56Z</time>
      </trkpt>
      <trkpt lat="43.054979" lon="-7.176879">
        <ele>778.614</ele>
        <time>1999-07-25T13:00:57Z</time>
      </trkpt>
      <trkpt lat="43.054769" lon="-7.176950">
        <ele>779.808</ele>
        <time>1999-07-25T13:01:03Z</time>
      </trkpt>
      <trkpt lat="43.054735" lon="-7.176968">
        <ele>779.810</ele>
        <time>1999-07-25T13:01:04Z</time>
      </trkpt>
      <trkpt lat="43.054532" lon="-7.177093">
        <ele>780.866</ele>
        <time>1999-07-25T13:01:10Z</time>
      </trkpt>
      <trkpt lat="43.054500" lon="-7.177116">
        <ele>781.017</ele>
        <time>1999-07-25T13:01:11Z</time>
      </trkpt>
      <trkpt lat="43.054339" lon="-7.177224">
        <ele>781.872</ele>
        <time>1999-07-25T13:01:16Z</time>
      </trkpt>
      <trkpt lat="43.054223" lon="-7.177333">
        <ele>782.622</ele>
        <time>1999-07-25T13:01:20Z</time>
      </trkpt>
      <trkpt lat="43.054163" lon="-7.177388">
        <ele>783.079</ele>
        <time>1999-07-25T13:01:22Z</time>
      </trkpt>
      <trkpt lat="43.054021" lon="-7.177536">
        <ele>784.036</ele>
        <time>1999-07-25T13:01:27Z</time>
      </trkpt>
      <trkpt lat="43.053994" lon="-7.177566">
        <ele>784.244</ele>
        <time>1999-07-25T13:01:28Z</time>
      </trkpt>
      <trkpt lat="43.053877" lon="-7.177754">
        <ele>785.294</ele>
        <time>1999-07-25T13:01:33Z</time>
      </trkpt>
      <trkpt lat="43.053857" lon="-7.177796">
        <ele>785.457</ele>
        <time>1999-07-25T13:01:34Z</time>
      </trkpt>
      <trkpt lat="43.053783" lon="-7.177963">
        <ele>786.222</ele>
        <time>1999-07-25T13:01:38Z</time>
      </trkpt>
      <trkpt lat="43.053687" lon="-7.178163">
        <ele>787.208</ele>
        <time>1999-07-25T13:01:43Z</time>
      </trkpt>
      <trkpt lat="43.053663" lon="-7.178199">
        <ele>787.452</ele>
        <time>1999-07-25T13:01:44Z</time>
      </trkpt>
      <trkpt lat="43.053520" lon="-7.178334">
        <ele>788.428</ele>
        <time>1999-07-25T13:01:49Z</time>
      </trkpt>
      <trkpt lat="43.053485" lon="-7.178352">
        <ele>788.669</ele>
        <time>1999-07-25T13:01:50Z</time>
      </trkpt>
      <trkpt lat="43.053308" lon="-7.178411">
        <ele>789.484</ele>
        <time>1999-07-25T13:01:55Z</time>
      </trkpt>
      <trkpt lat="43.053200" lon="-7.178416">
        <ele>789.614</ele>
        <time>1999-07-25T13:01:58Z</time>
      </trkpt>
      <trkpt lat="43.053017" lon="-7.178376">
        <ele>790.461</ele>
        <time>1999-07-25T13:02:03Z</time>
      </trkpt>
      <trkpt lat="43.052942" lon="-7.178364">
        <ele>790.858</ele>
        <time>1999-07-25T13:02:05Z</time>
      </trkpt>
      <trkpt lat="43.052796" lon="-7.178323">
        <ele>791.676</ele>
        <time>1999-07-25T13:02:09Z</time>
      </trkpt>
      <trkpt lat="43.052653" lon="-7.178294">
        <ele>792.221</ele>
        <time>1999-07-25T13:02:13Z</time>
      </trkpt>
      <trkpt lat="43.052474" lon="-7.178268">
        <ele>792.641</ele>
        <time>1999-07-25T13:02:18Z</time>
      </trkpt>
      <trkpt lat="43.052402" lon="-7.178272">
        <ele>792.805</ele>
        <time>1999-07-25T13:02:20Z</time>
      </trkpt>
      <trkpt lat="43.052332" lon="-7.178289">
        <ele>792.808</ele>
        <time>1999-07-25T13:02:22Z</time>
      </trkpt>
      <trkpt lat="43.052068" lon="-7.178403">
        <ele>793.865</ele>
        <time>1999-07-25T13:02:30Z</time>
      </trkpt>
      <trkpt lat="43.051877" lon="-7.178484">
        <ele>794.821</ele>
        <time>1999-07-25T13:02:36Z</time>
      </trkpt>
      <trkpt lat="43.051783" lon="-7.178506">
        <ele>795.622</ele>
        <time>1999-07-25T13:02:39Z</time>
      </trkpt>
      <trkpt lat="43.051689" lon="-7.178513">
        <ele>795.887</ele>
        <time>1999-07-25T13:02:42Z</time>
      </trkpt>
      <trkpt lat="43.051537" lon="-7.178548">
        <ele>797.027</ele>
        <time>1999-07-25T13:02:47Z</time>
      </trkpt>
      <trkpt lat="43.051476" lon="-7.178564">
        <ele>797.424</ele>
        <time>1999-07-25T13:02:49Z</time>
      </trkpt>
      <trkpt lat="43.051317" lon="-7.178635">
        <ele>797.841</ele>
        <time>1999-07-25T13:02:54Z</time>
      </trkpt>
      <trkpt lat="43.051258" lon="-7.178696">
        <ele>798.269</ele>
        <time>1999-07-25T13:02:56Z</time>
      </trkpt>
      <trkpt lat="43.051177" lon="-7.178803">
        <ele>798.412</ele>
        <time>1999-07-25T13:02:59Z</time>
      </trkpt>
      <trkpt lat="43.051085" lon="-7.178983">
        <ele>798.832</ele>
        <time>1999-07-25T13:03:03Z</time>
      </trkpt>
      <trkpt lat="43.051005" lon="-7.179241">
        <ele>799.005</ele>
        <time>1999-07-25T13:03:07Z</time>
      </trkpt>
      <trkpt lat="43.050991" lon="-7.179388">
        <ele>799.008</ele>
        <time>1999-07-25T13:03:09Z</time>
      </trkpt>
      <trkpt lat="43.051000" lon="-7.179542">
        <ele>799.074</ele>
        <time>1999-07-25T13:03:11Z</time>
      </trkpt>
      <trkpt lat="43.051032" lon="-7.179787">
        <ele>798.470</ele>
        <time>1999-07-25T13:03:14Z</time>
      </trkpt>
      <trkpt lat="43.051107" lon="-7.180220">
        <ele>797.421</ele>
        <time>1999-07-25T13:03:19Z</time>
      </trkpt>
      <trkpt lat="43.051135" lon="-7.180402">
        <ele>796.896</ele>
        <time>1999-07-25T13:03:21Z</time>
      </trkpt>
      <trkpt lat="43.051187" lon="-7.180751">
        <ele>795.476</ele>
        <time>1999-07-25T13:03:25Z</time>
      </trkpt>
      <trkpt lat="43.051203" lon="-7.180832">
        <ele>795.023</ele>
        <time>1999-07-25T13:03:26Z</time>
      </trkpt>
      <trkpt lat="43.051243" lon="-7.181079">
        <ele>794.670</ele>
        <time>1999-07-25T13:03:29Z</time>
      </trkpt>
      <trkpt lat="43.051273" lon="-7.181248">
        <ele>794.268</ele>
        <time>1999-07-25T13:03:31Z</time>
      </trkpt>
      <trkpt lat="43.051315" lon="-7.181504">
        <ele>794.071</ele>
        <time>1999-07-25T13:03:34Z</time>
      </trkpt>
      <trkpt lat="43.051353" lon="-7.181761">
        <ele>793.841</ele>
        <time>1999-07-25T13:03:37Z</time>
      </trkpt>
      <trkpt lat="43.051356" lon="-7.181853">
        <ele>793.815</ele>
        <time>1999-07-25T13:03:38Z</time>
      </trkpt>
      <trkpt lat="43.051335" lon="-7.182024">
        <ele>793.408</ele>
        <time>1999-07-25T13:03:40Z</time>
      </trkpt>
      <trkpt lat="43.051272" lon="-7.182193">
        <ele>793.260</ele>
        <time>1999-07-25T13:03:42Z</time>
      </trkpt>
      <trkpt lat="43.051176" lon="-7.182361">
        <ele>793.056</ele>
        <time>1999-07-25T13:03:44Z</time>
      </trkpt>
      <trkpt lat="43.051063" lon="-7.182484">
        <ele>792.827</ele>
        <time>1999-07-25T13:03:46Z</time>
      </trkpt>
      <trkpt lat="43.050887" lon="-7.182672">
        <ele>792.852</ele>
        <time>1999-07-25T13:03:49Z</time>
      </trkpt>
      <trkpt lat="43.050822" lon="-7.182731">
        <ele>792.842</ele>
        <time>1999-07-25T13:03:50Z</time>
      </trkpt>
      <trkpt lat="43.050622" lon="-7.182906">
        <ele>792.639</ele>
        <time>1999-07-25T13:03:53Z</time>
      </trkpt>
      <trkpt lat="43.050566" lon="-7.182968">
        <ele>792.476</ele>
        <time>1999-07-25T13:03:54Z</time>
      </trkpt>
      <trkpt lat="43.050498" lon="-7.183153">
        <ele>792.074</ele>
        <time>1999-07-25T13:03:56Z</time>
      </trkpt>
      <trkpt lat="43.050460" lon="-7.183251">
        <ele>791.843</ele>
        <time>1999-07-25T13:03:57Z</time>
      </trkpt>
      <trkpt lat="43.050295" lon="-7.183509">
        <ele>791.264</ele>
        <time>1999-07-25T13:04:00Z</time>
      </trkpt>
      <trkpt lat="43.050235" lon="-7.183595">
        <ele>791.010</ele>
        <time>1999-07-25T13:04:01Z</time>
      </trkpt>
      <trkpt lat="43.050186" lon="-7.183692">
        <ele>790.808</ele>
        <time>1999-07-25T13:04:02Z</time>
      </trkpt>
      <trkpt lat="43.050147" lon="-7.183808">
        <ele>790.497</ele>
        <time>1999-07-25T13:04:03Z</time>
      </trkpt>
      <trkpt lat="43.050118" lon="-7.183924">
        <ele>789.813</ele>
        <time>1999-07-25T13:04:04Z</time>
      </trkpt>
      <trkpt lat="43.050065" lon="-7.184148">
        <ele>788.684</ele>
        <time>1999-07-25T13:04:06Z</time>
      </trkpt>
      <trkpt lat="43.049994" lon="-7.184355">
        <ele>787.439</ele>
        <time>1999-07-25T13:04:08Z</time>
      </trkpt>
      <trkpt lat="43.049824" lon="-7.184658">
        <ele>786.669</ele>
        <time>1999-07-25T13:04:12Z</time>
      </trkpt>
      <trkpt lat="43.049791" lon="-7.184738">
        <ele>786.076</ele>
        <time>1999-07-25T13:04:13Z</time>
      </trkpt>
      <trkpt lat="43.049737" lon="-7.184901">
        <ele>784.613</ele>
        <time>1999-07-25T13:04:15Z</time>
      </trkpt>
      <trkpt lat="43.049713" lon="-7.184973">
        <ele>784.221</ele>
        <time>1999-07-25T13:04:16Z</time>
      </trkpt>
      <trkpt lat="43.049691" lon="-7.185041">
        <ele>783.646</ele>
        <time>1999-07-25T13:04:17Z</time>
      </trkpt>
      <trkpt lat="43.049630" lon="-7.185228">
        <ele>782.288</ele>
        <time>1999-07-25T13:04:20Z</time>
      </trkpt>
      <trkpt lat="43.049598" lon="-7.185341">
        <ele>781.416</ele>
        <time>1999-07-25T13:04:22Z</time>
      </trkpt>
      <trkpt lat="43.049584" lon="-7.185394">
        <ele>781.208</ele>
        <time>1999-07-25T13:04:23Z</time>
      </trkpt>
      <trkpt lat="43.049528" lon="-7.185645">
        <ele>781.057</ele>
        <time>1999-07-25T13:04:28Z</time>
      </trkpt>
      <trkpt lat="43.049476" lon="-7.185822">
        <ele>781.093</ele>
        <time>1999-07-25T13:04:32Z</time>
      </trkpt>
      <trkpt lat="43.049426" lon="-7.185890">
        <ele>781.274</ele>
        <time>1999-07-25T13:04:34Z</time>
      </trkpt>
      <trkpt lat="43.049406" lon="-7.185925">
        <ele>781.299</ele>
        <time>1999-07-25T13:04:35Z</time>
      </trkpt>
      <trkpt lat="43.049379" lon="-7.185999">
        <ele>781.499</ele>
        <time>1999-07-25T13:04:37Z</time>
      </trkpt>
      <trkpt lat="43.049368" lon="-7.186069">
        <ele>781.866</ele>
        <time>1999-07-25T13:04:39Z</time>
      </trkpt>
      <trkpt lat="43.049352" lon="-7.186136">
        <ele>782.633</ele>
        <time>1999-07-25T13:04:41Z</time>
      </trkpt>
      <trkpt lat="43.049338" lon="-7.186155">
        <ele>782.831</ele>
        <time>1999-07-25T13:04:42Z</time>
      </trkpt>
      <trkpt lat="43.049322" lon="-7.186164">
        <ele>783.479</ele>
        <time>1999-07-25T13:04:45Z</time>
      </trkpt>
      <trkpt lat="43.049341" lon="-7.186217">
        <ele>785.205</ele>
        <time>1999-07-25T13:05:52Z</time>
      </trkpt>
      <trkpt lat="43.049345" lon="-7.186244">
        <ele>785.225</ele>
        <time>1999-07-25T13:05:53Z</time>
      </trkpt>
      <trkpt lat="43.049358" lon="-7.186443">
        <ele>785.408</ele>
        <time>1999-07-25T13:05:59Z</time>
      </trkpt>
      <trkpt lat="43.049384" lon="-7.186659">
        <ele>786.470</ele>
        <time>1999-07-25T13:06:06Z</time>
      </trkpt>
      <trkpt lat="43.049391" lon="-7.186690">
        <ele>786.466</ele>
        <time>1999-07-25T13:06:07Z</time>
      </trkpt>
      <trkpt lat="43.049432" lon="-7.186776">
        <ele>787.027</ele>
        <time>1999-07-25T13:06:10Z</time>
      </trkpt>
      <trkpt lat="43.049443" lon="-7.186807">
        <ele>787.422</ele>
        <time>1999-07-25T13:06:11Z</time>
      </trkpt>
      <trkpt lat="43.049460" lon="-7.186872">
        <ele>787.662</ele>
        <time>1999-07-25T13:06:13Z</time>
      </trkpt>
      <trkpt lat="43.049471" lon="-7.186943">
        <ele>787.889</ele>
        <time>1999-07-25T13:06:15Z</time>
      </trkpt>
      <trkpt lat="43.049492" lon="-7.187041">
        <ele>788.666</ele>
        <time>1999-07-25T13:06:18Z</time>
      </trkpt>
      <trkpt lat="43.049503" lon="-7.187107">
        <ele>789.214</ele>
        <time>1999-07-25T13:06:20Z</time>
      </trkpt>
      <trkpt lat="43.049511" lon="-7.187174">
        <ele>789.883</ele>
        <time>1999-07-25T13:06:22Z</time>
      </trkpt>
      <trkpt lat="43.049519" lon="-7.187346">
        <ele>790.625</ele>
        <time>1999-07-25T13:06:27Z</time>
      </trkpt>
      <trkpt lat="43.049518" lon="-7.187379">
        <ele>790.817</ele>
        <time>1999-07-25T13:06:28Z</time>
      </trkpt>
      <trkpt lat="43.049481" lon="-7.187623">
        <ele>791.608</ele>
        <time>1999-07-25T13:06:35Z</time>
      </trkpt>
      <trkpt lat="43.049475" lon="-7.187655">
        <ele>791.851</ele>
        <time>1999-07-25T13:06:36Z</time>
      </trkpt>
      <trkpt lat="43.049430" lon="-7.187820">
        <ele>792.867</ele>
        <time>1999-07-25T13:06:41Z</time>
      </trkpt>
      <trkpt lat="43.049420" lon="-7.187852">
        <ele>793.268</ele>
        <time>1999-07-25T13:06:42Z</time>
      </trkpt>
      <trkpt lat="43.049374" lon="-7.187964">
        <ele>794.233</ele>
        <time>1999-07-25T13:06:46Z</time>
      </trkpt>
      <trkpt lat="43.049298" lon="-7.188101">
        <ele>795.283</ele>
        <time>1999-07-25T13:06:51Z</time>
      </trkpt>
      <trkpt lat="43.049279" lon="-7.188129">
        <ele>795.460</ele>
        <time>1999-07-25T13:06:52Z</time>
      </trkpt>
      <trkpt lat="43.049166" lon="-7.188288">
        <ele>796.477</ele>
        <time>1999-07-25T13:06:58Z</time>
      </trkpt>
      <trkpt lat="43.049071" lon="-7.188415">
        <ele>797.655</ele>
        <time>1999-07-25T13:07:03Z</time>
      </trkpt>
      <trkpt lat="43.049033" lon="-7.188460">
        <ele>798.053</ele>
        <time>1999-07-25T13:07:05Z</time>
      </trkpt>
      <trkpt lat="43.048963" lon="-7.188558">
        <ele>798.604</ele>
        <time>1999-07-25T13:07:09Z</time>
      </trkpt>
      <trkpt lat="43.048905" lon="-7.188628">
        <ele>799.414</ele>
        <time>1999-07-25T13:07:12Z</time>
      </trkpt>
      <trkpt lat="43.048865" lon="-7.188679">
        <ele>799.808</ele>
        <time>1999-07-25T13:07:14Z</time>
      </trkpt>
      <trkpt lat="43.048770" lon="-7.188799">
        <ele>801.068</ele>
        <time>1999-07-25T13:07:19Z</time>
      </trkpt>
      <trkpt lat="43.048749" lon="-7.188827">
        <ele>801.264</ele>
        <time>1999-07-25T13:07:20Z</time>
      </trkpt>
      <trkpt lat="43.048649" lon="-7.188960">
        <ele>802.015</ele>
        <time>1999-07-25T13:07:25Z</time>
      </trkpt>
      <trkpt lat="43.048595" lon="-7.189047">
        <ele>802.660</ele>
        <time>1999-07-25T13:07:28Z</time>
      </trkpt>
      <trkpt lat="43.048542" lon="-7.189136">
        <ele>803.260</ele>
        <time>1999-07-25T13:07:31Z</time>
      </trkpt>
      <trkpt lat="43.048441" lon="-7.189325">
        <ele>804.247</ele>
        <time>1999-07-25T13:07:37Z</time>
      </trkpt>
      <trkpt lat="43.048424" lon="-7.189359">
        <ele>804.274</ele>
        <time>1999-07-25T13:07:38Z</time>
      </trkpt>
      <trkpt lat="43.048351" lon="-7.189526">
        <ele>805.432</ele>
        <time>1999-07-25T13:07:43Z</time>
      </trkpt>
      <trkpt lat="43.048337" lon="-7.189557">
        <ele>805.463</ele>
        <time>1999-07-25T13:07:44Z</time>
      </trkpt>
      <trkpt lat="43.048282" lon="-7.189679">
        <ele>806.244</ele>
        <time>1999-07-25T13:07:48Z</time>
      </trkpt>
      <trkpt lat="43.048241" lon="-7.189803">
        <ele>807.218</ele>
        <time>1999-07-25T13:07:52Z</time>
      </trkpt>
      <trkpt lat="43.048227" lon="-7.189836">
        <ele>807.408</ele>
        <time>1999-07-25T13:07:53Z</time>
      </trkpt>
      <trkpt lat="43.048157" lon="-7.190047">
        <ele>808.639</ele>
        <time>1999-07-25T13:07:59Z</time>
      </trkpt>
      <trkpt lat="43.048144" lon="-7.190083">
        <ele>808.685</ele>
        <time>1999-07-25T13:08:00Z</time>
      </trkpt>
      <trkpt lat="43.048094" lon="-7.190222">
        <ele>809.696</ele>
        <time>1999-07-25T13:08:04Z</time>
      </trkpt>
      <trkpt lat="43.048033" lon="-7.190419">
        <ele>811.071</ele>
        <time>1999-07-25T13:08:10Z</time>
      </trkpt>
      <trkpt lat="43.047966" lon="-7.190592">
        <ele>812.221</ele>
        <time>1999-07-25T13:08:15Z</time>
      </trkpt>
      <trkpt lat="43.047908" lon="-7.190714">
        <ele>813.018</ele>
        <time>1999-07-25T13:08:19Z</time>
      </trkpt>
      <trkpt lat="43.047894" lon="-7.190748">
        <ele>813.235</ele>
        <time>1999-07-25T13:08:20Z</time>
      </trkpt>
      <trkpt lat="43.047802" lon="-7.190934">
        <ele>814.443</ele>
        <time>1999-07-25T13:08:26Z</time>
      </trkpt>
      <trkpt lat="43.047752" lon="-7.191021">
        <ele>815.275</ele>
        <time>1999-07-25T13:08:29Z</time>
      </trkpt>
      <trkpt lat="43.047735" lon="-7.191050">
        <ele>815.428</ele>
        <time>1999-07-25T13:08:30Z</time>
      </trkpt>
      <trkpt lat="43.047642" lon="-7.191190">
        <ele>816.620</ele>
        <time>1999-07-25T13:08:35Z</time>
      </trkpt>
      <trkpt lat="43.047604" lon="-7.191242">
        <ele>816.808</ele>
        <time>1999-07-25T13:08:37Z</time>
      </trkpt>
      <trkpt lat="43.047532" lon="-7.191342">
        <ele>817.630</ele>
        <time>1999-07-25T13:08:41Z</time>
      </trkpt>
      <trkpt lat="43.047454" lon="-7.191454">
        <ele>818.476</ele>
        <time>1999-07-25T13:08:45Z</time>
      </trkpt>
      <trkpt lat="43.047372" lon="-7.191566">
        <ele>819.097</ele>
        <time>1999-07-25T13:08:49Z</time>
      </trkpt>
      <trkpt lat="43.047272" lon="-7.191696">
        <ele>819.812</ele>
        <time>1999-07-25T13:08:54Z</time>
      </trkpt>
      <trkpt lat="43.047253" lon="-7.191724">
        <ele>820.062</ele>
        <time>1999-07-25T13:08:55Z</time>
      </trkpt>
      <trkpt lat="43.047135" lon="-7.191892">
        <ele>821.099</ele>
        <time>1999-07-25T13:09:01Z</time>
      </trkpt>
      <trkpt lat="43.047100" lon="-7.191946">
        <ele>821.226</ele>
        <time>1999-07-25T13:09:03Z</time>
      </trkpt>
      <trkpt lat="43.047023" lon="-7.192055">
        <ele>822.094</ele>
        <time>1999-07-25T13:09:07Z</time>
      </trkpt>
      <trkpt lat="43.046949" lon="-7.192157">
        <ele>823.071</ele>
        <time>1999-07-25T13:09:11Z</time>
      </trkpt>
      <trkpt lat="43.046931" lon="-7.192182">
        <ele>823.241</ele>
        <time>1999-07-25T13:09:12Z</time>
      </trkpt>
      <trkpt lat="43.046842" lon="-7.192320">
        <ele>824.215</ele>
        <time>1999-07-25T13:09:17Z</time>
      </trkpt>
      <trkpt lat="43.046777" lon="-7.192440">
        <ele>825.008</ele>
        <time>1999-07-25T13:09:21Z</time>
      </trkpt>
      <trkpt lat="43.046746" lon="-7.192507">
        <ele>825.230</ele>
        <time>1999-07-25T13:09:23Z</time>
      </trkpt>
      <trkpt lat="43.046666" lon="-7.192716">
        <ele>826.426</ele>
        <time>1999-07-25T13:09:29Z</time>
      </trkpt>
      <trkpt lat="43.046653" lon="-7.192784">
        <ele>826.617</ele>
        <time>1999-07-25T13:09:31Z</time>
      </trkpt>
      <trkpt lat="43.046626" lon="-7.192974">
        <ele>827.422</ele>
        <time>1999-07-25T13:09:36Z</time>
      </trkpt>
      <trkpt lat="43.046620" lon="-7.193091">
        <ele>828.232</ele>
        <time>1999-07-25T13:09:39Z</time>
      </trkpt>
      <trkpt lat="43.046619" lon="-7.193129">
        <ele>828.699</ele>
        <time>1999-07-25T13:09:40Z</time>
      </trkpt>
      <trkpt lat="43.046618" lon="-7.193276">
        <ele>829.656</ele>
        <time>1999-07-25T13:09:44Z</time>
      </trkpt>
      <trkpt lat="43.046632" lon="-7.193385">
        <ele>830.214</ele>
        <time>1999-07-25T13:09:47Z</time>
      </trkpt>
      <trkpt lat="43.046645" lon="-7.193489">
        <ele>830.884</ele>
        <time>1999-07-25T13:09:50Z</time>
      </trkpt>
      <trkpt lat="43.046646" lon="-7.193632">
        <ele>831.807</ele>
        <time>1999-07-25T13:09:54Z</time>
      </trkpt>
      <trkpt lat="43.046646" lon="-7.193669">
        <ele>832.017</ele>
        <time>1999-07-25T13:09:55Z</time>
      </trkpt>
      <trkpt lat="43.046636" lon="-7.193872">
        <ele>833.008</ele>
        <time>1999-07-25T13:10:01Z</time>
      </trkpt>
      <trkpt lat="43.046612" lon="-7.194065">
        <ele>834.211</ele>
        <time>1999-07-25T13:10:07Z</time>
      </trkpt>
      <trkpt lat="43.046596" lon="-7.194130">
        <ele>834.867</ele>
        <time>1999-07-25T13:10:09Z</time>
      </trkpt>
      <trkpt lat="43.046578" lon="-7.194190">
        <ele>835.428</ele>
        <time>1999-07-25T13:10:11Z</time>
      </trkpt>
      <trkpt lat="43.046530" lon="-7.194328">
        <ele>836.473</ele>
        <time>1999-07-25T13:10:16Z</time>
      </trkpt>
      <trkpt lat="43.046518" lon="-7.194358">
        <ele>836.633</ele>
        <time>1999-07-25T13:10:17Z</time>
      </trkpt>
      <trkpt lat="43.046444" lon="-7.194507">
        <ele>837.690</ele>
        <time>1999-07-25T13:10:22Z</time>
      </trkpt>
      <trkpt lat="43.046428" lon="-7.194533">
        <ele>838.057</ele>
        <time>1999-07-25T13:10:23Z</time>
      </trkpt>
      <trkpt lat="43.046352" lon="-7.194644">
        <ele>838.675</ele>
        <time>1999-07-25T13:10:27Z</time>
      </trkpt>
      <trkpt lat="43.046313" lon="-7.194689">
        <ele>839.035</ele>
        <time>1999-07-25T13:10:29Z</time>
      </trkpt>
      <trkpt lat="43.046216" lon="-7.194794">
        <ele>839.886</ele>
        <time>1999-07-25T13:10:34Z</time>
      </trkpt>
      <trkpt lat="43.046173" lon="-7.194833">
        <ele>839.814</ele>
        <time>1999-07-25T13:10:36Z</time>
      </trkpt>
      <trkpt lat="43.046110" lon="-7.194893">
        <ele>841.008</ele>
        <time>1999-07-25T13:10:39Z</time>
      </trkpt>
      <trkpt lat="43.046035" lon="-7.194950">
        <ele>841.476</ele>
        <time>1999-07-25T13:10:42Z</time>
      </trkpt>
      <trkpt lat="43.045897" lon="-7.195011">
        <ele>842.022</ele>
        <time>1999-07-25T13:10:47Z</time>
      </trkpt>
      <trkpt lat="43.045843" lon="-7.195022">
        <ele>842.463</ele>
        <time>1999-07-25T13:10:49Z</time>
      </trkpt>
      <trkpt lat="43.045732" lon="-7.195041">
        <ele>843.088</ele>
        <time>1999-07-25T13:10:53Z</time>
      </trkpt>
      <trkpt lat="43.045620" lon="-7.195056">
        <ele>844.238</ele>
        <time>1999-07-25T13:10:57Z</time>
      </trkpt>
      <trkpt lat="43.045428" lon="-7.195060">
        <ele>845.285</ele>
        <time>1999-07-25T13:11:04Z</time>
      </trkpt>
      <trkpt lat="43.045296" lon="-7.195022">
        <ele>846.632</ele>
        <time>1999-07-25T13:11:09Z</time>
      </trkpt>
      <trkpt lat="43.045209" lon="-7.194994">
        <ele>847.080</ele>
        <time>1999-07-25T13:11:12Z</time>
      </trkpt>
      <trkpt lat="43.045121" lon="-7.194975">
        <ele>847.622</ele>
        <time>1999-07-25T13:11:15Z</time>
      </trkpt>
      <trkpt lat="43.044977" lon="-7.194940">
        <ele>848.462</ele>
        <time>1999-07-25T13:11:20Z</time>
      </trkpt>
      <trkpt lat="43.044895" lon="-7.194921">
        <ele>848.808</ele>
        <time>1999-07-25T13:11:23Z</time>
      </trkpt>
      <trkpt lat="43.044762" lon="-7.194881">
        <ele>849.808</ele>
        <time>1999-07-25T13:11:28Z</time>
      </trkpt>
      <trkpt lat="43.044596" lon="-7.194832">
        <ele>850.885</ele>
        <time>1999-07-25T13:11:34Z</time>
      </trkpt>
      <trkpt lat="43.044537" lon="-7.194815">
        <ele>851.231</ele>
        <time>1999-07-25T13:11:36Z</time>
      </trkpt>
      <trkpt lat="43.044456" lon="-7.194788">
        <ele>852.052</ele>
        <time>1999-07-25T13:11:39Z</time>
      </trkpt>
      <trkpt lat="43.044352" lon="-7.194766">
        <ele>853.217</ele>
        <time>1999-07-25T13:11:43Z</time>
      </trkpt>
      <trkpt lat="43.044301" lon="-7.194753">
        <ele>853.657</ele>
        <time>1999-07-25T13:11:45Z</time>
      </trkpt>
      <trkpt lat="43.044223" lon="-7.194731">
        <ele>854.284</ele>
        <time>1999-07-25T13:11:48Z</time>
      </trkpt>
      <trkpt lat="43.044120" lon="-7.194696">
        <ele>855.231</ele>
        <time>1999-07-25T13:11:52Z</time>
      </trkpt>
      <trkpt lat="43.043961" lon="-7.194646">
        <ele>856.229</ele>
        <time>1999-07-25T13:11:58Z</time>
      </trkpt>
      <trkpt lat="43.043908" lon="-7.194635">
        <ele>856.694</ele>
        <time>1999-07-25T13:12:00Z</time>
      </trkpt>
      <trkpt lat="43.043803" lon="-7.194613">
        <ele>857.457</ele>
        <time>1999-07-25T13:12:04Z</time>
      </trkpt>
      <trkpt lat="43.043679" lon="-7.194582">
        <ele>858.222</ele>
        <time>1999-07-25T13:12:09Z</time>
      </trkpt>
      <trkpt lat="43.043655" lon="-7.194573">
        <ele>858.608</ele>
        <time>1999-07-25T13:12:10Z</time>
      </trkpt>
      <trkpt lat="43.043498" lon="-7.194545">
        <ele>859.632</ele>
        <time>1999-07-25T13:12:16Z</time>
      </trkpt>
      <trkpt lat="43.043473" lon="-7.194539">
        <ele>859.888</ele>
        <time>1999-07-25T13:12:17Z</time>
      </trkpt>
      <trkpt lat="43.043348" lon="-7.194504">
        <ele>860.819</ele>
        <time>1999-07-25T13:12:22Z</time>
      </trkpt>
      <trkpt lat="43.043296" lon="-7.194492">
        <ele>861.214</ele>
        <time>1999-07-25T13:12:24Z</time>
      </trkpt>
      <trkpt lat="43.043244" lon="-7.194478">
        <ele>861.814</ele>
        <time>1999-07-25T13:12:26Z</time>
      </trkpt>
      <trkpt lat="43.043123" lon="-7.194450">
        <ele>862.871</ele>
        <time>1999-07-25T13:12:31Z</time>
      </trkpt>
      <trkpt lat="43.043076" lon="-7.194441">
        <ele>863.248</ele>
        <time>1999-07-25T13:12:33Z</time>
      </trkpt>
      <trkpt lat="43.042952" lon="-7.194423">
        <ele>864.076</ele>
        <time>1999-07-25T13:12:38Z</time>
      </trkpt>
      <trkpt lat="43.042830" lon="-7.194432">
        <ele>865.277</ele>
        <time>1999-07-25T13:12:43Z</time>
      </trkpt>
      <trkpt lat="43.042691" lon="-7.194452">
        <ele>866.261</ele>
        <time>1999-07-25T13:12:49Z</time>
      </trkpt>
      <trkpt lat="43.042555" lon="-7.194500">
        <ele>867.427</ele>
        <time>1999-07-25T13:12:55Z</time>
      </trkpt>
      <trkpt lat="43.042397" lon="-7.194592">
        <ele>868.608</ele>
        <time>1999-07-25T13:13:02Z</time>
      </trkpt>
      <trkpt lat="43.042276" lon="-7.194689">
        <ele>869.890</ele>
        <time>1999-07-25T13:13:08Z</time>
      </trkpt>
      <trkpt lat="43.042256" lon="-7.194702">
        <ele>870.036</ele>
        <time>1999-07-25T13:13:09Z</time>
      </trkpt>
      <trkpt lat="43.042185" lon="-7.194765">
        <ele>871.067</ele>
        <time>1999-07-25T13:13:13Z</time>
      </trkpt>
      <trkpt lat="43.042147" lon="-7.194804">
        <ele>871.262</ele>
        <time>1999-07-25T13:13:15Z</time>
      </trkpt>
      <trkpt lat="43.042073" lon="-7.194885">
        <ele>871.862</ele>
        <time>1999-07-25T13:13:19Z</time>
      </trkpt>
      <trkpt lat="43.042000" lon="-7.194966">
        <ele>872.849</ele>
        <time>1999-07-25T13:13:23Z</time>
      </trkpt>
      <trkpt lat="43.041985" lon="-7.194986">
        <ele>873.076</ele>
        <time>1999-07-25T13:13:24Z</time>
      </trkpt>
      <trkpt lat="43.041877" lon="-7.195121">
        <ele>874.284</ele>
        <time>1999-07-25T13:13:30Z</time>
      </trkpt>
      <trkpt lat="43.041858" lon="-7.195144">
        <ele>874.412</ele>
        <time>1999-07-25T13:13:31Z</time>
      </trkpt>
      <trkpt lat="43.041750" lon="-7.195245">
        <ele>875.432</ele>
        <time>1999-07-25T13:13:36Z</time>
      </trkpt>
      <trkpt lat="43.041706" lon="-7.195272">
        <ele>875.805</ele>
        <time>1999-07-25T13:13:38Z</time>
      </trkpt>
      <trkpt lat="43.041589" lon="-7.195349">
        <ele>876.408</ele>
        <time>1999-07-25T13:13:43Z</time>
      </trkpt>
      <trkpt lat="43.041494" lon="-7.195398">
        <ele>877.654</ele>
        <time>1999-07-25T13:13:47Z</time>
      </trkpt>
      <trkpt lat="43.041340" lon="-7.195441">
        <ele>878.650</ele>
        <time>1999-07-25T13:13:53Z</time>
      </trkpt>
      <trkpt lat="43.041312" lon="-7.195445">
        <ele>878.831</ele>
        <time>1999-07-25T13:13:54Z</time>
      </trkpt>
      <trkpt lat="43.041171" lon="-7.195465">
        <ele>879.696</ele>
        <time>1999-07-25T13:13:59Z</time>
      </trkpt>
      <trkpt lat="43.041117" lon="-7.195475">
        <ele>880.256</ele>
        <time>1999-07-25T13:14:01Z</time>
      </trkpt>
      <trkpt lat="43.041065" lon="-7.195486">
        <ele>880.613</ele>
        <time>1999-07-25T13:14:03Z</time>
      </trkpt>
      <trkpt lat="43.040961" lon="-7.195508">
        <ele>881.280</ele>
        <time>1999-07-25T13:14:07Z</time>
      </trkpt>
      <trkpt lat="43.040907" lon="-7.195521">
        <ele>881.898</ele>
        <time>1999-07-25T13:14:09Z</time>
      </trkpt>
      <trkpt lat="43.040746" lon="-7.195566">
        <ele>882.817</ele>
        <time>1999-07-25T13:14:15Z</time>
      </trkpt>
      <trkpt lat="43.040718" lon="-7.195573">
        <ele>882.887</ele>
        <time>1999-07-25T13:14:16Z</time>
      </trkpt>
      <trkpt lat="43.040554" lon="-7.195611">
        <ele>884.015</ele>
        <time>1999-07-25T13:14:22Z</time>
      </trkpt>
      <trkpt lat="43.040497" lon="-7.195620">
        <ele>884.408</ele>
        <time>1999-07-25T13:14:24Z</time>
      </trkpt>
      <trkpt lat="43.040391" lon="-7.195649">
        <ele>885.014</ele>
        <time>1999-07-25T13:14:28Z</time>
      </trkpt>
      <trkpt lat="43.040288" lon="-7.195688">
        <ele>885.660</ele>
        <time>1999-07-25T13:14:32Z</time>
      </trkpt>
      <trkpt lat="43.040239" lon="-7.195712">
        <ele>886.251</ele>
        <time>1999-07-25T13:14:34Z</time>
      </trkpt>
      <trkpt lat="43.040096" lon="-7.195768">
        <ele>887.496</ele>
        <time>1999-07-25T13:14:40Z</time>
      </trkpt>
      <trkpt lat="43.039977" lon="-7.195825">
        <ele>888.496</ele>
        <time>1999-07-25T13:14:45Z</time>
      </trkpt>
      <trkpt lat="43.039907" lon="-7.195858">
        <ele>888.893</ele>
        <time>1999-07-25T13:14:48Z</time>
      </trkpt>
      <trkpt lat="43.039837" lon="-7.195895">
        <ele>889.640</ele>
        <time>1999-07-25T13:14:51Z</time>
      </trkpt>
      <trkpt lat="43.039718" lon="-7.195956">
        <ele>890.818</ele>
        <time>1999-07-25T13:14:56Z</time>
      </trkpt>
      <trkpt lat="43.039594" lon="-7.196023">
        <ele>892.033</ele>
        <time>1999-07-25T13:15:01Z</time>
      </trkpt>
      <trkpt lat="43.039571" lon="-7.196039">
        <ele>892.223</ele>
        <time>1999-07-25T13:15:02Z</time>
      </trkpt>
      <trkpt lat="43.039461" lon="-7.196115">
        <ele>893.015</ele>
        <time>1999-07-25T13:15:07Z</time>
      </trkpt>
      <trkpt lat="43.039394" lon="-7.196153">
        <ele>893.408</ele>
        <time>1999-07-25T13:15:10Z</time>
      </trkpt>
      <trkpt lat="43.039306" lon="-7.196203">
        <ele>894.446</ele>
        <time>1999-07-25T13:15:14Z</time>
      </trkpt>
      <trkpt lat="43.039211" lon="-7.196255">
        <ele>895.252</ele>
        <time>1999-07-25T13:15:18Z</time>
      </trkpt>
      <trkpt lat="43.039186" lon="-7.196270">
        <ele>895.493</ele>
        <time>1999-07-25T13:15:19Z</time>
      </trkpt>
      <trkpt lat="43.039064" lon="-7.196323">
        <ele>896.688</ele>
        <time>1999-07-25T13:15:24Z</time>
      </trkpt>
      <trkpt lat="43.039016" lon="-7.196346">
        <ele>896.898</ele>
        <time>1999-07-25T13:15:26Z</time>
      </trkpt>
      <trkpt lat="43.038945" lon="-7.196376">
        <ele>897.625</ele>
        <time>1999-07-25T13:15:29Z</time>
      </trkpt>
      <trkpt lat="43.038855" lon="-7.196398">
        <ele>898.612</ele>
        <time>1999-07-25T13:15:33Z</time>
      </trkpt>
      <trkpt lat="43.038831" lon="-7.196401">
        <ele>898.840</ele>
        <time>1999-07-25T13:15:34Z</time>
      </trkpt>
      <trkpt lat="43.038733" lon="-7.196424">
        <ele>899.869</ele>
        <time>1999-07-25T13:15:38Z</time>
      </trkpt>
      <trkpt lat="43.038627" lon="-7.196420">
        <ele>900.404</ele>
        <time>1999-07-25T13:15:42Z</time>
      </trkpt>
      <trkpt lat="43.038604" lon="-7.196419">
        <ele>900.824</ele>
        <time>1999-07-25T13:15:43Z</time>
      </trkpt>
      <trkpt lat="43.038436" lon="-7.196408">
        <ele>902.008</ele>
        <time>1999-07-25T13:15:50Z</time>
      </trkpt>
      <trkpt lat="43.038282" lon="-7.196377">
        <ele>902.869</ele>
        <time>1999-07-25T13:15:56Z</time>
      </trkpt>
      <trkpt lat="43.038255" lon="-7.196368">
        <ele>903.055</ele>
        <time>1999-07-25T13:15:57Z</time>
      </trkpt>
      <trkpt lat="43.038100" lon="-7.196308">
        <ele>904.046</ele>
        <time>1999-07-25T13:16:03Z</time>
      </trkpt>
      <trkpt lat="43.038072" lon="-7.196295">
        <ele>904.031</ele>
        <time>1999-07-25T13:16:04Z</time>
      </trkpt>
      <trkpt lat="43.037866" lon="-7.196208">
        <ele>904.641</ele>
        <time>1999-07-25T13:16:11Z</time>
      </trkpt>
      <trkpt lat="43.037805" lon="-7.196179">
        <ele>905.048</ele>
        <time>1999-07-25T13:16:13Z</time>
      </trkpt>
      <trkpt lat="43.037615" lon="-7.196089">
        <ele>905.895</ele>
        <time>1999-07-25T13:16:19Z</time>
      </trkpt>
      <trkpt lat="43.037478" lon="-7.196004">
        <ele>906.213</ele>
        <time>1999-07-25T13:16:24Z</time>
      </trkpt>
      <trkpt lat="43.037430" lon="-7.195981">
        <ele>906.425</ele>
        <time>1999-07-25T13:16:26Z</time>
      </trkpt>
      <trkpt lat="43.037237" lon="-7.195914">
        <ele>906.626</ele>
        <time>1999-07-25T13:16:32Z</time>
      </trkpt>
      <trkpt lat="43.037126" lon="-7.195866">
        <ele>906.608</ele>
        <time>1999-07-25T13:16:35Z</time>
      </trkpt>
      <trkpt lat="43.037000" lon="-7.195830">
        <ele>906.808</ele>
        <time>1999-07-25T13:16:38Z</time>
      </trkpt>
      <trkpt lat="43.036766" lon="-7.195797">
        <ele>907.275</ele>
        <time>1999-07-25T13:16:43Z</time>
      </trkpt>
      <trkpt lat="43.036661" lon="-7.195790">
        <ele>907.221</ele>
        <time>1999-07-25T13:16:45Z</time>
      </trkpt>
      <trkpt lat="43.036432" lon="-7.195809">
        <ele>907.092</ele>
        <time>1999-07-25T13:16:49Z</time>
      </trkpt>
      <trkpt lat="43.036306" lon="-7.195821">
        <ele>907.017</ele>
        <time>1999-07-25T13:16:51Z</time>
      </trkpt>
      <trkpt lat="43.036109" lon="-7.195923">
        <ele>906.057</ele>
        <time>1999-07-25T13:16:54Z</time>
      </trkpt>
      <trkpt lat="43.036044" lon="-7.195978">
        <ele>905.884</ele>
        <time>1999-07-25T13:16:55Z</time>
      </trkpt>
      <trkpt lat="43.035861" lon="-7.196191">
        <ele>905.081</ele>
        <time>1999-07-25T13:16:58Z</time>
      </trkpt>
      <trkpt lat="43.035609" lon="-7.196512">
        <ele>904.019</ele>
        <time>1999-07-25T13:17:02Z</time>
      </trkpt>
      <trkpt lat="43.035480" lon="-7.196683">
        <ele>903.892</ele>
        <time>1999-07-25T13:17:04Z</time>
      </trkpt>
      <trkpt lat="43.035278" lon="-7.196970">
        <ele>902.673</ele>
        <time>1999-07-25T13:17:07Z</time>
      </trkpt>
      <trkpt lat="43.035085" lon="-7.197319">
        <ele>901.420</ele>
        <time>1999-07-25T13:17:10Z</time>
      </trkpt>
      <trkpt lat="43.035026" lon="-7.197447">
        <ele>900.208</ele>
        <time>1999-07-25T13:17:11Z</time>
      </trkpt>
      <trkpt lat="43.034973" lon="-7.197579">
        <ele>899.292</ele>
        <time>1999-07-25T13:17:12Z</time>
      </trkpt>
      <trkpt lat="43.034928" lon="-7.197716">
        <ele>898.498</ele>
        <time>1999-07-25T13:17:13Z</time>
      </trkpt>
      <trkpt lat="43.034887" lon="-7.197858">
        <ele>897.839</ele>
        <time>1999-07-25T13:17:14Z</time>
      </trkpt>
      <trkpt lat="43.034850" lon="-7.197999">
        <ele>897.424</ele>
        <time>1999-07-25T13:17:15Z</time>
      </trkpt>
      <trkpt lat="43.034738" lon="-7.198429">
        <ele>895.824</ele>
        <time>1999-07-25T13:17:18Z</time>
      </trkpt>
      <trkpt lat="43.034663" lon="-7.198718">
        <ele>894.071</ele>
        <time>1999-07-25T13:17:20Z</time>
      </trkpt>
      <trkpt lat="43.034627" lon="-7.198865">
        <ele>893.418</ele>
        <time>1999-07-25T13:17:21Z</time>
      </trkpt>
      <trkpt lat="43.034590" lon="-7.199008">
        <ele>892.486</ele>
        <time>1999-07-25T13:17:22Z</time>
      </trkpt>
      <trkpt lat="43.034505" lon="-7.199289">
        <ele>891.042</ele>
        <time>1999-07-25T13:17:24Z</time>
      </trkpt>
      <trkpt lat="43.034451" lon="-7.199421">
        <ele>890.222</ele>
        <time>1999-07-25T13:17:25Z</time>
      </trkpt>
      <trkpt lat="43.034384" lon="-7.199538">
        <ele>889.414</ele>
        <time>1999-07-25T13:17:26Z</time>
      </trkpt>
      <trkpt lat="43.034232" lon="-7.199731">
        <ele>887.808</ele>
        <time>1999-07-25T13:17:28Z</time>
      </trkpt>
      <trkpt lat="43.034087" lon="-7.199887">
        <ele>886.057</ele>
        <time>1999-07-25T13:17:30Z</time>
      </trkpt>
      <trkpt lat="43.033953" lon="-7.200026">
        <ele>884.293</ele>
        <time>1999-07-25T13:17:32Z</time>
      </trkpt>
      <trkpt lat="43.033824" lon="-7.200150">
        <ele>882.834</ele>
        <time>1999-07-25T13:17:34Z</time>
      </trkpt>
      <trkpt lat="43.033757" lon="-7.200195">
        <ele>882.259</ele>
        <time>1999-07-25T13:17:35Z</time>
      </trkpt>
      <trkpt lat="43.033698" lon="-7.200229">
        <ele>881.669</ele>
        <time>1999-07-25T13:17:36Z</time>
      </trkpt>
      <trkpt lat="43.033651" lon="-7.200263">
        <ele>881.236</ele>
        <time>1999-07-25T13:17:37Z</time>
      </trkpt>
      <trkpt lat="43.033613" lon="-7.200297">
        <ele>881.073</ele>
        <time>1999-07-25T13:17:38Z</time>
      </trkpt>
      <trkpt lat="43.033577" lon="-7.200334">
        <ele>880.421</ele>
        <time>1999-07-25T13:17:40Z</time>
      </trkpt>
      <trkpt lat="43.033572" lon="-7.200335">
        <ele>879.638</ele>
        <time>1999-07-25T13:17:41Z</time>
      </trkpt>
      <trkpt lat="43.033572" lon="-7.200332">
        <ele>879.270</ele>
        <time>1999-07-25T13:17:43Z</time>
      </trkpt>
      <trkpt lat="43.033593" lon="-7.200364">
        <ele>877.617</ele>
        <time>1999-07-25T13:19:34Z</time>
      </trkpt>
      <trkpt lat="43.033562" lon="-7.200378">
        <ele>877.608</ele>
        <time>1999-07-25T13:19:35Z</time>
      </trkpt>
      <trkpt lat="43.033512" lon="-7.200405">
        <ele>877.666</ele>
        <time>1999-07-25T13:19:37Z</time>
      </trkpt>
      <trkpt lat="43.033339" lon="-7.200552">
        <ele>877.652</ele>
        <time>1999-07-25T13:19:43Z</time>
      </trkpt>
      <trkpt lat="43.033301" lon="-7.200580">
        <ele>877.663</ele>
        <time>1999-07-25T13:19:44Z</time>
      </trkpt>
      <trkpt lat="43.033134" lon="-7.200655">
        <ele>877.678</ele>
        <time>1999-07-25T13:19:48Z</time>
      </trkpt>
      <trkpt lat="43.032965" lon="-7.200646">
        <ele>877.868</ele>
        <time>1999-07-25T13:19:52Z</time>
      </trkpt>
      <trkpt lat="43.032917" lon="-7.200639">
        <ele>877.835</ele>
        <time>1999-07-25T13:19:53Z</time>
      </trkpt>
      <trkpt lat="43.032866" lon="-7.200648">
        <ele>877.842</ele>
        <time>1999-07-25T13:19:54Z</time>
      </trkpt>
      <trkpt lat="43.032767" lon="-7.200705">
        <ele>877.620</ele>
        <time>1999-07-25T13:19:56Z</time>
      </trkpt>
      <trkpt lat="43.032678" lon="-7.200792">
        <ele>877.616</ele>
        <time>1999-07-25T13:19:59Z</time>
      </trkpt>
      <trkpt lat="43.032595" lon="-7.200946">
        <ele>877.276</ele>
        <time>1999-07-25T13:20:04Z</time>
      </trkpt>
      <trkpt lat="43.032572" lon="-7.200998">
        <ele>877.013</ele>
        <time>1999-07-25T13:20:05Z</time>
      </trkpt>
      <trkpt lat="43.032515" lon="-7.201107">
        <ele>876.408</ele>
        <time>1999-07-25T13:20:07Z</time>
      </trkpt>
      <trkpt lat="43.032478" lon="-7.201158">
        <ele>876.614</ele>
        <time>1999-07-25T13:20:08Z</time>
      </trkpt>
      <trkpt lat="43.032437" lon="-7.201203">
        <ele>876.430</ele>
        <time>1999-07-25T13:20:09Z</time>
      </trkpt>
      <trkpt lat="43.032344" lon="-7.201287">
        <ele>876.281</ele>
        <time>1999-07-25T13:20:11Z</time>
      </trkpt>
      <trkpt lat="43.032301" lon="-7.201341">
        <ele>876.036</ele>
        <time>1999-07-25T13:20:12Z</time>
      </trkpt>
      <trkpt lat="43.032233" lon="-7.201465">
        <ele>875.856</ele>
        <time>1999-07-25T13:20:14Z</time>
      </trkpt>
      <trkpt lat="43.032177" lon="-7.201572">
        <ele>875.493</ele>
        <time>1999-07-25T13:20:16Z</time>
      </trkpt>
      <trkpt lat="43.032132" lon="-7.201650">
        <ele>874.860</ele>
        <time>1999-07-25T13:20:18Z</time>
      </trkpt>
      <trkpt lat="43.032110" lon="-7.201684">
        <ele>874.458</ele>
        <time>1999-07-25T13:20:19Z</time>
      </trkpt>
      <trkpt lat="43.032015" lon="-7.201781">
        <ele>873.822</ele>
        <time>1999-07-25T13:20:22Z</time>
      </trkpt>
      <trkpt lat="43.031953" lon="-7.201864">
        <ele>873.862</ele>
        <time>1999-07-25T13:20:24Z</time>
      </trkpt>
      <trkpt lat="43.031862" lon="-7.202015">
        <ele>873.808</ele>
        <time>1999-07-25T13:20:27Z</time>
      </trkpt>
      <trkpt lat="43.031698" lon="-7.202307">
        <ele>873.808</ele>
        <time>1999-07-25T13:20:32Z</time>
      </trkpt>
      <trkpt lat="43.031660" lon="-7.202361">
        <ele>873.815</ele>
        <time>1999-07-25T13:20:33Z</time>
      </trkpt>
      <trkpt lat="43.031615" lon="-7.202400">
        <ele>873.881</ele>
        <time>1999-07-25T13:20:34Z</time>
      </trkpt>
      <trkpt lat="43.031475" lon="-7.202455">
        <ele>873.892</ele>
        <time>1999-07-25T13:20:37Z</time>
      </trkpt>
      <trkpt lat="43.031438" lon="-7.202471">
        <ele>873.817</ele>
        <time>1999-07-25T13:20:38Z</time>
      </trkpt>
      <trkpt lat="43.031376" lon="-7.202509">
        <ele>873.897</ele>
        <time>1999-07-25T13:20:40Z</time>
      </trkpt>
      <trkpt lat="43.031304" lon="-7.202592">
        <ele>873.814</ele>
        <time>1999-07-25T13:20:43Z</time>
      </trkpt>
      <trkpt lat="43.031076" lon="-7.202821">
        <ele>874.241</ele>
        <time>1999-07-25T13:20:51Z</time>
      </trkpt>
      <trkpt lat="43.030874" lon="-7.203003">
        <ele>874.229</ele>
        <time>1999-07-25T13:20:57Z</time>
      </trkpt>
      <trkpt lat="43.030803" lon="-7.203076">
        <ele>874.268</ele>
        <time>1999-07-25T13:20:59Z</time>
      </trkpt>
      <trkpt lat="43.030552" lon="-7.203304">
        <ele>873.842</ele>
        <time>1999-07-25T13:21:06Z</time>
      </trkpt>
      <trkpt lat="43.030362" lon="-7.203437">
        <ele>873.826</ele>
        <time>1999-07-25T13:21:11Z</time>
      </trkpt>
      <trkpt lat="43.030242" lon="-7.203534">
        <ele>873.808</ele>
        <time>1999-07-25T13:21:14Z</time>
      </trkpt>
      <trkpt lat="43.030169" lon="-7.203607">
        <ele>874.069</ele>
        <time>1999-07-25T13:21:16Z</time>
      </trkpt>
      <trkpt lat="43.030120" lon="-7.203703">
        <ele>874.025</ele>
        <time>1999-07-25T13:21:18Z</time>
      </trkpt>
      <trkpt lat="43.029970" lon="-7.204041">
        <ele>874.266</ele>
        <time>1999-07-25T13:21:25Z</time>
      </trkpt>
      <trkpt lat="43.029863" lon="-7.204204">
        <ele>874.441</ele>
        <time>1999-07-25T13:21:29Z</time>
      </trkpt>
      <trkpt lat="43.029823" lon="-7.204252">
        <ele>874.261</ele>
        <time>1999-07-25T13:21:31Z</time>
      </trkpt>
      <trkpt lat="43.029811" lon="-7.204256">
        <ele>874.298</ele>
        <time>1999-07-25T13:21:34Z</time>
      </trkpt>
      <trkpt lat="43.029745" lon="-7.204274">
        <ele>872.865</ele>
        <time>1999-07-25T13:24:52Z</time>
      </trkpt>
      <trkpt lat="43.029583" lon="-7.204349">
        <ele>872.833</ele>
        <time>1999-07-25T13:24:57Z</time>
      </trkpt>
      <trkpt lat="43.029203" lon="-7.204475">
        <ele>872.619</ele>
        <time>1999-07-25T13:25:05Z</time>
      </trkpt>
      <trkpt lat="43.028790" lon="-7.204576">
        <ele>872.209</ele>
        <time>1999-07-25T13:25:13Z</time>
      </trkpt>
      <trkpt lat="43.028557" lon="-7.204643">
        <ele>871.819</ele>
        <time>1999-07-25T13:25:17Z</time>
      </trkpt>
      <trkpt lat="43.028489" lon="-7.204666">
        <ele>871.808</ele>
        <time>1999-07-25T13:25:18Z</time>
      </trkpt>
      <trkpt lat="43.028178" lon="-7.204755">
        <ele>870.824</ele>
        <time>1999-07-25T13:25:22Z</time>
      </trkpt>
      <trkpt lat="43.028092" lon="-7.204776">
        <ele>870.680</ele>
        <time>1999-07-25T13:25:23Z</time>
      </trkpt>
      <trkpt lat="43.027828" lon="-7.204868">
        <ele>869.651</ele>
        <time>1999-07-25T13:25:26Z</time>
      </trkpt>
      <trkpt lat="43.027638" lon="-7.204944">
        <ele>868.616</ele>
        <time>1999-07-25T13:25:28Z</time>
      </trkpt>
      <trkpt lat="43.027544" lon="-7.204977">
        <ele>868.266</ele>
        <time>1999-07-25T13:25:29Z</time>
      </trkpt>
      <trkpt lat="43.027287" lon="-7.205050">
        <ele>866.653</ele>
        <time>1999-07-25T13:25:32Z</time>
      </trkpt>
      <trkpt lat="43.027132" lon="-7.205116">
        <ele>865.050</ele>
        <time>1999-07-25T13:25:34Z</time>
      </trkpt>
      <trkpt lat="43.027062" lon="-7.205159">
        <ele>864.088</ele>
        <time>1999-07-25T13:25:35Z</time>
      </trkpt>
      <trkpt lat="43.026996" lon="-7.205199">
        <ele>863.024</ele>
        <time>1999-07-25T13:25:36Z</time>
      </trkpt>
      <trkpt lat="43.026926" lon="-7.205228">
        <ele>862.004</ele>
        <time>1999-07-25T13:25:37Z</time>
      </trkpt>
      <trkpt lat="43.026851" lon="-7.205248">
        <ele>861.414</ele>
        <time>1999-07-25T13:25:38Z</time>
      </trkpt>
      <trkpt lat="43.026696" lon="-7.205268">
        <ele>859.408</ele>
        <time>1999-07-25T13:25:40Z</time>
      </trkpt>
      <trkpt lat="43.026623" lon="-7.205270">
        <ele>858.285</ele>
        <time>1999-07-25T13:25:41Z</time>
      </trkpt>
      <trkpt lat="43.026559" lon="-7.205269">
        <ele>857.041</ele>
        <time>1999-07-25T13:25:42Z</time>
      </trkpt>
      <trkpt lat="43.026432" lon="-7.205271">
        <ele>854.832</ele>
        <time>1999-07-25T13:25:44Z</time>
      </trkpt>
      <trkpt lat="43.026363" lon="-7.205282">
        <ele>853.627</ele>
        <time>1999-07-25T13:25:45Z</time>
      </trkpt>
      <trkpt lat="43.026293" lon="-7.205300">
        <ele>852.667</ele>
        <time>1999-07-25T13:25:46Z</time>
      </trkpt>
      <trkpt lat="43.026153" lon="-7.205360">
        <ele>851.024</ele>
        <time>1999-07-25T13:25:48Z</time>
      </trkpt>
      <trkpt lat="43.026056" lon="-7.205494">
        <ele>848.241</ele>
        <time>1999-07-25T13:25:50Z</time>
      </trkpt>
      <trkpt lat="43.026030" lon="-7.205583">
        <ele>847.259</ele>
        <time>1999-07-25T13:25:51Z</time>
      </trkpt>
      <trkpt lat="43.026007" lon="-7.205774">
        <ele>845.656</ele>
        <time>1999-07-25T13:25:53Z</time>
      </trkpt>
      <trkpt lat="43.026002" lon="-7.205877">
        <ele>845.259</ele>
        <time>1999-07-25T13:25:54Z</time>
      </trkpt>
      <trkpt lat="43.025995" lon="-7.205978">
        <ele>844.414</ele>
        <time>1999-07-25T13:25:55Z</time>
      </trkpt>
      <trkpt lat="43.025975" lon="-7.206172">
        <ele>843.008</ele>
        <time>1999-07-25T13:25:57Z</time>
      </trkpt>
      <trkpt lat="43.025952" lon="-7.206252">
        <ele>842.288</ele>
        <time>1999-07-25T13:25:58Z</time>
      </trkpt>
      <trkpt lat="43.025916" lon="-7.206330">
        <ele>841.894</ele>
        <time>1999-07-25T13:25:59Z</time>
      </trkpt>
      <trkpt lat="43.025828" lon="-7.206483">
        <ele>840.645</ele>
        <time>1999-07-25T13:26:01Z</time>
      </trkpt>
      <trkpt lat="43.025788" lon="-7.206568">
        <ele>840.230</ele>
        <time>1999-07-25T13:26:02Z</time>
      </trkpt>
      <trkpt lat="43.025735" lon="-7.206746">
        <ele>838.610</ele>
        <time>1999-07-25T13:26:04Z</time>
      </trkpt>
      <trkpt lat="43.025712" lon="-7.206921">
        <ele>836.497</ele>
        <time>1999-07-25T13:26:06Z</time>
      </trkpt>
      <trkpt lat="43.025699" lon="-7.207085">
        <ele>835.274</ele>
        <time>1999-07-25T13:26:08Z</time>
      </trkpt>
      <trkpt lat="43.025694" lon="-7.207256">
        <ele>834.262</ele>
        <time>1999-07-25T13:26:10Z</time>
      </trkpt>
      <trkpt lat="43.025699" lon="-7.207346">
        <ele>834.051</ele>
        <time>1999-07-25T13:26:11Z</time>
      </trkpt>
      <trkpt lat="43.025703" lon="-7.207440">
        <ele>833.601</ele>
        <time>1999-07-25T13:26:12Z</time>
      </trkpt>
      <trkpt lat="43.025693" lon="-7.207633">
        <ele>833.011</ele>
        <time>1999-07-25T13:26:14Z</time>
      </trkpt>
      <trkpt lat="43.025686" lon="-7.207732">
        <ele>833.008</ele>
        <time>1999-07-25T13:26:15Z</time>
      </trkpt>
      <trkpt lat="43.025663" lon="-7.207939">
        <ele>832.618</ele>
        <time>1999-07-25T13:26:17Z</time>
      </trkpt>
      <trkpt lat="43.025651" lon="-7.208044">
        <ele>832.024</ele>
        <time>1999-07-25T13:26:18Z</time>
      </trkpt>
      <trkpt lat="43.025614" lon="-7.208365">
        <ele>830.815</ele>
        <time>1999-07-25T13:26:21Z</time>
      </trkpt>
      <trkpt lat="43.025574" lon="-7.208701">
        <ele>830.010</ele>
        <time>1999-07-25T13:26:24Z</time>
      </trkpt>
      <trkpt lat="43.025546" lon="-7.208938">
        <ele>829.880</ele>
        <time>1999-07-25T13:26:26Z</time>
      </trkpt>
      <trkpt lat="43.025477" lon="-7.209418">
        <ele>828.487</ele>
        <time>1999-07-25T13:26:30Z</time>
      </trkpt>
      <trkpt lat="43.025452" lon="-7.209532">
        <ele>827.854</ele>
        <time>1999-07-25T13:26:31Z</time>
      </trkpt>
      <trkpt lat="43.025426" lon="-7.209640">
        <ele>827.242</ele>
        <time>1999-07-25T13:26:32Z</time>
      </trkpt>
      <trkpt lat="43.025335" lon="-7.209941">
        <ele>826.248</ele>
        <time>1999-07-25T13:26:35Z</time>
      </trkpt>
      <trkpt lat="43.025302" lon="-7.210030">
        <ele>826.061</ele>
        <time>1999-07-25T13:26:36Z</time>
      </trkpt>
      <trkpt lat="43.025201" lon="-7.210257">
        <ele>825.417</ele>
        <time>1999-07-25T13:26:39Z</time>
      </trkpt>
      <trkpt lat="43.025139" lon="-7.210374">
        <ele>825.208</ele>
        <time>1999-07-25T13:26:41Z</time>
      </trkpt>
      <trkpt lat="43.025047" lon="-7.210524">
        <ele>825.277</ele>
        <time>1999-07-25T13:26:44Z</time>
      </trkpt>
      <trkpt lat="43.024923" lon="-7.210706">
        <ele>825.243</ele>
        <time>1999-07-25T13:26:48Z</time>
      </trkpt>
      <trkpt lat="43.024818" lon="-7.210833">
        <ele>825.244</ele>
        <time>1999-07-25T13:26:51Z</time>
      </trkpt>
      <trkpt lat="43.024719" lon="-7.210943">
        <ele>826.279</ele>
        <time>1999-07-25T13:26:54Z</time>
      </trkpt>
      <trkpt lat="43.024690" lon="-7.210975">
        <ele>826.689</ele>
        <time>1999-07-25T13:26:55Z</time>
      </trkpt>
      <trkpt lat="43.024634" lon="-7.211037">
        <ele>827.216</ele>
        <time>1999-07-25T13:26:57Z</time>
      </trkpt>
      <trkpt lat="43.024577" lon="-7.211094">
        <ele>827.683</ele>
        <time>1999-07-25T13:26:59Z</time>
      </trkpt>
      <trkpt lat="43.024500" lon="-7.211177">
        <ele>828.861</ele>
        <time>1999-07-25T13:27:02Z</time>
      </trkpt>
      <trkpt lat="43.024404" lon="-7.211276">
        <ele>829.854</ele>
        <time>1999-07-25T13:27:06Z</time>
      </trkpt>
      <trkpt lat="43.024310" lon="-7.211389">
        <ele>830.656</ele>
        <time>1999-07-25T13:27:10Z</time>
      </trkpt>
      <trkpt lat="43.024287" lon="-7.211419">
        <ele>830.811</ele>
        <time>1999-07-25T13:27:11Z</time>
      </trkpt>
      <trkpt lat="43.024264" lon="-7.211447">
        <ele>831.008</ele>
        <time>1999-07-25T13:27:12Z</time>
      </trkpt>
      <trkpt lat="43.024196" lon="-7.211525">
        <ele>831.458</ele>
        <time>1999-07-25T13:27:15Z</time>
      </trkpt>
      <trkpt lat="43.024131" lon="-7.211606">
        <ele>832.274</ele>
        <time>1999-07-25T13:27:18Z</time>
      </trkpt>
      <trkpt lat="43.024085" lon="-7.211663">
        <ele>832.675</ele>
        <time>1999-07-25T13:27:20Z</time>
      </trkpt>
      <trkpt lat="43.024021" lon="-7.211749">
        <ele>833.210</ele>
        <time>1999-07-25T13:27:23Z</time>
      </trkpt>
      <trkpt lat="43.023909" lon="-7.211918">
        <ele>834.430</ele>
        <time>1999-07-25T13:27:29Z</time>
      </trkpt>
      <trkpt lat="43.023821" lon="-7.212073">
        <ele>835.687</ele>
        <time>1999-07-25T13:27:34Z</time>
      </trkpt>
      <trkpt lat="43.023768" lon="-7.212174">
        <ele>836.634</ele>
        <time>1999-07-25T13:27:37Z</time>
      </trkpt>
      <trkpt lat="43.023751" lon="-7.212208">
        <ele>836.882</ele>
        <time>1999-07-25T13:27:38Z</time>
      </trkpt>
      <trkpt lat="43.023652" lon="-7.212455">
        <ele>837.857</ele>
        <time>1999-07-25T13:27:45Z</time>
      </trkpt>
      <trkpt lat="43.023617" lon="-7.212567">
        <ele>838.800</ele>
        <time>1999-07-25T13:27:48Z</time>
      </trkpt>
      <trkpt lat="43.023607" lon="-7.212606">
        <ele>839.020</ele>
        <time>1999-07-25T13:27:49Z</time>
      </trkpt>
      <trkpt lat="43.023569" lon="-7.212765">
        <ele>840.008</ele>
        <time>1999-07-25T13:27:53Z</time>
      </trkpt>
      <trkpt lat="43.023534" lon="-7.212965">
        <ele>840.618</ele>
        <time>1999-07-25T13:27:58Z</time>
      </trkpt>
      <trkpt lat="43.023508" lon="-7.213206">
        <ele>841.014</ele>
        <time>1999-07-25T13:28:04Z</time>
      </trkpt>
      <trkpt lat="43.023502" lon="-7.213285">
        <ele>841.625</ele>
        <time>1999-07-25T13:28:06Z</time>
      </trkpt>
      <trkpt lat="43.023493" lon="-7.213403">
        <ele>842.630</ele>
        <time>1999-07-25T13:28:09Z</time>
      </trkpt>
      <trkpt lat="43.023483" lon="-7.213603">
        <ele>844.050</ele>
        <time>1999-07-25T13:28:14Z</time>
      </trkpt>
      <trkpt lat="43.023476" lon="-7.213683">
        <ele>844.277</ele>
        <time>1999-07-25T13:28:16Z</time>
      </trkpt>
      <trkpt lat="43.023451" lon="-7.213889">
        <ele>845.224</ele>
        <time>1999-07-25T13:28:21Z</time>
      </trkpt>
      <trkpt lat="43.023429" lon="-7.214008">
        <ele>846.042</ele>
        <time>1999-07-25T13:28:24Z</time>
      </trkpt>
      <trkpt lat="43.023420" lon="-7.214045">
        <ele>846.269</ele>
        <time>1999-07-25T13:28:25Z</time>
      </trkpt>
      <trkpt lat="43.023360" lon="-7.214258">
        <ele>847.404</ele>
        <time>1999-07-25T13:28:31Z</time>
      </trkpt>
      <trkpt lat="43.023347" lon="-7.214293">
        <ele>847.424</ele>
        <time>1999-07-25T13:28:32Z</time>
      </trkpt>
      <trkpt lat="43.023274" lon="-7.214472">
        <ele>848.408</ele>
        <time>1999-07-25T13:28:37Z</time>
      </trkpt>
      <trkpt lat="43.023243" lon="-7.214541">
        <ele>849.029</ele>
        <time>1999-07-25T13:28:39Z</time>
      </trkpt>
      <trkpt lat="43.023208" lon="-7.214609">
        <ele>849.655</ele>
        <time>1999-07-25T13:28:41Z</time>
      </trkpt>
      <trkpt lat="43.023076" lon="-7.214817">
        <ele>850.446</ele>
        <time>1999-07-25T13:28:47Z</time>
      </trkpt>
      <trkpt lat="43.023051" lon="-7.214855">
        <ele>850.831</ele>
        <time>1999-07-25T13:28:48Z</time>
      </trkpt>
      <trkpt lat="43.022810" lon="-7.215231">
        <ele>851.871</ele>
        <time>1999-07-25T13:28:57Z</time>
      </trkpt>
      <trkpt lat="43.022736" lon="-7.215368">
        <ele>852.088</ele>
        <time>1999-07-25T13:29:00Z</time>
      </trkpt>
      <trkpt lat="43.022674" lon="-7.215532">
        <ele>852.095</ele>
        <time>1999-07-25T13:29:03Z</time>
      </trkpt>
      <trkpt lat="43.022608" lon="-7.215729">
        <ele>852.013</ele>
        <time>1999-07-25T13:29:06Z</time>
      </trkpt>
      <trkpt lat="43.022567" lon="-7.215875">
        <ele>852.042</ele>
        <time>1999-07-25T13:29:08Z</time>
      </trkpt>
      <trkpt lat="43.022549" lon="-7.215955">
        <ele>851.822</ele>
        <time>1999-07-25T13:29:09Z</time>
      </trkpt>
      <trkpt lat="43.022514" lon="-7.216127">
        <ele>851.614</ele>
        <time>1999-07-25T13:29:11Z</time>
      </trkpt>
      <trkpt lat="43.022466" lon="-7.216310">
        <ele>851.408</ele>
        <time>1999-07-25T13:29:13Z</time>
      </trkpt>
      <trkpt lat="43.022444" lon="-7.216404">
        <ele>851.097</ele>
        <time>1999-07-25T13:29:14Z</time>
      </trkpt>
      <trkpt lat="43.022430" lon="-7.216502">
        <ele>850.883</ele>
        <time>1999-07-25T13:29:15Z</time>
      </trkpt>
      <trkpt lat="43.022462" lon="-7.216679">
        <ele>850.254</ele>
        <time>1999-07-25T13:29:17Z</time>
      </trkpt>
      <trkpt lat="43.022487" lon="-7.216746">
        <ele>849.889</ele>
        <time>1999-07-25T13:29:18Z</time>
      </trkpt>
      <trkpt lat="43.022511" lon="-7.216794">
        <ele>849.439</ele>
        <time>1999-07-25T13:29:19Z</time>
      </trkpt>
      <trkpt lat="43.022532" lon="-7.216837">
        <ele>849.056</ele>
        <time>1999-07-25T13:29:20Z</time>
      </trkpt>
      <trkpt lat="43.022571" lon="-7.216910">
        <ele>848.443</ele>
        <time>1999-07-25T13:29:22Z</time>
      </trkpt>
      <trkpt lat="43.022589" lon="-7.216945">
        <ele>848.291</ele>
        <time>1999-07-25T13:29:23Z</time>
      </trkpt>
      <trkpt lat="43.022676" lon="-7.217166">
        <ele>847.612</ele>
        <time>1999-07-25T13:29:29Z</time>
      </trkpt>
      <trkpt lat="43.022717" lon="-7.217286">
        <ele>847.632</ele>
        <time>1999-07-25T13:29:32Z</time>
      </trkpt>
      <trkpt lat="43.022797" lon="-7.217451">
        <ele>848.205</ele>
        <time>1999-07-25T13:29:37Z</time>
      </trkpt>
      <trkpt lat="43.022854" lon="-7.217595">
        <ele>848.808</ele>
        <time>1999-07-25T13:29:41Z</time>
      </trkpt>
      <trkpt lat="43.022885" lon="-7.217669">
        <ele>849.234</ele>
        <time>1999-07-25T13:29:43Z</time>
      </trkpt>
      <trkpt lat="43.022928" lon="-7.217737">
        <ele>850.020</ele>
        <time>1999-07-25T13:29:47Z</time>
      </trkpt>
      <trkpt lat="43.022927" lon="-7.217729">
        <ele>850.421</ele>
        <time>1999-07-25T13:29:48Z</time>
      </trkpt>
      <trkpt lat="43.022917" lon="-7.217701">
        <ele>851.086</ele>
        <time>1999-07-25T13:29:50Z</time>
      </trkpt>
      <trkpt lat="43.022903" lon="-7.217645">
        <ele>851.226</ele>
        <time>1999-07-25T13:29:52Z</time>
      </trkpt>
      <trkpt lat="43.022824" lon="-7.217462">
        <ele>851.293</ele>
        <time>1999-07-25T13:29:57Z</time>
      </trkpt>
      <trkpt lat="43.022763" lon="-7.217310">
        <ele>851.250</ele>
        <time>1999-07-25T13:30:00Z</time>
      </trkpt>
      <trkpt lat="43.022737" lon="-7.217253">
        <ele>851.248</ele>
        <time>1999-07-25T13:30:01Z</time>
      </trkpt>
      <trkpt lat="43.022710" lon="-7.217195">
        <ele>851.226</ele>
        <time>1999-07-25T13:30:02Z</time>
      </trkpt>
      <trkpt lat="43.022596" lon="-7.216949">
        <ele>850.847</ele>
        <time>1999-07-25T13:30:06Z</time>
      </trkpt>
      <trkpt lat="43.022548" lon="-7.216840">
        <ele>850.411</ele>
        <time>1999-07-25T13:30:08Z</time>
      </trkpt>
      <trkpt lat="43.022508" lon="-7.216743">
        <ele>850.208</ele>
        <time>1999-07-25T13:30:10Z</time>
      </trkpt>
      <trkpt lat="43.022469" lon="-7.216638">
        <ele>849.695</ele>
        <time>1999-07-25T13:30:13Z</time>
      </trkpt>
      <trkpt lat="43.022460" lon="-7.216613">
        <ele>849.471</ele>
        <time>1999-07-25T13:30:14Z</time>
      </trkpt>
      <trkpt lat="43.022445" lon="-7.216599">
        <ele>849.082</ele>
        <time>1999-07-25T13:30:15Z</time>
      </trkpt>
      <trkpt lat="43.022425" lon="-7.216600">
        <ele>848.447</ele>
        <time>1999-07-25T13:30:16Z</time>
      </trkpt>
      <trkpt lat="43.022405" lon="-7.216624">
        <ele>848.077</ele>
        <time>1999-07-25T13:30:17Z</time>
      </trkpt>
      <trkpt lat="43.022423" lon="-7.216745">
        <ele>846.854</ele>
        <time>1999-07-25T13:30:20Z</time>
      </trkpt>
      <trkpt lat="43.022433" lon="-7.216790">
        <ele>846.611</ele>
        <time>1999-07-25T13:30:21Z</time>
      </trkpt>
      <trkpt lat="43.022449" lon="-7.216920">
        <ele>845.829</ele>
        <time>1999-07-25T13:30:24Z</time>
      </trkpt>
      <trkpt lat="43.022456" lon="-7.217050">
        <ele>845.484</ele>
        <time>1999-07-25T13:30:27Z</time>
      </trkpt>
      <trkpt lat="43.022495" lon="-7.217246">
        <ele>845.207</ele>
        <time>1999-07-25T13:30:32Z</time>
      </trkpt>
      <trkpt lat="43.022504" lon="-7.217288">
        <ele>845.217</ele>
        <time>1999-07-25T13:30:33Z</time>
      </trkpt>
      <trkpt lat="43.022542" lon="-7.217574">
        <ele>845.208</ele>
        <time>1999-07-25T13:30:39Z</time>
      </trkpt>
      <trkpt lat="43.022561" lon="-7.217729">
        <ele>845.241</ele>
        <time>1999-07-25T13:30:42Z</time>
      </trkpt>
      <trkpt lat="43.022575" lon="-7.217890">
        <ele>845.237</ele>
        <time>1999-07-25T13:30:45Z</time>
      </trkpt>
      <trkpt lat="43.022567" lon="-7.218253">
        <ele>845.498</ele>
        <time>1999-07-25T13:30:52Z</time>
      </trkpt>
      <trkpt lat="43.022523" lon="-7.218470">
        <ele>845.643</ele>
        <time>1999-07-25T13:30:57Z</time>
      </trkpt>
      <trkpt lat="43.022462" lon="-7.218723">
        <ele>845.633</ele>
        <time>1999-07-25T13:31:02Z</time>
      </trkpt>
      <trkpt lat="43.022374" lon="-7.219020">
        <ele>845.620</ele>
        <time>1999-07-25T13:31:07Z</time>
      </trkpt>
      <trkpt lat="43.022274" lon="-7.219316">
        <ele>845.637</ele>
        <time>1999-07-25T13:31:12Z</time>
      </trkpt>
      <trkpt lat="43.022159" lon="-7.219619">
        <ele>845.675</ele>
        <time>1999-07-25T13:31:17Z</time>
      </trkpt>
      <trkpt lat="43.021953" lon="-7.220061">
        <ele>845.874</ele>
        <time>1999-07-25T13:31:24Z</time>
      </trkpt>
      <trkpt lat="43.021888" lon="-7.220193">
        <ele>846.056</ele>
        <time>1999-07-25T13:31:26Z</time>
      </trkpt>
      <trkpt lat="43.021791" lon="-7.220389">
        <ele>846.021</ele>
        <time>1999-07-25T13:31:29Z</time>
      </trkpt>
      <trkpt lat="43.021762" lon="-7.220456">
        <ele>846.208</ele>
        <time>1999-07-25T13:31:30Z</time>
      </trkpt>
      <trkpt lat="43.021665" lon="-7.220735">
        <ele>846.470</ele>
        <time>1999-07-25T13:31:35Z</time>
      </trkpt>
      <trkpt lat="43.021608" lon="-7.220989">
        <ele>846.416</ele>
        <time>1999-07-25T13:31:40Z</time>
      </trkpt>
      <trkpt lat="43.021599" lon="-7.221149">
        <ele>846.667</ele>
        <time>1999-07-25T13:31:43Z</time>
      </trkpt>
      <trkpt lat="43.021564" lon="-7.221288">
        <ele>847.042</ele>
        <time>1999-07-25T13:31:46Z</time>
      </trkpt>
      <trkpt lat="43.021515" lon="-7.221467">
        <ele>847.852</ele>
        <time>1999-07-25T13:31:49Z</time>
      </trkpt>
      <trkpt lat="43.021483" lon="-7.221653">
        <ele>848.099</ele>
        <time>1999-07-25T13:31:52Z</time>
      </trkpt>
      <trkpt lat="43.021376" lon="-7.222095">
        <ele>848.696</ele>
        <time>1999-07-25T13:31:59Z</time>
      </trkpt>
      <trkpt lat="43.021289" lon="-7.222333">
        <ele>848.674</ele>
        <time>1999-07-25T13:32:03Z</time>
      </trkpt>
      <trkpt lat="43.021259" lon="-7.222441">
        <ele>848.892</ele>
        <time>1999-07-25T13:32:05Z</time>
      </trkpt>
      <trkpt lat="43.021241" lon="-7.222496">
        <ele>849.073</ele>
        <time>1999-07-25T13:32:06Z</time>
      </trkpt>
      <trkpt lat="43.021151" lon="-7.222755">
        <ele>850.020</ele>
        <time>1999-07-25T13:32:11Z</time>
      </trkpt>
      <trkpt lat="43.021088" lon="-7.222989">
        <ele>850.608</ele>
        <time>1999-07-25T13:32:15Z</time>
      </trkpt>
      <trkpt lat="43.021029" lon="-7.223291">
        <ele>851.042</ele>
        <time>1999-07-25T13:32:20Z</time>
      </trkpt>
      <trkpt lat="43.020998" lon="-7.223418">
        <ele>851.018</ele>
        <time>1999-07-25T13:32:22Z</time>
      </trkpt>
      <trkpt lat="43.020984" lon="-7.223558">
        <ele>851.099</ele>
        <time>1999-07-25T13:32:24Z</time>
      </trkpt>
      <trkpt lat="43.020983" lon="-7.223631">
        <ele>851.084</ele>
        <time>1999-07-25T13:32:25Z</time>
      </trkpt>
      <trkpt lat="43.020985" lon="-7.223791">
        <ele>851.094</ele>
        <time>1999-07-25T13:32:27Z</time>
      </trkpt>
      <trkpt lat="43.020961" lon="-7.223968">
        <ele>850.881</ele>
        <time>1999-07-25T13:32:29Z</time>
      </trkpt>
      <trkpt lat="43.020943" lon="-7.224166">
        <ele>850.658</ele>
        <time>1999-07-25T13:32:31Z</time>
      </trkpt>
      <trkpt lat="43.020938" lon="-7.224373">
        <ele>850.286</ele>
        <time>1999-07-25T13:32:33Z</time>
      </trkpt>
      <trkpt lat="43.020933" lon="-7.224589">
        <ele>849.492</ele>
        <time>1999-07-25T13:32:35Z</time>
      </trkpt>
      <trkpt lat="43.020939" lon="-7.224813">
        <ele>848.873</ele>
        <time>1999-07-25T13:32:37Z</time>
      </trkpt>
      <trkpt lat="43.020952" lon="-7.224926">
        <ele>848.620</ele>
        <time>1999-07-25T13:32:38Z</time>
      </trkpt>
      <trkpt lat="43.020994" lon="-7.225146">
        <ele>847.408</ele>
        <time>1999-07-25T13:32:40Z</time>
      </trkpt>
      <trkpt lat="43.021022" lon="-7.225241">
        <ele>847.272</ele>
        <time>1999-07-25T13:32:41Z</time>
      </trkpt>
      <trkpt lat="43.021078" lon="-7.225390">
        <ele>845.898</ele>
        <time>1999-07-25T13:32:43Z</time>
      </trkpt>
      <trkpt lat="43.021124" lon="-7.225490">
        <ele>844.879</ele>
        <time>1999-07-25T13:32:45Z</time>
      </trkpt>
      <trkpt lat="43.021142" lon="-7.225518">
        <ele>844.224</ele>
        <time>1999-07-25T13:32:46Z</time>
      </trkpt>
      <trkpt lat="43.021171" lon="-7.225554">
        <ele>842.894</ele>
        <time>1999-07-25T13:32:48Z</time>
      </trkpt>
      <trkpt lat="43.021183" lon="-7.225565">
        <ele>842.651</ele>
        <time>1999-07-25T13:32:49Z</time>
      </trkpt>
      <trkpt lat="43.021270" lon="-7.225646">
        <ele>842.668</ele>
        <time>1999-07-25T13:32:56Z</time>
      </trkpt>
      <trkpt lat="43.021278" lon="-7.225661">
        <ele>842.636</ele>
        <time>1999-07-25T13:32:57Z</time>
      </trkpt>
      <trkpt lat="43.021284" lon="-7.225680">
        <ele>842.851</ele>
        <time>1999-07-25T13:32:58Z</time>
      </trkpt>
      <trkpt lat="43.021293" lon="-7.225740">
        <ele>843.201</ele>
        <time>1999-07-25T13:33:01Z</time>
      </trkpt>
      <trkpt lat="43.021279" lon="-7.225788">
        <ele>843.611</ele>
        <time>1999-07-25T13:33:03Z</time>
      </trkpt>
      <trkpt lat="43.021269" lon="-7.225814">
        <ele>843.808</ele>
        <time>1999-07-25T13:33:04Z</time>
      </trkpt>
      <trkpt lat="43.021234" lon="-7.225897">
        <ele>845.068</ele>
        <time>1999-07-25T13:33:07Z</time>
      </trkpt>
      <trkpt lat="43.021190" lon="-7.226002">
        <ele>845.674</ele>
        <time>1999-07-25T13:33:10Z</time>
      </trkpt>
      <trkpt lat="43.021161" lon="-7.226076">
        <ele>846.075</ele>
        <time>1999-07-25T13:33:12Z</time>
      </trkpt>
      <trkpt lat="43.021089" lon="-7.226242">
        <ele>846.460</ele>
        <time>1999-07-25T13:33:17Z</time>
      </trkpt>
      <trkpt lat="43.021044" lon="-7.226347">
        <ele>846.880</ele>
        <time>1999-07-25T13:33:20Z</time>
      </trkpt>
      <trkpt lat="43.021016" lon="-7.226416">
        <ele>847.067</ele>
        <time>1999-07-25T13:33:22Z</time>
      </trkpt>
      <trkpt lat="43.020945" lon="-7.226576">
        <ele>848.274</ele>
        <time>1999-07-25T13:33:27Z</time>
      </trkpt>
      <trkpt lat="43.020934" lon="-7.226611">
        <ele>848.482</ele>
        <time>1999-07-25T13:33:28Z</time>
      </trkpt>
      <trkpt lat="43.020870" lon="-7.226761">
        <ele>849.684</ele>
        <time>1999-07-25T13:33:32Z</time>
      </trkpt>
      <trkpt lat="43.020822" lon="-7.226880">
        <ele>850.407</ele>
        <time>1999-07-25T13:33:35Z</time>
      </trkpt>
      <trkpt lat="43.020808" lon="-7.226921">
        <ele>850.617</ele>
        <time>1999-07-25T13:33:36Z</time>
      </trkpt>
      <trkpt lat="43.020709" lon="-7.227204">
        <ele>851.408</ele>
        <time>1999-07-25T13:33:42Z</time>
      </trkpt>
      <trkpt lat="43.020656" lon="-7.227386">
        <ele>851.631</ele>
        <time>1999-07-25T13:33:45Z</time>
      </trkpt>
      <trkpt lat="43.020603" lon="-7.227524">
        <ele>851.677</ele>
        <time>1999-07-25T13:33:47Z</time>
      </trkpt>
      <trkpt lat="43.020516" lon="-7.227791">
        <ele>851.698</ele>
        <time>1999-07-25T13:33:50Z</time>
      </trkpt>
      <trkpt lat="43.020481" lon="-7.227897">
        <ele>851.623</ele>
        <time>1999-07-25T13:33:51Z</time>
      </trkpt>
      <trkpt lat="43.020410" lon="-7.228112">
        <ele>851.213</ele>
        <time>1999-07-25T13:33:53Z</time>
      </trkpt>
      <trkpt lat="43.020338" lon="-7.228329">
        <ele>850.840</ele>
        <time>1999-07-25T13:33:55Z</time>
      </trkpt>
      <trkpt lat="43.020299" lon="-7.228449">
        <ele>850.617</ele>
        <time>1999-07-25T13:33:56Z</time>
      </trkpt>
      <trkpt lat="43.020258" lon="-7.228577">
        <ele>850.085</ele>
        <time>1999-07-25T13:33:57Z</time>
      </trkpt>
      <trkpt lat="43.020213" lon="-7.228708">
        <ele>849.463</ele>
        <time>1999-07-25T13:33:58Z</time>
      </trkpt>
      <trkpt lat="43.020125" lon="-7.228968">
        <ele>848.244</ele>
        <time>1999-07-25T13:34:00Z</time>
      </trkpt>
      <trkpt lat="43.020029" lon="-7.229233">
        <ele>846.618</ele>
        <time>1999-07-25T13:34:02Z</time>
      </trkpt>
      <trkpt lat="43.019984" lon="-7.229370">
        <ele>845.208</ele>
        <time>1999-07-25T13:34:03Z</time>
      </trkpt>
      <trkpt lat="43.019939" lon="-7.229510">
        <ele>843.649</ele>
        <time>1999-07-25T13:34:04Z</time>
      </trkpt>
      <trkpt lat="43.019891" lon="-7.229651">
        <ele>842.215</ele>
        <time>1999-07-25T13:34:05Z</time>
      </trkpt>
      <trkpt lat="43.019790" lon="-7.229939">
        <ele>840.046</ele>
        <time>1999-07-25T13:34:07Z</time>
      </trkpt>
      <trkpt lat="43.019739" lon="-7.230085">
        <ele>838.211</ele>
        <time>1999-07-25T13:34:08Z</time>
      </trkpt>
      <trkpt lat="43.019693" lon="-7.230235">
        <ele>836.441</ele>
        <time>1999-07-25T13:34:09Z</time>
      </trkpt>
      <trkpt lat="43.019650" lon="-7.230385">
        <ele>834.898</ele>
        <time>1999-07-25T13:34:10Z</time>
      </trkpt>
      <trkpt lat="43.019609" lon="-7.230537">
        <ele>833.845</ele>
        <time>1999-07-25T13:34:11Z</time>
      </trkpt>
      <trkpt lat="43.019570" lon="-7.230689">
        <ele>832.273</ele>
        <time>1999-07-25T13:34:12Z</time>
      </trkpt>
      <trkpt lat="43.019531" lon="-7.230838">
        <ele>831.079</ele>
        <time>1999-07-25T13:34:13Z</time>
      </trkpt>
      <trkpt lat="43.019488" lon="-7.230986">
        <ele>829.805</ele>
        <time>1999-07-25T13:34:14Z</time>
      </trkpt>
      <trkpt lat="43.019445" lon="-7.231130">
        <ele>828.825</ele>
        <time>1999-07-25T13:34:15Z</time>
      </trkpt>
      <trkpt lat="43.019400" lon="-7.231271">
        <ele>828.208</ele>
        <time>1999-07-25T13:34:16Z</time>
      </trkpt>
      <trkpt lat="43.019352" lon="-7.231408">
        <ele>826.420</ele>
        <time>1999-07-25T13:34:17Z</time>
      </trkpt>
      <trkpt lat="43.019306" lon="-7.231544">
        <ele>825.086</ele>
        <time>1999-07-25T13:34:18Z</time>
      </trkpt>
      <trkpt lat="43.019263" lon="-7.231674">
        <ele>823.687</ele>
        <time>1999-07-25T13:34:19Z</time>
      </trkpt>
      <trkpt lat="43.019216" lon="-7.231799">
        <ele>822.222</ele>
        <time>1999-07-25T13:34:20Z</time>
      </trkpt>
      <trkpt lat="43.019173" lon="-7.231923">
        <ele>820.812</ele>
        <time>1999-07-25T13:34:21Z</time>
      </trkpt>
      <trkpt lat="43.019135" lon="-7.232046">
        <ele>819.449</ele>
        <time>1999-07-25T13:34:22Z</time>
      </trkpt>
      <trkpt lat="43.019059" lon="-7.232278">
        <ele>817.466</ele>
        <time>1999-07-25T13:34:24Z</time>
      </trkpt>
      <trkpt lat="43.018988" lon="-7.232497">
        <ele>816.074</ele>
        <time>1999-07-25T13:34:26Z</time>
      </trkpt>
      <trkpt lat="43.018917" lon="-7.232700">
        <ele>815.268</ele>
        <time>1999-07-25T13:34:28Z</time>
      </trkpt>
      <trkpt lat="43.018825" lon="-7.232968">
        <ele>813.842</ele>
        <time>1999-07-25T13:34:31Z</time>
      </trkpt>
      <trkpt lat="43.018772" lon="-7.233114">
        <ele>812.826</ele>
        <time>1999-07-25T13:34:33Z</time>
      </trkpt>
      <trkpt lat="43.018749" lon="-7.233176">
        <ele>812.608</ele>
        <time>1999-07-25T13:34:34Z</time>
      </trkpt>
      <trkpt lat="43.018664" lon="-7.233408">
        <ele>812.479</ele>
        <time>1999-07-25T13:34:38Z</time>
      </trkpt>
      <trkpt lat="43.018645" lon="-7.233463">
        <ele>812.415</ele>
        <time>1999-07-25T13:34:39Z</time>
      </trkpt>
      <trkpt lat="43.018590" lon="-7.233618">
        <ele>812.656</ele>
        <time>1999-07-25T13:34:42Z</time>
      </trkpt>
      <trkpt lat="43.018511" lon="-7.233894">
        <ele>813.211</ele>
        <time>1999-07-25T13:34:47Z</time>
      </trkpt>
      <trkpt lat="43.018454" lon="-7.234106">
        <ele>813.691</ele>
        <time>1999-07-25T13:34:51Z</time>
      </trkpt>
      <trkpt lat="43.018396" lon="-7.234336">
        <ele>814.228</ele>
        <time>1999-07-25T13:34:56Z</time>
      </trkpt>
      <trkpt lat="43.018335" lon="-7.234550">
        <ele>814.815</ele>
        <time>1999-07-25T13:35:01Z</time>
      </trkpt>
      <trkpt lat="43.018296" lon="-7.234674">
        <ele>815.493</ele>
        <time>1999-07-25T13:35:04Z</time>
      </trkpt>
      <trkpt lat="43.018273" lon="-7.234748">
        <ele>815.889</ele>
        <time>1999-07-25T13:35:06Z</time>
      </trkpt>
      <trkpt lat="43.018234" lon="-7.234861">
        <ele>816.206</ele>
        <time>1999-07-25T13:35:10Z</time>
      </trkpt>
      <trkpt lat="43.018212" lon="-7.234934">
        <ele>816.826</ele>
        <time>1999-07-25T13:35:13Z</time>
      </trkpt>
      <trkpt lat="43.018186" lon="-7.235011">
        <ele>817.808</ele>
        <time>1999-07-25T13:35:16Z</time>
      </trkpt>
      <trkpt lat="43.018150" lon="-7.235091">
        <ele>818.811</ele>
        <time>1999-07-25T13:35:19Z</time>
      </trkpt>
      <trkpt lat="43.018129" lon="-7.235144">
        <ele>819.227</ele>
        <time>1999-07-25T13:35:21Z</time>
      </trkpt>
      <trkpt lat="43.018096" lon="-7.235225">
        <ele>820.278</ele>
        <time>1999-07-25T13:35:24Z</time>
      </trkpt>
      <trkpt lat="43.018060" lon="-7.235322">
        <ele>821.243</ele>
        <time>1999-07-25T13:35:27Z</time>
      </trkpt>
      <trkpt lat="43.018046" lon="-7.235356">
        <ele>821.623</ele>
        <time>1999-07-25T13:35:28Z</time>
      </trkpt>
      <trkpt lat="43.017995" lon="-7.235511">
        <ele>822.450</ele>
        <time>1999-07-25T13:35:32Z</time>
      </trkpt>
      <trkpt lat="43.017968" lon="-7.235655">
        <ele>822.897</ele>
        <time>1999-07-25T13:35:35Z</time>
      </trkpt>
      <trkpt lat="43.017968" lon="-7.235765">
        <ele>823.065</ele>
        <time>1999-07-25T13:35:37Z</time>
      </trkpt>
      <trkpt lat="43.018000" lon="-7.235934">
        <ele>823.085</ele>
        <time>1999-07-25T13:35:40Z</time>
      </trkpt>
      <trkpt lat="43.018050" lon="-7.236111">
        <ele>823.489</ele>
        <time>1999-07-25T13:35:43Z</time>
      </trkpt>
      <trkpt lat="43.018065" lon="-7.236170">
        <ele>823.417</ele>
        <time>1999-07-25T13:35:44Z</time>
      </trkpt>
      <trkpt lat="43.018116" lon="-7.236354">
        <ele>823.408</ele>
        <time>1999-07-25T13:35:47Z</time>
      </trkpt>
      <trkpt lat="43.018130" lon="-7.236423">
        <ele>823.481</ele>
        <time>1999-07-25T13:35:48Z</time>
      </trkpt>
      <trkpt lat="43.018166" lon="-7.236644">
        <ele>823.457</ele>
        <time>1999-07-25T13:35:51Z</time>
      </trkpt>
      <trkpt lat="43.018183" lon="-7.236802">
        <ele>823.278</ele>
        <time>1999-07-25T13:35:53Z</time>
      </trkpt>
      <trkpt lat="43.018192" lon="-7.236958">
        <ele>822.813</ele>
        <time>1999-07-25T13:35:55Z</time>
      </trkpt>
      <trkpt lat="43.018192" lon="-7.237118">
        <ele>822.463</ele>
        <time>1999-07-25T13:35:57Z</time>
      </trkpt>
      <trkpt lat="43.018189" lon="-7.237200">
        <ele>822.460</ele>
        <time>1999-07-25T13:35:58Z</time>
      </trkpt>
      <trkpt lat="43.018184" lon="-7.237444">
        <ele>822.037</ele>
        <time>1999-07-25T13:36:01Z</time>
      </trkpt>
      <trkpt lat="43.018186" lon="-7.237527">
        <ele>821.635</ele>
        <time>1999-07-25T13:36:02Z</time>
      </trkpt>
      <trkpt lat="43.018202" lon="-7.237692">
        <ele>821.076</ele>
        <time>1999-07-25T13:36:04Z</time>
      </trkpt>
      <trkpt lat="43.018212" lon="-7.237777">
        <ele>820.890</ele>
        <time>1999-07-25T13:36:05Z</time>
      </trkpt>
      <trkpt lat="43.018223" lon="-7.237949">
        <ele>820.019</ele>
        <time>1999-07-25T13:36:07Z</time>
      </trkpt>
      <trkpt lat="43.018222" lon="-7.238036">
        <ele>819.808</ele>
        <time>1999-07-25T13:36:08Z</time>
      </trkpt>
      <trkpt lat="43.018218" lon="-7.238220">
        <ele>819.430</ele>
        <time>1999-07-25T13:36:10Z</time>
      </trkpt>
      <trkpt lat="43.018217" lon="-7.238499">
        <ele>818.666</ele>
        <time>1999-07-25T13:36:13Z</time>
      </trkpt>
      <trkpt lat="43.018208" lon="-7.238678">
        <ele>818.067</ele>
        <time>1999-07-25T13:36:15Z</time>
      </trkpt>
      <trkpt lat="43.018198" lon="-7.238766">
        <ele>817.222</ele>
        <time>1999-07-25T13:36:16Z</time>
      </trkpt>
      <trkpt lat="43.018167" lon="-7.238964">
        <ele>816.642</ele>
        <time>1999-07-25T13:36:18Z</time>
      </trkpt>
      <trkpt lat="43.018147" lon="-7.239062">
        <ele>815.879</ele>
        <time>1999-07-25T13:36:19Z</time>
      </trkpt>
      <trkpt lat="43.018115" lon="-7.239236">
        <ele>814.026</ele>
        <time>1999-07-25T13:36:21Z</time>
      </trkpt>
      <trkpt lat="43.018116" lon="-7.239318">
        <ele>813.414</ele>
        <time>1999-07-25T13:36:22Z</time>
      </trkpt>
      <trkpt lat="43.018127" lon="-7.239405">
        <ele>812.232</ele>
        <time>1999-07-25T13:36:23Z</time>
      </trkpt>
      <trkpt lat="43.018143" lon="-7.239494">
        <ele>810.892</ele>
        <time>1999-07-25T13:36:24Z</time>
      </trkpt>
      <trkpt lat="43.018151" lon="-7.239589">
        <ele>809.811</ele>
        <time>1999-07-25T13:36:25Z</time>
      </trkpt>
      <trkpt lat="43.018150" lon="-7.239692">
        <ele>808.408</ele>
        <time>1999-07-25T13:36:26Z</time>
      </trkpt>
      <trkpt lat="43.018140" lon="-7.239801">
        <ele>806.896</ele>
        <time>1999-07-25T13:36:27Z</time>
      </trkpt>
      <trkpt lat="43.018124" lon="-7.239903">
        <ele>805.262</ele>
        <time>1999-07-25T13:36:28Z</time>
      </trkpt>
      <trkpt lat="43.018102" lon="-7.240001">
        <ele>803.683</ele>
        <time>1999-07-25T13:36:29Z</time>
      </trkpt>
      <trkpt lat="43.018084" lon="-7.240090">
        <ele>802.448</ele>
        <time>1999-07-25T13:36:30Z</time>
      </trkpt>
      <trkpt lat="43.018042" lon="-7.240262">
        <ele>800.858</ele>
        <time>1999-07-25T13:36:32Z</time>
      </trkpt>
      <trkpt lat="43.018000" lon="-7.240468">
        <ele>799.875</ele>
        <time>1999-07-25T13:36:34Z</time>
      </trkpt>
      <trkpt lat="43.017940" lon="-7.240698">
        <ele>798.062</ele>
        <time>1999-07-25T13:36:36Z</time>
      </trkpt>
      <trkpt lat="43.017910" lon="-7.240810">
        <ele>796.820</ele>
        <time>1999-07-25T13:36:37Z</time>
      </trkpt>
      <trkpt lat="43.017882" lon="-7.240919">
        <ele>795.692</ele>
        <time>1999-07-25T13:36:38Z</time>
      </trkpt>
      <trkpt lat="43.017855" lon="-7.241025">
        <ele>794.073</ele>
        <time>1999-07-25T13:36:39Z</time>
      </trkpt>
      <trkpt lat="43.017832" lon="-7.241124">
        <ele>792.420</ele>
        <time>1999-07-25T13:36:40Z</time>
      </trkpt>
      <trkpt lat="43.017815" lon="-7.241211">
        <ele>791.008</ele>
        <time>1999-07-25T13:36:41Z</time>
      </trkpt>
      <trkpt lat="43.017798" lon="-7.241287">
        <ele>789.892</ele>
        <time>1999-07-25T13:36:42Z</time>
      </trkpt>
      <trkpt lat="43.017776" lon="-7.241356">
        <ele>788.698</ele>
        <time>1999-07-25T13:36:43Z</time>
      </trkpt>
      <trkpt lat="43.017757" lon="-7.241420">
        <ele>787.419</ele>
        <time>1999-07-25T13:36:44Z</time>
      </trkpt>
      <trkpt lat="43.017750" lon="-7.241484">
        <ele>784.864</ele>
        <time>1999-07-25T13:36:45Z</time>
      </trkpt>
      <trkpt lat="43.017763" lon="-7.241547">
        <ele>783.224</ele>
        <time>1999-07-25T13:36:46Z</time>
      </trkpt>
      <trkpt lat="43.017789" lon="-7.241605">
        <ele>782.041</ele>
        <time>1999-07-25T13:36:47Z</time>
      </trkpt>
      <trkpt lat="43.017871" lon="-7.241697">
        <ele>779.848</ele>
        <time>1999-07-25T13:36:49Z</time>
      </trkpt>
      <trkpt lat="43.017921" lon="-7.241726">
        <ele>778.426</ele>
        <time>1999-07-25T13:36:50Z</time>
      </trkpt>
      <trkpt lat="43.017977" lon="-7.241746">
        <ele>776.875</ele>
        <time>1999-07-25T13:36:51Z</time>
      </trkpt>
      <trkpt lat="43.018041" lon="-7.241750">
        <ele>775.428</ele>
        <time>1999-07-25T13:36:52Z</time>
      </trkpt>
      <trkpt lat="43.018112" lon="-7.241743">
        <ele>773.820</ele>
        <time>1999-07-25T13:36:53Z</time>
      </trkpt>
      <trkpt lat="43.018190" lon="-7.241722">
        <ele>772.808</ele>
        <time>1999-07-25T13:36:54Z</time>
      </trkpt>
      <trkpt lat="43.018266" lon="-7.241697">
        <ele>772.080</ele>
        <time>1999-07-25T13:36:55Z</time>
      </trkpt>
      <trkpt lat="43.018333" lon="-7.241678">
        <ele>771.476</ele>
        <time>1999-07-25T13:36:56Z</time>
      </trkpt>
      <trkpt lat="43.018388" lon="-7.241668">
        <ele>770.867</ele>
        <time>1999-07-25T13:36:57Z</time>
      </trkpt>
      <trkpt lat="43.018473" lon="-7.241717">
        <ele>770.042</ele>
        <time>1999-07-25T13:36:59Z</time>
      </trkpt>
      <trkpt lat="43.018505" lon="-7.241786">
        <ele>769.852</ele>
        <time>1999-07-25T13:37:00Z</time>
      </trkpt>
      <trkpt lat="43.018540" lon="-7.241969">
        <ele>769.059</ele>
        <time>1999-07-25T13:37:02Z</time>
      </trkpt>
      <trkpt lat="43.018540" lon="-7.242069">
        <ele>768.656</ele>
        <time>1999-07-25T13:37:03Z</time>
      </trkpt>
      <trkpt lat="43.018515" lon="-7.242279">
        <ele>767.614</ele>
        <time>1999-07-25T13:37:05Z</time>
      </trkpt>
      <trkpt lat="43.018464" lon="-7.242489">
        <ele>765.636</ele>
        <time>1999-07-25T13:37:07Z</time>
      </trkpt>
      <trkpt lat="43.018427" lon="-7.242595">
        <ele>764.617</ele>
        <time>1999-07-25T13:37:08Z</time>
      </trkpt>
      <trkpt lat="43.018326" lon="-7.242816">
        <ele>763.218</ele>
        <time>1999-07-25T13:37:10Z</time>
      </trkpt>
      <trkpt lat="43.018268" lon="-7.242925">
        <ele>762.208</ele>
        <time>1999-07-25T13:37:11Z</time>
      </trkpt>
      <trkpt lat="43.018139" lon="-7.243128">
        <ele>760.426</ele>
        <time>1999-07-25T13:37:13Z</time>
      </trkpt>
      <trkpt lat="43.018075" lon="-7.243217">
        <ele>759.232</ele>
        <time>1999-07-25T13:37:14Z</time>
      </trkpt>
      <trkpt lat="43.018013" lon="-7.243305">
        <ele>757.043</ele>
        <time>1999-07-25T13:37:15Z</time>
      </trkpt>
      <trkpt lat="43.017957" lon="-7.243394">
        <ele>756.088</ele>
        <time>1999-07-25T13:37:16Z</time>
      </trkpt>
      <trkpt lat="43.017858" lon="-7.243575">
        <ele>753.888</ele>
        <time>1999-07-25T13:37:18Z</time>
      </trkpt>
      <trkpt lat="43.017815" lon="-7.243666">
        <ele>752.685</ele>
        <time>1999-07-25T13:37:19Z</time>
      </trkpt>
      <trkpt lat="43.017773" lon="-7.243755">
        <ele>751.212</ele>
        <time>1999-07-25T13:37:20Z</time>
      </trkpt>
      <trkpt lat="43.017728" lon="-7.243842">
        <ele>749.630</ele>
        <time>1999-07-25T13:37:21Z</time>
      </trkpt>
      <trkpt lat="43.017683" lon="-7.243924">
        <ele>748.291</ele>
        <time>1999-07-25T13:37:22Z</time>
      </trkpt>
      <trkpt lat="43.017639" lon="-7.244001">
        <ele>746.281</ele>
        <time>1999-07-25T13:37:23Z</time>
      </trkpt>
      <trkpt lat="43.017598" lon="-7.244075">
        <ele>744.819</ele>
        <time>1999-07-25T13:37:24Z</time>
      </trkpt>
      <trkpt lat="43.017555" lon="-7.244147">
        <ele>743.408</ele>
        <time>1999-07-25T13:37:25Z</time>
      </trkpt>
      <trkpt lat="43.017509" lon="-7.244218">
        <ele>742.012</ele>
        <time>1999-07-25T13:37:26Z</time>
      </trkpt>
      <trkpt lat="43.017462" lon="-7.244282">
        <ele>740.448</ele>
        <time>1999-07-25T13:37:27Z</time>
      </trkpt>
      <trkpt lat="43.017415" lon="-7.244344">
        <ele>739.069</ele>
        <time>1999-07-25T13:37:28Z</time>
      </trkpt>
      <trkpt lat="43.017374" lon="-7.244411">
        <ele>737.624</ele>
        <time>1999-07-25T13:37:29Z</time>
      </trkpt>
      <trkpt lat="43.017342" lon="-7.244489">
        <ele>736.294</ele>
        <time>1999-07-25T13:37:30Z</time>
      </trkpt>
      <trkpt lat="43.017316" lon="-7.244578">
        <ele>734.831</ele>
        <time>1999-07-25T13:37:31Z</time>
      </trkpt>
      <trkpt lat="43.017296" lon="-7.244673">
        <ele>733.088</ele>
        <time>1999-07-25T13:37:32Z</time>
      </trkpt>
      <trkpt lat="43.017276" lon="-7.244774">
        <ele>731.236</ele>
        <time>1999-07-25T13:37:33Z</time>
      </trkpt>
      <trkpt lat="43.017247" lon="-7.244871">
        <ele>729.699</ele>
        <time>1999-07-25T13:37:34Z</time>
      </trkpt>
      <trkpt lat="43.017163" lon="-7.245031">
        <ele>727.607</ele>
        <time>1999-07-25T13:37:36Z</time>
      </trkpt>
      <trkpt lat="43.017112" lon="-7.245098">
        <ele>726.627</ele>
        <time>1999-07-25T13:37:37Z</time>
      </trkpt>
      <trkpt lat="43.017066" lon="-7.245173">
        <ele>725.408</ele>
        <time>1999-07-25T13:37:38Z</time>
      </trkpt>
      <trkpt lat="43.017028" lon="-7.245252">
        <ele>724.442</ele>
        <time>1999-07-25T13:37:39Z</time>
      </trkpt>
      <trkpt lat="43.016968" lon="-7.245380">
        <ele>723.048</ele>
        <time>1999-07-25T13:37:41Z</time>
      </trkpt>
      <trkpt lat="43.016929" lon="-7.245499">
        <ele>722.469</ele>
        <time>1999-07-25T13:37:43Z</time>
      </trkpt>
      <trkpt lat="43.016929" lon="-7.245559">
        <ele>721.834</ele>
        <time>1999-07-25T13:37:44Z</time>
      </trkpt>
      <trkpt lat="43.016945" lon="-7.245618">
        <ele>721.014</ele>
        <time>1999-07-25T13:37:45Z</time>
      </trkpt>
      <trkpt lat="43.016967" lon="-7.245682">
        <ele>720.451</ele>
        <time>1999-07-25T13:37:46Z</time>
      </trkpt>
      <trkpt lat="43.016986" lon="-7.245752">
        <ele>720.018</ele>
        <time>1999-07-25T13:37:47Z</time>
      </trkpt>
      <trkpt lat="43.016999" lon="-7.245895">
        <ele>718.846</ele>
        <time>1999-07-25T13:37:49Z</time>
      </trkpt>
      <trkpt lat="43.016981" lon="-7.246028">
        <ele>717.822</ele>
        <time>1999-07-25T13:37:51Z</time>
      </trkpt>
      <trkpt lat="43.016946" lon="-7.246140">
        <ele>717.262</ele>
        <time>1999-07-25T13:37:53Z</time>
      </trkpt>
      <trkpt lat="43.016926" lon="-7.246192">
        <ele>716.808</ele>
        <time>1999-07-25T13:37:54Z</time>
      </trkpt>
      <trkpt lat="43.016901" lon="-7.246246">
        <ele>716.608</ele>
        <time>1999-07-25T13:37:55Z</time>
      </trkpt>
      <trkpt lat="43.016829" lon="-7.246403">
        <ele>715.475</ele>
        <time>1999-07-25T13:37:58Z</time>
      </trkpt>
      <trkpt lat="43.016785" lon="-7.246485">
        <ele>714.491</ele>
        <time>1999-07-25T13:38:00Z</time>
      </trkpt>
      <trkpt lat="43.016749" lon="-7.246579">
        <ele>713.282</ele>
        <time>1999-07-25T13:38:02Z</time>
      </trkpt>
      <trkpt lat="43.016731" lon="-7.246636">
        <ele>712.817</ele>
        <time>1999-07-25T13:38:03Z</time>
      </trkpt>
      <trkpt lat="43.016713" lon="-7.246697">
        <ele>712.817</ele>
        <time>1999-07-25T13:38:04Z</time>
      </trkpt>
      <trkpt lat="43.016697" lon="-7.246764">
        <ele>712.454</ele>
        <time>1999-07-25T13:38:05Z</time>
      </trkpt>
      <trkpt lat="43.016667" lon="-7.246973">
        <ele>711.071</ele>
        <time>1999-07-25T13:38:08Z</time>
      </trkpt>
      <trkpt lat="43.016659" lon="-7.247040">
        <ele>710.259</ele>
        <time>1999-07-25T13:38:09Z</time>
      </trkpt>
      <trkpt lat="43.016654" lon="-7.247108">
        <ele>709.625</ele>
        <time>1999-07-25T13:38:10Z</time>
      </trkpt>
      <trkpt lat="43.016653" lon="-7.247243">
        <ele>708.426</ele>
        <time>1999-07-25T13:38:12Z</time>
      </trkpt>
      <trkpt lat="43.016664" lon="-7.247314">
        <ele>708.208</ele>
        <time>1999-07-25T13:38:13Z</time>
      </trkpt>
      <trkpt lat="43.016682" lon="-7.247380">
        <ele>707.608</ele>
        <time>1999-07-25T13:38:14Z</time>
      </trkpt>
      <trkpt lat="43.016705" lon="-7.247496">
        <ele>707.485</ele>
        <time>1999-07-25T13:38:16Z</time>
      </trkpt>
      <trkpt lat="43.016700" lon="-7.247543">
        <ele>707.251</ele>
        <time>1999-07-25T13:38:17Z</time>
      </trkpt>
      <trkpt lat="43.016603" lon="-7.247630">
        <ele>706.492</ele>
        <time>1999-07-25T13:38:20Z</time>
      </trkpt>
      <trkpt lat="43.016557" lon="-7.247647">
        <ele>706.227</ele>
        <time>1999-07-25T13:38:21Z</time>
      </trkpt>
      <trkpt lat="43.016508" lon="-7.247665">
        <ele>706.027</ele>
        <time>1999-07-25T13:38:22Z</time>
      </trkpt>
      <trkpt lat="43.016462" lon="-7.247677">
        <ele>705.834</ele>
        <time>1999-07-25T13:38:23Z</time>
      </trkpt>
      <trkpt lat="43.016416" lon="-7.247698">
        <ele>705.291</ele>
        <time>1999-07-25T13:38:24Z</time>
      </trkpt>
      <trkpt lat="43.016374" lon="-7.247725">
        <ele>704.819</ele>
        <time>1999-07-25T13:38:25Z</time>
      </trkpt>
      <trkpt lat="43.016293" lon="-7.247799">
        <ele>703.699</ele>
        <time>1999-07-25T13:38:28Z</time>
      </trkpt>
      <trkpt lat="43.016226" lon="-7.247862">
        <ele>702.407</ele>
        <time>1999-07-25T13:38:30Z</time>
      </trkpt>
      <trkpt lat="43.016133" lon="-7.247903">
        <ele>701.227</ele>
        <time>1999-07-25T13:38:32Z</time>
      </trkpt>
      <trkpt lat="43.015993" lon="-7.247953">
        <ele>699.208</ele>
        <time>1999-07-25T13:38:34Z</time>
      </trkpt>
      <trkpt lat="43.015906" lon="-7.247990">
        <ele>698.092</ele>
        <time>1999-07-25T13:38:35Z</time>
      </trkpt>
      <trkpt lat="43.015815" lon="-7.248039">
        <ele>697.018</ele>
        <time>1999-07-25T13:38:36Z</time>
      </trkpt>
      <trkpt lat="43.015635" lon="-7.248186">
        <ele>695.889</ele>
        <time>1999-07-25T13:38:38Z</time>
      </trkpt>
      <trkpt lat="43.015446" lon="-7.248490">
        <ele>694.834</ele>
        <time>1999-07-25T13:38:41Z</time>
      </trkpt>
      <trkpt lat="43.015399" lon="-7.248593">
        <ele>694.454</ele>
        <time>1999-07-25T13:38:42Z</time>
      </trkpt>
      <trkpt lat="43.015348" lon="-7.248688">
        <ele>692.821</ele>
        <time>1999-07-25T13:38:43Z</time>
      </trkpt>
      <trkpt lat="43.015294" lon="-7.248774">
        <ele>691.818</ele>
        <time>1999-07-25T13:38:44Z</time>
      </trkpt>
      <trkpt lat="43.015237" lon="-7.248844">
        <ele>691.226</ele>
        <time>1999-07-25T13:38:45Z</time>
      </trkpt>
      <trkpt lat="43.015017" lon="-7.249083">
        <ele>690.499</ele>
        <time>1999-07-25T13:38:49Z</time>
      </trkpt>
      <trkpt lat="43.014967" lon="-7.249146">
        <ele>690.207</ele>
        <time>1999-07-25T13:38:50Z</time>
      </trkpt>
      <trkpt lat="43.014862" lon="-7.249284">
        <ele>689.227</ele>
        <time>1999-07-25T13:38:52Z</time>
      </trkpt>
      <trkpt lat="43.014812" lon="-7.249365">
        <ele>689.008</ele>
        <time>1999-07-25T13:38:53Z</time>
      </trkpt>
      <trkpt lat="43.014685" lon="-7.249644">
        <ele>688.472</ele>
        <time>1999-07-25T13:38:56Z</time>
      </trkpt>
      <trkpt lat="43.014624" lon="-7.249973">
        <ele>687.898</ele>
        <time>1999-07-25T13:38:59Z</time>
      </trkpt>
      <trkpt lat="43.014605" lon="-7.250069">
        <ele>687.819</ele>
        <time>1999-07-25T13:39:00Z</time>
      </trkpt>
      <trkpt lat="43.014582" lon="-7.250154">
        <ele>687.834</ele>
        <time>1999-07-25T13:39:01Z</time>
      </trkpt>
      <trkpt lat="43.014504" lon="-7.250348">
        <ele>687.614</ele>
        <time>1999-07-25T13:39:04Z</time>
      </trkpt>
      <trkpt lat="43.014413" lon="-7.250530">
        <ele>687.621</ele>
        <time>1999-07-25T13:39:08Z</time>
      </trkpt>
      <trkpt lat="43.014370" lon="-7.250594">
        <ele>687.698</ele>
        <time>1999-07-25T13:39:10Z</time>
      </trkpt>
      <trkpt lat="43.014295" lon="-7.250706">
        <ele>688.646</ele>
        <time>1999-07-25T13:39:14Z</time>
      </trkpt>
      <trkpt lat="43.014253" lon="-7.250751">
        <ele>688.815</ele>
        <time>1999-07-25T13:39:16Z</time>
      </trkpt>
      <trkpt lat="43.014234" lon="-7.250775">
        <ele>689.065</ele>
        <time>1999-07-25T13:39:17Z</time>
      </trkpt>
      <trkpt lat="43.014171" lon="-7.250868">
        <ele>690.011</ele>
        <time>1999-07-25T13:39:21Z</time>
      </trkpt>
      <trkpt lat="43.014151" lon="-7.250884">
        <ele>690.408</ele>
        <time>1999-07-25T13:39:22Z</time>
      </trkpt>
      <trkpt lat="43.014095" lon="-7.250948">
        <ele>691.464</ele>
        <time>1999-07-25T13:39:25Z</time>
      </trkpt>
      <trkpt lat="43.014049" lon="-7.251027">
        <ele>692.080</ele>
        <time>1999-07-25T13:39:28Z</time>
      </trkpt>
      <trkpt lat="43.014006" lon="-7.251076">
        <ele>692.621</ele>
        <time>1999-07-25T13:39:30Z</time>
      </trkpt>
      <trkpt lat="43.013938" lon="-7.251187">
        <ele>693.426</ele>
        <time>1999-07-25T13:39:34Z</time>
      </trkpt>
      <trkpt lat="43.013901" lon="-7.251245">
        <ele>693.666</ele>
        <time>1999-07-25T13:39:36Z</time>
      </trkpt>
      <trkpt lat="43.013831" lon="-7.251401">
        <ele>694.653</ele>
        <time>1999-07-25T13:39:41Z</time>
      </trkpt>
      <trkpt lat="43.013819" lon="-7.251430">
        <ele>694.610</ele>
        <time>1999-07-25T13:39:42Z</time>
      </trkpt>
      <trkpt lat="43.013730" lon="-7.251647">
        <ele>695.638</ele>
        <time>1999-07-25T13:39:49Z</time>
      </trkpt>
      <trkpt lat="43.013722" lon="-7.251683">
        <ele>695.868</ele>
        <time>1999-07-25T13:39:50Z</time>
      </trkpt>
      <trkpt lat="43.013646" lon="-7.251933">
        <ele>696.842</ele>
        <time>1999-07-25T13:39:57Z</time>
      </trkpt>
      <trkpt lat="43.013634" lon="-7.251969">
        <ele>696.826</ele>
        <time>1999-07-25T13:39:58Z</time>
      </trkpt>
      <trkpt lat="43.013569" lon="-7.252179">
        <ele>697.808</ele>
        <time>1999-07-25T13:40:04Z</time>
      </trkpt>
      <trkpt lat="43.013550" lon="-7.252249">
        <ele>698.069</ele>
        <time>1999-07-25T13:40:06Z</time>
      </trkpt>
      <trkpt lat="43.013539" lon="-7.252284">
        <ele>698.255</ele>
        <time>1999-07-25T13:40:07Z</time>
      </trkpt>
      <trkpt lat="43.013481" lon="-7.252496">
        <ele>698.876</ele>
        <time>1999-07-25T13:40:13Z</time>
      </trkpt>
      <trkpt lat="43.013452" lon="-7.252566">
        <ele>699.281</ele>
        <time>1999-07-25T13:40:15Z</time>
      </trkpt>
      <trkpt lat="43.013410" lon="-7.252715">
        <ele>699.841</ele>
        <time>1999-07-25T13:40:19Z</time>
      </trkpt>
      <trkpt lat="43.013349" lon="-7.252855">
        <ele>700.228</ele>
        <time>1999-07-25T13:40:23Z</time>
      </trkpt>
      <trkpt lat="43.013284" lon="-7.252994">
        <ele>700.635</ele>
        <time>1999-07-25T13:40:27Z</time>
      </trkpt>
      <trkpt lat="43.013132" lon="-7.253270">
        <ele>701.023</ele>
        <time>1999-07-25T13:40:35Z</time>
      </trkpt>
      <trkpt lat="43.013071" lon="-7.253387">
        <ele>701.455</ele>
        <time>1999-07-25T13:40:38Z</time>
      </trkpt>
      <trkpt lat="43.012955" lon="-7.253569">
        <ele>702.207</ele>
        <time>1999-07-25T13:40:43Z</time>
      </trkpt>
      <trkpt lat="43.012887" lon="-7.253668">
        <ele>702.417</ele>
        <time>1999-07-25T13:40:46Z</time>
      </trkpt>
      <trkpt lat="43.012826" lon="-7.253798">
        <ele>702.608</ele>
        <time>1999-07-25T13:40:50Z</time>
      </trkpt>
      <trkpt lat="43.012762" lon="-7.253918">
        <ele>703.058</ele>
        <time>1999-07-25T13:40:54Z</time>
      </trkpt>
      <trkpt lat="43.012728" lon="-7.253965">
        <ele>703.244</ele>
        <time>1999-07-25T13:40:56Z</time>
      </trkpt>
      <trkpt lat="43.012713" lon="-7.253993">
        <ele>703.465</ele>
        <time>1999-07-25T13:40:57Z</time>
      </trkpt>
      <trkpt lat="43.012665" lon="-7.254099">
        <ele>704.830</ele>
        <time>1999-07-25T13:41:01Z</time>
      </trkpt>
      <trkpt lat="43.012652" lon="-7.254123">
        <ele>705.220</ele>
        <time>1999-07-25T13:41:02Z</time>
      </trkpt>
      <trkpt lat="43.012619" lon="-7.254205">
        <ele>706.077</ele>
        <time>1999-07-25T13:41:05Z</time>
      </trkpt>
      <trkpt lat="43.012572" lon="-7.254270">
        <ele>707.024</ele>
        <time>1999-07-25T13:41:08Z</time>
      </trkpt>
      <trkpt lat="43.012559" lon="-7.254294">
        <ele>707.432</ele>
        <time>1999-07-25T13:41:09Z</time>
      </trkpt>
      <trkpt lat="43.012520" lon="-7.254406">
        <ele>708.411</ele>
        <time>1999-07-25T13:41:13Z</time>
      </trkpt>
      <trkpt lat="43.012452" lon="-7.254527">
        <ele>709.821</ele>
        <time>1999-07-25T13:41:18Z</time>
      </trkpt>
      <trkpt lat="43.012424" lon="-7.254594">
        <ele>710.403</ele>
        <time>1999-07-25T13:41:21Z</time>
      </trkpt>
      <trkpt lat="43.012408" lon="-7.254636">
        <ele>710.608</ele>
        <time>1999-07-25T13:41:23Z</time>
      </trkpt>
      <trkpt lat="43.012373" lon="-7.254748">
        <ele>711.854</ele>
        <time>1999-07-25T13:41:28Z</time>
      </trkpt>
      <trkpt lat="43.012369" lon="-7.254876">
        <ele>713.240</ele>
        <time>1999-07-25T13:41:33Z</time>
      </trkpt>
      <trkpt lat="43.012383" lon="-7.254956">
        <ele>714.281</ele>
        <time>1999-07-25T13:41:36Z</time>
      </trkpt>
      <trkpt lat="43.012390" lon="-7.254982">
        <ele>714.486</ele>
        <time>1999-07-25T13:41:37Z</time>
      </trkpt>
      <trkpt lat="43.012448" lon="-7.255125">
        <ele>715.696</ele>
        <time>1999-07-25T13:41:43Z</time>
      </trkpt>
      <trkpt lat="43.012502" lon="-7.255238">
        <ele>716.683</ele>
        <time>1999-07-25T13:41:48Z</time>
      </trkpt>
      <trkpt lat="43.012515" lon="-7.255261">
        <ele>716.890</ele>
        <time>1999-07-25T13:41:49Z</time>
      </trkpt>
      <trkpt lat="43.012556" lon="-7.255440">
        <ele>717.898</ele>
        <time>1999-07-25T13:41:55Z</time>
      </trkpt>
      <trkpt lat="43.012562" lon="-7.255476">
        <ele>717.853</ele>
        <time>1999-07-25T13:41:56Z</time>
      </trkpt>
      <trkpt lat="43.012582" lon="-7.255611">
        <ele>718.404</ele>
        <time>1999-07-25T13:42:00Z</time>
      </trkpt>
      <trkpt lat="43.012595" lon="-7.255702">
        <ele>718.814</ele>
        <time>1999-07-25T13:42:03Z</time>
      </trkpt>
      <trkpt lat="43.012599" lon="-7.255731">
        <ele>718.808</ele>
        <time>1999-07-25T13:42:04Z</time>
      </trkpt>
      <trkpt lat="43.012611" lon="-7.255823">
        <ele>719.258</ele>
        <time>1999-07-25T13:42:07Z</time>
      </trkpt>
      <trkpt lat="43.012610" lon="-7.255911">
        <ele>719.494</ele>
        <time>1999-07-25T13:42:10Z</time>
      </trkpt>
      <trkpt lat="43.012589" lon="-7.256036">
        <ele>719.865</ele>
        <time>1999-07-25T13:42:14Z</time>
      </trkpt>
      <trkpt lat="43.012581" lon="-7.256067">
        <ele>720.060</ele>
        <time>1999-07-25T13:42:15Z</time>
      </trkpt>
      <trkpt lat="43.012565" lon="-7.256129">
        <ele>720.290</ele>
        <time>1999-07-25T13:42:17Z</time>
      </trkpt>
      <trkpt lat="43.012547" lon="-7.256282">
        <ele>720.867</ele>
        <time>1999-07-25T13:42:22Z</time>
      </trkpt>
      <trkpt lat="43.012543" lon="-7.256344">
        <ele>721.024</ele>
        <time>1999-07-25T13:42:24Z</time>
      </trkpt>
      <trkpt lat="43.012539" lon="-7.256373">
        <ele>721.042</ele>
        <time>1999-07-25T13:42:25Z</time>
      </trkpt>
      <trkpt lat="43.012500" lon="-7.256580">
        <ele>722.012</ele>
        <time>1999-07-25T13:42:32Z</time>
      </trkpt>
      <trkpt lat="43.012496" lon="-7.256611">
        <ele>722.232</ele>
        <time>1999-07-25T13:42:33Z</time>
      </trkpt>
      <trkpt lat="43.012490" lon="-7.256671">
        <ele>722.405</ele>
        <time>1999-07-25T13:42:35Z</time>
      </trkpt>
      <trkpt lat="43.012450" lon="-7.256813">
        <ele>723.208</ele>
        <time>1999-07-25T13:42:40Z</time>
      </trkpt>
      <trkpt lat="43.012441" lon="-7.256876">
        <ele>723.684</ele>
        <time>1999-07-25T13:42:42Z</time>
      </trkpt>
      <trkpt lat="43.012451" lon="-7.257033">
        <ele>724.410</ele>
        <time>1999-07-25T13:42:47Z</time>
      </trkpt>
      <trkpt lat="43.012461" lon="-7.257113">
        <ele>724.831</ele>
        <time>1999-07-25T13:42:50Z</time>
      </trkpt>
      <trkpt lat="43.012496" lon="-7.257276">
        <ele>725.636</ele>
        <time>1999-07-25T13:42:57Z</time>
      </trkpt>
      <trkpt lat="43.012506" lon="-7.257295">
        <ele>725.646</ele>
        <time>1999-07-25T13:42:58Z</time>
      </trkpt>
      <trkpt lat="43.012534" lon="-7.257377">
        <ele>726.213</ele>
        <time>1999-07-25T13:43:02Z</time>
      </trkpt>
      <trkpt lat="43.012540" lon="-7.257388">
        <ele>726.420</ele>
        <time>1999-07-25T13:43:03Z</time>
      </trkpt>
      <trkpt lat="43.012537" lon="-7.257397">
        <ele>726.848</ele>
        <time>1999-07-25T13:43:05Z</time>
      </trkpt>
      <trkpt lat="43.012534" lon="-7.257401">
        <ele>727.032</ele>
        <time>1999-07-25T13:43:06Z</time>
      </trkpt>
      <trkpt lat="43.012559" lon="-7.257520">
        <ele>728.092</ele>
        <time>1999-07-25T13:43:18Z</time>
      </trkpt>
      <trkpt lat="43.012564" lon="-7.257540">
        <ele>728.011</ele>
        <time>1999-07-25T13:43:19Z</time>
      </trkpt>
      <trkpt lat="43.012588" lon="-7.257612">
        <ele>728.208</ele>
        <time>1999-07-25T13:43:23Z</time>
      </trkpt>
      <trkpt lat="43.012609" lon="-7.257712">
        <ele>729.016</ele>
        <time>1999-07-25T13:43:28Z</time>
      </trkpt>
      <trkpt lat="43.012616" lon="-7.257741">
        <ele>729.642</ele>
        <time>1999-07-25T13:43:30Z</time>
      </trkpt>
      <trkpt lat="43.012614" lon="-7.257774">
        <ele>730.093</ele>
        <time>1999-07-25T13:43:32Z</time>
      </trkpt>
      <trkpt lat="43.012607" lon="-7.257821">
        <ele>731.498</ele>
        <time>1999-07-25T13:43:36Z</time>
      </trkpt>
      <trkpt lat="43.012604" lon="-7.257833">
        <ele>731.698</ele>
        <time>1999-07-25T13:43:37Z</time>
      </trkpt>
      <trkpt lat="43.012605" lon="-7.257884">
        <ele>732.635</ele>
        <time>1999-07-25T13:43:41Z</time>
      </trkpt>
      <trkpt lat="43.012571" lon="-7.257976">
        <ele>733.662</ele>
        <time>1999-07-25T13:43:45Z</time>
      </trkpt>
      <trkpt lat="43.012558" lon="-7.258001">
        <ele>733.830</ele>
        <time>1999-07-25T13:43:46Z</time>
      </trkpt>
      <trkpt lat="43.012522" lon="-7.258073">
        <ele>734.899</ele>
        <time>1999-07-25T13:43:50Z</time>
      </trkpt>
      <trkpt lat="43.012492" lon="-7.258126">
        <ele>735.607</ele>
        <time>1999-07-25T13:43:53Z</time>
      </trkpt>
      <trkpt lat="43.012477" lon="-7.258164">
        <ele>736.027</ele>
        <time>1999-07-25T13:43:55Z</time>
      </trkpt>
      <trkpt lat="43.012440" lon="-7.258242">
        <ele>736.608</ele>
        <time>1999-07-25T13:43:58Z</time>
      </trkpt>
      <trkpt lat="43.012419" lon="-7.258287">
        <ele>737.022</ele>
        <time>1999-07-25T13:44:00Z</time>
      </trkpt>
      <trkpt lat="43.012379" lon="-7.258361">
        <ele>738.268</ele>
        <time>1999-07-25T13:44:04Z</time>
      </trkpt>
      <trkpt lat="43.012358" lon="-7.258444">
        <ele>739.079</ele>
        <time>1999-07-25T13:44:08Z</time>
      </trkpt>
      <trkpt lat="43.012353" lon="-7.258464">
        <ele>739.234</ele>
        <time>1999-07-25T13:44:09Z</time>
      </trkpt>
      <trkpt lat="43.012311" lon="-7.258550">
        <ele>740.444</ele>
        <time>1999-07-25T13:44:14Z</time>
      </trkpt>
      <trkpt lat="43.012302" lon="-7.258570">
        <ele>740.631</ele>
        <time>1999-07-25T13:44:15Z</time>
      </trkpt>
      <trkpt lat="43.012272" lon="-7.258630">
        <ele>741.438</ele>
        <time>1999-07-25T13:44:18Z</time>
      </trkpt>
      <trkpt lat="43.012227" lon="-7.258705">
        <ele>742.626</ele>
        <time>1999-07-25T13:44:22Z</time>
      </trkpt>
      <trkpt lat="43.012206" lon="-7.258755">
        <ele>743.431</ele>
        <time>1999-07-25T13:44:24Z</time>
      </trkpt>
      <trkpt lat="43.012190" lon="-7.258799">
        <ele>744.061</ele>
        <time>1999-07-25T13:44:26Z</time>
      </trkpt>
      <trkpt lat="43.012168" lon="-7.258887">
        <ele>745.007</ele>
        <time>1999-07-25T13:44:30Z</time>
      </trkpt>
      <trkpt lat="43.012159" lon="-7.258922">
        <ele>745.608</ele>
        <time>1999-07-25T13:44:32Z</time>
      </trkpt>
      <trkpt lat="43.012151" lon="-7.258938">
        <ele>746.496</ele>
        <time>1999-07-25T13:44:33Z</time>
      </trkpt>
      <trkpt lat="43.012130" lon="-7.259016">
        <ele>747.422</ele>
        <time>1999-07-25T13:44:37Z</time>
      </trkpt>
      <trkpt lat="43.012127" lon="-7.259059">
        <ele>747.823</ele>
        <time>1999-07-25T13:44:39Z</time>
      </trkpt>
      <trkpt lat="43.012120" lon="-7.259101">
        <ele>748.468</ele>
        <time>1999-07-25T13:44:41Z</time>
      </trkpt>
      <trkpt lat="43.012131" lon="-7.259192">
        <ele>749.438</ele>
        <time>1999-07-25T13:44:45Z</time>
      </trkpt>
      <trkpt lat="43.012127" lon="-7.259213">
        <ele>749.615</ele>
        <time>1999-07-25T13:44:46Z</time>
      </trkpt>
      <trkpt lat="43.012137" lon="-7.259284">
        <ele>750.672</ele>
        <time>1999-07-25T13:44:50Z</time>
      </trkpt>
      <trkpt lat="43.012139" lon="-7.259305">
        <ele>751.010</ele>
        <time>1999-07-25T13:44:51Z</time>
      </trkpt>
      <trkpt lat="43.012145" lon="-7.259363">
        <ele>751.857</ele>
        <time>1999-07-25T13:44:54Z</time>
      </trkpt>
      <trkpt lat="43.012159" lon="-7.259446">
        <ele>752.800</ele>
        <time>1999-07-25T13:44:58Z</time>
      </trkpt>
      <trkpt lat="43.012161" lon="-7.259470">
        <ele>753.020</ele>
        <time>1999-07-25T13:44:59Z</time>
      </trkpt>
      <trkpt lat="43.012175" lon="-7.259537">
        <ele>754.208</ele>
        <time>1999-07-25T13:45:02Z</time>
      </trkpt>
      <trkpt lat="43.012194" lon="-7.259627">
        <ele>755.238</ele>
        <time>1999-07-25T13:45:06Z</time>
      </trkpt>
      <trkpt lat="43.012228" lon="-7.259743">
        <ele>756.424</ele>
        <time>1999-07-25T13:45:11Z</time>
      </trkpt>
      <trkpt lat="43.012241" lon="-7.259784">
        <ele>756.855</ele>
        <time>1999-07-25T13:45:13Z</time>
      </trkpt>
      <trkpt lat="43.012280" lon="-7.259886">
        <ele>757.620</ele>
        <time>1999-07-25T13:45:18Z</time>
      </trkpt>
      <trkpt lat="43.012303" lon="-7.259964">
        <ele>758.040</ele>
        <time>1999-07-25T13:45:21Z</time>
      </trkpt>
      <trkpt lat="43.012319" lon="-7.260065">
        <ele>758.647</ele>
        <time>1999-07-25T13:45:25Z</time>
      </trkpt>
      <trkpt lat="43.012336" lon="-7.260145">
        <ele>759.014</ele>
        <time>1999-07-25T13:45:28Z</time>
      </trkpt>
      <trkpt lat="43.012352" lon="-7.260300">
        <ele>759.662</ele>
        <time>1999-07-25T13:45:33Z</time>
      </trkpt>
      <trkpt lat="43.012355" lon="-7.260329">
        <ele>759.866</ele>
        <time>1999-07-25T13:45:34Z</time>
      </trkpt>
      <trkpt lat="43.012354" lon="-7.260438">
        <ele>760.429</ele>
        <time>1999-07-25T13:45:38Z</time>
      </trkpt>
      <trkpt lat="43.012347" lon="-7.260506">
        <ele>760.621</ele>
        <time>1999-07-25T13:45:41Z</time>
      </trkpt>
      <trkpt lat="43.012349" lon="-7.260528">
        <ele>760.808</ele>
        <time>1999-07-25T13:45:42Z</time>
      </trkpt>
      <trkpt lat="43.012345" lon="-7.260576">
        <ele>761.079</ele>
        <time>1999-07-25T13:45:44Z</time>
      </trkpt>
      <trkpt lat="43.012329" lon="-7.260649">
        <ele>761.255</ele>
        <time>1999-07-25T13:45:47Z</time>
      </trkpt>
      <trkpt lat="43.012304" lon="-7.260741">
        <ele>761.866</ele>
        <time>1999-07-25T13:45:51Z</time>
      </trkpt>
      <trkpt lat="43.012288" lon="-7.260831">
        <ele>762.461</ele>
        <time>1999-07-25T13:45:55Z</time>
      </trkpt>
      <trkpt lat="43.012278" lon="-7.260869">
        <ele>762.891</ele>
        <time>1999-07-25T13:45:57Z</time>
      </trkpt>
      <trkpt lat="43.012243" lon="-7.260963">
        <ele>763.818</ele>
        <time>1999-07-25T13:46:02Z</time>
      </trkpt>
      <trkpt lat="43.012232" lon="-7.260977">
        <ele>764.075</ele>
        <time>1999-07-25T13:46:03Z</time>
      </trkpt>
      <trkpt lat="43.012183" lon="-7.261067">
        <ele>764.873</ele>
        <time>1999-07-25T13:46:08Z</time>
      </trkpt>
      <trkpt lat="43.012176" lon="-7.261084">
        <ele>765.089</ele>
        <time>1999-07-25T13:46:09Z</time>
      </trkpt>
      <trkpt lat="43.012132" lon="-7.261192">
        <ele>766.206</ele>
        <time>1999-07-25T13:46:15Z</time>
      </trkpt>
      <trkpt lat="43.012121" lon="-7.261219">
        <ele>766.426</ele>
        <time>1999-07-25T13:46:16Z</time>
      </trkpt>
      <trkpt lat="43.012084" lon="-7.261337">
        <ele>767.208</ele>
        <time>1999-07-25T13:46:21Z</time>
      </trkpt>
      <trkpt lat="43.012057" lon="-7.261412">
        <ele>767.831</ele>
        <time>1999-07-25T13:46:24Z</time>
      </trkpt>
      <trkpt lat="43.012052" lon="-7.261467">
        <ele>768.477</ele>
        <time>1999-07-25T13:46:26Z</time>
      </trkpt>
      <trkpt lat="43.012040" lon="-7.261570">
        <ele>769.098</ele>
        <time>1999-07-25T13:46:30Z</time>
      </trkpt>
      <trkpt lat="43.012033" lon="-7.261626">
        <ele>769.473</ele>
        <time>1999-07-25T13:46:32Z</time>
      </trkpt>
      <trkpt lat="43.012012" lon="-7.261747">
        <ele>770.443</ele>
        <time>1999-07-25T13:46:37Z</time>
      </trkpt>
      <trkpt lat="43.012008" lon="-7.261771">
        <ele>770.610</ele>
        <time>1999-07-25T13:46:38Z</time>
      </trkpt>
      <trkpt lat="43.012006" lon="-7.261794">
        <ele>770.847</ele>
        <time>1999-07-25T13:46:39Z</time>
      </trkpt>
      <trkpt lat="43.011989" lon="-7.261883">
        <ele>771.865</ele>
        <time>1999-07-25T13:46:43Z</time>
      </trkpt>
      <trkpt lat="43.011975" lon="-7.261959">
        <ele>772.666</ele>
        <time>1999-07-25T13:46:46Z</time>
      </trkpt>
      <trkpt lat="43.011963" lon="-7.262002">
        <ele>772.829</ele>
        <time>1999-07-25T13:46:48Z</time>
      </trkpt>
      <trkpt lat="43.011946" lon="-7.262119">
        <ele>774.021</ele>
        <time>1999-07-25T13:46:53Z</time>
      </trkpt>
      <trkpt lat="43.011936" lon="-7.262141">
        <ele>774.208</ele>
        <time>1999-07-25T13:46:54Z</time>
      </trkpt>
      <trkpt lat="43.011915" lon="-7.262249">
        <ele>775.029</ele>
        <time>1999-07-25T13:46:59Z</time>
      </trkpt>
      <trkpt lat="43.011910" lon="-7.262289">
        <ele>775.855</ele>
        <time>1999-07-25T13:47:01Z</time>
      </trkpt>
      <trkpt lat="43.011896" lon="-7.262351">
        <ele>776.216</ele>
        <time>1999-07-25T13:47:04Z</time>
      </trkpt>
      <trkpt lat="43.011873" lon="-7.262459">
        <ele>777.021</ele>
        <time>1999-07-25T13:47:09Z</time>
      </trkpt>
      <trkpt lat="43.011867" lon="-7.262481">
        <ele>777.491</ele>
        <time>1999-07-25T13:47:10Z</time>
      </trkpt>
      <trkpt lat="43.011839" lon="-7.262592">
        <ele>778.468</ele>
        <time>1999-07-25T13:47:15Z</time>
      </trkpt>
      <trkpt lat="43.011834" lon="-7.262629">
        <ele>778.835</ele>
        <time>1999-07-25T13:47:17Z</time>
      </trkpt>
      <trkpt lat="43.011824" lon="-7.262670">
        <ele>779.473</ele>
        <time>1999-07-25T13:47:19Z</time>
      </trkpt>
      <trkpt lat="43.011801" lon="-7.262747">
        <ele>780.633</ele>
        <time>1999-07-25T13:47:23Z</time>
      </trkpt>
      <trkpt lat="43.011798" lon="-7.262764">
        <ele>780.823</ele>
        <time>1999-07-25T13:47:24Z</time>
      </trkpt>
      <trkpt lat="43.011780" lon="-7.262837">
        <ele>781.615</ele>
        <time>1999-07-25T13:47:28Z</time>
      </trkpt>
      <trkpt lat="43.011775" lon="-7.262881">
        <ele>782.608</ele>
        <time>1999-07-25T13:47:31Z</time>
      </trkpt>
      <trkpt lat="43.011774" lon="-7.262893">
        <ele>782.856</ele>
        <time>1999-07-25T13:47:32Z</time>
      </trkpt>
      <trkpt lat="43.011744" lon="-7.262959">
        <ele>784.052</ele>
        <time>1999-07-25T13:47:36Z</time>
      </trkpt>
      <trkpt lat="43.011737" lon="-7.262979">
        <ele>784.233</ele>
        <time>1999-07-25T13:47:37Z</time>
      </trkpt>
      <trkpt lat="43.011728" lon="-7.263036">
        <ele>785.078</ele>
        <time>1999-07-25T13:47:40Z</time>
      </trkpt>
      <trkpt lat="43.011706" lon="-7.263110">
        <ele>786.278</ele>
        <time>1999-07-25T13:47:44Z</time>
      </trkpt>
      <trkpt lat="43.011692" lon="-7.263176">
        <ele>787.255</ele>
        <time>1999-07-25T13:47:48Z</time>
      </trkpt>
      <trkpt lat="43.011675" lon="-7.263232">
        <ele>787.822</ele>
        <time>1999-07-25T13:47:51Z</time>
      </trkpt>
      <trkpt lat="43.011665" lon="-7.263274">
        <ele>788.470</ele>
        <time>1999-07-25T13:47:53Z</time>
      </trkpt>
      <trkpt lat="43.011633" lon="-7.263389">
        <ele>789.894</ele>
        <time>1999-07-25T13:47:58Z</time>
      </trkpt>
      <trkpt lat="43.011630" lon="-7.263502">
        <ele>790.857</ele>
        <time>1999-07-25T13:48:03Z</time>
      </trkpt>
      <trkpt lat="43.011622" lon="-7.263542">
        <ele>791.422</ele>
        <time>1999-07-25T13:48:05Z</time>
      </trkpt>
      <trkpt lat="43.011595" lon="-7.263605">
        <ele>792.008</ele>
        <time>1999-07-25T13:48:09Z</time>
      </trkpt>
      <trkpt lat="43.011596" lon="-7.263643">
        <ele>792.692</ele>
        <time>1999-07-25T13:48:11Z</time>
      </trkpt>
      <trkpt lat="43.011594" lon="-7.263685">
        <ele>793.228</ele>
        <time>1999-07-25T13:48:13Z</time>
      </trkpt>
      <trkpt lat="43.011571" lon="-7.263766">
        <ele>794.299</ele>
        <time>1999-07-25T13:48:17Z</time>
      </trkpt>
      <trkpt lat="43.011563" lon="-7.263801">
        <ele>794.864</ele>
        <time>1999-07-25T13:48:19Z</time>
      </trkpt>
      <trkpt lat="43.011565" lon="-7.263839">
        <ele>795.244</ele>
        <time>1999-07-25T13:48:21Z</time>
      </trkpt>
      <trkpt lat="43.011561" lon="-7.263917">
        <ele>796.431</ele>
        <time>1999-07-25T13:48:25Z</time>
      </trkpt>
      <trkpt lat="43.011558" lon="-7.263960">
        <ele>797.068</ele>
        <time>1999-07-25T13:48:27Z</time>
      </trkpt>
      <trkpt lat="43.011564" lon="-7.264005">
        <ele>797.436</ele>
        <time>1999-07-25T13:48:29Z</time>
      </trkpt>
      <trkpt lat="43.011594" lon="-7.264123">
        <ele>798.618</ele>
        <time>1999-07-25T13:48:34Z</time>
      </trkpt>
      <trkpt lat="43.011640" lon="-7.264237">
        <ele>800.098</ele>
        <time>1999-07-25T13:48:39Z</time>
      </trkpt>
      <trkpt lat="43.011693" lon="-7.264343">
        <ele>800.817</ele>
        <time>1999-07-25T13:48:44Z</time>
      </trkpt>
      <trkpt lat="43.011703" lon="-7.264365">
        <ele>801.208</ele>
        <time>1999-07-25T13:48:45Z</time>
      </trkpt>
      <trkpt lat="43.011784" lon="-7.264507">
        <ele>802.094</ele>
        <time>1999-07-25T13:48:52Z</time>
      </trkpt>
      <trkpt lat="43.011824" lon="-7.264574">
        <ele>802.290</ele>
        <time>1999-07-25T13:48:55Z</time>
      </trkpt>
      <trkpt lat="43.011899" lon="-7.264681">
        <ele>803.261</ele>
        <time>1999-07-25T13:49:00Z</time>
      </trkpt>
      <trkpt lat="43.011966" lon="-7.264778">
        <ele>803.846</ele>
        <time>1999-07-25T13:49:04Z</time>
      </trkpt>
      <trkpt lat="43.012024" lon="-7.264840">
        <ele>804.256</ele>
        <time>1999-07-25T13:49:07Z</time>
      </trkpt>
      <trkpt lat="43.012059" lon="-7.264881">
        <ele>804.863</ele>
        <time>1999-07-25T13:49:09Z</time>
      </trkpt>
      <trkpt lat="43.012117" lon="-7.264945">
        <ele>805.270</ele>
        <time>1999-07-25T13:49:12Z</time>
      </trkpt>
      <trkpt lat="43.012200" lon="-7.265034">
        <ele>805.648</ele>
        <time>1999-07-25T13:49:16Z</time>
      </trkpt>
      <trkpt lat="43.012300" lon="-7.265124">
        <ele>806.083</ele>
        <time>1999-07-25T13:49:20Z</time>
      </trkpt>
      <trkpt lat="43.012328" lon="-7.265154">
        <ele>806.025</ele>
        <time>1999-07-25T13:49:21Z</time>
      </trkpt>
      <trkpt lat="43.012416" lon="-7.265251">
        <ele>806.417</ele>
        <time>1999-07-25T13:49:24Z</time>
      </trkpt>
      <trkpt lat="43.012535" lon="-7.265385">
        <ele>806.608</ele>
        <time>1999-07-25T13:49:28Z</time>
      </trkpt>
      <trkpt lat="43.012735" lon="-7.265624">
        <ele>807.071</ele>
        <time>1999-07-25T13:49:35Z</time>
      </trkpt>
      <trkpt lat="43.012893" lon="-7.265831">
        <ele>807.497</ele>
        <time>1999-07-25T13:49:41Z</time>
      </trkpt>
      <trkpt lat="43.012922" lon="-7.265872">
        <ele>807.418</ele>
        <time>1999-07-25T13:49:42Z</time>
      </trkpt>
      <trkpt lat="43.013081" lon="-7.266176">
        <ele>807.843</ele>
        <time>1999-07-25T13:49:49Z</time>
      </trkpt>
      <trkpt lat="43.013156" lon="-7.266373">
        <ele>808.283</ele>
        <time>1999-07-25T13:49:54Z</time>
      </trkpt>
      <trkpt lat="43.013168" lon="-7.266411">
        <ele>808.430</ele>
        <time>1999-07-25T13:49:55Z</time>
      </trkpt>
      <trkpt lat="43.013205" lon="-7.266521">
        <ele>808.887</ele>
        <time>1999-07-25T13:49:58Z</time>
      </trkpt>
      <trkpt lat="43.013261" lon="-7.266652">
        <ele>809.435</ele>
        <time>1999-07-25T13:50:02Z</time>
      </trkpt>
      <trkpt lat="43.013306" lon="-7.266760">
        <ele>810.689</ele>
        <time>1999-07-25T13:50:06Z</time>
      </trkpt>
      <trkpt lat="43.013338" lon="-7.266843">
        <ele>811.806</ele>
        <time>1999-07-25T13:50:09Z</time>
      </trkpt>
      <trkpt lat="43.013395" lon="-7.266991">
        <ele>813.026</ele>
        <time>1999-07-25T13:50:14Z</time>
      </trkpt>
      <trkpt lat="43.013407" lon="-7.267023">
        <ele>813.208</ele>
        <time>1999-07-25T13:50:15Z</time>
      </trkpt>
      <trkpt lat="43.013472" lon="-7.267177">
        <ele>814.021</ele>
        <time>1999-07-25T13:50:20Z</time>
      </trkpt>
      <trkpt lat="43.013520" lon="-7.267256">
        <ele>814.847</ele>
        <time>1999-07-25T13:50:23Z</time>
      </trkpt>
      <trkpt lat="43.013538" lon="-7.267311">
        <ele>815.278</ele>
        <time>1999-07-25T13:50:25Z</time>
      </trkpt>
      <trkpt lat="43.013562" lon="-7.267365">
        <ele>815.493</ele>
        <time>1999-07-25T13:50:27Z</time>
      </trkpt>
      <trkpt lat="43.013585" lon="-7.267374">
        <ele>815.653</ele>
        <time>1999-07-25T13:50:28Z</time>
      </trkpt>
      <trkpt lat="43.013669" lon="-7.267399">
        <ele>816.240</ele>
        <time>1999-07-25T13:50:31Z</time>
      </trkpt>
      <trkpt lat="43.013698" lon="-7.267417">
        <ele>816.287</ele>
        <time>1999-07-25T13:50:32Z</time>
      </trkpt>
      <trkpt lat="43.013753" lon="-7.267457">
        <ele>816.485</ele>
        <time>1999-07-25T13:50:34Z</time>
      </trkpt>
      <trkpt lat="43.013909" lon="-7.267604">
        <ele>816.843</ele>
        <time>1999-07-25T13:50:40Z</time>
      </trkpt>
      <trkpt lat="43.013990" lon="-7.267688">
        <ele>817.064</ele>
        <time>1999-07-25T13:50:43Z</time>
      </trkpt>
      <trkpt lat="43.014020" lon="-7.267712">
        <ele>817.210</ele>
        <time>1999-07-25T13:50:44Z</time>
      </trkpt>
      <trkpt lat="43.014147" lon="-7.267854">
        <ele>817.808</ele>
        <time>1999-07-25T13:50:49Z</time>
      </trkpt>
      <trkpt lat="43.014221" lon="-7.267934">
        <ele>818.227</ele>
        <time>1999-07-25T13:50:52Z</time>
      </trkpt>
      <trkpt lat="43.014302" lon="-7.268049">
        <ele>818.863</ele>
        <time>1999-07-25T13:50:56Z</time>
      </trkpt>
      <trkpt lat="43.014427" lon="-7.268205">
        <ele>819.494</ele>
        <time>1999-07-25T13:51:02Z</time>
      </trkpt>
      <trkpt lat="43.014623" lon="-7.268461">
        <ele>820.499</ele>
        <time>1999-07-25T13:51:11Z</time>
      </trkpt>
      <trkpt lat="43.014827" lon="-7.268701">
        <ele>821.479</ele>
        <time>1999-07-25T13:51:19Z</time>
      </trkpt>
      <trkpt lat="43.014886" lon="-7.268754">
        <ele>821.436</ele>
        <time>1999-07-25T13:51:21Z</time>
      </trkpt>
      <trkpt lat="43.015039" lon="-7.268927">
        <ele>822.083</ele>
        <time>1999-07-25T13:51:27Z</time>
      </trkpt>
      <trkpt lat="43.015167" lon="-7.269071">
        <ele>822.481</ele>
        <time>1999-07-25T13:51:32Z</time>
      </trkpt>
      <trkpt lat="43.015239" lon="-7.269163">
        <ele>822.827</ele>
        <time>1999-07-25T13:51:35Z</time>
      </trkpt>
      <trkpt lat="43.015331" lon="-7.269280">
        <ele>823.268</ele>
        <time>1999-07-25T13:51:39Z</time>
      </trkpt>
      <trkpt lat="43.015429" lon="-7.269399">
        <ele>824.214</ele>
        <time>1999-07-25T13:51:43Z</time>
      </trkpt>
      <trkpt lat="43.015476" lon="-7.269452">
        <ele>824.408</ele>
        <time>1999-07-25T13:51:45Z</time>
      </trkpt>
      <trkpt lat="43.015610" lon="-7.269626">
        <ele>825.685</ele>
        <time>1999-07-25T13:51:51Z</time>
      </trkpt>
      <trkpt lat="43.015715" lon="-7.269722">
        <ele>826.621</ele>
        <time>1999-07-25T13:51:55Z</time>
      </trkpt>
      <trkpt lat="43.015768" lon="-7.269773">
        <ele>826.642</ele>
        <time>1999-07-25T13:51:57Z</time>
      </trkpt>
      <trkpt lat="43.015941" lon="-7.269894">
        <ele>827.847</ele>
        <time>1999-07-25T13:52:03Z</time>
      </trkpt>
      <trkpt lat="43.016028" lon="-7.269957">
        <ele>828.247</ele>
        <time>1999-07-25T13:52:06Z</time>
      </trkpt>
      <trkpt lat="43.016121" lon="-7.270026">
        <ele>828.844</ele>
        <time>1999-07-25T13:52:09Z</time>
      </trkpt>
      <trkpt lat="43.016253" lon="-7.270127">
        <ele>829.431</ele>
        <time>1999-07-25T13:52:14Z</time>
      </trkpt>
      <trkpt lat="43.016388" lon="-7.270207">
        <ele>829.879</ele>
        <time>1999-07-25T13:52:18Z</time>
      </trkpt>
      <trkpt lat="43.016428" lon="-7.270223">
        <ele>830.071</ele>
        <time>1999-07-25T13:52:19Z</time>
      </trkpt>
      <trkpt lat="43.016468" lon="-7.270246">
        <ele>830.041</ele>
        <time>1999-07-25T13:52:20Z</time>
      </trkpt>
      <trkpt lat="43.016654" lon="-7.270350">
        <ele>830.015</ele>
        <time>1999-07-25T13:52:24Z</time>
      </trkpt>
      <trkpt lat="43.016742" lon="-7.270396">
        <ele>830.008</ele>
        <time>1999-07-25T13:52:26Z</time>
      </trkpt>
      <trkpt lat="43.016821" lon="-7.270439">
        <ele>829.470</ele>
        <time>1999-07-25T13:52:30Z</time>
      </trkpt>
      <trkpt lat="43.016842" lon="-7.270468">
        <ele>829.266</ele>
        <time>1999-07-25T13:52:32Z</time>
      </trkpt>
      <trkpt lat="43.016844" lon="-7.270475">
        <ele>828.847</ele>
        <time>1999-07-25T13:52:34Z</time>
      </trkpt>
      <trkpt lat="43.016873" lon="-7.270489">
        <ele>827.462</ele>
        <time>1999-07-25T13:53:40Z</time>
      </trkpt>
      <trkpt lat="43.017013" lon="-7.270494">
        <ele>827.262</ele>
        <time>1999-07-25T13:53:44Z</time>
      </trkpt>
      <trkpt lat="43.017059" lon="-7.270509">
        <ele>827.039</ele>
        <time>1999-07-25T13:53:45Z</time>
      </trkpt>
      <trkpt lat="43.017212" lon="-7.270559">
        <ele>827.066</ele>
        <time>1999-07-25T13:53:48Z</time>
      </trkpt>
      <trkpt lat="43.017324" lon="-7.270590">
        <ele>826.834</ele>
        <time>1999-07-25T13:53:50Z</time>
      </trkpt>
      <trkpt lat="43.017429" lon="-7.270624">
        <ele>826.451</ele>
        <time>1999-07-25T13:53:52Z</time>
      </trkpt>
      <trkpt lat="43.017537" lon="-7.270666">
        <ele>826.201</ele>
        <time>1999-07-25T13:53:54Z</time>
      </trkpt>
      <trkpt lat="43.017651" lon="-7.270712">
        <ele>826.011</ele>
        <time>1999-07-25T13:53:56Z</time>
      </trkpt>
      <trkpt lat="43.017758" lon="-7.270746">
        <ele>825.808</ele>
        <time>1999-07-25T13:53:58Z</time>
      </trkpt>
      <trkpt lat="43.017858" lon="-7.270777">
        <ele>825.618</ele>
        <time>1999-07-25T13:54:00Z</time>
      </trkpt>
      <trkpt lat="43.017955" lon="-7.270815">
        <ele>825.214</ele>
        <time>1999-07-25T13:54:02Z</time>
      </trkpt>
      <trkpt lat="43.018048" lon="-7.270857">
        <ele>824.845</ele>
        <time>1999-07-25T13:54:04Z</time>
      </trkpt>
      <trkpt lat="43.018360" lon="-7.271010">
        <ele>824.450</ele>
        <time>1999-07-25T13:54:10Z</time>
      </trkpt>
      <trkpt lat="43.018413" lon="-7.271044">
        <ele>824.440</ele>
        <time>1999-07-25T13:54:11Z</time>
      </trkpt>
      <trkpt lat="43.018555" lon="-7.271185">
        <ele>824.487</ele>
        <time>1999-07-25T13:54:14Z</time>
      </trkpt>
      <trkpt lat="43.018805" lon="-7.271454">
        <ele>824.254</ele>
        <time>1999-07-25T13:54:20Z</time>
      </trkpt>
      <trkpt lat="43.018884" lon="-7.271542">
        <ele>824.292</ele>
        <time>1999-07-25T13:54:22Z</time>
      </trkpt>
      <trkpt lat="43.018984" lon="-7.271669">
        <ele>824.287</ele>
        <time>1999-07-25T13:54:25Z</time>
      </trkpt>
      <trkpt lat="43.019113" lon="-7.271832">
        <ele>824.642</ele>
        <time>1999-07-25T13:54:29Z</time>
      </trkpt>
      <trkpt lat="43.019204" lon="-7.271945">
        <ele>825.026</ele>
        <time>1999-07-25T13:54:32Z</time>
      </trkpt>
      <trkpt lat="43.019291" lon="-7.272061">
        <ele>825.808</ele>
        <time>1999-07-25T13:54:35Z</time>
      </trkpt>
      <trkpt lat="43.019346" lon="-7.272141">
        <ele>826.211</ele>
        <time>1999-07-25T13:54:37Z</time>
      </trkpt>
      <trkpt lat="43.019403" lon="-7.272216">
        <ele>826.627</ele>
        <time>1999-07-25T13:54:39Z</time>
      </trkpt>
      <trkpt lat="43.019433" lon="-7.272251">
        <ele>826.898</ele>
        <time>1999-07-25T13:54:40Z</time>
      </trkpt>
      <trkpt lat="43.019526" lon="-7.272360">
        <ele>827.283</ele>
        <time>1999-07-25T13:54:43Z</time>
      </trkpt>
      <trkpt lat="43.019585" lon="-7.272446">
        <ele>827.853</ele>
        <time>1999-07-25T13:54:45Z</time>
      </trkpt>
      <trkpt lat="43.019615" lon="-7.272493">
        <ele>828.050</ele>
        <time>1999-07-25T13:54:46Z</time>
      </trkpt>
      <trkpt lat="43.019740" lon="-7.272676">
        <ele>828.897</ele>
        <time>1999-07-25T13:54:50Z</time>
      </trkpt>
      <trkpt lat="43.019795" lon="-7.272767">
        <ele>829.285</ele>
        <time>1999-07-25T13:54:52Z</time>
      </trkpt>
      <trkpt lat="43.020011" lon="-7.273082">
        <ele>830.085</ele>
        <time>1999-07-25T13:55:00Z</time>
      </trkpt>
      <trkpt lat="43.020037" lon="-7.273116">
        <ele>830.289</ele>
        <time>1999-07-25T13:55:01Z</time>
      </trkpt>
      <trkpt lat="43.020243" lon="-7.273404">
        <ele>831.417</ele>
        <time>1999-07-25T13:55:09Z</time>
      </trkpt>
      <trkpt lat="43.020419" lon="-7.273678">
        <ele>832.608</ele>
        <time>1999-07-25T13:55:16Z</time>
      </trkpt>
      <trkpt lat="43.020564" lon="-7.273935">
        <ele>833.491</ele>
        <time>1999-07-25T13:55:22Z</time>
      </trkpt>
      <trkpt lat="43.020617" lon="-7.274015">
        <ele>833.627</ele>
        <time>1999-07-25T13:55:24Z</time>
      </trkpt>
      <trkpt lat="43.020751" lon="-7.274199">
        <ele>834.258</ele>
        <time>1999-07-25T13:55:29Z</time>
      </trkpt>
      <trkpt lat="43.020861" lon="-7.274346">
        <ele>834.813</ele>
        <time>1999-07-25T13:55:33Z</time>
      </trkpt>
      <trkpt lat="43.020947" lon="-7.274443">
        <ele>835.023</ele>
        <time>1999-07-25T13:55:36Z</time>
      </trkpt>
      <trkpt lat="43.021091" lon="-7.274615">
        <ele>835.860</ele>
        <time>1999-07-25T13:55:41Z</time>
      </trkpt>
      <trkpt lat="43.021169" lon="-7.274721">
        <ele>836.827</ele>
        <time>1999-07-25T13:55:44Z</time>
      </trkpt>
      <trkpt lat="43.021195" lon="-7.274759">
        <ele>837.275</ele>
        <time>1999-07-25T13:55:45Z</time>
      </trkpt>
      <trkpt lat="43.021352" lon="-7.275003">
        <ele>838.072</ele>
        <time>1999-07-25T13:55:51Z</time>
      </trkpt>
      <trkpt lat="43.021512" lon="-7.275325">
        <ele>839.413</ele>
        <time>1999-07-25T13:55:58Z</time>
      </trkpt>
      <trkpt lat="43.021536" lon="-7.275374">
        <ele>839.414</ele>
        <time>1999-07-25T13:55:59Z</time>
      </trkpt>
      <trkpt lat="43.021704" lon="-7.275725">
        <ele>839.608</ele>
        <time>1999-07-25T13:56:06Z</time>
      </trkpt>
      <trkpt lat="43.021807" lon="-7.276047">
        <ele>839.610</ele>
        <time>1999-07-25T13:56:12Z</time>
      </trkpt>
      <trkpt lat="43.021972" lon="-7.276428">
        <ele>839.866</ele>
        <time>1999-07-25T13:56:19Z</time>
      </trkpt>
      <trkpt lat="43.022001" lon="-7.276478">
        <ele>839.817</ele>
        <time>1999-07-25T13:56:20Z</time>
      </trkpt>
      <trkpt lat="43.022215" lon="-7.276871">
        <ele>840.062</ele>
        <time>1999-07-25T13:56:28Z</time>
      </trkpt>
      <trkpt lat="43.022322" lon="-7.277069">
        <ele>840.292</ele>
        <time>1999-07-25T13:56:32Z</time>
      </trkpt>
      <trkpt lat="43.022449" lon="-7.277329">
        <ele>840.469</ele>
        <time>1999-07-25T13:56:37Z</time>
      </trkpt>
      <trkpt lat="43.022691" lon="-7.277758">
        <ele>840.626</ele>
        <time>1999-07-25T13:56:45Z</time>
      </trkpt>
      <trkpt lat="43.022985" lon="-7.278121">
        <ele>840.644</ele>
        <time>1999-07-25T13:56:53Z</time>
      </trkpt>
      <trkpt lat="43.023224" lon="-7.278411">
        <ele>840.674</ele>
        <time>1999-07-25T13:57:00Z</time>
      </trkpt>
      <trkpt lat="43.023475" lon="-7.278660">
        <ele>841.056</ele>
        <time>1999-07-25T13:57:07Z</time>
      </trkpt>
      <trkpt lat="43.023649" lon="-7.278852">
        <ele>841.221</ele>
        <time>1999-07-25T13:57:12Z</time>
      </trkpt>
      <trkpt lat="43.023746" lon="-7.278967">
        <ele>841.408</ele>
        <time>1999-07-25T13:57:15Z</time>
      </trkpt>
      <trkpt lat="43.023994" lon="-7.279295">
        <ele>842.250</ele>
        <time>1999-07-25T13:57:23Z</time>
      </trkpt>
      <trkpt lat="43.024044" lon="-7.279390">
        <ele>842.286</ele>
        <time>1999-07-25T13:57:25Z</time>
      </trkpt>
      <trkpt lat="43.024172" lon="-7.279603">
        <ele>842.687</ele>
        <time>1999-07-25T13:57:30Z</time>
      </trkpt>
      <trkpt lat="43.024299" lon="-7.279844">
        <ele>842.872</ele>
        <time>1999-07-25T13:57:35Z</time>
      </trkpt>
      <trkpt lat="43.024334" lon="-7.279959">
        <ele>843.222</ele>
        <time>1999-07-25T13:57:37Z</time>
      </trkpt>
      <trkpt lat="43.024349" lon="-7.280026">
        <ele>843.249</ele>
        <time>1999-07-25T13:57:38Z</time>
      </trkpt>
      <trkpt lat="43.024377" lon="-7.280158">
        <ele>843.456</ele>
        <time>1999-07-25T13:57:40Z</time>
      </trkpt>
      <trkpt lat="43.024411" lon="-7.280269">
        <ele>843.674</ele>
        <time>1999-07-25T13:57:42Z</time>
      </trkpt>
      <trkpt lat="43.024589" lon="-7.280719">
        <ele>844.265</ele>
        <time>1999-07-25T13:57:51Z</time>
      </trkpt>
      <trkpt lat="43.024687" lon="-7.280892">
        <ele>844.468</ele>
        <time>1999-07-25T13:57:55Z</time>
      </trkpt>
      <trkpt lat="43.024711" lon="-7.280939">
        <ele>844.414</ele>
        <time>1999-07-25T13:57:56Z</time>
      </trkpt>
      <trkpt lat="43.024773" lon="-7.281089">
        <ele>844.608</ele>
        <time>1999-07-25T13:57:59Z</time>
      </trkpt>
      <trkpt lat="43.024839" lon="-7.281272">
        <ele>844.649</ele>
        <time>1999-07-25T13:58:02Z</time>
      </trkpt>
      <trkpt lat="43.024892" lon="-7.281415">
        <ele>844.615</ele>
        <time>1999-07-25T13:58:04Z</time>
      </trkpt>
      <trkpt lat="43.024922" lon="-7.281494">
        <ele>844.686</ele>
        <time>1999-07-25T13:58:05Z</time>
      </trkpt>
      <trkpt lat="43.025093" lon="-7.281862">
        <ele>844.671</ele>
        <time>1999-07-25T13:58:09Z</time>
      </trkpt>
      <trkpt lat="43.025153" lon="-7.281960">
        <ele>844.631</ele>
        <time>1999-07-25T13:58:10Z</time>
      </trkpt>
      <trkpt lat="43.025300" lon="-7.282130">
        <ele>844.228</ele>
        <time>1999-07-25T13:58:12Z</time>
      </trkpt>
      <trkpt lat="43.025380" lon="-7.282215">
        <ele>844.015</ele>
        <time>1999-07-25T13:58:13Z</time>
      </trkpt>
      <trkpt lat="43.025569" lon="-7.282363">
        <ele>842.613</ele>
        <time>1999-07-25T13:58:15Z</time>
      </trkpt>
      <trkpt lat="43.025772" lon="-7.282480">
        <ele>841.686</ele>
        <time>1999-07-25T13:58:17Z</time>
      </trkpt>
      <trkpt lat="43.025976" lon="-7.282589">
        <ele>840.260</ele>
        <time>1999-07-25T13:58:19Z</time>
      </trkpt>
      <trkpt lat="43.026188" lon="-7.282665">
        <ele>838.626</ele>
        <time>1999-07-25T13:58:21Z</time>
      </trkpt>
      <trkpt lat="43.026294" lon="-7.282692">
        <ele>838.008</ele>
        <time>1999-07-25T13:58:22Z</time>
      </trkpt>
      <trkpt lat="43.026399" lon="-7.282726">
        <ele>836.851</ele>
        <time>1999-07-25T13:58:23Z</time>
      </trkpt>
      <trkpt lat="43.026606" lon="-7.282826">
        <ele>834.877</ele>
        <time>1999-07-25T13:58:25Z</time>
      </trkpt>
      <trkpt lat="43.026707" lon="-7.282887">
        <ele>833.818</ele>
        <time>1999-07-25T13:58:26Z</time>
      </trkpt>
      <trkpt lat="43.026905" lon="-7.283020">
        <ele>832.293</ele>
        <time>1999-07-25T13:58:28Z</time>
      </trkpt>
      <trkpt lat="43.027105" lon="-7.283136">
        <ele>830.653</ele>
        <time>1999-07-25T13:58:30Z</time>
      </trkpt>
      <trkpt lat="43.027206" lon="-7.283193">
        <ele>829.290</ele>
        <time>1999-07-25T13:58:31Z</time>
      </trkpt>
      <trkpt lat="43.027306" lon="-7.283254">
        <ele>828.227</ele>
        <time>1999-07-25T13:58:32Z</time>
      </trkpt>
      <trkpt lat="43.027401" lon="-7.283324">
        <ele>827.495</ele>
        <time>1999-07-25T13:58:33Z</time>
      </trkpt>
      <trkpt lat="43.027579" lon="-7.283489">
        <ele>825.816</ele>
        <time>1999-07-25T13:58:35Z</time>
      </trkpt>
      <trkpt lat="43.027664" lon="-7.283575">
        <ele>825.276</ele>
        <time>1999-07-25T13:58:36Z</time>
      </trkpt>
      <trkpt lat="43.027749" lon="-7.283659">
        <ele>824.613</ele>
        <time>1999-07-25T13:58:37Z</time>
      </trkpt>
      <trkpt lat="43.027902" lon="-7.283847">
        <ele>823.408</ele>
        <time>1999-07-25T13:58:39Z</time>
      </trkpt>
      <trkpt lat="43.028049" lon="-7.284071">
        <ele>822.014</ele>
        <time>1999-07-25T13:58:41Z</time>
      </trkpt>
      <trkpt lat="43.028170" lon="-7.284331">
        <ele>820.650</ele>
        <time>1999-07-25T13:58:43Z</time>
      </trkpt>
      <trkpt lat="43.028224" lon="-7.284475">
        <ele>819.231</ele>
        <time>1999-07-25T13:58:44Z</time>
      </trkpt>
      <trkpt lat="43.028280" lon="-7.284618">
        <ele>818.636</ele>
        <time>1999-07-25T13:58:45Z</time>
      </trkpt>
      <trkpt lat="43.028344" lon="-7.284751">
        <ele>817.846</ele>
        <time>1999-07-25T13:58:46Z</time>
      </trkpt>
      <trkpt lat="43.028476" lon="-7.285018">
        <ele>816.493</ele>
        <time>1999-07-25T13:58:48Z</time>
      </trkpt>
      <trkpt lat="43.028600" lon="-7.285273">
        <ele>815.470</ele>
        <time>1999-07-25T13:58:50Z</time>
      </trkpt>
      <trkpt lat="43.028653" lon="-7.285395">
        <ele>814.418</ele>
        <time>1999-07-25T13:58:51Z</time>
      </trkpt>
      <trkpt lat="43.028749" lon="-7.285624">
        <ele>812.291</ele>
        <time>1999-07-25T13:58:53Z</time>
      </trkpt>
      <trkpt lat="43.028806" lon="-7.285726">
        <ele>811.081</ele>
        <time>1999-07-25T13:58:54Z</time>
      </trkpt>
      <trkpt lat="43.028915" lon="-7.285915">
        <ele>808.819</ele>
        <time>1999-07-25T13:58:56Z</time>
      </trkpt>
      <trkpt lat="43.028959" lon="-7.286007">
        <ele>808.008</ele>
        <time>1999-07-25T13:58:57Z</time>
      </trkpt>
      <trkpt lat="43.028999" lon="-7.286098">
        <ele>806.692</ele>
        <time>1999-07-25T13:58:58Z</time>
      </trkpt>
      <trkpt lat="43.029039" lon="-7.286186">
        <ele>805.058</ele>
        <time>1999-07-25T13:58:59Z</time>
      </trkpt>
      <trkpt lat="43.029078" lon="-7.286274">
        <ele>803.679</ele>
        <time>1999-07-25T13:59:00Z</time>
      </trkpt>
      <trkpt lat="43.029117" lon="-7.286351">
        <ele>802.214</ele>
        <time>1999-07-25T13:59:01Z</time>
      </trkpt>
      <trkpt lat="43.029154" lon="-7.286424">
        <ele>801.024</ele>
        <time>1999-07-25T13:59:02Z</time>
      </trkpt>
      <trkpt lat="43.029197" lon="-7.286500">
        <ele>799.621</ele>
        <time>1999-07-25T13:59:03Z</time>
      </trkpt>
      <trkpt lat="43.029247" lon="-7.286570">
        <ele>798.298</ele>
        <time>1999-07-25T13:59:04Z</time>
      </trkpt>
      <trkpt lat="43.029301" lon="-7.286641">
        <ele>797.066</ele>
        <time>1999-07-25T13:59:05Z</time>
      </trkpt>
      <trkpt lat="43.029359" lon="-7.286714">
        <ele>796.068</ele>
        <time>1999-07-25T13:59:06Z</time>
      </trkpt>
      <trkpt lat="43.029424" lon="-7.286785">
        <ele>794.642</ele>
        <time>1999-07-25T13:59:07Z</time>
      </trkpt>
      <trkpt lat="43.029500" lon="-7.286853">
        <ele>793.026</ele>
        <time>1999-07-25T13:59:08Z</time>
      </trkpt>
      <trkpt lat="43.029580" lon="-7.286913">
        <ele>791.608</ele>
        <time>1999-07-25T13:59:09Z</time>
      </trkpt>
      <trkpt lat="43.029665" lon="-7.286970">
        <ele>790.089</ele>
        <time>1999-07-25T13:59:10Z</time>
      </trkpt>
      <trkpt lat="43.029756" lon="-7.287024">
        <ele>788.275</ele>
        <time>1999-07-25T13:59:11Z</time>
      </trkpt>
      <trkpt lat="43.029859" lon="-7.287076">
        <ele>786.626</ele>
        <time>1999-07-25T13:59:12Z</time>
      </trkpt>
      <trkpt lat="43.029963" lon="-7.287131">
        <ele>785.691</ele>
        <time>1999-07-25T13:59:13Z</time>
      </trkpt>
      <trkpt lat="43.030067" lon="-7.287177">
        <ele>784.021</ele>
        <time>1999-07-25T13:59:14Z</time>
      </trkpt>
      <trkpt lat="43.030276" lon="-7.287245">
        <ele>782.048</ele>
        <time>1999-07-25T13:59:16Z</time>
      </trkpt>
      <trkpt lat="43.030369" lon="-7.287275">
        <ele>781.085</ele>
        <time>1999-07-25T13:59:17Z</time>
      </trkpt>
      <trkpt lat="43.030452" lon="-7.287309">
        <ele>780.283</ele>
        <time>1999-07-25T13:59:18Z</time>
      </trkpt>
      <trkpt lat="43.030607" lon="-7.287370">
        <ele>778.643</ele>
        <time>1999-07-25T13:59:20Z</time>
      </trkpt>
      <trkpt lat="43.030686" lon="-7.287381">
        <ele>777.664</ele>
        <time>1999-07-25T13:59:21Z</time>
      </trkpt>
      <trkpt lat="43.030765" lon="-7.287378">
        <ele>776.210</ele>
        <time>1999-07-25T13:59:22Z</time>
      </trkpt>
      <trkpt lat="43.030847" lon="-7.287350">
        <ele>774.608</ele>
        <time>1999-07-25T13:59:23Z</time>
      </trkpt>
      <trkpt lat="43.030930" lon="-7.287304">
        <ele>773.237</ele>
        <time>1999-07-25T13:59:24Z</time>
      </trkpt>
      <trkpt lat="43.031012" lon="-7.287258">
        <ele>772.093</ele>
        <time>1999-07-25T13:59:25Z</time>
      </trkpt>
      <trkpt lat="43.031100" lon="-7.287226">
        <ele>771.014</ele>
        <time>1999-07-25T13:59:26Z</time>
      </trkpt>
      <trkpt lat="43.031187" lon="-7.287218">
        <ele>770.069</ele>
        <time>1999-07-25T13:59:27Z</time>
      </trkpt>
      <trkpt lat="43.031266" lon="-7.287232">
        <ele>768.899</ele>
        <time>1999-07-25T13:59:28Z</time>
      </trkpt>
      <trkpt lat="43.031324" lon="-7.287278">
        <ele>767.856</ele>
        <time>1999-07-25T13:59:29Z</time>
      </trkpt>
      <trkpt lat="43.031377" lon="-7.287343">
        <ele>766.863</ele>
        <time>1999-07-25T13:59:30Z</time>
      </trkpt>
      <trkpt lat="43.031416" lon="-7.287419">
        <ele>766.081</ele>
        <time>1999-07-25T13:59:31Z</time>
      </trkpt>
      <trkpt lat="43.031458" lon="-7.287593">
        <ele>764.869</ele>
        <time>1999-07-25T13:59:33Z</time>
      </trkpt>
      <trkpt lat="43.031488" lon="-7.287808">
        <ele>763.404</ele>
        <time>1999-07-25T13:59:35Z</time>
      </trkpt>
      <trkpt lat="43.031527" lon="-7.288007">
        <ele>761.424</ele>
        <time>1999-07-25T13:59:37Z</time>
      </trkpt>
      <trkpt lat="43.031547" lon="-7.288107">
        <ele>760.608</ele>
        <time>1999-07-25T13:59:38Z</time>
      </trkpt>
      <trkpt lat="43.031572" lon="-7.288202">
        <ele>759.619</ele>
        <time>1999-07-25T13:59:39Z</time>
      </trkpt>
      <trkpt lat="43.031615" lon="-7.288378">
        <ele>758.245</ele>
        <time>1999-07-25T13:59:41Z</time>
      </trkpt>
      <trkpt lat="43.031660" lon="-7.288541">
        <ele>757.056</ele>
        <time>1999-07-25T13:59:43Z</time>
      </trkpt>
      <trkpt lat="43.031685" lon="-7.288614">
        <ele>756.811</ele>
        <time>1999-07-25T13:59:44Z</time>
      </trkpt>
      <trkpt lat="43.031708" lon="-7.288688">
        <ele>756.631</ele>
        <time>1999-07-25T13:59:45Z</time>
      </trkpt>
      <trkpt lat="43.031760" lon="-7.288834">
        <ele>756.458</ele>
        <time>1999-07-25T13:59:47Z</time>
      </trkpt>
      <trkpt lat="43.031789" lon="-7.288903">
        <ele>756.435</ele>
        <time>1999-07-25T13:59:48Z</time>
      </trkpt>
      <trkpt lat="43.031989" lon="-7.289219">
        <ele>756.063</ele>
        <time>1999-07-25T13:59:53Z</time>
      </trkpt>
      <trkpt lat="43.032040" lon="-7.289269">
        <ele>755.863</ele>
        <time>1999-07-25T13:59:54Z</time>
      </trkpt>
      <trkpt lat="43.032247" lon="-7.289440">
        <ele>755.244</ele>
        <time>1999-07-25T13:59:58Z</time>
      </trkpt>
      <trkpt lat="43.032374" lon="-7.289545">
        <ele>754.818</ele>
        <time>1999-07-25T14:00:00Z</time>
      </trkpt>
      <trkpt lat="43.032505" lon="-7.289681">
        <ele>754.608</ele>
        <time>1999-07-25T14:00:02Z</time>
      </trkpt>
      <trkpt lat="43.032811" lon="-7.290018">
        <ele>754.049</ele>
        <time>1999-07-25T14:00:06Z</time>
      </trkpt>
      <trkpt lat="43.032902" lon="-7.290080">
        <ele>753.615</ele>
        <time>1999-07-25T14:00:07Z</time>
      </trkpt>
      <trkpt lat="43.033129" lon="-7.290211">
        <ele>752.286</ele>
        <time>1999-07-25T14:00:10Z</time>
      </trkpt>
      <trkpt lat="43.033221" lon="-7.290271">
        <ele>750.631</ele>
        <time>1999-07-25T14:00:12Z</time>
      </trkpt>
      <trkpt lat="43.033240" lon="-7.290324">
        <ele>749.871</ele>
        <time>1999-07-25T14:00:13Z</time>
      </trkpt>
      <trkpt lat="43.033253" lon="-7.290395">
        <ele>749.258</ele>
        <time>1999-07-25T14:00:14Z</time>
      </trkpt>
      <trkpt lat="43.033258" lon="-7.290592">
        <ele>747.895</ele>
        <time>1999-07-25T14:00:16Z</time>
      </trkpt>
      <trkpt lat="43.033258" lon="-7.290707">
        <ele>747.053</ele>
        <time>1999-07-25T14:00:17Z</time>
      </trkpt>
      <trkpt lat="43.033252" lon="-7.290834">
        <ele>746.431</ele>
        <time>1999-07-25T14:00:18Z</time>
      </trkpt>
      <trkpt lat="43.033239" lon="-7.291093">
        <ele>745.461</ele>
        <time>1999-07-25T14:00:20Z</time>
      </trkpt>
      <trkpt lat="43.033236" lon="-7.291224">
        <ele>745.207</ele>
        <time>1999-07-25T14:00:21Z</time>
      </trkpt>
      <trkpt lat="43.033227" lon="-7.291492">
        <ele>744.208</ele>
        <time>1999-07-25T14:00:23Z</time>
      </trkpt>
      <trkpt lat="43.033215" lon="-7.291770">
        <ele>742.476</ele>
        <time>1999-07-25T14:00:25Z</time>
      </trkpt>
      <trkpt lat="43.033210" lon="-7.291914">
        <ele>741.652</ele>
        <time>1999-07-25T14:00:26Z</time>
      </trkpt>
      <trkpt lat="43.033203" lon="-7.292059">
        <ele>740.853</ele>
        <time>1999-07-25T14:00:27Z</time>
      </trkpt>
      <trkpt lat="43.033195" lon="-7.292357">
        <ele>738.878</ele>
        <time>1999-07-25T14:00:29Z</time>
      </trkpt>
      <trkpt lat="43.033191" lon="-7.292502">
        <ele>737.678</ele>
        <time>1999-07-25T14:00:30Z</time>
      </trkpt>
      <trkpt lat="43.033187" lon="-7.292640">
        <ele>736.655</ele>
        <time>1999-07-25T14:00:31Z</time>
      </trkpt>
      <trkpt lat="43.033181" lon="-7.292780">
        <ele>735.232</ele>
        <time>1999-07-25T14:00:32Z</time>
      </trkpt>
      <trkpt lat="43.033174" lon="-7.292928">
        <ele>734.050</ele>
        <time>1999-07-25T14:00:33Z</time>
      </trkpt>
      <trkpt lat="43.033165" lon="-7.293077">
        <ele>732.811</ele>
        <time>1999-07-25T14:00:34Z</time>
      </trkpt>
      <trkpt lat="43.033159" lon="-7.293223">
        <ele>731.621</ele>
        <time>1999-07-25T14:00:35Z</time>
      </trkpt>
      <trkpt lat="43.033157" lon="-7.293365">
        <ele>730.203</ele>
        <time>1999-07-25T14:00:36Z</time>
      </trkpt>
      <trkpt lat="43.033154" lon="-7.293510">
        <ele>728.808</ele>
        <time>1999-07-25T14:00:37Z</time>
      </trkpt>
      <trkpt lat="43.033156" lon="-7.293659">
        <ele>727.434</ele>
        <time>1999-07-25T14:00:38Z</time>
      </trkpt>
      <trkpt lat="43.033166" lon="-7.293812">
        <ele>726.230</ele>
        <time>1999-07-25T14:00:39Z</time>
      </trkpt>
      <trkpt lat="43.033181" lon="-7.293968">
        <ele>724.861</ele>
        <time>1999-07-25T14:00:40Z</time>
      </trkpt>
      <trkpt lat="43.033201" lon="-7.294125">
        <ele>723.846</ele>
        <time>1999-07-25T14:00:41Z</time>
      </trkpt>
      <trkpt lat="43.033222" lon="-7.294281">
        <ele>721.416</ele>
        <time>1999-07-25T14:00:42Z</time>
      </trkpt>
      <trkpt lat="43.033243" lon="-7.294430">
        <ele>719.813</ele>
        <time>1999-07-25T14:00:43Z</time>
      </trkpt>
      <trkpt lat="43.033266" lon="-7.294572">
        <ele>718.220</ele>
        <time>1999-07-25T14:00:44Z</time>
      </trkpt>
      <trkpt lat="43.033293" lon="-7.294714">
        <ele>716.418</ele>
        <time>1999-07-25T14:00:45Z</time>
      </trkpt>
      <trkpt lat="43.033320" lon="-7.294852">
        <ele>715.211</ele>
        <time>1999-07-25T14:00:46Z</time>
      </trkpt>
      <trkpt lat="43.033353" lon="-7.294984">
        <ele>714.021</ele>
        <time>1999-07-25T14:00:47Z</time>
      </trkpt>
      <trkpt lat="43.033397" lon="-7.295111">
        <ele>712.803</ele>
        <time>1999-07-25T14:00:48Z</time>
      </trkpt>
      <trkpt lat="43.033450" lon="-7.295235">
        <ele>711.208</ele>
        <time>1999-07-25T14:00:49Z</time>
      </trkpt>
      <trkpt lat="43.033505" lon="-7.295343">
        <ele>710.064</ele>
        <time>1999-07-25T14:00:50Z</time>
      </trkpt>
      <trkpt lat="43.033597" lon="-7.295495">
        <ele>708.830</ele>
        <time>1999-07-25T14:00:52Z</time>
      </trkpt>
      <trkpt lat="43.033644" lon="-7.295550">
        <ele>708.051</ele>
        <time>1999-07-25T14:00:53Z</time>
      </trkpt>
      <trkpt lat="43.033705" lon="-7.295586">
        <ele>707.016</ele>
        <time>1999-07-25T14:00:54Z</time>
      </trkpt>
      <trkpt lat="43.033776" lon="-7.295608">
        <ele>706.246</ele>
        <time>1999-07-25T14:00:55Z</time>
      </trkpt>
      <trkpt lat="43.033858" lon="-7.295613">
        <ele>705.243</ele>
        <time>1999-07-25T14:00:56Z</time>
      </trkpt>
      <trkpt lat="43.033942" lon="-7.295617">
        <ele>704.260</ele>
        <time>1999-07-25T14:00:57Z</time>
      </trkpt>
      <trkpt lat="43.034023" lon="-7.295625">
        <ele>703.258</ele>
        <time>1999-07-25T14:00:58Z</time>
      </trkpt>
      <trkpt lat="43.034101" lon="-7.295640">
        <ele>701.692</ele>
        <time>1999-07-25T14:00:59Z</time>
      </trkpt>
      <trkpt lat="43.034181" lon="-7.295667">
        <ele>699.873</ele>
        <time>1999-07-25T14:01:00Z</time>
      </trkpt>
      <trkpt lat="43.034265" lon="-7.295717">
        <ele>698.220</ele>
        <time>1999-07-25T14:01:01Z</time>
      </trkpt>
      <trkpt lat="43.034350" lon="-7.295782">
        <ele>696.608</ele>
        <time>1999-07-25T14:01:02Z</time>
      </trkpt>
      <trkpt lat="43.034432" lon="-7.295865">
        <ele>695.422</ele>
        <time>1999-07-25T14:01:03Z</time>
      </trkpt>
      <trkpt lat="43.034574" lon="-7.296048">
        <ele>693.618</ele>
        <time>1999-07-25T14:01:05Z</time>
      </trkpt>
      <trkpt lat="43.034648" lon="-7.296134">
        <ele>692.829</ele>
        <time>1999-07-25T14:01:06Z</time>
      </trkpt>
      <trkpt lat="43.034737" lon="-7.296185">
        <ele>691.684</ele>
        <time>1999-07-25T14:01:07Z</time>
      </trkpt>
      <trkpt lat="43.034828" lon="-7.296237">
        <ele>690.434</ele>
        <time>1999-07-25T14:01:08Z</time>
      </trkpt>
      <trkpt lat="43.034918" lon="-7.296295">
        <ele>689.441</ele>
        <time>1999-07-25T14:01:09Z</time>
      </trkpt>
      <trkpt lat="43.035004" lon="-7.296360">
        <ele>688.428</ele>
        <time>1999-07-25T14:01:10Z</time>
      </trkpt>
      <trkpt lat="43.035085" lon="-7.296446">
        <ele>685.446</ele>
        <time>1999-07-25T14:01:11Z</time>
      </trkpt>
      <trkpt lat="43.035155" lon="-7.296545">
        <ele>683.829</ele>
        <time>1999-07-25T14:01:12Z</time>
      </trkpt>
      <trkpt lat="43.035220" lon="-7.296645">
        <ele>682.000</ele>
        <time>1999-07-25T14:01:13Z</time>
      </trkpt>
      <trkpt lat="43.035276" lon="-7.296750">
        <ele>680.620</ele>
        <time>1999-07-25T14:01:14Z</time>
      </trkpt>
      <trkpt lat="43.035326" lon="-7.296859">
        <ele>678.808</ele>
        <time>1999-07-25T14:01:15Z</time>
      </trkpt>
      <trkpt lat="43.035369" lon="-7.296975">
        <ele>677.455</ele>
        <time>1999-07-25T14:01:16Z</time>
      </trkpt>
      <trkpt lat="43.035409" lon="-7.297094">
        <ele>676.811</ele>
        <time>1999-07-25T14:01:17Z</time>
      </trkpt>
      <trkpt lat="43.035444" lon="-7.297213">
        <ele>676.212</ele>
        <time>1999-07-25T14:01:18Z</time>
      </trkpt>
      <trkpt lat="43.035476" lon="-7.297332">
        <ele>675.037</ele>
        <time>1999-07-25T14:01:19Z</time>
      </trkpt>
      <trkpt lat="43.035496" lon="-7.297461">
        <ele>674.227</ele>
        <time>1999-07-25T14:01:20Z</time>
      </trkpt>
      <trkpt lat="43.035514" lon="-7.297590">
        <ele>673.494</ele>
        <time>1999-07-25T14:01:21Z</time>
      </trkpt>
      <trkpt lat="43.035520" lon="-7.297717">
        <ele>672.821</ele>
        <time>1999-07-25T14:01:22Z</time>
      </trkpt>
      <trkpt lat="43.035523" lon="-7.298078">
        <ele>671.829</ele>
        <time>1999-07-25T14:01:25Z</time>
      </trkpt>
      <trkpt lat="43.035518" lon="-7.298197">
        <ele>671.617</ele>
        <time>1999-07-25T14:01:26Z</time>
      </trkpt>
      <trkpt lat="43.035504" lon="-7.298435">
        <ele>670.887</ele>
        <time>1999-07-25T14:01:28Z</time>
      </trkpt>
      <trkpt lat="43.035510" lon="-7.298647">
        <ele>669.815</ele>
        <time>1999-07-25T14:01:30Z</time>
      </trkpt>
      <trkpt lat="43.035531" lon="-7.298749">
        <ele>669.208</ele>
        <time>1999-07-25T14:01:31Z</time>
      </trkpt>
      <trkpt lat="43.035555" lon="-7.298844">
        <ele>668.694</ele>
        <time>1999-07-25T14:01:32Z</time>
      </trkpt>
      <trkpt lat="43.035625" lon="-7.299126">
        <ele>667.220</ele>
        <time>1999-07-25T14:01:35Z</time>
      </trkpt>
      <trkpt lat="43.035665" lon="-7.299307">
        <ele>666.451</ele>
        <time>1999-07-25T14:01:37Z</time>
      </trkpt>
      <trkpt lat="43.035679" lon="-7.299393">
        <ele>665.666</ele>
        <time>1999-07-25T14:01:38Z</time>
      </trkpt>
      <trkpt lat="43.035688" lon="-7.299477">
        <ele>664.646</ele>
        <time>1999-07-25T14:01:39Z</time>
      </trkpt>
      <trkpt lat="43.035695" lon="-7.299553">
        <ele>664.093</ele>
        <time>1999-07-25T14:01:40Z</time>
      </trkpt>
      <trkpt lat="43.035703" lon="-7.299705">
        <ele>663.070</ele>
        <time>1999-07-25T14:01:42Z</time>
      </trkpt>
      <trkpt lat="43.035713" lon="-7.299770">
        <ele>662.818</ele>
        <time>1999-07-25T14:01:43Z</time>
      </trkpt>
      <trkpt lat="43.035758" lon="-7.299924">
        <ele>662.487</ele>
        <time>1999-07-25T14:01:46Z</time>
      </trkpt>
      <trkpt lat="43.035764" lon="-7.300070">
        <ele>662.442</ele>
        <time>1999-07-25T14:01:50Z</time>
      </trkpt>
      <trkpt lat="43.035769" lon="-7.300132">
        <ele>662.626</ele>
        <time>1999-07-25T14:01:52Z</time>
      </trkpt>
      <trkpt lat="43.035779" lon="-7.300193">
        <ele>662.608</ele>
        <time>1999-07-25T14:01:54Z</time>
      </trkpt>
      <trkpt lat="43.035788" lon="-7.300269">
        <ele>662.641</ele>
        <time>1999-07-25T14:01:56Z</time>
      </trkpt>
      <trkpt lat="43.035804" lon="-7.300347">
        <ele>662.677</ele>
        <time>1999-07-25T14:01:58Z</time>
      </trkpt>
      <trkpt lat="43.035816" lon="-7.300394">
        <ele>662.688</ele>
        <time>1999-07-25T14:02:00Z</time>
      </trkpt>
      <trkpt lat="43.035794" lon="-7.300408">
        <ele>662.623</ele>
        <time>1999-07-25T14:02:02Z</time>
      </trkpt>
      <trkpt lat="43.035792" lon="-7.300401">
        <ele>662.483</ele>
        <time>1999-07-25T14:02:04Z</time>
      </trkpt>
      <trkpt lat="43.035789" lon="-7.300425">
        <ele>661.650</ele>
        <time>1999-07-25T14:02:35Z</time>
      </trkpt>
      <trkpt lat="43.035789" lon="-7.300454">
        <ele>661.687</ele>
        <time>1999-07-25T14:02:36Z</time>
      </trkpt>
      <trkpt lat="43.035795" lon="-7.300492">
        <ele>661.685</ele>
        <time>1999-07-25T14:02:37Z</time>
      </trkpt>
      <trkpt lat="43.035766" lon="-7.300660">
        <ele>661.659</ele>
        <time>1999-07-25T14:02:41Z</time>
      </trkpt>
      <trkpt lat="43.035705" lon="-7.300679">
        <ele>661.603</ele>
        <time>1999-07-25T14:02:43Z</time>
      </trkpt>
      <trkpt lat="43.035685" lon="-7.300682">
        <ele>661.623</ele>
        <time>1999-07-25T14:02:44Z</time>
      </trkpt>
      <trkpt lat="43.035677" lon="-7.300679">
        <ele>661.208</ele>
        <time>1999-07-25T14:02:46Z</time>
      </trkpt>
      <trkpt lat="43.035657" lon="-7.300673">
        <ele>658.268</ele>
        <time>1999-07-25T14:03:54Z</time>
      </trkpt>
      <trkpt lat="43.035623" lon="-7.300835">
        <ele>658.284</ele>
        <time>1999-07-25T14:03:58Z</time>
      </trkpt>
      <trkpt lat="43.035590" lon="-7.300966">
        <ele>658.275</ele>
        <time>1999-07-25T14:04:00Z</time>
      </trkpt>
      <trkpt lat="43.035548" lon="-7.301128">
        <ele>658.260</ele>
        <time>1999-07-25T14:04:02Z</time>
      </trkpt>
      <trkpt lat="43.035508" lon="-7.301317">
        <ele>658.090</ele>
        <time>1999-07-25T14:04:04Z</time>
      </trkpt>
      <trkpt lat="43.035458" lon="-7.301641">
        <ele>657.857</ele>
        <time>1999-07-25T14:04:07Z</time>
      </trkpt>
      <trkpt lat="43.035434" lon="-7.301748">
        <ele>657.444</ele>
        <time>1999-07-25T14:04:08Z</time>
      </trkpt>
      <trkpt lat="43.035404" lon="-7.301857">
        <ele>657.072</ele>
        <time>1999-07-25T14:04:09Z</time>
      </trkpt>
      <trkpt lat="43.035341" lon="-7.302077">
        <ele>656.254</ele>
        <time>1999-07-25T14:04:11Z</time>
      </trkpt>
      <trkpt lat="43.035314" lon="-7.302189">
        <ele>655.856</ele>
        <time>1999-07-25T14:04:12Z</time>
      </trkpt>
      <trkpt lat="43.035289" lon="-7.302303">
        <ele>655.211</ele>
        <time>1999-07-25T14:04:13Z</time>
      </trkpt>
      <trkpt lat="43.035264" lon="-7.302420">
        <ele>654.808</ele>
        <time>1999-07-25T14:04:14Z</time>
      </trkpt>
      <trkpt lat="43.035224" lon="-7.302652">
        <ele>653.498</ele>
        <time>1999-07-25T14:04:16Z</time>
      </trkpt>
      <trkpt lat="43.035182" lon="-7.302881">
        <ele>652.474</ele>
        <time>1999-07-25T14:04:18Z</time>
      </trkpt>
      <trkpt lat="43.035131" lon="-7.303096">
        <ele>651.625</ele>
        <time>1999-07-25T14:04:20Z</time>
      </trkpt>
      <trkpt lat="43.035105" lon="-7.303197">
        <ele>651.290</ele>
        <time>1999-07-25T14:04:21Z</time>
      </trkpt>
      <trkpt lat="43.035029" lon="-7.303479">
        <ele>650.020</ele>
        <time>1999-07-25T14:04:24Z</time>
      </trkpt>
      <trkpt lat="43.034922" lon="-7.303736">
        <ele>648.877</ele>
        <time>1999-07-25T14:04:27Z</time>
      </trkpt>
      <trkpt lat="43.034834" lon="-7.303906">
        <ele>648.664</ele>
        <time>1999-07-25T14:04:29Z</time>
      </trkpt>
      <trkpt lat="43.034645" lon="-7.304258">
        <ele>648.222</ele>
        <time>1999-07-25T14:04:33Z</time>
      </trkpt>
      <trkpt lat="43.034561" lon="-7.304445">
        <ele>647.886</ele>
        <time>1999-07-25T14:04:35Z</time>
      </trkpt>
      <trkpt lat="43.034451" lon="-7.304753">
        <ele>646.660</ele>
        <time>1999-07-25T14:04:38Z</time>
      </trkpt>
      <trkpt lat="43.034367" lon="-7.304953">
        <ele>645.826</ele>
        <time>1999-07-25T14:04:40Z</time>
      </trkpt>
      <trkpt lat="43.034328" lon="-7.305057">
        <ele>645.408</ele>
        <time>1999-07-25T14:04:41Z</time>
      </trkpt>
      <trkpt lat="43.034202" lon="-7.305361">
        <ele>644.441</ele>
        <time>1999-07-25T14:04:44Z</time>
      </trkpt>
      <trkpt lat="43.034066" lon="-7.305642">
        <ele>643.857</ele>
        <time>1999-07-25T14:04:47Z</time>
      </trkpt>
      <trkpt lat="43.033968" lon="-7.305826">
        <ele>643.088</ele>
        <time>1999-07-25T14:04:49Z</time>
      </trkpt>
      <trkpt lat="43.033848" lon="-7.305994">
        <ele>642.653</ele>
        <time>1999-07-25T14:04:51Z</time>
      </trkpt>
      <trkpt lat="43.033780" lon="-7.306075">
        <ele>642.463</ele>
        <time>1999-07-25T14:04:52Z</time>
      </trkpt>
      <trkpt lat="43.033711" lon="-7.306156">
        <ele>641.880</ele>
        <time>1999-07-25T14:04:53Z</time>
      </trkpt>
      <trkpt lat="43.033576" lon="-7.306330">
        <ele>641.027</ele>
        <time>1999-07-25T14:04:55Z</time>
      </trkpt>
      <trkpt lat="43.033436" lon="-7.306510">
        <ele>639.815</ele>
        <time>1999-07-25T14:04:57Z</time>
      </trkpt>
      <trkpt lat="43.033295" lon="-7.306691">
        <ele>638.883</ele>
        <time>1999-07-25T14:04:59Z</time>
      </trkpt>
      <trkpt lat="43.033077" lon="-7.306958">
        <ele>637.825</ele>
        <time>1999-07-25T14:05:02Z</time>
      </trkpt>
      <trkpt lat="43.032938" lon="-7.307135">
        <ele>636.617</ele>
        <time>1999-07-25T14:05:04Z</time>
      </trkpt>
      <trkpt lat="43.032797" lon="-7.307307">
        <ele>634.808</ele>
        <time>1999-07-25T14:05:06Z</time>
      </trkpt>
      <trkpt lat="43.032649" lon="-7.307475">
        <ele>633.861</ele>
        <time>1999-07-25T14:05:08Z</time>
      </trkpt>
      <trkpt lat="43.032336" lon="-7.307830">
        <ele>632.467</ele>
        <time>1999-07-25T14:05:12Z</time>
      </trkpt>
      <trkpt lat="43.032180" lon="-7.308021">
        <ele>631.478</ele>
        <time>1999-07-25T14:05:14Z</time>
      </trkpt>
      <trkpt lat="43.031974" lon="-7.308352">
        <ele>630.273</ele>
        <time>1999-07-25T14:05:17Z</time>
      </trkpt>
      <trkpt lat="43.031849" lon="-7.308589">
        <ele>629.213</ele>
        <time>1999-07-25T14:05:19Z</time>
      </trkpt>
      <trkpt lat="43.031650" lon="-7.308959">
        <ele>627.880</ele>
        <time>1999-07-25T14:05:22Z</time>
      </trkpt>
      <trkpt lat="43.031525" lon="-7.309214">
        <ele>626.657</ele>
        <time>1999-07-25T14:05:24Z</time>
      </trkpt>
      <trkpt lat="43.031397" lon="-7.309463">
        <ele>625.485</ele>
        <time>1999-07-25T14:05:26Z</time>
      </trkpt>
      <trkpt lat="43.031267" lon="-7.309710">
        <ele>624.047</ele>
        <time>1999-07-25T14:05:28Z</time>
      </trkpt>
      <trkpt lat="43.031141" lon="-7.309950">
        <ele>622.229</ele>
        <time>1999-07-25T14:05:30Z</time>
      </trkpt>
      <trkpt lat="43.031084" lon="-7.310067">
        <ele>621.621</ele>
        <time>1999-07-25T14:05:31Z</time>
      </trkpt>
      <trkpt lat="43.031029" lon="-7.310185">
        <ele>620.808</ele>
        <time>1999-07-25T14:05:32Z</time>
      </trkpt>
      <trkpt lat="43.030981" lon="-7.310305">
        <ele>619.467</ele>
        <time>1999-07-25T14:05:33Z</time>
      </trkpt>
      <trkpt lat="43.030908" lon="-7.310547">
        <ele>618.283</ele>
        <time>1999-07-25T14:05:35Z</time>
      </trkpt>
      <trkpt lat="43.030886" lon="-7.310667">
        <ele>617.454</ele>
        <time>1999-07-25T14:05:36Z</time>
      </trkpt>
      <trkpt lat="43.030876" lon="-7.310774">
        <ele>617.089</ele>
        <time>1999-07-25T14:05:37Z</time>
      </trkpt>
      <trkpt lat="43.030862" lon="-7.310965">
        <ele>616.269</ele>
        <time>1999-07-25T14:05:39Z</time>
      </trkpt>
      <trkpt lat="43.030858" lon="-7.311056">
        <ele>616.086</ele>
        <time>1999-07-25T14:05:40Z</time>
      </trkpt>
      <trkpt lat="43.030863" lon="-7.311153">
        <ele>615.663</ele>
        <time>1999-07-25T14:05:41Z</time>
      </trkpt>
      <trkpt lat="43.030867" lon="-7.311258">
        <ele>615.021</ele>
        <time>1999-07-25T14:05:42Z</time>
      </trkpt>
      <trkpt lat="43.030869" lon="-7.311365">
        <ele>614.437</ele>
        <time>1999-07-25T14:05:43Z</time>
      </trkpt>
      <trkpt lat="43.030867" lon="-7.311476">
        <ele>613.249</ele>
        <time>1999-07-25T14:05:44Z</time>
      </trkpt>
      <trkpt lat="43.030863" lon="-7.311590">
        <ele>612.213</ele>
        <time>1999-07-25T14:05:45Z</time>
      </trkpt>
      <trkpt lat="43.030858" lon="-7.311819">
        <ele>610.608</ele>
        <time>1999-07-25T14:05:47Z</time>
      </trkpt>
      <trkpt lat="43.030851" lon="-7.312054">
        <ele>609.846</ele>
        <time>1999-07-25T14:05:49Z</time>
      </trkpt>
      <trkpt lat="43.030841" lon="-7.312292">
        <ele>609.682</ele>
        <time>1999-07-25T14:05:51Z</time>
      </trkpt>
      <trkpt lat="43.030779" lon="-7.313020">
        <ele>608.423</ele>
        <time>1999-07-25T14:05:57Z</time>
      </trkpt>
      <trkpt lat="43.030667" lon="-7.313642">
        <ele>607.448</ele>
        <time>1999-07-25T14:06:02Z</time>
      </trkpt>
      <trkpt lat="43.030616" lon="-7.313894">
        <ele>606.468</ele>
        <time>1999-07-25T14:06:04Z</time>
      </trkpt>
      <trkpt lat="43.030594" lon="-7.314019">
        <ele>606.245</ele>
        <time>1999-07-25T14:06:05Z</time>
      </trkpt>
      <trkpt lat="43.030521" lon="-7.314393">
        <ele>605.062</ele>
        <time>1999-07-25T14:06:08Z</time>
      </trkpt>
      <trkpt lat="43.030496" lon="-7.314518">
        <ele>604.660</ele>
        <time>1999-07-25T14:06:09Z</time>
      </trkpt>
      <trkpt lat="43.030469" lon="-7.314644">
        <ele>603.863</ele>
        <time>1999-07-25T14:06:10Z</time>
      </trkpt>
      <trkpt lat="43.030373" lon="-7.315012">
        <ele>602.444</ele>
        <time>1999-07-25T14:06:13Z</time>
      </trkpt>
      <trkpt lat="43.030280" lon="-7.315238">
        <ele>600.818</ele>
        <time>1999-07-25T14:06:15Z</time>
      </trkpt>
      <trkpt lat="43.030171" lon="-7.315461">
        <ele>599.608</ele>
        <time>1999-07-25T14:06:17Z</time>
      </trkpt>
      <trkpt lat="43.030065" lon="-7.315700">
        <ele>598.439</ele>
        <time>1999-07-25T14:06:19Z</time>
      </trkpt>
      <trkpt lat="43.029901" lon="-7.316069">
        <ele>597.645</ele>
        <time>1999-07-25T14:06:22Z</time>
      </trkpt>
      <trkpt lat="43.029841" lon="-7.316189">
        <ele>597.076</ele>
        <time>1999-07-25T14:06:23Z</time>
      </trkpt>
      <trkpt lat="43.029785" lon="-7.316309">
        <ele>596.411</ele>
        <time>1999-07-25T14:06:24Z</time>
      </trkpt>
      <trkpt lat="43.029737" lon="-7.316435">
        <ele>595.891</ele>
        <time>1999-07-25T14:06:25Z</time>
      </trkpt>
      <trkpt lat="43.029660" lon="-7.316702">
        <ele>594.828</ele>
        <time>1999-07-25T14:06:27Z</time>
      </trkpt>
      <trkpt lat="43.029564" lon="-7.317110">
        <ele>593.285</ele>
        <time>1999-07-25T14:06:30Z</time>
      </trkpt>
      <trkpt lat="43.029500" lon="-7.317369">
        <ele>591.423</ele>
        <time>1999-07-25T14:06:32Z</time>
      </trkpt>
      <trkpt lat="43.029404" lon="-7.317743">
        <ele>590.041</ele>
        <time>1999-07-25T14:06:35Z</time>
      </trkpt>
      <trkpt lat="43.029336" lon="-7.317993">
        <ele>589.081</ele>
        <time>1999-07-25T14:06:37Z</time>
      </trkpt>
      <trkpt lat="43.029267" lon="-7.318240">
        <ele>588.209</ele>
        <time>1999-07-25T14:06:39Z</time>
      </trkpt>
      <trkpt lat="43.029234" lon="-7.318363">
        <ele>587.408</ele>
        <time>1999-07-25T14:06:40Z</time>
      </trkpt>
      <trkpt lat="43.029175" lon="-7.318612">
        <ele>585.837</ele>
        <time>1999-07-25T14:06:42Z</time>
      </trkpt>
      <trkpt lat="43.029118" lon="-7.318856">
        <ele>584.843</ele>
        <time>1999-07-25T14:06:44Z</time>
      </trkpt>
      <trkpt lat="43.029058" lon="-7.319096">
        <ele>583.674</ele>
        <time>1999-07-25T14:06:46Z</time>
      </trkpt>
      <trkpt lat="43.028974" lon="-7.319443">
        <ele>582.429</ele>
        <time>1999-07-25T14:06:49Z</time>
      </trkpt>
      <trkpt lat="43.028930" lon="-7.319625">
        <ele>581.219</ele>
        <time>1999-07-25T14:06:51Z</time>
      </trkpt>
      <trkpt lat="43.028899" lon="-7.319760">
        <ele>579.826</ele>
        <time>1999-07-25T14:06:53Z</time>
      </trkpt>
      <trkpt lat="43.028892" lon="-7.319817">
        <ele>579.493</ele>
        <time>1999-07-25T14:06:54Z</time>
      </trkpt>
      <trkpt lat="43.028895" lon="-7.319874">
        <ele>578.871</ele>
        <time>1999-07-25T14:06:55Z</time>
      </trkpt>
      <trkpt lat="43.028907" lon="-7.319927">
        <ele>578.425</ele>
        <time>1999-07-25T14:06:56Z</time>
      </trkpt>
      <trkpt lat="43.028968" lon="-7.320074">
        <ele>577.026</ele>
        <time>1999-07-25T14:06:59Z</time>
      </trkpt>
      <trkpt lat="43.028991" lon="-7.320124">
        <ele>575.608</ele>
        <time>1999-07-25T14:07:00Z</time>
      </trkpt>
      <trkpt lat="43.029039" lon="-7.320231">
        <ele>574.608</ele>
        <time>1999-07-25T14:07:02Z</time>
      </trkpt>
      <trkpt lat="43.029184" lon="-7.320557">
        <ele>574.275</ele>
        <time>1999-07-25T14:07:08Z</time>
      </trkpt>
      <trkpt lat="43.029261" lon="-7.320728">
        <ele>574.251</ele>
        <time>1999-07-25T14:07:11Z</time>
      </trkpt>
      <trkpt lat="43.029333" lon="-7.320908">
        <ele>574.462</ele>
        <time>1999-07-25T14:07:14Z</time>
      </trkpt>
      <trkpt lat="43.029447" lon="-7.321113">
        <ele>574.687</ele>
        <time>1999-07-25T14:07:18Z</time>
      </trkpt>
      <trkpt lat="43.029541" lon="-7.321252">
        <ele>574.857</ele>
        <time>1999-07-25T14:07:21Z</time>
      </trkpt>
      <trkpt lat="43.029836" lon="-7.321736">
        <ele>575.034</ele>
        <time>1999-07-25T14:07:30Z</time>
      </trkpt>
      <trkpt lat="43.029991" lon="-7.322048">
        <ele>575.081</ele>
        <time>1999-07-25T14:07:35Z</time>
      </trkpt>
      <trkpt lat="43.030033" lon="-7.322200">
        <ele>574.829</ele>
        <time>1999-07-25T14:07:37Z</time>
      </trkpt>
      <trkpt lat="43.030052" lon="-7.322365">
        <ele>574.817</ele>
        <time>1999-07-25T14:07:39Z</time>
      </trkpt>
      <trkpt lat="43.030069" lon="-7.322624">
        <ele>574.487</ele>
        <time>1999-07-25T14:07:42Z</time>
      </trkpt>
      <trkpt lat="43.030063" lon="-7.322810">
        <ele>574.215</ele>
        <time>1999-07-25T14:07:44Z</time>
      </trkpt>
      <trkpt lat="43.030065" lon="-7.322986">
        <ele>574.008</ele>
        <time>1999-07-25T14:07:46Z</time>
      </trkpt>
      <trkpt lat="43.030067" lon="-7.323070">
        <ele>574.054</ele>
        <time>1999-07-25T14:07:47Z</time>
      </trkpt>
      <trkpt lat="43.030068" lon="-7.323156">
        <ele>574.010</ele>
        <time>1999-07-25T14:07:48Z</time>
      </trkpt>
      <trkpt lat="43.030077" lon="-7.323541">
        <ele>572.821</ele>
        <time>1999-07-25T14:07:53Z</time>
      </trkpt>
      <trkpt lat="43.030086" lon="-7.323750">
        <ele>572.256</ele>
        <time>1999-07-25T14:07:56Z</time>
      </trkpt>
      <trkpt lat="43.030092" lon="-7.323955">
        <ele>572.296</ele>
        <time>1999-07-25T14:07:59Z</time>
      </trkpt>
      <trkpt lat="43.030099" lon="-7.324203">
        <ele>572.293</ele>
        <time>1999-07-25T14:08:03Z</time>
      </trkpt>
      <trkpt lat="43.030113" lon="-7.324397">
        <ele>572.290</ele>
        <time>1999-07-25T14:08:07Z</time>
      </trkpt>
      <trkpt lat="43.030118" lon="-7.324487">
        <ele>572.658</ele>
        <time>1999-07-25T14:08:09Z</time>
      </trkpt>
      <trkpt lat="43.030136" lon="-7.324744">
        <ele>573.418</ele>
        <time>1999-07-25T14:08:15Z</time>
      </trkpt>
      <trkpt lat="43.030147" lon="-7.324903">
        <ele>574.098</ele>
        <time>1999-07-25T14:08:19Z</time>
      </trkpt>
      <trkpt lat="43.030153" lon="-7.324939">
        <ele>574.017</ele>
        <time>1999-07-25T14:08:20Z</time>
      </trkpt>
      <trkpt lat="43.030167" lon="-7.325175">
        <ele>575.208</ele>
        <time>1999-07-25T14:08:26Z</time>
      </trkpt>
      <trkpt lat="43.030167" lon="-7.325249">
        <ele>575.664</ele>
        <time>1999-07-25T14:08:28Z</time>
      </trkpt>
      <trkpt lat="43.030166" lon="-7.325420">
        <ele>576.460</ele>
        <time>1999-07-25T14:08:32Z</time>
      </trkpt>
      <trkpt lat="43.030174" lon="-7.325560">
        <ele>576.851</ele>
        <time>1999-07-25T14:08:35Z</time>
      </trkpt>
      <trkpt lat="43.030164" lon="-7.325599">
        <ele>577.056</ele>
        <time>1999-07-25T14:08:36Z</time>
      </trkpt>
      <trkpt lat="43.030142" lon="-7.325682">
        <ele>577.266</ele>
        <time>1999-07-25T14:08:38Z</time>
      </trkpt>
      <trkpt lat="43.030141" lon="-7.325729">
        <ele>577.443</ele>
        <time>1999-07-25T14:08:39Z</time>
      </trkpt>
      <trkpt lat="43.030136" lon="-7.325974">
        <ele>578.280</ele>
        <time>1999-07-25T14:08:44Z</time>
      </trkpt>
      <trkpt lat="43.030134" lon="-7.326107">
        <ele>578.678</ele>
        <time>1999-07-25T14:08:47Z</time>
      </trkpt>
      <trkpt lat="43.030146" lon="-7.326303">
        <ele>579.011</ele>
        <time>1999-07-25T14:08:51Z</time>
      </trkpt>
      <trkpt lat="43.030122" lon="-7.326499">
        <ele>579.621</ele>
        <time>1999-07-25T14:08:55Z</time>
      </trkpt>
      <trkpt lat="43.030106" lon="-7.326597">
        <ele>579.803</ele>
        <time>1999-07-25T14:08:57Z</time>
      </trkpt>
      <trkpt lat="43.030064" lon="-7.326787">
        <ele>580.208</ele>
        <time>1999-07-25T14:09:02Z</time>
      </trkpt>
      <trkpt lat="43.030041" lon="-7.326816">
        <ele>580.464</ele>
        <time>1999-07-25T14:09:03Z</time>
      </trkpt>
      <trkpt lat="43.029987" lon="-7.326847">
        <ele>580.850</ele>
        <time>1999-07-25T14:09:05Z</time>
      </trkpt>
      <trkpt lat="43.029958" lon="-7.326857">
        <ele>580.861</ele>
        <time>1999-07-25T14:09:06Z</time>
      </trkpt>
      <trkpt lat="43.029898" lon="-7.326871">
        <ele>581.286</ele>
        <time>1999-07-25T14:09:09Z</time>
      </trkpt>
      <trkpt lat="43.029856" lon="-7.326879">
        <ele>581.426</ele>
        <time>1999-07-25T14:09:11Z</time>
      </trkpt>
      <trkpt lat="43.029787" lon="-7.326875">
        <ele>581.453</ele>
        <time>1999-07-25T14:09:14Z</time>
      </trkpt>
      <trkpt lat="43.029741" lon="-7.326870">
        <ele>581.490</ele>
        <time>1999-07-25T14:09:16Z</time>
      </trkpt>
      <trkpt lat="43.029707" lon="-7.326874">
        <ele>581.658</ele>
        <time>1999-07-25T14:09:18Z</time>
      </trkpt>
      <trkpt lat="43.029693" lon="-7.326924">
        <ele>581.686</ele>
        <time>1999-07-25T14:09:22Z</time>
      </trkpt>
      <trkpt lat="43.029689" lon="-7.326947">
        <ele>581.660</ele>
        <time>1999-07-25T14:09:23Z</time>
      </trkpt>
      <trkpt lat="43.029619" lon="-7.327048">
        <ele>581.826</ele>
        <time>1999-07-25T14:09:28Z</time>
      </trkpt>
      <trkpt lat="43.029583" lon="-7.327107">
        <ele>581.808</ele>
        <time>1999-07-25T14:09:31Z</time>
      </trkpt>
      <trkpt lat="43.029568" lon="-7.327127">
        <ele>582.091</ele>
        <time>1999-07-25T14:09:32Z</time>
      </trkpt>
      <trkpt lat="43.029556" lon="-7.327149">
        <ele>582.097</ele>
        <time>1999-07-25T14:09:33Z</time>
      </trkpt>
      <trkpt lat="43.029541" lon="-7.327170">
        <ele>582.058</ele>
        <time>1999-07-25T14:09:34Z</time>
      </trkpt>
      <trkpt lat="43.029520" lon="-7.327213">
        <ele>582.463</ele>
        <time>1999-07-25T14:09:36Z</time>
      </trkpt>
      <trkpt lat="43.029494" lon="-7.327253">
        <ele>582.833</ele>
        <time>1999-07-25T14:09:39Z</time>
      </trkpt>
      <trkpt lat="43.029484" lon="-7.327253">
        <ele>583.010</ele>
        <time>1999-07-25T14:09:41Z</time>
      </trkpt>
      <trkpt lat="43.029437" lon="-7.327172">
        <ele>583.687</ele>
        <time>1999-07-25T14:10:01Z</time>
      </trkpt>
      <trkpt lat="43.029423" lon="-7.327140">
        <ele>583.675</ele>
        <time>1999-07-25T14:10:02Z</time>
      </trkpt>
      <trkpt lat="43.029360" lon="-7.327059">
        <ele>583.611</ele>
        <time>1999-07-25T14:10:05Z</time>
      </trkpt>
      <trkpt lat="43.029316" lon="-7.327028">
        <ele>583.621</ele>
        <time>1999-07-25T14:10:07Z</time>
      </trkpt>
      <trkpt lat="43.029211" lon="-7.327029">
        <ele>583.803</ele>
        <time>1999-07-25T14:10:12Z</time>
      </trkpt>
      <trkpt lat="43.029121" lon="-7.327119">
        <ele>584.208</ele>
        <time>1999-07-25T14:10:18Z</time>
      </trkpt>
      <trkpt lat="43.029076" lon="-7.327201">
        <ele>585.254</ele>
        <time>1999-07-25T14:10:22Z</time>
      </trkpt>
      <trkpt lat="43.029064" lon="-7.327218">
        <ele>585.470</ele>
        <time>1999-07-25T14:10:23Z</time>
      </trkpt>
      <trkpt lat="43.029052" lon="-7.327237">
        <ele>585.471</ele>
        <time>1999-07-25T14:10:24Z</time>
      </trkpt>
      <trkpt lat="43.028981" lon="-7.327289">
        <ele>586.026</ele>
        <time>1999-07-25T14:10:29Z</time>
      </trkpt>
      <trkpt lat="43.028919" lon="-7.327304">
        <ele>586.646</ele>
        <time>1999-07-25T14:10:33Z</time>
      </trkpt>
      <trkpt lat="43.028857" lon="-7.327316">
        <ele>587.023</ele>
        <time>1999-07-25T14:10:36Z</time>
      </trkpt>
      <trkpt lat="43.028738" lon="-7.327321">
        <ele>587.660</ele>
        <time>1999-07-25T14:10:41Z</time>
      </trkpt>
      <trkpt lat="43.028714" lon="-7.327323">
        <ele>587.878</ele>
        <time>1999-07-25T14:10:42Z</time>
      </trkpt>
      <trkpt lat="43.028612" lon="-7.327336">
        <ele>588.483</ele>
        <time>1999-07-25T14:10:46Z</time>
      </trkpt>
      <trkpt lat="43.028521" lon="-7.327324">
        <ele>588.625</ele>
        <time>1999-07-25T14:10:49Z</time>
      </trkpt>
      <trkpt lat="43.028384" lon="-7.327301">
        <ele>588.617</ele>
        <time>1999-07-25T14:10:53Z</time>
      </trkpt>
      <trkpt lat="43.028303" lon="-7.327301">
        <ele>588.608</ele>
        <time>1999-07-25T14:10:55Z</time>
      </trkpt>
      <trkpt lat="43.028257" lon="-7.327304">
        <ele>588.491</ele>
        <time>1999-07-25T14:10:56Z</time>
      </trkpt>
      <trkpt lat="43.028168" lon="-7.327333">
        <ele>588.247</ele>
        <time>1999-07-25T14:10:58Z</time>
      </trkpt>
      <trkpt lat="43.028028" lon="-7.327390">
        <ele>587.878</ele>
        <time>1999-07-25T14:11:01Z</time>
      </trkpt>
      <trkpt lat="43.027896" lon="-7.327502">
        <ele>587.433</ele>
        <time>1999-07-25T14:11:04Z</time>
      </trkpt>
      <trkpt lat="43.027781" lon="-7.327617">
        <ele>587.273</ele>
        <time>1999-07-25T14:11:07Z</time>
      </trkpt>
      <trkpt lat="43.027635" lon="-7.327732">
        <ele>586.830</ele>
        <time>1999-07-25T14:11:11Z</time>
      </trkpt>
      <trkpt lat="43.027489" lon="-7.327813">
        <ele>586.087</ele>
        <time>1999-07-25T14:11:16Z</time>
      </trkpt>
      <trkpt lat="43.027463" lon="-7.327821">
        <ele>586.065</ele>
        <time>1999-07-25T14:11:17Z</time>
      </trkpt>
      <trkpt lat="43.027246" lon="-7.327873">
        <ele>586.087</ele>
        <time>1999-07-25T14:11:24Z</time>
      </trkpt>
      <trkpt lat="43.027085" lon="-7.327911">
        <ele>586.242</ele>
        <time>1999-07-25T14:11:29Z</time>
      </trkpt>
      <trkpt lat="43.027029" lon="-7.327923">
        <ele>586.226</ele>
        <time>1999-07-25T14:11:31Z</time>
      </trkpt>
      <trkpt lat="43.026892" lon="-7.327924">
        <ele>586.408</ele>
        <time>1999-07-25T14:11:37Z</time>
      </trkpt>
      <trkpt lat="43.026850" lon="-7.327960">
        <ele>586.421</ele>
        <time>1999-07-25T14:11:39Z</time>
      </trkpt>
      <trkpt lat="43.026813" lon="-7.327998">
        <ele>586.647</ele>
        <time>1999-07-25T14:11:41Z</time>
      </trkpt>
      <trkpt lat="43.026778" lon="-7.328044">
        <ele>586.868</ele>
        <time>1999-07-25T14:11:43Z</time>
      </trkpt>
      <trkpt lat="43.026699" lon="-7.328156">
        <ele>586.853</ele>
        <time>1999-07-25T14:11:47Z</time>
      </trkpt>
      <trkpt lat="43.026627" lon="-7.328280">
        <ele>587.013</ele>
        <time>1999-07-25T14:11:51Z</time>
      </trkpt>
      <trkpt lat="43.026481" lon="-7.328542">
        <ele>588.050</ele>
        <time>1999-07-25T14:12:00Z</time>
      </trkpt>
      <trkpt lat="43.026464" lon="-7.328569">
        <ele>588.237</ele>
        <time>1999-07-25T14:12:01Z</time>
      </trkpt>
      <trkpt lat="43.026379" lon="-7.328749">
        <ele>589.285</ele>
        <time>1999-07-25T14:12:08Z</time>
      </trkpt>
      <trkpt lat="43.026338" lon="-7.328952">
        <ele>590.026</ele>
        <time>1999-07-25T14:12:15Z</time>
      </trkpt>
      <trkpt lat="43.026299" lon="-7.329027">
        <ele>590.247</ele>
        <time>1999-07-25T14:12:18Z</time>
      </trkpt>
      <trkpt lat="43.026257" lon="-7.329096">
        <ele>590.611</ele>
        <time>1999-07-25T14:12:21Z</time>
      </trkpt>
      <trkpt lat="43.026229" lon="-7.329067">
        <ele>590.808</ele>
        <time>1999-07-25T14:12:23Z</time>
      </trkpt>
      <trkpt lat="43.026214" lon="-7.329038">
        <ele>590.835</ele>
        <time>1999-07-25T14:12:24Z</time>
      </trkpt>
      <trkpt lat="43.026141" lon="-7.328989">
        <ele>590.881</ele>
        <time>1999-07-25T14:12:27Z</time>
      </trkpt>
      <trkpt lat="43.026123" lon="-7.328975">
        <ele>590.822</ele>
        <time>1999-07-25T14:12:28Z</time>
      </trkpt>
      <trkpt lat="43.026097" lon="-7.328899">
        <ele>590.647</ele>
        <time>1999-07-25T14:12:31Z</time>
      </trkpt>
      <trkpt lat="43.026092" lon="-7.328850">
        <ele>590.017</ele>
        <time>1999-07-25T14:12:33Z</time>
      </trkpt>
      <trkpt lat="43.026104" lon="-7.328828">
        <ele>589.264</ele>
        <time>1999-07-25T14:12:35Z</time>
      </trkpt>
      <trkpt lat="43.026117" lon="-7.328830">
        <ele>588.881</ele>
        <time>1999-07-25T14:12:36Z</time>
      </trkpt>
      <trkpt lat="43.026127" lon="-7.328843">
        <ele>588.459</ele>
        <time>1999-07-25T14:12:37Z</time>
      </trkpt>
      <trkpt lat="43.026128" lon="-7.328864">
        <ele>588.075</ele>
        <time>1999-07-25T14:12:38Z</time>
      </trkpt>
      <trkpt lat="43.026156" lon="-7.328957">
        <ele>587.628</ele>
        <time>1999-07-25T14:12:42Z</time>
      </trkpt>
      <trkpt lat="43.026206" lon="-7.328995">
        <ele>587.620</ele>
        <time>1999-07-25T14:12:45Z</time>
      </trkpt>
      <trkpt lat="43.026245" lon="-7.328988">
        <ele>587.608</ele>
        <time>1999-07-25T14:12:47Z</time>
      </trkpt>
      <trkpt lat="43.026307" lon="-7.328877">
        <ele>588.410</ele>
        <time>1999-07-25T14:12:51Z</time>
      </trkpt>
      <trkpt lat="43.026348" lon="-7.328790">
        <ele>589.026</ele>
        <time>1999-07-25T14:12:53Z</time>
      </trkpt>
      <trkpt lat="43.026421" lon="-7.328667">
        <ele>590.067</ele>
        <time>1999-07-25T14:12:56Z</time>
      </trkpt>
      <trkpt lat="43.026450" lon="-7.328623">
        <ele>590.052</ele>
        <time>1999-07-25T14:12:57Z</time>
      </trkpt>
      <trkpt lat="43.026644" lon="-7.328305">
        <ele>590.412</ele>
        <time>1999-07-25T14:13:03Z</time>
      </trkpt>
      <trkpt lat="43.026724" lon="-7.328179">
        <ele>590.229</ele>
        <time>1999-07-25T14:13:05Z</time>
      </trkpt>
      <trkpt lat="43.026870" lon="-7.328008">
        <ele>590.036</ele>
        <time>1999-07-25T14:13:08Z</time>
      </trkpt>
      <trkpt lat="43.026926" lon="-7.327959">
        <ele>590.014</ele>
        <time>1999-07-25T14:13:09Z</time>
      </trkpt>
      <trkpt lat="43.027107" lon="-7.327879">
        <ele>588.893</ele>
        <time>1999-07-25T14:13:12Z</time>
      </trkpt>
      <trkpt lat="43.027167" lon="-7.327869">
        <ele>588.465</ele>
        <time>1999-07-25T14:13:13Z</time>
      </trkpt>
      <trkpt lat="43.027326" lon="-7.327825">
        <ele>587.821</ele>
        <time>1999-07-25T14:13:16Z</time>
      </trkpt>
      <trkpt lat="43.027427" lon="-7.327789">
        <ele>587.408</ele>
        <time>1999-07-25T14:13:18Z</time>
      </trkpt>
      <trkpt lat="43.027517" lon="-7.327755">
        <ele>587.262</ele>
        <time>1999-07-25T14:13:20Z</time>
      </trkpt>
      <trkpt lat="43.027649" lon="-7.327672">
        <ele>587.058</ele>
        <time>1999-07-25T14:13:23Z</time>
      </trkpt>
      <trkpt lat="43.027774" lon="-7.327565">
        <ele>586.679</ele>
        <time>1999-07-25T14:13:26Z</time>
      </trkpt>
      <trkpt lat="43.027898" lon="-7.327451">
        <ele>586.284</ele>
        <time>1999-07-25T14:13:29Z</time>
      </trkpt>
      <trkpt lat="43.027986" lon="-7.327387">
        <ele>586.014</ele>
        <time>1999-07-25T14:13:31Z</time>
      </trkpt>
      <trkpt lat="43.028160" lon="-7.327307">
        <ele>585.871</ele>
        <time>1999-07-25T14:13:35Z</time>
      </trkpt>
      <trkpt lat="43.028235" lon="-7.327288">
        <ele>585.828</ele>
        <time>1999-07-25T14:13:37Z</time>
      </trkpt>
      <trkpt lat="43.028384" lon="-7.327292">
        <ele>586.046</ele>
        <time>1999-07-25T14:13:42Z</time>
      </trkpt>
      <trkpt lat="43.028405" lon="-7.327285">
        <ele>586.092</ele>
        <time>1999-07-25T14:13:43Z</time>
      </trkpt>
      <trkpt lat="43.028442" lon="-7.327253">
        <ele>586.473</ele>
        <time>1999-07-25T14:13:46Z</time>
      </trkpt>
      <trkpt lat="43.028453" lon="-7.327237">
        <ele>586.620</ele>
        <time>1999-07-25T14:13:48Z</time>
      </trkpt>
      <trkpt lat="43.028459" lon="-7.327237">
        <ele>586.808</ele>
        <time>1999-07-25T14:13:49Z</time>
      </trkpt>
      <trkpt lat="43.028462" lon="-7.327277">
        <ele>587.452</ele>
        <time>1999-07-25T14:13:52Z</time>
      </trkpt>
      <trkpt lat="43.028484" lon="-7.327315">
        <ele>587.688</ele>
        <time>1999-07-25T14:13:54Z</time>
      </trkpt>
      <trkpt lat="43.028526" lon="-7.327324">
        <ele>587.859</ele>
        <time>1999-07-25T14:13:56Z</time>
      </trkpt>
      <trkpt lat="43.028687" lon="-7.327350">
        <ele>588.094</ele>
        <time>1999-07-25T14:14:02Z</time>
      </trkpt>
      <trkpt lat="43.028791" lon="-7.327337">
        <ele>588.484</ele>
        <time>1999-07-25T14:14:06Z</time>
      </trkpt>
      <trkpt lat="43.028844" lon="-7.327323">
        <ele>588.621</ele>
        <time>1999-07-25T14:14:09Z</time>
      </trkpt>
      <trkpt lat="43.028850" lon="-7.327328">
        <ele>588.648</ele>
        <time>1999-07-25T14:14:12Z</time>
      </trkpt>
      <trkpt lat="43.028804" lon="-7.327356">
        <ele>588.096</ele>
        <time>1999-07-25T14:14:37Z</time>
      </trkpt>
      <trkpt lat="43.028782" lon="-7.327359">
        <ele>588.048</ele>
        <time>1999-07-25T14:14:38Z</time>
      </trkpt>
      <trkpt lat="43.028598" lon="-7.327375">
        <ele>588.261</ele>
        <time>1999-07-25T14:14:44Z</time>
      </trkpt>
      <trkpt lat="43.028527" lon="-7.327372">
        <ele>588.417</ele>
        <time>1999-07-25T14:14:46Z</time>
      </trkpt>
      <trkpt lat="43.028402" lon="-7.327354">
        <ele>588.408</ele>
        <time>1999-07-25T14:14:49Z</time>
      </trkpt>
      <trkpt lat="43.028263" lon="-7.327319">
        <ele>588.457</ele>
        <time>1999-07-25T14:14:52Z</time>
      </trkpt>
      <trkpt lat="43.028160" lon="-7.327328">
        <ele>588.453</ele>
        <time>1999-07-25T14:14:54Z</time>
      </trkpt>
      <trkpt lat="43.028057" lon="-7.327354">
        <ele>588.434</ele>
        <time>1999-07-25T14:14:56Z</time>
      </trkpt>
      <trkpt lat="43.027905" lon="-7.327451">
        <ele>588.419</ele>
        <time>1999-07-25T14:14:59Z</time>
      </trkpt>
      <trkpt lat="43.027716" lon="-7.327631">
        <ele>588.029</ele>
        <time>1999-07-25T14:15:03Z</time>
      </trkpt>
      <trkpt lat="43.027623" lon="-7.327704">
        <ele>587.416</ele>
        <time>1999-07-25T14:15:05Z</time>
      </trkpt>
      <trkpt lat="43.027587" lon="-7.327725">
        <ele>587.293</ele>
        <time>1999-07-25T14:15:06Z</time>
      </trkpt>
      <trkpt lat="43.027453" lon="-7.327795">
        <ele>586.861</ele>
        <time>1999-07-25T14:15:09Z</time>
      </trkpt>
      <trkpt lat="43.027370" lon="-7.327824">
        <ele>586.869</ele>
        <time>1999-07-25T14:15:11Z</time>
      </trkpt>
      <trkpt lat="43.027102" lon="-7.327907">
        <ele>586.804</ele>
        <time>1999-07-25T14:15:17Z</time>
      </trkpt>
      <trkpt lat="43.027056" lon="-7.327928">
        <ele>586.824</ele>
        <time>1999-07-25T14:15:18Z</time>
      </trkpt>
      <trkpt lat="43.026930" lon="-7.327995">
        <ele>586.808</ele>
        <time>1999-07-25T14:15:21Z</time>
      </trkpt>
      <trkpt lat="43.026833" lon="-7.328065">
        <ele>587.079</ele>
        <time>1999-07-25T14:15:24Z</time>
      </trkpt>
      <trkpt lat="43.026717" lon="-7.328203">
        <ele>587.065</ele>
        <time>1999-07-25T14:15:28Z</time>
      </trkpt>
      <trkpt lat="43.026629" lon="-7.328325">
        <ele>587.026</ele>
        <time>1999-07-25T14:15:31Z</time>
      </trkpt>
      <trkpt lat="43.026580" lon="-7.328412">
        <ele>587.211</ele>
        <time>1999-07-25T14:15:33Z</time>
      </trkpt>
      <trkpt lat="43.026506" lon="-7.328540">
        <ele>587.831</ele>
        <time>1999-07-25T14:15:36Z</time>
      </trkpt>
      <trkpt lat="43.026436" lon="-7.328656">
        <ele>588.298</ele>
        <time>1999-07-25T14:15:39Z</time>
      </trkpt>
      <trkpt lat="43.026376" lon="-7.328775">
        <ele>588.855</ele>
        <time>1999-07-25T14:15:42Z</time>
      </trkpt>
      <trkpt lat="43.026342" lon="-7.328860">
        <ele>589.293</ele>
        <time>1999-07-25T14:15:44Z</time>
      </trkpt>
      <trkpt lat="43.026227" lon="-7.329161">
        <ele>590.475</ele>
        <time>1999-07-25T14:15:51Z</time>
      </trkpt>
      <trkpt lat="43.026079" lon="-7.329540">
        <ele>591.228</ele>
        <time>1999-07-25T14:15:59Z</time>
      </trkpt>
      <trkpt lat="43.026021" lon="-7.329708">
        <ele>591.220</ele>
        <time>1999-07-25T14:16:02Z</time>
      </trkpt>
      <trkpt lat="43.025934" lon="-7.329940">
        <ele>591.208</ele>
        <time>1999-07-25T14:16:06Z</time>
      </trkpt>
      <trkpt lat="43.025878" lon="-7.330108">
        <ele>591.080</ele>
        <time>1999-07-25T14:16:09Z</time>
      </trkpt>
      <trkpt lat="43.025846" lon="-7.330204">
        <ele>591.016</ele>
        <time>1999-07-25T14:16:11Z</time>
      </trkpt>
      <trkpt lat="43.025830" lon="-7.330246">
        <ele>590.847</ele>
        <time>1999-07-25T14:16:12Z</time>
      </trkpt>
      <trkpt lat="43.025762" lon="-7.330431">
        <ele>590.832</ele>
        <time>1999-07-25T14:16:18Z</time>
      </trkpt>
      <trkpt lat="43.025732" lon="-7.330475">
        <ele>590.812</ele>
        <time>1999-07-25T14:16:21Z</time>
      </trkpt>
      <trkpt lat="43.025707" lon="-7.330520">
        <ele>591.239</ele>
        <time>1999-07-25T14:16:24Z</time>
      </trkpt>
      <trkpt lat="43.025694" lon="-7.330523">
        <ele>591.296</ele>
        <time>1999-07-25T14:16:25Z</time>
      </trkpt>
      <trkpt lat="43.025646" lon="-7.330484">
        <ele>591.624</ele>
        <time>1999-07-25T14:16:28Z</time>
      </trkpt>
      <trkpt lat="43.025627" lon="-7.330476">
        <ele>591.864</ele>
        <time>1999-07-25T14:16:29Z</time>
      </trkpt>
      <trkpt lat="43.025589" lon="-7.330489">
        <ele>592.006</ele>
        <time>1999-07-25T14:16:31Z</time>
      </trkpt>
      <trkpt lat="43.025555" lon="-7.330495">
        <ele>592.216</ele>
        <time>1999-07-25T14:16:33Z</time>
      </trkpt>
      <trkpt lat="43.025531" lon="-7.330539">
        <ele>592.408</ele>
        <time>1999-07-25T14:16:36Z</time>
      </trkpt>
      <trkpt lat="43.025532" lon="-7.330544">
        <ele>592.449</ele>
        <time>1999-07-25T14:16:37Z</time>
      </trkpt>
      <trkpt lat="43.025536" lon="-7.330545">
        <ele>592.455</ele>
        <time>1999-07-25T14:16:38Z</time>
      </trkpt>
      <trkpt lat="43.025629" lon="-7.330498">
        <ele>592.626</ele>
        <time>1999-07-25T14:17:38Z</time>
      </trkpt>
      <trkpt lat="43.025655" lon="-7.330450">
        <ele>592.621</ele>
        <time>1999-07-25T14:17:40Z</time>
      </trkpt>
      <trkpt lat="43.025675" lon="-7.330432">
        <ele>592.661</ele>
        <time>1999-07-25T14:17:41Z</time>
      </trkpt>
      <trkpt lat="43.025708" lon="-7.330453">
        <ele>592.668</ele>
        <time>1999-07-25T14:17:43Z</time>
      </trkpt>
      <trkpt lat="43.025676" lon="-7.330476">
        <ele>592.465</ele>
        <time>1999-07-25T14:17:46Z</time>
      </trkpt>
      <trkpt lat="43.025602" lon="-7.330419">
        <ele>592.283</ele>
        <time>1999-07-25T14:17:49Z</time>
      </trkpt>
      <trkpt lat="43.025571" lon="-7.330404">
        <ele>592.238</ele>
        <time>1999-07-25T14:17:50Z</time>
      </trkpt>
      <trkpt lat="43.025505" lon="-7.330384">
        <ele>592.070</ele>
        <time>1999-07-25T14:17:52Z</time>
      </trkpt>
      <trkpt lat="43.025278" lon="-7.330329">
        <ele>592.017</ele>
        <time>1999-07-25T14:17:58Z</time>
      </trkpt>
      <trkpt lat="43.025090" lon="-7.330276">
        <ele>592.208</ele>
        <time>1999-07-25T14:18:04Z</time>
      </trkpt>
      <trkpt lat="43.025040" lon="-7.330243">
        <ele>592.266</ele>
        <time>1999-07-25T14:18:09Z</time>
      </trkpt>
      <trkpt lat="43.025042" lon="-7.330242">
        <ele>592.222</ele>
        <time>1999-07-25T14:18:10Z</time>
      </trkpt>
      <trkpt lat="43.029065" lon="-7.327248">
        <ele>592.283</ele>
        <time>1999-07-25T15:31:28Z</time>
      </trkpt>
      <trkpt lat="43.029003" lon="-7.327010">
        <ele>590.698</ele>
        <time>1999-07-25T15:31:29Z</time>
      </trkpt>
      <trkpt lat="43.029239" lon="-7.326901">
        <ele>589.858</ele>
        <time>1999-07-25T15:35:11Z</time>
      </trkpt>
      <trkpt lat="43.029281" lon="-7.326896">
        <ele>589.835</ele>
        <time>1999-07-25T15:35:13Z</time>
      </trkpt>
      <trkpt lat="43.029356" lon="-7.326872">
        <ele>589.832</ele>
        <time>1999-07-25T15:35:15Z</time>
      </trkpt>
      <trkpt lat="43.029455" lon="-7.326874">
        <ele>589.890</ele>
        <time>1999-07-25T15:35:17Z</time>
      </trkpt>
      <trkpt lat="43.029508" lon="-7.326889">
        <ele>589.856</ele>
        <time>1999-07-25T15:35:18Z</time>
      </trkpt>
      <trkpt lat="43.029610" lon="-7.326936">
        <ele>589.659</ele>
        <time>1999-07-25T15:35:20Z</time>
      </trkpt>
      <trkpt lat="43.029828" lon="-7.326937">
        <ele>589.414</ele>
        <time>1999-07-25T15:35:24Z</time>
      </trkpt>
      <trkpt lat="43.029936" lon="-7.326947">
        <ele>588.608</ele>
        <time>1999-07-25T15:35:28Z</time>
      </trkpt>
      <trkpt lat="43.029958" lon="-7.326936">
        <ele>587.658</ele>
        <time>1999-07-25T15:35:31Z</time>
      </trkpt>
      <trkpt lat="43.029960" lon="-7.326935">
        <ele>587.264</ele>
        <time>1999-07-25T15:35:32Z</time>
      </trkpt>
      <trkpt lat="43.029906" lon="-7.326979">
        <ele>586.465</ele>
        <time>1999-07-25T15:35:51Z</time>
      </trkpt>
      <trkpt lat="43.029859" lon="-7.326979">
        <ele>586.450</ele>
        <time>1999-07-25T15:35:53Z</time>
      </trkpt>
      <trkpt lat="43.029792" lon="-7.326975">
        <ele>586.440</ele>
        <time>1999-07-25T15:35:56Z</time>
      </trkpt>
      <trkpt lat="43.029747" lon="-7.326983">
        <ele>586.627</ele>
        <time>1999-07-25T15:35:58Z</time>
      </trkpt>
      <trkpt lat="43.029675" lon="-7.327022">
        <ele>587.214</ele>
        <time>1999-07-25T15:36:04Z</time>
      </trkpt>
      <trkpt lat="43.029674" lon="-7.327028">
        <ele>587.242</ele>
        <time>1999-07-25T15:36:05Z</time>
      </trkpt>
      <trkpt lat="43.029619" lon="-7.327092">
        <ele>587.443</ele>
        <time>1999-07-25T15:36:10Z</time>
      </trkpt>
      <trkpt lat="43.029578" lon="-7.327148">
        <ele>587.464</ele>
        <time>1999-07-25T15:36:12Z</time>
      </trkpt>
      <trkpt lat="43.029563" lon="-7.327176">
        <ele>587.410</ele>
        <time>1999-07-25T15:36:13Z</time>
      </trkpt>
      <trkpt lat="43.029532" lon="-7.327233">
        <ele>587.408</ele>
        <time>1999-07-25T15:36:15Z</time>
      </trkpt>
      <trkpt lat="43.029501" lon="-7.327304">
        <ele>587.627</ele>
        <time>1999-07-25T15:36:17Z</time>
      </trkpt>
      <trkpt lat="43.029473" lon="-7.327383">
        <ele>587.663</ele>
        <time>1999-07-25T15:36:19Z</time>
      </trkpt>
      <trkpt lat="43.029463" lon="-7.327474">
        <ele>588.054</ele>
        <time>1999-07-25T15:36:21Z</time>
      </trkpt>
      <trkpt lat="43.029455" lon="-7.327571">
        <ele>588.659</ele>
        <time>1999-07-25T15:36:23Z</time>
      </trkpt>
      <trkpt lat="43.029427" lon="-7.327705">
        <ele>589.079</ele>
        <time>1999-07-25T15:36:26Z</time>
      </trkpt>
      <trkpt lat="43.029399" lon="-7.327837">
        <ele>589.476</ele>
        <time>1999-07-25T15:36:29Z</time>
      </trkpt>
      <trkpt lat="43.029370" lon="-7.327973">
        <ele>590.093</ele>
        <time>1999-07-25T15:36:32Z</time>
      </trkpt>
      <trkpt lat="43.029315" lon="-7.328124">
        <ele>590.831</ele>
        <time>1999-07-25T15:36:36Z</time>
      </trkpt>
      <trkpt lat="43.029271" lon="-7.328230">
        <ele>591.263</ele>
        <time>1999-07-25T15:36:39Z</time>
      </trkpt>
      <trkpt lat="43.029241" lon="-7.328348">
        <ele>591.444</ele>
        <time>1999-07-25T15:36:42Z</time>
      </trkpt>
      <trkpt lat="43.029211" lon="-7.328545">
        <ele>592.018</ele>
        <time>1999-07-25T15:36:47Z</time>
      </trkpt>
      <trkpt lat="43.029195" lon="-7.328622">
        <ele>592.208</ele>
        <time>1999-07-25T15:36:49Z</time>
      </trkpt>
      <trkpt lat="43.029190" lon="-7.328657">
        <ele>592.419</ele>
        <time>1999-07-25T15:36:50Z</time>
      </trkpt>
      <trkpt lat="43.029200" lon="-7.328835">
        <ele>593.045</ele>
        <time>1999-07-25T15:36:55Z</time>
      </trkpt>
      <trkpt lat="43.029200" lon="-7.328918">
        <ele>593.446</ele>
        <time>1999-07-25T15:36:57Z</time>
      </trkpt>
      <trkpt lat="43.029213" lon="-7.329060">
        <ele>594.071</ele>
        <time>1999-07-25T15:37:01Z</time>
      </trkpt>
      <trkpt lat="43.029196" lon="-7.329283">
        <ele>594.481</ele>
        <time>1999-07-25T15:37:07Z</time>
      </trkpt>
      <trkpt lat="43.029197" lon="-7.329321">
        <ele>594.638</ele>
        <time>1999-07-25T15:37:08Z</time>
      </trkpt>
      <trkpt lat="43.029211" lon="-7.329546">
        <ele>595.075</ele>
        <time>1999-07-25T15:37:13Z</time>
      </trkpt>
      <trkpt lat="43.029231" lon="-7.329622">
        <ele>595.453</ele>
        <time>1999-07-25T15:37:15Z</time>
      </trkpt>
      <trkpt lat="43.029257" lon="-7.329747">
        <ele>595.898</ele>
        <time>1999-07-25T15:37:18Z</time>
      </trkpt>
      <trkpt lat="43.029311" lon="-7.329908">
        <ele>596.415</ele>
        <time>1999-07-25T15:37:22Z</time>
      </trkpt>
      <trkpt lat="43.029338" lon="-7.329989">
        <ele>596.626</ele>
        <time>1999-07-25T15:37:24Z</time>
      </trkpt>
      <trkpt lat="43.029349" lon="-7.330119">
        <ele>597.408</ele>
        <time>1999-07-25T15:37:28Z</time>
      </trkpt>
      <trkpt lat="43.029327" lon="-7.330208">
        <ele>598.262</ele>
        <time>1999-07-25T15:37:31Z</time>
      </trkpt>
      <trkpt lat="43.029311" lon="-7.330297">
        <ele>598.838</ele>
        <time>1999-07-25T15:37:34Z</time>
      </trkpt>
      <trkpt lat="43.029287" lon="-7.330431">
        <ele>599.629</ele>
        <time>1999-07-25T15:37:38Z</time>
      </trkpt>
      <trkpt lat="43.029281" lon="-7.330475">
        <ele>599.874</ele>
        <time>1999-07-25T15:37:39Z</time>
      </trkpt>
      <trkpt lat="43.029253" lon="-7.330659">
        <ele>600.094</ele>
        <time>1999-07-25T15:37:43Z</time>
      </trkpt>
      <trkpt lat="43.029235" lon="-7.330756">
        <ele>600.011</ele>
        <time>1999-07-25T15:37:45Z</time>
      </trkpt>
      <trkpt lat="43.029189" lon="-7.330897">
        <ele>600.028</ele>
        <time>1999-07-25T15:37:48Z</time>
      </trkpt>
      <trkpt lat="43.029145" lon="-7.330989">
        <ele>599.876</ele>
        <time>1999-07-25T15:37:50Z</time>
      </trkpt>
      <trkpt lat="43.029105" lon="-7.331079">
        <ele>599.691</ele>
        <time>1999-07-25T15:37:52Z</time>
      </trkpt>
      <trkpt lat="43.029055" lon="-7.331194">
        <ele>599.281</ele>
        <time>1999-07-25T15:37:54Z</time>
      </trkpt>
      <trkpt lat="43.029017" lon="-7.331256">
        <ele>599.219</ele>
        <time>1999-07-25T15:37:55Z</time>
      </trkpt>
      <trkpt lat="43.028989" lon="-7.331318">
        <ele>599.008</ele>
        <time>1999-07-25T15:37:56Z</time>
      </trkpt>
      <trkpt lat="43.028967" lon="-7.331370">
        <ele>598.812</ele>
        <time>1999-07-25T15:37:57Z</time>
      </trkpt>
      <trkpt lat="43.028961" lon="-7.331411">
        <ele>598.858</ele>
        <time>1999-07-25T15:37:58Z</time>
      </trkpt>
      <trkpt lat="43.028964" lon="-7.331441">
        <ele>598.629</ele>
        <time>1999-07-25T15:37:59Z</time>
      </trkpt>
      <trkpt lat="43.028982" lon="-7.331483">
        <ele>598.054</ele>
        <time>1999-07-25T15:38:02Z</time>
      </trkpt>
      <trkpt lat="43.028994" lon="-7.331490">
        <ele>597.634</ele>
        <time>1999-07-25T15:38:03Z</time>
      </trkpt>
      <trkpt lat="43.029026" lon="-7.331489">
        <ele>596.861</ele>
        <time>1999-07-25T15:38:05Z</time>
      </trkpt>
      <trkpt lat="43.029048" lon="-7.331492">
        <ele>596.448</ele>
        <time>1999-07-25T15:38:06Z</time>
      </trkpt>
      <trkpt lat="43.029068" lon="-7.331506">
        <ele>596.246</ele>
        <time>1999-07-25T15:38:07Z</time>
      </trkpt>
      <trkpt lat="43.029128" lon="-7.331538">
        <ele>595.833</ele>
        <time>1999-07-25T15:38:10Z</time>
      </trkpt>
      <trkpt lat="43.029215" lon="-7.331575">
        <ele>595.423</ele>
        <time>1999-07-25T15:38:15Z</time>
      </trkpt>
      <trkpt lat="43.029236" lon="-7.331587">
        <ele>595.415</ele>
        <time>1999-07-25T15:38:16Z</time>
      </trkpt>
      <trkpt lat="43.029328" lon="-7.331641">
        <ele>594.808</ele>
        <time>1999-07-25T15:38:21Z</time>
      </trkpt>
      <trkpt lat="43.029334" lon="-7.331661">
        <ele>594.886</ele>
        <time>1999-07-25T15:38:22Z</time>
      </trkpt>
      <trkpt lat="43.029295" lon="-7.331704">
        <ele>594.412</ele>
        <time>1999-07-25T15:38:25Z</time>
      </trkpt>
      <trkpt lat="43.029277" lon="-7.331699">
        <ele>594.223</ele>
        <time>1999-07-25T15:38:26Z</time>
      </trkpt>
      <trkpt lat="43.029241" lon="-7.331683">
        <ele>594.058</ele>
        <time>1999-07-25T15:38:28Z</time>
      </trkpt>
      <trkpt lat="43.029221" lon="-7.331676">
        <ele>593.848</ele>
        <time>1999-07-25T15:38:29Z</time>
      </trkpt>
      <trkpt lat="43.029165" lon="-7.331647">
        <ele>593.855</ele>
        <time>1999-07-25T15:38:32Z</time>
      </trkpt>
      <trkpt lat="43.029041" lon="-7.331642">
        <ele>593.822</ele>
        <time>1999-07-25T15:38:37Z</time>
      </trkpt>
      <trkpt lat="43.028985" lon="-7.331631">
        <ele>594.280</ele>
        <time>1999-07-25T15:38:39Z</time>
      </trkpt>
      <trkpt lat="43.028897" lon="-7.331585">
        <ele>594.668</ele>
        <time>1999-07-25T15:38:42Z</time>
      </trkpt>
      <trkpt lat="43.028870" lon="-7.331564">
        <ele>594.642</ele>
        <time>1999-07-25T15:38:43Z</time>
      </trkpt>
      <trkpt lat="43.028834" lon="-7.331515">
        <ele>594.626</ele>
        <time>1999-07-25T15:38:45Z</time>
      </trkpt>
      <trkpt lat="43.028830" lon="-7.331483">
        <ele>594.808</ele>
        <time>1999-07-25T15:38:46Z</time>
      </trkpt>
      <trkpt lat="43.028835" lon="-7.331455">
        <ele>594.839</ele>
        <time>1999-07-25T15:38:47Z</time>
      </trkpt>
      <trkpt lat="43.028860" lon="-7.331379">
        <ele>595.415</ele>
        <time>1999-07-25T15:38:50Z</time>
      </trkpt>
      <trkpt lat="43.028870" lon="-7.331355">
        <ele>595.466</ele>
        <time>1999-07-25T15:38:51Z</time>
      </trkpt>
      <trkpt lat="43.028899" lon="-7.331314">
        <ele>595.611</ele>
        <time>1999-07-25T15:38:53Z</time>
      </trkpt>
      <trkpt lat="43.028958" lon="-7.331240">
        <ele>596.481</ele>
        <time>1999-07-25T15:38:57Z</time>
      </trkpt>
      <trkpt lat="43.028974" lon="-7.331224">
        <ele>596.438</ele>
        <time>1999-07-25T15:38:58Z</time>
      </trkpt>
      <trkpt lat="43.028994" lon="-7.331210">
        <ele>596.645</ele>
        <time>1999-07-25T15:38:59Z</time>
      </trkpt>
      <trkpt lat="43.029078" lon="-7.331093">
        <ele>597.473</ele>
        <time>1999-07-25T15:39:05Z</time>
      </trkpt>
      <trkpt lat="43.029089" lon="-7.331071">
        <ele>597.466</ele>
        <time>1999-07-25T15:39:06Z</time>
      </trkpt>
      <trkpt lat="43.029097" lon="-7.331050">
        <ele>597.629</ele>
        <time>1999-07-25T15:39:07Z</time>
      </trkpt>
      <trkpt lat="43.029111" lon="-7.331005">
        <ele>598.021</ele>
        <time>1999-07-25T15:39:09Z</time>
      </trkpt>
      <trkpt lat="43.029124" lon="-7.330950">
        <ele>598.608</ele>
        <time>1999-07-25T15:39:12Z</time>
      </trkpt>
      <trkpt lat="43.029131" lon="-7.330932">
        <ele>598.859</ele>
        <time>1999-07-25T15:39:13Z</time>
      </trkpt>
      <trkpt lat="43.029153" lon="-7.330844">
        <ele>599.075</ele>
        <time>1999-07-25T15:39:16Z</time>
      </trkpt>
      <trkpt lat="43.029161" lon="-7.330814">
        <ele>599.076</ele>
        <time>1999-07-25T15:39:17Z</time>
      </trkpt>
      <trkpt lat="43.029191" lon="-7.330707">
        <ele>599.261</ele>
        <time>1999-07-25T15:39:21Z</time>
      </trkpt>
      <trkpt lat="43.029210" lon="-7.330631">
        <ele>599.621</ele>
        <time>1999-07-25T15:39:24Z</time>
      </trkpt>
      <trkpt lat="43.029236" lon="-7.330550">
        <ele>599.888</ele>
        <time>1999-07-25T15:39:27Z</time>
      </trkpt>
      <trkpt lat="43.029290" lon="-7.330402">
        <ele>600.655</ele>
        <time>1999-07-25T15:39:32Z</time>
      </trkpt>
      <trkpt lat="43.029319" lon="-7.330336">
        <ele>600.673</ele>
        <time>1999-07-25T15:39:34Z</time>
      </trkpt>
      <trkpt lat="43.029345" lon="-7.330280">
        <ele>600.844</ele>
        <time>1999-07-25T15:39:36Z</time>
      </trkpt>
      <trkpt lat="43.029353" lon="-7.330209">
        <ele>600.805</ele>
        <time>1999-07-25T15:39:39Z</time>
      </trkpt>
      <trkpt lat="43.029361" lon="-7.330185">
        <ele>600.615</ele>
        <time>1999-07-25T15:39:43Z</time>
      </trkpt>
      <trkpt lat="43.029400" lon="-7.330270">
        <ele>599.808</ele>
        <time>1999-07-25T15:39:54Z</time>
      </trkpt>
      <trkpt lat="43.029392" lon="-7.330362">
        <ele>599.627</ele>
        <time>1999-07-25T15:39:56Z</time>
      </trkpt>
      <trkpt lat="43.029379" lon="-7.330506">
        <ele>599.633</ele>
        <time>1999-07-25T15:39:58Z</time>
      </trkpt>
      <trkpt lat="43.029360" lon="-7.330607">
        <ele>599.624</ele>
        <time>1999-07-25T15:39:59Z</time>
      </trkpt>
      <trkpt lat="43.029343" lon="-7.330811">
        <ele>599.619</ele>
        <time>1999-07-25T15:40:01Z</time>
      </trkpt>
      <trkpt lat="43.029344" lon="-7.330994">
        <ele>599.279</ele>
        <time>1999-07-25T15:40:03Z</time>
      </trkpt>
      <trkpt lat="43.029381" lon="-7.331124">
        <ele>598.416</ele>
        <time>1999-07-25T15:40:05Z</time>
      </trkpt>
      <trkpt lat="43.029447" lon="-7.331200">
        <ele>597.413</ele>
        <time>1999-07-25T15:40:07Z</time>
      </trkpt>
      <trkpt lat="43.029472" lon="-7.331218">
        <ele>596.661</ele>
        <time>1999-07-25T15:40:08Z</time>
      </trkpt>
      <trkpt lat="43.029497" lon="-7.331224">
        <ele>595.676</ele>
        <time>1999-07-25T15:40:09Z</time>
      </trkpt>
      <trkpt lat="43.029545" lon="-7.331249">
        <ele>593.690</ele>
        <time>1999-07-25T15:40:11Z</time>
      </trkpt>
      <trkpt lat="43.029567" lon="-7.331283">
        <ele>592.619</ele>
        <time>1999-07-25T15:40:12Z</time>
      </trkpt>
      <trkpt lat="43.029584" lon="-7.331316">
        <ele>592.008</ele>
        <time>1999-07-25T15:40:13Z</time>
      </trkpt>
      <trkpt lat="43.029619" lon="-7.331372">
        <ele>590.420</ele>
        <time>1999-07-25T15:40:15Z</time>
      </trkpt>
      <trkpt lat="43.029627" lon="-7.331413">
        <ele>589.876</ele>
        <time>1999-07-25T15:40:16Z</time>
      </trkpt>
      <trkpt lat="43.029625" lon="-7.331460">
        <ele>589.217</ele>
        <time>1999-07-25T15:40:17Z</time>
      </trkpt>
      <trkpt lat="43.029544" lon="-7.331624">
        <ele>588.642</ele>
        <time>1999-07-25T15:40:20Z</time>
      </trkpt>
      <trkpt lat="43.029501" lon="-7.331691">
        <ele>588.682</ele>
        <time>1999-07-25T15:40:21Z</time>
      </trkpt>
      <trkpt lat="43.029368" lon="-7.331918">
        <ele>588.439</ele>
        <time>1999-07-25T15:40:24Z</time>
      </trkpt>
      <trkpt lat="43.029279" lon="-7.332083">
        <ele>588.226</ele>
        <time>1999-07-25T15:40:26Z</time>
      </trkpt>
      <trkpt lat="43.029197" lon="-7.332282">
        <ele>587.054</ele>
        <time>1999-07-25T15:40:28Z</time>
      </trkpt>
      <trkpt lat="43.029158" lon="-7.332391">
        <ele>586.482</ele>
        <time>1999-07-25T15:40:29Z</time>
      </trkpt>
      <trkpt lat="43.029107" lon="-7.332491">
        <ele>585.843</ele>
        <time>1999-07-25T15:40:30Z</time>
      </trkpt>
      <trkpt lat="43.029036" lon="-7.332693">
        <ele>584.017</ele>
        <time>1999-07-25T15:40:32Z</time>
      </trkpt>
      <trkpt lat="43.029023" lon="-7.332804">
        <ele>582.808</ele>
        <time>1999-07-25T15:40:33Z</time>
      </trkpt>
      <trkpt lat="43.028996" lon="-7.333018">
        <ele>581.011</ele>
        <time>1999-07-25T15:40:35Z</time>
      </trkpt>
      <trkpt lat="43.028989" lon="-7.333121">
        <ele>580.017</ele>
        <time>1999-07-25T15:40:36Z</time>
      </trkpt>
      <trkpt lat="43.028980" lon="-7.333229">
        <ele>579.058</ele>
        <time>1999-07-25T15:40:37Z</time>
      </trkpt>
      <trkpt lat="43.028975" lon="-7.333348">
        <ele>578.053</ele>
        <time>1999-07-25T15:40:38Z</time>
      </trkpt>
      <trkpt lat="43.028961" lon="-7.333476">
        <ele>576.843</ele>
        <time>1999-07-25T15:40:39Z</time>
      </trkpt>
      <trkpt lat="43.028908" lon="-7.333756">
        <ele>575.290</ele>
        <time>1999-07-25T15:40:41Z</time>
      </trkpt>
      <trkpt lat="43.028832" lon="-7.334073">
        <ele>573.457</ele>
        <time>1999-07-25T15:40:43Z</time>
      </trkpt>
      <trkpt lat="43.028797" lon="-7.334229">
        <ele>572.445</ele>
        <time>1999-07-25T15:40:44Z</time>
      </trkpt>
      <trkpt lat="43.028716" lon="-7.334498">
        <ele>570.412</ele>
        <time>1999-07-25T15:40:46Z</time>
      </trkpt>
      <trkpt lat="43.028665" lon="-7.334615">
        <ele>569.432</ele>
        <time>1999-07-25T15:40:47Z</time>
      </trkpt>
      <trkpt lat="43.028597" lon="-7.334724">
        <ele>568.805</ele>
        <time>1999-07-25T15:40:48Z</time>
      </trkpt>
      <trkpt lat="43.028523" lon="-7.334825">
        <ele>567.608</ele>
        <time>1999-07-25T15:40:49Z</time>
      </trkpt>
      <trkpt lat="43.028446" lon="-7.334919">
        <ele>566.674</ele>
        <time>1999-07-25T15:40:50Z</time>
      </trkpt>
      <trkpt lat="43.028358" lon="-7.335001">
        <ele>564.850</ele>
        <time>1999-07-25T15:40:51Z</time>
      </trkpt>
      <trkpt lat="43.028267" lon="-7.335072">
        <ele>562.871</ele>
        <time>1999-07-25T15:40:52Z</time>
      </trkpt>
      <trkpt lat="43.028175" lon="-7.335139">
        <ele>560.866</ele>
        <time>1999-07-25T15:40:53Z</time>
      </trkpt>
      <trkpt lat="43.028093" lon="-7.335207">
        <ele>559.416</ele>
        <time>1999-07-25T15:40:54Z</time>
      </trkpt>
      <trkpt lat="43.028018" lon="-7.335288">
        <ele>558.473</ele>
        <time>1999-07-25T15:40:55Z</time>
      </trkpt>
      <trkpt lat="43.027906" lon="-7.335519">
        <ele>556.250</ele>
        <time>1999-07-25T15:40:57Z</time>
      </trkpt>
      <trkpt lat="43.027866" lon="-7.335649">
        <ele>555.258</ele>
        <time>1999-07-25T15:40:58Z</time>
      </trkpt>
      <trkpt lat="43.027829" lon="-7.335779">
        <ele>554.436</ele>
        <time>1999-07-25T15:40:59Z</time>
      </trkpt>
      <trkpt lat="43.027799" lon="-7.335904">
        <ele>553.617</ele>
        <time>1999-07-25T15:41:00Z</time>
      </trkpt>
      <trkpt lat="43.027773" lon="-7.336028">
        <ele>552.818</ele>
        <time>1999-07-25T15:41:01Z</time>
      </trkpt>
      <trkpt lat="43.027753" lon="-7.336151">
        <ele>552.008</ele>
        <time>1999-07-25T15:41:02Z</time>
      </trkpt>
      <trkpt lat="43.027730" lon="-7.336393">
        <ele>550.856</ele>
        <time>1999-07-25T15:41:04Z</time>
      </trkpt>
      <trkpt lat="43.027705" lon="-7.336640">
        <ele>550.092</ele>
        <time>1999-07-25T15:41:06Z</time>
      </trkpt>
      <trkpt lat="43.027688" lon="-7.336761">
        <ele>549.663</ele>
        <time>1999-07-25T15:41:07Z</time>
      </trkpt>
      <trkpt lat="43.027667" lon="-7.336878">
        <ele>549.468</ele>
        <time>1999-07-25T15:41:08Z</time>
      </trkpt>
      <trkpt lat="43.027620" lon="-7.337105">
        <ele>548.848</ele>
        <time>1999-07-25T15:41:10Z</time>
      </trkpt>
      <trkpt lat="43.027589" lon="-7.337216">
        <ele>548.695</ele>
        <time>1999-07-25T15:41:11Z</time>
      </trkpt>
      <trkpt lat="43.027513" lon="-7.337430">
        <ele>547.452</ele>
        <time>1999-07-25T15:41:13Z</time>
      </trkpt>
      <trkpt lat="43.027419" lon="-7.337626">
        <ele>546.660</ele>
        <time>1999-07-25T15:41:15Z</time>
      </trkpt>
      <trkpt lat="43.027369" lon="-7.337721">
        <ele>546.231</ele>
        <time>1999-07-25T15:41:16Z</time>
      </trkpt>
      <trkpt lat="43.027274" lon="-7.337912">
        <ele>545.461</ele>
        <time>1999-07-25T15:41:18Z</time>
      </trkpt>
      <trkpt lat="43.027231" lon="-7.338008">
        <ele>545.007</ele>
        <time>1999-07-25T15:41:19Z</time>
      </trkpt>
      <trkpt lat="43.027128" lon="-7.338288">
        <ele>544.008</ele>
        <time>1999-07-25T15:41:22Z</time>
      </trkpt>
      <trkpt lat="43.027118" lon="-7.338379">
        <ele>543.816</ele>
        <time>1999-07-25T15:41:23Z</time>
      </trkpt>
      <trkpt lat="43.027137" lon="-7.338557">
        <ele>543.292</ele>
        <time>1999-07-25T15:41:25Z</time>
      </trkpt>
      <trkpt lat="43.027154" lon="-7.338655">
        <ele>543.023</ele>
        <time>1999-07-25T15:41:26Z</time>
      </trkpt>
      <trkpt lat="43.027187" lon="-7.338855">
        <ele>542.648</ele>
        <time>1999-07-25T15:41:28Z</time>
      </trkpt>
      <trkpt lat="43.027250" lon="-7.339153">
        <ele>541.428</ele>
        <time>1999-07-25T15:41:31Z</time>
      </trkpt>
      <trkpt lat="43.027281" lon="-7.339350">
        <ele>540.425</ele>
        <time>1999-07-25T15:41:33Z</time>
      </trkpt>
      <trkpt lat="43.027290" lon="-7.339545">
        <ele>539.272</ele>
        <time>1999-07-25T15:41:35Z</time>
      </trkpt>
      <trkpt lat="43.027286" lon="-7.339641">
        <ele>539.010</ele>
        <time>1999-07-25T15:41:36Z</time>
      </trkpt>
      <trkpt lat="43.027271" lon="-7.339838">
        <ele>538.432</ele>
        <time>1999-07-25T15:41:38Z</time>
      </trkpt>
      <trkpt lat="43.027263" lon="-7.339936">
        <ele>538.292</ele>
        <time>1999-07-25T15:41:39Z</time>
      </trkpt>
      <trkpt lat="43.027246" lon="-7.340131">
        <ele>537.811</ele>
        <time>1999-07-25T15:41:41Z</time>
      </trkpt>
      <trkpt lat="43.027233" lon="-7.340227">
        <ele>537.608</ele>
        <time>1999-07-25T15:41:42Z</time>
      </trkpt>
      <trkpt lat="43.027215" lon="-7.340325">
        <ele>537.456</ele>
        <time>1999-07-25T15:41:43Z</time>
      </trkpt>
      <trkpt lat="43.027192" lon="-7.340422">
        <ele>537.022</ele>
        <time>1999-07-25T15:41:44Z</time>
      </trkpt>
      <trkpt lat="43.027091" lon="-7.340700">
        <ele>536.463</ele>
        <time>1999-07-25T15:41:47Z</time>
      </trkpt>
      <trkpt lat="43.026998" lon="-7.340855">
        <ele>536.068</ele>
        <time>1999-07-25T15:41:49Z</time>
      </trkpt>
      <trkpt lat="43.026948" lon="-7.340923">
        <ele>536.028</ele>
        <time>1999-07-25T15:41:50Z</time>
      </trkpt>
      <trkpt lat="43.026893" lon="-7.340985">
        <ele>535.865</ele>
        <time>1999-07-25T15:41:51Z</time>
      </trkpt>
      <trkpt lat="43.026734" lon="-7.341165">
        <ele>535.432</ele>
        <time>1999-07-25T15:41:54Z</time>
      </trkpt>
      <trkpt lat="43.026660" lon="-7.341276">
        <ele>535.240</ele>
        <time>1999-07-25T15:41:56Z</time>
      </trkpt>
      <trkpt lat="43.026636" lon="-7.341317">
        <ele>534.678</ele>
        <time>1999-07-25T15:41:57Z</time>
      </trkpt>
      <trkpt lat="43.026599" lon="-7.341371">
        <ele>534.233</ele>
        <time>1999-07-25T15:41:59Z</time>
      </trkpt>
      <trkpt lat="43.026559" lon="-7.341408">
        <ele>533.826</ele>
        <time>1999-07-25T15:42:02Z</time>
      </trkpt>
      <trkpt lat="43.026550" lon="-7.341389">
        <ele>533.408</ele>
        <time>1999-07-25T15:42:04Z</time>
      </trkpt>
      <trkpt lat="43.026580" lon="-7.341353">
        <ele>532.850</ele>
        <time>1999-07-25T15:42:07Z</time>
      </trkpt>
      <trkpt lat="43.026590" lon="-7.341339">
        <ele>532.636</ele>
        <time>1999-07-25T15:42:08Z</time>
      </trkpt>
      <trkpt lat="43.026601" lon="-7.341319">
        <ele>532.677</ele>
        <time>1999-07-25T15:42:09Z</time>
      </trkpt>
      <trkpt lat="43.026628" lon="-7.341250">
        <ele>532.432</ele>
        <time>1999-07-25T15:42:12Z</time>
      </trkpt>
      <trkpt lat="43.026634" lon="-7.341194">
        <ele>532.252</ele>
        <time>1999-07-25T15:42:15Z</time>
      </trkpt>
      <trkpt lat="43.026606" lon="-7.341191">
        <ele>532.089</ele>
        <time>1999-07-25T15:42:17Z</time>
      </trkpt>
      <trkpt lat="43.026583" lon="-7.341204">
        <ele>532.036</ele>
        <time>1999-07-25T15:42:18Z</time>
      </trkpt>
      <trkpt lat="43.026546" lon="-7.341219">
        <ele>532.094</ele>
        <time>1999-07-25T15:42:19Z</time>
      </trkpt>
      <trkpt lat="43.026380" lon="-7.341274">
        <ele>531.852</ele>
        <time>1999-07-25T15:42:22Z</time>
      </trkpt>
      <trkpt lat="43.026320" lon="-7.341306">
        <ele>531.853</ele>
        <time>1999-07-25T15:42:23Z</time>
      </trkpt>
      <trkpt lat="43.026264" lon="-7.341347">
        <ele>531.808</ele>
        <time>1999-07-25T15:42:24Z</time>
      </trkpt>
      <trkpt lat="43.026208" lon="-7.341396">
        <ele>531.608</ele>
        <time>1999-07-25T15:42:25Z</time>
      </trkpt>
      <trkpt lat="43.026155" lon="-7.341452">
        <ele>531.288</ele>
        <time>1999-07-25T15:42:26Z</time>
      </trkpt>
      <trkpt lat="43.026092" lon="-7.341519">
        <ele>530.414</ele>
        <time>1999-07-25T15:42:27Z</time>
      </trkpt>
      <trkpt lat="43.025960" lon="-7.341661">
        <ele>529.695</ele>
        <time>1999-07-25T15:42:29Z</time>
      </trkpt>
      <trkpt lat="43.025889" lon="-7.341731">
        <ele>529.450</ele>
        <time>1999-07-25T15:42:30Z</time>
      </trkpt>
      <trkpt lat="43.025832" lon="-7.341795">
        <ele>529.240</ele>
        <time>1999-07-25T15:42:31Z</time>
      </trkpt>
      <trkpt lat="43.025722" lon="-7.341959">
        <ele>528.057</ele>
        <time>1999-07-25T15:42:33Z</time>
      </trkpt>
      <trkpt lat="43.025683" lon="-7.342048">
        <ele>527.644</ele>
        <time>1999-07-25T15:42:34Z</time>
      </trkpt>
      <trkpt lat="43.025645" lon="-7.342146">
        <ele>527.282</ele>
        <time>1999-07-25T15:42:35Z</time>
      </trkpt>
      <trkpt lat="43.025604" lon="-7.342246">
        <ele>527.068</ele>
        <time>1999-07-25T15:42:36Z</time>
      </trkpt>
      <trkpt lat="43.025431" lon="-7.342691">
        <ele>526.042</ele>
        <time>1999-07-25T15:42:40Z</time>
      </trkpt>
      <trkpt lat="43.025298" lon="-7.343053">
        <ele>525.226</ele>
        <time>1999-07-25T15:42:43Z</time>
      </trkpt>
      <trkpt lat="43.025253" lon="-7.343184">
        <ele>524.808</ele>
        <time>1999-07-25T15:42:44Z</time>
      </trkpt>
      <trkpt lat="43.025205" lon="-7.343314">
        <ele>524.039</ele>
        <time>1999-07-25T15:42:45Z</time>
      </trkpt>
      <trkpt lat="43.025158" lon="-7.343445">
        <ele>523.425</ele>
        <time>1999-07-25T15:42:46Z</time>
      </trkpt>
      <trkpt lat="43.025069" lon="-7.343708">
        <ele>522.236</ele>
        <time>1999-07-25T15:42:48Z</time>
      </trkpt>
      <trkpt lat="43.024974" lon="-7.343954">
        <ele>520.281</ele>
        <time>1999-07-25T15:42:50Z</time>
      </trkpt>
      <trkpt lat="43.024929" lon="-7.344072">
        <ele>519.421</ele>
        <time>1999-07-25T15:42:51Z</time>
      </trkpt>
      <trkpt lat="43.024889" lon="-7.344188">
        <ele>518.098</ele>
        <time>1999-07-25T15:42:52Z</time>
      </trkpt>
      <trkpt lat="43.024814" lon="-7.344408">
        <ele>516.675</ele>
        <time>1999-07-25T15:42:54Z</time>
      </trkpt>
      <trkpt lat="43.024745" lon="-7.344610">
        <ele>515.263</ele>
        <time>1999-07-25T15:42:56Z</time>
      </trkpt>
      <trkpt lat="43.024713" lon="-7.344708">
        <ele>513.664</ele>
        <time>1999-07-25T15:42:57Z</time>
      </trkpt>
      <trkpt lat="43.024685" lon="-7.344804">
        <ele>512.606</ele>
        <time>1999-07-25T15:42:58Z</time>
      </trkpt>
      <trkpt lat="43.024663" lon="-7.344899">
        <ele>511.416</ele>
        <time>1999-07-25T15:42:59Z</time>
      </trkpt>
      <trkpt lat="43.024623" lon="-7.345082">
        <ele>510.408</ele>
        <time>1999-07-25T15:43:01Z</time>
      </trkpt>
      <trkpt lat="43.024599" lon="-7.345171">
        <ele>510.269</ele>
        <time>1999-07-25T15:43:02Z</time>
      </trkpt>
      <trkpt lat="43.024466" lon="-7.345528">
        <ele>509.445</ele>
        <time>1999-07-25T15:43:06Z</time>
      </trkpt>
      <trkpt lat="43.024422" lon="-7.345611">
        <ele>509.036</ele>
        <time>1999-07-25T15:43:07Z</time>
      </trkpt>
      <trkpt lat="43.024246" lon="-7.345825">
        <ele>508.281</ele>
        <time>1999-07-25T15:43:10Z</time>
      </trkpt>
      <trkpt lat="43.024186" lon="-7.345907">
        <ele>507.861</ele>
        <time>1999-07-25T15:43:11Z</time>
      </trkpt>
      <trkpt lat="43.024046" lon="-7.346197">
        <ele>506.668</ele>
        <time>1999-07-25T15:43:14Z</time>
      </trkpt>
      <trkpt lat="43.023973" lon="-7.346382">
        <ele>505.675</ele>
        <time>1999-07-25T15:43:16Z</time>
      </trkpt>
      <trkpt lat="43.023939" lon="-7.346467">
        <ele>505.083</ele>
        <time>1999-07-25T15:43:17Z</time>
      </trkpt>
      <trkpt lat="43.023869" lon="-7.346632">
        <ele>504.447</ele>
        <time>1999-07-25T15:43:19Z</time>
      </trkpt>
      <trkpt lat="43.023829" lon="-7.346707">
        <ele>504.029</ele>
        <time>1999-07-25T15:43:20Z</time>
      </trkpt>
      <trkpt lat="43.023712" lon="-7.346917">
        <ele>503.621</ele>
        <time>1999-07-25T15:43:23Z</time>
      </trkpt>
      <trkpt lat="43.023588" lon="-7.347157">
        <ele>503.208</ele>
        <time>1999-07-25T15:43:27Z</time>
      </trkpt>
      <trkpt lat="43.023544" lon="-7.347371">
        <ele>503.267</ele>
        <time>1999-07-25T15:43:31Z</time>
      </trkpt>
      <trkpt lat="43.023534" lon="-7.347407">
        <ele>503.263</ele>
        <time>1999-07-25T15:43:32Z</time>
      </trkpt>
      <trkpt lat="43.023517" lon="-7.347458">
        <ele>503.474</ele>
        <time>1999-07-25T15:43:34Z</time>
      </trkpt>
      <trkpt lat="43.023503" lon="-7.347503">
        <ele>503.229</ele>
        <time>1999-07-25T15:43:36Z</time>
      </trkpt>
      <trkpt lat="43.023496" lon="-7.347574">
        <ele>503.619</ele>
        <time>1999-07-25T15:43:39Z</time>
      </trkpt>
      <trkpt lat="43.023492" lon="-7.347617">
        <ele>503.816</ele>
        <time>1999-07-25T15:43:41Z</time>
      </trkpt>
      <trkpt lat="43.023474" lon="-7.347690">
        <ele>504.423</ele>
        <time>1999-07-25T15:43:44Z</time>
      </trkpt>
      <trkpt lat="43.023461" lon="-7.347784">
        <ele>505.491</ele>
        <time>1999-07-25T15:43:48Z</time>
      </trkpt>
      <trkpt lat="43.023434" lon="-7.347999">
        <ele>506.628</ele>
        <time>1999-07-25T15:43:55Z</time>
      </trkpt>
      <trkpt lat="43.023439" lon="-7.348228">
        <ele>506.889</ele>
        <time>1999-07-25T15:44:01Z</time>
      </trkpt>
      <trkpt lat="43.023418" lon="-7.348502">
        <ele>506.817</ele>
        <time>1999-07-25T15:44:05Z</time>
      </trkpt>
      <trkpt lat="43.023406" lon="-7.348583">
        <ele>506.808</ele>
        <time>1999-07-25T15:44:06Z</time>
      </trkpt>
      <trkpt lat="43.023376" lon="-7.348810">
        <ele>506.675</ele>
        <time>1999-07-25T15:44:09Z</time>
      </trkpt>
      <trkpt lat="43.023360" lon="-7.348873">
        <ele>506.271</ele>
        <time>1999-07-25T15:44:10Z</time>
      </trkpt>
      <trkpt lat="43.023340" lon="-7.348922">
        <ele>506.012</ele>
        <time>1999-07-25T15:44:11Z</time>
      </trkpt>
      <trkpt lat="43.023289" lon="-7.348984">
        <ele>505.617</ele>
        <time>1999-07-25T15:44:13Z</time>
      </trkpt>
      <trkpt lat="43.023215" lon="-7.349020">
        <ele>505.257</ele>
        <time>1999-07-25T15:44:15Z</time>
      </trkpt>
      <trkpt lat="43.023185" lon="-7.349034">
        <ele>505.274</ele>
        <time>1999-07-25T15:44:16Z</time>
      </trkpt>
      <trkpt lat="43.022965" lon="-7.349127">
        <ele>505.291</ele>
        <time>1999-07-25T15:44:21Z</time>
      </trkpt>
      <trkpt lat="43.022872" lon="-7.349159">
        <ele>505.299</ele>
        <time>1999-07-25T15:44:23Z</time>
      </trkpt>
      <trkpt lat="43.022639" lon="-7.349245">
        <ele>505.665</ele>
        <time>1999-07-25T15:44:28Z</time>
      </trkpt>
      <trkpt lat="43.022541" lon="-7.349418">
        <ele>505.668</ele>
        <time>1999-07-25T15:44:31Z</time>
      </trkpt>
      <trkpt lat="43.022516" lon="-7.349490">
        <ele>505.614</ele>
        <time>1999-07-25T15:44:32Z</time>
      </trkpt>
      <trkpt lat="43.022459" lon="-7.349690">
        <ele>505.408</ele>
        <time>1999-07-25T15:44:35Z</time>
      </trkpt>
      <trkpt lat="43.022418" lon="-7.349824">
        <ele>505.429</ele>
        <time>1999-07-25T15:44:37Z</time>
      </trkpt>
      <trkpt lat="43.022368" lon="-7.349999">
        <ele>504.815</ele>
        <time>1999-07-25T15:44:40Z</time>
      </trkpt>
      <trkpt lat="43.022312" lon="-7.350172">
        <ele>504.616</ele>
        <time>1999-07-25T15:44:43Z</time>
      </trkpt>
      <trkpt lat="43.022293" lon="-7.350231">
        <ele>504.421</ele>
        <time>1999-07-25T15:44:44Z</time>
      </trkpt>
      <trkpt lat="43.022230" lon="-7.350459">
        <ele>504.211</ele>
        <time>1999-07-25T15:44:48Z</time>
      </trkpt>
      <trkpt lat="43.022133" lon="-7.350686">
        <ele>504.218</ele>
        <time>1999-07-25T15:44:52Z</time>
      </trkpt>
      <trkpt lat="43.022087" lon="-7.350784">
        <ele>504.225</ele>
        <time>1999-07-25T15:44:54Z</time>
      </trkpt>
      <trkpt lat="43.021894" lon="-7.351119">
        <ele>504.263</ele>
        <time>1999-07-25T15:45:00Z</time>
      </trkpt>
      <trkpt lat="43.021767" lon="-7.351321">
        <ele>504.268</ele>
        <time>1999-07-25T15:45:03Z</time>
      </trkpt>
      <trkpt lat="43.021637" lon="-7.351501">
        <ele>504.242</ele>
        <time>1999-07-25T15:45:05Z</time>
      </trkpt>
      <trkpt lat="43.021461" lon="-7.351816">
        <ele>504.226</ele>
        <time>1999-07-25T15:45:09Z</time>
      </trkpt>
      <trkpt lat="43.021399" lon="-7.351948">
        <ele>503.808</ele>
        <time>1999-07-25T15:45:11Z</time>
      </trkpt>
      <trkpt lat="43.021230" lon="-7.352280">
        <ele>503.689</ele>
        <time>1999-07-25T15:45:17Z</time>
      </trkpt>
      <trkpt lat="43.021180" lon="-7.352325">
        <ele>503.455</ele>
        <time>1999-07-25T15:45:18Z</time>
      </trkpt>
      <trkpt lat="43.021000" lon="-7.352418">
        <ele>503.216</ele>
        <time>1999-07-25T15:45:21Z</time>
      </trkpt>
      <trkpt lat="43.020948" lon="-7.352540">
        <ele>503.051</ele>
        <time>1999-07-25T15:45:24Z</time>
      </trkpt>
      <trkpt lat="43.020953" lon="-7.352620">
        <ele>502.841</ele>
        <time>1999-07-25T15:45:26Z</time>
      </trkpt>
      <trkpt lat="43.020930" lon="-7.352717">
        <ele>502.088</ele>
        <time>1999-07-25T15:45:29Z</time>
      </trkpt>
      <trkpt lat="43.020904" lon="-7.352828">
        <ele>501.895</ele>
        <time>1999-07-25T15:45:33Z</time>
      </trkpt>
      <trkpt lat="43.020891" lon="-7.352872">
        <ele>501.693</ele>
        <time>1999-07-25T15:45:35Z</time>
      </trkpt>
      <trkpt lat="43.020852" lon="-7.352981">
        <ele>502.426</ele>
        <time>1999-07-25T15:45:40Z</time>
      </trkpt>
      <trkpt lat="43.020846" lon="-7.353010">
        <ele>502.847</ele>
        <time>1999-07-25T15:45:41Z</time>
      </trkpt>
      <trkpt lat="43.020813" lon="-7.353146">
        <ele>503.211</ele>
        <time>1999-07-25T15:45:45Z</time>
      </trkpt>
      <trkpt lat="43.020791" lon="-7.353210">
        <ele>503.808</ele>
        <time>1999-07-25T15:45:47Z</time>
      </trkpt>
      <trkpt lat="43.020779" lon="-7.353242">
        <ele>504.055</ele>
        <time>1999-07-25T15:45:48Z</time>
      </trkpt>
      <trkpt lat="43.020739" lon="-7.353382">
        <ele>504.811</ele>
        <time>1999-07-25T15:45:52Z</time>
      </trkpt>
      <trkpt lat="43.020730" lon="-7.353417">
        <ele>505.062</ele>
        <time>1999-07-25T15:45:53Z</time>
      </trkpt>
      <trkpt lat="43.020705" lon="-7.353523">
        <ele>506.077</ele>
        <time>1999-07-25T15:45:56Z</time>
      </trkpt>
      <trkpt lat="43.020695" lon="-7.353559">
        <ele>506.297</ele>
        <time>1999-07-25T15:45:57Z</time>
      </trkpt>
      <trkpt lat="43.020649" lon="-7.353704">
        <ele>507.224</ele>
        <time>1999-07-25T15:46:01Z</time>
      </trkpt>
      <trkpt lat="43.020629" lon="-7.353777">
        <ele>507.811</ele>
        <time>1999-07-25T15:46:03Z</time>
      </trkpt>
      <trkpt lat="43.020622" lon="-7.353814">
        <ele>508.219</ele>
        <time>1999-07-25T15:46:04Z</time>
      </trkpt>
      <trkpt lat="43.020615" lon="-7.353849">
        <ele>508.471</ele>
        <time>1999-07-25T15:46:05Z</time>
      </trkpt>
      <trkpt lat="43.020602" lon="-7.353972">
        <ele>509.441</ele>
        <time>1999-07-25T15:46:08Z</time>
      </trkpt>
      <trkpt lat="43.020588" lon="-7.354112">
        <ele>510.415</ele>
        <time>1999-07-25T15:46:11Z</time>
      </trkpt>
      <trkpt lat="43.020584" lon="-7.354203">
        <ele>511.008</ele>
        <time>1999-07-25T15:46:13Z</time>
      </trkpt>
      <trkpt lat="43.020589" lon="-7.354484">
        <ele>512.090</ele>
        <time>1999-07-25T15:46:18Z</time>
      </trkpt>
      <trkpt lat="43.020584" lon="-7.354852">
        <ele>512.626</ele>
        <time>1999-07-25T15:46:23Z</time>
      </trkpt>
      <trkpt lat="43.020642" lon="-7.355157">
        <ele>512.617</ele>
        <time>1999-07-25T15:46:27Z</time>
      </trkpt>
      <trkpt lat="43.020647" lon="-7.355224">
        <ele>512.692</ele>
        <time>1999-07-25T15:46:28Z</time>
      </trkpt>
      <trkpt lat="43.020577" lon="-7.355432">
        <ele>512.062</ele>
        <time>1999-07-25T15:46:31Z</time>
      </trkpt>
      <trkpt lat="43.020534" lon="-7.355511">
        <ele>511.079</ele>
        <time>1999-07-25T15:46:32Z</time>
      </trkpt>
      <trkpt lat="43.020479" lon="-7.355607">
        <ele>509.826</ele>
        <time>1999-07-25T15:46:33Z</time>
      </trkpt>
      <trkpt lat="43.020431" lon="-7.355715">
        <ele>508.694</ele>
        <time>1999-07-25T15:46:34Z</time>
      </trkpt>
      <trkpt lat="43.020390" lon="-7.355830">
        <ele>507.291</ele>
        <time>1999-07-25T15:46:35Z</time>
      </trkpt>
      <trkpt lat="43.020371" lon="-7.355950">
        <ele>506.081</ele>
        <time>1999-07-25T15:46:36Z</time>
      </trkpt>
      <trkpt lat="43.020364" lon="-7.356071">
        <ele>504.819</ele>
        <time>1999-07-25T15:46:37Z</time>
      </trkpt>
      <trkpt lat="43.020360" lon="-7.356187">
        <ele>503.808</ele>
        <time>1999-07-25T15:46:38Z</time>
      </trkpt>
      <trkpt lat="43.020369" lon="-7.356275">
        <ele>502.852</ele>
        <time>1999-07-25T15:46:39Z</time>
      </trkpt>
      <trkpt lat="43.020391" lon="-7.356414">
        <ele>501.448</ele>
        <time>1999-07-25T15:46:41Z</time>
      </trkpt>
      <trkpt lat="43.020403" lon="-7.356471">
        <ele>500.839</ele>
        <time>1999-07-25T15:46:42Z</time>
      </trkpt>
      <trkpt lat="43.020409" lon="-7.356516">
        <ele>500.264</ele>
        <time>1999-07-25T15:46:43Z</time>
      </trkpt>
      <trkpt lat="43.020419" lon="-7.356605">
        <ele>499.024</ele>
        <time>1999-07-25T15:46:45Z</time>
      </trkpt>
      <trkpt lat="43.020420" lon="-7.356731">
        <ele>498.051</ele>
        <time>1999-07-25T15:46:48Z</time>
      </trkpt>
      <trkpt lat="43.020407" lon="-7.356863">
        <ele>497.818</ele>
        <time>1999-07-25T15:46:52Z</time>
      </trkpt>
      <trkpt lat="43.020407" lon="-7.357147">
        <ele>498.296</ele>
        <time>1999-07-25T15:46:59Z</time>
      </trkpt>
      <trkpt lat="43.020418" lon="-7.357287">
        <ele>499.021</ele>
        <time>1999-07-25T15:47:03Z</time>
      </trkpt>
      <trkpt lat="43.020425" lon="-7.357389">
        <ele>499.441</ele>
        <time>1999-07-25T15:47:06Z</time>
      </trkpt>
      <trkpt lat="43.020396" lon="-7.357550">
        <ele>500.005</ele>
        <time>1999-07-25T15:47:10Z</time>
      </trkpt>
      <trkpt lat="43.020391" lon="-7.357591">
        <ele>500.208</ele>
        <time>1999-07-25T15:47:11Z</time>
      </trkpt>
      <trkpt lat="43.020350" lon="-7.357765">
        <ele>501.215</ele>
        <time>1999-07-25T15:47:16Z</time>
      </trkpt>
      <trkpt lat="43.020330" lon="-7.357831">
        <ele>501.451</ele>
        <time>1999-07-25T15:47:18Z</time>
      </trkpt>
      <trkpt lat="43.020290" lon="-7.358019">
        <ele>501.612</ele>
        <time>1999-07-25T15:47:22Z</time>
      </trkpt>
      <trkpt lat="43.020274" lon="-7.358134">
        <ele>501.687</ele>
        <time>1999-07-25T15:47:24Z</time>
      </trkpt>
      <trkpt lat="43.020264" lon="-7.358193">
        <ele>501.677</ele>
        <time>1999-07-25T15:47:25Z</time>
      </trkpt>
      <trkpt lat="43.020234" lon="-7.358332">
        <ele>501.674</ele>
        <time>1999-07-25T15:47:27Z</time>
      </trkpt>
      <trkpt lat="43.020209" lon="-7.358528">
        <ele>501.451</ele>
        <time>1999-07-25T15:47:30Z</time>
      </trkpt>
      <trkpt lat="43.020117" lon="-7.358833">
        <ele>500.849</ele>
        <time>1999-07-25T15:47:34Z</time>
      </trkpt>
      <trkpt lat="43.020090" lon="-7.358909">
        <ele>500.475</ele>
        <time>1999-07-25T15:47:35Z</time>
      </trkpt>
      <trkpt lat="43.020065" lon="-7.358967">
        <ele>500.428</ele>
        <time>1999-07-25T15:47:36Z</time>
      </trkpt>
      <trkpt lat="43.020001" lon="-7.359199">
        <ele>500.020</ele>
        <time>1999-07-25T15:47:40Z</time>
      </trkpt>
      <trkpt lat="43.019959" lon="-7.359323">
        <ele>500.008</ele>
        <time>1999-07-25T15:47:42Z</time>
      </trkpt>
      <trkpt lat="43.019882" lon="-7.359454">
        <ele>500.080</ele>
        <time>1999-07-25T15:47:44Z</time>
      </trkpt>
      <trkpt lat="43.019767" lon="-7.359646">
        <ele>500.036</ele>
        <time>1999-07-25T15:47:47Z</time>
      </trkpt>
      <trkpt lat="43.019690" lon="-7.359766">
        <ele>500.047</ele>
        <time>1999-07-25T15:47:49Z</time>
      </trkpt>
      <trkpt lat="43.019658" lon="-7.359819">
        <ele>500.022</ele>
        <time>1999-07-25T15:47:50Z</time>
      </trkpt>
      <trkpt lat="43.019537" lon="-7.360053">
        <ele>500.642</ele>
        <time>1999-07-25T15:47:55Z</time>
      </trkpt>
      <trkpt lat="43.019495" lon="-7.360161">
        <ele>501.459</ele>
        <time>1999-07-25T15:47:58Z</time>
      </trkpt>
      <trkpt lat="43.019470" lon="-7.360272">
        <ele>501.666</ele>
        <time>1999-07-25T15:48:01Z</time>
      </trkpt>
      <trkpt lat="43.019401" lon="-7.360429">
        <ele>502.454</ele>
        <time>1999-07-25T15:48:05Z</time>
      </trkpt>
      <trkpt lat="43.019388" lon="-7.360462">
        <ele>502.487</ele>
        <time>1999-07-25T15:48:06Z</time>
      </trkpt>
      <trkpt lat="43.019288" lon="-7.360647">
        <ele>503.642</ele>
        <time>1999-07-25T15:48:11Z</time>
      </trkpt>
      <trkpt lat="43.019276" lon="-7.360699">
        <ele>504.226</ele>
        <time>1999-07-25T15:48:13Z</time>
      </trkpt>
      <trkpt lat="43.019264" lon="-7.360783">
        <ele>504.808</ele>
        <time>1999-07-25T15:48:16Z</time>
      </trkpt>
      <trkpt lat="43.019230" lon="-7.360908">
        <ele>505.891</ele>
        <time>1999-07-25T15:48:20Z</time>
      </trkpt>
      <trkpt lat="43.019204" lon="-7.361045">
        <ele>507.097</ele>
        <time>1999-07-25T15:48:24Z</time>
      </trkpt>
      <trkpt lat="43.019191" lon="-7.361141">
        <ele>508.038</ele>
        <time>1999-07-25T15:48:27Z</time>
      </trkpt>
      <trkpt lat="43.019173" lon="-7.361234">
        <ele>509.033</ele>
        <time>1999-07-25T15:48:30Z</time>
      </trkpt>
      <trkpt lat="43.019157" lon="-7.361354">
        <ele>510.213</ele>
        <time>1999-07-25T15:48:35Z</time>
      </trkpt>
      <trkpt lat="43.019172" lon="-7.361437">
        <ele>511.270</ele>
        <time>1999-07-25T15:48:39Z</time>
      </trkpt>
      <trkpt lat="43.019172" lon="-7.361510">
        <ele>512.017</ele>
        <time>1999-07-25T15:48:42Z</time>
      </trkpt>
      <trkpt lat="43.019177" lon="-7.361532">
        <ele>512.425</ele>
        <time>1999-07-25T15:48:43Z</time>
      </trkpt>
      <trkpt lat="43.019194" lon="-7.361646">
        <ele>513.632</ele>
        <time>1999-07-25T15:48:48Z</time>
      </trkpt>
      <trkpt lat="43.019202" lon="-7.361668">
        <ele>513.892</ele>
        <time>1999-07-25T15:48:49Z</time>
      </trkpt>
      <trkpt lat="43.019221" lon="-7.361727">
        <ele>514.811</ele>
        <time>1999-07-25T15:48:52Z</time>
      </trkpt>
      <trkpt lat="43.019262" lon="-7.361822">
        <ele>515.808</ele>
        <time>1999-07-25T15:48:56Z</time>
      </trkpt>
      <trkpt lat="43.019298" lon="-7.361996">
        <ele>516.886</ele>
        <time>1999-07-25T15:49:02Z</time>
      </trkpt>
      <trkpt lat="43.019314" lon="-7.362157">
        <ele>517.832</ele>
        <time>1999-07-25T15:49:07Z</time>
      </trkpt>
      <trkpt lat="43.019314" lon="-7.362192">
        <ele>517.813</ele>
        <time>1999-07-25T15:49:08Z</time>
      </trkpt>
      <trkpt lat="43.019308" lon="-7.362381">
        <ele>518.498</ele>
        <time>1999-07-25T15:49:13Z</time>
      </trkpt>
      <trkpt lat="43.019284" lon="-7.362509">
        <ele>518.698</ele>
        <time>1999-07-25T15:49:16Z</time>
      </trkpt>
      <trkpt lat="43.019286" lon="-7.362556">
        <ele>518.645</ele>
        <time>1999-07-25T15:49:17Z</time>
      </trkpt>
      <trkpt lat="43.019272" lon="-7.362738">
        <ele>518.652</ele>
        <time>1999-07-25T15:49:20Z</time>
      </trkpt>
      <trkpt lat="43.019265" lon="-7.362946">
        <ele>518.680</ele>
        <time>1999-07-25T15:49:23Z</time>
      </trkpt>
      <trkpt lat="43.019264" lon="-7.363011">
        <ele>518.666</ele>
        <time>1999-07-25T15:49:24Z</time>
      </trkpt>
      <trkpt lat="43.019238" lon="-7.363138">
        <ele>518.429</ele>
        <time>1999-07-25T15:49:26Z</time>
      </trkpt>
      <trkpt lat="43.019175" lon="-7.363262">
        <ele>518.421</ele>
        <time>1999-07-25T15:49:28Z</time>
      </trkpt>
      <trkpt lat="43.019106" lon="-7.363457">
        <ele>518.208</ele>
        <time>1999-07-25T15:49:31Z</time>
      </trkpt>
      <trkpt lat="43.019117" lon="-7.363522">
        <ele>517.689</ele>
        <time>1999-07-25T15:49:32Z</time>
      </trkpt>
      <trkpt lat="43.019163" lon="-7.363613">
        <ele>517.075</ele>
        <time>1999-07-25T15:49:34Z</time>
      </trkpt>
      <trkpt lat="43.019178" lon="-7.363644">
        <ele>516.816</ele>
        <time>1999-07-25T15:49:35Z</time>
      </trkpt>
      <trkpt lat="43.019196" lon="-7.363698">
        <ele>515.631</ele>
        <time>1999-07-25T15:49:37Z</time>
      </trkpt>
      <trkpt lat="43.019210" lon="-7.363724">
        <ele>515.411</ele>
        <time>1999-07-25T15:49:38Z</time>
      </trkpt>
      <trkpt lat="43.019243" lon="-7.363790">
        <ele>514.498</ele>
        <time>1999-07-25T15:49:40Z</time>
      </trkpt>
      <trkpt lat="43.019352" lon="-7.364100">
        <ele>513.825</ele>
        <time>1999-07-25T15:49:47Z</time>
      </trkpt>
      <trkpt lat="43.019368" lon="-7.364254">
        <ele>513.883</ele>
        <time>1999-07-25T15:49:50Z</time>
      </trkpt>
      <trkpt lat="43.019361" lon="-7.364358">
        <ele>513.854</ele>
        <time>1999-07-25T15:49:52Z</time>
      </trkpt>
      <trkpt lat="43.019339" lon="-7.364517">
        <ele>514.056</ele>
        <time>1999-07-25T15:49:55Z</time>
      </trkpt>
      <trkpt lat="43.019331" lon="-7.364673">
        <ele>514.611</ele>
        <time>1999-07-25T15:49:58Z</time>
      </trkpt>
      <trkpt lat="43.019348" lon="-7.364816">
        <ele>515.008</ele>
        <time>1999-07-25T15:50:01Z</time>
      </trkpt>
      <trkpt lat="43.019356" lon="-7.364951">
        <ele>515.438</ele>
        <time>1999-07-25T15:50:04Z</time>
      </trkpt>
      <trkpt lat="43.019356" lon="-7.364994">
        <ele>515.634</ele>
        <time>1999-07-25T15:50:05Z</time>
      </trkpt>
      <trkpt lat="43.019337" lon="-7.365071">
        <ele>515.875</ele>
        <time>1999-07-25T15:50:07Z</time>
      </trkpt>
      <trkpt lat="43.019313" lon="-7.365106">
        <ele>516.290</ele>
        <time>1999-07-25T15:50:08Z</time>
      </trkpt>
      <trkpt lat="43.019229" lon="-7.365224">
        <ele>517.090</ele>
        <time>1999-07-25T15:50:11Z</time>
      </trkpt>
      <trkpt lat="43.019129" lon="-7.365326">
        <ele>517.417</ele>
        <time>1999-07-25T15:50:14Z</time>
      </trkpt>
      <trkpt lat="43.019003" lon="-7.365423">
        <ele>517.614</ele>
        <time>1999-07-25T15:50:17Z</time>
      </trkpt>
      <trkpt lat="43.018862" lon="-7.365489">
        <ele>517.622</ele>
        <time>1999-07-25T15:50:20Z</time>
      </trkpt>
      <trkpt lat="43.018816" lon="-7.365502">
        <ele>517.659</ele>
        <time>1999-07-25T15:50:21Z</time>
      </trkpt>
      <trkpt lat="43.018720" lon="-7.365509">
        <ele>517.603</ele>
        <time>1999-07-25T15:50:23Z</time>
      </trkpt>
      <trkpt lat="43.018615" lon="-7.365497">
        <ele>517.623</ele>
        <time>1999-07-25T15:50:25Z</time>
      </trkpt>
      <trkpt lat="43.018496" lon="-7.365483">
        <ele>517.608</ele>
        <time>1999-07-25T15:50:27Z</time>
      </trkpt>
      <trkpt lat="43.018372" lon="-7.365514">
        <ele>517.258</ele>
        <time>1999-07-25T15:50:29Z</time>
      </trkpt>
      <trkpt lat="43.018252" lon="-7.365604">
        <ele>516.424</ele>
        <time>1999-07-25T15:50:31Z</time>
      </trkpt>
      <trkpt lat="43.018202" lon="-7.365656">
        <ele>516.025</ele>
        <time>1999-07-25T15:50:32Z</time>
      </trkpt>
      <trkpt lat="43.018165" lon="-7.365703">
        <ele>515.610</ele>
        <time>1999-07-25T15:50:33Z</time>
      </trkpt>
      <trkpt lat="43.018134" lon="-7.365813">
        <ele>515.030</ele>
        <time>1999-07-25T15:50:35Z</time>
      </trkpt>
      <trkpt lat="43.018134" lon="-7.365879">
        <ele>514.677</ele>
        <time>1999-07-25T15:50:36Z</time>
      </trkpt>
      <trkpt lat="43.018103" lon="-7.366124">
        <ele>513.894</ele>
        <time>1999-07-25T15:50:40Z</time>
      </trkpt>
      <trkpt lat="43.017989" lon="-7.366212">
        <ele>512.692</ele>
        <time>1999-07-25T15:50:43Z</time>
      </trkpt>
      <trkpt lat="43.017902" lon="-7.366241">
        <ele>512.247</ele>
        <time>1999-07-25T15:50:45Z</time>
      </trkpt>
      <trkpt lat="43.017852" lon="-7.366278">
        <ele>511.629</ele>
        <time>1999-07-25T15:50:47Z</time>
      </trkpt>
      <trkpt lat="43.017844" lon="-7.366321">
        <ele>511.421</ele>
        <time>1999-07-25T15:50:48Z</time>
      </trkpt>
      <trkpt lat="43.017844" lon="-7.366502">
        <ele>511.208</ele>
        <time>1999-07-25T15:50:51Z</time>
      </trkpt>
      <trkpt lat="43.017848" lon="-7.366574">
        <ele>511.097</ele>
        <time>1999-07-25T15:50:52Z</time>
      </trkpt>
      <trkpt lat="43.017871" lon="-7.366729">
        <ele>511.013</ele>
        <time>1999-07-25T15:50:54Z</time>
      </trkpt>
      <trkpt lat="43.017909" lon="-7.366907">
        <ele>511.044</ele>
        <time>1999-07-25T15:50:56Z</time>
      </trkpt>
      <trkpt lat="43.018046" lon="-7.367446">
        <ele>510.819</ele>
        <time>1999-07-25T15:51:01Z</time>
      </trkpt>
      <trkpt lat="43.018078" lon="-7.367702">
        <ele>510.279</ele>
        <time>1999-07-25T15:51:03Z</time>
      </trkpt>
      <trkpt lat="43.018103" lon="-7.367948">
        <ele>509.416</ele>
        <time>1999-07-25T15:51:05Z</time>
      </trkpt>
      <trkpt lat="43.018126" lon="-7.368311">
        <ele>508.273</ele>
        <time>1999-07-25T15:51:08Z</time>
      </trkpt>
      <trkpt lat="43.018125" lon="-7.368535">
        <ele>506.641</ele>
        <time>1999-07-25T15:51:10Z</time>
      </trkpt>
      <trkpt lat="43.018114" lon="-7.368638">
        <ele>505.824</ele>
        <time>1999-07-25T15:51:11Z</time>
      </trkpt>
      <trkpt lat="43.018106" lon="-7.368740">
        <ele>504.804</ele>
        <time>1999-07-25T15:51:12Z</time>
      </trkpt>
      <trkpt lat="43.018108" lon="-7.368843">
        <ele>504.414</ele>
        <time>1999-07-25T15:51:13Z</time>
      </trkpt>
      <trkpt lat="43.018105" lon="-7.368959">
        <ele>503.608</ele>
        <time>1999-07-25T15:51:14Z</time>
      </trkpt>
      <trkpt lat="43.018101" lon="-7.369083">
        <ele>502.695</ele>
        <time>1999-07-25T15:51:15Z</time>
      </trkpt>
      <trkpt lat="43.018088" lon="-7.369209">
        <ele>501.411</ele>
        <time>1999-07-25T15:51:16Z</time>
      </trkpt>
      <trkpt lat="43.018072" lon="-7.369345">
        <ele>500.252</ele>
        <time>1999-07-25T15:51:17Z</time>
      </trkpt>
      <trkpt lat="43.018067" lon="-7.369480">
        <ele>499.087</ele>
        <time>1999-07-25T15:51:18Z</time>
      </trkpt>
      <trkpt lat="43.018066" lon="-7.369612">
        <ele>497.897</ele>
        <time>1999-07-25T15:51:19Z</time>
      </trkpt>
      <trkpt lat="43.018075" lon="-7.369740">
        <ele>496.844</ele>
        <time>1999-07-25T15:51:20Z</time>
      </trkpt>
      <trkpt lat="43.018106" lon="-7.369977">
        <ele>494.291</ele>
        <time>1999-07-25T15:51:22Z</time>
      </trkpt>
      <trkpt lat="43.018128" lon="-7.370083">
        <ele>493.629</ele>
        <time>1999-07-25T15:51:23Z</time>
      </trkpt>
      <trkpt lat="43.018137" lon="-7.370185">
        <ele>493.086</ele>
        <time>1999-07-25T15:51:24Z</time>
      </trkpt>
      <trkpt lat="43.018116" lon="-7.370386">
        <ele>492.060</ele>
        <time>1999-07-25T15:51:26Z</time>
      </trkpt>
      <trkpt lat="43.018097" lon="-7.370467">
        <ele>491.626</ele>
        <time>1999-07-25T15:51:27Z</time>
      </trkpt>
      <trkpt lat="43.018047" lon="-7.370588">
        <ele>491.208</ele>
        <time>1999-07-25T15:51:29Z</time>
      </trkpt>
      <trkpt lat="43.018026" lon="-7.370643">
        <ele>491.271</ele>
        <time>1999-07-25T15:51:30Z</time>
      </trkpt>
      <trkpt lat="43.017967" lon="-7.370786">
        <ele>491.237</ele>
        <time>1999-07-25T15:51:33Z</time>
      </trkpt>
      <trkpt lat="43.017944" lon="-7.370826">
        <ele>491.248</ele>
        <time>1999-07-25T15:51:34Z</time>
      </trkpt>
      <trkpt lat="43.017872" lon="-7.370940">
        <ele>491.223</ele>
        <time>1999-07-25T15:51:37Z</time>
      </trkpt>
      <trkpt lat="43.017808" lon="-7.371035">
        <ele>491.443</ele>
        <time>1999-07-25T15:51:40Z</time>
      </trkpt>
      <trkpt lat="43.017754" lon="-7.371160">
        <ele>492.030</ele>
        <time>1999-07-25T15:51:43Z</time>
      </trkpt>
      <trkpt lat="43.017727" lon="-7.371256">
        <ele>492.297</ele>
        <time>1999-07-25T15:51:45Z</time>
      </trkpt>
      <trkpt lat="43.017671" lon="-7.371407">
        <ele>492.675</ele>
        <time>1999-07-25T15:51:48Z</time>
      </trkpt>
      <trkpt lat="43.017651" lon="-7.371458">
        <ele>492.826</ele>
        <time>1999-07-25T15:51:49Z</time>
      </trkpt>
      <trkpt lat="43.017584" lon="-7.371595">
        <ele>493.647</ele>
        <time>1999-07-25T15:51:52Z</time>
      </trkpt>
      <trkpt lat="43.017567" lon="-7.371636">
        <ele>493.811</ele>
        <time>1999-07-25T15:51:53Z</time>
      </trkpt>
      <trkpt lat="43.017470" lon="-7.371838">
        <ele>494.808</ele>
        <time>1999-07-25T15:51:59Z</time>
      </trkpt>
      <trkpt lat="43.017383" lon="-7.372024">
        <ele>495.855</ele>
        <time>1999-07-25T15:52:05Z</time>
      </trkpt>
      <trkpt lat="43.017373" lon="-7.372054">
        <ele>496.081</ele>
        <time>1999-07-25T15:52:06Z</time>
      </trkpt>
      <trkpt lat="43.017246" lon="-7.372248">
        <ele>497.452</ele>
        <time>1999-07-25T15:52:12Z</time>
      </trkpt>
      <trkpt lat="43.017182" lon="-7.372374">
        <ele>498.467</ele>
        <time>1999-07-25T15:52:17Z</time>
      </trkpt>
      <trkpt lat="43.017157" lon="-7.372441">
        <ele>499.087</ele>
        <time>1999-07-25T15:52:19Z</time>
      </trkpt>
      <trkpt lat="43.017112" lon="-7.372546">
        <ele>499.844</ele>
        <time>1999-07-25T15:52:22Z</time>
      </trkpt>
      <trkpt lat="43.017056" lon="-7.372737">
        <ele>500.461</ele>
        <time>1999-07-25T15:52:27Z</time>
      </trkpt>
      <trkpt lat="43.017030" lon="-7.372958">
        <ele>500.819</ele>
        <time>1999-07-25T15:52:33Z</time>
      </trkpt>
      <trkpt lat="43.017022" lon="-7.372993">
        <ele>500.824</ele>
        <time>1999-07-25T15:52:34Z</time>
      </trkpt>
      <trkpt lat="43.016979" lon="-7.373177">
        <ele>501.404</ele>
        <time>1999-07-25T15:52:39Z</time>
      </trkpt>
      <trkpt lat="43.016938" lon="-7.373383">
        <ele>501.814</ele>
        <time>1999-07-25T15:52:45Z</time>
      </trkpt>
      <trkpt lat="43.016893" lon="-7.373511">
        <ele>502.008</ele>
        <time>1999-07-25T15:52:48Z</time>
      </trkpt>
      <trkpt lat="43.016848" lon="-7.373647">
        <ele>502.695</ele>
        <time>1999-07-25T15:52:51Z</time>
      </trkpt>
      <trkpt lat="43.016810" lon="-7.373839">
        <ele>503.221</ele>
        <time>1999-07-25T15:52:55Z</time>
      </trkpt>
      <trkpt lat="43.016802" lon="-7.373928">
        <ele>503.692</ele>
        <time>1999-07-25T15:52:57Z</time>
      </trkpt>
      <trkpt lat="43.016796" lon="-7.374043">
        <ele>504.467</ele>
        <time>1999-07-25T15:53:00Z</time>
      </trkpt>
      <trkpt lat="43.016801" lon="-7.374183">
        <ele>505.087</ele>
        <time>1999-07-25T15:53:04Z</time>
      </trkpt>
      <trkpt lat="43.016803" lon="-7.374252">
        <ele>505.624</ele>
        <time>1999-07-25T15:53:06Z</time>
      </trkpt>
      <trkpt lat="43.016831" lon="-7.374385">
        <ele>506.431</ele>
        <time>1999-07-25T15:53:10Z</time>
      </trkpt>
      <trkpt lat="43.016862" lon="-7.374452">
        <ele>506.859</ele>
        <time>1999-07-25T15:53:12Z</time>
      </trkpt>
      <trkpt lat="43.016931" lon="-7.374587">
        <ele>507.838</ele>
        <time>1999-07-25T15:53:16Z</time>
      </trkpt>
      <trkpt lat="43.016953" lon="-7.374619">
        <ele>508.070</ele>
        <time>1999-07-25T15:53:17Z</time>
      </trkpt>
      <trkpt lat="43.017034" lon="-7.374780">
        <ele>508.817</ele>
        <time>1999-07-25T15:53:22Z</time>
      </trkpt>
      <trkpt lat="43.017104" lon="-7.374905">
        <ele>509.208</ele>
        <time>1999-07-25T15:53:26Z</time>
      </trkpt>
      <trkpt lat="43.017260" lon="-7.375160">
        <ele>510.056</ele>
        <time>1999-07-25T15:53:35Z</time>
      </trkpt>
      <trkpt lat="43.017348" lon="-7.375283">
        <ele>511.022</ele>
        <time>1999-07-25T15:53:40Z</time>
      </trkpt>
      <trkpt lat="43.017385" lon="-7.375332">
        <ele>511.443</ele>
        <time>1999-07-25T15:53:42Z</time>
      </trkpt>
      <trkpt lat="43.017441" lon="-7.375411">
        <ele>512.478</ele>
        <time>1999-07-25T15:53:45Z</time>
      </trkpt>
      <trkpt lat="43.017488" lon="-7.375473">
        <ele>513.438</ele>
        <time>1999-07-25T15:53:48Z</time>
      </trkpt>
      <trkpt lat="43.017535" lon="-7.375595">
        <ele>514.435</ele>
        <time>1999-07-25T15:53:53Z</time>
      </trkpt>
      <trkpt lat="43.017540" lon="-7.375621">
        <ele>514.892</ele>
        <time>1999-07-25T15:53:54Z</time>
      </trkpt>
      <trkpt lat="43.017567" lon="-7.375742">
        <ele>515.870</ele>
        <time>1999-07-25T15:53:58Z</time>
      </trkpt>
      <trkpt lat="43.017602" lon="-7.375824">
        <ele>516.294</ele>
        <time>1999-07-25T15:54:01Z</time>
      </trkpt>
      <trkpt lat="43.017628" lon="-7.375881">
        <ele>516.857</ele>
        <time>1999-07-25T15:54:03Z</time>
      </trkpt>
      <trkpt lat="43.017711" lon="-7.376057">
        <ele>517.822</ele>
        <time>1999-07-25T15:54:09Z</time>
      </trkpt>
      <trkpt lat="43.017746" lon="-7.376208">
        <ele>519.008</ele>
        <time>1999-07-25T15:54:14Z</time>
      </trkpt>
      <trkpt lat="43.017740" lon="-7.376360">
        <ele>520.292</ele>
        <time>1999-07-25T15:54:19Z</time>
      </trkpt>
      <trkpt lat="43.017735" lon="-7.376389">
        <ele>520.488</ele>
        <time>1999-07-25T15:54:20Z</time>
      </trkpt>
      <trkpt lat="43.017731" lon="-7.376473">
        <ele>521.499</ele>
        <time>1999-07-25T15:54:23Z</time>
      </trkpt>
      <trkpt lat="43.017740" lon="-7.376567">
        <ele>521.884</ele>
        <time>1999-07-25T15:54:26Z</time>
      </trkpt>
      <trkpt lat="43.017732" lon="-7.376802">
        <ele>522.044</ele>
        <time>1999-07-25T15:54:32Z</time>
      </trkpt>
      <trkpt lat="43.017732" lon="-7.376980">
        <ele>522.491</ele>
        <time>1999-07-25T15:54:36Z</time>
      </trkpt>
      <trkpt lat="43.017713" lon="-7.377081">
        <ele>523.058</ele>
        <time>1999-07-25T15:54:38Z</time>
      </trkpt>
      <trkpt lat="43.017671" lon="-7.377277">
        <ele>523.276</ele>
        <time>1999-07-25T15:54:42Z</time>
      </trkpt>
      <trkpt lat="43.017664" lon="-7.377360">
        <ele>523.456</ele>
        <time>1999-07-25T15:54:44Z</time>
      </trkpt>
      <trkpt lat="43.017681" lon="-7.377432">
        <ele>523.859</ele>
        <time>1999-07-25T15:54:46Z</time>
      </trkpt>
      <trkpt lat="43.017679" lon="-7.377507">
        <ele>524.014</ele>
        <time>1999-07-25T15:54:48Z</time>
      </trkpt>
      <trkpt lat="43.017680" lon="-7.377735">
        <ele>524.808</ele>
        <time>1999-07-25T15:54:54Z</time>
      </trkpt>
      <trkpt lat="43.017681" lon="-7.377940">
        <ele>525.268</ele>
        <time>1999-07-25T15:54:59Z</time>
      </trkpt>
      <trkpt lat="43.017743" lon="-7.378248">
        <ele>525.864</ele>
        <time>1999-07-25T15:55:06Z</time>
      </trkpt>
      <trkpt lat="43.017844" lon="-7.378527">
        <ele>526.215</ele>
        <time>1999-07-25T15:55:12Z</time>
      </trkpt>
      <trkpt lat="43.017919" lon="-7.378655">
        <ele>526.890</ele>
        <time>1999-07-25T15:55:15Z</time>
      </trkpt>
      <trkpt lat="43.018028" lon="-7.378868">
        <ele>527.850</ele>
        <time>1999-07-25T15:55:20Z</time>
      </trkpt>
      <trkpt lat="43.018171" lon="-7.379123">
        <ele>528.867</ele>
        <time>1999-07-25T15:55:26Z</time>
      </trkpt>
      <trkpt lat="43.018186" lon="-7.379331">
        <ele>528.814</ele>
        <time>1999-07-25T15:55:29Z</time>
      </trkpt>
      <trkpt lat="43.018181" lon="-7.379410">
        <ele>528.832</ele>
        <time>1999-07-25T15:55:30Z</time>
      </trkpt>
      <trkpt lat="43.018170" lon="-7.379490">
        <ele>529.074</ele>
        <time>1999-07-25T15:55:31Z</time>
      </trkpt>
      <trkpt lat="43.018131" lon="-7.379645">
        <ele>529.056</ele>
        <time>1999-07-25T15:55:33Z</time>
      </trkpt>
      <trkpt lat="43.018090" lon="-7.379803">
        <ele>528.821</ele>
        <time>1999-07-25T15:55:35Z</time>
      </trkpt>
      <trkpt lat="43.018049" lon="-7.380058">
        <ele>528.608</ele>
        <time>1999-07-25T15:55:38Z</time>
      </trkpt>
      <trkpt lat="43.018042" lon="-7.380145">
        <ele>528.460</ele>
        <time>1999-07-25T15:55:39Z</time>
      </trkpt>
      <trkpt lat="43.018044" lon="-7.380325">
        <ele>528.286</ele>
        <time>1999-07-25T15:55:41Z</time>
      </trkpt>
      <trkpt lat="43.018056" lon="-7.380415">
        <ele>528.087</ele>
        <time>1999-07-25T15:55:42Z</time>
      </trkpt>
      <trkpt lat="43.018099" lon="-7.380595">
        <ele>527.612</ele>
        <time>1999-07-25T15:55:44Z</time>
      </trkpt>
      <trkpt lat="43.018159" lon="-7.380774">
        <ele>526.882</ele>
        <time>1999-07-25T15:55:46Z</time>
      </trkpt>
      <trkpt lat="43.018200" lon="-7.380968">
        <ele>526.029</ele>
        <time>1999-07-25T15:55:48Z</time>
      </trkpt>
      <trkpt lat="43.018211" lon="-7.381070">
        <ele>525.856</ele>
        <time>1999-07-25T15:55:49Z</time>
      </trkpt>
      <trkpt lat="43.018228" lon="-7.381285">
        <ele>525.054</ele>
        <time>1999-07-25T15:55:51Z</time>
      </trkpt>
      <trkpt lat="43.018244" lon="-7.381515">
        <ele>524.677</ele>
        <time>1999-07-25T15:55:53Z</time>
      </trkpt>
      <trkpt lat="43.018248" lon="-7.381636">
        <ele>524.461</ele>
        <time>1999-07-25T15:55:54Z</time>
      </trkpt>
      <trkpt lat="43.018232" lon="-7.381875">
        <ele>524.027</ele>
        <time>1999-07-25T15:55:56Z</time>
      </trkpt>
      <trkpt lat="43.018204" lon="-7.381988">
        <ele>523.408</ele>
        <time>1999-07-25T15:55:57Z</time>
      </trkpt>
      <trkpt lat="43.018065" lon="-7.382285">
        <ele>522.450</ele>
        <time>1999-07-25T15:56:00Z</time>
      </trkpt>
      <trkpt lat="43.018003" lon="-7.382353">
        <ele>522.246</ele>
        <time>1999-07-25T15:56:01Z</time>
      </trkpt>
      <trkpt lat="43.017871" lon="-7.382465">
        <ele>521.417</ele>
        <time>1999-07-25T15:56:03Z</time>
      </trkpt>
      <trkpt lat="43.017758" lon="-7.382607">
        <ele>520.452</ele>
        <time>1999-07-25T15:56:05Z</time>
      </trkpt>
      <trkpt lat="43.017719" lon="-7.382679">
        <ele>520.262</ele>
        <time>1999-07-25T15:56:06Z</time>
      </trkpt>
      <trkpt lat="43.017667" lon="-7.382850">
        <ele>519.649</ele>
        <time>1999-07-25T15:56:08Z</time>
      </trkpt>
      <trkpt lat="43.017637" lon="-7.382956">
        <ele>518.686</ele>
        <time>1999-07-25T15:56:09Z</time>
      </trkpt>
      <trkpt lat="43.017600" lon="-7.383071">
        <ele>517.854</ele>
        <time>1999-07-25T15:56:10Z</time>
      </trkpt>
      <trkpt lat="43.017568" lon="-7.383194">
        <ele>516.812</ele>
        <time>1999-07-25T15:56:11Z</time>
      </trkpt>
      <trkpt lat="43.017548" lon="-7.383323">
        <ele>516.032</ele>
        <time>1999-07-25T15:56:12Z</time>
      </trkpt>
      <trkpt lat="43.017546" lon="-7.383452">
        <ele>515.405</ele>
        <time>1999-07-25T15:56:13Z</time>
      </trkpt>
      <trkpt lat="43.017586" lon="-7.383690">
        <ele>513.408</ele>
        <time>1999-07-25T15:56:15Z</time>
      </trkpt>
      <trkpt lat="43.017616" lon="-7.383796">
        <ele>513.034</ele>
        <time>1999-07-25T15:56:16Z</time>
      </trkpt>
      <trkpt lat="43.017643" lon="-7.383899">
        <ele>512.260</ele>
        <time>1999-07-25T15:56:17Z</time>
      </trkpt>
      <trkpt lat="43.017647" lon="-7.384109">
        <ele>510.811</ele>
        <time>1999-07-25T15:56:19Z</time>
      </trkpt>
      <trkpt lat="43.017622" lon="-7.384204">
        <ele>510.296</ele>
        <time>1999-07-25T15:56:20Z</time>
      </trkpt>
      <trkpt lat="43.017586" lon="-7.384290">
        <ele>509.676</ele>
        <time>1999-07-25T15:56:21Z</time>
      </trkpt>
      <trkpt lat="43.017546" lon="-7.384373">
        <ele>509.293</ele>
        <time>1999-07-25T15:56:22Z</time>
      </trkpt>
      <trkpt lat="43.017467" lon="-7.384529">
        <ele>508.830</ele>
        <time>1999-07-25T15:56:24Z</time>
      </trkpt>
      <trkpt lat="43.017393" lon="-7.384675">
        <ele>508.678</ele>
        <time>1999-07-25T15:56:26Z</time>
      </trkpt>
      <trkpt lat="43.017291" lon="-7.384869">
        <ele>508.478</ele>
        <time>1999-07-25T15:56:29Z</time>
      </trkpt>
      <trkpt lat="43.017263" lon="-7.384932">
        <ele>508.433</ele>
        <time>1999-07-25T15:56:30Z</time>
      </trkpt>
      <trkpt lat="43.017214" lon="-7.385131">
        <ele>508.426</ele>
        <time>1999-07-25T15:56:33Z</time>
      </trkpt>
      <trkpt lat="43.017176" lon="-7.385327">
        <ele>508.408</ele>
        <time>1999-07-25T15:56:36Z</time>
      </trkpt>
      <trkpt lat="43.017117" lon="-7.385589">
        <ele>509.020</ele>
        <time>1999-07-25T15:56:40Z</time>
      </trkpt>
      <trkpt lat="43.017099" lon="-7.385654">
        <ele>509.216</ele>
        <time>1999-07-25T15:56:41Z</time>
      </trkpt>
      <trkpt lat="43.017015" lon="-7.385975">
        <ele>509.677</ele>
        <time>1999-07-25T15:56:46Z</time>
      </trkpt>
      <trkpt lat="43.016973" lon="-7.386173">
        <ele>509.872</ele>
        <time>1999-07-25T15:56:49Z</time>
      </trkpt>
      <trkpt lat="43.016950" lon="-7.386302">
        <ele>509.872</ele>
        <time>1999-07-25T15:56:51Z</time>
      </trkpt>
      <trkpt lat="43.016920" lon="-7.386619">
        <ele>510.459</ele>
        <time>1999-07-25T15:56:56Z</time>
      </trkpt>
      <trkpt lat="43.016914" lon="-7.386751">
        <ele>510.846</ele>
        <time>1999-07-25T15:56:58Z</time>
      </trkpt>
      <trkpt lat="43.016914" lon="-7.386880">
        <ele>511.444</ele>
        <time>1999-07-25T15:57:00Z</time>
      </trkpt>
      <trkpt lat="43.016938" lon="-7.387067">
        <ele>511.838</ele>
        <time>1999-07-25T15:57:03Z</time>
      </trkpt>
      <trkpt lat="43.016967" lon="-7.387196">
        <ele>511.870</ele>
        <time>1999-07-25T15:57:05Z</time>
      </trkpt>
      <trkpt lat="43.016986" lon="-7.387257">
        <ele>512.017</ele>
        <time>1999-07-25T15:57:06Z</time>
      </trkpt>
      <trkpt lat="43.017041" lon="-7.387440">
        <ele>512.208</ele>
        <time>1999-07-25T15:57:09Z</time>
      </trkpt>
      <trkpt lat="43.017133" lon="-7.387737">
        <ele>512.436</ele>
        <time>1999-07-25T15:57:14Z</time>
      </trkpt>
      <trkpt lat="43.017167" lon="-7.387856">
        <ele>512.622</ele>
        <time>1999-07-25T15:57:16Z</time>
      </trkpt>
      <trkpt lat="43.017227" lon="-7.388101">
        <ele>513.033</ele>
        <time>1999-07-25T15:57:20Z</time>
      </trkpt>
      <trkpt lat="43.017249" lon="-7.388285">
        <ele>513.848</ele>
        <time>1999-07-25T15:57:23Z</time>
      </trkpt>
      <trkpt lat="43.017255" lon="-7.388479">
        <ele>514.278</ele>
        <time>1999-07-25T15:57:26Z</time>
      </trkpt>
      <trkpt lat="43.017251" lon="-7.388680">
        <ele>514.815</ele>
        <time>1999-07-25T15:57:29Z</time>
      </trkpt>
      <trkpt lat="43.017291" lon="-7.389064">
        <ele>515.252</ele>
        <time>1999-07-25T15:57:35Z</time>
      </trkpt>
      <trkpt lat="43.017443" lon="-7.389552">
        <ele>515.630</ele>
        <time>1999-07-25T15:57:43Z</time>
      </trkpt>
      <trkpt lat="43.017510" lon="-7.389863">
        <ele>516.417</ele>
        <time>1999-07-25T15:57:48Z</time>
      </trkpt>
      <trkpt lat="43.017521" lon="-7.389988">
        <ele>516.687</ele>
        <time>1999-07-25T15:57:50Z</time>
      </trkpt>
      <trkpt lat="43.017565" lon="-7.390497">
        <ele>517.215</ele>
        <time>1999-07-25T15:57:58Z</time>
      </trkpt>
      <trkpt lat="43.017570" lon="-7.390559">
        <ele>517.408</ele>
        <time>1999-07-25T15:57:59Z</time>
      </trkpt>
      <trkpt lat="43.017575" lon="-7.390965">
        <ele>518.084</ele>
        <time>1999-07-25T15:58:06Z</time>
      </trkpt>
      <trkpt lat="43.017530" lon="-7.391182">
        <ele>518.850</ele>
        <time>1999-07-25T15:58:10Z</time>
      </trkpt>
      <trkpt lat="43.017502" lon="-7.391296">
        <ele>519.261</ele>
        <time>1999-07-25T15:58:12Z</time>
      </trkpt>
      <trkpt lat="43.017473" lon="-7.391459">
        <ele>519.876</ele>
        <time>1999-07-25T15:58:15Z</time>
      </trkpt>
      <trkpt lat="43.017467" lon="-7.391513">
        <ele>519.876</ele>
        <time>1999-07-25T15:58:16Z</time>
      </trkpt>
      <trkpt lat="43.017452" lon="-7.391617">
        <ele>520.053</ele>
        <time>1999-07-25T15:58:18Z</time>
      </trkpt>
      <trkpt lat="43.017433" lon="-7.391845">
        <ele>520.020</ele>
        <time>1999-07-25T15:58:23Z</time>
      </trkpt>
      <trkpt lat="43.017416" lon="-7.391877">
        <ele>520.268</ele>
        <time>1999-07-25T15:58:24Z</time>
      </trkpt>
      <trkpt lat="43.017337" lon="-7.391973">
        <ele>521.056</ele>
        <time>1999-07-25T15:58:27Z</time>
      </trkpt>
      <trkpt lat="43.017271" lon="-7.392068">
        <ele>521.659</ele>
        <time>1999-07-25T15:58:30Z</time>
      </trkpt>
      <trkpt lat="43.017184" lon="-7.392177">
        <ele>522.214</ele>
        <time>1999-07-25T15:58:33Z</time>
      </trkpt>
      <trkpt lat="43.017110" lon="-7.392252">
        <ele>522.408</ele>
        <time>1999-07-25T15:58:35Z</time>
      </trkpt>
      <trkpt lat="43.017018" lon="-7.392352">
        <ele>522.488</ele>
        <time>1999-07-25T15:58:38Z</time>
      </trkpt>
      <trkpt lat="43.016966" lon="-7.392398">
        <ele>522.494</ele>
        <time>1999-07-25T15:58:40Z</time>
      </trkpt>
      <trkpt lat="43.016927" lon="-7.392458">
        <ele>522.475</ele>
        <time>1999-07-25T15:58:42Z</time>
      </trkpt>
      <trkpt lat="43.016909" lon="-7.392510">
        <ele>522.230</ele>
        <time>1999-07-25T15:58:44Z</time>
      </trkpt>
      <trkpt lat="43.016896" lon="-7.392520">
        <ele>521.830</ele>
        <time>1999-07-25T15:58:45Z</time>
      </trkpt>
      <trkpt lat="43.016895" lon="-7.392483">
        <ele>521.457</ele>
        <time>1999-07-25T15:58:47Z</time>
      </trkpt>
      <trkpt lat="43.016924" lon="-7.392428">
        <ele>521.274</ele>
        <time>1999-07-25T15:58:49Z</time>
      </trkpt>
      <trkpt lat="43.016942" lon="-7.392403">
        <ele>521.032</ele>
        <time>1999-07-25T15:58:50Z</time>
      </trkpt>
      <trkpt lat="43.016982" lon="-7.392349">
        <ele>521.051</ele>
        <time>1999-07-25T15:58:52Z</time>
      </trkpt>
      <trkpt lat="43.017148" lon="-7.392162">
        <ele>521.001</ele>
        <time>1999-07-25T15:59:00Z</time>
      </trkpt>
      <trkpt lat="43.017280" lon="-7.392073">
        <ele>521.811</ele>
        <time>1999-07-25T15:59:06Z</time>
      </trkpt>
      <trkpt lat="43.017332" lon="-7.392089">
        <ele>522.208</ele>
        <time>1999-07-25T15:59:08Z</time>
      </trkpt>
      <trkpt lat="43.017368" lon="-7.392133">
        <ele>522.478</ele>
        <time>1999-07-25T15:59:10Z</time>
      </trkpt>
      <trkpt lat="43.017456" lon="-7.392302">
        <ele>522.884</ele>
        <time>1999-07-25T15:59:15Z</time>
      </trkpt>
      <trkpt lat="43.017457" lon="-7.392414">
        <ele>523.275</ele>
        <time>1999-07-25T15:59:17Z</time>
      </trkpt>
      <trkpt lat="43.017456" lon="-7.392538">
        <ele>523.480</ele>
        <time>1999-07-25T15:59:19Z</time>
      </trkpt>
      <trkpt lat="43.017437" lon="-7.392816">
        <ele>523.410</ele>
        <time>1999-07-25T15:59:23Z</time>
      </trkpt>
      <trkpt lat="43.017425" lon="-7.392891">
        <ele>523.497</ele>
        <time>1999-07-25T15:59:24Z</time>
      </trkpt>
      <trkpt lat="43.017409" lon="-7.392965">
        <ele>523.474</ele>
        <time>1999-07-25T15:59:25Z</time>
      </trkpt>
      <trkpt lat="43.017285" lon="-7.393437">
        <ele>522.872</ele>
        <time>1999-07-25T15:59:31Z</time>
      </trkpt>
      <trkpt lat="43.017259" lon="-7.393611">
        <ele>522.636</ele>
        <time>1999-07-25T15:59:33Z</time>
      </trkpt>
      <trkpt lat="43.017260" lon="-7.393782">
        <ele>522.417</ele>
        <time>1999-07-25T15:59:35Z</time>
      </trkpt>
      <trkpt lat="43.017277" lon="-7.393946">
        <ele>522.218</ele>
        <time>1999-07-25T15:59:37Z</time>
      </trkpt>
      <trkpt lat="43.017311" lon="-7.394193">
        <ele>521.808</ele>
        <time>1999-07-25T15:59:40Z</time>
      </trkpt>
      <trkpt lat="43.017316" lon="-7.394281">
        <ele>521.686</ele>
        <time>1999-07-25T15:59:41Z</time>
      </trkpt>
      <trkpt lat="43.017325" lon="-7.394464">
        <ele>521.212</ele>
        <time>1999-07-25T15:59:43Z</time>
      </trkpt>
      <trkpt lat="43.017366" lon="-7.394832">
        <ele>520.893</ele>
        <time>1999-07-25T15:59:47Z</time>
      </trkpt>
      <trkpt lat="43.017397" lon="-7.395008">
        <ele>520.458</ele>
        <time>1999-07-25T15:59:49Z</time>
      </trkpt>
      <trkpt lat="43.017413" lon="-7.395093">
        <ele>520.468</ele>
        <time>1999-07-25T15:59:50Z</time>
      </trkpt>
      <trkpt lat="43.017501" lon="-7.395605">
        <ele>519.615</ele>
        <time>1999-07-25T15:59:56Z</time>
      </trkpt>
      <trkpt lat="43.017522" lon="-7.395950">
        <ele>519.472</ele>
        <time>1999-07-25T16:00:00Z</time>
      </trkpt>
      <trkpt lat="43.017532" lon="-7.396120">
        <ele>519.220</ele>
        <time>1999-07-25T16:00:02Z</time>
      </trkpt>
      <trkpt lat="43.017600" lon="-7.396550">
        <ele>519.013</ele>
        <time>1999-07-25T16:00:07Z</time>
      </trkpt>
      <trkpt lat="43.017606" lon="-7.396946">
        <ele>518.443</ele>
        <time>1999-07-25T16:00:12Z</time>
      </trkpt>
      <trkpt lat="43.017612" lon="-7.397021">
        <ele>518.207</ele>
        <time>1999-07-25T16:00:13Z</time>
      </trkpt>
      <trkpt lat="43.017639" lon="-7.397316">
        <ele>518.008</ele>
        <time>1999-07-25T16:00:17Z</time>
      </trkpt>
      <trkpt lat="43.017638" lon="-7.397389">
        <ele>518.014</ele>
        <time>1999-07-25T16:00:18Z</time>
      </trkpt>
      <trkpt lat="43.017606" lon="-7.397695">
        <ele>517.630</ele>
        <time>1999-07-25T16:00:22Z</time>
      </trkpt>
      <trkpt lat="43.017586" lon="-7.397950">
        <ele>517.241</ele>
        <time>1999-07-25T16:00:25Z</time>
      </trkpt>
      <trkpt lat="43.017583" lon="-7.398038">
        <ele>517.016</ele>
        <time>1999-07-25T16:00:26Z</time>
      </trkpt>
      <trkpt lat="43.017586" lon="-7.398217">
        <ele>517.016</ele>
        <time>1999-07-25T16:00:28Z</time>
      </trkpt>
      <trkpt lat="43.017646" lon="-7.398747">
        <ele>516.663</ele>
        <time>1999-07-25T16:00:34Z</time>
      </trkpt>
      <trkpt lat="43.017701" lon="-7.399007">
        <ele>516.240</ele>
        <time>1999-07-25T16:00:37Z</time>
      </trkpt>
      <trkpt lat="43.017720" lon="-7.399184">
        <ele>515.828</ele>
        <time>1999-07-25T16:00:39Z</time>
      </trkpt>
      <trkpt lat="43.017730" lon="-7.399444">
        <ele>515.052</ele>
        <time>1999-07-25T16:00:42Z</time>
      </trkpt>
      <trkpt lat="43.017724" lon="-7.399718">
        <ele>514.653</ele>
        <time>1999-07-25T16:00:45Z</time>
      </trkpt>
      <trkpt lat="43.017734" lon="-7.400261">
        <ele>514.008</ele>
        <time>1999-07-25T16:00:51Z</time>
      </trkpt>
      <trkpt lat="43.017738" lon="-7.400448">
        <ele>514.008</ele>
        <time>1999-07-25T16:00:53Z</time>
      </trkpt>
      <trkpt lat="43.017702" lon="-7.400940">
        <ele>513.838</ele>
        <time>1999-07-25T16:00:59Z</time>
      </trkpt>
      <trkpt lat="43.017669" lon="-7.401314">
        <ele>513.624</ele>
        <time>1999-07-25T16:01:04Z</time>
      </trkpt>
      <trkpt lat="43.017696" lon="-7.401781">
        <ele>513.485</ele>
        <time>1999-07-25T16:01:09Z</time>
      </trkpt>
      <trkpt lat="43.017718" lon="-7.402107">
        <ele>513.070</ele>
        <time>1999-07-25T16:01:12Z</time>
      </trkpt>
      <trkpt lat="43.017739" lon="-7.402332">
        <ele>512.850</ele>
        <time>1999-07-25T16:01:14Z</time>
      </trkpt>
      <trkpt lat="43.017756" lon="-7.402770">
        <ele>511.867</ele>
        <time>1999-07-25T16:01:18Z</time>
      </trkpt>
      <trkpt lat="43.017767" lon="-7.402881">
        <ele>511.694</ele>
        <time>1999-07-25T16:01:19Z</time>
      </trkpt>
      <trkpt lat="43.017807" lon="-7.403092">
        <ele>510.842</ele>
        <time>1999-07-25T16:01:21Z</time>
      </trkpt>
      <trkpt lat="43.017898" lon="-7.403280">
        <ele>509.862</ele>
        <time>1999-07-25T16:01:23Z</time>
      </trkpt>
      <trkpt lat="43.017947" lon="-7.403387">
        <ele>509.283</ele>
        <time>1999-07-25T16:01:24Z</time>
      </trkpt>
      <trkpt lat="43.018124" lon="-7.403709">
        <ele>507.411</ele>
        <time>1999-07-25T16:01:27Z</time>
      </trkpt>
      <trkpt lat="43.018273" lon="-7.403942">
        <ele>506.008</ele>
        <time>1999-07-25T16:01:29Z</time>
      </trkpt>
      <trkpt lat="43.018346" lon="-7.404052">
        <ele>505.029</ele>
        <time>1999-07-25T16:01:30Z</time>
      </trkpt>
      <trkpt lat="43.018409" lon="-7.404155">
        <ele>503.825</ele>
        <time>1999-07-25T16:01:31Z</time>
      </trkpt>
      <trkpt lat="43.018470" lon="-7.404245">
        <ele>502.816</ele>
        <time>1999-07-25T16:01:32Z</time>
      </trkpt>
      <trkpt lat="43.018588" lon="-7.404398">
        <ele>501.041</ele>
        <time>1999-07-25T16:01:34Z</time>
      </trkpt>
      <trkpt lat="43.018656" lon="-7.404470">
        <ele>500.091</ele>
        <time>1999-07-25T16:01:35Z</time>
      </trkpt>
      <trkpt lat="43.018726" lon="-7.404538">
        <ele>498.838</ele>
        <time>1999-07-25T16:01:36Z</time>
      </trkpt>
      <trkpt lat="43.018787" lon="-7.404607">
        <ele>497.635</ele>
        <time>1999-07-25T16:01:37Z</time>
      </trkpt>
      <trkpt lat="43.018839" lon="-7.404686">
        <ele>496.493</ele>
        <time>1999-07-25T16:01:38Z</time>
      </trkpt>
      <trkpt lat="43.018887" lon="-7.404780">
        <ele>495.274</ele>
        <time>1999-07-25T16:01:39Z</time>
      </trkpt>
      <trkpt lat="43.018932" lon="-7.404875">
        <ele>494.056</ele>
        <time>1999-07-25T16:01:40Z</time>
      </trkpt>
      <trkpt lat="43.018975" lon="-7.404972">
        <ele>493.021</ele>
        <time>1999-07-25T16:01:41Z</time>
      </trkpt>
      <trkpt lat="43.019026" lon="-7.405074">
        <ele>491.008</ele>
        <time>1999-07-25T16:01:42Z</time>
      </trkpt>
      <trkpt lat="43.019115" lon="-7.405295">
        <ele>489.640</ele>
        <time>1999-07-25T16:01:44Z</time>
      </trkpt>
      <trkpt lat="43.019205" lon="-7.405532">
        <ele>488.886</ele>
        <time>1999-07-25T16:01:46Z</time>
      </trkpt>
      <trkpt lat="43.019249" lon="-7.405655">
        <ele>488.487</ele>
        <time>1999-07-25T16:01:47Z</time>
      </trkpt>
      <trkpt lat="43.019316" lon="-7.405915">
        <ele>487.452</ele>
        <time>1999-07-25T16:01:49Z</time>
      </trkpt>
      <trkpt lat="43.019373" lon="-7.406174">
        <ele>486.292</ele>
        <time>1999-07-25T16:01:51Z</time>
      </trkpt>
      <trkpt lat="43.019406" lon="-7.406302">
        <ele>485.469</ele>
        <time>1999-07-25T16:01:52Z</time>
      </trkpt>
      <trkpt lat="43.019436" lon="-7.406436">
        <ele>484.676</ele>
        <time>1999-07-25T16:01:53Z</time>
      </trkpt>
      <trkpt lat="43.019482" lon="-7.406698">
        <ele>483.094</ele>
        <time>1999-07-25T16:01:55Z</time>
      </trkpt>
      <trkpt lat="43.019547" lon="-7.407086">
        <ele>482.094</ele>
        <time>1999-07-25T16:01:58Z</time>
      </trkpt>
      <trkpt lat="43.019571" lon="-7.407209">
        <ele>481.857</ele>
        <time>1999-07-25T16:01:59Z</time>
      </trkpt>
      <trkpt lat="43.019613" lon="-7.407448">
        <ele>480.422</ele>
        <time>1999-07-25T16:02:01Z</time>
      </trkpt>
      <trkpt lat="43.019650" lon="-7.407678">
        <ele>479.408</ele>
        <time>1999-07-25T16:02:03Z</time>
      </trkpt>
      <trkpt lat="43.019667" lon="-7.407790">
        <ele>479.072</ele>
        <time>1999-07-25T16:02:04Z</time>
      </trkpt>
      <trkpt lat="43.019716" lon="-7.408118">
        <ele>477.828</ele>
        <time>1999-07-25T16:02:07Z</time>
      </trkpt>
      <trkpt lat="43.019746" lon="-7.408449">
        <ele>476.499</ele>
        <time>1999-07-25T16:02:10Z</time>
      </trkpt>
      <trkpt lat="43.019799" lon="-7.408915">
        <ele>476.274</ele>
        <time>1999-07-25T16:02:14Z</time>
      </trkpt>
      <trkpt lat="43.019847" lon="-7.409385">
        <ele>475.474</ele>
        <time>1999-07-25T16:02:18Z</time>
      </trkpt>
      <trkpt lat="43.019907" lon="-7.409704">
        <ele>474.461</ele>
        <time>1999-07-25T16:02:21Z</time>
      </trkpt>
      <trkpt lat="43.019941" lon="-7.409800">
        <ele>474.018</ele>
        <time>1999-07-25T16:02:22Z</time>
      </trkpt>
      <trkpt lat="43.020025" lon="-7.409978">
        <ele>473.036</ele>
        <time>1999-07-25T16:02:24Z</time>
      </trkpt>
      <trkpt lat="43.020116" lon="-7.410132">
        <ele>472.265</ele>
        <time>1999-07-25T16:02:26Z</time>
      </trkpt>
      <trkpt lat="43.020162" lon="-7.410205">
        <ele>471.868</ele>
        <time>1999-07-25T16:02:27Z</time>
      </trkpt>
      <trkpt lat="43.020283" lon="-7.410409">
        <ele>470.814</ele>
        <time>1999-07-25T16:02:30Z</time>
      </trkpt>
      <trkpt lat="43.020355" lon="-7.410526">
        <ele>470.808</ele>
        <time>1999-07-25T16:02:32Z</time>
      </trkpt>
      <trkpt lat="43.020479" lon="-7.410717">
        <ele>470.639</ele>
        <time>1999-07-25T16:02:36Z</time>
      </trkpt>
      <trkpt lat="43.020512" lon="-7.410759">
        <ele>470.655</ele>
        <time>1999-07-25T16:02:37Z</time>
      </trkpt>
      <trkpt lat="43.020578" lon="-7.410845">
        <ele>470.826</ele>
        <time>1999-07-25T16:02:39Z</time>
      </trkpt>
      <trkpt lat="43.020679" lon="-7.410963">
        <ele>471.451</ele>
        <time>1999-07-25T16:02:42Z</time>
      </trkpt>
      <trkpt lat="43.020716" lon="-7.411002">
        <ele>471.641</ele>
        <time>1999-07-25T16:02:43Z</time>
      </trkpt>
      <trkpt lat="43.020777" lon="-7.411079">
        <ele>472.018</ele>
        <time>1999-07-25T16:02:45Z</time>
      </trkpt>
      <trkpt lat="43.020864" lon="-7.411214">
        <ele>472.845</ele>
        <time>1999-07-25T16:02:48Z</time>
      </trkpt>
      <trkpt lat="43.020899" lon="-7.411253">
        <ele>473.083</ele>
        <time>1999-07-25T16:02:49Z</time>
      </trkpt>
      <trkpt lat="43.020931" lon="-7.411292">
        <ele>473.256</ele>
        <time>1999-07-25T16:02:50Z</time>
      </trkpt>
      <trkpt lat="43.021091" lon="-7.411483">
        <ele>474.259</ele>
        <time>1999-07-25T16:02:55Z</time>
      </trkpt>
      <trkpt lat="43.021160" lon="-7.411571">
        <ele>474.814</ele>
        <time>1999-07-25T16:02:57Z</time>
      </trkpt>
      <trkpt lat="43.021263" lon="-7.411708">
        <ele>475.408</ele>
        <time>1999-07-25T16:03:00Z</time>
      </trkpt>
      <trkpt lat="43.021388" lon="-7.411869">
        <ele>475.848</ele>
        <time>1999-07-25T16:03:03Z</time>
      </trkpt>
      <trkpt lat="43.021615" lon="-7.412251">
        <ele>476.054</ele>
        <time>1999-07-25T16:03:09Z</time>
      </trkpt>
      <trkpt lat="43.021868" lon="-7.412789">
        <ele>476.255</ele>
        <time>1999-07-25T16:03:17Z</time>
      </trkpt>
      <trkpt lat="43.022127" lon="-7.413335">
        <ele>476.490</ele>
        <time>1999-07-25T16:03:25Z</time>
      </trkpt>
      <trkpt lat="43.022159" lon="-7.413402">
        <ele>476.640</ele>
        <time>1999-07-25T16:03:26Z</time>
      </trkpt>
      <trkpt lat="43.022272" lon="-7.413686">
        <ele>476.657</ele>
        <time>1999-07-25T16:03:30Z</time>
      </trkpt>
      <trkpt lat="43.022326" lon="-7.413842">
        <ele>476.674</ele>
        <time>1999-07-25T16:03:32Z</time>
      </trkpt>
      <trkpt lat="43.022381" lon="-7.414001">
        <ele>476.682</ele>
        <time>1999-07-25T16:03:34Z</time>
      </trkpt>
      <trkpt lat="43.022536" lon="-7.414489">
        <ele>476.863</ele>
        <time>1999-07-25T16:03:40Z</time>
      </trkpt>
      <trkpt lat="43.022564" lon="-7.414563">
        <ele>476.844</ele>
        <time>1999-07-25T16:03:41Z</time>
      </trkpt>
      <trkpt lat="43.022624" lon="-7.414705">
        <ele>476.618</ele>
        <time>1999-07-25T16:03:43Z</time>
      </trkpt>
      <trkpt lat="43.022692" lon="-7.414840">
        <ele>476.608</ele>
        <time>1999-07-25T16:03:45Z</time>
      </trkpt>
      <trkpt lat="43.022774" lon="-7.414960">
        <ele>476.689</ele>
        <time>1999-07-25T16:03:47Z</time>
      </trkpt>
      <trkpt lat="43.022997" lon="-7.415253">
        <ele>475.895</ele>
        <time>1999-07-25T16:03:52Z</time>
      </trkpt>
      <trkpt lat="43.023081" lon="-7.415383">
        <ele>475.246</ele>
        <time>1999-07-25T16:03:54Z</time>
      </trkpt>
      <trkpt lat="43.023177" lon="-7.415599">
        <ele>475.041</ele>
        <time>1999-07-25T16:03:57Z</time>
      </trkpt>
      <trkpt lat="43.023223" lon="-7.415755">
        <ele>475.041</ele>
        <time>1999-07-25T16:03:59Z</time>
      </trkpt>
      <trkpt lat="43.023317" lon="-7.416106">
        <ele>475.258</ele>
        <time>1999-07-25T16:04:04Z</time>
      </trkpt>
      <trkpt lat="43.023368" lon="-7.416400">
        <ele>475.855</ele>
        <time>1999-07-25T16:04:09Z</time>
      </trkpt>
      <trkpt lat="43.023370" lon="-7.416455">
        <ele>476.093</ele>
        <time>1999-07-25T16:04:10Z</time>
      </trkpt>
      <trkpt lat="43.023353" lon="-7.416618">
        <ele>476.884</ele>
        <time>1999-07-25T16:04:13Z</time>
      </trkpt>
      <trkpt lat="43.023318" lon="-7.416774">
        <ele>477.807</ele>
        <time>1999-07-25T16:04:16Z</time>
      </trkpt>
      <trkpt lat="43.023306" lon="-7.416823">
        <ele>478.017</ele>
        <time>1999-07-25T16:04:17Z</time>
      </trkpt>
      <trkpt lat="43.023228" lon="-7.417004">
        <ele>478.808</ele>
        <time>1999-07-25T16:04:21Z</time>
      </trkpt>
      <trkpt lat="43.023203" lon="-7.417046">
        <ele>479.091</ele>
        <time>1999-07-25T16:04:22Z</time>
      </trkpt>
      <trkpt lat="43.023181" lon="-7.417088">
        <ele>479.477</ele>
        <time>1999-07-25T16:04:23Z</time>
      </trkpt>
      <trkpt lat="43.023109" lon="-7.417206">
        <ele>480.218</ele>
        <time>1999-07-25T16:04:26Z</time>
      </trkpt>
      <trkpt lat="43.023015" lon="-7.417352">
        <ele>481.223</ele>
        <time>1999-07-25T16:04:30Z</time>
      </trkpt>
      <trkpt lat="43.022992" lon="-7.417386">
        <ele>481.483</ele>
        <time>1999-07-25T16:04:31Z</time>
      </trkpt>
      <trkpt lat="43.022905" lon="-7.417510">
        <ele>482.250</ele>
        <time>1999-07-25T16:04:35Z</time>
      </trkpt>
      <trkpt lat="43.022837" lon="-7.417600">
        <ele>482.857</ele>
        <time>1999-07-25T16:04:38Z</time>
      </trkpt>
      <trkpt lat="43.022793" lon="-7.417664">
        <ele>483.225</ele>
        <time>1999-07-25T16:04:40Z</time>
      </trkpt>
      <trkpt lat="43.022738" lon="-7.417793">
        <ele>484.212</ele>
        <time>1999-07-25T16:04:44Z</time>
      </trkpt>
      <trkpt lat="43.022725" lon="-7.417824">
        <ele>484.632</ele>
        <time>1999-07-25T16:04:45Z</time>
      </trkpt>
      <trkpt lat="43.022698" lon="-7.417895">
        <ele>485.205</ele>
        <time>1999-07-25T16:04:47Z</time>
      </trkpt>
      <trkpt lat="43.022660" lon="-7.418042">
        <ele>486.608</ele>
        <time>1999-07-25T16:04:51Z</time>
      </trkpt>
      <trkpt lat="43.022651" lon="-7.418122">
        <ele>487.084</ele>
        <time>1999-07-25T16:04:53Z</time>
      </trkpt>
      <trkpt lat="43.022644" lon="-7.418194">
        <ele>487.640</ele>
        <time>1999-07-25T16:04:55Z</time>
      </trkpt>
      <trkpt lat="43.022617" lon="-7.418310">
        <ele>488.681</ele>
        <time>1999-07-25T16:04:58Z</time>
      </trkpt>
      <trkpt lat="43.022601" lon="-7.418391">
        <ele>489.296</ele>
        <time>1999-07-25T16:05:00Z</time>
      </trkpt>
      <trkpt lat="43.022581" lon="-7.418554">
        <ele>489.826</ele>
        <time>1999-07-25T16:05:04Z</time>
      </trkpt>
      <trkpt lat="43.022529" lon="-7.418750">
        <ele>490.463</ele>
        <time>1999-07-25T16:05:09Z</time>
      </trkpt>
      <trkpt lat="43.022502" lon="-7.418829">
        <ele>491.290</ele>
        <time>1999-07-25T16:05:11Z</time>
      </trkpt>
      <trkpt lat="43.022442" lon="-7.419064">
        <ele>492.428</ele>
        <time>1999-07-25T16:05:16Z</time>
      </trkpt>
      <trkpt lat="43.022373" lon="-7.419272">
        <ele>493.281</ele>
        <time>1999-07-25T16:05:20Z</time>
      </trkpt>
      <trkpt lat="43.022335" lon="-7.419390">
        <ele>493.461</ele>
        <time>1999-07-25T16:05:22Z</time>
      </trkpt>
      <trkpt lat="43.022316" lon="-7.419452">
        <ele>493.417</ele>
        <time>1999-07-25T16:05:23Z</time>
      </trkpt>
      <trkpt lat="43.022240" lon="-7.419709">
        <ele>493.408</ele>
        <time>1999-07-25T16:05:27Z</time>
      </trkpt>
      <trkpt lat="43.022193" lon="-7.419926">
        <ele>493.431</ele>
        <time>1999-07-25T16:05:30Z</time>
      </trkpt>
      <trkpt lat="43.022160" lon="-7.420328">
        <ele>493.417</ele>
        <time>1999-07-25T16:05:35Z</time>
      </trkpt>
      <trkpt lat="43.022166" lon="-7.420413">
        <ele>493.478</ele>
        <time>1999-07-25T16:05:36Z</time>
      </trkpt>
      <trkpt lat="43.022200" lon="-7.421080">
        <ele>493.473</ele>
        <time>1999-07-25T16:05:44Z</time>
      </trkpt>
      <trkpt lat="43.022193" lon="-7.421169">
        <ele>493.483</ele>
        <time>1999-07-25T16:05:45Z</time>
      </trkpt>
      <trkpt lat="43.022168" lon="-7.421347">
        <ele>493.080</ele>
        <time>1999-07-25T16:05:47Z</time>
      </trkpt>
      <trkpt lat="43.022137" lon="-7.421522">
        <ele>493.017</ele>
        <time>1999-07-25T16:05:49Z</time>
      </trkpt>
      <trkpt lat="43.022070" lon="-7.421786">
        <ele>492.455</ele>
        <time>1999-07-25T16:05:52Z</time>
      </trkpt>
      <trkpt lat="43.021996" lon="-7.422056">
        <ele>491.662</ele>
        <time>1999-07-25T16:05:55Z</time>
      </trkpt>
      <trkpt lat="43.021961" lon="-7.422141">
        <ele>491.483</ele>
        <time>1999-07-25T16:05:56Z</time>
      </trkpt>
      <trkpt lat="43.021874" lon="-7.422305">
        <ele>490.811</ele>
        <time>1999-07-25T16:05:58Z</time>
      </trkpt>
      <trkpt lat="43.021777" lon="-7.422462">
        <ele>490.608</ele>
        <time>1999-07-25T16:06:00Z</time>
      </trkpt>
      <trkpt lat="43.021671" lon="-7.422602">
        <ele>490.629</ele>
        <time>1999-07-25T16:06:02Z</time>
      </trkpt>
      <trkpt lat="43.021554" lon="-7.422715">
        <ele>490.255</ele>
        <time>1999-07-25T16:06:04Z</time>
      </trkpt>
      <trkpt lat="43.021490" lon="-7.422762">
        <ele>489.686</ele>
        <time>1999-07-25T16:06:05Z</time>
      </trkpt>
      <trkpt lat="43.021297" lon="-7.422886">
        <ele>489.011</ele>
        <time>1999-07-25T16:06:08Z</time>
      </trkpt>
      <trkpt lat="43.021175" lon="-7.422962">
        <ele>488.241</ele>
        <time>1999-07-25T16:06:10Z</time>
      </trkpt>
      <trkpt lat="43.021056" lon="-7.423053">
        <ele>487.898</ele>
        <time>1999-07-25T16:06:12Z</time>
      </trkpt>
      <trkpt lat="43.020654" lon="-7.423331">
        <ele>487.495</ele>
        <time>1999-07-25T16:06:18Z</time>
      </trkpt>
      <trkpt lat="43.020511" lon="-7.423416">
        <ele>486.843</ele>
        <time>1999-07-25T16:06:20Z</time>
      </trkpt>
      <trkpt lat="43.020362" lon="-7.423486">
        <ele>485.866</ele>
        <time>1999-07-25T16:06:22Z</time>
      </trkpt>
      <trkpt lat="43.020203" lon="-7.423547">
        <ele>485.229</ele>
        <time>1999-07-25T16:06:24Z</time>
      </trkpt>
      <trkpt lat="43.019963" lon="-7.423628">
        <ele>484.621</ele>
        <time>1999-07-25T16:06:27Z</time>
      </trkpt>
      <trkpt lat="43.019737" lon="-7.423734">
        <ele>483.408</ele>
        <time>1999-07-25T16:06:30Z</time>
      </trkpt>
      <trkpt lat="43.019673" lon="-7.423796">
        <ele>483.079</ele>
        <time>1999-07-25T16:06:31Z</time>
      </trkpt>
      <trkpt lat="43.019617" lon="-7.423875">
        <ele>482.425</ele>
        <time>1999-07-25T16:06:32Z</time>
      </trkpt>
      <trkpt lat="43.019500" lon="-7.424172">
        <ele>482.026</ele>
        <time>1999-07-25T16:06:35Z</time>
      </trkpt>
      <trkpt lat="43.019527" lon="-7.424408">
        <ele>481.481</ele>
        <time>1999-07-25T16:06:37Z</time>
      </trkpt>
      <trkpt lat="43.019636" lon="-7.424852">
        <ele>480.421</ele>
        <time>1999-07-25T16:06:41Z</time>
      </trkpt>
      <trkpt lat="43.019631" lon="-7.424968">
        <ele>479.838</ele>
        <time>1999-07-25T16:06:42Z</time>
      </trkpt>
      <trkpt lat="43.019577" lon="-7.425299">
        <ele>478.815</ele>
        <time>1999-07-25T16:06:45Z</time>
      </trkpt>
      <trkpt lat="43.019440" lon="-7.425778">
        <ele>477.863</ele>
        <time>1999-07-25T16:06:50Z</time>
      </trkpt>
      <trkpt lat="43.019399" lon="-7.425852">
        <ele>477.658</ele>
        <time>1999-07-25T16:06:51Z</time>
      </trkpt>
      <trkpt lat="43.019187" lon="-7.426168">
        <ele>477.652</ele>
        <time>1999-07-25T16:06:56Z</time>
      </trkpt>
      <trkpt lat="43.019157" lon="-7.426231">
        <ele>477.617</ele>
        <time>1999-07-25T16:06:57Z</time>
      </trkpt>
      <trkpt lat="43.019111" lon="-7.426397">
        <ele>477.608</ele>
        <time>1999-07-25T16:07:00Z</time>
      </trkpt>
      <trkpt lat="43.019109" lon="-7.426570">
        <ele>478.228</ele>
        <time>1999-07-25T16:07:04Z</time>
      </trkpt>
      <trkpt lat="43.019112" lon="-7.426643">
        <ele>478.694</ele>
        <time>1999-07-25T16:07:06Z</time>
      </trkpt>
      <trkpt lat="43.019117" lon="-7.426677">
        <ele>479.055</ele>
        <time>1999-07-25T16:07:07Z</time>
      </trkpt>
      <trkpt lat="43.019133" lon="-7.426737">
        <ele>480.250</ele>
        <time>1999-07-25T16:07:09Z</time>
      </trkpt>
      <trkpt lat="43.019148" lon="-7.426827">
        <ele>481.470</ele>
        <time>1999-07-25T16:07:12Z</time>
      </trkpt>
      <trkpt lat="43.019157" lon="-7.426911">
        <ele>482.497</ele>
        <time>1999-07-25T16:07:15Z</time>
      </trkpt>
      <trkpt lat="43.019183" lon="-7.426955">
        <ele>482.834</ele>
        <time>1999-07-25T16:07:17Z</time>
      </trkpt>
      <trkpt lat="43.019203" lon="-7.427005">
        <ele>483.482</ele>
        <time>1999-07-25T16:07:19Z</time>
      </trkpt>
      <trkpt lat="43.019218" lon="-7.427118">
        <ele>484.299</ele>
        <time>1999-07-25T16:07:23Z</time>
      </trkpt>
      <trkpt lat="43.019230" lon="-7.427142">
        <ele>484.607</ele>
        <time>1999-07-25T16:07:24Z</time>
      </trkpt>
      <trkpt lat="43.019274" lon="-7.427245">
        <ele>485.427</ele>
        <time>1999-07-25T16:07:28Z</time>
      </trkpt>
      <trkpt lat="43.019280" lon="-7.427271">
        <ele>485.608</ele>
        <time>1999-07-25T16:07:29Z</time>
      </trkpt>
      <trkpt lat="43.019301" lon="-7.427372">
        <ele>486.892</ele>
        <time>1999-07-25T16:07:33Z</time>
      </trkpt>
      <trkpt lat="43.019306" lon="-7.427396">
        <ele>487.098</ele>
        <time>1999-07-25T16:07:34Z</time>
      </trkpt>
      <trkpt lat="43.019325" lon="-7.427470">
        <ele>488.099</ele>
        <time>1999-07-25T16:07:37Z</time>
      </trkpt>
      <trkpt lat="43.019326" lon="-7.427548">
        <ele>489.074</ele>
        <time>1999-07-25T16:07:40Z</time>
      </trkpt>
      <trkpt lat="43.019339" lon="-7.427688">
        <ele>490.484</ele>
        <time>1999-07-25T16:07:45Z</time>
      </trkpt>
      <trkpt lat="43.019336" lon="-7.427802">
        <ele>491.291</ele>
        <time>1999-07-25T16:07:49Z</time>
      </trkpt>
      <trkpt lat="43.019335" lon="-7.427830">
        <ele>491.448</ele>
        <time>1999-07-25T16:07:50Z</time>
      </trkpt>
      <trkpt lat="43.019311" lon="-7.427973">
        <ele>492.456</ele>
        <time>1999-07-25T16:07:55Z</time>
      </trkpt>
      <trkpt lat="43.019308" lon="-7.428003">
        <ele>492.638</ele>
        <time>1999-07-25T16:07:56Z</time>
      </trkpt>
      <trkpt lat="43.019301" lon="-7.428166">
        <ele>493.670</ele>
        <time>1999-07-25T16:08:02Z</time>
      </trkpt>
      <trkpt lat="43.019296" lon="-7.428198">
        <ele>493.817</ele>
        <time>1999-07-25T16:08:03Z</time>
      </trkpt>
      <trkpt lat="43.019267" lon="-7.428439">
        <ele>494.608</ele>
        <time>1999-07-25T16:08:10Z</time>
      </trkpt>
      <trkpt lat="43.019253" lon="-7.428515">
        <ele>495.086</ele>
        <time>1999-07-25T16:08:12Z</time>
      </trkpt>
      <trkpt lat="43.019244" lon="-7.428590">
        <ele>495.852</ele>
        <time>1999-07-25T16:08:14Z</time>
      </trkpt>
      <trkpt lat="43.019220" lon="-7.428800">
        <ele>496.283</ele>
        <time>1999-07-25T16:08:19Z</time>
      </trkpt>
      <trkpt lat="43.019163" lon="-7.429050">
        <ele>496.848</ele>
        <time>1999-07-25T16:08:25Z</time>
      </trkpt>
      <trkpt lat="43.019125" lon="-7.429166">
        <ele>497.258</ele>
        <time>1999-07-25T16:08:28Z</time>
      </trkpt>
      <trkpt lat="43.019041" lon="-7.429393">
        <ele>498.035</ele>
        <time>1999-07-25T16:08:34Z</time>
      </trkpt>
      <trkpt lat="43.019014" lon="-7.429467">
        <ele>498.292</ele>
        <time>1999-07-25T16:08:36Z</time>
      </trkpt>
      <trkpt lat="43.018918" lon="-7.429693">
        <ele>498.850</ele>
        <time>1999-07-25T16:08:42Z</time>
      </trkpt>
      <trkpt lat="43.018870" lon="-7.429805">
        <ele>499.257</ele>
        <time>1999-07-25T16:08:45Z</time>
      </trkpt>
      <trkpt lat="43.018799" lon="-7.429988">
        <ele>499.800</ele>
        <time>1999-07-25T16:08:50Z</time>
      </trkpt>
      <trkpt lat="43.018678" lon="-7.430301">
        <ele>500.220</ele>
        <time>1999-07-25T16:08:58Z</time>
      </trkpt>
      <trkpt lat="43.018660" lon="-7.430341">
        <ele>500.408</ele>
        <time>1999-07-25T16:08:59Z</time>
      </trkpt>
      <trkpt lat="43.018578" lon="-7.430597">
        <ele>501.418</ele>
        <time>1999-07-25T16:09:05Z</time>
      </trkpt>
      <trkpt lat="43.018525" lon="-7.430771">
        <ele>502.254</ele>
        <time>1999-07-25T16:09:09Z</time>
      </trkpt>
      <trkpt lat="43.018513" lon="-7.430812">
        <ele>502.475</ele>
        <time>1999-07-25T16:09:10Z</time>
      </trkpt>
      <trkpt lat="43.018494" lon="-7.430886">
        <ele>502.690</ele>
        <time>1999-07-25T16:09:12Z</time>
      </trkpt>
      <trkpt lat="43.018464" lon="-7.430997">
        <ele>503.430</ele>
        <time>1999-07-25T16:09:15Z</time>
      </trkpt>
      <trkpt lat="43.018438" lon="-7.431069">
        <ele>503.857</ele>
        <time>1999-07-25T16:09:17Z</time>
      </trkpt>
      <trkpt lat="43.018386" lon="-7.431244">
        <ele>504.814</ele>
        <time>1999-07-25T16:09:22Z</time>
      </trkpt>
      <trkpt lat="43.018375" lon="-7.431276">
        <ele>505.012</ele>
        <time>1999-07-25T16:09:23Z</time>
      </trkpt>
      <trkpt lat="43.018333" lon="-7.431410">
        <ele>505.855</ele>
        <time>1999-07-25T16:09:27Z</time>
      </trkpt>
      <trkpt lat="43.018315" lon="-7.431474">
        <ele>506.207</ele>
        <time>1999-07-25T16:09:29Z</time>
      </trkpt>
      <trkpt lat="43.018281" lon="-7.431562">
        <ele>507.017</ele>
        <time>1999-07-25T16:09:32Z</time>
      </trkpt>
      <trkpt lat="43.018251" lon="-7.431639">
        <ele>507.808</ele>
        <time>1999-07-25T16:09:35Z</time>
      </trkpt>
      <trkpt lat="43.018239" lon="-7.431668">
        <ele>508.478</ele>
        <time>1999-07-25T16:09:36Z</time>
      </trkpt>
      <trkpt lat="43.018194" lon="-7.431789">
        <ele>509.694</ele>
        <time>1999-07-25T16:09:40Z</time>
      </trkpt>
      <trkpt lat="43.018183" lon="-7.431816">
        <ele>510.075</ele>
        <time>1999-07-25T16:09:41Z</time>
      </trkpt>
      <trkpt lat="43.018165" lon="-7.431906">
        <ele>510.850</ele>
        <time>1999-07-25T16:09:44Z</time>
      </trkpt>
      <trkpt lat="43.018153" lon="-7.431987">
        <ele>511.820</ele>
        <time>1999-07-25T16:09:47Z</time>
      </trkpt>
      <trkpt lat="43.018147" lon="-7.432019">
        <ele>512.067</ele>
        <time>1999-07-25T16:09:48Z</time>
      </trkpt>
      <trkpt lat="43.018107" lon="-7.432172">
        <ele>513.294</ele>
        <time>1999-07-25T16:09:53Z</time>
      </trkpt>
      <trkpt lat="43.018085" lon="-7.432237">
        <ele>513.632</ele>
        <time>1999-07-25T16:09:55Z</time>
      </trkpt>
      <trkpt lat="43.018053" lon="-7.432342">
        <ele>514.452</ele>
        <time>1999-07-25T16:09:58Z</time>
      </trkpt>
      <trkpt lat="43.018016" lon="-7.432473">
        <ele>515.453</ele>
        <time>1999-07-25T16:10:02Z</time>
      </trkpt>
      <trkpt lat="43.018000" lon="-7.432537">
        <ele>516.008</ele>
        <time>1999-07-25T16:10:04Z</time>
      </trkpt>
      <trkpt lat="43.017990" lon="-7.432570">
        <ele>516.608</ele>
        <time>1999-07-25T16:10:05Z</time>
      </trkpt>
      <trkpt lat="43.017946" lon="-7.432702">
        <ele>517.868</ele>
        <time>1999-07-25T16:10:09Z</time>
      </trkpt>
      <trkpt lat="43.017927" lon="-7.432762">
        <ele>518.274</ele>
        <time>1999-07-25T16:10:11Z</time>
      </trkpt>
      <trkpt lat="43.017907" lon="-7.432834">
        <ele>518.625</ele>
        <time>1999-07-25T16:10:13Z</time>
      </trkpt>
      <trkpt lat="43.017840" lon="-7.433117">
        <ele>519.880</ele>
        <time>1999-07-25T16:10:21Z</time>
      </trkpt>
      <trkpt lat="43.017831" lon="-7.433153">
        <ele>520.060</ele>
        <time>1999-07-25T16:10:22Z</time>
      </trkpt>
      <trkpt lat="43.017776" lon="-7.433335">
        <ele>521.037</ele>
        <time>1999-07-25T16:10:27Z</time>
      </trkpt>
      <trkpt lat="43.017738" lon="-7.433478">
        <ele>521.884</ele>
        <time>1999-07-25T16:10:31Z</time>
      </trkpt>
      <trkpt lat="43.017730" lon="-7.433514">
        <ele>522.282</ele>
        <time>1999-07-25T16:10:32Z</time>
      </trkpt>
      <trkpt lat="43.017682" lon="-7.433655">
        <ele>523.452</ele>
        <time>1999-07-25T16:10:36Z</time>
      </trkpt>
      <trkpt lat="43.017633" lon="-7.433751">
        <ele>524.253</ele>
        <time>1999-07-25T16:10:39Z</time>
      </trkpt>
      <trkpt lat="43.017606" lon="-7.433815">
        <ele>524.608</ele>
        <time>1999-07-25T16:10:41Z</time>
      </trkpt>
      <trkpt lat="43.017576" lon="-7.433944">
        <ele>525.608</ele>
        <time>1999-07-25T16:10:45Z</time>
      </trkpt>
      <trkpt lat="43.017563" lon="-7.434005">
        <ele>526.268</ele>
        <time>1999-07-25T16:10:47Z</time>
      </trkpt>
      <trkpt lat="43.017547" lon="-7.434066">
        <ele>526.654</ele>
        <time>1999-07-25T16:10:49Z</time>
      </trkpt>
      <trkpt lat="43.017508" lon="-7.434232">
        <ele>527.825</ele>
        <time>1999-07-25T16:10:54Z</time>
      </trkpt>
      <trkpt lat="43.017501" lon="-7.434301">
        <ele>528.450</ele>
        <time>1999-07-25T16:10:56Z</time>
      </trkpt>
      <trkpt lat="43.017518" lon="-7.434408">
        <ele>529.010</ele>
        <time>1999-07-25T16:10:59Z</time>
      </trkpt>
      <trkpt lat="43.017542" lon="-7.434512">
        <ele>529.857</ele>
        <time>1999-07-25T16:11:02Z</time>
      </trkpt>
      <trkpt lat="43.017549" lon="-7.434546">
        <ele>530.244</ele>
        <time>1999-07-25T16:11:03Z</time>
      </trkpt>
      <trkpt lat="43.017590" lon="-7.434730">
        <ele>531.242</ele>
        <time>1999-07-25T16:11:09Z</time>
      </trkpt>
      <trkpt lat="43.017607" lon="-7.434786">
        <ele>531.472</ele>
        <time>1999-07-25T16:11:11Z</time>
      </trkpt>
      <trkpt lat="43.017642" lon="-7.434932">
        <ele>532.213</ele>
        <time>1999-07-25T16:11:16Z</time>
      </trkpt>
      <trkpt lat="43.017652" lon="-7.434986">
        <ele>532.614</ele>
        <time>1999-07-25T16:11:18Z</time>
      </trkpt>
      <trkpt lat="43.017678" lon="-7.435099">
        <ele>533.408</ele>
        <time>1999-07-25T16:11:22Z</time>
      </trkpt>
      <trkpt lat="43.017694" lon="-7.435190">
        <ele>534.280</ele>
        <time>1999-07-25T16:11:25Z</time>
      </trkpt>
      <trkpt lat="43.017707" lon="-7.435250">
        <ele>534.866</ele>
        <time>1999-07-25T16:11:27Z</time>
      </trkpt>
      <trkpt lat="43.017720" lon="-7.435381">
        <ele>535.437</ele>
        <time>1999-07-25T16:11:32Z</time>
      </trkpt>
      <trkpt lat="43.017718" lon="-7.435402">
        <ele>535.822</ele>
        <time>1999-07-25T16:11:33Z</time>
      </trkpt>
      <trkpt lat="43.017703" lon="-7.435548">
        <ele>536.832</ele>
        <time>1999-07-25T16:11:39Z</time>
      </trkpt>
      <trkpt lat="43.017651" lon="-7.435779">
        <ele>538.049</ele>
        <time>1999-07-25T16:11:46Z</time>
      </trkpt>
      <trkpt lat="43.017616" lon="-7.436030">
        <ele>539.086</ele>
        <time>1999-07-25T16:11:52Z</time>
      </trkpt>
      <trkpt lat="43.017608" lon="-7.436078">
        <ele>539.214</ele>
        <time>1999-07-25T16:11:53Z</time>
      </trkpt>
      <trkpt lat="43.017578" lon="-7.436339">
        <ele>540.293</ele>
        <time>1999-07-25T16:11:59Z</time>
      </trkpt>
      <trkpt lat="43.017561" lon="-7.436560">
        <ele>541.265</ele>
        <time>1999-07-25T16:12:04Z</time>
      </trkpt>
      <trkpt lat="43.017561" lon="-7.436602">
        <ele>541.421</ele>
        <time>1999-07-25T16:12:05Z</time>
      </trkpt>
      <trkpt lat="43.017556" lon="-7.436852">
        <ele>542.208</ele>
        <time>1999-07-25T16:12:11Z</time>
      </trkpt>
      <trkpt lat="43.017549" lon="-7.436896">
        <ele>542.462</ele>
        <time>1999-07-25T16:12:12Z</time>
      </trkpt>
      <trkpt lat="43.017545" lon="-7.437158">
        <ele>543.498</ele>
        <time>1999-07-25T16:12:18Z</time>
      </trkpt>
      <trkpt lat="43.017492" lon="-7.437525">
        <ele>544.669</ele>
        <time>1999-07-25T16:12:26Z</time>
      </trkpt>
      <trkpt lat="43.017453" lon="-7.437771">
        <ele>545.864</ele>
        <time>1999-07-25T16:12:31Z</time>
      </trkpt>
      <trkpt lat="43.017444" lon="-7.437866">
        <ele>546.274</ele>
        <time>1999-07-25T16:12:33Z</time>
      </trkpt>
      <trkpt lat="43.017445" lon="-7.438005">
        <ele>547.061</ele>
        <time>1999-07-25T16:12:36Z</time>
      </trkpt>
      <trkpt lat="43.017447" lon="-7.438112">
        <ele>547.418</ele>
        <time>1999-07-25T16:12:38Z</time>
      </trkpt>
      <trkpt lat="43.017449" lon="-7.438275">
        <ele>548.086</ele>
        <time>1999-07-25T16:12:41Z</time>
      </trkpt>
      <trkpt lat="43.017472" lon="-7.438636">
        <ele>549.262</ele>
        <time>1999-07-25T16:12:48Z</time>
      </trkpt>
      <trkpt lat="43.017479" lon="-7.438685">
        <ele>549.483</ele>
        <time>1999-07-25T16:12:49Z</time>
      </trkpt>
      <trkpt lat="43.017491" lon="-7.438828">
        <ele>549.811</ele>
        <time>1999-07-25T16:12:52Z</time>
      </trkpt>
      <trkpt lat="43.017495" lon="-7.438918">
        <ele>550.008</ele>
        <time>1999-07-25T16:12:54Z</time>
      </trkpt>
      <trkpt lat="43.017502" lon="-7.439036">
        <ele>550.259</ele>
        <time>1999-07-25T16:12:57Z</time>
      </trkpt>
      <trkpt lat="43.017504" lon="-7.439137">
        <ele>550.695</ele>
        <time>1999-07-25T16:13:00Z</time>
      </trkpt>
      <trkpt lat="43.017501" lon="-7.439346">
        <ele>550.666</ele>
        <time>1999-07-25T16:13:05Z</time>
      </trkpt>
      <trkpt lat="43.017496" lon="-7.439594">
        <ele>550.651</ele>
        <time>1999-07-25T16:13:09Z</time>
      </trkpt>
      <trkpt lat="43.017493" lon="-7.439668">
        <ele>550.451</ele>
        <time>1999-07-25T16:13:10Z</time>
      </trkpt>
      <trkpt lat="43.017484" lon="-7.439920">
        <ele>549.818</ele>
        <time>1999-07-25T16:13:13Z</time>
      </trkpt>
      <trkpt lat="43.017472" lon="-7.440201">
        <ele>549.475</ele>
        <time>1999-07-25T16:13:16Z</time>
      </trkpt>
      <trkpt lat="43.017466" lon="-7.440404">
        <ele>548.813</ele>
        <time>1999-07-25T16:13:18Z</time>
      </trkpt>
      <trkpt lat="43.017455" lon="-7.440614">
        <ele>548.284</ele>
        <time>1999-07-25T16:13:20Z</time>
      </trkpt>
      <trkpt lat="43.017446" lon="-7.440719">
        <ele>548.007</ele>
        <time>1999-07-25T16:13:21Z</time>
      </trkpt>
      <trkpt lat="43.017432" lon="-7.440824">
        <ele>548.017</ele>
        <time>1999-07-25T16:13:22Z</time>
      </trkpt>
      <trkpt lat="43.017392" lon="-7.441029">
        <ele>547.608</ele>
        <time>1999-07-25T16:13:24Z</time>
      </trkpt>
      <trkpt lat="43.017327" lon="-7.441226">
        <ele>547.261</ele>
        <time>1999-07-25T16:13:26Z</time>
      </trkpt>
      <trkpt lat="43.017293" lon="-7.441320">
        <ele>547.047</ele>
        <time>1999-07-25T16:13:27Z</time>
      </trkpt>
      <trkpt lat="43.017187" lon="-7.441639">
        <ele>546.258</ele>
        <time>1999-07-25T16:13:30Z</time>
      </trkpt>
      <trkpt lat="43.017155" lon="-7.441755">
        <ele>545.453</ele>
        <time>1999-07-25T16:13:31Z</time>
      </trkpt>
      <trkpt lat="43.017128" lon="-7.441872">
        <ele>545.083</ele>
        <time>1999-07-25T16:13:32Z</time>
      </trkpt>
      <trkpt lat="43.017078" lon="-7.442235">
        <ele>544.280</ele>
        <time>1999-07-25T16:13:35Z</time>
      </trkpt>
      <trkpt lat="43.017061" lon="-7.442471">
        <ele>542.897</ele>
        <time>1999-07-25T16:13:37Z</time>
      </trkpt>
      <trkpt lat="43.017060" lon="-7.442694">
        <ele>541.865</ele>
        <time>1999-07-25T16:13:39Z</time>
      </trkpt>
      <trkpt lat="43.017062" lon="-7.442903">
        <ele>540.468</ele>
        <time>1999-07-25T16:13:41Z</time>
      </trkpt>
      <trkpt lat="43.017069" lon="-7.443010">
        <ele>539.042</ele>
        <time>1999-07-25T16:13:42Z</time>
      </trkpt>
      <trkpt lat="43.017081" lon="-7.443122">
        <ele>537.626</ele>
        <time>1999-07-25T16:13:43Z</time>
      </trkpt>
      <trkpt lat="43.017101" lon="-7.443233">
        <ele>535.808</ele>
        <time>1999-07-25T16:13:44Z</time>
      </trkpt>
      <trkpt lat="43.017117" lon="-7.443339">
        <ele>534.259</ele>
        <time>1999-07-25T16:13:45Z</time>
      </trkpt>
      <trkpt lat="43.017125" lon="-7.443445">
        <ele>533.045</ele>
        <time>1999-07-25T16:13:46Z</time>
      </trkpt>
      <trkpt lat="43.017126" lon="-7.443549">
        <ele>531.436</ele>
        <time>1999-07-25T16:13:47Z</time>
      </trkpt>
      <trkpt lat="43.017123" lon="-7.443644">
        <ele>530.061</ele>
        <time>1999-07-25T16:13:48Z</time>
      </trkpt>
      <trkpt lat="43.017116" lon="-7.443732">
        <ele>528.671</ele>
        <time>1999-07-25T16:13:49Z</time>
      </trkpt>
      <trkpt lat="43.017105" lon="-7.443806">
        <ele>526.858</ele>
        <time>1999-07-25T16:13:50Z</time>
      </trkpt>
      <trkpt lat="43.017085" lon="-7.443876">
        <ele>525.235</ele>
        <time>1999-07-25T16:13:51Z</time>
      </trkpt>
      <trkpt lat="43.017063" lon="-7.443954">
        <ele>523.443</ele>
        <time>1999-07-25T16:13:52Z</time>
      </trkpt>
      <trkpt lat="43.017052" lon="-7.444039">
        <ele>521.626</ele>
        <time>1999-07-25T16:13:53Z</time>
      </trkpt>
      <trkpt lat="43.017047" lon="-7.444131">
        <ele>519.847</ele>
        <time>1999-07-25T16:13:54Z</time>
      </trkpt>
      <trkpt lat="43.017036" lon="-7.444223">
        <ele>518.011</ele>
        <time>1999-07-25T16:13:55Z</time>
      </trkpt>
      <trkpt lat="43.017027" lon="-7.444319">
        <ele>516.608</ele>
        <time>1999-07-25T16:13:56Z</time>
      </trkpt>
      <trkpt lat="43.016998" lon="-7.444528">
        <ele>515.025</ele>
        <time>1999-07-25T16:13:58Z</time>
      </trkpt>
      <trkpt lat="43.016979" lon="-7.444643">
        <ele>514.251</ele>
        <time>1999-07-25T16:13:59Z</time>
      </trkpt>
      <trkpt lat="43.016970" lon="-7.444748">
        <ele>513.472</ele>
        <time>1999-07-25T16:14:00Z</time>
      </trkpt>
      <trkpt lat="43.016971" lon="-7.445061">
        <ele>512.057</ele>
        <time>1999-07-25T16:14:03Z</time>
      </trkpt>
      <trkpt lat="43.016978" lon="-7.445175">
        <ele>511.857</ele>
        <time>1999-07-25T16:14:04Z</time>
      </trkpt>
      <trkpt lat="43.016992" lon="-7.445491">
        <ele>510.874</ele>
        <time>1999-07-25T16:14:07Z</time>
      </trkpt>
      <trkpt lat="43.016988" lon="-7.445600">
        <ele>510.861</ele>
        <time>1999-07-25T16:14:08Z</time>
      </trkpt>
      <trkpt lat="43.016975" lon="-7.445707">
        <ele>510.629</ele>
        <time>1999-07-25T16:14:09Z</time>
      </trkpt>
      <trkpt lat="43.016925" lon="-7.446004">
        <ele>509.865</ele>
        <time>1999-07-25T16:14:12Z</time>
      </trkpt>
      <trkpt lat="43.016888" lon="-7.446174">
        <ele>509.468</ele>
        <time>1999-07-25T16:14:14Z</time>
      </trkpt>
      <trkpt lat="43.016898" lon="-7.446236">
        <ele>509.614</ele>
        <time>1999-07-25T16:14:15Z</time>
      </trkpt>
      <trkpt lat="43.016953" lon="-7.446461">
        <ele>509.008</ele>
        <time>1999-07-25T16:14:19Z</time>
      </trkpt>
      <trkpt lat="43.016950" lon="-7.446538">
        <ele>508.879</ele>
        <time>1999-07-25T16:14:20Z</time>
      </trkpt>
      <trkpt lat="43.016953" lon="-7.446774">
        <ele>508.425</ele>
        <time>1999-07-25T16:14:23Z</time>
      </trkpt>
      <trkpt lat="43.016943" lon="-7.446931">
        <ele>507.876</ele>
        <time>1999-07-25T16:14:25Z</time>
      </trkpt>
      <trkpt lat="43.016842" lon="-7.447193">
        <ele>507.471</ele>
        <time>1999-07-25T16:14:29Z</time>
      </trkpt>
      <trkpt lat="43.016753" lon="-7.447260">
        <ele>507.011</ele>
        <time>1999-07-25T16:14:31Z</time>
      </trkpt>
      <trkpt lat="43.016662" lon="-7.447339">
        <ele>506.858</ele>
        <time>1999-07-25T16:14:33Z</time>
      </trkpt>
      <trkpt lat="43.016615" lon="-7.447397">
        <ele>506.695</ele>
        <time>1999-07-25T16:14:34Z</time>
      </trkpt>
      <trkpt lat="43.016490" lon="-7.447657">
        <ele>506.493</ele>
        <time>1999-07-25T16:14:37Z</time>
      </trkpt>
      <trkpt lat="43.016407" lon="-7.448136">
        <ele>506.053</ele>
        <time>1999-07-25T16:14:41Z</time>
      </trkpt>
      <trkpt lat="43.016416" lon="-7.448411">
        <ele>505.404</ele>
        <time>1999-07-25T16:14:43Z</time>
      </trkpt>
      <trkpt lat="43.016435" lon="-7.448549">
        <ele>505.014</ele>
        <time>1999-07-25T16:14:44Z</time>
      </trkpt>
      <trkpt lat="43.016460" lon="-7.448681">
        <ele>504.608</ele>
        <time>1999-07-25T16:14:45Z</time>
      </trkpt>
      <trkpt lat="43.016487" lon="-7.448807">
        <ele>504.228</ele>
        <time>1999-07-25T16:14:46Z</time>
      </trkpt>
      <trkpt lat="43.016539" lon="-7.449040">
        <ele>502.854</ele>
        <time>1999-07-25T16:14:48Z</time>
      </trkpt>
      <trkpt lat="43.016557" lon="-7.449147">
        <ele>502.095</ele>
        <time>1999-07-25T16:14:49Z</time>
      </trkpt>
      <trkpt lat="43.016573" lon="-7.449249">
        <ele>501.420</ele>
        <time>1999-07-25T16:14:50Z</time>
      </trkpt>
      <trkpt lat="43.016615" lon="-7.449423">
        <ele>500.010</ele>
        <time>1999-07-25T16:14:52Z</time>
      </trkpt>
      <trkpt lat="43.016657" lon="-7.449582">
        <ele>499.617</ele>
        <time>1999-07-25T16:14:54Z</time>
      </trkpt>
      <trkpt lat="43.016718" lon="-7.449809">
        <ele>499.294</ele>
        <time>1999-07-25T16:14:57Z</time>
      </trkpt>
      <trkpt lat="43.016819" lon="-7.450152">
        <ele>499.272</ele>
        <time>1999-07-25T16:15:02Z</time>
      </trkpt>
      <trkpt lat="43.016950" lon="-7.450522">
        <ele>499.841</ele>
        <time>1999-07-25T16:15:08Z</time>
      </trkpt>
      <trkpt lat="43.016996" lon="-7.450795">
        <ele>500.281</ele>
        <time>1999-07-25T16:15:13Z</time>
      </trkpt>
      <trkpt lat="43.016999" lon="-7.450845">
        <ele>500.409</ele>
        <time>1999-07-25T16:15:14Z</time>
      </trkpt>
      <trkpt lat="43.017015" lon="-7.451118">
        <ele>500.808</ele>
        <time>1999-07-25T16:15:20Z</time>
      </trkpt>
      <trkpt lat="43.017033" lon="-7.451376">
        <ele>501.677</ele>
        <time>1999-07-25T16:15:25Z</time>
      </trkpt>
      <trkpt lat="43.017118" lon="-7.451614">
        <ele>502.413</ele>
        <time>1999-07-25T16:15:30Z</time>
      </trkpt>
      <trkpt lat="43.017147" lon="-7.451651">
        <ele>502.654</ele>
        <time>1999-07-25T16:15:31Z</time>
      </trkpt>
      <trkpt lat="43.017308" lon="-7.451850">
        <ele>503.479</ele>
        <time>1999-07-25T16:15:37Z</time>
      </trkpt>
      <trkpt lat="43.017329" lon="-7.451889">
        <ele>503.669</ele>
        <time>1999-07-25T16:15:38Z</time>
      </trkpt>
      <trkpt lat="43.017381" lon="-7.452032">
        <ele>503.886</ele>
        <time>1999-07-25T16:15:41Z</time>
      </trkpt>
      <trkpt lat="43.017428" lon="-7.452166">
        <ele>504.233</ele>
        <time>1999-07-25T16:15:44Z</time>
      </trkpt>
      <trkpt lat="43.017527" lon="-7.452402">
        <ele>505.061</ele>
        <time>1999-07-25T16:15:49Z</time>
      </trkpt>
      <trkpt lat="43.017551" lon="-7.452447">
        <ele>505.277</ele>
        <time>1999-07-25T16:15:50Z</time>
      </trkpt>
      <trkpt lat="43.017663" lon="-7.452695">
        <ele>505.661</ele>
        <time>1999-07-25T16:15:56Z</time>
      </trkpt>
      <trkpt lat="43.017777" lon="-7.452872">
        <ele>506.227</ele>
        <time>1999-07-25T16:16:01Z</time>
      </trkpt>
      <trkpt lat="43.017927" lon="-7.453103">
        <ele>507.208</ele>
        <time>1999-07-25T16:16:07Z</time>
      </trkpt>
      <trkpt lat="43.017976" lon="-7.453156">
        <ele>507.240</ele>
        <time>1999-07-25T16:16:09Z</time>
      </trkpt>
      <trkpt lat="43.018079" lon="-7.453240">
        <ele>507.876</ele>
        <time>1999-07-25T16:16:13Z</time>
      </trkpt>
      <trkpt lat="43.018132" lon="-7.453285">
        <ele>508.077</ele>
        <time>1999-07-25T16:16:15Z</time>
      </trkpt>
      <trkpt lat="43.018198" lon="-7.453376">
        <ele>508.442</ele>
        <time>1999-07-25T16:16:18Z</time>
      </trkpt>
      <trkpt lat="43.018215" lon="-7.453412">
        <ele>508.872</ele>
        <time>1999-07-25T16:16:19Z</time>
      </trkpt>
      <trkpt lat="43.018258" lon="-7.453505">
        <ele>509.429</ele>
        <time>1999-07-25T16:16:22Z</time>
      </trkpt>
      <trkpt lat="43.018284" lon="-7.453605">
        <ele>510.426</ele>
        <time>1999-07-25T16:16:25Z</time>
      </trkpt>
      <trkpt lat="43.018287" lon="-7.453641">
        <ele>510.654</ele>
        <time>1999-07-25T16:16:26Z</time>
      </trkpt>
      <trkpt lat="43.018280" lon="-7.453790">
        <ele>511.835</ele>
        <time>1999-07-25T16:16:30Z</time>
      </trkpt>
      <trkpt lat="43.018274" lon="-7.453864">
        <ele>512.486</ele>
        <time>1999-07-25T16:16:32Z</time>
      </trkpt>
      <trkpt lat="43.018269" lon="-7.453981">
        <ele>513.214</ele>
        <time>1999-07-25T16:16:35Z</time>
      </trkpt>
      <trkpt lat="43.018249" lon="-7.454138">
        <ele>513.608</ele>
        <time>1999-07-25T16:16:39Z</time>
      </trkpt>
      <trkpt lat="43.018208" lon="-7.454255">
        <ele>514.246</ele>
        <time>1999-07-25T16:16:42Z</time>
      </trkpt>
      <trkpt lat="43.018134" lon="-7.454415">
        <ele>515.062</ele>
        <time>1999-07-25T16:16:46Z</time>
      </trkpt>
      <trkpt lat="43.018113" lon="-7.454454">
        <ele>515.253</ele>
        <time>1999-07-25T16:16:47Z</time>
      </trkpt>
      <trkpt lat="43.017983" lon="-7.454713">
        <ele>515.638</ele>
        <time>1999-07-25T16:16:53Z</time>
      </trkpt>
      <trkpt lat="43.017958" lon="-7.454761">
        <ele>515.678</ele>
        <time>1999-07-25T16:16:54Z</time>
      </trkpt>
      <trkpt lat="43.017863" lon="-7.454932">
        <ele>516.295</ele>
        <time>1999-07-25T16:16:58Z</time>
      </trkpt>
      <trkpt lat="43.017771" lon="-7.455083">
        <ele>516.212</ele>
        <time>1999-07-25T16:17:01Z</time>
      </trkpt>
      <trkpt lat="43.017698" lon="-7.455211">
        <ele>516.240</ele>
        <time>1999-07-25T16:17:03Z</time>
      </trkpt>
      <trkpt lat="43.017636" lon="-7.455348">
        <ele>516.066</ele>
        <time>1999-07-25T16:17:05Z</time>
      </trkpt>
      <trkpt lat="43.017617" lon="-7.455422">
        <ele>516.029</ele>
        <time>1999-07-25T16:17:06Z</time>
      </trkpt>
      <trkpt lat="43.017602" lon="-7.455724">
        <ele>515.221</ele>
        <time>1999-07-25T16:17:10Z</time>
      </trkpt>
      <trkpt lat="43.017619" lon="-7.455798">
        <ele>515.008</ele>
        <time>1999-07-25T16:17:11Z</time>
      </trkpt>
      <trkpt lat="43.017652" lon="-7.455942">
        <ele>514.489</ele>
        <time>1999-07-25T16:17:13Z</time>
      </trkpt>
      <trkpt lat="43.017690" lon="-7.456174">
        <ele>513.285</ele>
        <time>1999-07-25T16:17:16Z</time>
      </trkpt>
      <trkpt lat="43.017727" lon="-7.456336">
        <ele>512.226</ele>
        <time>1999-07-25T16:17:18Z</time>
      </trkpt>
      <trkpt lat="43.017848" lon="-7.456740">
        <ele>511.441</ele>
        <time>1999-07-25T16:17:23Z</time>
      </trkpt>
      <trkpt lat="43.017894" lon="-7.456887">
        <ele>511.041</ele>
        <time>1999-07-25T16:17:25Z</time>
      </trkpt>
      <trkpt lat="43.017971" lon="-7.457150">
        <ele>511.098</ele>
        <time>1999-07-25T16:17:29Z</time>
      </trkpt>
      <trkpt lat="43.018012" lon="-7.457315">
        <ele>511.055</ele>
        <time>1999-07-25T16:17:32Z</time>
      </trkpt>
      <trkpt lat="43.018059" lon="-7.457451">
        <ele>511.043</ele>
        <time>1999-07-25T16:17:35Z</time>
      </trkpt>
      <trkpt lat="43.018173" lon="-7.457719">
        <ele>511.635</ele>
        <time>1999-07-25T16:17:42Z</time>
      </trkpt>
      <trkpt lat="43.018238" lon="-7.457857">
        <ele>512.086</ele>
        <time>1999-07-25T16:17:46Z</time>
      </trkpt>
      <trkpt lat="43.018252" lon="-7.457896">
        <ele>512.014</ele>
        <time>1999-07-25T16:17:47Z</time>
      </trkpt>
      <trkpt lat="43.018274" lon="-7.457966">
        <ele>512.408</ele>
        <time>1999-07-25T16:17:49Z</time>
      </trkpt>
      <trkpt lat="43.018295" lon="-7.458124">
        <ele>513.256</ele>
        <time>1999-07-25T16:17:53Z</time>
      </trkpt>
      <trkpt lat="43.018311" lon="-7.458197">
        <ele>514.082</ele>
        <time>1999-07-25T16:17:55Z</time>
      </trkpt>
      <trkpt lat="43.018364" lon="-7.458399">
        <ele>514.483</ele>
        <time>1999-07-25T16:18:01Z</time>
      </trkpt>
      <trkpt lat="43.018377" lon="-7.458433">
        <ele>514.468</ele>
        <time>1999-07-25T16:18:02Z</time>
      </trkpt>
      <trkpt lat="43.018415" lon="-7.458634">
        <ele>514.678</ele>
        <time>1999-07-25T16:18:07Z</time>
      </trkpt>
      <trkpt lat="43.018432" lon="-7.458904">
        <ele>514.625</ele>
        <time>1999-07-25T16:18:13Z</time>
      </trkpt>
      <trkpt lat="43.018461" lon="-7.459278">
        <ele>514.822</ele>
        <time>1999-07-25T16:18:20Z</time>
      </trkpt>
      <trkpt lat="43.018494" lon="-7.459617">
        <ele>515.490</ele>
        <time>1999-07-25T16:18:26Z</time>
      </trkpt>
      <trkpt lat="43.018500" lon="-7.459676">
        <ele>515.673</ele>
        <time>1999-07-25T16:18:27Z</time>
      </trkpt>
      <trkpt lat="43.018542" lon="-7.459944">
        <ele>516.085</ele>
        <time>1999-07-25T16:18:32Z</time>
      </trkpt>
      <trkpt lat="43.018558" lon="-7.460196">
        <ele>516.813</ele>
        <time>1999-07-25T16:18:37Z</time>
      </trkpt>
      <trkpt lat="43.018562" lon="-7.460309">
        <ele>517.208</ele>
        <time>1999-07-25T16:18:39Z</time>
      </trkpt>
      <trkpt lat="43.018577" lon="-7.460584">
        <ele>517.850</ele>
        <time>1999-07-25T16:18:44Z</time>
      </trkpt>
      <trkpt lat="43.018583" lon="-7.460700">
        <ele>518.046</ele>
        <time>1999-07-25T16:18:46Z</time>
      </trkpt>
      <trkpt lat="43.018572" lon="-7.460919">
        <ele>518.487</ele>
        <time>1999-07-25T16:18:50Z</time>
      </trkpt>
      <trkpt lat="43.018473" lon="-7.461106">
        <ele>518.892</ele>
        <time>1999-07-25T16:18:54Z</time>
      </trkpt>
      <trkpt lat="43.018449" lon="-7.461150">
        <ele>519.032</ele>
        <time>1999-07-25T16:18:55Z</time>
      </trkpt>
      <trkpt lat="43.018330" lon="-7.461317">
        <ele>519.419</ele>
        <time>1999-07-25T16:18:59Z</time>
      </trkpt>
      <trkpt lat="43.018189" lon="-7.461521">
        <ele>519.466</ele>
        <time>1999-07-25T16:19:04Z</time>
      </trkpt>
      <trkpt lat="43.018108" lon="-7.461630">
        <ele>519.484</ele>
        <time>1999-07-25T16:19:07Z</time>
      </trkpt>
      <trkpt lat="43.017936" lon="-7.461864">
        <ele>519.079</ele>
        <time>1999-07-25T16:19:14Z</time>
      </trkpt>
      <trkpt lat="43.017878" lon="-7.461950">
        <ele>518.805</ele>
        <time>1999-07-25T16:19:16Z</time>
      </trkpt>
      <trkpt lat="43.017851" lon="-7.462074">
        <ele>518.625</ele>
        <time>1999-07-25T16:19:18Z</time>
      </trkpt>
      <trkpt lat="43.017793" lon="-7.462742">
        <ele>518.608</ele>
        <time>1999-07-25T16:19:27Z</time>
      </trkpt>
      <trkpt lat="43.017732" lon="-7.463389">
        <ele>518.660</ele>
        <time>1999-07-25T16:19:35Z</time>
      </trkpt>
      <trkpt lat="43.017707" lon="-7.463649">
        <ele>518.236</ele>
        <time>1999-07-25T16:19:38Z</time>
      </trkpt>
      <trkpt lat="43.017656" lon="-7.464180">
        <ele>517.237</ele>
        <time>1999-07-25T16:19:44Z</time>
      </trkpt>
      <trkpt lat="43.017647" lon="-7.464272">
        <ele>517.062</ele>
        <time>1999-07-25T16:19:45Z</time>
      </trkpt>
      <trkpt lat="43.017585" lon="-7.464925">
        <ele>516.082</ele>
        <time>1999-07-25T16:19:52Z</time>
      </trkpt>
      <trkpt lat="43.017546" lon="-7.465284">
        <ele>515.819</ele>
        <time>1999-07-25T16:19:56Z</time>
      </trkpt>
      <trkpt lat="43.017438" lon="-7.466022">
        <ele>515.666</ele>
        <time>1999-07-25T16:20:04Z</time>
      </trkpt>
      <trkpt lat="43.017419" lon="-7.466118">
        <ele>515.654</ele>
        <time>1999-07-25T16:20:05Z</time>
      </trkpt>
      <trkpt lat="43.017321" lon="-7.466635">
        <ele>515.041</ele>
        <time>1999-07-25T16:20:10Z</time>
      </trkpt>
      <trkpt lat="43.017295" lon="-7.466742">
        <ele>514.881</ele>
        <time>1999-07-25T16:20:11Z</time>
      </trkpt>
      <trkpt lat="43.017186" lon="-7.467206">
        <ele>514.409</ele>
        <time>1999-07-25T16:20:15Z</time>
      </trkpt>
      <trkpt lat="43.017157" lon="-7.467326">
        <ele>514.008</ele>
        <time>1999-07-25T16:20:16Z</time>
      </trkpt>
      <trkpt lat="43.017129" lon="-7.467445">
        <ele>513.647</ele>
        <time>1999-07-25T16:20:17Z</time>
      </trkpt>
      <trkpt lat="43.017067" lon="-7.467683">
        <ele>513.083</ele>
        <time>1999-07-25T16:20:19Z</time>
      </trkpt>
      <trkpt lat="43.016978" lon="-7.468034">
        <ele>511.864</ele>
        <time>1999-07-25T16:20:22Z</time>
      </trkpt>
      <trkpt lat="43.016883" lon="-7.468395">
        <ele>511.099</ele>
        <time>1999-07-25T16:20:25Z</time>
      </trkpt>
      <trkpt lat="43.016850" lon="-7.468516">
        <ele>510.419</ele>
        <time>1999-07-25T16:20:26Z</time>
      </trkpt>
      <trkpt lat="43.016789" lon="-7.468755">
        <ele>508.876</ele>
        <time>1999-07-25T16:20:28Z</time>
      </trkpt>
      <trkpt lat="43.016726" lon="-7.468987">
        <ele>507.643</ele>
        <time>1999-07-25T16:20:30Z</time>
      </trkpt>
      <trkpt lat="43.016667" lon="-7.469219">
        <ele>506.611</ele>
        <time>1999-07-25T16:20:32Z</time>
      </trkpt>
      <trkpt lat="43.016636" lon="-7.469332">
        <ele>506.463</ele>
        <time>1999-07-25T16:20:33Z</time>
      </trkpt>
      <trkpt lat="43.016465" lon="-7.469983">
        <ele>505.644</ele>
        <time>1999-07-25T16:20:39Z</time>
      </trkpt>
      <trkpt lat="43.016409" lon="-7.470204">
        <ele>505.418</ele>
        <time>1999-07-25T16:20:41Z</time>
      </trkpt>
      <trkpt lat="43.016294" lon="-7.470642">
        <ele>504.208</ele>
        <time>1999-07-25T16:20:45Z</time>
      </trkpt>
      <trkpt lat="43.016269" lon="-7.470752">
        <ele>504.019</ele>
        <time>1999-07-25T16:20:46Z</time>
      </trkpt>
      <trkpt lat="43.016220" lon="-7.470976">
        <ele>503.245</ele>
        <time>1999-07-25T16:20:48Z</time>
      </trkpt>
      <trkpt lat="43.016135" lon="-7.471444">
        <ele>502.036</ele>
        <time>1999-07-25T16:20:52Z</time>
      </trkpt>
      <trkpt lat="43.016101" lon="-7.471689">
        <ele>501.861</ele>
        <time>1999-07-25T16:20:54Z</time>
      </trkpt>
      <trkpt lat="43.016062" lon="-7.472069">
        <ele>500.891</ele>
        <time>1999-07-25T16:20:57Z</time>
      </trkpt>
      <trkpt lat="43.016038" lon="-7.472596">
        <ele>500.438</ele>
        <time>1999-07-25T16:21:01Z</time>
      </trkpt>
      <trkpt lat="43.016044" lon="-7.472987">
        <ele>499.625</ele>
        <time>1999-07-25T16:21:04Z</time>
      </trkpt>
      <trkpt lat="43.016063" lon="-7.473365">
        <ele>498.683</ele>
        <time>1999-07-25T16:21:07Z</time>
      </trkpt>
      <trkpt lat="43.016071" lon="-7.473488">
        <ele>498.245</ele>
        <time>1999-07-25T16:21:08Z</time>
      </trkpt>
      <trkpt lat="43.016106" lon="-7.473955">
        <ele>497.847</ele>
        <time>1999-07-25T16:21:12Z</time>
      </trkpt>
      <trkpt lat="43.016124" lon="-7.474179">
        <ele>497.611</ele>
        <time>1999-07-25T16:21:14Z</time>
      </trkpt>
      <trkpt lat="43.016152" lon="-7.474568">
        <ele>497.608</ele>
        <time>1999-07-25T16:21:18Z</time>
      </trkpt>
      <trkpt lat="43.016159" lon="-7.474656">
        <ele>497.827</ele>
        <time>1999-07-25T16:21:19Z</time>
      </trkpt>
      <trkpt lat="43.016198" lon="-7.475079">
        <ele>499.223</ele>
        <time>1999-07-25T16:21:24Z</time>
      </trkpt>
      <trkpt lat="43.016215" lon="-7.475317">
        <ele>499.684</ele>
        <time>1999-07-25T16:21:27Z</time>
      </trkpt>
      <trkpt lat="43.016242" lon="-7.475698">
        <ele>500.619</ele>
        <time>1999-07-25T16:21:32Z</time>
      </trkpt>
      <trkpt lat="43.016246" lon="-7.475773">
        <ele>500.879</ele>
        <time>1999-07-25T16:21:33Z</time>
      </trkpt>
      <trkpt lat="43.016256" lon="-7.475920">
        <ele>501.096</ele>
        <time>1999-07-25T16:21:35Z</time>
      </trkpt>
      <trkpt lat="43.016301" lon="-7.476420">
        <ele>501.863</ele>
        <time>1999-07-25T16:21:42Z</time>
      </trkpt>
      <trkpt lat="43.016328" lon="-7.476637">
        <ele>502.271</ele>
        <time>1999-07-25T16:21:45Z</time>
      </trkpt>
      <trkpt lat="43.016459" lon="-7.477209">
        <ele>502.825</ele>
        <time>1999-07-25T16:21:53Z</time>
      </trkpt>
      <trkpt lat="43.016549" lon="-7.477472">
        <ele>502.826</ele>
        <time>1999-07-25T16:21:57Z</time>
      </trkpt>
      <trkpt lat="43.016628" lon="-7.477567">
        <ele>502.808</ele>
        <time>1999-07-25T16:21:59Z</time>
      </trkpt>
      <trkpt lat="43.016770" lon="-7.477644">
        <ele>502.808</ele>
        <time>1999-07-25T16:22:02Z</time>
      </trkpt>
      <trkpt lat="43.016811" lon="-7.477663">
        <ele>502.845</ele>
        <time>1999-07-25T16:22:03Z</time>
      </trkpt>
      <trkpt lat="43.017018" lon="-7.477769">
        <ele>502.861</ele>
        <time>1999-07-25T16:22:09Z</time>
      </trkpt>
      <trkpt lat="43.017081" lon="-7.477807">
        <ele>503.052</ele>
        <time>1999-07-25T16:22:11Z</time>
      </trkpt>
      <trkpt lat="43.017205" lon="-7.477865">
        <ele>503.897</ele>
        <time>1999-07-25T16:22:15Z</time>
      </trkpt>
      <trkpt lat="43.017237" lon="-7.477883">
        <ele>504.067</ele>
        <time>1999-07-25T16:22:16Z</time>
      </trkpt>
      <trkpt lat="43.017433" lon="-7.477974">
        <ele>504.414</ele>
        <time>1999-07-25T16:22:21Z</time>
      </trkpt>
      <trkpt lat="43.017528" lon="-7.478005">
        <ele>505.071</ele>
        <time>1999-07-25T16:22:23Z</time>
      </trkpt>
      <trkpt lat="43.017657" lon="-7.478066">
        <ele>505.259</ele>
        <time>1999-07-25T16:22:26Z</time>
      </trkpt>
      <trkpt lat="43.017711" lon="-7.478113">
        <ele>505.231</ele>
        <time>1999-07-25T16:22:28Z</time>
      </trkpt>
      <trkpt lat="43.017873" lon="-7.478176">
        <ele>504.861</ele>
        <time>1999-07-25T16:22:32Z</time>
      </trkpt>
      <trkpt lat="43.018010" lon="-7.478225">
        <ele>504.407</ele>
        <time>1999-07-25T16:22:35Z</time>
      </trkpt>
      <trkpt lat="43.018148" lon="-7.478322">
        <ele>504.208</ele>
        <time>1999-07-25T16:22:38Z</time>
      </trkpt>
      <trkpt lat="43.018297" lon="-7.478462">
        <ele>504.026</ele>
        <time>1999-07-25T16:22:41Z</time>
      </trkpt>
      <trkpt lat="43.018545" lon="-7.478692">
        <ele>503.212</ele>
        <time>1999-07-25T16:22:46Z</time>
      </trkpt>
      <trkpt lat="43.018590" lon="-7.478735">
        <ele>503.233</ele>
        <time>1999-07-25T16:22:47Z</time>
      </trkpt>
      <trkpt lat="43.018650" lon="-7.478858">
        <ele>503.078</ele>
        <time>1999-07-25T16:22:49Z</time>
      </trkpt>
      <trkpt lat="43.018662" lon="-7.478936">
        <ele>503.078</ele>
        <time>1999-07-25T16:22:50Z</time>
      </trkpt>
      <trkpt lat="43.018683" lon="-7.479103">
        <ele>503.095</ele>
        <time>1999-07-25T16:22:52Z</time>
      </trkpt>
      <trkpt lat="43.018698" lon="-7.479195">
        <ele>502.892</ele>
        <time>1999-07-25T16:22:53Z</time>
      </trkpt>
      <trkpt lat="43.018723" lon="-7.479289">
        <ele>502.630</ele>
        <time>1999-07-25T16:22:54Z</time>
      </trkpt>
      <trkpt lat="43.018872" lon="-7.479669">
        <ele>502.046</ele>
        <time>1999-07-25T16:22:58Z</time>
      </trkpt>
      <trkpt lat="43.019001" lon="-7.479959">
        <ele>500.888</ele>
        <time>1999-07-25T16:23:01Z</time>
      </trkpt>
      <trkpt lat="43.019084" lon="-7.480175">
        <ele>499.616</ele>
        <time>1999-07-25T16:23:03Z</time>
      </trkpt>
      <trkpt lat="43.019148" lon="-7.480391">
        <ele>499.008</ele>
        <time>1999-07-25T16:23:05Z</time>
      </trkpt>
      <trkpt lat="43.019168" lon="-7.480498">
        <ele>498.657</ele>
        <time>1999-07-25T16:23:06Z</time>
      </trkpt>
      <trkpt lat="43.019189" lon="-7.480607">
        <ele>498.413</ele>
        <time>1999-07-25T16:23:07Z</time>
      </trkpt>
      <trkpt lat="43.019286" lon="-7.481163">
        <ele>497.894</ele>
        <time>1999-07-25T16:23:12Z</time>
      </trkpt>
      <trkpt lat="43.019336" lon="-7.481405">
        <ele>497.659</ele>
        <time>1999-07-25T16:23:14Z</time>
      </trkpt>
      <trkpt lat="43.019358" lon="-7.481535">
        <ele>497.449</ele>
        <time>1999-07-25T16:23:15Z</time>
      </trkpt>
      <trkpt lat="43.019387" lon="-7.481814">
        <ele>496.866</ele>
        <time>1999-07-25T16:23:17Z</time>
      </trkpt>
      <trkpt lat="43.019383" lon="-7.482099">
        <ele>496.263</ele>
        <time>1999-07-25T16:23:19Z</time>
      </trkpt>
      <trkpt lat="43.019359" lon="-7.482385">
        <ele>494.681</ele>
        <time>1999-07-25T16:23:21Z</time>
      </trkpt>
      <trkpt lat="43.019331" lon="-7.482672">
        <ele>493.066</ele>
        <time>1999-07-25T16:23:23Z</time>
      </trkpt>
      <trkpt lat="43.019307" lon="-7.482943">
        <ele>491.229</ele>
        <time>1999-07-25T16:23:25Z</time>
      </trkpt>
      <trkpt lat="43.019295" lon="-7.483074">
        <ele>490.021</ele>
        <time>1999-07-25T16:23:26Z</time>
      </trkpt>
      <trkpt lat="43.019276" lon="-7.483200">
        <ele>489.608</ele>
        <time>1999-07-25T16:23:27Z</time>
      </trkpt>
      <trkpt lat="43.019255" lon="-7.483310">
        <ele>488.099</ele>
        <time>1999-07-25T16:23:28Z</time>
      </trkpt>
      <trkpt lat="43.019220" lon="-7.483511">
        <ele>486.695</ele>
        <time>1999-07-25T16:23:30Z</time>
      </trkpt>
      <trkpt lat="43.019189" lon="-7.483583">
        <ele>486.276</ele>
        <time>1999-07-25T16:23:31Z</time>
      </trkpt>
      <trkpt lat="43.019147" lon="-7.483636">
        <ele>485.641</ele>
        <time>1999-07-25T16:23:32Z</time>
      </trkpt>
      <trkpt lat="43.019054" lon="-7.483721">
        <ele>484.691</ele>
        <time>1999-07-25T16:23:34Z</time>
      </trkpt>
      <trkpt lat="43.018976" lon="-7.483828">
        <ele>483.888</ele>
        <time>1999-07-25T16:23:36Z</time>
      </trkpt>
      <trkpt lat="43.018942" lon="-7.483892">
        <ele>483.075</ele>
        <time>1999-07-25T16:23:37Z</time>
      </trkpt>
      <trkpt lat="43.018908" lon="-7.483960">
        <ele>482.283</ele>
        <time>1999-07-25T16:23:38Z</time>
      </trkpt>
      <trkpt lat="43.018877" lon="-7.484034">
        <ele>481.431</ele>
        <time>1999-07-25T16:23:39Z</time>
      </trkpt>
      <trkpt lat="43.018821" lon="-7.484275">
        <ele>480.661</ele>
        <time>1999-07-25T16:23:42Z</time>
      </trkpt>
      <trkpt lat="43.018782" lon="-7.484455">
        <ele>480.407</ele>
        <time>1999-07-25T16:23:44Z</time>
      </trkpt>
      <trkpt lat="43.018765" lon="-7.484536">
        <ele>480.408</ele>
        <time>1999-07-25T16:23:45Z</time>
      </trkpt>
      <trkpt lat="43.018750" lon="-7.484627">
        <ele>480.256</ele>
        <time>1999-07-25T16:23:46Z</time>
      </trkpt>
      <trkpt lat="43.018669" lon="-7.485014">
        <ele>479.812</ele>
        <time>1999-07-25T16:23:50Z</time>
      </trkpt>
      <trkpt lat="43.018658" lon="-7.485104">
        <ele>479.453</ele>
        <time>1999-07-25T16:23:51Z</time>
      </trkpt>
      <trkpt lat="43.018657" lon="-7.485192">
        <ele>479.028</ele>
        <time>1999-07-25T16:23:52Z</time>
      </trkpt>
      <trkpt lat="43.018643" lon="-7.485478">
        <ele>478.648</ele>
        <time>1999-07-25T16:23:55Z</time>
      </trkpt>
      <trkpt lat="43.018627" lon="-7.485563">
        <ele>478.425</ele>
        <time>1999-07-25T16:23:56Z</time>
      </trkpt>
      <trkpt lat="43.018550" lon="-7.485772">
        <ele>478.232</ele>
        <time>1999-07-25T16:23:59Z</time>
      </trkpt>
      <trkpt lat="43.018532" lon="-7.485840">
        <ele>478.280</ele>
        <time>1999-07-25T16:24:00Z</time>
      </trkpt>
      <trkpt lat="43.018524" lon="-7.486044">
        <ele>478.272</ele>
        <time>1999-07-25T16:24:03Z</time>
      </trkpt>
      <trkpt lat="43.018527" lon="-7.486111">
        <ele>478.213</ele>
        <time>1999-07-25T16:24:04Z</time>
      </trkpt>
      <trkpt lat="43.018550" lon="-7.486632">
        <ele>479.414</ele>
        <time>1999-07-25T16:24:12Z</time>
      </trkpt>
      <trkpt lat="43.018569" lon="-7.487218">
        <ele>480.408</ele>
        <time>1999-07-25T16:24:21Z</time>
      </trkpt>
      <trkpt lat="43.018599" lon="-7.487517">
        <ele>480.820</ele>
        <time>1999-07-25T16:24:26Z</time>
      </trkpt>
      <trkpt lat="43.018596" lon="-7.487578">
        <ele>480.816</ele>
        <time>1999-07-25T16:24:27Z</time>
      </trkpt>
      <trkpt lat="43.018509" lon="-7.487931">
        <ele>481.227</ele>
        <time>1999-07-25T16:24:33Z</time>
      </trkpt>
      <trkpt lat="43.018491" lon="-7.487988">
        <ele>481.462</ele>
        <time>1999-07-25T16:24:34Z</time>
      </trkpt>
      <trkpt lat="43.018429" lon="-7.488151">
        <ele>481.842</ele>
        <time>1999-07-25T16:24:37Z</time>
      </trkpt>
      <trkpt lat="43.018412" lon="-7.488268">
        <ele>482.059</ele>
        <time>1999-07-25T16:24:39Z</time>
      </trkpt>
      <trkpt lat="43.018403" lon="-7.488454">
        <ele>482.646</ele>
        <time>1999-07-25T16:24:42Z</time>
      </trkpt>
      <trkpt lat="43.018385" lon="-7.488764">
        <ele>483.884</ele>
        <time>1999-07-25T16:24:47Z</time>
      </trkpt>
      <trkpt lat="43.018416" lon="-7.489033">
        <ele>484.693</ele>
        <time>1999-07-25T16:24:52Z</time>
      </trkpt>
      <trkpt lat="43.018428" lon="-7.489087">
        <ele>484.865</ele>
        <time>1999-07-25T16:24:53Z</time>
      </trkpt>
      <trkpt lat="43.018481" lon="-7.489307">
        <ele>485.821</ele>
        <time>1999-07-25T16:24:57Z</time>
      </trkpt>
      <trkpt lat="43.018495" lon="-7.489362">
        <ele>486.008</ele>
        <time>1999-07-25T16:24:58Z</time>
      </trkpt>
      <trkpt lat="43.018617" lon="-7.489755">
        <ele>486.632</ele>
        <time>1999-07-25T16:25:06Z</time>
      </trkpt>
      <trkpt lat="43.018683" lon="-7.489857">
        <ele>486.868</ele>
        <time>1999-07-25T16:25:09Z</time>
      </trkpt>
      <trkpt lat="43.018734" lon="-7.489955">
        <ele>487.269</ele>
        <time>1999-07-25T16:25:12Z</time>
      </trkpt>
      <trkpt lat="43.018819" lon="-7.490162">
        <ele>488.024</ele>
        <time>1999-07-25T16:25:18Z</time>
      </trkpt>
      <trkpt lat="43.018828" lon="-7.490235">
        <ele>488.474</ele>
        <time>1999-07-25T16:25:20Z</time>
      </trkpt>
      <trkpt lat="43.018868" lon="-7.490446">
        <ele>489.441</ele>
        <time>1999-07-25T16:25:25Z</time>
      </trkpt>
      <trkpt lat="43.018874" lon="-7.490494">
        <ele>490.048</ele>
        <time>1999-07-25T16:25:26Z</time>
      </trkpt>
      <trkpt lat="43.018885" lon="-7.490637">
        <ele>490.476</ele>
        <time>1999-07-25T16:25:29Z</time>
      </trkpt>
      <trkpt lat="43.018884" lon="-7.490807">
        <ele>490.818</ele>
        <time>1999-07-25T16:25:33Z</time>
      </trkpt>
      <trkpt lat="43.018829" lon="-7.490996">
        <ele>491.698</ele>
        <time>1999-07-25T16:25:38Z</time>
      </trkpt>
      <trkpt lat="43.018818" lon="-7.491025">
        <ele>492.017</ele>
        <time>1999-07-25T16:25:39Z</time>
      </trkpt>
      <trkpt lat="43.018793" lon="-7.491173">
        <ele>492.808</ele>
        <time>1999-07-25T16:25:44Z</time>
      </trkpt>
      <trkpt lat="43.018790" lon="-7.491205">
        <ele>493.094</ele>
        <time>1999-07-25T16:25:45Z</time>
      </trkpt>
      <trkpt lat="43.018772" lon="-7.491406">
        <ele>493.820</ele>
        <time>1999-07-25T16:25:50Z</time>
      </trkpt>
      <trkpt lat="43.018759" lon="-7.491484">
        <ele>494.211</ele>
        <time>1999-07-25T16:25:52Z</time>
      </trkpt>
      <trkpt lat="43.018747" lon="-7.491602">
        <ele>495.086</ele>
        <time>1999-07-25T16:25:55Z</time>
      </trkpt>
      <trkpt lat="43.018712" lon="-7.491774">
        <ele>496.036</ele>
        <time>1999-07-25T16:26:00Z</time>
      </trkpt>
      <trkpt lat="43.018705" lon="-7.491807">
        <ele>496.283</ele>
        <time>1999-07-25T16:26:01Z</time>
      </trkpt>
      <trkpt lat="43.018688" lon="-7.491922">
        <ele>497.470</ele>
        <time>1999-07-25T16:26:05Z</time>
      </trkpt>
      <trkpt lat="43.018674" lon="-7.491987">
        <ele>498.078</ele>
        <time>1999-07-25T16:26:07Z</time>
      </trkpt>
      <trkpt lat="43.018657" lon="-7.492064">
        <ele>498.437</ele>
        <time>1999-07-25T16:26:09Z</time>
      </trkpt>
      <trkpt lat="43.018614" lon="-7.492262">
        <ele>499.449</ele>
        <time>1999-07-25T16:26:14Z</time>
      </trkpt>
      <trkpt lat="43.018612" lon="-7.492298">
        <ele>499.613</ele>
        <time>1999-07-25T16:26:15Z</time>
      </trkpt>
      <trkpt lat="43.018614" lon="-7.492494">
        <ele>500.408</ele>
        <time>1999-07-25T16:26:21Z</time>
      </trkpt>
      <trkpt lat="43.018615" lon="-7.492554">
        <ele>500.466</ele>
        <time>1999-07-25T16:26:23Z</time>
      </trkpt>
      <trkpt lat="43.018622" lon="-7.492689">
        <ele>501.062</ele>
        <time>1999-07-25T16:26:27Z</time>
      </trkpt>
      <trkpt lat="43.018618" lon="-7.492795">
        <ele>501.693</ele>
        <time>1999-07-25T16:26:30Z</time>
      </trkpt>
      <trkpt lat="43.018618" lon="-7.492940">
        <ele>502.098</ele>
        <time>1999-07-25T16:26:34Z</time>
      </trkpt>
      <trkpt lat="43.018621" lon="-7.493077">
        <ele>502.898</ele>
        <time>1999-07-25T16:26:38Z</time>
      </trkpt>
      <trkpt lat="43.018640" lon="-7.493142">
        <ele>503.045</ele>
        <time>1999-07-25T16:26:40Z</time>
      </trkpt>
      <trkpt lat="43.018681" lon="-7.493417">
        <ele>503.652</ele>
        <time>1999-07-25T16:26:46Z</time>
      </trkpt>
      <trkpt lat="43.018684" lon="-7.493467">
        <ele>503.840</ele>
        <time>1999-07-25T16:26:47Z</time>
      </trkpt>
      <trkpt lat="43.018743" lon="-7.493758">
        <ele>504.619</ele>
        <time>1999-07-25T16:26:53Z</time>
      </trkpt>
      <trkpt lat="43.018758" lon="-7.493850">
        <ele>505.009</ele>
        <time>1999-07-25T16:26:55Z</time>
      </trkpt>
      <trkpt lat="43.018820" lon="-7.494062">
        <ele>505.619</ele>
        <time>1999-07-25T16:27:00Z</time>
      </trkpt>
      <trkpt lat="43.018864" lon="-7.494187">
        <ele>506.008</ele>
        <time>1999-07-25T16:27:03Z</time>
      </trkpt>
      <trkpt lat="43.018921" lon="-7.494380">
        <ele>506.474</ele>
        <time>1999-07-25T16:27:07Z</time>
      </trkpt>
      <trkpt lat="43.019001" lon="-7.494609">
        <ele>506.840</ele>
        <time>1999-07-25T16:27:12Z</time>
      </trkpt>
      <trkpt lat="43.019071" lon="-7.494768">
        <ele>507.281</ele>
        <time>1999-07-25T16:27:16Z</time>
      </trkpt>
      <trkpt lat="43.019088" lon="-7.494861">
        <ele>507.686</ele>
        <time>1999-07-25T16:27:18Z</time>
      </trkpt>
      <trkpt lat="43.019124" lon="-7.495078">
        <ele>508.086</ele>
        <time>1999-07-25T16:27:22Z</time>
      </trkpt>
      <trkpt lat="43.019142" lon="-7.495194">
        <ele>508.233</ele>
        <time>1999-07-25T16:27:24Z</time>
      </trkpt>
      <trkpt lat="43.019177" lon="-7.495429">
        <ele>508.470</ele>
        <time>1999-07-25T16:27:28Z</time>
      </trkpt>
      <trkpt lat="43.019205" lon="-7.495608">
        <ele>508.618</ele>
        <time>1999-07-25T16:27:31Z</time>
      </trkpt>
      <trkpt lat="43.019223" lon="-7.495735">
        <ele>508.814</ele>
        <time>1999-07-25T16:27:33Z</time>
      </trkpt>
      <trkpt lat="43.019239" lon="-7.495997">
        <ele>509.254</ele>
        <time>1999-07-25T16:27:37Z</time>
      </trkpt>
      <trkpt lat="43.019239" lon="-7.496060">
        <ele>509.409</ele>
        <time>1999-07-25T16:27:38Z</time>
      </trkpt>
      <trkpt lat="43.019225" lon="-7.496412">
        <ele>509.608</ele>
        <time>1999-07-25T16:27:43Z</time>
      </trkpt>
      <trkpt lat="43.019219" lon="-7.496485">
        <ele>509.644</ele>
        <time>1999-07-25T16:27:44Z</time>
      </trkpt>
      <trkpt lat="43.019207" lon="-7.496623">
        <ele>509.640</ele>
        <time>1999-07-25T16:27:46Z</time>
      </trkpt>
      <trkpt lat="43.019160" lon="-7.497063">
        <ele>509.481</ele>
        <time>1999-07-25T16:27:52Z</time>
      </trkpt>
      <trkpt lat="43.019159" lon="-7.497138">
        <ele>509.066</ele>
        <time>1999-07-25T16:27:53Z</time>
      </trkpt>
      <trkpt lat="43.019165" lon="-7.497288">
        <ele>508.846</ele>
        <time>1999-07-25T16:27:55Z</time>
      </trkpt>
      <trkpt lat="43.019173" lon="-7.497411">
        <ele>508.873</ele>
        <time>1999-07-25T16:27:57Z</time>
      </trkpt>
      <trkpt lat="43.019176" lon="-7.497661">
        <ele>508.670</ele>
        <time>1999-07-25T16:28:02Z</time>
      </trkpt>
      <trkpt lat="43.019172" lon="-7.497794">
        <ele>508.258</ele>
        <time>1999-07-25T16:28:05Z</time>
      </trkpt>
      <trkpt lat="43.019181" lon="-7.497943">
        <ele>507.848</ele>
        <time>1999-07-25T16:28:08Z</time>
      </trkpt>
      <trkpt lat="43.019244" lon="-7.498213">
        <ele>507.661</ele>
        <time>1999-07-25T16:28:14Z</time>
      </trkpt>
      <trkpt lat="43.019321" lon="-7.498367">
        <ele>507.617</ele>
        <time>1999-07-25T16:28:20Z</time>
      </trkpt>
      <trkpt lat="43.019368" lon="-7.498497">
        <ele>508.408</ele>
        <time>1999-07-25T16:28:23Z</time>
      </trkpt>
      <trkpt lat="43.019421" lon="-7.498636">
        <ele>509.037</ele>
        <time>1999-07-25T16:28:26Z</time>
      </trkpt>
      <trkpt lat="43.019461" lon="-7.498727">
        <ele>509.213</ele>
        <time>1999-07-25T16:28:28Z</time>
      </trkpt>
      <trkpt lat="43.019561" lon="-7.498891">
        <ele>510.034</ele>
        <time>1999-07-25T16:28:32Z</time>
      </trkpt>
      <trkpt lat="43.019682" lon="-7.498945">
        <ele>510.259</ele>
        <time>1999-07-25T16:28:35Z</time>
      </trkpt>
      <trkpt lat="43.019813" lon="-7.498871">
        <ele>510.459</ele>
        <time>1999-07-25T16:28:38Z</time>
      </trkpt>
      <trkpt lat="43.019857" lon="-7.498840">
        <ele>510.446</ele>
        <time>1999-07-25T16:28:39Z</time>
      </trkpt>
      <trkpt lat="43.019983" lon="-7.498733">
        <ele>510.413</ele>
        <time>1999-07-25T16:28:43Z</time>
      </trkpt>
      <trkpt lat="43.020010" lon="-7.498726">
        <ele>510.451</ele>
        <time>1999-07-25T16:28:44Z</time>
      </trkpt>
      <trkpt lat="43.020039" lon="-7.498760">
        <ele>510.267</ele>
        <time>1999-07-25T16:28:46Z</time>
      </trkpt>
      <trkpt lat="43.020025" lon="-7.498967">
        <ele>510.081</ele>
        <time>1999-07-25T16:28:50Z</time>
      </trkpt>
      <trkpt lat="43.020014" lon="-7.499038">
        <ele>509.819</ele>
        <time>1999-07-25T16:28:51Z</time>
      </trkpt>
      <trkpt lat="43.019971" lon="-7.499300">
        <ele>509.008</ele>
        <time>1999-07-25T16:28:54Z</time>
      </trkpt>
      <trkpt lat="43.019921" lon="-7.499497">
        <ele>508.889</ele>
        <time>1999-07-25T16:28:56Z</time>
      </trkpt>
      <trkpt lat="43.019893" lon="-7.499595">
        <ele>508.695</ele>
        <time>1999-07-25T16:28:57Z</time>
      </trkpt>
      <trkpt lat="43.019831" lon="-7.499784">
        <ele>508.636</ele>
        <time>1999-07-25T16:28:59Z</time>
      </trkpt>
      <trkpt lat="43.019803" lon="-7.499878">
        <ele>508.431</ele>
        <time>1999-07-25T16:29:00Z</time>
      </trkpt>
      <trkpt lat="43.019762" lon="-7.500075">
        <ele>507.681</ele>
        <time>1999-07-25T16:29:02Z</time>
      </trkpt>
      <trkpt lat="43.019772" lon="-7.500289">
        <ele>507.228</ele>
        <time>1999-07-25T16:29:04Z</time>
      </trkpt>
      <trkpt lat="43.019810" lon="-7.500500">
        <ele>506.625</ele>
        <time>1999-07-25T16:29:06Z</time>
      </trkpt>
      <trkpt lat="43.019854" lon="-7.500710">
        <ele>505.823</ele>
        <time>1999-07-25T16:29:08Z</time>
      </trkpt>
      <trkpt lat="43.019874" lon="-7.500811">
        <ele>505.444</ele>
        <time>1999-07-25T16:29:09Z</time>
      </trkpt>
      <trkpt lat="43.019886" lon="-7.500917">
        <ele>504.805</ele>
        <time>1999-07-25T16:29:10Z</time>
      </trkpt>
      <trkpt lat="43.019873" lon="-7.501217">
        <ele>503.415</ele>
        <time>1999-07-25T16:29:13Z</time>
      </trkpt>
      <trkpt lat="43.019824" lon="-7.501396">
        <ele>502.008</ele>
        <time>1999-07-25T16:29:15Z</time>
      </trkpt>
      <trkpt lat="43.019765" lon="-7.501545">
        <ele>501.647</ele>
        <time>1999-07-25T16:29:17Z</time>
      </trkpt>
      <trkpt lat="43.019718" lon="-7.501605">
        <ele>501.433</ele>
        <time>1999-07-25T16:29:18Z</time>
      </trkpt>
      <trkpt lat="43.019613" lon="-7.501690">
        <ele>501.434</ele>
        <time>1999-07-25T16:29:20Z</time>
      </trkpt>
      <trkpt lat="43.019454" lon="-7.501801">
        <ele>501.479</ele>
        <time>1999-07-25T16:29:23Z</time>
      </trkpt>
      <trkpt lat="43.019247" lon="-7.501954">
        <ele>501.229</ele>
        <time>1999-07-25T16:29:27Z</time>
      </trkpt>
      <trkpt lat="43.019040" lon="-7.502137">
        <ele>501.486</ele>
        <time>1999-07-25T16:29:32Z</time>
      </trkpt>
      <trkpt lat="43.018867" lon="-7.502272">
        <ele>501.463</ele>
        <time>1999-07-25T16:29:36Z</time>
      </trkpt>
      <trkpt lat="43.018785" lon="-7.502358">
        <ele>501.421</ele>
        <time>1999-07-25T16:29:38Z</time>
      </trkpt>
      <trkpt lat="43.018720" lon="-7.502418">
        <ele>501.271</ele>
        <time>1999-07-25T16:29:41Z</time>
      </trkpt>
      <trkpt lat="43.018717" lon="-7.502419">
        <ele>501.041</ele>
        <time>1999-07-25T16:29:43Z</time>
      </trkpt>
      <trkpt lat="43.018668" lon="-7.502368">
        <ele>499.815</ele>
        <time>1999-07-25T16:41:12Z</time>
      </trkpt>
      <trkpt lat="43.018634" lon="-7.502399">
        <ele>499.808</ele>
        <time>1999-07-25T16:41:13Z</time>
      </trkpt>
      <trkpt lat="43.018557" lon="-7.502477">
        <ele>499.830</ele>
        <time>1999-07-25T16:41:15Z</time>
      </trkpt>
      <trkpt lat="43.018474" lon="-7.502566">
        <ele>499.846</ele>
        <time>1999-07-25T16:41:17Z</time>
      </trkpt>
      <trkpt lat="43.018394" lon="-7.502663">
        <ele>499.837</ele>
        <time>1999-07-25T16:41:19Z</time>
      </trkpt>
      <trkpt lat="43.018275" lon="-7.502804">
        <ele>499.892</ele>
        <time>1999-07-25T16:41:22Z</time>
      </trkpt>
      <trkpt lat="43.018216" lon="-7.502900">
        <ele>499.842</ele>
        <time>1999-07-25T16:41:24Z</time>
      </trkpt>
      <trkpt lat="43.018046" lon="-7.503233">
        <ele>500.099</ele>
        <time>1999-07-25T16:41:30Z</time>
      </trkpt>
      <trkpt lat="43.017916" lon="-7.503504">
        <ele>500.216</ele>
        <time>1999-07-25T16:41:35Z</time>
      </trkpt>
      <trkpt lat="43.017890" lon="-7.503565">
        <ele>500.484</ele>
        <time>1999-07-25T16:41:36Z</time>
      </trkpt>
      <trkpt lat="43.017758" lon="-7.503848">
        <ele>500.821</ele>
        <time>1999-07-25T16:41:41Z</time>
      </trkpt>
      <trkpt lat="43.017706" lon="-7.504028">
        <ele>500.841</ele>
        <time>1999-07-25T16:41:44Z</time>
      </trkpt>
      <trkpt lat="43.017670" lon="-7.504296">
        <ele>501.205</ele>
        <time>1999-07-25T16:41:48Z</time>
      </trkpt>
      <trkpt lat="43.017636" lon="-7.504638">
        <ele>501.808</ele>
        <time>1999-07-25T16:41:53Z</time>
      </trkpt>
      <trkpt lat="43.017628" lon="-7.504774">
        <ele>502.255</ele>
        <time>1999-07-25T16:41:55Z</time>
      </trkpt>
      <trkpt lat="43.017567" lon="-7.505483">
        <ele>503.091</ele>
        <time>1999-07-25T16:42:05Z</time>
      </trkpt>
      <trkpt lat="43.017590" lon="-7.505841">
        <ele>503.462</ele>
        <time>1999-07-25T16:42:11Z</time>
      </trkpt>
      <trkpt lat="43.017610" lon="-7.506018">
        <ele>504.287</ele>
        <time>1999-07-25T16:42:14Z</time>
      </trkpt>
      <trkpt lat="43.017641" lon="-7.506291">
        <ele>504.467</ele>
        <time>1999-07-25T16:42:18Z</time>
      </trkpt>
      <trkpt lat="43.017650" lon="-7.506575">
        <ele>504.474</ele>
        <time>1999-07-25T16:42:22Z</time>
      </trkpt>
      <trkpt lat="43.017635" lon="-7.506698">
        <ele>504.411</ele>
        <time>1999-07-25T16:42:24Z</time>
      </trkpt>
      <trkpt lat="43.017604" lon="-7.506822">
        <ele>504.279</ele>
        <time>1999-07-25T16:42:26Z</time>
      </trkpt>
      <trkpt lat="43.017545" lon="-7.506994">
        <ele>504.028</ele>
        <time>1999-07-25T16:42:29Z</time>
      </trkpt>
      <trkpt lat="43.017482" lon="-7.507170">
        <ele>503.689</ele>
        <time>1999-07-25T16:42:32Z</time>
      </trkpt>
      <trkpt lat="43.017417" lon="-7.507393">
        <ele>503.417</ele>
        <time>1999-07-25T16:42:36Z</time>
      </trkpt>
      <trkpt lat="43.017346" lon="-7.507604">
        <ele>503.408</ele>
        <time>1999-07-25T16:42:40Z</time>
      </trkpt>
      <trkpt lat="43.017309" lon="-7.507712">
        <ele>503.425</ele>
        <time>1999-07-25T16:42:42Z</time>
      </trkpt>
      <trkpt lat="43.017166" lon="-7.508080">
        <ele>504.251</ele>
        <time>1999-07-25T16:42:48Z</time>
      </trkpt>
      <trkpt lat="43.016988" lon="-7.508517">
        <ele>504.412</ele>
        <time>1999-07-25T16:42:54Z</time>
      </trkpt>
      <trkpt lat="43.016820" lon="-7.508988">
        <ele>504.417</ele>
        <time>1999-07-25T16:42:59Z</time>
      </trkpt>
      <trkpt lat="43.016800" lon="-7.509097">
        <ele>504.227</ele>
        <time>1999-07-25T16:43:00Z</time>
      </trkpt>
      <trkpt lat="43.016773" lon="-7.509308">
        <ele>503.894</ele>
        <time>1999-07-25T16:43:02Z</time>
      </trkpt>
      <trkpt lat="43.016753" lon="-7.509510">
        <ele>503.611</ele>
        <time>1999-07-25T16:43:04Z</time>
      </trkpt>
      <trkpt lat="43.016739" lon="-7.509607">
        <ele>503.259</ele>
        <time>1999-07-25T16:43:05Z</time>
      </trkpt>
      <trkpt lat="43.016720" lon="-7.509705">
        <ele>503.034</ele>
        <time>1999-07-25T16:43:06Z</time>
      </trkpt>
      <trkpt lat="43.016605" lon="-7.510083">
        <ele>502.055</ele>
        <time>1999-07-25T16:43:10Z</time>
      </trkpt>
      <trkpt lat="43.016439" lon="-7.510445">
        <ele>501.010</ele>
        <time>1999-07-25T16:43:14Z</time>
      </trkpt>
      <trkpt lat="43.016394" lon="-7.510542">
        <ele>500.808</ele>
        <time>1999-07-25T16:43:15Z</time>
      </trkpt>
      <trkpt lat="43.016351" lon="-7.510642">
        <ele>500.836</ele>
        <time>1999-07-25T16:43:16Z</time>
      </trkpt>
      <trkpt lat="43.016311" lon="-7.510745">
        <ele>500.682</ele>
        <time>1999-07-25T16:43:17Z</time>
      </trkpt>
      <trkpt lat="43.016213" lon="-7.511088">
        <ele>499.423</ele>
        <time>1999-07-25T16:43:20Z</time>
      </trkpt>
      <trkpt lat="43.016184" lon="-7.511208">
        <ele>499.298</ele>
        <time>1999-07-25T16:43:21Z</time>
      </trkpt>
      <trkpt lat="43.016076" lon="-7.511549">
        <ele>498.068</ele>
        <time>1999-07-25T16:43:24Z</time>
      </trkpt>
      <trkpt lat="43.015972" lon="-7.511742">
        <ele>497.065</ele>
        <time>1999-07-25T16:43:26Z</time>
      </trkpt>
      <trkpt lat="43.015862" lon="-7.511924">
        <ele>495.492</ele>
        <time>1999-07-25T16:43:28Z</time>
      </trkpt>
      <trkpt lat="43.015761" lon="-7.512120">
        <ele>494.470</ele>
        <time>1999-07-25T16:43:30Z</time>
      </trkpt>
      <trkpt lat="43.015675" lon="-7.512317">
        <ele>493.697</ele>
        <time>1999-07-25T16:43:32Z</time>
      </trkpt>
      <trkpt lat="43.015582" lon="-7.512515">
        <ele>493.023</ele>
        <time>1999-07-25T16:43:34Z</time>
      </trkpt>
      <trkpt lat="43.015427" lon="-7.512786">
        <ele>491.825</ele>
        <time>1999-07-25T16:43:37Z</time>
      </trkpt>
      <trkpt lat="43.015237" lon="-7.513174">
        <ele>490.808</ele>
        <time>1999-07-25T16:43:41Z</time>
      </trkpt>
      <trkpt lat="43.015158" lon="-7.513374">
        <ele>490.622</ele>
        <time>1999-07-25T16:43:43Z</time>
      </trkpt>
      <trkpt lat="43.015020" lon="-7.513776">
        <ele>490.088</ele>
        <time>1999-07-25T16:43:47Z</time>
      </trkpt>
      <trkpt lat="43.014945" lon="-7.513963">
        <ele>489.499</ele>
        <time>1999-07-25T16:43:49Z</time>
      </trkpt>
      <trkpt lat="43.014789" lon="-7.514414">
        <ele>488.814</ele>
        <time>1999-07-25T16:43:54Z</time>
      </trkpt>
      <trkpt lat="43.014774" lon="-7.514504">
        <ele>488.624</ele>
        <time>1999-07-25T16:43:55Z</time>
      </trkpt>
      <trkpt lat="43.014733" lon="-7.514937">
        <ele>488.491</ele>
        <time>1999-07-25T16:44:00Z</time>
      </trkpt>
      <trkpt lat="43.014718" lon="-7.515018">
        <ele>488.428</ele>
        <time>1999-07-25T16:44:01Z</time>
      </trkpt>
      <trkpt lat="43.014664" lon="-7.515331">
        <ele>488.016</ele>
        <time>1999-07-25T16:44:05Z</time>
      </trkpt>
      <trkpt lat="43.014632" lon="-7.515537">
        <ele>487.618</ele>
        <time>1999-07-25T16:44:08Z</time>
      </trkpt>
      <trkpt lat="43.014545" lon="-7.515915">
        <ele>487.098</ele>
        <time>1999-07-25T16:44:14Z</time>
      </trkpt>
      <trkpt lat="43.014535" lon="-7.515949">
        <ele>486.817</ele>
        <time>1999-07-25T16:44:17Z</time>
      </trkpt>
      <trkpt lat="43.014543" lon="-7.515989">
        <ele>486.008</ele>
        <time>1999-07-25T16:47:15Z</time>
      </trkpt>
      <trkpt lat="43.014561" lon="-7.516015">
        <ele>486.084</ele>
        <time>1999-07-25T16:47:16Z</time>
      </trkpt>
      <trkpt lat="43.014589" lon="-7.516035">
        <ele>486.010</ele>
        <time>1999-07-25T16:47:17Z</time>
      </trkpt>
      <trkpt lat="43.014656" lon="-7.516041">
        <ele>486.051</ele>
        <time>1999-07-25T16:47:19Z</time>
      </trkpt>
      <trkpt lat="43.014696" lon="-7.516035">
        <ele>486.016</ele>
        <time>1999-07-25T16:47:20Z</time>
      </trkpt>
      <trkpt lat="43.014739" lon="-7.516029">
        <ele>486.086</ele>
        <time>1999-07-25T16:47:21Z</time>
      </trkpt>
      <trkpt lat="43.014936" lon="-7.516003">
        <ele>486.053</ele>
        <time>1999-07-25T16:47:25Z</time>
      </trkpt>
      <trkpt lat="43.015096" lon="-7.515975">
        <ele>486.040</ele>
        <time>1999-07-25T16:47:28Z</time>
      </trkpt>
      <trkpt lat="43.015515" lon="-7.515909">
        <ele>486.028</ele>
        <time>1999-07-25T16:47:36Z</time>
      </trkpt>
      <trkpt lat="43.015624" lon="-7.515921">
        <ele>486.069</ele>
        <time>1999-07-25T16:47:38Z</time>
      </trkpt>
      <trkpt lat="43.015786" lon="-7.515974">
        <ele>485.804</ele>
        <time>1999-07-25T16:47:41Z</time>
      </trkpt>
      <trkpt lat="43.015939" lon="-7.516043">
        <ele>485.624</ele>
        <time>1999-07-25T16:47:44Z</time>
      </trkpt>
      <trkpt lat="43.016037" lon="-7.516098">
        <ele>485.608</ele>
        <time>1999-07-25T16:47:46Z</time>
      </trkpt>
      <trkpt lat="43.016446" lon="-7.516294">
        <ele>485.699</ele>
        <time>1999-07-25T16:47:54Z</time>
      </trkpt>
      <trkpt lat="43.016753" lon="-7.516305">
        <ele>486.015</ele>
        <time>1999-07-25T16:48:00Z</time>
      </trkpt>
      <trkpt lat="43.016803" lon="-7.516300">
        <ele>486.426</ele>
        <time>1999-07-25T16:48:01Z</time>
      </trkpt>
      <trkpt lat="43.016984" lon="-7.516292">
        <ele>486.641</ele>
        <time>1999-07-25T16:48:05Z</time>
      </trkpt>
      <trkpt lat="43.017030" lon="-7.516304">
        <ele>486.821</ele>
        <time>1999-07-25T16:48:06Z</time>
      </trkpt>
      <trkpt lat="43.017205" lon="-7.516448">
        <ele>487.048</ele>
        <time>1999-07-25T16:48:10Z</time>
      </trkpt>
      <trkpt lat="43.017246" lon="-7.516497">
        <ele>487.095</ele>
        <time>1999-07-25T16:48:11Z</time>
      </trkpt>
      <trkpt lat="43.017449" lon="-7.516812">
        <ele>487.473</ele>
        <time>1999-07-25T16:48:17Z</time>
      </trkpt>
      <trkpt lat="43.017669" lon="-7.517209">
        <ele>487.674</ele>
        <time>1999-07-25T16:48:24Z</time>
      </trkpt>
      <trkpt lat="43.017934" lon="-7.517735">
        <ele>488.056</ele>
        <time>1999-07-25T16:48:33Z</time>
      </trkpt>
      <trkpt lat="43.017962" lon="-7.517793">
        <ele>488.021</ele>
        <time>1999-07-25T16:48:34Z</time>
      </trkpt>
      <trkpt lat="43.018072" lon="-7.518100">
        <ele>488.408</ele>
        <time>1999-07-25T16:48:39Z</time>
      </trkpt>
      <trkpt lat="43.018090" lon="-7.518158">
        <ele>488.480</ele>
        <time>1999-07-25T16:48:40Z</time>
      </trkpt>
      <trkpt lat="43.018161" lon="-7.518407">
        <ele>488.896</ele>
        <time>1999-07-25T16:48:44Z</time>
      </trkpt>
      <trkpt lat="43.018180" lon="-7.518535">
        <ele>488.847</ele>
        <time>1999-07-25T16:48:46Z</time>
      </trkpt>
      <trkpt lat="43.018196" lon="-7.518719">
        <ele>489.282</ele>
        <time>1999-07-25T16:48:49Z</time>
      </trkpt>
      <trkpt lat="43.018199" lon="-7.518835">
        <ele>489.672</ele>
        <time>1999-07-25T16:48:51Z</time>
      </trkpt>
      <trkpt lat="43.018197" lon="-7.518942">
        <ele>490.259</ele>
        <time>1999-07-25T16:48:53Z</time>
      </trkpt>
      <trkpt lat="43.018184" lon="-7.519086">
        <ele>490.846</ele>
        <time>1999-07-25T16:48:56Z</time>
      </trkpt>
      <trkpt lat="43.018156" lon="-7.519334">
        <ele>491.624</ele>
        <time>1999-07-25T16:49:01Z</time>
      </trkpt>
      <trkpt lat="43.018152" lon="-7.519386">
        <ele>491.869</ele>
        <time>1999-07-25T16:49:02Z</time>
      </trkpt>
      <trkpt lat="43.018130" lon="-7.519665">
        <ele>493.004</ele>
        <time>1999-07-25T16:49:07Z</time>
      </trkpt>
      <trkpt lat="43.018071" lon="-7.520171">
        <ele>493.824</ele>
        <time>1999-07-25T16:49:15Z</time>
      </trkpt>
      <trkpt lat="43.018011" lon="-7.520469">
        <ele>494.008</ele>
        <time>1999-07-25T16:49:19Z</time>
      </trkpt>
      <trkpt lat="43.017996" lon="-7.520548">
        <ele>494.029</ele>
        <time>1999-07-25T16:49:20Z</time>
      </trkpt>
      <trkpt lat="43.017924" lon="-7.520785">
        <ele>494.075</ele>
        <time>1999-07-25T16:49:23Z</time>
      </trkpt>
      <trkpt lat="43.017895" lon="-7.520865">
        <ele>494.026</ele>
        <time>1999-07-25T16:49:24Z</time>
      </trkpt>
      <trkpt lat="43.017800" lon="-7.521115">
        <ele>493.851</ele>
        <time>1999-07-25T16:49:27Z</time>
      </trkpt>
      <trkpt lat="43.017725" lon="-7.521287">
        <ele>493.471</ele>
        <time>1999-07-25T16:49:29Z</time>
      </trkpt>
      <trkpt lat="43.017652" lon="-7.521469">
        <ele>493.028</ele>
        <time>1999-07-25T16:49:31Z</time>
      </trkpt>
      <trkpt lat="43.017550" lon="-7.521741">
        <ele>491.685</ele>
        <time>1999-07-25T16:49:34Z</time>
      </trkpt>
      <trkpt lat="43.017465" lon="-7.521998">
        <ele>490.453</ele>
        <time>1999-07-25T16:49:37Z</time>
      </trkpt>
      <trkpt lat="43.017389" lon="-7.522237">
        <ele>489.262</ele>
        <time>1999-07-25T16:49:40Z</time>
      </trkpt>
      <trkpt lat="43.017321" lon="-7.522439">
        <ele>488.483</ele>
        <time>1999-07-25T16:49:43Z</time>
      </trkpt>
      <trkpt lat="43.017274" lon="-7.522559">
        <ele>488.211</ele>
        <time>1999-07-25T16:49:45Z</time>
      </trkpt>
      <trkpt lat="43.017197" lon="-7.522725">
        <ele>488.208</ele>
        <time>1999-07-25T16:49:48Z</time>
      </trkpt>
      <trkpt lat="43.017170" lon="-7.522775">
        <ele>488.289</ele>
        <time>1999-07-25T16:49:49Z</time>
      </trkpt>
      <trkpt lat="43.016920" lon="-7.523166">
        <ele>488.425</ele>
        <time>1999-07-25T16:49:58Z</time>
      </trkpt>
      <trkpt lat="43.016672" lon="-7.523541">
        <ele>489.236</ele>
        <time>1999-07-25T16:50:07Z</time>
      </trkpt>
      <trkpt lat="43.016568" lon="-7.523633">
        <ele>489.431</ele>
        <time>1999-07-25T16:50:10Z</time>
      </trkpt>
      <trkpt lat="43.016528" lon="-7.523655">
        <ele>489.881</ele>
        <time>1999-07-25T16:50:11Z</time>
      </trkpt>
      <trkpt lat="43.016488" lon="-7.523675">
        <ele>490.098</ele>
        <time>1999-07-25T16:50:12Z</time>
      </trkpt>
      <trkpt lat="43.016409" lon="-7.523726">
        <ele>490.215</ele>
        <time>1999-07-25T16:50:14Z</time>
      </trkpt>
      <trkpt lat="43.016299" lon="-7.523824">
        <ele>490.483</ele>
        <time>1999-07-25T16:50:17Z</time>
      </trkpt>
      <trkpt lat="43.016263" lon="-7.523861">
        <ele>490.475</ele>
        <time>1999-07-25T16:50:18Z</time>
      </trkpt>
      <trkpt lat="43.016227" lon="-7.523899">
        <ele>490.628</ele>
        <time>1999-07-25T16:50:19Z</time>
      </trkpt>
      <trkpt lat="43.015929" lon="-7.524238">
        <ele>491.220</ele>
        <time>1999-07-25T16:50:27Z</time>
      </trkpt>
      <trkpt lat="43.015768" lon="-7.524425">
        <ele>491.208</ele>
        <time>1999-07-25T16:50:31Z</time>
      </trkpt>
      <trkpt lat="43.015605" lon="-7.524399">
        <ele>491.290</ele>
        <time>1999-07-25T16:50:34Z</time>
      </trkpt>
      <trkpt lat="43.015549" lon="-7.524370">
        <ele>491.246</ele>
        <time>1999-07-25T16:50:35Z</time>
      </trkpt>
      <trkpt lat="43.015377" lon="-7.524272">
        <ele>491.227</ele>
        <time>1999-07-25T16:50:38Z</time>
      </trkpt>
      <trkpt lat="43.015262" lon="-7.524203">
        <ele>490.662</ele>
        <time>1999-07-25T16:50:40Z</time>
      </trkpt>
      <trkpt lat="43.015206" lon="-7.524169">
        <ele>490.422</ele>
        <time>1999-07-25T16:50:41Z</time>
      </trkpt>
      <trkpt lat="43.015093" lon="-7.524107">
        <ele>490.029</ele>
        <time>1999-07-25T16:50:43Z</time>
      </trkpt>
      <trkpt lat="43.014974" lon="-7.524110">
        <ele>489.876</ele>
        <time>1999-07-25T16:50:45Z</time>
      </trkpt>
      <trkpt lat="43.014848" lon="-7.524260">
        <ele>489.294</ele>
        <time>1999-07-25T16:50:48Z</time>
      </trkpt>
      <trkpt lat="43.014621" lon="-7.524575">
        <ele>488.462</ele>
        <time>1999-07-25T16:50:54Z</time>
      </trkpt>
      <trkpt lat="43.014439" lon="-7.524804">
        <ele>488.483</ele>
        <time>1999-07-25T16:51:00Z</time>
      </trkpt>
      <trkpt lat="43.014424" lon="-7.524854">
        <ele>488.411</ele>
        <time>1999-07-25T16:51:01Z</time>
      </trkpt>
      <trkpt lat="43.014431" lon="-7.525024">
        <ele>488.608</ele>
        <time>1999-07-25T16:51:04Z</time>
      </trkpt>
      <trkpt lat="43.014484" lon="-7.525457">
        <ele>489.659</ele>
        <time>1999-07-25T16:51:11Z</time>
      </trkpt>
      <trkpt lat="43.014469" lon="-7.525843">
        <ele>489.625</ele>
        <time>1999-07-25T16:51:16Z</time>
      </trkpt>
      <trkpt lat="43.014456" lon="-7.526141">
        <ele>489.696</ele>
        <time>1999-07-25T16:51:19Z</time>
      </trkpt>
      <trkpt lat="43.014478" lon="-7.526357">
        <ele>489.261</ele>
        <time>1999-07-25T16:51:21Z</time>
      </trkpt>
      <trkpt lat="43.014517" lon="-7.526568">
        <ele>489.051</ele>
        <time>1999-07-25T16:51:23Z</time>
      </trkpt>
      <trkpt lat="43.014598" lon="-7.526857">
        <ele>488.028</ele>
        <time>1999-07-25T16:51:26Z</time>
      </trkpt>
      <trkpt lat="43.014649" lon="-7.527034">
        <ele>486.885</ele>
        <time>1999-07-25T16:51:28Z</time>
      </trkpt>
      <trkpt lat="43.014701" lon="-7.527276">
        <ele>485.613</ele>
        <time>1999-07-25T16:51:31Z</time>
      </trkpt>
      <trkpt lat="43.014755" lon="-7.527840">
        <ele>485.248</ele>
        <time>1999-07-25T16:51:38Z</time>
      </trkpt>
      <trkpt lat="43.014822" lon="-7.528443">
        <ele>485.061</ele>
        <time>1999-07-25T16:51:45Z</time>
      </trkpt>
      <trkpt lat="43.014883" lon="-7.529071">
        <ele>484.617</ele>
        <time>1999-07-25T16:51:52Z</time>
      </trkpt>
      <trkpt lat="43.014895" lon="-7.529226">
        <ele>484.408</ele>
        <time>1999-07-25T16:51:54Z</time>
      </trkpt>
      <trkpt lat="43.014864" lon="-7.529368">
        <ele>484.247</ele>
        <time>1999-07-25T16:51:56Z</time>
      </trkpt>
      <trkpt lat="43.014768" lon="-7.529556">
        <ele>483.843</ele>
        <time>1999-07-25T16:51:59Z</time>
      </trkpt>
      <trkpt lat="43.014747" lon="-7.529634">
        <ele>483.614</ele>
        <time>1999-07-25T16:52:00Z</time>
      </trkpt>
      <trkpt lat="43.014696" lon="-7.529812">
        <ele>482.839</ele>
        <time>1999-07-25T16:52:02Z</time>
      </trkpt>
      <trkpt lat="43.014671" lon="-7.529907">
        <ele>482.469</ele>
        <time>1999-07-25T16:52:03Z</time>
      </trkpt>
      <trkpt lat="43.014654" lon="-7.530003">
        <ele>482.056</ele>
        <time>1999-07-25T16:52:04Z</time>
      </trkpt>
      <trkpt lat="43.014643" lon="-7.530202">
        <ele>481.443</ele>
        <time>1999-07-25T16:52:06Z</time>
      </trkpt>
      <trkpt lat="43.014641" lon="-7.530298">
        <ele>481.231</ele>
        <time>1999-07-25T16:52:07Z</time>
      </trkpt>
      <trkpt lat="43.014624" lon="-7.530490">
        <ele>480.824</ele>
        <time>1999-07-25T16:52:09Z</time>
      </trkpt>
      <trkpt lat="43.014565" lon="-7.530769">
        <ele>480.204</ele>
        <time>1999-07-25T16:52:12Z</time>
      </trkpt>
      <trkpt lat="43.014483" lon="-7.531152">
        <ele>479.414</ele>
        <time>1999-07-25T16:52:16Z</time>
      </trkpt>
      <trkpt lat="43.014449" lon="-7.531319">
        <ele>479.208</ele>
        <time>1999-07-25T16:52:18Z</time>
      </trkpt>
      <trkpt lat="43.014359" lon="-7.531804">
        <ele>478.815</ele>
        <time>1999-07-25T16:52:24Z</time>
      </trkpt>
      <trkpt lat="43.014340" lon="-7.532071">
        <ele>478.691</ele>
        <time>1999-07-25T16:52:28Z</time>
      </trkpt>
      <trkpt lat="43.014344" lon="-7.532136">
        <ele>478.672</ele>
        <time>1999-07-25T16:52:29Z</time>
      </trkpt>
      <trkpt lat="43.014328" lon="-7.532330">
        <ele>478.627</ele>
        <time>1999-07-25T16:52:33Z</time>
      </trkpt>
      <trkpt lat="43.014321" lon="-7.532335">
        <ele>478.497</ele>
        <time>1999-07-25T16:52:36Z</time>
      </trkpt>
      <trkpt lat="43.014330" lon="-7.532410">
        <ele>477.254</ele>
        <time>1999-07-25T16:55:11Z</time>
      </trkpt>
      <trkpt lat="43.014324" lon="-7.532443">
        <ele>477.291</ele>
        <time>1999-07-25T16:55:12Z</time>
      </trkpt>
      <trkpt lat="43.014282" lon="-7.532590">
        <ele>477.059</ele>
        <time>1999-07-25T16:55:15Z</time>
      </trkpt>
      <trkpt lat="43.014191" lon="-7.532876">
        <ele>477.071</ele>
        <time>1999-07-25T16:55:19Z</time>
      </trkpt>
      <trkpt lat="43.014161" lon="-7.532956">
        <ele>477.041</ele>
        <time>1999-07-25T16:55:20Z</time>
      </trkpt>
      <trkpt lat="43.014079" lon="-7.533124">
        <ele>477.015</ele>
        <time>1999-07-25T16:55:22Z</time>
      </trkpt>
      <trkpt lat="43.013977" lon="-7.533291">
        <ele>476.808</ele>
        <time>1999-07-25T16:55:24Z</time>
      </trkpt>
      <trkpt lat="43.013831" lon="-7.533540">
        <ele>476.090</ele>
        <time>1999-07-25T16:55:27Z</time>
      </trkpt>
      <trkpt lat="43.013737" lon="-7.533683">
        <ele>475.496</ele>
        <time>1999-07-25T16:55:29Z</time>
      </trkpt>
      <trkpt lat="43.013616" lon="-7.533769">
        <ele>474.447</ele>
        <time>1999-07-25T16:55:31Z</time>
      </trkpt>
      <trkpt lat="43.013566" lon="-7.533781">
        <ele>473.692</ele>
        <time>1999-07-25T16:55:32Z</time>
      </trkpt>
      <trkpt lat="43.013528" lon="-7.533789">
        <ele>473.022</ele>
        <time>1999-07-25T16:55:33Z</time>
      </trkpt>
      <trkpt lat="43.013500" lon="-7.533798">
        <ele>472.829</ele>
        <time>1999-07-25T16:55:34Z</time>
      </trkpt>
      <trkpt lat="43.013465" lon="-7.533848">
        <ele>471.656</ele>
        <time>1999-07-25T16:55:36Z</time>
      </trkpt>
      <trkpt lat="43.013460" lon="-7.533934">
        <ele>469.644</ele>
        <time>1999-07-25T16:55:38Z</time>
      </trkpt>
      <trkpt lat="43.013467" lon="-7.533984">
        <ele>468.473</ele>
        <time>1999-07-25T16:55:39Z</time>
      </trkpt>
      <trkpt lat="43.013478" lon="-7.534035">
        <ele>467.485</ele>
        <time>1999-07-25T16:55:40Z</time>
      </trkpt>
      <trkpt lat="43.013493" lon="-7.534079">
        <ele>466.813</ele>
        <time>1999-07-25T16:55:41Z</time>
      </trkpt>
      <trkpt lat="43.013542" lon="-7.534148">
        <ele>465.408</ele>
        <time>1999-07-25T16:55:43Z</time>
      </trkpt>
      <trkpt lat="43.013575" lon="-7.534184">
        <ele>465.020</ele>
        <time>1999-07-25T16:55:44Z</time>
      </trkpt>
      <trkpt lat="43.013610" lon="-7.534227">
        <ele>464.876</ele>
        <time>1999-07-25T16:55:45Z</time>
      </trkpt>
      <trkpt lat="43.013689" lon="-7.534322">
        <ele>464.437</ele>
        <time>1999-07-25T16:55:47Z</time>
      </trkpt>
      <trkpt lat="43.013723" lon="-7.534385">
        <ele>464.222</ele>
        <time>1999-07-25T16:55:48Z</time>
      </trkpt>
      <trkpt lat="43.013754" lon="-7.534452">
        <ele>464.082</ele>
        <time>1999-07-25T16:55:49Z</time>
      </trkpt>
      <trkpt lat="43.013784" lon="-7.534602">
        <ele>463.499</ele>
        <time>1999-07-25T16:55:51Z</time>
      </trkpt>
      <trkpt lat="43.013777" lon="-7.534681">
        <ele>463.016</ele>
        <time>1999-07-25T16:55:52Z</time>
      </trkpt>
      <trkpt lat="43.013710" lon="-7.534889">
        <ele>462.454</ele>
        <time>1999-07-25T16:55:55Z</time>
      </trkpt>
      <trkpt lat="43.013683" lon="-7.534952">
        <ele>462.277</ele>
        <time>1999-07-25T16:55:56Z</time>
      </trkpt>
      <trkpt lat="43.013660" lon="-7.535017">
        <ele>462.061</ele>
        <time>1999-07-25T16:55:57Z</time>
      </trkpt>
      <trkpt lat="43.013640" lon="-7.535089">
        <ele>461.827</ele>
        <time>1999-07-25T16:55:58Z</time>
      </trkpt>
      <trkpt lat="43.013599" lon="-7.535327">
        <ele>461.408</ele>
        <time>1999-07-25T16:56:01Z</time>
      </trkpt>
      <trkpt lat="43.013588" lon="-7.535495">
        <ele>461.250</ele>
        <time>1999-07-25T16:56:03Z</time>
      </trkpt>
      <trkpt lat="43.013573" lon="-7.535815">
        <ele>460.676</ele>
        <time>1999-07-25T16:56:07Z</time>
      </trkpt>
      <trkpt lat="43.013536" lon="-7.536223">
        <ele>460.417</ele>
        <time>1999-07-25T16:56:13Z</time>
      </trkpt>
      <trkpt lat="43.013515" lon="-7.536558">
        <ele>460.682</ele>
        <time>1999-07-25T16:56:19Z</time>
      </trkpt>
      <trkpt lat="43.013494" lon="-7.536743">
        <ele>461.622</ele>
        <time>1999-07-25T16:56:23Z</time>
      </trkpt>
      <trkpt lat="43.013462" lon="-7.536827">
        <ele>461.829</ele>
        <time>1999-07-25T16:56:25Z</time>
      </trkpt>
      <trkpt lat="43.013403" lon="-7.537002">
        <ele>462.426</ele>
        <time>1999-07-25T16:56:29Z</time>
      </trkpt>
      <trkpt lat="43.013324" lon="-7.537162">
        <ele>463.254</ele>
        <time>1999-07-25T16:56:33Z</time>
      </trkpt>
      <trkpt lat="43.013284" lon="-7.537245">
        <ele>463.461</ele>
        <time>1999-07-25T16:56:35Z</time>
      </trkpt>
      <trkpt lat="43.013176" lon="-7.537440">
        <ele>464.021</ele>
        <time>1999-07-25T16:56:39Z</time>
      </trkpt>
      <trkpt lat="43.013149" lon="-7.537501">
        <ele>464.013</ele>
        <time>1999-07-25T16:56:40Z</time>
      </trkpt>
      <trkpt lat="43.013081" lon="-7.537732">
        <ele>464.408</ele>
        <time>1999-07-25T16:56:43Z</time>
      </trkpt>
      <trkpt lat="43.013063" lon="-7.537821">
        <ele>464.449</ele>
        <time>1999-07-25T16:56:44Z</time>
      </trkpt>
      <trkpt lat="43.013049" lon="-7.537914">
        <ele>464.485</ele>
        <time>1999-07-25T16:56:45Z</time>
      </trkpt>
      <trkpt lat="43.013022" lon="-7.538197">
        <ele>464.456</ele>
        <time>1999-07-25T16:56:48Z</time>
      </trkpt>
      <trkpt lat="43.012985" lon="-7.538456">
        <ele>463.421</ele>
        <time>1999-07-25T16:56:51Z</time>
      </trkpt>
      <trkpt lat="43.012964" lon="-7.538621">
        <ele>462.461</ele>
        <time>1999-07-25T16:56:53Z</time>
      </trkpt>
      <trkpt lat="43.012954" lon="-7.538698">
        <ele>462.068</ele>
        <time>1999-07-25T16:56:54Z</time>
      </trkpt>
      <trkpt lat="43.012883" lon="-7.539144">
        <ele>461.475</ele>
        <time>1999-07-25T16:57:00Z</time>
      </trkpt>
      <trkpt lat="43.012865" lon="-7.539219">
        <ele>461.263</ele>
        <time>1999-07-25T16:57:01Z</time>
      </trkpt>
      <trkpt lat="43.012787" lon="-7.539495">
        <ele>460.845</ele>
        <time>1999-07-25T16:57:05Z</time>
      </trkpt>
      <trkpt lat="43.012706" lon="-7.539694">
        <ele>460.847</ele>
        <time>1999-07-25T16:57:08Z</time>
      </trkpt>
      <trkpt lat="43.012579" lon="-7.539888">
        <ele>460.411</ele>
        <time>1999-07-25T16:57:11Z</time>
      </trkpt>
      <trkpt lat="43.012478" lon="-7.540022">
        <ele>460.208</ele>
        <time>1999-07-25T16:57:13Z</time>
      </trkpt>
      <trkpt lat="43.012337" lon="-7.540220">
        <ele>460.267</ele>
        <time>1999-07-25T16:57:16Z</time>
      </trkpt>
      <trkpt lat="43.012296" lon="-7.540294">
        <ele>460.043</ele>
        <time>1999-07-25T16:57:17Z</time>
      </trkpt>
      <trkpt lat="43.012256" lon="-7.540373">
        <ele>460.014</ele>
        <time>1999-07-25T16:57:18Z</time>
      </trkpt>
      <trkpt lat="43.012184" lon="-7.540539">
        <ele>460.039</ele>
        <time>1999-07-25T16:57:20Z</time>
      </trkpt>
      <trkpt lat="43.012130" lon="-7.540723">
        <ele>459.219</ele>
        <time>1999-07-25T16:57:22Z</time>
      </trkpt>
      <trkpt lat="43.012104" lon="-7.540822">
        <ele>458.866</ele>
        <time>1999-07-25T16:57:23Z</time>
      </trkpt>
      <trkpt lat="43.012062" lon="-7.541027">
        <ele>458.083</ele>
        <time>1999-07-25T16:57:25Z</time>
      </trkpt>
      <trkpt lat="43.012048" lon="-7.541235">
        <ele>456.651</ele>
        <time>1999-07-25T16:57:27Z</time>
      </trkpt>
      <trkpt lat="43.012064" lon="-7.541451">
        <ele>455.091</ele>
        <time>1999-07-25T16:57:29Z</time>
      </trkpt>
      <trkpt lat="43.012118" lon="-7.541664">
        <ele>454.081</ele>
        <time>1999-07-25T16:57:31Z</time>
      </trkpt>
      <trkpt lat="43.012246" lon="-7.542091">
        <ele>452.819</ele>
        <time>1999-07-25T16:57:35Z</time>
      </trkpt>
      <trkpt lat="43.012273" lon="-7.542206">
        <ele>452.408</ele>
        <time>1999-07-25T16:57:36Z</time>
      </trkpt>
      <trkpt lat="43.012304" lon="-7.542326">
        <ele>451.812</ele>
        <time>1999-07-25T16:57:37Z</time>
      </trkpt>
      <trkpt lat="43.012434" lon="-7.542821">
        <ele>450.648</ele>
        <time>1999-07-25T16:57:41Z</time>
      </trkpt>
      <trkpt lat="43.012474" lon="-7.542948">
        <ele>450.439</ele>
        <time>1999-07-25T16:57:42Z</time>
      </trkpt>
      <trkpt lat="43.012580" lon="-7.543201">
        <ele>449.294</ele>
        <time>1999-07-25T16:57:44Z</time>
      </trkpt>
      <trkpt lat="43.012701" lon="-7.543433">
        <ele>448.274</ele>
        <time>1999-07-25T16:57:46Z</time>
      </trkpt>
      <trkpt lat="43.012839" lon="-7.543639">
        <ele>446.811</ele>
        <time>1999-07-25T16:57:48Z</time>
      </trkpt>
      <trkpt lat="43.012919" lon="-7.543730">
        <ele>445.838</ele>
        <time>1999-07-25T16:57:49Z</time>
      </trkpt>
      <trkpt lat="43.012994" lon="-7.543817">
        <ele>445.076</ele>
        <time>1999-07-25T16:57:50Z</time>
      </trkpt>
      <trkpt lat="43.013068" lon="-7.543900">
        <ele>444.432</ele>
        <time>1999-07-25T16:57:51Z</time>
      </trkpt>
      <trkpt lat="43.013138" lon="-7.543990">
        <ele>442.692</ele>
        <time>1999-07-25T16:57:52Z</time>
      </trkpt>
      <trkpt lat="43.013203" lon="-7.544088">
        <ele>441.011</ele>
        <time>1999-07-25T16:57:53Z</time>
      </trkpt>
      <trkpt lat="43.013264" lon="-7.544195">
        <ele>439.808</ele>
        <time>1999-07-25T16:57:54Z</time>
      </trkpt>
      <trkpt lat="43.013372" lon="-7.544424">
        <ele>437.836</ele>
        <time>1999-07-25T16:57:56Z</time>
      </trkpt>
      <trkpt lat="43.013413" lon="-7.544536">
        <ele>436.672</ele>
        <time>1999-07-25T16:57:57Z</time>
      </trkpt>
      <trkpt lat="43.013454" lon="-7.544635">
        <ele>435.483</ele>
        <time>1999-07-25T16:57:58Z</time>
      </trkpt>
      <trkpt lat="43.013503" lon="-7.544724">
        <ele>434.418</ele>
        <time>1999-07-25T16:57:59Z</time>
      </trkpt>
      <trkpt lat="43.013562" lon="-7.544801">
        <ele>433.878</ele>
        <time>1999-07-25T16:58:00Z</time>
      </trkpt>
      <trkpt lat="43.013623" lon="-7.544864">
        <ele>432.465</ele>
        <time>1999-07-25T16:58:01Z</time>
      </trkpt>
      <trkpt lat="43.013670" lon="-7.544924">
        <ele>431.292</ele>
        <time>1999-07-25T16:58:02Z</time>
      </trkpt>
      <trkpt lat="43.013707" lon="-7.545102">
        <ele>430.090</ele>
        <time>1999-07-25T16:58:04Z</time>
      </trkpt>
      <trkpt lat="43.013710" lon="-7.545297">
        <ele>429.019</ele>
        <time>1999-07-25T16:58:06Z</time>
      </trkpt>
      <trkpt lat="43.013709" lon="-7.545384">
        <ele>428.409</ele>
        <time>1999-07-25T16:58:07Z</time>
      </trkpt>
      <trkpt lat="43.013700" lon="-7.545465">
        <ele>427.219</ele>
        <time>1999-07-25T16:58:08Z</time>
      </trkpt>
      <trkpt lat="43.013676" lon="-7.545538">
        <ele>425.808</ele>
        <time>1999-07-25T16:58:09Z</time>
      </trkpt>
      <trkpt lat="43.013641" lon="-7.545606">
        <ele>424.644</ele>
        <time>1999-07-25T16:58:10Z</time>
      </trkpt>
      <trkpt lat="43.013595" lon="-7.545671">
        <ele>423.690</ele>
        <time>1999-07-25T16:58:11Z</time>
      </trkpt>
      <trkpt lat="43.013541" lon="-7.545741">
        <ele>422.621</ele>
        <time>1999-07-25T16:58:12Z</time>
      </trkpt>
      <trkpt lat="43.013438" lon="-7.545868">
        <ele>421.466</ele>
        <time>1999-07-25T16:58:14Z</time>
      </trkpt>
      <trkpt lat="43.013409" lon="-7.545927">
        <ele>420.496</ele>
        <time>1999-07-25T16:58:15Z</time>
      </trkpt>
      <trkpt lat="43.013394" lon="-7.545982">
        <ele>419.433</ele>
        <time>1999-07-25T16:58:16Z</time>
      </trkpt>
      <trkpt lat="43.013415" lon="-7.546054">
        <ele>417.620</ele>
        <time>1999-07-25T16:58:18Z</time>
      </trkpt>
      <trkpt lat="43.013488" lon="-7.546084">
        <ele>416.238</ele>
        <time>1999-07-25T16:58:20Z</time>
      </trkpt>
      <trkpt lat="43.013534" lon="-7.546097">
        <ele>415.637</ele>
        <time>1999-07-25T16:58:21Z</time>
      </trkpt>
      <trkpt lat="43.013582" lon="-7.546109">
        <ele>413.649</ele>
        <time>1999-07-25T16:58:22Z</time>
      </trkpt>
      <trkpt lat="43.013631" lon="-7.546124">
        <ele>412.413</ele>
        <time>1999-07-25T16:58:23Z</time>
      </trkpt>
      <trkpt lat="43.013715" lon="-7.546178">
        <ele>410.808</ele>
        <time>1999-07-25T16:58:25Z</time>
      </trkpt>
      <trkpt lat="43.013748" lon="-7.546218">
        <ele>410.626</ele>
        <time>1999-07-25T16:58:26Z</time>
      </trkpt>
      <trkpt lat="43.013792" lon="-7.546297">
        <ele>410.242</ele>
        <time>1999-07-25T16:58:28Z</time>
      </trkpt>
      <trkpt lat="43.013856" lon="-7.546385">
        <ele>410.293</ele>
        <time>1999-07-25T16:58:31Z</time>
      </trkpt>
      <trkpt lat="43.013970" lon="-7.546471">
        <ele>410.268</ele>
        <time>1999-07-25T16:58:35Z</time>
      </trkpt>
      <trkpt lat="43.014025" lon="-7.546493">
        <ele>410.248</ele>
        <time>1999-07-25T16:58:37Z</time>
      </trkpt>
      <trkpt lat="43.014074" lon="-7.546510">
        <ele>410.695</ele>
        <time>1999-07-25T16:58:39Z</time>
      </trkpt>
      <trkpt lat="43.014115" lon="-7.546548">
        <ele>410.642</ele>
        <time>1999-07-25T16:58:41Z</time>
      </trkpt>
      <trkpt lat="43.014136" lon="-7.546563">
        <ele>410.680</ele>
        <time>1999-07-25T16:58:42Z</time>
      </trkpt>
      <trkpt lat="43.014183" lon="-7.546570">
        <ele>410.628</ele>
        <time>1999-07-25T16:58:44Z</time>
      </trkpt>
      <trkpt lat="43.014246" lon="-7.546594">
        <ele>411.489</ele>
        <time>1999-07-25T16:58:47Z</time>
      </trkpt>
      <trkpt lat="43.014266" lon="-7.546601">
        <ele>411.817</ele>
        <time>1999-07-25T16:58:48Z</time>
      </trkpt>
      <trkpt lat="43.014304" lon="-7.546619">
        <ele>412.408</ele>
        <time>1999-07-25T16:58:50Z</time>
      </trkpt>
      <trkpt lat="43.014362" lon="-7.546658">
        <ele>413.475</ele>
        <time>1999-07-25T16:58:53Z</time>
      </trkpt>
      <trkpt lat="43.014397" lon="-7.546697">
        <ele>414.211</ele>
        <time>1999-07-25T16:58:55Z</time>
      </trkpt>
      <trkpt lat="43.014424" lon="-7.546751">
        <ele>414.632</ele>
        <time>1999-07-25T16:58:57Z</time>
      </trkpt>
      <trkpt lat="43.014451" lon="-7.546892">
        <ele>415.287</ele>
        <time>1999-07-25T16:59:01Z</time>
      </trkpt>
      <trkpt lat="43.014442" lon="-7.546965">
        <ele>415.637</ele>
        <time>1999-07-25T16:59:03Z</time>
      </trkpt>
      <trkpt lat="43.014411" lon="-7.547066">
        <ele>416.474</ele>
        <time>1999-07-25T16:59:06Z</time>
      </trkpt>
      <trkpt lat="43.014381" lon="-7.547129">
        <ele>416.881</ele>
        <time>1999-07-25T16:59:08Z</time>
      </trkpt>
      <trkpt lat="43.014325" lon="-7.547254">
        <ele>417.269</ele>
        <time>1999-07-25T16:59:12Z</time>
      </trkpt>
      <trkpt lat="43.014262" lon="-7.547384">
        <ele>417.862</ele>
        <time>1999-07-25T16:59:16Z</time>
      </trkpt>
      <trkpt lat="43.014217" lon="-7.547506">
        <ele>418.483</ele>
        <time>1999-07-25T16:59:20Z</time>
      </trkpt>
      <trkpt lat="43.014187" lon="-7.547566">
        <ele>418.811</ele>
        <time>1999-07-25T16:59:22Z</time>
      </trkpt>
      <trkpt lat="43.014106" lon="-7.547757">
        <ele>420.008</ele>
        <time>1999-07-25T16:59:28Z</time>
      </trkpt>
      <trkpt lat="43.013970" lon="-7.547926">
        <ele>421.029</ele>
        <time>1999-07-25T16:59:35Z</time>
      </trkpt>
      <trkpt lat="43.013948" lon="-7.547941">
        <ele>421.245</ele>
        <time>1999-07-25T16:59:36Z</time>
      </trkpt>
      <trkpt lat="43.013801" lon="-7.548009">
        <ele>422.246</ele>
        <time>1999-07-25T16:59:42Z</time>
      </trkpt>
      <trkpt lat="43.013777" lon="-7.548022">
        <ele>422.491</ele>
        <time>1999-07-25T16:59:43Z</time>
      </trkpt>
      <trkpt lat="43.013707" lon="-7.548066">
        <ele>423.221</ele>
        <time>1999-07-25T16:59:46Z</time>
      </trkpt>
      <trkpt lat="43.013681" lon="-7.548079">
        <ele>423.438</ele>
        <time>1999-07-25T16:59:47Z</time>
      </trkpt>
      <trkpt lat="43.013580" lon="-7.548145">
        <ele>424.225</ele>
        <time>1999-07-25T16:59:51Z</time>
      </trkpt>
      <trkpt lat="43.013529" lon="-7.548178">
        <ele>424.413</ele>
        <time>1999-07-25T16:59:53Z</time>
      </trkpt>
      <trkpt lat="43.013364" lon="-7.548295">
        <ele>425.446</ele>
        <time>1999-07-25T17:00:00Z</time>
      </trkpt>
      <trkpt lat="43.013318" lon="-7.548335">
        <ele>425.888</ele>
        <time>1999-07-25T17:00:02Z</time>
      </trkpt>
      <trkpt lat="43.013191" lon="-7.548427">
        <ele>426.816</ele>
        <time>1999-07-25T17:00:07Z</time>
      </trkpt>
      <trkpt lat="43.013169" lon="-7.548450">
        <ele>427.208</ele>
        <time>1999-07-25T17:00:08Z</time>
      </trkpt>
      <trkpt lat="43.013075" lon="-7.548493">
        <ele>427.647</ele>
        <time>1999-07-25T17:00:12Z</time>
      </trkpt>
      <trkpt lat="43.012951" lon="-7.548493">
        <ele>427.863</ele>
        <time>1999-07-25T17:00:17Z</time>
      </trkpt>
      <trkpt lat="43.012928" lon="-7.548496">
        <ele>428.014</ele>
        <time>1999-07-25T17:00:18Z</time>
      </trkpt>
      <trkpt lat="43.012873" lon="-7.548537">
        <ele>429.079</ele>
        <time>1999-07-25T17:00:21Z</time>
      </trkpt>
      <trkpt lat="43.012871" lon="-7.548557">
        <ele>429.499</ele>
        <time>1999-07-25T17:00:22Z</time>
      </trkpt>
      <trkpt lat="43.012924" lon="-7.548565">
        <ele>430.076</ele>
        <time>1999-07-25T17:00:25Z</time>
      </trkpt>
      <trkpt lat="43.013015" lon="-7.548551">
        <ele>431.433</ele>
        <time>1999-07-25T17:00:29Z</time>
      </trkpt>
      <trkpt lat="43.013044" lon="-7.548560">
        <ele>431.871</ele>
        <time>1999-07-25T17:00:30Z</time>
      </trkpt>
      <trkpt lat="43.013117" lon="-7.548582">
        <ele>432.465</ele>
        <time>1999-07-25T17:00:33Z</time>
      </trkpt>
      <trkpt lat="43.013187" lon="-7.548625">
        <ele>432.868</ele>
        <time>1999-07-25T17:00:36Z</time>
      </trkpt>
      <trkpt lat="43.013330" lon="-7.548823">
        <ele>433.614</ele>
        <time>1999-07-25T17:00:42Z</time>
      </trkpt>
      <trkpt lat="43.013470" lon="-7.549083">
        <ele>434.608</ele>
        <time>1999-07-25T17:00:49Z</time>
      </trkpt>
      <trkpt lat="43.013485" lon="-7.549121">
        <ele>434.869</ele>
        <time>1999-07-25T17:00:50Z</time>
      </trkpt>
      <trkpt lat="43.013511" lon="-7.549292">
        <ele>435.285</ele>
        <time>1999-07-25T17:00:54Z</time>
      </trkpt>
      <trkpt lat="43.013433" lon="-7.549450">
        <ele>435.666</ele>
        <time>1999-07-25T17:00:59Z</time>
      </trkpt>
      <trkpt lat="43.013346" lon="-7.549470">
        <ele>435.891</ele>
        <time>1999-07-25T17:01:02Z</time>
      </trkpt>
      <trkpt lat="43.013277" lon="-7.549476">
        <ele>436.291</ele>
        <time>1999-07-25T17:01:04Z</time>
      </trkpt>
      <trkpt lat="43.013212" lon="-7.549465">
        <ele>436.828</ele>
        <time>1999-07-25T17:01:06Z</time>
      </trkpt>
      <trkpt lat="43.013082" lon="-7.549427">
        <ele>438.065</ele>
        <time>1999-07-25T17:01:10Z</time>
      </trkpt>
      <trkpt lat="43.013050" lon="-7.549416">
        <ele>438.253</ele>
        <time>1999-07-25T17:01:11Z</time>
      </trkpt>
      <trkpt lat="43.012878" lon="-7.549376">
        <ele>439.228</ele>
        <time>1999-07-25T17:01:16Z</time>
      </trkpt>
      <trkpt lat="43.012803" lon="-7.549362">
        <ele>439.489</ele>
        <time>1999-07-25T17:01:18Z</time>
      </trkpt>
      <trkpt lat="43.012568" lon="-7.549404">
        <ele>440.217</ele>
        <time>1999-07-25T17:01:24Z</time>
      </trkpt>
      <trkpt lat="43.012384" lon="-7.549443">
        <ele>440.208</ele>
        <time>1999-07-25T17:01:28Z</time>
      </trkpt>
      <trkpt lat="43.012279" lon="-7.549460">
        <ele>440.245</ele>
        <time>1999-07-25T17:01:30Z</time>
      </trkpt>
      <trkpt lat="43.012104" lon="-7.549454">
        <ele>440.061</ele>
        <time>1999-07-25T17:01:33Z</time>
      </trkpt>
      <trkpt lat="43.011917" lon="-7.549415">
        <ele>439.822</ele>
        <time>1999-07-25T17:01:36Z</time>
      </trkpt>
      <trkpt lat="43.011647" lon="-7.549328">
        <ele>439.297</ele>
        <time>1999-07-25T17:01:40Z</time>
      </trkpt>
      <trkpt lat="43.011577" lon="-7.549301">
        <ele>439.217</ele>
        <time>1999-07-25T17:01:41Z</time>
      </trkpt>
      <trkpt lat="43.011434" lon="-7.549240">
        <ele>438.844</ele>
        <time>1999-07-25T17:01:43Z</time>
      </trkpt>
      <trkpt lat="43.011291" lon="-7.549172">
        <ele>438.281</ele>
        <time>1999-07-25T17:01:45Z</time>
      </trkpt>
      <trkpt lat="43.011217" lon="-7.549139">
        <ele>438.059</ele>
        <time>1999-07-25T17:01:46Z</time>
      </trkpt>
      <trkpt lat="43.011029" lon="-7.549026">
        <ele>437.478</ele>
        <time>1999-07-25T17:01:49Z</time>
      </trkpt>
      <trkpt lat="43.010923" lon="-7.548969">
        <ele>436.833</ele>
        <time>1999-07-25T17:01:51Z</time>
      </trkpt>
      <trkpt lat="43.010827" lon="-7.548960">
        <ele>436.426</ele>
        <time>1999-07-25T17:01:53Z</time>
      </trkpt>
      <trkpt lat="43.010740" lon="-7.548986">
        <ele>436.008</ele>
        <time>1999-07-25T17:01:55Z</time>
      </trkpt>
      <trkpt lat="43.010698" lon="-7.549028">
        <ele>435.850</ele>
        <time>1999-07-25T17:01:57Z</time>
      </trkpt>
      <trkpt lat="43.010685" lon="-7.549049">
        <ele>435.836</ele>
        <time>1999-07-25T17:01:58Z</time>
      </trkpt>
      <trkpt lat="43.010672" lon="-7.549072">
        <ele>435.817</ele>
        <time>1999-07-25T17:01:59Z</time>
      </trkpt>
      <trkpt lat="43.010654" lon="-7.549139">
        <ele>435.842</ele>
        <time>1999-07-25T17:02:01Z</time>
      </trkpt>
      <trkpt lat="43.010647" lon="-7.549173">
        <ele>435.822</ele>
        <time>1999-07-25T17:02:02Z</time>
      </trkpt>
      <trkpt lat="43.010649" lon="-7.549274">
        <ele>435.859</ele>
        <time>1999-07-25T17:02:04Z</time>
      </trkpt>
      <trkpt lat="43.010649" lon="-7.549317">
        <ele>435.866</ele>
        <time>1999-07-25T17:02:05Z</time>
      </trkpt>
      <trkpt lat="43.010659" lon="-7.549402">
        <ele>436.054</ele>
        <time>1999-07-25T17:02:07Z</time>
      </trkpt>
      <trkpt lat="43.010672" lon="-7.549446">
        <ele>436.277</ele>
        <time>1999-07-25T17:02:08Z</time>
      </trkpt>
      <trkpt lat="43.010699" lon="-7.549522">
        <ele>436.861</ele>
        <time>1999-07-25T17:02:10Z</time>
      </trkpt>
      <trkpt lat="43.010803" lon="-7.549614">
        <ele>438.027</ele>
        <time>1999-07-25T17:02:13Z</time>
      </trkpt>
      <trkpt lat="43.010860" lon="-7.549717">
        <ele>439.208</ele>
        <time>1999-07-25T17:02:16Z</time>
      </trkpt>
      <trkpt lat="43.010893" lon="-7.549773">
        <ele>440.410</ele>
        <time>1999-07-25T17:02:18Z</time>
      </trkpt>
      <trkpt lat="43.010935" lon="-7.549828">
        <ele>441.646</ele>
        <time>1999-07-25T17:02:20Z</time>
      </trkpt>
      <trkpt lat="43.010990" lon="-7.549913">
        <ele>443.087</ele>
        <time>1999-07-25T17:02:23Z</time>
      </trkpt>
      <trkpt lat="43.010996" lon="-7.549948">
        <ele>443.432</ele>
        <time>1999-07-25T17:02:24Z</time>
      </trkpt>
      <trkpt lat="43.010995" lon="-7.550020">
        <ele>444.252</ele>
        <time>1999-07-25T17:02:26Z</time>
      </trkpt>
      <trkpt lat="43.010972" lon="-7.550130">
        <ele>445.099</ele>
        <time>1999-07-25T17:02:29Z</time>
      </trkpt>
      <trkpt lat="43.010966" lon="-7.550168">
        <ele>445.446</ele>
        <time>1999-07-25T17:02:30Z</time>
      </trkpt>
      <trkpt lat="43.010905" lon="-7.550331">
        <ele>446.454</ele>
        <time>1999-07-25T17:02:35Z</time>
      </trkpt>
      <trkpt lat="43.010894" lon="-7.550364">
        <ele>446.892</ele>
        <time>1999-07-25T17:02:36Z</time>
      </trkpt>
      <trkpt lat="43.010882" lon="-7.550432">
        <ele>447.473</ele>
        <time>1999-07-25T17:02:38Z</time>
      </trkpt>
      <trkpt lat="43.010862" lon="-7.550573">
        <ele>448.820</ele>
        <time>1999-07-25T17:02:42Z</time>
      </trkpt>
      <trkpt lat="43.010852" lon="-7.550651">
        <ele>449.408</ele>
        <time>1999-07-25T17:02:44Z</time>
      </trkpt>
      <trkpt lat="43.010839" lon="-7.550725">
        <ele>450.022</ele>
        <time>1999-07-25T17:02:46Z</time>
      </trkpt>
      <trkpt lat="43.010820" lon="-7.550810">
        <ele>451.098</ele>
        <time>1999-07-25T17:02:49Z</time>
      </trkpt>
      <trkpt lat="43.010797" lon="-7.550852">
        <ele>451.429</ele>
        <time>1999-07-25T17:02:51Z</time>
      </trkpt>
      <trkpt lat="43.010751" lon="-7.550917">
        <ele>452.034</ele>
        <time>1999-07-25T17:02:54Z</time>
      </trkpt>
      <trkpt lat="43.010692" lon="-7.550966">
        <ele>452.894</ele>
        <time>1999-07-25T17:02:57Z</time>
      </trkpt>
      <trkpt lat="43.010670" lon="-7.550978">
        <ele>453.221</ele>
        <time>1999-07-25T17:02:58Z</time>
      </trkpt>
      <trkpt lat="43.010606" lon="-7.551067">
        <ele>454.248</ele>
        <time>1999-07-25T17:03:02Z</time>
      </trkpt>
      <trkpt lat="43.010566" lon="-7.551119">
        <ele>454.646</ele>
        <time>1999-07-25T17:03:04Z</time>
      </trkpt>
      <trkpt lat="43.010509" lon="-7.551193">
        <ele>455.441</ele>
        <time>1999-07-25T17:03:07Z</time>
      </trkpt>
      <trkpt lat="43.010468" lon="-7.551269">
        <ele>456.081</ele>
        <time>1999-07-25T17:03:10Z</time>
      </trkpt>
      <trkpt lat="43.010442" lon="-7.551321">
        <ele>456.409</ele>
        <time>1999-07-25T17:03:12Z</time>
      </trkpt>
      <trkpt lat="43.010364" lon="-7.551433">
        <ele>457.208</ele>
        <time>1999-07-25T17:03:17Z</time>
      </trkpt>
      <trkpt lat="43.010306" lon="-7.551491">
        <ele>458.297</ele>
        <time>1999-07-25T17:03:20Z</time>
      </trkpt>
      <trkpt lat="43.010211" lon="-7.551566">
        <ele>459.443</ele>
        <time>1999-07-25T17:03:25Z</time>
      </trkpt>
      <trkpt lat="43.010194" lon="-7.551580">
        <ele>459.694</ele>
        <time>1999-07-25T17:03:26Z</time>
      </trkpt>
      <trkpt lat="43.010116" lon="-7.551683">
        <ele>460.659</ele>
        <time>1999-07-25T17:03:31Z</time>
      </trkpt>
      <trkpt lat="43.010059" lon="-7.551743">
        <ele>461.429</ele>
        <time>1999-07-25T17:03:34Z</time>
      </trkpt>
      <trkpt lat="43.010041" lon="-7.551760">
        <ele>461.636</ele>
        <time>1999-07-25T17:03:35Z</time>
      </trkpt>
      <trkpt lat="43.009984" lon="-7.551819">
        <ele>462.063</ele>
        <time>1999-07-25T17:03:38Z</time>
      </trkpt>
      <trkpt lat="43.009952" lon="-7.551873">
        <ele>462.681</ele>
        <time>1999-07-25T17:03:40Z</time>
      </trkpt>
      <trkpt lat="43.009959" lon="-7.552062">
        <ele>463.487</ele>
        <time>1999-07-25T17:03:44Z</time>
      </trkpt>
      <trkpt lat="43.009969" lon="-7.552098">
        <ele>463.442</ele>
        <time>1999-07-25T17:03:45Z</time>
      </trkpt>
      <trkpt lat="43.009981" lon="-7.552130">
        <ele>463.626</ele>
        <time>1999-07-25T17:03:46Z</time>
      </trkpt>
      <trkpt lat="43.010022" lon="-7.552256">
        <ele>464.208</ele>
        <time>1999-07-25T17:03:50Z</time>
      </trkpt>
      <trkpt lat="43.010062" lon="-7.552332">
        <ele>464.221</ele>
        <time>1999-07-25T17:03:53Z</time>
      </trkpt>
      <trkpt lat="43.010145" lon="-7.552431">
        <ele>464.497</ele>
        <time>1999-07-25T17:03:58Z</time>
      </trkpt>
      <trkpt lat="43.010183" lon="-7.552476">
        <ele>464.468</ele>
        <time>1999-07-25T17:04:01Z</time>
      </trkpt>
      <trkpt lat="43.010201" lon="-7.552508">
        <ele>464.833</ele>
        <time>1999-07-25T17:04:03Z</time>
      </trkpt>
      <trkpt lat="43.010197" lon="-7.552536">
        <ele>464.833</ele>
        <time>1999-07-25T17:04:04Z</time>
      </trkpt>
      <trkpt lat="43.010174" lon="-7.552652">
        <ele>465.270</ele>
        <time>1999-07-25T17:04:07Z</time>
      </trkpt>
      <trkpt lat="43.010182" lon="-7.552740">
        <ele>465.857</ele>
        <time>1999-07-25T17:04:10Z</time>
      </trkpt>
      <trkpt lat="43.010172" lon="-7.552905">
        <ele>466.665</ele>
        <time>1999-07-25T17:04:14Z</time>
      </trkpt>
      <trkpt lat="43.010181" lon="-7.552965">
        <ele>466.842</ele>
        <time>1999-07-25T17:04:16Z</time>
      </trkpt>
      <trkpt lat="43.010195" lon="-7.553025">
        <ele>467.222</ele>
        <time>1999-07-25T17:04:20Z</time>
      </trkpt>
      <trkpt lat="43.010174" lon="-7.553156">
        <ele>467.214</ele>
        <time>1999-07-25T17:04:44Z</time>
      </trkpt>
      <trkpt lat="43.010100" lon="-7.553284">
        <ele>467.408</ele>
        <time>1999-07-25T17:04:48Z</time>
      </trkpt>
      <trkpt lat="43.010031" lon="-7.553349">
        <ele>467.847</ele>
        <time>1999-07-25T17:04:51Z</time>
      </trkpt>
      <trkpt lat="43.009965" lon="-7.553406">
        <ele>468.413</ele>
        <time>1999-07-25T17:04:54Z</time>
      </trkpt>
      <trkpt lat="43.009881" lon="-7.553484">
        <ele>469.084</ele>
        <time>1999-07-25T17:04:58Z</time>
      </trkpt>
      <trkpt lat="43.009799" lon="-7.553566">
        <ele>469.249</ele>
        <time>1999-07-25T17:05:02Z</time>
      </trkpt>
      <trkpt lat="43.009680" lon="-7.553704">
        <ele>469.619</ele>
        <time>1999-07-25T17:05:09Z</time>
      </trkpt>
      <trkpt lat="43.009674" lon="-7.553710">
        <ele>469.846</ele>
        <time>1999-07-25T17:05:11Z</time>
      </trkpt>
      <trkpt lat="43.009627" lon="-7.553764">
        <ele>470.243</ele>
        <time>1999-07-25T17:05:24Z</time>
      </trkpt>
      <trkpt lat="43.009527" lon="-7.553868">
        <ele>470.411</ele>
        <time>1999-07-25T17:05:29Z</time>
      </trkpt>
      <trkpt lat="43.009446" lon="-7.553950">
        <ele>471.036</ele>
        <time>1999-07-25T17:05:33Z</time>
      </trkpt>
      <trkpt lat="43.009385" lon="-7.554010">
        <ele>471.217</ele>
        <time>1999-07-25T17:05:37Z</time>
      </trkpt>
      <trkpt lat="43.009381" lon="-7.554014">
        <ele>471.218</ele>
        <time>1999-07-25T17:05:38Z</time>
      </trkpt>
      <trkpt lat="43.009381" lon="-7.554014">
        <ele>471.408</ele>
        <time>1999-07-25T17:05:39Z</time>
      </trkpt>
      <trkpt lat="43.009313" lon="-7.554079">
        <ele>472.456</ele>
        <time>1999-07-25T17:07:33Z</time>
      </trkpt>
      <trkpt lat="43.009301" lon="-7.554086">
        <ele>472.652</ele>
        <time>1999-07-25T17:07:34Z</time>
      </trkpt>
      <trkpt lat="43.009211" lon="-7.554145">
        <ele>472.663</ele>
        <time>1999-07-25T17:07:42Z</time>
      </trkpt>
      <trkpt lat="43.009201" lon="-7.554155">
        <ele>472.638</ele>
        <time>1999-07-25T17:07:43Z</time>
      </trkpt>
      <trkpt lat="43.009177" lon="-7.554172">
        <ele>472.828</ele>
        <time>1999-07-25T17:07:47Z</time>
      </trkpt>
      <trkpt lat="43.009104" lon="-7.554233">
        <ele>472.825</ele>
        <time>1999-07-25T17:08:43Z</time>
      </trkpt>
      <trkpt lat="43.009026" lon="-7.554435">
        <ele>472.482</ele>
        <time>1999-07-25T17:08:48Z</time>
      </trkpt>
      <trkpt lat="43.008973" lon="-7.554638">
        <ele>472.490</ele>
        <time>1999-07-25T17:08:52Z</time>
      </trkpt>
      <trkpt lat="43.008950" lon="-7.554751">
        <ele>472.291</ele>
        <time>1999-07-25T17:08:54Z</time>
      </trkpt>
      <trkpt lat="43.008944" lon="-7.554802">
        <ele>472.281</ele>
        <time>1999-07-25T17:08:55Z</time>
      </trkpt>
      <trkpt lat="43.008917" lon="-7.554976">
        <ele>472.019</ele>
        <time>1999-07-25T17:08:59Z</time>
      </trkpt>
      <trkpt lat="43.008890" lon="-7.555074">
        <ele>471.808</ele>
        <time>1999-07-25T17:09:01Z</time>
      </trkpt>
      <trkpt lat="43.008866" lon="-7.555120">
        <ele>471.632</ele>
        <time>1999-07-25T17:09:02Z</time>
      </trkpt>
      <trkpt lat="43.008805" lon="-7.555309">
        <ele>471.438</ele>
        <time>1999-07-25T17:09:05Z</time>
      </trkpt>
      <trkpt lat="43.008790" lon="-7.555372">
        <ele>471.459</ele>
        <time>1999-07-25T17:09:06Z</time>
      </trkpt>
      <trkpt lat="43.008734" lon="-7.555659">
        <ele>471.234</ele>
        <time>1999-07-25T17:09:10Z</time>
      </trkpt>
      <trkpt lat="43.008715" lon="-7.555726">
        <ele>471.274</ele>
        <time>1999-07-25T17:09:11Z</time>
      </trkpt>
      <trkpt lat="43.008625" lon="-7.556094">
        <ele>470.481</ele>
        <time>1999-07-25T17:09:16Z</time>
      </trkpt>
      <trkpt lat="43.008591" lon="-7.556254">
        <ele>469.838</ele>
        <time>1999-07-25T17:09:18Z</time>
      </trkpt>
      <trkpt lat="43.008543" lon="-7.556495">
        <ele>469.266</ele>
        <time>1999-07-25T17:09:21Z</time>
      </trkpt>
      <trkpt lat="43.008534" lon="-7.556565">
        <ele>469.045</ele>
        <time>1999-07-25T17:09:22Z</time>
      </trkpt>
      <trkpt lat="43.008528" lon="-7.556631">
        <ele>468.847</ele>
        <time>1999-07-25T17:09:23Z</time>
      </trkpt>
      <trkpt lat="43.008513" lon="-7.556756">
        <ele>468.411</ele>
        <time>1999-07-25T17:09:25Z</time>
      </trkpt>
      <trkpt lat="43.008493" lon="-7.556813">
        <ele>468.208</ele>
        <time>1999-07-25T17:09:26Z</time>
      </trkpt>
      <trkpt lat="43.008453" lon="-7.556933">
        <ele>467.847</ele>
        <time>1999-07-25T17:09:28Z</time>
      </trkpt>
      <trkpt lat="43.008373" lon="-7.557177">
        <ele>466.833</ele>
        <time>1999-07-25T17:09:32Z</time>
      </trkpt>
      <trkpt lat="43.008356" lon="-7.557241">
        <ele>466.664</ele>
        <time>1999-07-25T17:09:33Z</time>
      </trkpt>
      <trkpt lat="43.008351" lon="-7.557306">
        <ele>466.489</ele>
        <time>1999-07-25T17:09:34Z</time>
      </trkpt>
      <trkpt lat="43.008355" lon="-7.557511">
        <ele>466.099</ele>
        <time>1999-07-25T17:09:37Z</time>
      </trkpt>
      <trkpt lat="43.008350" lon="-7.557658">
        <ele>466.066</ele>
        <time>1999-07-25T17:09:39Z</time>
      </trkpt>
      <trkpt lat="43.008335" lon="-7.557816">
        <ele>465.223</ele>
        <time>1999-07-25T17:09:41Z</time>
      </trkpt>
      <trkpt lat="43.008315" lon="-7.557977">
        <ele>464.431</ele>
        <time>1999-07-25T17:09:44Z</time>
      </trkpt>
      <trkpt lat="43.008317" lon="-7.557993">
        <ele>464.431</ele>
        <time>1999-07-25T17:09:45Z</time>
      </trkpt>
      <trkpt lat="43.008321" lon="-7.557999">
        <ele>464.261</ele>
        <time>1999-07-25T17:09:47Z</time>
      </trkpt>
      <trkpt lat="43.008321" lon="-7.558003">
        <ele>464.207</ele>
        <time>1999-07-25T17:09:48Z</time>
      </trkpt>
      <trkpt lat="43.008199" lon="-7.558155">
        <ele>462.408</ele>
        <time>1999-07-25T17:10:05Z</time>
      </trkpt>
      <trkpt lat="43.008194" lon="-7.558190">
        <ele>462.426</ele>
        <time>1999-07-25T17:10:06Z</time>
      </trkpt>
      <trkpt lat="43.008210" lon="-7.558229">
        <ele>462.482</ele>
        <time>1999-07-25T17:10:07Z</time>
      </trkpt>
      <trkpt lat="43.008262" lon="-7.558390">
        <ele>462.473</ele>
        <time>1999-07-25T17:10:10Z</time>
      </trkpt>
      <trkpt lat="43.008276" lon="-7.558456">
        <ele>462.478</ele>
        <time>1999-07-25T17:10:11Z</time>
      </trkpt>
      <trkpt lat="43.008304" lon="-7.558702">
        <ele>462.268</ele>
        <time>1999-07-25T17:10:15Z</time>
      </trkpt>
      <trkpt lat="43.008309" lon="-7.558746">
        <ele>462.225</ele>
        <time>1999-07-25T17:10:16Z</time>
      </trkpt>
      <trkpt lat="43.008301" lon="-7.558852">
        <ele>461.692</ele>
        <time>1999-07-25T17:10:20Z</time>
      </trkpt>
      <trkpt lat="43.008299" lon="-7.558868">
        <ele>461.250</ele>
        <time>1999-07-25T17:10:21Z</time>
      </trkpt>
      <trkpt lat="43.008305" lon="-7.558902">
        <ele>460.679</ele>
        <time>1999-07-25T17:10:23Z</time>
      </trkpt>
      <trkpt lat="43.008337" lon="-7.558963">
        <ele>460.205</ele>
        <time>1999-07-25T17:10:25Z</time>
      </trkpt>
      <trkpt lat="43.008377" lon="-7.559024">
        <ele>460.025</ele>
        <time>1999-07-25T17:10:27Z</time>
      </trkpt>
      <trkpt lat="43.008444" lon="-7.559109">
        <ele>459.808</ele>
        <time>1999-07-25T17:10:31Z</time>
      </trkpt>
      <trkpt lat="43.008509" lon="-7.559210">
        <ele>459.010</ele>
        <time>1999-07-25T17:10:35Z</time>
      </trkpt>
      <trkpt lat="43.008552" lon="-7.559232">
        <ele>458.656</ele>
        <time>1999-07-25T17:10:37Z</time>
      </trkpt>
      <trkpt lat="43.008552" lon="-7.559271">
        <ele>457.837</ele>
        <time>1999-07-25T17:10:39Z</time>
      </trkpt>
      <trkpt lat="43.008578" lon="-7.559325">
        <ele>457.242</ele>
        <time>1999-07-25T17:10:41Z</time>
      </trkpt>
      <trkpt lat="43.008623" lon="-7.559361">
        <ele>456.842</ele>
        <time>1999-07-25T17:10:43Z</time>
      </trkpt>
      <trkpt lat="43.008652" lon="-7.559378">
        <ele>456.819</ele>
        <time>1999-07-25T17:10:44Z</time>
      </trkpt>
      <trkpt lat="43.008683" lon="-7.559389">
        <ele>456.616</ele>
        <time>1999-07-25T17:10:45Z</time>
      </trkpt>
      <trkpt lat="43.008819" lon="-7.559386">
        <ele>455.844</ele>
        <time>1999-07-25T17:10:50Z</time>
      </trkpt>
      <trkpt lat="43.008861" lon="-7.559403">
        <ele>455.699</ele>
        <time>1999-07-25T17:10:52Z</time>
      </trkpt>
      <trkpt lat="43.008881" lon="-7.559403">
        <ele>455.607</ele>
        <time>1999-07-25T17:10:54Z</time>
      </trkpt>
      <trkpt lat="43.008882" lon="-7.559407">
        <ele>455.627</ele>
        <time>1999-07-25T17:10:56Z</time>
      </trkpt>
      <trkpt lat="43.008794" lon="-7.559387">
        <ele>455.408</ele>
        <time>1999-07-25T17:12:03Z</time>
      </trkpt>
      <trkpt lat="43.008770" lon="-7.559384">
        <ele>455.462</ele>
        <time>1999-07-25T17:12:04Z</time>
      </trkpt>
      <trkpt lat="43.008749" lon="-7.559382">
        <ele>455.638</ele>
        <time>1999-07-25T17:12:05Z</time>
      </trkpt>
      <trkpt lat="43.008710" lon="-7.559383">
        <ele>455.619</ele>
        <time>1999-07-25T17:12:07Z</time>
      </trkpt>
      <trkpt lat="43.008687" lon="-7.559380">
        <ele>455.634</ele>
        <time>1999-07-25T17:12:08Z</time>
      </trkpt>
      <trkpt lat="43.008667" lon="-7.559376">
        <ele>455.694</ele>
        <time>1999-07-25T17:12:09Z</time>
      </trkpt>
      <trkpt lat="43.008635" lon="-7.559379">
        <ele>455.661</ele>
        <time>1999-07-25T17:12:11Z</time>
      </trkpt>
      <trkpt lat="43.008586" lon="-7.559415">
        <ele>455.628</ele>
        <time>1999-07-25T17:12:14Z</time>
      </trkpt>
      <trkpt lat="43.008574" lon="-7.559413">
        <ele>455.476</ele>
        <time>1999-07-25T17:12:16Z</time>
      </trkpt>
      <trkpt lat="43.008534" lon="-7.559445">
        <ele>454.644</ele>
        <time>1999-07-25T17:12:22Z</time>
      </trkpt>
      <trkpt lat="43.008510" lon="-7.559479">
        <ele>454.605</ele>
        <time>1999-07-25T17:12:23Z</time>
      </trkpt>
      <trkpt lat="43.008403" lon="-7.559650">
        <ele>454.615</ele>
        <time>1999-07-25T17:12:28Z</time>
      </trkpt>
      <trkpt lat="43.008385" lon="-7.559615">
        <ele>454.608</ele>
        <time>1999-07-25T17:12:30Z</time>
      </trkpt>
      <trkpt lat="43.008395" lon="-7.559587">
        <ele>454.447</ele>
        <time>1999-07-25T17:12:31Z</time>
      </trkpt>
      <trkpt lat="43.008417" lon="-7.559514">
        <ele>454.473</ele>
        <time>1999-07-25T17:12:33Z</time>
      </trkpt>
      <trkpt lat="43.008431" lon="-7.559416">
        <ele>454.444</ele>
        <time>1999-07-25T17:12:36Z</time>
      </trkpt>
      <trkpt lat="43.008415" lon="-7.559398">
        <ele>454.429</ele>
        <time>1999-07-25T17:12:37Z</time>
      </trkpt>
      <trkpt lat="43.008370" lon="-7.559394">
        <ele>454.499</ele>
        <time>1999-07-25T17:12:39Z</time>
      </trkpt>
      <trkpt lat="43.008346" lon="-7.559404">
        <ele>454.466</ele>
        <time>1999-07-25T17:12:40Z</time>
      </trkpt>
      <trkpt lat="43.008311" lon="-7.559417">
        <ele>454.463</ele>
        <time>1999-07-25T17:12:41Z</time>
      </trkpt>
      <trkpt lat="43.008247" lon="-7.559456">
        <ele>454.461</ele>
        <time>1999-07-25T17:12:43Z</time>
      </trkpt>
      <trkpt lat="43.008179" lon="-7.559486">
        <ele>454.621</ele>
        <time>1999-07-25T17:12:45Z</time>
      </trkpt>
      <trkpt lat="43.008060" lon="-7.559566">
        <ele>455.641</ele>
        <time>1999-07-25T17:12:49Z</time>
      </trkpt>
      <trkpt lat="43.007982" lon="-7.559636">
        <ele>456.405</ele>
        <time>1999-07-25T17:12:52Z</time>
      </trkpt>
      <trkpt lat="43.007959" lon="-7.559650">
        <ele>456.608</ele>
        <time>1999-07-25T17:12:53Z</time>
      </trkpt>
      <trkpt lat="43.007943" lon="-7.559707">
        <ele>457.255</ele>
        <time>1999-07-25T17:12:57Z</time>
      </trkpt>
      <trkpt lat="43.007947" lon="-7.559717">
        <ele>457.651</ele>
        <time>1999-07-25T17:13:00Z</time>
      </trkpt>
      <trkpt lat="43.007765114307403564453125" lon="-7.5597871653735637664794921875">
        <ele>446</ele>
        <time>2019-07-26T08:24:13.000Z</time>
      </trkpt>
      <trkpt lat="43.00776469521224498748779296875" lon="-7.559786997735500335693359375">
        <ele>446.20001220703125</ele>
        <time>2019-07-26T08:24:14.000Z</time>
      </trkpt>
      <trkpt lat="43.008890636265277862548828125" lon="-7.558962218463420867919921875">
        <ele>445.600006103515625</ele>
        <time>2019-07-26T08:28:13.000Z</time>
      </trkpt>
      <trkpt lat="43.00889323465526103973388671875" lon="-7.5589627213776111602783203125">
        <ele>445.600006103515625</ele>
        <time>2019-07-26T08:28:14.000Z</time>
      </trkpt>
      <trkpt lat="43.00886373035609722137451171875" lon="-7.5590096600353717803955078125">
        <ele>445</ele>
        <time>2019-07-26T08:28:25.000Z</time>
      </trkpt>
      <trkpt lat="43.00884059630334377288818359375" lon="-7.5590264238417148590087890625">
        <ele>445</ele>
        <time>2019-07-26T08:28:26.000Z</time>
      </trkpt>
      <trkpt lat="43.00883942283689975738525390625" lon="-7.559054754674434661865234375">
        <ele>445</ele>
        <time>2019-07-26T08:28:29.000Z</time>
      </trkpt>
      <trkpt lat="43.00893397070467472076416015625" lon="-7.55912952125072479248046875">
        <ele>444.79998779296875</ele>
        <time>2019-07-26T08:28:32.000Z</time>
      </trkpt>
      <trkpt lat="43.0090557597577571868896484375" lon="-7.5592741928994655609130859375">
        <ele>444.399993896484375</ele>
        <time>2019-07-26T08:28:35.000Z</time>
      </trkpt>
      <trkpt lat="43.009103201329708099365234375" lon="-7.5593389011919498443603515625">
        <ele>444.20001220703125</ele>
        <time>2019-07-26T08:28:36.000Z</time>
      </trkpt>
      <trkpt lat="43.00915324129164218902587890625" lon="-7.55940805189311504364013671875">
        <ele>443.79998779296875</ele>
        <time>2019-07-26T08:28:37.000Z</time>
      </trkpt>
      <trkpt lat="43.00925306975841522216796875" lon="-7.559552304446697235107421875">
        <ele>443.600006103515625</ele>
        <time>2019-07-26T08:28:39.000Z</time>
      </trkpt>
      <trkpt lat="43.00935356877744197845458984375" lon="-7.55967560224235057830810546875">
        <ele>443.399993896484375</ele>
        <time>2019-07-26T08:28:41.000Z</time>
      </trkpt>
      <trkpt lat="43.00951450131833553314208984375" lon="-7.5598642788827419281005859375">
        <ele>443.20001220703125</ele>
        <time>2019-07-26T08:28:44.000Z</time>
      </trkpt>
      <trkpt lat="43.0095657147467136383056640625" lon="-7.55993192084133625030517578125">
        <ele>443</ele>
        <time>2019-07-26T08:28:45.000Z</time>
      </trkpt>
      <trkpt lat="43.00992437638342380523681640625" lon="-7.5603826157748699188232421875">
        <ele>442.399993896484375</ele>
        <time>2019-07-26T08:28:52.000Z</time>
      </trkpt>
      <trkpt lat="43.00995505414903163909912109375" lon="-7.56043584086000919342041015625">
        <ele>442</ele>
        <time>2019-07-26T08:28:53.000Z</time>
      </trkpt>
      <trkpt lat="43.010034263134002685546875" lon="-7.56053357385098934173583984375">
        <ele>441.20001220703125</ele>
        <time>2019-07-26T08:28:56.000Z</time>
      </trkpt>
      <trkpt lat="43.01006720401346683502197265625" lon="-7.560591660439968109130859375">
        <ele>440.600006103515625</ele>
        <time>2019-07-26T08:28:58.000Z</time>
      </trkpt>
      <trkpt lat="43.0100863985717296600341796875" lon="-7.56068360991775989532470703125">
        <ele>440</ele>
        <time>2019-07-26T08:29:00.000Z</time>
      </trkpt>
      <trkpt lat="43.01007877103984355926513671875" lon="-7.56075016222894191741943359375">
        <ele>439.79998779296875</ele>
        <time>2019-07-26T08:29:01.000Z</time>
      </trkpt>
      <trkpt lat="43.01002688705921173095703125" lon="-7.5608942471444606781005859375">
        <ele>439.399993896484375</ele>
        <time>2019-07-26T08:29:03.000Z</time>
      </trkpt>
      <trkpt lat="43.0099921859800815582275390625" lon="-7.56097027100622653961181640625">
        <ele>439.399993896484375</ele>
        <time>2019-07-26T08:29:04.000Z</time>
      </trkpt>
      <trkpt lat="43.0099149048328399658203125" lon="-7.56114847026765346527099609375">
        <ele>439.20001220703125</ele>
        <time>2019-07-26T08:29:06.000Z</time>
      </trkpt>
      <trkpt lat="43.0098349414765834808349609375" lon="-7.56132180802524089813232421875">
        <ele>439</ele>
        <time>2019-07-26T08:29:08.000Z</time>
      </trkpt>
      <trkpt lat="43.00970594398677349090576171875" lon="-7.56161416880786418914794921875">
        <ele>438.79998779296875</ele>
        <time>2019-07-26T08:29:12.000Z</time>
      </trkpt>
      <trkpt lat="43.00964626483619213104248046875" lon="-7.56175138056278228759765625">
        <ele>438.399993896484375</ele>
        <time>2019-07-26T08:29:14.000Z</time>
      </trkpt>
      <trkpt lat="43.00959580577909946441650390625" lon="-7.56186663173139095306396484375">
        <ele>437.600006103515625</ele>
        <time>2019-07-26T08:29:16.000Z</time>
      </trkpt>
      <trkpt lat="43.00957753323018550872802734375" lon="-7.56191591732203960418701171875">
        <ele>437</ele>
        <time>2019-07-26T08:29:17.000Z</time>
      </trkpt>
      <trkpt lat="43.00956328399479389190673828125" lon="-7.56196335889399051666259765625">
        <ele>436</ele>
        <time>2019-07-26T08:29:18.000Z</time>
      </trkpt>
      <trkpt lat="43.0095466040074825286865234375" lon="-7.56200753152370452880859375">
        <ele>435</ele>
        <time>2019-07-26T08:29:19.000Z</time>
      </trkpt>
      <trkpt lat="43.00952673889696598052978515625" lon="-7.56205354817211627960205078125">
        <ele>433.399993896484375</ele>
        <time>2019-07-26T08:29:20.000Z</time>
      </trkpt>
      <trkpt lat="43.00949203781783580780029296875" lon="-7.562146000564098358154296875">
        <ele>432.20001220703125</ele>
        <time>2019-07-26T08:29:22.000Z</time>
      </trkpt>
      <trkpt lat="43.00947041250765323638916015625" lon="-7.56221003830432891845703125">
        <ele>430.600006103515625</ele>
        <time>2019-07-26T08:29:24.000Z</time>
      </trkpt>
      <trkpt lat="43.0094557441771030426025390625" lon="-7.56224599666893482208251953125">
        <ele>429.399993896484375</ele>
        <time>2019-07-26T08:29:26.000Z</time>
      </trkpt>
      <trkpt lat="43.00942380912601947784423828125" lon="-7.562295533716678619384765625">
        <ele>428</ele>
        <time>2019-07-26T08:29:30.000Z</time>
      </trkpt>
      <trkpt lat="43.00935407169163227081298828125" lon="-7.56236267276108264923095703125">
        <ele>426.600006103515625</ele>
        <time>2019-07-26T08:29:33.000Z</time>
      </trkpt>
      <trkpt lat="43.009334541857242584228515625" lon="-7.562376670539379119873046875">
        <ele>426.399993896484375</ele>
        <time>2019-07-26T08:29:34.000Z</time>
      </trkpt>
      <trkpt lat="43.00932691432535648345947265625" lon="-7.56238480098545551300048828125">
        <ele>426.20001220703125</ele>
        <time>2019-07-26T08:29:36.000Z</time>
      </trkpt>
      <trkpt lat="43.00928416661918163299560546875" lon="-7.56241430528461933135986328125">
        <ele>425.20001220703125</ele>
        <time>2019-07-26T08:32:03.000Z</time>
      </trkpt>
      <trkpt lat="43.0092622898519039154052734375" lon="-7.562439031898975372314453125">
        <ele>425.20001220703125</ele>
        <time>2019-07-26T08:32:04.000Z</time>
      </trkpt>
      <trkpt lat="43.0092176981270313262939453125" lon="-7.5625032372772693634033203125">
        <ele>425.20001220703125</ele>
        <time>2019-07-26T08:32:06.000Z</time>
      </trkpt>
      <trkpt lat="43.00919565372169017791748046875" lon="-7.56254858337342739105224609375">
        <ele>425.20001220703125</ele>
        <time>2019-07-26T08:32:07.000Z</time>
      </trkpt>
      <trkpt lat="43.00917788408696651458740234375" lon="-7.56259619258344173431396484375">
        <ele>425.399993896484375</ele>
        <time>2019-07-26T08:32:08.000Z</time>
      </trkpt>
      <trkpt lat="43.00916128791868686676025390625" lon="-7.56271001882851123809814453125">
        <ele>425.399993896484375</ele>
        <time>2019-07-26T08:32:10.000Z</time>
      </trkpt>
      <trkpt lat="43.00913848914206027984619140625" lon="-7.56285066716372966766357421875">
        <ele>425.600006103515625</ele>
        <time>2019-07-26T08:32:12.000Z</time>
      </trkpt>
      <trkpt lat="43.00911837257444858551025390625" lon="-7.56292426027357578277587890625">
        <ele>425.79998779296875</ele>
        <time>2019-07-26T08:32:13.000Z</time>
      </trkpt>
      <trkpt lat="43.009022735059261322021484375" lon="-7.5631057284772396087646484375">
        <ele>425.79998779296875</ele>
        <time>2019-07-26T08:32:16.000Z</time>
      </trkpt>
      <trkpt lat="43.008855096995830535888671875" lon="-7.56325014866888523101806640625">
        <ele>425.79998779296875</ele>
        <time>2019-07-26T08:32:19.000Z</time>
      </trkpt>
      <trkpt lat="43.00879684276878833770751953125" lon="-7.56329775787889957427978515625">
        <ele>425.79998779296875</ele>
        <time>2019-07-26T08:32:20.000Z</time>
      </trkpt>
      <trkpt lat="43.00874051637947559356689453125" lon="-7.56335408426821231842041015625">
        <ele>425.79998779296875</ele>
        <time>2019-07-26T08:32:21.000Z</time>
      </trkpt>
      <trkpt lat="43.0086467228829860687255859375" lon="-7.5634993426501750946044921875">
        <ele>425.20001220703125</ele>
        <time>2019-07-26T08:32:23.000Z</time>
      </trkpt>
      <trkpt lat="43.0086054839193820953369140625" lon="-7.56358391605317592620849609375">
        <ele>424.79998779296875</ele>
        <time>2019-07-26T08:32:24.000Z</time>
      </trkpt>
      <trkpt lat="43.0085310526192188262939453125" lon="-7.56375373341143131256103515625">
        <ele>424</ele>
        <time>2019-07-26T08:32:26.000Z</time>
      </trkpt>
      <trkpt lat="43.00849274732172489166259765625" lon="-7.56383621133863925933837890625">
        <ele>423.600006103515625</ele>
        <time>2019-07-26T08:32:27.000Z</time>
      </trkpt>
      <trkpt lat="43.0084096826612949371337890625" lon="-7.56399504840373992919921875">
        <ele>422.399993896484375</ele>
        <time>2019-07-26T08:32:29.000Z</time>
      </trkpt>
      <trkpt lat="43.0083671025931835174560546875" lon="-7.56407417356967926025390625">
        <ele>420.399993896484375</ele>
        <time>2019-07-26T08:32:30.000Z</time>
      </trkpt>
      <trkpt lat="43.008264005184173583984375" lon="-7.56428665481507778167724609375">
        <ele>418.79998779296875</ele>
        <time>2019-07-26T08:32:33.000Z</time>
      </trkpt>
      <trkpt lat="43.00824397243559360504150390625" lon="-7.5643640197813510894775390625">
        <ele>418.20001220703125</ele>
        <time>2019-07-26T08:32:34.000Z</time>
      </trkpt>
      <trkpt lat="43.0082237720489501953125" lon="-7.5644428096711635589599609375">
        <ele>417.399993896484375</ele>
        <time>2019-07-26T08:32:35.000Z</time>
      </trkpt>
      <trkpt lat="43.0081929266452789306640625" lon="-7.56451665423810482025146484375">
        <ele>416.79998779296875</ele>
        <time>2019-07-26T08:32:36.000Z</time>
      </trkpt>
      <trkpt lat="43.0081545375287532806396484375" lon="-7.56458907388150691986083984375">
        <ele>416</ele>
        <time>2019-07-26T08:32:37.000Z</time>
      </trkpt>
      <trkpt lat="43.00810868851840496063232421875" lon="-7.56466023623943328857421875">
        <ele>415</ele>
        <time>2019-07-26T08:32:38.000Z</time>
      </trkpt>
      <trkpt lat="43.008055798709392547607421875" lon="-7.5647284649312496185302734375">
        <ele>414</ele>
        <time>2019-07-26T08:32:39.000Z</time>
      </trkpt>
      <trkpt lat="43.00800140015780925750732421875" lon="-7.5647961907088756561279296875">
        <ele>413</ele>
        <time>2019-07-26T08:32:40.000Z</time>
      </trkpt>
      <trkpt lat="43.00794406794011592864990234375" lon="-7.56486752070486545562744140625">
        <ele>412.399993896484375</ele>
        <time>2019-07-26T08:32:41.000Z</time>
      </trkpt>
      <trkpt lat="43.00783527083694934844970703125" lon="-7.56500079296529293060302734375">
        <ele>411</ele>
        <time>2019-07-26T08:32:43.000Z</time>
      </trkpt>
      <trkpt lat="43.007778860628604888916015625" lon="-7.565079666674137115478515625">
        <ele>409.399993896484375</ele>
        <time>2019-07-26T08:32:45.000Z</time>
      </trkpt>
      <trkpt lat="43.00776653923094272613525390625" lon="-7.5650992803275585174560546875">
        <ele>408.399993896484375</ele>
        <time>2019-07-26T08:32:46.000Z</time>
      </trkpt>
      <trkpt lat="43.00775748677551746368408203125" lon="-7.5651147030293941497802734375">
        <ele>407.600006103515625</ele>
        <time>2019-07-26T08:32:47.000Z</time>
      </trkpt>
      <trkpt lat="43.00774625502526760101318359375" lon="-7.56513423286378383636474609375">
        <ele>406</ele>
        <time>2019-07-26T08:32:49.000Z</time>
      </trkpt>
      <trkpt lat="43.00773091614246368408203125" lon="-7.56514160893857479095458984375">
        <ele>404.399993896484375</ele>
        <time>2019-07-26T08:32:51.000Z</time>
      </trkpt>
      <trkpt lat="43.00771825946867465972900390625" lon="-7.56515233777463436126708984375">
        <ele>403.399993896484375</ele>
        <time>2019-07-26T08:32:52.000Z</time>
      </trkpt>
      <trkpt lat="43.00769579596817493438720703125" lon="-7.56520229391753673553466796875">
        <ele>402.600006103515625</ele>
        <time>2019-07-26T08:32:54.000Z</time>
      </trkpt>
      <trkpt lat="43.00769277848303318023681640625" lon="-7.56522777490317821502685546875">
        <ele>402.399993896484375</ele>
        <time>2019-07-26T08:32:55.000Z</time>
      </trkpt>
      <trkpt lat="43.007636368274688720703125" lon="-7.5652622245252132415771484375">
        <ele>402</ele>
        <time>2019-07-26T08:32:58.000Z</time>
      </trkpt>
      <trkpt lat="43.00757803022861480712890625" lon="-7.565243281424045562744140625">
        <ele>402</ele>
        <time>2019-07-26T08:33:00.000Z</time>
      </trkpt>
      <trkpt lat="43.0075074546039104461669921875" lon="-7.56522710435092449188232421875">
        <ele>401.600006103515625</ele>
        <time>2019-07-26T08:33:03.000Z</time>
      </trkpt>
      <trkpt lat="43.00747870467603206634521484375" lon="-7.56526716984808444976806640625">
        <ele>401.20001220703125</ele>
        <time>2019-07-26T08:33:05.000Z</time>
      </trkpt>
      <trkpt lat="43.00741030834615230560302734375" lon="-7.56529591977596282958984375">
        <ele>400.79998779296875</ele>
        <time>2019-07-26T08:33:07.000Z</time>
      </trkpt>
      <trkpt lat="43.0073575861752033233642578125" lon="-7.56531075574457645416259765625">
        <ele>400.79998779296875</ele>
        <time>2019-07-26T08:33:08.000Z</time>
      </trkpt>
      <trkpt lat="43.00716656260192394256591796875" lon="-7.56532517261803150177001953125">
        <ele>400.20001220703125</ele>
        <time>2019-07-26T08:33:11.000Z</time>
      </trkpt>
      <trkpt lat="43.0070558376610279083251953125" lon="-7.5653155334293842315673828125">
        <ele>400</ele>
        <time>2019-07-26T08:33:13.000Z</time>
      </trkpt>
      <trkpt lat="43.00701300613582134246826171875" lon="-7.56529516540467739105224609375">
        <ele>400</ele>
        <time>2019-07-26T08:33:14.000Z</time>
      </trkpt>
      <trkpt lat="43.006904460489749908447265625" lon="-7.56528292782604694366455078125">
        <ele>398.600006103515625</ele>
        <time>2019-07-26T08:33:17.000Z</time>
      </trkpt>
      <trkpt lat="43.00686783157289028167724609375" lon="-7.56527940742671489715576171875">
        <ele>397.600006103515625</ele>
        <time>2019-07-26T08:33:18.000Z</time>
      </trkpt>
      <trkpt lat="43.0068234913051128387451171875" lon="-7.565278150141239166259765625">
        <ele>396.399993896484375</ele>
        <time>2019-07-26T08:33:19.000Z</time>
      </trkpt>
      <trkpt lat="43.00677026621997356414794921875" lon="-7.56528116762638092041015625">
        <ele>395.20001220703125</ele>
        <time>2019-07-26T08:33:20.000Z</time>
      </trkpt>
      <trkpt lat="43.0067014507949352264404296875" lon="-7.56528829224407672882080078125">
        <ele>394</ele>
        <time>2019-07-26T08:33:21.000Z</time>
      </trkpt>
      <trkpt lat="43.00663347356021404266357421875" lon="-7.56529734469950199127197265625">
        <ele>392.600006103515625</ele>
        <time>2019-07-26T08:33:22.000Z</time>
      </trkpt>
      <trkpt lat="43.0065582878887653350830078125" lon="-7.5653001107275485992431640625">
        <ele>391.600006103515625</ele>
        <time>2019-07-26T08:33:23.000Z</time>
      </trkpt>
      <trkpt lat="43.00648176111280918121337890625" lon="-7.5652960874140262603759765625">
        <ele>390.79998779296875</ele>
        <time>2019-07-26T08:33:24.000Z</time>
      </trkpt>
      <trkpt lat="43.00640716217458248138427734375" lon="-7.5652846880257129669189453125">
        <ele>390.600006103515625</ele>
        <time>2019-07-26T08:33:25.000Z</time>
      </trkpt>
      <trkpt lat="43.00633356906473636627197265625" lon="-7.56526834331452846527099609375">
        <ele>390.399993896484375</ele>
        <time>2019-07-26T08:33:26.000Z</time>
      </trkpt>
      <trkpt lat="43.0061935074627399444580078125" lon="-7.5652179680764675140380859375">
        <ele>390.399993896484375</ele>
        <time>2019-07-26T08:33:28.000Z</time>
      </trkpt>
      <trkpt lat="43.00605964846909046173095703125" lon="-7.565163485705852508544921875">
        <ele>390.20001220703125</ele>
        <time>2019-07-26T08:33:30.000Z</time>
      </trkpt>
      <trkpt lat="43.0056486837565898895263671875" lon="-7.56498201750218868255615234375">
        <ele>389.79998779296875</ele>
        <time>2019-07-26T08:33:36.000Z</time>
      </trkpt>
      <trkpt lat="43.0055844783782958984375" lon="-7.56493340246379375457763671875">
        <ele>389.79998779296875</ele>
        <time>2019-07-26T08:33:37.000Z</time>
      </trkpt>
      <trkpt lat="43.00536780618131160736083984375" lon="-7.56472636945545673370361328125">
        <ele>389.600006103515625</ele>
        <time>2019-07-26T08:33:41.000Z</time>
      </trkpt>
      <trkpt lat="43.0053154192864894866943359375" lon="-7.56467121653258800506591796875">
        <ele>389.600006103515625</ele>
        <time>2019-07-26T08:33:42.000Z</time>
      </trkpt>
      <trkpt lat="43.00521207042038440704345703125" lon="-7.56459318101406097412109375">
        <ele>389.600006103515625</ele>
        <time>2019-07-26T08:33:44.000Z</time>
      </trkpt>
      <trkpt lat="43.00510629080235958099365234375" lon="-7.56455705501139163970947265625">
        <ele>389.399993896484375</ele>
        <time>2019-07-26T08:33:46.000Z</time>
      </trkpt>
      <trkpt lat="43.00497628748416900634765625" lon="-7.5645226053893566131591796875">
        <ele>389.399993896484375</ele>
        <time>2019-07-26T08:33:48.000Z</time>
      </trkpt>
      <trkpt lat="43.00489179790019989013671875" lon="-7.56448396481573581695556640625">
        <ele>389.399993896484375</ele>
        <time>2019-07-26T08:33:50.000Z</time>
      </trkpt>
      <trkpt lat="43.00471007823944091796875" lon="-7.56445965729653835296630859375">
        <ele>388.79998779296875</ele>
        <time>2019-07-26T08:33:53.000Z</time>
      </trkpt>
      <trkpt lat="43.00463237799704074859619140625" lon="-7.56444624625146389007568359375">
        <ele>388.600006103515625</ele>
        <time>2019-07-26T08:33:54.000Z</time>
      </trkpt>
      <trkpt lat="43.00446524284780025482177734375" lon="-7.56438958458602428436279296875">
        <ele>388</ele>
        <time>2019-07-26T08:33:56.000Z</time>
      </trkpt>
      <trkpt lat="43.0043773166835308074951171875" lon="-7.56432722322642803192138671875">
        <ele>387.600006103515625</ele>
        <time>2019-07-26T08:33:57.000Z</time>
      </trkpt>
      <trkpt lat="43.0042304657399654388427734375" lon="-7.5641812942922115325927734375">
        <ele>386.399993896484375</ele>
        <time>2019-07-26T08:33:59.000Z</time>
      </trkpt>
      <trkpt lat="43.0040869675576686859130859375" lon="-7.5640505366027355194091796875">
        <ele>385.399993896484375</ele>
        <time>2019-07-26T08:34:01.000Z</time>
      </trkpt>
      <trkpt lat="43.0040215887129306793212890625" lon="-7.56400351412594318389892578125">
        <ele>384.79998779296875</ele>
        <time>2019-07-26T08:34:02.000Z</time>
      </trkpt>
      <trkpt lat="43.0038992129266262054443359375" lon="-7.56394274532794952392578125">
        <ele>383.399993896484375</ele>
        <time>2019-07-26T08:34:04.000Z</time>
      </trkpt>
      <trkpt lat="43.00378614105284214019775390625" lon="-7.56389957852661609649658203125">
        <ele>381.600006103515625</ele>
        <time>2019-07-26T08:34:06.000Z</time>
      </trkpt>
      <trkpt lat="43.00363895483314990997314453125" lon="-7.56387091241776943206787109375">
        <ele>380</ele>
        <time>2019-07-26T08:34:08.000Z</time>
      </trkpt>
      <trkpt lat="43.0035548843443393707275390625" lon="-7.563860602676868438720703125">
        <ele>379</ele>
        <time>2019-07-26T08:34:09.000Z</time>
      </trkpt>
      <trkpt lat="43.00346595235168933868408203125" lon="-7.56384828127920627593994140625">
        <ele>378</ele>
        <time>2019-07-26T08:34:10.000Z</time>
      </trkpt>
      <trkpt lat="43.00328674726188182830810546875" lon="-7.5638171844184398651123046875">
        <ele>376.399993896484375</ele>
        <time>2019-07-26T08:34:12.000Z</time>
      </trkpt>
      <trkpt lat="43.0032075382769107818603515625" lon="-7.56379731930792331695556640625">
        <ele>375.399993896484375</ele>
        <time>2019-07-26T08:34:13.000Z</time>
      </trkpt>
      <trkpt lat="43.00313226878643035888671875" lon="-7.56377619691193103790283203125">
        <ele>375</ele>
        <time>2019-07-26T08:34:14.000Z</time>
      </trkpt>
      <trkpt lat="43.00297091715037822723388671875" lon="-7.5637293420732021331787109375">
        <ele>373.79998779296875</ele>
        <time>2019-07-26T08:34:16.000Z</time>
      </trkpt>
      <trkpt lat="43.002822808921337127685546875" lon="-7.563687264919281005859375">
        <ele>372.399993896484375</ele>
        <time>2019-07-26T08:34:18.000Z</time>
      </trkpt>
      <trkpt lat="43.0027560889720916748046875" lon="-7.56367578171193599700927734375">
        <ele>371.79998779296875</ele>
        <time>2019-07-26T08:34:19.000Z</time>
      </trkpt>
      <trkpt lat="43.002629019320011138916015625" lon="-7.56367712281644344329833984375">
        <ele>370.79998779296875</ele>
        <time>2019-07-26T08:34:21.000Z</time>
      </trkpt>
      <trkpt lat="43.00257294438779354095458984375" lon="-7.563696987926959991455078125">
        <ele>369.399993896484375</ele>
        <time>2019-07-26T08:34:23.000Z</time>
      </trkpt>
      <trkpt lat="43.00254025496542453765869140625" lon="-7.5637404061853885650634765625">
        <ele>368.20001220703125</ele>
        <time>2019-07-26T08:34:25.000Z</time>
      </trkpt>
      <trkpt lat="43.00251980312168598175048828125" lon="-7.56377267651259899139404296875">
        <ele>367</ele>
        <time>2019-07-26T08:34:27.000Z</time>
      </trkpt>
      <trkpt lat="43.002468086779117584228515625" lon="-7.5637343712151050567626953125">
        <ele>366.600006103515625</ele>
        <time>2019-07-26T08:34:30.000Z</time>
      </trkpt>
      <trkpt lat="43.00240044482052326202392578125" lon="-7.56370595656335353851318359375">
        <ele>366.399993896484375</ele>
        <time>2019-07-26T08:34:33.000Z</time>
      </trkpt>
      <trkpt lat="43.002293072640895843505859375" lon="-7.5636894442141056060791015625">
        <ele>366.600006103515625</ele>
        <time>2019-07-26T08:34:38.000Z</time>
      </trkpt>
      <trkpt lat="43.00228871405124664306640625" lon="-7.5636730156838893890380859375">
        <ele>366.600006103515625</ele>
        <time>2019-07-26T08:34:40.000Z</time>
      </trkpt>
      <trkpt lat="43.0023043043911457061767578125" lon="-7.56367410533130168914794921875">
        <ele>366.600006103515625</ele>
        <time>2019-07-26T08:34:41.000Z</time>
      </trkpt>
      <trkpt lat="43.0024109221994876861572265625" lon="-7.5637109018862247467041015625">
        <ele>367</ele>
        <time>2019-07-26T08:34:46.000Z</time>
      </trkpt>
      <trkpt lat="43.00241209566593170166015625" lon="-7.56371115334331989288330078125">
        <ele>367</ele>
        <time>2019-07-26T08:34:48.000Z</time>
      </trkpt>
      <trkpt lat="43.002314865589141845703125" lon="-7.5636793859302997589111328125">
        <ele>367.20001220703125</ele>
        <time>2019-07-26T08:35:58.000Z</time>
      </trkpt>
      <trkpt lat="43.00229382701218128204345703125" lon="-7.5636760331690311431884765625">
        <ele>367.20001220703125</ele>
        <time>2019-07-26T08:35:59.000Z</time>
      </trkpt>
      <trkpt lat="43.002248145639896392822265625" lon="-7.5636646337807178497314453125">
        <ele>367.20001220703125</ele>
        <time>2019-07-26T08:36:01.000Z</time>
      </trkpt>
      <trkpt lat="43.00217044539749622344970703125" lon="-7.56363538093864917755126953125">
        <ele>367.399993896484375</ele>
        <time>2019-07-26T08:36:04.000Z</time>
      </trkpt>
      <trkpt lat="43.0021155439317226409912109375" lon="-7.56362347863614559173583984375">
        <ele>367.600006103515625</ele>
        <time>2019-07-26T08:36:06.000Z</time>
      </trkpt>
      <trkpt lat="43.0019995383918285369873046875" lon="-7.5636109896004199981689453125">
        <ele>368.20001220703125</ele>
        <time>2019-07-26T08:36:11.000Z</time>
      </trkpt>
      <trkpt lat="43.001980595290660858154296875" lon="-7.5636066310107707977294921875">
        <ele>368.399993896484375</ele>
        <time>2019-07-26T08:36:12.000Z</time>
      </trkpt>
      <trkpt lat="43.0018660984933376312255859375" lon="-7.563583664596080780029296875">
        <ele>369</ele>
        <time>2019-07-26T08:36:18.000Z</time>
      </trkpt>
      <trkpt lat="43.00184556283056735992431640625" lon="-7.563579976558685302734375">
        <ele>369.20001220703125</ele>
        <time>2019-07-26T08:36:19.000Z</time>
      </trkpt>
      <trkpt lat="43.0018065869808197021484375" lon="-7.56357251666486263275146484375">
        <ele>369.20001220703125</ele>
        <time>2019-07-26T08:36:21.000Z</time>
      </trkpt>
      <trkpt lat="43.001720421016216278076171875" lon="-7.56355323828756809234619140625">
        <ele>369.600006103515625</ele>
        <time>2019-07-26T08:36:25.000Z</time>
      </trkpt>
      <trkpt lat="43.00152336247265338897705078125" lon="-7.5635060481727123260498046875">
        <ele>369.79998779296875</ele>
        <time>2019-07-26T08:36:32.000Z</time>
      </trkpt>
      <trkpt lat="43.00143174827098846435546875" lon="-7.563494145870208740234375">
        <ele>369.79998779296875</ele>
        <time>2019-07-26T08:36:36.000Z</time>
      </trkpt>
      <trkpt lat="43.0014302395284175872802734375" lon="-7.5634943135082721710205078125">
        <ele>369.79998779296875</ele>
        <time>2019-07-26T08:36:38.000Z</time>
      </trkpt>
      <trkpt lat="43.0013947002589702606201171875" lon="-7.56355709396302700042724609375">
        <ele>369.399993896484375</ele>
        <time>2019-07-26T08:36:47.000Z</time>
      </trkpt>
      <trkpt lat="43.0013782717287540435791015625" lon="-7.56359011866152286529541015625">
        <ele>369.399993896484375</ele>
        <time>2019-07-26T08:36:48.000Z</time>
      </trkpt>
      <trkpt lat="43.00130710937082767486572265625" lon="-7.56375658325850963592529296875">
        <ele>369.399993896484375</ele>
        <time>2019-07-26T08:36:52.000Z</time>
      </trkpt>
      <trkpt lat="43.0012917704880237579345703125" lon="-7.56385683082044124603271484375">
        <ele>369.399993896484375</ele>
        <time>2019-07-26T08:36:54.000Z</time>
      </trkpt>
      <trkpt lat="43.00129520706832408905029296875" lon="-7.563985995948314666748046875">
        <ele>369.399993896484375</ele>
        <time>2019-07-26T08:36:56.000Z</time>
      </trkpt>
      <trkpt lat="43.00130300223827362060546875" lon="-7.56406185217201709747314453125">
        <ele>369.399993896484375</ele>
        <time>2019-07-26T08:36:57.000Z</time>
      </trkpt>
      <trkpt lat="43.00131146796047687530517578125" lon="-7.5641440786421298980712890625">
        <ele>369.399993896484375</ele>
        <time>2019-07-26T08:36:58.000Z</time>
      </trkpt>
      <trkpt lat="43.001318089663982391357421875" lon="-7.56423250772058963775634765625">
        <ele>369.399993896484375</ele>
        <time>2019-07-26T08:36:59.000Z</time>
      </trkpt>
      <trkpt lat="43.00130174495279788970947265625" lon="-7.564468123018741607666015625">
        <ele>369.399993896484375</ele>
        <time>2019-07-26T08:37:02.000Z</time>
      </trkpt>
      <trkpt lat="43.001260422170162200927734375" lon="-7.564617656171321868896484375">
        <ele>369.600006103515625</ele>
        <time>2019-07-26T08:37:05.000Z</time>
      </trkpt>
      <trkpt lat="43.00124659202992916107177734375" lon="-7.564668953418731689453125">
        <ele>369.600006103515625</ele>
        <time>2019-07-26T08:37:06.000Z</time>
      </trkpt>
      <trkpt lat="43.001216836273670196533203125" lon="-7.56479091010987758636474609375">
        <ele>369.600006103515625</ele>
        <time>2019-07-26T08:37:08.000Z</time>
      </trkpt>
      <trkpt lat="43.00115640275180339813232421875" lon="-7.5649826042354106903076171875">
        <ele>369.600006103515625</ele>
        <time>2019-07-26T08:37:11.000Z</time>
      </trkpt>
      <trkpt lat="43.00113444216549396514892578125" lon="-7.56504504941403865814208984375">
        <ele>369.79998779296875</ele>
        <time>2019-07-26T08:37:12.000Z</time>
      </trkpt>
      <trkpt lat="43.00107509829103946685791015625" lon="-7.5652240030467510223388671875">
        <ele>369.79998779296875</ele>
        <time>2019-07-26T08:37:15.000Z</time>
      </trkpt>
      <trkpt lat="43.0010041035711765289306640625" lon="-7.56545685231685638427734375">
        <ele>370.399993896484375</ele>
        <time>2019-07-26T08:37:19.000Z</time>
      </trkpt>
      <trkpt lat="43.00098641775548458099365234375" lon="-7.56551443599164485931396484375">
        <ele>370.600006103515625</ele>
        <time>2019-07-26T08:37:20.000Z</time>
      </trkpt>
      <trkpt lat="43.0008974857628345489501953125" lon="-7.565801180899143218994140625">
        <ele>371.399993896484375</ele>
        <time>2019-07-26T08:37:25.000Z</time>
      </trkpt>
      <trkpt lat="43.00087829120457172393798828125" lon="-7.56585692055523395538330078125">
        <ele>371.399993896484375</ele>
        <time>2019-07-26T08:37:26.000Z</time>
      </trkpt>
      <trkpt lat="43.00085934810340404510498046875" lon="-7.565917186439037322998046875">
        <ele>371.79998779296875</ele>
        <time>2019-07-26T08:37:27.000Z</time>
      </trkpt>
      <trkpt lat="43.00075490958988666534423828125" lon="-7.566238380968570709228515625">
        <ele>373</ele>
        <time>2019-07-26T08:37:32.000Z</time>
      </trkpt>
      <trkpt lat="43.0006961524486541748046875" lon="-7.56662093102931976318359375">
        <ele>373.399993896484375</ele>
        <time>2019-07-26T08:37:37.000Z</time>
      </trkpt>
      <trkpt lat="43.0006108246743679046630859375" lon="-7.56722987629473209381103515625">
        <ele>373.600006103515625</ele>
        <time>2019-07-26T08:37:44.000Z</time>
      </trkpt>
      <trkpt lat="43.0005189590156078338623046875" lon="-7.56778291426599025726318359375">
        <ele>373.600006103515625</ele>
        <time>2019-07-26T08:37:50.000Z</time>
      </trkpt>
      <trkpt lat="43.0004301108419895172119140625" lon="-7.568333856761455535888671875">
        <ele>373.399993896484375</ele>
        <time>2019-07-26T08:37:56.000Z</time>
      </trkpt>
      <trkpt lat="43.00037923268973827362060546875" lon="-7.5689110346138477325439453125">
        <ele>373.20001220703125</ele>
        <time>2019-07-26T08:38:02.000Z</time>
      </trkpt>
      <trkpt lat="43.00035894848406314849853515625" lon="-7.56944688968360424041748046875">
        <ele>373</ele>
        <time>2019-07-26T08:38:08.000Z</time>
      </trkpt>
      <trkpt lat="43.00035324878990650177001953125" lon="-7.56961436010897159576416015625">
        <ele>373.20001220703125</ele>
        <time>2019-07-26T08:38:10.000Z</time>
      </trkpt>
      <trkpt lat="43.0003322102129459381103515625" lon="-7.570350877940654754638671875">
        <ele>373.399993896484375</ele>
        <time>2019-07-26T08:38:19.000Z</time>
      </trkpt>
      <trkpt lat="43.000331036746501922607421875" lon="-7.5704341940581798553466796875">
        <ele>373.20001220703125</ele>
        <time>2019-07-26T08:38:20.000Z</time>
      </trkpt>
      <trkpt lat="43.00031594932079315185546875" lon="-7.57087432779371738433837890625">
        <ele>373.399993896484375</ele>
        <time>2019-07-26T08:38:25.000Z</time>
      </trkpt>
      <trkpt lat="43.000316284596920013427734375" lon="-7.57115252315998077392578125">
        <ele>373.20001220703125</ele>
        <time>2019-07-26T08:38:28.000Z</time>
      </trkpt>
      <trkpt lat="43.00030882470309734344482421875" lon="-7.57143591530621051788330078125">
        <ele>373</ele>
        <time>2019-07-26T08:38:31.000Z</time>
      </trkpt>
      <trkpt lat="43.00029055215418338775634765625" lon="-7.5717183016240596771240234375">
        <ele>372.79998779296875</ele>
        <time>2019-07-26T08:38:34.000Z</time>
      </trkpt>
      <trkpt lat="43.00029315054416656494140625" lon="-7.57180974818766117095947265625">
        <ele>372.600006103515625</ele>
        <time>2019-07-26T08:38:35.000Z</time>
      </trkpt>
      <trkpt lat="43.000272698700428009033203125" lon="-7.57206958718597888946533203125">
        <ele>372.399993896484375</ele>
        <time>2019-07-26T08:38:38.000Z</time>
      </trkpt>
      <trkpt lat="43.00025568343698978424072265625" lon="-7.57214804179966449737548828125">
        <ele>372.399993896484375</ele>
        <time>2019-07-26T08:38:39.000Z</time>
      </trkpt>
      <trkpt lat="43.00023489631712436676025390625" lon="-7.5722218863666057586669921875">
        <ele>372.399993896484375</ele>
        <time>2019-07-26T08:38:40.000Z</time>
      </trkpt>
      <trkpt lat="43.00014554522931575775146484375" lon="-7.5724887661635875701904296875">
        <ele>372.20001220703125</ele>
        <time>2019-07-26T08:38:44.000Z</time>
      </trkpt>
      <trkpt lat="43.00004010088741779327392578125" lon="-7.57278506644070148468017578125">
        <ele>372.20001220703125</ele>
        <time>2019-07-26T08:38:49.000Z</time>
      </trkpt>
      <trkpt lat="43.00003238953649997711181640625" lon="-7.57283804006874561309814453125">
        <ele>372.399993896484375</ele>
        <time>2019-07-26T08:38:50.000Z</time>
      </trkpt>
      <trkpt lat="43.00007647834718227386474609375" lon="-7.57288523018360137939453125">
        <ele>372.600006103515625</ele>
        <time>2019-07-26T08:38:53.000Z</time>
      </trkpt>
      <trkpt lat="43.00021075643599033355712890625" lon="-7.572821192443370819091796875">
        <ele>372.79998779296875</ele>
        <time>2019-07-26T08:38:57.000Z</time>
      </trkpt>
      <trkpt lat="43.000378310680389404296875" lon="-7.57271834649145603179931640625">
        <ele>372.79998779296875</ele>
        <time>2019-07-26T08:39:01.000Z</time>
      </trkpt>
      <trkpt lat="43.00053647719323635101318359375" lon="-7.5726118125021457672119140625">
        <ele>372.600006103515625</ele>
        <time>2019-07-26T08:39:06.000Z</time>
      </trkpt>
      <trkpt lat="43.00063270144164562225341796875" lon="-7.572585828602313995361328125">
        <ele>371.79998779296875</ele>
        <time>2019-07-26T08:39:09.000Z</time>
      </trkpt>
      <trkpt lat="43.00069254823029041290283203125" lon="-7.57254517637193202972412109375">
        <ele>371.20001220703125</ele>
        <time>2019-07-26T08:39:11.000Z</time>
      </trkpt>
      <trkpt lat="43.0007409118115901947021484375" lon="-7.57248197682201862335205078125">
        <ele>370.600006103515625</ele>
        <time>2019-07-26T08:39:13.000Z</time>
      </trkpt>
      <trkpt lat="43.00080402754247188568115234375" lon="-7.57241039536893367767333984375">
        <ele>370.399993896484375</ele>
        <time>2019-07-26T08:39:16.000Z</time>
      </trkpt>
      <trkpt lat="43.0008850805461406707763671875" lon="-7.57232322357594966888427734375">
        <ele>370.600006103515625</ele>
        <time>2019-07-26T08:39:21.000Z</time>
      </trkpt>
      <trkpt lat="43.0009038560092449188232421875" lon="-7.57230293937027454376220703125">
        <ele>370.79998779296875</ele>
        <time>2019-07-26T08:39:22.000Z</time>
      </trkpt>
      <trkpt lat="43.0010252259671688079833984375" lon="-7.5721903704106807708740234375">
        <ele>371.600006103515625</ele>
        <time>2019-07-26T08:39:29.000Z</time>
      </trkpt>
      <trkpt lat="43.00103100948035717010498046875" lon="-7.57219187915325164794921875">
        <ele>371.79998779296875</ele>
        <time>2019-07-26T08:39:30.000Z</time>
      </trkpt>
      <trkpt lat="43.0010309256613254547119140625" lon="-7.57219296880066394805908203125">
        <ele>371.79998779296875</ele>
        <time>2019-07-26T08:39:31.000Z</time>
      </trkpt>
      <trkpt lat="43.00100368447601795196533203125" lon="-7.57222582586109638214111328125">
        <ele>372.600006103515625</ele>
        <time>2019-07-26T08:41:22.000Z</time>
      </trkpt>
      <trkpt lat="43.0009846575558185577392578125" lon="-7.57224828936159610748291015625">
        <ele>372.600006103515625</ele>
        <time>2019-07-26T08:41:23.000Z</time>
      </trkpt>
      <trkpt lat="43.00095967948436737060546875" lon="-7.572271339595317840576171875">
        <ele>372.600006103515625</ele>
        <time>2019-07-26T08:41:24.000Z</time>
      </trkpt>
      <trkpt lat="43.00082297064363956451416015625" lon="-7.5724156759679317474365234375">
        <ele>372.600006103515625</ele>
        <time>2019-07-26T08:41:28.000Z</time>
      </trkpt>
      <trkpt lat="43.00078156404197216033935546875" lon="-7.57246278226375579833984375">
        <ele>372.600006103515625</ele>
        <time>2019-07-26T08:41:29.000Z</time>
      </trkpt>
      <trkpt lat="43.00058391876518726348876953125" lon="-7.57271532900631427764892578125">
        <ele>372.399993896484375</ele>
        <time>2019-07-26T08:41:33.000Z</time>
      </trkpt>
      <trkpt lat="43.0005323700606822967529296875" lon="-7.57276344113051891326904296875">
        <ele>372.20001220703125</ele>
        <time>2019-07-26T08:41:34.000Z</time>
      </trkpt>
      <trkpt lat="43.00048090517520904541015625" lon="-7.57277802564203739166259765625">
        <ele>372.20001220703125</ele>
        <time>2019-07-26T08:41:35.000Z</time>
      </trkpt>
      <trkpt lat="43.0003865249454975128173828125" lon="-7.5727732479572296142578125">
        <ele>371.79998779296875</ele>
        <time>2019-07-26T08:41:37.000Z</time>
      </trkpt>
      <trkpt lat="43.00034344196319580078125" lon="-7.57277685217559337615966796875">
        <ele>371.600006103515625</ele>
        <time>2019-07-26T08:41:38.000Z</time>
      </trkpt>
      <trkpt lat="43.0002723634243011474609375" lon="-7.5727985613048076629638671875">
        <ele>371.600006103515625</ele>
        <time>2019-07-26T08:41:40.000Z</time>
      </trkpt>
      <trkpt lat="43.00021662376821041107177734375" lon="-7.57282647304236888885498046875">
        <ele>371.600006103515625</ele>
        <time>2019-07-26T08:41:42.000Z</time>
      </trkpt>
      <trkpt lat="43.0001424439251422882080078125" lon="-7.5728414766490459442138671875">
        <ele>371.600006103515625</ele>
        <time>2019-07-26T08:41:45.000Z</time>
      </trkpt>
      <trkpt lat="43.00011486746370792388916015625" lon="-7.57282881997525691986083984375">
        <ele>371.600006103515625</ele>
        <time>2019-07-26T08:41:46.000Z</time>
      </trkpt>
      <trkpt lat="43.0000720359385013580322265625" lon="-7.57288179360330104827880859375">
        <ele>372</ele>
        <time>2019-07-26T08:41:49.000Z</time>
      </trkpt>
      <trkpt lat="43.00012827850878238677978515625" lon="-7.5729413889348506927490234375">
        <ele>372.600006103515625</ele>
        <time>2019-07-26T08:41:52.000Z</time>
      </trkpt>
      <trkpt lat="43.00023254938423633575439453125" lon="-7.57300701923668384552001953125">
        <ele>373.20001220703125</ele>
        <time>2019-07-26T08:41:56.000Z</time>
      </trkpt>
      <trkpt lat="43.00021695904433727264404296875" lon="-7.57312595844268798828125">
        <ele>373.399993896484375</ele>
        <time>2019-07-26T08:41:59.000Z</time>
      </trkpt>
      <trkpt lat="43.00020321272313594818115234375" lon="-7.57316141389310359954833984375">
        <ele>373.600006103515625</ele>
        <time>2019-07-26T08:42:00.000Z</time>
      </trkpt>
      <trkpt lat="43.00018963403999805450439453125" lon="-7.57319946773350238800048828125">
        <ele>373.79998779296875</ele>
        <time>2019-07-26T08:42:01.000Z</time>
      </trkpt>
      <trkpt lat="43.0001595430076122283935546875" lon="-7.5732689537107944488525390625">
        <ele>374.399993896484375</ele>
        <time>2019-07-26T08:42:03.000Z</time>
      </trkpt>
      <trkpt lat="43.0001441203057765960693359375" lon="-7.5733004696667194366455078125">
        <ele>374.600006103515625</ele>
        <time>2019-07-26T08:42:04.000Z</time>
      </trkpt>
      <trkpt lat="43.000130541622638702392578125" lon="-7.57333374582231044769287109375">
        <ele>375.20001220703125</ele>
        <time>2019-07-26T08:42:05.000Z</time>
      </trkpt>
      <trkpt lat="43.000123165547847747802734375" lon="-7.5734114460647106170654296875">
        <ele>376</ele>
        <time>2019-07-26T08:42:07.000Z</time>
      </trkpt>
      <trkpt lat="43.00011813640594482421875" lon="-7.57349249906837940216064453125">
        <ele>377</ele>
        <time>2019-07-26T08:42:09.000Z</time>
      </trkpt>
      <trkpt lat="43.0001136101782321929931640625" lon="-7.57353432476520538330078125">
        <ele>377.399993896484375</ele>
        <time>2019-07-26T08:42:10.000Z</time>
      </trkpt>
      <trkpt lat="43.000107742846012115478515625" lon="-7.573620490729808807373046875">
        <ele>378.600006103515625</ele>
        <time>2019-07-26T08:42:12.000Z</time>
      </trkpt>
      <trkpt lat="43.00010330043733119964599609375" lon="-7.573704309761524200439453125">
        <ele>379.600006103515625</ele>
        <time>2019-07-26T08:42:14.000Z</time>
      </trkpt>
      <trkpt lat="43.00009961239993572235107421875" lon="-7.57374613545835018157958984375">
        <ele>379.79998779296875</ele>
        <time>2019-07-26T08:42:15.000Z</time>
      </trkpt>
      <trkpt lat="43.0000944994390010833740234375" lon="-7.57390907965600490570068359375">
        <ele>381.20001220703125</ele>
        <time>2019-07-26T08:42:19.000Z</time>
      </trkpt>
      <trkpt lat="43.00008469261229038238525390625" lon="-7.57405341602861881256103515625">
        <ele>382.399993896484375</ele>
        <time>2019-07-26T08:42:23.000Z</time>
      </trkpt>
      <trkpt lat="43.000092320144176483154296875" lon="-7.57420026697218418121337890625">
        <ele>383.600006103515625</ele>
        <time>2019-07-26T08:42:27.000Z</time>
      </trkpt>
      <trkpt lat="43.00010271370410919189453125" lon="-7.5743180327117443084716796875">
        <ele>384.600006103515625</ele>
        <time>2019-07-26T08:42:30.000Z</time>
      </trkpt>
      <trkpt lat="43.0001025460660457611083984375" lon="-7.5743555836379528045654296875">
        <ele>384.79998779296875</ele>
        <time>2019-07-26T08:42:31.000Z</time>
      </trkpt>
      <trkpt lat="43.00009190104901790618896484375" lon="-7.57448248565196990966796875">
        <ele>385.79998779296875</ele>
        <time>2019-07-26T08:42:35.000Z</time>
      </trkpt>
      <trkpt lat="43.000089637935161590576171875" lon="-7.57451525889337062835693359375">
        <ele>386</ele>
        <time>2019-07-26T08:42:36.000Z</time>
      </trkpt>
      <trkpt lat="43.00009625963866710662841796875" lon="-7.57459941320121288299560546875">
        <ele>387</ele>
        <time>2019-07-26T08:42:39.000Z</time>
      </trkpt>
      <trkpt lat="43.00007195211946964263916015625" lon="-7.57467954419553279876708984375">
        <ele>387.600006103515625</ele>
        <time>2019-07-26T08:42:42.000Z</time>
      </trkpt>
      <trkpt lat="43.0000623129308223724365234375" lon="-7.5747327692806720733642578125">
        <ele>388</ele>
        <time>2019-07-26T08:42:44.000Z</time>
      </trkpt>
      <trkpt lat="43.000053428113460540771484375" lon="-7.574845589697360992431640625">
        <ele>389.399993896484375</ele>
        <time>2019-07-26T08:42:48.000Z</time>
      </trkpt>
      <trkpt lat="43.0000443756580352783203125" lon="-7.57495111785829067230224609375">
        <ele>390.600006103515625</ele>
        <time>2019-07-26T08:42:52.000Z</time>
      </trkpt>
      <trkpt lat="43.000029623508453369140625" lon="-7.57502119056880474090576171875">
        <ele>391.600006103515625</ele>
        <time>2019-07-26T08:42:55.000Z</time>
      </trkpt>
      <trkpt lat="43.00000791437923908233642578125" lon="-7.575066201388835906982421875">
        <ele>392.79998779296875</ele>
        <time>2019-07-26T08:42:57.000Z</time>
      </trkpt>
      <trkpt lat="42.99995728768408298492431640625" lon="-7.575153373181819915771484375">
        <ele>394</ele>
        <time>2019-07-26T08:43:01.000Z</time>
      </trkpt>
      <trkpt lat="42.99990397877991199493408203125" lon="-7.57519670762121677398681640625">
        <ele>395</ele>
        <time>2019-07-26T08:43:04.000Z</time>
      </trkpt>
      <trkpt lat="42.99988411366939544677734375" lon="-7.5752078555524349212646484375">
        <ele>395.20001220703125</ele>
        <time>2019-07-26T08:43:05.000Z</time>
      </trkpt>
      <trkpt lat="42.99977556802332401275634765625" lon="-7.57524867542088031768798828125">
        <ele>396.399993896484375</ele>
        <time>2019-07-26T08:43:10.000Z</time>
      </trkpt>
      <trkpt lat="42.99975411035120487213134765625" lon="-7.5752537883818149566650390625">
        <ele>396.600006103515625</ele>
        <time>2019-07-26T08:43:11.000Z</time>
      </trkpt>
      <trkpt lat="42.9996713809669017791748046875" lon="-7.57528874091804027557373046875">
        <ele>397.399993896484375</ele>
        <time>2019-07-26T08:43:15.000Z</time>
      </trkpt>
      <trkpt lat="42.99956970848143100738525390625" lon="-7.57533132098615169525146484375">
        <ele>398.399993896484375</ele>
        <time>2019-07-26T08:43:20.000Z</time>
      </trkpt>
      <trkpt lat="42.9995526932179927825927734375" lon="-7.57534691132605075836181640625">
        <ele>398.600006103515625</ele>
        <time>2019-07-26T08:43:21.000Z</time>
      </trkpt>
      <trkpt lat="42.999525703489780426025390625" lon="-7.57536266930401325225830078125">
        <ele>399</ele>
        <time>2019-07-26T08:43:23.000Z</time>
      </trkpt>
      <trkpt lat="42.999503575265407562255859375" lon="-7.57540407590568065643310546875">
        <ele>399.79998779296875</ele>
        <time>2019-07-26T08:43:25.000Z</time>
      </trkpt>
      <trkpt lat="42.9994906671345233917236328125" lon="-7.57551622577011585235595703125">
        <ele>400.79998779296875</ele>
        <time>2019-07-26T08:43:29.000Z</time>
      </trkpt>
      <trkpt lat="42.9994873143732547760009765625" lon="-7.575573138892650604248046875">
        <ele>401.399993896484375</ele>
        <time>2019-07-26T08:43:31.000Z</time>
      </trkpt>
      <trkpt lat="42.9994886554777622222900390625" lon="-7.57562778890132904052734375">
        <ele>402</ele>
        <time>2019-07-26T08:43:33.000Z</time>
      </trkpt>
      <trkpt lat="42.9994782619178295135498046875" lon="-7.57573247887194156646728515625">
        <ele>403.20001220703125</ele>
        <time>2019-07-26T08:43:37.000Z</time>
      </trkpt>
      <trkpt lat="42.99947583116590976715087890625" lon="-7.57575787603855133056640625">
        <ele>403.399993896484375</ele>
        <time>2019-07-26T08:43:38.000Z</time>
      </trkpt>
      <trkpt lat="42.999466024339199066162109375" lon="-7.5758908130228519439697265625">
        <ele>404.20001220703125</ele>
        <time>2019-07-26T08:43:43.000Z</time>
      </trkpt>
      <trkpt lat="42.9994651861488819122314453125" lon="-7.5759628973901271820068359375">
        <ele>404.79998779296875</ele>
        <time>2019-07-26T08:43:46.000Z</time>
      </trkpt>
      <trkpt lat="42.99946610815823078155517578125" lon="-7.57601545192301273345947265625">
        <ele>405.399993896484375</ele>
        <time>2019-07-26T08:43:48.000Z</time>
      </trkpt>
      <trkpt lat="42.99945990554988384246826171875" lon="-7.57612324319779872894287109375">
        <ele>406.600006103515625</ele>
        <time>2019-07-26T08:43:52.000Z</time>
      </trkpt>
      <trkpt lat="42.99944733269512653350830078125" lon="-7.57619641721248626708984375">
        <ele>407.399993896484375</ele>
        <time>2019-07-26T08:43:55.000Z</time>
      </trkpt>
      <trkpt lat="42.99944213591516017913818359375" lon="-7.576221562922000885009765625">
        <ele>407.600006103515625</ele>
        <time>2019-07-26T08:43:56.000Z</time>
      </trkpt>
      <trkpt lat="42.99942151643335819244384765625" lon="-7.57634184323251247406005859375">
        <ele>408.79998779296875</ele>
        <time>2019-07-26T08:44:01.000Z</time>
      </trkpt>
      <trkpt lat="42.9994279704988002777099609375" lon="-7.5763876922428607940673828125">
        <ele>409.399993896484375</ele>
        <time>2019-07-26T08:44:03.000Z</time>
      </trkpt>
      <trkpt lat="42.99944020807743072509765625" lon="-7.57643655873835086822509765625">
        <ele>410</ele>
        <time>2019-07-26T08:44:05.000Z</time>
      </trkpt>
      <trkpt lat="42.9994423873722553253173828125" lon="-7.5765127502381801605224609375">
        <ele>410.600006103515625</ele>
        <time>2019-07-26T08:44:08.000Z</time>
      </trkpt>
      <trkpt lat="42.99944364465773105621337890625" lon="-7.57656061090528964996337890625">
        <ele>411</ele>
        <time>2019-07-26T08:44:10.000Z</time>
      </trkpt>
      <trkpt lat="42.99945018254220485687255859375" lon="-7.576631270349025726318359375">
        <ele>412</ele>
        <time>2019-07-26T08:44:13.000Z</time>
      </trkpt>
      <trkpt lat="42.9994514398276805877685546875" lon="-7.57665599696338176727294921875">
        <ele>412.20001220703125</ele>
        <time>2019-07-26T08:44:14.000Z</time>
      </trkpt>
      <trkpt lat="42.99945655278861522674560546875" lon="-7.57674761116504669189453125">
        <ele>413.399993896484375</ele>
        <time>2019-07-26T08:44:18.000Z</time>
      </trkpt>
      <trkpt lat="42.99946342594921588897705078125" lon="-7.576813995838165283203125">
        <ele>414.399993896484375</ele>
        <time>2019-07-26T08:44:21.000Z</time>
      </trkpt>
      <trkpt lat="42.99946166574954986572265625" lon="-7.57683604024350643157958984375">
        <ele>414.600006103515625</ele>
        <time>2019-07-26T08:44:22.000Z</time>
      </trkpt>
      <trkpt lat="42.9994408786296844482421875" lon="-7.576920278370380401611328125">
        <ele>415.79998779296875</ele>
        <time>2019-07-26T08:44:26.000Z</time>
      </trkpt>
      <trkpt lat="42.99943660385906696319580078125" lon="-7.57696109823882579803466796875">
        <ele>416.399993896484375</ele>
        <time>2019-07-26T08:44:28.000Z</time>
      </trkpt>
      <trkpt lat="42.99944347701966762542724609375" lon="-7.577022202312946319580078125">
        <ele>417</ele>
        <time>2019-07-26T08:44:31.000Z</time>
      </trkpt>
      <trkpt lat="42.99943258054554462432861328125" lon="-7.5770937837660312652587890625">
        <ele>417.600006103515625</ele>
        <time>2019-07-26T08:44:34.000Z</time>
      </trkpt>
      <trkpt lat="42.99941363744437694549560546875" lon="-7.57713275961577892303466796875">
        <ele>418</ele>
        <time>2019-07-26T08:44:36.000Z</time>
      </trkpt>
      <trkpt lat="42.99940743483603000640869140625" lon="-7.5771548040211200714111328125">
        <ele>418.399993896484375</ele>
        <time>2019-07-26T08:44:37.000Z</time>
      </trkpt>
      <trkpt lat="42.99940533936023712158203125" lon="-7.577200569212436676025390625">
        <ele>418.79998779296875</ele>
        <time>2019-07-26T08:44:39.000Z</time>
      </trkpt>
      <trkpt lat="42.99939419142901897430419921875" lon="-7.57724474184215068817138671875">
        <ele>419.20001220703125</ele>
        <time>2019-07-26T08:44:41.000Z</time>
      </trkpt>
      <trkpt lat="42.99935194663703441619873046875" lon="-7.57728799246251583099365234375">
        <ele>419.79998779296875</ele>
        <time>2019-07-26T08:44:44.000Z</time>
      </trkpt>
      <trkpt lat="42.99932730384171009063720703125" lon="-7.57734850980341434478759765625">
        <ele>420.399993896484375</ele>
        <time>2019-07-26T08:44:47.000Z</time>
      </trkpt>
      <trkpt lat="42.9993193410336971282958984375" lon="-7.57736979983747005462646484375">
        <ele>421</ele>
        <time>2019-07-26T08:44:48.000Z</time>
      </trkpt>
      <trkpt lat="42.99928304739296436309814453125" lon="-7.57742662914097309112548828125">
        <ele>421.399993896484375</ele>
        <time>2019-07-26T08:44:51.000Z</time>
      </trkpt>
      <trkpt lat="42.9992254637181758880615234375" lon="-7.5774843804538249969482421875">
        <ele>422.600006103515625</ele>
        <time>2019-07-26T08:44:55.000Z</time>
      </trkpt>
      <trkpt lat="42.99921146593987941741943359375" lon="-7.57752813398838043212890625">
        <ele>423.20001220703125</ele>
        <time>2019-07-26T08:44:57.000Z</time>
      </trkpt>
      <trkpt lat="42.99919151701033115386962890625" lon="-7.577567361295223236083984375">
        <ele>423.600006103515625</ele>
        <time>2019-07-26T08:44:59.000Z</time>
      </trkpt>
      <trkpt lat="42.99912965856492519378662109375" lon="-7.5776486657559871673583984375">
        <ele>424.600006103515625</ele>
        <time>2019-07-26T08:45:04.000Z</time>
      </trkpt>
      <trkpt lat="42.9991164989769458770751953125" lon="-7.5776661001145839691162109375">
        <ele>424.79998779296875</ele>
        <time>2019-07-26T08:45:05.000Z</time>
      </trkpt>
      <trkpt lat="42.99905908294022083282470703125" lon="-7.577716894447803497314453125">
        <ele>425.600006103515625</ele>
        <time>2019-07-26T08:45:09.000Z</time>
      </trkpt>
      <trkpt lat="42.999005019664764404296875" lon="-7.57778353057801723480224609375">
        <ele>426.399993896484375</ele>
        <time>2019-07-26T08:45:13.000Z</time>
      </trkpt>
      <trkpt lat="42.99896034412086009979248046875" lon="-7.577834241092205047607421875">
        <ele>427.20001220703125</ele>
        <time>2019-07-26T08:45:16.000Z</time>
      </trkpt>
      <trkpt lat="42.99890385009348392486572265625" lon="-7.57788981311023235321044921875">
        <ele>427.79998779296875</ele>
        <time>2019-07-26T08:45:20.000Z</time>
      </trkpt>
      <trkpt lat="42.99885774962604045867919921875" lon="-7.577933482825756072998046875">
        <ele>428.20001220703125</ele>
        <time>2019-07-26T08:45:23.000Z</time>
      </trkpt>
      <trkpt lat="42.99878172576427459716796875" lon="-7.5780281983315944671630859375">
        <ele>429.20001220703125</ele>
        <time>2019-07-26T08:45:28.000Z</time>
      </trkpt>
      <trkpt lat="42.99876563251018524169921875" lon="-7.57804420776665210723876953125">
        <ele>429.399993896484375</ele>
        <time>2019-07-26T08:45:29.000Z</time>
      </trkpt>
      <trkpt lat="42.99870050512254238128662109375" lon="-7.57812651805579662322998046875">
        <ele>430.600006103515625</ele>
        <time>2019-07-26T08:45:34.000Z</time>
      </trkpt>
      <trkpt lat="42.99868290312588214874267578125" lon="-7.57814696989953517913818359375">
        <ele>430.600006103515625</ele>
        <time>2019-07-26T08:45:35.000Z</time>
      </trkpt>
      <trkpt lat="42.998622469604015350341796875" lon="-7.57820715196430683135986328125">
        <ele>431.600006103515625</ele>
        <time>2019-07-26T08:45:39.000Z</time>
      </trkpt>
      <trkpt lat="42.99859187565743923187255859375" lon="-7.57823380641639232635498046875">
        <ele>432</ele>
        <time>2019-07-26T08:45:41.000Z</time>
      </trkpt>
      <trkpt lat="42.99854275770485401153564453125" lon="-7.57828376255929470062255859375">
        <ele>433</ele>
        <time>2019-07-26T08:45:44.000Z</time>
      </trkpt>
      <trkpt lat="42.9984509758651256561279296875" lon="-7.57839691825211048126220703125">
        <ele>434</ele>
        <time>2019-07-26T08:45:49.000Z</time>
      </trkpt>
      <trkpt lat="42.99843563698232173919677734375" lon="-7.5784139335155487060546875">
        <ele>434.20001220703125</ele>
        <time>2019-07-26T08:45:50.000Z</time>
      </trkpt>
      <trkpt lat="42.9983557574450969696044921875" lon="-7.57851426489651203155517578125">
        <ele>435.20001220703125</ele>
        <time>2019-07-26T08:45:55.000Z</time>
      </trkpt>
      <trkpt lat="42.9982714354991912841796875" lon="-7.5786441005766391754150390625">
        <ele>436.399993896484375</ele>
        <time>2019-07-26T08:46:00.000Z</time>
      </trkpt>
      <trkpt lat="42.9982477985322475433349609375" lon="-7.57867486216127872467041015625">
        <ele>436.399993896484375</ele>
        <time>2019-07-26T08:46:01.000Z</time>
      </trkpt>
      <trkpt lat="42.9981049709022045135498046875" lon="-7.578849457204341888427734375">
        <ele>437.399993896484375</ele>
        <time>2019-07-26T08:46:07.000Z</time>
      </trkpt>
      <trkpt lat="42.99801017157733440399169921875" lon="-7.57901608943939208984375">
        <ele>438.20001220703125</ele>
        <time>2019-07-26T08:46:12.000Z</time>
      </trkpt>
      <trkpt lat="42.997983433306217193603515625" lon="-7.5790434144437313079833984375">
        <ele>438.399993896484375</ele>
        <time>2019-07-26T08:46:13.000Z</time>
      </trkpt>
      <trkpt lat="42.9978692717850208282470703125" lon="-7.579211555421352386474609375">
        <ele>439.600006103515625</ele>
        <time>2019-07-26T08:46:18.000Z</time>
      </trkpt>
      <trkpt lat="42.99784789793193340301513671875" lon="-7.57924784906208515167236328125">
        <ele>439.600006103515625</ele>
        <time>2019-07-26T08:46:19.000Z</time>
      </trkpt>
      <trkpt lat="42.99775804392993450164794921875" lon="-7.57941297255456447601318359375">
        <ele>440.79998779296875</ele>
        <time>2019-07-26T08:46:24.000Z</time>
      </trkpt>
      <trkpt lat="42.99773038364946842193603515625" lon="-7.57947633974254131317138671875">
        <ele>441</ele>
        <time>2019-07-26T08:46:26.000Z</time>
      </trkpt>
      <trkpt lat="42.9976389370858669281005859375" lon="-7.57963459007441997528076171875">
        <ele>442</ele>
        <time>2019-07-26T08:46:31.000Z</time>
      </trkpt>
      <trkpt lat="42.9975983686745166778564453125" lon="-7.579705752432346343994140625">
        <ele>442.20001220703125</ele>
        <time>2019-07-26T08:46:33.000Z</time>
      </trkpt>
      <trkpt lat="42.99751128070056438446044921875" lon="-7.57983877323567867279052734375">
        <ele>443</ele>
        <time>2019-07-26T08:46:37.000Z</time>
      </trkpt>
      <trkpt lat="42.997394017875194549560546875" lon="-7.58008101023733615875244140625">
        <ele>444</ele>
        <time>2019-07-26T08:46:42.000Z</time>
      </trkpt>
      <trkpt lat="42.99727340228855609893798828125" lon="-7.5803218223154544830322265625">
        <ele>444.79998779296875</ele>
        <time>2019-07-26T08:46:47.000Z</time>
      </trkpt>
      <trkpt lat="42.9972238652408123016357421875" lon="-7.580421231687068939208984375">
        <ele>445.20001220703125</ele>
        <time>2019-07-26T08:46:49.000Z</time>
      </trkpt>
      <trkpt lat="42.99720182083547115325927734375" lon="-7.58047613315284252166748046875">
        <ele>445.399993896484375</ele>
        <time>2019-07-26T08:46:50.000Z</time>
      </trkpt>
      <trkpt lat="42.9970672912895679473876953125" lon="-7.58076732046902179718017578125">
        <ele>445.600006103515625</ele>
        <time>2019-07-26T08:46:55.000Z</time>
      </trkpt>
      <trkpt lat="42.99681055359542369842529296875" lon="-7.58127660490572452545166015625">
        <ele>446</ele>
        <time>2019-07-26T08:47:04.000Z</time>
      </trkpt>
      <trkpt lat="42.9965476132929325103759765625" lon="-7.58178538642823696136474609375">
        <ele>446.20001220703125</ele>
        <time>2019-07-26T08:47:14.000Z</time>
      </trkpt>
      <trkpt lat="42.9962705075740814208984375" lon="-7.58225125260651111602783203125">
        <ele>447</ele>
        <time>2019-07-26T08:47:23.000Z</time>
      </trkpt>
      <trkpt lat="42.9960376583039760589599609375" lon="-7.58270370773971080780029296875">
        <ele>447.20001220703125</ele>
        <time>2019-07-26T08:47:30.000Z</time>
      </trkpt>
      <trkpt lat="42.9960108362138271331787109375" lon="-7.5829547457396984100341796875">
        <ele>447.20001220703125</ele>
        <time>2019-07-26T08:47:33.000Z</time>
      </trkpt>
      <trkpt lat="42.99601376987993717193603515625" lon="-7.583052814006805419921875">
        <ele>447.20001220703125</ele>
        <time>2019-07-26T08:47:34.000Z</time>
      </trkpt>
      <trkpt lat="42.99602298997342586517333984375" lon="-7.5831560790538787841796875">
        <ele>447.20001220703125</ele>
        <time>2019-07-26T08:47:35.000Z</time>
      </trkpt>
      <trkpt lat="42.9960530810058116912841796875" lon="-7.583488337695598602294921875">
        <ele>446.79998779296875</ele>
        <time>2019-07-26T08:47:38.000Z</time>
      </trkpt>
      <trkpt lat="42.99606892280280590057373046875" lon="-7.58374172262847423553466796875">
        <ele>446.20001220703125</ele>
        <time>2019-07-26T08:47:40.000Z</time>
      </trkpt>
      <trkpt lat="42.99609951674938201904296875" lon="-7.58401698432862758636474609375">
        <ele>445.20001220703125</ele>
        <time>2019-07-26T08:47:42.000Z</time>
      </trkpt>
      <trkpt lat="42.99612038768827915191650390625" lon="-7.584163248538970947265625">
        <ele>444.79998779296875</ele>
        <time>2019-07-26T08:47:43.000Z</time>
      </trkpt>
      <trkpt lat="42.99616330303251743316650390625" lon="-7.584458291530609130859375">
        <ele>444.20001220703125</ele>
        <time>2019-07-26T08:47:45.000Z</time>
      </trkpt>
      <trkpt lat="42.9962042905390262603759765625" lon="-7.584754340350627899169921875">
        <ele>442.79998779296875</ele>
        <time>2019-07-26T08:47:47.000Z</time>
      </trkpt>
      <trkpt lat="42.9962455295026302337646484375" lon="-7.58504359982907772064208984375">
        <ele>441.399993896484375</ele>
        <time>2019-07-26T08:47:49.000Z</time>
      </trkpt>
      <trkpt lat="42.9962797276675701141357421875" lon="-7.58532757870852947235107421875">
        <ele>439.600006103515625</ele>
        <time>2019-07-26T08:47:51.000Z</time>
      </trkpt>
      <trkpt lat="42.996309064328670501708984375" lon="-7.58560837246477603912353515625">
        <ele>438.600006103515625</ele>
        <time>2019-07-26T08:47:53.000Z</time>
      </trkpt>
      <trkpt lat="42.99631870351731777191162109375" lon="-7.585892267525196075439453125">
        <ele>436.600006103515625</ele>
        <time>2019-07-26T08:47:55.000Z</time>
      </trkpt>
      <trkpt lat="42.99631803296506404876708984375" lon="-7.586170546710491180419921875">
        <ele>435.399993896484375</ele>
        <time>2019-07-26T08:47:57.000Z</time>
      </trkpt>
      <trkpt lat="42.99631434492766857147216796875" lon="-7.5864359177649021148681640625">
        <ele>434.20001220703125</ele>
        <time>2019-07-26T08:47:59.000Z</time>
      </trkpt>
      <trkpt lat="42.9962891153991222381591796875" lon="-7.5867877900600433349609375">
        <ele>433</ele>
        <time>2019-07-26T08:48:02.000Z</time>
      </trkpt>
      <trkpt lat="42.99624226056039333343505859375" lon="-7.5871342979371547698974609375">
        <ele>432.20001220703125</ele>
        <time>2019-07-26T08:48:06.000Z</time>
      </trkpt>
      <trkpt lat="42.996219210326671600341796875" lon="-7.58731283247470855712890625">
        <ele>432.20001220703125</ele>
        <time>2019-07-26T08:48:10.000Z</time>
      </trkpt>
      <trkpt lat="42.99620571546256542205810546875" lon="-7.58733437396585941314697265625">
        <ele>432.600006103515625</ele>
        <time>2019-07-26T08:48:14.000Z</time>
      </trkpt>
      <trkpt lat="42.99619900994002819061279296875" lon="-7.58733789436519145965576171875">
        <ele>432.79998779296875</ele>
        <time>2019-07-26T08:48:15.000Z</time>
      </trkpt>
      <trkpt lat="42.99615659750998020172119140625" lon="-7.587423808872699737548828125">
        <ele>433.79998779296875</ele>
        <time>2019-07-26T08:48:19.000Z</time>
      </trkpt>
      <trkpt lat="42.99611753784120082855224609375" lon="-7.5874880142509937286376953125">
        <ele>434</ele>
        <time>2019-07-26T08:48:21.000Z</time>
      </trkpt>
      <trkpt lat="42.9960815794765949249267578125" lon="-7.5875651277601718902587890625">
        <ele>434.20001220703125</ele>
        <time>2019-07-26T08:48:23.000Z</time>
      </trkpt>
      <trkpt lat="42.99606674350798130035400390625" lon="-7.58761323988437652587890625">
        <ele>434.20001220703125</ele>
        <time>2019-07-26T08:48:24.000Z</time>
      </trkpt>
      <trkpt lat="42.9960118420422077178955078125" lon="-7.5878102146089076995849609375">
        <ele>434.600006103515625</ele>
        <time>2019-07-26T08:48:28.000Z</time>
      </trkpt>
      <trkpt lat="42.995962388813495635986328125" lon="-7.5880076922476291656494140625">
        <ele>434.79998779296875</ele>
        <time>2019-07-26T08:48:32.000Z</time>
      </trkpt>
      <trkpt lat="42.9959380812942981719970703125" lon="-7.58810676634311676025390625">
        <ele>435</ele>
        <time>2019-07-26T08:48:34.000Z</time>
      </trkpt>
      <trkpt lat="42.9959236644208431243896484375" lon="-7.588157393038272857666015625">
        <ele>435.20001220703125</ele>
        <time>2019-07-26T08:48:35.000Z</time>
      </trkpt>
      <trkpt lat="42.9958874545991420745849609375" lon="-7.5883412919938564300537109375">
        <ele>436</ele>
        <time>2019-07-26T08:48:39.000Z</time>
      </trkpt>
      <trkpt lat="42.99588024616241455078125" lon="-7.5883848778903484344482421875">
        <ele>436.20001220703125</ele>
        <time>2019-07-26T08:48:40.000Z</time>
      </trkpt>
      <trkpt lat="42.9958663322031497955322265625" lon="-7.588468529284000396728515625">
        <ele>436.79998779296875</ele>
        <time>2019-07-26T08:48:42.000Z</time>
      </trkpt>
      <trkpt lat="42.995853424072265625" lon="-7.5885538570582866668701171875">
        <ele>437.20001220703125</ele>
        <time>2019-07-26T08:48:44.000Z</time>
      </trkpt>
      <trkpt lat="42.99581277184188365936279296875" lon="-7.58871696889400482177734375">
        <ele>438.399993896484375</ele>
        <time>2019-07-26T08:48:48.000Z</time>
      </trkpt>
      <trkpt lat="42.9957828484475612640380859375" lon="-7.58878846652805805206298828125">
        <ele>438.79998779296875</ele>
        <time>2019-07-26T08:48:50.000Z</time>
      </trkpt>
      <trkpt lat="42.99575150012969970703125" lon="-7.58886155672371387481689453125">
        <ele>439.399993896484375</ele>
        <time>2019-07-26T08:48:52.000Z</time>
      </trkpt>
      <trkpt lat="42.99566793255507946014404296875" lon="-7.5889887101948261260986328125">
        <ele>440.20001220703125</ele>
        <time>2019-07-26T08:48:56.000Z</time>
      </trkpt>
      <trkpt lat="42.99564362503588199615478515625" lon="-7.5890178792178630828857421875">
        <ele>440.600006103515625</ele>
        <time>2019-07-26T08:48:57.000Z</time>
      </trkpt>
      <trkpt lat="42.99561982043087482452392578125" lon="-7.58904746733605861663818359375">
        <ele>440.79998779296875</ele>
        <time>2019-07-26T08:48:58.000Z</time>
      </trkpt>
      <trkpt lat="42.99557154066860675811767578125" lon="-7.58910731412470340728759765625">
        <ele>441.600006103515625</ele>
        <time>2019-07-26T08:49:00.000Z</time>
      </trkpt>
      <trkpt lat="42.9954961873590946197509765625" lon="-7.58918057195842266082763671875">
        <ele>442.399993896484375</ele>
        <time>2019-07-26T08:49:03.000Z</time>
      </trkpt>
      <trkpt lat="42.995470874011516571044921875" lon="-7.58920119144022464752197265625">
        <ele>442.79998779296875</ele>
        <time>2019-07-26T08:49:04.000Z</time>
      </trkpt>
      <trkpt lat="42.99541597254574298858642578125" lon="-7.5892408378422260284423828125">
        <ele>443.20001220703125</ele>
        <time>2019-07-26T08:49:06.000Z</time>
      </trkpt>
      <trkpt lat="42.99536668695509433746337890625" lon="-7.5892797298729419708251953125">
        <ele>444</ele>
        <time>2019-07-26T08:49:08.000Z</time>
      </trkpt>
      <trkpt lat="42.9952722229063510894775390625" lon="-7.58934938348829746246337890625">
        <ele>445.399993896484375</ele>
        <time>2019-07-26T08:49:12.000Z</time>
      </trkpt>
      <trkpt lat="42.9952266253530979156494140625" lon="-7.58938810788094997406005859375">
        <ele>446</ele>
        <time>2019-07-26T08:49:14.000Z</time>
      </trkpt>
      <trkpt lat="42.99520508386194705963134765625" lon="-7.58940889500081539154052734375">
        <ele>446.399993896484375</ele>
        <time>2019-07-26T08:49:15.000Z</time>
      </trkpt>
      <trkpt lat="42.995134927332401275634765625" lon="-7.5894681550562381744384765625">
        <ele>447.600006103515625</ele>
        <time>2019-07-26T08:49:18.000Z</time>
      </trkpt>
      <trkpt lat="42.9950284771621227264404296875" lon="-7.5895234756171703338623046875">
        <ele>448.600006103515625</ele>
        <time>2019-07-26T08:49:22.000Z</time>
      </trkpt>
      <trkpt lat="42.994909621775150299072265625" lon="-7.5896126590669155120849609375">
        <ele>450</ele>
        <time>2019-07-26T08:49:27.000Z</time>
      </trkpt>
      <trkpt lat="42.99481230787932872772216796875" lon="-7.58969320915639400482177734375">
        <ele>450.79998779296875</ele>
        <time>2019-07-26T08:49:31.000Z</time>
      </trkpt>
      <trkpt lat="42.99475497566163539886474609375" lon="-7.58972891606390476226806640625">
        <ele>451.20001220703125</ele>
        <time>2019-07-26T08:49:33.000Z</time>
      </trkpt>
      <trkpt lat="42.9946412332355976104736328125" lon="-7.58980737067759037017822265625">
        <ele>452.20001220703125</ele>
        <time>2019-07-26T08:49:37.000Z</time>
      </trkpt>
      <trkpt lat="42.9946120642125606536865234375" lon="-7.58983050473034381866455078125">
        <ele>452.399993896484375</ele>
        <time>2019-07-26T08:49:38.000Z</time>
      </trkpt>
      <trkpt lat="42.99443445168435573577880859375" lon="-7.5899707339704036712646484375">
        <ele>453.600006103515625</ele>
        <time>2019-07-26T08:49:44.000Z</time>
      </trkpt>
      <trkpt lat="42.9944018460810184478759765625" lon="-7.58999311365187168121337890625">
        <ele>453.600006103515625</ele>
        <time>2019-07-26T08:49:45.000Z</time>
      </trkpt>
      <trkpt lat="42.9942134208977222442626953125" lon="-7.59014750830829143524169921875">
        <ele>454.79998779296875</ele>
        <time>2019-07-26T08:49:51.000Z</time>
      </trkpt>
      <trkpt lat="42.9941497184336185455322265625" lon="-7.5902020744979381561279296875">
        <ele>455.20001220703125</ele>
        <time>2019-07-26T08:49:53.000Z</time>
      </trkpt>
      <trkpt lat="42.99404553137719631195068359375" lon="-7.59027759544551372528076171875">
        <ele>455.79998779296875</ele>
        <time>2019-07-26T08:49:56.000Z</time>
      </trkpt>
      <trkpt lat="42.9938565194606781005859375" lon="-7.5904210098087787628173828125">
        <ele>456.399993896484375</ele>
        <time>2019-07-26T08:50:01.000Z</time>
      </trkpt>
      <trkpt lat="42.99373556859791278839111328125" lon="-7.59053056128323078155517578125">
        <ele>456.600006103515625</ele>
        <time>2019-07-26T08:50:04.000Z</time>
      </trkpt>
      <trkpt lat="42.99365468323230743408203125" lon="-7.5906201638281345367431640625">
        <ele>456.79998779296875</ele>
        <time>2019-07-26T08:50:06.000Z</time>
      </trkpt>
      <trkpt lat="42.99362023361027240753173828125" lon="-7.59067171253263950347900390625">
        <ele>456.79998779296875</ele>
        <time>2019-07-26T08:50:07.000Z</time>
      </trkpt>
      <trkpt lat="42.99347899854183197021484375" lon="-7.59089752100408077239990234375">
        <ele>457.20001220703125</ele>
        <time>2019-07-26T08:50:11.000Z</time>
      </trkpt>
      <trkpt lat="42.99345091916620731353759765625" lon="-7.59096239693462848663330078125">
        <ele>457.20001220703125</ele>
        <time>2019-07-26T08:50:12.000Z</time>
      </trkpt>
      <trkpt lat="42.993253357708454132080078125" lon="-7.591540999710559844970703125">
        <ele>457.399993896484375</ele>
        <time>2019-07-26T08:50:20.000Z</time>
      </trkpt>
      <trkpt lat="42.99307708628475666046142578125" lon="-7.592105604708194732666015625">
        <ele>458.20001220703125</ele>
        <time>2019-07-26T08:50:28.000Z</time>
      </trkpt>
      <trkpt lat="42.993007935583591461181640625" lon="-7.5923039205372333526611328125">
        <ele>458.399993896484375</ele>
        <time>2019-07-26T08:50:31.000Z</time>
      </trkpt>
      <trkpt lat="42.99291531555354595184326171875" lon="-7.59261824190616607666015625">
        <ele>459</ele>
        <time>2019-07-26T08:50:36.000Z</time>
      </trkpt>
      <trkpt lat="42.99289427697658538818359375" lon="-7.59267314337193965911865234375">
        <ele>459.20001220703125</ele>
        <time>2019-07-26T08:50:37.000Z</time>
      </trkpt>
      <trkpt lat="42.99287281930446624755859375" lon="-7.59272661991417407989501953125">
        <ele>459.399993896484375</ele>
        <time>2019-07-26T08:50:38.000Z</time>
      </trkpt>
      <trkpt lat="42.99276360310614109039306640625" lon="-7.59304915554821491241455078125">
        <ele>460.399993896484375</ele>
        <time>2019-07-26T08:50:44.000Z</time>
      </trkpt>
      <trkpt lat="42.99270627088844776153564453125" lon="-7.5932121835649013519287109375">
        <ele>461.600006103515625</ele>
        <time>2019-07-26T08:50:47.000Z</time>
      </trkpt>
      <trkpt lat="42.992655225098133087158203125" lon="-7.59338107891380786895751953125">
        <ele>462.79998779296875</ele>
        <time>2019-07-26T08:50:50.000Z</time>
      </trkpt>
      <trkpt lat="42.9925601743161678314208984375" lon="-7.59365265257656574249267578125">
        <ele>464</ele>
        <time>2019-07-26T08:50:55.000Z</time>
      </trkpt>
      <trkpt lat="42.99244425259530544281005859375" lon="-7.593980133533477783203125">
        <ele>465</ele>
        <time>2019-07-26T08:51:01.000Z</time>
      </trkpt>
      <trkpt lat="42.99239060841500759124755859375" lon="-7.5941526331007480621337890625">
        <ele>465.600006103515625</ele>
        <time>2019-07-26T08:51:04.000Z</time>
      </trkpt>
      <trkpt lat="42.99233310855925083160400390625" lon="-7.594326473772525787353515625">
        <ele>466</ele>
        <time>2019-07-26T08:51:07.000Z</time>
      </trkpt>
      <trkpt lat="42.992246188223361968994140625" lon="-7.59461405687034130096435546875">
        <ele>467</ele>
        <time>2019-07-26T08:51:12.000Z</time>
      </trkpt>
      <trkpt lat="42.99216882325708866119384765625" lon="-7.59489233605563640594482421875">
        <ele>468.20001220703125</ele>
        <time>2019-07-26T08:51:17.000Z</time>
      </trkpt>
      <trkpt lat="42.99213479273021221160888671875" lon="-7.59499979205429553985595703125">
        <ele>468.600006103515625</ele>
        <time>2019-07-26T08:51:19.000Z</time>
      </trkpt>
      <trkpt lat="42.99211886711418628692626953125" lon="-7.59505410678684711456298828125">
        <ele>468.79998779296875</ele>
        <time>2019-07-26T08:51:20.000Z</time>
      </trkpt>
      <trkpt lat="42.9920924641191959381103515625" lon="-7.5952248461544513702392578125">
        <ele>469.399993896484375</ele>
        <time>2019-07-26T08:51:23.000Z</time>
      </trkpt>
      <trkpt lat="42.9920777119696140289306640625" lon="-7.5953401811420917510986328125">
        <ele>469.79998779296875</ele>
        <time>2019-07-26T08:51:25.000Z</time>
      </trkpt>
      <trkpt lat="42.9920433461666107177734375" lon="-7.595514692366123199462890625">
        <ele>470.399993896484375</ele>
        <time>2019-07-26T08:51:28.000Z</time>
      </trkpt>
      <trkpt lat="42.99197838641703128814697265625" lon="-7.5958107411861419677734375">
        <ele>471.600006103515625</ele>
        <time>2019-07-26T08:51:33.000Z</time>
      </trkpt>
      <trkpt lat="42.9919556714594364166259765625" lon="-7.59593152441084384918212890625">
        <ele>471.79998779296875</ele>
        <time>2019-07-26T08:51:35.000Z</time>
      </trkpt>
      <trkpt lat="42.99189339391887187957763671875" lon="-7.59628607891499996185302734375">
        <ele>472.79998779296875</ele>
        <time>2019-07-26T08:51:41.000Z</time>
      </trkpt>
      <trkpt lat="42.99187235534191131591796875" lon="-7.59640124626457691192626953125">
        <ele>473</ele>
        <time>2019-07-26T08:51:43.000Z</time>
      </trkpt>
      <trkpt lat="42.9918577708303928375244140625" lon="-7.59671741165220737457275390625">
        <ele>473.79998779296875</ele>
        <time>2019-07-26T08:51:48.000Z</time>
      </trkpt>
      <trkpt lat="42.99186053685843944549560546875" lon="-7.5968509353697299957275390625">
        <ele>474</ele>
        <time>2019-07-26T08:51:50.000Z</time>
      </trkpt>
      <trkpt lat="42.99187361262738704681396484375" lon="-7.5972646661102771759033203125">
        <ele>474.79998779296875</ele>
        <time>2019-07-26T08:51:56.000Z</time>
      </trkpt>
      <trkpt lat="42.991872690618038177490234375" lon="-7.59733331389725208282470703125">
        <ele>474.79998779296875</ele>
        <time>2019-07-26T08:51:57.000Z</time>
      </trkpt>
      <trkpt lat="42.9918701760470867156982421875" lon="-7.597400285303592681884765625">
        <ele>474.79998779296875</ele>
        <time>2019-07-26T08:51:58.000Z</time>
      </trkpt>
      <trkpt lat="42.99186036922037601470947265625" lon="-7.59752693586051464080810546875">
        <ele>475</ele>
        <time>2019-07-26T08:52:00.000Z</time>
      </trkpt>
      <trkpt lat="42.9918571002781391143798828125" lon="-7.59758812375366687774658203125">
        <ele>475.20001220703125</ele>
        <time>2019-07-26T08:52:01.000Z</time>
      </trkpt>
      <trkpt lat="42.9918510653078556060791015625" lon="-7.59770379401743412017822265625">
        <ele>475.20001220703125</ele>
        <time>2019-07-26T08:52:03.000Z</time>
      </trkpt>
      <trkpt lat="42.99184285104274749755859375" lon="-7.59775710292160511016845703125">
        <ele>475.20001220703125</ele>
        <time>2019-07-26T08:52:04.000Z</time>
      </trkpt>
      <trkpt lat="42.99177604727447032928466796875" lon="-7.5979057140648365020751953125">
        <ele>475.399993896484375</ele>
        <time>2019-07-26T08:52:07.000Z</time>
      </trkpt>
      <trkpt lat="42.9916837625205516815185546875" lon="-7.59806388057768344879150390625">
        <ele>475.399993896484375</ele>
        <time>2019-07-26T08:52:10.000Z</time>
      </trkpt>
      <trkpt lat="42.99163539893925189971923828125" lon="-7.5981789641082286834716796875">
        <ele>475.399993896484375</ele>
        <time>2019-07-26T08:52:12.000Z</time>
      </trkpt>
      <trkpt lat="42.99147597514092922210693359375" lon="-7.59862060658633708953857421875">
        <ele>475.600006103515625</ele>
        <time>2019-07-26T08:52:19.000Z</time>
      </trkpt>
      <trkpt lat="42.9914279468357563018798828125" lon="-7.5987509451806545257568359375">
        <ele>475.79998779296875</ele>
        <time>2019-07-26T08:52:21.000Z</time>
      </trkpt>
      <trkpt lat="42.9911852069199085235595703125" lon="-7.5994241796433925628662109375">
        <ele>476.399993896484375</ele>
        <time>2019-07-26T08:52:31.000Z</time>
      </trkpt>
      <trkpt lat="42.99101597629487514495849609375" lon="-7.60005642659962177276611328125">
        <ele>476.79998779296875</ele>
        <time>2019-07-26T08:52:40.000Z</time>
      </trkpt>
      <trkpt lat="42.99091338180005550384521484375" lon="-7.60059169493615627288818359375">
        <ele>477.399993896484375</ele>
        <time>2019-07-26T08:52:48.000Z</time>
      </trkpt>
      <trkpt lat="42.99089376814663410186767578125" lon="-7.600726224482059478759765625">
        <ele>477.600006103515625</ele>
        <time>2019-07-26T08:52:50.000Z</time>
      </trkpt>
      <trkpt lat="42.990858145058155059814453125" lon="-7.60098782368004322052001953125">
        <ele>478.399993896484375</ele>
        <time>2019-07-26T08:52:54.000Z</time>
      </trkpt>
      <trkpt lat="42.9908301495015621185302734375" lon="-7.6012430526316165924072265625">
        <ele>479.399993896484375</ele>
        <time>2019-07-26T08:52:58.000Z</time>
      </trkpt>
      <trkpt lat="42.99082227051258087158203125" lon="-7.60130700655281543731689453125">
        <ele>479.600006103515625</ele>
        <time>2019-07-26T08:52:59.000Z</time>
      </trkpt>
      <trkpt lat="42.99080207012593746185302734375" lon="-7.60155829600989818572998046875">
        <ele>480.600006103515625</ele>
        <time>2019-07-26T08:53:03.000Z</time>
      </trkpt>
      <trkpt lat="42.99080123193562030792236328125" lon="-7.6018036343157291412353515625">
        <ele>481.600006103515625</ele>
        <time>2019-07-26T08:53:07.000Z</time>
      </trkpt>
      <trkpt lat="42.990829981863498687744140625" lon="-7.602055929601192474365234375">
        <ele>482.79998779296875</ele>
        <time>2019-07-26T08:53:11.000Z</time>
      </trkpt>
      <trkpt lat="42.9908576421439647674560546875" lon="-7.60224871337413787841796875">
        <ele>483.399993896484375</ele>
        <time>2019-07-26T08:53:14.000Z</time>
      </trkpt>
      <trkpt lat="42.9908851347863674163818359375" lon="-7.60243889875710010528564453125">
        <ele>483.79998779296875</ele>
        <time>2019-07-26T08:53:17.000Z</time>
      </trkpt>
      <trkpt lat="42.990930564701557159423828125" lon="-7.60294231586158275604248046875">
        <ele>484.79998779296875</ele>
        <time>2019-07-26T08:53:25.000Z</time>
      </trkpt>
      <trkpt lat="42.99093198962509632110595703125" lon="-7.6030055992305278778076171875">
        <ele>485</ele>
        <time>2019-07-26T08:53:26.000Z</time>
      </trkpt>
      <trkpt lat="42.99094992689788341522216796875" lon="-7.60319293476641178131103515625">
        <ele>485.20001220703125</ele>
        <time>2019-07-26T08:53:29.000Z</time>
      </trkpt>
      <trkpt lat="42.99096367321908473968505859375" lon="-7.60337683372199535369873046875">
        <ele>485.399993896484375</ele>
        <time>2019-07-26T08:53:32.000Z</time>
      </trkpt>
      <trkpt lat="42.99097037874162197113037109375" lon="-7.60394026525318622589111328125">
        <ele>486</ele>
        <time>2019-07-26T08:53:41.000Z</time>
      </trkpt>
      <trkpt lat="42.99096417613327503204345703125" lon="-7.6041351445019245147705078125">
        <ele>486.600006103515625</ele>
        <time>2019-07-26T08:53:44.000Z</time>
      </trkpt>
      <trkpt lat="42.99089008010923862457275390625" lon="-7.60457678698003292083740234375">
        <ele>487</ele>
        <time>2019-07-26T08:53:51.000Z</time>
      </trkpt>
      <trkpt lat="42.99087398685514926910400390625" lon="-7.604636885225772857666015625">
        <ele>487.20001220703125</ele>
        <time>2019-07-26T08:53:52.000Z</time>
      </trkpt>
      <trkpt lat="42.9907154850661754608154296875" lon="-7.6051721535623073577880859375">
        <ele>488.20001220703125</ele>
        <time>2019-07-26T08:54:01.000Z</time>
      </trkpt>
      <trkpt lat="42.990582548081874847412109375" lon="-7.605605833232402801513671875">
        <ele>489.20001220703125</ele>
        <time>2019-07-26T08:54:08.000Z</time>
      </trkpt>
      <trkpt lat="42.9905461706221103668212890625" lon="-7.60573332197964191436767578125">
        <ele>489.600006103515625</ele>
        <time>2019-07-26T08:54:10.000Z</time>
      </trkpt>
      <trkpt lat="42.99038129858672618865966796875" lon="-7.60624227114021778106689453125">
        <ele>490.399993896484375</ele>
        <time>2019-07-26T08:54:18.000Z</time>
      </trkpt>
      <trkpt lat="42.99032027833163738250732421875" lon="-7.606440670788288116455078125">
        <ele>490.79998779296875</ele>
        <time>2019-07-26T08:54:21.000Z</time>
      </trkpt>
      <trkpt lat="42.99018532969057559967041015625" lon="-7.60683671571314334869384765625">
        <ele>491</ele>
        <time>2019-07-26T08:54:27.000Z</time>
      </trkpt>
      <trkpt lat="42.9900719225406646728515625" lon="-7.60716076008975505828857421875">
        <ele>491.399993896484375</ele>
        <time>2019-07-26T08:54:32.000Z</time>
      </trkpt>
      <trkpt lat="42.98998718149960041046142578125" lon="-7.60742194019258022308349609375">
        <ele>491.79998779296875</ele>
        <time>2019-07-26T08:54:36.000Z</time>
      </trkpt>
      <trkpt lat="42.98982851207256317138671875" lon="-7.60796718299388885498046875">
        <ele>492.20001220703125</ele>
        <time>2019-07-26T08:54:44.000Z</time>
      </trkpt>
      <trkpt lat="42.989754416048526763916015625" lon="-7.60823003947734832763671875">
        <ele>492.399993896484375</ele>
        <time>2019-07-26T08:54:48.000Z</time>
      </trkpt>
      <trkpt lat="42.9897166974842548370361328125" lon="-7.6083609648048877716064453125">
        <ele>492.600006103515625</ele>
        <time>2019-07-26T08:54:50.000Z</time>
      </trkpt>
      <trkpt lat="42.989677302539348602294921875" lon="-7.608490549027919769287109375">
        <ele>492.79998779296875</ele>
        <time>2019-07-26T08:54:52.000Z</time>
      </trkpt>
      <trkpt lat="42.98955895006656646728515625" lon="-7.608866393566131591796875">
        <ele>493.399993896484375</ele>
        <time>2019-07-26T08:54:58.000Z</time>
      </trkpt>
      <trkpt lat="42.9895225726068019866943359375" lon="-7.60898751206696033477783203125">
        <ele>493.600006103515625</ele>
        <time>2019-07-26T08:55:00.000Z</time>
      </trkpt>
      <trkpt lat="42.9893217422068119049072265625" lon="-7.6095340959727764129638671875">
        <ele>494.399993896484375</ele>
        <time>2019-07-26T08:55:09.000Z</time>
      </trkpt>
      <trkpt lat="42.9892634041607379913330078125" lon="-7.60964968241751194000244140625">
        <ele>494.600006103515625</ele>
        <time>2019-07-26T08:55:11.000Z</time>
      </trkpt>
      <trkpt lat="42.98901018686592578887939453125" lon="-7.61009861715137958526611328125">
        <ele>495.399993896484375</ele>
        <time>2019-07-26T08:55:19.000Z</time>
      </trkpt>
      <trkpt lat="42.988770715892314910888671875" lon="-7.61048099957406520843505859375">
        <ele>495.600006103515625</ele>
        <time>2019-07-26T08:55:26.000Z</time>
      </trkpt>
      <trkpt lat="42.98867046833038330078125" lon="-7.61064327321946620941162109375">
        <ele>495.600006103515625</ele>
        <time>2019-07-26T08:55:29.000Z</time>
      </trkpt>
      <trkpt lat="42.98838992603123188018798828125" lon="-7.61109036393463611602783203125">
        <ele>496.20001220703125</ele>
        <time>2019-07-26T08:55:37.000Z</time>
      </trkpt>
      <trkpt lat="42.98824156634509563446044921875" lon="-7.61132799088954925537109375">
        <ele>496.79998779296875</ele>
        <time>2019-07-26T08:55:41.000Z</time>
      </trkpt>
      <trkpt lat="42.988080047070980072021484375" lon="-7.61156679131090641021728515625">
        <ele>497.399993896484375</ele>
        <time>2019-07-26T08:55:45.000Z</time>
      </trkpt>
      <trkpt lat="42.98779112286865711212158203125" lon="-7.611839957535266876220703125">
        <ele>497.79998779296875</ele>
        <time>2019-07-26T08:55:51.000Z</time>
      </trkpt>
      <trkpt lat="42.9876866005361080169677734375" lon="-7.61191145516932010650634765625">
        <ele>498</ele>
        <time>2019-07-26T08:55:53.000Z</time>
      </trkpt>
      <trkpt lat="42.98735928721725940704345703125" lon="-7.61209568940103054046630859375">
        <ele>498.399993896484375</ele>
        <time>2019-07-26T08:55:59.000Z</time>
      </trkpt>
      <trkpt lat="42.9869727976620197296142578125" lon="-7.61225963942706584930419921875">
        <ele>499</ele>
        <time>2019-07-26T08:56:06.000Z</time>
      </trkpt>
      <trkpt lat="42.9868604801595211029052734375" lon="-7.61229048483073711395263671875">
        <ele>499.20001220703125</ele>
        <time>2019-07-26T08:56:08.000Z</time>
      </trkpt>
      <trkpt lat="42.98641045577824115753173828125" lon="-7.61240095831453800201416015625">
        <ele>500</ele>
        <time>2019-07-26T08:56:16.000Z</time>
      </trkpt>
      <trkpt lat="42.98635513521730899810791015625" lon="-7.612411938607692718505859375">
        <ele>500.20001220703125</ele>
        <time>2019-07-26T08:56:17.000Z</time>
      </trkpt>
      <trkpt lat="42.98597727902233600616455078125" lon="-7.61252467520534992218017578125">
        <ele>501.20001220703125</ele>
        <time>2019-07-26T08:56:24.000Z</time>
      </trkpt>
      <trkpt lat="42.98592187464237213134765625" lon="-7.61254445649683475494384765625">
        <ele>501.399993896484375</ele>
        <time>2019-07-26T08:56:25.000Z</time>
      </trkpt>
      <trkpt lat="42.985416613519191741943359375" lon="-7.6127192191779613494873046875">
        <ele>502</ele>
        <time>2019-07-26T08:56:34.000Z</time>
      </trkpt>
      <trkpt lat="42.98520145006477832794189453125" lon="-7.61285022832453250885009765625">
        <ele>502.20001220703125</ele>
        <time>2019-07-26T08:56:38.000Z</time>
      </trkpt>
      <trkpt lat="42.9851017892360687255859375" lon="-7.6129388250410556793212890625">
        <ele>502.399993896484375</ele>
        <time>2019-07-26T08:56:40.000Z</time>
      </trkpt>
      <trkpt lat="42.9847874678671360015869140625" lon="-7.61328390799462795257568359375">
        <ele>502.600006103515625</ele>
        <time>2019-07-26T08:56:47.000Z</time>
      </trkpt>
      <trkpt lat="42.98451346345245838165283203125" lon="-7.6137592457234859466552734375">
        <ele>503.20001220703125</ele>
        <time>2019-07-26T08:56:55.000Z</time>
      </trkpt>
      <trkpt lat="42.98435538075864315032958984375" lon="-7.61409175582230091094970703125">
        <ele>503.600006103515625</ele>
        <time>2019-07-26T08:57:01.000Z</time>
      </trkpt>
      <trkpt lat="42.9842676222324371337890625" lon="-7.6143094338476657867431640625">
        <ele>504.399993896484375</ele>
        <time>2019-07-26T08:57:07.000Z</time>
      </trkpt>
      <trkpt lat="42.984164021909236907958984375" lon="-7.6146202348172664642333984375">
        <ele>505.20001220703125</ele>
        <time>2019-07-26T08:57:13.000Z</time>
      </trkpt>
      <trkpt lat="42.98414499498903751373291015625" lon="-7.6146747171878814697265625">
        <ele>505.399993896484375</ele>
        <time>2019-07-26T08:57:14.000Z</time>
      </trkpt>
      <trkpt lat="42.98410593532025814056396484375" lon="-7.614788375794887542724609375">
        <ele>505.79998779296875</ele>
        <time>2019-07-26T08:57:16.000Z</time>
      </trkpt>
      <trkpt lat="42.9840396344661712646484375" lon="-7.61495836079120635986328125">
        <ele>506.600006103515625</ele>
        <time>2019-07-26T08:57:19.000Z</time>
      </trkpt>
      <trkpt lat="42.98401608131825923919677734375" lon="-7.6150148548185825347900390625">
        <ele>506.79998779296875</ele>
        <time>2019-07-26T08:57:20.000Z</time>
      </trkpt>
      <trkpt lat="42.983950786292552947998046875" lon="-7.61517419479787349700927734375">
        <ele>507.600006103515625</ele>
        <time>2019-07-26T08:57:23.000Z</time>
      </trkpt>
      <trkpt lat="42.9838899336755275726318359375" lon="-7.61532171629369258880615234375">
        <ele>508.399993896484375</ele>
        <time>2019-07-26T08:57:26.000Z</time>
      </trkpt>
      <trkpt lat="42.9838694818317890167236328125" lon="-7.6153692416846752166748046875">
        <ele>508.79998779296875</ele>
        <time>2019-07-26T08:57:27.000Z</time>
      </trkpt>
      <trkpt lat="42.9838282428681850433349609375" lon="-7.615467645227909088134765625">
        <ele>509.79998779296875</ele>
        <time>2019-07-26T08:57:29.000Z</time>
      </trkpt>
      <trkpt lat="42.983774431049823760986328125" lon="-7.61560770682990550994873046875">
        <ele>510.79998779296875</ele>
        <time>2019-07-26T08:57:32.000Z</time>
      </trkpt>
      <trkpt lat="42.9837246425449848175048828125" lon="-7.6157447509467601776123046875">
        <ele>511.79998779296875</ele>
        <time>2019-07-26T08:57:35.000Z</time>
      </trkpt>
      <trkpt lat="42.98370880074799060821533203125" lon="-7.61579043231904506683349609375">
        <ele>512</ele>
        <time>2019-07-26T08:57:36.000Z</time>
      </trkpt>
      <trkpt lat="42.98364199697971343994140625" lon="-7.61597416363656520843505859375">
        <ele>513.20001220703125</ele>
        <time>2019-07-26T08:57:40.000Z</time>
      </trkpt>
      <trkpt lat="42.9835878498852252960205078125" lon="-7.61610726825892925262451171875">
        <ele>513.79998779296875</ele>
        <time>2019-07-26T08:57:43.000Z</time>
      </trkpt>
      <trkpt lat="42.98355557955801486968994140625" lon="-7.616204917430877685546875">
        <ele>514.5999755859375</ele>
        <time>2019-07-26T08:57:45.000Z</time>
      </trkpt>
      <trkpt lat="42.98343219794332981109619140625" lon="-7.6164900697767734527587890625">
        <ele>515.5999755859375</ele>
        <time>2019-07-26T08:57:51.000Z</time>
      </trkpt>
      <trkpt lat="42.98334888182580471038818359375" lon="-7.61661353521049022674560546875">
        <ele>516.4000244140625</ele>
        <time>2019-07-26T08:57:54.000Z</time>
      </trkpt>
      <trkpt lat="42.9832532443106174468994140625" lon="-7.61672769673168659210205078125">
        <ele>516.5999755859375</ele>
        <time>2019-07-26T08:57:57.000Z</time>
      </trkpt>
      <trkpt lat="42.9832210578024387359619140625" lon="-7.6167636550962924957275390625">
        <ele>516.79998779296875</ele>
        <time>2019-07-26T08:57:58.000Z</time>
      </trkpt>
      <trkpt lat="42.9830011166632175445556640625" lon="-7.61695954017341136932373046875">
        <ele>517.4000244140625</ele>
        <time>2019-07-26T08:58:04.000Z</time>
      </trkpt>
      <trkpt lat="42.98296113498508930206298828125" lon="-7.61698669753968715667724609375">
        <ele>517.4000244140625</ele>
        <time>2019-07-26T08:58:05.000Z</time>
      </trkpt>
      <trkpt lat="42.98287983052432537078857421875" lon="-7.61703313328325748443603515625">
        <ele>517.5999755859375</ele>
        <time>2019-07-26T08:58:07.000Z</time>
      </trkpt>
      <trkpt lat="42.98275376670062541961669921875" lon="-7.61708476580679416656494140625">
        <ele>517.79998779296875</ele>
        <time>2019-07-26T08:58:10.000Z</time>
      </trkpt>
      <trkpt lat="42.98263357020914554595947265625" lon="-7.61713363230228424072265625">
        <ele>518.4000244140625</ele>
        <time>2019-07-26T08:58:13.000Z</time>
      </trkpt>
      <trkpt lat="42.98239451833069324493408203125" lon="-7.6172216422855854034423828125">
        <ele>519</ele>
        <time>2019-07-26T08:58:19.000Z</time>
      </trkpt>
      <trkpt lat="42.98227365128695964813232421875" lon="-7.61726128868758678436279296875">
        <ele>519.5999755859375</ele>
        <time>2019-07-26T08:58:22.000Z</time>
      </trkpt>
      <trkpt lat="42.98215068876743316650390625" lon="-7.6173140108585357666015625">
        <ele>520.20001220703125</ele>
        <time>2019-07-26T08:58:25.000Z</time>
      </trkpt>
      <trkpt lat="42.98189898021519184112548828125" lon="-7.61742088012397289276123046875">
        <ele>520.79998779296875</ele>
        <time>2019-07-26T08:58:31.000Z</time>
      </trkpt>
      <trkpt lat="42.981727905571460723876953125" lon="-7.61751308105885982513427734375">
        <ele>521.4000244140625</ele>
        <time>2019-07-26T08:58:35.000Z</time>
      </trkpt>
      <trkpt lat="42.98154694028198719024658203125" lon="-7.61764115653932094573974609375">
        <ele>521.5999755859375</ele>
        <time>2019-07-26T08:58:39.000Z</time>
      </trkpt>
      <trkpt lat="42.98132448457181453704833984375" lon="-7.61783360503613948822021484375">
        <ele>522.4000244140625</ele>
        <time>2019-07-26T08:58:44.000Z</time>
      </trkpt>
      <trkpt lat="42.9811644740402698516845703125" lon="-7.618007026612758636474609375">
        <ele>522.79998779296875</ele>
        <time>2019-07-26T08:58:48.000Z</time>
      </trkpt>
      <trkpt lat="42.98093271441757678985595703125" lon="-7.61828203685581684112548828125">
        <ele>523.4000244140625</ele>
        <time>2019-07-26T08:58:54.000Z</time>
      </trkpt>
      <trkpt lat="42.98074311576783657073974609375" lon="-7.61850734241306781768798828125">
        <ele>524.4000244140625</ele>
        <time>2019-07-26T08:58:59.000Z</time>
      </trkpt>
      <trkpt lat="42.98054832033812999725341796875" lon="-7.61873264797031879425048828125">
        <ele>525.4000244140625</ele>
        <time>2019-07-26T08:59:04.000Z</time>
      </trkpt>
      <trkpt lat="42.980465590953826904296875" lon="-7.61881445534527301788330078125">
        <ele>525.5999755859375</ele>
        <time>2019-07-26T08:59:06.000Z</time>
      </trkpt>
      <trkpt lat="42.98042745329439640045166015625" lon="-7.61885829269886016845703125">
        <ele>525.5999755859375</ele>
        <time>2019-07-26T08:59:07.000Z</time>
      </trkpt>
      <trkpt lat="42.98031396232545375823974609375" lon="-7.61899248696863651275634765625">
        <ele>526.5999755859375</ele>
        <time>2019-07-26T08:59:10.000Z</time>
      </trkpt>
      <trkpt lat="42.98005697317421436309814453125" lon="-7.61930798180401325225830078125">
        <ele>527.79998779296875</ele>
        <time>2019-07-26T08:59:17.000Z</time>
      </trkpt>
      <trkpt lat="42.979921437799930572509765625" lon="-7.61949908919632434844970703125">
        <ele>529</ele>
        <time>2019-07-26T08:59:21.000Z</time>
      </trkpt>
      <trkpt lat="42.97981456853449344635009765625" lon="-7.619690783321857452392578125">
        <ele>529.4000244140625</ele>
        <time>2019-07-26T08:59:25.000Z</time>
      </trkpt>
      <trkpt lat="42.97972991131246089935302734375" lon="-7.61990628205239772796630859375">
        <ele>530.20001220703125</ele>
        <time>2019-07-26T08:59:29.000Z</time>
      </trkpt>
      <trkpt lat="42.9796724952757358551025390625" lon="-7.62006721459329128265380859375">
        <ele>531.5999755859375</ele>
        <time>2019-07-26T08:59:32.000Z</time>
      </trkpt>
      <trkpt lat="42.979637794196605682373046875" lon="-7.62017349712550640106201171875">
        <ele>532.20001220703125</ele>
        <time>2019-07-26T08:59:34.000Z</time>
      </trkpt>
      <trkpt lat="42.9796020872890949249267578125" lon="-7.62027659453451633453369140625">
        <ele>533</ele>
        <time>2019-07-26T08:59:36.000Z</time>
      </trkpt>
      <trkpt lat="42.97952078282833099365234375" lon="-7.62053207494318485260009765625">
        <ele>534.20001220703125</ele>
        <time>2019-07-26T08:59:41.000Z</time>
      </trkpt>
      <trkpt lat="42.97949287109076976776123046875" lon="-7.62063936330378055572509765625">
        <ele>534.5999755859375</ele>
        <time>2019-07-26T08:59:43.000Z</time>
      </trkpt>
      <trkpt lat="42.979444004595279693603515625" lon="-7.620797865092754364013671875">
        <ele>535</ele>
        <time>2019-07-26T08:59:46.000Z</time>
      </trkpt>
      <trkpt lat="42.97936412505805492401123046875" lon="-7.620999701321125030517578125">
        <ele>535.79998779296875</ele>
        <time>2019-07-26T08:59:50.000Z</time>
      </trkpt>
      <trkpt lat="42.97931886278092861175537109375" lon="-7.62109919451177120208740234375">
        <ele>536.4000244140625</ele>
        <time>2019-07-26T08:59:52.000Z</time>
      </trkpt>
      <trkpt lat="42.9791955649852752685546875" lon="-7.621369175612926483154296875">
        <ele>537.4000244140625</ele>
        <time>2019-07-26T08:59:57.000Z</time>
      </trkpt>
      <trkpt lat="42.979165054857730865478515625" lon="-7.6214233227074146270751953125">
        <ele>537.4000244140625</ele>
        <time>2019-07-26T08:59:58.000Z</time>
      </trkpt>
      <trkpt lat="42.978918962180614471435546875" lon="-7.62183529324829578399658203125">
        <ele>538</ele>
        <time>2019-07-26T09:00:05.000Z</time>
      </trkpt>
      <trkpt lat="42.97884612344205379486083984375" lon="-7.6219725050032138824462890625">
        <ele>538</ele>
        <time>2019-07-26T09:00:07.000Z</time>
      </trkpt>
      <trkpt lat="42.97877605073153972625732421875" lon="-7.62212396599352359771728515625">
        <ele>538</ele>
        <time>2019-07-26T09:00:09.000Z</time>
      </trkpt>
      <trkpt lat="42.97873380593955516815185546875" lon="-7.62219227850437164306640625">
        <ele>537.79998779296875</ele>
        <time>2019-07-26T09:00:10.000Z</time>
      </trkpt>
      <trkpt lat="42.97842484898865222930908203125" lon="-7.6225438155233860015869140625">
        <ele>537.20001220703125</ele>
        <time>2019-07-26T09:00:16.000Z</time>
      </trkpt>
      <trkpt lat="42.97816484235227108001708984375" lon="-7.6228415407240390777587890625">
        <ele>537</ele>
        <time>2019-07-26T09:00:21.000Z</time>
      </trkpt>
      <trkpt lat="42.97789075411856174468994140625" lon="-7.62314446270465850830078125">
        <ele>536.79998779296875</ele>
        <time>2019-07-26T09:00:26.000Z</time>
      </trkpt>
      <trkpt lat="42.9775558970868587493896484375" lon="-7.62352525256574153900146484375">
        <ele>536.4000244140625</ele>
        <time>2019-07-26T09:00:32.000Z</time>
      </trkpt>
      <trkpt lat="42.9774425737559795379638671875" lon="-7.62364729307591915130615234375">
        <ele>536.4000244140625</ele>
        <time>2019-07-26T09:00:34.000Z</time>
      </trkpt>
      <trkpt lat="42.9770243167877197265625" lon="-7.62409262359142303466796875">
        <ele>535.5999755859375</ele>
        <time>2019-07-26T09:00:41.000Z</time>
      </trkpt>
      <trkpt lat="42.97696555964648723602294921875" lon="-7.6241571642458438873291015625">
        <ele>535.4000244140625</ele>
        <time>2019-07-26T09:00:42.000Z</time>
      </trkpt>
      <trkpt lat="42.976513020694255828857421875" lon="-7.6246905885636806488037109375">
        <ele>534.5999755859375</ele>
        <time>2019-07-26T09:00:50.000Z</time>
      </trkpt>
      <trkpt lat="42.97636239789426326751708984375" lon="-7.62487574480473995208740234375">
        <ele>534.4000244140625</ele>
        <time>2019-07-26T09:00:53.000Z</time>
      </trkpt>
      <trkpt lat="42.97625494189560413360595703125" lon="-7.62496761046350002288818359375">
        <ele>534.20001220703125</ele>
        <time>2019-07-26T09:00:55.000Z</time>
      </trkpt>
      <trkpt lat="42.976051010191440582275390625" lon="-7.6251670159399509429931640625">
        <ele>533.5999755859375</ele>
        <time>2019-07-26T09:00:59.000Z</time>
      </trkpt>
      <trkpt lat="42.97600231133401393890380859375" lon="-7.625225521624088287353515625">
        <ele>533.5999755859375</ele>
        <time>2019-07-26T09:01:00.000Z</time>
      </trkpt>
      <trkpt lat="42.9756679572165012359619140625" lon="-7.62563397176563739776611328125">
        <ele>533.4000244140625</ele>
        <time>2019-07-26T09:01:07.000Z</time>
      </trkpt>
      <trkpt lat="42.97545597888529300689697265625" lon="-7.62604954652488231658935546875">
        <ele>533.79998779296875</ele>
        <time>2019-07-26T09:01:13.000Z</time>
      </trkpt>
      <trkpt lat="42.975336872041225433349609375" lon="-7.626563943922519683837890625">
        <ele>534</ele>
        <time>2019-07-26T09:01:19.000Z</time>
      </trkpt>
      <trkpt lat="42.97517317347228527069091796875" lon="-7.6272591389715671539306640625">
        <ele>534.20001220703125</ele>
        <time>2019-07-26T09:01:27.000Z</time>
      </trkpt>
      <trkpt lat="42.9749591834843158721923828125" lon="-7.6277934014797210693359375">
        <ele>534.4000244140625</ele>
        <time>2019-07-26T09:01:34.000Z</time>
      </trkpt>
      <trkpt lat="42.97478425316512584686279296875" lon="-7.6281117461621761322021484375">
        <ele>534.5999755859375</ele>
        <time>2019-07-26T09:01:39.000Z</time>
      </trkpt>
      <trkpt lat="42.9747083969414234161376953125" lon="-7.628227584064006805419921875">
        <ele>534.79998779296875</ele>
        <time>2019-07-26T09:01:41.000Z</time>
      </trkpt>
      <trkpt lat="42.974424250423908233642578125" lon="-7.62861876748502254486083984375">
        <ele>535.20001220703125</ele>
        <time>2019-07-26T09:01:48.000Z</time>
      </trkpt>
      <trkpt lat="42.97438225708901882171630859375" lon="-7.62867593206465244293212890625">
        <ele>535.4000244140625</ele>
        <time>2019-07-26T09:01:49.000Z</time>
      </trkpt>
      <trkpt lat="42.97407849691808223724365234375" lon="-7.629058063030242919921875">
        <ele>536.4000244140625</ele>
        <time>2019-07-26T09:01:56.000Z</time>
      </trkpt>
      <trkpt lat="42.97378194518387317657470703125" lon="-7.62940851040184497833251953125">
        <ele>536.79998779296875</ele>
        <time>2019-07-26T09:02:02.000Z</time>
      </trkpt>
      <trkpt lat="42.97352738678455352783203125" lon="-7.6296848617494106292724609375">
        <ele>536.79998779296875</ele>
        <time>2019-07-26T09:02:07.000Z</time>
      </trkpt>
      <trkpt lat="42.97338833101093769073486328125" lon="-7.62985962443053722381591796875">
        <ele>537</ele>
        <time>2019-07-26T09:02:10.000Z</time>
      </trkpt>
      <trkpt lat="42.97313486225903034210205078125" lon="-7.630219124257564544677734375">
        <ele>537</ele>
        <time>2019-07-26T09:02:16.000Z</time>
      </trkpt>
      <trkpt lat="42.97310225665569305419921875" lon="-7.630272768437862396240234375">
        <ele>537</ele>
        <time>2019-07-26T09:02:17.000Z</time>
      </trkpt>
      <trkpt lat="42.97297007404267787933349609375" lon="-7.630498073995113372802734375">
        <ele>537.20001220703125</ele>
        <time>2019-07-26T09:02:21.000Z</time>
      </trkpt>
      <trkpt lat="42.97281953506171703338623046875" lon="-7.6307185180485248565673828125">
        <ele>537.5999755859375</ele>
        <time>2019-07-26T09:02:25.000Z</time>
      </trkpt>
      <trkpt lat="42.9727099835872650146484375" lon="-7.63088791631162166595458984375">
        <ele>538</ele>
        <time>2019-07-26T09:02:28.000Z</time>
      </trkpt>
      <trkpt lat="42.97261350788176059722900390625" lon="-7.63107231818139553070068359375">
        <ele>538.5999755859375</ele>
        <time>2019-07-26T09:02:31.000Z</time>
      </trkpt>
      <trkpt lat="42.97251929529011249542236328125" lon="-7.6312341727316379547119140625">
        <ele>539.20001220703125</ele>
        <time>2019-07-26T09:02:34.000Z</time>
      </trkpt>
      <trkpt lat="42.97240245155990123748779296875" lon="-7.63145017437636852264404296875">
        <ele>539.79998779296875</ele>
        <time>2019-07-26T09:02:38.000Z</time>
      </trkpt>
      <trkpt lat="42.97233916819095611572265625" lon="-7.63159065507352352142333984375">
        <ele>540</ele>
        <time>2019-07-26T09:02:40.000Z</time>
      </trkpt>
      <trkpt lat="42.97210313379764556884765625" lon="-7.6320876181125640869140625">
        <ele>540.20001220703125</ele>
        <time>2019-07-26T09:02:46.000Z</time>
      </trkpt>
      <trkpt lat="42.97189786098897457122802734375" lon="-7.6325759477913379669189453125">
        <ele>539.5999755859375</ele>
        <time>2019-07-26T09:02:51.000Z</time>
      </trkpt>
      <trkpt lat="42.97185947187244892120361328125" lon="-7.6326815597712993621826171875">
        <ele>539.4000244140625</ele>
        <time>2019-07-26T09:02:52.000Z</time>
      </trkpt>
      <trkpt lat="42.9717526026070117950439453125" lon="-7.632995210587978363037109375">
        <ele>538.4000244140625</ele>
        <time>2019-07-26T09:02:55.000Z</time>
      </trkpt>
      <trkpt lat="42.971649169921875" lon="-7.63329570181667804718017578125">
        <ele>537.20001220703125</ele>
        <time>2019-07-26T09:02:58.000Z</time>
      </trkpt>
      <trkpt lat="42.97150776721537113189697265625" lon="-7.633718736469745635986328125">
        <ele>536</ele>
        <time>2019-07-26T09:03:02.000Z</time>
      </trkpt>
      <trkpt lat="42.97135773114860057830810546875" lon="-7.63413347303867340087890625">
        <ele>535.4000244140625</ele>
        <time>2019-07-26T09:03:06.000Z</time>
      </trkpt>
      <trkpt lat="42.9712677933275699615478515625" lon="-7.63431586325168609619140625">
        <ele>534.79998779296875</ele>
        <time>2019-07-26T09:03:08.000Z</time>
      </trkpt>
      <trkpt lat="42.97107241116464138031005859375" lon="-7.63464518822729587554931640625">
        <ele>533.79998779296875</ele>
        <time>2019-07-26T09:03:12.000Z</time>
      </trkpt>
      <trkpt lat="42.97098607756197452545166015625" lon="-7.6348135806620121002197265625">
        <ele>533.5999755859375</ele>
        <time>2019-07-26T09:03:14.000Z</time>
      </trkpt>
      <trkpt lat="42.970796562731266021728515625" lon="-7.635130584239959716796875">
        <ele>533.20001220703125</ele>
        <time>2019-07-26T09:03:18.000Z</time>
      </trkpt>
      <trkpt lat="42.97053404152393341064453125" lon="-7.6355649344623088836669921875">
        <ele>533</ele>
        <time>2019-07-26T09:03:24.000Z</time>
      </trkpt>
      <trkpt lat="42.9704104922711849212646484375" lon="-7.63576987199485301971435546875">
        <ele>532.79998779296875</ele>
        <time>2019-07-26T09:03:27.000Z</time>
      </trkpt>
      <trkpt lat="42.9703323729336261749267578125" lon="-7.63590498827397823333740234375">
        <ele>532.79998779296875</ele>
        <time>2019-07-26T09:03:29.000Z</time>
      </trkpt>
      <trkpt lat="42.97027411870658397674560546875" lon="-7.63606038875877857208251953125">
        <ele>532.79998779296875</ele>
        <time>2019-07-26T09:03:31.000Z</time>
      </trkpt>
      <trkpt lat="42.97020547091960906982421875" lon="-7.6363260112702846527099609375">
        <ele>532.4000244140625</ele>
        <time>2019-07-26T09:03:34.000Z</time>
      </trkpt>
      <trkpt lat="42.9701332189142704010009765625" lon="-7.63649691827595233917236328125">
        <ele>532</ele>
        <time>2019-07-26T09:03:36.000Z</time>
      </trkpt>
      <trkpt lat="42.970012687146663665771484375" lon="-7.636746950447559356689453125">
        <ele>531.4000244140625</ele>
        <time>2019-07-26T09:03:39.000Z</time>
      </trkpt>
      <trkpt lat="42.9698113538324832916259765625" lon="-7.63718574307858943939208984375">
        <ele>530.20001220703125</ele>
        <time>2019-07-26T09:03:44.000Z</time>
      </trkpt>
      <trkpt lat="42.969643212854862213134765625" lon="-7.63768748380243778228759765625">
        <ele>529.20001220703125</ele>
        <time>2019-07-26T09:03:49.000Z</time>
      </trkpt>
      <trkpt lat="42.96960993669927120208740234375" lon="-7.63778270222246646881103515625">
        <ele>529</ele>
        <time>2019-07-26T09:03:50.000Z</time>
      </trkpt>
      <trkpt lat="42.9694455675780773162841796875" lon="-7.6383291184902191162109375">
        <ele>528.20001220703125</ele>
        <time>2019-07-26T09:03:56.000Z</time>
      </trkpt>
      <trkpt lat="42.96932310797274112701416015625" lon="-7.63877193443477153778076171875">
        <ele>527.5999755859375</ele>
        <time>2019-07-26T09:04:01.000Z</time>
      </trkpt>
      <trkpt lat="42.96927516348659992218017578125" lon="-7.6389408297836780548095703125">
        <ele>527.20001220703125</ele>
        <time>2019-07-26T09:04:03.000Z</time>
      </trkpt>
      <trkpt lat="42.969201989471912384033203125" lon="-7.63918264769017696380615234375">
        <ele>527.20001220703125</ele>
        <time>2019-07-26T09:04:06.000Z</time>
      </trkpt>
      <trkpt lat="42.96912252902984619140625" lon="-7.63951842673122882843017578125">
        <ele>527</ele>
        <time>2019-07-26T09:04:10.000Z</time>
      </trkpt>
      <trkpt lat="42.9689828865230083465576171875" lon="-7.64003072865307331085205078125">
        <ele>527</ele>
        <time>2019-07-26T09:04:16.000Z</time>
      </trkpt>
      <trkpt lat="42.96893552877008914947509765625" lon="-7.64022602699697017669677734375">
        <ele>526.79998779296875</ele>
        <time>2019-07-26T09:04:18.000Z</time>
      </trkpt>
      <trkpt lat="42.96888590790331363677978515625" lon="-7.6406597904860973358154296875">
        <ele>526.5999755859375</ele>
        <time>2019-07-26T09:04:22.000Z</time>
      </trkpt>
      <trkpt lat="42.968877442181110382080078125" lon="-7.6407670788466930389404296875">
        <ele>526.4000244140625</ele>
        <time>2019-07-26T09:04:23.000Z</time>
      </trkpt>
      <trkpt lat="42.968867719173431396484375" lon="-7.6408723555505275726318359375">
        <ele>526.20001220703125</ele>
        <time>2019-07-26T09:04:24.000Z</time>
      </trkpt>
      <trkpt lat="42.96883754432201385498046875" lon="-7.6413031853735446929931640625">
        <ele>524.79998779296875</ele>
        <time>2019-07-26T09:04:28.000Z</time>
      </trkpt>
      <trkpt lat="42.96882413327693939208984375" lon="-7.64152170158922672271728515625">
        <ele>524.20001220703125</ele>
        <time>2019-07-26T09:04:30.000Z</time>
      </trkpt>
      <trkpt lat="42.9688001610338687896728515625" lon="-7.64172068797051906585693359375">
        <ele>523.4000244140625</ele>
        <time>2019-07-26T09:04:32.000Z</time>
      </trkpt>
      <trkpt lat="42.96875615604221820831298828125" lon="-7.64198924414813518524169921875">
        <ele>522.5999755859375</ele>
        <time>2019-07-26T09:04:35.000Z</time>
      </trkpt>
      <trkpt lat="42.96872816048562526702880859375" lon="-7.64215059578418731689453125">
        <ele>522.5999755859375</ele>
        <time>2019-07-26T09:04:37.000Z</time>
      </trkpt>
      <trkpt lat="42.9686972312629222869873046875" lon="-7.6422982849180698394775390625">
        <ele>522.5999755859375</ele>
        <time>2019-07-26T09:04:39.000Z</time>
      </trkpt>
      <trkpt lat="42.96867317520081996917724609375" lon="-7.64243281446397304534912109375">
        <ele>522.5999755859375</ele>
        <time>2019-07-26T09:04:41.000Z</time>
      </trkpt>
      <trkpt lat="42.96866328455507755279541015625" lon="-7.64249668456614017486572265625">
        <ele>522.5999755859375</ele>
        <time>2019-07-26T09:04:42.000Z</time>
      </trkpt>
      <trkpt lat="42.96865783631801605224609375" lon="-7.642629034817218780517578125">
        <ele>522.5999755859375</ele>
        <time>2019-07-26T09:04:44.000Z</time>
      </trkpt>
      <trkpt lat="42.9686549864709377288818359375" lon="-7.6427549310028553009033203125">
        <ele>523.4000244140625</ele>
        <time>2019-07-26T09:04:46.000Z</time>
      </trkpt>
      <trkpt lat="42.9686558246612548828125" lon="-7.64286498539149761199951171875">
        <ele>524.4000244140625</ele>
        <time>2019-07-26T09:04:48.000Z</time>
      </trkpt>
      <trkpt lat="42.96865724958479404449462890625" lon="-7.643037401139736175537109375">
        <ele>525.79998779296875</ele>
        <time>2019-07-26T09:04:51.000Z</time>
      </trkpt>
      <trkpt lat="42.9686583392322063446044921875" lon="-7.6431592740118503570556640625">
        <ele>526.4000244140625</ele>
        <time>2019-07-26T09:04:53.000Z</time>
      </trkpt>
      <trkpt lat="42.96865724958479404449462890625" lon="-7.64321719296276569366455078125">
        <ele>527</ele>
        <time>2019-07-26T09:04:54.000Z</time>
      </trkpt>
      <trkpt lat="42.96865322627127170562744140625" lon="-7.64327318407595157623291015625">
        <ele>527.5999755859375</ele>
        <time>2019-07-26T09:04:55.000Z</time>
      </trkpt>
      <trkpt lat="42.9686455987393856048583984375" lon="-7.6433255709707736968994140625">
        <ele>528.20001220703125</ele>
        <time>2019-07-26T09:04:56.000Z</time>
      </trkpt>
      <trkpt lat="42.96862724237143993377685546875" lon="-7.643426991999149322509765625">
        <ele>529.20001220703125</ele>
        <time>2019-07-26T09:04:58.000Z</time>
      </trkpt>
      <trkpt lat="42.96861483715474605560302734375" lon="-7.6434774510562419891357421875">
        <ele>529.79998779296875</ele>
        <time>2019-07-26T09:04:59.000Z</time>
      </trkpt>
      <trkpt lat="42.968599162995815277099609375" lon="-7.64352656900882720947265625">
        <ele>530.4000244140625</ele>
        <time>2019-07-26T09:05:00.000Z</time>
      </trkpt>
      <trkpt lat="42.96855323016643524169921875" lon="-7.6436692290008068084716796875">
        <ele>531.5999755859375</ele>
        <time>2019-07-26T09:05:03.000Z</time>
      </trkpt>
      <trkpt lat="42.9685215465724468231201171875" lon="-7.64380191452801227569580078125">
        <ele>532.5999755859375</ele>
        <time>2019-07-26T09:05:06.000Z</time>
      </trkpt>
      <trkpt lat="42.96851911582052707672119140625" lon="-7.6438465900719165802001953125">
        <ele>532.5999755859375</ele>
        <time>2019-07-26T09:05:07.000Z</time>
      </trkpt>
      <trkpt lat="42.968546189367771148681640625" lon="-7.64399327337741851806640625">
        <ele>533.20001220703125</ele>
        <time>2019-07-26T09:05:10.000Z</time>
      </trkpt>
      <trkpt lat="42.96856555156409740447998046875" lon="-7.6440470851957798004150390625">
        <ele>533.4000244140625</ele>
        <time>2019-07-26T09:05:11.000Z</time>
      </trkpt>
      <trkpt lat="42.9686164297163486480712890625" lon="-7.644235678017139434814453125">
        <ele>533.79998779296875</ele>
        <time>2019-07-26T09:05:14.000Z</time>
      </trkpt>
      <trkpt lat="42.9686543159186840057373046875" lon="-7.644368112087249755859375">
        <ele>534</ele>
        <time>2019-07-26T09:05:16.000Z</time>
      </trkpt>
      <trkpt lat="42.96873335726559162139892578125" lon="-7.64461730606853961944580078125">
        <ele>534</ele>
        <time>2019-07-26T09:05:20.000Z</time>
      </trkpt>
      <trkpt lat="42.96879907138645648956298828125" lon="-7.64481268823146820068359375">
        <ele>534</ele>
        <time>2019-07-26T09:05:23.000Z</time>
      </trkpt>
      <trkpt lat="42.96881834976375102996826171875" lon="-7.6448737084865570068359375">
        <ele>534</ele>
        <time>2019-07-26T09:05:24.000Z</time>
      </trkpt>
      <trkpt lat="42.96885707415640354156494140625" lon="-7.64506816864013671875">
        <ele>533.79998779296875</ele>
        <time>2019-07-26T09:05:27.000Z</time>
      </trkpt>
      <trkpt lat="42.9688502848148345947265625" lon="-7.6452004350721836090087890625">
        <ele>533.5999755859375</ele>
        <time>2019-07-26T09:05:29.000Z</time>
      </trkpt>
      <trkpt lat="42.9688283242285251617431640625" lon="-7.6453352160751819610595703125">
        <ele>533.5999755859375</ele>
        <time>2019-07-26T09:05:31.000Z</time>
      </trkpt>
      <trkpt lat="42.96881231479346752166748046875" lon="-7.64546823687851428985595703125">
        <ele>533.4000244140625</ele>
        <time>2019-07-26T09:05:33.000Z</time>
      </trkpt>
      <trkpt lat="42.96880058012902736663818359375" lon="-7.6456775330007076263427734375">
        <ele>533</ele>
        <time>2019-07-26T09:05:36.000Z</time>
      </trkpt>
      <trkpt lat="42.9688008315861225128173828125" lon="-7.64575523324310779571533203125">
        <ele>532.5999755859375</ele>
        <time>2019-07-26T09:05:37.000Z</time>
      </trkpt>
      <trkpt lat="42.9688129015266895294189453125" lon="-7.64591365121304988861083984375">
        <ele>532.4000244140625</ele>
        <time>2019-07-26T09:05:39.000Z</time>
      </trkpt>
      <trkpt lat="42.9688377119600772857666015625" lon="-7.64607642777264118194580078125">
        <ele>532.20001220703125</ele>
        <time>2019-07-26T09:05:41.000Z</time>
      </trkpt>
      <trkpt lat="42.9688648693263530731201171875" lon="-7.646245658397674560546875">
        <ele>532.20001220703125</ele>
        <time>2019-07-26T09:05:43.000Z</time>
      </trkpt>
      <trkpt lat="42.96889630146324634552001953125" lon="-7.6464186608791351318359375">
        <ele>532</ele>
        <time>2019-07-26T09:05:45.000Z</time>
      </trkpt>
      <trkpt lat="42.968951202929019927978515625" lon="-7.64676005579531192779541015625">
        <ele>532</ele>
        <time>2019-07-26T09:05:49.000Z</time>
      </trkpt>
      <trkpt lat="42.968980036675930023193359375" lon="-7.6469328068196773529052734375">
        <ele>531.4000244140625</ele>
        <time>2019-07-26T09:05:51.000Z</time>
      </trkpt>
      <trkpt lat="42.96907483600080013275146484375" lon="-7.647385932505130767822265625">
        <ele>530.5999755859375</ele>
        <time>2019-07-26T09:05:56.000Z</time>
      </trkpt>
      <trkpt lat="42.9691002331674098968505859375" lon="-7.64747134409844875335693359375">
        <ele>530.4000244140625</ele>
        <time>2019-07-26T09:05:57.000Z</time>
      </trkpt>
      <trkpt lat="42.9691310785710811614990234375" lon="-7.6475534029304981231689453125">
        <ele>530.20001220703125</ele>
        <time>2019-07-26T09:05:58.000Z</time>
      </trkpt>
      <trkpt lat="42.96920827589929103851318359375" lon="-7.64771659858524799346923828125">
        <ele>530.20001220703125</ele>
        <time>2019-07-26T09:06:00.000Z</time>
      </trkpt>
      <trkpt lat="42.96925135888159275054931640625" lon="-7.64779807068407535552978515625">
        <ele>530</ele>
        <time>2019-07-26T09:06:01.000Z</time>
      </trkpt>
      <trkpt lat="42.96944967471063137054443359375" lon="-7.648150026798248291015625">
        <ele>529.20001220703125</ele>
        <time>2019-07-26T09:06:05.000Z</time>
      </trkpt>
      <trkpt lat="42.96950181014835834503173828125" lon="-7.64824583195149898529052734375">
        <ele>529</ele>
        <time>2019-07-26T09:06:06.000Z</time>
      </trkpt>
      <trkpt lat="42.969584204256534576416015625" lon="-7.648505754768848419189453125">
        <ele>528</ele>
        <time>2019-07-26T09:06:09.000Z</time>
      </trkpt>
      <trkpt lat="42.96958428807556629180908203125" lon="-7.648695521056652069091796875">
        <ele>527.4000244140625</ele>
        <time>2019-07-26T09:06:11.000Z</time>
      </trkpt>
      <trkpt lat="42.969575822353363037109375" lon="-7.6487976126372814178466796875">
        <ele>526.5999755859375</ele>
        <time>2019-07-26T09:06:12.000Z</time>
      </trkpt>
      <trkpt lat="42.96956484206020832061767578125" lon="-7.64889962039887905120849609375">
        <ele>526</ele>
        <time>2019-07-26T09:06:13.000Z</time>
      </trkpt>
      <trkpt lat="42.96955168247222900390625" lon="-7.6490001194179058074951171875">
        <ele>525.20001220703125</ele>
        <time>2019-07-26T09:06:14.000Z</time>
      </trkpt>
      <trkpt lat="42.9695355892181396484375" lon="-7.64909684658050537109375">
        <ele>524.20001220703125</ele>
        <time>2019-07-26T09:06:15.000Z</time>
      </trkpt>
      <trkpt lat="42.96951656229794025421142578125" lon="-7.64919030480086803436279296875">
        <ele>523</ele>
        <time>2019-07-26T09:06:16.000Z</time>
      </trkpt>
      <trkpt lat="42.9694854654371738433837890625" lon="-7.64936666004359722137451171875">
        <ele>521.5999755859375</ele>
        <time>2019-07-26T09:06:18.000Z</time>
      </trkpt>
      <trkpt lat="42.9694539494812488555908203125" lon="-7.64960168860852718353271484375">
        <ele>520.20001220703125</ele>
        <time>2019-07-26T09:06:21.000Z</time>
      </trkpt>
      <trkpt lat="42.9694269597530364990234375" lon="-7.6497937180101871490478515625">
        <ele>519.5999755859375</ele>
        <time>2019-07-26T09:06:24.000Z</time>
      </trkpt>
      <trkpt lat="42.96940525062382221221923828125" lon="-7.64996009878814220428466796875">
        <ele>519.4000244140625</ele>
        <time>2019-07-26T09:06:27.000Z</time>
      </trkpt>
      <trkpt lat="42.96939251013100147247314453125" lon="-7.65005908906459808349609375">
        <ele>519.4000244140625</ele>
        <time>2019-07-26T09:06:29.000Z</time>
      </trkpt>
      <trkpt lat="42.96938345767557621002197265625" lon="-7.650156319141387939453125">
        <ele>519.4000244140625</ele>
        <time>2019-07-26T09:06:31.000Z</time>
      </trkpt>
      <trkpt lat="42.96938278712332248687744140625" lon="-7.65025145374238491058349609375">
        <ele>520</ele>
        <time>2019-07-26T09:06:33.000Z</time>
      </trkpt>
      <trkpt lat="42.96936837024986743927001953125" lon="-7.65039947815239429473876953125">
        <ele>520.79998779296875</ele>
        <time>2019-07-26T09:06:36.000Z</time>
      </trkpt>
      <trkpt lat="42.969352863729000091552734375" lon="-7.6505407132208347320556640625">
        <ele>521.4000244140625</ele>
        <time>2019-07-26T09:06:39.000Z</time>
      </trkpt>
      <trkpt lat="42.969352193176746368408203125" lon="-7.65058404766023159027099609375">
        <ele>521.5999755859375</ele>
        <time>2019-07-26T09:06:40.000Z</time>
      </trkpt>
      <trkpt lat="42.96932746656239032745361328125" lon="-7.65082393772900104522705078125">
        <ele>522.5999755859375</ele>
        <time>2019-07-26T09:06:45.000Z</time>
      </trkpt>
      <trkpt lat="42.96931455843150615692138671875" lon="-7.65092351473867893218994140625">
        <ele>523</ele>
        <time>2019-07-26T09:06:47.000Z</time>
      </trkpt>
      <trkpt lat="42.969299890100955963134765625" lon="-7.651072628796100616455078125">
        <ele>523.5999755859375</ele>
        <time>2019-07-26T09:06:50.000Z</time>
      </trkpt>
      <trkpt lat="42.96928455121815204620361328125" lon="-7.65123096294701099395751953125">
        <ele>524.20001220703125</ele>
        <time>2019-07-26T09:06:53.000Z</time>
      </trkpt>
      <trkpt lat="42.96927281655371189117431640625" lon="-7.65133925713598728179931640625">
        <ele>524.5999755859375</ele>
        <time>2019-07-26T09:06:55.000Z</time>
      </trkpt>
      <trkpt lat="42.969267368316650390625" lon="-7.65139348804950714111328125">
        <ele>524.79998779296875</ele>
        <time>2019-07-26T09:06:56.000Z</time>
      </trkpt>
      <trkpt lat="42.969246916472911834716796875" lon="-7.651596330106258392333984375">
        <ele>525.79998779296875</ele>
        <time>2019-07-26T09:07:00.000Z</time>
      </trkpt>
      <trkpt lat="42.969222106039524078369140625" lon="-7.65178601257503032684326171875">
        <ele>526.4000244140625</ele>
        <time>2019-07-26T09:07:04.000Z</time>
      </trkpt>
      <trkpt lat="42.96920525841414928436279296875" lon="-7.65188961289823055267333984375">
        <ele>526.79998779296875</ele>
        <time>2019-07-26T09:07:06.000Z</time>
      </trkpt>
      <trkpt lat="42.969170473515987396240234375" lon="-7.65218130312860012054443359375">
        <ele>528</ele>
        <time>2019-07-26T09:07:11.000Z</time>
      </trkpt>
      <trkpt lat="42.96912722289562225341796875" lon="-7.6526546292006969451904296875">
        <ele>528.79998779296875</ele>
        <time>2019-07-26T09:07:18.000Z</time>
      </trkpt>
      <trkpt lat="42.96908296644687652587890625" lon="-7.65297959558665752410888671875">
        <ele>528.79998779296875</ele>
        <time>2019-07-26T09:07:23.000Z</time>
      </trkpt>
      <trkpt lat="42.96906779520213603973388671875" lon="-7.65302133746445178985595703125">
        <ele>528.79998779296875</ele>
        <time>2019-07-26T09:07:24.000Z</time>
      </trkpt>
      <trkpt lat="42.96901096589863300323486328125" lon="-7.6530797593295574188232421875">
        <ele>528.79998779296875</ele>
        <time>2019-07-26T09:07:27.000Z</time>
      </trkpt>
      <trkpt lat="42.9690003208816051483154296875" lon="-7.65308470465242862701416015625">
        <ele>528.79998779296875</ele>
        <time>2019-07-26T09:07:28.000Z</time>
      </trkpt>
      <trkpt lat="42.96899839304387569427490234375" lon="-7.65308470465242862701416015625">
        <ele>529</ele>
        <time>2019-07-26T09:07:30.000Z</time>
      </trkpt>
      <trkpt lat="42.96902932226657867431640625" lon="-7.653079591691493988037109375">
        <ele>528.4000244140625</ele>
        <time>2019-07-26T09:09:22.000Z</time>
      </trkpt>
      <trkpt lat="42.9690460860729217529296875" lon="-7.65309124253690242767333984375">
        <ele>528.4000244140625</ele>
        <time>2019-07-26T09:09:23.000Z</time>
      </trkpt>
      <trkpt lat="42.96904415823519229888916015625" lon="-7.65318847261369228363037109375">
        <ele>528.5999755859375</ele>
        <time>2019-07-26T09:09:26.000Z</time>
      </trkpt>
      <trkpt lat="42.9690351895987987518310546875" lon="-7.65339039266109466552734375">
        <ele>528.5999755859375</ele>
        <time>2019-07-26T09:09:30.000Z</time>
      </trkpt>
      <trkpt lat="42.96902404166758060455322265625" lon="-7.65351000241935253143310546875">
        <ele>528.79998779296875</ele>
        <time>2019-07-26T09:09:32.000Z</time>
      </trkpt>
      <trkpt lat="42.9690154083073139190673828125" lon="-7.6536343060433864593505859375">
        <ele>528.79998779296875</ele>
        <time>2019-07-26T09:09:34.000Z</time>
      </trkpt>
      <trkpt lat="42.9689835570752620697021484375" lon="-7.6539798080921173095703125">
        <ele>528.5999755859375</ele>
        <time>2019-07-26T09:09:39.000Z</time>
      </trkpt>
      <trkpt lat="42.96898129396140575408935546875" lon="-7.65406035818159580230712890625">
        <ele>528.5999755859375</ele>
        <time>2019-07-26T09:09:40.000Z</time>
      </trkpt>
      <trkpt lat="42.968959920108318328857421875" lon="-7.65432388521730899810791015625">
        <ele>528.4000244140625</ele>
        <time>2019-07-26T09:09:43.000Z</time>
      </trkpt>
      <trkpt lat="42.96894793398678302764892578125" lon="-7.65441893599927425384521484375">
        <ele>528.20001220703125</ele>
        <time>2019-07-26T09:09:44.000Z</time>
      </trkpt>
      <trkpt lat="42.96887777745723724365234375" lon="-7.655172385275363922119140625">
        <ele>527</ele>
        <time>2019-07-26T09:09:51.000Z</time>
      </trkpt>
      <trkpt lat="42.96884751878678798675537109375" lon="-7.6554089225828647613525390625">
        <ele>526.5999755859375</ele>
        <time>2019-07-26T09:09:53.000Z</time>
      </trkpt>
      <trkpt lat="42.9688100516796112060546875" lon="-7.6557830907404422760009765625">
        <ele>526</ele>
        <time>2019-07-26T09:09:56.000Z</time>
      </trkpt>
      <trkpt lat="42.9687964729964733123779296875" lon="-7.65591326169669628143310546875">
        <ele>525.79998779296875</ele>
        <time>2019-07-26T09:09:57.000Z</time>
      </trkpt>
      <trkpt lat="42.96878398396074771881103515625" lon="-7.65604519285261631011962890625">
        <ele>525.4000244140625</ele>
        <time>2019-07-26T09:09:58.000Z</time>
      </trkpt>
      <trkpt lat="42.96876168809831142425537109375" lon="-7.65630285255610942840576171875">
        <ele>524.4000244140625</ele>
        <time>2019-07-26T09:10:00.000Z</time>
      </trkpt>
      <trkpt lat="42.96873268671333789825439453125" lon="-7.65665371902287006378173828125">
        <ele>523.4000244140625</ele>
        <time>2019-07-26T09:10:03.000Z</time>
      </trkpt>
      <trkpt lat="42.96872355043888092041015625" lon="-7.6567594148218631744384765625">
        <ele>523</ele>
        <time>2019-07-26T09:10:04.000Z</time>
      </trkpt>
      <trkpt lat="42.96868063509464263916015625" lon="-7.657129056751728057861328125">
        <ele>522.20001220703125</ele>
        <time>2019-07-26T09:10:08.000Z</time>
      </trkpt>
      <trkpt lat="42.96864920295774936676025390625" lon="-7.6573800109326839447021484375">
        <ele>522.20001220703125</ele>
        <time>2019-07-26T09:10:11.000Z</time>
      </trkpt>
      <trkpt lat="42.96862288378179073333740234375" lon="-7.65762032009661197662353515625">
        <ele>522.20001220703125</ele>
        <time>2019-07-26T09:10:14.000Z</time>
      </trkpt>
      <trkpt lat="42.96861785463988780975341796875" lon="-7.6576975174248218536376953125">
        <ele>522.20001220703125</ele>
        <time>2019-07-26T09:10:15.000Z</time>
      </trkpt>
      <trkpt lat="42.96859086491167545318603515625" lon="-7.65798711217939853668212890625">
        <ele>523.5999755859375</ele>
        <time>2019-07-26T09:10:19.000Z</time>
      </trkpt>
      <trkpt lat="42.96858097426593303680419921875" lon="-7.65812373720109462738037109375">
        <ele>524</ele>
        <time>2019-07-26T09:10:21.000Z</time>
      </trkpt>
      <trkpt lat="42.9685698263347148895263671875" lon="-7.65825700946152210235595703125">
        <ele>524.4000244140625</ele>
        <time>2019-07-26T09:10:23.000Z</time>
      </trkpt>
      <trkpt lat="42.96855431981384754180908203125" lon="-7.6584468595683574676513671875">
        <ele>525.4000244140625</ele>
        <time>2019-07-26T09:10:26.000Z</time>
      </trkpt>
      <trkpt lat="42.96853520907461643218994140625" lon="-7.65863402746617794036865234375">
        <ele>526.4000244140625</ele>
        <time>2019-07-26T09:10:29.000Z</time>
      </trkpt>
      <trkpt lat="42.96852640807628631591796875" lon="-7.65869848430156707763671875">
        <ele>526.5999755859375</ele>
        <time>2019-07-26T09:10:30.000Z</time>
      </trkpt>
      <trkpt lat="42.96848927624523639678955078125" lon="-7.6590470038354396820068359375">
        <ele>527.5999755859375</ele>
        <time>2019-07-26T09:10:35.000Z</time>
      </trkpt>
      <trkpt lat="42.9684705846011638641357421875" lon="-7.65920382924377918243408203125">
        <ele>527.79998779296875</ele>
        <time>2019-07-26T09:10:37.000Z</time>
      </trkpt>
      <trkpt lat="42.96844015829265117645263671875" lon="-7.6593668572604656219482421875">
        <ele>528</ele>
        <time>2019-07-26T09:10:39.000Z</time>
      </trkpt>
      <trkpt lat="42.96833437867462635040283203125" lon="-7.65968662686645984649658203125">
        <ele>528</ele>
        <time>2019-07-26T09:10:43.000Z</time>
      </trkpt>
      <trkpt lat="42.9681691713631153106689453125" lon="-7.66009734012186527252197265625">
        <ele>527.79998779296875</ele>
        <time>2019-07-26T09:10:48.000Z</time>
      </trkpt>
      <trkpt lat="42.96809817664325237274169921875" lon="-7.6602640561759471893310546875">
        <ele>527.4000244140625</ele>
        <time>2019-07-26T09:10:50.000Z</time>
      </trkpt>
      <trkpt lat="42.9679998569190502166748046875" lon="-7.6605218835175037384033203125">
        <ele>526.79998779296875</ele>
        <time>2019-07-26T09:10:53.000Z</time>
      </trkpt>
      <trkpt lat="42.96789583750069141387939453125" lon="-7.6607850752770900726318359375">
        <ele>526.4000244140625</ele>
        <time>2019-07-26T09:10:56.000Z</time>
      </trkpt>
      <trkpt lat="42.9678684286773204803466796875" lon="-7.66087635420262813568115234375">
        <ele>526.20001220703125</ele>
        <time>2019-07-26T09:10:57.000Z</time>
      </trkpt>
      <trkpt lat="42.96778209507465362548828125" lon="-7.6611602492630481719970703125">
        <ele>525.79998779296875</ele>
        <time>2019-07-26T09:11:00.000Z</time>
      </trkpt>
      <trkpt lat="42.96758763492107391357421875" lon="-7.66162603162229061126708984375">
        <ele>525.4000244140625</ele>
        <time>2019-07-26T09:11:05.000Z</time>
      </trkpt>
      <trkpt lat="42.9675400257110595703125" lon="-7.66170926392078399658203125">
        <ele>525.20001220703125</ele>
        <time>2019-07-26T09:11:06.000Z</time>
      </trkpt>
      <trkpt lat="42.967443801462650299072265625" lon="-7.661871202290058135986328125">
        <ele>524.4000244140625</ele>
        <time>2019-07-26T09:11:08.000Z</time>
      </trkpt>
      <trkpt lat="42.9673903249204158782958984375" lon="-7.6619447953999042510986328125">
        <ele>524.20001220703125</ele>
        <time>2019-07-26T09:11:09.000Z</time>
      </trkpt>
      <trkpt lat="42.9672863893210887908935546875" lon="-7.66208267770707607269287109375">
        <ele>524.20001220703125</ele>
        <time>2019-07-26T09:11:11.000Z</time>
      </trkpt>
      <trkpt lat="42.96706435270607471466064453125" lon="-7.66236615367233753204345703125">
        <ele>524</ele>
        <time>2019-07-26T09:11:16.000Z</time>
      </trkpt>
      <trkpt lat="42.96691716648638248443603515625" lon="-7.66256497241556644439697265625">
        <ele>524.4000244140625</ele>
        <time>2019-07-26T09:11:20.000Z</time>
      </trkpt>
      <trkpt lat="42.9668176732957363128662109375" lon="-7.6626969873905181884765625">
        <ele>524.79998779296875</ele>
        <time>2019-07-26T09:11:23.000Z</time>
      </trkpt>
      <trkpt lat="42.966753132641315460205078125" lon="-7.6627853326499462127685546875">
        <ele>525.4000244140625</ele>
        <time>2019-07-26T09:11:25.000Z</time>
      </trkpt>
      <trkpt lat="42.9666560702025890350341796875" lon="-7.66291684471070766448974609375">
        <ele>526.4000244140625</ele>
        <time>2019-07-26T09:11:28.000Z</time>
      </trkpt>
      <trkpt lat="42.96662271022796630859375" lon="-7.6629663817584514617919921875">
        <ele>526.5999755859375</ele>
        <time>2019-07-26T09:11:29.000Z</time>
      </trkpt>
      <trkpt lat="42.96655423007905483245849609375" lon="-7.66306688077747821807861328125">
        <ele>527</ele>
        <time>2019-07-26T09:11:31.000Z</time>
      </trkpt>
      <trkpt lat="42.96645264141261577606201171875" lon="-7.66319923102855682373046875">
        <ele>527.79998779296875</ele>
        <time>2019-07-26T09:11:34.000Z</time>
      </trkpt>
      <trkpt lat="42.96635038219392299652099609375" lon="-7.66333325766026973724365234375">
        <ele>528.79998779296875</ele>
        <time>2019-07-26T09:11:37.000Z</time>
      </trkpt>
      <trkpt lat="42.9663171060383319854736328125" lon="-7.6633794419467449188232421875">
        <ele>529</ele>
        <time>2019-07-26T09:11:38.000Z</time>
      </trkpt>
      <trkpt lat="42.96612742356956005096435546875" lon="-7.66363701783120632171630859375">
        <ele>530</ele>
        <time>2019-07-26T09:11:44.000Z</time>
      </trkpt>
      <trkpt lat="42.96609372831881046295166015625" lon="-7.6636728085577487945556640625">
        <ele>530.20001220703125</ele>
        <time>2019-07-26T09:11:45.000Z</time>
      </trkpt>
      <trkpt lat="42.96597688458859920501708984375" lon="-7.66380163840949535369873046875">
        <ele>531</ele>
        <time>2019-07-26T09:11:49.000Z</time>
      </trkpt>
      <trkpt lat="42.96592357568442821502685546875" lon="-7.66386969946324825286865234375">
        <ele>531.4000244140625</ele>
        <time>2019-07-26T09:11:51.000Z</time>
      </trkpt>
      <trkpt lat="42.96577035449445247650146484375" lon="-7.664136327803134918212890625">
        <ele>532</ele>
        <time>2019-07-26T09:11:57.000Z</time>
      </trkpt>
      <trkpt lat="42.96560757793486118316650390625" lon="-7.6645026169717311859130859375">
        <ele>533</ele>
        <time>2019-07-26T09:12:03.000Z</time>
      </trkpt>
      <trkpt lat="42.965538762509822845458984375" lon="-7.6646871864795684814453125">
        <ele>533.5999755859375</ele>
        <time>2019-07-26T09:12:06.000Z</time>
      </trkpt>
      <trkpt lat="42.965490818023681640625" lon="-7.66480377875268459320068359375">
        <ele>534</ele>
        <time>2019-07-26T09:12:08.000Z</time>
      </trkpt>
      <trkpt lat="42.96537757851183414459228515625" lon="-7.66509152948856353759765625">
        <ele>535.20001220703125</ele>
        <time>2019-07-26T09:12:13.000Z</time>
      </trkpt>
      <trkpt lat="42.96523625962436199188232421875" lon="-7.6654370315372943878173828125">
        <ele>536.20001220703125</ele>
        <time>2019-07-26T09:12:19.000Z</time>
      </trkpt>
      <trkpt lat="42.96519418247044086456298828125" lon="-7.66554884612560272216796875">
        <ele>536.4000244140625</ele>
        <time>2019-07-26T09:12:21.000Z</time>
      </trkpt>
      <trkpt lat="42.96513450331985950469970703125" lon="-7.6657106168568134307861328125">
        <ele>536.79998779296875</ele>
        <time>2019-07-26T09:12:24.000Z</time>
      </trkpt>
      <trkpt lat="42.96506778337061405181884765625" lon="-7.66586844809353351593017578125">
        <ele>537.4000244140625</ele>
        <time>2019-07-26T09:12:27.000Z</time>
      </trkpt>
      <trkpt lat="42.9650286398828029632568359375" lon="-7.665981352329254150390625">
        <ele>537.79998779296875</ele>
        <time>2019-07-26T09:12:29.000Z</time>
      </trkpt>
      <trkpt lat="42.9649887420237064361572265625" lon="-7.66609140671789646148681640625">
        <ele>538.79998779296875</ele>
        <time>2019-07-26T09:12:31.000Z</time>
      </trkpt>
      <trkpt lat="42.96488539315760135650634765625" lon="-7.6663597114384174346923828125">
        <ele>539.79998779296875</ele>
        <time>2019-07-26T09:12:36.000Z</time>
      </trkpt>
      <trkpt lat="42.9648237861692905426025390625" lon="-7.6665270142257213592529296875">
        <ele>540.4000244140625</ele>
        <time>2019-07-26T09:12:39.000Z</time>
      </trkpt>
      <trkpt lat="42.9647376202046871185302734375" lon="-7.666740752756595611572265625">
        <ele>541</ele>
        <time>2019-07-26T09:12:43.000Z</time>
      </trkpt>
      <trkpt lat="42.96462588943541049957275390625" lon="-7.66700855456292629241943359375">
        <ele>542</ele>
        <time>2019-07-26T09:12:48.000Z</time>
      </trkpt>
      <trkpt lat="42.96450787223875522613525390625" lon="-7.66731784678995609283447265625">
        <ele>543</ele>
        <time>2019-07-26T09:12:54.000Z</time>
      </trkpt>
      <trkpt lat="42.9644667170941829681396484375" lon="-7.66741390340030193328857421875">
        <ele>543.5999755859375</ele>
        <time>2019-07-26T09:12:56.000Z</time>
      </trkpt>
      <trkpt lat="42.96442355029284954071044921875" lon="-7.667505852878093719482421875">
        <ele>544.20001220703125</ele>
        <time>2019-07-26T09:12:58.000Z</time>
      </trkpt>
      <trkpt lat="42.96436822973191738128662109375" lon="-7.6676458306610584259033203125">
        <ele>545.4000244140625</ele>
        <time>2019-07-26T09:13:01.000Z</time>
      </trkpt>
      <trkpt lat="42.96431190334260463714599609375" lon="-7.66778270713984966278076171875">
        <ele>546.20001220703125</ele>
        <time>2019-07-26T09:13:04.000Z</time>
      </trkpt>
      <trkpt lat="42.9642957262694835662841796875" lon="-7.66782998107373714447021484375">
        <ele>546.5999755859375</ele>
        <time>2019-07-26T09:13:05.000Z</time>
      </trkpt>
      <trkpt lat="42.9642075486481189727783203125" lon="-7.668069787323474884033203125">
        <ele>547.5999755859375</ele>
        <time>2019-07-26T09:13:10.000Z</time>
      </trkpt>
      <trkpt lat="42.96413571573793888092041015625" lon="-7.66826600767672061920166015625">
        <ele>548.5999755859375</ele>
        <time>2019-07-26T09:13:14.000Z</time>
      </trkpt>
      <trkpt lat="42.9641173593699932098388671875" lon="-7.66831411980092525482177734375">
        <ele>548.79998779296875</ele>
        <time>2019-07-26T09:13:15.000Z</time>
      </trkpt>
      <trkpt lat="42.9639822430908679962158203125" lon="-7.66864252276718616485595703125">
        <ele>550</ele>
        <time>2019-07-26T09:13:22.000Z</time>
      </trkpt>
      <trkpt lat="42.963880486786365509033203125" lon="-7.6688933931291103363037109375">
        <ele>551</ele>
        <time>2019-07-26T09:13:27.000Z</time>
      </trkpt>
      <trkpt lat="42.96380437910556793212890625" lon="-7.6690945588052272796630859375">
        <ele>551.79998779296875</ele>
        <time>2019-07-26T09:13:31.000Z</time>
      </trkpt>
      <trkpt lat="42.96376775018870830535888671875" lon="-7.66919396817684173583984375">
        <ele>552.20001220703125</ele>
        <time>2019-07-26T09:13:33.000Z</time>
      </trkpt>
      <trkpt lat="42.96362861059606075286865234375" lon="-7.66954408027231693267822265625">
        <ele>553.20001220703125</ele>
        <time>2019-07-26T09:13:40.000Z</time>
      </trkpt>
      <trkpt lat="42.96360832639038562774658203125" lon="-7.6695956289768218994140625">
        <ele>553.20001220703125</ele>
        <time>2019-07-26T09:13:41.000Z</time>
      </trkpt>
      <trkpt lat="42.96347673051059246063232421875" lon="-7.669961415231227874755859375">
        <ele>554.20001220703125</ele>
        <time>2019-07-26T09:13:48.000Z</time>
      </trkpt>
      <trkpt lat="42.96345694921910762786865234375" lon="-7.67001011408865451812744140625">
        <ele>554.5999755859375</ele>
        <time>2019-07-26T09:13:49.000Z</time>
      </trkpt>
      <trkpt lat="42.9633381776511669158935546875" lon="-7.6703119464218616485595703125">
        <ele>555.4000244140625</ele>
        <time>2019-07-26T09:13:55.000Z</time>
      </trkpt>
      <trkpt lat="42.96332116238772869110107421875" lon="-7.6703645847737789154052734375">
        <ele>555.5999755859375</ele>
        <time>2019-07-26T09:13:56.000Z</time>
      </trkpt>
      <trkpt lat="42.96330154873430728912353515625" lon="-7.67041529528796672821044921875">
        <ele>555.5999755859375</ele>
        <time>2019-07-26T09:13:57.000Z</time>
      </trkpt>
      <trkpt lat="42.96320834197103977203369140625" lon="-7.670655436813831329345703125">
        <ele>556.5999755859375</ele>
        <time>2019-07-26T09:14:02.000Z</time>
      </trkpt>
      <trkpt lat="42.963118068873882293701171875" lon="-7.670890130102634429931640625">
        <ele>557.79998779296875</ele>
        <time>2019-07-26T09:14:07.000Z</time>
      </trkpt>
      <trkpt lat="42.96302829869091510772705078125" lon="-7.67111250199377536773681640625">
        <ele>558.79998779296875</ele>
        <time>2019-07-26T09:14:12.000Z</time>
      </trkpt>
      <trkpt lat="42.96299795620143413543701171875" lon="-7.67119850032031536102294921875">
        <ele>559.20001220703125</ele>
        <time>2019-07-26T09:14:14.000Z</time>
      </trkpt>
      <trkpt lat="42.96296409331262111663818359375" lon="-7.67128701321780681610107421875">
        <ele>559.79998779296875</ele>
        <time>2019-07-26T09:14:16.000Z</time>
      </trkpt>
      <trkpt lat="42.96286116354167461395263671875" lon="-7.6715424098074436187744140625">
        <ele>561</ele>
        <time>2019-07-26T09:14:22.000Z</time>
      </trkpt>
      <trkpt lat="42.96276393346488475799560546875" lon="-7.671787329018115997314453125">
        <ele>562</ele>
        <time>2019-07-26T09:14:28.000Z</time>
      </trkpt>
      <trkpt lat="42.96271095983684062957763671875" lon="-7.6719076931476593017578125">
        <ele>562.5999755859375</ele>
        <time>2019-07-26T09:14:31.000Z</time>
      </trkpt>
      <trkpt lat="42.9626780189573764801025390625" lon="-7.67199059017002582550048828125">
        <ele>563</ele>
        <time>2019-07-26T09:14:33.000Z</time>
      </trkpt>
      <trkpt lat="42.96261205337941646575927734375" lon="-7.67221153713762760162353515625">
        <ele>564</ele>
        <time>2019-07-26T09:14:38.000Z</time>
      </trkpt>
      <trkpt lat="42.96259939670562744140625" lon="-7.672257386147975921630859375">
        <ele>564.20001220703125</ele>
        <time>2019-07-26T09:14:39.000Z</time>
      </trkpt>
      <trkpt lat="42.96253879554569721221923828125" lon="-7.67256525345146656036376953125">
        <ele>565.20001220703125</ele>
        <time>2019-07-26T09:14:46.000Z</time>
      </trkpt>
      <trkpt lat="42.962529323995113372802734375" lon="-7.67260749824345111846923828125">
        <ele>565.4000244140625</ele>
        <time>2019-07-26T09:14:47.000Z</time>
      </trkpt>
      <trkpt lat="42.96250342391431331634521484375" lon="-7.6727400161325931549072265625">
        <ele>566.20001220703125</ele>
        <time>2019-07-26T09:14:50.000Z</time>
      </trkpt>
      <trkpt lat="42.96246503479778766632080078125" lon="-7.67291746102273464202880859375">
        <ele>567.4000244140625</ele>
        <time>2019-07-26T09:14:54.000Z</time>
      </trkpt>
      <trkpt lat="42.9624520428478717803955078125" lon="-7.6730085723102092742919921875">
        <ele>568</ele>
        <time>2019-07-26T09:14:56.000Z</time>
      </trkpt>
      <trkpt lat="42.9624336026608943939208984375" lon="-7.67313891090452671051025390625">
        <ele>568.4000244140625</ele>
        <time>2019-07-26T09:14:59.000Z</time>
      </trkpt>
      <trkpt lat="42.96240736730396747589111328125" lon="-7.67331224866211414337158203125">
        <ele>569.5999755859375</ele>
        <time>2019-07-26T09:15:03.000Z</time>
      </trkpt>
      <trkpt lat="42.96239462681114673614501953125" lon="-7.6733968220651149749755859375">
        <ele>570</ele>
        <time>2019-07-26T09:15:05.000Z</time>
      </trkpt>
      <trkpt lat="42.9623678885400295257568359375" lon="-7.6735661365091800689697265625">
        <ele>570.79998779296875</ele>
        <time>2019-07-26T09:15:09.000Z</time>
      </trkpt>
      <trkpt lat="42.96233276836574077606201171875" lon="-7.67378649674355983734130859375">
        <ele>571.79998779296875</ele>
        <time>2019-07-26T09:15:14.000Z</time>
      </trkpt>
      <trkpt lat="42.96228800900280475616455078125" lon="-7.67405815422534942626953125">
        <ele>572.79998779296875</ele>
        <time>2019-07-26T09:15:20.000Z</time>
      </trkpt>
      <trkpt lat="42.96227141283452510833740234375" lon="-7.6741585694253444671630859375">
        <ele>573</ele>
        <time>2019-07-26T09:15:22.000Z</time>
      </trkpt>
      <trkpt lat="42.962226569652557373046875" lon="-7.67443408258259296417236328125">
        <ele>574</ele>
        <time>2019-07-26T09:15:27.000Z</time>
      </trkpt>
      <trkpt lat="42.96219513751566410064697265625" lon="-7.6746185682713985443115234375">
        <ele>574.5999755859375</ele>
        <time>2019-07-26T09:15:30.000Z</time>
      </trkpt>
      <trkpt lat="42.9621439240872859954833984375" lon="-7.67495359294116497039794921875">
        <ele>575</ele>
        <time>2019-07-26T09:15:35.000Z</time>
      </trkpt>
      <trkpt lat="42.96210385859012603759765625" lon="-7.67516297288239002227783203125">
        <ele>575.20001220703125</ele>
        <time>2019-07-26T09:15:38.000Z</time>
      </trkpt>
      <trkpt lat="42.9620911180973052978515625" lon="-7.6752309501171112060546875">
        <ele>575.20001220703125</ele>
        <time>2019-07-26T09:15:39.000Z</time>
      </trkpt>
      <trkpt lat="42.96207628212869167327880859375" lon="-7.67546321265399456024169921875">
        <ele>575.4000244140625</ele>
        <time>2019-07-26T09:15:42.000Z</time>
      </trkpt>
      <trkpt lat="42.96207577921450138092041015625" lon="-7.6756186969578266143798828125">
        <ele>575.4000244140625</ele>
        <time>2019-07-26T09:15:44.000Z</time>
      </trkpt>
      <trkpt lat="42.96205532737076282501220703125" lon="-7.67612320370972156524658203125">
        <ele>575.5999755859375</ele>
        <time>2019-07-26T09:15:50.000Z</time>
      </trkpt>
      <trkpt lat="42.962025068700313568115234375" lon="-7.67665528692305088043212890625">
        <ele>575.5999755859375</ele>
        <time>2019-07-26T09:15:56.000Z</time>
      </trkpt>
      <trkpt lat="42.96203143894672393798828125" lon="-7.67673893831670284271240234375">
        <ele>575.5999755859375</ele>
        <time>2019-07-26T09:15:57.000Z</time>
      </trkpt>
      <trkpt lat="42.96204510144889354705810546875" lon="-7.6770982705056667327880859375">
        <ele>575.5999755859375</ele>
        <time>2019-07-26T09:16:02.000Z</time>
      </trkpt>
      <trkpt lat="42.9620634578168392181396484375" lon="-7.67743949778378009796142578125">
        <ele>574.79998779296875</ele>
        <time>2019-07-26T09:16:06.000Z</time>
      </trkpt>
      <trkpt lat="42.962076030671596527099609375" lon="-7.67763764597475528717041015625">
        <ele>573.79998779296875</ele>
        <time>2019-07-26T09:16:08.000Z</time>
      </trkpt>
      <trkpt lat="42.9620906151831150054931640625" lon="-7.67773001454770565032958984375">
        <ele>573.5999755859375</ele>
        <time>2019-07-26T09:16:09.000Z</time>
      </trkpt>
      <trkpt lat="42.96217803843319416046142578125" lon="-7.67797887325286865234375">
        <ele>573</ele>
        <time>2019-07-26T09:16:12.000Z</time>
      </trkpt>
      <trkpt lat="42.96221475116908550262451171875" lon="-7.678063027560710906982421875">
        <ele>572.4000244140625</ele>
        <time>2019-07-26T09:16:13.000Z</time>
      </trkpt>
      <trkpt lat="42.96228515915572643280029296875" lon="-7.67824516631662845611572265625">
        <ele>571</ele>
        <time>2019-07-26T09:16:15.000Z</time>
      </trkpt>
      <trkpt lat="42.9624101333320140838623046875" lon="-7.6785312406718730926513671875">
        <ele>570.20001220703125</ele>
        <time>2019-07-26T09:16:18.000Z</time>
      </trkpt>
      <trkpt lat="42.96245816163718700408935546875" lon="-7.6786207593977451324462890625">
        <ele>570</ele>
        <time>2019-07-26T09:16:19.000Z</time>
      </trkpt>
      <trkpt lat="42.9625760950148105621337890625" lon="-7.6789189875125885009765625">
        <ele>569.79998779296875</ele>
        <time>2019-07-26T09:16:22.000Z</time>
      </trkpt>
      <trkpt lat="42.9626079462468624114990234375" lon="-7.67902216874063014984130859375">
        <ele>569.4000244140625</ele>
        <time>2019-07-26T09:16:23.000Z</time>
      </trkpt>
      <trkpt lat="42.9626706428825855255126953125" lon="-7.67922132275998592376708984375">
        <ele>568.79998779296875</ele>
        <time>2019-07-26T09:16:25.000Z</time>
      </trkpt>
      <trkpt lat="42.96272051520645618438720703125" lon="-7.6794348098337650299072265625">
        <ele>567.5999755859375</ele>
        <time>2019-07-26T09:16:27.000Z</time>
      </trkpt>
      <trkpt lat="42.96276225708425045013427734375" lon="-7.679677717387676239013671875">
        <ele>566.5999755859375</ele>
        <time>2019-07-26T09:16:29.000Z</time>
      </trkpt>
      <trkpt lat="42.96278488822281360626220703125" lon="-7.6797945611178874969482421875">
        <ele>566.20001220703125</ele>
        <time>2019-07-26T09:16:30.000Z</time>
      </trkpt>
      <trkpt lat="42.96288547106087207794189453125" lon="-7.68016747198998928070068359375">
        <ele>565.4000244140625</ele>
        <time>2019-07-26T09:16:33.000Z</time>
      </trkpt>
      <trkpt lat="42.96292327344417572021484375" lon="-7.680283226072788238525390625">
        <ele>565.20001220703125</ele>
        <time>2019-07-26T09:16:34.000Z</time>
      </trkpt>
      <trkpt lat="42.96296157874166965484619140625" lon="-7.6803883351385593414306640625">
        <ele>564.79998779296875</ele>
        <time>2019-07-26T09:16:35.000Z</time>
      </trkpt>
      <trkpt lat="42.96309761703014373779296875" lon="-7.68071967177093029022216796875">
        <ele>563.79998779296875</ele>
        <time>2019-07-26T09:16:38.000Z</time>
      </trkpt>
      <trkpt lat="42.96317582018673419952392578125" lon="-7.68094682134687900543212890625">
        <ele>563.4000244140625</ele>
        <time>2019-07-26T09:16:40.000Z</time>
      </trkpt>
      <trkpt lat="42.96321420930325984954833984375" lon="-7.68105830065906047821044921875">
        <ele>562.4000244140625</ele>
        <time>2019-07-26T09:16:41.000Z</time>
      </trkpt>
      <trkpt lat="42.96333993785083293914794921875" lon="-7.68139122985303401947021484375">
        <ele>561</ele>
        <time>2019-07-26T09:16:44.000Z</time>
      </trkpt>
      <trkpt lat="42.9633717052638530731201171875" lon="-7.6815048046410083770751953125">
        <ele>560.4000244140625</ele>
        <time>2019-07-26T09:16:45.000Z</time>
      </trkpt>
      <trkpt lat="42.9634397663176059722900390625" lon="-7.68174938857555389404296875">
        <ele>559.79998779296875</ele>
        <time>2019-07-26T09:16:47.000Z</time>
      </trkpt>
      <trkpt lat="42.96349416486918926239013671875" lon="-7.682113833725452423095703125">
        <ele>558.5999755859375</ele>
        <time>2019-07-26T09:16:50.000Z</time>
      </trkpt>
      <trkpt lat="42.9634934104979038238525390625" lon="-7.682219110429286956787109375">
        <ele>558.20001220703125</ele>
        <time>2019-07-26T09:16:51.000Z</time>
      </trkpt>
      <trkpt lat="42.96350170858204364776611328125" lon="-7.68237174488604068756103515625">
        <ele>557.4000244140625</ele>
        <time>2019-07-26T09:16:53.000Z</time>
      </trkpt>
      <trkpt lat="42.96352853067219257354736328125" lon="-7.6824720762670040130615234375">
        <ele>556.5999755859375</ele>
        <time>2019-07-26T09:16:55.000Z</time>
      </trkpt>
      <trkpt lat="42.96355501748621463775634765625" lon="-7.68251289613544940948486328125">
        <ele>556.4000244140625</ele>
        <time>2019-07-26T09:16:56.000Z</time>
      </trkpt>
      <trkpt lat="42.963584773242473602294921875" lon="-7.6825533807277679443359375">
        <ele>556</ele>
        <time>2019-07-26T09:16:57.000Z</time>
      </trkpt>
      <trkpt lat="42.96363883651793003082275390625" lon="-7.68263661302626132965087890625">
        <ele>555.20001220703125</ele>
        <time>2019-07-26T09:16:59.000Z</time>
      </trkpt>
      <trkpt lat="42.96368292532861232757568359375" lon="-7.68272713758051395416259765625">
        <ele>554</ele>
        <time>2019-07-26T09:17:01.000Z</time>
      </trkpt>
      <trkpt lat="42.96372399665415287017822265625" lon="-7.6828244514763355255126953125">
        <ele>553.5999755859375</ele>
        <time>2019-07-26T09:17:03.000Z</time>
      </trkpt>
      <trkpt lat="42.96386204659938812255859375" lon="-7.6830792613327503204345703125">
        <ele>553.4000244140625</ele>
        <time>2019-07-26T09:17:09.000Z</time>
      </trkpt>
      <trkpt lat="42.9639847576618194580078125" lon="-7.68326081335544586181640625">
        <ele>554</ele>
        <time>2019-07-26T09:17:15.000Z</time>
      </trkpt>
      <trkpt lat="42.964092381298542022705078125" lon="-7.6833753101527690887451171875">
        <ele>555</ele>
        <time>2019-07-26T09:17:19.000Z</time>
      </trkpt>
      <trkpt lat="42.96420327387750148773193359375" lon="-7.68356817774474620819091796875">
        <ele>556.20001220703125</ele>
        <time>2019-07-26T09:17:24.000Z</time>
      </trkpt>
      <trkpt lat="42.96426814980804920196533203125" lon="-7.68384159542620182037353515625">
        <ele>557.4000244140625</ele>
        <time>2019-07-26T09:17:30.000Z</time>
      </trkpt>
      <trkpt lat="42.964321710169315338134765625" lon="-7.6841129176318645477294921875">
        <ele>558.5999755859375</ele>
        <time>2019-07-26T09:17:36.000Z</time>
      </trkpt>
      <trkpt lat="42.96433973126113414764404296875" lon="-7.6842619478702545166015625">
        <ele>559.4000244140625</ele>
        <time>2019-07-26T09:17:39.000Z</time>
      </trkpt>
      <trkpt lat="42.96433302573859691619873046875" lon="-7.6843694038689136505126953125">
        <ele>559.5999755859375</ele>
        <time>2019-07-26T09:17:41.000Z</time>
      </trkpt>
      <trkpt lat="42.9643173515796661376953125" lon="-7.6845219545066356658935546875">
        <ele>560.20001220703125</ele>
        <time>2019-07-26T09:17:44.000Z</time>
      </trkpt>
      <trkpt lat="42.96432548202574253082275390625" lon="-7.684668637812137603759765625">
        <ele>560.79998779296875</ele>
        <time>2019-07-26T09:17:47.000Z</time>
      </trkpt>
      <trkpt lat="42.9643356241285800933837890625" lon="-7.68477533943951129913330078125">
        <ele>561.4000244140625</ele>
        <time>2019-07-26T09:17:49.000Z</time>
      </trkpt>
      <trkpt lat="42.96434350311756134033203125" lon="-7.68495328724384307861328125">
        <ele>561.79998779296875</ele>
        <time>2019-07-26T09:17:52.000Z</time>
      </trkpt>
      <trkpt lat="42.96434727497398853302001953125" lon="-7.68515218980610370635986328125">
        <ele>562</ele>
        <time>2019-07-26T09:17:55.000Z</time>
      </trkpt>
      <trkpt lat="42.96435213647782802581787109375" lon="-7.68522075377404689788818359375">
        <ele>562</ele>
        <time>2019-07-26T09:17:56.000Z</time>
      </trkpt>
      <trkpt lat="42.96436822973191738128662109375" lon="-7.68536307848989963531494140625">
        <ele>562</ele>
        <time>2019-07-26T09:17:58.000Z</time>
      </trkpt>
      <trkpt lat="42.9643570818006992340087890625" lon="-7.68551512621343135833740234375">
        <ele>562</ele>
        <time>2019-07-26T09:18:00.000Z</time>
      </trkpt>
      <trkpt lat="42.9643476940691471099853515625" lon="-7.6855975203216075897216796875">
        <ele>562</ele>
        <time>2019-07-26T09:18:01.000Z</time>
      </trkpt>
      <trkpt lat="42.96433771960437297821044921875" lon="-7.68577940762042999267578125">
        <ele>561.79998779296875</ele>
        <time>2019-07-26T09:18:03.000Z</time>
      </trkpt>
      <trkpt lat="42.9643584229052066802978515625" lon="-7.68594863824546337127685546875">
        <ele>561.5999755859375</ele>
        <time>2019-07-26T09:18:05.000Z</time>
      </trkpt>
      <trkpt lat="42.9643778689205646514892578125" lon="-7.68601502291858196258544921875">
        <ele>561.20001220703125</ele>
        <time>2019-07-26T09:18:06.000Z</time>
      </trkpt>
      <trkpt lat="42.96444584615528583526611328125" lon="-7.68612130545079708099365234375">
        <ele>560.79998779296875</ele>
        <time>2019-07-26T09:18:08.000Z</time>
      </trkpt>
      <trkpt lat="42.964495383203029632568359375" lon="-7.6861544139683246612548828125">
        <ele>560.4000244140625</ele>
        <time>2019-07-26T09:18:09.000Z</time>
      </trkpt>
      <trkpt lat="42.96458314172923564910888671875" lon="-7.68618400208652019500732421875">
        <ele>559.79998779296875</ele>
        <time>2019-07-26T09:18:11.000Z</time>
      </trkpt>
      <trkpt lat="42.96462454833090305328369140625" lon="-7.6861963234841823577880859375">
        <ele>559</ele>
        <time>2019-07-26T09:18:12.000Z</time>
      </trkpt>
      <trkpt lat="42.9646695591509342193603515625" lon="-7.68621099181473255157470703125">
        <ele>558</ele>
        <time>2019-07-26T09:18:13.000Z</time>
      </trkpt>
      <trkpt lat="42.964715324342250823974609375" lon="-7.686227001249790191650390625">
        <ele>557.4000244140625</ele>
        <time>2019-07-26T09:18:14.000Z</time>
      </trkpt>
      <trkpt lat="42.9648053459823131561279296875" lon="-7.6862710900604724884033203125">
        <ele>556.20001220703125</ele>
        <time>2019-07-26T09:18:16.000Z</time>
      </trkpt>
      <trkpt lat="42.9648784361779689788818359375" lon="-7.68633437342941761016845703125">
        <ele>555.20001220703125</ele>
        <time>2019-07-26T09:18:18.000Z</time>
      </trkpt>
      <trkpt lat="42.9649582318961620330810546875" lon="-7.6864479482173919677734375">
        <ele>554.20001220703125</ele>
        <time>2019-07-26T09:18:22.000Z</time>
      </trkpt>
      <trkpt lat="42.96501045115292072296142578125" lon="-7.686564624309539794921875">
        <ele>553.20001220703125</ele>
        <time>2019-07-26T09:18:26.000Z</time>
      </trkpt>
      <trkpt lat="42.96501933597028255462646484375" lon="-7.68660360015928745269775390625">
        <ele>552.79998779296875</ele>
        <time>2019-07-26T09:18:27.000Z</time>
      </trkpt>
      <trkpt lat="42.96503442339599132537841796875" lon="-7.6866516284644603729248046875">
        <ele>552.4000244140625</ele>
        <time>2019-07-26T09:18:28.000Z</time>
      </trkpt>
      <trkpt lat="42.9650889895856380462646484375" lon="-7.6867525465786457061767578125">
        <ele>551.5999755859375</ele>
        <time>2019-07-26T09:18:30.000Z</time>
      </trkpt>
      <trkpt lat="42.9651810228824615478515625" lon="-7.68683343194425106048583984375">
        <ele>550.4000244140625</ele>
        <time>2019-07-26T09:18:32.000Z</time>
      </trkpt>
      <trkpt lat="42.9653468169271945953369140625" lon="-7.68689361400902271270751953125">
        <ele>549.4000244140625</ele>
        <time>2019-07-26T09:18:35.000Z</time>
      </trkpt>
      <trkpt lat="42.9654085077345371246337890625" lon="-7.6868967153131961822509765625">
        <ele>549</ele>
        <time>2019-07-26T09:18:36.000Z</time>
      </trkpt>
      <trkpt lat="42.96553398482501506805419921875" lon="-7.686882130801677703857421875">
        <ele>548.20001220703125</ele>
        <time>2019-07-26T09:18:38.000Z</time>
      </trkpt>
      <trkpt lat="42.96569206751883029937744140625" lon="-7.6868893392384052276611328125">
        <ele>547</ele>
        <time>2019-07-26T09:18:40.000Z</time>
      </trkpt>
      <trkpt lat="42.96578426845371723175048828125" lon="-7.686904929578304290771484375">
        <ele>546.5999755859375</ele>
        <time>2019-07-26T09:18:41.000Z</time>
      </trkpt>
      <trkpt lat="42.96597696840763092041015625" lon="-7.68695446662604808807373046875">
        <ele>545.79998779296875</ele>
        <time>2019-07-26T09:18:43.000Z</time>
      </trkpt>
      <trkpt lat="42.96617276966571807861328125" lon="-7.687011547386646270751953125">
        <ele>544.79998779296875</ele>
        <time>2019-07-26T09:18:45.000Z</time>
      </trkpt>
      <trkpt lat="42.966262288391590118408203125" lon="-7.687047086656093597412109375">
        <ele>544</ele>
        <time>2019-07-26T09:18:46.000Z</time>
      </trkpt>
      <trkpt lat="42.96634652651846408843994140625" lon="-7.68708388321101665496826171875">
        <ele>543.4000244140625</ele>
        <time>2019-07-26T09:18:47.000Z</time>
      </trkpt>
      <trkpt lat="42.96650896780192852020263671875" lon="-7.68714121542870998382568359375">
        <ele>542.20001220703125</ele>
        <time>2019-07-26T09:18:49.000Z</time>
      </trkpt>
      <trkpt lat="42.96661726199090480804443359375" lon="-7.6872034929692745208740234375">
        <ele>540.79998779296875</ele>
        <time>2019-07-26T09:18:51.000Z</time>
      </trkpt>
      <trkpt lat="42.9667224548757076263427734375" lon="-7.68726711161434650421142578125">
        <ele>539.4000244140625</ele>
        <time>2019-07-26T09:18:53.000Z</time>
      </trkpt>
      <trkpt lat="42.96678070910274982452392578125" lon="-7.6873121224343776702880859375">
        <ele>538.79998779296875</ele>
        <time>2019-07-26T09:18:54.000Z</time>
      </trkpt>
      <trkpt lat="42.9668401367962360382080078125" lon="-7.687358558177947998046875">
        <ele>538</ele>
        <time>2019-07-26T09:18:55.000Z</time>
      </trkpt>
      <trkpt lat="42.9669118858873844146728515625" lon="-7.68740491010248661041259765625">
        <ele>537.20001220703125</ele>
        <time>2019-07-26T09:18:56.000Z</time>
      </trkpt>
      <trkpt lat="42.9669859819114208221435546875" lon="-7.6874484121799468994140625">
        <ele>536.4000244140625</ele>
        <time>2019-07-26T09:18:57.000Z</time>
      </trkpt>
      <trkpt lat="42.96713543124496936798095703125" lon="-7.68752912990748882293701171875">
        <ele>534.20001220703125</ele>
        <time>2019-07-26T09:18:59.000Z</time>
      </trkpt>
      <trkpt lat="42.96728546731173992156982421875" lon="-7.68763474188745021820068359375">
        <ele>533</ele>
        <time>2019-07-26T09:19:02.000Z</time>
      </trkpt>
      <trkpt lat="42.9673038236796855926513671875" lon="-7.6877461373805999755859375">
        <ele>532.4000244140625</ele>
        <time>2019-07-26T09:19:04.000Z</time>
      </trkpt>
      <trkpt lat="42.9673004709184169769287109375" lon="-7.687801457941532135009765625">
        <ele>532.20001220703125</ele>
        <time>2019-07-26T09:19:05.000Z</time>
      </trkpt>
      <trkpt lat="42.967283539474010467529296875" lon="-7.6879491470754146575927734375">
        <ele>531.79998779296875</ele>
        <time>2019-07-26T09:19:07.000Z</time>
      </trkpt>
      <trkpt lat="42.96727515757083892822265625" lon="-7.68801846541464328765869140625">
        <ele>531.20001220703125</ele>
        <time>2019-07-26T09:19:08.000Z</time>
      </trkpt>
      <trkpt lat="42.96725571155548095703125" lon="-7.68808652646839618682861328125">
        <ele>530.5999755859375</ele>
        <time>2019-07-26T09:19:09.000Z</time>
      </trkpt>
      <trkpt lat="42.96717314980924129486083984375" lon="-7.68821242265403270721435546875">
        <ele>529</ele>
        <time>2019-07-26T09:19:11.000Z</time>
      </trkpt>
      <trkpt lat="42.96711883507668972015380859375" lon="-7.6882763765752315521240234375">
        <ele>528.5999755859375</ele>
        <time>2019-07-26T09:19:12.000Z</time>
      </trkpt>
      <trkpt lat="42.96700282953679561614990234375" lon="-7.688434459269046783447265625">
        <ele>528</ele>
        <time>2019-07-26T09:19:14.000Z</time>
      </trkpt>
      <trkpt lat="42.96695019118487834930419921875" lon="-7.68852557055652141571044921875">
        <ele>527.79998779296875</ele>
        <time>2019-07-26T09:19:15.000Z</time>
      </trkpt>
      <trkpt lat="42.96689922921359539031982421875" lon="-7.68861793912947177886962890625">
        <ele>527.5999755859375</ele>
        <time>2019-07-26T09:19:16.000Z</time>
      </trkpt>
      <trkpt lat="42.9667814634740352630615234375" lon="-7.688782475888729095458984375">
        <ele>526.79998779296875</ele>
        <time>2019-07-26T09:19:18.000Z</time>
      </trkpt>
      <trkpt lat="42.9666517116129398345947265625" lon="-7.688911221921443939208984375">
        <ele>526.20001220703125</ele>
        <time>2019-07-26T09:19:20.000Z</time>
      </trkpt>
      <trkpt lat="42.96658708713948726654052734375" lon="-7.68897685222327709197998046875">
        <ele>525.5999755859375</ele>
        <time>2019-07-26T09:19:21.000Z</time>
      </trkpt>
      <trkpt lat="42.96653076075017452239990234375" lon="-7.6890535466372966766357421875">
        <ele>525</ele>
        <time>2019-07-26T09:19:22.000Z</time>
      </trkpt>
      <trkpt lat="42.96647988259792327880859375" lon="-7.68913510255515575408935546875">
        <ele>524.5999755859375</ele>
        <time>2019-07-26T09:19:23.000Z</time>
      </trkpt>
      <trkpt lat="42.96643235720694065093994140625" lon="-7.68921665847301483154296875">
        <ele>524.20001220703125</ele>
        <time>2019-07-26T09:19:24.000Z</time>
      </trkpt>
      <trkpt lat="42.96633814461529254913330078125" lon="-7.68936107866466045379638671875">
        <ele>523.20001220703125</ele>
        <time>2019-07-26T09:19:26.000Z</time>
      </trkpt>
      <trkpt lat="42.9662887752056121826171875" lon="-7.68942494876682758331298828125">
        <ele>521.79998779296875</ele>
        <time>2019-07-26T09:19:27.000Z</time>
      </trkpt>
      <trkpt lat="42.9662352986633777618408203125" lon="-7.6894803531467914581298828125">
        <ele>521.20001220703125</ele>
        <time>2019-07-26T09:19:28.000Z</time>
      </trkpt>
      <trkpt lat="42.966181822121143341064453125" lon="-7.68952838145196437835693359375">
        <ele>520.4000244140625</ele>
        <time>2019-07-26T09:19:29.000Z</time>
      </trkpt>
      <trkpt lat="42.96609892509877681732177734375" lon="-7.68964706920087337493896484375">
        <ele>519</ele>
        <time>2019-07-26T09:19:31.000Z</time>
      </trkpt>
      <trkpt lat="42.9660669900476932525634765625" lon="-7.6897760666906833648681640625">
        <ele>517.79998779296875</ele>
        <time>2019-07-26T09:19:33.000Z</time>
      </trkpt>
      <trkpt lat="42.96607176773250102996826171875" lon="-7.68987908028066158294677734375">
        <ele>517</ele>
        <time>2019-07-26T09:19:35.000Z</time>
      </trkpt>
      <trkpt lat="42.96607981435954570770263671875" lon="-7.68992300145328044891357421875">
        <ele>516.4000244140625</ele>
        <time>2019-07-26T09:19:36.000Z</time>
      </trkpt>
      <trkpt lat="42.9660800658166408538818359375" lon="-7.68996574915945529937744140625">
        <ele>516</ele>
        <time>2019-07-26T09:19:37.000Z</time>
      </trkpt>
      <trkpt lat="42.96607260592281818389892578125" lon="-7.69004805944859981536865234375">
        <ele>515.5999755859375</ele>
        <time>2019-07-26T09:19:39.000Z</time>
      </trkpt>
      <trkpt lat="42.96606774441897869110107421875" lon="-7.6900851912796497344970703125">
        <ele>515.4000244140625</ele>
        <time>2019-07-26T09:19:40.000Z</time>
      </trkpt>
      <trkpt lat="42.96605416573584079742431640625" lon="-7.6902125962078571319580078125">
        <ele>515.4000244140625</ele>
        <time>2019-07-26T09:19:43.000Z</time>
      </trkpt>
      <trkpt lat="42.96599146910011768341064453125" lon="-7.69039875827729701995849609375">
        <ele>515.5999755859375</ele>
        <time>2019-07-26T09:19:48.000Z</time>
      </trkpt>
      <trkpt lat="42.9659664072096347808837890625" lon="-7.6904727704823017120361328125">
        <ele>516.20001220703125</ele>
        <time>2019-07-26T09:19:50.000Z</time>
      </trkpt>
      <trkpt lat="42.9659006930887699127197265625" lon="-7.690643928945064544677734375">
        <ele>516.5999755859375</ele>
        <time>2019-07-26T09:19:54.000Z</time>
      </trkpt>
      <trkpt lat="42.96586574055254459381103515625" lon="-7.69073738716542720794677734375">
        <ele>517.20001220703125</ele>
        <time>2019-07-26T09:19:56.000Z</time>
      </trkpt>
      <trkpt lat="42.965849228203296661376953125" lon="-7.69078281708061695098876953125">
        <ele>517.4000244140625</ele>
        <time>2019-07-26T09:19:57.000Z</time>
      </trkpt>
      <trkpt lat="42.9658007808029651641845703125" lon="-7.69091072492301464080810546875">
        <ele>518</ele>
        <time>2019-07-26T09:20:00.000Z</time>
      </trkpt>
      <trkpt lat="42.965790219604969024658203125" lon="-7.69096545875072479248046875">
        <ele>518.20001220703125</ele>
        <time>2019-07-26T09:20:01.000Z</time>
      </trkpt>
      <trkpt lat="42.96576901338994503021240234375" lon="-7.691064365208148956298828125">
        <ele>518.5999755859375</ele>
        <time>2019-07-26T09:20:03.000Z</time>
      </trkpt>
      <trkpt lat="42.96575342305004596710205078125" lon="-7.691256813704967498779296875">
        <ele>520</ele>
        <time>2019-07-26T09:20:07.000Z</time>
      </trkpt>
      <trkpt lat="42.96568930149078369140625" lon="-7.69154942594468593597412109375">
        <ele>520.79998779296875</ele>
        <time>2019-07-26T09:20:12.000Z</time>
      </trkpt>
      <trkpt lat="42.96568184159696102142333984375" lon="-7.6916056685149669647216796875">
        <ele>521</ele>
        <time>2019-07-26T09:20:13.000Z</time>
      </trkpt>
      <trkpt lat="42.96566993929445743560791015625" lon="-7.69165738485753536224365234375">
        <ele>521</ele>
        <time>2019-07-26T09:20:14.000Z</time>
      </trkpt>
      <trkpt lat="42.96560422517359256744384765625" lon="-7.6919781602919101715087890625">
        <ele>522</ele>
        <time>2019-07-26T09:20:20.000Z</time>
      </trkpt>
      <trkpt lat="42.965600788593292236328125" lon="-7.69202585332095623016357421875">
        <ele>522.20001220703125</ele>
        <time>2019-07-26T09:20:21.000Z</time>
      </trkpt>
      <trkpt lat="42.9656059853732585906982421875" lon="-7.6922564394772052764892578125">
        <ele>522.5999755859375</ele>
        <time>2019-07-26T09:20:26.000Z</time>
      </trkpt>
      <trkpt lat="42.96560011804103851318359375" lon="-7.692443691194057464599609375">
        <ele>523.20001220703125</ele>
        <time>2019-07-26T09:20:31.000Z</time>
      </trkpt>
      <trkpt lat="42.96559617854654788970947265625" lon="-7.69248367287218570709228515625">
        <ele>523.20001220703125</ele>
        <time>2019-07-26T09:20:32.000Z</time>
      </trkpt>
      <trkpt lat="42.965536750853061676025390625" lon="-7.6927187852561473846435546875">
        <ele>523.4000244140625</ele>
        <time>2019-07-26T09:20:36.000Z</time>
      </trkpt>
      <trkpt lat="42.965476401150226593017578125" lon="-7.693036459386348724365234375">
        <ele>523.79998779296875</ele>
        <time>2019-07-26T09:20:42.000Z</time>
      </trkpt>
      <trkpt lat="42.96544865705072879791259765625" lon="-7.69323620013892650604248046875">
        <ele>524.20001220703125</ele>
        <time>2019-07-26T09:20:46.000Z</time>
      </trkpt>
      <trkpt lat="42.9654386825859546661376953125" lon="-7.69328313879668712615966796875">
        <ele>524.4000244140625</ele>
        <time>2019-07-26T09:20:47.000Z</time>
      </trkpt>
      <trkpt lat="42.96530834399163722991943359375" lon="-7.69364909268915653228759765625">
        <ele>524.5999755859375</ele>
        <time>2019-07-26T09:20:52.000Z</time>
      </trkpt>
      <trkpt lat="42.965236343443393707275390625" lon="-7.69387624226510524749755859375">
        <ele>525.20001220703125</ele>
        <time>2019-07-26T09:20:56.000Z</time>
      </trkpt>
      <trkpt lat="42.96522100456058979034423828125" lon="-7.69392971880733966827392578125">
        <ele>525.4000244140625</ele>
        <time>2019-07-26T09:20:57.000Z</time>
      </trkpt>
      <trkpt lat="42.9651630856096744537353515625" lon="-7.69413021393120288848876953125">
        <ele>526</ele>
        <time>2019-07-26T09:21:01.000Z</time>
      </trkpt>
      <trkpt lat="42.96512260101735591888427734375" lon="-7.6942509971559047698974609375">
        <ele>526.4000244140625</ele>
        <time>2019-07-26T09:21:04.000Z</time>
      </trkpt>
      <trkpt lat="42.96505018137395381927490234375" lon="-7.694431208074092864990234375">
        <ele>527</ele>
        <time>2019-07-26T09:21:08.000Z</time>
      </trkpt>
      <trkpt lat="42.96501145698130130767822265625" lon="-7.69450807012617588043212890625">
        <ele>527.5999755859375</ele>
        <time>2019-07-26T09:21:10.000Z</time>
      </trkpt>
      <trkpt lat="42.9649575613439083099365234375" lon="-7.69462642259895801544189453125">
        <ele>528.4000244140625</ele>
        <time>2019-07-26T09:21:14.000Z</time>
      </trkpt>
      <trkpt lat="42.964941971004009246826171875" lon="-7.69465425051748752593994140625">
        <ele>528.79998779296875</ele>
        <time>2019-07-26T09:21:15.000Z</time>
      </trkpt>
      <trkpt lat="42.9648428969085216522216796875" lon="-7.69475013948976993560791015625">
        <ele>529.79998779296875</ele>
        <time>2019-07-26T09:21:19.000Z</time>
      </trkpt>
      <trkpt lat="42.96481749974191188812255859375" lon="-7.69477629102766513824462890625">
        <ele>530.20001220703125</ele>
        <time>2019-07-26T09:21:20.000Z</time>
      </trkpt>
      <trkpt lat="42.96474055387079715728759765625" lon="-7.69485860131680965423583984375">
        <ele>530.79998779296875</ele>
        <time>2019-07-26T09:21:23.000Z</time>
      </trkpt>
      <trkpt lat="42.9646326787769794464111328125" lon="-7.69496597349643707275390625">
        <ele>532</ele>
        <time>2019-07-26T09:21:28.000Z</time>
      </trkpt>
      <trkpt lat="42.96451491303741931915283203125" lon="-7.69504702650010585784912109375">
        <ele>533</ele>
        <time>2019-07-26T09:21:32.000Z</time>
      </trkpt>
      <trkpt lat="42.96444634906947612762451171875" lon="-7.69509564153850078582763671875">
        <ele>533.4000244140625</ele>
        <time>2019-07-26T09:21:34.000Z</time>
      </trkpt>
      <trkpt lat="42.96426161192357540130615234375" lon="-7.69518448971211910247802734375">
        <ele>534.20001220703125</ele>
        <time>2019-07-26T09:21:40.000Z</time>
      </trkpt>
      <trkpt lat="42.9642296768724918365478515625" lon="-7.6951961405575275421142578125">
        <ele>534.20001220703125</ele>
        <time>2019-07-26T09:21:41.000Z</time>
      </trkpt>
      <trkpt lat="42.96414979733526706695556640625" lon="-7.69519639201462268829345703125">
        <ele>535</ele>
        <time>2019-07-26T09:21:45.000Z</time>
      </trkpt>
      <trkpt lat="42.96410637907683849334716796875" lon="-7.69515716470777988433837890625">
        <ele>535.20001220703125</ele>
        <time>2019-07-26T09:21:47.000Z</time>
      </trkpt>
      <trkpt lat="42.96405474655330181121826171875" lon="-7.6950727589428424835205078125">
        <ele>535.5999755859375</ele>
        <time>2019-07-26T09:21:50.000Z</time>
      </trkpt>
      <trkpt lat="42.9640169441699981689453125" lon="-7.69498533569276332855224609375">
        <ele>536.4000244140625</ele>
        <time>2019-07-26T09:21:53.000Z</time>
      </trkpt>
      <trkpt lat="42.96397469937801361083984375" lon="-7.69492171704769134521484375">
        <ele>536.79998779296875</ele>
        <time>2019-07-26T09:21:56.000Z</time>
      </trkpt>
      <trkpt lat="42.96392750926315784454345703125" lon="-7.69485197961330413818359375">
        <ele>537.5999755859375</ele>
        <time>2019-07-26T09:21:59.000Z</time>
      </trkpt>
      <trkpt lat="42.9638675786554813385009765625" lon="-7.6947317831218242645263671875">
        <ele>538.4000244140625</ele>
        <time>2019-07-26T09:22:03.000Z</time>
      </trkpt>
      <trkpt lat="42.9638548381626605987548828125" lon="-7.69470336847007274627685546875">
        <ele>538.5999755859375</ele>
        <time>2019-07-26T09:22:04.000Z</time>
      </trkpt>
      <trkpt lat="42.96375903300940990447998046875" lon="-7.6946147717535495758056640625">
        <ele>540</ele>
        <time>2019-07-26T09:22:09.000Z</time>
      </trkpt>
      <trkpt lat="42.963747717440128326416015625" lon="-7.694613933563232421875">
        <ele>540.20001220703125</ele>
        <time>2019-07-26T09:22:10.000Z</time>
      </trkpt>
      <trkpt lat="42.96373422257602214813232421875" lon="-7.69462709315121173858642578125">
        <ele>540.5999755859375</ele>
        <time>2019-07-26T09:22:12.000Z</time>
      </trkpt>
      <trkpt lat="42.96372617594897747039794921875" lon="-7.6946375705301761627197265625">
        <ele>541</ele>
        <time>2019-07-26T09:22:13.000Z</time>
      </trkpt>
      <trkpt lat="42.96371863223612308502197265625" lon="-7.6946462877094745635986328125">
        <ele>541.4000244140625</ele>
        <time>2019-07-26T09:22:14.000Z</time>
      </trkpt>
      <trkpt lat="42.96367697417736053466796875" lon="-7.6947257481515407562255859375">
        <ele>542.5999755859375</ele>
        <time>2019-07-26T09:22:18.000Z</time>
      </trkpt>
      <trkpt lat="42.96366515569388866424560546875" lon="-7.6947535760700702667236328125">
        <ele>542.79998779296875</ele>
        <time>2019-07-26T09:22:19.000Z</time>
      </trkpt>
      <trkpt lat="42.96356122009456157684326171875" lon="-7.69496806897222995758056640625">
        <ele>543.5999755859375</ele>
        <time>2019-07-26T09:22:26.000Z</time>
      </trkpt>
      <trkpt lat="42.96345443464815616607666015625" lon="-7.6951146684587001800537109375">
        <ele>543.79998779296875</ele>
        <time>2019-07-26T09:22:30.000Z</time>
      </trkpt>
      <trkpt lat="42.96341017819941043853759765625" lon="-7.69517711363732814788818359375">
        <ele>544</ele>
        <time>2019-07-26T09:22:32.000Z</time>
      </trkpt>
      <trkpt lat="42.96332702971994876861572265625" lon="-7.6952702365815639495849609375">
        <ele>544.20001220703125</ele>
        <time>2019-07-26T09:22:35.000Z</time>
      </trkpt>
      <trkpt lat="42.963230051100254058837890625" lon="-7.6953356154263019561767578125">
        <ele>544.4000244140625</ele>
        <time>2019-07-26T09:22:38.000Z</time>
      </trkpt>
      <trkpt lat="42.96319576911628246307373046875" lon="-7.69535967148840427398681640625">
        <ele>544.4000244140625</ele>
        <time>2019-07-26T09:22:39.000Z</time>
      </trkpt>
      <trkpt lat="42.96314430423080921173095703125" lon="-7.6953738369047641754150390625">
        <ele>544.5999755859375</ele>
        <time>2019-07-26T09:22:41.000Z</time>
      </trkpt>
      <trkpt lat="42.9630907438695430755615234375" lon="-7.69539973698556423187255859375">
        <ele>544.79998779296875</ele>
        <time>2019-07-26T09:22:43.000Z</time>
      </trkpt>
      <trkpt lat="42.96307741664350032806396484375" lon="-7.69542329013347625732421875">
        <ele>545</ele>
        <time>2019-07-26T09:22:44.000Z</time>
      </trkpt>
      <trkpt lat="42.963033579289913177490234375" lon="-7.69558263011276721954345703125">
        <ele>545.4000244140625</ele>
        <time>2019-07-26T09:22:48.000Z</time>
      </trkpt>
      <trkpt lat="42.963026203215122222900390625" lon="-7.69562579691410064697265625">
        <ele>545.5999755859375</ele>
        <time>2019-07-26T09:22:49.000Z</time>
      </trkpt>
      <trkpt lat="42.962975241243839263916015625" lon="-7.69593290984630584716796875">
        <ele>546</ele>
        <time>2019-07-26T09:22:56.000Z</time>
      </trkpt>
      <trkpt lat="42.9629519395530223846435546875" lon="-7.69608705304563045501708984375">
        <ele>546</ele>
        <time>2019-07-26T09:22:59.000Z</time>
      </trkpt>
      <trkpt lat="42.962932996451854705810546875" lon="-7.6961848698556423187255859375">
        <ele>546</ele>
        <time>2019-07-26T09:23:01.000Z</time>
      </trkpt>
      <trkpt lat="42.962923608720302581787109375" lon="-7.69625083543360233306884765625">
        <ele>546</ele>
        <time>2019-07-26T09:23:02.000Z</time>
      </trkpt>
      <trkpt lat="42.96291531063616275787353515625" lon="-7.6964349858462810516357421875">
        <ele>546</ele>
        <time>2019-07-26T09:23:05.000Z</time>
      </trkpt>
      <trkpt lat="42.962908186018466949462890625" lon="-7.69683756865561008453369140625">
        <ele>546</ele>
        <time>2019-07-26T09:23:12.000Z</time>
      </trkpt>
      <trkpt lat="42.96290022321045398712158203125" lon="-7.69702197052538394927978515625">
        <ele>546.4000244140625</ele>
        <time>2019-07-26T09:23:16.000Z</time>
      </trkpt>
      <trkpt lat="42.96289779245853424072265625" lon="-7.6970726810395717620849609375">
        <ele>546.5999755859375</ele>
        <time>2019-07-26T09:23:17.000Z</time>
      </trkpt>
      <trkpt lat="42.96287524513900279998779296875" lon="-7.69718675874173641204833984375">
        <ele>547</ele>
        <time>2019-07-26T09:23:19.000Z</time>
      </trkpt>
      <trkpt lat="42.96285311691462993621826171875" lon="-7.6972969807684421539306640625">
        <ele>547.5999755859375</ele>
        <time>2019-07-26T09:23:21.000Z</time>
      </trkpt>
      <trkpt lat="42.96282981522381305694580078125" lon="-7.697513066232204437255859375">
        <ele>548.79998779296875</ele>
        <time>2019-07-26T09:23:26.000Z</time>
      </trkpt>
      <trkpt lat="42.96282445080578327178955078125" lon="-7.69755237735807895660400390625">
        <ele>549</ele>
        <time>2019-07-26T09:23:27.000Z</time>
      </trkpt>
      <trkpt lat="42.962808944284915924072265625" lon="-7.69770459271967411041259765625">
        <ele>549.79998779296875</ele>
        <time>2019-07-26T09:23:31.000Z</time>
      </trkpt>
      <trkpt lat="42.96281171031296253204345703125" lon="-7.697769217193126678466796875">
        <ele>550.20001220703125</ele>
        <time>2019-07-26T09:23:33.000Z</time>
      </trkpt>
      <trkpt lat="42.96279310248792171478271484375" lon="-7.6978941075503826141357421875">
        <ele>551</ele>
        <time>2019-07-26T09:23:37.000Z</time>
      </trkpt>
      <trkpt lat="42.9627913422882556915283203125" lon="-7.69795973785221576690673828125">
        <ele>551.4000244140625</ele>
        <time>2019-07-26T09:23:39.000Z</time>
      </trkpt>
      <trkpt lat="42.96277952380478382110595703125" lon="-7.69805730320513248443603515625">
        <ele>552</ele>
        <time>2019-07-26T09:23:42.000Z</time>
      </trkpt>
      <trkpt lat="42.9627697169780731201171875" lon="-7.69819795154035091400146484375">
        <ele>553.20001220703125</ele>
        <time>2019-07-26T09:23:46.000Z</time>
      </trkpt>
      <trkpt lat="42.96276493929326534271240234375" lon="-7.6982416212558746337890625">
        <ele>553.20001220703125</ele>
        <time>2019-07-26T09:23:47.000Z</time>
      </trkpt>
      <trkpt lat="42.96271967701613903045654296875" lon="-7.69852249883115291595458984375">
        <ele>554.20001220703125</ele>
        <time>2019-07-26T09:23:53.000Z</time>
      </trkpt>
      <trkpt lat="42.96264960430562496185302734375" lon="-7.698791138827800750732421875">
        <ele>555.4000244140625</ele>
        <time>2019-07-26T09:23:59.000Z</time>
      </trkpt>
      <trkpt lat="42.96261138282716274261474609375" lon="-7.69887319765985012054443359375">
        <ele>555.79998779296875</ele>
        <time>2019-07-26T09:24:01.000Z</time>
      </trkpt>
      <trkpt lat="42.96254533343017101287841796875" lon="-7.69904787652194499969482421875">
        <ele>556.5999755859375</ele>
        <time>2019-07-26T09:24:05.000Z</time>
      </trkpt>
      <trkpt lat="42.96245925128459930419921875" lon="-7.69921434111893177032470703125">
        <ele>557</ele>
        <time>2019-07-26T09:24:09.000Z</time>
      </trkpt>
      <trkpt lat="42.96231533400714397430419921875" lon="-7.69952447153627872467041015625">
        <ele>557.5999755859375</ele>
        <time>2019-07-26T09:24:16.000Z</time>
      </trkpt>
      <trkpt lat="42.96229488216340541839599609375" lon="-7.69957543350756168365478515625">
        <ele>557.5999755859375</ele>
        <time>2019-07-26T09:24:17.000Z</time>
      </trkpt>
      <trkpt lat="42.96218834817409515380859375" lon="-7.6999634318053722381591796875">
        <ele>558</ele>
        <time>2019-07-26T09:24:24.000Z</time>
      </trkpt>
      <trkpt lat="42.96217837370932102203369140625" lon="-7.700021602213382720947265625">
        <ele>558.20001220703125</ele>
        <time>2019-07-26T09:24:25.000Z</time>
      </trkpt>
      <trkpt lat="42.96213562600314617156982421875" lon="-7.70033751614391803741455078125">
        <ele>558.4000244140625</ele>
        <time>2019-07-26T09:24:30.000Z</time>
      </trkpt>
      <trkpt lat="42.96212523244321346282958984375" lon="-7.70040423609316349029541015625">
        <ele>558.4000244140625</ele>
        <time>2019-07-26T09:24:31.000Z</time>
      </trkpt>
      <trkpt lat="42.96210243366658687591552734375" lon="-7.700542621314525604248046875">
        <ele>558.5999755859375</ele>
        <time>2019-07-26T09:24:33.000Z</time>
      </trkpt>
      <trkpt lat="42.9620473645627498626708984375" lon="-7.70088066346943378448486328125">
        <ele>558.79998779296875</ele>
        <time>2019-07-26T09:24:38.000Z</time>
      </trkpt>
      <trkpt lat="42.96200453303754329681396484375" lon="-7.70108467899262905120849609375">
        <ele>558.79998779296875</ele>
        <time>2019-07-26T09:24:41.000Z</time>
      </trkpt>
      <trkpt lat="42.96195893548429012298583984375" lon="-7.7012840844690799713134765625">
        <ele>559.20001220703125</ele>
        <time>2019-07-26T09:24:44.000Z</time>
      </trkpt>
      <trkpt lat="42.96192658133804798126220703125" lon="-7.70161525346338748931884765625">
        <ele>559.5999755859375</ele>
        <time>2019-07-26T09:24:50.000Z</time>
      </trkpt>
      <trkpt lat="42.96193932183086872100830078125" lon="-7.70173410885035991668701171875">
        <ele>559.5999755859375</ele>
        <time>2019-07-26T09:24:53.000Z</time>
      </trkpt>
      <trkpt lat="42.96193731017410755157470703125" lon="-7.7018379606306552886962890625">
        <ele>560.4000244140625</ele>
        <time>2019-07-26T09:24:56.000Z</time>
      </trkpt>
      <trkpt lat="42.9619276709854602813720703125" lon="-7.70191314630210399627685546875">
        <ele>560.79998779296875</ele>
        <time>2019-07-26T09:24:58.000Z</time>
      </trkpt>
      <trkpt lat="42.9619253240525722503662109375" lon="-7.7020253799855709075927734375">
        <ele>562.20001220703125</ele>
        <time>2019-07-26T09:25:01.000Z</time>
      </trkpt>
      <trkpt lat="42.961907722055912017822265625" lon="-7.70219578407704830169677734375">
        <ele>563.4000244140625</ele>
        <time>2019-07-26T09:25:05.000Z</time>
      </trkpt>
      <trkpt lat="42.96188903041183948516845703125" lon="-7.70232821814715862274169921875">
        <ele>564</ele>
        <time>2019-07-26T09:25:08.000Z</time>
      </trkpt>
      <trkpt lat="42.9618518985807895660400390625" lon="-7.70245998166501522064208984375">
        <ele>564.4000244140625</ele>
        <time>2019-07-26T09:25:11.000Z</time>
      </trkpt>
      <trkpt lat="42.96183505095541477203369140625" lon="-7.7025618217885494232177734375">
        <ele>565</ele>
        <time>2019-07-26T09:25:13.000Z</time>
      </trkpt>
      <trkpt lat="42.96182448975741863250732421875" lon="-7.702711857855319976806640625">
        <ele>565.4000244140625</ele>
        <time>2019-07-26T09:25:16.000Z</time>
      </trkpt>
      <trkpt lat="42.9617741145193576812744140625" lon="-7.70302056334912776947021484375">
        <ele>566.5999755859375</ele>
        <time>2019-07-26T09:25:22.000Z</time>
      </trkpt>
      <trkpt lat="42.9617536626756191253662109375" lon="-7.70332952030003070831298828125">
        <ele>567.20001220703125</ele>
        <time>2019-07-26T09:25:28.000Z</time>
      </trkpt>
      <trkpt lat="42.9617436043918132781982421875" lon="-7.7035389840602874755859375">
        <ele>567.4000244140625</ele>
        <time>2019-07-26T09:25:32.000Z</time>
      </trkpt>
      <trkpt lat="42.96174041926860809326171875" lon="-7.70359103567898273468017578125">
        <ele>567.4000244140625</ele>
        <time>2019-07-26T09:25:33.000Z</time>
      </trkpt>
      <trkpt lat="42.9617365635931491851806640625" lon="-7.7036410756409168243408203125">
        <ele>567.4000244140625</ele>
        <time>2019-07-26T09:25:34.000Z</time>
      </trkpt>
      <trkpt lat="42.96169423498213291168212890625" lon="-7.70402655936777591705322265625">
        <ele>568.20001220703125</ele>
        <time>2019-07-26T09:25:42.000Z</time>
      </trkpt>
      <trkpt lat="42.9616701789200305938720703125" lon="-7.70422772504389286041259765625">
        <ele>568.4000244140625</ele>
        <time>2019-07-26T09:25:46.000Z</time>
      </trkpt>
      <trkpt lat="42.96163271181285381317138671875" lon="-7.70450550131499767303466796875">
        <ele>568.79998779296875</ele>
        <time>2019-07-26T09:25:51.000Z</time>
      </trkpt>
      <trkpt lat="42.96158527024090290069580078125" lon="-7.7048628218472003936767578125">
        <ele>569.4000244140625</ele>
        <time>2019-07-26T09:25:57.000Z</time>
      </trkpt>
      <trkpt lat="42.9615652374923229217529296875" lon="-7.7049868740141391754150390625">
        <ele>569.4000244140625</ele>
        <time>2019-07-26T09:25:59.000Z</time>
      </trkpt>
      <trkpt lat="42.96154822222888469696044921875" lon="-7.70512693561613559722900390625">
        <ele>569.4000244140625</ele>
        <time>2019-07-26T09:26:01.000Z</time>
      </trkpt>
      <trkpt lat="42.96152659691870212554931640625" lon="-7.70527143962681293487548828125">
        <ele>569.4000244140625</ele>
        <time>2019-07-26T09:26:03.000Z</time>
      </trkpt>
      <trkpt lat="42.9615015350282192230224609375" lon="-7.70542516373097896575927734375">
        <ele>569.4000244140625</ele>
        <time>2019-07-26T09:26:05.000Z</time>
      </trkpt>
      <trkpt lat="42.96143573708832263946533203125" lon="-7.7058783732354640960693359375">
        <ele>568.79998779296875</ele>
        <time>2019-07-26T09:26:10.000Z</time>
      </trkpt>
      <trkpt lat="42.96142769046127796173095703125" lon="-7.7059797942638397216796875">
        <ele>568.79998779296875</ele>
        <time>2019-07-26T09:26:11.000Z</time>
      </trkpt>
      <trkpt lat="42.96142232604324817657470703125" lon="-7.70618104375898838043212890625">
        <ele>568.4000244140625</ele>
        <time>2019-07-26T09:26:13.000Z</time>
      </trkpt>
      <trkpt lat="42.9614398442208766937255859375" lon="-7.7062850631773471832275390625">
        <ele>568</ele>
        <time>2019-07-26T09:26:14.000Z</time>
      </trkpt>
      <trkpt lat="42.9614629782736301422119140625" lon="-7.70638941787183284759521484375">
        <ele>567.79998779296875</ele>
        <time>2019-07-26T09:26:15.000Z</time>
      </trkpt>
      <trkpt lat="42.96157236211001873016357421875" lon="-7.7067081816494464874267578125">
        <ele>567.4000244140625</ele>
        <time>2019-07-26T09:26:18.000Z</time>
      </trkpt>
      <trkpt lat="42.96160153113305568695068359375" lon="-7.70681798458099365234375">
        <ele>567</ele>
        <time>2019-07-26T09:26:19.000Z</time>
      </trkpt>
      <trkpt lat="42.96162148006260395050048828125" lon="-7.70692686550319194793701171875">
        <ele>566.5999755859375</ele>
        <time>2019-07-26T09:26:20.000Z</time>
      </trkpt>
      <trkpt lat="42.9616346396505832672119140625" lon="-7.70703080110251903533935546875">
        <ele>566.20001220703125</ele>
        <time>2019-07-26T09:26:21.000Z</time>
      </trkpt>
      <trkpt lat="42.96164159663021564483642578125" lon="-7.7072224952280521392822265625">
        <ele>565.4000244140625</ele>
        <time>2019-07-26T09:26:23.000Z</time>
      </trkpt>
      <trkpt lat="42.961641512811183929443359375" lon="-7.70730874501168727874755859375">
        <ele>565</ele>
        <time>2019-07-26T09:26:24.000Z</time>
      </trkpt>
      <trkpt lat="42.96166925691068172454833984375" lon="-7.7075949870049953460693359375">
        <ele>564.79998779296875</ele>
        <time>2019-07-26T09:26:28.000Z</time>
      </trkpt>
      <trkpt lat="42.96168115921318531036376953125" lon="-7.70771828480064868927001953125">
        <ele>564.79998779296875</ele>
        <time>2019-07-26T09:26:30.000Z</time>
      </trkpt>
      <trkpt lat="42.96169540844857692718505859375" lon="-7.707886509597301483154296875">
        <ele>565</ele>
        <time>2019-07-26T09:26:33.000Z</time>
      </trkpt>
      <trkpt lat="42.96169423498213291168212890625" lon="-7.70805917680263519287109375">
        <ele>565.5999755859375</ele>
        <time>2019-07-26T09:26:36.000Z</time>
      </trkpt>
      <trkpt lat="42.9616889543831348419189453125" lon="-7.70823410712182521820068359375">
        <ele>566</ele>
        <time>2019-07-26T09:26:39.000Z</time>
      </trkpt>
      <trkpt lat="42.96169792301952838897705078125" lon="-7.7084157429635524749755859375">
        <ele>566.5999755859375</ele>
        <time>2019-07-26T09:26:42.000Z</time>
      </trkpt>
      <trkpt lat="42.961732037365436553955078125" lon="-7.70860123448073863983154296875">
        <ele>567</ele>
        <time>2019-07-26T09:26:45.000Z</time>
      </trkpt>
      <trkpt lat="42.96174871735274791717529296875" lon="-7.708662338554859161376953125">
        <ele>567</ele>
        <time>2019-07-26T09:26:46.000Z</time>
      </trkpt>
      <trkpt lat="42.961823903024196624755859375" lon="-7.70892393775284290313720703125">
        <ele>567.20001220703125</ele>
        <time>2019-07-26T09:26:50.000Z</time>
      </trkpt>
      <trkpt lat="42.96184393577277660369873046875" lon="-7.708994261920452117919921875">
        <ele>567.20001220703125</ele>
        <time>2019-07-26T09:26:51.000Z</time>
      </trkpt>
      <trkpt lat="42.96188500709831714630126953125" lon="-7.7091406099498271942138671875">
        <ele>567.20001220703125</ele>
        <time>2019-07-26T09:26:53.000Z</time>
      </trkpt>
      <trkpt lat="42.9619786329567432403564453125" lon="-7.7094929851591587066650390625">
        <ele>567</ele>
        <time>2019-07-26T09:26:57.000Z</time>
      </trkpt>
      <trkpt lat="42.96199615113437175750732421875" lon="-7.70959180779755115509033203125">
        <ele>566.79998779296875</ele>
        <time>2019-07-26T09:26:58.000Z</time>
      </trkpt>
      <trkpt lat="42.9619974084198474884033203125" lon="-7.709910906851291656494140625">
        <ele>566.20001220703125</ele>
        <time>2019-07-26T09:27:01.000Z</time>
      </trkpt>
      <trkpt lat="42.9619414173066616058349609375" lon="-7.7101219631731510162353515625">
        <ele>566</ele>
        <time>2019-07-26T09:27:03.000Z</time>
      </trkpt>
      <trkpt lat="42.9619088955223560333251953125" lon="-7.71022732369601726531982421875">
        <ele>566</ele>
        <time>2019-07-26T09:27:04.000Z</time>
      </trkpt>
      <trkpt lat="42.961883582174777984619140625" lon="-7.7104510366916656494140625">
        <ele>565.4000244140625</ele>
        <time>2019-07-26T09:27:06.000Z</time>
      </trkpt>
      <trkpt lat="42.961896993219852447509765625" lon="-7.7105571515858173370361328125">
        <ele>564.79998779296875</ele>
        <time>2019-07-26T09:27:07.000Z</time>
      </trkpt>
      <trkpt lat="42.9619782976806163787841796875" lon="-7.7108304016292095184326171875">
        <ele>563.5999755859375</ele>
        <time>2019-07-26T09:27:10.000Z</time>
      </trkpt>
      <trkpt lat="42.962003611028194427490234375" lon="-7.71090357564389705657958984375">
        <ele>563.20001220703125</ele>
        <time>2019-07-26T09:27:11.000Z</time>
      </trkpt>
      <trkpt lat="42.96202951110899448394775390625" lon="-7.71096677519381046295166015625">
        <ele>562.5999755859375</ele>
        <time>2019-07-26T09:27:12.000Z</time>
      </trkpt>
      <trkpt lat="42.96205515973269939422607421875" lon="-7.71102913655340671539306640625">
        <ele>562.4000244140625</ele>
        <time>2019-07-26T09:27:13.000Z</time>
      </trkpt>
      <trkpt lat="42.9620768688619136810302734375" lon="-7.7110811881721019744873046875">
        <ele>562.20001220703125</ele>
        <time>2019-07-26T09:27:14.000Z</time>
      </trkpt>
      <trkpt lat="42.96209447085857391357421875" lon="-7.71112988702952861785888671875">
        <ele>562.20001220703125</ele>
        <time>2019-07-26T09:27:15.000Z</time>
      </trkpt>
      <trkpt lat="42.962110899388790130615234375" lon="-7.71117749623954296112060546875">
        <ele>562</ele>
        <time>2019-07-26T09:27:16.000Z</time>
      </trkpt>
      <trkpt lat="42.96214082278311252593994140625" lon="-7.71128746680915355682373046875">
        <ele>562</ele>
        <time>2019-07-26T09:27:18.000Z</time>
      </trkpt>
      <trkpt lat="42.962173931300640106201171875" lon="-7.71140632219612598419189453125">
        <ele>562</ele>
        <time>2019-07-26T09:27:20.000Z</time>
      </trkpt>
      <trkpt lat="42.96220050193369388580322265625" lon="-7.7115131914615631103515625">
        <ele>562.20001220703125</ele>
        <time>2019-07-26T09:27:22.000Z</time>
      </trkpt>
      <trkpt lat="42.96222749166190624237060546875" lon="-7.71162089891731739044189453125">
        <ele>562.4000244140625</ele>
        <time>2019-07-26T09:27:24.000Z</time>
      </trkpt>
      <trkpt lat="42.9622706584632396697998046875" lon="-7.7117309533059597015380859375">
        <ele>562.79998779296875</ele>
        <time>2019-07-26T09:27:26.000Z</time>
      </trkpt>
      <trkpt lat="42.9622974805533885955810546875" lon="-7.71178216673433780670166015625">
        <ele>563</ele>
        <time>2019-07-26T09:27:27.000Z</time>
      </trkpt>
      <trkpt lat="42.9623219557106494903564453125" lon="-7.71183463744819164276123046875">
        <ele>563.4000244140625</ele>
        <time>2019-07-26T09:27:28.000Z</time>
      </trkpt>
      <trkpt lat="42.96236897818744182586669921875" lon="-7.7120038680732250213623046875">
        <ele>564.5999755859375</ele>
        <time>2019-07-26T09:27:31.000Z</time>
      </trkpt>
      <trkpt lat="42.9623812995851039886474609375" lon="-7.71205843426287174224853515625">
        <ele>565</ele>
        <time>2019-07-26T09:27:32.000Z</time>
      </trkpt>
      <trkpt lat="42.96242932789027690887451171875" lon="-7.71214778535068035125732421875">
        <ele>565.5999755859375</ele>
        <time>2019-07-26T09:27:34.000Z</time>
      </trkpt>
      <trkpt lat="42.96246101148426532745361328125" lon="-7.71218248642981052398681640625">
        <ele>566</ele>
        <time>2019-07-26T09:27:35.000Z</time>
      </trkpt>
      <trkpt lat="42.96250023879110813140869140625" lon="-7.7122114039957523345947265625">
        <ele>566.20001220703125</ele>
        <time>2019-07-26T09:27:36.000Z</time>
      </trkpt>
      <trkpt lat="42.96253359876573085784912109375" lon="-7.71223244257271289825439453125">
        <ele>566.5999755859375</ele>
        <time>2019-07-26T09:27:37.000Z</time>
      </trkpt>
      <trkpt lat="42.96259403228759765625" lon="-7.71225876174867153167724609375">
        <ele>567.20001220703125</ele>
        <time>2019-07-26T09:27:39.000Z</time>
      </trkpt>
      <trkpt lat="42.9626330919563770294189453125" lon="-7.7122794650495052337646484375">
        <ele>567.5999755859375</ele>
        <time>2019-07-26T09:27:40.000Z</time>
      </trkpt>
      <trkpt lat="42.96270693652331829071044921875" lon="-7.71232296712696552276611328125">
        <ele>568.5999755859375</ele>
        <time>2019-07-26T09:27:42.000Z</time>
      </trkpt>
      <trkpt lat="42.9628359340131282806396484375" lon="-7.71241265349090099334716796875">
        <ele>569.20001220703125</ele>
        <time>2019-07-26T09:27:45.000Z</time>
      </trkpt>
      <trkpt lat="42.9628738202154636383056640625" lon="-7.7124454267323017120361328125">
        <ele>569.20001220703125</ele>
        <time>2019-07-26T09:27:46.000Z</time>
      </trkpt>
      <trkpt lat="42.96294347383081912994384765625" lon="-7.7125108055770397186279296875">
        <ele>569.79998779296875</ele>
        <time>2019-07-26T09:27:48.000Z</time>
      </trkpt>
      <trkpt lat="42.9630367644131183624267578125" lon="-7.71265053190290927886962890625">
        <ele>570.20001220703125</ele>
        <time>2019-07-26T09:27:52.000Z</time>
      </trkpt>
      <trkpt lat="42.96310340054333209991455078125" lon="-7.71282303147017955780029296875">
        <ele>571</ele>
        <time>2019-07-26T09:27:56.000Z</time>
      </trkpt>
      <trkpt lat="42.96311697922646999359130859375" lon="-7.71291892044246196746826171875">
        <ele>571.20001220703125</ele>
        <time>2019-07-26T09:27:58.000Z</time>
      </trkpt>
      <trkpt lat="42.96309904195368289947509765625" lon="-7.7132051624357700347900390625">
        <ele>572</ele>
        <time>2019-07-26T09:28:04.000Z</time>
      </trkpt>
      <trkpt lat="42.963016144931316375732421875" lon="-7.7133865468204021453857421875">
        <ele>572.5999755859375</ele>
        <time>2019-07-26T09:28:09.000Z</time>
      </trkpt>
      <trkpt lat="42.962942384183406829833984375" lon="-7.71355292759835720062255859375">
        <ele>573.20001220703125</ele>
        <time>2019-07-26T09:28:14.000Z</time>
      </trkpt>
      <trkpt lat="42.96291832812130451202392578125" lon="-7.71360824815928936004638671875">
        <ele>573.4000244140625</ele>
        <time>2019-07-26T09:28:16.000Z</time>
      </trkpt>
      <trkpt lat="42.9628635942935943603515625" lon="-7.7136911451816558837890625">
        <ele>574.20001220703125</ele>
        <time>2019-07-26T09:28:20.000Z</time>
      </trkpt>
      <trkpt lat="42.96281305141746997833251953125" lon="-7.71374185569584369659423828125">
        <ele>574.4000244140625</ele>
        <time>2019-07-26T09:28:22.000Z</time>
      </trkpt>
      <trkpt lat="42.9626382887363433837890625" lon="-7.71396012045443058013916015625">
        <ele>574.79998779296875</ele>
        <time>2019-07-26T09:28:28.000Z</time>
      </trkpt>
      <trkpt lat="42.96261808834969997406005859375" lon="-7.7139980904757976531982421875">
        <ele>575</ele>
        <time>2019-07-26T09:28:29.000Z</time>
      </trkpt>
      <trkpt lat="42.96250862069427967071533203125" lon="-7.714136727154254913330078125">
        <ele>575.20001220703125</ele>
        <time>2019-07-26T09:28:33.000Z</time>
      </trkpt>
      <trkpt lat="42.96242094598710536956787109375" lon="-7.71423907019197940826416015625">
        <ele>575.4000244140625</ele>
        <time>2019-07-26T09:28:36.000Z</time>
      </trkpt>
      <trkpt lat="42.9623491130769252777099609375" lon="-7.71435759030282497406005859375">
        <ele>575.4000244140625</ele>
        <time>2019-07-26T09:28:39.000Z</time>
      </trkpt>
      <trkpt lat="42.9623432457447052001953125" lon="-7.7144099771976470947265625">
        <ele>575.4000244140625</ele>
        <time>2019-07-26T09:28:40.000Z</time>
      </trkpt>
      <trkpt lat="42.962340228259563446044921875" lon="-7.71461944095790386199951171875">
        <ele>575.79998779296875</ele>
        <time>2019-07-26T09:28:44.000Z</time>
      </trkpt>
      <trkpt lat="42.9623306728899478912353515625" lon="-7.7147370390594005584716796875">
        <ele>576</ele>
        <time>2019-07-26T09:28:46.000Z</time>
      </trkpt>
      <trkpt lat="42.96232648193836212158203125" lon="-7.71485363133251667022705078125">
        <ele>576.20001220703125</ele>
        <time>2019-07-26T09:28:48.000Z</time>
      </trkpt>
      <trkpt lat="42.9623263143002986907958984375" lon="-7.7152312360703945159912109375">
        <ele>577.4000244140625</ele>
        <time>2019-07-26T09:28:55.000Z</time>
      </trkpt>
      <trkpt lat="42.9623259790241718292236328125" lon="-7.7152838744223117828369140625">
        <ele>577.4000244140625</ele>
        <time>2019-07-26T09:28:56.000Z</time>
      </trkpt>
      <trkpt lat="42.9623165912926197052001953125" lon="-7.71559710614383220672607421875">
        <ele>578.4000244140625</ele>
        <time>2019-07-26T09:29:02.000Z</time>
      </trkpt>
      <trkpt lat="42.9623082093894481658935546875" lon="-7.7157408557832241058349609375">
        <ele>578.79998779296875</ele>
        <time>2019-07-26T09:29:05.000Z</time>
      </trkpt>
      <trkpt lat="42.96229169704020023345947265625" lon="-7.7159420214593410491943359375">
        <ele>579.5999755859375</ele>
        <time>2019-07-26T09:29:09.000Z</time>
      </trkpt>
      <trkpt lat="42.962271831929683685302734375" lon="-7.71619574166834354400634765625">
        <ele>580.20001220703125</ele>
        <time>2019-07-26T09:29:14.000Z</time>
      </trkpt>
      <trkpt lat="42.96226604841649532318115234375" lon="-7.716357596218585968017578125">
        <ele>580.5999755859375</ele>
        <time>2019-07-26T09:29:17.000Z</time>
      </trkpt>
      <trkpt lat="42.96224609948694705963134765625" lon="-7.71658248268067836761474609375">
        <ele>580.79998779296875</ele>
        <time>2019-07-26T09:29:21.000Z</time>
      </trkpt>
      <trkpt lat="42.96219966374337673187255859375" lon="-7.7170802839100360870361328125">
        <ele>581.20001220703125</ele>
        <time>2019-07-26T09:29:29.000Z</time>
      </trkpt>
      <trkpt lat="42.9621596820652484893798828125" lon="-7.71742008626461029052734375">
        <ele>581.5999755859375</ele>
        <time>2019-07-26T09:29:34.000Z</time>
      </trkpt>
      <trkpt lat="42.96213780529797077178955078125" lon="-7.71756283007562160491943359375">
        <ele>581.5999755859375</ele>
        <time>2019-07-26T09:29:36.000Z</time>
      </trkpt>
      <trkpt lat="42.96205968596041202545166015625" lon="-7.71808904595673084259033203125">
        <ele>581.79998779296875</ele>
        <time>2019-07-26T09:29:43.000Z</time>
      </trkpt>
      <trkpt lat="42.9620282538235187530517578125" lon="-7.7182343043386936187744140625">
        <ele>581.5999755859375</ele>
        <time>2019-07-26T09:29:45.000Z</time>
      </trkpt>
      <trkpt lat="42.96194426715373992919921875" lon="-7.71849489770829677581787109375">
        <ele>581.4000244140625</ele>
        <time>2019-07-26T09:29:49.000Z</time>
      </trkpt>
      <trkpt lat="42.96181459911167621612548828125" lon="-7.718889601528644561767578125">
        <ele>581.20001220703125</ele>
        <time>2019-07-26T09:29:55.000Z</time>
      </trkpt>
      <trkpt lat="42.96180688776075839996337890625" lon="-7.718953303992748260498046875">
        <ele>581.20001220703125</ele>
        <time>2019-07-26T09:29:56.000Z</time>
      </trkpt>
      <trkpt lat="42.96177017502486705780029296875" lon="-7.7192795276641845703125">
        <ele>581.20001220703125</ele>
        <time>2019-07-26T09:30:01.000Z</time>
      </trkpt>
      <trkpt lat="42.96171636320650577545166015625" lon="-7.7196196652948856353759765625">
        <ele>581.4000244140625</ele>
        <time>2019-07-26T09:30:06.000Z</time>
      </trkpt>
      <trkpt lat="42.961651571094989776611328125" lon="-7.7201269380748271942138671875">
        <ele>582</ele>
        <time>2019-07-26T09:30:13.000Z</time>
      </trkpt>
      <trkpt lat="42.9616351425647735595703125" lon="-7.7207119949162006378173828125">
        <ele>582.4000244140625</ele>
        <time>2019-07-26T09:30:21.000Z</time>
      </trkpt>
      <trkpt lat="42.961630783975124359130859375" lon="-7.72106395103037357330322265625">
        <ele>582.79998779296875</ele>
        <time>2019-07-26T09:30:26.000Z</time>
      </trkpt>
      <trkpt lat="42.96161393634974956512451171875" lon="-7.7212065272033214569091796875">
        <ele>582.79998779296875</ele>
        <time>2019-07-26T09:30:28.000Z</time>
      </trkpt>
      <trkpt lat="42.961606644093990325927734375" lon="-7.7212826348841190338134765625">
        <ele>582.79998779296875</ele>
        <time>2019-07-26T09:30:29.000Z</time>
      </trkpt>
      <trkpt lat="42.9615759663283824920654296875" lon="-7.72152026183903217315673828125">
        <ele>582.79998779296875</ele>
        <time>2019-07-26T09:30:32.000Z</time>
      </trkpt>
      <trkpt lat="42.96152374707162380218505859375" lon="-7.721772305667400360107421875">
        <ele>582.79998779296875</ele>
        <time>2019-07-26T09:30:35.000Z</time>
      </trkpt>
      <trkpt lat="42.96150698326528072357177734375" lon="-7.7218613214790821075439453125">
        <ele>582.79998779296875</ele>
        <time>2019-07-26T09:30:36.000Z</time>
      </trkpt>
      <trkpt lat="42.961418218910694122314453125" lon="-7.7223102562129497528076171875">
        <ele>582.20001220703125</ele>
        <time>2019-07-26T09:30:41.000Z</time>
      </trkpt>
      <trkpt lat="42.96141184866428375244140625" lon="-7.722405977547168731689453125">
        <ele>582</ele>
        <time>2019-07-26T09:30:42.000Z</time>
      </trkpt>
      <trkpt lat="42.961405813694000244140625" lon="-7.72250211797654628753662109375">
        <ele>582</ele>
        <time>2019-07-26T09:30:43.000Z</time>
      </trkpt>
      <trkpt lat="42.96139977872371673583984375" lon="-7.7225969173014163970947265625">
        <ele>581.79998779296875</ele>
        <time>2019-07-26T09:30:44.000Z</time>
      </trkpt>
      <trkpt lat="42.9614019580185413360595703125" lon="-7.72299597971141338348388671875">
        <ele>581.20001220703125</ele>
        <time>2019-07-26T09:30:48.000Z</time>
      </trkpt>
      <trkpt lat="42.961395084857940673828125" lon="-7.72309505380690097808837890625">
        <ele>581.20001220703125</ele>
        <time>2019-07-26T09:30:49.000Z</time>
      </trkpt>
      <trkpt lat="42.96133632771670818328857421875" lon="-7.7233928628265857696533203125">
        <ele>581.20001220703125</ele>
        <time>2019-07-26T09:30:52.000Z</time>
      </trkpt>
      <trkpt lat="42.96120037324726581573486328125" lon="-7.72365354001522064208984375">
        <ele>580.5999755859375</ele>
        <time>2019-07-26T09:30:55.000Z</time>
      </trkpt>
      <trkpt lat="42.96114538796246051788330078125" lon="-7.723723612725734710693359375">
        <ele>580.4000244140625</ele>
        <time>2019-07-26T09:30:56.000Z</time>
      </trkpt>
      <trkpt lat="42.9610888101160526275634765625" lon="-7.72378589026629924774169921875">
        <ele>580.20001220703125</ele>
        <time>2019-07-26T09:30:57.000Z</time>
      </trkpt>
      <trkpt lat="42.9609825275838375091552734375" lon="-7.72391773760318756103515625">
        <ele>580</ele>
        <time>2019-07-26T09:30:59.000Z</time>
      </trkpt>
      <trkpt lat="42.96093600802123546600341796875" lon="-7.72399359382688999176025390625">
        <ele>580</ele>
        <time>2019-07-26T09:31:00.000Z</time>
      </trkpt>
      <trkpt lat="42.9608531109988689422607421875" lon="-7.72426047362387180328369140625">
        <ele>579.5999755859375</ele>
        <time>2019-07-26T09:31:03.000Z</time>
      </trkpt>
      <trkpt lat="42.9608277976512908935546875" lon="-7.7244382537901401519775390625">
        <ele>579</ele>
        <time>2019-07-26T09:31:05.000Z</time>
      </trkpt>
      <trkpt lat="42.9608088545501232147216796875" lon="-7.7246011979877948760986328125">
        <ele>578.4000244140625</ele>
        <time>2019-07-26T09:31:07.000Z</time>
      </trkpt>
      <trkpt lat="42.96080055646598339080810546875" lon="-7.72467688657343387603759765625">
        <ele>578.20001220703125</ele>
        <time>2019-07-26T09:31:08.000Z</time>
      </trkpt>
      <trkpt lat="42.96076334081590175628662109375" lon="-7.7251463569700717926025390625">
        <ele>578.20001220703125</ele>
        <time>2019-07-26T09:31:15.000Z</time>
      </trkpt>
      <trkpt lat="42.96074205078184604644775390625" lon="-7.72539840079843997955322265625">
        <ele>578.20001220703125</ele>
        <time>2019-07-26T09:31:19.000Z</time>
      </trkpt>
      <trkpt lat="42.96071740798652172088623046875" lon="-7.72558431141078472137451171875">
        <ele>578.4000244140625</ele>
        <time>2019-07-26T09:31:22.000Z</time>
      </trkpt>
      <trkpt lat="42.96067432500422000885009765625" lon="-7.72580592893064022064208984375">
        <ele>579</ele>
        <time>2019-07-26T09:31:26.000Z</time>
      </trkpt>
      <trkpt lat="42.96063342131674289703369140625" lon="-7.72600709460675716400146484375">
        <ele>579.5999755859375</ele>
        <time>2019-07-26T09:31:30.000Z</time>
      </trkpt>
      <trkpt lat="42.96057273633778095245361328125" lon="-7.7262224256992340087890625">
        <ele>580.5999755859375</ele>
        <time>2019-07-26T09:31:35.000Z</time>
      </trkpt>
      <trkpt lat="42.9605617560446262359619140625" lon="-7.72626039572060108184814453125">
        <ele>581</ele>
        <time>2019-07-26T09:31:36.000Z</time>
      </trkpt>
      <trkpt lat="42.96052269637584686279296875" lon="-7.72642367519438266754150390625">
        <ele>581.5999755859375</ele>
        <time>2019-07-26T09:31:40.000Z</time>
      </trkpt>
      <trkpt lat="42.96049310825765132904052734375" lon="-7.7265481464564800262451171875">
        <ele>582.20001220703125</ele>
        <time>2019-07-26T09:31:43.000Z</time>
      </trkpt>
      <trkpt lat="42.960468046367168426513671875" lon="-7.72662651725113391876220703125">
        <ele>583</ele>
        <time>2019-07-26T09:31:45.000Z</time>
      </trkpt>
      <trkpt lat="42.96040602028369903564453125" lon="-7.72682818584144115447998046875">
        <ele>584.20001220703125</ele>
        <time>2019-07-26T09:31:50.000Z</time>
      </trkpt>
      <trkpt lat="42.96035665087401866912841796875" lon="-7.72701459936797618865966796875">
        <ele>585.5999755859375</ele>
        <time>2019-07-26T09:31:55.000Z</time>
      </trkpt>
      <trkpt lat="42.96034156344830989837646484375" lon="-7.727058269083499908447265625">
        <ele>585.79998779296875</ele>
        <time>2019-07-26T09:31:56.000Z</time>
      </trkpt>
      <trkpt lat="42.9603056050837039947509765625" lon="-7.727167569100856781005859375">
        <ele>586.5999755859375</ele>
        <time>2019-07-26T09:31:59.000Z</time>
      </trkpt>
      <trkpt lat="42.96027098782360553741455078125" lon="-7.72728064097464084625244140625">
        <ele>587.5999755859375</ele>
        <time>2019-07-26T09:32:02.000Z</time>
      </trkpt>
      <trkpt lat="42.96026051044464111328125" lon="-7.72731467150151729583740234375">
        <ele>587.79998779296875</ele>
        <time>2019-07-26T09:32:03.000Z</time>
      </trkpt>
      <trkpt lat="42.96019420959055423736572265625" lon="-7.727465294301509857177734375">
        <ele>588.5999755859375</ele>
        <time>2019-07-26T09:32:07.000Z</time>
      </trkpt>
      <trkpt lat="42.9601798765361309051513671875" lon="-7.72750795818865299224853515625">
        <ele>588.79998779296875</ele>
        <time>2019-07-26T09:32:08.000Z</time>
      </trkpt>
      <trkpt lat="42.96017157845199108123779296875" lon="-7.72754902951419353485107421875">
        <ele>589</ele>
        <time>2019-07-26T09:32:09.000Z</time>
      </trkpt>
      <trkpt lat="42.96015665866434574127197265625" lon="-7.72768892347812652587890625">
        <ele>590</ele>
        <time>2019-07-26T09:32:13.000Z</time>
      </trkpt>
      <trkpt lat="42.960140816867351531982421875" lon="-7.72773158736526966094970703125">
        <ele>590.20001220703125</ele>
        <time>2019-07-26T09:32:14.000Z</time>
      </trkpt>
      <trkpt lat="42.96010158956050872802734375" lon="-7.727901153266429901123046875">
        <ele>591</ele>
        <time>2019-07-26T09:32:18.000Z</time>
      </trkpt>
      <trkpt lat="42.96006764285266399383544921875" lon="-7.72809133864939212799072265625">
        <ele>591.79998779296875</ele>
        <time>2019-07-26T09:32:22.000Z</time>
      </trkpt>
      <trkpt lat="42.9600387252867221832275390625" lon="-7.7282523550093173980712890625">
        <ele>592.20001220703125</ele>
        <time>2019-07-26T09:32:25.000Z</time>
      </trkpt>
      <trkpt lat="42.9599703289568424224853515625" lon="-7.72854446433484554290771484375">
        <ele>593.20001220703125</ele>
        <time>2019-07-26T09:32:30.000Z</time>
      </trkpt>
      <trkpt lat="42.95995809137821197509765625" lon="-7.728597857058048248291015625">
        <ele>593.20001220703125</ele>
        <time>2019-07-26T09:32:31.000Z</time>
      </trkpt>
      <trkpt lat="42.95988433063030242919921875" lon="-7.72889331914484500885009765625">
        <ele>593.79998779296875</ele>
        <time>2019-07-26T09:32:37.000Z</time>
      </trkpt>
      <trkpt lat="42.9598476178944110870361328125" lon="-7.728998847305774688720703125">
        <ele>593.79998779296875</ele>
        <time>2019-07-26T09:32:39.000Z</time>
      </trkpt>
      <trkpt lat="42.95974745415151119232177734375" lon="-7.72929682396352291107177734375">
        <ele>594.20001220703125</ele>
        <time>2019-07-26T09:32:44.000Z</time>
      </trkpt>
      <trkpt lat="42.95970303006470203399658203125" lon="-7.72941014729440212249755859375">
        <ele>594.4000244140625</ele>
        <time>2019-07-26T09:32:46.000Z</time>
      </trkpt>
      <trkpt lat="42.95955852605402469635009765625" lon="-7.7297629415988922119140625">
        <ele>594.5999755859375</ele>
        <time>2019-07-26T09:32:52.000Z</time>
      </trkpt>
      <trkpt lat="42.959531284868717193603515625" lon="-7.7298318408429622650146484375">
        <ele>594.5999755859375</ele>
        <time>2019-07-26T09:32:53.000Z</time>
      </trkpt>
      <trkpt lat="42.95950236730277538299560546875" lon="-7.7299045957624912261962890625">
        <ele>594.5999755859375</ele>
        <time>2019-07-26T09:32:54.000Z</time>
      </trkpt>
      <trkpt lat="42.95943950302898883819580078125" lon="-7.73005957715213298797607421875">
        <ele>594.5999755859375</ele>
        <time>2019-07-26T09:32:56.000Z</time>
      </trkpt>
      <trkpt lat="42.95937462709844112396240234375" lon="-7.73022520355880260467529296875">
        <ele>594.5999755859375</ele>
        <time>2019-07-26T09:32:58.000Z</time>
      </trkpt>
      <trkpt lat="42.95934277586638927459716796875" lon="-7.730312459170818328857421875">
        <ele>594.4000244140625</ele>
        <time>2019-07-26T09:32:59.000Z</time>
      </trkpt>
      <trkpt lat="42.9592729546129703521728515625" lon="-7.7304946817457675933837890625">
        <ele>594.20001220703125</ele>
        <time>2019-07-26T09:33:01.000Z</time>
      </trkpt>
      <trkpt lat="42.95923364348709583282470703125" lon="-7.73058478720486164093017578125">
        <ele>594</ele>
        <time>2019-07-26T09:33:02.000Z</time>
      </trkpt>
      <trkpt lat="42.95915720053017139434814453125" lon="-7.7307741343975067138671875">
        <ele>593.79998779296875</ele>
        <time>2019-07-26T09:33:04.000Z</time>
      </trkpt>
      <trkpt lat="42.9590825177729129791259765625" lon="-7.7309739589691162109375">
        <ele>593.20001220703125</ele>
        <time>2019-07-26T09:33:06.000Z</time>
      </trkpt>
      <trkpt lat="42.95904153026640415191650390625" lon="-7.73107429035007953643798828125">
        <ele>592.79998779296875</ele>
        <time>2019-07-26T09:33:07.000Z</time>
      </trkpt>
      <trkpt lat="42.95895704068243503570556640625" lon="-7.73127864114940166473388671875">
        <ele>592.20001220703125</ele>
        <time>2019-07-26T09:33:09.000Z</time>
      </trkpt>
      <trkpt lat="42.9588823579251766204833984375" lon="-7.73149095475673675537109375">
        <ele>591.4000244140625</ele>
        <time>2019-07-26T09:33:11.000Z</time>
      </trkpt>
      <trkpt lat="42.958846986293792724609375" lon="-7.7315953932702541351318359375">
        <ele>591</ele>
        <time>2019-07-26T09:33:12.000Z</time>
      </trkpt>
      <trkpt lat="42.9587249457836151123046875" lon="-7.73192438296973705291748046875">
        <ele>590.20001220703125</ele>
        <time>2019-07-26T09:33:15.000Z</time>
      </trkpt>
      <trkpt lat="42.95868127606809139251708984375" lon="-7.732039801776409149169921875">
        <ele>589.79998779296875</ele>
        <time>2019-07-26T09:33:16.000Z</time>
      </trkpt>
      <trkpt lat="42.95859284698963165283203125" lon="-7.7322770096361637115478515625">
        <ele>588.79998779296875</ele>
        <time>2019-07-26T09:33:18.000Z</time>
      </trkpt>
      <trkpt lat="42.9585105367004871368408203125" lon="-7.7325224317610263824462890625">
        <ele>587.4000244140625</ele>
        <time>2019-07-26T09:33:20.000Z</time>
      </trkpt>
      <trkpt lat="42.95843191444873809814453125" lon="-7.7327789179980754852294921875">
        <ele>586</ele>
        <time>2019-07-26T09:33:22.000Z</time>
      </trkpt>
      <trkpt lat="42.9583928547799587249755859375" lon="-7.73290850222110748291015625">
        <ele>585.5999755859375</ele>
        <time>2019-07-26T09:33:23.000Z</time>
      </trkpt>
      <trkpt lat="42.95830375514924526214599609375" lon="-7.73316926322877407073974609375">
        <ele>584.5999755859375</ele>
        <time>2019-07-26T09:33:25.000Z</time>
      </trkpt>
      <trkpt lat="42.95820702798664569854736328125" lon="-7.73344092071056365966796875">
        <ele>583.20001220703125</ele>
        <time>2019-07-26T09:33:27.000Z</time>
      </trkpt>
      <trkpt lat="42.95810443349182605743408203125" lon="-7.73372448049485683441162109375">
        <ele>582.4000244140625</ele>
        <time>2019-07-26T09:33:29.000Z</time>
      </trkpt>
      <trkpt lat="42.958050705492496490478515625" lon="-7.73386462591588497161865234375">
        <ele>582</ele>
        <time>2019-07-26T09:33:30.000Z</time>
      </trkpt>
      <trkpt lat="42.9578855820000171661376953125" lon="-7.73428455926477909088134765625">
        <ele>580.5999755859375</ele>
        <time>2019-07-26T09:33:33.000Z</time>
      </trkpt>
      <trkpt lat="42.95778659172356128692626953125" lon="-7.73454875685274600982666015625">
        <ele>579.4000244140625</ele>
        <time>2019-07-26T09:33:35.000Z</time>
      </trkpt>
      <trkpt lat="42.95773713849484920501708984375" lon="-7.73468186147511005401611328125">
        <ele>578.5999755859375</ele>
        <time>2019-07-26T09:33:36.000Z</time>
      </trkpt>
      <trkpt lat="42.95768198557198047637939453125" lon="-7.7348137088119983673095703125">
        <ele>577.4000244140625</ele>
        <time>2019-07-26T09:33:37.000Z</time>
      </trkpt>
      <trkpt lat="42.95757830142974853515625" lon="-7.73507145233452320098876953125">
        <ele>576</ele>
        <time>2019-07-26T09:33:39.000Z</time>
      </trkpt>
      <trkpt lat="42.95748182572424411773681640625" lon="-7.7353213168680667877197265625">
        <ele>574.79998779296875</ele>
        <time>2019-07-26T09:33:41.000Z</time>
      </trkpt>
      <trkpt lat="42.95743388123810291290283203125" lon="-7.73544696159660816192626953125">
        <ele>574.4000244140625</ele>
        <time>2019-07-26T09:33:42.000Z</time>
      </trkpt>
      <trkpt lat="42.9573887027800083160400390625" lon="-7.7355704270303249359130859375">
        <ele>573.79998779296875</ele>
        <time>2019-07-26T09:33:43.000Z</time>
      </trkpt>
      <trkpt lat="42.957303710281848907470703125" lon="-7.73581576533615589141845703125">
        <ele>572.5999755859375</ele>
        <time>2019-07-26T09:33:45.000Z</time>
      </trkpt>
      <trkpt lat="42.95716482214629650115966796875" lon="-7.73616864345967769622802734375">
        <ele>571.20001220703125</ele>
        <time>2019-07-26T09:33:48.000Z</time>
      </trkpt>
      <trkpt lat="42.9570869542658329010009765625" lon="-7.736282050609588623046875">
        <ele>570.79998779296875</ele>
        <time>2019-07-26T09:33:49.000Z</time>
      </trkpt>
      <trkpt lat="42.95692442916333675384521484375" lon="-7.73642445914447307586669921875">
        <ele>569.79998779296875</ele>
        <time>2019-07-26T09:33:51.000Z</time>
      </trkpt>
      <trkpt lat="42.95682803727686405181884765625" lon="-7.73646854795515537261962890625">
        <ele>569.4000244140625</ele>
        <time>2019-07-26T09:33:52.000Z</time>
      </trkpt>
      <trkpt lat="42.95673809945583343505859375" lon="-7.73650257848203182220458984375">
        <ele>569</ele>
        <time>2019-07-26T09:33:53.000Z</time>
      </trkpt>
      <trkpt lat="42.956653274595737457275390625" lon="-7.73652956821024417877197265625">
        <ele>568.20001220703125</ele>
        <time>2019-07-26T09:33:54.000Z</time>
      </trkpt>
      <trkpt lat="42.95649292878806591033935546875" lon="-7.73658757098019123077392578125">
        <ele>566.79998779296875</ele>
        <time>2019-07-26T09:33:56.000Z</time>
      </trkpt>
      <trkpt lat="42.95635454356670379638671875" lon="-7.736656554043292999267578125">
        <ele>565.79998779296875</ele>
        <time>2019-07-26T09:33:58.000Z</time>
      </trkpt>
      <trkpt lat="42.95629293657839298248291015625" lon="-7.7366952784359455108642578125">
        <ele>565.5999755859375</ele>
        <time>2019-07-26T09:33:59.000Z</time>
      </trkpt>
      <trkpt lat="42.9561553895473480224609375" lon="-7.73681723512709140777587890625">
        <ele>565.4000244140625</ele>
        <time>2019-07-26T09:34:02.000Z</time>
      </trkpt>
      <trkpt lat="42.955997474491596221923828125" lon="-7.736955620348453521728515625">
        <ele>565.4000244140625</ele>
        <time>2019-07-26T09:34:07.000Z</time>
      </trkpt>
      <trkpt lat="42.9559086263179779052734375" lon="-7.73699979297816753387451171875">
        <ele>566</ele>
        <time>2019-07-26T09:34:10.000Z</time>
      </trkpt>
      <trkpt lat="42.95584584586322307586669921875" lon="-7.7370215021073818206787109375">
        <ele>566.4000244140625</ele>
        <time>2019-07-26T09:34:13.000Z</time>
      </trkpt>
      <trkpt lat="42.95579303987324237823486328125" lon="-7.73703080601990222930908203125">
        <ele>566.5999755859375</ele>
        <time>2019-07-26T09:34:15.000Z</time>
      </trkpt>
      <trkpt lat="42.9556777887046337127685546875" lon="-7.7370841987431049346923828125">
        <ele>567.20001220703125</ele>
        <time>2019-07-26T09:34:19.000Z</time>
      </trkpt>
      <trkpt lat="42.9556323587894439697265625" lon="-7.73718184791505336761474609375">
        <ele>568.20001220703125</ele>
        <time>2019-07-26T09:34:22.000Z</time>
      </trkpt>
      <trkpt lat="42.95562808401882648468017578125" lon="-7.737215459346771240234375">
        <ele>568.4000244140625</ele>
        <time>2019-07-26T09:34:23.000Z</time>
      </trkpt>
      <trkpt lat="42.95561701990664005279541015625" lon="-7.7374120987951755523681640625">
        <ele>569.20001220703125</ele>
        <time>2019-07-26T09:34:29.000Z</time>
      </trkpt>
      <trkpt lat="42.955583073198795318603515625" lon="-7.73753388784825801849365234375">
        <ele>570.20001220703125</ele>
        <time>2019-07-26T09:34:33.000Z</time>
      </trkpt>
      <trkpt lat="42.9555465281009674072265625" lon="-7.73757864721119403839111328125">
        <ele>570.79998779296875</ele>
        <time>2019-07-26T09:34:35.000Z</time>
      </trkpt>
      <trkpt lat="42.95549514703452587127685546875" lon="-7.73760647512972354888916015625">
        <ele>571.4000244140625</ele>
        <time>2019-07-26T09:34:38.000Z</time>
      </trkpt>
      <trkpt lat="42.95543747954070568084716796875" lon="-7.7376508153975009918212890625">
        <ele>572</ele>
        <time>2019-07-26T09:34:41.000Z</time>
      </trkpt>
      <trkpt lat="42.95540294609963893890380859375" lon="-7.73772482760250568389892578125">
        <ele>572.20001220703125</ele>
        <time>2019-07-26T09:34:44.000Z</time>
      </trkpt>
      <trkpt lat="42.95540194027125835418701171875" lon="-7.73778551258146762847900390625">
        <ele>572.4000244140625</ele>
        <time>2019-07-26T09:34:46.000Z</time>
      </trkpt>
      <trkpt lat="42.95540043152868747711181640625" lon="-7.73784770630300045013427734375">
        <ele>572.79998779296875</ele>
        <time>2019-07-26T09:34:48.000Z</time>
      </trkpt>
      <trkpt lat="42.95540043152868747711181640625" lon="-7.7379780448973178863525390625">
        <ele>573.4000244140625</ele>
        <time>2019-07-26T09:34:52.000Z</time>
      </trkpt>
      <trkpt lat="42.95540034770965576171875" lon="-7.738041244447231292724609375">
        <ele>573.79998779296875</ele>
        <time>2019-07-26T09:34:54.000Z</time>
      </trkpt>
      <trkpt lat="42.95538358390331268310546875" lon="-7.738216929137706756591796875">
        <ele>574.5999755859375</ele>
        <time>2019-07-26T09:34:59.000Z</time>
      </trkpt>
      <trkpt lat="42.9553760401904582977294921875" lon="-7.7382489480078220367431640625">
        <ele>574.79998779296875</ele>
        <time>2019-07-26T09:35:00.000Z</time>
      </trkpt>
      <trkpt lat="42.955332957208156585693359375" lon="-7.73839336819946765899658203125">
        <ele>575.5999755859375</ele>
        <time>2019-07-26T09:35:05.000Z</time>
      </trkpt>
      <trkpt lat="42.95531451702117919921875" lon="-7.73844466544687747955322265625">
        <ele>576</ele>
        <time>2019-07-26T09:35:07.000Z</time>
      </trkpt>
      <trkpt lat="42.95525173656642436981201171875" lon="-7.73858900181949138641357421875">
        <ele>576.5999755859375</ele>
        <time>2019-07-26T09:35:12.000Z</time>
      </trkpt>
      <trkpt lat="42.9552219808101654052734375" lon="-7.738643400371074676513671875">
        <ele>577</ele>
        <time>2019-07-26T09:35:14.000Z</time>
      </trkpt>
      <trkpt lat="42.95518367551267147064208984375" lon="-7.7387240342795848846435546875">
        <ele>577.79998779296875</ele>
        <time>2019-07-26T09:35:17.000Z</time>
      </trkpt>
      <trkpt lat="42.955153919756412506103515625" lon="-7.73878212086856365203857421875">
        <ele>578.20001220703125</ele>
        <time>2019-07-26T09:35:20.000Z</time>
      </trkpt>
      <trkpt lat="42.955110333859920501708984375" lon="-7.73882905952632427215576171875">
        <ele>579</ele>
        <time>2019-07-26T09:35:23.000Z</time>
      </trkpt>
      <trkpt lat="42.95507244765758514404296875" lon="-7.738867364823818206787109375">
        <ele>579.5999755859375</ele>
        <time>2019-07-26T09:35:27.000Z</time>
      </trkpt>
      <trkpt lat="42.9550716094672679901123046875" lon="-7.7388655208051204681396484375">
        <ele>579.79998779296875</ele>
        <time>2019-07-26T09:35:28.000Z</time>
      </trkpt>
      <trkpt lat="42.95509952120482921600341796875" lon="-7.73893651552498340606689453125">
        <ele>580.4000244140625</ele>
        <time>2019-07-26T09:36:02.000Z</time>
      </trkpt>
      <trkpt lat="42.95510337688028812408447265625" lon="-7.738955877721309661865234375">
        <ele>580.4000244140625</ele>
        <time>2019-07-26T09:36:03.000Z</time>
      </trkpt>
      <trkpt lat="42.9551115073263645172119140625" lon="-7.7390013076364994049072265625">
        <ele>580.4000244140625</ele>
        <time>2019-07-26T09:36:05.000Z</time>
      </trkpt>
      <trkpt lat="42.95514193363487720489501953125" lon="-7.7390992082655429840087890625">
        <ele>580.4000244140625</ele>
        <time>2019-07-26T09:36:09.000Z</time>
      </trkpt>
      <trkpt lat="42.95514411292970180511474609375" lon="-7.73914841003715991973876953125">
        <ele>580.4000244140625</ele>
        <time>2019-07-26T09:36:11.000Z</time>
      </trkpt>
      <trkpt lat="42.95514713041484355926513671875" lon="-7.73929844610393047332763671875">
        <ele>580.79998779296875</ele>
        <time>2019-07-26T09:36:17.000Z</time>
      </trkpt>
      <trkpt lat="42.955137826502323150634765625" lon="-7.73933465592563152313232421875">
        <ele>581</ele>
        <time>2019-07-26T09:36:21.000Z</time>
      </trkpt>
      <trkpt lat="42.95515819452702999114990234375" lon="-7.7394483983516693115234375">
        <ele>581.4000244140625</ele>
        <time>2019-07-26T09:36:56.000Z</time>
      </trkpt>
      <trkpt lat="42.9551721923053264617919921875" lon="-7.73957186378538608551025390625">
        <ele>581.4000244140625</ele>
        <time>2019-07-26T09:37:00.000Z</time>
      </trkpt>
      <trkpt lat="42.95516925863921642303466796875" lon="-7.73964210413396358489990234375">
        <ele>581.4000244140625</ele>
        <time>2019-07-26T09:37:02.000Z</time>
      </trkpt>
      <trkpt lat="42.95516439713537693023681640625" lon="-7.7397526614367961883544921875">
        <ele>581.4000244140625</ele>
        <time>2019-07-26T09:37:05.000Z</time>
      </trkpt>
      <trkpt lat="42.95515802688896656036376953125" lon="-7.7398254163563251495361328125">
        <ele>581.4000244140625</ele>
        <time>2019-07-26T09:37:07.000Z</time>
      </trkpt>
      <trkpt lat="42.9551480524241924285888671875" lon="-7.73989565670490264892578125">
        <ele>581.5999755859375</ele>
        <time>2019-07-26T09:37:09.000Z</time>
      </trkpt>
      <trkpt lat="42.9551388323307037353515625" lon="-7.73993245325982570648193359375">
        <ele>581.5999755859375</ele>
        <time>2019-07-26T09:37:10.000Z</time>
      </trkpt>
      <trkpt lat="42.95510404743254184722900390625" lon="-7.7400477044284343719482421875">
        <ele>582.20001220703125</ele>
        <time>2019-07-26T09:37:13.000Z</time>
      </trkpt>
      <trkpt lat="42.9550917260348796844482421875" lon="-7.7400894463062286376953125">
        <ele>582.5999755859375</ele>
        <time>2019-07-26T09:37:14.000Z</time>
      </trkpt>
      <trkpt lat="42.9550288617610931396484375" lon="-7.74029958061873912811279296875">
        <ele>583.5999755859375</ele>
        <time>2019-07-26T09:37:19.000Z</time>
      </trkpt>
      <trkpt lat="42.9549153707921504974365234375" lon="-7.74061272852122783660888671875">
        <ele>584.5999755859375</ele>
        <time>2019-07-26T09:37:27.000Z</time>
      </trkpt>
      <trkpt lat="42.95489097945392131805419921875" lon="-7.74064709432423114776611328125">
        <ele>584.5999755859375</ele>
        <time>2019-07-26T09:37:28.000Z</time>
      </trkpt>
      <trkpt lat="42.95472820289433002471923828125" lon="-7.74085110984742641448974609375">
        <ele>585.20001220703125</ele>
        <time>2019-07-26T09:37:34.000Z</time>
      </trkpt>
      <trkpt lat="42.95454028062522411346435546875" lon="-7.7411199174821376800537109375">
        <ele>585.5999755859375</ele>
        <time>2019-07-26T09:37:40.000Z</time>
      </trkpt>
      <trkpt lat="42.95451396144926548004150390625" lon="-7.74117163382470607757568359375">
        <ele>585.5999755859375</ele>
        <time>2019-07-26T09:37:41.000Z</time>
      </trkpt>
      <trkpt lat="42.9543990455567836761474609375" lon="-7.7414900623261928558349609375">
        <ele>586.20001220703125</ele>
        <time>2019-07-26T09:37:47.000Z</time>
      </trkpt>
      <trkpt lat="42.95438446104526519775390625" lon="-7.741541527211666107177734375">
        <ele>586.4000244140625</ele>
        <time>2019-07-26T09:37:48.000Z</time>
      </trkpt>
      <trkpt lat="42.954249680042266845703125" lon="-7.7418984286487102508544921875">
        <ele>587</ele>
        <time>2019-07-26T09:37:55.000Z</time>
      </trkpt>
      <trkpt lat="42.95407709665596485137939453125" lon="-7.74219162762165069580078125">
        <ele>587.4000244140625</ele>
        <time>2019-07-26T09:38:02.000Z</time>
      </trkpt>
      <trkpt lat="42.9538927786052227020263671875" lon="-7.7424647100269794464111328125">
        <ele>587.5999755859375</ele>
        <time>2019-07-26T09:38:09.000Z</time>
      </trkpt>
      <trkpt lat="42.95375120826065540313720703125" lon="-7.74259856902062892913818359375">
        <ele>587.5999755859375</ele>
        <time>2019-07-26T09:38:13.000Z</time>
      </trkpt>
      <trkpt lat="42.95365490019321441650390625" lon="-7.74267484433948993682861328125">
        <ele>587.79998779296875</ele>
        <time>2019-07-26T09:38:15.000Z</time>
      </trkpt>
      <trkpt lat="42.95355423353612422943115234375" lon="-7.74276905693113803863525390625">
        <ele>588</ele>
        <time>2019-07-26T09:38:17.000Z</time>
      </trkpt>
      <trkpt lat="42.95337988995015621185302734375" lon="-7.7429299056529998779296875">
        <ele>588.4000244140625</ele>
        <time>2019-07-26T09:38:20.000Z</time>
      </trkpt>
      <trkpt lat="42.9533238150179386138916015625" lon="-7.7429862320423126220703125">
        <ele>588.4000244140625</ele>
        <time>2019-07-26T09:38:21.000Z</time>
      </trkpt>
      <trkpt lat="42.9531357251107692718505859375" lon="-7.74322570301592350006103515625">
        <ele>588.4000244140625</ele>
        <time>2019-07-26T09:38:25.000Z</time>
      </trkpt>
      <trkpt lat="42.95309373177587985992431640625" lon="-7.74329401552677154541015625">
        <ele>588.4000244140625</ele>
        <time>2019-07-26T09:38:26.000Z</time>
      </trkpt>
      <trkpt lat="42.9528319649398326873779296875" lon="-7.74373029358685016632080078125">
        <ele>588</ele>
        <time>2019-07-26T09:38:32.000Z</time>
      </trkpt>
      <trkpt lat="42.9525761492550373077392578125" lon="-7.74415123276412487030029296875">
        <ele>586.5999755859375</ele>
        <time>2019-07-26T09:38:38.000Z</time>
      </trkpt>
      <trkpt lat="42.9525424540042877197265625" lon="-7.744229100644588470458984375">
        <ele>586.20001220703125</ele>
        <time>2019-07-26T09:38:39.000Z</time>
      </trkpt>
      <trkpt lat="42.9523991234600543975830078125" lon="-7.7445553243160247802734375">
        <ele>585.5999755859375</ele>
        <time>2019-07-26T09:38:43.000Z</time>
      </trkpt>
      <trkpt lat="42.9523064196109771728515625" lon="-7.74478440172970294952392578125">
        <ele>585.4000244140625</ele>
        <time>2019-07-26T09:38:46.000Z</time>
      </trkpt>
      <trkpt lat="42.95218898914754390716552734375" lon="-7.74506083689630031585693359375">
        <ele>585.20001220703125</ele>
        <time>2019-07-26T09:38:50.000Z</time>
      </trkpt>
      <trkpt lat="42.95212964527308940887451171875" lon="-7.74518237449228763580322265625">
        <ele>585.20001220703125</ele>
        <time>2019-07-26T09:38:52.000Z</time>
      </trkpt>
      <trkpt lat="42.95196804217994213104248046875" lon="-7.74556878022849559783935546875">
        <ele>585.5999755859375</ele>
        <time>2019-07-26T09:38:58.000Z</time>
      </trkpt>
      <trkpt lat="42.9518958739936351776123046875" lon="-7.74589265696704387664794921875">
        <ele>585.79998779296875</ele>
        <time>2019-07-26T09:39:03.000Z</time>
      </trkpt>
      <trkpt lat="42.951847426593303680419921875" lon="-7.7461619675159454345703125">
        <ele>586</ele>
        <time>2019-07-26T09:39:08.000Z</time>
      </trkpt>
      <trkpt lat="42.95173318125307559967041015625" lon="-7.7463998459279537200927734375">
        <ele>586.20001220703125</ele>
        <time>2019-07-26T09:39:14.000Z</time>
      </trkpt>
      <trkpt lat="42.95159555040299892425537109375" lon="-7.7465158514678478240966796875">
        <ele>586.20001220703125</ele>
        <time>2019-07-26T09:39:17.000Z</time>
      </trkpt>
      <trkpt lat="42.95148004777729511260986328125" lon="-7.74659120477735996246337890625">
        <ele>586.20001220703125</ele>
        <time>2019-07-26T09:39:19.000Z</time>
      </trkpt>
      <trkpt lat="42.95142170973122119903564453125" lon="-7.74663495831191539764404296875">
        <ele>586.20001220703125</ele>
        <time>2019-07-26T09:39:20.000Z</time>
      </trkpt>
      <trkpt lat="42.95136203058063983917236328125" lon="-7.74668809957802295684814453125">
        <ele>586.20001220703125</ele>
        <time>2019-07-26T09:39:21.000Z</time>
      </trkpt>
      <trkpt lat="42.95124803669750690460205078125" lon="-7.746816761791706085205078125">
        <ele>586.20001220703125</ele>
        <time>2019-07-26T09:39:23.000Z</time>
      </trkpt>
      <trkpt lat="42.951114512979984283447265625" lon="-7.7470506168901920318603515625">
        <ele>585.5999755859375</ele>
        <time>2019-07-26T09:39:26.000Z</time>
      </trkpt>
      <trkpt lat="42.95102633535861968994140625" lon="-7.74720693938434123992919921875">
        <ele>585.20001220703125</ele>
        <time>2019-07-26T09:39:28.000Z</time>
      </trkpt>
      <trkpt lat="42.950868420302867889404296875" lon="-7.747515477240085601806640625">
        <ele>584.5999755859375</ele>
        <time>2019-07-26T09:39:32.000Z</time>
      </trkpt>
      <trkpt lat="42.95080480165779590606689453125" lon="-7.74767833761870861053466796875">
        <ele>584.20001220703125</ele>
        <time>2019-07-26T09:39:34.000Z</time>
      </trkpt>
      <trkpt lat="42.95077026821672916412353515625" lon="-7.74786123074591159820556640625">
        <ele>583.79998779296875</ele>
        <time>2019-07-26T09:39:36.000Z</time>
      </trkpt>
      <trkpt lat="42.95073405839502811431884765625" lon="-7.74805602617561817169189453125">
        <ele>583.5999755859375</ele>
        <time>2019-07-26T09:39:38.000Z</time>
      </trkpt>
      <trkpt lat="42.95071980915963649749755859375" lon="-7.74814839474856853485107421875">
        <ele>583.4000244140625</ele>
        <time>2019-07-26T09:39:39.000Z</time>
      </trkpt>
      <trkpt lat="42.9506675899028778076171875" lon="-7.74842164479196071624755859375">
        <ele>582.4000244140625</ele>
        <time>2019-07-26T09:39:42.000Z</time>
      </trkpt>
      <trkpt lat="42.950641773641109466552734375" lon="-7.74850965477526187896728515625">
        <ele>582</ele>
        <time>2019-07-26T09:39:43.000Z</time>
      </trkpt>
      <trkpt lat="42.9505832679569721221923828125" lon="-7.74867720901966094970703125">
        <ele>581.5999755859375</ele>
        <time>2019-07-26T09:39:45.000Z</time>
      </trkpt>
      <trkpt lat="42.9505497403442859649658203125" lon="-7.748750634491443634033203125">
        <ele>581.20001220703125</ele>
        <time>2019-07-26T09:39:46.000Z</time>
      </trkpt>
      <trkpt lat="42.9504766501486301422119140625" lon="-7.74899681098759174346923828125">
        <ele>581</ele>
        <time>2019-07-26T09:39:49.000Z</time>
      </trkpt>
      <trkpt lat="42.950470447540283203125" lon="-7.74931951425969600677490234375">
        <ele>580.20001220703125</ele>
        <time>2019-07-26T09:39:53.000Z</time>
      </trkpt>
      <trkpt lat="42.95047773979604244232177734375" lon="-7.74939411319792270660400390625">
        <ele>580.20001220703125</ele>
        <time>2019-07-26T09:39:54.000Z</time>
      </trkpt>
      <trkpt lat="42.950537167489528656005859375" lon="-7.74972100742161273956298828125">
        <ele>580.20001220703125</ele>
        <time>2019-07-26T09:39:59.000Z</time>
      </trkpt>
      <trkpt lat="42.95060849748551845550537109375" lon="-7.75003985501825809478759765625">
        <ele>580.5999755859375</ele>
        <time>2019-07-26T09:40:04.000Z</time>
      </trkpt>
      <trkpt lat="42.95064185746014118194580078125" lon="-7.75019039399921894073486328125">
        <ele>581</ele>
        <time>2019-07-26T09:40:06.000Z</time>
      </trkpt>
      <trkpt lat="42.95075752772390842437744140625" lon="-7.75063379667699337005615234375">
        <ele>581.20001220703125</ele>
        <time>2019-07-26T09:40:11.000Z</time>
      </trkpt>
      <trkpt lat="42.95087420381605625152587890625" lon="-7.7509230561554431915283203125">
        <ele>581.20001220703125</ele>
        <time>2019-07-26T09:40:14.000Z</time>
      </trkpt>
      <trkpt lat="42.95098006725311279296875" lon="-7.75110553018748760223388671875">
        <ele>581</ele>
        <time>2019-07-26T09:40:16.000Z</time>
      </trkpt>
      <trkpt lat="42.95109934173524379730224609375" lon="-7.75128758512437343597412109375">
        <ele>580.4000244140625</ele>
        <time>2019-07-26T09:40:18.000Z</time>
      </trkpt>
      <trkpt lat="42.95122255571186542510986328125" lon="-7.7514641918241977691650390625">
        <ele>579.20001220703125</ele>
        <time>2019-07-26T09:40:20.000Z</time>
      </trkpt>
      <trkpt lat="42.95134057290852069854736328125" lon="-7.751629650592803955078125">
        <ele>578.20001220703125</ele>
        <time>2019-07-26T09:40:22.000Z</time>
      </trkpt>
      <trkpt lat="42.95140092261135578155517578125" lon="-7.7517159841954708099365234375">
        <ele>577.5999755859375</ele>
        <time>2019-07-26T09:40:23.000Z</time>
      </trkpt>
      <trkpt lat="42.95152598060667514801025390625" lon="-7.7518779225647449493408203125">
        <ele>576.4000244140625</ele>
        <time>2019-07-26T09:40:25.000Z</time>
      </trkpt>
      <trkpt lat="42.9516712389886379241943359375" lon="-7.7519957721233367919921875">
        <ele>575.4000244140625</ele>
        <time>2019-07-26T09:40:27.000Z</time>
      </trkpt>
      <trkpt lat="42.95175078324973583221435546875" lon="-7.75204212404787540435791015625">
        <ele>574.79998779296875</ele>
        <time>2019-07-26T09:40:28.000Z</time>
      </trkpt>
      <trkpt lat="42.95183158479630947113037109375" lon="-7.7520854584872722625732421875">
        <ele>574.4000244140625</ele>
        <time>2019-07-26T09:40:29.000Z</time>
      </trkpt>
      <trkpt lat="42.95191976241767406463623046875" lon="-7.75212041102349758148193359375">
        <ele>574</ele>
        <time>2019-07-26T09:40:30.000Z</time>
      </trkpt>
      <trkpt lat="42.95201397500932216644287109375" lon="-7.7521419525146484375">
        <ele>573.5999755859375</ele>
        <time>2019-07-26T09:40:31.000Z</time>
      </trkpt>
      <trkpt lat="42.95219720341265201568603515625" lon="-7.752172462642192840576171875">
        <ele>572.79998779296875</ele>
        <time>2019-07-26T09:40:33.000Z</time>
      </trkpt>
      <trkpt lat="42.95238445512950420379638671875" lon="-7.75229224003851413726806640625">
        <ele>571.4000244140625</ele>
        <time>2019-07-26T09:40:36.000Z</time>
      </trkpt>
      <trkpt lat="42.95243575237691402435302734375" lon="-7.75242500938475131988525390625">
        <ele>569.79998779296875</ele>
        <time>2019-07-26T09:40:38.000Z</time>
      </trkpt>
      <trkpt lat="42.95241261832416057586669921875" lon="-7.75256565771996974945068359375">
        <ele>568.4000244140625</ele>
        <time>2019-07-26T09:40:40.000Z</time>
      </trkpt>
      <trkpt lat="42.952396608889102935791015625" lon="-7.7526395022869110107421875">
        <ele>567.5999755859375</ele>
        <time>2019-07-26T09:40:41.000Z</time>
      </trkpt>
      <trkpt lat="42.952384538948535919189453125" lon="-7.7527077309787273406982421875">
        <ele>566.5999755859375</ele>
        <time>2019-07-26T09:40:42.000Z</time>
      </trkpt>
      <trkpt lat="42.95237171463668346405029296875" lon="-7.7528210543096065521240234375">
        <ele>565.20001220703125</ele>
        <time>2019-07-26T09:40:44.000Z</time>
      </trkpt>
      <trkpt lat="42.95236601494252681732177734375" lon="-7.75286874733865261077880859375">
        <ele>564.79998779296875</ele>
        <time>2019-07-26T09:40:45.000Z</time>
      </trkpt>
      <trkpt lat="42.95232578180730342864990234375" lon="-7.7529876865446567535400390625">
        <ele>564.5999755859375</ele>
        <time>2019-07-26T09:40:48.000Z</time>
      </trkpt>
      <trkpt lat="42.95231304131448268890380859375" lon="-7.753019034862518310546875">
        <ele>564.4000244140625</ele>
        <time>2019-07-26T09:40:49.000Z</time>
      </trkpt>
      <trkpt lat="42.95230097137391567230224609375" lon="-7.75305189192295074462890625">
        <ele>564.4000244140625</ele>
        <time>2019-07-26T09:40:50.000Z</time>
      </trkpt>
      <trkpt lat="42.9522596485912799835205078125" lon="-7.75310897268354892730712890625">
        <ele>564.4000244140625</ele>
        <time>2019-07-26T09:40:52.000Z</time>
      </trkpt>
      <trkpt lat="42.95219887979328632354736328125" lon="-7.75316588580608367919921875">
        <ele>564.79998779296875</ele>
        <time>2019-07-26T09:40:54.000Z</time>
      </trkpt>
      <trkpt lat="42.95204649679362773895263671875" lon="-7.7533905208110809326171875">
        <ele>566</ele>
        <time>2019-07-26T09:41:01.000Z</time>
      </trkpt>
      <trkpt lat="42.95190853066742420196533203125" lon="-7.75349554605782032012939453125">
        <ele>566.20001220703125</ele>
        <time>2019-07-26T09:41:05.000Z</time>
      </trkpt>
      <trkpt lat="42.95186184346675872802734375" lon="-7.75352354161441326141357421875">
        <ele>566.4000244140625</ele>
        <time>2019-07-26T09:41:06.000Z</time>
      </trkpt>
      <trkpt lat="42.95173846185207366943359375" lon="-7.75359638035297393798828125">
        <ele>566.79998779296875</ele>
        <time>2019-07-26T09:41:09.000Z</time>
      </trkpt>
      <trkpt lat="42.95161214657127857208251953125" lon="-7.75369805283844470977783203125">
        <ele>567.20001220703125</ele>
        <time>2019-07-26T09:41:13.000Z</time>
      </trkpt>
      <trkpt lat="42.95158197171986103057861328125" lon="-7.75372068397700786590576171875">
        <ele>567.20001220703125</ele>
        <time>2019-07-26T09:41:14.000Z</time>
      </trkpt>
      <trkpt lat="42.95145976357161998748779296875" lon="-7.753868289291858673095703125">
        <ele>568</ele>
        <time>2019-07-26T09:41:19.000Z</time>
      </trkpt>
      <trkpt lat="42.9514281637966632843017578125" lon="-7.75396107695996761322021484375">
        <ele>568.4000244140625</ele>
        <time>2019-07-26T09:41:21.000Z</time>
      </trkpt>
      <trkpt lat="42.9514080472290515899658203125" lon="-7.75416961871087551116943359375">
        <ele>569</ele>
        <time>2019-07-26T09:41:25.000Z</time>
      </trkpt>
      <trkpt lat="42.95140544883906841278076171875" lon="-7.754318900406360626220703125">
        <ele>569.4000244140625</ele>
        <time>2019-07-26T09:41:28.000Z</time>
      </trkpt>
      <trkpt lat="42.95142975635826587677001953125" lon="-7.75444504804909229278564453125">
        <ele>570</ele>
        <time>2019-07-26T09:41:31.000Z</time>
      </trkpt>
      <trkpt lat="42.9514942131936550140380859375" lon="-7.75459558703005313873291015625">
        <ele>570.4000244140625</ele>
        <time>2019-07-26T09:41:36.000Z</time>
      </trkpt>
      <trkpt lat="42.9516038484871387481689453125" lon="-7.75471997447311878204345703125">
        <ele>571.4000244140625</ele>
        <time>2019-07-26T09:41:43.000Z</time>
      </trkpt>
      <trkpt lat="42.95162052847445011138916015625" lon="-7.75473296642303466796875">
        <ele>571.5999755859375</ele>
        <time>2019-07-26T09:41:44.000Z</time>
      </trkpt>
      <trkpt lat="42.9516709037125110626220703125" lon="-7.75476515293121337890625">
        <ele>572.79998779296875</ele>
        <time>2019-07-26T09:41:47.000Z</time>
      </trkpt>
      <trkpt lat="42.9517376236617565155029296875" lon="-7.75481410324573516845703125">
        <ele>573.79998779296875</ele>
        <time>2019-07-26T09:41:51.000Z</time>
      </trkpt>
      <trkpt lat="42.95180576853454113006591796875" lon="-7.75486615486443042755126953125">
        <ele>574.79998779296875</ele>
        <time>2019-07-26T09:41:55.000Z</time>
      </trkpt>
      <trkpt lat="42.95185572467744350433349609375" lon="-7.75490370579063892364501953125">
        <ele>575.5999755859375</ele>
        <time>2019-07-26T09:41:58.000Z</time>
      </trkpt>
      <trkpt lat="42.9518941976130008697509765625" lon="-7.75491946376860141754150390625">
        <ele>576.20001220703125</ele>
        <time>2019-07-26T09:42:00.000Z</time>
      </trkpt>
      <trkpt lat="42.95197340659797191619873046875" lon="-7.754958607256412506103515625">
        <ele>577.20001220703125</ele>
        <time>2019-07-26T09:42:04.000Z</time>
      </trkpt>
      <trkpt lat="42.95201162807643413543701171875" lon="-7.7549837529659271240234375">
        <ele>577.79998779296875</ele>
        <time>2019-07-26T09:42:06.000Z</time>
      </trkpt>
      <trkpt lat="42.95206912793219089508056640625" lon="-7.7550171129405498504638671875">
        <ele>578.4000244140625</ele>
        <time>2019-07-26T09:42:09.000Z</time>
      </trkpt>
      <trkpt lat="42.952146492898464202880859375" lon="-7.755061872303485870361328125">
        <ele>579.4000244140625</ele>
        <time>2019-07-26T09:42:13.000Z</time>
      </trkpt>
      <trkpt lat="42.9521654359996318817138671875" lon="-7.75507100857794284820556640625">
        <ele>579.5999755859375</ele>
        <time>2019-07-26T09:42:14.000Z</time>
      </trkpt>
      <trkpt lat="42.95227549038827419281005859375" lon="-7.75513487868010997772216796875">
        <ele>580.5999755859375</ele>
        <time>2019-07-26T09:42:20.000Z</time>
      </trkpt>
      <trkpt lat="42.95231304131448268890380859375" lon="-7.75515474379062652587890625">
        <ele>580.79998779296875</ele>
        <time>2019-07-26T09:42:22.000Z</time>
      </trkpt>
      <trkpt lat="42.95240633189678192138671875" lon="-7.7552226372063159942626953125">
        <ele>581.5999755859375</ele>
        <time>2019-07-26T09:42:27.000Z</time>
      </trkpt>
      <trkpt lat="42.952444888651371002197265625" lon="-7.75524451397359371185302734375">
        <ele>582</ele>
        <time>2019-07-26T09:42:29.000Z</time>
      </trkpt>
      <trkpt lat="42.95249945484101772308349609375" lon="-7.75527770631015300750732421875">
        <ele>582.79998779296875</ele>
        <time>2019-07-26T09:42:32.000Z</time>
      </trkpt>
      <trkpt lat="42.95260322280228137969970703125" lon="-7.75531425140798091888427734375">
        <ele>583.79998779296875</ele>
        <time>2019-07-26T09:42:37.000Z</time>
      </trkpt>
      <trkpt lat="42.9526240937411785125732421875" lon="-7.7553161792457103729248046875">
        <ele>584.4000244140625</ele>
        <time>2019-07-26T09:42:38.000Z</time>
      </trkpt>
      <trkpt lat="42.95268318615853786468505859375" lon="-7.75532699190080165863037109375">
        <ele>585.20001220703125</ele>
        <time>2019-07-26T09:42:41.000Z</time>
      </trkpt>
      <trkpt lat="42.95275560580193996429443359375" lon="-7.75532774627208709716796875">
        <ele>586.4000244140625</ele>
        <time>2019-07-26T09:42:45.000Z</time>
      </trkpt>
      <trkpt lat="42.952772788703441619873046875" lon="-7.75532506406307220458984375">
        <ele>586.5999755859375</ele>
        <time>2019-07-26T09:42:46.000Z</time>
      </trkpt>
      <trkpt lat="42.95283406041562557220458984375" lon="-7.75532213039696216583251953125">
        <ele>587.4000244140625</ele>
        <time>2019-07-26T09:42:49.000Z</time>
      </trkpt>
      <trkpt lat="42.95292022638022899627685546875" lon="-7.75532632134854793548583984375">
        <ele>588.79998779296875</ele>
        <time>2019-07-26T09:42:53.000Z</time>
      </trkpt>
      <trkpt lat="42.9530207253992557525634765625" lon="-7.7553621120750904083251953125">
        <ele>590</ele>
        <time>2019-07-26T09:42:58.000Z</time>
      </trkpt>
      <trkpt lat="42.95306154526770114898681640625" lon="-7.75538298301398754119873046875">
        <ele>590.4000244140625</ele>
        <time>2019-07-26T09:43:00.000Z</time>
      </trkpt>
      <trkpt lat="42.95311619527637958526611328125" lon="-7.75543260388076305389404296875">
        <ele>591</ele>
        <time>2019-07-26T09:43:03.000Z</time>
      </trkpt>
      <trkpt lat="42.95315676368772983551025390625" lon="-7.755489014089107513427734375">
        <ele>591.5999755859375</ele>
        <time>2019-07-26T09:43:06.000Z</time>
      </trkpt>
      <trkpt lat="42.9531776346266269683837890625" lon="-7.75552354753017425537109375">
        <ele>592.20001220703125</ele>
        <time>2019-07-26T09:43:08.000Z</time>
      </trkpt>
      <trkpt lat="42.95322247780859470367431640625" lon="-7.755591608583927154541015625">
        <ele>592.5999755859375</ele>
        <time>2019-07-26T09:43:11.000Z</time>
      </trkpt>
      <trkpt lat="42.953251563012599945068359375" lon="-7.7556551434099674224853515625">
        <ele>592.79998779296875</ele>
        <time>2019-07-26T09:43:13.000Z</time>
      </trkpt>
      <trkpt lat="42.953299842774868011474609375" lon="-7.75578833185136318206787109375">
        <ele>593.20001220703125</ele>
        <time>2019-07-26T09:43:17.000Z</time>
      </trkpt>
      <trkpt lat="42.95333730988204479217529296875" lon="-7.75588296353816986083984375">
        <ele>593.4000244140625</ele>
        <time>2019-07-26T09:43:20.000Z</time>
      </trkpt>
      <trkpt lat="42.95334988273680210113525390625" lon="-7.7559173293411731719970703125">
        <ele>593.4000244140625</ele>
        <time>2019-07-26T09:43:21.000Z</time>
      </trkpt>
      <trkpt lat="42.9534143395721912384033203125" lon="-7.7560397051274776458740234375">
        <ele>593.79998779296875</ele>
        <time>2019-07-26T09:43:25.000Z</time>
      </trkpt>
      <trkpt lat="42.953455410897731781005859375" lon="-7.7561365999281406402587890625">
        <ele>594</ele>
        <time>2019-07-26T09:43:28.000Z</time>
      </trkpt>
      <trkpt lat="42.95347175560891628265380859375" lon="-7.75620072148740291595458984375">
        <ele>594.20001220703125</ele>
        <time>2019-07-26T09:43:30.000Z</time>
      </trkpt>
      <trkpt lat="42.95352254994213581085205078125" lon="-7.7563753165304660797119140625">
        <ele>595.5999755859375</ele>
        <time>2019-07-26T09:43:36.000Z</time>
      </trkpt>
      <trkpt lat="42.953521795570850372314453125" lon="-7.75650984607636928558349609375">
        <ele>596.4000244140625</ele>
        <time>2019-07-26T09:43:41.000Z</time>
      </trkpt>
      <trkpt lat="42.95351567678153514862060546875" lon="-7.75653599761426448822021484375">
        <ele>596.5999755859375</ele>
        <time>2019-07-26T09:43:42.000Z</time>
      </trkpt>
      <trkpt lat="42.9534894414246082305908203125" lon="-7.75666340254247188568115234375">
        <ele>597.79998779296875</ele>
        <time>2019-07-26T09:43:48.000Z</time>
      </trkpt>
      <trkpt lat="42.9534824006259441375732421875" lon="-7.7566804178059101104736328125">
        <ele>598</ele>
        <time>2019-07-26T09:43:49.000Z</time>
      </trkpt>
      <trkpt lat="42.95346437953412532806396484375" lon="-7.7567459642887115478515625">
        <ele>599.20001220703125</ele>
        <time>2019-07-26T09:43:52.000Z</time>
      </trkpt>
      <trkpt lat="42.95344878919422626495361328125" lon="-7.75681092403829097747802734375">
        <ele>600.20001220703125</ele>
        <time>2019-07-26T09:43:55.000Z</time>
      </trkpt>
      <trkpt lat="42.9534230567514896392822265625" lon="-7.75687378831207752227783203125">
        <ele>601</ele>
        <time>2019-07-26T09:43:58.000Z</time>
      </trkpt>
      <trkpt lat="42.95341710560023784637451171875" lon="-7.75689306668937206268310546875">
        <ele>601.4000244140625</ele>
        <time>2019-07-26T09:43:59.000Z</time>
      </trkpt>
      <trkpt lat="42.95340000651776790618896484375" lon="-7.7569591999053955078125">
        <ele>602.5999755859375</ele>
        <time>2019-07-26T09:44:02.000Z</time>
      </trkpt>
      <trkpt lat="42.95338332653045654296875" lon="-7.75705064646899700164794921875">
        <ele>603.79998779296875</ele>
        <time>2019-07-26T09:44:06.000Z</time>
      </trkpt>
      <trkpt lat="42.95338936150074005126953125" lon="-7.7571625448763370513916015625">
        <ele>604.79998779296875</ele>
        <time>2019-07-26T09:44:11.000Z</time>
      </trkpt>
      <trkpt lat="42.95339849777519702911376953125" lon="-7.75720663368701934814453125">
        <ele>605.20001220703125</ele>
        <time>2019-07-26T09:44:13.000Z</time>
      </trkpt>
      <trkpt lat="42.9534036107361316680908203125" lon="-7.75727813132107257843017578125">
        <ele>605.79998779296875</ele>
        <time>2019-07-26T09:44:16.000Z</time>
      </trkpt>
      <trkpt lat="42.953408472239971160888671875" lon="-7.75737561285495758056640625">
        <ele>606.79998779296875</ele>
        <time>2019-07-26T09:44:20.000Z</time>
      </trkpt>
      <trkpt lat="42.95341006480157375335693359375" lon="-7.75739732198417186737060546875">
        <ele>607</ele>
        <time>2019-07-26T09:44:21.000Z</time>
      </trkpt>
      <trkpt lat="42.95342179946601390838623046875" lon="-7.75749706663191318511962890625">
        <ele>608</ele>
        <time>2019-07-26T09:44:25.000Z</time>
      </trkpt>
      <trkpt lat="42.95343202538788318634033203125" lon="-7.757600583136081695556640625">
        <ele>608.79998779296875</ele>
        <time>2019-07-26T09:44:29.000Z</time>
      </trkpt>
      <trkpt lat="42.95343470759689807891845703125" lon="-7.75762505829334259033203125">
        <ele>609</ele>
        <time>2019-07-26T09:44:30.000Z</time>
      </trkpt>
      <trkpt lat="42.9534478671848773956298828125" lon="-7.75777366943657398223876953125">
        <ele>610.20001220703125</ele>
        <time>2019-07-26T09:44:36.000Z</time>
      </trkpt>
      <trkpt lat="42.9534544050693511962890625" lon="-7.7578330971300601959228515625">
        <ele>610.5999755859375</ele>
        <time>2019-07-26T09:44:38.000Z</time>
      </trkpt>
      <trkpt lat="42.953458093106746673583984375" lon="-7.7579195983707904815673828125">
        <ele>611.20001220703125</ele>
        <time>2019-07-26T09:44:41.000Z</time>
      </trkpt>
      <trkpt lat="42.95346320606768131256103515625" lon="-7.7580620907247066497802734375">
        <ele>612</ele>
        <time>2019-07-26T09:44:45.000Z</time>
      </trkpt>
      <trkpt lat="42.95347041450440883636474609375" lon="-7.75813174434006214141845703125">
        <ele>612.4000244140625</ele>
        <time>2019-07-26T09:44:47.000Z</time>
      </trkpt>
      <trkpt lat="42.95347494073212146759033203125" lon="-7.7582743205130100250244140625">
        <ele>613.4000244140625</ele>
        <time>2019-07-26T09:44:51.000Z</time>
      </trkpt>
      <trkpt lat="42.9534760303795337677001953125" lon="-7.75831379927694797515869140625">
        <ele>613.4000244140625</ele>
        <time>2019-07-26T09:44:52.000Z</time>
      </trkpt>
      <trkpt lat="42.95347678475081920623779296875" lon="-7.75852250866591930389404296875">
        <ele>614.4000244140625</ele>
        <time>2019-07-26T09:44:57.000Z</time>
      </trkpt>
      <trkpt lat="42.95347494073212146759033203125" lon="-7.7585671842098236083984375">
        <ele>614.5999755859375</ele>
        <time>2019-07-26T09:44:58.000Z</time>
      </trkpt>
      <trkpt lat="42.9534683190286159515380859375" lon="-7.75870330631732940673828125">
        <ele>615</ele>
        <time>2019-07-26T09:45:01.000Z</time>
      </trkpt>
      <trkpt lat="42.953450046479701995849609375" lon="-7.75886423885822296142578125">
        <ele>615</ele>
        <time>2019-07-26T09:45:04.000Z</time>
      </trkpt>
      <trkpt lat="42.95343772508203983306884765625" lon="-7.75892869569361209869384765625">
        <ele>615</ele>
        <time>2019-07-26T09:45:05.000Z</time>
      </trkpt>
      <trkpt lat="42.95341408811509609222412109375" lon="-7.75907856412231922149658203125">
        <ele>615</ele>
        <time>2019-07-26T09:45:07.000Z</time>
      </trkpt>
      <trkpt lat="42.95340570621192455291748046875" lon="-7.75915936566889286041259765625">
        <ele>615</ele>
        <time>2019-07-26T09:45:08.000Z</time>
      </trkpt>
      <trkpt lat="42.9533965699374675750732421875" lon="-7.75924838148057460784912109375">
        <ele>615</ele>
        <time>2019-07-26T09:45:09.000Z</time>
      </trkpt>
      <trkpt lat="42.95337737537920475006103515625" lon="-7.75944921188056468963623046875">
        <ele>615</ele>
        <time>2019-07-26T09:45:11.000Z</time>
      </trkpt>
      <trkpt lat="42.95334921218454837799072265625" lon="-7.75966278277337551116943359375">
        <ele>614.79998779296875</ele>
        <time>2019-07-26T09:45:13.000Z</time>
      </trkpt>
      <trkpt lat="42.9533150978386402130126953125" lon="-7.759887836873531341552734375">
        <ele>614.4000244140625</ele>
        <time>2019-07-26T09:45:15.000Z</time>
      </trkpt>
      <trkpt lat="42.9532695002853870391845703125" lon="-7.76012445800006389617919921875">
        <ele>613</ele>
        <time>2019-07-26T09:45:17.000Z</time>
      </trkpt>
      <trkpt lat="42.9532497189939022064208984375" lon="-7.7602400444447994232177734375">
        <ele>612.4000244140625</ele>
        <time>2019-07-26T09:45:18.000Z</time>
      </trkpt>
      <trkpt lat="42.95323069207370281219482421875" lon="-7.76035420596599578857421875">
        <ele>611.79998779296875</ele>
        <time>2019-07-26T09:45:19.000Z</time>
      </trkpt>
      <trkpt lat="42.95319448225200176239013671875" lon="-7.76058948598802089691162109375">
        <ele>610.79998779296875</ele>
        <time>2019-07-26T09:45:21.000Z</time>
      </trkpt>
      <trkpt lat="42.95312306843698024749755859375" lon="-7.760967426002025604248046875">
        <ele>609.4000244140625</ele>
        <time>2019-07-26T09:45:24.000Z</time>
      </trkpt>
      <trkpt lat="42.95309473760426044464111328125" lon="-7.76109759695827960968017578125">
        <ele>609</ele>
        <time>2019-07-26T09:45:25.000Z</time>
      </trkpt>
      <trkpt lat="42.95306489802896976470947265625" lon="-7.76123137213289737701416015625">
        <ele>608.4000244140625</ele>
        <time>2019-07-26T09:45:26.000Z</time>
      </trkpt>
      <trkpt lat="42.95300555415451526641845703125" lon="-7.76151451282203197479248046875">
        <ele>607</ele>
        <time>2019-07-26T09:45:28.000Z</time>
      </trkpt>
      <trkpt lat="42.9529556818306446075439453125" lon="-7.761815004050731658935546875">
        <ele>605.4000244140625</ele>
        <time>2019-07-26T09:45:30.000Z</time>
      </trkpt>
      <trkpt lat="42.95287647284567356109619140625" lon="-7.762279026210308074951171875">
        <ele>603.5999755859375</ele>
        <time>2019-07-26T09:45:33.000Z</time>
      </trkpt>
      <trkpt lat="42.952812016010284423828125" lon="-7.762591503560543060302734375">
        <ele>602.20001220703125</ele>
        <time>2019-07-26T09:45:35.000Z</time>
      </trkpt>
      <trkpt lat="42.952752672135829925537109375" lon="-7.762879170477390289306640625">
        <ele>601</ele>
        <time>2019-07-26T09:45:37.000Z</time>
      </trkpt>
      <trkpt lat="42.95272073708474636077880859375" lon="-7.7630097605288028717041015625">
        <ele>599.4000244140625</ele>
        <time>2019-07-26T09:45:38.000Z</time>
      </trkpt>
      <trkpt lat="42.9526867903769016265869140625" lon="-7.7631378360092639923095703125">
        <ele>598.4000244140625</ele>
        <time>2019-07-26T09:45:39.000Z</time>
      </trkpt>
      <trkpt lat="42.952656783163547515869140625" lon="-7.76325744576752185821533203125">
        <ele>597.20001220703125</ele>
        <time>2019-07-26T09:45:40.000Z</time>
      </trkpt>
      <trkpt lat="42.9526284523308277130126953125" lon="-7.76337579824030399322509765625">
        <ele>596.20001220703125</ele>
        <time>2019-07-26T09:45:41.000Z</time>
      </trkpt>
      <trkpt lat="42.95258914120495319366455078125" lon="-7.7634982578456401824951171875">
        <ele>595.4000244140625</ele>
        <time>2019-07-26T09:45:42.000Z</time>
      </trkpt>
      <trkpt lat="42.952540777623653411865234375" lon="-7.763622142374515533447265625">
        <ele>594.5999755859375</ele>
        <time>2019-07-26T09:45:43.000Z</time>
      </trkpt>
      <trkpt lat="42.95248587615787982940673828125" lon="-7.76374795474112033843994140625">
        <ele>592.79998779296875</ele>
        <time>2019-07-26T09:45:44.000Z</time>
      </trkpt>
      <trkpt lat="42.9524282924830913543701171875" lon="-7.763875611126422882080078125">
        <ele>591</ele>
        <time>2019-07-26T09:45:45.000Z</time>
      </trkpt>
      <trkpt lat="42.95236685313284397125244140625" lon="-7.764009051024913787841796875">
        <ele>588.79998779296875</ele>
        <time>2019-07-26T09:45:46.000Z</time>
      </trkpt>
      <trkpt lat="42.95230465941131114959716796875" lon="-7.76414609514176845550537109375">
        <ele>586.79998779296875</ele>
        <time>2019-07-26T09:45:47.000Z</time>
      </trkpt>
      <trkpt lat="42.952241040766239166259765625" lon="-7.7642838098108768463134765625">
        <ele>585.20001220703125</ele>
        <time>2019-07-26T09:45:48.000Z</time>
      </trkpt>
      <trkpt lat="42.95217708684504032135009765625" lon="-7.76442169211804866790771484375">
        <ele>584</ele>
        <time>2019-07-26T09:45:49.000Z</time>
      </trkpt>
      <trkpt lat="42.952114641666412353515625" lon="-7.764558903872966766357421875">
        <ele>583</ele>
        <time>2019-07-26T09:45:50.000Z</time>
      </trkpt>
      <trkpt lat="42.9520569741725921630859375" lon="-7.764694355428218841552734375">
        <ele>581.79998779296875</ele>
        <time>2019-07-26T09:45:51.000Z</time>
      </trkpt>
      <trkpt lat="42.95199863612651824951171875" lon="-7.7648303098976612091064453125">
        <ele>580.20001220703125</ele>
        <time>2019-07-26T09:45:52.000Z</time>
      </trkpt>
      <trkpt lat="42.951884977519512176513671875" lon="-7.7650876343250274658203125">
        <ele>578</ele>
        <time>2019-07-26T09:45:54.000Z</time>
      </trkpt>
      <trkpt lat="42.9518291540443897247314453125" lon="-7.7652108483016490936279296875">
        <ele>576.79998779296875</ele>
        <time>2019-07-26T09:45:55.000Z</time>
      </trkpt>
      <trkpt lat="42.95177525840699672698974609375" lon="-7.765334732830524444580078125">
        <ele>575.4000244140625</ele>
        <time>2019-07-26T09:45:56.000Z</time>
      </trkpt>
      <trkpt lat="42.9517201893031597137451171875" lon="-7.765462137758731842041015625">
        <ele>574</ele>
        <time>2019-07-26T09:45:57.000Z</time>
      </trkpt>
      <trkpt lat="42.9516605101525783538818359375" lon="-7.765591554343700408935546875">
        <ele>572.5999755859375</ele>
        <time>2019-07-26T09:45:58.000Z</time>
      </trkpt>
      <trkpt lat="42.9515988193452358245849609375" lon="-7.76572356931865215301513671875">
        <ele>570.5999755859375</ele>
        <time>2019-07-26T09:45:59.000Z</time>
      </trkpt>
      <trkpt lat="42.95153486542403697967529296875" lon="-7.76586036197841167449951171875">
        <ele>568.79998779296875</ele>
        <time>2019-07-26T09:46:00.000Z</time>
      </trkpt>
      <trkpt lat="42.95146864838898181915283203125" lon="-7.7659994177520275115966796875">
        <ele>567.4000244140625</ele>
        <time>2019-07-26T09:46:01.000Z</time>
      </trkpt>
      <trkpt lat="42.9514025151729583740234375" lon="-7.76613780297338962554931640625">
        <ele>565.79998779296875</ele>
        <time>2019-07-26T09:46:02.000Z</time>
      </trkpt>
      <trkpt lat="42.9513379745185375213623046875" lon="-7.76627442799508571624755859375">
        <ele>564.20001220703125</ele>
        <time>2019-07-26T09:46:03.000Z</time>
      </trkpt>
      <trkpt lat="42.9512756131589412689208984375" lon="-7.7664051018655300140380859375">
        <ele>562.20001220703125</ele>
        <time>2019-07-26T09:46:04.000Z</time>
      </trkpt>
      <trkpt lat="42.95121719129383563995361328125" lon="-7.76652588509023189544677734375">
        <ele>559.79998779296875</ele>
        <time>2019-07-26T09:46:05.000Z</time>
      </trkpt>
      <trkpt lat="42.951164804399013519287109375" lon="-7.76663518510758876800537109375">
        <ele>557.79998779296875</ele>
        <time>2019-07-26T09:46:06.000Z</time>
      </trkpt>
      <trkpt lat="42.9511156864464282989501953125" lon="-7.76673610322177410125732421875">
        <ele>555.79998779296875</ele>
        <time>2019-07-26T09:46:07.000Z</time>
      </trkpt>
      <trkpt lat="42.951068580150604248046875" lon="-7.76683366857469081878662109375">
        <ele>554.20001220703125</ele>
        <time>2019-07-26T09:46:08.000Z</time>
      </trkpt>
      <trkpt lat="42.9510271735489368438720703125" lon="-7.7669308148324489593505859375">
        <ele>552.79998779296875</ele>
        <time>2019-07-26T09:46:09.000Z</time>
      </trkpt>
      <trkpt lat="42.95099691487848758697509765625" lon="-7.7670295536518096923828125">
        <ele>550.79998779296875</ele>
        <time>2019-07-26T09:46:10.000Z</time>
      </trkpt>
      <trkpt lat="42.9509805701673030853271484375" lon="-7.76713659055531024932861328125">
        <ele>549</ele>
        <time>2019-07-26T09:46:11.000Z</time>
      </trkpt>
      <trkpt lat="42.95098400674760341644287109375" lon="-7.76725393719971179962158203125">
        <ele>547.4000244140625</ele>
        <time>2019-07-26T09:46:12.000Z</time>
      </trkpt>
      <trkpt lat="42.95100663788616657257080078125" lon="-7.76737899519503116607666015625">
        <ele>545.79998779296875</ele>
        <time>2019-07-26T09:46:13.000Z</time>
      </trkpt>
      <trkpt lat="42.951033376157283782958984375" lon="-7.76750824414193630218505859375">
        <ele>543.5999755859375</ele>
        <time>2019-07-26T09:46:14.000Z</time>
      </trkpt>
      <trkpt lat="42.9510553367435932159423828125" lon="-7.76763640344142913818359375">
        <ele>541.5999755859375</ele>
        <time>2019-07-26T09:46:15.000Z</time>
      </trkpt>
      <trkpt lat="42.951072938740253448486328125" lon="-7.767760790884494781494140625">
        <ele>539.79998779296875</ele>
        <time>2019-07-26T09:46:16.000Z</time>
      </trkpt>
      <trkpt lat="42.95108542777597904205322265625" lon="-7.76787604205310344696044921875">
        <ele>538.4000244140625</ele>
        <time>2019-07-26T09:46:17.000Z</time>
      </trkpt>
      <trkpt lat="42.95109397731721401214599609375" lon="-7.7679725177586078643798828125">
        <ele>537</ele>
        <time>2019-07-26T09:46:18.000Z</time>
      </trkpt>
      <trkpt lat="42.95109263621270656585693359375" lon="-7.76805541478097438812255859375">
        <ele>535.4000244140625</ele>
        <time>2019-07-26T09:46:19.000Z</time>
      </trkpt>
      <trkpt lat="42.9510784707963466644287109375" lon="-7.7681237272918224334716796875">
        <ele>532.5999755859375</ele>
        <time>2019-07-26T09:46:20.000Z</time>
      </trkpt>
      <trkpt lat="42.95104988850653171539306640625" lon="-7.7681770361959934234619140625">
        <ele>531.20001220703125</ele>
        <time>2019-07-26T09:46:21.000Z</time>
      </trkpt>
      <trkpt lat="42.95100898481905460357666015625" lon="-7.768214084208011627197265625">
        <ele>530.20001220703125</ele>
        <time>2019-07-26T09:46:22.000Z</time>
      </trkpt>
      <trkpt lat="42.95095953159034252166748046875" lon="-7.768236882984638214111328125">
        <ele>528.79998779296875</ele>
        <time>2019-07-26T09:46:23.000Z</time>
      </trkpt>
      <trkpt lat="42.95090236701071262359619140625" lon="-7.7682387270033359527587890625">
        <ele>527.4000244140625</ele>
        <time>2019-07-26T09:46:24.000Z</time>
      </trkpt>
      <trkpt lat="42.95083648525178432464599609375" lon="-7.7682392299175262451171875">
        <ele>525.5999755859375</ele>
        <time>2019-07-26T09:46:25.000Z</time>
      </trkpt>
      <trkpt lat="42.95076750218868255615234375" lon="-7.76824065484106540679931640625">
        <ele>523.79998779296875</ele>
        <time>2019-07-26T09:46:26.000Z</time>
      </trkpt>
      <trkpt lat="42.95070069842040538787841796875" lon="-7.76824082247912883758544921875">
        <ele>521.79998779296875</ele>
        <time>2019-07-26T09:46:27.000Z</time>
      </trkpt>
      <trkpt lat="42.95064168982207775115966796875" lon="-7.76825071312487125396728515625">
        <ele>520.20001220703125</ele>
        <time>2019-07-26T09:46:28.000Z</time>
      </trkpt>
      <trkpt lat="42.9506144486367702484130859375" lon="-7.76828549802303314208984375">
        <ele>519</ele>
        <time>2019-07-26T09:46:29.000Z</time>
      </trkpt>
      <trkpt lat="42.9505986906588077545166015625" lon="-7.76841365732252597808837890625">
        <ele>517.4000244140625</ele>
        <time>2019-07-26T09:46:31.000Z</time>
      </trkpt>
      <trkpt lat="42.95060698874294757843017578125" lon="-7.76849999092519283294677734375">
        <ele>516.79998779296875</ele>
        <time>2019-07-26T09:46:32.000Z</time>
      </trkpt>
      <trkpt lat="42.95061570592224597930908203125" lon="-7.76859638281166553497314453125">
        <ele>516.20001220703125</ele>
        <time>2019-07-26T09:46:33.000Z</time>
      </trkpt>
      <trkpt lat="42.950654514133930206298828125" lon="-7.76892377994954586029052734375">
        <ele>514.5999755859375</ele>
        <time>2019-07-26T09:46:36.000Z</time>
      </trkpt>
      <trkpt lat="42.95067890547215938568115234375" lon="-7.7690329961478710174560546875">
        <ele>514</ele>
        <time>2019-07-26T09:46:37.000Z</time>
      </trkpt>
      <trkpt lat="42.950702793896198272705078125" lon="-7.76914179325103759765625">
        <ele>513.20001220703125</ele>
        <time>2019-07-26T09:46:38.000Z</time>
      </trkpt>
      <trkpt lat="42.9507507383823394775390625" lon="-7.76934874244034290313720703125">
        <ele>511.79998779296875</ele>
        <time>2019-07-26T09:46:40.000Z</time>
      </trkpt>
      <trkpt lat="42.9507690109312534332275390625" lon="-7.769447900354862213134765625">
        <ele>511.20001220703125</ele>
        <time>2019-07-26T09:46:41.000Z</time>
      </trkpt>
      <trkpt lat="42.950782589614391326904296875" lon="-7.76954957284033298492431640625">
        <ele>510.399993896484375</ele>
        <time>2019-07-26T09:46:42.000Z</time>
      </trkpt>
      <trkpt lat="42.950814776122570037841796875" lon="-7.7697397582232952117919921875">
        <ele>509</ele>
        <time>2019-07-26T09:46:44.000Z</time>
      </trkpt>
      <trkpt lat="42.95085073448717594146728515625" lon="-7.76992030441761016845703125">
        <ele>508</ele>
        <time>2019-07-26T09:46:46.000Z</time>
      </trkpt>
      <trkpt lat="42.9508705995976924896240234375" lon="-7.7700079791247844696044921875">
        <ele>507.399993896484375</ele>
        <time>2019-07-26T09:46:47.000Z</time>
      </trkpt>
      <trkpt lat="42.950911335647106170654296875" lon="-7.77017536573112010955810546875">
        <ele>506.79998779296875</ele>
        <time>2019-07-26T09:46:49.000Z</time>
      </trkpt>
      <trkpt lat="42.95094544999301433563232421875" lon="-7.77033009566366672515869140625">
        <ele>506.20001220703125</ele>
        <time>2019-07-26T09:46:51.000Z</time>
      </trkpt>
      <trkpt lat="42.95096791349351406097412109375" lon="-7.77047527022659778594970703125">
        <ele>506</ele>
        <time>2019-07-26T09:46:53.000Z</time>
      </trkpt>
      <trkpt lat="42.95097981579601764678955078125" lon="-7.7706081233918666839599609375">
        <ele>506.20001220703125</ele>
        <time>2019-07-26T09:46:55.000Z</time>
      </trkpt>
      <trkpt lat="42.95099222101271152496337890625" lon="-7.7707631886005401611328125">
        <ele>506</ele>
        <time>2019-07-26T09:46:58.000Z</time>
      </trkpt>
      <trkpt lat="42.95099305920302867889404296875" lon="-7.770839296281337738037109375">
        <ele>506</ele>
        <time>2019-07-26T09:47:00.000Z</time>
      </trkpt>
      <trkpt lat="42.9509963281452655792236328125" lon="-7.7709058485925197601318359375">
        <ele>506</ele>
        <time>2019-07-26T09:47:02.000Z</time>
      </trkpt>
      <trkpt lat="42.9510000161826610565185546875" lon="-7.770972065627574920654296875">
        <ele>506.399993896484375</ele>
        <time>2019-07-26T09:47:04.000Z</time>
      </trkpt>
      <trkpt lat="42.95100026763975620269775390625" lon="-7.7710369415581226348876953125">
        <ele>506.79998779296875</ele>
        <time>2019-07-26T09:47:06.000Z</time>
      </trkpt>
      <trkpt lat="42.95100127346813678741455078125" lon="-7.77109469287097454071044921875">
        <ele>507.399993896484375</ele>
        <time>2019-07-26T09:47:08.000Z</time>
      </trkpt>
      <trkpt lat="42.95100227929651737213134765625" lon="-7.7711241133511066436767578125">
        <ele>507.600006103515625</ele>
        <time>2019-07-26T09:47:09.000Z</time>
      </trkpt>
      <trkpt lat="42.95100781135261058807373046875" lon="-7.77121254242956638336181640625">
        <ele>508.399993896484375</ele>
        <time>2019-07-26T09:47:12.000Z</time>
      </trkpt>
      <trkpt lat="42.95101166702806949615478515625" lon="-7.77124171145260334014892578125">
        <ele>508.600006103515625</ele>
        <time>2019-07-26T09:47:13.000Z</time>
      </trkpt>
      <trkpt lat="42.95102356933057308197021484375" lon="-7.7713380195200443267822265625">
        <ele>509.79998779296875</ele>
        <time>2019-07-26T09:47:16.000Z</time>
      </trkpt>
      <trkpt lat="42.95102491043508052825927734375" lon="-7.77146047912538051605224609375">
        <ele>511</ele>
        <time>2019-07-26T09:47:20.000Z</time>
      </trkpt>
      <trkpt lat="42.9510275088250637054443359375" lon="-7.77160942554473876953125">
        <ele>512.20001220703125</ele>
        <time>2019-07-26T09:47:25.000Z</time>
      </trkpt>
      <trkpt lat="42.95103304088115692138671875" lon="-7.77171344496309757232666015625">
        <ele>513</ele>
        <time>2019-07-26T09:47:28.000Z</time>
      </trkpt>
      <trkpt lat="42.9510348848998546600341796875" lon="-7.77175585739314556121826171875">
        <ele>513.4000244140625</ele>
        <time>2019-07-26T09:47:29.000Z</time>
      </trkpt>
      <trkpt lat="42.9510457813739776611328125" lon="-7.77197889983654022216796875">
        <ele>514.20001220703125</ele>
        <time>2019-07-26T09:47:34.000Z</time>
      </trkpt>
      <trkpt lat="42.9510442726314067840576171875" lon="-7.772020138800144195556640625">
        <ele>514.4000244140625</ele>
        <time>2019-07-26T09:47:35.000Z</time>
      </trkpt>
      <trkpt lat="42.95103664509952068328857421875" lon="-7.7722187899053096771240234375">
        <ele>514.5999755859375</ele>
        <time>2019-07-26T09:47:40.000Z</time>
      </trkpt>
      <trkpt lat="42.95104268006980419158935546875" lon="-7.77228944934904575347900390625">
        <ele>515</ele>
        <time>2019-07-26T09:47:42.000Z</time>
      </trkpt>
      <trkpt lat="42.9510496370494365692138671875" lon="-7.772519029676914215087890625">
        <ele>515.4000244140625</ele>
        <time>2019-07-26T09:47:48.000Z</time>
      </trkpt>
      <trkpt lat="42.95104871504008769989013671875" lon="-7.77256437577307224273681640625">
        <ele>515.4000244140625</ele>
        <time>2019-07-26T09:47:49.000Z</time>
      </trkpt>
      <trkpt lat="42.95102809555828571319580078125" lon="-7.772844918072223663330078125">
        <ele>516.20001220703125</ele>
        <time>2019-07-26T09:47:56.000Z</time>
      </trkpt>
      <trkpt lat="42.9510288499295711517333984375" lon="-7.772957570850849151611328125">
        <ele>516.4000244140625</ele>
        <time>2019-07-26T09:47:59.000Z</time>
      </trkpt>
      <trkpt lat="42.951020635664463043212890625" lon="-7.773149348795413970947265625">
        <ele>517</ele>
        <time>2019-07-26T09:48:04.000Z</time>
      </trkpt>
      <trkpt lat="42.95100227929651737213134765625" lon="-7.77325655333697795867919921875">
        <ele>517.4000244140625</ele>
        <time>2019-07-26T09:48:07.000Z</time>
      </trkpt>
      <trkpt lat="42.9509463720023632049560546875" lon="-7.7733852155506610870361328125">
        <ele>518.4000244140625</ele>
        <time>2019-07-26T09:48:11.000Z</time>
      </trkpt>
      <trkpt lat="42.95092843472957611083984375" lon="-7.77341648004949092864990234375">
        <ele>518.5999755859375</ele>
        <time>2019-07-26T09:48:12.000Z</time>
      </trkpt>
      <trkpt lat="42.95086406171321868896484375" lon="-7.773544304072856903076171875">
        <ele>519.5999755859375</ele>
        <time>2019-07-26T09:48:16.000Z</time>
      </trkpt>
      <trkpt lat="42.95083363540470600128173828125" lon="-7.7736091800034046173095703125">
        <ele>520</ele>
        <time>2019-07-26T09:48:18.000Z</time>
      </trkpt>
      <trkpt lat="42.95080781914293766021728515625" lon="-7.77372024022042751312255859375">
        <ele>520.79998779296875</ele>
        <time>2019-07-26T09:48:21.000Z</time>
      </trkpt>
      <trkpt lat="42.95082089491188526153564453125" lon="-7.77382032014429569244384765625">
        <ele>521.20001220703125</ele>
        <time>2019-07-26T09:48:23.000Z</time>
      </trkpt>
      <trkpt lat="42.95094595290720462799072265625" lon="-7.77394495904445648193359375">
        <ele>521.20001220703125</ele>
        <time>2019-07-26T09:48:26.000Z</time>
      </trkpt>
      <trkpt lat="42.95108308084309101104736328125" lon="-7.77400472201406955718994140625">
        <ele>521.20001220703125</ele>
        <time>2019-07-26T09:48:28.000Z</time>
      </trkpt>
      <trkpt lat="42.9512484557926654815673828125" lon="-7.77406976558268070220947265625">
        <ele>521.20001220703125</ele>
        <time>2019-07-26T09:48:30.000Z</time>
      </trkpt>
      <trkpt lat="42.95141818933188915252685546875" lon="-7.77413363568484783172607421875">
        <ele>520.79998779296875</ele>
        <time>2019-07-26T09:48:32.000Z</time>
      </trkpt>
      <trkpt lat="42.95159052126109600067138671875" lon="-7.774198763072490692138671875">
        <ele>520.5999755859375</ele>
        <time>2019-07-26T09:48:34.000Z</time>
      </trkpt>
      <trkpt lat="42.95174994505941867828369140625" lon="-7.774272523820400238037109375">
        <ele>519.79998779296875</ele>
        <time>2019-07-26T09:48:36.000Z</time>
      </trkpt>
      <trkpt lat="42.9518140666186809539794921875" lon="-7.77430973947048187255859375">
        <ele>518.5999755859375</ele>
        <time>2019-07-26T09:48:37.000Z</time>
      </trkpt>
      <trkpt lat="42.9519317485392093658447265625" lon="-7.77438945136964321136474609375">
        <ele>516.79998779296875</ele>
        <time>2019-07-26T09:48:39.000Z</time>
      </trkpt>
      <trkpt lat="42.95198765583336353302001953125" lon="-7.77443421073257923126220703125">
        <ele>515.79998779296875</ele>
        <time>2019-07-26T09:48:40.000Z</time>
      </trkpt>
      <trkpt lat="42.95203509740531444549560546875" lon="-7.774485759437084197998046875">
        <ele>514.79998779296875</ele>
        <time>2019-07-26T09:48:41.000Z</time>
      </trkpt>
      <trkpt lat="42.9520745761692523956298828125" lon="-7.774550803005695343017578125">
        <ele>514</ele>
        <time>2019-07-26T09:48:42.000Z</time>
      </trkpt>
      <trkpt lat="42.95211707241833209991455078125" lon="-7.77471936307847499847412109375">
        <ele>512.4000244140625</ele>
        <time>2019-07-26T09:48:44.000Z</time>
      </trkpt>
      <trkpt lat="42.95211975462734699249267578125" lon="-7.77480787597596645355224609375">
        <ele>511.399993896484375</ele>
        <time>2019-07-26T09:48:45.000Z</time>
      </trkpt>
      <trkpt lat="42.95211841352283954620361328125" lon="-7.77489203028380870819091796875">
        <ele>510.600006103515625</ele>
        <time>2019-07-26T09:48:46.000Z</time>
      </trkpt>
      <trkpt lat="42.952112294733524322509765625" lon="-7.77505044825375080108642578125">
        <ele>509</ele>
        <time>2019-07-26T09:48:48.000Z</time>
      </trkpt>
      <trkpt lat="42.9521101154386997222900390625" lon="-7.775123454630374908447265625">
        <ele>508.20001220703125</ele>
        <time>2019-07-26T09:48:49.000Z</time>
      </trkpt>
      <trkpt lat="42.95210215263068675994873046875" lon="-7.77519461698830127716064453125">
        <ele>507.600006103515625</ele>
        <time>2019-07-26T09:48:50.000Z</time>
      </trkpt>
      <trkpt lat="42.95209678821265697479248046875" lon="-7.77525982819497585296630859375">
        <ele>506.79998779296875</ele>
        <time>2019-07-26T09:48:51.000Z</time>
      </trkpt>
      <trkpt lat="42.95208991505205631256103515625" lon="-7.77532135136425495147705078125">
        <ele>506.399993896484375</ele>
        <time>2019-07-26T09:48:52.000Z</time>
      </trkpt>
      <trkpt lat="42.95208572410047054290771484375" lon="-7.7754357643425464630126953125">
        <ele>506.20001220703125</ele>
        <time>2019-07-26T09:48:54.000Z</time>
      </trkpt>
      <trkpt lat="42.95209595002233982086181640625" lon="-7.77548781596124172210693359375">
        <ele>506</ele>
        <time>2019-07-26T09:48:55.000Z</time>
      </trkpt>
      <trkpt lat="42.95211304910480976104736328125" lon="-7.77553861029446125030517578125">
        <ele>506</ele>
        <time>2019-07-26T09:48:56.000Z</time>
      </trkpt>
      <trkpt lat="42.95214942656457424163818359375" lon="-7.77563684619963169097900390625">
        <ele>506</ele>
        <time>2019-07-26T09:48:58.000Z</time>
      </trkpt>
      <trkpt lat="42.95219267718493938446044921875" lon="-7.77572854422032833099365234375">
        <ele>506</ele>
        <time>2019-07-26T09:49:00.000Z</time>
      </trkpt>
      <trkpt lat="42.9522613249719142913818359375" lon="-7.77591998688876628875732421875">
        <ele>506.600006103515625</ele>
        <time>2019-07-26T09:49:04.000Z</time>
      </trkpt>
      <trkpt lat="42.9522795975208282470703125" lon="-7.776048146188259124755859375">
        <ele>507</ele>
        <time>2019-07-26T09:49:07.000Z</time>
      </trkpt>
      <trkpt lat="42.95227582566440105438232421875" lon="-7.7761294506490230560302734375">
        <ele>507.20001220703125</ele>
        <time>2019-07-26T09:49:09.000Z</time>
      </trkpt>
      <trkpt lat="42.952275909483432769775390625" lon="-7.77616021223366260528564453125">
        <ele>507.399993896484375</ele>
        <time>2019-07-26T09:49:10.000Z</time>
      </trkpt>
      <trkpt lat="42.952306754887104034423828125" lon="-7.77627588249742984771728515625">
        <ele>508.20001220703125</ele>
        <time>2019-07-26T09:49:14.000Z</time>
      </trkpt>
      <trkpt lat="42.95231589116156101226806640625" lon="-7.7763363160192966461181640625">
        <ele>508.79998779296875</ele>
        <time>2019-07-26T09:49:16.000Z</time>
      </trkpt>
      <trkpt lat="42.95230977237224578857421875" lon="-7.77642977423965930938720703125">
        <ele>509.600006103515625</ele>
        <time>2019-07-26T09:49:19.000Z</time>
      </trkpt>
      <trkpt lat="42.95230465941131114959716796875" lon="-7.77645525522530078887939453125">
        <ele>509.79998779296875</ele>
        <time>2019-07-26T09:49:20.000Z</time>
      </trkpt>
      <trkpt lat="42.9523116163909435272216796875" lon="-7.77656539343297481536865234375">
        <ele>510.79998779296875</ele>
        <time>2019-07-26T09:49:24.000Z</time>
      </trkpt>
      <trkpt lat="42.952313460409641265869140625" lon="-7.7765948139131069183349609375">
        <ele>511</ele>
        <time>2019-07-26T09:49:25.000Z</time>
      </trkpt>
      <trkpt lat="42.952314801514148712158203125" lon="-7.7766239829361438751220703125">
        <ele>511.20001220703125</ele>
        <time>2019-07-26T09:49:26.000Z</time>
      </trkpt>
      <trkpt lat="42.952317483723163604736328125" lon="-7.77671542949974536895751953125">
        <ele>512</ele>
        <time>2019-07-26T09:49:29.000Z</time>
      </trkpt>
      <trkpt lat="42.9523297213017940521240234375" lon="-7.77680595405399799346923828125">
        <ele>513</ele>
        <time>2019-07-26T09:49:32.000Z</time>
      </trkpt>
      <trkpt lat="42.95236433856189250946044921875" lon="-7.77688792906701564788818359375">
        <ele>513.79998779296875</ele>
        <time>2019-07-26T09:49:35.000Z</time>
      </trkpt>
      <trkpt lat="42.95238026417791843414306640625" lon="-7.77691106311976909637451171875">
        <ele>514.20001220703125</ele>
        <time>2019-07-26T09:49:36.000Z</time>
      </trkpt>
      <trkpt lat="42.95242502354085445404052734375" lon="-7.7770269848406314849853515625">
        <ele>515.4000244140625</ele>
        <time>2019-07-26T09:49:40.000Z</time>
      </trkpt>
      <trkpt lat="42.95243105851113796234130859375" lon="-7.77706143446266651153564453125">
        <ele>515.79998779296875</ele>
        <time>2019-07-26T09:49:41.000Z</time>
      </trkpt>
      <trkpt lat="42.9524440504610538482666015625" lon="-7.777128405869007110595703125">
        <ele>516.5999755859375</ele>
        <time>2019-07-26T09:49:43.000Z</time>
      </trkpt>
      <trkpt lat="42.95246542431414127349853515625" lon="-7.77733518742024898529052734375">
        <ele>517.5999755859375</ele>
        <time>2019-07-26T09:49:49.000Z</time>
      </trkpt>
      <trkpt lat="42.9524671845138072967529296875" lon="-7.777370475232601165771484375">
        <ele>517.79998779296875</ele>
        <time>2019-07-26T09:49:50.000Z</time>
      </trkpt>
      <trkpt lat="42.95247715897858142852783203125" lon="-7.77753719128668308258056640625">
        <ele>518.5999755859375</ele>
        <time>2019-07-26T09:49:55.000Z</time>
      </trkpt>
      <trkpt lat="42.952471710741519927978515625" lon="-7.77763978578150272369384765625">
        <ele>519</ele>
        <time>2019-07-26T09:49:58.000Z</time>
      </trkpt>
      <trkpt lat="42.95247330330312252044677734375" lon="-7.77773617766797542572021484375">
        <ele>519.79998779296875</ele>
        <time>2019-07-26T09:50:01.000Z</time>
      </trkpt>
      <trkpt lat="42.95248554088175296783447265625" lon="-7.7778504230082035064697265625">
        <ele>520.5999755859375</ele>
        <time>2019-07-26T09:50:05.000Z</time>
      </trkpt>
      <trkpt lat="42.95248704962432384490966796875" lon="-7.77791320346295833587646484375">
        <ele>521</ele>
        <time>2019-07-26T09:50:07.000Z</time>
      </trkpt>
      <trkpt lat="42.95247598551213741302490234375" lon="-7.7780559472739696502685546875">
        <ele>522</ele>
        <time>2019-07-26T09:50:12.000Z</time>
      </trkpt>
      <trkpt lat="42.9524727165699005126953125" lon="-7.77808754704892635345458984375">
        <ele>522</ele>
        <time>2019-07-26T09:50:13.000Z</time>
      </trkpt>
      <trkpt lat="42.9524406976997852325439453125" lon="-7.77820908464491367340087890625">
        <ele>523.5999755859375</ele>
        <time>2019-07-26T09:50:17.000Z</time>
      </trkpt>
      <trkpt lat="42.95242921449244022369384765625" lon="-7.77830681763589382171630859375">
        <ele>524.4000244140625</ele>
        <time>2019-07-26T09:50:20.000Z</time>
      </trkpt>
      <trkpt lat="42.952423095703125" lon="-7.7783379144966602325439453125">
        <ele>524.79998779296875</ele>
        <time>2019-07-26T09:50:21.000Z</time>
      </trkpt>
      <trkpt lat="42.95241169631481170654296875" lon="-7.7784529142081737518310546875">
        <ele>526</ele>
        <time>2019-07-26T09:50:25.000Z</time>
      </trkpt>
      <trkpt lat="42.952395267784595489501953125" lon="-7.77850982733070850372314453125">
        <ele>526.79998779296875</ele>
        <time>2019-07-26T09:50:27.000Z</time>
      </trkpt>
      <trkpt lat="42.95238663442432880401611328125" lon="-7.77853530831634998321533203125">
        <ele>527</ele>
        <time>2019-07-26T09:50:28.000Z</time>
      </trkpt>
      <trkpt lat="42.95238219201564788818359375" lon="-7.77866221033036708831787109375">
        <ele>528</ele>
        <time>2019-07-26T09:50:33.000Z</time>
      </trkpt>
      <trkpt lat="42.95237657614052295684814453125" lon="-7.778687439858913421630859375">
        <ele>528.20001220703125</ele>
        <time>2019-07-26T09:50:34.000Z</time>
      </trkpt>
      <trkpt lat="42.952346317470073699951171875" lon="-7.77878140099346637725830078125">
        <ele>529.20001220703125</ele>
        <time>2019-07-26T09:50:38.000Z</time>
      </trkpt>
      <trkpt lat="42.95232050120830535888671875" lon="-7.77887846343219280242919921875">
        <ele>530.4000244140625</ele>
        <time>2019-07-26T09:50:42.000Z</time>
      </trkpt>
      <trkpt lat="42.9522868059575557708740234375" lon="-7.77896680869162082672119140625">
        <ele>531.4000244140625</ele>
        <time>2019-07-26T09:50:46.000Z</time>
      </trkpt>
      <trkpt lat="42.95224330388009548187255859375" lon="-7.7790517173707485198974609375">
        <ele>532.4000244140625</ele>
        <time>2019-07-26T09:50:50.000Z</time>
      </trkpt>
      <trkpt lat="42.95222260057926177978515625" lon="-7.7790999971330165863037109375">
        <ele>533</ele>
        <time>2019-07-26T09:50:52.000Z</time>
      </trkpt>
      <trkpt lat="42.95219787396490573883056640625" lon="-7.7791395597159862518310546875">
        <ele>533.79998779296875</ele>
        <time>2019-07-26T09:50:54.000Z</time>
      </trkpt>
      <trkpt lat="42.95214171521365642547607421875" lon="-7.779262103140354156494140625">
        <ele>535</ele>
        <time>2019-07-26T09:50:59.000Z</time>
      </trkpt>
      <trkpt lat="42.9520998895168304443359375" lon="-7.77935841120779514312744140625">
        <ele>536</ele>
        <time>2019-07-26T09:51:03.000Z</time>
      </trkpt>
      <trkpt lat="42.95204968191683292388916015625" lon="-7.77946670539677143096923828125">
        <ele>537.20001220703125</ele>
        <time>2019-07-26T09:51:07.000Z</time>
      </trkpt>
      <trkpt lat="42.952039539813995361328125" lon="-7.7794946171343326568603515625">
        <ele>537.4000244140625</ele>
        <time>2019-07-26T09:51:08.000Z</time>
      </trkpt>
      <trkpt lat="42.9520086944103240966796875" lon="-7.77956829406321048736572265625">
        <ele>538.20001220703125</ele>
        <time>2019-07-26T09:51:11.000Z</time>
      </trkpt>
      <trkpt lat="42.951990924775600433349609375" lon="-7.77961917221546173095703125">
        <ele>538.5999755859375</ele>
        <time>2019-07-26T09:51:13.000Z</time>
      </trkpt>
      <trkpt lat="42.9519850574433803558349609375" lon="-7.7796471677720546722412109375">
        <ele>538.79998779296875</ele>
        <time>2019-07-26T09:51:14.000Z</time>
      </trkpt>
      <trkpt lat="42.9519746638834476470947265625" lon="-7.77970366179943084716796875">
        <ele>539.4000244140625</ele>
        <time>2019-07-26T09:51:16.000Z</time>
      </trkpt>
      <trkpt lat="42.9519468359649181365966796875" lon="-7.7798466570675373077392578125">
        <ele>540.5999755859375</ele>
        <time>2019-07-26T09:51:21.000Z</time>
      </trkpt>
      <trkpt lat="42.95194406993687152862548828125" lon="-7.779906503856182098388671875">
        <ele>541</ele>
        <time>2019-07-26T09:51:23.000Z</time>
      </trkpt>
      <trkpt lat="42.9519364424049854278564453125" lon="-7.7800226770341396331787109375">
        <ele>541.79998779296875</ele>
        <time>2019-07-26T09:51:27.000Z</time>
      </trkpt>
      <trkpt lat="42.95194457285106182098388671875" lon="-7.7801671810448169708251953125">
        <ele>542.79998779296875</ele>
        <time>2019-07-26T09:51:32.000Z</time>
      </trkpt>
      <trkpt lat="42.9519461654126644134521484375" lon="-7.78019442223012447357177734375">
        <ele>543.20001220703125</ele>
        <time>2019-07-26T09:51:33.000Z</time>
      </trkpt>
      <trkpt lat="42.95195915736258029937744140625" lon="-7.78032903559505939483642578125">
        <ele>544</ele>
        <time>2019-07-26T09:51:38.000Z</time>
      </trkpt>
      <trkpt lat="42.95196334831416606903076171875" lon="-7.78039189986884593963623046875">
        <ele>544.79998779296875</ele>
        <time>2019-07-26T09:51:41.000Z</time>
      </trkpt>
      <trkpt lat="42.9519629292190074920654296875" lon="-7.78041587211191654205322265625">
        <ele>545</ele>
        <time>2019-07-26T09:51:42.000Z</time>
      </trkpt>
      <trkpt lat="42.9519666172564029693603515625" lon="-7.78044252656400203704833984375">
        <ele>545.4000244140625</ele>
        <time>2019-07-26T09:51:43.000Z</time>
      </trkpt>
      <trkpt lat="42.95199486427009105682373046875" lon="-7.7805336378514766693115234375">
        <ele>546.20001220703125</ele>
        <time>2019-07-26T09:51:47.000Z</time>
      </trkpt>
      <trkpt lat="42.95200207270681858062744140625" lon="-7.78055920265614986419677734375">
        <ele>546.4000244140625</ele>
        <time>2019-07-26T09:51:48.000Z</time>
      </trkpt>
      <trkpt lat="42.9520333372056484222412109375" lon="-7.78063899837434291839599609375">
        <ele>547.5999755859375</ele>
        <time>2019-07-26T09:51:51.000Z</time>
      </trkpt>
      <trkpt lat="42.95208538882434368133544921875" lon="-7.7807022817432880401611328125">
        <ele>548.20001220703125</ele>
        <time>2019-07-26T09:51:54.000Z</time>
      </trkpt>
      <trkpt lat="42.95211556367576122283935546875" lon="-7.78074226342141628265380859375">
        <ele>548.79998779296875</ele>
        <time>2019-07-26T09:51:56.000Z</time>
      </trkpt>
      <trkpt lat="42.9521818645298480987548828125" lon="-7.78082909993827342987060546875">
        <ele>550.20001220703125</ele>
        <time>2019-07-26T09:52:00.000Z</time>
      </trkpt>
      <trkpt lat="42.95221346430480480194091796875" lon="-7.78087369166314601898193359375">
        <ele>550.79998779296875</ele>
        <time>2019-07-26T09:52:02.000Z</time>
      </trkpt>
      <trkpt lat="42.95226459391415119171142578125" lon="-7.780924737453460693359375">
        <ele>551.20001220703125</ele>
        <time>2019-07-26T09:52:05.000Z</time>
      </trkpt>
      <trkpt lat="42.9523370973765850067138671875" lon="-7.78099422343075275421142578125">
        <ele>552.4000244140625</ele>
        <time>2019-07-26T09:52:09.000Z</time>
      </trkpt>
      <trkpt lat="42.9523910768330097198486328125" lon="-7.78104451484978199005126953125">
        <ele>552.79998779296875</ele>
        <time>2019-07-26T09:52:12.000Z</time>
      </trkpt>
      <trkpt lat="42.95242351479828357696533203125" lon="-7.78107619844377040863037109375">
        <ele>553.5999755859375</ele>
        <time>2019-07-26T09:52:14.000Z</time>
      </trkpt>
      <trkpt lat="42.95246374793350696563720703125" lon="-7.78110050596296787261962890625">
        <ele>554.5999755859375</ele>
        <time>2019-07-26T09:52:16.000Z</time>
      </trkpt>
      <trkpt lat="42.95253985561430454254150390625" lon="-7.78116605244576930999755859375">
        <ele>555.5999755859375</ele>
        <time>2019-07-26T09:52:20.000Z</time>
      </trkpt>
      <trkpt lat="42.95255695469677448272705078125" lon="-7.78118683956563472747802734375">
        <ele>555.79998779296875</ele>
        <time>2019-07-26T09:52:21.000Z</time>
      </trkpt>
      <trkpt lat="42.95262870378792285919189453125" lon="-7.78125129640102386474609375">
        <ele>556.79998779296875</ele>
        <time>2019-07-26T09:52:25.000Z</time>
      </trkpt>
      <trkpt lat="42.95268218033015727996826171875" lon="-7.78128742240369319915771484375">
        <ele>557.79998779296875</ele>
        <time>2019-07-26T09:52:28.000Z</time>
      </trkpt>
      <trkpt lat="42.95270145870745182037353515625" lon="-7.7812977321445941925048828125">
        <ele>558</ele>
        <time>2019-07-26T09:52:29.000Z</time>
      </trkpt>
      <trkpt lat="42.9527746327221393585205078125" lon="-7.781360261142253875732421875">
        <ele>559.20001220703125</ele>
        <time>2019-07-26T09:52:33.000Z</time>
      </trkpt>
      <trkpt lat="42.9528323002159595489501953125" lon="-7.78140929527580738067626953125">
        <ele>559.79998779296875</ele>
        <time>2019-07-26T09:52:36.000Z</time>
      </trkpt>
      <trkpt lat="42.95286457054316997528076171875" lon="-7.78144919313490390777587890625">
        <ele>560.4000244140625</ele>
        <time>2019-07-26T09:52:38.000Z</time>
      </trkpt>
      <trkpt lat="42.95293581672012805938720703125" lon="-7.78150753118097782135009765625">
        <ele>561.4000244140625</ele>
        <time>2019-07-26T09:52:42.000Z</time>
      </trkpt>
      <trkpt lat="42.95302349142730236053466796875" lon="-7.7815793640911579132080078125">
        <ele>562.79998779296875</ele>
        <time>2019-07-26T09:52:47.000Z</time>
      </trkpt>
      <trkpt lat="42.953054420650005340576171875" lon="-7.78161196969449520111083984375">
        <ele>563.4000244140625</ele>
        <time>2019-07-26T09:52:49.000Z</time>
      </trkpt>
      <trkpt lat="42.95311217196285724639892578125" lon="-7.7816457487642765045166015625">
        <ele>564</ele>
        <time>2019-07-26T09:52:52.000Z</time>
      </trkpt>
      <trkpt lat="42.95317880809307098388671875" lon="-7.781710289418697357177734375">
        <ele>565</ele>
        <time>2019-07-26T09:52:56.000Z</time>
      </trkpt>
      <trkpt lat="42.95323739759624004364013671875" lon="-7.7817709743976593017578125">
        <ele>566</ele>
        <time>2019-07-26T09:53:00.000Z</time>
      </trkpt>
      <trkpt lat="42.95329489745199680328369140625" lon="-7.7818033285439014434814453125">
        <ele>566.79998779296875</ele>
        <time>2019-07-26T09:53:03.000Z</time>
      </trkpt>
      <trkpt lat="42.95331769622862339019775390625" lon="-7.7818090282380580902099609375">
        <ele>567.20001220703125</ele>
        <time>2019-07-26T09:53:04.000Z</time>
      </trkpt>
      <trkpt lat="42.953385002911090850830078125" lon="-7.7818807773292064666748046875">
        <ele>568.20001220703125</ele>
        <time>2019-07-26T09:53:08.000Z</time>
      </trkpt>
      <trkpt lat="42.9534032754600048065185546875" lon="-7.7818995527923107147216796875">
        <ele>568.5999755859375</ele>
        <time>2019-07-26T09:53:09.000Z</time>
      </trkpt>
      <trkpt lat="42.9534582607448101043701171875" lon="-7.78195143677294254302978515625">
        <ele>569.4000244140625</ele>
        <time>2019-07-26T09:53:12.000Z</time>
      </trkpt>
      <trkpt lat="42.95353109948337078094482421875" lon="-7.78201480396091938018798828125">
        <ele>570.79998779296875</ele>
        <time>2019-07-26T09:53:16.000Z</time>
      </trkpt>
      <trkpt lat="42.95357401482760906219482421875" lon="-7.78208387084305286407470703125">
        <ele>571.79998779296875</ele>
        <time>2019-07-26T09:53:19.000Z</time>
      </trkpt>
      <trkpt lat="42.95357577502727508544921875" lon="-7.7821121178567409515380859375">
        <ele>572.4000244140625</ele>
        <time>2019-07-26T09:53:20.000Z</time>
      </trkpt>
      <trkpt lat="42.95356831513345241546630859375" lon="-7.78213977813720703125">
        <ele>572.5999755859375</ele>
        <time>2019-07-26T09:53:21.000Z</time>
      </trkpt>
      <trkpt lat="42.95355699956417083740234375" lon="-7.78216869570314884185791015625">
        <ele>573</ele>
        <time>2019-07-26T09:53:22.000Z</time>
      </trkpt>
      <trkpt lat="42.9535088874399662017822265625" lon="-7.78225318528711795806884765625">
        <ele>574.20001220703125</ele>
        <time>2019-07-26T09:53:26.000Z</time>
      </trkpt>
      <trkpt lat="42.95349237509071826934814453125" lon="-7.7822670154273509979248046875">
        <ele>574.5999755859375</ele>
        <time>2019-07-26T09:53:27.000Z</time>
      </trkpt>
      <trkpt lat="42.95344007201492786407470703125" lon="-7.7823038958013057708740234375">
        <ele>575</ele>
        <time>2019-07-26T09:53:30.000Z</time>
      </trkpt>
      <trkpt lat="42.953425236046314239501953125" lon="-7.78231881558895111083984375">
        <ele>575.20001220703125</ele>
        <time>2019-07-26T09:53:31.000Z</time>
      </trkpt>
      <trkpt lat="42.953354828059673309326171875" lon="-7.78238846920430660247802734375">
        <ele>575.5999755859375</ele>
        <time>2019-07-26T09:53:35.000Z</time>
      </trkpt>
      <trkpt lat="42.95322733931243419647216796875" lon="-7.78247128240764141082763671875">
        <ele>576.4000244140625</ele>
        <time>2019-07-26T09:53:40.000Z</time>
      </trkpt>
      <trkpt lat="42.9531781375408172607421875" lon="-7.78250866569578647613525390625">
        <ele>576.5999755859375</ele>
        <time>2019-07-26T09:53:42.000Z</time>
      </trkpt>
      <trkpt lat="42.9531021974980831146240234375" lon="-7.78255359269678592681884765625">
        <ele>577</ele>
        <time>2019-07-26T09:53:45.000Z</time>
      </trkpt>
      <trkpt lat="42.95305567793548107147216796875" lon="-7.78259583748877048492431640625">
        <ele>577</ele>
        <time>2019-07-26T09:53:47.000Z</time>
      </trkpt>
      <trkpt lat="42.953022904694080352783203125" lon="-7.782619893550872802734375">
        <ele>577</ele>
        <time>2019-07-26T09:53:48.000Z</time>
      </trkpt>
      <trkpt lat="42.95291787944734096527099609375" lon="-7.782754339277744293212890625">
        <ele>577.20001220703125</ele>
        <time>2019-07-26T09:53:52.000Z</time>
      </trkpt>
      <trkpt lat="42.95290790498256683349609375" lon="-7.7828064747154712677001953125">
        <ele>577.4000244140625</ele>
        <time>2019-07-26T09:53:53.000Z</time>
      </trkpt>
      <trkpt lat="42.9529037140309810638427734375" lon="-7.78292105533182621002197265625">
        <ele>577.4000244140625</ele>
        <time>2019-07-26T09:53:55.000Z</time>
      </trkpt>
      <trkpt lat="42.95292542316019535064697265625" lon="-7.7831021882593631744384765625">
        <ele>577.4000244140625</ele>
        <time>2019-07-26T09:53:58.000Z</time>
      </trkpt>
      <trkpt lat="42.95298996381461620330810546875" lon="-7.7832792140543460845947265625">
        <ele>577.4000244140625</ele>
        <time>2019-07-26T09:54:01.000Z</time>
      </trkpt>
      <trkpt lat="42.9530324600636959075927734375" lon="-7.7833999134600162506103515625">
        <ele>577.4000244140625</ele>
        <time>2019-07-26T09:54:03.000Z</time>
      </trkpt>
      <trkpt lat="42.95308283530175685882568359375" lon="-7.783516086637973785400390625">
        <ele>577.4000244140625</ele>
        <time>2019-07-26T09:54:05.000Z</time>
      </trkpt>
      <trkpt lat="42.95316531322896480560302734375" lon="-7.78370811603963375091552734375">
        <ele>577.20001220703125</ele>
        <time>2019-07-26T09:54:08.000Z</time>
      </trkpt>
      <trkpt lat="42.9532262496650218963623046875" lon="-7.78384641744196414947509765625">
        <ele>577</ele>
        <time>2019-07-26T09:54:10.000Z</time>
      </trkpt>
      <trkpt lat="42.9532919637858867645263671875" lon="-7.7839869819581508636474609375">
        <ele>576.5999755859375</ele>
        <time>2019-07-26T09:54:12.000Z</time>
      </trkpt>
      <trkpt lat="42.9533533193171024322509765625" lon="-7.78413156978785991668701171875">
        <ele>576.4000244140625</ele>
        <time>2019-07-26T09:54:14.000Z</time>
      </trkpt>
      <trkpt lat="42.9534136690199375152587890625" lon="-7.784272469580173492431640625">
        <ele>576.20001220703125</ele>
        <time>2019-07-26T09:54:16.000Z</time>
      </trkpt>
      <trkpt lat="42.95347862876951694488525390625" lon="-7.78441856615245342254638671875">
        <ele>575.79998779296875</ele>
        <time>2019-07-26T09:54:18.000Z</time>
      </trkpt>
      <trkpt lat="42.95357309281826019287109375" lon="-7.7846337296068668365478515625">
        <ele>575.5999755859375</ele>
        <time>2019-07-26T09:54:21.000Z</time>
      </trkpt>
      <trkpt lat="42.95366420410573482513427734375" lon="-7.7848590351641178131103515625">
        <ele>575</ele>
        <time>2019-07-26T09:54:24.000Z</time>
      </trkpt>
      <trkpt lat="42.95369186438620090484619140625" lon="-7.7849411778151988983154296875">
        <ele>574.79998779296875</ele>
        <time>2019-07-26T09:54:25.000Z</time>
      </trkpt>
      <trkpt lat="42.953716926276683807373046875" lon="-7.78502256609499454498291015625">
        <ele>574.4000244140625</ele>
        <time>2019-07-26T09:54:26.000Z</time>
      </trkpt>
      <trkpt lat="42.95373930595815181732177734375" lon="-7.78511711396276950836181640625">
        <ele>574.20001220703125</ele>
        <time>2019-07-26T09:54:27.000Z</time>
      </trkpt>
      <trkpt lat="42.953781969845294952392578125" lon="-7.78531911782920360565185546875">
        <ele>573.5999755859375</ele>
        <time>2019-07-26T09:54:29.000Z</time>
      </trkpt>
      <trkpt lat="42.9537978954613208770751953125" lon="-7.7854296751320362091064453125">
        <ele>573.4000244140625</ele>
        <time>2019-07-26T09:54:30.000Z</time>
      </trkpt>
      <trkpt lat="42.95384894125163555145263671875" lon="-7.78578883968293666839599609375">
        <ele>572.4000244140625</ele>
        <time>2019-07-26T09:54:33.000Z</time>
      </trkpt>
      <trkpt lat="42.95388582162559032440185546875" lon="-7.78602839447557926177978515625">
        <ele>571.5999755859375</ele>
        <time>2019-07-26T09:54:35.000Z</time>
      </trkpt>
      <trkpt lat="42.95390359126031398773193359375" lon="-7.786132581532001495361328125">
        <ele>571.20001220703125</ele>
        <time>2019-07-26T09:54:36.000Z</time>
      </trkpt>
      <trkpt lat="42.953913398087024688720703125" lon="-7.78622352518141269683837890625">
        <ele>570.79998779296875</ele>
        <time>2019-07-26T09:54:37.000Z</time>
      </trkpt>
      <trkpt lat="42.95389361679553985595703125" lon="-7.78631069697439670562744140625">
        <ele>570.20001220703125</ele>
        <time>2019-07-26T09:54:38.000Z</time>
      </trkpt>
      <trkpt lat="42.95385765843093395233154296875" lon="-7.78638504445552825927734375">
        <ele>569.5999755859375</ele>
        <time>2019-07-26T09:54:39.000Z</time>
      </trkpt>
      <trkpt lat="42.95375145971775054931640625" lon="-7.78651513159275054931640625">
        <ele>568.4000244140625</ele>
        <time>2019-07-26T09:54:41.000Z</time>
      </trkpt>
      <trkpt lat="42.95358591713011264801025390625" lon="-7.78662736527621746063232421875">
        <ele>566.4000244140625</ele>
        <time>2019-07-26T09:54:43.000Z</time>
      </trkpt>
      <trkpt lat="42.953500337898731231689453125" lon="-7.7866712026298046112060546875">
        <ele>565</ele>
        <time>2019-07-26T09:54:44.000Z</time>
      </trkpt>
      <trkpt lat="42.95341827906668186187744140625" lon="-7.786713279783725738525390625">
        <ele>563.79998779296875</ele>
        <time>2019-07-26T09:54:45.000Z</time>
      </trkpt>
      <trkpt lat="42.9533471167087554931640625" lon="-7.786766588687896728515625">
        <ele>562.5999755859375</ele>
        <time>2019-07-26T09:54:46.000Z</time>
      </trkpt>
      <trkpt lat="42.9532983340322971343994140625" lon="-7.786838673055171966552734375">
        <ele>561.5999755859375</ele>
        <time>2019-07-26T09:54:47.000Z</time>
      </trkpt>
      <trkpt lat="42.95327159576117992401123046875" lon="-7.786935903131961822509765625">
        <ele>560.5999755859375</ele>
        <time>2019-07-26T09:54:48.000Z</time>
      </trkpt>
      <trkpt lat="42.9532611183822154998779296875" lon="-7.78704763390123844146728515625">
        <ele>559.79998779296875</ele>
        <time>2019-07-26T09:54:49.000Z</time>
      </trkpt>
      <trkpt lat="42.9532795585691928863525390625" lon="-7.78717369772493839263916015625">
        <ele>558.79998779296875</ele>
        <time>2019-07-26T09:54:50.000Z</time>
      </trkpt>
      <trkpt lat="42.953292466700077056884765625" lon="-7.78731711208820343017578125">
        <ele>557.5999755859375</ele>
        <time>2019-07-26T09:54:51.000Z</time>
      </trkpt>
      <trkpt lat="42.95330495573580265045166015625" lon="-7.78746555559337139129638671875">
        <ele>556.4000244140625</ele>
        <time>2019-07-26T09:54:52.000Z</time>
      </trkpt>
      <trkpt lat="42.9533135890960693359375" lon="-7.78762280009686946868896484375">
        <ele>555.20001220703125</ele>
        <time>2019-07-26T09:54:53.000Z</time>
      </trkpt>
      <trkpt lat="42.95331828296184539794921875" lon="-7.7877890132367610931396484375">
        <ele>553.4000244140625</ele>
        <time>2019-07-26T09:54:54.000Z</time>
      </trkpt>
      <trkpt lat="42.95331970788538455963134765625" lon="-7.7879559807479381561279296875">
        <ele>552</ele>
        <time>2019-07-26T09:54:55.000Z</time>
      </trkpt>
      <trkpt lat="42.95331032015383243560791015625" lon="-7.78812051750719547271728515625">
        <ele>550.79998779296875</ele>
        <time>2019-07-26T09:54:56.000Z</time>
      </trkpt>
      <trkpt lat="42.953286431729793548583984375" lon="-7.788281701505184173583984375">
        <ele>549.5999755859375</ele>
        <time>2019-07-26T09:54:57.000Z</time>
      </trkpt>
      <trkpt lat="42.95320537872612476348876953125" lon="-7.78859250247478485107421875">
        <ele>547.5999755859375</ele>
        <time>2019-07-26T09:54:59.000Z</time>
      </trkpt>
      <trkpt lat="42.9531658999621868133544921875" lon="-7.7887445501983165740966796875">
        <ele>546.20001220703125</ele>
        <time>2019-07-26T09:55:00.000Z</time>
      </trkpt>
      <trkpt lat="42.95313061214983463287353515625" lon="-7.78889022767543792724609375">
        <ele>544.5999755859375</ele>
        <time>2019-07-26T09:55:01.000Z</time>
      </trkpt>
      <trkpt lat="42.9530884511768817901611328125" lon="-7.78902408666908740997314453125">
        <ele>543.5999755859375</ele>
        <time>2019-07-26T09:55:02.000Z</time>
      </trkpt>
      <trkpt lat="42.9530448652803897857666015625" lon="-7.78913992457091808319091796875">
        <ele>542.4000244140625</ele>
        <time>2019-07-26T09:55:03.000Z</time>
      </trkpt>
      <trkpt lat="42.95299105346202850341796875" lon="-7.78922952711582183837890625">
        <ele>541.4000244140625</ele>
        <time>2019-07-26T09:55:04.000Z</time>
      </trkpt>
      <trkpt lat="42.95286339707672595977783203125" lon="-7.78933279216289520263671875">
        <ele>538.20001220703125</ele>
        <time>2019-07-26T09:55:06.000Z</time>
      </trkpt>
      <trkpt lat="42.952707074582576751708984375" lon="-7.7893939800560474395751953125">
        <ele>536.20001220703125</ele>
        <time>2019-07-26T09:55:08.000Z</time>
      </trkpt>
      <trkpt lat="42.95263507403433322906494140625" lon="-7.7894298546016216278076171875">
        <ele>534.79998779296875</ele>
        <time>2019-07-26T09:55:09.000Z</time>
      </trkpt>
      <trkpt lat="42.95254672877490520477294921875" lon="-7.78947536833584308624267578125">
        <ele>533.4000244140625</ele>
        <time>2019-07-26T09:55:10.000Z</time>
      </trkpt>
      <trkpt lat="42.95245536603033542633056640625" lon="-7.7895118296146392822265625">
        <ele>531.79998779296875</ele>
        <time>2019-07-26T09:55:11.000Z</time>
      </trkpt>
      <trkpt lat="42.95236266218125820159912109375" lon="-7.78953957371413707733154296875">
        <ele>530.4000244140625</ele>
        <time>2019-07-26T09:55:12.000Z</time>
      </trkpt>
      <trkpt lat="42.95226559974253177642822265625" lon="-7.78957611881196498870849609375">
        <ele>528.79998779296875</ele>
        <time>2019-07-26T09:55:13.000Z</time>
      </trkpt>
      <trkpt lat="42.95207449235022068023681640625" lon="-7.7896115742623805999755859375">
        <ele>527.20001220703125</ele>
        <time>2019-07-26T09:55:15.000Z</time>
      </trkpt>
      <trkpt lat="42.95198597945272922515869140625" lon="-7.789639569818973541259765625">
        <ele>526.5999755859375</ele>
        <time>2019-07-26T09:55:16.000Z</time>
      </trkpt>
      <trkpt lat="42.95191540382802486419677734375" lon="-7.78969581238925457000732421875">
        <ele>525.79998779296875</ele>
        <time>2019-07-26T09:55:17.000Z</time>
      </trkpt>
      <trkpt lat="42.95185974799096584320068359375" lon="-7.78976202942430973052978515625">
        <ele>524.79998779296875</ele>
        <time>2019-07-26T09:55:18.000Z</time>
      </trkpt>
      <trkpt lat="42.951824963092803955078125" lon="-7.78983009047806262969970703125">
        <ele>523.79998779296875</ele>
        <time>2019-07-26T09:55:19.000Z</time>
      </trkpt>
      <trkpt lat="42.951771318912506103515625" lon="-7.789949364960193634033203125">
        <ele>522.4000244140625</ele>
        <time>2019-07-26T09:55:21.000Z</time>
      </trkpt>
      <trkpt lat="42.95174726285040378570556640625" lon="-7.79000979848206043243408203125">
        <ele>522.20001220703125</ele>
        <time>2019-07-26T09:55:22.000Z</time>
      </trkpt>
      <trkpt lat="42.95172379352152347564697265625" lon="-7.790068723261356353759765625">
        <ele>522</ele>
        <time>2019-07-26T09:55:23.000Z</time>
      </trkpt>
      <trkpt lat="42.9516789503395557403564453125" lon="-7.7901775203645229339599609375">
        <ele>522</ele>
        <time>2019-07-26T09:55:25.000Z</time>
      </trkpt>
      <trkpt lat="42.95166109688580036163330078125" lon="-7.79022538103163242340087890625">
        <ele>522</ele>
        <time>2019-07-26T09:55:26.000Z</time>
      </trkpt>
      <trkpt lat="42.951627485454082489013671875" lon="-7.7903163246810436248779296875">
        <ele>522</ele>
        <time>2019-07-26T09:55:28.000Z</time>
      </trkpt>
      <trkpt lat="42.95159571804106235504150390625" lon="-7.790403999388217926025390625">
        <ele>522</ele>
        <time>2019-07-26T09:55:30.000Z</time>
      </trkpt>
      <trkpt lat="42.9515642859041690826416015625" lon="-7.79048823751509189605712890625">
        <ele>522.20001220703125</ele>
        <time>2019-07-26T09:55:32.000Z</time>
      </trkpt>
      <trkpt lat="42.9515393078327178955078125" lon="-7.79057691805064678192138671875">
        <ele>523</ele>
        <time>2019-07-26T09:55:34.000Z</time>
      </trkpt>
      <trkpt lat="42.9514935426414012908935546875" lon="-7.79071337543427944183349609375">
        <ele>523.4000244140625</ele>
        <time>2019-07-26T09:55:37.000Z</time>
      </trkpt>
      <trkpt lat="42.9514603503048419952392578125" lon="-7.79080121777951717376708984375">
        <ele>523.79998779296875</ele>
        <time>2019-07-26T09:55:39.000Z</time>
      </trkpt>
      <trkpt lat="42.95139974914491176605224609375" lon="-7.7909701131284236907958984375">
        <ele>524.5999755859375</ele>
        <time>2019-07-26T09:55:43.000Z</time>
      </trkpt>
      <trkpt lat="42.95138415880501270294189453125" lon="-7.7910988591611385345458984375">
        <ele>525.20001220703125</ele>
        <time>2019-07-26T09:55:46.000Z</time>
      </trkpt>
      <trkpt lat="42.95138843357563018798828125" lon="-7.791267000138759613037109375">
        <ele>525.79998779296875</ele>
        <time>2019-07-26T09:55:50.000Z</time>
      </trkpt>
      <trkpt lat="42.95140008442103862762451171875" lon="-7.79142147861421108245849609375">
        <ele>526.5999755859375</ele>
        <time>2019-07-26T09:55:54.000Z</time>
      </trkpt>
      <trkpt lat="42.95140712521970272064208984375" lon="-7.79149423353374004364013671875">
        <ele>527</ele>
        <time>2019-07-26T09:55:56.000Z</time>
      </trkpt>
      <trkpt lat="42.95143478550016880035400390625" lon="-7.79163454659283161163330078125">
        <ele>528</ele>
        <time>2019-07-26T09:56:00.000Z</time>
      </trkpt>
      <trkpt lat="42.95144744217395782470703125" lon="-7.79171098954975605010986328125">
        <ele>528.79998779296875</ele>
        <time>2019-07-26T09:56:02.000Z</time>
      </trkpt>
      <trkpt lat="42.95144836418330669403076171875" lon="-7.79175306670367717742919921875">
        <ele>529.20001220703125</ele>
        <time>2019-07-26T09:56:03.000Z</time>
      </trkpt>
      <trkpt lat="42.95147426426410675048828125" lon="-7.79191173613071441650390625">
        <ele>530.20001220703125</ele>
        <time>2019-07-26T09:56:07.000Z</time>
      </trkpt>
      <trkpt lat="42.95148155651986598968505859375" lon="-7.79194937087595462799072265625">
        <ele>530.5999755859375</ele>
        <time>2019-07-26T09:56:08.000Z</time>
      </trkpt>
      <trkpt lat="42.95149764977395534515380859375" lon="-7.7920175157487392425537109375">
        <ele>531.20001220703125</ele>
        <time>2019-07-26T09:56:10.000Z</time>
      </trkpt>
      <trkpt lat="42.9515404812991619110107421875" lon="-7.79215179383754730224609375">
        <ele>532.5999755859375</ele>
        <time>2019-07-26T09:56:14.000Z</time>
      </trkpt>
      <trkpt lat="42.9515956342220306396484375" lon="-7.7923263050615787506103515625">
        <ele>533.79998779296875</ele>
        <time>2019-07-26T09:56:19.000Z</time>
      </trkpt>
      <trkpt lat="42.95160359703004360198974609375" lon="-7.79236276634037494659423828125">
        <ele>534</ele>
        <time>2019-07-26T09:56:20.000Z</time>
      </trkpt>
      <trkpt lat="42.951624803245067596435546875" lon="-7.79246988706290721893310546875">
        <ele>534.79998779296875</ele>
        <time>2019-07-26T09:56:23.000Z</time>
      </trkpt>
      <trkpt lat="42.95166059397161006927490234375" lon="-7.79264540411531925201416015625">
        <ele>536</ele>
        <time>2019-07-26T09:56:28.000Z</time>
      </trkpt>
      <trkpt lat="42.951673083007335662841796875" lon="-7.79267524369060993194580078125">
        <ele>536.20001220703125</ele>
        <time>2019-07-26T09:56:29.000Z</time>
      </trkpt>
      <trkpt lat="42.95171239413321018218994140625" lon="-7.7928282134234905242919921875">
        <ele>537.20001220703125</ele>
        <time>2019-07-26T09:56:33.000Z</time>
      </trkpt>
      <trkpt lat="42.951728738844394683837890625" lon="-7.79291882179677486419677734375">
        <ele>537.5999755859375</ele>
        <time>2019-07-26T09:56:35.000Z</time>
      </trkpt>
      <trkpt lat="42.95174960978329181671142578125" lon="-7.79306106269359588623046875">
        <ele>538.20001220703125</ele>
        <time>2019-07-26T09:56:38.000Z</time>
      </trkpt>
      <trkpt lat="42.95177425257861614227294921875" lon="-7.79328770935535430908203125">
        <ele>539.20001220703125</ele>
        <time>2019-07-26T09:56:43.000Z</time>
      </trkpt>
      <trkpt lat="42.9517765156924724578857421875" lon="-7.79333054088056087493896484375">
        <ele>539.20001220703125</ele>
        <time>2019-07-26T09:56:44.000Z</time>
      </trkpt>
      <trkpt lat="42.9517315886914730072021484375" lon="-7.79360295273363590240478515625">
        <ele>539.5999755859375</ele>
        <time>2019-07-26T09:56:50.000Z</time>
      </trkpt>
      <trkpt lat="42.95168071053922176361083984375" lon="-7.79382524080574512481689453125">
        <ele>540.20001220703125</ele>
        <time>2019-07-26T09:56:55.000Z</time>
      </trkpt>
      <trkpt lat="42.9516591690480709075927734375" lon="-7.79405306093394756317138671875">
        <ele>541</ele>
        <time>2019-07-26T09:57:00.000Z</time>
      </trkpt>
      <trkpt lat="42.9516286589205265045166015625" lon="-7.79418784193694591522216796875">
        <ele>541.4000244140625</ele>
        <time>2019-07-26T09:57:03.000Z</time>
      </trkpt>
      <trkpt lat="42.9515874199569225311279296875" lon="-7.79440778307616710662841796875">
        <ele>542.20001220703125</ele>
        <time>2019-07-26T09:57:08.000Z</time>
      </trkpt>
      <trkpt lat="42.95157350599765777587890625" lon="-7.79449210502207279205322265625">
        <ele>542.4000244140625</ele>
        <time>2019-07-26T09:57:10.000Z</time>
      </trkpt>
      <trkpt lat="42.9514995776116847991943359375" lon="-7.79478999786078929901123046875">
        <ele>543.4000244140625</ele>
        <time>2019-07-26T09:57:17.000Z</time>
      </trkpt>
      <trkpt lat="42.951492369174957275390625" lon="-7.79483157210052013397216796875">
        <ele>543.5999755859375</ele>
        <time>2019-07-26T09:57:18.000Z</time>
      </trkpt>
      <trkpt lat="42.95145959593355655670166015625" lon="-7.79503474943339824676513671875">
        <ele>544.5999755859375</ele>
        <time>2019-07-26T09:57:23.000Z</time>
      </trkpt>
      <trkpt lat="42.9514643736183643341064453125" lon="-7.7952230907976627349853515625">
        <ele>545.79998779296875</ele>
        <time>2019-07-26T09:57:28.000Z</time>
      </trkpt>
      <trkpt lat="42.95147962868213653564453125" lon="-7.79528654180467128753662109375">
        <ele>546</ele>
        <time>2019-07-26T09:57:30.000Z</time>
      </trkpt>
      <trkpt lat="42.9514891840517520904541015625" lon="-7.7954314649105072021484375">
        <ele>546.79998779296875</ele>
        <time>2019-07-26T09:57:34.000Z</time>
      </trkpt>
      <trkpt lat="42.95148205943405628204345703125" lon="-7.7955006994307041168212890625">
        <ele>547.20001220703125</ele>
        <time>2019-07-26T09:57:36.000Z</time>
      </trkpt>
      <trkpt lat="42.951474599540233612060546875" lon="-7.795637659728527069091796875">
        <ele>548.20001220703125</ele>
        <time>2019-07-26T09:57:40.000Z</time>
      </trkpt>
      <trkpt lat="42.95144744217395782470703125" lon="-7.7957447804510593414306640625">
        <ele>548.79998779296875</ele>
        <time>2019-07-26T09:57:43.000Z</time>
      </trkpt>
      <trkpt lat="42.95143713243305683135986328125" lon="-7.79581409879028797149658203125">
        <ele>549.4000244140625</ele>
        <time>2019-07-26T09:57:45.000Z</time>
      </trkpt>
      <trkpt lat="42.9514278285205364227294921875" lon="-7.795984335243701934814453125">
        <ele>550.5999755859375</ele>
        <time>2019-07-26T09:57:50.000Z</time>
      </trkpt>
      <trkpt lat="42.95143327675759792327880859375" lon="-7.79615725390613079071044921875">
        <ele>551.79998779296875</ele>
        <time>2019-07-26T09:57:55.000Z</time>
      </trkpt>
      <trkpt lat="42.9514341987669467926025390625" lon="-7.79623151756823062896728515625">
        <ele>552.20001220703125</ele>
        <time>2019-07-26T09:57:57.000Z</time>
      </trkpt>
      <trkpt lat="42.95144920237362384796142578125" lon="-7.79637895524501800537109375">
        <ele>553</ele>
        <time>2019-07-26T09:58:01.000Z</time>
      </trkpt>
      <trkpt lat="42.95146680437028408050537109375" lon="-7.7965128980576992034912109375">
        <ele>553.79998779296875</ele>
        <time>2019-07-26T09:58:05.000Z</time>
      </trkpt>
      <trkpt lat="42.95145708136260509490966796875" lon="-7.7965839765965938568115234375">
        <ele>554</ele>
        <time>2019-07-26T09:58:07.000Z</time>
      </trkpt>
      <trkpt lat="42.95146529562771320343017578125" lon="-7.796688079833984375">
        <ele>554.5999755859375</ele>
        <time>2019-07-26T09:58:10.000Z</time>
      </trkpt>
      <trkpt lat="42.951472587883472442626953125" lon="-7.7967918477952480316162109375">
        <ele>555.20001220703125</ele>
        <time>2019-07-26T09:58:13.000Z</time>
      </trkpt>
      <trkpt lat="42.9514774493873119354248046875" lon="-7.79693911783397197723388671875">
        <ele>556.20001220703125</ele>
        <time>2019-07-26T09:58:17.000Z</time>
      </trkpt>
      <trkpt lat="42.9514804668724536895751953125" lon="-7.79701639898121356964111328125">
        <ele>556.79998779296875</ele>
        <time>2019-07-26T09:58:19.000Z</time>
      </trkpt>
      <trkpt lat="42.95148272998631000518798828125" lon="-7.79716375283896923065185546875">
        <ele>557.4000244140625</ele>
        <time>2019-07-26T09:58:23.000Z</time>
      </trkpt>
      <trkpt lat="42.951500080525875091552734375" lon="-7.797365002334117889404296875">
        <ele>558.20001220703125</ele>
        <time>2019-07-26T09:58:28.000Z</time>
      </trkpt>
      <trkpt lat="42.951503098011016845703125" lon="-7.797413282096385955810546875">
        <ele>558.4000244140625</ele>
        <time>2019-07-26T09:58:29.000Z</time>
      </trkpt>
      <trkpt lat="42.951512821018695831298828125" lon="-7.79764764010906219482421875">
        <ele>559.20001220703125</ele>
        <time>2019-07-26T09:58:34.000Z</time>
      </trkpt>
      <trkpt lat="42.95152681879699230194091796875" lon="-7.7977416850626468658447265625">
        <ele>559.4000244140625</ele>
        <time>2019-07-26T09:58:36.000Z</time>
      </trkpt>
      <trkpt lat="42.9515629447996616363525390625" lon="-7.79806380160152912139892578125">
        <ele>560</ele>
        <time>2019-07-26T09:58:42.000Z</time>
      </trkpt>
      <trkpt lat="42.95157090760767459869384765625" lon="-7.79822322539985179901123046875">
        <ele>560.4000244140625</ele>
        <time>2019-07-26T09:58:45.000Z</time>
      </trkpt>
      <trkpt lat="42.95155498199164867401123046875" lon="-7.798451296985149383544921875">
        <ele>560.5999755859375</ele>
        <time>2019-07-26T09:58:49.000Z</time>
      </trkpt>
      <trkpt lat="42.9515726678073406219482421875" lon="-7.79877441935241222381591796875">
        <ele>560.79998779296875</ele>
        <time>2019-07-26T09:58:55.000Z</time>
      </trkpt>
      <trkpt lat="42.951573841273784637451171875" lon="-7.7989376150071620941162109375">
        <ele>561.20001220703125</ele>
        <time>2019-07-26T09:58:58.000Z</time>
      </trkpt>
      <trkpt lat="42.9515669681131839752197265625" lon="-7.79910550452768802642822265625">
        <ele>561.4000244140625</ele>
        <time>2019-07-26T09:59:01.000Z</time>
      </trkpt>
      <trkpt lat="42.95157409273087978363037109375" lon="-7.79920558445155620574951171875">
        <ele>561.5999755859375</ele>
        <time>2019-07-26T09:59:03.000Z</time>
      </trkpt>
      <trkpt lat="42.95156420208513736724853515625" lon="-7.7993721328675746917724609375">
        <ele>561.79998779296875</ele>
        <time>2019-07-26T09:59:06.000Z</time>
      </trkpt>
      <trkpt lat="42.95154911465942859649658203125" lon="-7.7996356599032878875732421875">
        <ele>562.20001220703125</ele>
        <time>2019-07-26T09:59:11.000Z</time>
      </trkpt>
      <trkpt lat="42.951532267034053802490234375" lon="-7.7997714467346668243408203125">
        <ele>562.5999755859375</ele>
        <time>2019-07-26T09:59:14.000Z</time>
      </trkpt>
      <trkpt lat="42.951536290347576141357421875" lon="-7.79990497045218944549560546875">
        <ele>563</ele>
        <time>2019-07-26T09:59:17.000Z</time>
      </trkpt>
      <trkpt lat="42.95157828368246555328369140625" lon="-7.80009825713932514190673828125">
        <ele>563.5999755859375</ele>
        <time>2019-07-26T09:59:22.000Z</time>
      </trkpt>
      <trkpt lat="42.95158666558563709259033203125" lon="-7.80041593126952648162841796875">
        <ele>564.5999755859375</ele>
        <time>2019-07-26T09:59:30.000Z</time>
      </trkpt>
      <trkpt lat="42.951587252318859100341796875" lon="-7.80050209723412990570068359375">
        <ele>564.79998779296875</ele>
        <time>2019-07-26T09:59:32.000Z</time>
      </trkpt>
      <trkpt lat="42.9515894316136837005615234375" lon="-7.800682894885540008544921875">
        <ele>565.4000244140625</ele>
        <time>2019-07-26T09:59:36.000Z</time>
      </trkpt>
      <trkpt lat="42.951589263975620269775390625" lon="-7.80083888210356235504150390625">
        <ele>565.79998779296875</ele>
        <time>2019-07-26T09:59:39.000Z</time>
      </trkpt>
      <trkpt lat="42.9515780322253704071044921875" lon="-7.801053039729595184326171875">
        <ele>566.20001220703125</ele>
        <time>2019-07-26T09:59:43.000Z</time>
      </trkpt>
      <trkpt lat="42.95157350599765777587890625" lon="-7.8011123836040496826171875">
        <ele>566.20001220703125</ele>
        <time>2019-07-26T09:59:44.000Z</time>
      </trkpt>
      <trkpt lat="42.95154131948947906494140625" lon="-7.80141882598400115966796875">
        <ele>566.4000244140625</ele>
        <time>2019-07-26T09:59:49.000Z</time>
      </trkpt>
      <trkpt lat="42.9515210352838039398193359375" lon="-7.8014783374965190887451171875">
        <ele>566.4000244140625</ele>
        <time>2019-07-26T09:59:50.000Z</time>
      </trkpt>
      <trkpt lat="42.951388098299503326416015625" lon="-7.80183188617229461669921875">
        <ele>566.4000244140625</ele>
        <time>2019-07-26T09:59:55.000Z</time>
      </trkpt>
      <trkpt lat="42.951262705028057098388671875" lon="-7.802116870880126953125">
        <ele>566</ele>
        <time>2019-07-26T09:59:59.000Z</time>
      </trkpt>
      <trkpt lat="42.95123630203306674957275390625" lon="-7.80218618921935558319091796875">
        <ele>566</ele>
        <time>2019-07-26T10:00:00.000Z</time>
      </trkpt>
      <trkpt lat="42.95107939280569553375244140625" lon="-7.80255750752985477447509765625">
        <ele>565.5999755859375</ele>
        <time>2019-07-26T10:00:05.000Z</time>
      </trkpt>
      <trkpt lat="42.9509651474654674530029296875" lon="-7.8028623573482036590576171875">
        <ele>564.79998779296875</ele>
        <time>2019-07-26T10:00:09.000Z</time>
      </trkpt>
      <trkpt lat="42.95094209723174571990966796875" lon="-7.802935950458049774169921875">
        <ele>564.5999755859375</ele>
        <time>2019-07-26T10:00:10.000Z</time>
      </trkpt>
      <trkpt lat="42.95088208280503749847412109375" lon="-7.80317089520394802093505859375">
        <ele>564.20001220703125</ele>
        <time>2019-07-26T10:00:13.000Z</time>
      </trkpt>
      <trkpt lat="42.9508648999035358428955078125" lon="-7.8032425604760646820068359375">
        <ele>564.20001220703125</ele>
        <time>2019-07-26T10:00:14.000Z</time>
      </trkpt>
      <trkpt lat="42.9508441127836704254150390625" lon="-7.8033149801194667816162109375">
        <ele>563.79998779296875</ele>
        <time>2019-07-26T10:00:15.000Z</time>
      </trkpt>
      <trkpt lat="42.950824163854122161865234375" lon="-7.803391255438327789306640625">
        <ele>563.5999755859375</ele>
        <time>2019-07-26T10:00:16.000Z</time>
      </trkpt>
      <trkpt lat="42.9507936537265777587890625" lon="-7.80356836505234241485595703125">
        <ele>563.20001220703125</ele>
        <time>2019-07-26T10:00:18.000Z</time>
      </trkpt>
      <trkpt lat="42.9507856070995330810546875" lon="-7.8036596439778804779052734375">
        <ele>563.20001220703125</ele>
        <time>2019-07-26T10:00:19.000Z</time>
      </trkpt>
      <trkpt lat="42.95078518800437450408935546875" lon="-7.8037521801888942718505859375">
        <ele>563</ele>
        <time>2019-07-26T10:00:20.000Z</time>
      </trkpt>
      <trkpt lat="42.950789630413055419921875" lon="-7.8039349056780338287353515625">
        <ele>562.5999755859375</ele>
        <time>2019-07-26T10:00:22.000Z</time>
      </trkpt>
      <trkpt lat="42.9508124291896820068359375" lon="-7.8042088262736797332763671875">
        <ele>561.5999755859375</ele>
        <time>2019-07-26T10:00:25.000Z</time>
      </trkpt>
      <trkpt lat="42.95081385411322116851806640625" lon="-7.80430681072175502777099609375">
        <ele>561.20001220703125</ele>
        <time>2019-07-26T10:00:26.000Z</time>
      </trkpt>
      <trkpt lat="42.950855009257793426513671875" lon="-7.80457637272775173187255859375">
        <ele>560.20001220703125</ele>
        <time>2019-07-26T10:00:29.000Z</time>
      </trkpt>
      <trkpt lat="42.9508752934634685516357421875" lon="-7.8047405742108821868896484375">
        <ele>559.79998779296875</ele>
        <time>2019-07-26T10:00:31.000Z</time>
      </trkpt>
      <trkpt lat="42.9508741199970245361328125" lon="-7.8048213757574558258056640625">
        <ele>559.5999755859375</ele>
        <time>2019-07-26T10:00:32.000Z</time>
      </trkpt>
      <trkpt lat="42.95085961930453777313232421875" lon="-7.8050480224192142486572265625">
        <ele>559.20001220703125</ele>
        <time>2019-07-26T10:00:35.000Z</time>
      </trkpt>
      <trkpt lat="42.9508504830300807952880859375" lon="-7.80512002296745777130126953125">
        <ele>559</ele>
        <time>2019-07-26T10:00:36.000Z</time>
      </trkpt>
      <trkpt lat="42.95080480165779590606689453125" lon="-7.805316410958766937255859375">
        <ele>559</ele>
        <time>2019-07-26T10:00:39.000Z</time>
      </trkpt>
      <trkpt lat="42.950757443904876708984375" lon="-7.80549385584890842437744140625">
        <ele>559</ele>
        <time>2019-07-26T10:00:42.000Z</time>
      </trkpt>
      <trkpt lat="42.95072768814861774444580078125" lon="-7.80560969375073909759521484375">
        <ele>559</ele>
        <time>2019-07-26T10:00:44.000Z</time>
      </trkpt>
      <trkpt lat="42.95068703591823577880859375" lon="-7.8058560378849506378173828125">
        <ele>559.5999755859375</ele>
        <time>2019-07-26T10:00:48.000Z</time>
      </trkpt>
      <trkpt lat="42.95067907311022281646728515625" lon="-7.805914543569087982177734375">
        <ele>559.79998779296875</ele>
        <time>2019-07-26T10:00:49.000Z</time>
      </trkpt>
      <trkpt lat="42.950696758925914764404296875" lon="-7.80602677725255489349365234375">
        <ele>560.20001220703125</ele>
        <time>2019-07-26T10:00:51.000Z</time>
      </trkpt>
      <trkpt lat="42.95071410946547985076904296875" lon="-7.80607908032834529876708984375">
        <ele>560.5999755859375</ele>
        <time>2019-07-26T10:00:52.000Z</time>
      </trkpt>
      <trkpt lat="42.95073355548083782196044921875" lon="-7.806128449738025665283203125">
        <ele>560.79998779296875</ele>
        <time>2019-07-26T10:00:53.000Z</time>
      </trkpt>
      <trkpt lat="42.950748391449451446533203125" lon="-7.806179411709308624267578125">
        <ele>561</ele>
        <time>2019-07-26T10:00:54.000Z</time>
      </trkpt>
      <trkpt lat="42.95080094598233699798583984375" lon="-7.8063877858221530914306640625">
        <ele>561.4000244140625</ele>
        <time>2019-07-26T10:00:58.000Z</time>
      </trkpt>
      <trkpt lat="42.95088954269886016845703125" lon="-7.8066281788051128387451171875">
        <ele>562</ele>
        <time>2019-07-26T10:01:03.000Z</time>
      </trkpt>
      <trkpt lat="42.9509242437779903411865234375" lon="-7.8067250736057758331298828125">
        <ele>562.4000244140625</ele>
        <time>2019-07-26T10:01:05.000Z</time>
      </trkpt>
      <trkpt lat="42.95105307362973690032958984375" lon="-7.8070694021880626678466796875">
        <ele>563.4000244140625</ele>
        <time>2019-07-26T10:01:12.000Z</time>
      </trkpt>
      <trkpt lat="42.9510737769305706024169921875" lon="-7.80711910687386989593505859375">
        <ele>563.4000244140625</ele>
        <time>2019-07-26T10:01:13.000Z</time>
      </trkpt>
      <trkpt lat="42.951246611773967742919921875" lon="-7.807523198425769805908203125">
        <ele>563.4000244140625</ele>
        <time>2019-07-26T10:01:21.000Z</time>
      </trkpt>
      <trkpt lat="42.95136856846511363983154296875" lon="-7.80777859501540660858154296875">
        <ele>563.4000244140625</ele>
        <time>2019-07-26T10:01:27.000Z</time>
      </trkpt>
      <trkpt lat="42.9514714144170284271240234375" lon="-7.8079991228878498077392578125">
        <ele>563.79998779296875</ele>
        <time>2019-07-26T10:01:33.000Z</time>
      </trkpt>
      <trkpt lat="42.9515384696424007415771484375" lon="-7.8081317245960235595703125">
        <ele>564.4000244140625</ele>
        <time>2019-07-26T10:01:37.000Z</time>
      </trkpt>
      <trkpt lat="42.95154928229749202728271484375" lon="-7.8081758134067058563232421875">
        <ele>564.5999755859375</ele>
        <time>2019-07-26T10:01:38.000Z</time>
      </trkpt>
      <trkpt lat="42.95156185515224933624267578125" lon="-7.8084504045546054840087890625">
        <ele>565.20001220703125</ele>
        <time>2019-07-26T10:01:43.000Z</time>
      </trkpt>
      <trkpt lat="42.9515699855983257293701171875" lon="-7.80857026576995849609375">
        <ele>565.20001220703125</ele>
        <time>2019-07-26T10:01:45.000Z</time>
      </trkpt>
      <trkpt lat="42.95156805776059627532958984375" lon="-7.808695994317531585693359375">
        <ele>565.20001220703125</ele>
        <time>2019-07-26T10:01:47.000Z</time>
      </trkpt>
      <trkpt lat="42.95156302861869335174560546875" lon="-7.80883119441568851470947265625">
        <ele>565.20001220703125</ele>
        <time>2019-07-26T10:01:49.000Z</time>
      </trkpt>
      <trkpt lat="42.9515391401946544647216796875" lon="-7.809195555746555328369140625">
        <ele>565</ele>
        <time>2019-07-26T10:01:54.000Z</time>
      </trkpt>
      <trkpt lat="42.9515327699482440948486328125" lon="-7.809275686740875244140625">
        <ele>565</ele>
        <time>2019-07-26T10:01:55.000Z</time>
      </trkpt>
      <trkpt lat="42.9514539800584316253662109375" lon="-7.809738703072071075439453125">
        <ele>564.20001220703125</ele>
        <time>2019-07-26T10:02:00.000Z</time>
      </trkpt>
      <trkpt lat="42.951437048614025115966796875" lon="-7.8098394535481929779052734375">
        <ele>564</ele>
        <time>2019-07-26T10:02:01.000Z</time>
      </trkpt>
      <trkpt lat="42.95135758817195892333984375" lon="-7.8103638254106044769287109375">
        <ele>563.20001220703125</ele>
        <time>2019-07-26T10:02:06.000Z</time>
      </trkpt>
      <trkpt lat="42.9513302631676197052001953125" lon="-7.8105763904750347137451171875">
        <ele>562.79998779296875</ele>
        <time>2019-07-26T10:02:08.000Z</time>
      </trkpt>
      <trkpt lat="42.9512883536517620086669921875" lon="-7.81089842319488525390625">
        <ele>562</ele>
        <time>2019-07-26T10:02:11.000Z</time>
      </trkpt>
      <trkpt lat="42.9512544907629489898681640625" lon="-7.81111911870539188385009765625">
        <ele>561.5999755859375</ele>
        <time>2019-07-26T10:02:13.000Z</time>
      </trkpt>
      <trkpt lat="42.9512147605419158935546875" lon="-7.81146964989602565765380859375">
        <ele>561</ele>
        <time>2019-07-26T10:02:16.000Z</time>
      </trkpt>
      <trkpt lat="42.95117310248315334320068359375" lon="-7.81184733845293521881103515625">
        <ele>560</ele>
        <time>2019-07-26T10:02:19.000Z</time>
      </trkpt>
      <trkpt lat="42.9511549137532711029052734375" lon="-7.8119785152375698089599609375">
        <ele>559.4000244140625</ele>
        <time>2019-07-26T10:02:20.000Z</time>
      </trkpt>
      <trkpt lat="42.95112834312021732330322265625" lon="-7.81224095262587070465087890625">
        <ele>558.5999755859375</ele>
        <time>2019-07-26T10:02:22.000Z</time>
      </trkpt>
      <trkpt lat="42.951119206845760345458984375" lon="-7.8123711235821247100830078125">
        <ele>558</ele>
        <time>2019-07-26T10:02:23.000Z</time>
      </trkpt>
      <trkpt lat="42.95109808444976806640625" lon="-7.8126324713230133056640625">
        <ele>556.79998779296875</ele>
        <time>2019-07-26T10:02:25.000Z</time>
      </trkpt>
      <trkpt lat="42.95106790959835052490234375" lon="-7.81289943493902683258056640625">
        <ele>555.5999755859375</ele>
        <time>2019-07-26T10:02:27.000Z</time>
      </trkpt>
      <trkpt lat="42.95105743221938610076904296875" lon="-7.813033796846866607666015625">
        <ele>555</ele>
        <time>2019-07-26T10:02:28.000Z</time>
      </trkpt>
      <trkpt lat="42.95104318298399448394775390625" lon="-7.8131710924208164215087890625">
        <ele>554.5999755859375</ele>
        <time>2019-07-26T10:02:29.000Z</time>
      </trkpt>
      <trkpt lat="42.95099758543074131011962890625" lon="-7.81358775682747364044189453125">
        <ele>553.20001220703125</ele>
        <time>2019-07-26T10:02:32.000Z</time>
      </trkpt>
      <trkpt lat="42.950942516326904296875" lon="-7.81400785781443119049072265625">
        <ele>552</ele>
        <time>2019-07-26T10:02:35.000Z</time>
      </trkpt>
      <trkpt lat="42.95088275335729122161865234375" lon="-7.81426467932760715484619140625">
        <ele>550.79998779296875</ele>
        <time>2019-07-26T10:02:37.000Z</time>
      </trkpt>
      <trkpt lat="42.95079356990754604339599609375" lon="-7.81449819914996623992919921875">
        <ele>549.5999755859375</ele>
        <time>2019-07-26T10:02:39.000Z</time>
      </trkpt>
      <trkpt lat="42.95068812556564807891845703125" lon="-7.81472752802073955535888671875">
        <ele>548.4000244140625</ele>
        <time>2019-07-26T10:02:41.000Z</time>
      </trkpt>
      <trkpt lat="42.95058117248117923736572265625" lon="-7.814949564635753631591796875">
        <ele>547</ele>
        <time>2019-07-26T10:02:43.000Z</time>
      </trkpt>
      <trkpt lat="42.950434572994709014892578125" lon="-7.8152635507285594940185546875">
        <ele>545.5999755859375</ele>
        <time>2019-07-26T10:02:46.000Z</time>
      </trkpt>
      <trkpt lat="42.9502650909125804901123046875" lon="-7.81563327647745609283447265625">
        <ele>544.4000244140625</ele>
        <time>2019-07-26T10:02:50.000Z</time>
      </trkpt>
      <trkpt lat="42.95018420554697513580322265625" lon="-7.81579420901834964752197265625">
        <ele>543.79998779296875</ele>
        <time>2019-07-26T10:02:52.000Z</time>
      </trkpt>
      <trkpt lat="42.9501427151262760162353515625" lon="-7.815868891775608062744140625">
        <ele>543</ele>
        <time>2019-07-26T10:02:53.000Z</time>
      </trkpt>
      <trkpt lat="42.9499770887196063995361328125" lon="-7.8161389566957950592041015625">
        <ele>542.4000244140625</ele>
        <time>2019-07-26T10:02:57.000Z</time>
      </trkpt>
      <trkpt lat="42.94993593357503414154052734375" lon="-7.816199474036693572998046875">
        <ele>542.20001220703125</ele>
        <time>2019-07-26T10:02:58.000Z</time>
      </trkpt>
      <trkpt lat="42.9498912580311298370361328125" lon="-7.81626644544303417205810546875">
        <ele>542</ele>
        <time>2019-07-26T10:03:00.000Z</time>
      </trkpt>
      <trkpt lat="42.94987994246184825897216796875" lon="-7.81626225449144840240478515625">
        <ele>542</ele>
        <time>2019-07-26T10:03:01.000Z</time>
      </trkpt>
      <trkpt lat="42.94987055473029613494873046875" lon="-7.81623543240129947662353515625">
        <ele>542</ele>
        <time>2019-07-26T10:03:02.000Z</time>
      </trkpt>
      <trkpt lat="42.9498480074107646942138671875" lon="-7.816132418811321258544921875">
        <ele>542</ele>
        <time>2019-07-26T10:03:05.000Z</time>
      </trkpt>
      <trkpt lat="42.949822358787059783935546875" lon="-7.81607550568878650665283203125">
        <ele>541.79998779296875</ele>
        <time>2019-07-26T10:03:07.000Z</time>
      </trkpt>
      <trkpt lat="42.9497824609279632568359375" lon="-7.8160725720226764678955078125">
        <ele>541.5999755859375</ele>
        <time>2019-07-26T10:03:09.000Z</time>
      </trkpt>
      <trkpt lat="42.9497360251843929290771484375" lon="-7.81609578989446163177490234375">
        <ele>541.20001220703125</ele>
        <time>2019-07-26T10:03:11.000Z</time>
      </trkpt>
      <trkpt lat="42.94963871128857135772705078125" lon="-7.816138453781604766845703125">
        <ele>541</ele>
        <time>2019-07-26T10:03:14.000Z</time>
      </trkpt>
      <trkpt lat="42.9495921917259693145751953125" lon="-7.8161506913602352142333984375">
        <ele>541</ele>
        <time>2019-07-26T10:03:15.000Z</time>
      </trkpt>
      <trkpt lat="42.94942363165318965911865234375" lon="-7.81617592088878154754638671875">
        <ele>540.5999755859375</ele>
        <time>2019-07-26T10:03:18.000Z</time>
      </trkpt>
      <trkpt lat="42.9491073824465274810791015625" lon="-7.816149853169918060302734375">
        <ele>540.20001220703125</ele>
        <time>2019-07-26T10:03:23.000Z</time>
      </trkpt>
      <trkpt lat="42.94899162836372852325439453125" lon="-7.81610526144504547119140625">
        <ele>539.5999755859375</ele>
        <time>2019-07-26T10:03:25.000Z</time>
      </trkpt>
      <trkpt lat="42.94893781654536724090576171875" lon="-7.8160759247839450836181640625">
        <ele>539.5999755859375</ele>
        <time>2019-07-26T10:03:26.000Z</time>
      </trkpt>
      <trkpt lat="42.948721311986446380615234375" lon="-7.8159619309008121490478515625">
        <ele>538.79998779296875</ele>
        <time>2019-07-26T10:03:30.000Z</time>
      </trkpt>
      <trkpt lat="42.94867797754704952239990234375" lon="-7.81594374217092990875244140625">
        <ele>538.5999755859375</ele>
        <time>2019-07-26T10:03:31.000Z</time>
      </trkpt>
      <trkpt lat="42.94862835668027400970458984375" lon="-7.815923206508159637451171875">
        <ele>538.20001220703125</ele>
        <time>2019-07-26T10:03:33.000Z</time>
      </trkpt>
      <trkpt lat="42.9486235789954662322998046875" lon="-7.815923206508159637451171875">
        <ele>538</ele>
        <time>2019-07-26T10:03:36.000Z</time>
      </trkpt>
      <trkpt lat="42.9485411010682582855224609375" lon="-7.8159123100340366363525390625">
        <ele>536</ele>
        <time>2019-07-26T10:04:45.000Z</time>
      </trkpt>
      <trkpt lat="42.94855241663753986358642578125" lon="-7.81590987928211688995361328125">
        <ele>536</ele>
        <time>2019-07-26T10:04:46.000Z</time>
      </trkpt>
      <trkpt lat="42.948643863201141357421875" lon="-7.81592278741300106048583984375">
        <ele>535.79998779296875</ele>
        <time>2019-07-26T10:04:53.000Z</time>
      </trkpt>
      <trkpt lat="42.94872005470097064971923828125" lon="-7.81593762338161468505859375">
        <ele>535.79998779296875</ele>
        <time>2019-07-26T10:05:00.000Z</time>
      </trkpt>
      <trkpt lat="42.948730699717998504638671875" lon="-7.8159287385642528533935546875">
        <ele>535.79998779296875</ele>
        <time>2019-07-26T10:05:01.000Z</time>
      </trkpt>
      <trkpt lat="42.94878912158310413360595703125" lon="-7.815924547612667083740234375">
        <ele>535.79998779296875</ele>
        <time>2019-07-26T10:05:07.000Z</time>
      </trkpt>
      <trkpt lat="42.948794066905975341796875" lon="-7.81592412851750850677490234375">
        <ele>536</ele>
        <time>2019-07-26T10:05:09.000Z</time>
      </trkpt>
      <trkpt lat="42.94875525869429111480712890625" lon="-7.81585204415023326873779296875">
        <ele>538.4000244140625</ele>
        <time>2019-07-26T10:24:37.000Z</time>
      </trkpt>
      <trkpt lat="42.948727346956729888916015625" lon="-7.815856151282787322998046875">
        <ele>538.4000244140625</ele>
        <time>2019-07-26T10:24:38.000Z</time>
      </trkpt>
      <trkpt lat="42.94853364117443561553955078125" lon="-7.8158750943839550018310546875">
        <ele>538.4000244140625</ele>
        <time>2019-07-26T10:24:43.000Z</time>
      </trkpt>
      <trkpt lat="42.94819124042987823486328125" lon="-7.815962769091129302978515625">
        <ele>538</ele>
        <time>2019-07-26T10:24:50.000Z</time>
      </trkpt>
      <trkpt lat="42.94800155796110630035400390625" lon="-7.8159807063639163970947265625">
        <ele>537.20001220703125</ele>
        <time>2019-07-26T10:24:55.000Z</time>
      </trkpt>
      <trkpt lat="42.94796668924391269683837890625" lon="-7.81597928144037723541259765625">
        <ele>537</ele>
        <time>2019-07-26T10:24:56.000Z</time>
      </trkpt>
      <trkpt lat="42.9478378593921661376953125" lon="-7.81602001748979091644287109375">
        <ele>536</ele>
        <time>2019-07-26T10:25:00.000Z</time>
      </trkpt>
      <trkpt lat="42.94781162403523921966552734375" lon="-7.81603627838194370269775390625">
        <ele>535.79998779296875</ele>
        <time>2019-07-26T10:25:01.000Z</time>
      </trkpt>
      <trkpt lat="42.94774532318115234375" lon="-7.81614951789379119873046875">
        <ele>535.4000244140625</ele>
        <time>2019-07-26T10:25:06.000Z</time>
      </trkpt>
      <trkpt lat="42.9477200098335742950439453125" lon="-7.8162197582423686981201171875">
        <ele>535</ele>
        <time>2019-07-26T10:25:08.000Z</time>
      </trkpt>
      <trkpt lat="42.947709448635578155517578125" lon="-7.81638479791581630706787109375">
        <ele>534.4000244140625</ele>
        <time>2019-07-26T10:25:11.000Z</time>
      </trkpt>
      <trkpt lat="42.94767432846128940582275390625" lon="-7.8165191598236560821533203125">
        <ele>534.20001220703125</ele>
        <time>2019-07-26T10:25:14.000Z</time>
      </trkpt>
      <trkpt lat="42.947655804455280303955078125" lon="-7.81654103659093379974365234375">
        <ele>534</ele>
        <time>2019-07-26T10:25:15.000Z</time>
      </trkpt>
      <trkpt lat="42.947641052305698394775390625" lon="-7.8165565431118011474609375">
        <ele>533.79998779296875</ele>
        <time>2019-07-26T10:25:16.000Z</time>
      </trkpt>
      <trkpt lat="42.9476200975477695465087890625" lon="-7.8165590576827526092529296875">
        <ele>532.79998779296875</ele>
        <time>2019-07-26T10:25:19.000Z</time>
      </trkpt>
      <trkpt lat="42.94762034900486469268798828125" lon="-7.8165645897388458251953125">
        <ele>532.20001220703125</ele>
        <time>2019-07-26T10:25:20.000Z</time>
      </trkpt>
      <trkpt lat="42.94753921218216419219970703125" lon="-7.81655830331146717071533203125">
        <ele>530.20001220703125</ele>
        <time>2019-07-26T10:26:03.000Z</time>
      </trkpt>
      <trkpt lat="42.94750970788300037384033203125" lon="-7.81655780039727687835693359375">
        <ele>530.20001220703125</ele>
        <time>2019-07-26T10:26:04.000Z</time>
      </trkpt>
      <trkpt lat="42.947398982942104339599609375" lon="-7.81654405407607555389404296875">
        <ele>530</ele>
        <time>2019-07-26T10:26:07.000Z</time>
      </trkpt>
      <trkpt lat="42.94730854220688343048095703125" lon="-7.81653332524001598358154296875">
        <ele>529.79998779296875</ele>
        <time>2019-07-26T10:26:09.000Z</time>
      </trkpt>
      <trkpt lat="42.9470300115644931793212890625" lon="-7.81647230498492717742919921875">
        <ele>529.5999755859375</ele>
        <time>2019-07-26T10:26:14.000Z</time>
      </trkpt>
      <trkpt lat="42.94690235517919063568115234375" lon="-7.8164329938590526580810546875">
        <ele>529.5999755859375</ele>
        <time>2019-07-26T10:26:16.000Z</time>
      </trkpt>
      <trkpt lat="42.94676925055682659149169921875" lon="-7.81647347845137119293212890625">
        <ele>529.5999755859375</ele>
        <time>2019-07-26T10:26:18.000Z</time>
      </trkpt>
      <trkpt lat="42.94659708626568317413330078125" lon="-7.8166187368333339691162109375">
        <ele>529.20001220703125</ele>
        <time>2019-07-26T10:26:21.000Z</time>
      </trkpt>
      <trkpt lat="42.9465445317327976226806640625" lon="-7.8166619874536991119384765625">
        <ele>529</ele>
        <time>2019-07-26T10:26:22.000Z</time>
      </trkpt>
      <trkpt lat="42.9464268498122692108154296875" lon="-7.8167389333248138427734375">
        <ele>527.79998779296875</ele>
        <time>2019-07-26T10:26:24.000Z</time>
      </trkpt>
      <trkpt lat="42.9463688470423221588134765625" lon="-7.816767431795597076416015625">
        <ele>527</ele>
        <time>2019-07-26T10:26:25.000Z</time>
      </trkpt>
      <trkpt lat="42.9463145323097705841064453125" lon="-7.81677807681262493133544921875">
        <ele>526.4000244140625</ele>
        <time>2019-07-26T10:26:26.000Z</time>
      </trkpt>
      <trkpt lat="42.94621646404266357421875" lon="-7.81677170656621456146240234375">
        <ele>524.79998779296875</ele>
        <time>2019-07-26T10:26:28.000Z</time>
      </trkpt>
      <trkpt lat="42.9461468942463397979736328125" lon="-7.816758714616298675537109375">
        <ele>523.5999755859375</ele>
        <time>2019-07-26T10:26:30.000Z</time>
      </trkpt>
      <trkpt lat="42.9460955969989299774169921875" lon="-7.8167806752026081085205078125">
        <ele>522</ele>
        <time>2019-07-26T10:26:32.000Z</time>
      </trkpt>
      <trkpt lat="42.946081347763538360595703125" lon="-7.816812694072723388671875">
        <ele>521.5999755859375</ele>
        <time>2019-07-26T10:26:33.000Z</time>
      </trkpt>
      <trkpt lat="42.9460836946964263916015625" lon="-7.81690095551311969757080078125">
        <ele>520.79998779296875</ele>
        <time>2019-07-26T10:26:35.000Z</time>
      </trkpt>
      <trkpt lat="42.94608847238123416900634765625" lon="-7.8169577009975910186767578125">
        <ele>520.5999755859375</ele>
        <time>2019-07-26T10:26:36.000Z</time>
      </trkpt>
      <trkpt lat="42.94609819538891315460205078125" lon="-7.81701310537755489349365234375">
        <ele>520.4000244140625</ele>
        <time>2019-07-26T10:26:37.000Z</time>
      </trkpt>
      <trkpt lat="42.94612384401261806488037109375" lon="-7.81707429327070713043212890625">
        <ele>520</ele>
        <time>2019-07-26T10:26:39.000Z</time>
      </trkpt>
      <trkpt lat="42.94612728059291839599609375" lon="-7.8170824237167835235595703125">
        <ele>520</ele>
        <time>2019-07-26T10:26:40.000Z</time>
      </trkpt>
      <trkpt lat="42.946126274764537811279296875" lon="-7.81708150170743465423583984375">
        <ele>519.79998779296875</ele>
        <time>2019-07-26T10:26:42.000Z</time>
      </trkpt>
      <trkpt lat="42.94615217484533786773681640625" lon="-7.8171665780246257781982421875">
        <ele>518.79998779296875</ele>
        <time>2019-07-26T10:26:48.000Z</time>
      </trkpt>
      <trkpt lat="42.946149073541164398193359375" lon="-7.81721326522529125213623046875">
        <ele>518.79998779296875</ele>
        <time>2019-07-26T10:26:49.000Z</time>
      </trkpt>
      <trkpt lat="42.9461415298283100128173828125" lon="-7.81727160327136516571044921875">
        <ele>518.79998779296875</ele>
        <time>2019-07-26T10:26:50.000Z</time>
      </trkpt>
      <trkpt lat="42.94614915736019611358642578125" lon="-7.81732700765132904052734375">
        <ele>518.5999755859375</ele>
        <time>2019-07-26T10:26:51.000Z</time>
      </trkpt>
      <trkpt lat="42.94616290368139743804931640625" lon="-7.8173778019845485687255859375">
        <ele>518.5999755859375</ele>
        <time>2019-07-26T10:26:52.000Z</time>
      </trkpt>
      <trkpt lat="42.94617782346904277801513671875" lon="-7.8174619562923908233642578125">
        <ele>518.5999755859375</ele>
        <time>2019-07-26T10:26:54.000Z</time>
      </trkpt>
      <trkpt lat="42.94620716013014316558837890625" lon="-7.817576788365840911865234375">
        <ele>518.5999755859375</ele>
        <time>2019-07-26T10:26:57.000Z</time>
      </trkpt>
      <trkpt lat="42.94623130001127719879150390625" lon="-7.81767904758453369140625">
        <ele>519</ele>
        <time>2019-07-26T10:27:00.000Z</time>
      </trkpt>
      <trkpt lat="42.946245633065700531005859375" lon="-7.817771919071674346923828125">
        <ele>519.4000244140625</ele>
        <time>2019-07-26T10:27:03.000Z</time>
      </trkpt>
      <trkpt lat="42.9462592117488384246826171875" lon="-7.81783486716449260711669921875">
        <ele>519.5999755859375</ele>
        <time>2019-07-26T10:27:05.000Z</time>
      </trkpt>
      <trkpt lat="42.946271114051342010498046875" lon="-7.81789404340088367462158203125">
        <ele>520</ele>
        <time>2019-07-26T10:27:07.000Z</time>
      </trkpt>
      <trkpt lat="42.94628242962062358856201171875" lon="-7.817979119718074798583984375">
        <ele>520.79998779296875</ele>
        <time>2019-07-26T10:27:10.000Z</time>
      </trkpt>
      <trkpt lat="42.94629634357988834381103515625" lon="-7.81803804449737071990966796875">
        <ele>521.20001220703125</ele>
        <time>2019-07-26T10:27:12.000Z</time>
      </trkpt>
      <trkpt lat="42.9463269375264644622802734375" lon="-7.81811649911105632781982421875">
        <ele>521.79998779296875</ele>
        <time>2019-07-26T10:27:15.000Z</time>
      </trkpt>
      <trkpt lat="42.94634856283664703369140625" lon="-7.8181600011885166168212890625">
        <ele>522.20001220703125</ele>
        <time>2019-07-26T10:27:17.000Z</time>
      </trkpt>
      <trkpt lat="42.94638636521995067596435546875" lon="-7.818202078342437744140625">
        <ele>522.4000244140625</ele>
        <time>2019-07-26T10:27:21.000Z</time>
      </trkpt>
      <trkpt lat="42.94639424420893192291259765625" lon="-7.8182206861674785614013671875">
        <ele>522.79998779296875</ele>
        <time>2019-07-26T10:27:22.000Z</time>
      </trkpt>
      <trkpt lat="42.94642710126936435699462890625" lon="-7.81829553656280040740966796875">
        <ele>523.4000244140625</ele>
        <time>2019-07-26T10:27:25.000Z</time>
      </trkpt>
      <trkpt lat="42.94646783731877803802490234375" lon="-7.81838170252740383148193359375">
        <ele>524.4000244140625</ele>
        <time>2019-07-26T10:27:29.000Z</time>
      </trkpt>
      <trkpt lat="42.94646834023296833038330078125" lon="-7.81840282492339611053466796875">
        <ele>524.79998779296875</ele>
        <time>2019-07-26T10:27:30.000Z</time>
      </trkpt>
      <trkpt lat="42.9464701004326343536376953125" lon="-7.8184367716312408447265625">
        <ele>525.4000244140625</ele>
        <time>2019-07-26T10:27:32.000Z</time>
      </trkpt>
      <trkpt lat="42.946487702429294586181640625" lon="-7.8185063414275646209716796875">
        <ele>526.5999755859375</ele>
        <time>2019-07-26T10:27:36.000Z</time>
      </trkpt>
      <trkpt lat="42.94650354422628879547119140625" lon="-7.81859301030635833740234375">
        <ele>527.5999755859375</ele>
        <time>2019-07-26T10:27:40.000Z</time>
      </trkpt>
      <trkpt lat="42.94653539545834064483642578125" lon="-7.81869602389633655548095703125">
        <ele>528.79998779296875</ele>
        <time>2019-07-26T10:27:44.000Z</time>
      </trkpt>
      <trkpt lat="42.94656758196651935577392578125" lon="-7.8187849558889865875244140625">
        <ele>529.5999755859375</ele>
        <time>2019-07-26T10:27:47.000Z</time>
      </trkpt>
      <trkpt lat="42.946564815938472747802734375" lon="-7.818821333348751068115234375">
        <ele>530</ele>
        <time>2019-07-26T10:27:48.000Z</time>
      </trkpt>
      <trkpt lat="42.9465200565755367279052734375" lon="-7.81898218207061290740966796875">
        <ele>531.20001220703125</ele>
        <time>2019-07-26T10:27:52.000Z</time>
      </trkpt>
      <trkpt lat="42.94646297581493854522705078125" lon="-7.8190981037914752960205078125">
        <ele>531.79998779296875</ele>
        <time>2019-07-26T10:27:55.000Z</time>
      </trkpt>
      <trkpt lat="42.94642173685133457183837890625" lon="-7.8191772289574146270751953125">
        <ele>532.20001220703125</ele>
        <time>2019-07-26T10:27:57.000Z</time>
      </trkpt>
      <trkpt lat="42.94637949205935001373291015625" lon="-7.8193482197821140289306640625">
        <ele>532.5999755859375</ele>
        <time>2019-07-26T10:28:01.000Z</time>
      </trkpt>
      <trkpt lat="42.9463411867618560791015625" lon="-7.81960554420948028564453125">
        <ele>533.4000244140625</ele>
        <time>2019-07-26T10:28:07.000Z</time>
      </trkpt>
      <trkpt lat="42.9463358223438262939453125" lon="-7.81973169185221195220947265625">
        <ele>534</ele>
        <time>2019-07-26T10:28:10.000Z</time>
      </trkpt>
      <trkpt lat="42.94633649289608001708984375" lon="-7.81985959969460964202880859375">
        <ele>534.4000244140625</ele>
        <time>2019-07-26T10:28:13.000Z</time>
      </trkpt>
      <trkpt lat="42.9463349841535091400146484375" lon="-7.82012295909225940704345703125">
        <ele>535.5999755859375</ele>
        <time>2019-07-26T10:28:19.000Z</time>
      </trkpt>
      <trkpt lat="42.94632366858422756195068359375" lon="-7.8202957101166248321533203125">
        <ele>536.5999755859375</ele>
        <time>2019-07-26T10:28:23.000Z</time>
      </trkpt>
      <trkpt lat="42.946304976940155029296875" lon="-7.8205235302448272705078125">
        <ele>537.5999755859375</ele>
        <time>2019-07-26T10:28:28.000Z</time>
      </trkpt>
      <trkpt lat="42.94629894196987152099609375" lon="-7.82057105563580989837646484375">
        <ele>537.79998779296875</ele>
        <time>2019-07-26T10:28:29.000Z</time>
      </trkpt>
      <trkpt lat="42.94627672992646694183349609375" lon="-7.8208070062100887298583984375">
        <ele>538.79998779296875</ele>
        <time>2019-07-26T10:28:34.000Z</time>
      </trkpt>
      <trkpt lat="42.94627388007938861846923828125" lon="-7.820980511605739593505859375">
        <ele>539.4000244140625</ele>
        <time>2019-07-26T10:28:38.000Z</time>
      </trkpt>
      <trkpt lat="42.94627052731812000274658203125" lon="-7.82106676138937473297119140625">
        <ele>539.79998779296875</ele>
        <time>2019-07-26T10:28:40.000Z</time>
      </trkpt>
      <trkpt lat="42.9462709464132785797119140625" lon="-7.8212602995336055755615234375">
        <ele>540.5999755859375</ele>
        <time>2019-07-26T10:28:45.000Z</time>
      </trkpt>
      <trkpt lat="42.94626968912780284881591796875" lon="-7.82129894010722637176513671875">
        <ele>540.79998779296875</ele>
        <time>2019-07-26T10:28:46.000Z</time>
      </trkpt>
      <trkpt lat="42.94626750983297824859619140625" lon="-7.82133498229086399078369140625">
        <ele>540.79998779296875</ele>
        <time>2019-07-26T10:28:47.000Z</time>
      </trkpt>
      <trkpt lat="42.94626633636653423309326171875" lon="-7.8214698471128940582275390625">
        <ele>541.4000244140625</ele>
        <time>2019-07-26T10:28:51.000Z</time>
      </trkpt>
      <trkpt lat="42.94625870883464813232421875" lon="-7.82158367335796356201171875">
        <ele>541.79998779296875</ele>
        <time>2019-07-26T10:28:54.000Z</time>
      </trkpt>
      <trkpt lat="42.94624621979892253875732421875" lon="-7.821627594530582427978515625">
        <ele>542</ele>
        <time>2019-07-26T10:28:55.000Z</time>
      </trkpt>
      <trkpt lat="42.94617799110710620880126953125" lon="-7.8218534030020236968994140625">
        <ele>542.5999755859375</ele>
        <time>2019-07-26T10:29:00.000Z</time>
      </trkpt>
      <trkpt lat="42.94608176685869693756103515625" lon="-7.8220636211335659027099609375">
        <ele>543</ele>
        <time>2019-07-26T10:29:05.000Z</time>
      </trkpt>
      <trkpt lat="42.94605796225368976593017578125" lon="-7.82209874130785465240478515625">
        <ele>543.20001220703125</ele>
        <time>2019-07-26T10:29:06.000Z</time>
      </trkpt>
      <trkpt lat="42.945938520133495330810546875" lon="-7.8223150782287120819091796875">
        <ele>544</ele>
        <time>2019-07-26T10:29:12.000Z</time>
      </trkpt>
      <trkpt lat="42.94590222649276256561279296875" lon="-7.82238741405308246612548828125">
        <ele>544.4000244140625</ele>
        <time>2019-07-26T10:29:14.000Z</time>
      </trkpt>
      <trkpt lat="42.94586517848074436187744140625" lon="-7.822473160922527313232421875">
        <ele>545</ele>
        <time>2019-07-26T10:29:17.000Z</time>
      </trkpt>
      <trkpt lat="42.94585327617824077606201171875" lon="-7.82249403186142444610595703125">
        <ele>545.20001220703125</ele>
        <time>2019-07-26T10:29:18.000Z</time>
      </trkpt>
      <trkpt lat="42.945825196802616119384765625" lon="-7.8225403837859630584716796875">
        <ele>546</ele>
        <time>2019-07-26T10:29:20.000Z</time>
      </trkpt>
      <trkpt lat="42.9457904957234859466552734375" lon="-7.82260425388813018798828125">
        <ele>546.5999755859375</ele>
        <time>2019-07-26T10:29:22.000Z</time>
      </trkpt>
      <trkpt lat="42.94571480713784694671630859375" lon="-7.822718918323516845703125">
        <ele>547.4000244140625</ele>
        <time>2019-07-26T10:29:26.000Z</time>
      </trkpt>
      <trkpt lat="42.9456972889602184295654296875" lon="-7.82274766825139522552490234375">
        <ele>547.79998779296875</ele>
        <time>2019-07-26T10:29:27.000Z</time>
      </trkpt>
      <trkpt lat="42.9456399567425251007080078125" lon="-7.822889573872089385986328125">
        <ele>549</ele>
        <time>2019-07-26T10:29:31.000Z</time>
      </trkpt>
      <trkpt lat="42.9456178285181522369384765625" lon="-7.8229645080864429473876953125">
        <ele>549.5999755859375</ele>
        <time>2019-07-26T10:29:33.000Z</time>
      </trkpt>
      <trkpt lat="42.94558472000062465667724609375" lon="-7.8230523504316806793212890625">
        <ele>550</ele>
        <time>2019-07-26T10:29:35.000Z</time>
      </trkpt>
      <trkpt lat="42.9455420561134815216064453125" lon="-7.82323591411113739013671875">
        <ele>551</ele>
        <time>2019-07-26T10:29:39.000Z</time>
      </trkpt>
      <trkpt lat="42.94553761370480060577392578125" lon="-7.82328360714018344879150390625">
        <ele>551.20001220703125</ele>
        <time>2019-07-26T10:29:40.000Z</time>
      </trkpt>
      <trkpt lat="42.94552252627909183502197265625" lon="-7.82358451746404170989990234375">
        <ele>552.5999755859375</ele>
        <time>2019-07-26T10:29:47.000Z</time>
      </trkpt>
      <trkpt lat="42.9454957880079746246337890625" lon="-7.823791466653347015380859375">
        <ele>553.79998779296875</ele>
        <time>2019-07-26T10:29:52.000Z</time>
      </trkpt>
      <trkpt lat="42.9454907588660717010498046875" lon="-7.82388308085501194000244140625">
        <ele>554.20001220703125</ele>
        <time>2019-07-26T10:29:54.000Z</time>
      </trkpt>
      <trkpt lat="42.94548799283802509307861328125" lon="-7.823928929865360260009765625">
        <ele>554.4000244140625</ele>
        <time>2019-07-26T10:29:55.000Z</time>
      </trkpt>
      <trkpt lat="42.945477850735187530517578125" lon="-7.82407385297119617462158203125">
        <ele>555</ele>
        <time>2019-07-26T10:29:58.000Z</time>
      </trkpt>
      <trkpt lat="42.94548363424837589263916015625" lon="-7.82426227815449237823486328125">
        <ele>555.5999755859375</ele>
        <time>2019-07-26T10:30:02.000Z</time>
      </trkpt>
      <trkpt lat="42.94551598839461803436279296875" lon="-7.82445506192743778228759765625">
        <ele>556</ele>
        <time>2019-07-26T10:30:06.000Z</time>
      </trkpt>
      <trkpt lat="42.94553275220096111297607421875" lon="-7.82452999614179134368896484375">
        <ele>556.20001220703125</ele>
        <time>2019-07-26T10:30:08.000Z</time>
      </trkpt>
      <trkpt lat="42.9455480910837650299072265625" lon="-7.82458833418786525726318359375">
        <ele>556.4000244140625</ele>
        <time>2019-07-26T10:30:10.000Z</time>
      </trkpt>
      <trkpt lat="42.9455477558076381683349609375" lon="-7.82462487928569316864013671875">
        <ele>556.4000244140625</ele>
        <time>2019-07-26T10:30:13.000Z</time>
      </trkpt>
      <trkpt lat="42.9455383680760860443115234375" lon="-7.82463208772242069244384765625">
        <ele>556.5999755859375</ele>
        <time>2019-07-26T10:30:15.000Z</time>
      </trkpt>
      <trkpt lat="42.9453338496387004852294921875" lon="-7.82480073161423206329345703125">
        <ele>556.20001220703125</ele>
        <time>2019-07-26T10:33:41.000Z</time>
      </trkpt>
      <trkpt lat="42.94534047134220600128173828125" lon="-7.82485286705195903778076171875">
        <ele>556.4000244140625</ele>
        <time>2019-07-26T10:33:42.000Z</time>
      </trkpt>
      <trkpt lat="42.94534818269312381744384765625" lon="-7.82497239299118518829345703125">
        <ele>556.5999755859375</ele>
        <time>2019-07-26T10:33:44.000Z</time>
      </trkpt>
      <trkpt lat="42.9453573189675807952880859375" lon="-7.8250873088836669921875">
        <ele>556.5999755859375</ele>
        <time>2019-07-26T10:33:46.000Z</time>
      </trkpt>
      <trkpt lat="42.94536176137626171112060546875" lon="-7.82515394501388072967529296875">
        <ele>556.5999755859375</ele>
        <time>2019-07-26T10:33:47.000Z</time>
      </trkpt>
      <trkpt lat="42.94538623653352260589599609375" lon="-7.825425602495670318603515625">
        <ele>557</ele>
        <time>2019-07-26T10:33:51.000Z</time>
      </trkpt>
      <trkpt lat="42.9454213567078113555908203125" lon="-7.82555778510868549346923828125">
        <ele>557</ele>
        <time>2019-07-26T10:33:53.000Z</time>
      </trkpt>
      <trkpt lat="42.94544138945639133453369140625" lon="-7.82569491304457187652587890625">
        <ele>557.20001220703125</ele>
        <time>2019-07-26T10:33:55.000Z</time>
      </trkpt>
      <trkpt lat="42.94546569697558879852294921875" lon="-7.82581510953605175018310546875">
        <ele>557.20001220703125</ele>
        <time>2019-07-26T10:33:57.000Z</time>
      </trkpt>
      <trkpt lat="42.9454924352467060089111328125" lon="-7.82593949697911739349365234375">
        <ele>557.4000244140625</ele>
        <time>2019-07-26T10:33:59.000Z</time>
      </trkpt>
      <trkpt lat="42.945504672825336456298828125" lon="-7.826153822243213653564453125">
        <ele>557.5999755859375</ele>
        <time>2019-07-26T10:34:02.000Z</time>
      </trkpt>
      <trkpt lat="42.945516407489776611328125" lon="-7.82639086246490478515625">
        <ele>557.5999755859375</ele>
        <time>2019-07-26T10:34:05.000Z</time>
      </trkpt>
      <trkpt lat="42.94554901309311389923095703125" lon="-7.82681574113667011260986328125">
        <ele>557.5999755859375</ele>
        <time>2019-07-26T10:34:10.000Z</time>
      </trkpt>
      <trkpt lat="42.94555370695888996124267578125" lon="-7.826956473290920257568359375">
        <ele>557.5999755859375</ele>
        <time>2019-07-26T10:34:12.000Z</time>
      </trkpt>
      <trkpt lat="42.94556041248142719268798828125" lon="-7.8272500075399875640869140625">
        <ele>557.4000244140625</ele>
        <time>2019-07-26T10:34:16.000Z</time>
      </trkpt>
      <trkpt lat="42.94560902751982212066650390625" lon="-7.8275621496140956878662109375">
        <ele>557.4000244140625</ele>
        <time>2019-07-26T10:34:21.000Z</time>
      </trkpt>
      <trkpt lat="42.9456677846610546112060546875" lon="-7.82784202136099338531494140625">
        <ele>558</ele>
        <time>2019-07-26T10:34:26.000Z</time>
      </trkpt>
      <trkpt lat="42.94568471610546112060546875" lon="-7.82789700664579868316650390625">
        <ele>558.5999755859375</ele>
        <time>2019-07-26T10:34:27.000Z</time>
      </trkpt>
      <trkpt lat="42.94570256955921649932861328125" lon="-7.827949561178684234619140625">
        <ele>559</ele>
        <time>2019-07-26T10:34:28.000Z</time>
      </trkpt>
      <trkpt lat="42.9457311518490314483642578125" lon="-7.828114517033100128173828125">
        <ele>560</ele>
        <time>2019-07-26T10:34:31.000Z</time>
      </trkpt>
      <trkpt lat="42.9457432217895984649658203125" lon="-7.8282662294805049896240234375">
        <ele>560.79998779296875</ele>
        <time>2019-07-26T10:34:34.000Z</time>
      </trkpt>
      <trkpt lat="42.94574732892215251922607421875" lon="-7.82831174321472644805908203125">
        <ele>561</ele>
        <time>2019-07-26T10:34:35.000Z</time>
      </trkpt>
      <trkpt lat="42.945774905383586883544921875" lon="-7.828486673533916473388671875">
        <ele>561.79998779296875</ele>
        <time>2019-07-26T10:34:38.000Z</time>
      </trkpt>
      <trkpt lat="42.94579661451280117034912109375" lon="-7.82859790138900279998779296875">
        <ele>562.20001220703125</ele>
        <time>2019-07-26T10:34:40.000Z</time>
      </trkpt>
      <trkpt lat="42.94580541551113128662109375" lon="-7.8286533057689666748046875">
        <ele>562.4000244140625</ele>
        <time>2019-07-26T10:34:41.000Z</time>
      </trkpt>
      <trkpt lat="42.94583366252481937408447265625" lon="-7.82888188026845455169677734375">
        <ele>563.4000244140625</ele>
        <time>2019-07-26T10:34:45.000Z</time>
      </trkpt>
      <trkpt lat="42.94585444964468479156494140625" lon="-7.82905362546443939208984375">
        <ele>563.79998779296875</ele>
        <time>2019-07-26T10:34:48.000Z</time>
      </trkpt>
      <trkpt lat="42.94587356038391590118408203125" lon="-7.829222939908504486083984375">
        <ele>564.4000244140625</ele>
        <time>2019-07-26T10:34:51.000Z</time>
      </trkpt>
      <trkpt lat="42.94590733945369720458984375" lon="-7.829441539943218231201171875">
        <ele>565.5999755859375</ele>
        <time>2019-07-26T10:34:55.000Z</time>
      </trkpt>
      <trkpt lat="42.94592167250812053680419921875" lon="-7.82954589463770389556884765625">
        <ele>566</ele>
        <time>2019-07-26T10:34:57.000Z</time>
      </trkpt>
      <trkpt lat="42.9459470696747303009033203125" lon="-7.82975309528410434722900390625">
        <ele>566.79998779296875</ele>
        <time>2019-07-26T10:35:01.000Z</time>
      </trkpt>
      <trkpt lat="42.9459759034216403961181640625" lon="-7.82995794899761676788330078125">
        <ele>567.79998779296875</ele>
        <time>2019-07-26T10:35:05.000Z</time>
      </trkpt>
      <trkpt lat="42.94598822481930255889892578125" lon="-7.8300535865128040313720703125">
        <ele>568.20001220703125</ele>
        <time>2019-07-26T10:35:07.000Z</time>
      </trkpt>
      <trkpt lat="42.94601353816688060760498046875" lon="-7.830195240676403045654296875">
        <ele>569</ele>
        <time>2019-07-26T10:35:10.000Z</time>
      </trkpt>
      <trkpt lat="42.9460637457668781280517578125" lon="-7.83038056455552577972412109375">
        <ele>569.79998779296875</ele>
        <time>2019-07-26T10:35:14.000Z</time>
      </trkpt>
      <trkpt lat="42.94608562253415584564208984375" lon="-7.8304696641862392425537109375">
        <ele>570.4000244140625</ele>
        <time>2019-07-26T10:35:16.000Z</time>
      </trkpt>
      <trkpt lat="42.9461373388767242431640625" lon="-7.83068683929741382598876953125">
        <ele>571.4000244140625</ele>
        <time>2019-07-26T10:35:21.000Z</time>
      </trkpt>
      <trkpt lat="42.94614848680794239044189453125" lon="-7.83073076047003269195556640625">
        <ele>571.5999755859375</ele>
        <time>2019-07-26T10:35:22.000Z</time>
      </trkpt>
      <trkpt lat="42.94617824256420135498046875" lon="-7.8310416452586650848388671875">
        <ele>572.5999755859375</ele>
        <time>2019-07-26T10:35:28.000Z</time>
      </trkpt>
      <trkpt lat="42.94620246626436710357666015625" lon="-7.8314131312072277069091796875">
        <ele>573.79998779296875</ele>
        <time>2019-07-26T10:35:35.000Z</time>
      </trkpt>
      <trkpt lat="42.9462099261581897735595703125" lon="-7.831463925540447235107421875">
        <ele>574</ele>
        <time>2019-07-26T10:35:36.000Z</time>
      </trkpt>
      <trkpt lat="42.9462156258523464202880859375" lon="-7.83170155249536037445068359375">
        <ele>575</ele>
        <time>2019-07-26T10:35:40.000Z</time>
      </trkpt>
      <trkpt lat="42.94622979126870632171630859375" lon="-7.8318692743778228759765625">
        <ele>575.20001220703125</ele>
        <time>2019-07-26T10:35:43.000Z</time>
      </trkpt>
      <trkpt lat="42.94625409878790378570556640625" lon="-7.83202677033841609954833984375">
        <ele>575.5999755859375</ele>
        <time>2019-07-26T10:35:46.000Z</time>
      </trkpt>
      <trkpt lat="42.94627874158322811126708984375" lon="-7.83220161683857440948486328125">
        <ele>576.20001220703125</ele>
        <time>2019-07-26T10:35:49.000Z</time>
      </trkpt>
      <trkpt lat="42.9462880454957485198974609375" lon="-7.8322630561888217926025390625">
        <ele>576.4000244140625</ele>
        <time>2019-07-26T10:35:50.000Z</time>
      </trkpt>
      <trkpt lat="42.94633875600993633270263671875" lon="-7.832616604864597320556640625">
        <ele>577.20001220703125</ele>
        <time>2019-07-26T10:35:56.000Z</time>
      </trkpt>
      <trkpt lat="42.94634663499891757965087890625" lon="-7.83267569728195667266845703125">
        <ele>577.20001220703125</ele>
        <time>2019-07-26T10:35:57.000Z</time>
      </trkpt>
      <trkpt lat="42.9463545978069305419921875" lon="-7.83273453824222087860107421875">
        <ele>577.20001220703125</ele>
        <time>2019-07-26T10:35:58.000Z</time>
      </trkpt>
      <trkpt lat="42.946395836770534515380859375" lon="-7.83296286128461360931396484375">
        <ele>577.5999755859375</ele>
        <time>2019-07-26T10:36:02.000Z</time>
      </trkpt>
      <trkpt lat="42.94644705019891262054443359375" lon="-7.833252958953380584716796875">
        <ele>578.20001220703125</ele>
        <time>2019-07-26T10:36:07.000Z</time>
      </trkpt>
      <trkpt lat="42.9464583657681941986083984375" lon="-7.8333107940852642059326171875">
        <ele>578.20001220703125</ele>
        <time>2019-07-26T10:36:08.000Z</time>
      </trkpt>
      <trkpt lat="42.9465291090309619903564453125" lon="-7.83378328196704387664794921875">
        <ele>579</ele>
        <time>2019-07-26T10:36:16.000Z</time>
      </trkpt>
      <trkpt lat="42.94656691141426563262939453125" lon="-7.83400674350559711456298828125">
        <ele>579.4000244140625</ele>
        <time>2019-07-26T10:36:20.000Z</time>
      </trkpt>
      <trkpt lat="42.94661737047135829925537109375" lon="-7.8342673368752002716064453125">
        <ele>580.20001220703125</ele>
        <time>2019-07-26T10:36:25.000Z</time>
      </trkpt>
      <trkpt lat="42.9466266743838787078857421875" lon="-7.83431787975132465362548828125">
        <ele>580.5999755859375</ele>
        <time>2019-07-26T10:36:26.000Z</time>
      </trkpt>
      <trkpt lat="42.94667503796517848968505859375" lon="-7.8346078097820281982421875">
        <ele>581.79998779296875</ele>
        <time>2019-07-26T10:36:32.000Z</time>
      </trkpt>
      <trkpt lat="42.9466813243925571441650390625" lon="-7.83465013839304447174072265625">
        <ele>582.20001220703125</ele>
        <time>2019-07-26T10:36:33.000Z</time>
      </trkpt>
      <trkpt lat="42.946698255836963653564453125" lon="-7.83473454415798187255859375">
        <ele>582.79998779296875</ele>
        <time>2019-07-26T10:36:35.000Z</time>
      </trkpt>
      <trkpt lat="42.9467166960239410400390625" lon="-7.8348654694855213165283203125">
        <ele>583.79998779296875</ele>
        <time>2019-07-26T10:36:38.000Z</time>
      </trkpt>
      <trkpt lat="42.946728765964508056640625" lon="-7.83494903706014156341552734375">
        <ele>584.4000244140625</ele>
        <time>2019-07-26T10:36:40.000Z</time>
      </trkpt>
      <trkpt lat="42.94674326665699481964111328125" lon="-7.8350771963596343994140625">
        <ele>585</ele>
        <time>2019-07-26T10:36:43.000Z</time>
      </trkpt>
      <trkpt lat="42.94675466604530811309814453125" lon="-7.83521038480103015899658203125">
        <ele>585.79998779296875</ele>
        <time>2019-07-26T10:36:46.000Z</time>
      </trkpt>
      <trkpt lat="42.94675885699689388275146484375" lon="-7.83530409447848796844482421875">
        <ele>586.20001220703125</ele>
        <time>2019-07-26T10:36:48.000Z</time>
      </trkpt>
      <trkpt lat="42.94674997217953205108642578125" lon="-7.835556305944919586181640625">
        <ele>587.4000244140625</ele>
        <time>2019-07-26T10:36:53.000Z</time>
      </trkpt>
      <trkpt lat="42.94674343429505825042724609375" lon="-7.83560785464942455291748046875">
        <ele>587.5999755859375</ele>
        <time>2019-07-26T10:36:54.000Z</time>
      </trkpt>
      <trkpt lat="42.9467188753187656402587890625" lon="-7.83575956709682941436767578125">
        <ele>588.4000244140625</ele>
        <time>2019-07-26T10:36:57.000Z</time>
      </trkpt>
      <trkpt lat="42.94666363857686519622802734375" lon="-7.83600230701267719268798828125">
        <ele>589.4000244140625</ele>
        <time>2019-07-26T10:37:02.000Z</time>
      </trkpt>
      <trkpt lat="42.94664888642728328704833984375" lon="-7.83605025149881839752197265625">
        <ele>589.79998779296875</ele>
        <time>2019-07-26T10:37:03.000Z</time>
      </trkpt>
      <trkpt lat="42.9465951584279537200927734375" lon="-7.836257033050060272216796875">
        <ele>591</ele>
        <time>2019-07-26T10:37:07.000Z</time>
      </trkpt>
      <trkpt lat="42.94655517674982547760009765625" lon="-7.8364120982587337493896484375">
        <ele>591.79998779296875</ele>
        <time>2019-07-26T10:37:10.000Z</time>
      </trkpt>
      <trkpt lat="42.94654260389506816864013671875" lon="-7.83646163530647754669189453125">
        <ele>592.20001220703125</ele>
        <time>2019-07-26T10:37:11.000Z</time>
      </trkpt>
      <trkpt lat="42.94647462666034698486328125" lon="-7.836698926985263824462890625">
        <ele>592.79998779296875</ele>
        <time>2019-07-26T10:37:16.000Z</time>
      </trkpt>
      <trkpt lat="42.94645895250141620635986328125" lon="-7.836746871471405029296875">
        <ele>593</ele>
        <time>2019-07-26T10:37:17.000Z</time>
      </trkpt>
      <trkpt lat="42.94639206491410732269287109375" lon="-7.83699539490044116973876953125">
        <ele>593.20001220703125</ele>
        <time>2019-07-26T10:37:22.000Z</time>
      </trkpt>
      <trkpt lat="42.94637345708906650543212890625" lon="-7.83704853616654872894287109375">
        <ele>593.4000244140625</ele>
        <time>2019-07-26T10:37:23.000Z</time>
      </trkpt>
      <trkpt lat="42.946332804858684539794921875" lon="-7.83715917728841304779052734375">
        <ele>593.5999755859375</ele>
        <time>2019-07-26T10:37:25.000Z</time>
      </trkpt>
      <trkpt lat="42.94631847180426120758056640625" lon="-7.83721433021128177642822265625">
        <ele>593.5999755859375</ele>
        <time>2019-07-26T10:37:26.000Z</time>
      </trkpt>
      <trkpt lat="42.94621981680393218994140625" lon="-7.83753083087503910064697265625">
        <ele>594</ele>
        <time>2019-07-26T10:37:32.000Z</time>
      </trkpt>
      <trkpt lat="42.946187295019626617431640625" lon="-7.8376387059688568115234375">
        <ele>594.4000244140625</ele>
        <time>2019-07-26T10:37:34.000Z</time>
      </trkpt>
      <trkpt lat="42.94611713849008083343505859375" lon="-7.83791790716350078582763671875">
        <ele>594.79998779296875</ele>
        <time>2019-07-26T10:37:39.000Z</time>
      </trkpt>
      <trkpt lat="42.94609165750443935394287109375" lon="-7.8380294702947139739990234375">
        <ele>595.20001220703125</ele>
        <time>2019-07-26T10:37:41.000Z</time>
      </trkpt>
      <trkpt lat="42.9460273683071136474609375" lon="-7.8382400237023830413818359375">
        <ele>596.20001220703125</ele>
        <time>2019-07-26T10:37:45.000Z</time>
      </trkpt>
      <trkpt lat="42.94600926339626312255859375" lon="-7.838294170796871185302734375">
        <ele>596.4000244140625</ele>
        <time>2019-07-26T10:37:46.000Z</time>
      </trkpt>
      <trkpt lat="42.9459764063358306884765625" lon="-7.83839919604361057281494140625">
        <ele>596.5999755859375</ele>
        <time>2019-07-26T10:37:48.000Z</time>
      </trkpt>
      <trkpt lat="42.94587875716388225555419921875" lon="-7.83875492401421070098876953125">
        <ele>597.5999755859375</ele>
        <time>2019-07-26T10:37:54.000Z</time>
      </trkpt>
      <trkpt lat="42.9458498395979404449462890625" lon="-7.83887009136378765106201171875">
        <ele>597.5999755859375</ele>
        <time>2019-07-26T10:37:56.000Z</time>
      </trkpt>
      <trkpt lat="42.94578873552381992340087890625" lon="-7.83909271471202373504638671875">
        <ele>598.4000244140625</ele>
        <time>2019-07-26T10:38:00.000Z</time>
      </trkpt>
      <trkpt lat="42.94573291204869747161865234375" lon="-7.839300669729709625244140625">
        <ele>599</ele>
        <time>2019-07-26T10:38:04.000Z</time>
      </trkpt>
      <trkpt lat="42.945704497396945953369140625" lon="-7.8394027613103389739990234375">
        <ele>599.5999755859375</ele>
        <time>2019-07-26T10:38:06.000Z</time>
      </trkpt>
      <trkpt lat="42.9456406272947788238525390625" lon="-7.83966301940381526947021484375">
        <ele>601</ele>
        <time>2019-07-26T10:38:11.000Z</time>
      </trkpt>
      <trkpt lat="42.94562361203134059906005859375" lon="-7.839714400470256805419921875">
        <ele>601.4000244140625</ele>
        <time>2019-07-26T10:38:12.000Z</time>
      </trkpt>
      <trkpt lat="42.9455752484500408172607421875" lon="-7.83987239934504032135009765625">
        <ele>602.20001220703125</ele>
        <time>2019-07-26T10:38:15.000Z</time>
      </trkpt>
      <trkpt lat="42.94551582075655460357666015625" lon="-7.84008244983851909637451171875">
        <ele>603</ele>
        <time>2019-07-26T10:38:19.000Z</time>
      </trkpt>
      <trkpt lat="42.945501990616321563720703125" lon="-7.84013357944786548614501953125">
        <ele>603.20001220703125</ele>
        <time>2019-07-26T10:38:20.000Z</time>
      </trkpt>
      <trkpt lat="42.9454092867672443389892578125" lon="-7.84043633379042148590087890625">
        <ele>604.5999755859375</ele>
        <time>2019-07-26T10:38:26.000Z</time>
      </trkpt>
      <trkpt lat="42.94539512135088443756103515625" lon="-7.84048494882881641387939453125">
        <ele>604.79998779296875</ele>
        <time>2019-07-26T10:38:27.000Z</time>
      </trkpt>
      <trkpt lat="42.9453532956540584564208984375" lon="-7.8406412713229656219482421875">
        <ele>605.79998779296875</ele>
        <time>2019-07-26T10:38:30.000Z</time>
      </trkpt>
      <trkpt lat="42.945303507149219512939453125" lon="-7.84084034152328968048095703125">
        <ele>606.5999755859375</ele>
        <time>2019-07-26T10:38:34.000Z</time>
      </trkpt>
      <trkpt lat="42.9452815465629100799560546875" lon="-7.840931452810764312744140625">
        <ele>607.20001220703125</ele>
        <time>2019-07-26T10:38:36.000Z</time>
      </trkpt>
      <trkpt lat="42.9452077858150005340576171875" lon="-7.84110018052160739898681640625">
        <ele>607.79998779296875</ele>
        <time>2019-07-26T10:38:40.000Z</time>
      </trkpt>
      <trkpt lat="42.94517853297293186187744140625" lon="-7.841142676770687103271484375">
        <ele>608</ele>
        <time>2019-07-26T10:38:41.000Z</time>
      </trkpt>
      <trkpt lat="42.9451502859592437744140625" lon="-7.84118601121008396148681640625">
        <ele>608.5999755859375</ele>
        <time>2019-07-26T10:38:42.000Z</time>
      </trkpt>
      <trkpt lat="42.94512371532618999481201171875" lon="-7.84123311750590801239013671875">
        <ele>608.79998779296875</ele>
        <time>2019-07-26T10:38:43.000Z</time>
      </trkpt>
      <trkpt lat="42.9450538940727710723876953125" lon="-7.84139589406549930572509765625">
        <ele>609.79998779296875</ele>
        <time>2019-07-26T10:38:46.000Z</time>
      </trkpt>
      <trkpt lat="42.94497191905975341796875" lon="-7.84157375805079936981201171875">
        <ele>609.79998779296875</ele>
        <time>2019-07-26T10:38:49.000Z</time>
      </trkpt>
      <trkpt lat="42.9449412412941455841064453125" lon="-7.8416343592107295989990234375">
        <ele>609.79998779296875</ele>
        <time>2019-07-26T10:38:50.000Z</time>
      </trkpt>
      <trkpt lat="42.9448713362216949462890625" lon="-7.8417478501796722412109375">
        <ele>609.79998779296875</ele>
        <time>2019-07-26T10:38:52.000Z</time>
      </trkpt>
      <trkpt lat="42.94472641311585903167724609375" lon="-7.8418948687613010406494140625">
        <ele>609.79998779296875</ele>
        <time>2019-07-26T10:38:55.000Z</time>
      </trkpt>
      <trkpt lat="42.94460940174758434295654296875" lon="-7.84198380075395107269287109375">
        <ele>609.79998779296875</ele>
        <time>2019-07-26T10:38:57.000Z</time>
      </trkpt>
      <trkpt lat="42.9444824159145355224609375" lon="-7.84206946380436420440673828125">
        <ele>609.79998779296875</ele>
        <time>2019-07-26T10:38:59.000Z</time>
      </trkpt>
      <trkpt lat="42.9443407617509365081787109375" lon="-7.842159233987331390380859375">
        <ele>608.79998779296875</ele>
        <time>2019-07-26T10:39:01.000Z</time>
      </trkpt>
      <trkpt lat="42.94427496381103992462158203125" lon="-7.84219653345644474029541015625">
        <ele>608.4000244140625</ele>
        <time>2019-07-26T10:39:02.000Z</time>
      </trkpt>
      <trkpt lat="42.94421561993658542633056640625" lon="-7.84223400056362152099609375">
        <ele>607.79998779296875</ele>
        <time>2019-07-26T10:39:03.000Z</time>
      </trkpt>
      <trkpt lat="42.9441684298217296600341796875" lon="-7.84228202886879444122314453125">
        <ele>607.79998779296875</ele>
        <time>2019-07-26T10:39:04.000Z</time>
      </trkpt>
      <trkpt lat="42.94413280673325061798095703125" lon="-7.84234757535159587860107421875">
        <ele>607.4000244140625</ele>
        <time>2019-07-26T10:39:05.000Z</time>
      </trkpt>
      <trkpt lat="42.94411294162273406982421875" lon="-7.84242737106978893280029296875">
        <ele>607.20001220703125</ele>
        <time>2019-07-26T10:39:06.000Z</time>
      </trkpt>
      <trkpt lat="42.94409994967281818389892578125" lon="-7.84251839853823184967041015625">
        <ele>606.5999755859375</ele>
        <time>2019-07-26T10:39:07.000Z</time>
      </trkpt>
      <trkpt lat="42.9440913163125514984130859375" lon="-7.84261395223438739776611328125">
        <ele>606</ele>
        <time>2019-07-26T10:39:08.000Z</time>
      </trkpt>
      <trkpt lat="42.9440846107900142669677734375" lon="-7.84271419979631900787353515625">
        <ele>605.4000244140625</ele>
        <time>2019-07-26T10:39:09.000Z</time>
      </trkpt>
      <trkpt lat="42.9440587945282459259033203125" lon="-7.84293363802134990692138671875">
        <ele>604.5999755859375</ele>
        <time>2019-07-26T10:39:11.000Z</time>
      </trkpt>
      <trkpt lat="42.94403373263776302337646484375" lon="-7.8430465422570705413818359375">
        <ele>603.79998779296875</ele>
        <time>2019-07-26T10:39:12.000Z</time>
      </trkpt>
      <trkpt lat="42.94399986974895000457763671875" lon="-7.84316196106374263763427734375">
        <ele>603.4000244140625</ele>
        <time>2019-07-26T10:39:13.000Z</time>
      </trkpt>
      <trkpt lat="42.9439260251820087432861328125" lon="-7.84337955527007579803466796875">
        <ele>602.79998779296875</ele>
        <time>2019-07-26T10:39:15.000Z</time>
      </trkpt>
      <trkpt lat="42.94387363828718662261962890625" lon="-7.84359178505837917327880859375">
        <ele>601.79998779296875</ele>
        <time>2019-07-26T10:39:17.000Z</time>
      </trkpt>
      <trkpt lat="42.94385050423443317413330078125" lon="-7.84369580447673797607421875">
        <ele>601.4000244140625</ele>
        <time>2019-07-26T10:39:18.000Z</time>
      </trkpt>
      <trkpt lat="42.9438064992427825927734375" lon="-7.84389303065836429595947265625">
        <ele>600.20001220703125</ele>
        <time>2019-07-26T10:39:20.000Z</time>
      </trkpt>
      <trkpt lat="42.943780012428760528564453125" lon="-7.84405765123665332794189453125">
        <ele>598.79998779296875</ele>
        <time>2019-07-26T10:39:22.000Z</time>
      </trkpt>
      <trkpt lat="42.943769954144954681396484375" lon="-7.84412621520459651947021484375">
        <ele>597.79998779296875</ele>
        <time>2019-07-26T10:39:23.000Z</time>
      </trkpt>
      <trkpt lat="42.9437624104321002960205078125" lon="-7.84418555907905101776123046875">
        <ele>597.5999755859375</ele>
        <time>2019-07-26T10:39:24.000Z</time>
      </trkpt>
      <trkpt lat="42.943741790950298309326171875" lon="-7.84438856877386569976806640625">
        <ele>597</ele>
        <time>2019-07-26T10:39:28.000Z</time>
      </trkpt>
      <trkpt lat="42.94374371878802776336669921875" lon="-7.844478674232959747314453125">
        <ele>597</ele>
        <time>2019-07-26T10:39:30.000Z</time>
      </trkpt>
      <trkpt lat="42.94374489225447177886962890625" lon="-7.84458537586033344268798828125">
        <ele>597</ele>
        <time>2019-07-26T10:39:33.000Z</time>
      </trkpt>
      <trkpt lat="42.94382519088685512542724609375" lon="-7.84473289735615253448486328125">
        <ele>598.20001220703125</ele>
        <time>2019-07-26T10:39:38.000Z</time>
      </trkpt>
      <trkpt lat="42.9438569582998752593994140625" lon="-7.8448109328746795654296875">
        <ele>599</ele>
        <time>2019-07-26T10:39:40.000Z</time>
      </trkpt>
      <trkpt lat="42.9438945092260837554931640625" lon="-7.844965159893035888671875">
        <ele>599.79998779296875</ele>
        <time>2019-07-26T10:39:44.000Z</time>
      </trkpt>
      <trkpt lat="42.9438978619873523712158203125" lon="-7.8450062312185764312744140625">
        <ele>599.79998779296875</ele>
        <time>2019-07-26T10:39:45.000Z</time>
      </trkpt>
      <trkpt lat="42.9438976943492889404296875" lon="-7.84515970386564731597900390625">
        <ele>600.79998779296875</ele>
        <time>2019-07-26T10:39:49.000Z</time>
      </trkpt>
      <trkpt lat="42.94390331022441387176513671875" lon="-7.84524536691606044769287109375">
        <ele>601</ele>
        <time>2019-07-26T10:39:51.000Z</time>
      </trkpt>
      <trkpt lat="42.9439022205770015716552734375" lon="-7.84548374824225902557373046875">
        <ele>602.20001220703125</ele>
        <time>2019-07-26T10:39:56.000Z</time>
      </trkpt>
      <trkpt lat="42.94390448369085788726806640625" lon="-7.84568055532872676849365234375">
        <ele>602.79998779296875</ele>
        <time>2019-07-26T10:40:00.000Z</time>
      </trkpt>
      <trkpt lat="42.9438867978751659393310546875" lon="-7.8458548150956630706787109375">
        <ele>602.79998779296875</ele>
        <time>2019-07-26T10:40:03.000Z</time>
      </trkpt>
      <trkpt lat="42.94387430883944034576416015625" lon="-7.84610903821885585784912109375">
        <ele>602.79998779296875</ele>
        <time>2019-07-26T10:40:07.000Z</time>
      </trkpt>
      <trkpt lat="42.943883277475833892822265625" lon="-7.84622420556843280792236328125">
        <ele>603</ele>
        <time>2019-07-26T10:40:09.000Z</time>
      </trkpt>
      <trkpt lat="42.94389895163476467132568359375" lon="-7.846328057348728179931640625">
        <ele>603</ele>
        <time>2019-07-26T10:40:11.000Z</time>
      </trkpt>
      <trkpt lat="42.94388227164745330810546875" lon="-7.8464435599744319915771484375">
        <ele>603</ele>
        <time>2019-07-26T10:40:13.000Z</time>
      </trkpt>
      <trkpt lat="42.94384061358869075775146484375" lon="-7.84654355607926845550537109375">
        <ele>603</ele>
        <time>2019-07-26T10:40:15.000Z</time>
      </trkpt>
      <trkpt lat="42.94382032938301563262939453125" lon="-7.84659468568861484527587890625">
        <ele>603</ele>
        <time>2019-07-26T10:40:16.000Z</time>
      </trkpt>
      <trkpt lat="42.94379602186381816864013671875" lon="-7.84670348279178142547607421875">
        <ele>603</ele>
        <time>2019-07-26T10:40:18.000Z</time>
      </trkpt>
      <trkpt lat="42.9437627457082271575927734375" lon="-7.84693851135671138763427734375">
        <ele>603</ele>
        <time>2019-07-26T10:40:23.000Z</time>
      </trkpt>
      <trkpt lat="42.94375059194862842559814453125" lon="-7.847096510231494903564453125">
        <ele>603.20001220703125</ele>
        <time>2019-07-26T10:40:26.000Z</time>
      </trkpt>
      <trkpt lat="42.94375997968018054962158203125" lon="-7.8471667505800724029541015625">
        <ele>603.20001220703125</ele>
        <time>2019-07-26T10:40:28.000Z</time>
      </trkpt>
      <trkpt lat="42.94375411234796047210693359375" lon="-7.8473429381847381591796875">
        <ele>603.20001220703125</ele>
        <time>2019-07-26T10:40:31.000Z</time>
      </trkpt>
      <trkpt lat="42.94375226832926273345947265625" lon="-7.84742248244583606719970703125">
        <ele>603.20001220703125</ele>
        <time>2019-07-26T10:40:32.000Z</time>
      </trkpt>
      <trkpt lat="42.94375595636665821075439453125" lon="-7.84794568084180355072021484375">
        <ele>602.79998779296875</ele>
        <time>2019-07-26T10:40:38.000Z</time>
      </trkpt>
      <trkpt lat="42.943731732666492462158203125" lon="-7.84852772019803524017333984375">
        <ele>602</ele>
        <time>2019-07-26T10:40:44.000Z</time>
      </trkpt>
      <trkpt lat="42.94373533688485622406005859375" lon="-7.84862511791288852691650390625">
        <ele>601.79998779296875</ele>
        <time>2019-07-26T10:40:45.000Z</time>
      </trkpt>
      <trkpt lat="42.94376685284078121185302734375" lon="-7.8489645011723041534423828125">
        <ele>601.20001220703125</ele>
        <time>2019-07-26T10:40:49.000Z</time>
      </trkpt>
      <trkpt lat="42.94371387921273708343505859375" lon="-7.84927505068480968475341796875">
        <ele>601</ele>
        <time>2019-07-26T10:40:53.000Z</time>
      </trkpt>
      <trkpt lat="42.943667359650135040283203125" lon="-7.84942902624607086181640625">
        <ele>600.79998779296875</ele>
        <time>2019-07-26T10:40:55.000Z</time>
      </trkpt>
      <trkpt lat="42.94359049759805202484130859375" lon="-7.8496548347175121307373046875">
        <ele>600.79998779296875</ele>
        <time>2019-07-26T10:40:58.000Z</time>
      </trkpt>
      <trkpt lat="42.94351522810757160186767578125" lon="-7.84979037009179592132568359375">
        <ele>600.5999755859375</ele>
        <time>2019-07-26T10:41:00.000Z</time>
      </trkpt>
      <trkpt lat="42.94334314763545989990234375" lon="-7.84989883191883563995361328125">
        <ele>600.5999755859375</ele>
        <time>2019-07-26T10:41:03.000Z</time>
      </trkpt>
      <trkpt lat="42.94327718205749988555908203125" lon="-7.8499160148203372955322265625">
        <ele>600.5999755859375</ele>
        <time>2019-07-26T10:41:04.000Z</time>
      </trkpt>
      <trkpt lat="42.94321213848888874053955078125" lon="-7.84994124434888362884521484375">
        <ele>600.5999755859375</ele>
        <time>2019-07-26T10:41:05.000Z</time>
      </trkpt>
      <trkpt lat="42.94307149015367031097412109375" lon="-7.85007367841899394989013671875">
        <ele>600.4000244140625</ele>
        <time>2019-07-26T10:41:08.000Z</time>
      </trkpt>
      <trkpt lat="42.94302086345851421356201171875" lon="-7.8502182662487030029296875">
        <ele>600.20001220703125</ele>
        <time>2019-07-26T10:41:10.000Z</time>
      </trkpt>
      <trkpt lat="42.94298884458839893341064453125" lon="-7.850370816886425018310546875">
        <ele>600</ele>
        <time>2019-07-26T10:41:12.000Z</time>
      </trkpt>
      <trkpt lat="42.94298104941844940185546875" lon="-7.85053535364568233489990234375">
        <ele>599.79998779296875</ele>
        <time>2019-07-26T10:41:14.000Z</time>
      </trkpt>
      <trkpt lat="42.94299236498773097991943359375" lon="-7.85059939138591289520263671875">
        <ele>599.79998779296875</ele>
        <time>2019-07-26T10:41:15.000Z</time>
      </trkpt>
      <trkpt lat="42.94299873523414134979248046875" lon="-7.85066745243966579437255859375">
        <ele>599.5999755859375</ele>
        <time>2019-07-26T10:41:16.000Z</time>
      </trkpt>
      <trkpt lat="42.9430348612368106842041015625" lon="-7.8507706336677074432373046875">
        <ele>599.4000244140625</ele>
        <time>2019-07-26T10:41:18.000Z</time>
      </trkpt>
      <trkpt lat="42.94306595809757709503173828125" lon="-7.85081715323030948638916015625">
        <ele>599.4000244140625</ele>
        <time>2019-07-26T10:41:19.000Z</time>
      </trkpt>
      <trkpt lat="42.94313385151326656341552734375" lon="-7.85092008300125598907470703125">
        <ele>598.79998779296875</ele>
        <time>2019-07-26T10:41:21.000Z</time>
      </trkpt>
      <trkpt lat="42.9431515373289585113525390625" lon="-7.85104430280625820159912109375">
        <ele>598</ele>
        <time>2019-07-26T10:41:23.000Z</time>
      </trkpt>
      <trkpt lat="42.94312697835266590118408203125" lon="-7.85111303441226482391357421875">
        <ele>597.4000244140625</ele>
        <time>2019-07-26T10:41:24.000Z</time>
      </trkpt>
      <trkpt lat="42.94304450042545795440673828125" lon="-7.85127840936183929443359375">
        <ele>596.4000244140625</ele>
        <time>2019-07-26T10:41:26.000Z</time>
      </trkpt>
      <trkpt lat="42.942994125187397003173828125" lon="-7.85136398859322071075439453125">
        <ele>596</ele>
        <time>2019-07-26T10:41:27.000Z</time>
      </trkpt>
      <trkpt lat="42.94288239441812038421630859375" lon="-7.851530872285366058349609375">
        <ele>594.5999755859375</ele>
        <time>2019-07-26T10:41:29.000Z</time>
      </trkpt>
      <trkpt lat="42.94282279908657073974609375" lon="-7.851622402667999267578125">
        <ele>594.20001220703125</ele>
        <time>2019-07-26T10:41:30.000Z</time>
      </trkpt>
      <trkpt lat="42.94270235113799571990966796875" lon="-7.8518141806125640869140625">
        <ele>593.20001220703125</ele>
        <time>2019-07-26T10:41:32.000Z</time>
      </trkpt>
      <trkpt lat="42.942513339221477508544921875" lon="-7.8521194495260715484619140625">
        <ele>592.5999755859375</ele>
        <time>2019-07-26T10:41:35.000Z</time>
      </trkpt>
      <trkpt lat="42.94244837947189807891845703125" lon="-7.85222648642957210540771484375">
        <ele>592</ele>
        <time>2019-07-26T10:41:36.000Z</time>
      </trkpt>
      <trkpt lat="42.94231762178242206573486328125" lon="-7.85244072787463665008544921875">
        <ele>591.20001220703125</ele>
        <time>2019-07-26T10:41:38.000Z</time>
      </trkpt>
      <trkpt lat="42.942255847156047821044921875" lon="-7.85254516638815402984619140625">
        <ele>591</ele>
        <time>2019-07-26T10:41:39.000Z</time>
      </trkpt>
      <trkpt lat="42.94208577834069728851318359375" lon="-7.852818332612514495849609375">
        <ele>589.79998779296875</ele>
        <time>2019-07-26T10:41:42.000Z</time>
      </trkpt>
      <trkpt lat="42.94204520992934703826904296875" lon="-7.85286954604089260101318359375">
        <ele>589.20001220703125</ele>
        <time>2019-07-26T10:41:43.000Z</time>
      </trkpt>
      <trkpt lat="42.94201754964888095855712890625" lon="-7.85290273837745189666748046875">
        <ele>588.5999755859375</ele>
        <time>2019-07-26T10:41:44.000Z</time>
      </trkpt>
      <trkpt lat="42.94200380332767963409423828125" lon="-7.8529345057904720306396484375">
        <ele>588</ele>
        <time>2019-07-26T10:41:45.000Z</time>
      </trkpt>
      <trkpt lat="42.942005060613155364990234375" lon="-7.85296761430799961090087890625">
        <ele>587.4000244140625</ele>
        <time>2019-07-26T10:41:46.000Z</time>
      </trkpt>
      <trkpt lat="42.94199944473803043365478515625" lon="-7.853018157184123992919921875">
        <ele>586.4000244140625</ele>
        <time>2019-07-26T10:41:47.000Z</time>
      </trkpt>
      <trkpt lat="42.94197295792400836944580078125" lon="-7.853095941245555877685546875">
        <ele>584.20001220703125</ele>
        <time>2019-07-26T10:41:48.000Z</time>
      </trkpt>
      <trkpt lat="42.94193440116941928863525390625" lon="-7.85318118520081043243408203125">
        <ele>583.4000244140625</ele>
        <time>2019-07-26T10:41:49.000Z</time>
      </trkpt>
      <trkpt lat="42.94188913889229297637939453125" lon="-7.85326668061316013336181640625">
        <ele>582.4000244140625</ele>
        <time>2019-07-26T10:41:50.000Z</time>
      </trkpt>
      <trkpt lat="42.94184890575706958770751953125" lon="-7.85334748215973377227783203125">
        <ele>581.4000244140625</ele>
        <time>2019-07-26T10:41:51.000Z</time>
      </trkpt>
      <trkpt lat="42.9418147914111614227294921875" lon="-7.85342149436473846435546875">
        <ele>580.79998779296875</ele>
        <time>2019-07-26T10:41:52.000Z</time>
      </trkpt>
      <trkpt lat="42.9417866282165050506591796875" lon="-7.853496931493282318115234375">
        <ele>580.20001220703125</ele>
        <time>2019-07-26T10:41:53.000Z</time>
      </trkpt>
      <trkpt lat="42.9417470656335353851318359375" lon="-7.8536610491573810577392578125">
        <ele>579.4000244140625</ele>
        <time>2019-07-26T10:41:55.000Z</time>
      </trkpt>
      <trkpt lat="42.94173792935907840728759765625" lon="-7.8538199700415134429931640625">
        <ele>577.79998779296875</ele>
        <time>2019-07-26T10:41:57.000Z</time>
      </trkpt>
      <trkpt lat="42.94174899347126483917236328125" lon="-7.85395952872931957244873046875">
        <ele>576.5999755859375</ele>
        <time>2019-07-26T10:41:59.000Z</time>
      </trkpt>
      <trkpt lat="42.941758967936038970947265625" lon="-7.8540308587253093719482421875">
        <ele>576</ele>
        <time>2019-07-26T10:42:00.000Z</time>
      </trkpt>
      <trkpt lat="42.9417819343507289886474609375" lon="-7.85410168580710887908935546875">
        <ele>575.5999755859375</ele>
        <time>2019-07-26T10:42:01.000Z</time>
      </trkpt>
      <trkpt lat="42.9418100975453853607177734375" lon="-7.85417527891695499420166015625">
        <ele>575.20001220703125</ele>
        <time>2019-07-26T10:42:02.000Z</time>
      </trkpt>
      <trkpt lat="42.94182778336107730865478515625" lon="-7.85425943322479724884033203125">
        <ele>574.5999755859375</ele>
        <time>2019-07-26T10:42:03.000Z</time>
      </trkpt>
      <trkpt lat="42.94181604869663715362548828125" lon="-7.85435968078672885894775390625">
        <ele>574</ele>
        <time>2019-07-26T10:42:04.000Z</time>
      </trkpt>
      <trkpt lat="42.941787131130695343017578125" lon="-7.854449786245822906494140625">
        <ele>572.79998779296875</ele>
        <time>2019-07-26T10:42:05.000Z</time>
      </trkpt>
      <trkpt lat="42.94174253940582275390625" lon="-7.8545233793556690216064453125">
        <ele>571.79998779296875</ele>
        <time>2019-07-26T10:42:06.000Z</time>
      </trkpt>
      <trkpt lat="42.94163164682686328887939453125" lon="-7.85462555475533008575439453125">
        <ele>569.4000244140625</ele>
        <time>2019-07-26T10:42:08.000Z</time>
      </trkpt>
      <trkpt lat="42.941573224961757659912109375" lon="-7.85466595552861690521240234375">
        <ele>568</ele>
        <time>2019-07-26T10:42:09.000Z</time>
      </trkpt>
      <trkpt lat="42.94152016751468181610107421875" lon="-7.85470887087285518646240234375">
        <ele>567.20001220703125</ele>
        <time>2019-07-26T10:42:10.000Z</time>
      </trkpt>
      <trkpt lat="42.94147071428596973419189453125" lon="-7.8547557257115840911865234375">
        <ele>566.79998779296875</ele>
        <time>2019-07-26T10:42:11.000Z</time>
      </trkpt>
      <trkpt lat="42.94137775897979736328125" lon="-7.8548553027212619781494140625">
        <ele>566.4000244140625</ele>
        <time>2019-07-26T10:42:13.000Z</time>
      </trkpt>
      <trkpt lat="42.941213808953762054443359375" lon="-7.85504498519003391265869140625">
        <ele>566.4000244140625</ele>
        <time>2019-07-26T10:42:17.000Z</time>
      </trkpt>
      <trkpt lat="42.941153459250926971435546875" lon="-7.85514724440872669219970703125">
        <ele>566.4000244140625</ele>
        <time>2019-07-26T10:42:19.000Z</time>
      </trkpt>
      <trkpt lat="42.9410973004996776580810546875" lon="-7.85524866543710231781005859375">
        <ele>566.79998779296875</ele>
        <time>2019-07-26T10:42:21.000Z</time>
      </trkpt>
      <trkpt lat="42.941047847270965576171875" lon="-7.85535871982574462890625">
        <ele>567.4000244140625</ele>
        <time>2019-07-26T10:42:23.000Z</time>
      </trkpt>
      <trkpt lat="42.941001914441585540771484375" lon="-7.8555385954678058624267578125">
        <ele>567.79998779296875</ele>
        <time>2019-07-26T10:42:26.000Z</time>
      </trkpt>
      <trkpt lat="42.9409977234899997711181640625" lon="-7.855603806674480438232421875">
        <ele>567.79998779296875</ele>
        <time>2019-07-26T10:42:27.000Z</time>
      </trkpt>
      <trkpt lat="42.94101557694375514984130859375" lon="-7.855738587677478790283203125">
        <ele>568.20001220703125</ele>
        <time>2019-07-26T10:42:29.000Z</time>
      </trkpt>
      <trkpt lat="42.9410309158265590667724609375" lon="-7.85580656491219997406005859375">
        <ele>568.20001220703125</ele>
        <time>2019-07-26T10:42:30.000Z</time>
      </trkpt>
      <trkpt lat="42.94110291637480258941650390625" lon="-7.85600689239799976348876953125">
        <ele>568.20001220703125</ele>
        <time>2019-07-26T10:42:33.000Z</time>
      </trkpt>
      <trkpt lat="42.94119059108197689056396484375" lon="-7.85621979273855686187744140625">
        <ele>568.5999755859375</ele>
        <time>2019-07-26T10:42:36.000Z</time>
      </trkpt>
      <trkpt lat="42.94139393605291843414306640625" lon="-7.856769897043704986572265625">
        <ele>568.5999755859375</ele>
        <time>2019-07-26T10:42:44.000Z</time>
      </trkpt>
      <trkpt lat="42.941496111452579498291015625" lon="-7.85709536634385585784912109375">
        <ele>568.4000244140625</ele>
        <time>2019-07-26T10:42:49.000Z</time>
      </trkpt>
      <trkpt lat="42.94152083806693553924560546875" lon="-7.85723132081329822540283203125">
        <ele>568.4000244140625</ele>
        <time>2019-07-26T10:42:51.000Z</time>
      </trkpt>
      <trkpt lat="42.941598705947399139404296875" lon="-7.85763926804065704345703125">
        <ele>568.79998779296875</ele>
        <time>2019-07-26T10:42:57.000Z</time>
      </trkpt>
      <trkpt lat="42.94163399375975131988525390625" lon="-7.85784085281193256378173828125">
        <ele>569</ele>
        <time>2019-07-26T10:43:00.000Z</time>
      </trkpt>
      <trkpt lat="42.9417276196181774139404296875" lon="-7.858414761722087860107421875">
        <ele>569.4000244140625</ele>
        <time>2019-07-26T10:43:09.000Z</time>
      </trkpt>
      <trkpt lat="42.94176508672535419464111328125" lon="-7.85870871506631374359130859375">
        <ele>569.79998779296875</ele>
        <time>2019-07-26T10:43:14.000Z</time>
      </trkpt>
      <trkpt lat="42.9417668469250202178955078125" lon="-7.85881583578884601593017578125">
        <ele>570</ele>
        <time>2019-07-26T10:43:16.000Z</time>
      </trkpt>
      <trkpt lat="42.9417725466191768646240234375" lon="-7.8589781932532787322998046875">
        <ele>570.5999755859375</ele>
        <time>2019-07-26T10:43:19.000Z</time>
      </trkpt>
      <trkpt lat="42.941779755055904388427734375" lon="-7.85907701589167118072509765625">
        <ele>571</ele>
        <time>2019-07-26T10:43:21.000Z</time>
      </trkpt>
      <trkpt lat="42.941784448921680450439453125" lon="-7.85915865562856197357177734375">
        <ele>571.4000244140625</ele>
        <time>2019-07-26T10:43:23.000Z</time>
      </trkpt>
      <trkpt lat="42.941833399236202239990234375" lon="-7.859380356967449188232421875">
        <ele>572.20001220703125</ele>
        <time>2019-07-26T10:43:28.000Z</time>
      </trkpt>
      <trkpt lat="42.94184605590999126434326171875" lon="-7.85943877883255481719970703125">
        <ele>572.4000244140625</ele>
        <time>2019-07-26T10:43:29.000Z</time>
      </trkpt>
      <trkpt lat="42.94186801649630069732666015625" lon="-7.85972225479781627655029296875">
        <ele>573.4000244140625</ele>
        <time>2019-07-26T10:43:33.000Z</time>
      </trkpt>
      <trkpt lat="42.94190556742250919342041015625" lon="-7.85992258228361606597900390625">
        <ele>573.79998779296875</ele>
        <time>2019-07-26T10:43:36.000Z</time>
      </trkpt>
      <trkpt lat="42.9419415257871150970458984375" lon="-7.86018141545355319976806640625">
        <ele>574.20001220703125</ele>
        <time>2019-07-26T10:43:40.000Z</time>
      </trkpt>
      <trkpt lat="42.9419448785483837127685546875" lon="-7.8603052161633968353271484375">
        <ele>574.4000244140625</ele>
        <time>2019-07-26T10:43:42.000Z</time>
      </trkpt>
      <trkpt lat="42.941942028701305389404296875" lon="-7.86036414094269275665283203125">
        <ele>574.5999755859375</ele>
        <time>2019-07-26T10:43:43.000Z</time>
      </trkpt>
      <trkpt lat="42.941927611827850341796875" lon="-7.86048375070095062255859375">
        <ele>574.5999755859375</ele>
        <time>2019-07-26T10:43:45.000Z</time>
      </trkpt>
      <trkpt lat="42.94190338812768459320068359375" lon="-7.86069975234568119049072265625">
        <ele>574.79998779296875</ele>
        <time>2019-07-26T10:43:49.000Z</time>
      </trkpt>
      <trkpt lat="42.94187773950397968292236328125" lon="-7.8607672266662120819091796875">
        <ele>574.79998779296875</ele>
        <time>2019-07-26T10:43:51.000Z</time>
      </trkpt>
      <trkpt lat="42.9418297111988067626953125" lon="-7.8608369641005992889404296875">
        <ele>575</ele>
        <time>2019-07-26T10:43:53.000Z</time>
      </trkpt>
      <trkpt lat="42.94177271425724029541015625" lon="-7.860991694033145904541015625">
        <ele>575.20001220703125</ele>
        <time>2019-07-26T10:43:56.000Z</time>
      </trkpt>
      <trkpt lat="42.941746227443218231201171875" lon="-7.861057408154010772705078125">
        <ele>575.20001220703125</ele>
        <time>2019-07-26T10:43:57.000Z</time>
      </trkpt>
      <trkpt lat="42.94169518165290355682373046875" lon="-7.8611992299556732177734375">
        <ele>575.20001220703125</ele>
        <time>2019-07-26T10:43:59.000Z</time>
      </trkpt>
      <trkpt lat="42.94166349805891513824462890625" lon="-7.86126804538071155548095703125">
        <ele>575.20001220703125</ele>
        <time>2019-07-26T10:44:00.000Z</time>
      </trkpt>
      <trkpt lat="42.9415733925998210906982421875" lon="-7.86137533374130725860595703125">
        <ele>575.20001220703125</ele>
        <time>2019-07-26T10:44:02.000Z</time>
      </trkpt>
      <trkpt lat="42.9415324889123439788818359375" lon="-7.86143484525382518768310546875">
        <ele>575.20001220703125</ele>
        <time>2019-07-26T10:44:03.000Z</time>
      </trkpt>
      <trkpt lat="42.94147138483822345733642578125" lon="-7.86158085800707340240478515625">
        <ele>574.79998779296875</ele>
        <time>2019-07-26T10:44:05.000Z</time>
      </trkpt>
      <trkpt lat="42.94143467210233211517333984375" lon="-7.86176257766783237457275390625">
        <ele>574.4000244140625</ele>
        <time>2019-07-26T10:44:07.000Z</time>
      </trkpt>
      <trkpt lat="42.94140282087028026580810546875" lon="-7.86197346635162830352783203125">
        <ele>573.79998779296875</ele>
        <time>2019-07-26T10:44:09.000Z</time>
      </trkpt>
      <trkpt lat="42.94138245284557342529296875" lon="-7.86218536086380481719970703125">
        <ele>573.20001220703125</ele>
        <time>2019-07-26T10:44:11.000Z</time>
      </trkpt>
      <trkpt lat="42.94137532822787761688232421875" lon="-7.8624022006988525390625">
        <ele>572</ele>
        <time>2019-07-26T10:44:13.000Z</time>
      </trkpt>
      <trkpt lat="42.94137968681752681732177734375" lon="-7.86250337027013301849365234375">
        <ele>571.4000244140625</ele>
        <time>2019-07-26T10:44:14.000Z</time>
      </trkpt>
      <trkpt lat="42.94138672761619091033935546875" lon="-7.8625978343188762664794921875">
        <ele>570.79998779296875</ele>
        <time>2019-07-26T10:44:15.000Z</time>
      </trkpt>
      <trkpt lat="42.9414107836782932281494140625" lon="-7.86276404745876789093017578125">
        <ele>569.79998779296875</ele>
        <time>2019-07-26T10:44:17.000Z</time>
      </trkpt>
      <trkpt lat="42.94144540093839168548583984375" lon="-7.86291182041168212890625">
        <ele>569</ele>
        <time>2019-07-26T10:44:19.000Z</time>
      </trkpt>
      <trkpt lat="42.9414610750973224639892578125" lon="-7.86298901773989200592041015625">
        <ele>568.5999755859375</ele>
        <time>2019-07-26T10:44:20.000Z</time>
      </trkpt>
      <trkpt lat="42.941514551639556884765625" lon="-7.8632740862667560577392578125">
        <ele>567.4000244140625</ele>
        <time>2019-07-26T10:44:23.000Z</time>
      </trkpt>
      <trkpt lat="42.9415328241884708404541015625" lon="-7.86338028497993946075439453125">
        <ele>567</ele>
        <time>2019-07-26T10:44:24.000Z</time>
      </trkpt>
      <trkpt lat="42.94155268929898738861083984375" lon="-7.8635788522660732269287109375">
        <ele>566.5999755859375</ele>
        <time>2019-07-26T10:44:26.000Z</time>
      </trkpt>
      <trkpt lat="42.94156677089631557464599609375" lon="-7.86372788250446319580078125">
        <ele>566.4000244140625</ele>
        <time>2019-07-26T10:44:28.000Z</time>
      </trkpt>
      <trkpt lat="42.9415717162191867828369140625" lon="-7.86386626772582530975341796875">
        <ele>566</ele>
        <time>2019-07-26T10:44:30.000Z</time>
      </trkpt>
      <trkpt lat="42.94159275479614734649658203125" lon="-7.86412359215319156646728515625">
        <ele>565.79998779296875</ele>
        <time>2019-07-26T10:44:33.000Z</time>
      </trkpt>
      <trkpt lat="42.94163701124489307403564453125" lon="-7.86454754881560802459716796875">
        <ele>565</ele>
        <time>2019-07-26T10:44:38.000Z</time>
      </trkpt>
      <trkpt lat="42.94162829406559467315673828125" lon="-7.86464226432144641876220703125">
        <ele>564.79998779296875</ele>
        <time>2019-07-26T10:44:39.000Z</time>
      </trkpt>
      <trkpt lat="42.941620834171772003173828125" lon="-7.86473429761826992034912109375">
        <ele>564.79998779296875</ele>
        <time>2019-07-26T10:44:40.000Z</time>
      </trkpt>
      <trkpt lat="42.9416085965931415557861328125" lon="-7.865010984241962432861328125">
        <ele>564.20001220703125</ele>
        <time>2019-07-26T10:44:43.000Z</time>
      </trkpt>
      <trkpt lat="42.9416008852422237396240234375" lon="-7.8653018362820148468017578125">
        <ele>563.79998779296875</ele>
        <time>2019-07-26T10:44:46.000Z</time>
      </trkpt>
      <trkpt lat="42.94160767458379268646240234375" lon="-7.865601070225238800048828125">
        <ele>563.20001220703125</ele>
        <time>2019-07-26T10:44:49.000Z</time>
      </trkpt>
      <trkpt lat="42.94161153025925159454345703125" lon="-7.8656931035220623016357421875">
        <ele>563</ele>
        <time>2019-07-26T10:44:50.000Z</time>
      </trkpt>
      <trkpt lat="42.9416166432201862335205078125" lon="-7.86585931666195392608642578125">
        <ele>562.79998779296875</ele>
        <time>2019-07-26T10:44:52.000Z</time>
      </trkpt>
      <trkpt lat="42.9416357539594173431396484375" lon="-7.8660374321043491363525390625">
        <ele>562.4000244140625</ele>
        <time>2019-07-26T10:44:55.000Z</time>
      </trkpt>
      <trkpt lat="42.9416327364742755889892578125" lon="-7.86606634967029094696044921875">
        <ele>562.20001220703125</ele>
        <time>2019-07-26T10:44:56.000Z</time>
      </trkpt>
      <trkpt lat="42.941624186933040618896484375" lon="-7.86608194001019001007080078125">
        <ele>562.20001220703125</ele>
        <time>2019-07-26T10:44:57.000Z</time>
      </trkpt>
      <trkpt lat="42.94161069206893444061279296875" lon="-7.8660835325717926025390625">
        <ele>562</ele>
        <time>2019-07-26T10:44:58.000Z</time>
      </trkpt>
      <trkpt lat="42.94159946031868457794189453125" lon="-7.86606534384191036224365234375">
        <ele>561.5999755859375</ele>
        <time>2019-07-26T10:45:00.000Z</time>
      </trkpt>
      <trkpt lat="42.94159174896776676177978515625" lon="-7.8660555370151996612548828125">
        <ele>560.5999755859375</ele>
        <time>2019-07-26T10:45:02.000Z</time>
      </trkpt>
      <trkpt lat="42.94164128601551055908203125" lon="-7.8659616596996784210205078125">
        <ele>559</ele>
        <time>2019-07-26T10:45:12.000Z</time>
      </trkpt>
      <trkpt lat="42.9416595585644245147705078125" lon="-7.8660075925290584564208984375">
        <ele>559</ele>
        <time>2019-07-26T10:45:13.000Z</time>
      </trkpt>
      <trkpt lat="42.941692583262920379638671875" lon="-7.86611161194741725921630859375">
        <ele>559</ele>
        <time>2019-07-26T10:45:15.000Z</time>
      </trkpt>
      <trkpt lat="42.941750586032867431640625" lon="-7.86629919894039630889892578125">
        <ele>559</ele>
        <time>2019-07-26T10:45:18.000Z</time>
      </trkpt>
      <trkpt lat="42.941779755055904388427734375" lon="-7.86642886698246002197265625">
        <ele>559</ele>
        <time>2019-07-26T10:45:20.000Z</time>
      </trkpt>
      <trkpt lat="42.94182711280882358551025390625" lon="-7.8666318766772747039794921875">
        <ele>558.5999755859375</ele>
        <time>2019-07-26T10:45:23.000Z</time>
      </trkpt>
      <trkpt lat="42.94199776835739612579345703125" lon="-7.86682340316474437713623046875">
        <ele>558</ele>
        <time>2019-07-26T10:45:26.000Z</time>
      </trkpt>
      <trkpt lat="42.9420444555580615997314453125" lon="-7.86687687970697879791259765625">
        <ele>557.79998779296875</ele>
        <time>2019-07-26T10:45:27.000Z</time>
      </trkpt>
      <trkpt lat="42.94208728708326816558837890625" lon="-7.866922728717327117919921875">
        <ele>557.5999755859375</ele>
        <time>2019-07-26T10:45:28.000Z</time>
      </trkpt>
      <trkpt lat="42.94213171117007732391357421875" lon="-7.86697444505989551544189453125">
        <ele>557.4000244140625</ele>
        <time>2019-07-26T10:45:29.000Z</time>
      </trkpt>
      <trkpt lat="42.94217026792466640472412109375" lon="-7.8670325316488742828369140625">
        <ele>557.20001220703125</ele>
        <time>2019-07-26T10:45:30.000Z</time>
      </trkpt>
      <trkpt lat="42.942203544080257415771484375" lon="-7.86709682084619998931884765625">
        <ele>557.20001220703125</ele>
        <time>2019-07-26T10:45:31.000Z</time>
      </trkpt>
      <trkpt lat="42.9422191344201564788818359375" lon="-7.8671780414879322052001953125">
        <ele>556.5999755859375</ele>
        <time>2019-07-26T10:45:32.000Z</time>
      </trkpt>
      <trkpt lat="42.94222072698175907135009765625" lon="-7.86727242171764373779296875">
        <ele>555.79998779296875</ele>
        <time>2019-07-26T10:45:33.000Z</time>
      </trkpt>
      <trkpt lat="42.9422204755246639251708984375" lon="-7.867370657622814178466796875">
        <ele>555</ele>
        <time>2019-07-26T10:45:34.000Z</time>
      </trkpt>
      <trkpt lat="42.94221335090696811676025390625" lon="-7.8674811311066150665283203125">
        <ele>553.79998779296875</ele>
        <time>2019-07-26T10:45:35.000Z</time>
      </trkpt>
      <trkpt lat="42.94216968119144439697265625" lon="-7.86763644777238368988037109375">
        <ele>552.5999755859375</ele>
        <time>2019-07-26T10:45:36.000Z</time>
      </trkpt>
      <trkpt lat="42.94212567619979381561279296875" lon="-7.8677728213369846343994140625">
        <ele>551.4000244140625</ele>
        <time>2019-07-26T10:45:37.000Z</time>
      </trkpt>
      <trkpt lat="42.9420934058725833892822265625" lon="-7.8678653575479984283447265625">
        <ele>550.4000244140625</ele>
        <time>2019-07-26T10:45:38.000Z</time>
      </trkpt>
      <trkpt lat="42.94205359183251857757568359375" lon="-7.86795747466385364532470703125">
        <ele>549.20001220703125</ele>
        <time>2019-07-26T10:45:39.000Z</time>
      </trkpt>
      <trkpt lat="42.94201411306858062744140625" lon="-7.86804514937102794647216796875">
        <ele>547.20001220703125</ele>
        <time>2019-07-26T10:45:40.000Z</time>
      </trkpt>
      <trkpt lat="42.9419599659740924835205078125" lon="-7.868137769401073455810546875">
        <ele>546.4000244140625</ele>
        <time>2019-07-26T10:45:41.000Z</time>
      </trkpt>
      <trkpt lat="42.9419053159654140472412109375" lon="-7.86821278743445873260498046875">
        <ele>545.4000244140625</ele>
        <time>2019-07-26T10:45:42.000Z</time>
      </trkpt>
      <trkpt lat="42.9418473131954669952392578125" lon="-7.8682867996394634246826171875">
        <ele>544.5999755859375</ele>
        <time>2019-07-26T10:45:43.000Z</time>
      </trkpt>
      <trkpt lat="42.94178956188261508941650390625" lon="-7.8683702833950519561767578125">
        <ele>543.5999755859375</ele>
        <time>2019-07-26T10:45:44.000Z</time>
      </trkpt>
      <trkpt lat="42.94170272536575794219970703125" lon="-7.8685137815773487091064453125">
        <ele>541.79998779296875</ele>
        <time>2019-07-26T10:45:46.000Z</time>
      </trkpt>
      <trkpt lat="42.9416907392442226409912109375" lon="-7.86857807077467441558837890625">
        <ele>540.5999755859375</ele>
        <time>2019-07-26T10:45:47.000Z</time>
      </trkpt>
      <trkpt lat="42.941685207188129425048828125" lon="-7.86871201358735561370849609375">
        <ele>539</ele>
        <time>2019-07-26T10:45:49.000Z</time>
      </trkpt>
      <trkpt lat="42.941747568547725677490234375" lon="-7.86880530416965484619140625">
        <ele>537.79998779296875</ele>
        <time>2019-07-26T10:45:51.000Z</time>
      </trkpt>
      <trkpt lat="42.94181185774505138397216796875" lon="-7.8688998520374298095703125">
        <ele>536.4000244140625</ele>
        <time>2019-07-26T10:45:53.000Z</time>
      </trkpt>
      <trkpt lat="42.9418540187180042266845703125" lon="-7.8690019436180591583251953125">
        <ele>534.79998779296875</ele>
        <time>2019-07-26T10:45:55.000Z</time>
      </trkpt>
      <trkpt lat="42.94186231680214405059814453125" lon="-7.869060449302196502685546875">
        <ele>534.4000244140625</ele>
        <time>2019-07-26T10:45:56.000Z</time>
      </trkpt>
      <trkpt lat="42.94189475476741790771484375" lon="-7.8691779635846614837646484375">
        <ele>534.20001220703125</ele>
        <time>2019-07-26T10:45:58.000Z</time>
      </trkpt>
      <trkpt lat="42.9419056512415409088134765625" lon="-7.8692420013248920440673828125">
        <ele>534</ele>
        <time>2019-07-26T10:45:59.000Z</time>
      </trkpt>
      <trkpt lat="42.9419128596782684326171875" lon="-7.869369573891162872314453125">
        <ele>534</ele>
        <time>2019-07-26T10:46:01.000Z</time>
      </trkpt>
      <trkpt lat="42.94194093905389308929443359375" lon="-7.8694827295839786529541015625">
        <ele>534</ele>
        <time>2019-07-26T10:46:03.000Z</time>
      </trkpt>
      <trkpt lat="42.94197681359946727752685546875" lon="-7.86961340345442295074462890625">
        <ele>534</ele>
        <time>2019-07-26T10:46:05.000Z</time>
      </trkpt>
      <trkpt lat="42.9419894702732563018798828125" lon="-7.8696822188794612884521484375">
        <ele>534</ele>
        <time>2019-07-26T10:46:06.000Z</time>
      </trkpt>
      <trkpt lat="42.9419985227286815643310546875" lon="-7.86975488997995853424072265625">
        <ele>534</ele>
        <time>2019-07-26T10:46:07.000Z</time>
      </trkpt>
      <trkpt lat="42.9420246742665767669677734375" lon="-7.86989604122936725616455078125">
        <ele>534</ele>
        <time>2019-07-26T10:46:09.000Z</time>
      </trkpt>
      <trkpt lat="42.9420364089310169219970703125" lon="-7.870044820010662078857421875">
        <ele>534</ele>
        <time>2019-07-26T10:46:11.000Z</time>
      </trkpt>
      <trkpt lat="42.94203146360814571380615234375" lon="-7.8703348338603973388671875">
        <ele>534</ele>
        <time>2019-07-26T10:46:15.000Z</time>
      </trkpt>
      <trkpt lat="42.94203431345522403717041015625" lon="-7.87051211111247539520263671875">
        <ele>534.4000244140625</ele>
        <time>2019-07-26T10:46:18.000Z</time>
      </trkpt>
      <trkpt lat="42.94203565455973148345947265625" lon="-7.87062007002532482147216796875">
        <ele>534.20001220703125</ele>
        <time>2019-07-26T10:46:20.000Z</time>
      </trkpt>
      <trkpt lat="42.94204219244420528411865234375" lon="-7.87078184075653553009033203125">
        <ele>534.5999755859375</ele>
        <time>2019-07-26T10:46:23.000Z</time>
      </trkpt>
      <trkpt lat="42.9420461319386959075927734375" lon="-7.8708815015852451324462890625">
        <ele>535.20001220703125</ele>
        <time>2019-07-26T10:46:25.000Z</time>
      </trkpt>
      <trkpt lat="42.9420511610805988311767578125" lon="-7.870928607881069183349609375">
        <ele>535.20001220703125</ele>
        <time>2019-07-26T10:46:26.000Z</time>
      </trkpt>
      <trkpt lat="42.94203917495906352996826171875" lon="-7.87110353820025920867919921875">
        <ele>535.79998779296875</ele>
        <time>2019-07-26T10:46:29.000Z</time>
      </trkpt>
      <trkpt lat="42.9420260153710842132568359375" lon="-7.87127804942429065704345703125">
        <ele>536.5999755859375</ele>
        <time>2019-07-26T10:46:32.000Z</time>
      </trkpt>
      <trkpt lat="42.9420203156769275665283203125" lon="-7.87133504636585712432861328125">
        <ele>536.79998779296875</ele>
        <time>2019-07-26T10:46:33.000Z</time>
      </trkpt>
      <trkpt lat="42.94200447387993335723876953125" lon="-7.871608547866344451904296875">
        <ele>538</ele>
        <time>2019-07-26T10:46:38.000Z</time>
      </trkpt>
      <trkpt lat="42.942008078098297119140625" lon="-7.871658168733119964599609375">
        <ele>538.20001220703125</ele>
        <time>2019-07-26T10:46:39.000Z</time>
      </trkpt>
      <trkpt lat="42.94201369397342205047607421875" lon="-7.87190325558185577392578125">
        <ele>539</ele>
        <time>2019-07-26T10:46:44.000Z</time>
      </trkpt>
      <trkpt lat="42.94201319105923175811767578125" lon="-7.871994785964488983154296875">
        <ele>539.4000244140625</ele>
        <time>2019-07-26T10:46:46.000Z</time>
      </trkpt>
      <trkpt lat="42.94205275364220142364501953125" lon="-7.872230149805545806884765625">
        <ele>540</ele>
        <time>2019-07-26T10:46:51.000Z</time>
      </trkpt>
      <trkpt lat="42.94206381775438785552978515625" lon="-7.87227968685328960418701171875">
        <ele>540.20001220703125</ele>
        <time>2019-07-26T10:46:52.000Z</time>
      </trkpt>
      <trkpt lat="42.94211394153535366058349609375" lon="-7.8724650107324123382568359375">
        <ele>541.20001220703125</ele>
        <time>2019-07-26T10:46:56.000Z</time>
      </trkpt>
      <trkpt lat="42.94213321991264820098876953125" lon="-7.8725039027631282806396484375">
        <ele>541.20001220703125</ele>
        <time>2019-07-26T10:46:57.000Z</time>
      </trkpt>
      <trkpt lat="42.94220681302249431610107421875" lon="-7.8727218322455883026123046875">
        <ele>542.20001220703125</ele>
        <time>2019-07-26T10:47:02.000Z</time>
      </trkpt>
      <trkpt lat="42.94222139753401279449462890625" lon="-7.8727617301046848297119140625">
        <ele>542.4000244140625</ele>
        <time>2019-07-26T10:47:03.000Z</time>
      </trkpt>
      <trkpt lat="42.94229281134903430938720703125" lon="-7.872857116162776947021484375">
        <ele>543.20001220703125</ele>
        <time>2019-07-26T10:47:06.000Z</time>
      </trkpt>
      <trkpt lat="42.9423462040722370147705078125" lon="-7.872889973223209381103515625">
        <ele>543.5999755859375</ele>
        <time>2019-07-26T10:47:08.000Z</time>
      </trkpt>
      <trkpt lat="42.942424826323986053466796875" lon="-7.87292710505425930023193359375">
        <ele>544.4000244140625</ele>
        <time>2019-07-26T10:47:11.000Z</time>
      </trkpt>
      <trkpt lat="42.942537479102611541748046875" lon="-7.87300036288797855377197265625">
        <ele>545.5999755859375</ele>
        <time>2019-07-26T10:47:15.000Z</time>
      </trkpt>
      <trkpt lat="42.94264443218708038330078125" lon="-7.87312240339815616607666015625">
        <ele>546.5999755859375</ele>
        <time>2019-07-26T10:47:19.000Z</time>
      </trkpt>
      <trkpt lat="42.94272917322814464569091796875" lon="-7.87325064651668071746826171875">
        <ele>547.4000244140625</ele>
        <time>2019-07-26T10:47:23.000Z</time>
      </trkpt>
      <trkpt lat="42.94276907108724117279052734375" lon="-7.87333178333938121795654296875">
        <ele>547.5999755859375</ele>
        <time>2019-07-26T10:47:26.000Z</time>
      </trkpt>
      <trkpt lat="42.94281181879341602325439453125" lon="-7.8734349645674228668212890625">
        <ele>548.20001220703125</ele>
        <time>2019-07-26T10:47:29.000Z</time>
      </trkpt>
      <trkpt lat="42.94283931143581867218017578125" lon="-7.873514257371425628662109375">
        <ele>548.79998779296875</ele>
        <time>2019-07-26T10:47:31.000Z</time>
      </trkpt>
      <trkpt lat="42.94285188429057598114013671875" lon="-7.8735751099884510040283203125">
        <ele>549.20001220703125</ele>
        <time>2019-07-26T10:47:33.000Z</time>
      </trkpt>
      <trkpt lat="42.9428491182625293731689453125" lon="-7.87358391098678112030029296875">
        <ele>549.4000244140625</ele>
        <time>2019-07-26T10:47:34.000Z</time>
      </trkpt>
      <trkpt lat="42.9428474418818950653076171875" lon="-7.873592376708984375">
        <ele>549.79998779296875</ele>
        <time>2019-07-26T10:47:36.000Z</time>
      </trkpt>
      <trkpt lat="42.94288021512329578399658203125" lon="-7.87367108277976512908935546875">
        <ele>550.79998779296875</ele>
        <time>2019-07-26T10:47:43.000Z</time>
      </trkpt>
      <trkpt lat="42.94289161451160907745361328125" lon="-7.873691953718662261962890625">
        <ele>550.79998779296875</ele>
        <time>2019-07-26T10:47:44.000Z</time>
      </trkpt>
      <trkpt lat="42.94290452264249324798583984375" lon="-7.87371232174336910247802734375">
        <ele>550.79998779296875</ele>
        <time>2019-07-26T10:47:45.000Z</time>
      </trkpt>
      <trkpt lat="42.94294056482613086700439453125" lon="-7.87379563786089420318603515625">
        <ele>550.79998779296875</ele>
        <time>2019-07-26T10:47:48.000Z</time>
      </trkpt>
      <trkpt lat="42.9429481923580169677734375" lon="-7.87386101670563220977783203125">
        <ele>550.79998779296875</ele>
        <time>2019-07-26T10:47:50.000Z</time>
      </trkpt>
      <trkpt lat="42.94294794090092182159423828125" lon="-7.87399630062282085418701171875">
        <ele>551.79998779296875</ele>
        <time>2019-07-26T10:47:55.000Z</time>
      </trkpt>
      <trkpt lat="42.942937798798084259033203125" lon="-7.874070815742015838623046875">
        <ele>552.4000244140625</ele>
        <time>2019-07-26T10:47:58.000Z</time>
      </trkpt>
      <trkpt lat="42.942937798798084259033203125" lon="-7.8740914352238178253173828125">
        <ele>553</ele>
        <time>2019-07-26T10:47:59.000Z</time>
      </trkpt>
      <trkpt lat="42.94293218292295932769775390625" lon="-7.87418422289192676544189453125">
        <ele>554.20001220703125</ele>
        <time>2019-07-26T10:48:03.000Z</time>
      </trkpt>
      <trkpt lat="42.942923717200756072998046875" lon="-7.87422965280711650848388671875">
        <ele>554.5999755859375</ele>
        <time>2019-07-26T10:48:05.000Z</time>
      </trkpt>
      <trkpt lat="42.94289547018706798553466796875" lon="-7.8743291459977626800537109375">
        <ele>555.20001220703125</ele>
        <time>2019-07-26T10:48:09.000Z</time>
      </trkpt>
      <trkpt lat="42.942893207073211669921875" lon="-7.87435236386954784393310546875">
        <ele>555.4000244140625</ele>
        <time>2019-07-26T10:48:10.000Z</time>
      </trkpt>
      <trkpt lat="42.94286563061177730560302734375" lon="-7.8744431398808956146240234375">
        <ele>556.4000244140625</ele>
        <time>2019-07-26T10:48:14.000Z</time>
      </trkpt>
      <trkpt lat="42.9428655467927455902099609375" lon="-7.8744595684111118316650390625">
        <ele>556.5999755859375</ele>
        <time>2019-07-26T10:48:15.000Z</time>
      </trkpt>
      <trkpt lat="42.942855991423130035400390625" lon="-7.8744984604418277740478515625">
        <ele>557</ele>
        <time>2019-07-26T10:48:17.000Z</time>
      </trkpt>
      <trkpt lat="42.94279723428189754486083984375" lon="-7.8746546991169452667236328125">
        <ele>557.5999755859375</ele>
        <time>2019-07-26T10:48:22.000Z</time>
      </trkpt>
      <trkpt lat="42.94271073304116725921630859375" lon="-7.8749182261526584625244140625">
        <ele>558.79998779296875</ele>
        <time>2019-07-26T10:48:29.000Z</time>
      </trkpt>
      <trkpt lat="42.942660860717296600341796875" lon="-7.875241935253143310546875">
        <ele>560</ele>
        <time>2019-07-26T10:48:36.000Z</time>
      </trkpt>
      <trkpt lat="42.94260059483349323272705078125" lon="-7.8755892813205718994140625">
        <ele>560.4000244140625</ele>
        <time>2019-07-26T10:48:43.000Z</time>
      </trkpt>
      <trkpt lat="42.9425694979727268218994140625" lon="-7.87578332237899303436279296875">
        <ele>561.20001220703125</ele>
        <time>2019-07-26T10:48:47.000Z</time>
      </trkpt>
      <trkpt lat="42.9425627924501895904541015625" lon="-7.875869907438755035400390625">
        <ele>561.5999755859375</ele>
        <time>2019-07-26T10:48:49.000Z</time>
      </trkpt>
      <trkpt lat="42.9425493814051151275634765625" lon="-7.8760568238794803619384765625">
        <ele>562</ele>
        <time>2019-07-26T10:48:53.000Z</time>
      </trkpt>
      <trkpt lat="42.9425409995019435882568359375" lon="-7.876144163310527801513671875">
        <ele>562.4000244140625</ele>
        <time>2019-07-26T10:48:55.000Z</time>
      </trkpt>
      <trkpt lat="42.94252867810428142547607421875" lon="-7.87629059515893459320068359375">
        <ele>562.79998779296875</ele>
        <time>2019-07-26T10:48:59.000Z</time>
      </trkpt>
      <trkpt lat="42.9425324499607086181640625" lon="-7.876339294016361236572265625">
        <ele>563.20001220703125</ele>
        <time>2019-07-26T10:49:01.000Z</time>
      </trkpt>
      <trkpt lat="42.94255315326154232025146484375" lon="-7.87641230039298534393310546875">
        <ele>564.20001220703125</ele>
        <time>2019-07-26T10:49:05.000Z</time>
      </trkpt>
      <trkpt lat="42.9425574280321598052978515625" lon="-7.87648337893187999725341796875">
        <ele>565.4000244140625</ele>
        <time>2019-07-26T10:49:08.000Z</time>
      </trkpt>
      <trkpt lat="42.9425403289496898651123046875" lon="-7.87660181522369384765625">
        <ele>566.79998779296875</ele>
        <time>2019-07-26T10:49:12.000Z</time>
      </trkpt>
      <trkpt lat="42.9425145126879215240478515625" lon="-7.87675009109079837799072265625">
        <ele>567.5999755859375</ele>
        <time>2019-07-26T10:49:16.000Z</time>
      </trkpt>
      <trkpt lat="42.94251090846955776214599609375" lon="-7.876781523227691650390625">
        <ele>567.79998779296875</ele>
        <time>2019-07-26T10:49:17.000Z</time>
      </trkpt>
      <trkpt lat="42.94249431230127811431884765625" lon="-7.87691303528845310211181640625">
        <ele>569</ele>
        <time>2019-07-26T10:49:21.000Z</time>
      </trkpt>
      <trkpt lat="42.9424900375306606292724609375" lon="-7.8769486583769321441650390625">
        <ele>569.4000244140625</ele>
        <time>2019-07-26T10:49:22.000Z</time>
      </trkpt>
      <trkpt lat="42.9424776323139667510986328125" lon="-7.8770663402974605560302734375">
        <ele>570.20001220703125</ele>
        <time>2019-07-26T10:49:25.000Z</time>
      </trkpt>
      <trkpt lat="42.94245558790862560272216796875" lon="-7.87732324562966823577880859375">
        <ele>571</ele>
        <time>2019-07-26T10:49:30.000Z</time>
      </trkpt>
      <trkpt lat="42.942453324794769287109375" lon="-7.87742299027740955352783203125">
        <ele>571.20001220703125</ele>
        <time>2019-07-26T10:49:32.000Z</time>
      </trkpt>
      <trkpt lat="42.9424410872161388397216796875" lon="-7.877636142075061798095703125">
        <ele>571.5999755859375</ele>
        <time>2019-07-26T10:49:36.000Z</time>
      </trkpt>
      <trkpt lat="42.942425496876239776611328125" lon="-7.87775122560560703277587890625">
        <ele>571.79998779296875</ele>
        <time>2019-07-26T10:49:38.000Z</time>
      </trkpt>
      <trkpt lat="42.94239406473934650421142578125" lon="-7.87796814925968647003173828125">
        <ele>572</ele>
        <time>2019-07-26T10:49:42.000Z</time>
      </trkpt>
      <trkpt lat="42.94236858375370502471923828125" lon="-7.8781325183808803558349609375">
        <ele>572.20001220703125</ele>
        <time>2019-07-26T10:49:45.000Z</time>
      </trkpt>
      <trkpt lat="42.942357100546360015869140625" lon="-7.87818557582795619964599609375">
        <ele>572.4000244140625</ele>
        <time>2019-07-26T10:49:46.000Z</time>
      </trkpt>
      <trkpt lat="42.9422741197049617767333984375" lon="-7.878492437303066253662109375">
        <ele>572.79998779296875</ele>
        <time>2019-07-26T10:49:52.000Z</time>
      </trkpt>
      <trkpt lat="42.94224604032933712005615234375" lon="-7.87880147807300090789794921875">
        <ele>573.20001220703125</ele>
        <time>2019-07-26T10:49:57.000Z</time>
      </trkpt>
      <trkpt lat="42.942243106663227081298828125" lon="-7.87887926213443279266357421875">
        <ele>573.4000244140625</ele>
        <time>2019-07-26T10:49:58.000Z</time>
      </trkpt>
      <trkpt lat="42.94223732315003871917724609375" lon="-7.8792617283761501312255859375">
        <ele>573.5999755859375</ele>
        <time>2019-07-26T10:50:03.000Z</time>
      </trkpt>
      <trkpt lat="42.942235060036182403564453125" lon="-7.879342697560787200927734375">
        <ele>573.5999755859375</ele>
        <time>2019-07-26T10:50:04.000Z</time>
      </trkpt>
      <trkpt lat="42.942241095006465911865234375" lon="-7.87950329482555389404296875">
        <ele>573.5999755859375</ele>
        <time>2019-07-26T10:50:06.000Z</time>
      </trkpt>
      <trkpt lat="42.94225526042282581329345703125" lon="-7.87971342913806438446044921875">
        <ele>573.5999755859375</ele>
        <time>2019-07-26T10:50:09.000Z</time>
      </trkpt>
      <trkpt lat="42.94227805919945240020751953125" lon="-7.8800311870872974395751953125">
        <ele>573</ele>
        <time>2019-07-26T10:50:14.000Z</time>
      </trkpt>
      <trkpt lat="42.94228258542716503143310546875" lon="-7.88021818734705448150634765625">
        <ele>572.79998779296875</ele>
        <time>2019-07-26T10:50:17.000Z</time>
      </trkpt>
      <trkpt lat="42.942266575992107391357421875" lon="-7.880646251142024993896484375">
        <ele>572.79998779296875</ele>
        <time>2019-07-26T10:50:24.000Z</time>
      </trkpt>
      <trkpt lat="42.94227437116205692291259765625" lon="-7.8809853829443454742431640625">
        <ele>573.5999755859375</ele>
        <time>2019-07-26T10:50:31.000Z</time>
      </trkpt>
      <trkpt lat="42.94231192208826541900634765625" lon="-7.8811255283653736114501953125">
        <ele>574.5999755859375</ele>
        <time>2019-07-26T10:50:34.000Z</time>
      </trkpt>
      <trkpt lat="42.942359447479248046875" lon="-7.88129610009491443634033203125">
        <ele>575.5999755859375</ele>
        <time>2019-07-26T10:50:38.000Z</time>
      </trkpt>
      <trkpt lat="42.9423780553042888641357421875" lon="-7.88132577203214168548583984375">
        <ele>575.79998779296875</ele>
        <time>2019-07-26T10:50:39.000Z</time>
      </trkpt>
      <trkpt lat="42.9424270056188106536865234375" lon="-7.88156331516802310943603515625">
        <ele>576.5999755859375</ele>
        <time>2019-07-26T10:50:45.000Z</time>
      </trkpt>
      <trkpt lat="42.94243521988391876220703125" lon="-7.8816120140254497528076171875">
        <ele>576.79998779296875</ele>
        <time>2019-07-26T10:50:46.000Z</time>
      </trkpt>
      <trkpt lat="42.942501604557037353515625" lon="-7.88186724297702312469482421875">
        <ele>577.20001220703125</ele>
        <time>2019-07-26T10:50:52.000Z</time>
      </trkpt>
      <trkpt lat="42.94260847382247447967529296875" lon="-7.88203437812626361846923828125">
        <ele>577.79998779296875</ele>
        <time>2019-07-26T10:50:57.000Z</time>
      </trkpt>
      <trkpt lat="42.9426268301904201507568359375" lon="-7.882073856890201568603515625">
        <ele>577.79998779296875</ele>
        <time>2019-07-26T10:50:58.000Z</time>
      </trkpt>
      <trkpt lat="42.94267804361879825592041015625" lon="-7.88227728568017482757568359375">
        <ele>578.20001220703125</ele>
        <time>2019-07-26T10:51:03.000Z</time>
      </trkpt>
      <trkpt lat="42.942688353359699249267578125" lon="-7.88245062343776226043701171875">
        <ele>579</ele>
        <time>2019-07-26T10:51:07.000Z</time>
      </trkpt>
      <trkpt lat="42.94267502613365650177001953125" lon="-7.882535867393016815185546875">
        <ele>579.4000244140625</ele>
        <time>2019-07-26T10:51:09.000Z</time>
      </trkpt>
      <trkpt lat="42.94264904223382472991943359375" lon="-7.8827194310724735260009765625">
        <ele>580.20001220703125</ele>
        <time>2019-07-26T10:51:13.000Z</time>
      </trkpt>
      <trkpt lat="42.94262875802814960479736328125" lon="-7.88287089206278324127197265625">
        <ele>580.4000244140625</ele>
        <time>2019-07-26T10:51:16.000Z</time>
      </trkpt>
      <trkpt lat="42.94261048547923564910888671875" lon="-7.8831137157976627349853515625">
        <ele>581.4000244140625</ele>
        <time>2019-07-26T10:51:21.000Z</time>
      </trkpt>
      <trkpt lat="42.9426070488989353179931640625" lon="-7.88316040299832820892333984375">
        <ele>581.5999755859375</ele>
        <time>2019-07-26T10:51:22.000Z</time>
      </trkpt>
      <trkpt lat="42.94260679744184017181396484375" lon="-7.883241288363933563232421875">
        <ele>582</ele>
        <time>2019-07-26T10:51:24.000Z</time>
      </trkpt>
      <trkpt lat="42.94258140027523040771484375" lon="-7.88337481208145618438720703125">
        <ele>582.20001220703125</ele>
        <time>2019-07-26T10:51:27.000Z</time>
      </trkpt>
      <trkpt lat="42.94253588654100894927978515625" lon="-7.8835244290530681610107421875">
        <ele>582.5999755859375</ele>
        <time>2019-07-26T10:51:31.000Z</time>
      </trkpt>
      <trkpt lat="42.9425322823226451873779296875" lon="-7.88359592668712139129638671875">
        <ele>583</ele>
        <time>2019-07-26T10:51:33.000Z</time>
      </trkpt>
      <trkpt lat="42.942514009773731231689453125" lon="-7.88372433744370937347412109375">
        <ele>583.4000244140625</ele>
        <time>2019-07-26T10:51:36.000Z</time>
      </trkpt>
      <trkpt lat="42.94249246828258037567138671875" lon="-7.883775047957897186279296875">
        <ele>583.79998779296875</ele>
        <time>2019-07-26T10:51:37.000Z</time>
      </trkpt>
      <trkpt lat="42.942467071115970611572265625" lon="-7.883828021585941314697265625">
        <ele>583.79998779296875</ele>
        <time>2019-07-26T10:51:38.000Z</time>
      </trkpt>
      <trkpt lat="42.94238870032131671905517578125" lon="-7.8840125910937786102294921875">
        <ele>584</ele>
        <time>2019-07-26T10:51:41.000Z</time>
      </trkpt>
      <trkpt lat="42.9423676617443561553955078125" lon="-7.8840809874236583709716796875">
        <ele>584</ele>
        <time>2019-07-26T10:51:42.000Z</time>
      </trkpt>
      <trkpt lat="42.94235735200345516204833984375" lon="-7.8841487132012844085693359375">
        <ele>584</ele>
        <time>2019-07-26T10:51:43.000Z</time>
      </trkpt>
      <trkpt lat="42.9423824138939380645751953125" lon="-7.8843656368553638458251953125">
        <ele>584</ele>
        <time>2019-07-26T10:51:46.000Z</time>
      </trkpt>
      <trkpt lat="42.94240294955670833587646484375" lon="-7.884443588554859161376953125">
        <ele>584</ele>
        <time>2019-07-26T10:51:47.000Z</time>
      </trkpt>
      <trkpt lat="42.94252700172364711761474609375" lon="-7.88462874479591846466064453125">
        <ele>583.79998779296875</ele>
        <time>2019-07-26T10:51:50.000Z</time>
      </trkpt>
      <trkpt lat="42.94264845550060272216796875" lon="-7.88475774228572845458984375">
        <ele>583.20001220703125</ele>
        <time>2019-07-26T10:51:52.000Z</time>
      </trkpt>
      <trkpt lat="42.94270503334701061248779296875" lon="-7.88482471369206905364990234375">
        <ele>582.79998779296875</ele>
        <time>2019-07-26T10:51:53.000Z</time>
      </trkpt>
      <trkpt lat="42.9427388124167919158935546875" lon="-7.88491389714181423187255859375">
        <ele>582.5999755859375</ele>
        <time>2019-07-26T10:51:54.000Z</time>
      </trkpt>
      <trkpt lat="42.94275515712797641754150390625" lon="-7.885016910731792449951171875">
        <ele>582.4000244140625</ele>
        <time>2019-07-26T10:51:55.000Z</time>
      </trkpt>
      <trkpt lat="42.9427948035299777984619140625" lon="-7.8852289728820323944091796875">
        <ele>581.4000244140625</ele>
        <time>2019-07-26T10:51:57.000Z</time>
      </trkpt>
      <trkpt lat="42.942860014736652374267578125" lon="-7.88543902337551116943359375">
        <ele>580.20001220703125</ele>
        <time>2019-07-26T10:51:59.000Z</time>
      </trkpt>
      <trkpt lat="42.9429508745670318603515625" lon="-7.885644547641277313232421875">
        <ele>578.79998779296875</ele>
        <time>2019-07-26T10:52:01.000Z</time>
      </trkpt>
      <trkpt lat="42.943046428263187408447265625" lon="-7.8858488984405994415283203125">
        <ele>577.4000244140625</ele>
        <time>2019-07-26T10:52:03.000Z</time>
      </trkpt>
      <trkpt lat="42.9430921934545040130615234375" lon="-7.885953672230243682861328125">
        <ele>577</ele>
        <time>2019-07-26T10:52:04.000Z</time>
      </trkpt>
      <trkpt lat="42.94313753955066204071044921875" lon="-7.8860587812960147857666015625">
        <ele>576.20001220703125</ele>
        <time>2019-07-26T10:52:05.000Z</time>
      </trkpt>
      <trkpt lat="42.94316947460174560546875" lon="-7.88616145960986614227294921875">
        <ele>575.79998779296875</ele>
        <time>2019-07-26T10:52:06.000Z</time>
      </trkpt>
      <trkpt lat="42.94322186149656772613525390625" lon="-7.8863300196826457977294921875">
        <ele>574.5999755859375</ele>
        <time>2019-07-26T10:52:08.000Z</time>
      </trkpt>
      <trkpt lat="42.94324717484414577484130859375" lon="-7.88640034385025501251220703125">
        <ele>573.79998779296875</ele>
        <time>2019-07-26T10:52:09.000Z</time>
      </trkpt>
      <trkpt lat="42.94327919371426105499267578125" lon="-7.88643739186227321624755859375">
        <ele>573.20001220703125</ele>
        <time>2019-07-26T10:52:10.000Z</time>
      </trkpt>
      <trkpt lat="42.94330920092761516571044921875" lon="-7.886465974152088165283203125">
        <ele>572.79998779296875</ele>
        <time>2019-07-26T10:52:11.000Z</time>
      </trkpt>
      <trkpt lat="42.94333132915198802947998046875" lon="-7.88648617453873157501220703125">
        <ele>572.5999755859375</ele>
        <time>2019-07-26T10:52:12.000Z</time>
      </trkpt>
      <trkpt lat="42.94337374158203601837158203125" lon="-7.88651903159916400909423828125">
        <ele>572.4000244140625</ele>
        <time>2019-07-26T10:52:14.000Z</time>
      </trkpt>
      <trkpt lat="42.94339335523545742034912109375" lon="-7.8865325264632701873779296875">
        <ele>572.4000244140625</ele>
        <time>2019-07-26T10:52:15.000Z</time>
      </trkpt>
      <trkpt lat="42.9434576444327831268310546875" lon="-7.88655725307762622833251953125">
        <ele>572.4000244140625</ele>
        <time>2019-07-26T10:52:18.000Z</time>
      </trkpt>
      <trkpt lat="42.9435049183666706085205078125" lon="-7.88659715093672275543212890625">
        <ele>572.4000244140625</ele>
        <time>2019-07-26T10:52:21.000Z</time>
      </trkpt>
      <trkpt lat="42.94351824559271335601806640625" lon="-7.886612154543399810791015625">
        <ele>572.79998779296875</ele>
        <time>2019-07-26T10:52:22.000Z</time>
      </trkpt>
      <trkpt lat="42.9435615800321102142333984375" lon="-7.88669563829898834228515625">
        <ele>573.4000244140625</ele>
        <time>2019-07-26T10:52:26.000Z</time>
      </trkpt>
      <trkpt lat="42.94357373379170894622802734375" lon="-7.8867474384605884552001953125">
        <ele>573.79998779296875</ele>
        <time>2019-07-26T10:52:28.000Z</time>
      </trkpt>
      <trkpt lat="42.9435615800321102142333984375" lon="-7.8867943771183490753173828125">
        <ele>574</ele>
        <time>2019-07-26T10:52:30.000Z</time>
      </trkpt>
      <trkpt lat="42.94353358447551727294921875" lon="-7.8868436627089977264404296875">
        <ele>574.4000244140625</ele>
        <time>2019-07-26T10:52:32.000Z</time>
      </trkpt>
      <trkpt lat="42.9435267113149166107177734375" lon="-7.88686386309564113616943359375">
        <ele>574.5999755859375</ele>
        <time>2019-07-26T10:52:33.000Z</time>
      </trkpt>
      <trkpt lat="42.94349829666316509246826171875" lon="-7.886935360729694366455078125">
        <ele>575.4000244140625</ele>
        <time>2019-07-26T10:52:36.000Z</time>
      </trkpt>
      <trkpt lat="42.943456135690212249755859375" lon="-7.88703535683453083038330078125">
        <ele>576.4000244140625</ele>
        <time>2019-07-26T10:52:40.000Z</time>
      </trkpt>
      <trkpt lat="42.94341933913528919219970703125" lon="-7.88711314089596271514892578125">
        <ele>577.79998779296875</ele>
        <time>2019-07-26T10:52:44.000Z</time>
      </trkpt>
      <trkpt lat="42.94341833330690860748291015625" lon="-7.8871549665927886962890625">
        <ele>578.4000244140625</ele>
        <time>2019-07-26T10:52:46.000Z</time>
      </trkpt>
      <trkpt lat="42.9434231109917163848876953125" lon="-7.88722411729395389556884765625">
        <ele>579</ele>
        <time>2019-07-26T10:52:49.000Z</time>
      </trkpt>
      <trkpt lat="42.9434552974998950958251953125" lon="-7.88732059299945831298828125">
        <ele>579.5999755859375</ele>
        <time>2019-07-26T10:52:52.000Z</time>
      </trkpt>
      <trkpt lat="42.9434807784855365753173828125" lon="-7.887391336262226104736328125">
        <ele>580.20001220703125</ele>
        <time>2019-07-26T10:52:54.000Z</time>
      </trkpt>
      <trkpt lat="42.94351388700306415557861328125" lon="-7.8874733112752437591552734375">
        <ele>581</ele>
        <time>2019-07-26T10:52:57.000Z</time>
      </trkpt>
      <trkpt lat="42.94352344237267971038818359375" lon="-7.887503318488597869873046875">
        <ele>581.20001220703125</ele>
        <time>2019-07-26T10:52:58.000Z</time>
      </trkpt>
      <trkpt lat="42.94353735633194446563720703125" lon="-7.88753676228225231170654296875">
        <ele>581.20001220703125</ele>
        <time>2019-07-26T10:52:59.000Z</time>
      </trkpt>
      <trkpt lat="42.943621762096881866455078125" lon="-7.88771026767790317535400390625">
        <ele>582</ele>
        <time>2019-07-26T10:53:04.000Z</time>
      </trkpt>
      <trkpt lat="42.943680100142955780029296875" lon="-7.8878072462975978851318359375">
        <ele>582.20001220703125</ele>
        <time>2019-07-26T10:53:07.000Z</time>
      </trkpt>
      <trkpt lat="42.9437627457082271575927734375" lon="-7.88795736618340015411376953125">
        <ele>582.79998779296875</ele>
        <time>2019-07-26T10:53:12.000Z</time>
      </trkpt>
      <trkpt lat="42.94380188919603824615478515625" lon="-7.8880892135202884674072265625">
        <ele>583.20001220703125</ele>
        <time>2019-07-26T10:53:17.000Z</time>
      </trkpt>
      <trkpt lat="42.9438016377389430999755859375" lon="-7.88812869228422641754150390625">
        <ele>583.20001220703125</ele>
        <time>2019-07-26T10:53:18.000Z</time>
      </trkpt>
      <trkpt lat="42.94375754892826080322265625" lon="-7.88832415826618671417236328125">
        <ele>583.79998779296875</ele>
        <time>2019-07-26T10:53:22.000Z</time>
      </trkpt>
      <trkpt lat="42.9437473230063915252685546875" lon="-7.88847218267619609832763671875">
        <ele>584.20001220703125</ele>
        <time>2019-07-26T10:53:26.000Z</time>
      </trkpt>
      <trkpt lat="42.9437298886477947235107421875" lon="-7.88856723345816135406494140625">
        <ele>584.5999755859375</ele>
        <time>2019-07-26T10:53:28.000Z</time>
      </trkpt>
      <trkpt lat="42.94371287338435649871826171875" lon="-7.8886963985860347747802734375">
        <ele>585.20001220703125</ele>
        <time>2019-07-26T10:53:31.000Z</time>
      </trkpt>
      <trkpt lat="42.943708933889865875244140625" lon="-7.888851799070835113525390625">
        <ele>586.4000244140625</ele>
        <time>2019-07-26T10:53:35.000Z</time>
      </trkpt>
      <trkpt lat="42.94367582537233829498291015625" lon="-7.88907014764845371246337890625">
        <ele>587.4000244140625</ele>
        <time>2019-07-26T10:53:41.000Z</time>
      </trkpt>
      <trkpt lat="42.94367968104779720306396484375" lon="-7.88909881375730037689208984375">
        <ele>587.4000244140625</ele>
        <time>2019-07-26T10:53:42.000Z</time>
      </trkpt>
      <trkpt lat="42.9436832852661609649658203125" lon="-7.88928589783608913421630859375">
        <ele>588</ele>
        <time>2019-07-26T10:53:47.000Z</time>
      </trkpt>
      <trkpt lat="42.94368923641741275787353515625" lon="-7.88947197608649730682373046875">
        <ele>588.5999755859375</ele>
        <time>2019-07-26T10:53:51.000Z</time>
      </trkpt>
      <trkpt lat="42.9436965286731719970703125" lon="-7.88950391113758087158203125">
        <ele>588.79998779296875</ele>
        <time>2019-07-26T10:53:52.000Z</time>
      </trkpt>
      <trkpt lat="42.94369560666382312774658203125" lon="-7.889631651341915130615234375">
        <ele>589.20001220703125</ele>
        <time>2019-07-26T10:53:55.000Z</time>
      </trkpt>
      <trkpt lat="42.94367549009621143341064453125" lon="-7.88968202657997608184814453125">
        <ele>589.20001220703125</ele>
        <time>2019-07-26T10:53:56.000Z</time>
      </trkpt>
      <trkpt lat="42.94361581094563007354736328125" lon="-7.889909259974956512451171875">
        <ele>589.5999755859375</ele>
        <time>2019-07-26T10:54:02.000Z</time>
      </trkpt>
      <trkpt lat="42.94360273517668247222900390625" lon="-7.88994186557829380035400390625">
        <ele>589.5999755859375</ele>
        <time>2019-07-26T10:54:03.000Z</time>
      </trkpt>
      <trkpt lat="42.9435785114765167236328125" lon="-7.8899828530848026275634765625">
        <ele>589.5999755859375</ele>
        <time>2019-07-26T10:54:04.000Z</time>
      </trkpt>
      <trkpt lat="42.94351187534630298614501953125" lon="-7.89004663936793804168701171875">
        <ele>589.5999755859375</ele>
        <time>2019-07-26T10:54:06.000Z</time>
      </trkpt>
      <trkpt lat="42.94346862472593784332275390625" lon="-7.890069186687469482421875">
        <ele>589.5999755859375</ele>
        <time>2019-07-26T10:54:07.000Z</time>
      </trkpt>
      <trkpt lat="42.94334138743579387664794921875" lon="-7.890170104801654815673828125">
        <ele>589.5999755859375</ele>
        <time>2019-07-26T10:54:10.000Z</time>
      </trkpt>
      <trkpt lat="42.94324482791125774383544921875" lon="-7.89029692299664020538330078125">
        <ele>589.4000244140625</ele>
        <time>2019-07-26T10:54:12.000Z</time>
      </trkpt>
      <trkpt lat="42.943152375519275665283203125" lon="-7.89041477255523204803466796875">
        <ele>589.4000244140625</ele>
        <time>2019-07-26T10:54:14.000Z</time>
      </trkpt>
      <trkpt lat="42.94304810464382171630859375" lon="-7.890480570495128631591796875">
        <ele>589.20001220703125</ele>
        <time>2019-07-26T10:54:16.000Z</time>
      </trkpt>
      <trkpt lat="42.94300493784248828887939453125" lon="-7.89049574173986911773681640625">
        <ele>589</ele>
        <time>2019-07-26T10:54:17.000Z</time>
      </trkpt>
      <trkpt lat="42.942936457693576812744140625" lon="-7.890498004853725433349609375">
        <ele>588.79998779296875</ele>
        <time>2019-07-26T10:54:19.000Z</time>
      </trkpt>
      <trkpt lat="42.94291558675467967987060546875" lon="-7.89049373008310794830322265625">
        <ele>588.79998779296875</ele>
        <time>2019-07-26T10:54:20.000Z</time>
      </trkpt>
      <trkpt lat="42.94288105331361293792724609375" lon="-7.890471853315830230712890625">
        <ele>588.79998779296875</ele>
        <time>2019-07-26T10:54:22.000Z</time>
      </trkpt>
      <trkpt lat="42.94284048490226268768310546875" lon="-7.89046321995556354522705078125">
        <ele>588.79998779296875</ele>
        <time>2019-07-26T10:54:24.000Z</time>
      </trkpt>
      <trkpt lat="42.9428025148808956146240234375" lon="-7.8904415108263492584228515625">
        <ele>588.79998779296875</ele>
        <time>2019-07-26T10:54:26.000Z</time>
      </trkpt>
      <trkpt lat="42.9427810572087764739990234375" lon="-7.8904401697218418121337890625">
        <ele>588.79998779296875</ele>
        <time>2019-07-26T10:54:27.000Z</time>
      </trkpt>
      <trkpt lat="42.94271710328757762908935546875" lon="-7.8904643096029758453369140625">
        <ele>589</ele>
        <time>2019-07-26T10:54:29.000Z</time>
      </trkpt>
      <trkpt lat="42.94266127981245517730712890625" lon="-7.89050160907208919525146484375">
        <ele>589.79998779296875</ele>
        <time>2019-07-26T10:54:31.000Z</time>
      </trkpt>
      <trkpt lat="42.94264443218708038330078125" lon="-7.89052239619195461273193359375">
        <ele>590.20001220703125</ele>
        <time>2019-07-26T10:54:32.000Z</time>
      </trkpt>
      <trkpt lat="42.94262121431529521942138671875" lon="-7.890557684004306793212890625">
        <ele>590.5999755859375</ele>
        <time>2019-07-26T10:54:33.000Z</time>
      </trkpt>
      <trkpt lat="42.94257025234401226043701171875" lon="-7.89063974283635616302490234375">
        <ele>591.5999755859375</ele>
        <time>2019-07-26T10:54:36.000Z</time>
      </trkpt>
      <trkpt lat="42.9425356350839138031005859375" lon="-7.89069523103535175323486328125">
        <ele>592.4000244140625</ele>
        <time>2019-07-26T10:54:38.000Z</time>
      </trkpt>
      <trkpt lat="42.94251392595469951629638671875" lon="-7.89072205312550067901611328125">
        <ele>592.79998779296875</ele>
        <time>2019-07-26T10:54:39.000Z</time>
      </trkpt>
      <trkpt lat="42.94245961122214794158935546875" lon="-7.8908351249992847442626953125">
        <ele>593.5999755859375</ele>
        <time>2019-07-26T10:54:43.000Z</time>
      </trkpt>
      <trkpt lat="42.94243362732231616973876953125" lon="-7.89091617800295352935791015625">
        <ele>594</ele>
        <time>2019-07-26T10:54:46.000Z</time>
      </trkpt>
      <trkpt lat="42.94242373667657375335693359375" lon="-7.89098289795219898223876953125">
        <ele>594.79998779296875</ele>
        <time>2019-07-26T10:54:49.000Z</time>
      </trkpt>
      <trkpt lat="42.94241284020245075225830078125" lon="-7.891033105552196502685546875">
        <ele>595.20001220703125</ele>
        <time>2019-07-26T10:54:51.000Z</time>
      </trkpt>
      <trkpt lat="42.94238819740712642669677734375" lon="-7.89116947911679744720458984375">
        <ele>596.20001220703125</ele>
        <time>2019-07-26T10:54:56.000Z</time>
      </trkpt>
      <trkpt lat="42.9423854313790798187255859375" lon="-7.8911970555782318115234375">
        <ele>596.4000244140625</ele>
        <time>2019-07-26T10:54:57.000Z</time>
      </trkpt>
      <trkpt lat="42.9423532448709011077880859375" lon="-7.8913786076009273529052734375">
        <ele>597.4000244140625</ele>
        <time>2019-07-26T10:55:03.000Z</time>
      </trkpt>
      <trkpt lat="42.94234880246222019195556640625" lon="-7.8914094530045986175537109375">
        <ele>597.5999755859375</ele>
        <time>2019-07-26T10:55:04.000Z</time>
      </trkpt>
      <trkpt lat="42.94233606196939945220947265625" lon="-7.8915296494960784912109375">
        <ele>598.4000244140625</ele>
        <time>2019-07-26T10:55:08.000Z</time>
      </trkpt>
      <trkpt lat="42.94233589433133602142333984375" lon="-7.8916449844837188720703125">
        <ele>599.20001220703125</ele>
        <time>2019-07-26T10:55:12.000Z</time>
      </trkpt>
      <trkpt lat="42.9423301108181476593017578125" lon="-7.89170675911009311676025390625">
        <ele>599.5999755859375</ele>
        <time>2019-07-26T10:55:14.000Z</time>
      </trkpt>
      <trkpt lat="42.94229616411030292510986328125" lon="-7.891894094645977020263671875">
        <ele>600.79998779296875</ele>
        <time>2019-07-26T10:55:20.000Z</time>
      </trkpt>
      <trkpt lat="42.9422654025256633758544921875" lon="-7.89205209352076053619384765625">
        <ele>602</ele>
        <time>2019-07-26T10:55:26.000Z</time>
      </trkpt>
      <trkpt lat="42.94225425459444522857666015625" lon="-7.89211395196616649627685546875">
        <ele>602.4000244140625</ele>
        <time>2019-07-26T10:55:28.000Z</time>
      </trkpt>
      <trkpt lat="42.94222793541848659515380859375" lon="-7.89224378764629364013671875">
        <ele>603</ele>
        <time>2019-07-26T10:55:32.000Z</time>
      </trkpt>
      <trkpt lat="42.94221100397408008575439453125" lon="-7.892386280000209808349609375">
        <ele>604</ele>
        <time>2019-07-26T10:55:37.000Z</time>
      </trkpt>
      <trkpt lat="42.94221435673534870147705078125" lon="-7.8925061412155628204345703125">
        <ele>605.20001220703125</ele>
        <time>2019-07-26T10:55:42.000Z</time>
      </trkpt>
      <trkpt lat="42.9422127641737461090087890625" lon="-7.89255752228200435638427734375">
        <ele>605.79998779296875</ele>
        <time>2019-07-26T10:55:44.000Z</time>
      </trkpt>
      <trkpt lat="42.94220832176506519317626953125" lon="-7.89260831661522388458251953125">
        <ele>606.20001220703125</ele>
        <time>2019-07-26T10:55:46.000Z</time>
      </trkpt>
      <trkpt lat="42.94219407252967357635498046875" lon="-7.89270906709134578704833984375">
        <ele>607.5999755859375</ele>
        <time>2019-07-26T10:55:50.000Z</time>
      </trkpt>
      <trkpt lat="42.94218518771231174468994140625" lon="-7.8927871026098728179931640625">
        <ele>608.5999755859375</ele>
        <time>2019-07-26T10:55:53.000Z</time>
      </trkpt>
      <trkpt lat="42.942179739475250244140625" lon="-7.89281484670937061309814453125">
        <ele>608.79998779296875</ele>
        <time>2019-07-26T10:55:54.000Z</time>
      </trkpt>
      <trkpt lat="42.9421587847173213958740234375" lon="-7.892950884997844696044921875">
        <ele>610</ele>
        <time>2019-07-26T10:55:59.000Z</time>
      </trkpt>
      <trkpt lat="42.94215652160346508026123046875" lon="-7.89297410286962985992431640625">
        <ele>610.4000244140625</ele>
        <time>2019-07-26T10:56:00.000Z</time>
      </trkpt>
      <trkpt lat="42.94214956462383270263671875" lon="-7.89305205456912517547607421875">
        <ele>611.20001220703125</ele>
        <time>2019-07-26T10:56:03.000Z</time>
      </trkpt>
      <trkpt lat="42.9421462118625640869140625" lon="-7.893205024302005767822265625">
        <ele>612.4000244140625</ele>
        <time>2019-07-26T10:56:08.000Z</time>
      </trkpt>
      <trkpt lat="42.94216356240212917327880859375" lon="-7.893384397029876708984375">
        <ele>613.5999755859375</ele>
        <time>2019-07-26T10:56:14.000Z</time>
      </trkpt>
      <trkpt lat="42.942185439169406890869140625" lon="-7.89349026046693325042724609375">
        <ele>614.79998779296875</ele>
        <time>2019-07-26T10:56:18.000Z</time>
      </trkpt>
      <trkpt lat="42.94219658710062503814697265625" lon="-7.8935552202165126800537109375">
        <ele>615.4000244140625</ele>
        <time>2019-07-26T10:56:20.000Z</time>
      </trkpt>
      <trkpt lat="42.9422092437744140625" lon="-7.8936608321964740753173828125">
        <ele>616</ele>
        <time>2019-07-26T10:56:23.000Z</time>
      </trkpt>
      <trkpt lat="42.94222609139978885650634765625" lon="-7.8937907516956329345703125">
        <ele>617</ele>
        <time>2019-07-26T10:56:27.000Z</time>
      </trkpt>
      <trkpt lat="42.94224536977708339691162109375" lon="-7.89395528845489025115966796875">
        <ele>618.20001220703125</ele>
        <time>2019-07-26T10:56:32.000Z</time>
      </trkpt>
      <trkpt lat="42.94226615689694881439208984375" lon="-7.89401815272867679595947265625">
        <ele>618.4000244140625</ele>
        <time>2019-07-26T10:56:34.000Z</time>
      </trkpt>
      <trkpt lat="42.9423120059072971343994140625" lon="-7.89409585297107696533203125">
        <ele>619.20001220703125</ele>
        <time>2019-07-26T10:56:37.000Z</time>
      </trkpt>
      <trkpt lat="42.94234209693968296051025390625" lon="-7.89417455904185771942138671875">
        <ele>620</ele>
        <time>2019-07-26T10:56:40.000Z</time>
      </trkpt>
      <trkpt lat="42.9423458687961101531982421875" lon="-7.894204147160053253173828125">
        <ele>620.20001220703125</ele>
        <time>2019-07-26T10:56:41.000Z</time>
      </trkpt>
      <trkpt lat="42.9423686675727367401123046875" lon="-7.89430917240679264068603515625">
        <ele>621.4000244140625</ele>
        <time>2019-07-26T10:56:45.000Z</time>
      </trkpt>
      <trkpt lat="42.94236657209694385528564453125" lon="-7.89434337057173252105712890625">
        <ele>621.5999755859375</ele>
        <time>2019-07-26T10:56:46.000Z</time>
      </trkpt>
      <trkpt lat="42.94234528206288814544677734375" lon="-7.89444856345653533935546875">
        <ele>622.4000244140625</ele>
        <time>2019-07-26T10:56:50.000Z</time>
      </trkpt>
      <trkpt lat="42.9423069767653942108154296875" lon="-7.894526682794094085693359375">
        <ele>623</ele>
        <time>2019-07-26T10:56:53.000Z</time>
      </trkpt>
      <trkpt lat="42.94224939309060573577880859375" lon="-7.89463891647756099700927734375">
        <ele>623.4000244140625</ele>
        <time>2019-07-26T10:56:57.000Z</time>
      </trkpt>
      <trkpt lat="42.94222491793334484100341796875" lon="-7.89468300528824329376220703125">
        <ele>623.5999755859375</ele>
        <time>2019-07-26T10:56:59.000Z</time>
      </trkpt>
      <trkpt lat="42.94214294292032718658447265625" lon="-7.8948239050805568695068359375">
        <ele>624.20001220703125</ele>
        <time>2019-07-26T10:57:06.000Z</time>
      </trkpt>
      <trkpt lat="42.9421086609363555908203125" lon="-7.8948638029396533966064453125">
        <ele>624.5999755859375</ele>
        <time>2019-07-26T10:57:08.000Z</time>
      </trkpt>
      <trkpt lat="42.942047975957393646240234375" lon="-7.8949301876127719879150390625">
        <ele>625.5999755859375</ele>
        <time>2019-07-26T10:57:12.000Z</time>
      </trkpt>
      <trkpt lat="42.94196994043886661529541015625" lon="-7.89501492865383625030517578125">
        <ele>626.5999755859375</ele>
        <time>2019-07-26T10:57:18.000Z</time>
      </trkpt>
      <trkpt lat="42.941845469176769256591796875" lon="-7.89513529278337955474853515625">
        <ele>627.5999755859375</ele>
        <time>2019-07-26T10:57:24.000Z</time>
      </trkpt>
      <trkpt lat="42.94181822799146175384521484375" lon="-7.89516546763479709625244140625">
        <ele>627.79998779296875</ele>
        <time>2019-07-26T10:57:25.000Z</time>
      </trkpt>
      <trkpt lat="42.941715717315673828125" lon="-7.89532690308988094329833984375">
        <ele>628.20001220703125</ele>
        <time>2019-07-26T10:57:28.000Z</time>
      </trkpt>
      <trkpt lat="42.9416612349450588226318359375" lon="-7.89546855725347995758056640625">
        <ele>628.20001220703125</ele>
        <time>2019-07-26T10:57:31.000Z</time>
      </trkpt>
      <trkpt lat="42.9416253603994846343994140625" lon="-7.89556142874062061309814453125">
        <ele>628.20001220703125</ele>
        <time>2019-07-26T10:57:33.000Z</time>
      </trkpt>
      <trkpt lat="42.94159728102385997772216796875" lon="-7.895735688507556915283203125">
        <ele>628.20001220703125</ele>
        <time>2019-07-26T10:57:37.000Z</time>
      </trkpt>
      <trkpt lat="42.94158655218780040740966796875" lon="-7.8959071822464466094970703125">
        <ele>628.20001220703125</ele>
        <time>2019-07-26T10:57:42.000Z</time>
      </trkpt>
      <trkpt lat="42.941566519439220428466796875" lon="-7.89612201042473316192626953125">
        <ele>628.4000244140625</ele>
        <time>2019-07-26T10:57:49.000Z</time>
      </trkpt>
      <trkpt lat="42.9415547847747802734375" lon="-7.8962476551532745361328125">
        <ele>628.79998779296875</ele>
        <time>2019-07-26T10:57:52.000Z</time>
      </trkpt>
      <trkpt lat="42.9415110312402248382568359375" lon="-7.89646566845476627349853515625">
        <ele>629.5999755859375</ele>
        <time>2019-07-26T10:57:56.000Z</time>
      </trkpt>
      <trkpt lat="42.9414979554712772369384765625" lon="-7.89659072645008563995361328125">
        <ele>630</ele>
        <time>2019-07-26T10:57:59.000Z</time>
      </trkpt>
      <trkpt lat="42.9415140487253665924072265625" lon="-7.89671762846410274505615234375">
        <ele>630.4000244140625</ele>
        <time>2019-07-26T10:58:02.000Z</time>
      </trkpt>
      <trkpt lat="42.94154481031000614166259765625" lon="-7.89682005532085895538330078125">
        <ele>631.20001220703125</ele>
        <time>2019-07-26T10:58:05.000Z</time>
      </trkpt>
      <trkpt lat="42.94157934375107288360595703125" lon="-7.8969716839492321014404296875">
        <ele>631.5999755859375</ele>
        <time>2019-07-26T10:58:09.000Z</time>
      </trkpt>
      <trkpt lat="42.941601388156414031982421875" lon="-7.897024489939212799072265625">
        <ele>631.5999755859375</ele>
        <time>2019-07-26T10:58:11.000Z</time>
      </trkpt>
      <trkpt lat="42.941634245216846466064453125" lon="-7.89702926762402057647705078125">
        <ele>631.79998779296875</ele>
        <time>2019-07-26T10:58:13.000Z</time>
      </trkpt>
      <trkpt lat="42.941656373441219329833984375" lon="-7.8970149345695972442626953125">
        <ele>632</ele>
        <time>2019-07-26T10:58:15.000Z</time>
      </trkpt>
      <trkpt lat="42.941680513322353363037109375" lon="-7.8970055468380451202392578125">
        <ele>632.4000244140625</ele>
        <time>2019-07-26T10:58:17.000Z</time>
      </trkpt>
      <trkpt lat="42.941721417009830474853515625" lon="-7.89696606807410717010498046875">
        <ele>633.20001220703125</ele>
        <time>2019-07-26T10:58:20.000Z</time>
      </trkpt>
      <trkpt lat="42.941736839711666107177734375" lon="-7.89695131592452526092529296875">
        <ele>633.5999755859375</ele>
        <time>2019-07-26T10:58:21.000Z</time>
      </trkpt>
      <trkpt lat="42.9418245144188404083251953125" lon="-7.89688526652753353118896484375">
        <ele>634.79998779296875</ele>
        <time>2019-07-26T10:58:26.000Z</time>
      </trkpt>
      <trkpt lat="42.94183951802551746368408203125" lon="-7.89686548523604869842529296875">
        <ele>635.20001220703125</ele>
        <time>2019-07-26T10:58:27.000Z</time>
      </trkpt>
      <trkpt lat="42.94188193045556545257568359375" lon="-7.89682491682469844818115234375">
        <ele>636</ele>
        <time>2019-07-26T10:58:30.000Z</time>
      </trkpt>
      <trkpt lat="42.9419100098311901092529296875" lon="-7.89678988046944141387939453125">
        <ele>636.4000244140625</ele>
        <time>2019-07-26T10:58:32.000Z</time>
      </trkpt>
      <trkpt lat="42.94193356297910213470458984375" lon="-7.89674595929682254791259765625">
        <ele>637.20001220703125</ele>
        <time>2019-07-26T10:58:34.000Z</time>
      </trkpt>
      <trkpt lat="42.94197195209562778472900390625" lon="-7.8966471366584300994873046875">
        <ele>638.4000244140625</ele>
        <time>2019-07-26T10:58:38.000Z</time>
      </trkpt>
      <trkpt lat="42.94198192656040191650390625" lon="-7.89662291295826435089111328125">
        <ele>638.5999755859375</ele>
        <time>2019-07-26T10:58:39.000Z</time>
      </trkpt>
      <trkpt lat="42.94202710501849651336669921875" lon="-7.896539010107517242431640625">
        <ele>639.4000244140625</ele>
        <time>2019-07-26T10:58:43.000Z</time>
      </trkpt>
      <trkpt lat="42.9420779831707477569580078125" lon="-7.8964546881616115570068359375">
        <ele>640.5999755859375</ele>
        <time>2019-07-26T10:58:47.000Z</time>
      </trkpt>
      <trkpt lat="42.9421691782772541046142578125" lon="-7.896399199962615966796875">
        <ele>641.20001220703125</ele>
        <time>2019-07-26T10:58:52.000Z</time>
      </trkpt>
      <trkpt lat="42.94222458265721797943115234375" lon="-7.896409928798675537109375">
        <ele>641.5999755859375</ele>
        <time>2019-07-26T10:58:55.000Z</time>
      </trkpt>
      <trkpt lat="42.9422664083540439605712890625" lon="-7.896438427269458770751953125">
        <ele>642</ele>
        <time>2019-07-26T10:58:58.000Z</time>
      </trkpt>
      <trkpt lat="42.94227990321815013885498046875" lon="-7.89644949138164520263671875">
        <ele>642.20001220703125</ele>
        <time>2019-07-26T10:58:59.000Z</time>
      </trkpt>
      <trkpt lat="42.942292727530002593994140625" lon="-7.8964644111692905426025390625">
        <ele>642.5999755859375</ele>
        <time>2019-07-26T10:59:00.000Z</time>
      </trkpt>
      <trkpt lat="42.94232114218175411224365234375" lon="-7.8964892216026782989501953125">
        <ele>643.5999755859375</ele>
        <time>2019-07-26T10:59:02.000Z</time>
      </trkpt>
      <trkpt lat="42.94235433451831340789794921875" lon="-7.89653557352721691131591796875">
        <ele>644.79998779296875</ele>
        <time>2019-07-26T10:59:05.000Z</time>
      </trkpt>
      <trkpt lat="42.9423661530017852783203125" lon="-7.8965512476861476898193359375">
        <ele>645.20001220703125</ele>
        <time>2019-07-26T10:59:06.000Z</time>
      </trkpt>
      <trkpt lat="42.94238735921680927276611328125" lon="-7.89658586494624614715576171875">
        <ele>646</ele>
        <time>2019-07-26T10:59:08.000Z</time>
      </trkpt>
      <trkpt lat="42.9424223117530345916748046875" lon="-7.8966639004647731781005859375">
        <ele>647</ele>
        <time>2019-07-26T10:59:12.000Z</time>
      </trkpt>
      <trkpt lat="42.94243429787456989288330078125" lon="-7.89668158628046512603759765625">
        <ele>647.4000244140625</ele>
        <time>2019-07-26T10:59:13.000Z</time>
      </trkpt>
      <trkpt lat="42.94246916659176349639892578125" lon="-7.896731793880462646484375">
        <ele>648.20001220703125</ele>
        <time>2019-07-26T10:59:16.000Z</time>
      </trkpt>
      <trkpt lat="42.9425004310905933380126953125" lon="-7.8968208096921443939208984375">
        <ele>649.4000244140625</ele>
        <time>2019-07-26T10:59:20.000Z</time>
      </trkpt>
      <trkpt lat="42.942537479102611541748046875" lon="-7.89696824736893177032470703125">
        <ele>650.4000244140625</ele>
        <time>2019-07-26T10:59:26.000Z</time>
      </trkpt>
      <trkpt lat="42.94255415908992290496826171875" lon="-7.897045612335205078125">
        <ele>651</ele>
        <time>2019-07-26T10:59:29.000Z</time>
      </trkpt>
      <trkpt lat="42.94255952350795269012451171875" lon="-7.897070758044719696044921875">
        <ele>651.4000244140625</ele>
        <time>2019-07-26T10:59:30.000Z</time>
      </trkpt>
      <trkpt lat="42.9425872676074504852294921875" lon="-7.897218279540538787841796875">
        <ele>652.5999755859375</ele>
        <time>2019-07-26T10:59:36.000Z</time>
      </trkpt>
      <trkpt lat="42.94260227121412754058837890625" lon="-7.89728977717459201812744140625">
        <ele>653.4000244140625</ele>
        <time>2019-07-26T10:59:39.000Z</time>
      </trkpt>
      <trkpt lat="42.94260931201279163360595703125" lon="-7.89733855985105037689208984375">
        <ele>653.79998779296875</ele>
        <time>2019-07-26T10:59:41.000Z</time>
      </trkpt>
      <trkpt lat="42.9426477849483489990234375" lon="-7.89746780879795551300048828125">
        <ele>655</ele>
        <time>2019-07-26T10:59:47.000Z</time>
      </trkpt>
      <trkpt lat="42.94268357567489147186279296875" lon="-7.89755028672516345977783203125">
        <ele>656.20001220703125</ele>
        <time>2019-07-26T10:59:51.000Z</time>
      </trkpt>
      <trkpt lat="42.94269262813031673431396484375" lon="-7.8975681401789188385009765625">
        <ele>656.4000244140625</ele>
        <time>2019-07-26T10:59:52.000Z</time>
      </trkpt>
      <trkpt lat="42.942703776061534881591796875" lon="-7.8975828923285007476806640625">
        <ele>656.5999755859375</ele>
        <time>2019-07-26T10:59:53.000Z</time>
      </trkpt>
      <trkpt lat="42.9427408240735530853271484375" lon="-7.897624634206295013427734375">
        <ele>657.4000244140625</ele>
        <time>2019-07-26T10:59:56.000Z</time>
      </trkpt>
      <trkpt lat="42.9428129084408283233642578125" lon="-7.89765237830579280853271484375">
        <ele>658</ele>
        <time>2019-07-26T11:00:00.000Z</time>
      </trkpt>
      <trkpt lat="42.942853309214115142822265625" lon="-7.8976531326770782470703125">
        <ele>658.5999755859375</ele>
        <time>2019-07-26T11:00:02.000Z</time>
      </trkpt>
      <trkpt lat="42.94291944243013858795166015625" lon="-7.89764173328876495361328125">
        <ele>659.79998779296875</ele>
        <time>2019-07-26T11:00:05.000Z</time>
      </trkpt>
      <trkpt lat="42.942970655858516693115234375" lon="-7.8976368717849254608154296875">
        <ele>660.20001220703125</ele>
        <time>2019-07-26T11:00:07.000Z</time>
      </trkpt>
      <trkpt lat="42.94305372051894664764404296875" lon="-7.89762991480529308319091796875">
        <ele>660.79998779296875</ele>
        <time>2019-07-26T11:00:10.000Z</time>
      </trkpt>
      <trkpt lat="42.94319688342511653900146484375" lon="-7.89763159118592739105224609375">
        <ele>661.5999755859375</ele>
        <time>2019-07-26T11:00:15.000Z</time>
      </trkpt>
      <trkpt lat="42.94330635108053684234619140625" lon="-7.89764567278325557708740234375">
        <ele>662</ele>
        <time>2019-07-26T11:00:19.000Z</time>
      </trkpt>
      <trkpt lat="42.943429313600063323974609375" lon="-7.8976543061435222625732421875">
        <ele>662.5999755859375</ele>
        <time>2019-07-26T11:00:24.000Z</time>
      </trkpt>
      <trkpt lat="42.94354028999805450439453125" lon="-7.8976590000092983245849609375">
        <ele>663</ele>
        <time>2019-07-26T11:00:28.000Z</time>
      </trkpt>
      <trkpt lat="42.94363819062709808349609375" lon="-7.89766478352248668670654296875">
        <ele>663.4000244140625</ele>
        <time>2019-07-26T11:00:31.000Z</time>
      </trkpt>
      <trkpt lat="42.94381261803209781646728515625" lon="-7.8976697288453578948974609375">
        <ele>664.20001220703125</ele>
        <time>2019-07-26T11:00:36.000Z</time>
      </trkpt>
      <trkpt lat="42.94398796744644641876220703125" lon="-7.89768624119460582733154296875">
        <ele>664.5999755859375</ele>
        <time>2019-07-26T11:00:41.000Z</time>
      </trkpt>
      <trkpt lat="42.94415225274860858917236328125" lon="-7.8976824693381786346435546875">
        <ele>664.5999755859375</ele>
        <time>2019-07-26T11:00:45.000Z</time>
      </trkpt>
      <trkpt lat="42.94419399462640285491943359375" lon="-7.897681295871734619140625">
        <ele>664.79998779296875</ele>
        <time>2019-07-26T11:00:46.000Z</time>
      </trkpt>
      <trkpt lat="42.9444701783359050750732421875" lon="-7.89766578935086727142333984375">
        <ele>665</ele>
        <time>2019-07-26T11:00:53.000Z</time>
      </trkpt>
      <trkpt lat="42.94450722634792327880859375" lon="-7.89766277186572551727294921875">
        <ele>665.20001220703125</ele>
        <time>2019-07-26T11:00:54.000Z</time>
      </trkpt>
      <trkpt lat="42.9445794783532619476318359375" lon="-7.89765690453350543975830078125">
        <ele>665.4000244140625</ele>
        <time>2019-07-26T11:00:56.000Z</time>
      </trkpt>
      <trkpt lat="42.94488541781902313232421875" lon="-7.89763812907040119171142578125">
        <ele>666.20001220703125</ele>
        <time>2019-07-26T11:01:04.000Z</time>
      </trkpt>
      <trkpt lat="42.94492288492619991302490234375" lon="-7.89763368666172027587890625">
        <ele>666.20001220703125</ele>
        <time>2019-07-26T11:01:05.000Z</time>
      </trkpt>
      <trkpt lat="42.945206947624683380126953125" lon="-7.89760015904903411865234375">
        <ele>666.79998779296875</ele>
        <time>2019-07-26T11:01:12.000Z</time>
      </trkpt>
      <trkpt lat="42.94545178301632404327392578125" lon="-7.897582389414310455322265625">
        <ele>667</ele>
        <time>2019-07-26T11:01:18.000Z</time>
      </trkpt>
      <trkpt lat="42.94559662230312824249267578125" lon="-7.8975755162537097930908203125">
        <ele>667</ele>
        <time>2019-07-26T11:01:22.000Z</time>
      </trkpt>
      <trkpt lat="42.945744730532169342041015625" lon="-7.89756252430379390716552734375">
        <ele>667.20001220703125</ele>
        <time>2019-07-26T11:01:26.000Z</time>
      </trkpt>
      <trkpt lat="42.94577985070645809173583984375" lon="-7.89756185375154018402099609375">
        <ele>667.20001220703125</ele>
        <time>2019-07-26T11:01:27.000Z</time>
      </trkpt>
      <trkpt lat="42.94587691314518451690673828125" lon="-7.89756487123668193817138671875">
        <ele>667.79998779296875</ele>
        <time>2019-07-26T11:01:30.000Z</time>
      </trkpt>
      <trkpt lat="42.9460027255117893218994140625" lon="-7.89755523204803466796875">
        <ele>668.4000244140625</ele>
        <time>2019-07-26T11:01:34.000Z</time>
      </trkpt>
      <trkpt lat="42.94610372744500637054443359375" lon="-7.89754056371748447418212890625">
        <ele>669</ele>
        <time>2019-07-26T11:01:37.000Z</time>
      </trkpt>
      <trkpt lat="42.94617128558456897735595703125" lon="-7.8975285775959491729736328125">
        <ele>669.5999755859375</ele>
        <time>2019-07-26T11:01:39.000Z</time>
      </trkpt>
      <trkpt lat="42.9464298672974109649658203125" lon="-7.897472083568572998046875">
        <ele>670.5999755859375</ele>
        <time>2019-07-26T11:01:46.000Z</time>
      </trkpt>
      <trkpt lat="42.946661375463008880615234375" lon="-7.8974038548767566680908203125">
        <ele>671.79998779296875</ele>
        <time>2019-07-26T11:01:52.000Z</time>
      </trkpt>
      <trkpt lat="42.946775369346141815185546875" lon="-7.8973827324807643890380859375">
        <ele>672.5999755859375</ele>
        <time>2019-07-26T11:01:55.000Z</time>
      </trkpt>
      <trkpt lat="42.94681233353912830352783203125" lon="-7.89738415740430355072021484375">
        <ele>672.79998779296875</ele>
        <time>2019-07-26T11:01:56.000Z</time>
      </trkpt>
      <trkpt lat="42.94701014645397663116455078125" lon="-7.89741097949445247650146484375">
        <ele>673.79998779296875</ele>
        <time>2019-07-26T11:02:01.000Z</time>
      </trkpt>
      <trkpt lat="42.947087176144123077392578125" lon="-7.89742321707308292388916015625">
        <ele>674.4000244140625</ele>
        <time>2019-07-26T11:02:03.000Z</time>
      </trkpt>
      <trkpt lat="42.94724081642925739288330078125" lon="-7.8974390588700771331787109375">
        <ele>675</ele>
        <time>2019-07-26T11:02:07.000Z</time>
      </trkpt>
      <trkpt lat="42.94739537872374057769775390625" lon="-7.8974541462957859039306640625">
        <ele>675.4000244140625</ele>
        <time>2019-07-26T11:02:11.000Z</time>
      </trkpt>
      <trkpt lat="42.94751607812941074371337890625" lon="-7.89746412076056003570556640625">
        <ele>676.20001220703125</ele>
        <time>2019-07-26T11:02:14.000Z</time>
      </trkpt>
      <trkpt lat="42.94770441949367523193359375" lon="-7.8974930383265018463134765625">
        <ele>676.4000244140625</ele>
        <time>2019-07-26T11:02:18.000Z</time>
      </trkpt>
      <trkpt lat="42.947858311235904693603515625" lon="-7.897524721920490264892578125">
        <ele>676.5999755859375</ele>
        <time>2019-07-26T11:02:21.000Z</time>
      </trkpt>
      <trkpt lat="42.94805721379816532135009765625" lon="-7.89756529033184051513671875">
        <ele>676.5999755859375</ele>
        <time>2019-07-26T11:02:25.000Z</time>
      </trkpt>
      <trkpt lat="42.9484212398529052734375" lon="-7.89770166389644145965576171875">
        <ele>676.4000244140625</ele>
        <time>2019-07-26T11:02:31.000Z</time>
      </trkpt>
      <trkpt lat="42.9486842639744281768798828125" lon="-7.89785069413483142852783203125">
        <ele>676</ele>
        <time>2019-07-26T11:02:35.000Z</time>
      </trkpt>
      <trkpt lat="42.94881510548293590545654296875" lon="-7.89793451316654682159423828125">
        <ele>675.4000244140625</ele>
        <time>2019-07-26T11:02:37.000Z</time>
      </trkpt>
      <trkpt lat="42.9490128345787525177001953125" lon="-7.8980576433241367340087890625">
        <ele>675</ele>
        <time>2019-07-26T11:02:40.000Z</time>
      </trkpt>
      <trkpt lat="42.9492066241800785064697265625" lon="-7.89818110875785350799560546875">
        <ele>674.4000244140625</ele>
        <time>2019-07-26T11:02:43.000Z</time>
      </trkpt>
      <trkpt lat="42.94934819452464580535888671875" lon="-7.89827062748372554779052734375">
        <ele>674</ele>
        <time>2019-07-26T11:02:45.000Z</time>
      </trkpt>
      <trkpt lat="42.94942128472030162811279296875" lon="-7.898319661617279052734375">
        <ele>673.79998779296875</ele>
        <time>2019-07-26T11:02:46.000Z</time>
      </trkpt>
      <trkpt lat="42.94949672184884548187255859375" lon="-7.8983694501221179962158203125">
        <ele>673.4000244140625</ele>
        <time>2019-07-26T11:02:47.000Z</time>
      </trkpt>
      <trkpt lat="42.949732504785060882568359375" lon="-7.8984723798930644989013671875">
        <ele>672.4000244140625</ele>
        <time>2019-07-26T11:02:50.000Z</time>
      </trkpt>
      <trkpt lat="42.9498101212084293365478515625" lon="-7.898494340479373931884765625">
        <ele>672.20001220703125</ele>
        <time>2019-07-26T11:02:51.000Z</time>
      </trkpt>
      <trkpt lat="42.9498889110982418060302734375" lon="-7.8985099308192729949951171875">
        <ele>671.79998779296875</ele>
        <time>2019-07-26T11:02:52.000Z</time>
      </trkpt>
      <trkpt lat="42.94997155666351318359375" lon="-7.89851747453212738037109375">
        <ele>671.4000244140625</ele>
        <time>2019-07-26T11:02:53.000Z</time>
      </trkpt>
      <trkpt lat="42.95005512423813343048095703125" lon="-7.89851554669439792633056640625">
        <ele>670.79998779296875</ele>
        <time>2019-07-26T11:02:54.000Z</time>
      </trkpt>
      <trkpt lat="42.95013274066150188446044921875" lon="-7.8985062427818775177001953125">
        <ele>670.20001220703125</ele>
        <time>2019-07-26T11:02:55.000Z</time>
      </trkpt>
      <trkpt lat="42.95026198960840702056884765625" lon="-7.89849442429840564727783203125">
        <ele>669.4000244140625</ele>
        <time>2019-07-26T11:02:57.000Z</time>
      </trkpt>
      <trkpt lat="42.950323261320590972900390625" lon="-7.89850716479122638702392578125">
        <ele>669.20001220703125</ele>
        <time>2019-07-26T11:02:58.000Z</time>
      </trkpt>
      <trkpt lat="42.950384281575679779052734375" lon="-7.89853666909039020538330078125">
        <ele>668.79998779296875</ele>
        <time>2019-07-26T11:02:59.000Z</time>
      </trkpt>
      <trkpt lat="42.95051730237901210784912109375" lon="-7.89857019670307636260986328125">
        <ele>668</ele>
        <time>2019-07-26T11:03:01.000Z</time>
      </trkpt>
      <trkpt lat="42.9506422765552997589111328125" lon="-7.8985494934022426605224609375">
        <ele>667.20001220703125</ele>
        <time>2019-07-26T11:03:03.000Z</time>
      </trkpt>
      <trkpt lat="42.9506939090788364410400390625" lon="-7.89853566326200962066650390625">
        <ele>666.5999755859375</ele>
        <time>2019-07-26T11:03:04.000Z</time>
      </trkpt>
      <trkpt lat="42.9507616348564624786376953125" lon="-7.898537255823612213134765625">
        <ele>665.5999755859375</ele>
        <time>2019-07-26T11:03:06.000Z</time>
      </trkpt>
      <trkpt lat="42.950773537158966064453125" lon="-7.89856768213212490081787109375">
        <ele>665.20001220703125</ele>
        <time>2019-07-26T11:03:07.000Z</time>
      </trkpt>
      <trkpt lat="42.95075275003910064697265625" lon="-7.89864714257419109344482421875">
        <ele>663.79998779296875</ele>
        <time>2019-07-26T11:03:09.000Z</time>
      </trkpt>
      <trkpt lat="42.95067890547215938568115234375" lon="-7.89873481728136539459228515625">
        <ele>662.79998779296875</ele>
        <time>2019-07-26T11:03:11.000Z</time>
      </trkpt>
      <trkpt lat="42.95063414610922336578369140625" lon="-7.89878728799521923065185546875">
        <ele>662.5999755859375</ele>
        <time>2019-07-26T11:03:12.000Z</time>
      </trkpt>
      <trkpt lat="42.95058469288051128387451171875" lon="-7.8988458774983882904052734375">
        <ele>662.4000244140625</ele>
        <time>2019-07-26T11:03:13.000Z</time>
      </trkpt>
      <trkpt lat="42.95041655190289020538330078125" lon="-7.89903757162392139434814453125">
        <ele>662</ele>
        <time>2019-07-26T11:03:16.000Z</time>
      </trkpt>
      <trkpt lat="42.95029602013528347015380859375" lon="-7.899156510829925537109375">
        <ele>661.5999755859375</ele>
        <time>2019-07-26T11:03:18.000Z</time>
      </trkpt>
      <trkpt lat="42.95008127577602863311767578125" lon="-7.89940050803124904632568359375">
        <ele>659.79998779296875</ele>
        <time>2019-07-26T11:03:22.000Z</time>
      </trkpt>
      <trkpt lat="42.95005193911492824554443359375" lon="-7.89951953105628490447998046875">
        <ele>658.5999755859375</ele>
        <time>2019-07-26T11:03:24.000Z</time>
      </trkpt>
      <trkpt lat="42.95006250031292438507080078125" lon="-7.89958289824426174163818359375">
        <ele>657.79998779296875</ele>
        <time>2019-07-26T11:03:25.000Z</time>
      </trkpt>
      <trkpt lat="42.95008915476500988006591796875" lon="-7.8996486961841583251953125">
        <ele>657.20001220703125</ele>
        <time>2019-07-26T11:03:26.000Z</time>
      </trkpt>
      <trkpt lat="42.95012176036834716796875" lon="-7.8997165895998477935791015625">
        <ele>656.20001220703125</ele>
        <time>2019-07-26T11:03:27.000Z</time>
      </trkpt>
      <trkpt lat="42.95015503652393817901611328125" lon="-7.8997802920639514923095703125">
        <ele>655.4000244140625</ele>
        <time>2019-07-26T11:03:28.000Z</time>
      </trkpt>
      <trkpt lat="42.950189821422100067138671875" lon="-7.89983686991035938262939453125">
        <ele>654.4000244140625</ele>
        <time>2019-07-26T11:03:29.000Z</time>
      </trkpt>
      <trkpt lat="42.95021907426416873931884765625" lon="-7.8998922742903232574462890625">
        <ele>653.5999755859375</ele>
        <time>2019-07-26T11:03:30.000Z</time>
      </trkpt>
      <trkpt lat="42.95024581253528594970703125" lon="-7.89994097314774990081787109375">
        <ele>652.5999755859375</ele>
        <time>2019-07-26T11:03:31.000Z</time>
      </trkpt>
      <trkpt lat="42.95027137733995914459228515625" lon="-7.89998137392103672027587890625">
        <ele>651.79998779296875</ele>
        <time>2019-07-26T11:03:32.000Z</time>
      </trkpt>
      <trkpt lat="42.9503163881599903106689453125" lon="-7.9000510275363922119140625">
        <ele>650.79998779296875</ele>
        <time>2019-07-26T11:03:34.000Z</time>
      </trkpt>
      <trkpt lat="42.9503495804965496063232421875" lon="-7.9001138918101787567138671875">
        <ele>650.5999755859375</ele>
        <time>2019-07-26T11:03:36.000Z</time>
      </trkpt>
      <trkpt lat="42.95037615112960338592529296875" lon="-7.90018237195909023284912109375">
        <ele>650.4000244140625</ele>
        <time>2019-07-26T11:03:38.000Z</time>
      </trkpt>
      <trkpt lat="42.95039467513561248779296875" lon="-7.900264598429203033447265625">
        <ele>650.4000244140625</ele>
        <time>2019-07-26T11:03:40.000Z</time>
      </trkpt>
      <trkpt lat="42.9504122771322727203369140625" lon="-7.900343723595142364501953125">
        <ele>650.4000244140625</ele>
        <time>2019-07-26T11:03:42.000Z</time>
      </trkpt>
      <trkpt lat="42.95045209117233753204345703125" lon="-7.900443635880947113037109375">
        <ele>651</ele>
        <time>2019-07-26T11:03:45.000Z</time>
      </trkpt>
      <trkpt lat="42.95047589577734470367431640625" lon="-7.900496609508991241455078125">
        <ele>651.4000244140625</ele>
        <time>2019-07-26T11:03:47.000Z</time>
      </trkpt>
      <trkpt lat="42.9505088366568088531494140625" lon="-7.900575064122676849365234375">
        <ele>651.79998779296875</ele>
        <time>2019-07-26T11:03:50.000Z</time>
      </trkpt>
      <trkpt lat="42.95054328627884387969970703125" lon="-7.90067799389362335205078125">
        <ele>653</ele>
        <time>2019-07-26T11:03:54.000Z</time>
      </trkpt>
      <trkpt lat="42.9505638219416141510009765625" lon="-7.90077011100947856903076171875">
        <ele>653.5999755859375</ele>
        <time>2019-07-26T11:03:57.000Z</time>
      </trkpt>
      <trkpt lat="42.95056977309286594390869140625" lon="-7.900798022747039794921875">
        <ele>654</ele>
        <time>2019-07-26T11:03:58.000Z</time>
      </trkpt>
      <trkpt lat="42.95059760101139545440673828125" lon="-7.9009162075817584991455078125">
        <ele>654.79998779296875</ele>
        <time>2019-07-26T11:04:02.000Z</time>
      </trkpt>
      <trkpt lat="42.95061486773192882537841796875" lon="-7.90097295306622982025146484375">
        <ele>655.20001220703125</ele>
        <time>2019-07-26T11:04:04.000Z</time>
      </trkpt>
      <trkpt lat="42.95064051635563373565673828125" lon="-7.9010915569961071014404296875">
        <ele>656.20001220703125</ele>
        <time>2019-07-26T11:04:08.000Z</time>
      </trkpt>
      <trkpt lat="42.9506446234881877899169921875" lon="-7.90112785063683986663818359375">
        <ele>656.4000244140625</ele>
        <time>2019-07-26T11:04:09.000Z</time>
      </trkpt>
      <trkpt lat="42.95067639090120792388916015625" lon="-7.9013007692992687225341796875">
        <ele>657</ele>
        <time>2019-07-26T11:04:14.000Z</time>
      </trkpt>
      <trkpt lat="42.95069315470755100250244140625" lon="-7.9013733565807342529296875">
        <ele>657.4000244140625</ele>
        <time>2019-07-26T11:04:16.000Z</time>
      </trkpt>
      <trkpt lat="42.95072835870087146759033203125" lon="-7.901504449546337127685546875">
        <ele>658.20001220703125</ele>
        <time>2019-07-26T11:04:20.000Z</time>
      </trkpt>
      <trkpt lat="42.9507535882294178009033203125" lon="-7.90160461328923702239990234375">
        <ele>658.79998779296875</ele>
        <time>2019-07-26T11:04:23.000Z</time>
      </trkpt>
      <trkpt lat="42.95077781192958354949951171875" lon="-7.9017165116965770721435546875">
        <ele>659.20001220703125</ele>
        <time>2019-07-26T11:04:27.000Z</time>
      </trkpt>
      <trkpt lat="42.95079072006046772003173828125" lon="-7.90173637680709362030029296875">
        <ele>659.4000244140625</ele>
        <time>2019-07-26T11:04:28.000Z</time>
      </trkpt>
      <trkpt lat="42.95085408724844455718994140625" lon="-7.90186009369790554046630859375">
        <ele>660</ele>
        <time>2019-07-26T11:04:33.000Z</time>
      </trkpt>
      <trkpt lat="42.950865738093852996826171875" lon="-7.901888005435466766357421875">
        <ele>660.4000244140625</ele>
        <time>2019-07-26T11:04:34.000Z</time>
      </trkpt>
      <trkpt lat="42.95091929845511913299560546875" lon="-7.90202102623879909515380859375">
        <ele>661.5999755859375</ele>
        <time>2019-07-26T11:04:39.000Z</time>
      </trkpt>
      <trkpt lat="42.950936816632747650146484375" lon="-7.90204198099672794342041015625">
        <ele>661.79998779296875</ele>
        <time>2019-07-26T11:04:40.000Z</time>
      </trkpt>
      <trkpt lat="42.9509840905666351318359375" lon="-7.90213351137936115264892578125">
        <ele>662.79998779296875</ele>
        <time>2019-07-26T11:04:44.000Z</time>
      </trkpt>
      <trkpt lat="42.9510006867349147796630859375" lon="-7.902171649038791656494140625">
        <ele>663.20001220703125</ele>
        <time>2019-07-26T11:04:46.000Z</time>
      </trkpt>
      <trkpt lat="42.9510055482387542724609375" lon="-7.90220551192760467529296875">
        <ele>664</ele>
        <time>2019-07-26T11:04:50.000Z</time>
      </trkpt>
      <trkpt lat="42.95107352547347545623779296875" lon="-7.9022496007382869720458984375">
        <ele>665</ele>
        <time>2019-07-26T11:07:17.000Z</time>
      </trkpt>
      <trkpt lat="42.9510838352143764495849609375" lon="-7.90226988494396209716796875">
        <ele>665</ele>
        <time>2019-07-26T11:07:18.000Z</time>
      </trkpt>
      <trkpt lat="42.9510948993265628814697265625" lon="-7.902295030653476715087890625">
        <ele>665</ele>
        <time>2019-07-26T11:07:19.000Z</time>
      </trkpt>
      <trkpt lat="42.9511691629886627197265625" lon="-7.9024189151823520660400390625">
        <ele>665.20001220703125</ele>
        <time>2019-07-26T11:07:24.000Z</time>
      </trkpt>
      <trkpt lat="42.95119791291654109954833984375" lon="-7.9024703800678253173828125">
        <ele>665.4000244140625</ele>
        <time>2019-07-26T11:07:26.000Z</time>
      </trkpt>
      <trkpt lat="42.951243259012699127197265625" lon="-7.90254891850054264068603515625">
        <ele>665.79998779296875</ele>
        <time>2019-07-26T11:07:29.000Z</time>
      </trkpt>
      <trkpt lat="42.95125323347747325897216796875" lon="-7.90257976390421390533447265625">
        <ele>666</ele>
        <time>2019-07-26T11:07:30.000Z</time>
      </trkpt>
      <trkpt lat="42.95127586461603641510009765625" lon="-7.9026393592357635498046875">
        <ele>666.4000244140625</ele>
        <time>2019-07-26T11:07:32.000Z</time>
      </trkpt>
      <trkpt lat="42.95130528509616851806640625" lon="-7.90273415856063365936279296875">
        <ele>667</ele>
        <time>2019-07-26T11:07:35.000Z</time>
      </trkpt>
      <trkpt lat="42.95131593011319637298583984375" lon="-7.902769781649112701416015625">
        <ele>667.20001220703125</ele>
        <time>2019-07-26T11:07:36.000Z</time>
      </trkpt>
      <trkpt lat="42.951345182955265045166015625" lon="-7.9029137827455997467041015625">
        <ele>668</ele>
        <time>2019-07-26T11:07:40.000Z</time>
      </trkpt>
      <trkpt lat="42.9513476975262165069580078125" lon="-7.9030277766287326812744140625">
        <ele>668.20001220703125</ele>
        <time>2019-07-26T11:07:43.000Z</time>
      </trkpt>
      <trkpt lat="42.951349206268787384033203125" lon="-7.9030649922788143157958984375">
        <ele>668.4000244140625</ele>
        <time>2019-07-26T11:07:44.000Z</time>
      </trkpt>
      <trkpt lat="42.9513609409332275390625" lon="-7.903195582330226898193359375">
        <ele>668.79998779296875</ele>
        <time>2019-07-26T11:07:48.000Z</time>
      </trkpt>
      <trkpt lat="42.95136630535125732421875" lon="-7.903298176825046539306640625">
        <ele>669.4000244140625</ele>
        <time>2019-07-26T11:07:51.000Z</time>
      </trkpt>
      <trkpt lat="42.95139287598431110382080078125" lon="-7.90348090231418609619140625">
        <ele>670</ele>
        <time>2019-07-26T11:07:56.000Z</time>
      </trkpt>
      <trkpt lat="42.9513956420123577117919921875" lon="-7.90351753123104572296142578125">
        <ele>670.20001220703125</ele>
        <time>2019-07-26T11:07:57.000Z</time>
      </trkpt>
      <trkpt lat="42.9514087177813053131103515625" lon="-7.9036607779562473297119140625">
        <ele>670.5999755859375</ele>
        <time>2019-07-26T11:08:01.000Z</time>
      </trkpt>
      <trkpt lat="42.95142388902604579925537109375" lon="-7.90376664139330387115478515625">
        <ele>670.79998779296875</ele>
        <time>2019-07-26T11:08:04.000Z</time>
      </trkpt>
      <trkpt lat="42.9514315165579319000244140625" lon="-7.90399094112217426300048828125">
        <ele>671.20001220703125</ele>
        <time>2019-07-26T11:08:10.000Z</time>
      </trkpt>
      <trkpt lat="42.951427660882472991943359375" lon="-7.9040287435054779052734375">
        <ele>671.4000244140625</ele>
        <time>2019-07-26T11:08:11.000Z</time>
      </trkpt>
      <trkpt lat="42.9514375515282154083251953125" lon="-7.904198728501796722412109375">
        <ele>671.79998779296875</ele>
        <time>2019-07-26T11:08:16.000Z</time>
      </trkpt>
      <trkpt lat="42.951444089412689208984375" lon="-7.90426519699394702911376953125">
        <ele>672.79998779296875</ele>
        <time>2019-07-26T11:08:18.000Z</time>
      </trkpt>
      <trkpt lat="42.95146009884774684906005859375" lon="-7.9044309072196483612060546875">
        <ele>673.79998779296875</ele>
        <time>2019-07-26T11:08:23.000Z</time>
      </trkpt>
      <trkpt lat="42.95146864838898181915283203125" lon="-7.90459510870277881622314453125">
        <ele>674.79998779296875</ele>
        <time>2019-07-26T11:08:28.000Z</time>
      </trkpt>
      <trkpt lat="42.95147183351218700408935546875" lon="-7.90465730242431163787841796875">
        <ele>675.4000244140625</ele>
        <time>2019-07-26T11:08:30.000Z</time>
      </trkpt>
      <trkpt lat="42.95147820375859737396240234375" lon="-7.90472201071679592132568359375">
        <ele>675.79998779296875</ele>
        <time>2019-07-26T11:08:32.000Z</time>
      </trkpt>
      <trkpt lat="42.95146697200834751129150390625" lon="-7.904950417578220367431640625">
        <ele>676.79998779296875</ele>
        <time>2019-07-26T11:08:38.000Z</time>
      </trkpt>
      <trkpt lat="42.951463870704174041748046875" lon="-7.9049898125231266021728515625">
        <ele>677</ele>
        <time>2019-07-26T11:08:39.000Z</time>
      </trkpt>
      <trkpt lat="42.9514586739242076873779296875" lon="-7.905203215777873992919921875">
        <ele>677.79998779296875</ele>
        <time>2019-07-26T11:08:45.000Z</time>
      </trkpt>
      <trkpt lat="42.95145138166844844818115234375" lon="-7.90524420328438282012939453125">
        <ele>678.20001220703125</ele>
        <time>2019-07-26T11:08:46.000Z</time>
      </trkpt>
      <trkpt lat="42.95140712521970272064208984375" lon="-7.90547654964029788970947265625">
        <ele>678.5999755859375</ele>
        <time>2019-07-26T11:08:52.000Z</time>
      </trkpt>
      <trkpt lat="42.95139958150684833526611328125" lon="-7.90551493875682353973388671875">
        <ele>678.79998779296875</ele>
        <time>2019-07-26T11:08:53.000Z</time>
      </trkpt>
      <trkpt lat="42.95137636363506317138671875" lon="-7.9056265018880367279052734375">
        <ele>679</ele>
        <time>2019-07-26T11:08:56.000Z</time>
      </trkpt>
      <trkpt lat="42.95134074054658412933349609375" lon="-7.90576823987066745758056640625">
        <ele>679.5999755859375</ele>
        <time>2019-07-26T11:09:00.000Z</time>
      </trkpt>
      <trkpt lat="42.9513086378574371337890625" lon="-7.90587888099253177642822265625">
        <ele>680</ele>
        <time>2019-07-26T11:09:03.000Z</time>
      </trkpt>
      <trkpt lat="42.95126714743673801422119140625" lon="-7.9060238040983676910400390625">
        <ele>680.5999755859375</ele>
        <time>2019-07-26T11:09:07.000Z</time>
      </trkpt>
      <trkpt lat="42.95121551491320133209228515625" lon="-7.90625556372106075286865234375">
        <ele>681.20001220703125</ele>
        <time>2019-07-26T11:09:13.000Z</time>
      </trkpt>
      <trkpt lat="42.9512078873813152313232421875" lon="-7.90629043243825435638427734375">
        <ele>681.4000244140625</ele>
        <time>2019-07-26T11:09:14.000Z</time>
      </trkpt>
      <trkpt lat="42.95114594511687755584716796875" lon="-7.90651003830134868621826171875">
        <ele>682.20001220703125</ele>
        <time>2019-07-26T11:09:20.000Z</time>
      </trkpt>
      <trkpt lat="42.9511374793946743011474609375" lon="-7.9065434820950031280517578125">
        <ele>682.4000244140625</ele>
        <time>2019-07-26T11:09:21.000Z</time>
      </trkpt>
      <trkpt lat="42.9510972462594509124755859375" lon="-7.9067241959273815155029296875">
        <ele>683.4000244140625</ele>
        <time>2019-07-26T11:09:26.000Z</time>
      </trkpt>
      <trkpt lat="42.9510801471769809722900390625" lon="-7.90679334662854671478271484375">
        <ele>683.5999755859375</ele>
        <time>2019-07-26T11:09:28.000Z</time>
      </trkpt>
      <trkpt lat="42.95099557377398014068603515625" lon="-7.907034493982791900634765625">
        <ele>684.20001220703125</ele>
        <time>2019-07-26T11:09:34.000Z</time>
      </trkpt>
      <trkpt lat="42.950979061424732208251953125" lon="-7.90706693194806575775146484375">
        <ele>684.20001220703125</ele>
        <time>2019-07-26T11:09:35.000Z</time>
      </trkpt>
      <trkpt lat="42.9508954100310802459716796875" lon="-7.9072098433971405029296875">
        <ele>684.79998779296875</ele>
        <time>2019-07-26T11:09:40.000Z</time>
      </trkpt>
      <trkpt lat="42.950875461101531982421875" lon="-7.9072284512221813201904296875">
        <ele>685.20001220703125</ele>
        <time>2019-07-26T11:09:41.000Z</time>
      </trkpt>
      <trkpt lat="42.95078895986080169677734375" lon="-7.9073444567620754241943359375">
        <ele>686.5999755859375</ele>
        <time>2019-07-26T11:09:46.000Z</time>
      </trkpt>
      <trkpt lat="42.95075937174260616302490234375" lon="-7.90740405209362506866455078125">
        <ele>687.20001220703125</ele>
        <time>2019-07-26T11:09:48.000Z</time>
      </trkpt>
      <trkpt lat="42.9507438652217388153076171875" lon="-7.907434143126010894775390625">
        <ele>687.5999755859375</ele>
        <time>2019-07-26T11:09:49.000Z</time>
      </trkpt>
      <trkpt lat="42.9507193900644779205322265625" lon="-7.90752508677542209625244140625">
        <ele>688.5999755859375</ele>
        <time>2019-07-26T11:09:52.000Z</time>
      </trkpt>
      <trkpt lat="42.9507079906761646270751953125" lon="-7.90757705457508563995361328125">
        <ele>689.20001220703125</ele>
        <time>2019-07-26T11:09:54.000Z</time>
      </trkpt>
      <trkpt lat="42.950696088373661041259765625" lon="-7.907627262175083160400390625">
        <ele>689.79998779296875</ele>
        <time>2019-07-26T11:09:56.000Z</time>
      </trkpt>
      <trkpt lat="42.95067320577800273895263671875" lon="-7.9077431000769138336181640625">
        <ele>691</ele>
        <time>2019-07-26T11:10:00.000Z</time>
      </trkpt>
      <trkpt lat="42.95066365040838718414306640625" lon="-7.90787343867123126983642578125">
        <ele>692.20001220703125</ele>
        <time>2019-07-26T11:10:04.000Z</time>
      </trkpt>
      <trkpt lat="42.95065887272357940673828125" lon="-7.9080002568662166595458984375">
        <ele>693.4000244140625</ele>
        <time>2019-07-26T11:10:08.000Z</time>
      </trkpt>
      <trkpt lat="42.95066960155963897705078125" lon="-7.90805934928357601165771484375">
        <ele>694.5999755859375</ele>
        <time>2019-07-26T11:10:10.000Z</time>
      </trkpt>
      <trkpt lat="42.95067655853927135467529296875" lon="-7.90815926156938076019287109375">
        <ele>696</ele>
        <time>2019-07-26T11:10:13.000Z</time>
      </trkpt>
      <trkpt lat="42.950682006776332855224609375" lon="-7.90822061710059642791748046875">
        <ele>696.79998779296875</ele>
        <time>2019-07-26T11:10:15.000Z</time>
      </trkpt>
      <trkpt lat="42.9506882093846797943115234375" lon="-7.90824945084750652313232421875">
        <ele>697.20001220703125</ele>
        <time>2019-07-26T11:10:16.000Z</time>
      </trkpt>
      <trkpt lat="42.950715534389019012451171875" lon="-7.90833662264049053192138671875">
        <ele>698.20001220703125</ele>
        <time>2019-07-26T11:10:19.000Z</time>
      </trkpt>
      <trkpt lat="42.950746715068817138671875" lon="-7.9084240458905696868896484375">
        <ele>699</ele>
        <time>2019-07-26T11:10:22.000Z</time>
      </trkpt>
      <trkpt lat="42.95076725073158740997314453125" lon="-7.9084833897650241851806640625">
        <ele>699.5999755859375</ele>
        <time>2019-07-26T11:10:24.000Z</time>
      </trkpt>
      <trkpt lat="42.95085492543876171112060546875" lon="-7.908657230436801910400390625">
        <ele>700.79998779296875</ele>
        <time>2019-07-26T11:10:30.000Z</time>
      </trkpt>
      <trkpt lat="42.95094595290720462799072265625" lon="-7.90882428176701068878173828125">
        <ele>701.79998779296875</ele>
        <time>2019-07-26T11:10:35.000Z</time>
      </trkpt>
      <trkpt lat="42.95096975751221179962158203125" lon="-7.90887105278670787811279296875">
        <ele>701.79998779296875</ele>
        <time>2019-07-26T11:10:36.000Z</time>
      </trkpt>
      <trkpt lat="42.9509948194026947021484375" lon="-7.9089237749576568603515625">
        <ele>702</ele>
        <time>2019-07-26T11:10:37.000Z</time>
      </trkpt>
      <trkpt lat="42.9510496370494365692138671875" lon="-7.9090386070311069488525390625">
        <ele>702</ele>
        <time>2019-07-26T11:10:39.000Z</time>
      </trkpt>
      <trkpt lat="42.951149046421051025390625" lon="-7.90922946296632289886474609375">
        <ele>702</ele>
        <time>2019-07-26T11:10:42.000Z</time>
      </trkpt>
      <trkpt lat="42.951261699199676513671875" lon="-7.909456528723239898681640625">
        <ele>701.79998779296875</ele>
        <time>2019-07-26T11:10:45.000Z</time>
      </trkpt>
      <trkpt lat="42.95131593011319637298583984375" lon="-7.9096551798284053802490234375">
        <ele>701.5999755859375</ele>
        <time>2019-07-26T11:10:47.000Z</time>
      </trkpt>
      <trkpt lat="42.9513423331081867218017578125" lon="-7.909897752106189727783203125">
        <ele>701.20001220703125</ele>
        <time>2019-07-26T11:10:49.000Z</time>
      </trkpt>
      <trkpt lat="42.9513587616384029388427734375" lon="-7.91016370989382266998291015625">
        <ele>700.5999755859375</ele>
        <time>2019-07-26T11:10:51.000Z</time>
      </trkpt>
      <trkpt lat="42.95136689208447933197021484375" lon="-7.910301424562931060791015625">
        <ele>700.20001220703125</ele>
        <time>2019-07-26T11:10:52.000Z</time>
      </trkpt>
      <trkpt lat="42.9513778723776340484619140625" lon="-7.91057559661567211151123046875">
        <ele>699.5999755859375</ele>
        <time>2019-07-26T11:10:54.000Z</time>
      </trkpt>
      <trkpt lat="42.951378710567951202392578125" lon="-7.9107139818370342254638671875">
        <ele>698.79998779296875</ele>
        <time>2019-07-26T11:10:55.000Z</time>
      </trkpt>
      <trkpt lat="42.951377369463443756103515625" lon="-7.91085706092417240142822265625">
        <ele>698</ele>
        <time>2019-07-26T11:10:56.000Z</time>
      </trkpt>
      <trkpt lat="42.9513745196163654327392578125" lon="-7.91100307367742061614990234375">
        <ele>697.4000244140625</ele>
        <time>2019-07-26T11:10:57.000Z</time>
      </trkpt>
      <trkpt lat="42.95137292705476284027099609375" lon="-7.9111501760780811309814453125">
        <ele>696.79998779296875</ele>
        <time>2019-07-26T11:10:58.000Z</time>
      </trkpt>
      <trkpt lat="42.95136295258998870849609375" lon="-7.9112956859171390533447265625">
        <ele>696</ele>
        <time>2019-07-26T11:10:59.000Z</time>
      </trkpt>
      <trkpt lat="42.9513500444591045379638671875" lon="-7.9114415310323238372802734375">
        <ele>695.5999755859375</ele>
        <time>2019-07-26T11:11:00.000Z</time>
      </trkpt>
      <trkpt lat="42.9513305984437465667724609375" lon="-7.91172089986503124237060546875">
        <ele>693.4000244140625</ele>
        <time>2019-07-26T11:11:02.000Z</time>
      </trkpt>
      <trkpt lat="42.9513285867869853973388671875" lon="-7.9118502326309680938720703125">
        <ele>692.20001220703125</ele>
        <time>2019-07-26T11:11:03.000Z</time>
      </trkpt>
      <trkpt lat="42.9513305984437465667724609375" lon="-7.9120983369648456573486328125">
        <ele>690</ele>
        <time>2019-07-26T11:11:05.000Z</time>
      </trkpt>
      <trkpt lat="42.95132162980735301971435546875" lon="-7.9122228920459747314453125">
        <ele>689.4000244140625</ele>
        <time>2019-07-26T11:11:06.000Z</time>
      </trkpt>
      <trkpt lat="42.9513010941445827484130859375" lon="-7.91234585456550121307373046875">
        <ele>689</ele>
        <time>2019-07-26T11:11:07.000Z</time>
      </trkpt>
      <trkpt lat="42.9512387327849864959716796875" lon="-7.912576608359813690185546875">
        <ele>688</ele>
        <time>2019-07-26T11:11:09.000Z</time>
      </trkpt>
      <trkpt lat="42.9511998407542705535888671875" lon="-7.912683226168155670166015625">
        <ele>687.79998779296875</ele>
        <time>2019-07-26T11:11:10.000Z</time>
      </trkpt>
      <trkpt lat="42.9511502198874950408935546875" lon="-7.9127826355397701263427734375">
        <ele>687.5999755859375</ele>
        <time>2019-07-26T11:11:11.000Z</time>
      </trkpt>
      <trkpt lat="42.950970344245433807373046875" lon="-7.9130302369594573974609375">
        <ele>687</ele>
        <time>2019-07-26T11:11:14.000Z</time>
      </trkpt>
      <trkpt lat="42.9509051330387592315673828125" lon="-7.91309955529868602752685546875">
        <ele>686.5999755859375</ele>
        <time>2019-07-26T11:11:15.000Z</time>
      </trkpt>
      <trkpt lat="42.95073271729052066802978515625" lon="-7.9133113659918308258056640625">
        <ele>685.4000244140625</ele>
        <time>2019-07-26T11:11:18.000Z</time>
      </trkpt>
      <trkpt lat="42.950676977634429931640625" lon="-7.91338755749166011810302734375">
        <ele>684.79998779296875</ele>
        <time>2019-07-26T11:11:19.000Z</time>
      </trkpt>
      <trkpt lat="42.95052031986415386199951171875" lon="-7.913627363741397857666015625">
        <ele>684.20001220703125</ele>
        <time>2019-07-26T11:11:22.000Z</time>
      </trkpt>
      <trkpt lat="42.9503767378628253936767578125" lon="-7.91389784775674343109130859375">
        <ele>684</ele>
        <time>2019-07-26T11:11:25.000Z</time>
      </trkpt>
      <trkpt lat="42.95032736845314502716064453125" lon="-7.91399222798645496368408203125">
        <ele>683.79998779296875</ele>
        <time>2019-07-26T11:11:26.000Z</time>
      </trkpt>
      <trkpt lat="42.950163669884204864501953125" lon="-7.914279140532016754150390625">
        <ele>683.4000244140625</ele>
        <time>2019-07-26T11:11:29.000Z</time>
      </trkpt>
      <trkpt lat="42.95010508038103580474853515625" lon="-7.91437578387558460235595703125">
        <ele>683</ele>
        <time>2019-07-26T11:11:30.000Z</time>
      </trkpt>
      <trkpt lat="42.94998287223279476165771484375" lon="-7.91457611136138439178466796875">
        <ele>682</ele>
        <time>2019-07-26T11:11:32.000Z</time>
      </trkpt>
      <trkpt lat="42.949856221675872802734375" lon="-7.914778031408786773681640625">
        <ele>680.5999755859375</ele>
        <time>2019-07-26T11:11:34.000Z</time>
      </trkpt>
      <trkpt lat="42.94974147342145442962646484375" lon="-7.91499218903481960296630859375">
        <ele>679.79998779296875</ele>
        <time>2019-07-26T11:11:36.000Z</time>
      </trkpt>
      <trkpt lat="42.9496904276311397552490234375" lon="-7.91510752402245998382568359375">
        <ele>679.20001220703125</ele>
        <time>2019-07-26T11:11:37.000Z</time>
      </trkpt>
      <trkpt lat="42.949641644954681396484375" lon="-7.9152254574000835418701171875">
        <ele>678.5999755859375</ele>
        <time>2019-07-26T11:11:38.000Z</time>
      </trkpt>
      <trkpt lat="42.9495925270020961761474609375" lon="-7.91534557007253170013427734375">
        <ele>678</ele>
        <time>2019-07-26T11:11:39.000Z</time>
      </trkpt>
      <trkpt lat="42.94949420727789402008056640625" lon="-7.91559300385415554046630859375">
        <ele>677</ele>
        <time>2019-07-26T11:11:41.000Z</time>
      </trkpt>
      <trkpt lat="42.949398569762706756591796875" lon="-7.91584764607250690460205078125">
        <ele>675.79998779296875</ele>
        <time>2019-07-26T11:11:43.000Z</time>
      </trkpt>
      <trkpt lat="42.949296645820140838623046875" lon="-7.9160981811583042144775390625">
        <ele>675</ele>
        <time>2019-07-26T11:11:45.000Z</time>
      </trkpt>
      <trkpt lat="42.949243001639842987060546875" lon="-7.91622047312557697296142578125">
        <ele>674.20001220703125</ele>
        <time>2019-07-26T11:11:46.000Z</time>
      </trkpt>
      <trkpt lat="42.9491358809173107147216796875" lon="-7.91646220721304416656494140625">
        <ele>672.79998779296875</ele>
        <time>2019-07-26T11:11:48.000Z</time>
      </trkpt>
      <trkpt lat="42.94904007576406002044677734375" lon="-7.9167073778808116912841796875">
        <ele>671</ele>
        <time>2019-07-26T11:11:50.000Z</time>
      </trkpt>
      <trkpt lat="42.94899850152432918548583984375" lon="-7.916835956275463104248046875">
        <ele>670.20001220703125</ele>
        <time>2019-07-26T11:11:51.000Z</time>
      </trkpt>
      <trkpt lat="42.94895759783685207366943359375" lon="-7.916966713964939117431640625">
        <ele>669.4000244140625</ele>
        <time>2019-07-26T11:11:52.000Z</time>
      </trkpt>
      <trkpt lat="42.94883639551699161529541015625" lon="-7.91735865175724029541015625">
        <ele>668</ele>
        <time>2019-07-26T11:11:55.000Z</time>
      </trkpt>
      <trkpt lat="42.94872022233903408050537109375" lon="-7.91773541830480098724365234375">
        <ele>666.79998779296875</ele>
        <time>2019-07-26T11:11:58.000Z</time>
      </trkpt>
      <trkpt lat="42.948649227619171142578125" lon="-7.917985953390598297119140625">
        <ele>665.5999755859375</ele>
        <time>2019-07-26T11:12:00.000Z</time>
      </trkpt>
      <trkpt lat="42.94861310161650180816650390625" lon="-7.9181125201284885406494140625">
        <ele>664.20001220703125</ele>
        <time>2019-07-26T11:12:01.000Z</time>
      </trkpt>
      <trkpt lat="42.9485058970749378204345703125" lon="-7.9184913821518421173095703125">
        <ele>663.20001220703125</ele>
        <time>2019-07-26T11:12:04.000Z</time>
      </trkpt>
      <trkpt lat="42.94838368892669677734375" lon="-7.91899052448570728302001953125">
        <ele>662</ele>
        <time>2019-07-26T11:12:08.000Z</time>
      </trkpt>
      <trkpt lat="42.94831973500549793243408203125" lon="-7.91936234571039676666259765625">
        <ele>660.5999755859375</ele>
        <time>2019-07-26T11:12:11.000Z</time>
      </trkpt>
      <trkpt lat="42.94827497564256191253662109375" lon="-7.9196101985871791839599609375">
        <ele>659.20001220703125</ele>
        <time>2019-07-26T11:12:13.000Z</time>
      </trkpt>
      <trkpt lat="42.94822275638580322265625" lon="-7.91985704563558101654052734375">
        <ele>658.5999755859375</ele>
        <time>2019-07-26T11:12:15.000Z</time>
      </trkpt>
      <trkpt lat="42.948121167719364166259765625" lon="-7.92021788656711578369140625">
        <ele>658</ele>
        <time>2019-07-26T11:12:18.000Z</time>
      </trkpt>
      <trkpt lat="42.94803709723055362701416015625" lon="-7.92045685462653636932373046875">
        <ele>657</ele>
        <time>2019-07-26T11:12:20.000Z</time>
      </trkpt>
      <trkpt lat="42.947950847446918487548828125" lon="-7.9207058809697628021240234375">
        <ele>655.20001220703125</ele>
        <time>2019-07-26T11:12:22.000Z</time>
      </trkpt>
      <trkpt lat="42.94785772450268268585205078125" lon="-7.92096446268260478973388671875">
        <ele>653.79998779296875</ele>
        <time>2019-07-26T11:12:24.000Z</time>
      </trkpt>
      <trkpt lat="42.9477689601480960845947265625" lon="-7.9212295822799205780029296875">
        <ele>652.5999755859375</ele>
        <time>2019-07-26T11:12:26.000Z</time>
      </trkpt>
      <trkpt lat="42.9476398788392543792724609375" lon="-7.92162068188190460205078125">
        <ele>651</ele>
        <time>2019-07-26T11:12:29.000Z</time>
      </trkpt>
      <trkpt lat="42.947557233273983001708984375" lon="-7.921874821186065673828125">
        <ele>649.5999755859375</ele>
        <time>2019-07-26T11:12:31.000Z</time>
      </trkpt>
      <trkpt lat="42.94751356355845928192138671875" lon="-7.921998202800750732421875">
        <ele>648.4000244140625</ele>
        <time>2019-07-26T11:12:32.000Z</time>
      </trkpt>
      <trkpt lat="42.947425805032253265380859375" lon="-7.92224228382110595703125">
        <ele>647</ele>
        <time>2019-07-26T11:12:34.000Z</time>
      </trkpt>
      <trkpt lat="42.9473428241908550262451171875" lon="-7.92248359881341457366943359375">
        <ele>646</ele>
        <time>2019-07-26T11:12:36.000Z</time>
      </trkpt>
      <trkpt lat="42.9472569935023784637451171875" lon="-7.9227185435593128204345703125">
        <ele>644.79998779296875</ele>
        <time>2019-07-26T11:12:38.000Z</time>
      </trkpt>
      <trkpt lat="42.94717091135680675506591796875" lon="-7.9229545779526233673095703125">
        <ele>643.20001220703125</ele>
        <time>2019-07-26T11:12:40.000Z</time>
      </trkpt>
      <trkpt lat="42.94712774455547332763671875" lon="-7.9230724275112152099609375">
        <ele>642.5999755859375</ele>
        <time>2019-07-26T11:12:41.000Z</time>
      </trkpt>
      <trkpt lat="42.947084493935108184814453125" lon="-7.92319002561271190643310546875">
        <ele>642.20001220703125</ele>
        <time>2019-07-26T11:12:42.000Z</time>
      </trkpt>
      <trkpt lat="42.9469334520399570465087890625" lon="-7.9235835559666156768798828125">
        <ele>640.79998779296875</ele>
        <time>2019-07-26T11:12:46.000Z</time>
      </trkpt>
      <trkpt lat="42.94685910455882549285888671875" lon="-7.92360090650618076324462890625">
        <ele>640</ele>
        <time>2019-07-26T11:12:48.000Z</time>
      </trkpt>
      <trkpt lat="42.9468161053955554962158203125" lon="-7.923579700291156768798828125">
        <ele>639</ele>
        <time>2019-07-26T11:12:49.000Z</time>
      </trkpt>
      <trkpt lat="42.94673287309706211090087890625" lon="-7.92354977689683437347412109375">
        <ele>637.79998779296875</ele>
        <time>2019-07-26T11:12:51.000Z</time>
      </trkpt>
      <trkpt lat="42.9466920532286167144775390625" lon="-7.92356519959867000579833984375">
        <ele>637.5999755859375</ele>
        <time>2019-07-26T11:12:52.000Z</time>
      </trkpt>
      <trkpt lat="42.9466209746897220611572265625" lon="-7.92366058565676212310791015625">
        <ele>636.5999755859375</ele>
        <time>2019-07-26T11:12:54.000Z</time>
      </trkpt>
      <trkpt lat="42.9465871118009090423583984375" lon="-7.9237253777682781219482421875">
        <ele>635.5999755859375</ele>
        <time>2019-07-26T11:12:55.000Z</time>
      </trkpt>
      <trkpt lat="42.9465472139418125152587890625" lon="-7.9237927682697772979736328125">
        <ele>633.5999755859375</ele>
        <time>2019-07-26T11:12:56.000Z</time>
      </trkpt>
      <trkpt lat="42.9464570246636867523193359375" lon="-7.92392964474856853485107421875">
        <ele>632.20001220703125</ele>
        <time>2019-07-26T11:12:58.000Z</time>
      </trkpt>
      <trkpt lat="42.94637136161327362060546875" lon="-7.92407951317727565765380859375">
        <ele>631.5999755859375</ele>
        <time>2019-07-26T11:13:00.000Z</time>
      </trkpt>
      <trkpt lat="42.94628192670643329620361328125" lon="-7.9242276214063167572021484375">
        <ele>631</ele>
        <time>2019-07-26T11:13:02.000Z</time>
      </trkpt>
      <trkpt lat="42.94612971134483814239501953125" lon="-7.924452759325504302978515625">
        <ele>629.79998779296875</ele>
        <time>2019-07-26T11:13:05.000Z</time>
      </trkpt>
      <trkpt lat="42.946076653897762298583984375" lon="-7.9245330579578876495361328125">
        <ele>629.5999755859375</ele>
        <time>2019-07-26T11:13:06.000Z</time>
      </trkpt>
      <trkpt lat="42.94587154872715473175048828125" lon="-7.92487420141696929931640625">
        <ele>628.5999755859375</ele>
        <time>2019-07-26T11:13:10.000Z</time>
      </trkpt>
      <trkpt lat="42.94574934057891368865966796875" lon="-7.9250492155551910400390625">
        <ele>627.5999755859375</ele>
        <time>2019-07-26T11:13:12.000Z</time>
      </trkpt>
      <trkpt lat="42.94550676830112934112548828125" lon="-7.92539865709841251373291015625">
        <ele>626.20001220703125</ele>
        <time>2019-07-26T11:13:16.000Z</time>
      </trkpt>
      <trkpt lat="42.94533879496157169342041015625" lon="-7.92565246112644672393798828125">
        <ele>624.79998779296875</ele>
        <time>2019-07-26T11:13:19.000Z</time>
      </trkpt>
      <trkpt lat="42.9452309198677539825439453125" lon="-7.92582236230373382568359375">
        <ele>623.79998779296875</ele>
        <time>2019-07-26T11:13:21.000Z</time>
      </trkpt>
      <trkpt lat="42.9451186023652553558349609375" lon="-7.92599804699420928955078125">
        <ele>622.5999755859375</ele>
        <time>2019-07-26T11:13:23.000Z</time>
      </trkpt>
      <trkpt lat="42.94501324184238910675048828125" lon="-7.926179431378841400146484375">
        <ele>622</ele>
        <time>2019-07-26T11:13:25.000Z</time>
      </trkpt>
      <trkpt lat="42.94493244029581546783447265625" lon="-7.92637498117983341217041015625">
        <ele>621.4000244140625</ele>
        <time>2019-07-26T11:13:27.000Z</time>
      </trkpt>
      <trkpt lat="42.944903858006000518798828125" lon="-7.9264815151691436767578125">
        <ele>621</ele>
        <time>2019-07-26T11:13:28.000Z</time>
      </trkpt>
      <trkpt lat="42.94487410224974155426025390625" lon="-7.9265876300632953643798828125">
        <ele>620.4000244140625</ele>
        <time>2019-07-26T11:13:29.000Z</time>
      </trkpt>
      <trkpt lat="42.94481056742370128631591796875" lon="-7.92680480517446994781494140625">
        <ele>619.4000244140625</ele>
        <time>2019-07-26T11:13:31.000Z</time>
      </trkpt>
      <trkpt lat="42.94470093213021755218505859375" lon="-7.92715382762253284454345703125">
        <ele>618.5999755859375</ele>
        <time>2019-07-26T11:13:34.000Z</time>
      </trkpt>
      <trkpt lat="42.94466606341302394866943359375" lon="-7.92726212181150913238525390625">
        <ele>618</ele>
        <time>2019-07-26T11:13:35.000Z</time>
      </trkpt>
      <trkpt lat="42.9445570148527622222900390625" lon="-7.92756571434438228607177734375">
        <ele>616.79998779296875</ele>
        <time>2019-07-26T11:13:38.000Z</time>
      </trkpt>
      <trkpt lat="42.94450278393924236297607421875" lon="-7.9276777803897857666015625">
        <ele>616.4000244140625</ele>
        <time>2019-07-26T11:13:39.000Z</time>
      </trkpt>
      <trkpt lat="42.9443880356848239898681640625" lon="-7.92784449644386768341064453125">
        <ele>615.20001220703125</ele>
        <time>2019-07-26T11:13:41.000Z</time>
      </trkpt>
      <trkpt lat="42.94432751834392547607421875" lon="-7.92790669016540050506591796875">
        <ele>614.79998779296875</ele>
        <time>2019-07-26T11:13:42.000Z</time>
      </trkpt>
      <trkpt lat="42.9442012868821620941162109375" lon="-7.92801909148693084716796875">
        <ele>614.20001220703125</ele>
        <time>2019-07-26T11:13:44.000Z</time>
      </trkpt>
      <trkpt lat="42.9441355727612972259521484375" lon="-7.92808304540812969207763671875">
        <ele>613.79998779296875</ele>
        <time>2019-07-26T11:13:45.000Z</time>
      </trkpt>
      <trkpt lat="42.944014705717563629150390625" lon="-7.92825914919376373291015625">
        <ele>613</ele>
        <time>2019-07-26T11:13:47.000Z</time>
      </trkpt>
      <trkpt lat="42.94396332465112209320068359375" lon="-7.928356714546680450439453125">
        <ele>611.5999755859375</ele>
        <time>2019-07-26T11:13:48.000Z</time>
      </trkpt>
      <trkpt lat="42.943908758461475372314453125" lon="-7.9284695349633693695068359375">
        <ele>610.4000244140625</ele>
        <time>2019-07-26T11:13:49.000Z</time>
      </trkpt>
      <trkpt lat="42.943857796490192413330078125" lon="-7.92857640422880649566650390625">
        <ele>609.20001220703125</ele>
        <time>2019-07-26T11:13:50.000Z</time>
      </trkpt>
      <trkpt lat="42.94380624778568744659423828125" lon="-7.92867799289524555206298828125">
        <ele>607.79998779296875</ele>
        <time>2019-07-26T11:13:51.000Z</time>
      </trkpt>
      <trkpt lat="42.943753190338611602783203125" lon="-7.9287749715149402618408203125">
        <ele>607.4000244140625</ele>
        <time>2019-07-26T11:13:52.000Z</time>
      </trkpt>
      <trkpt lat="42.94366090558469295501708984375" lon="-7.92893649078905582427978515625">
        <ele>606.4000244140625</ele>
        <time>2019-07-26T11:13:54.000Z</time>
      </trkpt>
      <trkpt lat="42.9435890726745128631591796875" lon="-7.9290726967155933380126953125">
        <ele>604.5999755859375</ele>
        <time>2019-07-26T11:13:56.000Z</time>
      </trkpt>
      <trkpt lat="42.94353350065648555755615234375" lon="-7.92919121682643890380859375">
        <ele>603.4000244140625</ele>
        <time>2019-07-26T11:13:58.000Z</time>
      </trkpt>
      <trkpt lat="42.94346661306917667388916015625" lon="-7.929317615926265716552734375">
        <ele>602.4000244140625</ele>
        <time>2019-07-26T11:14:00.000Z</time>
      </trkpt>
      <trkpt lat="42.94342369772493839263916015625" lon="-7.92938861064612865447998046875">
        <ele>601.5999755859375</ele>
        <time>2019-07-26T11:14:01.000Z</time>
      </trkpt>
      <trkpt lat="42.94337935745716094970703125" lon="-7.92945382185280323028564453125">
        <ele>600.5999755859375</ele>
        <time>2019-07-26T11:14:02.000Z</time>
      </trkpt>
      <trkpt lat="42.943283133208751678466796875" lon="-7.92957209050655364990234375">
        <ele>598.79998779296875</ele>
        <time>2019-07-26T11:14:04.000Z</time>
      </trkpt>
      <trkpt lat="42.9432360269129276275634765625" lon="-7.9296413250267505645751953125">
        <ele>598</ele>
        <time>2019-07-26T11:14:05.000Z</time>
      </trkpt>
      <trkpt lat="42.9431974701583385467529296875" lon="-7.929713241755962371826171875">
        <ele>597</ele>
        <time>2019-07-26T11:14:06.000Z</time>
      </trkpt>
      <trkpt lat="42.9431213624775409698486328125" lon="-7.92987341992557048797607421875">
        <ele>595.20001220703125</ele>
        <time>2019-07-26T11:14:08.000Z</time>
      </trkpt>
      <trkpt lat="42.94303578324615955352783203125" lon="-7.93005631305277347564697265625">
        <ele>594</ele>
        <time>2019-07-26T11:14:10.000Z</time>
      </trkpt>
      <trkpt lat="42.94292212463915348052978515625" lon="-7.93024264276027679443359375">
        <ele>593</ele>
        <time>2019-07-26T11:14:12.000Z</time>
      </trkpt>
      <trkpt lat="42.9428611882030963897705078125" lon="-7.93032042682170867919921875">
        <ele>592.20001220703125</ele>
        <time>2019-07-26T11:14:13.000Z</time>
      </trkpt>
      <trkpt lat="42.94279254041612148284912109375" lon="-7.930391170084476470947265625">
        <ele>592</ele>
        <time>2019-07-26T11:14:14.000Z</time>
      </trkpt>
      <trkpt lat="42.942652814090251922607421875" lon="-7.93057180009782314300537109375">
        <ele>590.79998779296875</ele>
        <time>2019-07-26T11:14:16.000Z</time>
      </trkpt>
      <trkpt lat="42.94259388931095600128173828125" lon="-7.93065394274890422821044921875">
        <ele>590</ele>
        <time>2019-07-26T11:14:17.000Z</time>
      </trkpt>
      <trkpt lat="42.94254058040678501129150390625" lon="-7.9307490773499011993408203125">
        <ele>588.20001220703125</ele>
        <time>2019-07-26T11:14:18.000Z</time>
      </trkpt>
      <trkpt lat="42.94245860539376735687255859375" lon="-7.93094412423670291900634765625">
        <ele>586.79998779296875</ele>
        <time>2019-07-26T11:14:20.000Z</time>
      </trkpt>
      <trkpt lat="42.9423998482525348663330078125" lon="-7.93116389773786067962646484375">
        <ele>585.5999755859375</ele>
        <time>2019-07-26T11:14:22.000Z</time>
      </trkpt>
      <trkpt lat="42.94233824126422405242919921875" lon="-7.9315347969532012939453125">
        <ele>584</ele>
        <time>2019-07-26T11:14:25.000Z</time>
      </trkpt>
      <trkpt lat="42.9423032887279987335205078125" lon="-7.93174870312213897705078125">
        <ele>582.4000244140625</ele>
        <time>2019-07-26T11:14:27.000Z</time>
      </trkpt>
      <trkpt lat="42.942304797470569610595703125" lon="-7.9318417422473430633544921875">
        <ele>581.4000244140625</ele>
        <time>2019-07-26T11:14:28.000Z</time>
      </trkpt>
      <trkpt lat="42.94231410138309001922607421875" lon="-7.9319295845925807952880859375">
        <ele>580.5999755859375</ele>
        <time>2019-07-26T11:14:29.000Z</time>
      </trkpt>
      <trkpt lat="42.94232717715203762054443359375" lon="-7.93199772946536540985107421875">
        <ele>579.79998779296875</ele>
        <time>2019-07-26T11:14:30.000Z</time>
      </trkpt>
      <trkpt lat="42.94234000146389007568359375" lon="-7.932064868509769439697265625">
        <ele>579.4000244140625</ele>
        <time>2019-07-26T11:14:31.000Z</time>
      </trkpt>
      <trkpt lat="42.9423693381249904632568359375" lon="-7.93219872750341892242431640625">
        <ele>578.20001220703125</ele>
        <time>2019-07-26T11:14:33.000Z</time>
      </trkpt>
      <trkpt lat="42.942395992577075958251953125" lon="-7.9323091171681880950927734375">
        <ele>576.79998779296875</ele>
        <time>2019-07-26T11:14:35.000Z</time>
      </trkpt>
      <trkpt lat="42.942406721413135528564453125" lon="-7.93241548351943492889404296875">
        <ele>575.5999755859375</ele>
        <time>2019-07-26T11:14:37.000Z</time>
      </trkpt>
      <trkpt lat="42.9424273408949375152587890625" lon="-7.932510785758495330810546875">
        <ele>573.79998779296875</ele>
        <time>2019-07-26T11:14:39.000Z</time>
      </trkpt>
      <trkpt lat="42.9424451105296611785888671875" lon="-7.932597957551479339599609375">
        <ele>572.79998779296875</ele>
        <time>2019-07-26T11:14:41.000Z</time>
      </trkpt>
      <trkpt lat="42.942465730011463165283203125" lon="-7.9326457343995571136474609375">
        <ele>572.20001220703125</ele>
        <time>2019-07-26T11:14:42.000Z</time>
      </trkpt>
      <trkpt lat="42.94252239167690277099609375" lon="-7.932774312794208526611328125">
        <ele>571.20001220703125</ele>
        <time>2019-07-26T11:14:45.000Z</time>
      </trkpt>
      <trkpt lat="42.94255130924284458160400390625" lon="-7.93281798250973224639892578125">
        <ele>570.79998779296875</ele>
        <time>2019-07-26T11:14:47.000Z</time>
      </trkpt>
      <trkpt lat="42.9425570927560329437255859375" lon="-7.93283767998218536376953125">
        <ele>570.20001220703125</ele>
        <time>2019-07-26T11:14:50.000Z</time>
      </trkpt>
      <trkpt lat="42.9425738565623760223388671875" lon="-7.93292392976582050323486328125">
        <ele>568.79998779296875</ele>
        <time>2019-07-26T11:15:07.000Z</time>
      </trkpt>
      <trkpt lat="42.9426368884742259979248046875" lon="-7.9331060685217380523681640625">
        <ele>568.79998779296875</ele>
        <time>2019-07-26T11:15:11.000Z</time>
      </trkpt>
      <trkpt lat="42.9426558315753936767578125" lon="-7.93315610848367214202880859375">
        <ele>568.79998779296875</ele>
        <time>2019-07-26T11:15:12.000Z</time>
      </trkpt>
      <trkpt lat="42.9426814801990985870361328125" lon="-7.93332022614777088165283203125">
        <ele>568.79998779296875</ele>
        <time>2019-07-26T11:15:15.000Z</time>
      </trkpt>
      <trkpt lat="42.94268692843616008758544921875" lon="-7.93336817063391208648681640625">
        <ele>568.79998779296875</ele>
        <time>2019-07-26T11:15:16.000Z</time>
      </trkpt>
      <trkpt lat="42.9427036084234714508056640625" lon="-7.93347646482288837432861328125">
        <ele>567.79998779296875</ele>
        <time>2019-07-26T11:15:20.000Z</time>
      </trkpt>
      <trkpt lat="42.94274325482547283172607421875" lon="-7.93351627886295318603515625">
        <ele>567</ele>
        <time>2019-07-26T11:15:22.000Z</time>
      </trkpt>
      <trkpt lat="42.9427679814398288726806640625" lon="-7.9335365630686283111572265625">
        <ele>566.5999755859375</ele>
        <time>2019-07-26T11:15:23.000Z</time>
      </trkpt>
      <trkpt lat="42.94282036833465099334716796875" lon="-7.93359062634408473968505859375">
        <ele>565.4000244140625</ele>
        <time>2019-07-26T11:15:25.000Z</time>
      </trkpt>
      <trkpt lat="42.94288625009357929229736328125" lon="-7.93366589583456516265869140625">
        <ele>564.4000244140625</ele>
        <time>2019-07-26T11:15:28.000Z</time>
      </trkpt>
      <trkpt lat="42.942962944507598876953125" lon="-7.93373429216444492340087890625">
        <ele>564</ele>
        <time>2019-07-26T11:15:31.000Z</time>
      </trkpt>
      <trkpt lat="42.94301046989858150482177734375" lon="-7.93375977315008640289306640625">
        <ele>563.20001220703125</ele>
        <time>2019-07-26T11:15:34.000Z</time>
      </trkpt>
      <trkpt lat="42.9430154152214527130126953125" lon="-7.933755330741405487060546875">
        <ele>562.79998779296875</ele>
        <time>2019-07-26T11:15:35.000Z</time>
      </trkpt>
      <trkpt lat="42.94301935471594333648681640625" lon="-7.93375055305659770965576171875">
        <ele>562.20001220703125</ele>
        <time>2019-07-26T11:15:37.000Z</time>
      </trkpt>
      <trkpt lat="42.94292514212429523468017578125" lon="-7.93370001018047332763671875">
        <ele>561.4000244140625</ele>
        <time>2019-07-26T11:15:48.000Z</time>
      </trkpt>
      <trkpt lat="42.94290251098573207855224609375" lon="-7.93367679230868816375732421875">
        <ele>561.4000244140625</ele>
        <time>2019-07-26T11:15:49.000Z</time>
      </trkpt>
      <trkpt lat="42.94288457371294498443603515625" lon="-7.93365533463656902313232421875">
        <ele>561.4000244140625</ele>
        <time>2019-07-26T11:15:50.000Z</time>
      </trkpt>
      <trkpt lat="42.94286906719207763671875" lon="-7.9336344636976718902587890625">
        <ele>561.4000244140625</ele>
        <time>2019-07-26T11:15:51.000Z</time>
      </trkpt>
      <trkpt lat="42.942852638661861419677734375" lon="-7.93361610732972621917724609375">
        <ele>561.4000244140625</ele>
        <time>2019-07-26T11:15:52.000Z</time>
      </trkpt>
      <trkpt lat="42.94277854263782501220703125" lon="-7.9335674084722995758056640625">
        <ele>561.5999755859375</ele>
        <time>2019-07-26T11:15:56.000Z</time>
      </trkpt>
      <trkpt lat="42.9427294246852397918701171875" lon="-7.93353237211704254150390625">
        <ele>561.79998779296875</ele>
        <time>2019-07-26T11:15:59.000Z</time>
      </trkpt>
      <trkpt lat="42.942664884030818939208984375" lon="-7.933534719049930572509765625">
        <ele>562.4000244140625</ele>
        <time>2019-07-26T11:16:02.000Z</time>
      </trkpt>
      <trkpt lat="42.942645438015460968017578125" lon="-7.9335546679794788360595703125">
        <ele>562.79998779296875</ele>
        <time>2019-07-26T11:16:03.000Z</time>
      </trkpt>
      <trkpt lat="42.9426021873950958251953125" lon="-7.9336176998913288116455078125">
        <ele>563.20001220703125</ele>
        <time>2019-07-26T11:16:05.000Z</time>
      </trkpt>
      <trkpt lat="42.94256974942982196807861328125" lon="-7.9336911253631114959716796875">
        <ele>563.4000244140625</ele>
        <time>2019-07-26T11:16:08.000Z</time>
      </trkpt>
      <trkpt lat="42.94256421737372875213623046875" lon="-7.933704368770122528076171875">
        <ele>563.4000244140625</ele>
        <time>2019-07-26T11:16:09.000Z</time>
      </trkpt>
      <trkpt lat="42.9425557516515254974365234375" lon="-7.933721803128719329833984375">
        <ele>563.4000244140625</ele>
        <time>2019-07-26T11:16:10.000Z</time>
      </trkpt>
      <trkpt lat="42.9425418376922607421875" lon="-7.93372071348130702972412109375">
        <ele>563.4000244140625</ele>
        <time>2019-07-26T11:16:13.000Z</time>
      </trkpt>
      <trkpt lat="42.942576371133327484130859375" lon="-7.9336599446833133697509765625">
        <ele>562.5999755859375</ele>
        <time>2019-07-26T11:16:18.000Z</time>
      </trkpt>
      <trkpt lat="42.94258416630327701568603515625" lon="-7.93364175595343112945556640625">
        <ele>562.5999755859375</ele>
        <time>2019-07-26T11:16:19.000Z</time>
      </trkpt>
      <trkpt lat="42.94264200143516063690185546875" lon="-7.933542095124721527099609375">
        <ele>562.5999755859375</ele>
        <time>2019-07-26T11:16:25.000Z</time>
      </trkpt>
      <trkpt lat="42.94265205971896648406982421875" lon="-7.933534048497676849365234375">
        <ele>562.5999755859375</ele>
        <time>2019-07-26T11:16:26.000Z</time>
      </trkpt>
      <trkpt lat="42.9427106492221355438232421875" lon="-7.9335781373083591461181640625">
        <ele>563</ele>
        <time>2019-07-26T11:16:30.000Z</time>
      </trkpt>
      <trkpt lat="42.94272665865719318389892578125" lon="-7.933596409857273101806640625">
        <ele>563.20001220703125</ele>
        <time>2019-07-26T11:16:31.000Z</time>
      </trkpt>
      <trkpt lat="42.94285322539508342742919921875" lon="-7.933708727359771728515625">
        <ele>563.4000244140625</ele>
        <time>2019-07-26T11:16:35.000Z</time>
      </trkpt>
      <trkpt lat="42.94297442771494388580322265625" lon="-7.93378341011703014373779296875">
        <ele>563.4000244140625</ele>
        <time>2019-07-26T11:16:38.000Z</time>
      </trkpt>
      <trkpt lat="42.943051122128963470458984375" lon="-7.93382230214774608612060546875">
        <ele>563.4000244140625</ele>
        <time>2019-07-26T11:16:40.000Z</time>
      </trkpt>
      <trkpt lat="42.9432085342705249786376953125" lon="-7.9339338652789592742919921875">
        <ele>562.4000244140625</ele>
        <time>2019-07-26T11:16:44.000Z</time>
      </trkpt>
      <trkpt lat="42.94323384761810302734375" lon="-7.933982647955417633056640625">
        <ele>562.20001220703125</ele>
        <time>2019-07-26T11:16:45.000Z</time>
      </trkpt>
      <trkpt lat="42.943262346088886260986328125" lon="-7.9340062849223613739013671875">
        <ele>562</ele>
        <time>2019-07-26T11:16:46.000Z</time>
      </trkpt>
      <trkpt lat="42.94332814402878284454345703125" lon="-7.9340958036482334136962890625">
        <ele>561.79998779296875</ele>
        <time>2019-07-26T11:16:49.000Z</time>
      </trkpt>
      <trkpt lat="42.94333375990390777587890625" lon="-7.93412203900516033172607421875">
        <ele>561.5999755859375</ele>
        <time>2019-07-26T11:16:50.000Z</time>
      </trkpt>
      <trkpt lat="42.94333568774163722991943359375" lon="-7.934153638780117034912109375">
        <ele>561</ele>
        <time>2019-07-26T11:16:53.000Z</time>
      </trkpt>
      <trkpt lat="42.94334851205348968505859375" lon="-7.93427475728094577789306640625">
        <ele>558.20001220703125</ele>
        <time>2019-07-26T11:17:04.000Z</time>
      </trkpt>
      <trkpt lat="42.94334717094898223876953125" lon="-7.9343170858919620513916015625">
        <ele>558.20001220703125</ele>
        <time>2019-07-26T11:17:06.000Z</time>
      </trkpt>
      <trkpt lat="42.9433677904307842254638671875" lon="-7.93437098152935504913330078125">
        <ele>558.20001220703125</ele>
        <time>2019-07-26T11:17:08.000Z</time>
      </trkpt>
      <trkpt lat="42.94339771382510662078857421875" lon="-7.93445371091365814208984375">
        <ele>558.20001220703125</ele>
        <time>2019-07-26T11:17:10.000Z</time>
      </trkpt>
      <trkpt lat="42.943429984152317047119140625" lon="-7.93460718356072902679443359375">
        <ele>558.20001220703125</ele>
        <time>2019-07-26T11:17:13.000Z</time>
      </trkpt>
      <trkpt lat="42.94343912042677402496337890625" lon="-7.93465554714202880859375">
        <ele>558.20001220703125</ele>
        <time>2019-07-26T11:17:14.000Z</time>
      </trkpt>
      <trkpt lat="42.9434948600828647613525390625" lon="-7.93479845859110355377197265625">
        <ele>558.5999755859375</ele>
        <time>2019-07-26T11:17:19.000Z</time>
      </trkpt>
      <trkpt lat="42.9434760846197605133056640625" lon="-7.93479225598275661468505859375">
        <ele>559.20001220703125</ele>
        <time>2019-07-26T11:17:22.000Z</time>
      </trkpt>
      <trkpt lat="42.94347533024847507476806640625" lon="-7.9347623325884342193603515625">
        <ele>559.4000244140625</ele>
        <time>2019-07-26T11:17:23.000Z</time>
      </trkpt>
      <trkpt lat="42.94344968162477016448974609375" lon="-7.93460047803819179534912109375">
        <ele>559.79998779296875</ele>
        <time>2019-07-26T11:17:27.000Z</time>
      </trkpt>
      <trkpt lat="42.9434237815439701080322265625" lon="-7.93443921022117137908935546875">
        <ele>560</ele>
        <time>2019-07-26T11:17:30.000Z</time>
      </trkpt>
      <trkpt lat="42.94338095001876354217529296875" lon="-7.9343350231647491455078125">
        <ele>560</ele>
        <time>2019-07-26T11:17:32.000Z</time>
      </trkpt>
      <trkpt lat="42.94331632554531097412109375" lon="-7.93424986302852630615234375">
        <ele>560</ele>
        <time>2019-07-26T11:17:35.000Z</time>
      </trkpt>
      <trkpt lat="42.9433077760040760040283203125" lon="-7.93423972092568874359130859375">
        <ele>560</ele>
        <time>2019-07-26T11:17:36.000Z</time>
      </trkpt>
      <trkpt lat="42.94329595752060413360595703125" lon="-7.934229411184787750244140625">
        <ele>559.4000244140625</ele>
        <time>2019-07-26T11:17:40.000Z</time>
      </trkpt>
      <trkpt lat="42.94336795806884765625" lon="-7.9343519546091556549072265625">
        <ele>557.20001220703125</ele>
        <time>2019-07-26T11:21:05.000Z</time>
      </trkpt>
      <trkpt lat="42.94338413514196872711181640625" lon="-7.93438103981316089630126953125">
        <ele>557.20001220703125</ele>
        <time>2019-07-26T11:21:06.000Z</time>
      </trkpt>
      <trkpt lat="42.943409867584705352783203125" lon="-7.9344729892909526824951171875">
        <ele>557.20001220703125</ele>
        <time>2019-07-26T11:21:08.000Z</time>
      </trkpt>
      <trkpt lat="42.9434284754097461700439453125" lon="-7.9345896653831005096435546875">
        <ele>557.4000244140625</ele>
        <time>2019-07-26T11:21:10.000Z</time>
      </trkpt>
      <trkpt lat="42.94344699941575527191162109375" lon="-7.93470592238008975982666015625">
        <ele>557.5999755859375</ele>
        <time>2019-07-26T11:21:12.000Z</time>
      </trkpt>
      <trkpt lat="42.94347566552460193634033203125" lon="-7.93486417271196842193603515625">
        <ele>558</ele>
        <time>2019-07-26T11:21:15.000Z</time>
      </trkpt>
      <trkpt lat="42.9435035772621631622314453125" lon="-7.93495151214301586151123046875">
        <ele>558.20001220703125</ele>
        <time>2019-07-26T11:21:17.000Z</time>
      </trkpt>
      <trkpt lat="42.94351908378303050994873046875" lon="-7.93499241583049297332763671875">
        <ele>558.4000244140625</ele>
        <time>2019-07-26T11:21:18.000Z</time>
      </trkpt>
      <trkpt lat="42.943564094603061676025390625" lon="-7.9351086728274822235107421875">
        <ele>559.4000244140625</ele>
        <time>2019-07-26T11:21:23.000Z</time>
      </trkpt>
      <trkpt lat="42.94356308877468109130859375" lon="-7.935111187398433685302734375">
        <ele>559.4000244140625</ele>
        <time>2019-07-26T11:21:24.000Z</time>
      </trkpt>
      <trkpt lat="42.94355981983244419097900390625" lon="-7.9351985268294811248779296875">
        <ele>559</ele>
        <time>2019-07-26T11:22:00.000Z</time>
      </trkpt>
      <trkpt lat="42.94356384314596652984619140625" lon="-7.9352454654872417449951171875">
        <ele>559</ele>
        <time>2019-07-26T11:22:01.000Z</time>
      </trkpt>
      <trkpt lat="42.9435838758945465087890625" lon="-7.9354151152074337005615234375">
        <ele>559</ele>
        <time>2019-07-26T11:22:04.000Z</time>
      </trkpt>
      <trkpt lat="42.94358999468386173248291015625" lon="-7.9355634748935699462890625">
        <ele>558.79998779296875</ele>
        <time>2019-07-26T11:22:06.000Z</time>
      </trkpt>
      <trkpt lat="42.94357809238135814666748046875" lon="-7.93573446571826934814453125">
        <ele>558.5999755859375</ele>
        <time>2019-07-26T11:22:08.000Z</time>
      </trkpt>
      <trkpt lat="42.9435478337109088897705078125" lon="-7.935910485684871673583984375">
        <ele>558.4000244140625</ele>
        <time>2019-07-26T11:22:10.000Z</time>
      </trkpt>
      <trkpt lat="42.94353065080940723419189453125" lon="-7.93609731830656528472900390625">
        <ele>557.79998779296875</ele>
        <time>2019-07-26T11:22:12.000Z</time>
      </trkpt>
      <trkpt lat="42.943514473736286163330078125" lon="-7.93632865883409976959228515625">
        <ele>557.5999755859375</ele>
        <time>2019-07-26T11:22:14.000Z</time>
      </trkpt>
      <trkpt lat="42.94350584037601947784423828125" lon="-7.93645053170621395111083984375">
        <ele>557.4000244140625</ele>
        <time>2019-07-26T11:22:15.000Z</time>
      </trkpt>
      <trkpt lat="42.9435034096240997314453125" lon="-7.9365761764347553253173828125">
        <ele>557.4000244140625</ele>
        <time>2019-07-26T11:22:16.000Z</time>
      </trkpt>
      <trkpt lat="42.9435371048748493194580078125" lon="-7.936838530004024505615234375">
        <ele>557</ele>
        <time>2019-07-26T11:22:18.000Z</time>
      </trkpt>
      <trkpt lat="42.94361480511724948883056640625" lon="-7.93725720606744289398193359375">
        <ele>556.4000244140625</ele>
        <time>2019-07-26T11:22:21.000Z</time>
      </trkpt>
      <trkpt lat="42.94363458640873432159423828125" lon="-7.93756448663771152496337890625">
        <ele>555.4000244140625</ele>
        <time>2019-07-26T11:22:23.000Z</time>
      </trkpt>
      <trkpt lat="42.943655960261821746826171875" lon="-7.93784393928945064544677734375">
        <ele>554.20001220703125</ele>
        <time>2019-07-26T11:22:25.000Z</time>
      </trkpt>
      <trkpt lat="42.9436809383332729339599609375" lon="-7.93797737918794155120849609375">
        <ele>553.79998779296875</ele>
        <time>2019-07-26T11:22:26.000Z</time>
      </trkpt>
      <trkpt lat="42.943712957203388214111328125" lon="-7.93810553848743438720703125">
        <ele>553.4000244140625</ele>
        <time>2019-07-26T11:22:27.000Z</time>
      </trkpt>
      <trkpt lat="42.94374472461640834808349609375" lon="-7.938215173780918121337890625">
        <ele>552.4000244140625</ele>
        <time>2019-07-26T11:22:28.000Z</time>
      </trkpt>
      <trkpt lat="42.9437634162604808807373046875" lon="-7.938309721648693084716796875">
        <ele>551.4000244140625</ele>
        <time>2019-07-26T11:22:29.000Z</time>
      </trkpt>
      <trkpt lat="42.94376467354595661163330078125" lon="-7.9384024254977703094482421875">
        <ele>550.5999755859375</ele>
        <time>2019-07-26T11:22:30.000Z</time>
      </trkpt>
      <trkpt lat="42.94375293888151645660400390625" lon="-7.9384979791939258575439453125">
        <ele>548.79998779296875</ele>
        <time>2019-07-26T11:22:31.000Z</time>
      </trkpt>
      <trkpt lat="42.9437054134905338287353515625" lon="-7.93869830667972564697265625">
        <ele>547</ele>
        <time>2019-07-26T11:22:33.000Z</time>
      </trkpt>
      <trkpt lat="42.943689487874507904052734375" lon="-7.93892805464565753936767578125">
        <ele>545.5999755859375</ele>
        <time>2019-07-26T11:22:35.000Z</time>
      </trkpt>
      <trkpt lat="42.94369879178702831268310546875" lon="-7.939039282500743865966796875">
        <ele>545.20001220703125</ele>
        <time>2019-07-26T11:22:36.000Z</time>
      </trkpt>
      <trkpt lat="42.94370792806148529052734375" lon="-7.93914648704230785369873046875">
        <ele>544.5999755859375</ele>
        <time>2019-07-26T11:22:37.000Z</time>
      </trkpt>
      <trkpt lat="42.9437107779085636138916015625" lon="-7.9392486624419689178466796875">
        <ele>543.5999755859375</ele>
        <time>2019-07-26T11:22:38.000Z</time>
      </trkpt>
      <trkpt lat="42.94370415620505809783935546875" lon="-7.93934899382293224334716796875">
        <ele>542.20001220703125</ele>
        <time>2019-07-26T11:22:39.000Z</time>
      </trkpt>
      <trkpt lat="42.9436839558184146881103515625" lon="-7.93944471515715122222900390625">
        <ele>541.20001220703125</ele>
        <time>2019-07-26T11:22:40.000Z</time>
      </trkpt>
      <trkpt lat="42.94365537352859973907470703125" lon="-7.93953490443527698516845703125">
        <ele>540.4000244140625</ele>
        <time>2019-07-26T11:22:41.000Z</time>
      </trkpt>
      <trkpt lat="42.9435656033456325531005859375" lon="-7.93969013728201389312744140625">
        <ele>539.20001220703125</ele>
        <time>2019-07-26T11:22:43.000Z</time>
      </trkpt>
      <trkpt lat="42.94349829666316509246826171875" lon="-7.93976448476314544677734375">
        <ele>538.4000244140625</ele>
        <time>2019-07-26T11:22:44.000Z</time>
      </trkpt>
      <trkpt lat="42.9434026591479778289794921875" lon="-7.9398461245000362396240234375">
        <ele>537.20001220703125</ele>
        <time>2019-07-26T11:22:45.000Z</time>
      </trkpt>
      <trkpt lat="42.94329863972961902618408203125" lon="-7.9399247467517852783203125">
        <ele>535.79998779296875</ele>
        <time>2019-07-26T11:22:46.000Z</time>
      </trkpt>
      <trkpt lat="42.94320040382444858551025390625" lon="-7.94000261463224887847900390625">
        <ele>534.20001220703125</ele>
        <time>2019-07-26T11:22:47.000Z</time>
      </trkpt>
      <trkpt lat="42.94309428893029689788818359375" lon="-7.94010034762322902679443359375">
        <ele>532.79998779296875</ele>
        <time>2019-07-26T11:22:48.000Z</time>
      </trkpt>
      <trkpt lat="42.9429926164448261260986328125" lon="-7.9402021877467632293701171875">
        <ele>531.4000244140625</ele>
        <time>2019-07-26T11:22:49.000Z</time>
      </trkpt>
      <trkpt lat="42.94289496727287769317626953125" lon="-7.9403031058609485626220703125">
        <ele>529.79998779296875</ele>
        <time>2019-07-26T11:22:50.000Z</time>
      </trkpt>
      <trkpt lat="42.94280125759541988372802734375" lon="-7.9404036886990070343017578125">
        <ele>528.5999755859375</ele>
        <time>2019-07-26T11:22:51.000Z</time>
      </trkpt>
      <trkpt lat="42.94271777383983135223388671875" lon="-7.94051743112504482269287109375">
        <ele>527.4000244140625</ele>
        <time>2019-07-26T11:22:52.000Z</time>
      </trkpt>
      <trkpt lat="42.942646108567714691162109375" lon="-7.94063712470233440399169921875">
        <ele>526</ele>
        <time>2019-07-26T11:22:53.000Z</time>
      </trkpt>
      <trkpt lat="42.9425835795700550079345703125" lon="-7.94075799174606800079345703125">
        <ele>524.4000244140625</ele>
        <time>2019-07-26T11:22:54.000Z</time>
      </trkpt>
      <trkpt lat="42.94252666644752025604248046875" lon="-7.94087827205657958984375">
        <ele>523</ele>
        <time>2019-07-26T11:22:55.000Z</time>
      </trkpt>
      <trkpt lat="42.94247318990528583526611328125" lon="-7.9409914277493953704833984375">
        <ele>522</ele>
        <time>2019-07-26T11:22:56.000Z</time>
      </trkpt>
      <trkpt lat="42.942425496876239776611328125" lon="-7.9410876519978046417236328125">
        <ele>521.4000244140625</ele>
        <time>2019-07-26T11:22:57.000Z</time>
      </trkpt>
      <trkpt lat="42.9423864372074604034423828125" lon="-7.9411634244024753570556640625">
        <ele>520</ele>
        <time>2019-07-26T11:22:58.000Z</time>
      </trkpt>
      <trkpt lat="42.94235567562282085418701171875" lon="-7.94122754596173763275146484375">
        <ele>519</ele>
        <time>2019-07-26T11:22:59.000Z</time>
      </trkpt>
      <trkpt lat="42.94232927262783050537109375" lon="-7.9412871412932872772216796875">
        <ele>518.5999755859375</ele>
        <time>2019-07-26T11:23:00.000Z</time>
      </trkpt>
      <trkpt lat="42.9423076473176479339599609375" lon="-7.94135143049061298370361328125">
        <ele>517.79998779296875</ele>
        <time>2019-07-26T11:23:01.000Z</time>
      </trkpt>
      <trkpt lat="42.94229180552065372467041015625" lon="-7.94142284430563449859619140625">
        <ele>517</ele>
        <time>2019-07-26T11:23:02.000Z</time>
      </trkpt>
      <trkpt lat="42.94228308834135532379150390625" lon="-7.941507585346698760986328125">
        <ele>516.4000244140625</ele>
        <time>2019-07-26T11:23:03.000Z</time>
      </trkpt>
      <trkpt lat="42.94227990321815013885498046875" lon="-7.941602803766727447509765625">
        <ele>515.79998779296875</ele>
        <time>2019-07-26T11:23:04.000Z</time>
      </trkpt>
      <trkpt lat="42.942288704216480255126953125" lon="-7.9417025484144687652587890625">
        <ele>515</ele>
        <time>2019-07-26T11:23:05.000Z</time>
      </trkpt>
      <trkpt lat="42.94230286963284015655517578125" lon="-7.94180841185152530670166015625">
        <ele>514</ele>
        <time>2019-07-26T11:23:06.000Z</time>
      </trkpt>
      <trkpt lat="42.94232281856238842010498046875" lon="-7.94191519729793071746826171875">
        <ele>513.5999755859375</ele>
        <time>2019-07-26T11:23:07.000Z</time>
      </trkpt>
      <trkpt lat="42.9423468746244907379150390625" lon="-7.94201661832630634307861328125">
        <ele>513.20001220703125</ele>
        <time>2019-07-26T11:23:08.000Z</time>
      </trkpt>
      <trkpt lat="42.94237193651497364044189453125" lon="-7.94210278429090976715087890625">
        <ele>513</ele>
        <time>2019-07-26T11:23:09.000Z</time>
      </trkpt>
      <trkpt lat="42.9424197971820831298828125" lon="-7.9422609508037567138671875">
        <ele>512.79998779296875</ele>
        <time>2019-07-26T11:23:11.000Z</time>
      </trkpt>
      <trkpt lat="42.942589111626148223876953125" lon="-7.9427036829292774200439453125">
        <ele>512.4000244140625</ele>
        <time>2019-07-26T11:23:16.000Z</time>
      </trkpt>
      <trkpt lat="42.94274308718740940093994140625" lon="-7.9431502707302570343017578125">
        <ele>512</ele>
        <time>2019-07-26T11:23:20.000Z</time>
      </trkpt>
      <trkpt lat="42.94277158565819263458251953125" lon="-7.9432667791843414306640625">
        <ele>512</ele>
        <time>2019-07-26T11:23:21.000Z</time>
      </trkpt>
      <trkpt lat="42.942808382213115692138671875" lon="-7.9434788413345813751220703125">
        <ele>511</ele>
        <time>2019-07-26T11:23:24.000Z</time>
      </trkpt>
      <trkpt lat="42.9428087174892425537109375" lon="-7.94349250383675098419189453125">
        <ele>510.20001220703125</ele>
        <time>2019-07-26T11:23:25.000Z</time>
      </trkpt>
      <trkpt lat="42.94280963949859142303466796875" lon="-7.943494431674480438232421875">
        <ele>508.600006103515625</ele>
        <time>2019-07-26T11:23:26.000Z</time>
      </trkpt>
      <trkpt lat="42.9428112320601940155029296875" lon="-7.9434919171035289764404296875">
        <ele>508</ele>
        <time>2019-07-26T11:23:27.000Z</time>
      </trkpt>
      <trkpt lat="42.94281081296503543853759765625" lon="-7.9435727186501026153564453125">
        <ele>504</ele>
        <time>2019-07-26T11:23:45.000Z</time>
      </trkpt>
      <trkpt lat="42.94280762784183025360107421875" lon="-7.9436136223375797271728515625">
        <ele>504.20001220703125</ele>
        <time>2019-07-26T11:23:46.000Z</time>
      </trkpt>
      <trkpt lat="42.94280268251895904541015625" lon="-7.94366030953824520111083984375">
        <ele>504.20001220703125</ele>
        <time>2019-07-26T11:23:47.000Z</time>
      </trkpt>
      <trkpt lat="42.9427709989249706268310546875" lon="-7.943845801055431365966796875">
        <ele>504</ele>
        <time>2019-07-26T11:23:51.000Z</time>
      </trkpt>
      <trkpt lat="42.942741326987743377685546875" lon="-7.94394479133188724517822265625">
        <ele>504</ele>
        <time>2019-07-26T11:23:53.000Z</time>
      </trkpt>
      <trkpt lat="42.9427280835807323455810546875" lon="-7.9440122656524181365966796875">
        <ele>504</ele>
        <time>2019-07-26T11:23:54.000Z</time>
      </trkpt>
      <trkpt lat="42.94271978549659252166748046875" lon="-7.94417629949748516082763671875">
        <ele>504</ele>
        <time>2019-07-26T11:23:56.000Z</time>
      </trkpt>
      <trkpt lat="42.942718528211116790771484375" lon="-7.9443582706153392791748046875">
        <ele>503.79998779296875</ele>
        <time>2019-07-26T11:23:58.000Z</time>
      </trkpt>
      <trkpt lat="42.94267795979976654052734375" lon="-7.94454946182668209075927734375">
        <ele>503.600006103515625</ele>
        <time>2019-07-26T11:24:00.000Z</time>
      </trkpt>
      <trkpt lat="42.94260746799409389495849609375" lon="-7.944766469299793243408203125">
        <ele>502.600006103515625</ele>
        <time>2019-07-26T11:24:02.000Z</time>
      </trkpt>
      <trkpt lat="42.94256438501179218292236328125" lon="-7.944881804287433624267578125">
        <ele>502.20001220703125</ele>
        <time>2019-07-26T11:24:03.000Z</time>
      </trkpt>
      <trkpt lat="42.94250923208892345428466796875" lon="-7.944999150931835174560546875">
        <ele>501.600006103515625</ele>
        <time>2019-07-26T11:24:04.000Z</time>
      </trkpt>
      <trkpt lat="42.94240596704185009002685546875" lon="-7.94523962773382663726806640625">
        <ele>500</ele>
        <time>2019-07-26T11:24:06.000Z</time>
      </trkpt>
      <trkpt lat="42.9423039592802524566650390625" lon="-7.94549711979925632476806640625">
        <ele>498.20001220703125</ele>
        <time>2019-07-26T11:24:08.000Z</time>
      </trkpt>
      <trkpt lat="42.9421993531286716461181640625" lon="-7.945754863321781158447265625">
        <ele>496.79998779296875</ele>
        <time>2019-07-26T11:24:10.000Z</time>
      </trkpt>
      <trkpt lat="42.94210421852767467498779296875" lon="-7.94601134955883026123046875">
        <ele>495.20001220703125</ele>
        <time>2019-07-26T11:24:12.000Z</time>
      </trkpt>
      <trkpt lat="42.942066751420497894287109375" lon="-7.94613800011575222015380859375">
        <ele>494.600006103515625</ele>
        <time>2019-07-26T11:24:13.000Z</time>
      </trkpt>
      <trkpt lat="42.94203288853168487548828125" lon="-7.94624880887567996978759765625">
        <ele>494</ele>
        <time>2019-07-26T11:24:14.000Z</time>
      </trkpt>
      <trkpt lat="42.94196926988661289215087890625" lon="-7.94643203727900981903076171875">
        <ele>491.79998779296875</ele>
        <time>2019-07-26T11:24:16.000Z</time>
      </trkpt>
      <trkpt lat="42.94192601926624774932861328125" lon="-7.9466166906058788299560546875">
        <ele>490.399993896484375</ele>
        <time>2019-07-26T11:24:18.000Z</time>
      </trkpt>
      <trkpt lat="42.9419128596782684326171875" lon="-7.9467075504362583160400390625">
        <ele>490</ele>
        <time>2019-07-26T11:24:19.000Z</time>
      </trkpt>
      <trkpt lat="42.94190439395606517791748046875" lon="-7.94679245911538600921630859375">
        <ele>489.399993896484375</ele>
        <time>2019-07-26T11:24:20.000Z</time>
      </trkpt>
      <trkpt lat="42.9418996162712574005126953125" lon="-7.94686856679618358612060546875">
        <ele>487.20001220703125</ele>
        <time>2019-07-26T11:24:21.000Z</time>
      </trkpt>
      <trkpt lat="42.94189047999680042266845703125" lon="-7.946945764124393463134765625">
        <ele>485.79998779296875</ele>
        <time>2019-07-26T11:24:22.000Z</time>
      </trkpt>
      <trkpt lat="42.9418429546058177947998046875" lon="-7.9471212811768054962158203125">
        <ele>484</ele>
        <time>2019-07-26T11:24:24.000Z</time>
      </trkpt>
      <trkpt lat="42.9417886398732662200927734375" lon="-7.94726352207362651824951171875">
        <ele>482</ele>
        <time>2019-07-26T11:24:26.000Z</time>
      </trkpt>
      <trkpt lat="42.94177807867527008056640625" lon="-7.94732186011970043182373046875">
        <ele>481</ele>
        <time>2019-07-26T11:24:27.000Z</time>
      </trkpt>
      <trkpt lat="42.94178704731166362762451171875" lon="-7.947367541491985321044921875">
        <ele>480</ele>
        <time>2019-07-26T11:24:28.000Z</time>
      </trkpt>
      <trkpt lat="42.94183951802551746368408203125" lon="-7.9474163241684436798095703125">
        <ele>478.399993896484375</ele>
        <time>2019-07-26T11:24:30.000Z</time>
      </trkpt>
      <trkpt lat="42.94186717830598354339599609375" lon="-7.94743887148797512054443359375">
        <ele>477.399993896484375</ele>
        <time>2019-07-26T11:24:31.000Z</time>
      </trkpt>
      <trkpt lat="42.94189098291099071502685546875" lon="-7.94746602885425090789794921875">
        <ele>476.600006103515625</ele>
        <time>2019-07-26T11:24:32.000Z</time>
      </trkpt>
      <trkpt lat="42.94193943031132221221923828125" lon="-7.94753945432603359222412109375">
        <ele>475</ele>
        <time>2019-07-26T11:24:34.000Z</time>
      </trkpt>
      <trkpt lat="42.94195711612701416015625" lon="-7.94759980402886867523193359375">
        <ele>474.20001220703125</ele>
        <time>2019-07-26T11:24:35.000Z</time>
      </trkpt>
      <trkpt lat="42.94197714887559413909912109375" lon="-7.9476654343307018280029296875">
        <ele>473.600006103515625</ele>
        <time>2019-07-26T11:24:36.000Z</time>
      </trkpt>
      <trkpt lat="42.94199525378644466400146484375" lon="-7.947732992470264434814453125">
        <ele>473.20001220703125</ele>
        <time>2019-07-26T11:24:37.000Z</time>
      </trkpt>
      <trkpt lat="42.94200330041348934173583984375" lon="-7.9478667676448822021484375">
        <ele>472.79998779296875</ele>
        <time>2019-07-26T11:24:39.000Z</time>
      </trkpt>
      <trkpt lat="42.94195166788995265960693359375" lon="-7.94802912510931491851806640625">
        <ele>472.600006103515625</ele>
        <time>2019-07-26T11:24:41.000Z</time>
      </trkpt>
      <trkpt lat="42.9419197328388690948486328125" lon="-7.948105148971080780029296875">
        <ele>472.600006103515625</ele>
        <time>2019-07-26T11:24:42.000Z</time>
      </trkpt>
      <trkpt lat="42.9418860375881195068359375" lon="-7.9481737129390239715576171875">
        <ele>472.399993896484375</ele>
        <time>2019-07-26T11:24:43.000Z</time>
      </trkpt>
      <trkpt lat="42.9418157972395420074462890625" lon="-7.94829634018242359161376953125">
        <ele>472.399993896484375</ele>
        <time>2019-07-26T11:24:45.000Z</time>
      </trkpt>
      <trkpt lat="42.94178872369229793548583984375" lon="-7.94835451059043407440185546875">
        <ele>472.399993896484375</ele>
        <time>2019-07-26T11:24:46.000Z</time>
      </trkpt>
      <trkpt lat="42.94176642782986164093017578125" lon="-7.9484090767800807952880859375">
        <ele>472.399993896484375</ele>
        <time>2019-07-26T11:24:47.000Z</time>
      </trkpt>
      <trkpt lat="42.941748909652233123779296875" lon="-7.94846146367490291595458984375">
        <ele>472.399993896484375</ele>
        <time>2019-07-26T11:24:48.000Z</time>
      </trkpt>
      <trkpt lat="42.94174782000482082366943359375" lon="-7.94859557412564754486083984375">
        <ele>472.600006103515625</ele>
        <time>2019-07-26T11:24:51.000Z</time>
      </trkpt>
      <trkpt lat="42.94176726602017879486083984375" lon="-7.94866665266454219818115234375">
        <ele>472.79998779296875</ele>
        <time>2019-07-26T11:24:53.000Z</time>
      </trkpt>
      <trkpt lat="42.9418023861944675445556640625" lon="-7.9487411677837371826171875">
        <ele>473.20001220703125</ele>
        <time>2019-07-26T11:24:55.000Z</time>
      </trkpt>
      <trkpt lat="42.94183247722685337066650390625" lon="-7.94882087968289852142333984375">
        <ele>473.79998779296875</ele>
        <time>2019-07-26T11:24:57.000Z</time>
      </trkpt>
      <trkpt lat="42.94185661710798740386962890625" lon="-7.94889396987855434417724609375">
        <ele>474.600006103515625</ele>
        <time>2019-07-26T11:24:59.000Z</time>
      </trkpt>
      <trkpt lat="42.9418684355914592742919921875" lon="-7.94893235899507999420166015625">
        <ele>475</ele>
        <time>2019-07-26T11:25:00.000Z</time>
      </trkpt>
      <trkpt lat="42.9418895579874515533447265625" lon="-7.94900679029524326324462890625">
        <ele>476</ele>
        <time>2019-07-26T11:25:02.000Z</time>
      </trkpt>
      <trkpt lat="42.9418967664241790771484375" lon="-7.9490420781075954437255859375">
        <ele>476.399993896484375</ele>
        <time>2019-07-26T11:25:03.000Z</time>
      </trkpt>
      <trkpt lat="42.94190489687025547027587890625" lon="-7.949074767529964447021484375">
        <ele>476.79998779296875</ele>
        <time>2019-07-26T11:25:04.000Z</time>
      </trkpt>
      <trkpt lat="42.9419180564582347869873046875" lon="-7.94913922436535358428955078125">
        <ele>477.399993896484375</ele>
        <time>2019-07-26T11:25:06.000Z</time>
      </trkpt>
      <trkpt lat="42.9419368319213390350341796875" lon="-7.94924617744982242584228515625">
        <ele>478.20001220703125</ele>
        <time>2019-07-26T11:25:09.000Z</time>
      </trkpt>
      <trkpt lat="42.94194311834871768951416015625" lon="-7.94927920214831829071044921875">
        <ele>478.399993896484375</ele>
        <time>2019-07-26T11:25:10.000Z</time>
      </trkpt>
      <trkpt lat="42.94195032678544521331787109375" lon="-7.94931205920875072479248046875">
        <ele>478.79998779296875</ele>
        <time>2019-07-26T11:25:11.000Z</time>
      </trkpt>
      <trkpt lat="42.94197077862918376922607421875" lon="-7.94945237226784229278564453125">
        <ele>479.600006103515625</ele>
        <time>2019-07-26T11:25:15.000Z</time>
      </trkpt>
      <trkpt lat="42.94198150746524333953857421875" lon="-7.9495672881603240966796875">
        <ele>480.20001220703125</ele>
        <time>2019-07-26T11:25:18.000Z</time>
      </trkpt>
      <trkpt lat="42.9419887997210025787353515625" lon="-7.9496402107179164886474609375">
        <ele>480.600006103515625</ele>
        <time>2019-07-26T11:25:20.000Z</time>
      </trkpt>
      <trkpt lat="42.94202174060046672821044921875" lon="-7.94975814409554004669189453125">
        <ele>481.399993896484375</ele>
        <time>2019-07-26T11:25:24.000Z</time>
      </trkpt>
      <trkpt lat="42.9420310445129871368408203125" lon="-7.9497870616614818572998046875">
        <ele>481.79998779296875</ele>
        <time>2019-07-26T11:25:25.000Z</time>
      </trkpt>
      <trkpt lat="42.94207421131432056427001953125" lon="-7.94996735639870166778564453125">
        <ele>483</ele>
        <time>2019-07-26T11:25:31.000Z</time>
      </trkpt>
      <trkpt lat="42.94210120104253292083740234375" lon="-7.9500663466751575469970703125">
        <ele>484.20001220703125</ele>
        <time>2019-07-26T11:25:35.000Z</time>
      </trkpt>
      <trkpt lat="42.94211310334503650665283203125" lon="-7.9501260258257389068603515625">
        <ele>484.79998779296875</ele>
        <time>2019-07-26T11:25:37.000Z</time>
      </trkpt>
      <trkpt lat="42.94212131761014461517333984375" lon="-7.95015594922006130218505859375">
        <ele>485.399993896484375</ele>
        <time>2019-07-26T11:25:38.000Z</time>
      </trkpt>
      <trkpt lat="42.9421473853290081024169921875" lon="-7.9502779059112071990966796875">
        <ele>486.600006103515625</ele>
        <time>2019-07-26T11:25:42.000Z</time>
      </trkpt>
      <trkpt lat="42.942166663706302642822265625" lon="-7.95036985538899898529052734375">
        <ele>487.399993896484375</ele>
        <time>2019-07-26T11:25:45.000Z</time>
      </trkpt>
      <trkpt lat="42.94217110611498355865478515625" lon="-7.95040153898298740386962890625">
        <ele>487.600006103515625</ele>
        <time>2019-07-26T11:25:46.000Z</time>
      </trkpt>
      <trkpt lat="42.9421973414719104766845703125" lon="-7.95052374713122844696044921875">
        <ele>488.600006103515625</ele>
        <time>2019-07-26T11:25:50.000Z</time>
      </trkpt>
      <trkpt lat="42.9422218166291713714599609375" lon="-7.95063338242471218109130859375">
        <ele>489.600006103515625</ele>
        <time>2019-07-26T11:25:54.000Z</time>
      </trkpt>
      <trkpt lat="42.9422265104949474334716796875" lon="-7.95065827667713165283203125">
        <ele>489.79998779296875</ele>
        <time>2019-07-26T11:25:55.000Z</time>
      </trkpt>
      <trkpt lat="42.9422301985323429107666015625" lon="-7.95068434439599514007568359375">
        <ele>490.20001220703125</ele>
        <time>2019-07-26T11:25:56.000Z</time>
      </trkpt>
      <trkpt lat="42.94224319048225879669189453125" lon="-7.950764559209346771240234375">
        <ele>490.79998779296875</ele>
        <time>2019-07-26T11:25:59.000Z</time>
      </trkpt>
      <trkpt lat="42.94227789156138896942138671875" lon="-7.95085030607879161834716796875">
        <ele>491.79998779296875</ele>
        <time>2019-07-26T11:26:02.000Z</time>
      </trkpt>
      <trkpt lat="42.94229381717741489410400390625" lon="-7.95088266022503376007080078125">
        <ele>492</ele>
        <time>2019-07-26T11:26:03.000Z</time>
      </trkpt>
      <trkpt lat="42.94237495400011539459228515625" lon="-7.9510007612407207489013671875">
        <ele>493.20001220703125</ele>
        <time>2019-07-26T11:26:07.000Z</time>
      </trkpt>
      <trkpt lat="42.9424219764769077301025390625" lon="-7.95104920864105224609375">
        <ele>493.600006103515625</ele>
        <time>2019-07-26T11:26:09.000Z</time>
      </trkpt>
      <trkpt lat="42.94256664812564849853515625" lon="-7.9512213729321956634521484375">
        <ele>494.20001220703125</ele>
        <time>2019-07-26T11:26:16.000Z</time>
      </trkpt>
      <trkpt lat="42.9427629522979259490966796875" lon="-7.9513336904346942901611328125">
        <ele>495.399993896484375</ele>
        <time>2019-07-26T11:26:23.000Z</time>
      </trkpt>
      <trkpt lat="42.94298431836068630218505859375" lon="-7.95148246921598911285400390625">
        <ele>496.20001220703125</ele>
        <time>2019-07-26T11:26:30.000Z</time>
      </trkpt>
      <trkpt lat="42.9430512897670269012451171875" lon="-7.95150878839194774627685546875">
        <ele>496.399993896484375</ele>
        <time>2019-07-26T11:26:32.000Z</time>
      </trkpt>
      <trkpt lat="42.9430844821035861968994140625" lon="-7.95151499100029468536376953125">
        <ele>496.600006103515625</ele>
        <time>2019-07-26T11:26:33.000Z</time>
      </trkpt>
      <trkpt lat="42.9431434907019138336181640625" lon="-7.951522953808307647705078125">
        <ele>496.79998779296875</ele>
        <time>2019-07-26T11:26:35.000Z</time>
      </trkpt>
      <trkpt lat="42.943155728280544281005859375" lon="-7.95152856968343257904052734375">
        <ele>496.79998779296875</ele>
        <time>2019-07-26T11:26:36.000Z</time>
      </trkpt>
      <trkpt lat="42.94315807521343231201171875" lon="-7.95152588747441768646240234375">
        <ele>497</ele>
        <time>2019-07-26T11:26:38.000Z</time>
      </trkpt>
      <trkpt lat="42.943156398832798004150390625" lon="-7.9516387917101383209228515625">
        <ele>497</ele>
        <time>2019-07-26T11:33:44.000Z</time>
      </trkpt>
      <trkpt lat="42.943156063556671142578125" lon="-7.95166452415287494659423828125">
        <ele>497</ele>
        <time>2019-07-26T11:33:45.000Z</time>
      </trkpt>
      <trkpt lat="42.9431491903960704803466796875" lon="-7.951773069798946380615234375">
        <ele>497</ele>
        <time>2019-07-26T11:33:48.000Z</time>
      </trkpt>
      <trkpt lat="42.9431532137095928192138671875" lon="-7.951860241591930389404296875">
        <ele>497</ele>
        <time>2019-07-26T11:33:50.000Z</time>
      </trkpt>
      <trkpt lat="42.9432263039052486419677734375" lon="-7.95206769369542598724365234375">
        <ele>497</ele>
        <time>2019-07-26T11:33:55.000Z</time>
      </trkpt>
      <trkpt lat="42.94331498444080352783203125" lon="-7.95220398344099521636962890625">
        <ele>497</ele>
        <time>2019-07-26T11:33:59.000Z</time>
      </trkpt>
      <trkpt lat="42.94334691949188709259033203125" lon="-7.95229149051010608673095703125">
        <ele>497</ele>
        <time>2019-07-26T11:34:01.000Z</time>
      </trkpt>
      <trkpt lat="42.94337332248687744140625" lon="-7.95238151215016841888427734375">
        <ele>497</ele>
        <time>2019-07-26T11:34:03.000Z</time>
      </trkpt>
      <trkpt lat="42.9434103704988956451416015625" lon="-7.9525123536586761474609375">
        <ele>497.399993896484375</ele>
        <time>2019-07-26T11:34:06.000Z</time>
      </trkpt>
      <trkpt lat="42.9434214346110820770263671875" lon="-7.952552251517772674560546875">
        <ele>497.399993896484375</ele>
        <time>2019-07-26T11:34:07.000Z</time>
      </trkpt>
      <trkpt lat="42.94346057809889316558837890625" lon="-7.95266515575349330902099609375">
        <ele>497.600006103515625</ele>
        <time>2019-07-26T11:34:10.000Z</time>
      </trkpt>
      <trkpt lat="42.9435203410685062408447265625" lon="-7.952815778553485870361328125">
        <ele>498</ele>
        <time>2019-07-26T11:34:14.000Z</time>
      </trkpt>
      <trkpt lat="42.94355764053761959075927734375" lon="-7.95285441912710666656494140625">
        <ele>498.600006103515625</ele>
        <time>2019-07-26T11:34:16.000Z</time>
      </trkpt>
      <trkpt lat="42.9435930959880352020263671875" lon="-7.95288844965398311614990234375">
        <ele>499.20001220703125</ele>
        <time>2019-07-26T11:34:18.000Z</time>
      </trkpt>
      <trkpt lat="42.94364196248352527618408203125" lon="-7.95296221040189266204833984375">
        <ele>499.600006103515625</ele>
        <time>2019-07-26T11:34:21.000Z</time>
      </trkpt>
      <trkpt lat="42.94364489614963531494140625" lon="-7.953004203736782073974609375">
        <ele>499.79998779296875</ele>
        <time>2019-07-26T11:34:22.000Z</time>
      </trkpt>
      <trkpt lat="42.94360491447150707244873046875" lon="-7.95319019816815853118896484375">
        <ele>500.600006103515625</ele>
        <time>2019-07-26T11:34:26.000Z</time>
      </trkpt>
      <trkpt lat="42.9435857199132442474365234375" lon="-7.953247614204883575439453125">
        <ele>501</ele>
        <time>2019-07-26T11:34:27.000Z</time>
      </trkpt>
      <trkpt lat="42.94347633607685565948486328125" lon="-7.9535039328038692474365234375">
        <ele>502</ele>
        <time>2019-07-26T11:34:31.000Z</time>
      </trkpt>
      <trkpt lat="42.9434140585362911224365234375" lon="-7.95365807600319385528564453125">
        <ele>502</ele>
        <time>2019-07-26T11:34:33.000Z</time>
      </trkpt>
      <trkpt lat="42.94328682124614715576171875" lon="-7.95399201102554798126220703125">
        <ele>502</ele>
        <time>2019-07-26T11:34:37.000Z</time>
      </trkpt>
      <trkpt lat="42.9431029222905635833740234375" lon="-7.9545573703944683074951171875">
        <ele>500.600006103515625</ele>
        <time>2019-07-26T11:34:43.000Z</time>
      </trkpt>
      <trkpt lat="42.94303829781711101531982421875" lon="-7.95488451607525348663330078125">
        <ele>499.20001220703125</ele>
        <time>2019-07-26T11:34:46.000Z</time>
      </trkpt>
      <trkpt lat="42.94300627894699573516845703125" lon="-7.95510311610996723175048828125">
        <ele>498.600006103515625</ele>
        <time>2019-07-26T11:34:48.000Z</time>
      </trkpt>
      <trkpt lat="42.9429899342358112335205078125" lon="-7.955316938459873199462890625">
        <ele>498.20001220703125</ele>
        <time>2019-07-26T11:34:50.000Z</time>
      </trkpt>
      <trkpt lat="42.94299555011093616485595703125" lon="-7.95542615465819835662841796875">
        <ele>498.20001220703125</ele>
        <time>2019-07-26T11:34:51.000Z</time>
      </trkpt>
      <trkpt lat="42.94300426729023456573486328125" lon="-7.9555353708565235137939453125">
        <ele>498</ele>
        <time>2019-07-26T11:34:52.000Z</time>
      </trkpt>
      <trkpt lat="42.9430137388408184051513671875" lon="-7.9557543061673641204833984375">
        <ele>497.79998779296875</ele>
        <time>2019-07-26T11:34:54.000Z</time>
      </trkpt>
      <trkpt lat="42.94300611130893230438232421875" lon="-7.9558642767369747161865234375">
        <ele>497.79998779296875</ele>
        <time>2019-07-26T11:34:55.000Z</time>
      </trkpt>
      <trkpt lat="42.94296537525951862335205078125" lon="-7.95609335415065288543701171875">
        <ele>497.20001220703125</ele>
        <time>2019-07-26T11:34:57.000Z</time>
      </trkpt>
      <trkpt lat="42.9429503716528415679931640625" lon="-7.95621438883244991302490234375">
        <ele>497</ele>
        <time>2019-07-26T11:34:58.000Z</time>
      </trkpt>
      <trkpt lat="42.9429456777870655059814453125" lon="-7.95633994974195957183837890625">
        <ele>496.600006103515625</ele>
        <time>2019-07-26T11:34:59.000Z</time>
      </trkpt>
      <trkpt lat="42.9429557360708713531494140625" lon="-7.956465594470500946044921875">
        <ele>496.399993896484375</ele>
        <time>2019-07-26T11:35:00.000Z</time>
      </trkpt>
      <trkpt lat="42.9429711587727069854736328125" lon="-7.956587970256805419921875">
        <ele>496.20001220703125</ele>
        <time>2019-07-26T11:35:01.000Z</time>
      </trkpt>
      <trkpt lat="42.943041734397411346435546875" lon="-7.95696356333792209625244140625">
        <ele>495</ele>
        <time>2019-07-26T11:35:04.000Z</time>
      </trkpt>
      <trkpt lat="42.943088673055171966552734375" lon="-7.9572087340056896209716796875">
        <ele>493.79998779296875</ele>
        <time>2019-07-26T11:35:06.000Z</time>
      </trkpt>
      <trkpt lat="42.94314407743513584136962890625" lon="-7.95743429102003574371337890625">
        <ele>492.399993896484375</ele>
        <time>2019-07-26T11:35:08.000Z</time>
      </trkpt>
      <trkpt lat="42.9432132281363010406494140625" lon="-7.95763604342937469482421875">
        <ele>490.399993896484375</ele>
        <time>2019-07-26T11:35:10.000Z</time>
      </trkpt>
      <trkpt lat="42.94320777989923954010009765625" lon="-7.95784668065607547760009765625">
        <ele>489.600006103515625</ele>
        <time>2019-07-26T11:35:12.000Z</time>
      </trkpt>
      <trkpt lat="42.9431753419339656829833984375" lon="-7.95794726349413394927978515625">
        <ele>489.20001220703125</ele>
        <time>2019-07-26T11:35:13.000Z</time>
      </trkpt>
      <trkpt lat="42.94307383708655834197998046875" lon="-7.958132587373256683349609375">
        <ele>488.600006103515625</ele>
        <time>2019-07-26T11:35:15.000Z</time>
      </trkpt>
      <trkpt lat="42.94300879351794719696044921875" lon="-7.95821665786206722259521484375">
        <ele>488</ele>
        <time>2019-07-26T11:35:16.000Z</time>
      </trkpt>
      <trkpt lat="42.94284953735768795013427734375" lon="-7.958378009498119354248046875">
        <ele>486.600006103515625</ele>
        <time>2019-07-26T11:35:18.000Z</time>
      </trkpt>
      <trkpt lat="42.94276404194533824920654296875" lon="-7.95845621265470981597900390625">
        <ele>486</ele>
        <time>2019-07-26T11:35:19.000Z</time>
      </trkpt>
      <trkpt lat="42.9426751099526882171630859375" lon="-7.958530895411968231201171875">
        <ele>485.600006103515625</ele>
        <time>2019-07-26T11:35:20.000Z</time>
      </trkpt>
      <trkpt lat="42.94248961843550205230712890625" lon="-7.958680428564548492431640625">
        <ele>484.20001220703125</ele>
        <time>2019-07-26T11:35:22.000Z</time>
      </trkpt>
      <trkpt lat="42.94231058098375797271728515625" lon="-7.95881847850978374481201171875">
        <ele>483.20001220703125</ele>
        <time>2019-07-26T11:35:24.000Z</time>
      </trkpt>
      <trkpt lat="42.942141853272914886474609375" lon="-7.95898729003965854644775390625">
        <ele>481.79998779296875</ele>
        <time>2019-07-26T11:35:26.000Z</time>
      </trkpt>
      <trkpt lat="42.942068763077259063720703125" lon="-7.95909105800092220306396484375">
        <ele>481</ele>
        <time>2019-07-26T11:35:27.000Z</time>
      </trkpt>
      <trkpt lat="42.94199927709996700286865234375" lon="-7.95920312404632568359375">
        <ele>480.20001220703125</ele>
        <time>2019-07-26T11:35:28.000Z</time>
      </trkpt>
      <trkpt lat="42.9418699443340301513671875" lon="-7.95944293029606342315673828125">
        <ele>478.79998779296875</ele>
        <time>2019-07-26T11:35:30.000Z</time>
      </trkpt>
      <trkpt lat="42.9417581297457218170166015625" lon="-7.95969187282025814056396484375">
        <ele>477</ele>
        <time>2019-07-26T11:35:32.000Z</time>
      </trkpt>
      <trkpt lat="42.941703312098979949951171875" lon="-7.959820367395877838134765625">
        <ele>476</ele>
        <time>2019-07-26T11:35:33.000Z</time>
      </trkpt>
      <trkpt lat="42.9416464827954769134521484375" lon="-7.959952466189861297607421875">
        <ele>475</ele>
        <time>2019-07-26T11:35:34.000Z</time>
      </trkpt>
      <trkpt lat="42.941523604094982147216796875" lon="-7.96022177673876285552978515625">
        <ele>473.20001220703125</ele>
        <time>2019-07-26T11:35:36.000Z</time>
      </trkpt>
      <trkpt lat="42.941455878317356109619140625" lon="-7.96035689301788806915283203125">
        <ele>471.600006103515625</ele>
        <time>2019-07-26T11:35:37.000Z</time>
      </trkpt>
      <trkpt lat="42.9413893260061740875244140625" lon="-7.96048999764025211334228515625">
        <ele>471</ele>
        <time>2019-07-26T11:35:38.000Z</time>
      </trkpt>
      <trkpt lat="42.9413227736949920654296875" lon="-7.96062528155744075775146484375">
        <ele>470</ele>
        <time>2019-07-26T11:35:39.000Z</time>
      </trkpt>
      <trkpt lat="42.9412612505257129669189453125" lon="-7.9607609845697879791259765625">
        <ele>469</ele>
        <time>2019-07-26T11:35:40.000Z</time>
      </trkpt>
      <trkpt lat="42.94116091914474964141845703125" lon="-7.9610498249530792236328125">
        <ele>467.20001220703125</ele>
        <time>2019-07-26T11:35:42.000Z</time>
      </trkpt>
      <trkpt lat="42.9411221109330654144287109375" lon="-7.9611978493630886077880859375">
        <ele>466.20001220703125</ele>
        <time>2019-07-26T11:35:43.000Z</time>
      </trkpt>
      <trkpt lat="42.9410922713577747344970703125" lon="-7.9613443650305271148681640625">
        <ele>465.600006103515625</ele>
        <time>2019-07-26T11:35:44.000Z</time>
      </trkpt>
      <trkpt lat="42.9410359449684619903564453125" lon="-7.96164284460246562957763671875">
        <ele>464.399993896484375</ele>
        <time>2019-07-26T11:35:46.000Z</time>
      </trkpt>
      <trkpt lat="42.9409725777804851531982421875" lon="-7.9619388096034526824951171875">
        <ele>462.600006103515625</ele>
        <time>2019-07-26T11:35:48.000Z</time>
      </trkpt>
      <trkpt lat="42.94093980453908443450927734375" lon="-7.96208289451897144317626953125">
        <ele>461.600006103515625</ele>
        <time>2019-07-26T11:35:49.000Z</time>
      </trkpt>
      <trkpt lat="42.940903343260288238525390625" lon="-7.96222421340644359588623046875">
        <ele>460.79998779296875</ele>
        <time>2019-07-26T11:35:50.000Z</time>
      </trkpt>
      <trkpt lat="42.94082664884626865386962890625" lon="-7.9624997265636920928955078125">
        <ele>459.600006103515625</ele>
        <time>2019-07-26T11:35:52.000Z</time>
      </trkpt>
      <trkpt lat="42.94075925834476947784423828125" lon="-7.962771467864513397216796875">
        <ele>458.600006103515625</ele>
        <time>2019-07-26T11:35:54.000Z</time>
      </trkpt>
      <trkpt lat="42.94072908349335193634033203125" lon="-7.96290465630590915679931640625">
        <ele>457.79998779296875</ele>
        <time>2019-07-26T11:35:55.000Z</time>
      </trkpt>
      <trkpt lat="42.9407016746699810028076171875" lon="-7.963036336004734039306640625">
        <ele>457</ele>
        <time>2019-07-26T11:35:56.000Z</time>
      </trkpt>
      <trkpt lat="42.94065917842090129852294921875" lon="-7.96329944394528865814208984375">
        <ele>455</ele>
        <time>2019-07-26T11:35:58.000Z</time>
      </trkpt>
      <trkpt lat="42.94064819812774658203125" lon="-7.9635682515799999237060546875">
        <ele>454</ele>
        <time>2019-07-26T11:36:00.000Z</time>
      </trkpt>
      <trkpt lat="42.94065431691706180572509765625" lon="-7.9636976681649684906005859375">
        <ele>453.79998779296875</ele>
        <time>2019-07-26T11:36:01.000Z</time>
      </trkpt>
      <trkpt lat="42.9406802169978618621826171875" lon="-7.9640611074864864349365234375">
        <ele>452.600006103515625</ele>
        <time>2019-07-26T11:36:04.000Z</time>
      </trkpt>
      <trkpt lat="42.9406926222145557403564453125" lon="-7.964178957045078277587890625">
        <ele>451.79998779296875</ele>
        <time>2019-07-26T11:36:05.000Z</time>
      </trkpt>
      <trkpt lat="42.9407040216028690338134765625" lon="-7.96429404057562351226806640625">
        <ele>451.399993896484375</ele>
        <time>2019-07-26T11:36:06.000Z</time>
      </trkpt>
      <trkpt lat="42.9407073743641376495361328125" lon="-7.964632250368595123291015625">
        <ele>451</ele>
        <time>2019-07-26T11:36:09.000Z</time>
      </trkpt>
      <trkpt lat="42.9406949691474437713623046875" lon="-7.9647393710911273956298828125">
        <ele>450.600006103515625</ele>
        <time>2019-07-26T11:36:10.000Z</time>
      </trkpt>
      <trkpt lat="42.94067443348467350006103515625" lon="-7.9648433066904544830322265625">
        <ele>450.20001220703125</ele>
        <time>2019-07-26T11:36:11.000Z</time>
      </trkpt>
      <trkpt lat="42.940612323582172393798828125" lon="-7.96503617428243160247802734375">
        <ele>449.79998779296875</ele>
        <time>2019-07-26T11:36:13.000Z</time>
      </trkpt>
      <trkpt lat="42.94057988561689853668212890625" lon="-7.9651286266744136810302734375">
        <ele>449.79998779296875</ele>
        <time>2019-07-26T11:36:14.000Z</time>
      </trkpt>
      <trkpt lat="42.94051366858184337615966796875" lon="-7.9653113521635532379150390625">
        <ele>449.600006103515625</ele>
        <time>2019-07-26T11:36:16.000Z</time>
      </trkpt>
      <trkpt lat="42.94044108130037784576416015625" lon="-7.9654856957495212554931640625">
        <ele>449.20001220703125</ele>
        <time>2019-07-26T11:36:18.000Z</time>
      </trkpt>
      <trkpt lat="42.940319962799549102783203125" lon="-7.96572801657021045684814453125">
        <ele>448.79998779296875</ele>
        <time>2019-07-26T11:36:21.000Z</time>
      </trkpt>
      <trkpt lat="42.9402376525104045867919921875" lon="-7.96587981283664703369140625">
        <ele>448.79998779296875</ele>
        <time>2019-07-26T11:36:23.000Z</time>
      </trkpt>
      <trkpt lat="42.94009993784129619598388671875" lon="-7.96620863489806652069091796875">
        <ele>448.600006103515625</ele>
        <time>2019-07-26T11:36:27.000Z</time>
      </trkpt>
      <trkpt lat="42.93982584960758686065673828125" lon="-7.966908104717731475830078125">
        <ele>448.600006103515625</ele>
        <time>2019-07-26T11:36:35.000Z</time>
      </trkpt>
      <trkpt lat="42.93954522348940372467041015625" lon="-7.96762802638113498687744140625">
        <ele>448.600006103515625</ele>
        <time>2019-07-26T11:36:43.000Z</time>
      </trkpt>
      <trkpt lat="42.93951094150543212890625" lon="-7.9677196405827999114990234375">
        <ele>448.79998779296875</ele>
        <time>2019-07-26T11:36:44.000Z</time>
      </trkpt>
      <trkpt lat="42.9394081793725490570068359375" lon="-7.9679908789694309234619140625">
        <ele>448.600006103515625</ele>
        <time>2019-07-26T11:36:47.000Z</time>
      </trkpt>
      <trkpt lat="42.9393712989985942840576171875" lon="-7.96818508766591548919677734375">
        <ele>448.399993896484375</ele>
        <time>2019-07-26T11:36:49.000Z</time>
      </trkpt>
      <trkpt lat="42.93934087269008159637451171875" lon="-7.968386672437191009521484375">
        <ele>448.20001220703125</ele>
        <time>2019-07-26T11:36:51.000Z</time>
      </trkpt>
      <trkpt lat="42.93923391960561275482177734375" lon="-7.9689568094909191131591796875">
        <ele>447.79998779296875</ele>
        <time>2019-07-26T11:36:57.000Z</time>
      </trkpt>
      <trkpt lat="42.93911992572247982025146484375" lon="-7.96944740228354930877685546875">
        <ele>447.79998779296875</ele>
        <time>2019-07-26T11:37:03.000Z</time>
      </trkpt>
      <trkpt lat="42.93894340284168720245361328125" lon="-7.96999759040772914886474609375">
        <ele>448.399993896484375</ele>
        <time>2019-07-26T11:37:10.000Z</time>
      </trkpt>
      <trkpt lat="42.9388543032109737396240234375" lon="-7.97027670778334140777587890625">
        <ele>448.399993896484375</ele>
        <time>2019-07-26T11:37:13.000Z</time>
      </trkpt>
      <trkpt lat="42.9387761838734149932861328125" lon="-7.97047577798366546630859375">
        <ele>448.399993896484375</ele>
        <time>2019-07-26T11:37:15.000Z</time>
      </trkpt>
      <trkpt lat="42.938701249659061431884765625" lon="-7.97069295309484004974365234375">
        <ele>448.399993896484375</ele>
        <time>2019-07-26T11:37:17.000Z</time>
      </trkpt>
      <trkpt lat="42.938632853329181671142578125" lon="-7.97093041241168975830078125">
        <ele>447.79998779296875</ele>
        <time>2019-07-26T11:37:19.000Z</time>
      </trkpt>
      <trkpt lat="42.93860544450581073760986328125" lon="-7.97105588950216770172119140625">
        <ele>447.20001220703125</ele>
        <time>2019-07-26T11:37:20.000Z</time>
      </trkpt>
      <trkpt lat="42.9385612718760967254638671875" lon="-7.9713225178420543670654296875">
        <ele>446.20001220703125</ele>
        <time>2019-07-26T11:37:22.000Z</time>
      </trkpt>
      <trkpt lat="42.93852162547409534454345703125" lon="-7.971591912209987640380859375">
        <ele>445.399993896484375</ele>
        <time>2019-07-26T11:37:24.000Z</time>
      </trkpt>
      <trkpt lat="42.93850720860064029693603515625" lon="-7.97171772457659244537353515625">
        <ele>445</ele>
        <time>2019-07-26T11:37:25.000Z</time>
      </trkpt>
      <trkpt lat="42.938506118953227996826171875" lon="-7.971826605498790740966796875">
        <ele>444.600006103515625</ele>
        <time>2019-07-26T11:37:26.000Z</time>
      </trkpt>
      <trkpt lat="42.9385066218674182891845703125" lon="-7.97191478312015533447265625">
        <ele>443.600006103515625</ele>
        <time>2019-07-26T11:37:27.000Z</time>
      </trkpt>
      <trkpt lat="42.9385086335241794586181640625" lon="-7.97199214808642864227294921875">
        <ele>443.20001220703125</ele>
        <time>2019-07-26T11:37:28.000Z</time>
      </trkpt>
      <trkpt lat="42.938518524169921875" lon="-7.9720607958734035491943359375">
        <ele>441.79998779296875</ele>
        <time>2019-07-26T11:37:29.000Z</time>
      </trkpt>
      <trkpt lat="42.938558422029018402099609375" lon="-7.9722163639962673187255859375">
        <ele>440</ele>
        <time>2019-07-26T11:37:31.000Z</time>
      </trkpt>
      <trkpt lat="42.93858222663402557373046875" lon="-7.9723045416176319122314453125">
        <ele>439.399993896484375</ele>
        <time>2019-07-26T11:37:32.000Z</time>
      </trkpt>
      <trkpt lat="42.93861483223736286163330078125" lon="-7.9723957367241382598876953125">
        <ele>438.399993896484375</ele>
        <time>2019-07-26T11:37:33.000Z</time>
      </trkpt>
      <trkpt lat="42.9386486113071441650390625" lon="-7.97249238006770610809326171875">
        <ele>437.20001220703125</ele>
        <time>2019-07-26T11:37:34.000Z</time>
      </trkpt>
      <trkpt lat="42.93868088163435459136962890625" lon="-7.9725967347621917724609375">
        <ele>435.79998779296875</ele>
        <time>2019-07-26T11:37:35.000Z</time>
      </trkpt>
      <trkpt lat="42.93871558271348476409912109375" lon="-7.97270343638956546783447265625">
        <ele>434.79998779296875</ele>
        <time>2019-07-26T11:37:36.000Z</time>
      </trkpt>
      <trkpt lat="42.93877107091248035430908203125" lon="-7.9729264788329601287841796875">
        <ele>433.20001220703125</ele>
        <time>2019-07-26T11:37:38.000Z</time>
      </trkpt>
      <trkpt lat="42.93880325742065906524658203125" lon="-7.97327960841357707977294921875">
        <ele>432.399993896484375</ele>
        <time>2019-07-26T11:37:41.000Z</time>
      </trkpt>
      <trkpt lat="42.9387993179261684417724609375" lon="-7.97339913435280323028564453125">
        <ele>432</ele>
        <time>2019-07-26T11:37:42.000Z</time>
      </trkpt>
      <trkpt lat="42.9387631081044673919677734375" lon="-7.97363919205963611602783203125">
        <ele>431.399993896484375</ele>
        <time>2019-07-26T11:37:44.000Z</time>
      </trkpt>
      <trkpt lat="42.9387396387755870819091796875" lon="-7.97375704161822795867919921875">
        <ele>430.79998779296875</ele>
        <time>2019-07-26T11:37:45.000Z</time>
      </trkpt>
      <trkpt lat="42.9386886768043041229248046875" lon="-7.973995842039585113525390625">
        <ele>429.399993896484375</ele>
        <time>2019-07-26T11:37:47.000Z</time>
      </trkpt>
      <trkpt lat="42.9386440850794315338134765625" lon="-7.974231876432895660400390625">
        <ele>428.20001220703125</ele>
        <time>2019-07-26T11:37:49.000Z</time>
      </trkpt>
      <trkpt lat="42.938578538596630096435546875" lon="-7.97456421889364719390869140625">
        <ele>426.79998779296875</ele>
        <time>2019-07-26T11:37:52.000Z</time>
      </trkpt>
      <trkpt lat="42.93855649419128894805908203125" lon="-7.9746685735881328582763671875">
        <ele>426.399993896484375</ele>
        <time>2019-07-26T11:37:53.000Z</time>
      </trkpt>
      <trkpt lat="42.93853788636624813079833984375" lon="-7.97476731240749359130859375">
        <ele>426.20001220703125</ele>
        <time>2019-07-26T11:37:54.000Z</time>
      </trkpt>
      <trkpt lat="42.9384999163448810577392578125" lon="-7.97494794242084026336669921875">
        <ele>425.79998779296875</ele>
        <time>2019-07-26T11:37:56.000Z</time>
      </trkpt>
      <trkpt lat="42.9384769499301910400390625" lon="-7.975029833614826202392578125">
        <ele>425.600006103515625</ele>
        <time>2019-07-26T11:37:57.000Z</time>
      </trkpt>
      <trkpt lat="42.9384523071348667144775390625" lon="-7.97510451637208461761474609375">
        <ele>425.600006103515625</ele>
        <time>2019-07-26T11:37:58.000Z</time>
      </trkpt>
      <trkpt lat="42.938374020159244537353515625" lon="-7.9752955399453639984130859375">
        <ele>425.600006103515625</ele>
        <time>2019-07-26T11:38:01.000Z</time>
      </trkpt>
      <trkpt lat="42.938319034874439239501953125" lon="-7.97539687715470790863037109375">
        <ele>425.600006103515625</ele>
        <time>2019-07-26T11:38:03.000Z</time>
      </trkpt>
      <trkpt lat="42.93825893662869930267333984375" lon="-7.9754936881363391876220703125">
        <ele>425.600006103515625</ele>
        <time>2019-07-26T11:38:05.000Z</time>
      </trkpt>
      <trkpt lat="42.93820747174322605133056640625" lon="-7.975589744746685028076171875">
        <ele>426</ele>
        <time>2019-07-26T11:38:07.000Z</time>
      </trkpt>
      <trkpt lat="42.9381550848484039306640625" lon="-7.9756834544241428375244140625">
        <ele>426.399993896484375</ele>
        <time>2019-07-26T11:38:09.000Z</time>
      </trkpt>
      <trkpt lat="42.93812750838696956634521484375" lon="-7.97572754323482513427734375">
        <ele>426.399993896484375</ele>
        <time>2019-07-26T11:38:10.000Z</time>
      </trkpt>
      <trkpt lat="42.938098423182964324951171875" lon="-7.975768111646175384521484375">
        <ele>426.600006103515625</ele>
        <time>2019-07-26T11:38:11.000Z</time>
      </trkpt>
      <trkpt lat="42.9380342178046703338623046875" lon="-7.975849248468875885009765625">
        <ele>427</ele>
        <time>2019-07-26T11:38:13.000Z</time>
      </trkpt>
      <trkpt lat="42.937970347702503204345703125" lon="-7.97593918628990650177001953125">
        <ele>427.399993896484375</ele>
        <time>2019-07-26T11:38:15.000Z</time>
      </trkpt>
      <trkpt lat="42.9379131831228733062744140625" lon="-7.9760271124541759490966796875">
        <ele>428.20001220703125</ele>
        <time>2019-07-26T11:38:17.000Z</time>
      </trkpt>
      <trkpt lat="42.93788728304207324981689453125" lon="-7.97607296146452426910400390625">
        <ele>428.600006103515625</ele>
        <time>2019-07-26T11:38:18.000Z</time>
      </trkpt>
      <trkpt lat="42.93783145956695079803466796875" lon="-7.97616206109523773193359375">
        <ele>429.20001220703125</ele>
        <time>2019-07-26T11:38:20.000Z</time>
      </trkpt>
      <trkpt lat="42.9377447068691253662109375" lon="-7.9763107560575008392333984375">
        <ele>430.399993896484375</ele>
        <time>2019-07-26T11:38:23.000Z</time>
      </trkpt>
      <trkpt lat="42.937683351337909698486328125" lon="-7.97641016542911529541015625">
        <ele>431.399993896484375</ele>
        <time>2019-07-26T11:38:25.000Z</time>
      </trkpt>
      <trkpt lat="42.937649823725223541259765625" lon="-7.97645710408687591552734375">
        <ele>431.79998779296875</ele>
        <time>2019-07-26T11:38:26.000Z</time>
      </trkpt>
      <trkpt lat="42.937583439052104949951171875" lon="-7.97656112350523471832275390625">
        <ele>432.600006103515625</ele>
        <time>2019-07-26T11:38:28.000Z</time>
      </trkpt>
      <trkpt lat="42.93746332637965679168701171875" lon="-7.9767724312841892242431640625">
        <ele>434.20001220703125</ele>
        <time>2019-07-26T11:38:32.000Z</time>
      </trkpt>
      <trkpt lat="42.937413789331912994384765625" lon="-7.976874522864818572998046875">
        <ele>434.600006103515625</ele>
        <time>2019-07-26T11:38:34.000Z</time>
      </trkpt>
      <trkpt lat="42.93736928142607212066650390625" lon="-7.9769806377589702606201171875">
        <ele>435.399993896484375</ele>
        <time>2019-07-26T11:38:36.000Z</time>
      </trkpt>
      <trkpt lat="42.93729904107749462127685546875" lon="-7.97713310457766056060791015625">
        <ele>436.79998779296875</ele>
        <time>2019-07-26T11:38:39.000Z</time>
      </trkpt>
      <trkpt lat="42.9372194968163967132568359375" lon="-7.9772959649562835693359375">
        <ele>437.600006103515625</ele>
        <time>2019-07-26T11:38:42.000Z</time>
      </trkpt>
      <trkpt lat="42.93719284236431121826171875" lon="-7.97735421918332576751708984375">
        <ele>437.79998779296875</ele>
        <time>2019-07-26T11:38:43.000Z</time>
      </trkpt>
      <trkpt lat="42.93703735806047916412353515625" lon="-7.9776713065803050994873046875">
        <ele>438.20001220703125</ele>
        <time>2019-07-26T11:38:48.000Z</time>
      </trkpt>
      <trkpt lat="42.936751283705234527587890625" lon="-7.9780957661569118499755859375">
        <ele>438.600006103515625</ele>
        <time>2019-07-26T11:38:55.000Z</time>
      </trkpt>
      <trkpt lat="42.9364782012999057769775390625" lon="-7.97850974835455417633056640625">
        <ele>438.600006103515625</ele>
        <time>2019-07-26T11:39:02.000Z</time>
      </trkpt>
      <trkpt lat="42.93622867204248905181884765625" lon="-7.97886597923934459686279296875">
        <ele>438.600006103515625</ele>
        <time>2019-07-26T11:39:08.000Z</time>
      </trkpt>
      <trkpt lat="42.9360678233206272125244140625" lon="-7.97909547574818134307861328125">
        <ele>438.600006103515625</ele>
        <time>2019-07-26T11:39:12.000Z</time>
      </trkpt>
      <trkpt lat="42.93592290021479129791259765625" lon="-7.97930619679391384124755859375">
        <ele>438.600006103515625</ele>
        <time>2019-07-26T11:39:16.000Z</time>
      </trkpt>
      <trkpt lat="42.93585098348557949066162109375" lon="-7.9794050194323062896728515625">
        <ele>438.79998779296875</ele>
        <time>2019-07-26T11:39:18.000Z</time>
      </trkpt>
      <trkpt lat="42.93577923439443111419677734375" lon="-7.9795025847852230072021484375">
        <ele>439</ele>
        <time>2019-07-26T11:39:20.000Z</time>
      </trkpt>
      <trkpt lat="42.93561310507357120513916015625" lon="-7.9797449894249439239501953125">
        <ele>440</ele>
        <time>2019-07-26T11:39:25.000Z</time>
      </trkpt>
      <trkpt lat="42.93558477424085140228271484375" lon="-7.97978782095015048980712890625">
        <ele>440.20001220703125</ele>
        <time>2019-07-26T11:39:26.000Z</time>
      </trkpt>
      <trkpt lat="42.93542535044252872467041015625" lon="-7.980003654956817626953125">
        <ele>441.20001220703125</ele>
        <time>2019-07-26T11:39:31.000Z</time>
      </trkpt>
      <trkpt lat="42.93540112674236297607421875" lon="-7.980040870606899261474609375">
        <ele>441.600006103515625</ele>
        <time>2019-07-26T11:39:32.000Z</time>
      </trkpt>
      <trkpt lat="42.9352712072432041168212890625" lon="-7.9801892302930355072021484375">
        <ele>442</ele>
        <time>2019-07-26T11:39:36.000Z</time>
      </trkpt>
      <trkpt lat="42.9350214265286922454833984375" lon="-7.98039919696748256683349609375">
        <ele>442.20001220703125</ele>
        <time>2019-07-26T11:39:43.000Z</time>
      </trkpt>
      <trkpt lat="42.9349201731383800506591796875" lon="-7.980492822825908660888671875">
        <ele>442.20001220703125</ele>
        <time>2019-07-26T11:39:45.000Z</time>
      </trkpt>
      <trkpt lat="42.93479586951434612274169921875" lon="-7.9806525819003582000732421875">
        <ele>442.399993896484375</ele>
        <time>2019-07-26T11:39:48.000Z</time>
      </trkpt>
      <trkpt lat="42.93457626365125179290771484375" lon="-7.98091493546962738037109375">
        <ele>442.600006103515625</ele>
        <time>2019-07-26T11:39:53.000Z</time>
      </trkpt>
      <trkpt lat="42.93449663557112216949462890625" lon="-7.9810267500579357147216796875">
        <ele>442.600006103515625</ele>
        <time>2019-07-26T11:39:55.000Z</time>
      </trkpt>
      <trkpt lat="42.93422724120318889617919921875" lon="-7.98140184022486209869384765625">
        <ele>443.20001220703125</ele>
        <time>2019-07-26T11:40:02.000Z</time>
      </trkpt>
      <trkpt lat="42.93416060507297515869140625" lon="-7.98151482827961444854736328125">
        <ele>443.399993896484375</ele>
        <time>2019-07-26T11:40:04.000Z</time>
      </trkpt>
      <trkpt lat="42.93409413658082485198974609375" lon="-7.98164860345423221588134765625">
        <ele>443.600006103515625</ele>
        <time>2019-07-26T11:40:06.000Z</time>
      </trkpt>
      <trkpt lat="42.93406295590102672576904296875" lon="-7.98171850852668285369873046875">
        <ele>443.600006103515625</ele>
        <time>2019-07-26T11:40:07.000Z</time>
      </trkpt>
      <trkpt lat="42.93395902030169963836669921875" lon="-7.9820164851844310760498046875">
        <ele>444.20001220703125</ele>
        <time>2019-07-26T11:40:11.000Z</time>
      </trkpt>
      <trkpt lat="42.93388442136347293853759765625" lon="-7.98223852179944515228271484375">
        <ele>444.399993896484375</ele>
        <time>2019-07-26T11:40:14.000Z</time>
      </trkpt>
      <trkpt lat="42.93386019766330718994140625" lon="-7.98230943270027637481689453125">
        <ele>444.79998779296875</ele>
        <time>2019-07-26T11:40:15.000Z</time>
      </trkpt>
      <trkpt lat="42.93373815715312957763671875" lon="-7.9827232472598552703857421875">
        <ele>445.600006103515625</ele>
        <time>2019-07-26T11:40:21.000Z</time>
      </trkpt>
      <trkpt lat="42.9336997680366039276123046875" lon="-7.98294779844582080841064453125">
        <ele>446</ele>
        <time>2019-07-26T11:40:24.000Z</time>
      </trkpt>
      <trkpt lat="42.93364922516047954559326171875" lon="-7.9833371378481388092041015625">
        <ele>446.20001220703125</ele>
        <time>2019-07-26T11:40:29.000Z</time>
      </trkpt>
      <trkpt lat="42.93358149938285350799560546875" lon="-7.9840041697025299072265625">
        <ele>446.79998779296875</ele>
        <time>2019-07-26T11:40:37.000Z</time>
      </trkpt>
      <trkpt lat="42.933506481349468231201171875" lon="-7.984742112457752227783203125">
        <ele>446.79998779296875</ele>
        <time>2019-07-26T11:40:44.000Z</time>
      </trkpt>
      <trkpt lat="42.93347907252609729766845703125" lon="-7.98543387092649936676025390625">
        <ele>445.399993896484375</ele>
        <time>2019-07-26T11:40:50.000Z</time>
      </trkpt>
      <trkpt lat="42.93346834369003772735595703125" lon="-7.98565649427473545074462890625">
        <ele>445</ele>
        <time>2019-07-26T11:40:52.000Z</time>
      </trkpt>
      <trkpt lat="42.933462224900722503662109375" lon="-7.985766045749187469482421875">
        <ele>444.79998779296875</ele>
        <time>2019-07-26T11:40:53.000Z</time>
      </trkpt>
      <trkpt lat="42.9334362410008907318115234375" lon="-7.98652620054781436920166015625">
        <ele>443.79998779296875</ele>
        <time>2019-07-26T11:41:00.000Z</time>
      </trkpt>
      <trkpt lat="42.9334201477468013763427734375" lon="-7.98705493099987506866455078125">
        <ele>443.600006103515625</ele>
        <time>2019-07-26T11:41:05.000Z</time>
      </trkpt>
      <trkpt lat="42.9334077425301074981689453125" lon="-7.98715953715145587921142578125">
        <ele>443.399993896484375</ele>
        <time>2019-07-26T11:41:06.000Z</time>
      </trkpt>
      <trkpt lat="42.93339055962860584259033203125" lon="-7.9872642271220684051513671875">
        <ele>443.20001220703125</ele>
        <time>2019-07-26T11:41:07.000Z</time>
      </trkpt>
      <trkpt lat="42.93330975808203220367431640625" lon="-7.98757025040686130523681640625">
        <ele>442.79998779296875</ele>
        <time>2019-07-26T11:41:10.000Z</time>
      </trkpt>
      <trkpt lat="42.9332287050783634185791015625" lon="-7.98787116073071956634521484375">
        <ele>442.399993896484375</ele>
        <time>2019-07-26T11:41:13.000Z</time>
      </trkpt>
      <trkpt lat="42.93310004286468029022216796875" lon="-7.98856191337108612060546875">
        <ele>442</ele>
        <time>2019-07-26T11:41:20.000Z</time>
      </trkpt>
      <trkpt lat="42.9331026412546634674072265625" lon="-7.98899718560278415679931640625">
        <ele>442.20001220703125</ele>
        <time>2019-07-26T11:41:25.000Z</time>
      </trkpt>
      <trkpt lat="42.933108843863010406494140625" lon="-7.9895563423633575439453125">
        <ele>442.79998779296875</ele>
        <time>2019-07-26T11:41:32.000Z</time>
      </trkpt>
      <trkpt lat="42.933108843863010406494140625" lon="-7.98964016139507293701171875">
        <ele>443</ele>
        <time>2019-07-26T11:41:33.000Z</time>
      </trkpt>
      <trkpt lat="42.9331090115010738372802734375" lon="-7.990050204098224639892578125">
        <ele>443.399993896484375</ele>
        <time>2019-07-26T11:41:38.000Z</time>
      </trkpt>
      <trkpt lat="42.93310004286468029022216796875" lon="-7.99059645272791385650634765625">
        <ele>443.399993896484375</ele>
        <time>2019-07-26T11:41:44.000Z</time>
      </trkpt>
      <trkpt lat="42.93310490436851978302001953125" lon="-7.99069535918533802032470703125">
        <ele>443.399993896484375</ele>
        <time>2019-07-26T11:41:45.000Z</time>
      </trkpt>
      <trkpt lat="42.93319207616150379180908203125" lon="-7.991406060755252838134765625">
        <ele>442.79998779296875</ele>
        <time>2019-07-26T11:41:52.000Z</time>
      </trkpt>
      <trkpt lat="42.9332437925040721893310546875" lon="-7.99181099049746990203857421875">
        <ele>442</ele>
        <time>2019-07-26T11:41:56.000Z</time>
      </trkpt>
      <trkpt lat="42.9332709498703479766845703125" lon="-7.99201391637325286865234375">
        <ele>441.79998779296875</ele>
        <time>2019-07-26T11:41:58.000Z</time>
      </trkpt>
      <trkpt lat="42.93328813277184963226318359375" lon="-7.9922175966203212738037109375">
        <ele>441.600006103515625</ele>
        <time>2019-07-26T11:42:00.000Z</time>
      </trkpt>
      <trkpt lat="42.93328142724931240081787109375" lon="-7.99232178367674350738525390625">
        <ele>441.20001220703125</ele>
        <time>2019-07-26T11:42:01.000Z</time>
      </trkpt>
      <trkpt lat="42.9332142882049083709716796875" lon="-7.99262680113315582275390625">
        <ele>440.79998779296875</ele>
        <time>2019-07-26T11:42:04.000Z</time>
      </trkpt>
      <trkpt lat="42.9331780783832073211669921875" lon="-7.992716990411281585693359375">
        <ele>440</ele>
        <time>2019-07-26T11:42:05.000Z</time>
      </trkpt>
      <trkpt lat="42.933140695095062255859375" lon="-7.99280424602329730987548828125">
        <ele>439.79998779296875</ele>
        <time>2019-07-26T11:42:06.000Z</time>
      </trkpt>
      <trkpt lat="42.93303499929606914520263671875" lon="-7.99304430373013019561767578125">
        <ele>439.600006103515625</ele>
        <time>2019-07-26T11:42:09.000Z</time>
      </trkpt>
      <trkpt lat="42.9329628311097621917724609375" lon="-7.993197105824947357177734375">
        <ele>439.600006103515625</ele>
        <time>2019-07-26T11:42:11.000Z</time>
      </trkpt>
      <trkpt lat="42.93282779864966869354248046875" lon="-7.993518970906734466552734375">
        <ele>439.79998779296875</ele>
        <time>2019-07-26T11:42:15.000Z</time>
      </trkpt>
      <trkpt lat="42.9327531158924102783203125" lon="-7.9937628842890262603759765625">
        <ele>440</ele>
        <time>2019-07-26T11:42:18.000Z</time>
      </trkpt>
      <trkpt lat="42.9327102005481719970703125" lon="-7.99392239190638065338134765625">
        <ele>440.79998779296875</ele>
        <time>2019-07-26T11:42:20.000Z</time>
      </trkpt>
      <trkpt lat="42.932614646852016448974609375" lon="-7.99421693198382854461669921875">
        <ele>442.20001220703125</ele>
        <time>2019-07-26T11:42:24.000Z</time>
      </trkpt>
      <trkpt lat="42.93259260244667530059814453125" lon="-7.99429220147430896759033203125">
        <ele>442.600006103515625</ele>
        <time>2019-07-26T11:42:25.000Z</time>
      </trkpt>
      <trkpt lat="42.93248690664768218994140625" lon="-7.99465321004390716552734375">
        <ele>443.399993896484375</ele>
        <time>2019-07-26T11:42:30.000Z</time>
      </trkpt>
      <trkpt lat="42.93238070793449878692626953125" lon="-7.9950020648539066314697265625">
        <ele>443.79998779296875</ele>
        <time>2019-07-26T11:42:35.000Z</time>
      </trkpt>
      <trkpt lat="42.9322161711752414703369140625" lon="-7.99547798931598663330078125">
        <ele>444.20001220703125</ele>
        <time>2019-07-26T11:42:42.000Z</time>
      </trkpt>
      <trkpt lat="42.9321880079805850982666015625" lon="-7.9955432005226612091064453125">
        <ele>444.399993896484375</ele>
        <time>2019-07-26T11:42:43.000Z</time>
      </trkpt>
      <trkpt lat="42.931930013000965118408203125" lon="-7.99614158459007740020751953125">
        <ele>444.600006103515625</ele>
        <time>2019-07-26T11:42:52.000Z</time>
      </trkpt>
      <trkpt lat="42.93166271410882472991943359375" lon="-7.99676435999572277069091796875">
        <ele>444.79998779296875</ele>
        <time>2019-07-26T11:43:01.000Z</time>
      </trkpt>
      <trkpt lat="42.931480072438716888427734375" lon="-7.996973656117916107177734375">
        <ele>444.79998779296875</ele>
        <time>2019-07-26T11:43:05.000Z</time>
      </trkpt>
      <trkpt lat="42.9314286075532436370849609375" lon="-7.99702134914696216583251953125">
        <ele>444.600006103515625</ele>
        <time>2019-07-26T11:43:06.000Z</time>
      </trkpt>
      <trkpt lat="42.93115091510117053985595703125" lon="-7.9972688667476177215576171875">
        <ele>444.20001220703125</ele>
        <time>2019-07-26T11:43:11.000Z</time>
      </trkpt>
      <trkpt lat="42.93103273026645183563232421875" lon="-7.99737959168851375579833984375">
        <ele>444.20001220703125</ele>
        <time>2019-07-26T11:43:13.000Z</time>
      </trkpt>
      <trkpt lat="42.93092393316328525543212890625" lon="-7.997513450682163238525390625">
        <ele>443.79998779296875</ele>
        <time>2019-07-26T11:43:15.000Z</time>
      </trkpt>
      <trkpt lat="42.93084665201604366302490234375" lon="-7.9976795800030231475830078125">
        <ele>443.600006103515625</ele>
        <time>2019-07-26T11:43:17.000Z</time>
      </trkpt>
      <trkpt lat="42.93081228621304035186767578125" lon="-7.99776859581470489501953125">
        <ele>443.20001220703125</ele>
        <time>2019-07-26T11:43:18.000Z</time>
      </trkpt>
      <trkpt lat="42.9307365976274013519287109375" lon="-7.99804813228547573089599609375">
        <ele>442.600006103515625</ele>
        <time>2019-07-26T11:43:21.000Z</time>
      </trkpt>
      <trkpt lat="42.93072394095361232757568359375" lon="-7.9981474578380584716796875">
        <ele>442.600006103515625</ele>
        <time>2019-07-26T11:43:22.000Z</time>
      </trkpt>
      <trkpt lat="42.93068538419902324676513671875" lon="-7.9986498691141605377197265625">
        <ele>442.20001220703125</ele>
        <time>2019-07-26T11:43:27.000Z</time>
      </trkpt>
      <trkpt lat="42.93067683465778827667236328125" lon="-7.99875204451382160186767578125">
        <ele>442</ele>
        <time>2019-07-26T11:43:28.000Z</time>
      </trkpt>
      <trkpt lat="42.9306541197001934051513671875" lon="-7.99895538948476314544677734375">
        <ele>441.20001220703125</ele>
        <time>2019-07-26T11:43:30.000Z</time>
      </trkpt>
      <trkpt lat="42.9306306503713130950927734375" lon="-7.9992661066353321075439453125">
        <ele>440.79998779296875</ele>
        <time>2019-07-26T11:43:33.000Z</time>
      </trkpt>
      <trkpt lat="42.930590249598026275634765625" lon="-7.99957129172980785369873046875">
        <ele>440.20001220703125</ele>
        <time>2019-07-26T11:43:36.000Z</time>
      </trkpt>
      <trkpt lat="42.930528558790683746337890625" lon="-7.9998595453798770904541015625">
        <ele>439.79998779296875</ele>
        <time>2019-07-26T11:43:39.000Z</time>
      </trkpt>
      <trkpt lat="42.93047416023910045623779296875" lon="-8.0000422708690166473388671875">
        <ele>439.600006103515625</ele>
        <time>2019-07-26T11:43:41.000Z</time>
      </trkpt>
      <trkpt lat="42.9302497766911983489990234375" lon="-8.00076940096914768218994140625">
        <ele>438.79998779296875</ele>
        <time>2019-07-26T11:43:49.000Z</time>
      </trkpt>
      <trkpt lat="42.93014894239604473114013671875" lon="-8.0011550523340702056884765625">
        <ele>437.79998779296875</ele>
        <time>2019-07-26T11:43:53.000Z</time>
      </trkpt>
      <trkpt lat="42.9301042668521404266357421875" lon="-8.001466691493988037109375">
        <ele>437.20001220703125</ele>
        <time>2019-07-26T11:43:56.000Z</time>
      </trkpt>
      <trkpt lat="42.9300663806498050689697265625" lon="-8.001791574060916900634765625">
        <ele>436.79998779296875</ele>
        <time>2019-07-26T11:43:59.000Z</time>
      </trkpt>
      <trkpt lat="42.9299983195960521697998046875" lon="-8.0021176300942897796630859375">
        <ele>436.600006103515625</ele>
        <time>2019-07-26T11:44:02.000Z</time>
      </trkpt>
      <trkpt lat="42.9299041070044040679931640625" lon="-8.002415187656879425048828125">
        <ele>435.600006103515625</ele>
        <time>2019-07-26T11:44:05.000Z</time>
      </trkpt>
      <trkpt lat="42.92979790829122066497802734375" lon="-8.00271148793399333953857421875">
        <ele>435.399993896484375</ele>
        <time>2019-07-26T11:44:08.000Z</time>
      </trkpt>
      <trkpt lat="42.929544858634471893310546875" lon="-8.00314642488956451416015625">
        <ele>434.600006103515625</ele>
        <time>2019-07-26T11:44:13.000Z</time>
      </trkpt>
      <trkpt lat="42.92948040179908275604248046875" lon="-8.003212474286556243896484375">
        <ele>434.399993896484375</ele>
        <time>2019-07-26T11:44:14.000Z</time>
      </trkpt>
      <trkpt lat="42.929270267486572265625" lon="-8.003371395170688629150390625">
        <ele>433.399993896484375</ele>
        <time>2019-07-26T11:44:17.000Z</time>
      </trkpt>
      <trkpt lat="42.92897698469460010528564453125" lon="-8.0035586468875408172607421875">
        <ele>432.399993896484375</ele>
        <time>2019-07-26T11:44:21.000Z</time>
      </trkpt>
      <trkpt lat="42.928907833993434906005859375" lon="-8.00361120142042636871337890625">
        <ele>432.20001220703125</ele>
        <time>2019-07-26T11:44:22.000Z</time>
      </trkpt>
      <trkpt lat="42.92878068052232265472412109375" lon="-8.00373173318803310394287109375">
        <ele>431.79998779296875</ele>
        <time>2019-07-26T11:44:24.000Z</time>
      </trkpt>
      <trkpt lat="42.9284615814685821533203125" lon="-8.00408494658768177032470703125">
        <ele>431.399993896484375</ele>
        <time>2019-07-26T11:44:30.000Z</time>
      </trkpt>
      <trkpt lat="42.928414307534694671630859375" lon="-8.0041383393108844757080078125">
        <ele>431.399993896484375</ele>
        <time>2019-07-26T11:44:31.000Z</time>
      </trkpt>
      <trkpt lat="42.92799429036676883697509765625" lon="-8.00459205172955989837646484375">
        <ele>431.79998779296875</ele>
        <time>2019-07-26T11:44:40.000Z</time>
      </trkpt>
      <trkpt lat="42.92777267284691333770751953125" lon="-8.004822470247745513916015625">
        <ele>432.399993896484375</ele>
        <time>2019-07-26T11:44:45.000Z</time>
      </trkpt>
      <trkpt lat="42.92772858403623104095458984375" lon="-8.0048565007746219635009765625">
        <ele>432.600006103515625</ele>
        <time>2019-07-26T11:44:46.000Z</time>
      </trkpt>
      <trkpt lat="42.927570082247257232666015625" lon="-8.00498264841735363006591796875">
        <ele>433.600006103515625</ele>
        <time>2019-07-26T11:44:50.000Z</time>
      </trkpt>
      <trkpt lat="42.927460111677646636962890625" lon="-8.005070574581623077392578125">
        <ele>434.79998779296875</ele>
        <time>2019-07-26T11:44:53.000Z</time>
      </trkpt>
      <trkpt lat="42.92732021771371364593505859375" lon="-8.005162440240383148193359375">
        <ele>435.79998779296875</ele>
        <time>2019-07-26T11:44:57.000Z</time>
      </trkpt>
      <trkpt lat="42.92726724408566951751708984375" lon="-8.00521298311650753021240234375">
        <ele>436.399993896484375</ele>
        <time>2019-07-26T11:44:59.000Z</time>
      </trkpt>
      <trkpt lat="42.9272205568850040435791015625" lon="-8.00526268780231475830078125">
        <ele>436.79998779296875</ele>
        <time>2019-07-26T11:45:01.000Z</time>
      </trkpt>
      <trkpt lat="42.9271566867828369140625" lon="-8.00534759648144245147705078125">
        <ele>437.79998779296875</ele>
        <time>2019-07-26T11:45:04.000Z</time>
      </trkpt>
      <trkpt lat="42.92711351998150348663330078125" lon="-8.00541046075522899627685546875">
        <ele>438.600006103515625</ele>
        <time>2019-07-26T11:45:06.000Z</time>
      </trkpt>
      <trkpt lat="42.92709055356681346893310546875" lon="-8.005445413291454315185546875">
        <ele>439</ele>
        <time>2019-07-26T11:45:07.000Z</time>
      </trkpt>
      <trkpt lat="42.92698846198618412017822265625" lon="-8.00557591952383518218994140625">
        <ele>440</ele>
        <time>2019-07-26T11:45:11.000Z</time>
      </trkpt>
      <trkpt lat="42.9269634000957012176513671875" lon="-8.00561145879328250885009765625">
        <ele>440.20001220703125</ele>
        <time>2019-07-26T11:45:12.000Z</time>
      </trkpt>
      <trkpt lat="42.926850579679012298583984375" lon="-8.005801141262054443359375">
        <ele>441.600006103515625</ele>
        <time>2019-07-26T11:45:17.000Z</time>
      </trkpt>
      <trkpt lat="42.92677287943661212921142578125" lon="-8.005955033004283905029296875">
        <ele>442.600006103515625</ele>
        <time>2019-07-26T11:45:21.000Z</time>
      </trkpt>
      <trkpt lat="42.926749996840953826904296875" lon="-8.00599157810211181640625">
        <ele>442.600006103515625</ele>
        <time>2019-07-26T11:45:22.000Z</time>
      </trkpt>
      <trkpt lat="42.92666475288569927215576171875" lon="-8.00615007989108562469482421875">
        <ele>443.399993896484375</ele>
        <time>2019-07-26T11:45:26.000Z</time>
      </trkpt>
      <trkpt lat="42.9266251064836978912353515625" lon="-8.00623356364667415618896484375">
        <ele>443.79998779296875</ele>
        <time>2019-07-26T11:45:28.000Z</time>
      </trkpt>
      <trkpt lat="42.926551513373851776123046875" lon="-8.00635962747037410736083984375">
        <ele>444.79998779296875</ele>
        <time>2019-07-26T11:45:31.000Z</time>
      </trkpt>
      <trkpt lat="42.92650423943996429443359375" lon="-8.00644931383430957794189453125">
        <ele>445.20001220703125</ele>
        <time>2019-07-26T11:45:33.000Z</time>
      </trkpt>
      <trkpt lat="42.92639535851776599884033203125" lon="-8.006683923304080963134765625">
        <ele>446.20001220703125</ele>
        <time>2019-07-26T11:45:38.000Z</time>
      </trkpt>
      <trkpt lat="42.92637255974113941192626953125" lon="-8.00673580728471279144287109375">
        <ele>446.399993896484375</ele>
        <time>2019-07-26T11:45:39.000Z</time>
      </trkpt>
      <trkpt lat="42.92626954615116119384765625" lon="-8.0069496296346187591552734375">
        <ele>447</ele>
        <time>2019-07-26T11:45:43.000Z</time>
      </trkpt>
      <trkpt lat="42.9262432269752025604248046875" lon="-8.0070062913000583648681640625">
        <ele>447.399993896484375</ele>
        <time>2019-07-26T11:45:44.000Z</time>
      </trkpt>
      <trkpt lat="42.92619301937520503997802734375" lon="-8.0071248114109039306640625">
        <ele>447.600006103515625</ele>
        <time>2019-07-26T11:45:46.000Z</time>
      </trkpt>
      <trkpt lat="42.92609578929841518402099609375" lon="-8.00738574005663394927978515625">
        <ele>447.600006103515625</ele>
        <time>2019-07-26T11:45:50.000Z</time>
      </trkpt>
      <trkpt lat="42.92603527195751667022705078125" lon="-8.00751917995512485504150390625">
        <ele>447.79998779296875</ele>
        <time>2019-07-26T11:45:52.000Z</time>
      </trkpt>
      <trkpt lat="42.9258338548243045806884765625" lon="-8.00807825289666652679443359375">
        <ele>448.20001220703125</ele>
        <time>2019-07-26T11:46:00.000Z</time>
      </trkpt>
      <trkpt lat="42.92573939077556133270263671875" lon="-8.00834999419748783111572265625">
        <ele>448.399993896484375</ele>
        <time>2019-07-26T11:46:04.000Z</time>
      </trkpt>
      <trkpt lat="42.92566244490444660186767578125" lon="-8.0085190571844577789306640625">
        <ele>448.600006103515625</ele>
        <time>2019-07-26T11:46:07.000Z</time>
      </trkpt>
      <trkpt lat="42.925624810159206390380859375" lon="-8.00855702720582485198974609375">
        <ele>448.79998779296875</ele>
        <time>2019-07-26T11:46:08.000Z</time>
      </trkpt>
      <trkpt lat="42.925522886216640472412109375" lon="-8.008695580065250396728515625">
        <ele>449</ele>
        <time>2019-07-26T11:46:11.000Z</time>
      </trkpt>
      <trkpt lat="42.92543579824268817901611328125" lon="-8.00877034664154052734375">
        <ele>449.399993896484375</ele>
        <time>2019-07-26T11:46:13.000Z</time>
      </trkpt>
      <trkpt lat="42.925105132162570953369140625" lon="-8.00902188755571842193603515625">
        <ele>449.600006103515625</ele>
        <time>2019-07-26T11:46:20.000Z</time>
      </trkpt>
      <trkpt lat="42.92506028898060321807861328125" lon="-8.00905507989227771759033203125">
        <ele>449.79998779296875</ele>
        <time>2019-07-26T11:46:21.000Z</time>
      </trkpt>
      <trkpt lat="42.92471093125641345977783203125" lon="-8.00930553115904331207275390625">
        <ele>450.399993896484375</ele>
        <time>2019-07-26T11:46:29.000Z</time>
      </trkpt>
      <trkpt lat="42.924670614302158355712890625" lon="-8.00934844650328159332275390625">
        <ele>450.399993896484375</ele>
        <time>2019-07-26T11:46:30.000Z</time>
      </trkpt>
      <trkpt lat="42.92449115775525569915771484375" lon="-8.0095952935516834259033203125">
        <ele>450.79998779296875</ele>
        <time>2019-07-26T11:46:35.000Z</time>
      </trkpt>
      <trkpt lat="42.92438772507011890411376953125" lon="-8.00975664518773555755615234375">
        <ele>451</ele>
        <time>2019-07-26T11:46:38.000Z</time>
      </trkpt>
      <trkpt lat="42.92414699681103229522705078125" lon="-8.01014992408454418182373046875">
        <ele>451.20001220703125</ele>
        <time>2019-07-26T11:46:45.000Z</time>
      </trkpt>
      <trkpt lat="42.92400165461003780364990234375" lon="-8.0103848688304424285888671875">
        <ele>451.20001220703125</ele>
        <time>2019-07-26T11:46:49.000Z</time>
      </trkpt>
      <trkpt lat="42.92369085364043712615966796875" lon="-8.01083237864077091217041015625">
        <ele>451</ele>
        <time>2019-07-26T11:46:57.000Z</time>
      </trkpt>
      <trkpt lat="42.923293970525264739990234375" lon="-8.01118022762238979339599609375">
        <ele>451</ele>
        <time>2019-07-26T11:47:05.000Z</time>
      </trkpt>
      <trkpt lat="42.92282466776669025421142578125" lon="-8.01156680099666118621826171875">
        <ele>451.600006103515625</ele>
        <time>2019-07-26T11:47:14.000Z</time>
      </trkpt>
      <trkpt lat="42.92267044074833393096923828125" lon="-8.01168934442102909088134765625">
        <ele>451.600006103515625</ele>
        <time>2019-07-26T11:47:17.000Z</time>
      </trkpt>
      <trkpt lat="42.9225699417293071746826171875" lon="-8.01176981069147586822509765625">
        <ele>451.600006103515625</ele>
        <time>2019-07-26T11:47:19.000Z</time>
      </trkpt>
      <trkpt lat="42.92242434807121753692626953125" lon="-8.01189067773520946502685546875">
        <ele>451.79998779296875</ele>
        <time>2019-07-26T11:47:22.000Z</time>
      </trkpt>
      <trkpt lat="42.9222737252712249755859375" lon="-8.01199913956224918365478515625">
        <ele>452.20001220703125</ele>
        <time>2019-07-26T11:47:25.000Z</time>
      </trkpt>
      <trkpt lat="42.9218732379376888275146484375" lon="-8.0123076774179935455322265625">
        <ele>452.600006103515625</ele>
        <time>2019-07-26T11:47:33.000Z</time>
      </trkpt>
      <trkpt lat="42.92146034538745880126953125" lon="-8.01261152140796184539794921875">
        <ele>452.600006103515625</ele>
        <time>2019-07-26T11:47:41.000Z</time>
      </trkpt>
      <trkpt lat="42.92099841870367527008056640625" lon="-8.01293975673615932464599609375">
        <ele>452.79998779296875</ele>
        <time>2019-07-26T11:47:50.000Z</time>
      </trkpt>
      <trkpt lat="42.920898087322711944580078125" lon="-8.01301024854183197021484375">
        <ele>453.20001220703125</ele>
        <time>2019-07-26T11:47:52.000Z</time>
      </trkpt>
      <trkpt lat="42.9205978475511074066162109375" lon="-8.01322440616786479949951171875">
        <ele>453.20001220703125</ele>
        <time>2019-07-26T11:47:58.000Z</time>
      </trkpt>
      <trkpt lat="42.92036709375679492950439453125" lon="-8.0133899487555027008056640625">
        <ele>454</ele>
        <time>2019-07-26T11:48:03.000Z</time>
      </trkpt>
      <trkpt lat="42.9203239269554615020751953125" lon="-8.01342062652111053466796875">
        <ele>454.20001220703125</ele>
        <time>2019-07-26T11:48:04.000Z</time>
      </trkpt>
      <trkpt lat="42.9200523532927036285400390625" lon="-8.01360092125833034515380859375">
        <ele>455.20001220703125</ele>
        <time>2019-07-26T11:48:10.000Z</time>
      </trkpt>
      <trkpt lat="42.92000885121524333953857421875" lon="-8.01363344304263591766357421875">
        <ele>455.20001220703125</ele>
        <time>2019-07-26T11:48:11.000Z</time>
      </trkpt>
      <trkpt lat="42.91965647600591182708740234375" lon="-8.013883642852306365966796875">
        <ele>456.20001220703125</ele>
        <time>2019-07-26T11:48:19.000Z</time>
      </trkpt>
      <trkpt lat="42.91961322538554668426513671875" lon="-8.01391951739788055419921875">
        <ele>456.399993896484375</ele>
        <time>2019-07-26T11:48:20.000Z</time>
      </trkpt>
      <trkpt lat="42.91936688125133514404296875" lon="-8.01405522041022777557373046875">
        <ele>457</ele>
        <time>2019-07-26T11:48:25.000Z</time>
      </trkpt>
      <trkpt lat="42.9193167574703693389892578125" lon="-8.01408489234745502471923828125">
        <ele>457</ele>
        <time>2019-07-26T11:48:26.000Z</time>
      </trkpt>
      <trkpt lat="42.91899078525602817535400390625" lon="-8.01429578103125095367431640625">
        <ele>457</ele>
        <time>2019-07-26T11:48:32.000Z</time>
      </trkpt>
      <trkpt lat="42.9188802279531955718994140625" lon="-8.0143729783594608306884765625">
        <ele>457</ele>
        <time>2019-07-26T11:48:34.000Z</time>
      </trkpt>
      <trkpt lat="42.91865919716656208038330078125" lon="-8.0144987069070339202880859375">
        <ele>456.20001220703125</ele>
        <time>2019-07-26T11:48:38.000Z</time>
      </trkpt>
      <trkpt lat="42.91849139146506786346435546875" lon="-8.01460138522088527679443359375">
        <ele>456</ele>
        <time>2019-07-26T11:48:41.000Z</time>
      </trkpt>
      <trkpt lat="42.91838586330413818359375" lon="-8.01467363722622394561767578125">
        <ele>455.79998779296875</ele>
        <time>2019-07-26T11:48:43.000Z</time>
      </trkpt>
      <trkpt lat="42.91828251443803310394287109375" lon="-8.0147525109350681304931640625">
        <ele>455.79998779296875</ele>
        <time>2019-07-26T11:48:45.000Z</time>
      </trkpt>
      <trkpt lat="42.9181882180273532867431640625" lon="-8.01482367329299449920654296875">
        <ele>455.600006103515625</ele>
        <time>2019-07-26T11:48:47.000Z</time>
      </trkpt>
      <trkpt lat="42.9181426204741001129150390625" lon="-8.0148624815046787261962890625">
        <ele>455.399993896484375</ele>
        <time>2019-07-26T11:48:48.000Z</time>
      </trkpt>
      <trkpt lat="42.91802116669714450836181640625" lon="-8.01498460583388805389404296875">
        <ele>455.20001220703125</ele>
        <time>2019-07-26T11:48:51.000Z</time>
      </trkpt>
      <trkpt lat="42.91798420250415802001953125" lon="-8.01503137685358524322509765625">
        <ele>455.20001220703125</ele>
        <time>2019-07-26T11:48:52.000Z</time>
      </trkpt>
      <trkpt lat="42.9179495014250278472900390625" lon="-8.01507730968296527862548828125">
        <ele>455.20001220703125</ele>
        <time>2019-07-26T11:48:53.000Z</time>
      </trkpt>
      <trkpt lat="42.91770785115659236907958984375" lon="-8.01535994745790958404541015625">
        <ele>454.399993896484375</ele>
        <time>2019-07-26T11:48:59.000Z</time>
      </trkpt>
      <trkpt lat="42.91766703128814697265625" lon="-8.0154086463153362274169921875">
        <ele>454.399993896484375</ele>
        <time>2019-07-26T11:49:00.000Z</time>
      </trkpt>
      <trkpt lat="42.91740995831787586212158203125" lon="-8.01569606177508831024169921875">
        <ele>454.399993896484375</ele>
        <time>2019-07-26T11:49:06.000Z</time>
      </trkpt>
      <trkpt lat="42.91709664277732372283935546875" lon="-8.01602932624518871307373046875">
        <ele>454.600006103515625</ele>
        <time>2019-07-26T11:49:14.000Z</time>
      </trkpt>
      <trkpt lat="42.91701433248817920684814453125" lon="-8.0161190964281558990478515625">
        <ele>454.600006103515625</ele>
        <time>2019-07-26T11:49:16.000Z</time>
      </trkpt>
      <trkpt lat="42.91689648292958736419677734375" lon="-8.01624541170895099639892578125">
        <ele>454.79998779296875</ele>
        <time>2019-07-26T11:49:19.000Z</time>
      </trkpt>
      <trkpt lat="42.91666061617434024810791015625" lon="-8.01652100868523120880126953125">
        <ele>454.79998779296875</ele>
        <time>2019-07-26T11:49:25.000Z</time>
      </trkpt>
      <trkpt lat="42.91655031032860279083251953125" lon="-8.016653694212436676025390625">
        <ele>454.600006103515625</ele>
        <time>2019-07-26T11:49:28.000Z</time>
      </trkpt>
      <trkpt lat="42.9165098257362842559814453125" lon="-8.01670457236468791961669921875">
        <ele>454.600006103515625</ele>
        <time>2019-07-26T11:49:30.000Z</time>
      </trkpt>
      <trkpt lat="42.916417457163333892822265625" lon="-8.01672938279807567596435546875">
        <ele>454.20001220703125</ele>
        <time>2019-07-26T11:49:35.000Z</time>
      </trkpt>
      <trkpt lat="42.916398681700229644775390625" lon="-8.01672904752194881439208984375">
        <ele>454.20001220703125</ele>
        <time>2019-07-26T11:49:36.000Z</time>
      </trkpt>
      <trkpt lat="42.9163686744868755340576171875" lon="-8.01672318018972873687744140625">
        <ele>453.79998779296875</ele>
        <time>2019-07-26T11:49:40.000Z</time>
      </trkpt>
      <trkpt lat="42.91631779633462429046630859375" lon="-8.0166880600154399871826171875">
        <ele>453.600006103515625</ele>
        <time>2019-07-26T11:49:45.000Z</time>
      </trkpt>
      <trkpt lat="42.91622978635132312774658203125" lon="-8.01660885103046894073486328125">
        <ele>453.600006103515625</ele>
        <time>2019-07-26T11:49:48.000Z</time>
      </trkpt>
      <trkpt lat="42.91615284048020839691162109375" lon="-8.01653198897838592529296875">
        <ele>453.600006103515625</ele>
        <time>2019-07-26T11:49:50.000Z</time>
      </trkpt>
      <trkpt lat="42.91592971421778202056884765625" lon="-8.0162763409316539764404296875">
        <ele>453.600006103515625</ele>
        <time>2019-07-26T11:49:56.000Z</time>
      </trkpt>
      <trkpt lat="42.9157313145697116851806640625" lon="-8.0160661228001117706298828125">
        <ele>453.399993896484375</ele>
        <time>2019-07-26T11:50:02.000Z</time>
      </trkpt>
      <trkpt lat="42.91566417552530765533447265625" lon="-8.0159970559179782867431640625">
        <ele>453.20001220703125</ele>
        <time>2019-07-26T11:50:06.000Z</time>
      </trkpt>
      <trkpt lat="42.91565327905118465423583984375" lon="-8.0159600079059600830078125">
        <ele>453</ele>
        <time>2019-07-26T11:50:09.000Z</time>
      </trkpt>
      <trkpt lat="42.9156531952321529388427734375" lon="-8.015955649316310882568359375">
        <ele>453</ele>
        <time>2019-07-26T11:50:10.000Z</time>
      </trkpt>
      <trkpt lat="42.91576928459107875823974609375" lon="-8.0158518813550472259521484375">
        <ele>452.399993896484375</ele>
        <time>2019-07-26T11:50:30.000Z</time>
      </trkpt>
      <trkpt lat="42.91587875224649906158447265625" lon="-8.01589219830930233001708984375">
        <ele>452.399993896484375</ele>
        <time>2019-07-26T11:50:34.000Z</time>
      </trkpt>
      <trkpt lat="42.9159656725823879241943359375" lon="-8.01594450138509273529052734375">
        <ele>452.399993896484375</ele>
        <time>2019-07-26T11:50:37.000Z</time>
      </trkpt>
      <trkpt lat="42.9160555265843868255615234375" lon="-8.0160154961049556732177734375">
        <ele>452.399993896484375</ele>
        <time>2019-07-26T11:50:40.000Z</time>
      </trkpt>
      <trkpt lat="42.9161775670945644378662109375" lon="-8.01629905588924884796142578125">
        <ele>452.600006103515625</ele>
        <time>2019-07-26T11:50:45.000Z</time>
      </trkpt>
      <trkpt lat="42.91622810997068881988525390625" lon="-8.01642528735101222991943359375">
        <ele>452.79998779296875</ele>
        <time>2019-07-26T11:50:50.000Z</time>
      </trkpt>
      <trkpt lat="42.91626716963946819305419921875" lon="-8.0164952762424945831298828125">
        <ele>453</ele>
        <time>2019-07-26T11:50:52.000Z</time>
      </trkpt>
      <trkpt lat="42.91624353267252445220947265625" lon="-8.01660130731761455535888671875">
        <ele>453</ele>
        <time>2019-07-26T11:50:54.000Z</time>
      </trkpt>
      <trkpt lat="42.9161393456161022186279296875" lon="-8.01667221821844577789306640625">
        <ele>453</ele>
        <time>2019-07-26T11:50:57.000Z</time>
      </trkpt>
      <trkpt lat="42.9160568676888942718505859375" lon="-8.016657717525959014892578125">
        <ele>453.20001220703125</ele>
        <time>2019-07-26T11:50:59.000Z</time>
      </trkpt>
      <trkpt lat="42.9160149581730365753173828125" lon="-8.0166538618505001068115234375">
        <ele>453.20001220703125</ele>
        <time>2019-07-26T11:51:00.000Z</time>
      </trkpt>
      <trkpt lat="42.915889061987400054931640625" lon="-8.016642294824123382568359375">
        <ele>453.20001220703125</ele>
        <time>2019-07-26T11:51:03.000Z</time>
      </trkpt>
      <trkpt lat="42.9157693684101104736328125" lon="-8.01665981300175189971923828125">
        <ele>453.20001220703125</ele>
        <time>2019-07-26T11:51:06.000Z</time>
      </trkpt>
      <trkpt lat="42.91564892046153545379638671875" lon="-8.0166317336261272430419921875">
        <ele>453.20001220703125</ele>
        <time>2019-07-26T11:51:09.000Z</time>
      </trkpt>
      <trkpt lat="42.91559259407222270965576171875" lon="-8.0166142992675304412841796875">
        <ele>453.20001220703125</ele>
        <time>2019-07-26T11:51:11.000Z</time>
      </trkpt>
      <trkpt lat="42.91545781306922435760498046875" lon="-8.01657465286552906036376953125">
        <ele>453.20001220703125</ele>
        <time>2019-07-26T11:51:15.000Z</time>
      </trkpt>
      <trkpt lat="42.915316410362720489501953125" lon="-8.01657029427587985992431640625">
        <ele>453.20001220703125</ele>
        <time>2019-07-26T11:51:19.000Z</time>
      </trkpt>
      <trkpt lat="42.91526737622916698455810546875" lon="-8.01655738614499568939208984375">
        <ele>453.20001220703125</ele>
        <time>2019-07-26T11:51:21.000Z</time>
      </trkpt>
      <trkpt lat="42.91524306870996952056884765625" lon="-8.0165495909750461578369140625">
        <ele>453.20001220703125</ele>
        <time>2019-07-26T11:51:22.000Z</time>
      </trkpt>
      <trkpt lat="42.91521758772432804107666015625" lon="-8.0165090225636959075927734375">
        <ele>453.20001220703125</ele>
        <time>2019-07-26T11:51:24.000Z</time>
      </trkpt>
      <trkpt lat="42.915178947150707244873046875" lon="-8.01643920131027698516845703125">
        <ele>453.20001220703125</ele>
        <time>2019-07-26T11:51:28.000Z</time>
      </trkpt>
      <trkpt lat="42.91516520082950592041015625" lon="-8.016433417797088623046875">
        <ele>453.20001220703125</ele>
        <time>2019-07-26T11:51:29.000Z</time>
      </trkpt>
      <trkpt lat="42.91513569653034210205078125" lon="-8.01641263067722320556640625">
        <ele>453.20001220703125</ele>
        <time>2019-07-26T11:51:31.000Z</time>
      </trkpt>
      <trkpt lat="42.91512186639010906219482421875" lon="-8.0163672007620334625244140625">
        <ele>453.20001220703125</ele>
        <time>2019-07-26T11:51:33.000Z</time>
      </trkpt>
      <trkpt lat="42.915132679045200347900390625" lon="-8.01636460237205028533935546875">
        <ele>453.20001220703125</ele>
        <time>2019-07-26T11:51:37.000Z</time>
      </trkpt>
      <trkpt lat="42.91517551057040691375732421875" lon="-8.0162947811186313629150390625">
        <ele>453.399993896484375</ele>
        <time>2019-07-26T11:52:22.000Z</time>
      </trkpt>
      <trkpt lat="42.91518758051097393035888671875" lon="-8.01625094376504421234130859375">
        <ele>453.399993896484375</ele>
        <time>2019-07-26T11:52:24.000Z</time>
      </trkpt>
      <trkpt lat="42.91518372483551502227783203125" lon="-8.01623116247355937957763671875">
        <ele>453.399993896484375</ele>
        <time>2019-07-26T11:52:25.000Z</time>
      </trkpt>
      <trkpt lat="42.9151737503707408905029296875" lon="-8.01621305756270885467529296875">
        <ele>453.399993896484375</ele>
        <time>2019-07-26T11:52:26.000Z</time>
      </trkpt>
      <trkpt lat="42.91514684446156024932861328125" lon="-8.016186319291591644287109375">
        <ele>453.399993896484375</ele>
        <time>2019-07-26T11:52:28.000Z</time>
      </trkpt>
      <trkpt lat="42.91512002237141132354736328125" lon="-8.01615606062114238739013671875">
        <ele>453.399993896484375</ele>
        <time>2019-07-26T11:52:30.000Z</time>
      </trkpt>
      <trkpt lat="42.9150610975921154022216796875" lon="-8.01604558713734149932861328125">
        <ele>453.399993896484375</ele>
        <time>2019-07-26T11:52:38.000Z</time>
      </trkpt>
      <trkpt lat="42.91503855027258396148681640625" lon="-8.01595799624919891357421875">
        <ele>453.399993896484375</ele>
        <time>2019-07-26T11:52:43.000Z</time>
      </trkpt>
      <trkpt lat="42.91502480395138263702392578125" lon="-8.0158991552889347076416015625">
        <ele>453.399993896484375</ele>
        <time>2019-07-26T11:52:46.000Z</time>
      </trkpt>
      <trkpt lat="42.9150242172181606292724609375" lon="-8.01585917361080646514892578125">
        <ele>453.399993896484375</ele>
        <time>2019-07-26T11:52:48.000Z</time>
      </trkpt>
      <trkpt lat="42.9150024242699146270751953125" lon="-8.01584375090897083282470703125">
        <ele>453.399993896484375</ele>
        <time>2019-07-26T11:52:50.000Z</time>
      </trkpt>
      <trkpt lat="42.91497585363686084747314453125" lon="-8.0158371292054653167724609375">
        <ele>453.399993896484375</ele>
        <time>2019-07-26T11:52:51.000Z</time>
      </trkpt>
      <trkpt lat="42.91492539457976818084716796875" lon="-8.01581994630396366119384765625">
        <ele>453.399993896484375</ele>
        <time>2019-07-26T11:52:53.000Z</time>
      </trkpt>
      <trkpt lat="42.9148874245584011077880859375" lon="-8.01578138954937458038330078125">
        <ele>453.399993896484375</ele>
        <time>2019-07-26T11:52:55.000Z</time>
      </trkpt>
      <trkpt lat="42.9148626141250133514404296875" lon="-8.015741743147373199462890625">
        <ele>453.399993896484375</ele>
        <time>2019-07-26T11:52:57.000Z</time>
      </trkpt>
      <trkpt lat="42.91484107263386249542236328125" lon="-8.0156971514225006103515625">
        <ele>453.399993896484375</ele>
        <time>2019-07-26T11:52:59.000Z</time>
      </trkpt>
      <trkpt lat="42.91480368934571743011474609375" lon="-8.01564023829996585845947265625">
        <ele>453.600006103515625</ele>
        <time>2019-07-26T11:53:02.000Z</time>
      </trkpt>
      <trkpt lat="42.91481257416307926177978515625" lon="-8.015639483928680419921875">
        <ele>453.600006103515625</ele>
        <time>2019-07-26T11:53:06.000Z</time>
      </trkpt>
      <trkpt lat="42.91484962217509746551513671875" lon="-8.01567058078944683074951171875">
        <ele>453.600006103515625</ele>
        <time>2019-07-26T11:53:09.000Z</time>
      </trkpt>
      <trkpt lat="42.9148964770138263702392578125" lon="-8.0157060362398624420166015625">
        <ele>453.600006103515625</ele>
        <time>2019-07-26T11:53:12.000Z</time>
      </trkpt>
      <trkpt lat="42.91492941789329051971435546875" lon="-8.01572707481682300567626953125">
        <ele>453.600006103515625</ele>
        <time>2019-07-26T11:53:14.000Z</time>
      </trkpt>
      <trkpt lat="42.914960682392120361328125" lon="-8.01573897711932659149169921875">
        <ele>453.600006103515625</ele>
        <time>2019-07-26T11:53:17.000Z</time>
      </trkpt>
      <trkpt lat="42.91497115977108478546142578125" lon="-8.0157492868602275848388671875">
        <ele>453.600006103515625</ele>
        <time>2019-07-26T11:53:18.000Z</time>
      </trkpt>
      <trkpt lat="42.91497417725622653961181640625" lon="-8.01578843034803867340087890625">
        <ele>453.600006103515625</ele>
        <time>2019-07-26T11:53:20.000Z</time>
      </trkpt>
      <trkpt lat="42.91498037986457347869873046875" lon="-8.0158230476081371307373046875">
        <ele>453.399993896484375</ele>
        <time>2019-07-26T11:53:22.000Z</time>
      </trkpt>
      <trkpt lat="42.91498809121549129486083984375" lon="-8.0158634483814239501953125">
        <ele>453.399993896484375</ele>
        <time>2019-07-26T11:53:24.000Z</time>
      </trkpt>
      <trkpt lat="42.9149960540235042572021484375" lon="-8.01591248251497745513916015625">
        <ele>453.399993896484375</ele>
        <time>2019-07-26T11:53:26.000Z</time>
      </trkpt>
      <trkpt lat="42.915006615221500396728515625" lon="-8.015949614346027374267578125">
        <ele>453.399993896484375</ele>
        <time>2019-07-26T11:53:27.000Z</time>
      </trkpt>
      <trkpt lat="42.91501960717141628265380859375" lon="-8.01598691381514072418212890625">
        <ele>453.399993896484375</ele>
        <time>2019-07-26T11:53:28.000Z</time>
      </trkpt>
      <trkpt lat="42.91503804735839366912841796875" lon="-8.01602429710328578948974609375">
        <ele>453.399993896484375</ele>
        <time>2019-07-26T11:53:29.000Z</time>
      </trkpt>
      <trkpt lat="42.91505791246891021728515625" lon="-8.016059584915637969970703125">
        <ele>453.399993896484375</ele>
        <time>2019-07-26T11:53:30.000Z</time>
      </trkpt>
      <trkpt lat="42.9150946252048015594482421875" lon="-8.0161268077790737152099609375">
        <ele>453.600006103515625</ele>
        <time>2019-07-26T11:53:32.000Z</time>
      </trkpt>
      <trkpt lat="42.915127314627170562744140625" lon="-8.0161697231233119964599609375">
        <ele>453.600006103515625</ele>
        <time>2019-07-26T11:53:33.000Z</time>
      </trkpt>
      <trkpt lat="42.91514483280479907989501953125" lon="-8.01622076891362667083740234375">
        <ele>453.399993896484375</ele>
        <time>2019-07-26T11:53:34.000Z</time>
      </trkpt>
      <trkpt lat="42.91516059078276157379150390625" lon="-8.01626703701913356781005859375">
        <ele>453.399993896484375</ele>
        <time>2019-07-26T11:53:35.000Z</time>
      </trkpt>
      <trkpt lat="42.9151677154004573822021484375" lon="-8.0163148976862430572509765625">
        <ele>453.600006103515625</ele>
        <time>2019-07-26T11:53:36.000Z</time>
      </trkpt>
      <trkpt lat="42.91516226716339588165283203125" lon="-8.01640081219375133514404296875">
        <ele>453.600006103515625</ele>
        <time>2019-07-26T11:53:38.000Z</time>
      </trkpt>
      <trkpt lat="42.91515438817441463470458984375" lon="-8.016439788043498992919921875">
        <ele>453.600006103515625</ele>
        <time>2019-07-26T11:53:39.000Z</time>
      </trkpt>
      <trkpt lat="42.91513896547257900238037109375" lon="-8.01646736450493335723876953125">
        <ele>453.600006103515625</ele>
        <time>2019-07-26T11:53:40.000Z</time>
      </trkpt>
      <trkpt lat="42.91509118862450122833251953125" lon="-8.0165016464889049530029296875">
        <ele>453.600006103515625</ele>
        <time>2019-07-26T11:53:42.000Z</time>
      </trkpt>
      <trkpt lat="42.9150299169123172760009765625" lon="-8.0164855532348155975341796875">
        <ele>453.79998779296875</ele>
        <time>2019-07-26T11:53:45.000Z</time>
      </trkpt>
      <trkpt lat="42.9150104708969593048095703125" lon="-8.01647608168423175811767578125">
        <ele>453.79998779296875</ele>
        <time>2019-07-26T11:53:46.000Z</time>
      </trkpt>
      <trkpt lat="42.91491634212434291839599609375" lon="-8.01643031649291515350341796875">
        <ele>453.399993896484375</ele>
        <time>2019-07-26T11:53:50.000Z</time>
      </trkpt>
      <trkpt lat="42.914893627166748046875" lon="-8.016417659819126129150390625">
        <ele>453.399993896484375</ele>
        <time>2019-07-26T11:53:51.000Z</time>
      </trkpt>
      <trkpt lat="42.914872504770755767822265625" lon="-8.0164037458598613739013671875">
        <ele>453.600006103515625</ele>
        <time>2019-07-26T11:53:52.000Z</time>
      </trkpt>
      <trkpt lat="42.91475859470665454864501953125" lon="-8.01632973365485668182373046875">
        <ele>453.600006103515625</ele>
        <time>2019-07-26T11:53:58.000Z</time>
      </trkpt>
      <trkpt lat="42.9145860113203525543212890625" lon="-8.01627776585519313812255859375">
        <ele>453.79998779296875</ele>
        <time>2019-07-26T11:54:05.000Z</time>
      </trkpt>
      <trkpt lat="42.9145033657550811767578125" lon="-8.01625178195536136627197265625">
        <ele>454</ele>
        <time>2019-07-26T11:54:09.000Z</time>
      </trkpt>
      <trkpt lat="42.914472855627536773681640625" lon="-8.01624205894768238067626953125">
        <ele>454</ele>
        <time>2019-07-26T11:54:10.000Z</time>
      </trkpt>
      <trkpt lat="42.91438736021518707275390625" lon="-8.0162106268107891082763671875">
        <ele>454.20001220703125</ele>
        <time>2019-07-26T11:54:13.000Z</time>
      </trkpt>
      <trkpt lat="42.91428870521485805511474609375" lon="-8.01619897596538066864013671875">
        <ele>454.20001220703125</ele>
        <time>2019-07-26T11:54:17.000Z</time>
      </trkpt>
      <trkpt lat="42.91426674462854862213134765625" lon="-8.0161308310925960540771484375">
        <ele>454.600006103515625</ele>
        <time>2019-07-26T11:54:19.000Z</time>
      </trkpt>
      <trkpt lat="42.9142698459327220916748046875" lon="-8.01607056520879268646240234375">
        <ele>455.20001220703125</ele>
        <time>2019-07-26T11:54:21.000Z</time>
      </trkpt>
      <trkpt lat="42.9142721928656101226806640625" lon="-8.01603536121547222137451171875">
        <ele>455.399993896484375</ele>
        <time>2019-07-26T11:54:22.000Z</time>
      </trkpt>
      <trkpt lat="42.91428401134908199310302734375" lon="-8.01584928296506404876708984375">
        <ele>455.79998779296875</ele>
        <time>2019-07-26T11:54:27.000Z</time>
      </trkpt>
      <trkpt lat="42.91429440490901470184326171875" lon="-8.0156580917537212371826171875">
        <ele>456</ele>
        <time>2019-07-26T11:54:32.000Z</time>
      </trkpt>
      <trkpt lat="42.9142933152616024017333984375" lon="-8.01568483002483844757080078125">
        <ele>456</ele>
        <time>2019-07-26T11:54:35.000Z</time>
      </trkpt>
      <trkpt lat="42.91428836993873119354248046875" lon="-8.0157110653817653656005859375">
        <ele>456</ele>
        <time>2019-07-26T11:54:36.000Z</time>
      </trkpt>
      <trkpt lat="42.9142815805971622467041015625" lon="-8.01580804400146007537841796875">
        <ele>456</ele>
        <time>2019-07-26T11:54:40.000Z</time>
      </trkpt>
      <trkpt lat="42.9142711870372295379638671875" lon="-8.01604240201413631439208984375">
        <ele>456</ele>
        <time>2019-07-26T11:54:46.000Z</time>
      </trkpt>
      <trkpt lat="42.91421913541853427886962890625" lon="-8.016363680362701416015625">
        <ele>456.20001220703125</ele>
        <time>2019-07-26T11:54:53.000Z</time>
      </trkpt>
      <trkpt lat="42.91420488618314266204833984375" lon="-8.01653995178639888763427734375">
        <ele>456.20001220703125</ele>
        <time>2019-07-26T11:54:56.000Z</time>
      </trkpt>
      <trkpt lat="42.9141866974532604217529296875" lon="-8.01669786684215068817138671875">
        <ele>456.20001220703125</ele>
        <time>2019-07-26T11:54:58.000Z</time>
      </trkpt>
      <trkpt lat="42.9141139425337314605712890625" lon="-8.0172794871032238006591796875">
        <ele>455</ele>
        <time>2019-07-26T11:55:05.000Z</time>
      </trkpt>
      <trkpt lat="42.91409608907997608184814453125" lon="-8.0173587799072265625">
        <ele>454.79998779296875</ele>
        <time>2019-07-26T11:55:06.000Z</time>
      </trkpt>
      <trkpt lat="42.91406440548598766326904296875" lon="-8.0175064690411090850830078125">
        <ele>454.20001220703125</ele>
        <time>2019-07-26T11:55:08.000Z</time>
      </trkpt>
      <trkpt lat="42.9140442050993442535400390625" lon="-8.0177066288888454437255859375">
        <ele>453.600006103515625</ele>
        <time>2019-07-26T11:55:11.000Z</time>
      </trkpt>
      <trkpt lat="42.91403062641620635986328125" lon="-8.01780042238533496856689453125">
        <ele>453.20001220703125</ele>
        <time>2019-07-26T11:55:13.000Z</time>
      </trkpt>
      <trkpt lat="42.91402316652238368988037109375" lon="-8.01783260889351367950439453125">
        <ele>453</ele>
        <time>2019-07-26T11:55:14.000Z</time>
      </trkpt>
      <trkpt lat="42.91401210241019725799560546875" lon="-8.01786211319267749786376953125">
        <ele>453</ele>
        <time>2019-07-26T11:55:15.000Z</time>
      </trkpt>
      <trkpt lat="42.91397991590201854705810546875" lon="-8.01800443790853023529052734375">
        <ele>452.79998779296875</ele>
        <time>2019-07-26T11:55:19.000Z</time>
      </trkpt>
      <trkpt lat="42.91397161781787872314453125" lon="-8.01804198883473873138427734375">
        <ele>452.79998779296875</ele>
        <time>2019-07-26T11:55:20.000Z</time>
      </trkpt>
      <trkpt lat="42.9139590449631214141845703125" lon="-8.01807417534291744232177734375">
        <ele>452.79998779296875</ele>
        <time>2019-07-26T11:55:21.000Z</time>
      </trkpt>
      <trkpt lat="42.913941107690334320068359375" lon="-8.018101751804351806640625">
        <ele>452.79998779296875</ele>
        <time>2019-07-26T11:55:22.000Z</time>
      </trkpt>
      <trkpt lat="42.9139255173504352569580078125" lon="-8.01818984560668468475341796875">
        <ele>453</ele>
        <time>2019-07-26T11:55:25.000Z</time>
      </trkpt>
      <trkpt lat="42.91391503997147083282470703125" lon="-8.01822018809616565704345703125">
        <ele>453.20001220703125</ele>
        <time>2019-07-26T11:55:26.000Z</time>
      </trkpt>
      <trkpt lat="42.9138923250138759613037109375" lon="-8.01828481256961822509765625">
        <ele>453.399993896484375</ele>
        <time>2019-07-26T11:55:28.000Z</time>
      </trkpt>
      <trkpt lat="42.91387128643691539764404296875" lon="-8.018352873623371124267578125">
        <ele>453.79998779296875</ele>
        <time>2019-07-26T11:55:30.000Z</time>
      </trkpt>
      <trkpt lat="42.91385494172573089599609375" lon="-8.0184281431138515472412109375">
        <ele>454.20001220703125</ele>
        <time>2019-07-26T11:55:32.000Z</time>
      </trkpt>
      <trkpt lat="42.91384664364159107208251953125" lon="-8.0184625089168548583984375">
        <ele>454.399993896484375</ele>
        <time>2019-07-26T11:55:33.000Z</time>
      </trkpt>
      <trkpt lat="42.91383055038750171661376953125" lon="-8.0185314081609249114990234375">
        <ele>454.79998779296875</ele>
        <time>2019-07-26T11:55:35.000Z</time>
      </trkpt>
      <trkpt lat="42.91382166557013988494873046875" lon="-8.018570803105831146240234375">
        <ele>455.20001220703125</ele>
        <time>2019-07-26T11:55:36.000Z</time>
      </trkpt>
      <trkpt lat="42.91379467584192752838134765625" lon="-8.0187164805829524993896484375">
        <ele>456.600006103515625</ele>
        <time>2019-07-26T11:55:40.000Z</time>
      </trkpt>
      <trkpt lat="42.91380205191671848297119140625" lon="-8.01875931210815906524658203125">
        <ele>456.79998779296875</ele>
        <time>2019-07-26T11:55:41.000Z</time>
      </trkpt>
      <trkpt lat="42.91380666196346282958984375" lon="-8.018815219402313232421875">
        <ele>457.600006103515625</ele>
        <time>2019-07-26T11:55:43.000Z</time>
      </trkpt>
      <trkpt lat="42.9137893952429294586181640625" lon="-8.0188526026904582977294921875">
        <ele>458.20001220703125</ele>
        <time>2019-07-26T11:55:45.000Z</time>
      </trkpt>
      <trkpt lat="42.9137823544442653656005859375" lon="-8.018905408680438995361328125">
        <ele>458.79998779296875</ele>
        <time>2019-07-26T11:55:47.000Z</time>
      </trkpt>
      <trkpt lat="42.91379266418516635894775390625" lon="-8.0189659260213375091552734375">
        <ele>459.600006103515625</ele>
        <time>2019-07-26T11:55:49.000Z</time>
      </trkpt>
      <trkpt lat="42.91379048489034175872802734375" lon="-8.01899786107242107391357421875">
        <ele>460.20001220703125</ele>
        <time>2019-07-26T11:55:50.000Z</time>
      </trkpt>
      <trkpt lat="42.9137709550559520721435546875" lon="-8.01909894682466983795166015625">
        <ele>461.399993896484375</ele>
        <time>2019-07-26T11:55:53.000Z</time>
      </trkpt>
      <trkpt lat="42.91377338580787181854248046875" lon="-8.01914152689278125762939453125">
        <ele>462</ele>
        <time>2019-07-26T11:55:54.000Z</time>
      </trkpt>
      <trkpt lat="42.91375930421054363250732421875" lon="-8.019282929599285125732421875">
        <ele>462.600006103515625</ele>
        <time>2019-07-26T11:55:57.000Z</time>
      </trkpt>
      <trkpt lat="42.91372912935912609100341796875" lon="-8.01939130760729312896728515625">
        <ele>463.20001220703125</ele>
        <time>2019-07-26T11:55:59.000Z</time>
      </trkpt>
      <trkpt lat="42.913619913160800933837890625" lon="-8.01972490735352039337158203125">
        <ele>463.399993896484375</ele>
        <time>2019-07-26T11:56:04.000Z</time>
      </trkpt>
      <trkpt lat="42.9135838709771633148193359375" lon="-8.019798584282398223876953125">
        <ele>463.399993896484375</ele>
        <time>2019-07-26T11:56:05.000Z</time>
      </trkpt>
      <trkpt lat="42.91345235891640186309814453125" lon="-8.0199979059398174285888671875">
        <ele>463.399993896484375</ele>
        <time>2019-07-26T11:56:08.000Z</time>
      </trkpt>
      <trkpt lat="42.91336904279887676239013671875" lon="-8.020140565931797027587890625">
        <ele>463.20001220703125</ele>
        <time>2019-07-26T11:56:10.000Z</time>
      </trkpt>
      <trkpt lat="42.913273908197879791259765625" lon="-8.02038372494280338287353515625">
        <ele>462.20001220703125</ele>
        <time>2019-07-26T11:56:13.000Z</time>
      </trkpt>
      <trkpt lat="42.913227975368499755859375" lon="-8.0204679630696773529052734375">
        <ele>461.79998779296875</ele>
        <time>2019-07-26T11:56:14.000Z</time>
      </trkpt>
      <trkpt lat="42.91317961178719997406005859375" lon="-8.02055203355848789215087890625">
        <ele>461.600006103515625</ele>
        <time>2019-07-26T11:56:15.000Z</time>
      </trkpt>
      <trkpt lat="42.91313284076750278472900390625" lon="-8.0206409655511379241943359375">
        <ele>461.600006103515625</ele>
        <time>2019-07-26T11:56:16.000Z</time>
      </trkpt>
      <trkpt lat="42.91301666758954524993896484375" lon="-8.020892925560474395751953125">
        <ele>460.79998779296875</ele>
        <time>2019-07-26T11:56:19.000Z</time>
      </trkpt>
      <trkpt lat="42.91298598982393741607666015625" lon="-8.0209743976593017578125">
        <ele>460.399993896484375</ele>
        <time>2019-07-26T11:56:20.000Z</time>
      </trkpt>
      <trkpt lat="42.9129575751721858978271484375" lon="-8.02105947397649288177490234375">
        <ele>459</ele>
        <time>2019-07-26T11:56:21.000Z</time>
      </trkpt>
      <trkpt lat="42.91289814747869968414306640625" lon="-8.02123683504760265350341796875">
        <ele>457.20001220703125</ele>
        <time>2019-07-26T11:56:23.000Z</time>
      </trkpt>
      <trkpt lat="42.91285355575382709503173828125" lon="-8.02132777869701385498046875">
        <ele>456.399993896484375</ele>
        <time>2019-07-26T11:56:24.000Z</time>
      </trkpt>
      <trkpt lat="42.9128033481538295745849609375" lon="-8.02142039872705936431884765625">
        <ele>455.399993896484375</ele>
        <time>2019-07-26T11:56:25.000Z</time>
      </trkpt>
      <trkpt lat="42.91275263763964176177978515625" lon="-8.0215143598616123199462890625">
        <ele>454.20001220703125</ele>
        <time>2019-07-26T11:56:26.000Z</time>
      </trkpt>
      <trkpt lat="42.91270561516284942626953125" lon="-8.02161502651870250701904296875">
        <ele>453</ele>
        <time>2019-07-26T11:56:27.000Z</time>
      </trkpt>
      <trkpt lat="42.91266982443630695343017578125" lon="-8.0217282660305500030517578125">
        <ele>451.600006103515625</ele>
        <time>2019-07-26T11:56:28.000Z</time>
      </trkpt>
      <trkpt lat="42.9126343689858913421630859375" lon="-8.02183664403855800628662109375">
        <ele>450.399993896484375</ele>
        <time>2019-07-26T11:56:29.000Z</time>
      </trkpt>
      <trkpt lat="42.91260235011577606201171875" lon="-8.0219386518001556396484375">
        <ele>449</ele>
        <time>2019-07-26T11:56:30.000Z</time>
      </trkpt>
      <trkpt lat="42.91256974451243877410888671875" lon="-8.0220296792685985565185546875">
        <ele>447.600006103515625</ele>
        <time>2019-07-26T11:56:31.000Z</time>
      </trkpt>
      <trkpt lat="42.91253127157688140869140625" lon="-8.02210000343620777130126953125">
        <ele>446</ele>
        <time>2019-07-26T11:56:32.000Z</time>
      </trkpt>
      <trkpt lat="42.91250704787671566009521484375" lon="-8.02215415053069591522216796875">
        <ele>444.20001220703125</ele>
        <time>2019-07-26T11:56:33.000Z</time>
      </trkpt>
      <trkpt lat="42.9124989174306392669677734375" lon="-8.02220226265490055084228515625">
        <ele>442.399993896484375</ele>
        <time>2019-07-26T11:56:34.000Z</time>
      </trkpt>
      <trkpt lat="42.912496738135814666748046875" lon="-8.0222497880458831787109375">
        <ele>440.79998779296875</ele>
        <time>2019-07-26T11:56:35.000Z</time>
      </trkpt>
      <trkpt lat="42.9125022701919078826904296875" lon="-8.02229915745556354522705078125">
        <ele>439.20001220703125</ele>
        <time>2019-07-26T11:56:36.000Z</time>
      </trkpt>
      <trkpt lat="42.9125140048563480377197265625" lon="-8.02235682494938373565673828125">
        <ele>437.79998779296875</ele>
        <time>2019-07-26T11:56:37.000Z</time>
      </trkpt>
      <trkpt lat="42.91253152303397655487060546875" lon="-8.0224187672138214111328125">
        <ele>436.399993896484375</ele>
        <time>2019-07-26T11:56:38.000Z</time>
      </trkpt>
      <trkpt lat="42.91255013085901737213134765625" lon="-8.0224823020398616790771484375">
        <ele>435.20001220703125</ele>
        <time>2019-07-26T11:56:39.000Z</time>
      </trkpt>
      <trkpt lat="42.9125679843127727508544921875" lon="-8.02255212329328060150146484375">
        <ele>434.20001220703125</ele>
        <time>2019-07-26T11:56:40.000Z</time>
      </trkpt>
      <trkpt lat="42.91257980279624462127685546875" lon="-8.022669889032840728759765625">
        <ele>432.399993896484375</ele>
        <time>2019-07-26T11:56:42.000Z</time>
      </trkpt>
      <trkpt lat="42.9125649668276309967041015625" lon="-8.02270685322582721710205078125">
        <ele>431.600006103515625</ele>
        <time>2019-07-26T11:56:43.000Z</time>
      </trkpt>
      <trkpt lat="42.91253671981394290924072265625" lon="-8.02271355874836444854736328125">
        <ele>431.399993896484375</ele>
        <time>2019-07-26T11:56:44.000Z</time>
      </trkpt>
      <trkpt lat="42.9125119931995868682861328125" lon="-8.022688329219818115234375">
        <ele>431</ele>
        <time>2019-07-26T11:56:45.000Z</time>
      </trkpt>
      <trkpt lat="42.912420295178890228271484375" lon="-8.02261230535805225372314453125">
        <ele>430.20001220703125</ele>
        <time>2019-07-26T11:56:49.000Z</time>
      </trkpt>
      <trkpt lat="42.9123922996222972869873046875" lon="-8.02264616824686527252197265625">
        <ele>429.79998779296875</ele>
        <time>2019-07-26T11:56:50.000Z</time>
      </trkpt>
      <trkpt lat="42.91233320720493793487548828125" lon="-8.022741638123989105224609375">
        <ele>429.20001220703125</ele>
        <time>2019-07-26T11:56:52.000Z</time>
      </trkpt>
      <trkpt lat="42.9123014397919178009033203125" lon="-8.02279360592365264892578125">
        <ele>429</ele>
        <time>2019-07-26T11:56:53.000Z</time>
      </trkpt>
      <trkpt lat="42.91215484030544757843017578125" lon="-8.0230117030441761016845703125">
        <ele>428.79998779296875</ele>
        <time>2019-07-26T11:56:57.000Z</time>
      </trkpt>
      <trkpt lat="42.912032045423984527587890625" lon="-8.02319048903882503509521484375">
        <ele>428.600006103515625</ele>
        <time>2019-07-26T11:57:00.000Z</time>
      </trkpt>
      <trkpt lat="42.91177229024469852447509765625" lon="-8.0235739611089229583740234375">
        <ele>428.399993896484375</ele>
        <time>2019-07-26T11:57:06.000Z</time>
      </trkpt>
      <trkpt lat="42.91168394498527050018310546875" lon="-8.0237074010074138641357421875">
        <ele>428.20001220703125</ele>
        <time>2019-07-26T11:57:08.000Z</time>
      </trkpt>
      <trkpt lat="42.911638431251049041748046875" lon="-8.02377353422343730926513671875">
        <ele>428</ele>
        <time>2019-07-26T11:57:09.000Z</time>
      </trkpt>
      <trkpt lat="42.91127893142402172088623046875" lon="-8.02428633905947208404541015625">
        <ele>427.600006103515625</ele>
        <time>2019-07-26T11:57:17.000Z</time>
      </trkpt>
      <trkpt lat="42.91119008325040340423583984375" lon="-8.024399243295192718505859375">
        <ele>427.399993896484375</ele>
        <time>2019-07-26T11:57:19.000Z</time>
      </trkpt>
      <trkpt lat="42.91113979183137416839599609375" lon="-8.02451851777732372283935546875">
        <ele>427.399993896484375</ele>
        <time>2019-07-26T11:57:21.000Z</time>
      </trkpt>
      <trkpt lat="42.91114901192486286163330078125" lon="-8.02463754080235958099365234375">
        <ele>427.20001220703125</ele>
        <time>2019-07-26T11:57:23.000Z</time>
      </trkpt>
      <trkpt lat="42.9111591540277004241943359375" lon="-8.024694956839084625244140625">
        <ele>427.20001220703125</ele>
        <time>2019-07-26T11:57:24.000Z</time>
      </trkpt>
      <trkpt lat="42.91116393171250820159912109375" lon="-8.02478942088782787322998046875">
        <ele>427</ele>
        <time>2019-07-26T11:57:26.000Z</time>
      </trkpt>
      <trkpt lat="42.91116644628345966339111328125" lon="-8.0248366110026836395263671875">
        <ele>426.600006103515625</ele>
        <time>2019-07-26T11:57:28.000Z</time>
      </trkpt>
      <trkpt lat="42.911169044673442840576171875" lon="-8.0248379521071910858154296875">
        <ele>426.20001220703125</ele>
        <time>2019-07-26T11:57:30.000Z</time>
      </trkpt>
      <trkpt lat="42.911219336092472076416015625" lon="-8.024914897978305816650390625">
        <ele>423.600006103515625</ele>
        <time>2019-07-26T11:58:30.000Z</time>
      </trkpt>
      <trkpt lat="42.91123685427010059356689453125" lon="-8.02493325434625148773193359375">
        <ele>423.600006103515625</ele>
        <time>2019-07-26T11:58:31.000Z</time>
      </trkpt>
      <trkpt lat="42.91129385121166706085205078125" lon="-8.02500508725643157958984375">
        <ele>423.600006103515625</ele>
        <time>2019-07-26T11:58:34.000Z</time>
      </trkpt>
      <trkpt lat="42.911346741020679473876953125" lon="-8.02513056434690952301025390625">
        <ele>423.600006103515625</ele>
        <time>2019-07-26T11:58:37.000Z</time>
      </trkpt>
      <trkpt lat="42.91142611764371395111083984375" lon="-8.02537598647177219390869140625">
        <ele>423.399993896484375</ele>
        <time>2019-07-26T11:58:41.000Z</time>
      </trkpt>
      <trkpt lat="42.91144095361232757568359375" lon="-8.0254491604864597320556640625">
        <ele>423.399993896484375</ele>
        <time>2019-07-26T11:58:42.000Z</time>
      </trkpt>
      <trkpt lat="42.91154530830681324005126953125" lon="-8.02580497227609157562255859375">
        <ele>422.79998779296875</ele>
        <time>2019-07-26T11:58:47.000Z</time>
      </trkpt>
      <trkpt lat="42.91158637963235378265380859375" lon="-8.02597730420529842376708984375">
        <ele>422.399993896484375</ele>
        <time>2019-07-26T11:58:49.000Z</time>
      </trkpt>
      <trkpt lat="42.91164387948811054229736328125" lon="-8.0262350477278232574462890625">
        <ele>421.20001220703125</ele>
        <time>2019-07-26T11:58:52.000Z</time>
      </trkpt>
      <trkpt lat="42.911672294139862060546875" lon="-8.02632800303399562835693359375">
        <ele>420.79998779296875</ele>
        <time>2019-07-26T11:58:53.000Z</time>
      </trkpt>
      <trkpt lat="42.91170925833284854888916015625" lon="-8.026422969996929168701171875">
        <ele>420.399993896484375</ele>
        <time>2019-07-26T11:58:54.000Z</time>
      </trkpt>
      <trkpt lat="42.91178452782332897186279296875" lon="-8.026608712971210479736328125">
        <ele>420</ele>
        <time>2019-07-26T11:58:56.000Z</time>
      </trkpt>
      <trkpt lat="42.9118595458567142486572265625" lon="-8.026793785393238067626953125">
        <ele>419.399993896484375</ele>
        <time>2019-07-26T11:58:58.000Z</time>
      </trkpt>
      <trkpt lat="42.91188645176589488983154296875" lon="-8.026895038783550262451171875">
        <ele>418.79998779296875</ele>
        <time>2019-07-26T11:58:59.000Z</time>
      </trkpt>
      <trkpt lat="42.9119946621358394622802734375" lon="-8.02728638984262943267822265625">
        <ele>417.79998779296875</ele>
        <time>2019-07-26T11:59:03.000Z</time>
      </trkpt>
      <trkpt lat="42.9120117612183094024658203125" lon="-8.027385883033275604248046875">
        <ele>417.20001220703125</ele>
        <time>2019-07-26T11:59:04.000Z</time>
      </trkpt>
      <trkpt lat="42.912026345729827880859375" lon="-8.02748403511941432952880859375">
        <ele>416.399993896484375</ele>
        <time>2019-07-26T11:59:05.000Z</time>
      </trkpt>
      <trkpt lat="42.912032045423984527587890625" lon="-8.02767698653042316436767578125">
        <ele>415.399993896484375</ele>
        <time>2019-07-26T11:59:07.000Z</time>
      </trkpt>
      <trkpt lat="42.9120345599949359893798828125" lon="-8.02785736508667469024658203125">
        <ele>415.20001220703125</ele>
        <time>2019-07-26T11:59:09.000Z</time>
      </trkpt>
      <trkpt lat="42.91204403154551982879638671875" lon="-8.0280203931033611297607421875">
        <ele>415</ele>
        <time>2019-07-26T11:59:11.000Z</time>
      </trkpt>
      <trkpt lat="42.9120536707341670989990234375" lon="-8.02816816605627536773681640625">
        <ele>415</ele>
        <time>2019-07-26T11:59:13.000Z</time>
      </trkpt>
      <trkpt lat="42.91207219474017620086669921875" lon="-8.02830688655376434326171875">
        <ele>415</ele>
        <time>2019-07-26T11:59:15.000Z</time>
      </trkpt>
      <trkpt lat="42.91209499351680278778076171875" lon="-8.02843890152871608734130859375">
        <ele>415</ele>
        <time>2019-07-26T11:59:17.000Z</time>
      </trkpt>
      <trkpt lat="42.9121029563248157501220703125" lon="-8.0285759456455707550048828125">
        <ele>415.20001220703125</ele>
        <time>2019-07-26T11:59:19.000Z</time>
      </trkpt>
      <trkpt lat="42.9121073149144649505615234375" lon="-8.02869237028062343597412109375">
        <ele>415.20001220703125</ele>
        <time>2019-07-26T11:59:21.000Z</time>
      </trkpt>
      <trkpt lat="42.91212030686438083648681640625" lon="-8.028755486011505126953125">
        <ele>415.399993896484375</ele>
        <time>2019-07-26T11:59:22.000Z</time>
      </trkpt>
      <trkpt lat="42.9121626354753971099853515625" lon="-8.028965033590793609619140625">
        <ele>415.79998779296875</ele>
        <time>2019-07-26T11:59:25.000Z</time>
      </trkpt>
      <trkpt lat="42.91217428632080554962158203125" lon="-8.0290419794619083404541015625">
        <ele>415.79998779296875</ele>
        <time>2019-07-26T11:59:26.000Z</time>
      </trkpt>
      <trkpt lat="42.9122089035809040069580078125" lon="-8.02926803939044475555419921875">
        <ele>416.20001220703125</ele>
        <time>2019-07-26T11:59:29.000Z</time>
      </trkpt>
      <trkpt lat="42.91221485473215579986572265625" lon="-8.02933978848159313201904296875">
        <ele>416.20001220703125</ele>
        <time>2019-07-26T11:59:30.000Z</time>
      </trkpt>
      <trkpt lat="42.91221284307539463043212890625" lon="-8.02948563359677791595458984375">
        <ele>416.79998779296875</ele>
        <time>2019-07-26T11:59:32.000Z</time>
      </trkpt>
      <trkpt lat="42.912214100360870361328125" lon="-8.02955570630729198455810546875">
        <ele>416.79998779296875</ele>
        <time>2019-07-26T11:59:33.000Z</time>
      </trkpt>
      <trkpt lat="42.91221468709409236907958984375" lon="-8.02983113564550876617431640625">
        <ele>417.20001220703125</ele>
        <time>2019-07-26T11:59:37.000Z</time>
      </trkpt>
      <trkpt lat="42.9122001864016056060791015625" lon="-8.03021033294498920440673828125">
        <ele>417.399993896484375</ele>
        <time>2019-07-26T11:59:42.000Z</time>
      </trkpt>
      <trkpt lat="42.91220630519092082977294921875" lon="-8.030286692082881927490234375">
        <ele>417.399993896484375</ele>
        <time>2019-07-26T11:59:43.000Z</time>
      </trkpt>
      <trkpt lat="42.91219331324100494384765625" lon="-8.03067334927618503570556640625">
        <ele>417.399993896484375</ele>
        <time>2019-07-26T11:59:48.000Z</time>
      </trkpt>
      <trkpt lat="42.91218736208975315093994140625" lon="-8.03074090741574764251708984375">
        <ele>417.399993896484375</ele>
        <time>2019-07-26T11:59:49.000Z</time>
      </trkpt>
      <trkpt lat="42.9121321253478527069091796875" lon="-8.03120861761271953582763671875">
        <ele>417.20001220703125</ele>
        <time>2019-07-26T11:59:55.000Z</time>
      </trkpt>
      <trkpt lat="42.91206431575119495391845703125" lon="-8.0315488390624523162841796875">
        <ele>417</ele>
        <time>2019-07-26T11:59:59.000Z</time>
      </trkpt>
      <trkpt lat="42.912011258304119110107421875" lon="-8.03188922815024852752685546875">
        <ele>416.20001220703125</ele>
        <time>2019-07-26T12:00:03.000Z</time>
      </trkpt>
      <trkpt lat="42.9120117612183094024658203125" lon="-8.03197002969682216644287109375">
        <ele>416.20001220703125</ele>
        <time>2019-07-26T12:00:04.000Z</time>
      </trkpt>
      <trkpt lat="42.91204704903066158294677734375" lon="-8.03226775489747524261474609375">
        <ele>416</ele>
        <time>2019-07-26T12:00:08.000Z</time>
      </trkpt>
      <trkpt lat="42.9120694287121295928955078125" lon="-8.03241175599396228790283203125">
        <ele>416</ele>
        <time>2019-07-26T12:00:10.000Z</time>
      </trkpt>
      <trkpt lat="42.9120580293238162994384765625" lon="-8.032543100416660308837890625">
        <ele>416</ele>
        <time>2019-07-26T12:00:12.000Z</time>
      </trkpt>
      <trkpt lat="42.91203103959560394287109375" lon="-8.03273177705705165863037109375">
        <ele>416.20001220703125</ele>
        <time>2019-07-26T12:00:15.000Z</time>
      </trkpt>
      <trkpt lat="42.91202894411981105804443359375" lon="-8.0327927134931087493896484375">
        <ele>416.399993896484375</ele>
        <time>2019-07-26T12:00:16.000Z</time>
      </trkpt>
      <trkpt lat="42.91202542372047901153564453125" lon="-8.03290796466171741485595703125">
        <ele>416.79998779296875</ele>
        <time>2019-07-26T12:00:18.000Z</time>
      </trkpt>
      <trkpt lat="42.91202961467206478118896484375" lon="-8.03308364935219287872314453125">
        <ele>418</ele>
        <time>2019-07-26T12:00:21.000Z</time>
      </trkpt>
      <trkpt lat="42.91202877648174762725830078125" lon="-8.03324776701629161834716796875">
        <ele>418.600006103515625</ele>
        <time>2019-07-26T12:00:24.000Z</time>
      </trkpt>
      <trkpt lat="42.91203548200428485870361328125" lon="-8.0334267206490039825439453125">
        <ele>419</ele>
        <time>2019-07-26T12:00:28.000Z</time>
      </trkpt>
      <trkpt lat="42.91205920279026031494140625" lon="-8.0336835421621799468994140625">
        <ele>420.399993896484375</ele>
        <time>2019-07-26T12:00:33.000Z</time>
      </trkpt>
      <trkpt lat="42.91207395493984222412109375" lon="-8.03377012722194194793701171875">
        <ele>420.79998779296875</ele>
        <time>2019-07-26T12:00:35.000Z</time>
      </trkpt>
      <trkpt lat="42.9121054708957672119140625" lon="-8.03397045470774173736572265625">
        <ele>421.399993896484375</ele>
        <time>2019-07-26T12:00:39.000Z</time>
      </trkpt>
      <trkpt lat="42.9121140204370021820068359375" lon="-8.034092076122760772705078125">
        <ele>421.600006103515625</ele>
        <time>2019-07-26T12:00:41.000Z</time>
      </trkpt>
      <trkpt lat="42.9121562652289867401123046875" lon="-8.0343304574489593505859375">
        <ele>422.399993896484375</ele>
        <time>2019-07-26T12:00:45.000Z</time>
      </trkpt>
      <trkpt lat="42.912193648517131805419921875" lon="-8.03449063561856746673583984375">
        <ele>422.79998779296875</ele>
        <time>2019-07-26T12:00:48.000Z</time>
      </trkpt>
      <trkpt lat="42.9122476279735565185546875" lon="-8.0346967466175556182861328125">
        <ele>423.600006103515625</ele>
        <time>2019-07-26T12:00:52.000Z</time>
      </trkpt>
      <trkpt lat="42.9122846759855747222900390625" lon="-8.0347956530749797821044921875">
        <ele>424</ele>
        <time>2019-07-26T12:00:54.000Z</time>
      </trkpt>
      <trkpt lat="42.91230001486837863922119140625" lon="-8.03484971635043621063232421875">
        <ele>424.600006103515625</ele>
        <time>2019-07-26T12:00:55.000Z</time>
      </trkpt>
      <trkpt lat="42.91236371733248233795166015625" lon="-8.0351275764405727386474609375">
        <ele>425.399993896484375</ele>
        <time>2019-07-26T12:01:00.000Z</time>
      </trkpt>
      <trkpt lat="42.91244870983064174652099609375" lon="-8.0354980565607547760009765625">
        <ele>425.600006103515625</ele>
        <time>2019-07-26T12:01:07.000Z</time>
      </trkpt>
      <trkpt lat="42.9125257395207881927490234375" lon="-8.03575831465423107147216796875">
        <ele>425.600006103515625</ele>
        <time>2019-07-26T12:01:11.000Z</time>
      </trkpt>
      <trkpt lat="42.91255717165768146514892578125" lon="-8.03590684197843074798583984375">
        <ele>425.600006103515625</ele>
        <time>2019-07-26T12:01:13.000Z</time>
      </trkpt>
      <trkpt lat="42.912569157779216766357421875" lon="-8.035990409553050994873046875">
        <ele>425.600006103515625</ele>
        <time>2019-07-26T12:01:14.000Z</time>
      </trkpt>
      <trkpt lat="42.9125669784843921661376953125" lon="-8.0362480692565441131591796875">
        <ele>425.399993896484375</ele>
        <time>2019-07-26T12:01:17.000Z</time>
      </trkpt>
      <trkpt lat="42.91256471537053585052490234375" lon="-8.03655711002647876739501953125">
        <ele>425.399993896484375</ele>
        <time>2019-07-26T12:01:21.000Z</time>
      </trkpt>
      <trkpt lat="42.91258047334849834442138671875" lon="-8.036701865494251251220703125">
        <ele>425.399993896484375</ele>
        <time>2019-07-26T12:01:23.000Z</time>
      </trkpt>
      <trkpt lat="42.9125978238880634307861328125" lon="-8.03683631122112274169921875">
        <ele>425.399993896484375</ele>
        <time>2019-07-26T12:01:25.000Z</time>
      </trkpt>
      <trkpt lat="42.912609390914440155029296875" lon="-8.036899678409099578857421875">
        <ele>425.399993896484375</ele>
        <time>2019-07-26T12:01:26.000Z</time>
      </trkpt>
      <trkpt lat="42.9126216284930706024169921875" lon="-8.03696162067353725433349609375">
        <ele>425.399993896484375</ele>
        <time>2019-07-26T12:01:27.000Z</time>
      </trkpt>
      <trkpt lat="42.91265507228672504425048828125" lon="-8.03708684630692005157470703125">
        <ele>425.20001220703125</ele>
        <time>2019-07-26T12:01:29.000Z</time>
      </trkpt>
      <trkpt lat="42.912675105035305023193359375" lon="-8.0371489562094211578369140625">
        <ele>425</ele>
        <time>2019-07-26T12:01:30.000Z</time>
      </trkpt>
      <trkpt lat="42.91272841393947601318359375" lon="-8.03732338361442089080810546875">
        <ele>424.399993896484375</ele>
        <time>2019-07-26T12:01:33.000Z</time>
      </trkpt>
      <trkpt lat="42.91276789270341396331787109375" lon="-8.0374255590140819549560546875">
        <ele>424.20001220703125</ele>
        <time>2019-07-26T12:01:35.000Z</time>
      </trkpt>
      <trkpt lat="42.91280376724898815155029296875" lon="-8.03752739913761615753173828125">
        <ele>423.79998779296875</ele>
        <time>2019-07-26T12:01:37.000Z</time>
      </trkpt>
      <trkpt lat="42.91292882524430751800537109375" lon="-8.0377772636711597442626953125">
        <ele>423.600006103515625</ele>
        <time>2019-07-26T12:01:43.000Z</time>
      </trkpt>
      <trkpt lat="42.91296469978988170623779296875" lon="-8.03789117373526096343994140625">
        <ele>423.600006103515625</ele>
        <time>2019-07-26T12:01:46.000Z</time>
      </trkpt>
      <trkpt lat="42.91299085132777690887451171875" lon="-8.03796091116964817047119140625">
        <ele>423.600006103515625</ele>
        <time>2019-07-26T12:01:48.000Z</time>
      </trkpt>
      <trkpt lat="42.9130316711962223052978515625" lon="-8.03803416900336742401123046875">
        <ele>423.600006103515625</ele>
        <time>2019-07-26T12:01:50.000Z</time>
      </trkpt>
      <trkpt lat="42.91306276805698871612548828125" lon="-8.0381105281412601470947265625">
        <ele>423.600006103515625</ele>
        <time>2019-07-26T12:01:52.000Z</time>
      </trkpt>
      <trkpt lat="42.91307215578854084014892578125" lon="-8.03814732469618320465087890625">
        <ele>423.79998779296875</ele>
        <time>2019-07-26T12:01:53.000Z</time>
      </trkpt>
      <trkpt lat="42.91307969950139522552490234375" lon="-8.0382023938000202178955078125">
        <ele>424</ele>
        <time>2019-07-26T12:01:55.000Z</time>
      </trkpt>
      <trkpt lat="42.9131019115447998046875" lon="-8.03825427778065204620361328125">
        <ele>424.20001220703125</ele>
        <time>2019-07-26T12:01:57.000Z</time>
      </trkpt>
      <trkpt lat="42.91311171837151050567626953125" lon="-8.0382815189659595489501953125">
        <ele>424.600006103515625</ele>
        <time>2019-07-26T12:01:58.000Z</time>
      </trkpt>
      <trkpt lat="42.91313552297651767730712890625" lon="-8.03834639489650726318359375">
        <ele>425.20001220703125</ele>
        <time>2019-07-26T12:02:00.000Z</time>
      </trkpt>
      <trkpt lat="42.91314641945064067840576171875" lon="-8.03837615065276622772216796875">
        <ele>425.399993896484375</ele>
        <time>2019-07-26T12:02:01.000Z</time>
      </trkpt>
      <trkpt lat="42.91316402144730091094970703125" lon="-8.03843851201236248016357421875">
        <ele>426</ele>
        <time>2019-07-26T12:02:03.000Z</time>
      </trkpt>
      <trkpt lat="42.91318246163427829742431640625" lon="-8.0384890548884868621826171875">
        <ele>426.600006103515625</ele>
        <time>2019-07-26T12:02:05.000Z</time>
      </trkpt>
      <trkpt lat="42.91319511830806732177734375" lon="-8.0385641567409038543701171875">
        <ele>427.79998779296875</ele>
        <time>2019-07-26T12:02:09.000Z</time>
      </trkpt>
      <trkpt lat="42.91319419629871845245361328125" lon="-8.038571365177631378173828125">
        <ele>428</ele>
        <time>2019-07-26T12:02:10.000Z</time>
      </trkpt>
      <trkpt lat="42.91321230120956897735595703125" lon="-8.03872592747211456298828125">
        <ele>429.20001220703125</ele>
        <time>2019-07-26T12:02:37.000Z</time>
      </trkpt>
      <trkpt lat="42.9132489301264286041259765625" lon="-8.03876238875091075897216796875">
        <ele>429.20001220703125</ele>
        <time>2019-07-26T12:02:38.000Z</time>
      </trkpt>
      <trkpt lat="42.91329092346131801605224609375" lon="-8.0388042144477367401123046875">
        <ele>429</ele>
        <time>2019-07-26T12:02:39.000Z</time>
      </trkpt>
      <trkpt lat="42.91337348520755767822265625" lon="-8.03891560994088649749755859375">
        <ele>429</ele>
        <time>2019-07-26T12:02:41.000Z</time>
      </trkpt>
      <trkpt lat="42.9135188274085521697998046875" lon="-8.03908006288111209869384765625">
        <ele>429</ele>
        <time>2019-07-26T12:02:44.000Z</time>
      </trkpt>
      <trkpt lat="42.9137230105698108673095703125" lon="-8.039245940744876861572265625">
        <ele>428.79998779296875</ele>
        <time>2019-07-26T12:02:48.000Z</time>
      </trkpt>
      <trkpt lat="42.91382275521755218505859375" lon="-8.039387762546539306640625">
        <ele>428.20001220703125</ele>
        <time>2019-07-26T12:02:50.000Z</time>
      </trkpt>
      <trkpt lat="42.91387313045561313629150390625" lon="-8.03946915082633495330810546875">
        <ele>427.79998779296875</ele>
        <time>2019-07-26T12:02:51.000Z</time>
      </trkpt>
      <trkpt lat="42.913931719958782196044921875" lon="-8.03954659961163997650146484375">
        <ele>427.600006103515625</ele>
        <time>2019-07-26T12:02:52.000Z</time>
      </trkpt>
      <trkpt lat="42.91413581930100917816162109375" lon="-8.039776347577571868896484375">
        <ele>426.79998779296875</ele>
        <time>2019-07-26T12:02:55.000Z</time>
      </trkpt>
      <trkpt lat="42.91429038159549236297607421875" lon="-8.03991959430277347564697265625">
        <ele>426.399993896484375</ele>
        <time>2019-07-26T12:02:57.000Z</time>
      </trkpt>
      <trkpt lat="42.914550304412841796875" lon="-8.040199466049671173095703125">
        <ele>425.79998779296875</ele>
        <time>2019-07-26T12:03:01.000Z</time>
      </trkpt>
      <trkpt lat="42.914619036018848419189453125" lon="-8.04026953876018524169921875">
        <ele>425.399993896484375</ele>
        <time>2019-07-26T12:03:02.000Z</time>
      </trkpt>
      <trkpt lat="42.91487862356007099151611328125" lon="-8.04058193229138851165771484375">
        <ele>424.600006103515625</ele>
        <time>2019-07-26T12:03:06.000Z</time>
      </trkpt>
      <trkpt lat="42.91493830271065235137939453125" lon="-8.0406765639781951904296875">
        <ele>424.399993896484375</ele>
        <time>2019-07-26T12:03:07.000Z</time>
      </trkpt>
      <trkpt lat="42.91506771929562091827392578125" lon="-8.04087705910205841064453125">
        <ele>424</ele>
        <time>2019-07-26T12:03:09.000Z</time>
      </trkpt>
      <trkpt lat="42.9151757620275020599365234375" lon="-8.04108283482491970062255859375">
        <ele>423.20001220703125</ele>
        <time>2019-07-26T12:03:11.000Z</time>
      </trkpt>
      <trkpt lat="42.9152287356555461883544921875" lon="-8.0411860160529613494873046875">
        <ele>423</ele>
        <time>2019-07-26T12:03:12.000Z</time>
      </trkpt>
      <trkpt lat="42.91526712477207183837890625" lon="-8.04127813316881656646728515625">
        <ele>422</ele>
        <time>2019-07-26T12:03:13.000Z</time>
      </trkpt>
      <trkpt lat="42.9153128899633884429931640625" lon="-8.04141350090503692626953125">
        <ele>420.20001220703125</ele>
        <time>2019-07-26T12:03:15.000Z</time>
      </trkpt>
      <trkpt lat="42.91530392132699489593505859375" lon="-8.04149304516613483428955078125">
        <ele>418.399993896484375</ele>
        <time>2019-07-26T12:03:17.000Z</time>
      </trkpt>
      <trkpt lat="42.91530610062181949615478515625" lon="-8.04151953198015689849853515625">
        <ele>417.399993896484375</ele>
        <time>2019-07-26T12:03:18.000Z</time>
      </trkpt>
      <trkpt lat="42.91531381197273731231689453125" lon="-8.04153797216713428497314453125">
        <ele>416.399993896484375</ele>
        <time>2019-07-26T12:03:19.000Z</time>
      </trkpt>
      <trkpt lat="42.91532202623784542083740234375" lon="-8.041554652154445648193359375">
        <ele>415.399993896484375</ele>
        <time>2019-07-26T12:03:20.000Z</time>
      </trkpt>
      <trkpt lat="42.9153447411954402923583984375" lon="-8.0415799655020236968994140625">
        <ele>413.600006103515625</ele>
        <time>2019-07-26T12:03:22.000Z</time>
      </trkpt>
      <trkpt lat="42.91536158882081508636474609375" lon="-8.0415970645844936370849609375">
        <ele>413</ele>
        <time>2019-07-26T12:03:23.000Z</time>
      </trkpt>
      <trkpt lat="42.91538648307323455810546875" lon="-8.041643835604190826416015625">
        <ele>412.20001220703125</ele>
        <time>2019-07-26T12:03:25.000Z</time>
      </trkpt>
      <trkpt lat="42.9153953678905963897705078125" lon="-8.041699826717376708984375">
        <ele>411.79998779296875</ele>
        <time>2019-07-26T12:03:27.000Z</time>
      </trkpt>
      <trkpt lat="42.9154151491820812225341796875" lon="-8.04175824858248233795166015625">
        <ele>411.79998779296875</ele>
        <time>2019-07-26T12:03:29.000Z</time>
      </trkpt>
      <trkpt lat="42.91544473730027675628662109375" lon="-8.0418042652308940887451171875">
        <ele>411.600006103515625</ele>
        <time>2019-07-26T12:03:31.000Z</time>
      </trkpt>
      <trkpt lat="42.91546585969626903533935546875" lon="-8.041841648519039154052734375">
        <ele>411.600006103515625</ele>
        <time>2019-07-26T12:03:33.000Z</time>
      </trkpt>
      <trkpt lat="42.91548304259777069091796875" lon="-8.041875176131725311279296875">
        <ele>411.600006103515625</ele>
        <time>2019-07-26T12:03:35.000Z</time>
      </trkpt>
      <trkpt lat="42.9155187495052814483642578125" lon="-8.0419291555881500244140625">
        <ele>412.399993896484375</ele>
        <time>2019-07-26T12:03:38.000Z</time>
      </trkpt>
      <trkpt lat="42.91555856354534626007080078125" lon="-8.0419903434813022613525390625">
        <ele>414</ele>
        <time>2019-07-26T12:03:41.000Z</time>
      </trkpt>
      <trkpt lat="42.91557155549526214599609375" lon="-8.0420014075934886932373046875">
        <ele>414.399993896484375</ele>
        <time>2019-07-26T12:03:42.000Z</time>
      </trkpt>
      <trkpt lat="42.91560214944183826446533203125" lon="-8.0420255474746227264404296875">
        <ele>415</ele>
        <time>2019-07-26T12:03:44.000Z</time>
      </trkpt>
      <trkpt lat="42.91566987521946430206298828125" lon="-8.04206795990467071533203125">
        <ele>416.20001220703125</ele>
        <time>2019-07-26T12:03:47.000Z</time>
      </trkpt>
      <trkpt lat="42.9156964458525180816650390625" lon="-8.04208162240684032440185546875">
        <ele>416.399993896484375</ele>
        <time>2019-07-26T12:03:48.000Z</time>
      </trkpt>
      <trkpt lat="42.9157460667192935943603515625" lon="-8.04210442118346691131591796875">
        <ele>417.20001220703125</ele>
        <time>2019-07-26T12:03:50.000Z</time>
      </trkpt>
      <trkpt lat="42.9158121161162853240966796875" lon="-8.04214800707995891571044921875">
        <ele>418.20001220703125</ele>
        <time>2019-07-26T12:03:53.000Z</time>
      </trkpt>
      <trkpt lat="42.91584824211895465850830078125" lon="-8.04218597710132598876953125">
        <ele>418.79998779296875</ele>
        <time>2019-07-26T12:03:55.000Z</time>
      </trkpt>
      <trkpt lat="42.9158788360655307769775390625" lon="-8.04222729988396167755126953125">
        <ele>419.20001220703125</ele>
        <time>2019-07-26T12:03:57.000Z</time>
      </trkpt>
      <trkpt lat="42.915935330092906951904296875" lon="-8.042288236320018768310546875">
        <ele>420.20001220703125</ele>
        <time>2019-07-26T12:04:01.000Z</time>
      </trkpt>
      <trkpt lat="42.915954105556011199951171875" lon="-8.04230525158345699310302734375">
        <ele>420.399993896484375</ele>
        <time>2019-07-26T12:04:02.000Z</time>
      </trkpt>
      <trkpt lat="42.9160454683005809783935546875" lon="-8.04239460267126560211181640625">
        <ele>421.20001220703125</ele>
        <time>2019-07-26T12:04:07.000Z</time>
      </trkpt>
      <trkpt lat="42.9160709492862224578857421875" lon="-8.04241932928562164306640625">
        <ele>421.600006103515625</ele>
        <time>2019-07-26T12:04:08.000Z</time>
      </trkpt>
      <trkpt lat="42.91611914522945880889892578125" lon="-8.04251027293503284454345703125">
        <ele>421.79998779296875</ele>
        <time>2019-07-26T12:04:11.000Z</time>
      </trkpt>
      <trkpt lat="42.9161262698471546173095703125" lon="-8.0425433814525604248046875">
        <ele>422</ele>
        <time>2019-07-26T12:04:12.000Z</time>
      </trkpt>
      <trkpt lat="42.9161202348768711090087890625" lon="-8.0427343212068080902099609375">
        <ele>422.399993896484375</ele>
        <time>2019-07-26T12:04:18.000Z</time>
      </trkpt>
      <trkpt lat="42.91612467728555202484130859375" lon="-8.0427956767380237579345703125">
        <ele>422.79998779296875</ele>
        <time>2019-07-26T12:04:20.000Z</time>
      </trkpt>
      <trkpt lat="42.91616499423980712890625" lon="-8.04292970336973667144775390625">
        <ele>423.20001220703125</ele>
        <time>2019-07-26T12:04:24.000Z</time>
      </trkpt>
      <trkpt lat="42.91619022376835346221923828125" lon="-8.04306498728692531585693359375">
        <ele>423.79998779296875</ele>
        <time>2019-07-26T12:04:29.000Z</time>
      </trkpt>
      <trkpt lat="42.916192822158336639404296875" lon="-8.04309432394802570343017578125">
        <ele>424</ele>
        <time>2019-07-26T12:04:30.000Z</time>
      </trkpt>
      <trkpt lat="42.916192151606082916259765625" lon="-8.04324888624250888824462890625">
        <ele>425</ele>
        <time>2019-07-26T12:04:35.000Z</time>
      </trkpt>
      <trkpt lat="42.91619324125349521636962890625" lon="-8.043302781879901885986328125">
        <ele>425.600006103515625</ele>
        <time>2019-07-26T12:04:37.000Z</time>
      </trkpt>
      <trkpt lat="42.9161877930164337158203125" lon="-8.0433619581162929534912109375">
        <ele>426.20001220703125</ele>
        <time>2019-07-26T12:04:39.000Z</time>
      </trkpt>
      <trkpt lat="42.91619994677603244781494140625" lon="-8.04347502999007701873779296875">
        <ele>427.20001220703125</ele>
        <time>2019-07-26T12:04:43.000Z</time>
      </trkpt>
      <trkpt lat="42.9162033833563327789306640625" lon="-8.0434984154999256134033203125">
        <ele>427.399993896484375</ele>
        <time>2019-07-26T12:04:44.000Z</time>
      </trkpt>
      <trkpt lat="42.9162047244608402252197265625" lon="-8.04352297447621822357177734375">
        <ele>427.79998779296875</ele>
        <time>2019-07-26T12:04:45.000Z</time>
      </trkpt>
      <trkpt lat="42.9162114299833774566650390625" lon="-8.0435537360608577728271484375">
        <ele>428.20001220703125</ele>
        <time>2019-07-26T12:04:46.000Z</time>
      </trkpt>
      <trkpt lat="42.916226349771022796630859375" lon="-8.04362892173230648040771484375">
        <ele>429.20001220703125</ele>
        <time>2019-07-26T12:04:49.000Z</time>
      </trkpt>
      <trkpt lat="42.91623531840741634368896484375" lon="-8.0436606891453266143798828125">
        <ele>429.600006103515625</ele>
        <time>2019-07-26T12:04:50.000Z</time>
      </trkpt>
      <trkpt lat="42.91628745384514331817626953125" lon="-8.04386210627853870391845703125">
        <ele>430.600006103515625</ele>
        <time>2019-07-26T12:04:55.000Z</time>
      </trkpt>
      <trkpt lat="42.91629843413829803466796875" lon="-8.0438886769115924835205078125">
        <ele>431</ele>
        <time>2019-07-26T12:04:56.000Z</time>
      </trkpt>
      <trkpt lat="42.916308157145977020263671875" lon="-8.0439956299960613250732421875">
        <ele>431.79998779296875</ele>
        <time>2019-07-26T12:04:59.000Z</time>
      </trkpt>
      <trkpt lat="42.91631461121141910552978515625" lon="-8.04410451091825962066650390625">
        <ele>432.600006103515625</ele>
        <time>2019-07-26T12:05:02.000Z</time>
      </trkpt>
      <trkpt lat="42.916318885982036590576171875" lon="-8.0441330932080745697021484375">
        <ele>432.79998779296875</ele>
        <time>2019-07-26T12:05:03.000Z</time>
      </trkpt>
      <trkpt lat="42.91632215492427349090576171875" lon="-8.0442232824862003326416015625">
        <ele>433.600006103515625</ele>
        <time>2019-07-26T12:05:06.000Z</time>
      </trkpt>
      <trkpt lat="42.91632282547652721405029296875" lon="-8.0442507751286029815673828125">
        <ele>433.79998779296875</ele>
        <time>2019-07-26T12:05:07.000Z</time>
      </trkpt>
      <trkpt lat="42.9163234122097492218017578125" lon="-8.0443109571933746337890625">
        <ele>434.399993896484375</ele>
        <time>2019-07-26T12:05:09.000Z</time>
      </trkpt>
      <trkpt lat="42.9163234122097492218017578125" lon="-8.0443765036761760711669921875">
        <ele>435</ele>
        <time>2019-07-26T12:05:11.000Z</time>
      </trkpt>
      <trkpt lat="42.91631712578237056732177734375" lon="-8.04450298659503459930419921875">
        <ele>436.20001220703125</ele>
        <time>2019-07-26T12:05:16.000Z</time>
      </trkpt>
      <trkpt lat="42.91631050407886505126953125" lon="-8.0445282161235809326171875">
        <ele>436.600006103515625</ele>
        <time>2019-07-26T12:05:17.000Z</time>
      </trkpt>
      <trkpt lat="42.91630245745182037353515625" lon="-8.04460574872791767120361328125">
        <ele>437.399993896484375</ele>
        <time>2019-07-26T12:05:20.000Z</time>
      </trkpt>
      <trkpt lat="42.91629717685282230377197265625" lon="-8.04462946951389312744140625">
        <ele>437.79998779296875</ele>
        <time>2019-07-26T12:05:21.000Z</time>
      </trkpt>
      <trkpt lat="42.91628628037869930267333984375" lon="-8.0446869693696498870849609375">
        <ele>438.399993896484375</ele>
        <time>2019-07-26T12:05:23.000Z</time>
      </trkpt>
      <trkpt lat="42.916280664503574371337890625" lon="-8.04472125135362148284912109375">
        <ele>438.600006103515625</ele>
        <time>2019-07-26T12:05:24.000Z</time>
      </trkpt>
      <trkpt lat="42.91627672500908374786376953125" lon="-8.044792078435420989990234375">
        <ele>439</ele>
        <time>2019-07-26T12:05:26.000Z</time>
      </trkpt>
      <trkpt lat="42.9162870347499847412109375" lon="-8.044865839183330535888671875">
        <ele>439.399993896484375</ele>
        <time>2019-07-26T12:05:28.000Z</time>
      </trkpt>
      <trkpt lat="42.91627286933362483978271484375" lon="-8.04493331350386142730712890625">
        <ele>440.20001220703125</ele>
        <time>2019-07-26T12:05:30.000Z</time>
      </trkpt>
      <trkpt lat="42.916268594563007354736328125" lon="-8.04502082057297229766845703125">
        <ele>440.600006103515625</ele>
        <time>2019-07-26T12:05:32.000Z</time>
      </trkpt>
      <trkpt lat="42.91626649908721446990966796875" lon="-8.04510866291821002960205078125">
        <ele>441</ele>
        <time>2019-07-26T12:05:34.000Z</time>
      </trkpt>
      <trkpt lat="42.91626146994531154632568359375" lon="-8.04522600956261157989501953125">
        <ele>441.399993896484375</ele>
        <time>2019-07-26T12:05:37.000Z</time>
      </trkpt>
      <trkpt lat="42.91626314632594585418701171875" lon="-8.045256771147251129150390625">
        <ele>441.600006103515625</ele>
        <time>2019-07-26T12:05:38.000Z</time>
      </trkpt>
      <trkpt lat="42.91626834310591220855712890625" lon="-8.04543136619031429290771484375">
        <ele>443</ele>
        <time>2019-07-26T12:05:44.000Z</time>
      </trkpt>
      <trkpt lat="42.9162563569843769073486328125" lon="-8.0454976670444011688232421875">
        <ele>443.399993896484375</ele>
        <time>2019-07-26T12:05:46.000Z</time>
      </trkpt>
      <trkpt lat="42.91623095981776714324951171875" lon="-8.04563404060900211334228515625">
        <ele>443.600006103515625</ele>
        <time>2019-07-26T12:05:49.000Z</time>
      </trkpt>
      <trkpt lat="42.9162040539085865020751953125" lon="-8.0457400716841220855712890625">
        <ele>444.600006103515625</ele>
        <time>2019-07-26T12:05:52.000Z</time>
      </trkpt>
      <trkpt lat="42.91618200950324535369873046875" lon="-8.045823387801647186279296875">
        <ele>445.20001220703125</ele>
        <time>2019-07-26T12:05:55.000Z</time>
      </trkpt>
      <trkpt lat="42.91616239584982395172119140625" lon="-8.045865632593631744384765625">
        <ele>445.600006103515625</ele>
        <time>2019-07-26T12:05:57.000Z</time>
      </trkpt>
      <trkpt lat="42.91610372252762317657470703125" lon="-8.04601273499429225921630859375">
        <ele>445.79998779296875</ele>
        <time>2019-07-26T12:06:01.000Z</time>
      </trkpt>
      <trkpt lat="42.91610472835600376129150390625" lon="-8.0462349392473697662353515625">
        <ele>446</ele>
        <time>2019-07-26T12:06:05.000Z</time>
      </trkpt>
      <trkpt lat="42.91611126624047756195068359375" lon="-8.04628514684736728668212890625">
        <ele>446</ele>
        <time>2019-07-26T12:06:06.000Z</time>
      </trkpt>
      <trkpt lat="42.9161239229142665863037109375" lon="-8.046373911201953887939453125">
        <ele>446.20001220703125</ele>
        <time>2019-07-26T12:06:08.000Z</time>
      </trkpt>
      <trkpt lat="42.9161567799746990203857421875" lon="-8.046528138220310211181640625">
        <ele>446.399993896484375</ele>
        <time>2019-07-26T12:06:11.000Z</time>
      </trkpt>
      <trkpt lat="42.91626314632594585418701171875" lon="-8.046759478747844696044921875">
        <ele>446.399993896484375</ele>
        <time>2019-07-26T12:06:17.000Z</time>
      </trkpt>
      <trkpt lat="42.916302122175693511962890625" lon="-8.0468501709401607513427734375">
        <ele>446.399993896484375</ele>
        <time>2019-07-26T12:06:19.000Z</time>
      </trkpt>
      <trkpt lat="42.91635953821241855621337890625" lon="-8.047014288604259490966796875">
        <ele>446.399993896484375</ele>
        <time>2019-07-26T12:06:22.000Z</time>
      </trkpt>
      <trkpt lat="42.91638552211225032806396484375" lon="-8.04705829359591007232666015625">
        <ele>446.600006103515625</ele>
        <time>2019-07-26T12:06:23.000Z</time>
      </trkpt>
      <trkpt lat="42.916433550417423248291015625" lon="-8.04715870879590511322021484375">
        <ele>446.79998779296875</ele>
        <time>2019-07-26T12:06:25.000Z</time>
      </trkpt>
      <trkpt lat="42.91651862673461437225341796875" lon="-8.04731930606067180633544921875">
        <ele>447</ele>
        <time>2019-07-26T12:06:28.000Z</time>
      </trkpt>
      <trkpt lat="42.916661202907562255859375" lon="-8.0476315319538116455078125">
        <ele>448</ele>
        <time>2019-07-26T12:06:34.000Z</time>
      </trkpt>
      <trkpt lat="42.91667997837066650390625" lon="-8.04767939262092113494873046875">
        <ele>448</ele>
        <time>2019-07-26T12:06:35.000Z</time>
      </trkpt>
      <trkpt lat="42.91674812324345111846923828125" lon="-8.047964461147785186767578125">
        <ele>449</ele>
        <time>2019-07-26T12:06:41.000Z</time>
      </trkpt>
      <trkpt lat="42.916760109364986419677734375" lon="-8.0482752621173858642578125">
        <ele>449.600006103515625</ele>
        <time>2019-07-26T12:06:47.000Z</time>
      </trkpt>
      <trkpt lat="42.91673806495964527130126953125" lon="-8.04837643168866634368896484375">
        <ele>450.20001220703125</ele>
        <time>2019-07-26T12:06:49.000Z</time>
      </trkpt>
      <trkpt lat="42.9167019389569759368896484375" lon="-8.04847114719450473785400390625">
        <ele>450.600006103515625</ele>
        <time>2019-07-26T12:06:51.000Z</time>
      </trkpt>
      <trkpt lat="42.91663932614028453826904296875" lon="-8.04865839891135692596435546875">
        <ele>451.20001220703125</ele>
        <time>2019-07-26T12:06:55.000Z</time>
      </trkpt>
      <trkpt lat="42.91661133058369159698486328125" lon="-8.04881312884390354156494140625">
        <ele>451.399993896484375</ele>
        <time>2019-07-26T12:06:58.000Z</time>
      </trkpt>
      <trkpt lat="42.91668324731290340423583984375" lon="-8.04894522763788700103759765625">
        <ele>451.600006103515625</ele>
        <time>2019-07-26T12:07:01.000Z</time>
      </trkpt>
      <trkpt lat="42.916774190962314605712890625" lon="-8.04901756346225738525390625">
        <ele>451.600006103515625</ele>
        <time>2019-07-26T12:07:04.000Z</time>
      </trkpt>
      <trkpt lat="42.9168273322284221649169921875" lon="-8.04906911216676235198974609375">
        <ele>451.79998779296875</ele>
        <time>2019-07-26T12:07:06.000Z</time>
      </trkpt>
      <trkpt lat="42.916956581175327301025390625" lon="-8.04919869638979434967041015625">
        <ele>451.79998779296875</ele>
        <time>2019-07-26T12:07:11.000Z</time>
      </trkpt>
      <trkpt lat="42.9170831479132175445556640625" lon="-8.0493939109146595001220703125">
        <ele>452.20001220703125</ele>
        <time>2019-07-26T12:07:16.000Z</time>
      </trkpt>
      <trkpt lat="42.91710913181304931640625" lon="-8.04943758063018321990966796875">
        <ele>452.399993896484375</ele>
        <time>2019-07-26T12:07:17.000Z</time>
      </trkpt>
      <trkpt lat="42.91713955812156200408935546875" lon="-8.0494817532598972320556640625">
        <ele>452.399993896484375</ele>
        <time>2019-07-26T12:07:18.000Z</time>
      </trkpt>
      <trkpt lat="42.91721465997397899627685546875" lon="-8.04960069246590137481689453125">
        <ele>453</ele>
        <time>2019-07-26T12:07:21.000Z</time>
      </trkpt>
      <trkpt lat="42.91728154756128787994384765625" lon="-8.0496959947049617767333984375">
        <ele>453.20001220703125</ele>
        <time>2019-07-26T12:07:24.000Z</time>
      </trkpt>
      <trkpt lat="42.91731767356395721435546875" lon="-8.04974033497273921966552734375">
        <ele>453.399993896484375</ele>
        <time>2019-07-26T12:07:26.000Z</time>
      </trkpt>
      <trkpt lat="42.9173335991799831390380859375" lon="-8.04978601634502410888671875">
        <ele>453.600006103515625</ele>
        <time>2019-07-26T12:07:29.000Z</time>
      </trkpt>
      <trkpt lat="42.9173376224935054779052734375" lon="-8.04979213513433933258056640625">
        <ele>453.79998779296875</ele>
        <time>2019-07-26T12:07:30.000Z</time>
      </trkpt>
      <trkpt lat="42.91741582565009593963623046875" lon="-8.0499972403049468994140625">
        <ele>454.399993896484375</ele>
        <time>2019-07-26T12:08:58.000Z</time>
      </trkpt>
      <trkpt lat="42.917421273887157440185546875" lon="-8.0500292591750621795654296875">
        <ele>454.399993896484375</ele>
        <time>2019-07-26T12:08:59.000Z</time>
      </trkpt>
      <trkpt lat="42.91742571629583835601806640625" lon="-8.0500654689967632293701171875">
        <ele>454.399993896484375</ele>
        <time>2019-07-26T12:09:00.000Z</time>
      </trkpt>
      <trkpt lat="42.91746653616428375244140625" lon="-8.05035456083714962005615234375">
        <ele>454.600006103515625</ele>
        <time>2019-07-26T12:09:06.000Z</time>
      </trkpt>
      <trkpt lat="42.9175297357141971588134765625" lon="-8.050791509449481964111328125">
        <ele>454.600006103515625</ele>
        <time>2019-07-26T12:09:14.000Z</time>
      </trkpt>
      <trkpt lat="42.917554043233394622802734375" lon="-8.050977252423763275146484375">
        <ele>455</ele>
        <time>2019-07-26T12:09:18.000Z</time>
      </trkpt>
      <trkpt lat="42.91756016202270984649658203125" lon="-8.051021508872509002685546875">
        <ele>455</ele>
        <time>2019-07-26T12:09:19.000Z</time>
      </trkpt>
      <trkpt lat="42.91757575236260890960693359375" lon="-8.051163665950298309326171875">
        <ele>455.20001220703125</ele>
        <time>2019-07-26T12:09:22.000Z</time>
      </trkpt>
      <trkpt lat="42.91758296079933643341064453125" lon="-8.05125729180872440338134765625">
        <ele>455.600006103515625</ele>
        <time>2019-07-26T12:09:24.000Z</time>
      </trkpt>
      <trkpt lat="42.91759528219699859619140625" lon="-8.05134345777332782745361328125">
        <ele>455.79998779296875</ele>
        <time>2019-07-26T12:09:26.000Z</time>
      </trkpt>
      <trkpt lat="42.917613051831722259521484375" lon="-8.051529116928577423095703125">
        <ele>456.79998779296875</ele>
        <time>2019-07-26T12:09:31.000Z</time>
      </trkpt>
      <trkpt lat="42.917616069316864013671875" lon="-8.05155786685645580291748046875">
        <ele>457</ele>
        <time>2019-07-26T12:09:32.000Z</time>
      </trkpt>
      <trkpt lat="42.91758815757930278778076171875" lon="-8.0517076514661312103271484375">
        <ele>457.399993896484375</ele>
        <time>2019-07-26T12:09:37.000Z</time>
      </trkpt>
      <trkpt lat="42.91748723946511745452880859375" lon="-8.0517911352217197418212890625">
        <ele>457.600006103515625</ele>
        <time>2019-07-26T12:09:41.000Z</time>
      </trkpt>
      <trkpt lat="42.9174113832414150238037109375" lon="-8.05184234865009784698486328125">
        <ele>457.600006103515625</ele>
        <time>2019-07-26T12:09:43.000Z</time>
      </trkpt>
      <trkpt lat="42.9173299111425876617431640625" lon="-8.05189901031553745269775390625">
        <ele>457.600006103515625</ele>
        <time>2019-07-26T12:09:45.000Z</time>
      </trkpt>
      <trkpt lat="42.9172874987125396728515625" lon="-8.05192700587213039398193359375">
        <ele>457.600006103515625</ele>
        <time>2019-07-26T12:09:46.000Z</time>
      </trkpt>
      <trkpt lat="42.9172048531472682952880859375" lon="-8.0519819073379039764404296875">
        <ele>457.600006103515625</ele>
        <time>2019-07-26T12:09:48.000Z</time>
      </trkpt>
      <trkpt lat="42.91713067330420017242431640625" lon="-8.0520355515182018280029296875">
        <ele>457.399993896484375</ele>
        <time>2019-07-26T12:09:50.000Z</time>
      </trkpt>
      <trkpt lat="42.91707015596330165863037109375" lon="-8.0521344579756259918212890625">
        <ele>457</ele>
        <time>2019-07-26T12:09:52.000Z</time>
      </trkpt>
      <trkpt lat="42.91697845794260501861572265625" lon="-8.05239689536392688751220703125">
        <ele>456.600006103515625</ele>
        <time>2019-07-26T12:09:56.000Z</time>
      </trkpt>
      <trkpt lat="42.91688625700771808624267578125" lon="-8.0527574010193347930908203125">
        <ele>456.600006103515625</ele>
        <time>2019-07-26T12:10:01.000Z</time>
      </trkpt>
      <trkpt lat="42.9167939722537994384765625" lon="-8.0529622547328472137451171875">
        <ele>456.399993896484375</ele>
        <time>2019-07-26T12:10:04.000Z</time>
      </trkpt>
      <trkpt lat="42.916728593409061431884765625" lon="-8.05308689363300800323486328125">
        <ele>456.399993896484375</ele>
        <time>2019-07-26T12:10:06.000Z</time>
      </trkpt>
      <trkpt lat="42.91662775911390781402587890625" lon="-8.0532569624483585357666015625">
        <ele>456.600006103515625</ele>
        <time>2019-07-26T12:10:09.000Z</time>
      </trkpt>
      <trkpt lat="42.91651778854429721832275390625" lon="-8.05346139706671237945556640625">
        <ele>456.79998779296875</ele>
        <time>2019-07-26T12:10:12.000Z</time>
      </trkpt>
      <trkpt lat="42.916355431079864501953125" lon="-8.05384017527103424072265625">
        <ele>457.399993896484375</ele>
        <time>2019-07-26T12:10:18.000Z</time>
      </trkpt>
      <trkpt lat="42.91618770919740200042724609375" lon="-8.05420520715415477752685546875">
        <ele>457.600006103515625</ele>
        <time>2019-07-26T12:10:24.000Z</time>
      </trkpt>
      <trkpt lat="42.9160659201443195343017578125" lon="-8.05456294678151607513427734375">
        <ele>457.600006103515625</ele>
        <time>2019-07-26T12:10:29.000Z</time>
      </trkpt>
      <trkpt lat="42.91597480885684490203857421875" lon="-8.05482412688434123992919921875">
        <ele>457.79998779296875</ele>
        <time>2019-07-26T12:10:32.000Z</time>
      </trkpt>
      <trkpt lat="42.9159276187419891357421875" lon="-8.05498640052974224090576171875">
        <ele>457.79998779296875</ele>
        <time>2019-07-26T12:10:34.000Z</time>
      </trkpt>
      <trkpt lat="42.91588428430259227752685546875" lon="-8.0551465786993503570556640625">
        <ele>457.79998779296875</ele>
        <time>2019-07-26T12:10:36.000Z</time>
      </trkpt>
      <trkpt lat="42.91582812555134296417236328125" lon="-8.05542326532304286956787109375">
        <ele>458</ele>
        <time>2019-07-26T12:10:39.000Z</time>
      </trkpt>
      <trkpt lat="42.91570474393665790557861328125" lon="-8.0559120140969753265380859375">
        <ele>458.20001220703125</ele>
        <time>2019-07-26T12:10:45.000Z</time>
      </trkpt>
      <trkpt lat="42.915678508579730987548828125" lon="-8.0560156144201755523681640625">
        <ele>458.20001220703125</ele>
        <time>2019-07-26T12:10:47.000Z</time>
      </trkpt>
      <trkpt lat="42.9156612418591976165771484375" lon="-8.05617763660848140716552734375">
        <ele>458.20001220703125</ele>
        <time>2019-07-26T12:10:50.000Z</time>
      </trkpt>
      <trkpt lat="42.9156459867954254150390625" lon="-8.056383244693279266357421875">
        <ele>457.79998779296875</ele>
        <time>2019-07-26T12:10:53.000Z</time>
      </trkpt>
      <trkpt lat="42.91561539284884929656982421875" lon="-8.05652615614235401153564453125">
        <ele>457.399993896484375</ele>
        <time>2019-07-26T12:10:55.000Z</time>
      </trkpt>
      <trkpt lat="42.91547231376171112060546875" lon="-8.0570475943386554718017578125">
        <ele>456.79998779296875</ele>
        <time>2019-07-26T12:11:02.000Z</time>
      </trkpt>
      <trkpt lat="42.91539930738508701324462890625" lon="-8.057548664510250091552734375">
        <ele>456.79998779296875</ele>
        <time>2019-07-26T12:11:08.000Z</time>
      </trkpt>
      <trkpt lat="42.9153940267860889434814453125" lon="-8.0577124468982219696044921875">
        <ele>456.79998779296875</ele>
        <time>2019-07-26T12:11:10.000Z</time>
      </trkpt>
      <trkpt lat="42.91539226658642292022705078125" lon="-8.0581305362284183502197265625">
        <ele>456.600006103515625</ele>
        <time>2019-07-26T12:11:15.000Z</time>
      </trkpt>
      <trkpt lat="42.9154305718839168548583984375" lon="-8.0586956441402435302734375">
        <ele>456.399993896484375</ele>
        <time>2019-07-26T12:11:22.000Z</time>
      </trkpt>
      <trkpt lat="42.91544524021446704864501953125" lon="-8.0591631866991519927978515625">
        <ele>456.399993896484375</ele>
        <time>2019-07-26T12:11:28.000Z</time>
      </trkpt>
      <trkpt lat="42.915454544126987457275390625" lon="-8.0596359260380268096923828125">
        <ele>456.399993896484375</ele>
        <time>2019-07-26T12:11:34.000Z</time>
      </trkpt>
      <trkpt lat="42.91553190909326076507568359375" lon="-8.0600939132273197174072265625">
        <ele>456.399993896484375</ele>
        <time>2019-07-26T12:11:40.000Z</time>
      </trkpt>
      <trkpt lat="42.91568689048290252685546875" lon="-8.06063815020024776458740234375">
        <ele>456.399993896484375</ele>
        <time>2019-07-26T12:11:46.000Z</time>
      </trkpt>
      <trkpt lat="42.9157517664134502410888671875" lon="-8.0608549900352954864501953125">
        <ele>456.399993896484375</ele>
        <time>2019-07-26T12:11:48.000Z</time>
      </trkpt>
      <trkpt lat="42.91586215607821941375732421875" lon="-8.0612130649387836456298828125">
        <ele>455.79998779296875</ele>
        <time>2019-07-26T12:11:51.000Z</time>
      </trkpt>
      <trkpt lat="42.915944717824459075927734375" lon="-8.061437197029590606689453125">
        <ele>454.79998779296875</ele>
        <time>2019-07-26T12:11:53.000Z</time>
      </trkpt>
      <trkpt lat="42.91604387573897838592529296875" lon="-8.061650432646274566650390625">
        <ele>454.20001220703125</ele>
        <time>2019-07-26T12:11:55.000Z</time>
      </trkpt>
      <trkpt lat="42.9160971008241176605224609375" lon="-8.06175411678850650787353515625">
        <ele>453.79998779296875</ele>
        <time>2019-07-26T12:11:56.000Z</time>
      </trkpt>
      <trkpt lat="42.9161809198558330535888671875" lon="-8.061950169503688812255859375">
        <ele>452.79998779296875</ele>
        <time>2019-07-26T12:11:58.000Z</time>
      </trkpt>
      <trkpt lat="42.91620279662311077117919921875" lon="-8.0620230920612812042236328125">
        <ele>452.399993896484375</ele>
        <time>2019-07-26T12:11:59.000Z</time>
      </trkpt>
      <trkpt lat="42.91621553711593151092529296875" lon="-8.062080927193164825439453125">
        <ele>451.79998779296875</ele>
        <time>2019-07-26T12:12:00.000Z</time>
      </trkpt>
      <trkpt lat="42.91621687822043895721435546875" lon="-8.06213046424090862274169921875">
        <ele>451.20001220703125</ele>
        <time>2019-07-26T12:12:01.000Z</time>
      </trkpt>
      <trkpt lat="42.91622023098170757293701171875" lon="-8.06221562437713146209716796875">
        <ele>449.79998779296875</ele>
        <time>2019-07-26T12:12:03.000Z</time>
      </trkpt>
      <trkpt lat="42.91623674333095550537109375" lon="-8.0622602999210357666015625">
        <ele>449.20001220703125</ele>
        <time>2019-07-26T12:12:04.000Z</time>
      </trkpt>
      <trkpt lat="42.916257865726947784423828125" lon="-8.0623151175677776336669921875">
        <ele>448.600006103515625</ele>
        <time>2019-07-26T12:12:05.000Z</time>
      </trkpt>
      <trkpt lat="42.91627957485616207122802734375" lon="-8.06237873621284961700439453125">
        <ele>447.79998779296875</ele>
        <time>2019-07-26T12:12:06.000Z</time>
      </trkpt>
      <trkpt lat="42.916295416653156280517578125" lon="-8.0624525807797908782958984375">
        <ele>447</ele>
        <time>2019-07-26T12:12:07.000Z</time>
      </trkpt>
      <trkpt lat="42.91631109081208705902099609375" lon="-8.0625390820205211639404296875">
        <ele>446</ele>
        <time>2019-07-26T12:12:08.000Z</time>
      </trkpt>
      <trkpt lat="42.91632886044681072235107421875" lon="-8.062636144459247589111328125">
        <ele>445.20001220703125</ele>
        <time>2019-07-26T12:12:09.000Z</time>
      </trkpt>
      <trkpt lat="42.91636683046817779541015625" lon="-8.06283554993569850921630859375">
        <ele>444.20001220703125</ele>
        <time>2019-07-26T12:12:11.000Z</time>
      </trkpt>
      <trkpt lat="42.9164052195847034454345703125" lon="-8.0630435049533843994140625">
        <ele>443.399993896484375</ele>
        <time>2019-07-26T12:12:13.000Z</time>
      </trkpt>
      <trkpt lat="42.91642240248620510101318359375" lon="-8.0631462670862674713134765625">
        <ele>443.20001220703125</ele>
        <time>2019-07-26T12:12:14.000Z</time>
      </trkpt>
      <trkpt lat="42.91650286875665187835693359375" lon="-8.06347508914768695831298828125">
        <ele>442</ele>
        <time>2019-07-26T12:12:17.000Z</time>
      </trkpt>
      <trkpt lat="42.9165386594831943511962890625" lon="-8.06358086876571178436279296875">
        <ele>441.79998779296875</ele>
        <time>2019-07-26T12:12:18.000Z</time>
      </trkpt>
      <trkpt lat="42.9166248254477977752685546875" lon="-8.06378538720309734344482421875">
        <ele>440.399993896484375</ele>
        <time>2019-07-26T12:12:20.000Z</time>
      </trkpt>
      <trkpt lat="42.91666614823043346405029296875" lon="-8.06386149488389492034912109375">
        <ele>440</ele>
        <time>2019-07-26T12:12:21.000Z</time>
      </trkpt>
      <trkpt lat="42.9167005978524684906005859375" lon="-8.0639179050922393798828125">
        <ele>439.399993896484375</ele>
        <time>2019-07-26T12:12:22.000Z</time>
      </trkpt>
      <trkpt lat="42.91678483597934246063232421875" lon="-8.06398889981210231781005859375">
        <ele>437.399993896484375</ele>
        <time>2019-07-26T12:12:24.000Z</time>
      </trkpt>
      <trkpt lat="42.91683194227516651153564453125" lon="-8.06400180794298648834228515625">
        <ele>436.399993896484375</ele>
        <time>2019-07-26T12:12:25.000Z</time>
      </trkpt>
      <trkpt lat="42.916871421039104461669921875" lon="-8.06401354260742664337158203125">
        <ele>435.399993896484375</ele>
        <time>2019-07-26T12:12:26.000Z</time>
      </trkpt>
      <trkpt lat="42.91691458784043788909912109375" lon="-8.0640427954494953155517578125">
        <ele>434.20001220703125</ele>
        <time>2019-07-26T12:12:27.000Z</time>
      </trkpt>
      <trkpt lat="42.9169409908354282379150390625" lon="-8.0640984512865543365478515625">
        <ele>432.600006103515625</ele>
        <time>2019-07-26T12:12:28.000Z</time>
      </trkpt>
      <trkpt lat="42.9169487021863460540771484375" lon="-8.064173720777034759521484375">
        <ele>430.79998779296875</ele>
        <time>2019-07-26T12:12:29.000Z</time>
      </trkpt>
      <trkpt lat="42.9169503785669803619384765625" lon="-8.06426231749355792999267578125">
        <ele>429</ele>
        <time>2019-07-26T12:12:30.000Z</time>
      </trkpt>
      <trkpt lat="42.91694006882607936859130859375" lon="-8.06436407379806041717529296875">
        <ele>427.79998779296875</ele>
        <time>2019-07-26T12:12:31.000Z</time>
      </trkpt>
      <trkpt lat="42.91692380793392658233642578125" lon="-8.0644689314067363739013671875">
        <ele>426.600006103515625</ele>
        <time>2019-07-26T12:12:32.000Z</time>
      </trkpt>
      <trkpt lat="42.91690595448017120361328125" lon="-8.0645742081105709075927734375">
        <ele>425.399993896484375</ele>
        <time>2019-07-26T12:12:33.000Z</time>
      </trkpt>
      <trkpt lat="42.9168571718037128448486328125" lon="-8.06478769518435001373291015625">
        <ele>423.600006103515625</ele>
        <time>2019-07-26T12:12:35.000Z</time>
      </trkpt>
      <trkpt lat="42.9168020188808441162109375" lon="-8.064985089004039764404296875">
        <ele>421.79998779296875</ele>
        <time>2019-07-26T12:12:37.000Z</time>
      </trkpt>
      <trkpt lat="42.91678525507450103759765625" lon="-8.06509246118366718292236328125">
        <ele>421.20001220703125</ele>
        <time>2019-07-26T12:12:38.000Z</time>
      </trkpt>
      <trkpt lat="42.9167562536895275115966796875" lon="-8.06519052945077419281005859375">
        <ele>420.399993896484375</ele>
        <time>2019-07-26T12:12:39.000Z</time>
      </trkpt>
      <trkpt lat="42.91669950820505619049072265625" lon="-8.06539756245911121368408203125">
        <ele>419.20001220703125</ele>
        <time>2019-07-26T12:12:41.000Z</time>
      </trkpt>
      <trkpt lat="42.9166439361870288848876953125" lon="-8.06556955911219120025634765625">
        <ele>418.20001220703125</ele>
        <time>2019-07-26T12:12:43.000Z</time>
      </trkpt>
      <trkpt lat="42.9166087321937084197998046875" lon="-8.0656990595161914825439453125">
        <ele>417.20001220703125</ele>
        <time>2019-07-26T12:12:45.000Z</time>
      </trkpt>
      <trkpt lat="42.91659884154796600341796875" lon="-8.06575857102870941162109375">
        <ele>417</ele>
        <time>2019-07-26T12:12:46.000Z</time>
      </trkpt>
      <trkpt lat="42.91658283211290836334228515625" lon="-8.06582403369247913360595703125">
        <ele>416.79998779296875</ele>
        <time>2019-07-26T12:12:47.000Z</time>
      </trkpt>
      <trkpt lat="42.9165433533489704132080078125" lon="-8.06604296900331974029541015625">
        <ele>417</ele>
        <time>2019-07-26T12:12:50.000Z</time>
      </trkpt>
      <trkpt lat="42.91648484766483306884765625" lon="-8.06626944802701473236083984375">
        <ele>417</ele>
        <time>2019-07-26T12:12:53.000Z</time>
      </trkpt>
      <trkpt lat="42.916441261768341064453125" lon="-8.06650045327842235565185546875">
        <ele>417.20001220703125</ele>
        <time>2019-07-26T12:12:56.000Z</time>
      </trkpt>
      <trkpt lat="42.91640865616500377655029296875" lon="-8.06672894395887851715087890625">
        <ele>417.399993896484375</ele>
        <time>2019-07-26T12:12:59.000Z</time>
      </trkpt>
      <trkpt lat="42.916377894580364227294921875" lon="-8.06695483624935150146484375">
        <ele>417.600006103515625</ele>
        <time>2019-07-26T12:13:02.000Z</time>
      </trkpt>
      <trkpt lat="42.91631092317402362823486328125" lon="-8.0671803094446659088134765625">
        <ele>417.79998779296875</ele>
        <time>2019-07-26T12:13:05.000Z</time>
      </trkpt>
      <trkpt lat="42.9162655770778656005859375" lon="-8.0673296749591827392578125">
        <ele>417.79998779296875</ele>
        <time>2019-07-26T12:13:07.000Z</time>
      </trkpt>
      <trkpt lat="42.91622760705649852752685546875" lon="-8.06754626333713531494140625">
        <ele>418</ele>
        <time>2019-07-26T12:13:10.000Z</time>
      </trkpt>
      <trkpt lat="42.91622425429522991180419921875" lon="-8.06761600077152252197265625">
        <ele>418</ele>
        <time>2019-07-26T12:13:11.000Z</time>
      </trkpt>
      <trkpt lat="42.91619190014898777008056640625" lon="-8.0678951181471347808837890625">
        <ele>418.20001220703125</ele>
        <time>2019-07-26T12:13:15.000Z</time>
      </trkpt>
      <trkpt lat="42.91617345996201038360595703125" lon="-8.0681016482412815093994140625">
        <ele>418.20001220703125</ele>
        <time>2019-07-26T12:13:18.000Z</time>
      </trkpt>
      <trkpt lat="42.91613909415900707244873046875" lon="-8.06836945004761219024658203125">
        <ele>418.79998779296875</ele>
        <time>2019-07-26T12:13:22.000Z</time>
      </trkpt>
      <trkpt lat="42.91611478663980960845947265625" lon="-8.06850649416446685791015625">
        <ele>419</ele>
        <time>2019-07-26T12:13:24.000Z</time>
      </trkpt>
      <trkpt lat="42.91609215550124645233154296875" lon="-8.06864270009100437164306640625">
        <ele>419.20001220703125</ele>
        <time>2019-07-26T12:13:26.000Z</time>
      </trkpt>
      <trkpt lat="42.91600867174565792083740234375" lon="-8.0690491385757923126220703125">
        <ele>419.79998779296875</ele>
        <time>2019-07-26T12:13:32.000Z</time>
      </trkpt>
      <trkpt lat="42.91597187519073486328125" lon="-8.0691805668175220489501953125">
        <ele>420.399993896484375</ele>
        <time>2019-07-26T12:13:34.000Z</time>
      </trkpt>
      <trkpt lat="42.9158699512481689453125" lon="-8.06948323734104633331298828125">
        <ele>421.20001220703125</ele>
        <time>2019-07-26T12:13:39.000Z</time>
      </trkpt>
      <trkpt lat="42.9158010520040988922119140625" lon="-8.06977526284754276275634765625">
        <ele>421.399993896484375</ele>
        <time>2019-07-26T12:13:44.000Z</time>
      </trkpt>
      <trkpt lat="42.9157826118171215057373046875" lon="-8.069886825978755950927734375">
        <ele>421.600006103515625</ele>
        <time>2019-07-26T12:13:46.000Z</time>
      </trkpt>
      <trkpt lat="42.915757633745670318603515625" lon="-8.07025839574635028839111328125">
        <ele>422.399993896484375</ele>
        <time>2019-07-26T12:13:52.000Z</time>
      </trkpt>
      <trkpt lat="42.91576174087822437286376953125" lon="-8.0703248642385005950927734375">
        <ele>422.600006103515625</ele>
        <time>2019-07-26T12:13:53.000Z</time>
      </trkpt>
      <trkpt lat="42.9158134572207927703857421875" lon="-8.07080405764281749725341796875">
        <ele>423.399993896484375</ele>
        <time>2019-07-26T12:14:00.000Z</time>
      </trkpt>
      <trkpt lat="42.915818654000759124755859375" lon="-8.07087295688688755035400390625">
        <ele>423.600006103515625</ele>
        <time>2019-07-26T12:14:01.000Z</time>
      </trkpt>
      <trkpt lat="42.91580088436603546142578125" lon="-8.0713072232902050018310546875">
        <ele>424</ele>
        <time>2019-07-26T12:14:07.000Z</time>
      </trkpt>
      <trkpt lat="42.9157919995486736297607421875" lon="-8.0716230534017086029052734375">
        <ele>424.20001220703125</ele>
        <time>2019-07-26T12:14:11.000Z</time>
      </trkpt>
      <trkpt lat="42.91580063290894031524658203125" lon="-8.07170427404344081878662109375">
        <ele>424.20001220703125</ele>
        <time>2019-07-26T12:14:12.000Z</time>
      </trkpt>
      <trkpt lat="42.91589417494833469390869140625" lon="-8.07201926596462726593017578125">
        <ele>424.399993896484375</ele>
        <time>2019-07-26T12:14:16.000Z</time>
      </trkpt>
      <trkpt lat="42.9159479029476642608642578125" lon="-8.07217248715460300445556640625">
        <ele>424.20001220703125</ele>
        <time>2019-07-26T12:14:18.000Z</time>
      </trkpt>
      <trkpt lat="42.91596986353397369384765625" lon="-8.0723408795893192291259765625">
        <ele>423.600006103515625</ele>
        <time>2019-07-26T12:14:20.000Z</time>
      </trkpt>
      <trkpt lat="42.9159096814692020416259765625" lon="-8.0726111121475696563720703125">
        <ele>422.79998779296875</ele>
        <time>2019-07-26T12:14:23.000Z</time>
      </trkpt>
      <trkpt lat="42.91588059626519680023193359375" lon="-8.07270222343504428863525390625">
        <ele>422.600006103515625</ele>
        <time>2019-07-26T12:14:24.000Z</time>
      </trkpt>
      <trkpt lat="42.91580356657505035400390625" lon="-8.0728726275265216827392578125">
        <ele>422.20001220703125</ele>
        <time>2019-07-26T12:14:26.000Z</time>
      </trkpt>
      <trkpt lat="42.9157624952495098114013671875" lon="-8.07295787148177623748779296875">
        <ele>422</ele>
        <time>2019-07-26T12:14:27.000Z</time>
      </trkpt>
      <trkpt lat="42.91572502814233303070068359375" lon="-8.07304688729345798492431640625">
        <ele>421.79998779296875</ele>
        <time>2019-07-26T12:14:28.000Z</time>
      </trkpt>
      <trkpt lat="42.91568823158740997314453125" lon="-8.07313573546707630157470703125">
        <ele>421.20001220703125</ele>
        <time>2019-07-26T12:14:29.000Z</time>
      </trkpt>
      <trkpt lat="42.915582954883575439453125" lon="-8.07337797246873378753662109375">
        <ele>420.79998779296875</ele>
        <time>2019-07-26T12:14:32.000Z</time>
      </trkpt>
      <trkpt lat="42.915555126965045928955078125" lon="-8.07345977984368801116943359375">
        <ele>420.79998779296875</ele>
        <time>2019-07-26T12:14:33.000Z</time>
      </trkpt>
      <trkpt lat="42.91554716415703296661376953125" lon="-8.07364367879927158355712890625">
        <ele>420.20001220703125</ele>
        <time>2019-07-26T12:14:35.000Z</time>
      </trkpt>
      <trkpt lat="42.91557113640010356903076171875" lon="-8.07374174706637859344482421875">
        <ele>419.79998779296875</ele>
        <time>2019-07-26T12:14:36.000Z</time>
      </trkpt>
      <trkpt lat="42.9157158918678760528564453125" lon="-8.07400510646402835845947265625">
        <ele>419.20001220703125</ele>
        <time>2019-07-26T12:14:39.000Z</time>
      </trkpt>
      <trkpt lat="42.91577733121812343597412109375" lon="-8.07408758439123630523681640625">
        <ele>419</ele>
        <time>2019-07-26T12:14:40.000Z</time>
      </trkpt>
      <trkpt lat="42.9158362559974193572998046875" lon="-8.07416603900492191314697265625">
        <ele>418.600006103515625</ele>
        <time>2019-07-26T12:14:41.000Z</time>
      </trkpt>
      <trkpt lat="42.9158915765583515167236328125" lon="-8.07425589300692081451416015625">
        <ele>418.399993896484375</ele>
        <time>2019-07-26T12:14:42.000Z</time>
      </trkpt>
      <trkpt lat="42.91595913469791412353515625" lon="-8.07449293322861194610595703125">
        <ele>417.600006103515625</ele>
        <time>2019-07-26T12:14:44.000Z</time>
      </trkpt>
      <trkpt lat="42.915980257093906402587890625" lon="-8.07474506087601184844970703125">
        <ele>416.20001220703125</ele>
        <time>2019-07-26T12:14:46.000Z</time>
      </trkpt>
      <trkpt lat="42.9159908182919025421142578125" lon="-8.07487196289002895355224609375">
        <ele>415.600006103515625</ele>
        <time>2019-07-26T12:14:47.000Z</time>
      </trkpt>
      <trkpt lat="42.915998362004756927490234375" lon="-8.075121827423572540283203125">
        <ele>414.600006103515625</ele>
        <time>2019-07-26T12:14:49.000Z</time>
      </trkpt>
      <trkpt lat="42.91600607335567474365234375" lon="-8.07537269778549671173095703125">
        <ele>413.399993896484375</ele>
        <time>2019-07-26T12:14:51.000Z</time>
      </trkpt>
      <trkpt lat="42.9160089232027530670166015625" lon="-8.07549574412405490875244140625">
        <ele>412.79998779296875</ele>
        <time>2019-07-26T12:14:52.000Z</time>
      </trkpt>
      <trkpt lat="42.916012108325958251953125" lon="-8.07561761699616909027099609375">
        <ele>412.20001220703125</ele>
        <time>2019-07-26T12:14:53.000Z</time>
      </trkpt>
      <trkpt lat="42.91603163816034793853759765625" lon="-8.07594115845859050750732421875">
        <ele>411.20001220703125</ele>
        <time>2019-07-26T12:14:56.000Z</time>
      </trkpt>
      <trkpt lat="42.9160484857857227325439453125" lon="-8.07604375295341014862060546875">
        <ele>410.79998779296875</ele>
        <time>2019-07-26T12:14:57.000Z</time>
      </trkpt>
      <trkpt lat="42.91607379913330078125" lon="-8.0762542225420475006103515625">
        <ele>409.399993896484375</ele>
        <time>2019-07-26T12:14:59.000Z</time>
      </trkpt>
      <trkpt lat="42.91608494706451892852783203125" lon="-8.0764490179717540740966796875">
        <ele>408.79998779296875</ele>
        <time>2019-07-26T12:15:01.000Z</time>
      </trkpt>
      <trkpt lat="42.9160957597196102142333984375" lon="-8.0765110440552234649658203125">
        <ele>408.20001220703125</ele>
        <time>2019-07-26T12:15:02.000Z</time>
      </trkpt>
      <trkpt lat="42.91612006723880767822265625" lon="-8.0765874870121479034423828125">
        <ele>406.79998779296875</ele>
        <time>2019-07-26T12:15:04.000Z</time>
      </trkpt>
      <trkpt lat="42.916126437485218048095703125" lon="-8.0766019038856029510498046875">
        <ele>406</ele>
        <time>2019-07-26T12:15:05.000Z</time>
      </trkpt>
      <trkpt lat="42.91612450964748859405517578125" lon="-8.07662285864353179931640625">
        <ele>405.399993896484375</ele>
        <time>2019-07-26T12:15:06.000Z</time>
      </trkpt>
      <trkpt lat="42.91610305197536945343017578125" lon="-8.07671313174068927764892578125">
        <ele>403.79998779296875</ele>
        <time>2019-07-26T12:15:09.000Z</time>
      </trkpt>
      <trkpt lat="42.91609324514865875244140625" lon="-8.0767799355089664459228515625">
        <ele>402</ele>
        <time>2019-07-26T12:15:11.000Z</time>
      </trkpt>
      <trkpt lat="42.916092909872531890869140625" lon="-8.07682000100612640380859375">
        <ele>401.399993896484375</ele>
        <time>2019-07-26T12:15:12.000Z</time>
      </trkpt>
      <trkpt lat="42.91610129177570343017578125" lon="-8.076867274940013885498046875">
        <ele>400.79998779296875</ele>
        <time>2019-07-26T12:15:13.000Z</time>
      </trkpt>
      <trkpt lat="42.91611797176301479339599609375" lon="-8.07692284695804119110107421875">
        <ele>400</ele>
        <time>2019-07-26T12:15:14.000Z</time>
      </trkpt>
      <trkpt lat="42.91615149937570095062255859375" lon="-8.077050335705280303955078125">
        <ele>399.600006103515625</ele>
        <time>2019-07-26T12:15:16.000Z</time>
      </trkpt>
      <trkpt lat="42.9161651618778705596923828125" lon="-8.07727119885385036468505859375">
        <ele>399.399993896484375</ele>
        <time>2019-07-26T12:15:19.000Z</time>
      </trkpt>
      <trkpt lat="42.9161775670945644378662109375" lon="-8.07752072811126708984375">
        <ele>399.399993896484375</ele>
        <time>2019-07-26T12:15:22.000Z</time>
      </trkpt>
      <trkpt lat="42.916176058351993560791015625" lon="-8.07769213803112506866455078125">
        <ele>399.20001220703125</ele>
        <time>2019-07-26T12:15:24.000Z</time>
      </trkpt>
      <trkpt lat="42.9161738790571689605712890625" lon="-8.077949546277523040771484375">
        <ele>399</ele>
        <time>2019-07-26T12:15:27.000Z</time>
      </trkpt>
      <trkpt lat="42.9161852784454822540283203125" lon="-8.07801534421741962432861328125">
        <ele>399</ele>
        <time>2019-07-26T12:15:28.000Z</time>
      </trkpt>
      <trkpt lat="42.916213609278202056884765625" lon="-8.078066222369670867919921875">
        <ele>398.79998779296875</ele>
        <time>2019-07-26T12:15:29.000Z</time>
      </trkpt>
      <trkpt lat="42.9162526689469814300537109375" lon="-8.07810033671557903289794921875">
        <ele>398.600006103515625</ele>
        <time>2019-07-26T12:15:30.000Z</time>
      </trkpt>
      <trkpt lat="42.91636993177235126495361328125" lon="-8.07812950573861598968505859375">
        <ele>398.20001220703125</ele>
        <time>2019-07-26T12:15:33.000Z</time>
      </trkpt>
      <trkpt lat="42.916464395821094512939453125" lon="-8.078172840178012847900390625">
        <ele>397.79998779296875</ele>
        <time>2019-07-26T12:15:36.000Z</time>
      </trkpt>
      <trkpt lat="42.9164833389222621917724609375" lon="-8.07821399532258510589599609375">
        <ele>397.600006103515625</ele>
        <time>2019-07-26T12:15:37.000Z</time>
      </trkpt>
      <trkpt lat="42.91650035418570041656494140625" lon="-8.07826462201774120330810546875">
        <ele>397.399993896484375</ele>
        <time>2019-07-26T12:15:38.000Z</time>
      </trkpt>
      <trkpt lat="42.9165990091860294342041015625" lon="-8.0785163305699825286865234375">
        <ele>397</ele>
        <time>2019-07-26T12:15:42.000Z</time>
      </trkpt>
      <trkpt lat="42.9166596941649913787841796875" lon="-8.0786698870360851287841796875">
        <ele>397</ele>
        <time>2019-07-26T12:15:44.000Z</time>
      </trkpt>
      <trkpt lat="42.9167349636554718017578125" lon="-8.07884163223206996917724609375">
        <ele>396.79998779296875</ele>
        <time>2019-07-26T12:15:46.000Z</time>
      </trkpt>
      <trkpt lat="42.91678584180772304534912109375" lon="-8.07892159558832645416259765625">
        <ele>396.600006103515625</ele>
        <time>2019-07-26T12:15:47.000Z</time>
      </trkpt>
      <trkpt lat="42.91691643185913562774658203125" lon="-8.0790313147008419036865234375">
        <ele>396.399993896484375</ele>
        <time>2019-07-26T12:15:49.000Z</time>
      </trkpt>
      <trkpt lat="42.91699371300637722015380859375" lon="-8.0790544487535953521728515625">
        <ele>396</ele>
        <time>2019-07-26T12:15:50.000Z</time>
      </trkpt>
      <trkpt lat="42.91724123060703277587890625" lon="-8.07907163165509700775146484375">
        <ele>395.399993896484375</ele>
        <time>2019-07-26T12:15:53.000Z</time>
      </trkpt>
      <trkpt lat="42.91732815094292163848876953125" lon="-8.079069368541240692138671875">
        <ele>395.399993896484375</ele>
        <time>2019-07-26T12:15:54.000Z</time>
      </trkpt>
      <trkpt lat="42.91764046065509319305419921875" lon="-8.07914069853723049163818359375">
        <ele>394</ele>
        <time>2019-07-26T12:15:58.000Z</time>
      </trkpt>
      <trkpt lat="42.91777306236326694488525390625" lon="-8.079263828694820404052734375">
        <ele>393.20001220703125</ele>
        <time>2019-07-26T12:16:00.000Z</time>
      </trkpt>
      <trkpt lat="42.91783877648413181304931640625" lon="-8.07933968491852283477783203125">
        <ele>392.600006103515625</ele>
        <time>2019-07-26T12:16:01.000Z</time>
      </trkpt>
      <trkpt lat="42.917897365987300872802734375" lon="-8.07941730134189128875732421875">
        <ele>392</ele>
        <time>2019-07-26T12:16:02.000Z</time>
      </trkpt>
      <trkpt lat="42.91794254444539546966552734375" lon="-8.0795015394687652587890625">
        <ele>391.399993896484375</ele>
        <time>2019-07-26T12:16:03.000Z</time>
      </trkpt>
      <trkpt lat="42.91797892190515995025634765625" lon="-8.0796012841165065765380859375">
        <ele>390.600006103515625</ele>
        <time>2019-07-26T12:16:04.000Z</time>
      </trkpt>
      <trkpt lat="42.91800373233854770660400390625" lon="-8.0797159485518932342529296875">
        <ele>390</ele>
        <time>2019-07-26T12:16:05.000Z</time>
      </trkpt>
      <trkpt lat="42.91803105734288692474365234375" lon="-8.079837150871753692626953125">
        <ele>389.20001220703125</ele>
        <time>2019-07-26T12:16:06.000Z</time>
      </trkpt>
      <trkpt lat="42.9180547781288623809814453125" lon="-8.07996531017124652862548828125">
        <ele>388.399993896484375</ele>
        <time>2019-07-26T12:16:07.000Z</time>
      </trkpt>
      <trkpt lat="42.91807548142969608306884765625" lon="-8.08009791187942028045654296875">
        <ele>387.399993896484375</ele>
        <time>2019-07-26T12:16:08.000Z</time>
      </trkpt>
      <trkpt lat="42.9181002080440521240234375" lon="-8.0802279151976108551025390625">
        <ele>385</ele>
        <time>2019-07-26T12:16:09.000Z</time>
      </trkpt>
      <trkpt lat="42.91815544478595256805419921875" lon="-8.08049085550010204315185546875">
        <ele>383.20001220703125</ele>
        <time>2019-07-26T12:16:11.000Z</time>
      </trkpt>
      <trkpt lat="42.9181949235498905181884765625" lon="-8.0806195177137851715087890625">
        <ele>382</ele>
        <time>2019-07-26T12:16:12.000Z</time>
      </trkpt>
      <trkpt lat="42.9182338155806064605712890625" lon="-8.08073996566236019134521484375">
        <ele>381.20001220703125</ele>
        <time>2019-07-26T12:16:13.000Z</time>
      </trkpt>
      <trkpt lat="42.91826717555522918701171875" lon="-8.0808542110025882720947265625">
        <ele>380.600006103515625</ele>
        <time>2019-07-26T12:16:14.000Z</time>
      </trkpt>
      <trkpt lat="42.9183162935078144073486328125" lon="-8.081081695854663848876953125">
        <ele>379.600006103515625</ele>
        <time>2019-07-26T12:16:16.000Z</time>
      </trkpt>
      <trkpt lat="42.918329872190952301025390625" lon="-8.0811975337564945220947265625">
        <ele>379.20001220703125</ele>
        <time>2019-07-26T12:16:17.000Z</time>
      </trkpt>
      <trkpt lat="42.91832895018160343170166015625" lon="-8.08142342604696750640869140625">
        <ele>378.20001220703125</ele>
        <time>2019-07-26T12:16:19.000Z</time>
      </trkpt>
      <trkpt lat="42.91831688024103641510009765625" lon="-8.08162023313343524932861328125">
        <ele>377</ele>
        <time>2019-07-26T12:16:21.000Z</time>
      </trkpt>
      <trkpt lat="42.91831947863101959228515625" lon="-8.0816877074539661407470703125">
        <ele>376.399993896484375</ele>
        <time>2019-07-26T12:16:22.000Z</time>
      </trkpt>
      <trkpt lat="42.9183161258697509765625" lon="-8.08174210600554943084716796875">
        <ele>375.600006103515625</ele>
        <time>2019-07-26T12:16:23.000Z</time>
      </trkpt>
      <trkpt lat="42.91830564849078655242919921875" lon="-8.08178937993943691253662109375">
        <ele>374.600006103515625</ele>
        <time>2019-07-26T12:16:24.000Z</time>
      </trkpt>
      <trkpt lat="42.91828938759863376617431640625" lon="-8.08182911016047000885009765625">
        <ele>373.399993896484375</ele>
        <time>2019-07-26T12:16:25.000Z</time>
      </trkpt>
      <trkpt lat="42.91827094741165637969970703125" lon="-8.0818630568683147430419921875">
        <ele>372.399993896484375</ele>
        <time>2019-07-26T12:16:26.000Z</time>
      </trkpt>
      <trkpt lat="42.9182472266256809234619140625" lon="-8.08189247734844684600830078125">
        <ele>371.20001220703125</ele>
        <time>2019-07-26T12:16:27.000Z</time>
      </trkpt>
      <trkpt lat="42.91821294464170932769775390625" lon="-8.08192013762891292572021484375">
        <ele>369.79998779296875</ele>
        <time>2019-07-26T12:16:28.000Z</time>
      </trkpt>
      <trkpt lat="42.9181778244674205780029296875" lon="-8.0819503962993621826171875">
        <ele>368.600006103515625</ele>
        <time>2019-07-26T12:16:29.000Z</time>
      </trkpt>
      <trkpt lat="42.91813977062702178955078125" lon="-8.081983588635921478271484375">
        <ele>367.399993896484375</ele>
        <time>2019-07-26T12:16:30.000Z</time>
      </trkpt>
      <trkpt lat="42.91805653832852840423583984375" lon="-8.08206665329635143280029296875">
        <ele>366.600006103515625</ele>
        <time>2019-07-26T12:16:32.000Z</time>
      </trkpt>
      <trkpt lat="42.91801504790782928466796875" lon="-8.08210923336446285247802734375">
        <ele>366.399993896484375</ele>
        <time>2019-07-26T12:16:33.000Z</time>
      </trkpt>
      <trkpt lat="42.9179728031158447265625" lon="-8.08215265162289142608642578125">
        <ele>366.399993896484375</ele>
        <time>2019-07-26T12:16:34.000Z</time>
      </trkpt>
      <trkpt lat="42.9178963601589202880859375" lon="-8.0822365544736385345458984375">
        <ele>366.399993896484375</ele>
        <time>2019-07-26T12:16:36.000Z</time>
      </trkpt>
      <trkpt lat="42.917814552783966064453125" lon="-8.0823290906846523284912109375">
        <ele>366.600006103515625</ele>
        <time>2019-07-26T12:16:39.000Z</time>
      </trkpt>
      <trkpt lat="42.917811535298824310302734375" lon="-8.0822848342359066009521484375">
        <ele>368</ele>
        <time>2019-07-26T12:16:42.000Z</time>
      </trkpt>
      <trkpt lat="42.91789024136960506439208984375" lon="-8.08221668936312198638916015625">
        <ele>368.79998779296875</ele>
        <time>2019-07-26T12:16:45.000Z</time>
      </trkpt>
      <trkpt lat="42.9179260320961475372314453125" lon="-8.0821876041591167449951171875">
        <ele>369</ele>
        <time>2019-07-26T12:16:46.000Z</time>
      </trkpt>
      <trkpt lat="42.91813985444605350494384765625" lon="-8.08199624530971050262451171875">
        <ele>369</ele>
        <time>2019-07-26T12:16:51.000Z</time>
      </trkpt>
      <trkpt lat="42.9183582030236721038818359375" lon="-8.08178468607366085052490234375">
        <ele>368.79998779296875</ele>
        <time>2019-07-26T12:16:56.000Z</time>
      </trkpt>
      <trkpt lat="42.91839516721665859222412109375" lon="-8.0818154476583003997802734375">
        <ele>368.20001220703125</ele>
        <time>2019-07-26T12:16:58.000Z</time>
      </trkpt>
      <trkpt lat="42.9183897189795970916748046875" lon="-8.08186615817248821258544921875">
        <ele>367.79998779296875</ele>
        <time>2019-07-26T12:16:59.000Z</time>
      </trkpt>
      <trkpt lat="42.9183055646717548370361328125" lon="-8.08205299079418182373046875">
        <ele>366.79998779296875</ele>
        <time>2019-07-26T12:17:02.000Z</time>
      </trkpt>
      <trkpt lat="42.9182955063879489898681640625" lon="-8.08222238905727863311767578125">
        <ele>365.399993896484375</ele>
        <time>2019-07-26T12:17:04.000Z</time>
      </trkpt>
      <trkpt lat="42.91831034235656261444091796875" lon="-8.08231760747730731964111328125">
        <ele>364.79998779296875</ele>
        <time>2019-07-26T12:17:05.000Z</time>
      </trkpt>
      <trkpt lat="42.9183337278664112091064453125" lon="-8.0824176035821437835693359375">
        <ele>364.600006103515625</ele>
        <time>2019-07-26T12:17:06.000Z</time>
      </trkpt>
      <trkpt lat="42.91835141368210315704345703125" lon="-8.08251206763088703155517578125">
        <ele>364</ele>
        <time>2019-07-26T12:17:07.000Z</time>
      </trkpt>
      <trkpt lat="42.91839533485472202301025390625" lon="-8.08271826244890689849853515625">
        <ele>363.20001220703125</ele>
        <time>2019-07-26T12:17:09.000Z</time>
      </trkpt>
      <trkpt lat="42.91841872036457061767578125" lon="-8.08282814919948577880859375">
        <ele>362.79998779296875</ele>
        <time>2019-07-26T12:17:10.000Z</time>
      </trkpt>
      <trkpt lat="42.918435819447040557861328125" lon="-8.08293770067393779754638671875">
        <ele>362</ele>
        <time>2019-07-26T12:17:11.000Z</time>
      </trkpt>
      <trkpt lat="42.91843808256089687347412109375" lon="-8.083047755062580108642578125">
        <ele>361.600006103515625</ele>
        <time>2019-07-26T12:17:12.000Z</time>
      </trkpt>
      <trkpt lat="42.918429113924503326416015625" lon="-8.0831666104495525360107421875">
        <ele>361.20001220703125</ele>
        <time>2019-07-26T12:17:13.000Z</time>
      </trkpt>
      <trkpt lat="42.91831386275589466094970703125" lon="-8.08349777944386005401611328125">
        <ele>360.399993896484375</ele>
        <time>2019-07-26T12:17:16.000Z</time>
      </trkpt>
      <trkpt lat="42.9182609729468822479248046875" lon="-8.0836064927279949188232421875">
        <ele>360</ele>
        <time>2019-07-26T12:17:17.000Z</time>
      </trkpt>
      <trkpt lat="42.9181567020714282989501953125" lon="-8.083811514079570770263671875">
        <ele>359.20001220703125</ele>
        <time>2019-07-26T12:17:19.000Z</time>
      </trkpt>
      <trkpt lat="42.91806726716458797454833984375" lon="-8.0839866958558559417724609375">
        <ele>358.20001220703125</ele>
        <time>2019-07-26T12:17:21.000Z</time>
      </trkpt>
      <trkpt lat="42.91801228187978267669677734375" lon="-8.08411468751728534698486328125">
        <ele>356.600006103515625</ele>
        <time>2019-07-26T12:17:23.000Z</time>
      </trkpt>
      <trkpt lat="42.91799970902502536773681640625" lon="-8.08418392203748226165771484375">
        <ele>356</ele>
        <time>2019-07-26T12:17:24.000Z</time>
      </trkpt>
      <trkpt lat="42.91799551807343959808349609375" lon="-8.0842740274965763092041015625">
        <ele>355.600006103515625</ele>
        <time>2019-07-26T12:17:25.000Z</time>
      </trkpt>
      <trkpt lat="42.91799535043537616729736328125" lon="-8.08448013849556446075439453125">
        <ele>354.600006103515625</ele>
        <time>2019-07-26T12:17:27.000Z</time>
      </trkpt>
      <trkpt lat="42.91799937374889850616455078125" lon="-8.08458901941776275634765625">
        <ele>354.20001220703125</ele>
        <time>2019-07-26T12:17:28.000Z</time>
      </trkpt>
      <trkpt lat="42.9180132038891315460205078125" lon="-8.084696643054485321044921875">
        <ele>353.79998779296875</ele>
        <time>2019-07-26T12:17:29.000Z</time>
      </trkpt>
      <trkpt lat="42.91803323663771152496337890625" lon="-8.08479487895965576171875">
        <ele>352.600006103515625</ele>
        <time>2019-07-26T12:17:30.000Z</time>
      </trkpt>
      <trkpt lat="42.9180665127933025360107421875" lon="-8.0849174223840236663818359375">
        <ele>352.20001220703125</ele>
        <time>2019-07-26T12:17:31.000Z</time>
      </trkpt>
      <trkpt lat="42.9181325621902942657470703125" lon="-8.085166029632091522216796875">
        <ele>351.20001220703125</ele>
        <time>2019-07-26T12:17:33.000Z</time>
      </trkpt>
      <trkpt lat="42.9181774891912937164306640625" lon="-8.0852781794965267181396484375">
        <ele>350.600006103515625</ele>
        <time>2019-07-26T12:17:34.000Z</time>
      </trkpt>
      <trkpt lat="42.91821881197392940521240234375" lon="-8.08538923971354961395263671875">
        <ele>349.79998779296875</ele>
        <time>2019-07-26T12:17:35.000Z</time>
      </trkpt>
      <trkpt lat="42.918292321264743804931640625" lon="-8.0856282077729701995849609375">
        <ele>348</ele>
        <time>2019-07-26T12:17:37.000Z</time>
      </trkpt>
      <trkpt lat="42.91839097626507282257080078125" lon="-8.08588125742971897125244140625">
        <ele>346.79998779296875</ele>
        <time>2019-07-26T12:17:39.000Z</time>
      </trkpt>
      <trkpt lat="42.91844042949378490447998046875" lon="-8.086008243262767791748046875">
        <ele>346.399993896484375</ele>
        <time>2019-07-26T12:17:40.000Z</time>
      </trkpt>
      <trkpt lat="42.91846876032650470733642578125" lon="-8.086144365370273590087890625">
        <ele>345.79998779296875</ele>
        <time>2019-07-26T12:17:41.000Z</time>
      </trkpt>
      <trkpt lat="42.91849876753985881805419921875" lon="-8.08639942668378353118896484375">
        <ele>344.600006103515625</ele>
        <time>2019-07-26T12:17:43.000Z</time>
      </trkpt>
      <trkpt lat="42.91851704008877277374267578125" lon="-8.086631856858730316162109375">
        <ele>343</ele>
        <time>2019-07-26T12:17:45.000Z</time>
      </trkpt>
      <trkpt lat="42.9185305349528789520263671875" lon="-8.08674375526607036590576171875">
        <ele>341.79998779296875</ele>
        <time>2019-07-26T12:17:46.000Z</time>
      </trkpt>
      <trkpt lat="42.91853849776089191436767578125" lon="-8.08685037307441234588623046875">
        <ele>340.79998779296875</ele>
        <time>2019-07-26T12:17:47.000Z</time>
      </trkpt>
      <trkpt lat="42.91854486800730228424072265625" lon="-8.0869478546082973480224609375">
        <ele>339.79998779296875</ele>
        <time>2019-07-26T12:17:48.000Z</time>
      </trkpt>
      <trkpt lat="42.9185825027525424957275390625" lon="-8.0871282331645488739013671875">
        <ele>338</ele>
        <time>2019-07-26T12:17:50.000Z</time>
      </trkpt>
      <trkpt lat="42.91862851940095424652099609375" lon="-8.08730316348373889923095703125">
        <ele>336.600006103515625</ele>
        <time>2019-07-26T12:17:52.000Z</time>
      </trkpt>
      <trkpt lat="42.91866690851747989654541015625" lon="-8.08746568858623504638671875">
        <ele>336</ele>
        <time>2019-07-26T12:17:54.000Z</time>
      </trkpt>
      <trkpt lat="42.91869205422699451446533203125" lon="-8.0876742303371429443359375">
        <ele>335.79998779296875</ele>
        <time>2019-07-26T12:17:57.000Z</time>
      </trkpt>
      <trkpt lat="42.9186814092099666595458984375" lon="-8.08773147873580455780029296875">
        <ele>335.79998779296875</ele>
        <time>2019-07-26T12:17:58.000Z</time>
      </trkpt>
      <trkpt lat="42.918630950152873992919921875" lon="-8.08789039961993694305419921875">
        <ele>336</ele>
        <time>2019-07-26T12:18:01.000Z</time>
      </trkpt>
      <trkpt lat="42.91856565512716770172119140625" lon="-8.08808720670640468597412109375">
        <ele>336.600006103515625</ele>
        <time>2019-07-26T12:18:05.000Z</time>
      </trkpt>
      <trkpt lat="42.91852332651615142822265625" lon="-8.08823640458285808563232421875">
        <ele>337.399993896484375</ele>
        <time>2019-07-26T12:18:08.000Z</time>
      </trkpt>
      <trkpt lat="42.91851402260363101959228515625" lon="-8.08828786946833133697509765625">
        <ele>337.399993896484375</ele>
        <time>2019-07-26T12:18:09.000Z</time>
      </trkpt>
      <trkpt lat="42.9185184650123119354248046875" lon="-8.08838292025029659271240234375">
        <ele>337.79998779296875</ele>
        <time>2019-07-26T12:18:11.000Z</time>
      </trkpt>
      <trkpt lat="42.91853137314319610595703125" lon="-8.08849473483860492706298828125">
        <ele>338.20001220703125</ele>
        <time>2019-07-26T12:18:14.000Z</time>
      </trkpt>
      <trkpt lat="42.91853883303701877593994140625" lon="-8.08858324773609638214111328125">
        <ele>338.399993896484375</ele>
        <time>2019-07-26T12:18:16.000Z</time>
      </trkpt>
      <trkpt lat="42.91853866539895534515380859375" lon="-8.08861744590103626251220703125">
        <ele>338.79998779296875</ele>
        <time>2019-07-26T12:18:17.000Z</time>
      </trkpt>
      <trkpt lat="42.91851184330880641937255859375" lon="-8.08875055052340030670166015625">
        <ele>339.399993896484375</ele>
        <time>2019-07-26T12:18:21.000Z</time>
      </trkpt>
      <trkpt lat="42.91848770342767238616943359375" lon="-8.088860101997852325439453125">
        <ele>339.79998779296875</ele>
        <time>2019-07-26T12:18:24.000Z</time>
      </trkpt>
      <trkpt lat="42.918494157493114471435546875" lon="-8.08895163238048553466796875">
        <ele>340.79998779296875</ele>
        <time>2019-07-26T12:18:26.000Z</time>
      </trkpt>
      <trkpt lat="42.91850580833852291107177734375" lon="-8.0889953859150409698486328125">
        <ele>341.20001220703125</ele>
        <time>2019-07-26T12:18:27.000Z</time>
      </trkpt>
      <trkpt lat="42.9185630567371845245361328125" lon="-8.089120276272296905517578125">
        <ele>341.600006103515625</ele>
        <time>2019-07-26T12:18:30.000Z</time>
      </trkpt>
      <trkpt lat="42.9186133481562137603759765625" lon="-8.08914215303957462310791015625">
        <ele>342.20001220703125</ele>
        <time>2019-07-26T12:18:32.000Z</time>
      </trkpt>
      <trkpt lat="42.91865752078592777252197265625" lon="-8.08913645334541797637939453125">
        <ele>342.600006103515625</ele>
        <time>2019-07-26T12:18:34.000Z</time>
      </trkpt>
      <trkpt lat="42.91873899288475513458251953125" lon="-8.0891172587871551513671875">
        <ele>343.20001220703125</ele>
        <time>2019-07-26T12:18:39.000Z</time>
      </trkpt>
      <trkpt lat="42.918756008148193359375" lon="-8.08911122381687164306640625">
        <ele>343.600006103515625</ele>
        <time>2019-07-26T12:18:40.000Z</time>
      </trkpt>
      <trkpt lat="42.91879288852214813232421875" lon="-8.08909169398248195648193359375">
        <ele>344.399993896484375</ele>
        <time>2019-07-26T12:18:43.000Z</time>
      </trkpt>
      <trkpt lat="42.9188239015638828277587890625" lon="-8.08905498124659061431884765625">
        <ele>345.399993896484375</ele>
        <time>2019-07-26T12:18:46.000Z</time>
      </trkpt>
      <trkpt lat="42.91883270256221294403076171875" lon="-8.08904106728732585906982421875">
        <ele>345.600006103515625</ele>
        <time>2019-07-26T12:18:47.000Z</time>
      </trkpt>
      <trkpt lat="42.91887612082064151763916015625" lon="-8.08899245224893093109130859375">
        <ele>347</ele>
        <time>2019-07-26T12:18:51.000Z</time>
      </trkpt>
      <trkpt lat="42.91890688240528106689453125" lon="-8.08895439840853214263916015625">
        <ele>348</ele>
        <time>2019-07-26T12:18:54.000Z</time>
      </trkpt>
      <trkpt lat="42.91896429844200611114501953125" lon="-8.0889082141220569610595703125">
        <ele>349</ele>
        <time>2019-07-26T12:18:59.000Z</time>
      </trkpt>
      <trkpt lat="42.9189992509782314300537109375" lon="-8.08890226297080516815185546875">
        <ele>349.399993896484375</ele>
        <time>2019-07-26T12:19:01.000Z</time>
      </trkpt>
      <trkpt lat="42.9190488718450069427490234375" lon="-8.08891098015010356903076171875">
        <ele>350.20001220703125</ele>
        <time>2019-07-26T12:19:04.000Z</time>
      </trkpt>
      <trkpt lat="42.91907661594450473785400390625" lon="-8.088937215507030487060546875">
        <ele>350.600006103515625</ele>
        <time>2019-07-26T12:19:06.000Z</time>
      </trkpt>
      <trkpt lat="42.919106371700763702392578125" lon="-8.08898608200252056121826171875">
        <ele>351.399993896484375</ele>
        <time>2019-07-26T12:19:09.000Z</time>
      </trkpt>
      <trkpt lat="42.91914970614016056060791015625" lon="-8.0890849046409130096435546875">
        <ele>352.399993896484375</ele>
        <time>2019-07-26T12:19:13.000Z</time>
      </trkpt>
      <trkpt lat="42.9191601835191249847412109375" lon="-8.08911113999783992767333984375">
        <ele>352.600006103515625</ele>
        <time>2019-07-26T12:19:14.000Z</time>
      </trkpt>
      <trkpt lat="42.91920460760593414306640625" lon="-8.08924005366861820220947265625">
        <ele>353.600006103515625</ele>
        <time>2019-07-26T12:19:20.000Z</time>
      </trkpt>
      <trkpt lat="42.919212318956851959228515625" lon="-8.08926033787429332733154296875">
        <ele>353.600006103515625</ele>
        <time>2019-07-26T12:19:21.000Z</time>
      </trkpt>
      <trkpt lat="42.9192486964166164398193359375" lon="-8.08937139809131622314453125">
        <ele>354.79998779296875</ele>
        <time>2019-07-26T12:19:27.000Z</time>
      </trkpt>
      <trkpt lat="42.91925020515918731689453125" lon="-8.08938925154507160186767578125">
        <ele>355</ele>
        <time>2019-07-26T12:19:28.000Z</time>
      </trkpt>
      <trkpt lat="42.9192714951932430267333984375" lon="-8.08946854434907436370849609375">
        <ele>355.79998779296875</ele>
        <time>2019-07-26T12:19:31.000Z</time>
      </trkpt>
      <trkpt lat="42.91929982602596282958984375" lon="-8.0896008946001529693603515625">
        <ele>357</ele>
        <time>2019-07-26T12:19:35.000Z</time>
      </trkpt>
      <trkpt lat="42.9193422384560108184814453125" lon="-8.0897195823490619659423828125">
        <ele>357.79998779296875</ele>
        <time>2019-07-26T12:19:40.000Z</time>
      </trkpt>
      <trkpt lat="42.9193435795605182647705078125" lon="-8.089743554592132568359375">
        <ele>358.20001220703125</ele>
        <time>2019-07-26T12:19:41.000Z</time>
      </trkpt>
      <trkpt lat="42.9193606786429882049560546875" lon="-8.0898218415677547454833984375">
        <ele>358.79998779296875</ele>
        <time>2019-07-26T12:19:44.000Z</time>
      </trkpt>
      <trkpt lat="42.919385991990566253662109375" lon="-8.0898932553827762603759765625">
        <ele>360</ele>
        <time>2019-07-26T12:19:47.000Z</time>
      </trkpt>
      <trkpt lat="42.9194136522710323333740234375" lon="-8.08999341912567615509033203125">
        <ele>361.20001220703125</ele>
        <time>2019-07-26T12:19:51.000Z</time>
      </trkpt>
      <trkpt lat="42.9194220341742038726806640625" lon="-8.09009400196373462677001953125">
        <ele>362.20001220703125</ele>
        <time>2019-07-26T12:19:55.000Z</time>
      </trkpt>
      <trkpt lat="42.91944198310375213623046875" lon="-8.0901779048144817352294921875">
        <ele>363.20001220703125</ele>
        <time>2019-07-26T12:19:59.000Z</time>
      </trkpt>
      <trkpt lat="42.91944726370275020599365234375" lon="-8.09024521149694919586181640625">
        <ele>363.79998779296875</ele>
        <time>2019-07-26T12:20:02.000Z</time>
      </trkpt>
      <trkpt lat="42.91944994591176509857177734375" lon="-8.090285696089267730712890625">
        <ele>364.399993896484375</ele>
        <time>2019-07-26T12:20:04.000Z</time>
      </trkpt>
      <trkpt lat="42.9194632731378078460693359375" lon="-8.090388290584087371826171875">
        <ele>365.600006103515625</ele>
        <time>2019-07-26T12:20:09.000Z</time>
      </trkpt>
      <trkpt lat="42.9194743372499942779541015625" lon="-8.0904833413660526275634765625">
        <ele>366.79998779296875</ele>
        <time>2019-07-26T12:20:13.000Z</time>
      </trkpt>
      <trkpt lat="42.91947475634515285491943359375" lon="-8.09052851982414722442626953125">
        <ele>367.79998779296875</ele>
        <time>2019-07-26T12:20:15.000Z</time>
      </trkpt>
      <trkpt lat="42.919473834335803985595703125" lon="-8.09057394973933696746826171875">
        <ele>368.20001220703125</ele>
        <time>2019-07-26T12:20:17.000Z</time>
      </trkpt>
      <trkpt lat="42.91947014629840850830078125" lon="-8.09062105603516101837158203125">
        <ele>368.79998779296875</ele>
        <time>2019-07-26T12:20:19.000Z</time>
      </trkpt>
      <trkpt lat="42.9194703139364719390869140625" lon="-8.0907160229980945587158203125">
        <ele>369.79998779296875</ele>
        <time>2019-07-26T12:20:23.000Z</time>
      </trkpt>
      <trkpt lat="42.919473834335803985595703125" lon="-8.090773858129978179931640625">
        <ele>370.600006103515625</ele>
        <time>2019-07-26T12:20:26.000Z</time>
      </trkpt>
      <trkpt lat="42.9194813780486583709716796875" lon="-8.09081308543682098388671875">
        <ele>371</ele>
        <time>2019-07-26T12:20:28.000Z</time>
      </trkpt>
      <trkpt lat="42.91950979270040988922119140625" lon="-8.09093655087053775787353515625">
        <ele>372</ele>
        <time>2019-07-26T12:20:33.000Z</time>
      </trkpt>
      <trkpt lat="42.9195164144039154052734375" lon="-8.0909607745707035064697265625">
        <ele>372.399993896484375</ele>
        <time>2019-07-26T12:20:34.000Z</time>
      </trkpt>
      <trkpt lat="42.919550947844982147216796875" lon="-8.0910345353186130523681640625">
        <ele>373.20001220703125</ele>
        <time>2019-07-26T12:20:38.000Z</time>
      </trkpt>
      <trkpt lat="42.9195702262222766876220703125" lon="-8.091086335480213165283203125">
        <ele>374</ele>
        <time>2019-07-26T12:20:41.000Z</time>
      </trkpt>
      <trkpt lat="42.9195802845060825347900390625" lon="-8.0911056138575077056884765625">
        <ele>374.20001220703125</ele>
        <time>2019-07-26T12:20:42.000Z</time>
      </trkpt>
      <trkpt lat="42.9196413047611713409423828125" lon="-8.09118591248989105224609375">
        <ele>375</ele>
        <time>2019-07-26T12:20:47.000Z</time>
      </trkpt>
      <trkpt lat="42.91965245269238948822021484375" lon="-8.0911988206207752227783203125">
        <ele>375.399993896484375</ele>
        <time>2019-07-26T12:20:48.000Z</time>
      </trkpt>
      <trkpt lat="42.919723950326442718505859375" lon="-8.0912373773753643035888671875">
        <ele>376.20001220703125</ele>
        <time>2019-07-26T12:20:54.000Z</time>
      </trkpt>
      <trkpt lat="42.919735349714756011962890625" lon="-8.09124399907886981964111328125">
        <ele>376.399993896484375</ele>
        <time>2019-07-26T12:20:55.000Z</time>
      </trkpt>
      <trkpt lat="42.91978002525866031646728515625" lon="-8.09129454195499420166015625">
        <ele>377.399993896484375</ele>
        <time>2019-07-26T12:21:00.000Z</time>
      </trkpt>
      <trkpt lat="42.91978974826633930206298828125" lon="-8.09131608344614505767822265625">
        <ele>377.600006103515625</ele>
        <time>2019-07-26T12:21:01.000Z</time>
      </trkpt>
      <trkpt lat="42.919817827641963958740234375" lon="-8.091374672949314117431640625">
        <ele>378.399993896484375</ele>
        <time>2019-07-26T12:21:04.000Z</time>
      </trkpt>
      <trkpt lat="42.91985512711107730865478515625" lon="-8.09142739512026309967041015625">
        <ele>379.79998779296875</ele>
        <time>2019-07-26T12:21:08.000Z</time>
      </trkpt>
      <trkpt lat="42.91989485733211040496826171875" lon="-8.09148556552827358245849609375">
        <ele>381</ele>
        <time>2019-07-26T12:21:12.000Z</time>
      </trkpt>
      <trkpt lat="42.91992519982159137725830078125" lon="-8.09150652028620243072509765625">
        <ele>381.79998779296875</ele>
        <time>2019-07-26T12:21:14.000Z</time>
      </trkpt>
      <trkpt lat="42.91993492282927036285400390625" lon="-8.09151389636099338531494140625">
        <ele>382</ele>
        <time>2019-07-26T12:21:15.000Z</time>
      </trkpt>
      <trkpt lat="42.91994095779955387115478515625" lon="-8.09152655303478240966796875">
        <ele>382.399993896484375</ele>
        <time>2019-07-26T12:21:16.000Z</time>
      </trkpt>
      <trkpt lat="42.919959984719753265380859375" lon="-8.0915548838675022125244140625">
        <ele>382.79998779296875</ele>
        <time>2019-07-26T12:21:18.000Z</time>
      </trkpt>
      <trkpt lat="42.91998236440122127532958984375" lon="-8.091577179729938507080078125">
        <ele>383.399993896484375</ele>
        <time>2019-07-26T12:21:20.000Z</time>
      </trkpt>
      <trkpt lat="42.9200453124940395355224609375" lon="-8.09165102429687976837158203125">
        <ele>384.600006103515625</ele>
        <time>2019-07-26T12:21:24.000Z</time>
      </trkpt>
      <trkpt lat="42.9200600646436214447021484375" lon="-8.09167013503611087799072265625">
        <ele>384.79998779296875</ele>
        <time>2019-07-26T12:21:25.000Z</time>
      </trkpt>
      <trkpt lat="42.9201207496225833892822265625" lon="-8.09175278060138225555419921875">
        <ele>385.600006103515625</ele>
        <time>2019-07-26T12:21:28.000Z</time>
      </trkpt>
      <trkpt lat="42.92014748789370059967041015625" lon="-8.0917860567569732666015625">
        <ele>386.20001220703125</ele>
        <time>2019-07-26T12:21:30.000Z</time>
      </trkpt>
      <trkpt lat="42.920175231993198394775390625" lon="-8.091823272407054901123046875">
        <ele>386.79998779296875</ele>
        <time>2019-07-26T12:21:32.000Z</time>
      </trkpt>
      <trkpt lat="42.92023063637316226959228515625" lon="-8.09190340340137481689453125">
        <ele>388.20001220703125</ele>
        <time>2019-07-26T12:21:36.000Z</time>
      </trkpt>
      <trkpt lat="42.92027489282190799713134765625" lon="-8.091984875500202178955078125">
        <ele>389.399993896484375</ele>
        <time>2019-07-26T12:21:40.000Z</time>
      </trkpt>
      <trkpt lat="42.92028285562992095947265625" lon="-8.0919944308698177337646484375">
        <ele>389.600006103515625</ele>
        <time>2019-07-26T12:21:41.000Z</time>
      </trkpt>
      <trkpt lat="42.920298613607883453369140625" lon="-8.0920148827135562896728515625">
        <ele>389.79998779296875</ele>
        <time>2019-07-26T12:21:42.000Z</time>
      </trkpt>
      <trkpt lat="42.920336835086345672607421875" lon="-8.0920757353305816650390625">
        <ele>390.399993896484375</ele>
        <time>2019-07-26T12:21:44.000Z</time>
      </trkpt>
      <trkpt lat="42.920369021594524383544921875" lon="-8.09213432483375072479248046875">
        <ele>391.20001220703125</ele>
        <time>2019-07-26T12:21:47.000Z</time>
      </trkpt>
      <trkpt lat="42.9203856177628040313720703125" lon="-8.0921615660190582275390625">
        <ele>391.399993896484375</ele>
        <time>2019-07-26T12:21:48.000Z</time>
      </trkpt>
      <trkpt lat="42.9204281978309154510498046875" lon="-8.09225879609584808349609375">
        <ele>392.79998779296875</ele>
        <time>2019-07-26T12:21:52.000Z</time>
      </trkpt>
      <trkpt lat="42.9204560257494449615478515625" lon="-8.09236398898065090179443359375">
        <ele>394.20001220703125</ele>
        <time>2019-07-26T12:21:56.000Z</time>
      </trkpt>
      <trkpt lat="42.9204875417053699493408203125" lon="-8.09243456460535526275634765625">
        <ele>395.20001220703125</ele>
        <time>2019-07-26T12:22:00.000Z</time>
      </trkpt>
      <trkpt lat="42.9205207340419292449951171875" lon="-8.092452250421047210693359375">
        <ele>395.79998779296875</ele>
        <time>2019-07-26T12:22:02.000Z</time>
      </trkpt>
      <trkpt lat="42.92059130966663360595703125" lon="-8.092505224049091339111328125">
        <ele>396.399993896484375</ele>
        <time>2019-07-26T12:22:06.000Z</time>
      </trkpt>
      <trkpt lat="42.920655347406864166259765625" lon="-8.09253447689116001129150390625">
        <ele>396.79998779296875</ele>
        <time>2019-07-26T12:22:09.000Z</time>
      </trkpt>
      <trkpt lat="42.9207879491150379180908203125" lon="-8.092575632035732269287109375">
        <ele>397.399993896484375</ele>
        <time>2019-07-26T12:22:14.000Z</time>
      </trkpt>
      <trkpt lat="42.92083539068698883056640625" lon="-8.09260270558297634124755859375">
        <ele>397.79998779296875</ele>
        <time>2019-07-26T12:22:16.000Z</time>
      </trkpt>
      <trkpt lat="42.92090236209332942962646484375" lon="-8.09265266172587871551513671875">
        <ele>398.20001220703125</ele>
        <time>2019-07-26T12:22:19.000Z</time>
      </trkpt>
      <trkpt lat="42.9209532402455806732177734375" lon="-8.092680908739566802978515625">
        <ele>398.600006103515625</ele>
        <time>2019-07-26T12:22:21.000Z</time>
      </trkpt>
      <trkpt lat="42.92103831656277179718017578125" lon="-8.09272323735058307647705078125">
        <ele>399</ele>
        <time>2019-07-26T12:22:24.000Z</time>
      </trkpt>
      <trkpt lat="42.9211498796939849853515625" lon="-8.09276975691318511962890625">
        <ele>399.600006103515625</ele>
        <time>2019-07-26T12:22:28.000Z</time>
      </trkpt>
      <trkpt lat="42.92130477726459503173828125" lon="-8.09282717294991016387939453125">
        <ele>400.399993896484375</ele>
        <time>2019-07-26T12:22:33.000Z</time>
      </trkpt>
      <trkpt lat="42.92136621661484241485595703125" lon="-8.0928535759449005126953125">
        <ele>400.79998779296875</ele>
        <time>2019-07-26T12:22:35.000Z</time>
      </trkpt>
      <trkpt lat="42.92158381082117557525634765625" lon="-8.0929466150701045989990234375">
        <ele>402</ele>
        <time>2019-07-26T12:22:42.000Z</time>
      </trkpt>
      <trkpt lat="42.92175731621682643890380859375" lon="-8.0930207110941410064697265625">
        <ele>403.399993896484375</ele>
        <time>2019-07-26T12:22:49.000Z</time>
      </trkpt>
      <trkpt lat="42.9218112118542194366455078125" lon="-8.0930596031248569488525390625">
        <ele>403.600006103515625</ele>
        <time>2019-07-26T12:22:51.000Z</time>
      </trkpt>
      <trkpt lat="42.92197893373668193817138671875" lon="-8.09315926395356655120849609375">
        <ele>404.399993896484375</ele>
        <time>2019-07-26T12:22:56.000Z</time>
      </trkpt>
      <trkpt lat="42.9220522753894329071044921875" lon="-8.09319647960364818572998046875">
        <ele>404.399993896484375</ele>
        <time>2019-07-26T12:22:58.000Z</time>
      </trkpt>
      <trkpt lat="42.92228839360177516937255859375" lon="-8.0933241359889507293701171875">
        <ele>405.399993896484375</ele>
        <time>2019-07-26T12:23:04.000Z</time>
      </trkpt>
      <trkpt lat="42.92236953042447566986083984375" lon="-8.09337937273085117340087890625">
        <ele>405.600006103515625</ele>
        <time>2019-07-26T12:23:06.000Z</time>
      </trkpt>
      <trkpt lat="42.9224898107349872589111328125" lon="-8.09347375296056270599365234375">
        <ele>405.79998779296875</ele>
        <time>2019-07-26T12:23:09.000Z</time>
      </trkpt>
      <trkpt lat="42.9226577840745449066162109375" lon="-8.0936017446219921112060546875">
        <ele>406.20001220703125</ele>
        <time>2019-07-26T12:23:13.000Z</time>
      </trkpt>
      <trkpt lat="42.92305667884647846221923828125" lon="-8.09390944428741931915283203125">
        <ele>406.399993896484375</ele>
        <time>2019-07-26T12:23:23.000Z</time>
      </trkpt>
      <trkpt lat="42.92344928719103336334228515625" lon="-8.0942659266293048858642578125">
        <ele>406.20001220703125</ele>
        <time>2019-07-26T12:23:33.000Z</time>
      </trkpt>
      <trkpt lat="42.923574261367321014404296875" lon="-8.0943758971989154815673828125">
        <ele>406.399993896484375</ele>
        <time>2019-07-26T12:23:36.000Z</time>
      </trkpt>
      <trkpt lat="42.923729829490184783935546875" lon="-8.09451746754348278045654296875">
        <ele>406.600006103515625</ele>
        <time>2019-07-26T12:23:40.000Z</time>
      </trkpt>
      <trkpt lat="42.92401690967381000518798828125" lon="-8.094857521355152130126953125">
        <ele>407.399993896484375</ele>
        <time>2019-07-26T12:23:48.000Z</time>
      </trkpt>
      <trkpt lat="42.92417113669216632843017578125" lon="-8.09511593542993068695068359375">
        <ele>407.79998779296875</ele>
        <time>2019-07-26T12:23:53.000Z</time>
      </trkpt>
      <trkpt lat="42.92427800595760345458984375" lon="-8.0953518860042095184326171875">
        <ele>408.399993896484375</ele>
        <time>2019-07-26T12:23:57.000Z</time>
      </trkpt>
      <trkpt lat="42.9242987930774688720703125" lon="-8.09541617520153522491455078125">
        <ele>408.600006103515625</ele>
        <time>2019-07-26T12:23:58.000Z</time>
      </trkpt>
      <trkpt lat="42.92437531985342502593994140625" lon="-8.09567601419985294342041015625">
        <ele>409.399993896484375</ele>
        <time>2019-07-26T12:24:02.000Z</time>
      </trkpt>
      <trkpt lat="42.92440935038030147552490234375" lon="-8.0958058498799800872802734375">
        <ele>409.79998779296875</ele>
        <time>2019-07-26T12:24:04.000Z</time>
      </trkpt>
      <trkpt lat="42.92442577891051769256591796875" lon="-8.095872402191162109375">
        <ele>409.79998779296875</ele>
        <time>2019-07-26T12:24:05.000Z</time>
      </trkpt>
      <trkpt lat="42.924531139433383941650390625" lon="-8.09624254703521728515625">
        <ele>410.79998779296875</ele>
        <time>2019-07-26T12:24:11.000Z</time>
      </trkpt>
      <trkpt lat="42.92454916052520275115966796875" lon="-8.0963007174432277679443359375">
        <ele>411</ele>
        <time>2019-07-26T12:24:12.000Z</time>
      </trkpt>
      <trkpt lat="42.9246737994253635406494140625" lon="-8.09678326360881328582763671875">
        <ele>411.79998779296875</ele>
        <time>2019-07-26T12:24:20.000Z</time>
      </trkpt>
      <trkpt lat="42.92468980886042118072509765625" lon="-8.09684042818844318389892578125">
        <ele>412</ele>
        <time>2019-07-26T12:24:21.000Z</time>
      </trkpt>
      <trkpt lat="42.924762479960918426513671875" lon="-8.097127340734004974365234375">
        <ele>413</ele>
        <time>2019-07-26T12:24:26.000Z</time>
      </trkpt>
      <trkpt lat="42.92477346025407314300537109375" lon="-8.09718509204685688018798828125">
        <ele>413.20001220703125</ele>
        <time>2019-07-26T12:24:27.000Z</time>
      </trkpt>
      <trkpt lat="42.92476952075958251953125" lon="-8.09730528853833675384521484375">
        <ele>413.20001220703125</ele>
        <time>2019-07-26T12:24:29.000Z</time>
      </trkpt>
      <trkpt lat="42.92471679858863353729248046875" lon="-8.097492791712284088134765625">
        <ele>413.79998779296875</ele>
        <time>2019-07-26T12:24:32.000Z</time>
      </trkpt>
      <trkpt lat="42.92469433508813381195068359375" lon="-8.09756462462246417999267578125">
        <ele>414</ele>
        <time>2019-07-26T12:24:33.000Z</time>
      </trkpt>
      <trkpt lat="42.92467296123504638671875" lon="-8.09764374978840351104736328125">
        <ele>414.20001220703125</ele>
        <time>2019-07-26T12:24:34.000Z</time>
      </trkpt>
      <trkpt lat="42.92461470700800418853759765625" lon="-8.0979720689356327056884765625">
        <ele>414.20001220703125</ele>
        <time>2019-07-26T12:24:38.000Z</time>
      </trkpt>
      <trkpt lat="42.92459475807845592498779296875" lon="-8.0981992185115814208984375">
        <ele>414.20001220703125</ele>
        <time>2019-07-26T12:24:41.000Z</time>
      </trkpt>
      <trkpt lat="42.92458838783204555511474609375" lon="-8.0983442254364490509033203125">
        <ele>414</ele>
        <time>2019-07-26T12:24:43.000Z</time>
      </trkpt>
      <trkpt lat="42.9245884716510772705078125" lon="-8.0984974466264247894287109375">
        <ele>413.20001220703125</ele>
        <time>2019-07-26T12:24:45.000Z</time>
      </trkpt>
      <trkpt lat="42.9245938360691070556640625" lon="-8.09857615269720554351806640625">
        <ele>412.79998779296875</ele>
        <time>2019-07-26T12:24:46.000Z</time>
      </trkpt>
      <trkpt lat="42.924645803868770599365234375" lon="-8.09882995672523975372314453125">
        <ele>412.399993896484375</ele>
        <time>2019-07-26T12:24:49.000Z</time>
      </trkpt>
      <trkpt lat="42.9246716201305389404296875" lon="-8.098915033042430877685546875">
        <ele>412.399993896484375</ele>
        <time>2019-07-26T12:24:50.000Z</time>
      </trkpt>
      <trkpt lat="42.92471411637961864471435546875" lon="-8.099090047180652618408203125">
        <ele>412.20001220703125</ele>
        <time>2019-07-26T12:24:52.000Z</time>
      </trkpt>
      <trkpt lat="42.92472316883504390716552734375" lon="-8.09927654452621936798095703125">
        <ele>412.20001220703125</ele>
        <time>2019-07-26T12:24:54.000Z</time>
      </trkpt>
      <trkpt lat="42.9247160442173480987548828125" lon="-8.09947469271719455718994140625">
        <ele>411.79998779296875</ele>
        <time>2019-07-26T12:24:56.000Z</time>
      </trkpt>
      <trkpt lat="42.924684695899486541748046875" lon="-8.09989345259964466094970703125">
        <ele>411.20001220703125</ele>
        <time>2019-07-26T12:25:00.000Z</time>
      </trkpt>
      <trkpt lat="42.9246851988136768341064453125" lon="-8.10021422803401947021484375">
        <ele>410.600006103515625</ele>
        <time>2019-07-26T12:25:03.000Z</time>
      </trkpt>
      <trkpt lat="42.924683354794979095458984375" lon="-8.1004226021468639373779296875">
        <ele>409.600006103515625</ele>
        <time>2019-07-26T12:25:05.000Z</time>
      </trkpt>
      <trkpt lat="42.92468394152820110321044921875" lon="-8.10062997043132781982421875">
        <ele>408.79998779296875</ele>
        <time>2019-07-26T12:25:07.000Z</time>
      </trkpt>
      <trkpt lat="42.9246743023395538330078125" lon="-8.1008346565067768096923828125">
        <ele>408.20001220703125</ele>
        <time>2019-07-26T12:25:09.000Z</time>
      </trkpt>
      <trkpt lat="42.92466382496058940887451171875" lon="-8.1013432703912258148193359375">
        <ele>407</ele>
        <time>2019-07-26T12:25:14.000Z</time>
      </trkpt>
      <trkpt lat="42.92469567619264125823974609375" lon="-8.10174350626766681671142578125">
        <ele>406</ele>
        <time>2019-07-26T12:25:18.000Z</time>
      </trkpt>
      <trkpt lat="42.92471520602703094482421875" lon="-8.10184056870639324188232421875">
        <ele>405.79998779296875</ele>
        <time>2019-07-26T12:25:19.000Z</time>
      </trkpt>
      <trkpt lat="42.9248253442347049713134765625" lon="-8.1022126413881778717041015625">
        <ele>405.600006103515625</ele>
        <time>2019-07-26T12:25:23.000Z</time>
      </trkpt>
      <trkpt lat="42.9248830117285251617431640625" lon="-8.10239486396312713623046875">
        <ele>405.20001220703125</ele>
        <time>2019-07-26T12:25:25.000Z</time>
      </trkpt>
      <trkpt lat="42.92490606196224689483642578125" lon="-8.10246988199651241302490234375">
        <ele>405</ele>
        <time>2019-07-26T12:25:26.000Z</time>
      </trkpt>
      <trkpt lat="42.9249705187976360321044921875" lon="-8.10266911983489990234375">
        <ele>404.399993896484375</ele>
        <time>2019-07-26T12:25:29.000Z</time>
      </trkpt>
      <trkpt lat="42.92502223514020442962646484375" lon="-8.1028258614242076873779296875">
        <ele>404</ele>
        <time>2019-07-26T12:25:31.000Z</time>
      </trkpt>
      <trkpt lat="42.9251066409051418304443359375" lon="-8.10310455970466136932373046875">
        <ele>402.600006103515625</ele>
        <time>2019-07-26T12:25:34.000Z</time>
      </trkpt>
      <trkpt lat="42.925166152417659759521484375" lon="-8.10331754386425018310546875">
        <ele>401.399993896484375</ele>
        <time>2019-07-26T12:25:36.000Z</time>
      </trkpt>
      <trkpt lat="42.925244271755218505859375" lon="-8.10353857465088367462158203125">
        <ele>401</ele>
        <time>2019-07-26T12:25:38.000Z</time>
      </trkpt>
      <trkpt lat="42.92529565282166004180908203125" lon="-8.10364955104887485504150390625">
        <ele>400.79998779296875</ele>
        <time>2019-07-26T12:25:39.000Z</time>
      </trkpt>
      <trkpt lat="42.9253584332764148712158203125" lon="-8.103753067553043365478515625">
        <ele>400.399993896484375</ele>
        <time>2019-07-26T12:25:40.000Z</time>
      </trkpt>
      <trkpt lat="42.925518192350864410400390625" lon="-8.103921711444854736328125">
        <ele>400.20001220703125</ele>
        <time>2019-07-26T12:25:42.000Z</time>
      </trkpt>
      <trkpt lat="42.92560662142932415008544921875" lon="-8.10400150716304779052734375">
        <ele>399.79998779296875</ele>
        <time>2019-07-26T12:25:43.000Z</time>
      </trkpt>
      <trkpt lat="42.92569999583065509796142578125" lon="-8.10407258570194244384765625">
        <ele>399.399993896484375</ele>
        <time>2019-07-26T12:25:44.000Z</time>
      </trkpt>
      <trkpt lat="42.9258988983929157257080078125" lon="-8.1041885912418365478515625">
        <ele>398.399993896484375</ele>
        <time>2019-07-26T12:25:46.000Z</time>
      </trkpt>
      <trkpt lat="42.92600761167705059051513671875" lon="-8.10422656126320362091064453125">
        <ele>397.600006103515625</ele>
        <time>2019-07-26T12:25:47.000Z</time>
      </trkpt>
      <trkpt lat="42.92623199522495269775390625" lon="-8.1042558141052722930908203125">
        <ele>395.600006103515625</ele>
        <time>2019-07-26T12:25:49.000Z</time>
      </trkpt>
      <trkpt lat="42.9263414628803730010986328125" lon="-8.10425891540944576263427734375">
        <ele>394.600006103515625</ele>
        <time>2019-07-26T12:25:50.000Z</time>
      </trkpt>
      <trkpt lat="42.92652963660657405853271484375" lon="-8.10427282936871051788330078125">
        <ele>392.79998779296875</ele>
        <time>2019-07-26T12:25:52.000Z</time>
      </trkpt>
      <trkpt lat="42.92660507373511791229248046875" lon="-8.10429931618273258209228515625">
        <ele>391.399993896484375</ele>
        <time>2019-07-26T12:25:53.000Z</time>
      </trkpt>
      <trkpt lat="42.9266680218279361724853515625" lon="-8.10434793122112751007080078125">
        <ele>390</ele>
        <time>2019-07-26T12:25:54.000Z</time>
      </trkpt>
      <trkpt lat="42.926712445914745330810546875" lon="-8.104415573179721832275390625">
        <ele>388</ele>
        <time>2019-07-26T12:25:55.000Z</time>
      </trkpt>
      <trkpt lat="42.92674303986132144927978515625" lon="-8.10449494980275630950927734375">
        <ele>386.600006103515625</ele>
        <time>2019-07-26T12:25:56.000Z</time>
      </trkpt>
      <trkpt lat="42.92676717974245548248291015625" lon="-8.104581870138645172119140625">
        <ele>385.20001220703125</ele>
        <time>2019-07-26T12:25:57.000Z</time>
      </trkpt>
      <trkpt lat="42.9267873801290988922119140625" lon="-8.10466811992228031158447265625">
        <ele>384</ele>
        <time>2019-07-26T12:25:58.000Z</time>
      </trkpt>
      <trkpt lat="42.92681001126766204833984375" lon="-8.10475118458271026611328125">
        <ele>383</ele>
        <time>2019-07-26T12:25:59.000Z</time>
      </trkpt>
      <trkpt lat="42.92685803957283496856689453125" lon="-8.10492125339806079864501953125">
        <ele>381.79998779296875</ele>
        <time>2019-07-26T12:26:01.000Z</time>
      </trkpt>
      <trkpt lat="42.9268768988549709320068359375" lon="-8.1050026416778564453125">
        <ele>381.600006103515625</ele>
        <time>2019-07-26T12:26:02.000Z</time>
      </trkpt>
      <trkpt lat="42.92695778422057628631591796875" lon="-8.10530103743076324462890625">
        <ele>381.399993896484375</ele>
        <time>2019-07-26T12:26:07.000Z</time>
      </trkpt>
      <trkpt lat="42.926979996263980865478515625" lon="-8.10538058169186115264892578125">
        <ele>381.399993896484375</ele>
        <time>2019-07-26T12:26:09.000Z</time>
      </trkpt>
      <trkpt lat="42.9270009510219097137451171875" lon="-8.10546305961906909942626953125">
        <ele>381.399993896484375</ele>
        <time>2019-07-26T12:26:11.000Z</time>
      </trkpt>
      <trkpt lat="42.92701612226665019989013671875" lon="-8.10555584728717803955078125">
        <ele>381.600006103515625</ele>
        <time>2019-07-26T12:26:13.000Z</time>
      </trkpt>
      <trkpt lat="42.92706624604761600494384765625" lon="-8.10576665215194225311279296875">
        <ele>383</ele>
        <time>2019-07-26T12:26:18.000Z</time>
      </trkpt>
      <trkpt lat="42.9270904697477817535400390625" lon="-8.10584628023207187652587890625">
        <ele>383.600006103515625</ele>
        <time>2019-07-26T12:26:20.000Z</time>
      </trkpt>
      <trkpt lat="42.9271156154572963714599609375" lon="-8.10592490248382091522216796875">
        <ele>384.20001220703125</ele>
        <time>2019-07-26T12:26:22.000Z</time>
      </trkpt>
      <trkpt lat="42.9271633923053741455078125" lon="-8.10609220527112483978271484375">
        <ele>385.20001220703125</ele>
        <time>2019-07-26T12:26:26.000Z</time>
      </trkpt>
      <trkpt lat="42.92719599790871143341064453125" lon="-8.10621709562838077545166015625">
        <ele>385.79998779296875</ele>
        <time>2019-07-26T12:26:29.000Z</time>
      </trkpt>
      <trkpt lat="42.9272574372589588165283203125" lon="-8.1064206920564174652099609375">
        <ele>386.399993896484375</ele>
        <time>2019-07-26T12:26:34.000Z</time>
      </trkpt>
      <trkpt lat="42.927305884659290313720703125" lon="-8.10658338479697704315185546875">
        <ele>387.20001220703125</ele>
        <time>2019-07-26T12:26:38.000Z</time>
      </trkpt>
      <trkpt lat="42.92731803841888904571533203125" lon="-8.1066262163221836090087890625">
        <ele>387.399993896484375</ele>
        <time>2019-07-26T12:26:39.000Z</time>
      </trkpt>
      <trkpt lat="42.927360199391841888427734375" lon="-8.106755800545215606689453125">
        <ele>387.79998779296875</ele>
        <time>2019-07-26T12:26:42.000Z</time>
      </trkpt>
      <trkpt lat="42.9274307750165462493896484375" lon="-8.10702812857925891876220703125">
        <ele>388.399993896484375</ele>
        <time>2019-07-26T12:26:48.000Z</time>
      </trkpt>
      <trkpt lat="42.9275219701230525970458984375" lon="-8.1073943339288234710693359375">
        <ele>389.399993896484375</ele>
        <time>2019-07-26T12:26:56.000Z</time>
      </trkpt>
      <trkpt lat="42.9276034422218799591064453125" lon="-8.107601702213287353515625">
        <ele>389.79998779296875</ele>
        <time>2019-07-26T12:27:01.000Z</time>
      </trkpt>
      <trkpt lat="42.9276436753571033477783203125" lon="-8.1077218987047672271728515625">
        <ele>390.20001220703125</ele>
        <time>2019-07-26T12:27:04.000Z</time>
      </trkpt>
      <trkpt lat="42.9276560805737972259521484375" lon="-8.10776238329708576202392578125">
        <ele>390.399993896484375</ele>
        <time>2019-07-26T12:27:05.000Z</time>
      </trkpt>
      <trkpt lat="42.92770360596477985382080078125" lon="-8.10792029835283756256103515625">
        <ele>390.79998779296875</ele>
        <time>2019-07-26T12:27:09.000Z</time>
      </trkpt>
      <trkpt lat="42.92773378081619739532470703125" lon="-8.108039237558841705322265625">
        <ele>391</ele>
        <time>2019-07-26T12:27:12.000Z</time>
      </trkpt>
      <trkpt lat="42.927750460803508758544921875" lon="-8.10812045820057392120361328125">
        <ele>391.399993896484375</ele>
        <time>2019-07-26T12:27:14.000Z</time>
      </trkpt>
      <trkpt lat="42.92775976471602916717529296875" lon="-8.10816102661192417144775390625">
        <ele>391.79998779296875</ele>
        <time>2019-07-26T12:27:15.000Z</time>
      </trkpt>
      <trkpt lat="42.9278341121971607208251953125" lon="-8.10843042097985744476318359375">
        <ele>393</ele>
        <time>2019-07-26T12:27:22.000Z</time>
      </trkpt>
      <trkpt lat="42.9278983175754547119140625" lon="-8.108616583049297332763671875">
        <ele>393.600006103515625</ele>
        <time>2019-07-26T12:27:27.000Z</time>
      </trkpt>
      <trkpt lat="42.92792673222720623016357421875" lon="-8.10873292386531829833984375">
        <ele>394.399993896484375</ele>
        <time>2019-07-26T12:27:30.000Z</time>
      </trkpt>
      <trkpt lat="42.92798188515007495880126953125" lon="-8.10892243869602680206298828125">
        <ele>395.399993896484375</ele>
        <time>2019-07-26T12:27:35.000Z</time>
      </trkpt>
      <trkpt lat="42.92799563147127628326416015625" lon="-8.108953870832920074462890625">
        <ele>395.600006103515625</ele>
        <time>2019-07-26T12:27:36.000Z</time>
      </trkpt>
      <trkpt lat="42.9280423186719417572021484375" lon="-8.10914154164493083953857421875">
        <ele>396.600006103515625</ele>
        <time>2019-07-26T12:27:42.000Z</time>
      </trkpt>
      <trkpt lat="42.92804894037544727325439453125" lon="-8.10916610062122344970703125">
        <ele>396.79998779296875</ele>
        <time>2019-07-26T12:27:43.000Z</time>
      </trkpt>
      <trkpt lat="42.9280936159193515777587890625" lon="-8.109336756169795989990234375">
        <ele>397.600006103515625</ele>
        <time>2019-07-26T12:27:48.000Z</time>
      </trkpt>
      <trkpt lat="42.92810308746993541717529296875" lon="-8.10937506146728992462158203125">
        <ele>397.79998779296875</ele>
        <time>2019-07-26T12:27:49.000Z</time>
      </trkpt>
      <trkpt lat="42.9281221143901348114013671875" lon="-8.1095692701637744903564453125">
        <ele>398.79998779296875</ele>
        <time>2019-07-26T12:27:54.000Z</time>
      </trkpt>
      <trkpt lat="42.92812840081751346588134765625" lon="-8.10965786688029766082763671875">
        <ele>399.20001220703125</ele>
        <time>2019-07-26T12:27:56.000Z</time>
      </trkpt>
      <trkpt lat="42.9281392134726047515869140625" lon="-8.10979348607361316680908203125">
        <ele>400</ele>
        <time>2019-07-26T12:27:59.000Z</time>
      </trkpt>
      <trkpt lat="42.92813980020582675933837890625" lon="-8.1099742837250232696533203125">
        <ele>401</ele>
        <time>2019-07-26T12:28:03.000Z</time>
      </trkpt>
      <trkpt lat="42.9281368665397167205810546875" lon="-8.1100192107260227203369140625">
        <ele>401.20001220703125</ele>
        <time>2019-07-26T12:28:04.000Z</time>
      </trkpt>
      <trkpt lat="42.92813058011233806610107421875" lon="-8.1101868487894535064697265625">
        <ele>402.20001220703125</ele>
        <time>2019-07-26T12:28:08.000Z</time>
      </trkpt>
      <trkpt lat="42.92812605388462543487548828125" lon="-8.11030629090964794158935546875">
        <ele>402.600006103515625</ele>
        <time>2019-07-26T12:28:11.000Z</time>
      </trkpt>
      <trkpt lat="42.9281251318752765655517578125" lon="-8.1104255653917789459228515625">
        <ele>403.20001220703125</ele>
        <time>2019-07-26T12:28:14.000Z</time>
      </trkpt>
      <trkpt lat="42.928116582334041595458984375" lon="-8.11063134111464023590087890625">
        <ele>404.399993896484375</ele>
        <time>2019-07-26T12:28:20.000Z</time>
      </trkpt>
      <trkpt lat="42.928092442452907562255859375" lon="-8.11085195280611515045166015625">
        <ele>405.20001220703125</ele>
        <time>2019-07-26T12:28:26.000Z</time>
      </trkpt>
      <trkpt lat="42.928081043064594268798828125" lon="-8.11088514514267444610595703125">
        <ele>405.399993896484375</ele>
        <time>2019-07-26T12:28:27.000Z</time>
      </trkpt>
      <trkpt lat="42.9280255548655986785888671875" lon="-8.11106451787054538726806640625">
        <ele>406.600006103515625</ele>
        <time>2019-07-26T12:28:32.000Z</time>
      </trkpt>
      <trkpt lat="42.928011305630207061767578125" lon="-8.111099302768707275390625">
        <ele>406.79998779296875</ele>
        <time>2019-07-26T12:28:33.000Z</time>
      </trkpt>
      <trkpt lat="42.9279787838459014892578125" lon="-8.111161999404430389404296875">
        <ele>407.600006103515625</ele>
        <time>2019-07-26T12:28:35.000Z</time>
      </trkpt>
      <trkpt lat="42.92794215492904186248779296875" lon="-8.11124456115067005157470703125">
        <ele>408.79998779296875</ele>
        <time>2019-07-26T12:28:38.000Z</time>
      </trkpt>
      <trkpt lat="42.92792086489498615264892578125" lon="-8.111298792064189910888671875">
        <ele>409.20001220703125</ele>
        <time>2019-07-26T12:28:40.000Z</time>
      </trkpt>
      <trkpt lat="42.92789521627128124237060546875" lon="-8.11135151423513889312744140625">
        <ele>409.79998779296875</ele>
        <time>2019-07-26T12:28:42.000Z</time>
      </trkpt>
      <trkpt lat="42.9278394766151905059814453125" lon="-8.11147372238337993621826171875">
        <ele>411</ele>
        <time>2019-07-26T12:28:47.000Z</time>
      </trkpt>
      <trkpt lat="42.92779463343322277069091796875" lon="-8.11157128773629665374755859375">
        <ele>412.20001220703125</ele>
        <time>2019-07-26T12:28:51.000Z</time>
      </trkpt>
      <trkpt lat="42.927751131355762481689453125" lon="-8.11164957471191883087158203125">
        <ele>413.20001220703125</ele>
        <time>2019-07-26T12:28:54.000Z</time>
      </trkpt>
      <trkpt lat="42.927732355892658233642578125" lon="-8.111673630774021148681640625">
        <ele>413.399993896484375</ele>
        <time>2019-07-26T12:28:55.000Z</time>
      </trkpt>
      <trkpt lat="42.9276782087981700897216796875" lon="-8.11173976399004459381103515625">
        <ele>414.20001220703125</ele>
        <time>2019-07-26T12:28:58.000Z</time>
      </trkpt>
      <trkpt lat="42.92766035534441471099853515625" lon="-8.11176247894763946533203125">
        <ele>414.600006103515625</ele>
        <time>2019-07-26T12:28:59.000Z</time>
      </trkpt>
      <trkpt lat="42.9276171885430812835693359375" lon="-8.11182810924947261810302734375">
        <ele>415.20001220703125</ele>
        <time>2019-07-26T12:29:02.000Z</time>
      </trkpt>
      <trkpt lat="42.92757569812238216400146484375" lon="-8.11191008426249027252197265625">
        <ele>415.600006103515625</ele>
        <time>2019-07-26T12:29:05.000Z</time>
      </trkpt>
      <trkpt lat="42.92750344611704349517822265625" lon="-8.1120442785322666168212890625">
        <ele>416.399993896484375</ele>
        <time>2019-07-26T12:29:10.000Z</time>
      </trkpt>
      <trkpt lat="42.92749053798615932464599609375" lon="-8.1120716035366058349609375">
        <ele>416.79998779296875</ele>
        <time>2019-07-26T12:29:11.000Z</time>
      </trkpt>
      <trkpt lat="42.92740814387798309326171875" lon="-8.1121995113790035247802734375">
        <ele>417.600006103515625</ele>
        <time>2019-07-26T12:29:16.000Z</time>
      </trkpt>
      <trkpt lat="42.92739012278616428375244140625" lon="-8.11222557909786701202392578125">
        <ele>418</ele>
        <time>2019-07-26T12:29:17.000Z</time>
      </trkpt>
      <trkpt lat="42.92734377086162567138671875" lon="-8.1123024411499500274658203125">
        <ele>418.79998779296875</ele>
        <time>2019-07-26T12:29:20.000Z</time>
      </trkpt>
      <trkpt lat="42.927303873002529144287109375" lon="-8.11236237175762653350830078125">
        <ele>420</ele>
        <time>2019-07-26T12:29:23.000Z</time>
      </trkpt>
      <trkpt lat="42.9272755421698093414306640625" lon="-8.11240361072123050689697265625">
        <ele>420.399993896484375</ele>
        <time>2019-07-26T12:29:25.000Z</time>
      </trkpt>
      <trkpt lat="42.92723220773041248321533203125" lon="-8.11246748082339763641357421875">
        <ele>421</ele>
        <time>2019-07-26T12:29:28.000Z</time>
      </trkpt>
      <trkpt lat="42.92720974422991275787353515625" lon="-8.11252598650753498077392578125">
        <ele>421.79998779296875</ele>
        <time>2019-07-26T12:29:31.000Z</time>
      </trkpt>
      <trkpt lat="42.9272108338773250579833984375" lon="-8.1125502102077007293701171875">
        <ele>422.20001220703125</ele>
        <time>2019-07-26T12:29:32.000Z</time>
      </trkpt>
      <trkpt lat="42.92723371647298336029052734375" lon="-8.1125991605222225189208984375">
        <ele>423.20001220703125</ele>
        <time>2019-07-26T12:29:35.000Z</time>
      </trkpt>
      <trkpt lat="42.92724528349936008453369140625" lon="-8.1126001663506031036376953125">
        <ele>423.600006103515625</ele>
        <time>2019-07-26T12:29:36.000Z</time>
      </trkpt>
      <trkpt lat="42.9272715188562870025634765625" lon="-8.1126125715672969818115234375">
        <ele>424.20001220703125</ele>
        <time>2019-07-26T12:29:38.000Z</time>
      </trkpt>
      <trkpt lat="42.92728903703391551971435546875" lon="-8.11264333315193653106689453125">
        <ele>425.20001220703125</ele>
        <time>2019-07-26T12:29:41.000Z</time>
      </trkpt>
      <trkpt lat="42.9272939823567867279052734375" lon="-8.1126548163592815399169921875">
        <ele>425.399993896484375</ele>
        <time>2019-07-26T12:29:42.000Z</time>
      </trkpt>
      <trkpt lat="42.9273402504622936248779296875" lon="-8.11271826736629009246826171875">
        <ele>426.79998779296875</ele>
        <time>2019-07-26T12:29:46.000Z</time>
      </trkpt>
      <trkpt lat="42.92737084440886974334716796875" lon="-8.11277911998331546783447265625">
        <ele>427.600006103515625</ele>
        <time>2019-07-26T12:29:49.000Z</time>
      </trkpt>
      <trkpt lat="42.92738400399684906005859375" lon="-8.11280225403606891632080078125">
        <ele>427.79998779296875</ele>
        <time>2019-07-26T12:29:50.000Z</time>
      </trkpt>
      <trkpt lat="42.9274465329945087432861328125" lon="-8.1128817982971668243408203125">
        <ele>429</ele>
        <time>2019-07-26T12:29:54.000Z</time>
      </trkpt>
      <trkpt lat="42.9274825751781463623046875" lon="-8.11292664147913455963134765625">
        <ele>429.600006103515625</ele>
        <time>2019-07-26T12:29:56.000Z</time>
      </trkpt>
      <trkpt lat="42.9275565035641193389892578125" lon="-8.11297542415559291839599609375">
        <ele>430.20001220703125</ele>
        <time>2019-07-26T12:29:59.000Z</time>
      </trkpt>
      <trkpt lat="42.92762137949466705322265625" lon="-8.11298196204006671905517578125">
        <ele>430.600006103515625</ele>
        <time>2019-07-26T12:30:01.000Z</time>
      </trkpt>
      <trkpt lat="42.9277331940829753875732421875" lon="-8.11297483742237091064453125">
        <ele>431.20001220703125</ele>
        <time>2019-07-26T12:30:04.000Z</time>
      </trkpt>
      <trkpt lat="42.92787526734173297882080078125" lon="-8.11300224624574184417724609375">
        <ele>432</ele>
        <time>2019-07-26T12:30:08.000Z</time>
      </trkpt>
      <trkpt lat="42.9279749281704425811767578125" lon="-8.11315362341701984405517578125">
        <ele>432.20001220703125</ele>
        <time>2019-07-26T12:30:12.000Z</time>
      </trkpt>
      <trkpt lat="42.9280081205070018768310546875" lon="-8.11319100670516490936279296875">
        <ele>432.20001220703125</ele>
        <time>2019-07-26T12:30:13.000Z</time>
      </trkpt>
      <trkpt lat="42.9281284846365451812744140625" lon="-8.11331011354923248291015625">
        <ele>432.399993896484375</ele>
        <time>2019-07-26T12:30:16.000Z</time>
      </trkpt>
      <trkpt lat="42.92822831310331821441650390625" lon="-8.1133992969989776611328125">
        <ele>432.399993896484375</ele>
        <time>2019-07-26T12:30:18.000Z</time>
      </trkpt>
      <trkpt lat="42.92839963920414447784423828125" lon="-8.11358311213552951812744140625">
        <ele>432.399993896484375</ele>
        <time>2019-07-26T12:30:21.000Z</time>
      </trkpt>
      <trkpt lat="42.92846032418310642242431640625" lon="-8.11366458423435688018798828125">
        <ele>432.20001220703125</ele>
        <time>2019-07-26T12:30:22.000Z</time>
      </trkpt>
      <trkpt lat="42.92856979183852672576904296875" lon="-8.11386826448142528533935546875">
        <ele>432</ele>
        <time>2019-07-26T12:30:24.000Z</time>
      </trkpt>
      <trkpt lat="42.92865243740379810333251953125" lon="-8.114122487604618072509765625">
        <ele>431.399993896484375</ele>
        <time>2019-07-26T12:30:26.000Z</time>
      </trkpt>
      <trkpt lat="42.928682863712310791015625" lon="-8.1142644770443439483642578125">
        <ele>431.399993896484375</ele>
        <time>2019-07-26T12:30:27.000Z</time>
      </trkpt>
      <trkpt lat="42.92871178127825260162353515625" lon="-8.11441023834049701690673828125">
        <ele>431.20001220703125</ele>
        <time>2019-07-26T12:30:28.000Z</time>
      </trkpt>
      <trkpt lat="42.92874120175838470458984375" lon="-8.114557676017284393310546875">
        <ele>430.399993896484375</ele>
        <time>2019-07-26T12:30:29.000Z</time>
      </trkpt>
      <trkpt lat="42.92876844294369220733642578125" lon="-8.11471131630241870880126953125">
        <ele>429.79998779296875</ele>
        <time>2019-07-26T12:30:30.000Z</time>
      </trkpt>
      <trkpt lat="42.92879677377641201019287109375" lon="-8.11486772261559963226318359375">
        <ele>429.20001220703125</ele>
        <time>2019-07-26T12:30:31.000Z</time>
      </trkpt>
      <trkpt lat="42.928827702999114990234375" lon="-8.11502999626100063323974609375">
        <ele>428.600006103515625</ele>
        <time>2019-07-26T12:30:32.000Z</time>
      </trkpt>
      <trkpt lat="42.9288999550044536590576171875" lon="-8.11536066234111785888671875">
        <ele>427.20001220703125</ele>
        <time>2019-07-26T12:30:34.000Z</time>
      </trkpt>
      <trkpt lat="42.9289297945797443389892578125" lon="-8.1155343353748321533203125">
        <ele>425.600006103515625</ele>
        <time>2019-07-26T12:30:35.000Z</time>
      </trkpt>
      <trkpt lat="42.9289643280208110809326171875" lon="-8.11571312136948108673095703125">
        <ele>424.399993896484375</ele>
        <time>2019-07-26T12:30:36.000Z</time>
      </trkpt>
      <trkpt lat="42.92900280095636844635009765625" lon="-8.1158912368118762969970703125">
        <ele>423.399993896484375</ele>
        <time>2019-07-26T12:30:37.000Z</time>
      </trkpt>
      <trkpt lat="42.92904286645352840423583984375" lon="-8.11607387848198413848876953125">
        <ele>421.79998779296875</ele>
        <time>2019-07-26T12:30:38.000Z</time>
      </trkpt>
      <trkpt lat="42.92907639406621456146240234375" lon="-8.11626012437045574188232421875">
        <ele>420.399993896484375</ele>
        <time>2019-07-26T12:30:39.000Z</time>
      </trkpt>
      <trkpt lat="42.92911293916404247283935546875" lon="-8.11643932946026325225830078125">
        <ele>419.20001220703125</ele>
        <time>2019-07-26T12:30:40.000Z</time>
      </trkpt>
      <trkpt lat="42.929147221148014068603515625" lon="-8.11661534942686557769775390625">
        <ele>417.79998779296875</ele>
        <time>2019-07-26T12:30:41.000Z</time>
      </trkpt>
      <trkpt lat="42.9291750490665435791015625" lon="-8.116791285574436187744140625">
        <ele>416.600006103515625</ele>
        <time>2019-07-26T12:30:42.000Z</time>
      </trkpt>
      <trkpt lat="42.9292030446231365203857421875" lon="-8.116968311369419097900390625">
        <ele>415.399993896484375</ele>
        <time>2019-07-26T12:30:43.000Z</time>
      </trkpt>
      <trkpt lat="42.92923296801745891571044921875" lon="-8.1171463429927825927734375">
        <ele>414.20001220703125</ele>
        <time>2019-07-26T12:30:44.000Z</time>
      </trkpt>
      <trkpt lat="42.9292593710124492645263671875" lon="-8.1173245422542095184326171875">
        <ele>413</ele>
        <time>2019-07-26T12:30:45.000Z</time>
      </trkpt>
      <trkpt lat="42.9292788170278072357177734375" lon="-8.11748723499476909637451171875">
        <ele>412</ele>
        <time>2019-07-26T12:30:46.000Z</time>
      </trkpt>
      <trkpt lat="42.92930488474667072296142578125" lon="-8.1176618300378322601318359375">
        <ele>410.600006103515625</ele>
        <time>2019-07-26T12:30:47.000Z</time>
      </trkpt>
      <trkpt lat="42.9293321259319782257080078125" lon="-8.11783575452864170074462890625">
        <ele>409.20001220703125</ele>
        <time>2019-07-26T12:30:48.000Z</time>
      </trkpt>
      <trkpt lat="42.9293552599847316741943359375" lon="-8.11801135540008544921875">
        <ele>407.79998779296875</ele>
        <time>2019-07-26T12:30:49.000Z</time>
      </trkpt>
      <trkpt lat="42.92937696911394596099853515625" lon="-8.11818259768187999725341796875">
        <ele>406.600006103515625</ele>
        <time>2019-07-26T12:30:50.000Z</time>
      </trkpt>
      <trkpt lat="42.92939976789057254791259765625" lon="-8.11835476197302341461181640625">
        <ele>405.399993896484375</ele>
        <time>2019-07-26T12:30:51.000Z</time>
      </trkpt>
      <trkpt lat="42.92942122556269168853759765625" lon="-8.1185194663703441619873046875">
        <ele>404.79998779296875</ele>
        <time>2019-07-26T12:30:52.000Z</time>
      </trkpt>
      <trkpt lat="42.92944486252963542938232421875" lon="-8.11867930926382541656494140625">
        <ele>403.600006103515625</ele>
        <time>2019-07-26T12:30:53.000Z</time>
      </trkpt>
      <trkpt lat="42.9294716008007526397705078125" lon="-8.1189972348511219024658203125">
        <ele>401.600006103515625</ele>
        <time>2019-07-26T12:30:55.000Z</time>
      </trkpt>
      <trkpt lat="42.9294783063232898712158203125" lon="-8.11914534308016300201416015625">
        <ele>400.399993896484375</ele>
        <time>2019-07-26T12:30:56.000Z</time>
      </trkpt>
      <trkpt lat="42.92948241345584392547607421875" lon="-8.11928884126245975494384765625">
        <ele>399.399993896484375</ele>
        <time>2019-07-26T12:30:57.000Z</time>
      </trkpt>
      <trkpt lat="42.9294830001890659332275390625" lon="-8.11942865140736103057861328125">
        <ele>398.399993896484375</ele>
        <time>2019-07-26T12:30:58.000Z</time>
      </trkpt>
      <trkpt lat="42.92948023416101932525634765625" lon="-8.1195618398487567901611328125">
        <ele>397.20001220703125</ele>
        <time>2019-07-26T12:30:59.000Z</time>
      </trkpt>
      <trkpt lat="42.9294816590845584869384765625" lon="-8.1196892447769641876220703125">
        <ele>396</ele>
        <time>2019-07-26T12:31:00.000Z</time>
      </trkpt>
      <trkpt lat="42.92949649505317211151123046875" lon="-8.1198039092123508453369140625">
        <ele>395</ele>
        <time>2019-07-26T12:31:01.000Z</time>
      </trkpt>
      <trkpt lat="42.92951459996402263641357421875" lon="-8.1199111975729465484619140625">
        <ele>394.20001220703125</ele>
        <time>2019-07-26T12:31:02.000Z</time>
      </trkpt>
      <trkpt lat="42.9295249097049236297607421875" lon="-8.120015300810337066650390625">
        <ele>393.399993896484375</ele>
        <time>2019-07-26T12:31:03.000Z</time>
      </trkpt>
      <trkpt lat="42.9295232333242893218994140625" lon="-8.1201120279729366302490234375">
        <ele>392</ele>
        <time>2019-07-26T12:31:04.000Z</time>
      </trkpt>
      <trkpt lat="42.9295114986598491668701171875" lon="-8.120200373232364654541015625">
        <ele>389.600006103515625</ele>
        <time>2019-07-26T12:31:05.000Z</time>
      </trkpt>
      <trkpt lat="42.9294850118458271026611328125" lon="-8.12026399187743663787841796875">
        <ele>388.600006103515625</ele>
        <time>2019-07-26T12:31:06.000Z</time>
      </trkpt>
      <trkpt lat="42.92945140041410923004150390625" lon="-8.1203462183475494384765625">
        <ele>386.79998779296875</ele>
        <time>2019-07-26T12:31:08.000Z</time>
      </trkpt>
      <trkpt lat="42.9294526576995849609375" lon="-8.12037832103669643402099609375">
        <ele>386.399993896484375</ele>
        <time>2019-07-26T12:31:09.000Z</time>
      </trkpt>
      <trkpt lat="42.92951694689691066741943359375" lon="-8.1204620562493801116943359375">
        <ele>385.79998779296875</ele>
        <time>2019-07-26T12:31:12.000Z</time>
      </trkpt>
      <trkpt lat="42.9295430146157741546630859375" lon="-8.12049499712884426116943359375">
        <ele>385.600006103515625</ele>
        <time>2019-07-26T12:31:13.000Z</time>
      </trkpt>
      <trkpt lat="42.92962255887687206268310546875" lon="-8.12060362659394741058349609375">
        <ele>385</ele>
        <time>2019-07-26T12:31:16.000Z</time>
      </trkpt>
      <trkpt lat="42.92965315282344818115234375" lon="-8.1206779740750789642333984375">
        <ele>385</ele>
        <time>2019-07-26T12:31:18.000Z</time>
      </trkpt>
      <trkpt lat="42.9296855069696903228759765625" lon="-8.1207591108977794647216796875">
        <ele>385</ele>
        <time>2019-07-26T12:31:20.000Z</time>
      </trkpt>
      <trkpt lat="42.92971073649823665618896484375" lon="-8.1208992563188076019287109375">
        <ele>385</ele>
        <time>2019-07-26T12:31:23.000Z</time>
      </trkpt>
      <trkpt lat="42.92972163297235965728759765625" lon="-8.12094728462398052215576171875">
        <ele>385</ele>
        <time>2019-07-26T12:31:24.000Z</time>
      </trkpt>
      <trkpt lat="42.92976907454431056976318359375" lon="-8.1211186945438385009765625">
        <ele>385</ele>
        <time>2019-07-26T12:31:27.000Z</time>
      </trkpt>
      <trkpt lat="42.92987083084881305694580078125" lon="-8.121502585709095001220703125">
        <ele>385</ele>
        <time>2019-07-26T12:31:32.000Z</time>
      </trkpt>
      <trkpt lat="42.929884828627109527587890625" lon="-8.12160409055650234222412109375">
        <ele>384.79998779296875</ele>
        <time>2019-07-26T12:31:33.000Z</time>
      </trkpt>
      <trkpt lat="42.92991735041141510009765625" lon="-8.12184758484363555908203125">
        <ele>384.600006103515625</ele>
        <time>2019-07-26T12:31:35.000Z</time>
      </trkpt>
      <trkpt lat="42.92993453331291675567626953125" lon="-8.12198764644563198089599609375">
        <ele>384.399993896484375</ele>
        <time>2019-07-26T12:31:36.000Z</time>
      </trkpt>
      <trkpt lat="42.92998231016099452972412109375" lon="-8.1222532689571380615234375">
        <ele>383.79998779296875</ele>
        <time>2019-07-26T12:31:38.000Z</time>
      </trkpt>
      <trkpt lat="42.93001122772693634033203125" lon="-8.12236122786998748779296875">
        <ele>383.20001220703125</ele>
        <time>2019-07-26T12:31:39.000Z</time>
      </trkpt>
      <trkpt lat="42.93004048056900501251220703125" lon="-8.122445046901702880859375">
        <ele>382.600006103515625</ele>
        <time>2019-07-26T12:31:40.000Z</time>
      </trkpt>
      <trkpt lat="42.9300704039633274078369140625" lon="-8.12251972965896129608154296875">
        <ele>382</ele>
        <time>2019-07-26T12:31:41.000Z</time>
      </trkpt>
      <trkpt lat="42.93013083748519420623779296875" lon="-8.122656606137752532958984375">
        <ele>380.79998779296875</ele>
        <time>2019-07-26T12:31:43.000Z</time>
      </trkpt>
      <trkpt lat="42.930149696767330169677734375" lon="-8.1227345578372478485107421875">
        <ele>380.20001220703125</ele>
        <time>2019-07-26T12:31:44.000Z</time>
      </trkpt>
      <trkpt lat="42.93016201816499233245849609375" lon="-8.12282566912472248077392578125">
        <ele>379.399993896484375</ele>
        <time>2019-07-26T12:31:45.000Z</time>
      </trkpt>
      <trkpt lat="42.930156402289867401123046875" lon="-8.1230587698519229888916015625">
        <ele>377.399993896484375</ele>
        <time>2019-07-26T12:31:47.000Z</time>
      </trkpt>
      <trkpt lat="42.9301465116441249847412109375" lon="-8.123164214193820953369140625">
        <ele>376.20001220703125</ele>
        <time>2019-07-26T12:31:48.000Z</time>
      </trkpt>
      <trkpt lat="42.9301324300467967987060546875" lon="-8.12333931215107440948486328125">
        <ele>374.79998779296875</ele>
        <time>2019-07-26T12:31:50.000Z</time>
      </trkpt>
      <trkpt lat="42.93013016693294048309326171875" lon="-8.12342346645891666412353515625">
        <ele>374.399993896484375</ele>
        <time>2019-07-26T12:31:51.000Z</time>
      </trkpt>
      <trkpt lat="42.93012664653360843658447265625" lon="-8.12361943535506725311279296875">
        <ele>373.600006103515625</ele>
        <time>2019-07-26T12:31:53.000Z</time>
      </trkpt>
      <trkpt lat="42.93012765236198902130126953125" lon="-8.1238518655300140380859375">
        <ele>372.79998779296875</ele>
        <time>2019-07-26T12:31:55.000Z</time>
      </trkpt>
      <trkpt lat="42.93013787828385829925537109375" lon="-8.12397868372499942779541015625">
        <ele>372.20001220703125</ele>
        <time>2019-07-26T12:31:56.000Z</time>
      </trkpt>
      <trkpt lat="42.9301518760621547698974609375" lon="-8.12411195598542690277099609375">
        <ele>371</ele>
        <time>2019-07-26T12:31:57.000Z</time>
      </trkpt>
      <trkpt lat="42.9301652871072292327880859375" lon="-8.12424791045486927032470703125">
        <ele>369.79998779296875</ele>
        <time>2019-07-26T12:31:58.000Z</time>
      </trkpt>
      <trkpt lat="42.93018381111323833465576171875" lon="-8.12439006753265857696533203125">
        <ele>369.20001220703125</ele>
        <time>2019-07-26T12:31:59.000Z</time>
      </trkpt>
      <trkpt lat="42.9302014969289302825927734375" lon="-8.12454177998006343841552734375">
        <ele>368.20001220703125</ele>
        <time>2019-07-26T12:32:00.000Z</time>
      </trkpt>
      <trkpt lat="42.9302199371159076690673828125" lon="-8.12483556568622589111328125">
        <ele>366.600006103515625</ele>
        <time>2019-07-26T12:32:02.000Z</time>
      </trkpt>
      <trkpt lat="42.93023477308452129364013671875" lon="-8.12497395090758800506591796875">
        <ele>365</ele>
        <time>2019-07-26T12:32:03.000Z</time>
      </trkpt>
      <trkpt lat="42.93026075698435306549072265625" lon="-8.125107474625110626220703125">
        <ele>364.399993896484375</ele>
        <time>2019-07-26T12:32:04.000Z</time>
      </trkpt>
      <trkpt lat="42.9302926920354366302490234375" lon="-8.12523194588720798492431640625">
        <ele>363.399993896484375</ele>
        <time>2019-07-26T12:32:05.000Z</time>
      </trkpt>
      <trkpt lat="42.930372655391693115234375" lon="-8.1254325248301029205322265625">
        <ele>362.600006103515625</ele>
        <time>2019-07-26T12:32:07.000Z</time>
      </trkpt>
      <trkpt lat="42.9304222762584686279296875" lon="-8.12551978044211864471435546875">
        <ele>362</ele>
        <time>2019-07-26T12:32:08.000Z</time>
      </trkpt>
      <trkpt lat="42.9304801113903522491455078125" lon="-8.1256075389683246612548828125">
        <ele>361.600006103515625</ele>
        <time>2019-07-26T12:32:09.000Z</time>
      </trkpt>
      <trkpt lat="42.93053534813225269317626953125" lon="-8.12570468522608280181884765625">
        <ele>360.600006103515625</ele>
        <time>2019-07-26T12:32:10.000Z</time>
      </trkpt>
      <trkpt lat="42.930591590702533721923828125" lon="-8.1258087046444416046142578125">
        <ele>359.399993896484375</ele>
        <time>2019-07-26T12:32:11.000Z</time>
      </trkpt>
      <trkpt lat="42.9306517727673053741455078125" lon="-8.12591339461505413055419921875">
        <ele>358.399993896484375</ele>
        <time>2019-07-26T12:32:12.000Z</time>
      </trkpt>
      <trkpt lat="42.9307119548320770263671875" lon="-8.12602168880403041839599609375">
        <ele>357</ele>
        <time>2019-07-26T12:32:13.000Z</time>
      </trkpt>
      <trkpt lat="42.93077272363007068634033203125" lon="-8.1261335872113704681396484375">
        <ele>355</ele>
        <time>2019-07-26T12:32:14.000Z</time>
      </trkpt>
      <trkpt lat="42.93083441443741321563720703125" lon="-8.12624330632388591766357421875">
        <ele>353</ele>
        <time>2019-07-26T12:32:15.000Z</time>
      </trkpt>
      <trkpt lat="42.93088470585644245147705078125" lon="-8.12636283226311206817626953125">
        <ele>351.600006103515625</ele>
        <time>2019-07-26T12:32:16.000Z</time>
      </trkpt>
      <trkpt lat="42.93092108331620693206787109375" lon="-8.1264943443238735198974609375">
        <ele>350.20001220703125</ele>
        <time>2019-07-26T12:32:17.000Z</time>
      </trkpt>
      <trkpt lat="42.9309508390724658966064453125" lon="-8.126631639897823333740234375">
        <ele>349</ele>
        <time>2019-07-26T12:32:18.000Z</time>
      </trkpt>
      <trkpt lat="42.931003309786319732666015625" lon="-8.1268943287432193756103515625">
        <ele>347.399993896484375</ele>
        <time>2019-07-26T12:32:20.000Z</time>
      </trkpt>
      <trkpt lat="42.931023426353931427001953125" lon="-8.1270224042236804962158203125">
        <ele>347</ele>
        <time>2019-07-26T12:32:21.000Z</time>
      </trkpt>
      <trkpt lat="42.93105100281536579132080078125" lon="-8.12728618271648883819580078125">
        <ele>345.79998779296875</ele>
        <time>2019-07-26T12:32:23.000Z</time>
      </trkpt>
      <trkpt lat="42.9310735501348972320556640625" lon="-8.12756647355854511260986328125">
        <ele>344.600006103515625</ele>
        <time>2019-07-26T12:32:25.000Z</time>
      </trkpt>
      <trkpt lat="42.93106927536427974700927734375" lon="-8.12785749323666095733642578125">
        <ele>342.399993896484375</ele>
        <time>2019-07-26T12:32:27.000Z</time>
      </trkpt>
      <trkpt lat="42.93105703778564929962158203125" lon="-8.12801490537822246551513671875">
        <ele>341.20001220703125</ele>
        <time>2019-07-26T12:32:28.000Z</time>
      </trkpt>
      <trkpt lat="42.9310403577983379364013671875" lon="-8.128182627260684967041015625">
        <ele>340.20001220703125</ele>
        <time>2019-07-26T12:32:29.000Z</time>
      </trkpt>
      <trkpt lat="42.931020073592662811279296875" lon="-8.1283571384847164154052734375">
        <ele>338.20001220703125</ele>
        <time>2019-07-26T12:32:30.000Z</time>
      </trkpt>
      <trkpt lat="42.9309893958270549774169921875" lon="-8.1287212483584880828857421875">
        <ele>336.600006103515625</ele>
        <time>2019-07-26T12:32:32.000Z</time>
      </trkpt>
      <trkpt lat="42.93097992427647113800048828125" lon="-8.1289016269147396087646484375">
        <ele>335.399993896484375</ele>
        <time>2019-07-26T12:32:33.000Z</time>
      </trkpt>
      <trkpt lat="42.93098411522805690765380859375" lon="-8.12907286919653415679931640625">
        <ele>334</ele>
        <time>2019-07-26T12:32:34.000Z</time>
      </trkpt>
      <trkpt lat="42.9309994541108608245849609375" lon="-8.12922810204327106475830078125">
        <ele>332.20001220703125</ele>
        <time>2019-07-26T12:32:35.000Z</time>
      </trkpt>
      <trkpt lat="42.93102082796394824981689453125" lon="-8.12936305068433284759521484375">
        <ele>330.600006103515625</ele>
        <time>2019-07-26T12:32:36.000Z</time>
      </trkpt>
      <trkpt lat="42.93104262091219425201416015625" lon="-8.1294783018529415130615234375">
        <ele>329.20001220703125</ele>
        <time>2019-07-26T12:32:37.000Z</time>
      </trkpt>
      <trkpt lat="42.93105016462504863739013671875" lon="-8.12958483584225177764892578125">
        <ele>327</ele>
        <time>2019-07-26T12:32:38.000Z</time>
      </trkpt>
      <trkpt lat="42.9310470633208751678466796875" lon="-8.129686005413532257080078125">
        <ele>325.600006103515625</ele>
        <time>2019-07-26T12:32:39.000Z</time>
      </trkpt>
      <trkpt lat="42.9310336522758007049560546875" lon="-8.1297823973000049591064453125">
        <ele>324</ele>
        <time>2019-07-26T12:32:40.000Z</time>
      </trkpt>
      <trkpt lat="42.931004650890827178955078125" lon="-8.12987652607262134552001953125">
        <ele>322.20001220703125</ele>
        <time>2019-07-26T12:32:41.000Z</time>
      </trkpt>
      <trkpt lat="42.9309820197522640228271484375" lon="-8.1299728341400623321533203125">
        <ele>320.20001220703125</ele>
        <time>2019-07-26T12:32:42.000Z</time>
      </trkpt>
      <trkpt lat="42.93095813132822513580322265625" lon="-8.1300670467317104339599609375">
        <ele>318</ele>
        <time>2019-07-26T12:32:43.000Z</time>
      </trkpt>
      <trkpt lat="42.93093114160001277923583984375" lon="-8.13015866093337535858154296875">
        <ele>315.79998779296875</ele>
        <time>2019-07-26T12:32:44.000Z</time>
      </trkpt>
      <trkpt lat="42.930900715291500091552734375" lon="-8.1302283145487308502197265625">
        <ele>314</ele>
        <time>2019-07-26T12:32:45.000Z</time>
      </trkpt>
      <trkpt lat="42.9308780841529369354248046875" lon="-8.1302712298929691314697265625">
        <ele>312.79998779296875</ele>
        <time>2019-07-26T12:32:46.000Z</time>
      </trkpt>
      <trkpt lat="42.9308435507118701934814453125" lon="-8.13032093457877635955810546875">
        <ele>311.20001220703125</ele>
        <time>2019-07-26T12:32:48.000Z</time>
      </trkpt>
      <trkpt lat="42.93081278912723064422607421875" lon="-8.130356557667255401611328125">
        <ele>309.79998779296875</ele>
        <time>2019-07-26T12:32:50.000Z</time>
      </trkpt>
      <trkpt lat="42.93079518713057041168212890625" lon="-8.13038581050932407379150390625">
        <ele>308.79998779296875</ele>
        <time>2019-07-26T12:32:52.000Z</time>
      </trkpt>
      <trkpt lat="42.93078328482806682586669921875" lon="-8.13039436005055904388427734375">
        <ele>308.20001220703125</ele>
        <time>2019-07-26T12:32:54.000Z</time>
      </trkpt>
      <trkpt lat="42.93077875860035419464111328125" lon="-8.13039201311767101287841796875">
        <ele>308</ele>
        <time>2019-07-26T12:32:55.000Z</time>
      </trkpt>
      <trkpt lat="42.93077859096229076385498046875" lon="-8.13039100728929042816162109375">
        <ele>307.79998779296875</ele>
        <time>2019-07-26T12:32:56.000Z</time>
      </trkpt>
      <trkpt lat="42.930761910974979400634765625" lon="-8.1304921768605709075927734375">
        <ele>306.600006103515625</ele>
        <time>2019-07-26T12:33:03.000Z</time>
      </trkpt>
      <trkpt lat="42.93076283298432826995849609375" lon="-8.130508773028850555419921875">
        <ele>306.600006103515625</ele>
        <time>2019-07-26T12:33:04.000Z</time>
      </trkpt>
      <trkpt lat="42.93078211136162281036376953125" lon="-8.13052042387425899505615234375">
        <ele>306.600006103515625</ele>
        <time>2019-07-26T12:33:05.000Z</time>
      </trkpt>
      <trkpt lat="42.93089459650218486785888671875" lon="-8.13045973889529705047607421875">
        <ele>306.399993896484375</ele>
        <time>2019-07-26T12:33:09.000Z</time>
      </trkpt>
      <trkpt lat="42.93093918822705745697021484375" lon="-8.13038765452802181243896484375">
        <ele>306.20001220703125</ele>
        <time>2019-07-26T12:33:13.000Z</time>
      </trkpt>
      <trkpt lat="42.93094388209283351898193359375" lon="-8.13038966618478298187255859375">
        <ele>306</ele>
        <time>2019-07-26T12:33:14.000Z</time>
      </trkpt>
      <trkpt lat="42.93089442886412143707275390625" lon="-8.13050667755305767059326171875">
        <ele>305.600006103515625</ele>
        <time>2019-07-26T12:35:19.000Z</time>
      </trkpt>
      <trkpt lat="42.9308626614511013031005859375" lon="-8.13052226789295673370361328125">
        <ele>305.600006103515625</ele>
        <time>2019-07-26T12:35:20.000Z</time>
      </trkpt>
      <trkpt lat="42.93078781105577945709228515625" lon="-8.13052075915038585662841796875">
        <ele>305.79998779296875</ele>
        <time>2019-07-26T12:35:23.000Z</time>
      </trkpt>
      <trkpt lat="42.93076350353658199310302734375" lon="-8.1305163167417049407958984375">
        <ele>305.79998779296875</ele>
        <time>2019-07-26T12:35:24.000Z</time>
      </trkpt>
      <trkpt lat="42.9307184927165508270263671875" lon="-8.130556046962738037109375">
        <ele>305.79998779296875</ele>
        <time>2019-07-26T12:35:26.000Z</time>
      </trkpt>
      <trkpt lat="42.930701561272144317626953125" lon="-8.13060726039111614227294921875">
        <ele>305.79998779296875</ele>
        <time>2019-07-26T12:35:27.000Z</time>
      </trkpt>
      <trkpt lat="42.930686473846435546875" lon="-8.13066677190363407135009765625">
        <ele>305.79998779296875</ele>
        <time>2019-07-26T12:35:28.000Z</time>
      </trkpt>
      <trkpt lat="42.93064154684543609619140625" lon="-8.1307868845760822296142578125">
        <ele>305.79998779296875</ele>
        <time>2019-07-26T12:35:30.000Z</time>
      </trkpt>
      <trkpt lat="42.930601648986339569091796875" lon="-8.1308898143470287322998046875">
        <ele>306</ele>
        <time>2019-07-26T12:35:32.000Z</time>
      </trkpt>
      <trkpt lat="42.93047985993325710296630859375" lon="-8.1311540119349956512451171875">
        <ele>306.20001220703125</ele>
        <time>2019-07-26T12:35:39.000Z</time>
      </trkpt>
      <trkpt lat="42.93045974336564540863037109375" lon="-8.13125819899141788482666015625">
        <ele>306.79998779296875</ele>
        <time>2019-07-26T12:35:42.000Z</time>
      </trkpt>
      <trkpt lat="42.93046276085078716278076171875" lon="-8.13134319148957729339599609375">
        <ele>307.20001220703125</ele>
        <time>2019-07-26T12:35:45.000Z</time>
      </trkpt>
      <trkpt lat="42.9304599948227405548095703125" lon="-8.131554163992404937744140625">
        <ele>307.79998779296875</ele>
        <time>2019-07-26T12:35:51.000Z</time>
      </trkpt>
      <trkpt lat="42.93045136146247386932373046875" lon="-8.131633289158344268798828125">
        <ele>308</ele>
        <time>2019-07-26T12:35:53.000Z</time>
      </trkpt>
      <trkpt lat="42.9304482601583003997802734375" lon="-8.13178609125316143035888671875">
        <ele>308.399993896484375</ele>
        <time>2019-07-26T12:35:57.000Z</time>
      </trkpt>
      <trkpt lat="42.9304651916027069091796875" lon="-8.1318943016231060028076171875">
        <ele>309</ele>
        <time>2019-07-26T12:36:00.000Z</time>
      </trkpt>
      <trkpt lat="42.930481620132923126220703125" lon="-8.13200385309755802154541015625">
        <ele>309.79998779296875</ele>
        <time>2019-07-26T12:36:03.000Z</time>
      </trkpt>
      <trkpt lat="42.93049268424510955810546875" lon="-8.1320730037987232208251953125">
        <ele>310</ele>
        <time>2019-07-26T12:36:05.000Z</time>
      </trkpt>
      <trkpt lat="42.93050433509051799774169921875" lon="-8.1321779452264308929443359375">
        <ele>310.600006103515625</ele>
        <time>2019-07-26T12:36:08.000Z</time>
      </trkpt>
      <trkpt lat="42.9305096156895160675048828125" lon="-8.13221591524779796600341796875">
        <ele>310.79998779296875</ele>
        <time>2019-07-26T12:36:09.000Z</time>
      </trkpt>
      <trkpt lat="42.9305350966751575469970703125" lon="-8.13232404179871082305908203125">
        <ele>311.20001220703125</ele>
        <time>2019-07-26T12:36:12.000Z</time>
      </trkpt>
      <trkpt lat="42.9305713064968585968017578125" lon="-8.13241272233426570892333984375">
        <ele>312</ele>
        <time>2019-07-26T12:36:15.000Z</time>
      </trkpt>
      <trkpt lat="42.93057239614427089691162109375" lon="-8.1324458308517932891845703125">
        <ele>312.399993896484375</ele>
        <time>2019-07-26T12:36:16.000Z</time>
      </trkpt>
      <trkpt lat="42.93058480136096477508544921875" lon="-8.132556974887847900390625">
        <ele>313.399993896484375</ele>
        <time>2019-07-26T12:36:20.000Z</time>
      </trkpt>
      <trkpt lat="42.93061967007815837860107421875" lon="-8.1326547078788280487060546875">
        <ele>314.79998779296875</ele>
        <time>2019-07-26T12:36:24.000Z</time>
      </trkpt>
      <trkpt lat="42.93063207529485225677490234375" lon="-8.13273131847381591796875">
        <ele>315.79998779296875</ele>
        <time>2019-07-26T12:36:27.000Z</time>
      </trkpt>
      <trkpt lat="42.9306360147893428802490234375" lon="-8.132756464183330535888671875">
        <ele>316</ele>
        <time>2019-07-26T12:36:28.000Z</time>
      </trkpt>
      <trkpt lat="42.93064448051154613494873046875" lon="-8.13283248804509639739990234375">
        <ele>317.20001220703125</ele>
        <time>2019-07-26T12:36:31.000Z</time>
      </trkpt>
      <trkpt lat="42.93066208250820636749267578125" lon="-8.13293525017797946929931640625">
        <ele>318.399993896484375</ele>
        <time>2019-07-26T12:36:35.000Z</time>
      </trkpt>
      <trkpt lat="42.93067968450486660003662109375" lon="-8.13305594958364963531494140625">
        <ele>319.600006103515625</ele>
        <time>2019-07-26T12:36:39.000Z</time>
      </trkpt>
      <trkpt lat="42.9307000525295734405517578125" lon="-8.13314228318631649017333984375">
        <ele>320.20001220703125</ele>
        <time>2019-07-26T12:36:42.000Z</time>
      </trkpt>
      <trkpt lat="42.930706925690174102783203125" lon="-8.13317078165709972381591796875">
        <ele>320.600006103515625</ele>
        <time>2019-07-26T12:36:43.000Z</time>
      </trkpt>
      <trkpt lat="42.93073181994259357452392578125" lon="-8.13325828872621059417724609375">
        <ele>321.600006103515625</ele>
        <time>2019-07-26T12:36:46.000Z</time>
      </trkpt>
      <trkpt lat="42.93074774555861949920654296875" lon="-8.1333172135055065155029296875">
        <ele>322.20001220703125</ele>
        <time>2019-07-26T12:36:48.000Z</time>
      </trkpt>
      <trkpt lat="42.93075562454760074615478515625" lon="-8.13337479718029499053955078125">
        <ele>322.79998779296875</ele>
        <time>2019-07-26T12:36:50.000Z</time>
      </trkpt>
      <trkpt lat="42.93079552240669727325439453125" lon="-8.1335354782640933990478515625">
        <ele>324</ele>
        <time>2019-07-26T12:36:56.000Z</time>
      </trkpt>
      <trkpt lat="42.93082066811621189117431640625" lon="-8.133641593158245086669921875">
        <ele>325.20001220703125</ele>
        <time>2019-07-26T12:37:00.000Z</time>
      </trkpt>
      <trkpt lat="42.9308465681970119476318359375" lon="-8.13378014601767063140869140625">
        <ele>326.20001220703125</ele>
        <time>2019-07-26T12:37:05.000Z</time>
      </trkpt>
      <trkpt lat="42.93085184879601001739501953125" lon="-8.133807890117168426513671875">
        <ele>326.399993896484375</ele>
        <time>2019-07-26T12:37:06.000Z</time>
      </trkpt>
      <trkpt lat="42.9308675229549407958984375" lon="-8.1339451856911182403564453125">
        <ele>327.399993896484375</ele>
        <time>2019-07-26T12:37:11.000Z</time>
      </trkpt>
      <trkpt lat="42.930875904858112335205078125" lon="-8.1340001709759235382080078125">
        <ele>327.79998779296875</ele>
        <time>2019-07-26T12:37:13.000Z</time>
      </trkpt>
      <trkpt lat="42.93089275248348712921142578125" lon="-8.13411441631615161895751953125">
        <ele>328.600006103515625</ele>
        <time>2019-07-26T12:37:17.000Z</time>
      </trkpt>
      <trkpt lat="42.93092074804008007049560546875" lon="-8.1342534720897674560546875">
        <ele>329.399993896484375</ele>
        <time>2019-07-26T12:37:22.000Z</time>
      </trkpt>
      <trkpt lat="42.9309265315532684326171875" lon="-8.1342821381986141204833984375">
        <ele>329.600006103515625</ele>
        <time>2019-07-26T12:37:23.000Z</time>
      </trkpt>
      <trkpt lat="42.9309582151472568511962890625" lon="-8.13446846790611743927001953125">
        <ele>330.79998779296875</ele>
        <time>2019-07-26T12:37:29.000Z</time>
      </trkpt>
      <trkpt lat="42.93096072971820831298828125" lon="-8.1345002353191375732421875">
        <ele>331.20001220703125</ele>
        <time>2019-07-26T12:37:30.000Z</time>
      </trkpt>
      <trkpt lat="42.93095645494759082794189453125" lon="-8.13462370075285434722900390625">
        <ele>332</ele>
        <time>2019-07-26T12:37:34.000Z</time>
      </trkpt>
      <trkpt lat="42.9309478215873241424560546875" lon="-8.13465320505201816558837890625">
        <ele>332.20001220703125</ele>
        <time>2019-07-26T12:37:35.000Z</time>
      </trkpt>
      <trkpt lat="42.93092544190585613250732421875" lon="-8.13470383174717426300048828125">
        <ele>332.600006103515625</ele>
        <time>2019-07-26T12:37:37.000Z</time>
      </trkpt>
      <trkpt lat="42.93089996092021465301513671875" lon="-8.134748674929141998291015625">
        <ele>333</ele>
        <time>2019-07-26T12:37:39.000Z</time>
      </trkpt>
      <trkpt lat="42.930800132453441619873046875" lon="-8.1348799355328083038330078125">
        <ele>334.600006103515625</ele>
        <time>2019-07-26T12:37:45.000Z</time>
      </trkpt>
      <trkpt lat="42.93071237392723560333251953125" lon="-8.13499887473881244659423828125">
        <ele>335.79998779296875</ele>
        <time>2019-07-26T12:37:50.000Z</time>
      </trkpt>
      <trkpt lat="42.9306822828948497772216796875" lon="-8.1350479088723659515380859375">
        <ele>336.20001220703125</ele>
        <time>2019-07-26T12:37:52.000Z</time>
      </trkpt>
      <trkpt lat="42.93063542805612087249755859375" lon="-8.13511840067803859710693359375">
        <ele>337</ele>
        <time>2019-07-26T12:37:55.000Z</time>
      </trkpt>
      <trkpt lat="42.9305686242878437042236328125" lon="-8.135192580521106719970703125">
        <ele>337.79998779296875</ele>
        <time>2019-07-26T12:37:59.000Z</time>
      </trkpt>
      <trkpt lat="42.93054725043475627899169921875" lon="-8.13520389609038829803466796875">
        <ele>338.20001220703125</ele>
        <time>2019-07-26T12:38:00.000Z</time>
      </trkpt>
      <trkpt lat="42.9304425604641437530517578125" lon="-8.1352430395781993865966796875">
        <ele>339.20001220703125</ele>
        <time>2019-07-26T12:38:04.000Z</time>
      </trkpt>
      <trkpt lat="42.9303852282464504241943359375" lon="-8.135268352925777435302734375">
        <ele>339.79998779296875</ele>
        <time>2019-07-26T12:38:06.000Z</time>
      </trkpt>
      <trkpt lat="42.93031297624111175537109375" lon="-8.13528587110340595245361328125">
        <ele>340.20001220703125</ele>
        <time>2019-07-26T12:38:08.000Z</time>
      </trkpt>
      <trkpt lat="42.93027031235396862030029296875" lon="-8.13528679311275482177734375">
        <ele>340.600006103515625</ele>
        <time>2019-07-26T12:38:09.000Z</time>
      </trkpt>
      <trkpt lat="42.93022454716265201568603515625" lon="-8.13528436236083507537841796875">
        <ele>341</ele>
        <time>2019-07-26T12:38:10.000Z</time>
      </trkpt>
      <trkpt lat="42.93013234622776508331298828125" lon="-8.13528008759021759033203125">
        <ele>341.20001220703125</ele>
        <time>2019-07-26T12:38:12.000Z</time>
      </trkpt>
      <trkpt lat="42.92999974451959133148193359375" lon="-8.13528402708470821380615234375">
        <ele>341.399993896484375</ele>
        <time>2019-07-26T12:38:15.000Z</time>
      </trkpt>
      <trkpt lat="42.92991139926016330718994140625" lon="-8.1352780759334564208984375">
        <ele>341.399993896484375</ele>
        <time>2019-07-26T12:38:17.000Z</time>
      </trkpt>
      <trkpt lat="42.92986412532627582550048828125" lon="-8.1352802552282810211181640625">
        <ele>341.399993896484375</ele>
        <time>2019-07-26T12:38:18.000Z</time>
      </trkpt>
      <trkpt lat="42.92970201931893825531005859375" lon="-8.13534638844430446624755859375">
        <ele>341.20001220703125</ele>
        <time>2019-07-26T12:38:21.000Z</time>
      </trkpt>
      <trkpt lat="42.929584085941314697265625" lon="-8.135422579944133758544921875">
        <ele>341</ele>
        <time>2019-07-26T12:38:23.000Z</time>
      </trkpt>
      <trkpt lat="42.9294467903673648834228515625" lon="-8.1354750506579875946044921875">
        <ele>340.79998779296875</ele>
        <time>2019-07-26T12:38:25.000Z</time>
      </trkpt>
      <trkpt lat="42.92937512509524822235107421875" lon="-8.135512433946132659912109375">
        <ele>340.79998779296875</ele>
        <time>2019-07-26T12:38:26.000Z</time>
      </trkpt>
      <trkpt lat="42.92926465161144733428955078125" lon="-8.13561268150806427001953125">
        <ele>340.79998779296875</ele>
        <time>2019-07-26T12:38:28.000Z</time>
      </trkpt>
      <trkpt lat="42.92923900298774242401123046875" lon="-8.13567680306732654571533203125">
        <ele>340.600006103515625</ele>
        <time>2019-07-26T12:38:29.000Z</time>
      </trkpt>
      <trkpt lat="42.92924000881612300872802734375" lon="-8.13580848276615142822265625">
        <ele>340.600006103515625</ele>
        <time>2019-07-26T12:38:31.000Z</time>
      </trkpt>
      <trkpt lat="42.9292583651840686798095703125" lon="-8.13587830401957035064697265625">
        <ele>340.399993896484375</ele>
        <time>2019-07-26T12:38:32.000Z</time>
      </trkpt>
      <trkpt lat="42.929241098463535308837890625" lon="-8.13602079637348651885986328125">
        <ele>339.20001220703125</ele>
        <time>2019-07-26T12:38:35.000Z</time>
      </trkpt>
      <trkpt lat="42.92917412705719470977783203125" lon="-8.13605532981455326080322265625">
        <ele>338.399993896484375</ele>
        <time>2019-07-26T12:38:37.000Z</time>
      </trkpt>
      <trkpt lat="42.92914126999676227569580078125" lon="-8.136076368391513824462890625">
        <ele>338.20001220703125</ele>
        <time>2019-07-26T12:38:38.000Z</time>
      </trkpt>
      <trkpt lat="42.92910740710794925689697265625" lon="-8.13609472475945949554443359375">
        <ele>338.20001220703125</ele>
        <time>2019-07-26T12:38:39.000Z</time>
      </trkpt>
      <trkpt lat="42.9290558584034442901611328125" lon="-8.1361355446279048919677734375">
        <ele>338</ele>
        <time>2019-07-26T12:38:41.000Z</time>
      </trkpt>
      <trkpt lat="42.92897614650428295135498046875" lon="-8.1362082995474338531494140625">
        <ele>337.79998779296875</ele>
        <time>2019-07-26T12:38:44.000Z</time>
      </trkpt>
      <trkpt lat="42.92894840240478515625" lon="-8.13623202033340930938720703125">
        <ele>338.20001220703125</ele>
        <time>2019-07-26T12:38:45.000Z</time>
      </trkpt>
      <trkpt lat="42.928897775709629058837890625" lon="-8.1362766958773136138916015625">
        <ele>338.600006103515625</ele>
        <time>2019-07-26T12:38:47.000Z</time>
      </trkpt>
      <trkpt lat="42.92887531220912933349609375" lon="-8.13630075193941593170166015625">
        <ele>339.20001220703125</ele>
        <time>2019-07-26T12:38:48.000Z</time>
      </trkpt>
      <trkpt lat="42.9288681037724018096923828125" lon="-8.13633394427597522735595703125">
        <ele>340</ele>
        <time>2019-07-26T12:38:49.000Z</time>
      </trkpt>
      <trkpt lat="42.92887656949460506439208984375" lon="-8.13636579550802707672119140625">
        <ele>340.399993896484375</ele>
        <time>2019-07-26T12:38:50.000Z</time>
      </trkpt>
      <trkpt lat="42.928903140127658843994140625" lon="-8.1363843195140361785888671875">
        <ele>340.600006103515625</ele>
        <time>2019-07-26T12:38:51.000Z</time>
      </trkpt>
      <trkpt lat="42.928959466516971588134765625" lon="-8.1363709084689617156982421875">
        <ele>341.600006103515625</ele>
        <time>2019-07-26T12:38:53.000Z</time>
      </trkpt>
      <trkpt lat="42.929015122354030609130859375" lon="-8.13634165562689304351806640625">
        <ele>342.399993896484375</ele>
        <time>2019-07-26T12:38:55.000Z</time>
      </trkpt>
      <trkpt lat="42.92907203547656536102294921875" lon="-8.136323131620883941650390625">
        <ele>342.79998779296875</ele>
        <time>2019-07-26T12:38:57.000Z</time>
      </trkpt>
      <trkpt lat="42.929158620536327362060546875" lon="-8.13629622571170330047607421875">
        <ele>343.79998779296875</ele>
        <time>2019-07-26T12:39:00.000Z</time>
      </trkpt>
      <trkpt lat="42.92925291694700717926025390625" lon="-8.13626705668866634368896484375">
        <ele>344.79998779296875</ele>
        <time>2019-07-26T12:39:03.000Z</time>
      </trkpt>
      <trkpt lat="42.92942407540977001190185546875" lon="-8.13622900284826755523681640625">
        <ele>346</ele>
        <time>2019-07-26T12:39:08.000Z</time>
      </trkpt>
      <trkpt lat="42.9294933937489986419677734375" lon="-8.13621349632740020751953125">
        <ele>346.20001220703125</ele>
        <time>2019-07-26T12:39:10.000Z</time>
      </trkpt>
      <trkpt lat="42.92962423525750637054443359375" lon="-8.1361831538379192352294921875">
        <ele>347.20001220703125</ele>
        <time>2019-07-26T12:39:14.000Z</time>
      </trkpt>
      <trkpt lat="42.929755412042140960693359375" lon="-8.13615792430937290191650390625">
        <ele>348</ele>
        <time>2019-07-26T12:39:18.000Z</time>
      </trkpt>
      <trkpt lat="42.92985205538570880889892578125" lon="-8.13614778220653533935546875">
        <ele>348.600006103515625</ele>
        <time>2019-07-26T12:39:21.000Z</time>
      </trkpt>
      <trkpt lat="42.9299822263419628143310546875" lon="-8.1361442618072032928466796875">
        <ele>349.399993896484375</ele>
        <time>2019-07-26T12:39:25.000Z</time>
      </trkpt>
      <trkpt lat="42.93004802428185939788818359375" lon="-8.1361378915607929229736328125">
        <ele>349.600006103515625</ele>
        <time>2019-07-26T12:39:27.000Z</time>
      </trkpt>
      <trkpt lat="42.93020040728151798248291015625" lon="-8.13615289516746997833251953125">
        <ele>350.600006103515625</ele>
        <time>2019-07-26T12:39:32.000Z</time>
      </trkpt>
      <trkpt lat="42.93023116886615753173828125" lon="-8.1361613608896732330322265625">
        <ele>350.79998779296875</ele>
        <time>2019-07-26T12:39:33.000Z</time>
      </trkpt>
      <trkpt lat="42.930412553250789642333984375" lon="-8.1362347863614559173583984375">
        <ele>351.79998779296875</ele>
        <time>2019-07-26T12:39:39.000Z</time>
      </trkpt>
      <trkpt lat="42.9304720647633075714111328125" lon="-8.13626202754676342010498046875">
        <ele>352</ele>
        <time>2019-07-26T12:39:41.000Z</time>
      </trkpt>
      <trkpt lat="42.93060667812824249267578125" lon="-8.13637970946729183197021484375">
        <ele>352.79998779296875</ele>
        <time>2019-07-26T12:39:46.000Z</time>
      </trkpt>
      <trkpt lat="42.9306303150951862335205078125" lon="-8.1364126503467559814453125">
        <ele>353</ele>
        <time>2019-07-26T12:39:47.000Z</time>
      </trkpt>
      <trkpt lat="42.9307226836681365966796875" lon="-8.13660367392003536224365234375">
        <ele>354</ele>
        <time>2019-07-26T12:39:52.000Z</time>
      </trkpt>
      <trkpt lat="42.93075730092823505401611328125" lon="-8.136684894561767578125">
        <ele>354.20001220703125</ele>
        <time>2019-07-26T12:39:54.000Z</time>
      </trkpt>
      <trkpt lat="42.93081027455627918243408203125" lon="-8.1369445659220218658447265625">
        <ele>355</ele>
        <time>2019-07-26T12:40:00.000Z</time>
      </trkpt>
      <trkpt lat="42.9308180697262287139892578125" lon="-8.13698840327560901641845703125">
        <ele>355.20001220703125</ele>
        <time>2019-07-26T12:40:01.000Z</time>
      </trkpt>
      <trkpt lat="42.93087489902973175048828125" lon="-8.13723944127559661865234375">
        <ele>356.20001220703125</ele>
        <time>2019-07-26T12:40:07.000Z</time>
      </trkpt>
      <trkpt lat="42.93088872916996479034423828125" lon="-8.13736324198544025421142578125">
        <ele>356.600006103515625</ele>
        <time>2019-07-26T12:40:10.000Z</time>
      </trkpt>
      <trkpt lat="42.93090574443340301513671875" lon="-8.1374914012849330902099609375">
        <ele>357.20001220703125</ele>
        <time>2019-07-26T12:40:13.000Z</time>
      </trkpt>
      <trkpt lat="42.9309230111539363861083984375" lon="-8.13770748674869537353515625">
        <ele>358.20001220703125</ele>
        <time>2019-07-26T12:40:18.000Z</time>
      </trkpt>
      <trkpt lat="42.9309260286390781402587890625" lon="-8.137790970504283905029296875">
        <ele>358.399993896484375</ele>
        <time>2019-07-26T12:40:20.000Z</time>
      </trkpt>
      <trkpt lat="42.93093399144709110260009765625" lon="-8.1379597820341587066650390625">
        <ele>359.600006103515625</ele>
        <time>2019-07-26T12:40:24.000Z</time>
      </trkpt>
      <trkpt lat="42.93093432672321796417236328125" lon="-8.13809238374233245849609375">
        <ele>360</ele>
        <time>2019-07-26T12:40:27.000Z</time>
      </trkpt>
      <trkpt lat="42.930932901799678802490234375" lon="-8.1382377259433269500732421875">
        <ele>360.399993896484375</ele>
        <time>2019-07-26T12:40:30.000Z</time>
      </trkpt>
      <trkpt lat="42.93090515770018100738525390625" lon="-8.13847803510725498199462890625">
        <ele>361.399993896484375</ele>
        <time>2019-07-26T12:40:35.000Z</time>
      </trkpt>
      <trkpt lat="42.9309008829295635223388671875" lon="-8.138525895774364471435546875">
        <ele>361.600006103515625</ele>
        <time>2019-07-26T12:40:36.000Z</time>
      </trkpt>
      <trkpt lat="42.93086257763206958770751953125" lon="-8.1388036720454692840576171875">
        <ele>362.399993896484375</ele>
        <time>2019-07-26T12:40:42.000Z</time>
      </trkpt>
      <trkpt lat="42.93085318990051746368408203125" lon="-8.13889578916132450103759765625">
        <ele>362.79998779296875</ele>
        <time>2019-07-26T12:40:44.000Z</time>
      </trkpt>
      <trkpt lat="42.930834330618381500244140625" lon="-8.13912905752658843994140625">
        <ele>363.600006103515625</ele>
        <time>2019-07-26T12:40:49.000Z</time>
      </trkpt>
      <trkpt lat="42.930825613439083099365234375" lon="-8.13926509581506252288818359375">
        <ele>364.20001220703125</ele>
        <time>2019-07-26T12:40:52.000Z</time>
      </trkpt>
      <trkpt lat="42.93081698007881641387939453125" lon="-8.139401972293853759765625">
        <ele>364.79998779296875</ele>
        <time>2019-07-26T12:40:55.000Z</time>
      </trkpt>
      <trkpt lat="42.93078370392322540283203125" lon="-8.1396224163472652435302734375">
        <ele>365.399993896484375</ele>
        <time>2019-07-26T12:41:00.000Z</time>
      </trkpt>
      <trkpt lat="42.9307778365910053253173828125" lon="-8.13966591842472553253173828125">
        <ele>365.600006103515625</ele>
        <time>2019-07-26T12:41:01.000Z</time>
      </trkpt>
      <trkpt lat="42.9307560436427593231201171875" lon="-8.13988066278398036956787109375">
        <ele>366.79998779296875</ele>
        <time>2019-07-26T12:41:06.000Z</time>
      </trkpt>
      <trkpt lat="42.93074690736830234527587890625" lon="-8.13992307521402835845947265625">
        <ele>367</ele>
        <time>2019-07-26T12:41:07.000Z</time>
      </trkpt>
      <trkpt lat="42.93068580329418182373046875" lon="-8.14013496972620487213134765625">
        <ele>368</ele>
        <time>2019-07-26T12:41:12.000Z</time>
      </trkpt>
      <trkpt lat="42.930644564330577850341796875" lon="-8.14026103354990482330322265625">
        <ele>368.79998779296875</ele>
        <time>2019-07-26T12:41:15.000Z</time>
      </trkpt>
      <trkpt lat="42.9306185804307460784912109375" lon="-8.14033747650682926177978515625">
        <ele>369.20001220703125</ele>
        <time>2019-07-26T12:41:17.000Z</time>
      </trkpt>
      <trkpt lat="42.9305525310337543487548828125" lon="-8.14050276763737201690673828125">
        <ele>370.20001220703125</ele>
        <time>2019-07-26T12:41:22.000Z</time>
      </trkpt>
      <trkpt lat="42.93051992543041706085205078125" lon="-8.14057267270982265472412109375">
        <ele>370.600006103515625</ele>
        <time>2019-07-26T12:41:24.000Z</time>
      </trkpt>
      <trkpt lat="42.9304063506424427032470703125" lon="-8.14075003378093242645263671875">
        <ele>371.600006103515625</ele>
        <time>2019-07-26T12:41:29.000Z</time>
      </trkpt>
      <trkpt lat="42.93033636175096035003662109375" lon="-8.1409092061221599578857421875">
        <ele>371.79998779296875</ele>
        <time>2019-07-26T12:41:33.000Z</time>
      </trkpt>
      <trkpt lat="42.930281125009059906005859375" lon="-8.1410252116620540618896484375">
        <ele>372.600006103515625</ele>
        <time>2019-07-26T12:41:36.000Z</time>
      </trkpt>
      <trkpt lat="42.93016277253627777099609375" lon="-8.1412843801081180572509765625">
        <ele>373.600006103515625</ele>
        <time>2019-07-26T12:41:43.000Z</time>
      </trkpt>
      <trkpt lat="42.93014978058636188507080078125" lon="-8.141322098672389984130859375">
        <ele>373.79998779296875</ele>
        <time>2019-07-26T12:41:44.000Z</time>
      </trkpt>
      <trkpt lat="42.93007425963878631591796875" lon="-8.1415133737027645111083984375">
        <ele>375.20001220703125</ele>
        <time>2019-07-26T12:41:49.000Z</time>
      </trkpt>
      <trkpt lat="42.9300576634705066680908203125" lon="-8.1415526010096073150634765625">
        <ele>375.600006103515625</ele>
        <time>2019-07-26T12:41:50.000Z</time>
      </trkpt>
      <trkpt lat="42.93000058270990848541259765625" lon="-8.14177505671977996826171875">
        <ele>376.399993896484375</ele>
        <time>2019-07-26T12:41:55.000Z</time>
      </trkpt>
      <trkpt lat="42.92999035678803920745849609375" lon="-8.14181797206401824951171875">
        <ele>376.600006103515625</ele>
        <time>2019-07-26T12:41:56.000Z</time>
      </trkpt>
      <trkpt lat="42.92994928546249866485595703125" lon="-8.1420893780887126922607421875">
        <ele>377.600006103515625</ele>
        <time>2019-07-26T12:42:02.000Z</time>
      </trkpt>
      <trkpt lat="42.9299349524080753326416015625" lon="-8.14228408969938755035400390625">
        <ele>378.20001220703125</ele>
        <time>2019-07-26T12:42:06.000Z</time>
      </trkpt>
      <trkpt lat="42.9299389757215976715087890625" lon="-8.14242591150104999542236328125">
        <ele>378.79998779296875</ele>
        <time>2019-07-26T12:42:09.000Z</time>
      </trkpt>
      <trkpt lat="42.92993218638002872467041015625" lon="-8.14259505830705165863037109375">
        <ele>379.600006103515625</ele>
        <time>2019-07-26T12:42:13.000Z</time>
      </trkpt>
      <trkpt lat="42.92992481030523777008056640625" lon="-8.14273553900420665740966796875">
        <ele>379.79998779296875</ele>
        <time>2019-07-26T12:42:16.000Z</time>
      </trkpt>
      <trkpt lat="42.9299171827733516693115234375" lon="-8.14292999915778636932373046875">
        <ele>380.20001220703125</ele>
        <time>2019-07-26T12:42:20.000Z</time>
      </trkpt>
      <trkpt lat="42.9299292527139186859130859375" lon="-8.143329732120037078857421875">
        <ele>381</ele>
        <time>2019-07-26T12:42:27.000Z</time>
      </trkpt>
      <trkpt lat="42.929929755628108978271484375" lon="-8.1433890759944915771484375">
        <ele>381</ele>
        <time>2019-07-26T12:42:28.000Z</time>
      </trkpt>
      <trkpt lat="42.929919026792049407958984375" lon="-8.14370750449597835540771484375">
        <ele>382.20001220703125</ele>
        <time>2019-07-26T12:42:34.000Z</time>
      </trkpt>
      <trkpt lat="42.92991726659238338470458984375" lon="-8.14385603182017803192138671875">
        <ele>382.600006103515625</ele>
        <time>2019-07-26T12:42:37.000Z</time>
      </trkpt>
      <trkpt lat="42.92990167625248432159423828125" lon="-8.14400372095406055450439453125">
        <ele>383.20001220703125</ele>
        <time>2019-07-26T12:42:40.000Z</time>
      </trkpt>
      <trkpt lat="42.92991600930690765380859375" lon="-8.1443618796765804290771484375">
        <ele>383.399993896484375</ele>
        <time>2019-07-26T12:42:46.000Z</time>
      </trkpt>
      <trkpt lat="42.92992967180907726287841796875" lon="-8.14465030096471309661865234375">
        <ele>384</ele>
        <time>2019-07-26T12:42:52.000Z</time>
      </trkpt>
      <trkpt lat="42.92992967180907726287841796875" lon="-8.14489874057471752166748046875">
        <ele>384.600006103515625</ele>
        <time>2019-07-26T12:42:58.000Z</time>
      </trkpt>
      <trkpt lat="42.92992732487618923187255859375" lon="-8.14497652463614940643310546875">
        <ele>384.79998779296875</ele>
        <time>2019-07-26T12:43:00.000Z</time>
      </trkpt>
      <trkpt lat="42.92994157411158084869384765625" lon="-8.14515874721109867095947265625">
        <ele>385.20001220703125</ele>
        <time>2019-07-26T12:43:04.000Z</time>
      </trkpt>
      <trkpt lat="42.92994325049221515655517578125" lon="-8.14525782130658626556396484375">
        <ele>385.20001220703125</ele>
        <time>2019-07-26T12:43:06.000Z</time>
      </trkpt>
      <trkpt lat="42.92992807924747467041015625" lon="-8.14550064504146575927734375">
        <ele>385.600006103515625</ele>
        <time>2019-07-26T12:43:11.000Z</time>
      </trkpt>
      <trkpt lat="42.9299238882958889007568359375" lon="-8.14560868777334690093994140625">
        <ele>385.79998779296875</ele>
        <time>2019-07-26T12:43:13.000Z</time>
      </trkpt>
      <trkpt lat="42.9299396462738513946533203125" lon="-8.14597195945680141448974609375">
        <ele>386.20001220703125</ele>
        <time>2019-07-26T12:43:19.000Z</time>
      </trkpt>
      <trkpt lat="42.92994375340640544891357421875" lon="-8.14616759307682514190673828125">
        <ele>386.600006103515625</ele>
        <time>2019-07-26T12:43:22.000Z</time>
      </trkpt>
      <trkpt lat="42.92993738315999507904052734375" lon="-8.1464600376784801483154296875">
        <ele>387</ele>
        <time>2019-07-26T12:43:27.000Z</time>
      </trkpt>
      <trkpt lat="42.929929755628108978271484375" lon="-8.14668039791285991668701171875">
        <ele>387.79998779296875</ele>
        <time>2019-07-26T12:43:31.000Z</time>
      </trkpt>
      <trkpt lat="42.929932437837123870849609375" lon="-8.14678953029215335845947265625">
        <ele>388</ele>
        <time>2019-07-26T12:43:33.000Z</time>
      </trkpt>
      <trkpt lat="42.929939813911914825439453125" lon="-8.14715213142335414886474609375">
        <ele>388.399993896484375</ele>
        <time>2019-07-26T12:43:39.000Z</time>
      </trkpt>
      <trkpt lat="42.92995112948119640350341796875" lon="-8.14741884358227252960205078125">
        <ele>389.20001220703125</ele>
        <time>2019-07-26T12:43:43.000Z</time>
      </trkpt>
      <trkpt lat="42.9299600981175899505615234375" lon="-8.14771757461130619049072265625">
        <ele>389.600006103515625</ele>
        <time>2019-07-26T12:43:48.000Z</time>
      </trkpt>
      <trkpt lat="42.9299738444387912750244140625" lon="-8.14801077358424663543701171875">
        <ele>390.20001220703125</ele>
        <time>2019-07-26T12:43:54.000Z</time>
      </trkpt>
      <trkpt lat="42.92999756522476673126220703125" lon="-8.14817338250577449798583984375">
        <ele>390.399993896484375</ele>
        <time>2019-07-26T12:43:58.000Z</time>
      </trkpt>
      <trkpt lat="42.9300026781857013702392578125" lon="-8.1481974385678768157958984375">
        <ele>390.399993896484375</ele>
        <time>2019-07-26T12:43:59.000Z</time>
      </trkpt>
      <trkpt lat="42.93001097626984119415283203125" lon="-8.14836365170776844024658203125">
        <ele>390.600006103515625</ele>
        <time>2019-07-26T12:44:03.000Z</time>
      </trkpt>
      <trkpt lat="42.93001567013561725616455078125" lon="-8.1487432681024074554443359375">
        <ele>390.79998779296875</ele>
        <time>2019-07-26T12:44:09.000Z</time>
      </trkpt>
      <trkpt lat="42.930007539689540863037109375" lon="-8.1488106586039066314697265625">
        <ele>390.79998779296875</ele>
        <time>2019-07-26T12:44:10.000Z</time>
      </trkpt>
      <trkpt lat="42.92999823577702045440673828125" lon="-8.14894770272076129913330078125">
        <ele>390.79998779296875</ele>
        <time>2019-07-26T12:44:12.000Z</time>
      </trkpt>
      <trkpt lat="42.9300020076334476470947265625" lon="-8.149242661893367767333984375">
        <ele>390.79998779296875</ele>
        <time>2019-07-26T12:44:16.000Z</time>
      </trkpt>
      <trkpt lat="42.93001064099371433258056640625" lon="-8.14961976371705532073974609375">
        <ele>390.20001220703125</ele>
        <time>2019-07-26T12:44:21.000Z</time>
      </trkpt>
      <trkpt lat="42.93001131154596805572509765625" lon="-8.1496887467801570892333984375">
        <ele>390.20001220703125</ele>
        <time>2019-07-26T12:44:22.000Z</time>
      </trkpt>
      <trkpt lat="42.93001600541174411773681640625" lon="-8.14975789748132228851318359375">
        <ele>390</ele>
        <time>2019-07-26T12:44:23.000Z</time>
      </trkpt>
      <trkpt lat="42.9300459288060665130615234375" lon="-8.14996258355677127838134765625">
        <ele>389.600006103515625</ele>
        <time>2019-07-26T12:44:26.000Z</time>
      </trkpt>
      <trkpt lat="42.930047772824764251708984375" lon="-8.15001958049833774566650390625">
        <ele>389.399993896484375</ele>
        <time>2019-07-26T12:44:27.000Z</time>
      </trkpt>
      <trkpt lat="42.9300435818731784820556640625" lon="-8.15012871287763118743896484375">
        <ele>389.20001220703125</ele>
        <time>2019-07-26T12:44:29.000Z</time>
      </trkpt>
      <trkpt lat="42.9300452582538127899169921875" lon="-8.15027120523154735565185546875">
        <ele>388.79998779296875</ele>
        <time>2019-07-26T12:44:31.000Z</time>
      </trkpt>
      <trkpt lat="42.9300469346344470977783203125" lon="-8.1503467261791229248046875">
        <ele>388.399993896484375</ele>
        <time>2019-07-26T12:44:32.000Z</time>
      </trkpt>
      <trkpt lat="42.93005573563277721405029296875" lon="-8.1505892984569072723388671875">
        <ele>388.20001220703125</ele>
        <time>2019-07-26T12:44:35.000Z</time>
      </trkpt>
      <trkpt lat="42.93006084859371185302734375" lon="-8.15084092319011688232421875">
        <ele>388</ele>
        <time>2019-07-26T12:44:38.000Z</time>
      </trkpt>
      <trkpt lat="42.930093370378017425537109375" lon="-8.151004202663898468017578125">
        <ele>388</ele>
        <time>2019-07-26T12:44:40.000Z</time>
      </trkpt>
      <trkpt lat="42.93014357797801494598388671875" lon="-8.15115767531096935272216796875">
        <ele>388</ele>
        <time>2019-07-26T12:44:42.000Z</time>
      </trkpt>
      <trkpt lat="42.93013687245547771453857421875" lon="-8.151307962834835052490234375">
        <ele>388</ele>
        <time>2019-07-26T12:44:44.000Z</time>
      </trkpt>
      <trkpt lat="42.93012656271457672119140625" lon="-8.1514529697597026824951171875">
        <ele>388</ele>
        <time>2019-07-26T12:44:46.000Z</time>
      </trkpt>
      <trkpt lat="42.93010770343244075775146484375" lon="-8.151655308902263641357421875">
        <ele>388</ele>
        <time>2019-07-26T12:44:49.000Z</time>
      </trkpt>
      <trkpt lat="42.93007920496165752410888671875" lon="-8.151908777654170989990234375">
        <ele>388.399993896484375</ele>
        <time>2019-07-26T12:44:53.000Z</time>
      </trkpt>
      <trkpt lat="42.93007417581975460052490234375" lon="-8.15196887589991092681884765625">
        <ele>388.79998779296875</ele>
        <time>2019-07-26T12:44:54.000Z</time>
      </trkpt>
      <trkpt lat="42.9300628602504730224609375" lon="-8.15214036963880062103271484375">
        <ele>389.20001220703125</ele>
        <time>2019-07-26T12:44:57.000Z</time>
      </trkpt>
      <trkpt lat="42.93005540035665035247802734375" lon="-8.15219753421843051910400390625">
        <ele>389.399993896484375</ele>
        <time>2019-07-26T12:44:58.000Z</time>
      </trkpt>
      <trkpt lat="42.93003226630389690399169921875" lon="-8.15236953087151050567626953125">
        <ele>389.600006103515625</ele>
        <time>2019-07-26T12:45:01.000Z</time>
      </trkpt>
      <trkpt lat="42.93002656660974025726318359375" lon="-8.15242736600339412689208984375">
        <ele>389.79998779296875</ele>
        <time>2019-07-26T12:45:02.000Z</time>
      </trkpt>
      <trkpt lat="42.9299782030284404754638671875" lon="-8.152661807835102081298828125">
        <ele>390</ele>
        <time>2019-07-26T12:45:06.000Z</time>
      </trkpt>
      <trkpt lat="42.9299671389162540435791015625" lon="-8.15272140316665172576904296875">
        <ele>390.20001220703125</ele>
        <time>2019-07-26T12:45:07.000Z</time>
      </trkpt>
      <trkpt lat="42.92992539703845977783203125" lon="-8.1529586948454380035400390625">
        <ele>391</ele>
        <time>2019-07-26T12:45:11.000Z</time>
      </trkpt>
      <trkpt lat="42.92991257272660732269287109375" lon="-8.1530173681676387786865234375">
        <ele>391.20001220703125</ele>
        <time>2019-07-26T12:45:12.000Z</time>
      </trkpt>
      <trkpt lat="42.9298804700374603271484375" lon="-8.15313429571688175201416015625">
        <ele>391.399993896484375</ele>
        <time>2019-07-26T12:45:14.000Z</time>
      </trkpt>
      <trkpt lat="42.92977477423846721649169921875" lon="-8.1534823961555957794189453125">
        <ele>392</ele>
        <time>2019-07-26T12:45:20.000Z</time>
      </trkpt>
      <trkpt lat="42.92970604263246059417724609375" lon="-8.15371901728212833404541015625">
        <ele>392.600006103515625</ele>
        <time>2019-07-26T12:45:24.000Z</time>
      </trkpt>
      <trkpt lat="42.929632365703582763671875" lon="-8.15396561287343502044677734375">
        <ele>392.79998779296875</ele>
        <time>2019-07-26T12:45:28.000Z</time>
      </trkpt>
      <trkpt lat="42.929508648812770843505859375" lon="-8.15436542965471744537353515625">
        <ele>393.600006103515625</ele>
        <time>2019-07-26T12:45:35.000Z</time>
      </trkpt>
      <trkpt lat="42.929489873349666595458984375" lon="-8.15442108549177646636962890625">
        <ele>393.600006103515625</ele>
        <time>2019-07-26T12:45:36.000Z</time>
      </trkpt>
      <trkpt lat="42.92947319336235523223876953125" lon="-8.154477663338184356689453125">
        <ele>393.600006103515625</ele>
        <time>2019-07-26T12:45:37.000Z</time>
      </trkpt>
      <trkpt lat="42.92934067547321319580078125" lon="-8.15486649982631206512451171875">
        <ele>394.20001220703125</ele>
        <time>2019-07-26T12:45:44.000Z</time>
      </trkpt>
      <trkpt lat="42.92926465161144733428955078125" lon="-8.1550789810717105865478515625">
        <ele>394.79998779296875</ele>
        <time>2019-07-26T12:45:48.000Z</time>
      </trkpt>
      <trkpt lat="42.92921050451695919036865234375" lon="-8.15527771599590778350830078125">
        <ele>395.20001220703125</ele>
        <time>2019-07-26T12:45:52.000Z</time>
      </trkpt>
      <trkpt lat="42.9291938245296478271484375" lon="-8.15535642206668853759765625">
        <ele>395.600006103515625</ele>
        <time>2019-07-26T12:45:54.000Z</time>
      </trkpt>
      <trkpt lat="42.92916138656437397003173828125" lon="-8.1554917059838771820068359375">
        <ele>395.79998779296875</ele>
        <time>2019-07-26T12:45:57.000Z</time>
      </trkpt>
      <trkpt lat="42.929132468998432159423828125" lon="-8.15565071068704128265380859375">
        <ele>396</ele>
        <time>2019-07-26T12:46:01.000Z</time>
      </trkpt>
      <trkpt lat="42.9291321337223052978515625" lon="-8.1556841544806957244873046875">
        <ele>396</ele>
        <time>2019-07-26T12:46:02.000Z</time>
      </trkpt>
      <trkpt lat="42.9290920682251453399658203125" lon="-8.155818767845630645751953125">
        <ele>396.399993896484375</ele>
        <time>2019-07-26T12:46:07.000Z</time>
      </trkpt>
      <trkpt lat="42.9290015436708927154541015625" lon="-8.15613367594778537750244140625">
        <ele>396.79998779296875</ele>
        <time>2019-07-26T12:46:14.000Z</time>
      </trkpt>
      <trkpt lat="42.92899525724351406097412109375" lon="-8.156187236309051513671875">
        <ele>396.79998779296875</ele>
        <time>2019-07-26T12:46:15.000Z</time>
      </trkpt>
      <trkpt lat="42.928960807621479034423828125" lon="-8.15635227598249912261962890625">
        <ele>397.20001220703125</ele>
        <time>2019-07-26T12:46:18.000Z</time>
      </trkpt>
      <trkpt lat="42.928909175097942352294921875" lon="-8.15644967369735240936279296875">
        <ele>397.399993896484375</ele>
        <time>2019-07-26T12:46:20.000Z</time>
      </trkpt>
      <trkpt lat="42.92889408767223358154296875" lon="-8.1565069220960140228271484375">
        <ele>397.399993896484375</ele>
        <time>2019-07-26T12:46:21.000Z</time>
      </trkpt>
      <trkpt lat="42.92886533774435520172119140625" lon="-8.15661932341754436492919921875">
        <ele>397.399993896484375</ele>
        <time>2019-07-26T12:46:23.000Z</time>
      </trkpt>
      <trkpt lat="42.92869954369962215423583984375" lon="-8.1568163819611072540283203125">
        <ele>397.399993896484375</ele>
        <time>2019-07-26T12:46:27.000Z</time>
      </trkpt>
      <trkpt lat="42.92848396115005016326904296875" lon="-8.157315440475940704345703125">
        <ele>397.20001220703125</ele>
        <time>2019-07-26T12:46:34.000Z</time>
      </trkpt>
      <trkpt lat="42.92826301418244838714599609375" lon="-8.15788532607257366180419921875">
        <ele>396.600006103515625</ele>
        <time>2019-07-26T12:46:41.000Z</time>
      </trkpt>
      <trkpt lat="42.9281341843307018280029296875" lon="-8.15824113786220550537109375">
        <ele>396.20001220703125</ele>
        <time>2019-07-26T12:46:45.000Z</time>
      </trkpt>
      <trkpt lat="42.928043492138385772705078125" lon="-8.15848790109157562255859375">
        <ele>396</ele>
        <time>2019-07-26T12:46:48.000Z</time>
      </trkpt>
      <trkpt lat="42.9280195198953151702880859375" lon="-8.1585688702762126922607421875">
        <ele>396</ele>
        <time>2019-07-26T12:46:49.000Z</time>
      </trkpt>
      <trkpt lat="42.9279600083827972412109375" lon="-8.158729970455169677734375">
        <ele>395.79998779296875</ele>
        <time>2019-07-26T12:46:51.000Z</time>
      </trkpt>
      <trkpt lat="42.92786621488630771636962890625" lon="-8.15896960906684398651123046875">
        <ele>395.600006103515625</ele>
        <time>2019-07-26T12:46:54.000Z</time>
      </trkpt>
      <trkpt lat="42.92781315743923187255859375" lon="-8.15913205035030841827392578125">
        <ele>395.20001220703125</ele>
        <time>2019-07-26T12:46:56.000Z</time>
      </trkpt>
      <trkpt lat="42.9277452640235424041748046875" lon="-8.159376047551631927490234375">
        <ele>394.399993896484375</ele>
        <time>2019-07-26T12:46:59.000Z</time>
      </trkpt>
      <trkpt lat="42.92773067951202392578125" lon="-8.1594555079936981201171875">
        <ele>394.20001220703125</ele>
        <time>2019-07-26T12:47:00.000Z</time>
      </trkpt>
      <trkpt lat="42.9277228005230426788330078125" lon="-8.159533627331256866455078125">
        <ele>394</ele>
        <time>2019-07-26T12:47:01.000Z</time>
      </trkpt>
      <trkpt lat="42.92771995067596435546875" lon="-8.15977611579000949859619140625">
        <ele>393.399993896484375</ele>
        <time>2019-07-26T12:47:04.000Z</time>
      </trkpt>
      <trkpt lat="42.92768575251102447509765625" lon="-8.15999521873891353607177734375">
        <ele>393</ele>
        <time>2019-07-26T12:47:07.000Z</time>
      </trkpt>
      <trkpt lat="42.92764107696712017059326171875" lon="-8.16019646823406219482421875">
        <ele>392.79998779296875</ele>
        <time>2019-07-26T12:47:10.000Z</time>
      </trkpt>
      <trkpt lat="42.92759883217513561248779296875" lon="-8.16036318428814411163330078125">
        <ele>392.600006103515625</ele>
        <time>2019-07-26T12:47:13.000Z</time>
      </trkpt>
      <trkpt lat="42.92758944444358348846435546875" lon="-8.1604501046240329742431640625">
        <ele>392.20001220703125</ele>
        <time>2019-07-26T12:47:16.000Z</time>
      </trkpt>
      <trkpt lat="42.92758709751069545745849609375" lon="-8.1604648567736148834228515625">
        <ele>392</ele>
        <time>2019-07-26T12:47:17.000Z</time>
      </trkpt>
      <trkpt lat="42.9273922182619571685791015625" lon="-8.16037994809448719024658203125">
        <ele>391.399993896484375</ele>
        <time>2019-07-26T12:47:21.000Z</time>
      </trkpt>
      <trkpt lat="42.9273094050586223602294921875" lon="-8.16040827892720699310302734375">
        <ele>390.79998779296875</ele>
        <time>2019-07-26T12:47:34.000Z</time>
      </trkpt>
      <trkpt lat="42.92725081555545330047607421875" lon="-8.16047851927578449249267578125">
        <ele>390.79998779296875</ele>
        <time>2019-07-26T12:47:38.000Z</time>
      </trkpt>
      <trkpt lat="42.92724343948066234588623046875" lon="-8.160508610308170318603515625">
        <ele>390.79998779296875</ele>
        <time>2019-07-26T12:47:39.000Z</time>
      </trkpt>
      <trkpt lat="42.92720253579318523406982421875" lon="-8.16067364998161792755126953125">
        <ele>390.600006103515625</ele>
        <time>2019-07-26T12:47:42.000Z</time>
      </trkpt>
      <trkpt lat="42.9271437786519527435302734375" lon="-8.1608098559081554412841796875">
        <ele>390.600006103515625</ele>
        <time>2019-07-26T12:47:44.000Z</time>
      </trkpt>
      <trkpt lat="42.92703053914010524749755859375" lon="-8.16100389696657657623291015625">
        <ele>389.79998779296875</ele>
        <time>2019-07-26T12:47:47.000Z</time>
      </trkpt>
      <trkpt lat="42.92700304649770259857177734375" lon="-8.16108754836022853851318359375">
        <ele>389.399993896484375</ele>
        <time>2019-07-26T12:47:48.000Z</time>
      </trkpt>
      <trkpt lat="42.926941104233264923095703125" lon="-8.16122149117290973663330078125">
        <ele>388.600006103515625</ele>
        <time>2019-07-26T12:47:50.000Z</time>
      </trkpt>
      <trkpt lat="42.9268708638846874237060546875" lon="-8.1613399274647235870361328125">
        <ele>387.79998779296875</ele>
        <time>2019-07-26T12:47:52.000Z</time>
      </trkpt>
      <trkpt lat="42.9268386773765087127685546875" lon="-8.16139600239694118499755859375">
        <ele>387.20001220703125</ele>
        <time>2019-07-26T12:47:53.000Z</time>
      </trkpt>
      <trkpt lat="42.92679383419454097747802734375" lon="-8.16151343286037445068359375">
        <ele>386.79998779296875</ele>
        <time>2019-07-26T12:47:55.000Z</time>
      </trkpt>
      <trkpt lat="42.92672141455113887786865234375" lon="-8.161673359572887420654296875">
        <ele>386.600006103515625</ele>
        <time>2019-07-26T12:47:58.000Z</time>
      </trkpt>
      <trkpt lat="42.92669157497584819793701171875" lon="-8.1617251597344875335693359375">
        <ele>386.600006103515625</ele>
        <time>2019-07-26T12:47:59.000Z</time>
      </trkpt>
      <trkpt lat="42.9266676865518093109130859375" lon="-8.1617831625044345855712890625">
        <ele>386.600006103515625</ele>
        <time>2019-07-26T12:48:00.000Z</time>
      </trkpt>
      <trkpt lat="42.926570288836956024169921875" lon="-8.1620047800242900848388671875">
        <ele>386.600006103515625</ele>
        <time>2019-07-26T12:48:04.000Z</time>
      </trkpt>
      <trkpt lat="42.926554866135120391845703125" lon="-8.1620647944509983062744140625">
        <ele>386.79998779296875</ele>
        <time>2019-07-26T12:48:05.000Z</time>
      </trkpt>
      <trkpt lat="42.926473729312419891357421875" lon="-8.162378109991550445556640625">
        <ele>388</ele>
        <time>2019-07-26T12:48:11.000Z</time>
      </trkpt>
      <trkpt lat="42.92643022723495960235595703125" lon="-8.1626669503748416900634765625">
        <ele>388.20001220703125</ele>
        <time>2019-07-26T12:48:17.000Z</time>
      </trkpt>
      <trkpt lat="42.92641329579055309295654296875" lon="-8.1627521105110645294189453125">
        <ele>388.20001220703125</ele>
        <time>2019-07-26T12:48:19.000Z</time>
      </trkpt>
      <trkpt lat="42.92637951672077178955078125" lon="-8.16297096200287342071533203125">
        <ele>388.20001220703125</ele>
        <time>2019-07-26T12:48:24.000Z</time>
      </trkpt>
      <trkpt lat="42.92637557722628116607666015625" lon="-8.163018487393856048583984375">
        <ele>388.20001220703125</ele>
        <time>2019-07-26T12:48:25.000Z</time>
      </trkpt>
      <trkpt lat="42.9263652674853801727294921875" lon="-8.16316374577581882476806640625">
        <ele>388</ele>
        <time>2019-07-26T12:48:28.000Z</time>
      </trkpt>
      <trkpt lat="42.92635965161025524139404296875" lon="-8.16335082985460758209228515625">
        <ele>388</ele>
        <time>2019-07-26T12:48:32.000Z</time>
      </trkpt>
      <trkpt lat="42.9263739846646785736083984375" lon="-8.163599856197834014892578125">
        <ele>387.600006103515625</ele>
        <time>2019-07-26T12:48:37.000Z</time>
      </trkpt>
      <trkpt lat="42.926378510892391204833984375" lon="-8.16365383565425872802734375">
        <ele>387.399993896484375</ele>
        <time>2019-07-26T12:48:38.000Z</time>
      </trkpt>
      <trkpt lat="42.926337607204914093017578125" lon="-8.1637797318398952484130859375">
        <ele>387.399993896484375</ele>
        <time>2019-07-26T12:48:41.000Z</time>
      </trkpt>
      <trkpt lat="42.92631288059055805206298828125" lon="-8.16380563192069530487060546875">
        <ele>387.20001220703125</ele>
        <time>2019-07-26T12:48:42.000Z</time>
      </trkpt>
      <trkpt lat="42.92628555558621883392333984375" lon="-8.1638355553150177001953125">
        <ele>387</ele>
        <time>2019-07-26T12:48:44.000Z</time>
      </trkpt>
      <trkpt lat="42.9262734018266201019287109375" lon="-8.163853324949741363525390625">
        <ele>386.600006103515625</ele>
        <time>2019-07-26T12:48:46.000Z</time>
      </trkpt>
      <trkpt lat="42.92627968825399875640869140625" lon="-8.16387637518346309661865234375">
        <ele>386.399993896484375</ele>
        <time>2019-07-26T12:48:47.000Z</time>
      </trkpt>
      <trkpt lat="42.92628622613847255706787109375" lon="-8.16390286199748516082763671875">
        <ele>386.20001220703125</ele>
        <time>2019-07-26T12:48:48.000Z</time>
      </trkpt>
      <trkpt lat="42.9262787662446498870849609375" lon="-8.16406480036675930023193359375">
        <ele>385.600006103515625</ele>
        <time>2019-07-26T12:48:52.000Z</time>
      </trkpt>
      <trkpt lat="42.926292009651660919189453125" lon="-8.1644348613917827606201171875">
        <ele>385.399993896484375</ele>
        <time>2019-07-26T12:48:57.000Z</time>
      </trkpt>
      <trkpt lat="42.9263079352676868438720703125" lon="-8.1647785194218158721923828125">
        <ele>385</ele>
        <time>2019-07-26T12:49:01.000Z</time>
      </trkpt>
      <trkpt lat="42.92633316479623317718505859375" lon="-8.1648546271026134490966796875">
        <ele>384.79998779296875</ele>
        <time>2019-07-26T12:49:02.000Z</time>
      </trkpt>
      <trkpt lat="42.92638228274881839752197265625" lon="-8.164973147213459014892578125">
        <ele>384</ele>
        <time>2019-07-26T12:49:04.000Z</time>
      </trkpt>
      <trkpt lat="42.9263904131948947906494140625" lon="-8.16503307782113552093505859375">
        <ele>383.600006103515625</ele>
        <time>2019-07-26T12:49:05.000Z</time>
      </trkpt>
      <trkpt lat="42.92639426887035369873046875" lon="-8.165097199380397796630859375">
        <ele>383.399993896484375</ele>
        <time>2019-07-26T12:49:06.000Z</time>
      </trkpt>
      <trkpt lat="42.92637088336050510406494140625" lon="-8.1653322279453277587890625">
        <ele>382.600006103515625</ele>
        <time>2019-07-26T12:49:09.000Z</time>
      </trkpt>
      <trkpt lat="42.92636384256184101104736328125" lon="-8.1654202379286289215087890625">
        <ele>382.20001220703125</ele>
        <time>2019-07-26T12:49:10.000Z</time>
      </trkpt>
      <trkpt lat="42.92638312093913555145263671875" lon="-8.165602125227451324462890625">
        <ele>381</ele>
        <time>2019-07-26T12:49:12.000Z</time>
      </trkpt>
      <trkpt lat="42.92640491388738155364990234375" lon="-8.1656958349049091339111328125">
        <ele>380.399993896484375</ele>
        <time>2019-07-26T12:49:13.000Z</time>
      </trkpt>
      <trkpt lat="42.92642922140657901763916015625" lon="-8.16579021513462066650390625">
        <ele>379.79998779296875</ele>
        <time>2019-07-26T12:49:14.000Z</time>
      </trkpt>
      <trkpt lat="42.9265342466533184051513671875" lon="-8.16607964225113391876220703125">
        <ele>379</ele>
        <time>2019-07-26T12:49:17.000Z</time>
      </trkpt>
      <trkpt lat="42.92657808400690555572509765625" lon="-8.16617938689887523651123046875">
        <ele>378.79998779296875</ele>
        <time>2019-07-26T12:49:18.000Z</time>
      </trkpt>
      <trkpt lat="42.92670096270740032196044921875" lon="-8.16651164554059505462646484375">
        <ele>377.600006103515625</ele>
        <time>2019-07-26T12:49:21.000Z</time>
      </trkpt>
      <trkpt lat="42.92676575481891632080078125" lon="-8.1667484343051910400390625">
        <ele>376.399993896484375</ele>
        <time>2019-07-26T12:49:23.000Z</time>
      </trkpt>
      <trkpt lat="42.9267877154052257537841796875" lon="-8.16687340848147869110107421875">
        <ele>375.79998779296875</ele>
        <time>2019-07-26T12:49:24.000Z</time>
      </trkpt>
      <trkpt lat="42.92680003680288791656494140625" lon="-8.1670017354190349578857421875">
        <ele>375</ele>
        <time>2019-07-26T12:49:25.000Z</time>
      </trkpt>
      <trkpt lat="42.92680406011641025543212890625" lon="-8.16726702265441417694091796875">
        <ele>373.79998779296875</ele>
        <time>2019-07-26T12:49:27.000Z</time>
      </trkpt>
      <trkpt lat="42.9268058203160762786865234375" lon="-8.1675411947071552276611328125">
        <ele>372.600006103515625</ele>
        <time>2019-07-26T12:49:29.000Z</time>
      </trkpt>
      <trkpt lat="42.92680556885898113250732421875" lon="-8.1678188033401966094970703125">
        <ele>371.399993896484375</ele>
        <time>2019-07-26T12:49:31.000Z</time>
      </trkpt>
      <trkpt lat="42.92680825106799602508544921875" lon="-8.167953081429004669189453125">
        <ele>369.79998779296875</ele>
        <time>2019-07-26T12:49:32.000Z</time>
      </trkpt>
      <trkpt lat="42.92682015337049961090087890625" lon="-8.16808945499360561370849609375">
        <ele>369</ele>
        <time>2019-07-26T12:49:33.000Z</time>
      </trkpt>
      <trkpt lat="42.92683708481490612030029296875" lon="-8.16822775639593601226806640625">
        <ele>368.399993896484375</ele>
        <time>2019-07-26T12:49:34.000Z</time>
      </trkpt>
      <trkpt lat="42.926904223859310150146484375" lon="-8.1686720810830593109130859375">
        <ele>366.600006103515625</ele>
        <time>2019-07-26T12:49:37.000Z</time>
      </trkpt>
      <trkpt lat="42.92693071067333221435546875" lon="-8.16883049905300140380859375">
        <ele>365.600006103515625</ele>
        <time>2019-07-26T12:49:38.000Z</time>
      </trkpt>
      <trkpt lat="42.92699416168034076690673828125" lon="-8.16915244795382022857666015625">
        <ele>363.399993896484375</ele>
        <time>2019-07-26T12:49:40.000Z</time>
      </trkpt>
      <trkpt lat="42.9270265996456146240234375" lon="-8.16931270994246006011962890625">
        <ele>362</ele>
        <time>2019-07-26T12:49:41.000Z</time>
      </trkpt>
      <trkpt lat="42.92708368040621280670166015625" lon="-8.1696108542382717132568359375">
        <ele>360.20001220703125</ele>
        <time>2019-07-26T12:49:43.000Z</time>
      </trkpt>
      <trkpt lat="42.92711301706731319427490234375" lon="-8.16975158639252185821533203125">
        <ele>359</ele>
        <time>2019-07-26T12:49:44.000Z</time>
      </trkpt>
      <trkpt lat="42.92713749222457408905029296875" lon="-8.1698891334235668182373046875">
        <ele>357.79998779296875</ele>
        <time>2019-07-26T12:49:45.000Z</time>
      </trkpt>
      <trkpt lat="42.92714972980320453643798828125" lon="-8.1700198911130428314208984375">
        <ele>356.79998779296875</ele>
        <time>2019-07-26T12:49:46.000Z</time>
      </trkpt>
      <trkpt lat="42.9271531663835048675537109375" lon="-8.17015073262155055999755859375">
        <ele>355.399993896484375</ele>
        <time>2019-07-26T12:49:47.000Z</time>
      </trkpt>
      <trkpt lat="42.92714587412774562835693359375" lon="-8.170279562473297119140625">
        <ele>354.20001220703125</ele>
        <time>2019-07-26T12:49:48.000Z</time>
      </trkpt>
      <trkpt lat="42.9271313734352588653564453125" lon="-8.17040621303021907806396484375">
        <ele>352.79998779296875</ele>
        <time>2019-07-26T12:49:49.000Z</time>
      </trkpt>
      <trkpt lat="42.92711452580988407135009765625" lon="-8.17053244449198246002197265625">
        <ele>351</ele>
        <time>2019-07-26T12:49:50.000Z</time>
      </trkpt>
      <trkpt lat="42.92709759436547756195068359375" lon="-8.17066001705825328826904296875">
        <ele>349.399993896484375</ele>
        <time>2019-07-26T12:49:51.000Z</time>
      </trkpt>
      <trkpt lat="42.92707982473075389862060546875" lon="-8.17078138701617717742919921875">
        <ele>348.399993896484375</ele>
        <time>2019-07-26T12:49:52.000Z</time>
      </trkpt>
      <trkpt lat="42.92706993408501148223876953125" lon="-8.17089806310832500457763671875">
        <ele>346.79998779296875</ele>
        <time>2019-07-26T12:49:53.000Z</time>
      </trkpt>
      <trkpt lat="42.9270639829337596893310546875" lon="-8.17100551910698413848876953125">
        <ele>345.399993896484375</ele>
        <time>2019-07-26T12:49:54.000Z</time>
      </trkpt>
      <trkpt lat="42.92705886997282505035400390625" lon="-8.17110006697475910186767578125">
        <ele>344.20001220703125</ele>
        <time>2019-07-26T12:49:55.000Z</time>
      </trkpt>
      <trkpt lat="42.9270465485751628875732421875" lon="-8.1711812876164913177490234375">
        <ele>343.20001220703125</ele>
        <time>2019-07-26T12:49:56.000Z</time>
      </trkpt>
      <trkpt lat="42.927039004862308502197265625" lon="-8.17132101394236087799072265625">
        <ele>341.399993896484375</ele>
        <time>2019-07-26T12:49:58.000Z</time>
      </trkpt>
      <trkpt lat="42.9270364902913570404052734375" lon="-8.17155771888792514801025390625">
        <ele>340.600006103515625</ele>
        <time>2019-07-26T12:50:03.000Z</time>
      </trkpt>
      <trkpt lat="42.92704202234745025634765625" lon="-8.17165561951696872711181640625">
        <ele>340.600006103515625</ele>
        <time>2019-07-26T12:50:06.000Z</time>
      </trkpt>
      <trkpt lat="42.92705233208835124969482421875" lon="-8.17172636277973651885986328125">
        <ele>341</ele>
        <time>2019-07-26T12:50:09.000Z</time>
      </trkpt>
      <trkpt lat="42.92705886997282505035400390625" lon="-8.17179375328123569488525390625">
        <ele>342</ele>
        <time>2019-07-26T12:50:12.000Z</time>
      </trkpt>
      <trkpt lat="42.92707161046564579010009765625" lon="-8.171859718859195709228515625">
        <ele>342.600006103515625</ele>
        <time>2019-07-26T12:50:15.000Z</time>
      </trkpt>
      <trkpt lat="42.9270921461284160614013671875" lon="-8.17189894616603851318359375">
        <ele>343</ele>
        <time>2019-07-26T12:50:17.000Z</time>
      </trkpt>
      <trkpt lat="42.92710463516414165496826171875" lon="-8.17193926312029361724853515625">
        <ele>343.600006103515625</ele>
        <time>2019-07-26T12:50:19.000Z</time>
      </trkpt>
      <trkpt lat="42.927111089229583740234375" lon="-8.17196005024015903472900390625">
        <ele>343.79998779296875</ele>
        <time>2019-07-26T12:50:20.000Z</time>
      </trkpt>
      <trkpt lat="42.9271182976663112640380859375" lon="-8.1720060668885707855224609375">
        <ele>344.399993896484375</ele>
        <time>2019-07-26T12:50:22.000Z</time>
      </trkpt>
      <trkpt lat="42.92713430710136890411376953125" lon="-8.1720550172030925750732421875">
        <ele>344.79998779296875</ele>
        <time>2019-07-26T12:50:24.000Z</time>
      </trkpt>
      <trkpt lat="42.9271508194506168365478515625" lon="-8.1721173785626888275146484375">
        <ele>346.399993896484375</ele>
        <time>2019-07-26T12:50:27.000Z</time>
      </trkpt>
      <trkpt lat="42.9271602071821689605712890625" lon="-8.17217915318906307220458984375">
        <ele>347.399993896484375</ele>
        <time>2019-07-26T12:50:30.000Z</time>
      </trkpt>
      <trkpt lat="42.927174456417560577392578125" lon="-8.17223732359707355499267578125">
        <ele>347.79998779296875</ele>
        <time>2019-07-26T12:50:32.000Z</time>
      </trkpt>
      <trkpt lat="42.9272027872502803802490234375" lon="-8.17230395972728729248046875">
        <ele>348.600006103515625</ele>
        <time>2019-07-26T12:50:34.000Z</time>
      </trkpt>
      <trkpt lat="42.9272425174713134765625" lon="-8.17242172546684741973876953125">
        <ele>349.79998779296875</ele>
        <time>2019-07-26T12:50:37.000Z</time>
      </trkpt>
      <trkpt lat="42.92729280889034271240234375" lon="-8.172604702413082122802734375">
        <ele>350.79998779296875</ele>
        <time>2019-07-26T12:50:43.000Z</time>
      </trkpt>
      <trkpt lat="42.92733144946396350860595703125" lon="-8.1727403216063976287841796875">
        <ele>352</ele>
        <time>2019-07-26T12:50:49.000Z</time>
      </trkpt>
      <trkpt lat="42.92734284885227680206298828125" lon="-8.17275867797434329986572265625">
        <ele>352.20001220703125</ele>
        <time>2019-07-26T12:50:50.000Z</time>
      </trkpt>
      <trkpt lat="42.9273922182619571685791015625" lon="-8.1729039363563060760498046875">
        <ele>353</ele>
        <time>2019-07-26T12:50:56.000Z</time>
      </trkpt>
      <trkpt lat="42.92741241864860057830810546875" lon="-8.172951042652130126953125">
        <ele>353.399993896484375</ele>
        <time>2019-07-26T12:50:58.000Z</time>
      </trkpt>
      <trkpt lat="42.927458770573139190673828125" lon="-8.17307031713426113128662109375">
        <ele>354.20001220703125</ele>
        <time>2019-07-26T12:51:03.000Z</time>
      </trkpt>
      <trkpt lat="42.9274636320769786834716796875" lon="-8.1731027550995349884033203125">
        <ele>354.600006103515625</ele>
        <time>2019-07-26T12:51:04.000Z</time>
      </trkpt>
      <trkpt lat="42.92748081497848033905029296875" lon="-8.17327684722840785980224609375">
        <ele>355.399993896484375</ele>
        <time>2019-07-26T12:51:08.000Z</time>
      </trkpt>
      <trkpt lat="42.9274656437337398529052734375" lon="-8.17337340675294399261474609375">
        <ele>355.79998779296875</ele>
        <time>2019-07-26T12:51:10.000Z</time>
      </trkpt>
      <trkpt lat="42.92739615775644779205322265625" lon="-8.17355847917497158050537109375">
        <ele>356</ele>
        <time>2019-07-26T12:51:15.000Z</time>
      </trkpt>
      <trkpt lat="42.92735391296446323394775390625" lon="-8.17364715971052646636962890625">
        <ele>356</ele>
        <time>2019-07-26T12:51:17.000Z</time>
      </trkpt>
      <trkpt lat="42.927236817777156829833984375" lon="-8.17384145222604274749755859375">
        <ele>355.79998779296875</ele>
        <time>2019-07-26T12:51:22.000Z</time>
      </trkpt>
      <trkpt lat="42.9272044636309146881103515625" lon="-8.17388369701802730560302734375">
        <ele>355.79998779296875</ele>
        <time>2019-07-26T12:51:23.000Z</time>
      </trkpt>
      <trkpt lat="42.92714595794677734375" lon="-8.17394957877695560455322265625">
        <ele>355.399993896484375</ele>
        <time>2019-07-26T12:51:25.000Z</time>
      </trkpt>
      <trkpt lat="42.9270180501043796539306640625" lon="-8.174034990370273590087890625">
        <ele>355</ele>
        <time>2019-07-26T12:51:28.000Z</time>
      </trkpt>
      <trkpt lat="42.92690967209637165069580078125" lon="-8.17408083938062191009521484375">
        <ele>354.79998779296875</ele>
        <time>2019-07-26T12:51:30.000Z</time>
      </trkpt>
      <trkpt lat="42.9267870448529720306396484375" lon="-8.17413724958896636962890625">
        <ele>354.600006103515625</ele>
        <time>2019-07-26T12:51:32.000Z</time>
      </trkpt>
      <trkpt lat="42.9267186485230922698974609375" lon="-8.1741756387054920196533203125">
        <ele>354.600006103515625</ele>
        <time>2019-07-26T12:51:33.000Z</time>
      </trkpt>
      <trkpt lat="42.9266123659908771514892578125" lon="-8.17426842637360095977783203125">
        <ele>354.600006103515625</ele>
        <time>2019-07-26T12:51:35.000Z</time>
      </trkpt>
      <trkpt lat="42.926538772881031036376953125" lon="-8.17439666949212551116943359375">
        <ele>354.399993896484375</ele>
        <time>2019-07-26T12:51:37.000Z</time>
      </trkpt>
      <trkpt lat="42.9264789260923862457275390625" lon="-8.17453279159963130950927734375">
        <ele>354.20001220703125</ele>
        <time>2019-07-26T12:51:39.000Z</time>
      </trkpt>
      <trkpt lat="42.92645671404898166656494140625" lon="-8.17460169084370136260986328125">
        <ele>354.20001220703125</ele>
        <time>2019-07-26T12:51:40.000Z</time>
      </trkpt>
      <trkpt lat="42.92641782201826572418212890625" lon="-8.17475373856723308563232421875">
        <ele>354.20001220703125</ele>
        <time>2019-07-26T12:51:42.000Z</time>
      </trkpt>
      <trkpt lat="42.9262392036616802215576171875" lon="-8.17523050121963024139404296875">
        <ele>354</ele>
        <time>2019-07-26T12:51:48.000Z</time>
      </trkpt>
      <trkpt lat="42.92607701383531093597412109375" lon="-8.17566879093647003173828125">
        <ele>353.399993896484375</ele>
        <time>2019-07-26T12:51:53.000Z</time>
      </trkpt>
      <trkpt lat="42.9260263033211231231689453125" lon="-8.17577566020190715789794921875">
        <ele>353</ele>
        <time>2019-07-26T12:51:54.000Z</time>
      </trkpt>
      <trkpt lat="42.92580225504934787750244140625" lon="-8.17638535983860492706298828125">
        <ele>352.600006103515625</ele>
        <time>2019-07-26T12:51:59.000Z</time>
      </trkpt>
      <trkpt lat="42.92572162114083766937255859375" lon="-8.17663983441889286041259765625">
        <ele>352.399993896484375</ele>
        <time>2019-07-26T12:52:01.000Z</time>
      </trkpt>
      <trkpt lat="42.92556521482765674591064453125" lon="-8.1771441735327243804931640625">
        <ele>350.79998779296875</ele>
        <time>2019-07-26T12:52:05.000Z</time>
      </trkpt>
      <trkpt lat="42.9255099780857563018798828125" lon="-8.177399821579456329345703125">
        <ele>349.600006103515625</ele>
        <time>2019-07-26T12:52:07.000Z</time>
      </trkpt>
      <trkpt lat="42.92548977769911289215087890625" lon="-8.17752898670732975006103515625">
        <ele>349</ele>
        <time>2019-07-26T12:52:08.000Z</time>
      </trkpt>
      <trkpt lat="42.925465889275074005126953125" lon="-8.17766209132969379425048828125">
        <ele>348.399993896484375</ele>
        <time>2019-07-26T12:52:09.000Z</time>
      </trkpt>
      <trkpt lat="42.9254476167261600494384765625" lon="-8.177800141274929046630859375">
        <ele>347.600006103515625</ele>
        <time>2019-07-26T12:52:10.000Z</time>
      </trkpt>
      <trkpt lat="42.92543512769043445587158203125" lon="-8.17794456146657466888427734375">
        <ele>346.79998779296875</ele>
        <time>2019-07-26T12:52:11.000Z</time>
      </trkpt>
      <trkpt lat="42.9254271648824214935302734375" lon="-8.1782443821430206298828125">
        <ele>345.399993896484375</ele>
        <time>2019-07-26T12:52:13.000Z</time>
      </trkpt>
      <trkpt lat="42.92542942799627780914306640625" lon="-8.17839584313333034515380859375">
        <ele>344.79998779296875</ele>
        <time>2019-07-26T12:52:14.000Z</time>
      </trkpt>
      <trkpt lat="42.92542959563434123992919921875" lon="-8.1785447895526885986328125">
        <ele>344.20001220703125</ele>
        <time>2019-07-26T12:52:15.000Z</time>
      </trkpt>
      <trkpt lat="42.92542305774986743927001953125" lon="-8.17884829826653003692626953125">
        <ele>342.600006103515625</ele>
        <time>2019-07-26T12:52:17.000Z</time>
      </trkpt>
      <trkpt lat="42.92544074356555938720703125" lon="-8.17916077561676502227783203125">
        <ele>341.20001220703125</ele>
        <time>2019-07-26T12:52:19.000Z</time>
      </trkpt>
      <trkpt lat="42.92545960284769535064697265625" lon="-8.1793150864541530609130859375">
        <ele>340.600006103515625</ele>
        <time>2019-07-26T12:52:20.000Z</time>
      </trkpt>
      <trkpt lat="42.925488017499446868896484375" lon="-8.17947040311992168426513671875">
        <ele>339.600006103515625</ele>
        <time>2019-07-26T12:52:21.000Z</time>
      </trkpt>
      <trkpt lat="42.925522886216640472412109375" lon="-8.1796198524534702301025390625">
        <ele>338.600006103515625</ele>
        <time>2019-07-26T12:52:22.000Z</time>
      </trkpt>
      <trkpt lat="42.92559505440294742584228515625" lon="-8.1798914261162281036376953125">
        <ele>336.600006103515625</ele>
        <time>2019-07-26T12:52:24.000Z</time>
      </trkpt>
      <trkpt lat="42.9256303422152996063232421875" lon="-8.18000919185578823089599609375">
        <ele>335.600006103515625</ele>
        <time>2019-07-26T12:52:25.000Z</time>
      </trkpt>
      <trkpt lat="42.92566713877022266387939453125" lon="-8.1801210902631282806396484375">
        <ele>334.20001220703125</ele>
        <time>2019-07-26T12:52:26.000Z</time>
      </trkpt>
      <trkpt lat="42.92568884789943695068359375" lon="-8.1802313961088657379150390625">
        <ele>333.399993896484375</ele>
        <time>2019-07-26T12:52:27.000Z</time>
      </trkpt>
      <trkpt lat="42.925703935325145721435546875" lon="-8.18033516407012939453125">
        <ele>332.399993896484375</ele>
        <time>2019-07-26T12:52:28.000Z</time>
      </trkpt>
      <trkpt lat="42.92567769996821880340576171875" lon="-8.18047463893890380859375">
        <ele>330.399993896484375</ele>
        <time>2019-07-26T12:52:30.000Z</time>
      </trkpt>
      <trkpt lat="42.92564786039292812347412109375" lon="-8.180507831275463104248046875">
        <ele>329.399993896484375</ele>
        <time>2019-07-26T12:52:31.000Z</time>
      </trkpt>
      <trkpt lat="42.9256018437445163726806640625" lon="-8.1805234216153621673583984375">
        <ele>328</ele>
        <time>2019-07-26T12:52:32.000Z</time>
      </trkpt>
      <trkpt lat="42.9255515523254871368408203125" lon="-8.18053473718464374542236328125">
        <ele>326.600006103515625</ele>
        <time>2019-07-26T12:52:33.000Z</time>
      </trkpt>
      <trkpt lat="42.9254905320703983306884765625" lon="-8.18054261617362499237060546875">
        <ele>325.20001220703125</ele>
        <time>2019-07-26T12:52:34.000Z</time>
      </trkpt>
      <trkpt lat="42.92542909272015094757080078125" lon="-8.1805448792874813079833984375">
        <ele>323.79998779296875</ele>
        <time>2019-07-26T12:52:35.000Z</time>
      </trkpt>
      <trkpt lat="42.92536564171314239501953125" lon="-8.18054831586778163909912109375">
        <ele>322.600006103515625</ele>
        <time>2019-07-26T12:52:36.000Z</time>
      </trkpt>
      <trkpt lat="42.9253021068871021270751953125" lon="-8.18055468611419200897216796875">
        <ele>321.399993896484375</ele>
        <time>2019-07-26T12:52:37.000Z</time>
      </trkpt>
      <trkpt lat="42.925233542919158935546875" lon="-8.18056524731218814849853515625">
        <ele>320.20001220703125</ele>
        <time>2019-07-26T12:52:38.000Z</time>
      </trkpt>
      <trkpt lat="42.92516791261732578277587890625" lon="-8.18058603443205356597900390625">
        <ele>319.20001220703125</ele>
        <time>2019-07-26T12:52:39.000Z</time>
      </trkpt>
      <trkpt lat="42.92511896230280399322509765625" lon="-8.18061989732086658477783203125">
        <ele>318.600006103515625</ele>
        <time>2019-07-26T12:52:40.000Z</time>
      </trkpt>
      <trkpt lat="42.92502634227275848388671875" lon="-8.1807265989482402801513671875">
        <ele>318</ele>
        <time>2019-07-26T12:52:42.000Z</time>
      </trkpt>
      <trkpt lat="42.9249926470220088958740234375" lon="-8.18080522119998931884765625">
        <ele>317.600006103515625</ele>
        <time>2019-07-26T12:52:43.000Z</time>
      </trkpt>
      <trkpt lat="42.92496456764638423919677734375" lon="-8.180888034403324127197265625">
        <ele>317.399993896484375</ele>
        <time>2019-07-26T12:52:44.000Z</time>
      </trkpt>
      <trkpt lat="42.92494428344070911407470703125" lon="-8.180977888405323028564453125">
        <ele>317</ele>
        <time>2019-07-26T12:52:45.000Z</time>
      </trkpt>
      <trkpt lat="42.924921400845050811767578125" lon="-8.181075118482112884521484375">
        <ele>316.79998779296875</ele>
        <time>2019-07-26T12:52:46.000Z</time>
      </trkpt>
      <trkpt lat="42.92490069754421710968017578125" lon="-8.18117109127342700958251953125">
        <ele>316.399993896484375</ele>
        <time>2019-07-26T12:52:47.000Z</time>
      </trkpt>
      <trkpt lat="42.924884520471096038818359375" lon="-8.1812730990350246429443359375">
        <ele>316</ele>
        <time>2019-07-26T12:52:48.000Z</time>
      </trkpt>
      <trkpt lat="42.92486406862735748291015625" lon="-8.1813750229775905609130859375">
        <ele>315.79998779296875</ele>
        <time>2019-07-26T12:52:49.000Z</time>
      </trkpt>
      <trkpt lat="42.92482408694922924041748046875" lon="-8.18156470544636249542236328125">
        <ele>315.600006103515625</ele>
        <time>2019-07-26T12:52:51.000Z</time>
      </trkpt>
      <trkpt lat="42.92480497620999813079833984375" lon="-8.18165992386639118194580078125">
        <ele>315.600006103515625</ele>
        <time>2019-07-26T12:52:52.000Z</time>
      </trkpt>
      <trkpt lat="42.92474848218262195587158203125" lon="-8.1819091178476810455322265625">
        <ele>315.600006103515625</ele>
        <time>2019-07-26T12:52:55.000Z</time>
      </trkpt>
      <trkpt lat="42.92470238171517848968505859375" lon="-8.18205152638256549835205078125">
        <ele>315.600006103515625</ele>
        <time>2019-07-26T12:52:57.000Z</time>
      </trkpt>
      <trkpt lat="42.9246634058654308319091796875" lon="-8.18224900402128696441650390625">
        <ele>315.600006103515625</ele>
        <time>2019-07-26T12:53:01.000Z</time>
      </trkpt>
      <trkpt lat="42.924633063375949859619140625" lon="-8.1824002973735332489013671875">
        <ele>315.79998779296875</ele>
        <time>2019-07-26T12:53:05.000Z</time>
      </trkpt>
      <trkpt lat="42.92461504228413105010986328125" lon="-8.18250850774347782135009765625">
        <ele>316</ele>
        <time>2019-07-26T12:53:08.000Z</time>
      </trkpt>
      <trkpt lat="42.9245997034013271331787109375" lon="-8.1826192326843738555908203125">
        <ele>317</ele>
        <time>2019-07-26T12:53:11.000Z</time>
      </trkpt>
      <trkpt lat="42.9245698638260364532470703125" lon="-8.18271168507635593414306640625">
        <ele>318.20001220703125</ele>
        <time>2019-07-26T12:53:14.000Z</time>
      </trkpt>
      <trkpt lat="42.92454564012587070465087890625" lon="-8.1827922351658344268798828125">
        <ele>319.399993896484375</ele>
        <time>2019-07-26T12:53:17.000Z</time>
      </trkpt>
      <trkpt lat="42.9245219193398952484130859375" lon="-8.1828643195331096649169921875">
        <ele>320.600006103515625</ele>
        <time>2019-07-26T12:53:20.000Z</time>
      </trkpt>
      <trkpt lat="42.9245118610560894012451171875" lon="-8.18288795650005340576171875">
        <ele>321</ele>
        <time>2019-07-26T12:53:21.000Z</time>
      </trkpt>
      <trkpt lat="42.9244961030781269073486328125" lon="-8.18292542360723018646240234375">
        <ele>321.600006103515625</ele>
        <time>2019-07-26T12:53:23.000Z</time>
      </trkpt>
      <trkpt lat="42.92448076419532299041748046875" lon="-8.18302935920655727386474609375">
        <ele>322.600006103515625</ele>
        <time>2019-07-26T12:53:28.000Z</time>
      </trkpt>
      <trkpt lat="42.9244407825171947479248046875" lon="-8.18317671306431293487548828125">
        <ele>323.79998779296875</ele>
        <time>2019-07-26T12:53:34.000Z</time>
      </trkpt>
      <trkpt lat="42.92441672645509243011474609375" lon="-8.1832076422870159149169921875">
        <ele>324.79998779296875</ele>
        <time>2019-07-26T12:53:36.000Z</time>
      </trkpt>
      <trkpt lat="42.9244112782180309295654296875" lon="-8.1832173652946949005126953125">
        <ele>325</ele>
        <time>2019-07-26T12:53:37.000Z</time>
      </trkpt>
      <trkpt lat="42.924370877444744110107421875" lon="-8.18327880464494228363037109375">
        <ele>326.20001220703125</ele>
        <time>2019-07-26T12:53:42.000Z</time>
      </trkpt>
      <trkpt lat="42.9243663512170314788818359375" lon="-8.1833005137741565704345703125">
        <ele>326.399993896484375</ele>
        <time>2019-07-26T12:53:43.000Z</time>
      </trkpt>
      <trkpt lat="42.924345396459102630615234375" lon="-8.18336497060954570770263671875">
        <ele>327.399993896484375</ele>
        <time>2019-07-26T12:53:46.000Z</time>
      </trkpt>
      <trkpt lat="42.92432988993823528289794921875" lon="-8.183483742177486419677734375">
        <ele>328.20001220703125</ele>
        <time>2019-07-26T12:53:50.000Z</time>
      </trkpt>
      <trkpt lat="42.924325279891490936279296875" lon="-8.18351835943758487701416015625">
        <ele>328.399993896484375</ele>
        <time>2019-07-26T12:53:51.000Z</time>
      </trkpt>
      <trkpt lat="42.92430021800100803375244140625" lon="-8.18365104496479034423828125">
        <ele>329.79998779296875</ele>
        <time>2019-07-26T12:53:56.000Z</time>
      </trkpt>
      <trkpt lat="42.92428898625075817108154296875" lon="-8.183674849569797515869140625">
        <ele>330</ele>
        <time>2019-07-26T12:53:57.000Z</time>
      </trkpt>
      <trkpt lat="42.9242667742073535919189453125" lon="-8.1837866641581058502197265625">
        <ele>331</ele>
        <time>2019-07-26T12:54:02.000Z</time>
      </trkpt>
      <trkpt lat="42.92426954023540019989013671875" lon="-8.18383754231035709381103515625">
        <ele>331.399993896484375</ele>
        <time>2019-07-26T12:54:04.000Z</time>
      </trkpt>
      <trkpt lat="42.9242691211402416229248046875" lon="-8.1839038431644439697265625">
        <ele>332</ele>
        <time>2019-07-26T12:54:07.000Z</time>
      </trkpt>
      <trkpt lat="42.92426769621670246124267578125" lon="-8.1840086169540882110595703125">
        <ele>333.20001220703125</ele>
        <time>2019-07-26T12:54:11.000Z</time>
      </trkpt>
      <trkpt lat="42.9242424666881561279296875" lon="-8.18414046429097652435302734375">
        <ele>334.399993896484375</ele>
        <time>2019-07-26T12:54:16.000Z</time>
      </trkpt>
      <trkpt lat="42.92422360740602016448974609375" lon="-8.18421355448663234710693359375">
        <ele>335.20001220703125</ele>
        <time>2019-07-26T12:54:19.000Z</time>
      </trkpt>
      <trkpt lat="42.9242087714374065399169921875" lon="-8.18426401354372501373291015625">
        <ele>335.600006103515625</ele>
        <time>2019-07-26T12:54:21.000Z</time>
      </trkpt>
      <trkpt lat="42.92415688745677471160888671875" lon="-8.1843812763690948486328125">
        <ele>336.399993896484375</ele>
        <time>2019-07-26T12:54:26.000Z</time>
      </trkpt>
      <trkpt lat="42.924146242439746856689453125" lon="-8.18439980037510395050048828125">
        <ele>336.600006103515625</ele>
        <time>2019-07-26T12:54:27.000Z</time>
      </trkpt>
      <trkpt lat="42.924093268811702728271484375" lon="-8.18447657860815525054931640625">
        <ele>337.79998779296875</ele>
        <time>2019-07-26T12:54:32.000Z</time>
      </trkpt>
      <trkpt lat="42.92408220469951629638671875" lon="-8.18449795246124267578125">
        <ele>338.20001220703125</ele>
        <time>2019-07-26T12:54:33.000Z</time>
      </trkpt>
      <trkpt lat="42.92401137761771678924560546875" lon="-8.18457867018878459930419921875">
        <ele>338.79998779296875</ele>
        <time>2019-07-26T12:54:37.000Z</time>
      </trkpt>
      <trkpt lat="42.923981286585330963134765625" lon="-8.184615634381771087646484375">
        <ele>338.79998779296875</ele>
        <time>2019-07-26T12:54:39.000Z</time>
      </trkpt>
      <trkpt lat="42.92396284639835357666015625" lon="-8.1846359185874462127685546875">
        <ele>338.79998779296875</ele>
        <time>2019-07-26T12:54:40.000Z</time>
      </trkpt>
      <trkpt lat="42.923865281045436859130859375" lon="-8.18472803570330142974853515625">
        <ele>339</ele>
        <time>2019-07-26T12:54:44.000Z</time>
      </trkpt>
      <trkpt lat="42.92363888584077358245849609375" lon="-8.1848478130996227264404296875">
        <ele>339</ele>
        <time>2019-07-26T12:54:50.000Z</time>
      </trkpt>
      <trkpt lat="42.92351852171123027801513671875" lon="-8.1848981045186519622802734375">
        <ele>339</ele>
        <time>2019-07-26T12:54:53.000Z</time>
      </trkpt>
      <trkpt lat="42.92337485589087009429931640625" lon="-8.184935487806797027587890625">
        <ele>339.20001220703125</ele>
        <time>2019-07-26T12:54:56.000Z</time>
      </trkpt>
      <trkpt lat="42.92332942597568035125732421875" lon="-8.18495032377541065216064453125">
        <ele>339.20001220703125</ele>
        <time>2019-07-26T12:54:57.000Z</time>
      </trkpt>
      <trkpt lat="42.9229952394962310791015625" lon="-8.18506415002048015594482421875">
        <ele>339.600006103515625</ele>
        <time>2019-07-26T12:55:03.000Z</time>
      </trkpt>
      <trkpt lat="42.9228830896317958831787109375" lon="-8.185131959617137908935546875">
        <ele>339.600006103515625</ele>
        <time>2019-07-26T12:55:05.000Z</time>
      </trkpt>
      <trkpt lat="42.92274671606719493865966796875" lon="-8.1852905452251434326171875">
        <ele>339.600006103515625</ele>
        <time>2019-07-26T12:55:08.000Z</time>
      </trkpt>
      <trkpt lat="42.92271369136869907379150390625" lon="-8.18534997291862964630126953125">
        <ele>339.600006103515625</ele>
        <time>2019-07-26T12:55:09.000Z</time>
      </trkpt>
      <trkpt lat="42.92265652678906917572021484375" lon="-8.185460530221462249755859375">
        <ele>339.600006103515625</ele>
        <time>2019-07-26T12:55:11.000Z</time>
      </trkpt>
      <trkpt lat="42.92261830531060695648193359375" lon="-8.18556471727788448333740234375">
        <ele>339.399993896484375</ele>
        <time>2019-07-26T12:55:13.000Z</time>
      </trkpt>
      <trkpt lat="42.9226138629019260406494140625" lon="-8.18573243916034698486328125">
        <ele>339.399993896484375</ele>
        <time>2019-07-26T12:55:17.000Z</time>
      </trkpt>
      <trkpt lat="42.92266759090125560760498046875" lon="-8.1859932839870452880859375">
        <ele>339.399993896484375</ele>
        <time>2019-07-26T12:55:24.000Z</time>
      </trkpt>
      <trkpt lat="42.9226738773286342620849609375" lon="-8.186074756085872650146484375">
        <ele>339.399993896484375</ele>
        <time>2019-07-26T12:55:26.000Z</time>
      </trkpt>
      <trkpt lat="42.9226742126047611236572265625" lon="-8.18615622818470001220703125">
        <ele>339.600006103515625</ele>
        <time>2019-07-26T12:55:28.000Z</time>
      </trkpt>
      <trkpt lat="42.92267111130058765411376953125" lon="-8.18623560480773448944091796875">
        <ele>340</ele>
        <time>2019-07-26T12:55:30.000Z</time>
      </trkpt>
      <trkpt lat="42.9226681776344776153564453125" lon="-8.1862747482955455780029296875">
        <ele>340.20001220703125</ele>
        <time>2019-07-26T12:55:31.000Z</time>
      </trkpt>
      <trkpt lat="42.922644875943660736083984375" lon="-8.1864739023149013519287109375">
        <ele>341.20001220703125</ele>
        <time>2019-07-26T12:55:36.000Z</time>
      </trkpt>
      <trkpt lat="42.92263624258339405059814453125" lon="-8.186554871499538421630859375">
        <ele>341.79998779296875</ele>
        <time>2019-07-26T12:55:38.000Z</time>
      </trkpt>
      <trkpt lat="42.92262786068022251129150390625" lon="-8.18663676269352436065673828125">
        <ele>342</ele>
        <time>2019-07-26T12:55:40.000Z</time>
      </trkpt>
      <trkpt lat="42.9226202331483364105224609375" lon="-8.186675570905208587646484375">
        <ele>342.20001220703125</ele>
        <time>2019-07-26T12:55:41.000Z</time>
      </trkpt>
      <trkpt lat="42.92261277325451374053955078125" lon="-8.18689928390085697174072265625">
        <ele>343.20001220703125</ele>
        <time>2019-07-26T12:55:47.000Z</time>
      </trkpt>
      <trkpt lat="42.92261444963514804840087890625" lon="-8.1869342364370822906494140625">
        <ele>343.399993896484375</ele>
        <time>2019-07-26T12:55:48.000Z</time>
      </trkpt>
      <trkpt lat="42.92264043353497982025146484375" lon="-8.1870334781706333160400390625">
        <ele>344</ele>
        <time>2019-07-26T12:55:51.000Z</time>
      </trkpt>
      <trkpt lat="42.92265552096068859100341796875" lon="-8.1870606355369091033935546875">
        <ele>344.399993896484375</ele>
        <time>2019-07-26T12:55:52.000Z</time>
      </trkpt>
      <trkpt lat="42.922669686377048492431640625" lon="-8.1870881281793117523193359375">
        <ele>344.79998779296875</ele>
        <time>2019-07-26T12:55:53.000Z</time>
      </trkpt>
      <trkpt lat="42.92270698584616184234619140625" lon="-8.18718376569449901580810546875">
        <ele>345.79998779296875</ele>
        <time>2019-07-26T12:55:56.000Z</time>
      </trkpt>
      <trkpt lat="42.92275593616068363189697265625" lon="-8.187306225299835205078125">
        <ele>346.600006103515625</ele>
        <time>2019-07-26T12:56:00.000Z</time>
      </trkpt>
      <trkpt lat="42.92276951484382152557373046875" lon="-8.18738040514290332794189453125">
        <ele>346.79998779296875</ele>
        <time>2019-07-26T12:56:02.000Z</time>
      </trkpt>
      <trkpt lat="42.922790385782718658447265625" lon="-8.187540583312511444091796875">
        <ele>347.20001220703125</ele>
        <time>2019-07-26T12:56:07.000Z</time>
      </trkpt>
      <trkpt lat="42.922797761857509613037109375" lon="-8.1876456923782825469970703125">
        <ele>348.20001220703125</ele>
        <time>2019-07-26T12:56:11.000Z</time>
      </trkpt>
      <trkpt lat="42.9228103347122669219970703125" lon="-8.18775356747210025787353515625">
        <ele>349.20001220703125</ele>
        <time>2019-07-26T12:56:15.000Z</time>
      </trkpt>
      <trkpt lat="42.922813184559345245361328125" lon="-8.18777955137193202972412109375">
        <ele>349.399993896484375</ele>
        <time>2019-07-26T12:56:16.000Z</time>
      </trkpt>
      <trkpt lat="42.92286791838705539703369140625" lon="-8.187873847782611846923828125">
        <ele>350.600006103515625</ele>
        <time>2019-07-26T12:56:21.000Z</time>
      </trkpt>
      <trkpt lat="42.92293229140341281890869140625" lon="-8.18792455829679965972900390625">
        <ele>351.600006103515625</ele>
        <time>2019-07-26T12:56:25.000Z</time>
      </trkpt>
      <trkpt lat="42.9229504801332950592041015625" lon="-8.18793562240898609161376953125">
        <ele>351.79998779296875</ele>
        <time>2019-07-26T12:56:26.000Z</time>
      </trkpt>
      <trkpt lat="42.9230192117393016815185546875" lon="-8.18797744810581207275390625">
        <ele>353</ele>
        <time>2019-07-26T12:56:30.000Z</time>
      </trkpt>
      <trkpt lat="42.92308148927986621856689453125" lon="-8.18804693408310413360595703125">
        <ele>354</ele>
        <time>2019-07-26T12:56:34.000Z</time>
      </trkpt>
      <trkpt lat="42.92309221811592578887939453125" lon="-8.188066966831684112548828125">
        <ele>354.20001220703125</ele>
        <time>2019-07-26T12:56:35.000Z</time>
      </trkpt>
      <trkpt lat="42.92309372685849666595458984375" lon="-8.1881392188370227813720703125">
        <ele>355</ele>
        <time>2019-07-26T12:56:39.000Z</time>
      </trkpt>
      <trkpt lat="42.92306254617869853973388671875" lon="-8.188154138624668121337890625">
        <ele>355</ele>
        <time>2019-07-26T12:56:40.000Z</time>
      </trkpt>
      <trkpt lat="42.92305986396968364715576171875" lon="-8.188159503042697906494140625">
        <ele>355</ele>
        <time>2019-07-26T12:56:41.000Z</time>
      </trkpt>
      <trkpt lat="42.92304645292460918426513671875" lon="-8.18826922215521335601806640625">
        <ele>355.20001220703125</ele>
        <time>2019-07-26T12:56:45.000Z</time>
      </trkpt>
      <trkpt lat="42.92304025031626224517822265625" lon="-8.1883477605879306793212890625">
        <ele>355.600006103515625</ele>
        <time>2019-07-26T12:56:47.000Z</time>
      </trkpt>
      <trkpt lat="42.92303069494664669036865234375" lon="-8.18838204257190227508544921875">
        <ele>356.20001220703125</ele>
        <time>2019-07-26T12:56:49.000Z</time>
      </trkpt>
      <trkpt lat="42.92301812209188938140869140625" lon="-8.18843920715153217315673828125">
        <ele>356.79998779296875</ele>
        <time>2019-07-26T12:56:51.000Z</time>
      </trkpt>
      <trkpt lat="42.92300253175199031829833984375" lon="-8.18849385716021060943603515625">
        <ele>357.600006103515625</ele>
        <time>2019-07-26T12:56:53.000Z</time>
      </trkpt>
      <trkpt lat="42.92300336994230747222900390625" lon="-8.18856510333716869354248046875">
        <ele>358.600006103515625</ele>
        <time>2019-07-26T12:56:56.000Z</time>
      </trkpt>
      <trkpt lat="42.92302901856601238250732421875" lon="-8.1885978765785694122314453125">
        <ele>359.399993896484375</ele>
        <time>2019-07-26T12:56:58.000Z</time>
      </trkpt>
      <trkpt lat="42.923051901161670684814453125" lon="-8.18861874751746654510498046875">
        <ele>359.79998779296875</ele>
        <time>2019-07-26T12:57:00.000Z</time>
      </trkpt>
      <trkpt lat="42.92309121228754520416259765625" lon="-8.18862679414451122283935546875">
        <ele>360.600006103515625</ele>
        <time>2019-07-26T12:57:02.000Z</time>
      </trkpt>
      <trkpt lat="42.92311526834964752197265625" lon="-8.1886310689151287078857421875">
        <ele>361</ele>
        <time>2019-07-26T12:57:03.000Z</time>
      </trkpt>
      <trkpt lat="42.92318760417401790618896484375" lon="-8.18865495733916759490966796875">
        <ele>362</ele>
        <time>2019-07-26T12:57:07.000Z</time>
      </trkpt>
      <trkpt lat="42.92322264052927494049072265625" lon="-8.18866484798491001129150390625">
        <ele>362.79998779296875</ele>
        <time>2019-07-26T12:57:09.000Z</time>
      </trkpt>
      <trkpt lat="42.92323789559304714202880859375" lon="-8.18867188878357410430908203125">
        <ele>363</ele>
        <time>2019-07-26T12:57:10.000Z</time>
      </trkpt>
      <trkpt lat="42.923312745988368988037109375" lon="-8.18872310221195220947265625">
        <ele>364.20001220703125</ele>
        <time>2019-07-26T12:57:15.000Z</time>
      </trkpt>
      <trkpt lat="42.923344261944293975830078125" lon="-8.1887453980743885040283203125">
        <ele>364.399993896484375</ele>
        <time>2019-07-26T12:57:17.000Z</time>
      </trkpt>
      <trkpt lat="42.9234121553599834442138671875" lon="-8.188777081668376922607421875">
        <ele>365.20001220703125</ele>
        <time>2019-07-26T12:57:21.000Z</time>
      </trkpt>
      <trkpt lat="42.9234906099736690521240234375" lon="-8.18881622515618801116943359375">
        <ele>366.20001220703125</ele>
        <time>2019-07-26T12:57:25.000Z</time>
      </trkpt>
      <trkpt lat="42.92351382784545421600341796875" lon="-8.1888283789157867431640625">
        <ele>366.20001220703125</ele>
        <time>2019-07-26T12:57:26.000Z</time>
      </trkpt>
      <trkpt lat="42.9236820526421070098876953125" lon="-8.18890138529241085052490234375">
        <ele>367</ele>
        <time>2019-07-26T12:57:32.000Z</time>
      </trkpt>
      <trkpt lat="42.92383334599435329437255859375" lon="-8.18897120654582977294921875">
        <ele>367.20001220703125</ele>
        <time>2019-07-26T12:57:36.000Z</time>
      </trkpt>
      <trkpt lat="42.92395572178065776824951171875" lon="-8.189033232629299163818359375">
        <ele>367.399993896484375</ele>
        <time>2019-07-26T12:57:39.000Z</time>
      </trkpt>
      <trkpt lat="42.9241259582340717315673828125" lon="-8.189112357795238494873046875">
        <ele>367.600006103515625</ele>
        <time>2019-07-26T12:57:43.000Z</time>
      </trkpt>
      <trkpt lat="42.9243458993732929229736328125" lon="-8.1892174668610095977783203125">
        <ele>367.79998779296875</ele>
        <time>2019-07-26T12:57:48.000Z</time>
      </trkpt>
      <trkpt lat="42.92457145638763904571533203125" lon="-8.18932869471609592437744140625">
        <ele>368.600006103515625</ele>
        <time>2019-07-26T12:57:55.000Z</time>
      </trkpt>
      <trkpt lat="42.9247606359422206878662109375" lon="-8.18941955454647541046142578125">
        <ele>369.20001220703125</ele>
        <time>2019-07-26T12:58:01.000Z</time>
      </trkpt>
      <trkpt lat="42.9248915612697601318359375" lon="-8.18947546184062957763671875">
        <ele>369.399993896484375</ele>
        <time>2019-07-26T12:58:05.000Z</time>
      </trkpt>
      <trkpt lat="42.9249621368944644927978515625" lon="-8.1895091570913791656494140625">
        <ele>369.600006103515625</ele>
        <time>2019-07-26T12:58:07.000Z</time>
      </trkpt>
      <trkpt lat="42.92500044219195842742919921875" lon="-8.18952717818319797515869140625">
        <ele>369.79998779296875</ele>
        <time>2019-07-26T12:58:08.000Z</time>
      </trkpt>
      <trkpt lat="42.92529280297458171844482421875" lon="-8.1896446086466312408447265625">
        <ele>370.79998779296875</ele>
        <time>2019-07-26T12:58:15.000Z</time>
      </trkpt>
      <trkpt lat="42.9256226308643817901611328125" lon="-8.18979422561824321746826171875">
        <ele>371.600006103515625</ele>
        <time>2019-07-26T12:58:24.000Z</time>
      </trkpt>
      <trkpt lat="42.92565925978124141693115234375" lon="-8.1898115761578083038330078125">
        <ele>371.79998779296875</ele>
        <time>2019-07-26T12:58:25.000Z</time>
      </trkpt>
      <trkpt lat="42.9257956333458423614501953125" lon="-8.18988039158284664154052734375">
        <ele>372</ele>
        <time>2019-07-26T12:58:29.000Z</time>
      </trkpt>
      <trkpt lat="42.92590602301061153411865234375" lon="-8.18993948400020599365234375">
        <ele>372.399993896484375</ele>
        <time>2019-07-26T12:58:32.000Z</time>
      </trkpt>
      <trkpt lat="42.9260878264904022216796875" lon="-8.19009840488433837890625">
        <ele>372.79998779296875</ele>
        <time>2019-07-26T12:58:37.000Z</time>
      </trkpt>
      <trkpt lat="42.92611037380993366241455078125" lon="-8.19014375098049640655517578125">
        <ele>372.79998779296875</ele>
        <time>2019-07-26T12:58:38.000Z</time>
      </trkpt>
      <trkpt lat="42.92615345679223537445068359375" lon="-8.19039403460919857025146484375">
        <ele>373.79998779296875</ele>
        <time>2019-07-26T12:58:43.000Z</time>
      </trkpt>
      <trkpt lat="42.92615395970642566680908203125" lon="-8.1904470920562744140625">
        <ele>374.20001220703125</ele>
        <time>2019-07-26T12:58:44.000Z</time>
      </trkpt>
      <trkpt lat="42.92614742182195186614990234375" lon="-8.19085336290299892425537109375">
        <ele>375</ele>
        <time>2019-07-26T12:58:52.000Z</time>
      </trkpt>
      <trkpt lat="42.9261470027267932891845703125" lon="-8.1909025646746158599853515625">
        <ele>375.20001220703125</ele>
        <time>2019-07-26T12:58:53.000Z</time>
      </trkpt>
      <trkpt lat="42.926151864230632781982421875" lon="-8.19120909087359905242919921875">
        <ele>376.20001220703125</ele>
        <time>2019-07-26T12:58:59.000Z</time>
      </trkpt>
      <trkpt lat="42.92615798301994800567626953125" lon="-8.191311769187450408935546875">
        <ele>376.399993896484375</ele>
        <time>2019-07-26T12:59:01.000Z</time>
      </trkpt>
      <trkpt lat="42.9261624254286289215087890625" lon="-8.19156381301581859588623046875">
        <ele>377.399993896484375</ele>
        <time>2019-07-26T12:59:06.000Z</time>
      </trkpt>
      <trkpt lat="42.92617030441761016845703125" lon="-8.191710077226161956787109375">
        <ele>378.20001220703125</ele>
        <time>2019-07-26T12:59:09.000Z</time>
      </trkpt>
      <trkpt lat="42.92617256753146648406982421875" lon="-8.1917602010071277618408203125">
        <ele>378.399993896484375</ele>
        <time>2019-07-26T12:59:10.000Z</time>
      </trkpt>
      <trkpt lat="42.92616385035216808319091796875" lon="-8.1920109875500202178955078125">
        <ele>379.399993896484375</ele>
        <time>2019-07-26T12:59:15.000Z</time>
      </trkpt>
      <trkpt lat="42.92616351507604122161865234375" lon="-8.192060105502605438232421875">
        <ele>379.79998779296875</ele>
        <time>2019-07-26T12:59:16.000Z</time>
      </trkpt>
      <trkpt lat="42.92615965940058231353759765625" lon="-8.192259930074214935302734375">
        <ele>380.600006103515625</ele>
        <time>2019-07-26T12:59:20.000Z</time>
      </trkpt>
      <trkpt lat="42.92616435326635837554931640625" lon="-8.1926151551306247711181640625">
        <ele>381.399993896484375</ele>
        <time>2019-07-26T12:59:27.000Z</time>
      </trkpt>
      <trkpt lat="42.92616921477019786834716796875" lon="-8.1928183324635028839111328125">
        <ele>381.79998779296875</ele>
        <time>2019-07-26T12:59:31.000Z</time>
      </trkpt>
      <trkpt lat="42.92618245817720890045166015625" lon="-8.1929591484367847442626953125">
        <ele>382.20001220703125</ele>
        <time>2019-07-26T12:59:34.000Z</time>
      </trkpt>
      <trkpt lat="42.92620207183063030242919921875" lon="-8.1931076757609844207763671875">
        <ele>382.79998779296875</ele>
        <time>2019-07-26T12:59:37.000Z</time>
      </trkpt>
      <trkpt lat="42.9262408800423145294189453125" lon="-8.1932334043085575103759765625">
        <ele>383.20001220703125</ele>
        <time>2019-07-26T12:59:40.000Z</time>
      </trkpt>
      <trkpt lat="42.9263035766780376434326171875" lon="-8.19339157082140445709228515625">
        <ele>383.79998779296875</ele>
        <time>2019-07-26T12:59:44.000Z</time>
      </trkpt>
      <trkpt lat="42.92634925805032253265380859375" lon="-8.19350858218967914581298828125">
        <ele>384.399993896484375</ele>
        <time>2019-07-26T12:59:47.000Z</time>
      </trkpt>
      <trkpt lat="42.9264048300683498382568359375" lon="-8.19368024356663227081298828125">
        <ele>384.79998779296875</ele>
        <time>2019-07-26T12:59:51.000Z</time>
      </trkpt>
      <trkpt lat="42.92646509595215320587158203125" lon="-8.19391745142638683319091796875">
        <ele>385.20001220703125</ele>
        <time>2019-07-26T12:59:56.000Z</time>
      </trkpt>
      <trkpt lat="42.92651270516216754913330078125" lon="-8.1941289268434047698974609375">
        <ele>385.79998779296875</ele>
        <time>2019-07-26T13:00:00.000Z</time>
      </trkpt>
      <trkpt lat="42.92654958553612232208251953125" lon="-8.19433922879397869110107421875">
        <ele>386.20001220703125</ele>
        <time>2019-07-26T13:00:04.000Z</time>
      </trkpt>
      <trkpt lat="42.9265805147588253021240234375" lon="-8.19462086074054241180419921875">
        <ele>386.79998779296875</ele>
        <time>2019-07-26T13:00:09.000Z</time>
      </trkpt>
      <trkpt lat="42.92658043093979358673095703125" lon="-8.19473217241466045379638671875">
        <ele>387</ele>
        <time>2019-07-26T13:00:11.000Z</time>
      </trkpt>
      <trkpt lat="42.92665318585932254791259765625" lon="-8.19493015296757221221923828125">
        <ele>387.600006103515625</ele>
        <time>2019-07-26T13:00:16.000Z</time>
      </trkpt>
      <trkpt lat="42.92670330964028835296630859375" lon="-8.19498580880463123321533203125">
        <ele>387.79998779296875</ele>
        <time>2019-07-26T13:00:19.000Z</time>
      </trkpt>
      <trkpt lat="42.92671403847634792327880859375" lon="-8.1950023211538791656494140625">
        <ele>388</ele>
        <time>2019-07-26T13:00:20.000Z</time>
      </trkpt>
      <trkpt lat="42.92672141455113887786865234375" lon="-8.1950164027512073516845703125">
        <ele>388</ele>
        <time>2019-07-26T13:00:21.000Z</time>
      </trkpt>
      <trkpt lat="42.92672552168369293212890625" lon="-8.1950271315872669219970703125">
        <ele>388.20001220703125</ele>
        <time>2019-07-26T13:00:23.000Z</time>
      </trkpt>
      <trkpt lat="42.92673356831073760986328125" lon="-8.1950378604233264923095703125">
        <ele>391.79998779296875</ele>
        <time>2019-07-26T13:53:47.000Z</time>
      </trkpt>
      <trkpt lat="42.92673381976783275604248046875" lon="-8.1950376927852630615234375">
        <ele>391.79998779296875</ele>
        <time>2019-07-26T13:53:48.000Z</time>
      </trkpt>
      <trkpt lat="42.9267159663140773773193359375" lon="-8.19526056759059429168701171875">
        <ele>393.20001220703125</ele>
        <time>2019-07-26T13:54:33.000Z</time>
      </trkpt>
      <trkpt lat="42.926694341003894805908203125" lon="-8.19530365057289600372314453125">
        <ele>393.20001220703125</ele>
        <time>2019-07-26T13:54:35.000Z</time>
      </trkpt>
      <trkpt lat="42.9266666807234287261962890625" lon="-8.19536969996988773345947265625">
        <ele>393.20001220703125</ele>
        <time>2019-07-26T13:54:38.000Z</time>
      </trkpt>
      <trkpt lat="42.92666559107601642608642578125" lon="-8.19540909491479396820068359375">
        <ele>393.20001220703125</ele>
        <time>2019-07-26T13:54:39.000Z</time>
      </trkpt>
      <trkpt lat="42.92665150947868824005126953125" lon="-8.19550146348774433135986328125">
        <ele>393.20001220703125</ele>
        <time>2019-07-26T13:54:41.000Z</time>
      </trkpt>
      <trkpt lat="42.92664597742259502410888671875" lon="-8.19564714096486568450927734375">
        <ele>393.20001220703125</ele>
        <time>2019-07-26T13:54:44.000Z</time>
      </trkpt>
      <trkpt lat="42.92664832435548305511474609375" lon="-8.1957597099244594573974609375">
        <ele>393</ele>
        <time>2019-07-26T13:54:46.000Z</time>
      </trkpt>
      <trkpt lat="42.926652096211910247802734375" lon="-8.19588703103363513946533203125">
        <ele>393</ele>
        <time>2019-07-26T13:54:48.000Z</time>
      </trkpt>
      <trkpt lat="42.9266458936035633087158203125" lon="-8.19595375098288059234619140625">
        <ele>393</ele>
        <time>2019-07-26T13:54:49.000Z</time>
      </trkpt>
      <trkpt lat="42.9265429638326168060302734375" lon="-8.1961898691952228546142578125">
        <ele>393</ele>
        <time>2019-07-26T13:54:53.000Z</time>
      </trkpt>
      <trkpt lat="42.926419079303741455078125" lon="-8.19636547006666660308837890625">
        <ele>392.79998779296875</ele>
        <time>2019-07-26T13:54:56.000Z</time>
      </trkpt>
      <trkpt lat="42.9263498447835445404052734375" lon="-8.19650008343160152435302734375">
        <ele>392.79998779296875</ele>
        <time>2019-07-26T13:54:58.000Z</time>
      </trkpt>
      <trkpt lat="42.9262650199234485626220703125" lon="-8.19672673009335994720458984375">
        <ele>392.600006103515625</ele>
        <time>2019-07-26T13:55:01.000Z</time>
      </trkpt>
      <trkpt lat="42.92622453533113002777099609375" lon="-8.1968845613300800323486328125">
        <ele>392.399993896484375</ele>
        <time>2019-07-26T13:55:03.000Z</time>
      </trkpt>
      <trkpt lat="42.92617239989340305328369140625" lon="-8.19703736342489719390869140625">
        <ele>392</ele>
        <time>2019-07-26T13:55:05.000Z</time>
      </trkpt>
      <trkpt lat="42.926061339676380157470703125" lon="-8.19729703478515148162841796875">
        <ele>391.79998779296875</ele>
        <time>2019-07-26T13:55:08.000Z</time>
      </trkpt>
      <trkpt lat="42.92601582594215869903564453125" lon="-8.19748185575008392333984375">
        <ele>391.20001220703125</ele>
        <time>2019-07-26T13:55:10.000Z</time>
      </trkpt>
      <trkpt lat="42.925992943346500396728515625" lon="-8.1975822709500789642333984375">
        <ele>390.399993896484375</ele>
        <time>2019-07-26T13:55:11.000Z</time>
      </trkpt>
      <trkpt lat="42.9259780235588550567626953125" lon="-8.1976707838475704193115234375">
        <ele>389.79998779296875</ele>
        <time>2019-07-26T13:55:12.000Z</time>
      </trkpt>
      <trkpt lat="42.92595078237354755401611328125" lon="-8.1977609731256961822509765625">
        <ele>388.79998779296875</ele>
        <time>2019-07-26T13:55:13.000Z</time>
      </trkpt>
      <trkpt lat="42.92591038160026073455810546875" lon="-8.19785493426024913787841796875">
        <ele>387.600006103515625</ele>
        <time>2019-07-26T13:55:15.000Z</time>
      </trkpt>
      <trkpt lat="42.9258905164897441864013671875" lon="-8.197882175445556640625">
        <ele>385.600006103515625</ele>
        <time>2019-07-26T13:55:18.000Z</time>
      </trkpt>
      <trkpt lat="42.9259770177304744720458984375" lon="-8.19790489040315151214599609375">
        <ele>380.600006103515625</ele>
        <time>2019-07-26T13:55:32.000Z</time>
      </trkpt>
      <trkpt lat="42.92609780095517635345458984375" lon="-8.1980597041547298431396484375">
        <ele>380.600006103515625</ele>
        <time>2019-07-26T13:55:36.000Z</time>
      </trkpt>
      <trkpt lat="42.926298044621944427490234375" lon="-8.19831962697207927703857421875">
        <ele>380.20001220703125</ele>
        <time>2019-07-26T13:55:40.000Z</time>
      </trkpt>
      <trkpt lat="42.92642301879823207855224609375" lon="-8.19851291365921497344970703125">
        <ele>379.600006103515625</ele>
        <time>2019-07-26T13:55:43.000Z</time>
      </trkpt>
      <trkpt lat="42.9264993779361248016357421875" lon="-8.19863914512097835540771484375">
        <ele>379</ele>
        <time>2019-07-26T13:55:45.000Z</time>
      </trkpt>
      <trkpt lat="42.92663005180656909942626953125" lon="-8.19883695803582668304443359375">
        <ele>377.79998779296875</ele>
        <time>2019-07-26T13:55:48.000Z</time>
      </trkpt>
      <trkpt lat="42.92668788693845272064208984375" lon="-8.1989032588899135589599609375">
        <ele>376.20001220703125</ele>
        <time>2019-07-26T13:55:49.000Z</time>
      </trkpt>
      <trkpt lat="42.92674739845097064971923828125" lon="-8.19898028858006000518798828125">
        <ele>375</ele>
        <time>2019-07-26T13:55:50.000Z</time>
      </trkpt>
      <trkpt lat="42.9268118552863597869873046875" lon="-8.19906176067888736724853515625">
        <ele>374</ele>
        <time>2019-07-26T13:55:51.000Z</time>
      </trkpt>
      <trkpt lat="42.92688670568168163299560546875" lon="-8.1991614215075969696044921875">
        <ele>373</ele>
        <time>2019-07-26T13:55:52.000Z</time>
      </trkpt>
      <trkpt lat="42.9269970953464508056640625" lon="-8.19937792606651782989501953125">
        <ele>371.20001220703125</ele>
        <time>2019-07-26T13:55:54.000Z</time>
      </trkpt>
      <trkpt lat="42.92706121690571308135986328125" lon="-8.199504576623439788818359375">
        <ele>370.20001220703125</ele>
        <time>2019-07-26T13:55:55.000Z</time>
      </trkpt>
      <trkpt lat="42.9271122626960277557373046875" lon="-8.1996277906000614166259765625">
        <ele>369.399993896484375</ele>
        <time>2019-07-26T13:55:56.000Z</time>
      </trkpt>
      <trkpt lat="42.92720605619251728057861328125" lon="-8.199881426990032196044921875">
        <ele>367.79998779296875</ele>
        <time>2019-07-26T13:55:58.000Z</time>
      </trkpt>
      <trkpt lat="42.92729171924293041229248046875" lon="-8.20011938922107219696044921875">
        <ele>366.79998779296875</ele>
        <time>2019-07-26T13:56:00.000Z</time>
      </trkpt>
      <trkpt lat="42.927387021481990814208984375" lon="-8.2003674097359180450439453125">
        <ele>365.600006103515625</ele>
        <time>2019-07-26T13:56:02.000Z</time>
      </trkpt>
      <trkpt lat="42.92748567648231983184814453125" lon="-8.20059120655059814453125">
        <ele>364.20001220703125</ele>
        <time>2019-07-26T13:56:04.000Z</time>
      </trkpt>
      <trkpt lat="42.9275856725871562957763671875" lon="-8.20076496340334415435791015625">
        <ele>362.399993896484375</ele>
        <time>2019-07-26T13:56:06.000Z</time>
      </trkpt>
      <trkpt lat="42.92762012220919132232666015625" lon="-8.200847022235393524169921875">
        <ele>362</ele>
        <time>2019-07-26T13:56:07.000Z</time>
      </trkpt>
      <trkpt lat="42.92763604782521724700927734375" lon="-8.20092790760099887847900390625">
        <ele>361.399993896484375</ele>
        <time>2019-07-26T13:56:08.000Z</time>
      </trkpt>
      <trkpt lat="42.92764526791870594024658203125" lon="-8.20099798031151294708251953125">
        <ele>361</ele>
        <time>2019-07-26T13:56:09.000Z</time>
      </trkpt>
      <trkpt lat="42.92764258570969104766845703125" lon="-8.2010993175208568572998046875">
        <ele>360.20001220703125</ele>
        <time>2019-07-26T13:56:11.000Z</time>
      </trkpt>
      <trkpt lat="42.92764325626194477081298828125" lon="-8.201140053570270538330078125">
        <ele>360</ele>
        <time>2019-07-26T13:56:12.000Z</time>
      </trkpt>
      <trkpt lat="42.9276515543460845947265625" lon="-8.20118137635290622711181640625">
        <ele>359.79998779296875</ele>
        <time>2019-07-26T13:56:13.000Z</time>
      </trkpt>
      <trkpt lat="42.92766429483890533447265625" lon="-8.20122697390615940093994140625">
        <ele>359.79998779296875</ele>
        <time>2019-07-26T13:56:14.000Z</time>
      </trkpt>
      <trkpt lat="42.92768164537847042083740234375" lon="-8.20132353343069553375244140625">
        <ele>359.600006103515625</ele>
        <time>2019-07-26T13:56:16.000Z</time>
      </trkpt>
      <trkpt lat="42.9277127422392368316650390625" lon="-8.201405592262744903564453125">
        <ele>359.600006103515625</ele>
        <time>2019-07-26T13:56:18.000Z</time>
      </trkpt>
      <trkpt lat="42.92773537337779998779296875" lon="-8.20144859142601490020751953125">
        <ele>359.600006103515625</ele>
        <time>2019-07-26T13:56:19.000Z</time>
      </trkpt>
      <trkpt lat="42.9277697391808032989501953125" lon="-8.20151044987142086029052734375">
        <ele>359.600006103515625</ele>
        <time>2019-07-26T13:56:21.000Z</time>
      </trkpt>
      <trkpt lat="42.9277972318232059478759765625" lon="-8.20154733024537563323974609375">
        <ele>360</ele>
        <time>2019-07-26T13:56:23.000Z</time>
      </trkpt>
      <trkpt lat="42.92781449854373931884765625" lon="-8.20156543515622615814208984375">
        <ele>360.399993896484375</ele>
        <time>2019-07-26T13:56:24.000Z</time>
      </trkpt>
      <trkpt lat="42.927844338119029998779296875" lon="-8.201614804565906524658203125">
        <ele>361.399993896484375</ele>
        <time>2019-07-26T13:56:26.000Z</time>
      </trkpt>
      <trkpt lat="42.9278555698692798614501953125" lon="-8.2016659341752529144287109375">
        <ele>362.20001220703125</ele>
        <time>2019-07-26T13:56:28.000Z</time>
      </trkpt>
      <trkpt lat="42.9278592579066753387451171875" lon="-8.20168479345738887786865234375">
        <ele>362.79998779296875</ele>
        <time>2019-07-26T13:56:29.000Z</time>
      </trkpt>
      <trkpt lat="42.92787593789398670196533203125" lon="-8.20175587199628353118896484375">
        <ele>364.20001220703125</ele>
        <time>2019-07-26T13:56:32.000Z</time>
      </trkpt>
      <trkpt lat="42.9278994910418987274169921875" lon="-8.2018600590527057647705078125">
        <ele>365.20001220703125</ele>
        <time>2019-07-26T13:56:36.000Z</time>
      </trkpt>
      <trkpt lat="42.92791080661118030548095703125" lon="-8.2019780762493610382080078125">
        <ele>366.399993896484375</ele>
        <time>2019-07-26T13:56:40.000Z</time>
      </trkpt>
      <trkpt lat="42.92791332118213176727294921875" lon="-8.2020689360797405242919921875">
        <ele>367.600006103515625</ele>
        <time>2019-07-26T13:56:43.000Z</time>
      </trkpt>
      <trkpt lat="42.92792790569365024566650390625" lon="-8.202166669070720672607421875">
        <ele>368.600006103515625</ele>
        <time>2019-07-26T13:56:47.000Z</time>
      </trkpt>
      <trkpt lat="42.92793176136910915374755859375" lon="-8.20223263464868068695068359375">
        <ele>369</ele>
        <time>2019-07-26T13:56:49.000Z</time>
      </trkpt>
      <trkpt lat="42.9279343597590923309326171875" lon="-8.2022975943982601165771484375">
        <ele>369.600006103515625</ele>
        <time>2019-07-26T13:56:51.000Z</time>
      </trkpt>
      <trkpt lat="42.927910722792148590087890625" lon="-8.20245492272078990936279296875">
        <ele>370.79998779296875</ele>
        <time>2019-07-26T13:56:56.000Z</time>
      </trkpt>
      <trkpt lat="42.9278954677283763885498046875" lon="-8.2025869376957416534423828125">
        <ele>372.20001220703125</ele>
        <time>2019-07-26T13:57:00.000Z</time>
      </trkpt>
      <trkpt lat="42.9278669692575931549072265625" lon="-8.202679641544818878173828125">
        <ele>372.79998779296875</ele>
        <time>2019-07-26T13:57:02.000Z</time>
      </trkpt>
      <trkpt lat="42.92783838696777820587158203125" lon="-8.2027344591915607452392578125">
        <ele>373</ele>
        <time>2019-07-26T13:57:03.000Z</time>
      </trkpt>
      <trkpt lat="42.92781047523021697998046875" lon="-8.20281953550875186920166015625">
        <ele>373.399993896484375</ele>
        <time>2019-07-26T13:57:05.000Z</time>
      </trkpt>
      <trkpt lat="42.927798070013523101806640625" lon="-8.20285758934915065765380859375">
        <ele>373.600006103515625</ele>
        <time>2019-07-26T13:57:06.000Z</time>
      </trkpt>
      <trkpt lat="42.9277559928596019744873046875" lon="-8.20297912694513797760009765625">
        <ele>374.600006103515625</ele>
        <time>2019-07-26T13:57:10.000Z</time>
      </trkpt>
      <trkpt lat="42.92772020213305950164794921875" lon="-8.2030757702887058258056640625">
        <ele>375.399993896484375</ele>
        <time>2019-07-26T13:57:13.000Z</time>
      </trkpt>
      <trkpt lat="42.92771198786795139312744140625" lon="-8.20312924683094024658203125">
        <ele>375.79998779296875</ele>
        <time>2019-07-26T13:57:15.000Z</time>
      </trkpt>
      <trkpt lat="42.92771165259182453155517578125" lon="-8.20326411165297031402587890625">
        <ele>377</ele>
        <time>2019-07-26T13:57:20.000Z</time>
      </trkpt>
      <trkpt lat="42.92766320519149303436279296875" lon="-8.2034812867641448974609375">
        <ele>378.20001220703125</ele>
        <time>2019-07-26T13:57:27.000Z</time>
      </trkpt>
      <trkpt lat="42.92763747274875640869140625" lon="-8.20355362258851528167724609375">
        <ele>378.79998779296875</ele>
        <time>2019-07-26T13:57:29.000Z</time>
      </trkpt>
      <trkpt lat="42.9276265762746334075927734375" lon="-8.20361330173909664154052734375">
        <ele>379.20001220703125</ele>
        <time>2019-07-26T13:57:31.000Z</time>
      </trkpt>
      <trkpt lat="42.927580811083316802978515625" lon="-8.20375294424593448638916015625">
        <ele>380</ele>
        <time>2019-07-26T13:57:35.000Z</time>
      </trkpt>
      <trkpt lat="42.9275803081691265106201171875" lon="-8.20381849072873592376708984375">
        <ele>380.399993896484375</ele>
        <time>2019-07-26T13:57:37.000Z</time>
      </trkpt>
      <trkpt lat="42.92755792848765850067138671875" lon="-8.20394069887697696685791015625">
        <ele>380.79998779296875</ele>
        <time>2019-07-26T13:57:40.000Z</time>
      </trkpt>
      <trkpt lat="42.9275427572429180145263671875" lon="-8.2040225900709629058837890625">
        <ele>381.399993896484375</ele>
        <time>2019-07-26T13:57:42.000Z</time>
      </trkpt>
      <trkpt lat="42.92755725793540477752685546875" lon="-8.204164914786815643310546875">
        <ele>382.399993896484375</ele>
        <time>2019-07-26T13:57:46.000Z</time>
      </trkpt>
      <trkpt lat="42.92755507864058017730712890625" lon="-8.2042049802839756011962890625">
        <ele>382.600006103515625</ele>
        <time>2019-07-26T13:57:47.000Z</time>
      </trkpt>
      <trkpt lat="42.92754820547997951507568359375" lon="-8.20438854396343231201171875">
        <ele>383.79998779296875</ele>
        <time>2019-07-26T13:57:52.000Z</time>
      </trkpt>
      <trkpt lat="42.927524149417877197265625" lon="-8.2045439444482326507568359375">
        <ele>384.79998779296875</ele>
        <time>2019-07-26T13:57:56.000Z</time>
      </trkpt>
      <trkpt lat="42.92752171866595745086669921875" lon="-8.20464662276208400726318359375">
        <ele>385.399993896484375</ele>
        <time>2019-07-26T13:57:59.000Z</time>
      </trkpt>
      <trkpt lat="42.92751819826662540435791015625" lon="-8.20474117062985897064208984375">
        <ele>386.20001220703125</ele>
        <time>2019-07-26T13:58:02.000Z</time>
      </trkpt>
      <trkpt lat="42.92752658016979694366455078125" lon="-8.2048373110592365264892578125">
        <ele>386.79998779296875</ele>
        <time>2019-07-26T13:58:05.000Z</time>
      </trkpt>
      <trkpt lat="42.9275367222726345062255859375" lon="-8.2049020193517208099365234375">
        <ele>387.399993896484375</ele>
        <time>2019-07-26T13:58:07.000Z</time>
      </trkpt>
      <trkpt lat="42.9275611974298954010009765625" lon="-8.20503436960279941558837890625">
        <ele>388.20001220703125</ele>
        <time>2019-07-26T13:58:11.000Z</time>
      </trkpt>
      <trkpt lat="42.92757787741720676422119140625" lon="-8.205096311867237091064453125">
        <ele>388.600006103515625</ele>
        <time>2019-07-26T13:58:13.000Z</time>
      </trkpt>
      <trkpt lat="42.92756639420986175537109375" lon="-8.20525330491364002227783203125">
        <ele>389.399993896484375</ele>
        <time>2019-07-26T13:58:17.000Z</time>
      </trkpt>
      <trkpt lat="42.92754904367029666900634765625" lon="-8.20530057884752750396728515625">
        <ele>389.600006103515625</ele>
        <time>2019-07-26T13:58:18.000Z</time>
      </trkpt>
      <trkpt lat="42.9275451041758060455322265625" lon="-8.20550828240811824798583984375">
        <ele>390.600006103515625</ele>
        <time>2019-07-26T13:58:23.000Z</time>
      </trkpt>
      <trkpt lat="42.9275444336235523223876953125" lon="-8.20572956465184688568115234375">
        <ele>391.600006103515625</ele>
        <time>2019-07-26T13:58:29.000Z</time>
      </trkpt>
      <trkpt lat="42.92757385410368442535400390625" lon="-8.20597708225250244140625">
        <ele>392.399993896484375</ele>
        <time>2019-07-26T13:58:36.000Z</time>
      </trkpt>
      <trkpt lat="42.92756379581987857818603515625" lon="-8.20611865259706974029541015625">
        <ele>392.79998779296875</ele>
        <time>2019-07-26T13:58:39.000Z</time>
      </trkpt>
      <trkpt lat="42.927556335926055908203125" lon="-8.2062739692628383636474609375">
        <ele>393.399993896484375</ele>
        <time>2019-07-26T13:58:43.000Z</time>
      </trkpt>
      <trkpt lat="42.927578799426555633544921875" lon="-8.2064090855419635772705078125">
        <ele>394</ele>
        <time>2019-07-26T13:58:47.000Z</time>
      </trkpt>
      <trkpt lat="42.92758357711136341094970703125" lon="-8.2064509950578212738037109375">
        <ele>394</ele>
        <time>2019-07-26T13:58:48.000Z</time>
      </trkpt>
      <trkpt lat="42.92759145610034465789794921875" lon="-8.20657161064445972442626953125">
        <ele>395.20001220703125</ele>
        <time>2019-07-26T13:58:51.000Z</time>
      </trkpt>
      <trkpt lat="42.92759430594742298126220703125" lon="-8.20671075023710727691650390625">
        <ele>395.600006103515625</ele>
        <time>2019-07-26T13:58:54.000Z</time>
      </trkpt>
      <trkpt lat="42.92759053409099578857421875" lon="-8.20682843215763568878173828125">
        <ele>396.20001220703125</ele>
        <time>2019-07-26T13:58:57.000Z</time>
      </trkpt>
      <trkpt lat="42.92759011499583721160888671875" lon="-8.20690177381038665771484375">
        <ele>396.20001220703125</ele>
        <time>2019-07-26T13:59:00.000Z</time>
      </trkpt>
      <trkpt lat="42.9275823198258876800537109375" lon="-8.2069461978971958160400390625">
        <ele>396.399993896484375</ele>
        <time>2019-07-26T13:59:02.000Z</time>
      </trkpt>
      <trkpt lat="42.9275645501911640167236328125" lon="-8.2070511393249034881591796875">
        <ele>396.600006103515625</ele>
        <time>2019-07-26T13:59:05.000Z</time>
      </trkpt>
      <trkpt lat="42.92762883938848972320556640625" lon="-8.2072524726390838623046875">
        <ele>396.79998779296875</ele>
        <time>2019-07-26T13:59:10.000Z</time>
      </trkpt>
      <trkpt lat="42.92764275334775447845458984375" lon="-8.20734492503106594085693359375">
        <ele>396.79998779296875</ele>
        <time>2019-07-26T13:59:12.000Z</time>
      </trkpt>
      <trkpt lat="42.927656583487987518310546875" lon="-8.2075389660894870758056640625">
        <ele>397.20001220703125</ele>
        <time>2019-07-26T13:59:17.000Z</time>
      </trkpt>
      <trkpt lat="42.92763588018715381622314453125" lon="-8.207668550312519073486328125">
        <ele>398.399993896484375</ele>
        <time>2019-07-26T13:59:23.000Z</time>
      </trkpt>
      <trkpt lat="42.92763856239616870880126953125" lon="-8.2076797820627689361572265625">
        <ele>399</ele>
        <time>2019-07-26T13:59:25.000Z</time>
      </trkpt>
      <trkpt lat="42.92747595347464084625244140625" lon="-8.20795026607811450958251953125">
        <ele>398.600006103515625</ele>
        <time>2019-07-26T14:06:43.000Z</time>
      </trkpt>
      <trkpt lat="42.9274914599955081939697265625" lon="-8.20798463188111782073974609375">
        <ele>398.600006103515625</ele>
        <time>2019-07-26T14:06:44.000Z</time>
      </trkpt>
      <trkpt lat="42.92753378860652446746826171875" lon="-8.208055458962917327880859375">
        <ele>398.600006103515625</ele>
        <time>2019-07-26T14:06:46.000Z</time>
      </trkpt>
      <trkpt lat="42.92755189351737499237060546875" lon="-8.20809267461299896240234375">
        <ele>398.600006103515625</ele>
        <time>2019-07-26T14:06:47.000Z</time>
      </trkpt>
      <trkpt lat="42.9275732673704624176025390625" lon="-8.20813081227242946624755859375">
        <ele>398.600006103515625</ele>
        <time>2019-07-26T14:06:48.000Z</time>
      </trkpt>
      <trkpt lat="42.927625067532062530517578125" lon="-8.20820859633386135101318359375">
        <ele>399</ele>
        <time>2019-07-26T14:06:50.000Z</time>
      </trkpt>
      <trkpt lat="42.9276708327233791351318359375" lon="-8.2083012163639068603515625">
        <ele>399.20001220703125</ele>
        <time>2019-07-26T14:06:52.000Z</time>
      </trkpt>
      <trkpt lat="42.92775272391736507415771484375" lon="-8.20844404399394989013671875">
        <ele>399.79998779296875</ele>
        <time>2019-07-26T14:06:56.000Z</time>
      </trkpt>
      <trkpt lat="42.92777250520884990692138671875" lon="-8.2084874622523784637451171875">
        <ele>399.79998779296875</ele>
        <time>2019-07-26T14:06:57.000Z</time>
      </trkpt>
      <trkpt lat="42.92787845246493816375732421875" lon="-8.2086795754730701446533203125">
        <ele>400.20001220703125</ele>
        <time>2019-07-26T14:07:01.000Z</time>
      </trkpt>
      <trkpt lat="42.92798456735908985137939453125" lon="-8.20884545333683490753173828125">
        <ele>400.79998779296875</ele>
        <time>2019-07-26T14:07:04.000Z</time>
      </trkpt>
      <trkpt lat="42.92804810218513011932373046875" lon="-8.20895793847739696502685546875">
        <ele>401</ele>
        <time>2019-07-26T14:07:06.000Z</time>
      </trkpt>
      <trkpt lat="42.92811532504856586456298828125" lon="-8.2090723514556884765625">
        <ele>401.399993896484375</ele>
        <time>2019-07-26T14:07:08.000Z</time>
      </trkpt>
      <trkpt lat="42.92816746048629283905029296875" lon="-8.20918609388172626495361328125">
        <ele>401.79998779296875</ele>
        <time>2019-07-26T14:07:10.000Z</time>
      </trkpt>
      <trkpt lat="42.92818791233003139495849609375" lon="-8.20924979634582996368408203125">
        <ele>402.399993896484375</ele>
        <time>2019-07-26T14:07:11.000Z</time>
      </trkpt>
      <trkpt lat="42.9282253794372081756591796875" lon="-8.20936915464699268341064453125">
        <ele>402.79998779296875</ele>
        <time>2019-07-26T14:07:13.000Z</time>
      </trkpt>
      <trkpt lat="42.92826888151466846466064453125" lon="-8.2095243036746978759765625">
        <ele>403.600006103515625</ele>
        <time>2019-07-26T14:07:16.000Z</time>
      </trkpt>
      <trkpt lat="42.92831514962017536163330078125" lon="-8.2096797041594982147216796875">
        <ele>404.79998779296875</ele>
        <time>2019-07-26T14:07:19.000Z</time>
      </trkpt>
      <trkpt lat="42.92836778797209262847900390625" lon="-8.20984407328069210052490234375">
        <ele>405.79998779296875</ele>
        <time>2019-07-26T14:07:22.000Z</time>
      </trkpt>
      <trkpt lat="42.92845579795539379119873046875" lon="-8.210070468485355377197265625">
        <ele>406.399993896484375</ele>
        <time>2019-07-26T14:07:26.000Z</time>
      </trkpt>
      <trkpt lat="42.92856811545789241790771484375" lon="-8.2104629091918468475341796875">
        <ele>407</ele>
        <time>2019-07-26T14:07:32.000Z</time>
      </trkpt>
      <trkpt lat="42.9285881482064723968505859375" lon="-8.21053692139685153961181640625">
        <ele>407</ele>
        <time>2019-07-26T14:07:33.000Z</time>
      </trkpt>
      <trkpt lat="42.92862008325755596160888671875" lon="-8.2106949202716350555419921875">
        <ele>407</ele>
        <time>2019-07-26T14:07:35.000Z</time>
      </trkpt>
      <trkpt lat="42.9286531917750835418701171875" lon="-8.2109634764492511749267578125">
        <ele>407.20001220703125</ele>
        <time>2019-07-26T14:07:38.000Z</time>
      </trkpt>
      <trkpt lat="42.92868227697908878326416015625" lon="-8.21150721050798892974853515625">
        <ele>407.20001220703125</ele>
        <time>2019-07-26T14:07:43.000Z</time>
      </trkpt>
      <trkpt lat="42.9287262819707393646240234375" lon="-8.21212596260011196136474609375">
        <ele>405.79998779296875</ele>
        <time>2019-07-26T14:07:49.000Z</time>
      </trkpt>
      <trkpt lat="42.92873608879745006561279296875" lon="-8.21221933700144290924072265625">
        <ele>405.600006103515625</ele>
        <time>2019-07-26T14:07:50.000Z</time>
      </trkpt>
      <trkpt lat="42.9287705384194850921630859375" lon="-8.212566934525966644287109375">
        <ele>404.79998779296875</ele>
        <time>2019-07-26T14:07:54.000Z</time>
      </trkpt>
      <trkpt lat="42.92879140935838222503662109375" lon="-8.21274756453931331634521484375">
        <ele>404.600006103515625</ele>
        <time>2019-07-26T14:07:56.000Z</time>
      </trkpt>
      <trkpt lat="42.92881085537374019622802734375" lon="-8.213282413780689239501953125">
        <ele>404.20001220703125</ele>
        <time>2019-07-26T14:08:02.000Z</time>
      </trkpt>
      <trkpt lat="42.9288305528461933135986328125" lon="-8.2138104736804962158203125">
        <ele>404</ele>
        <time>2019-07-26T14:08:08.000Z</time>
      </trkpt>
      <trkpt lat="42.92878319509327411651611328125" lon="-8.21406989358365535736083984375">
        <ele>404</ele>
        <time>2019-07-26T14:08:11.000Z</time>
      </trkpt>
      <trkpt lat="42.92875335551798343658447265625" lon="-8.21415287442505359649658203125">
        <ele>404</ele>
        <time>2019-07-26T14:08:12.000Z</time>
      </trkpt>
      <trkpt lat="42.92873022146522998809814453125" lon="-8.2142240367829799652099609375">
        <ele>404</ele>
        <time>2019-07-26T14:08:13.000Z</time>
      </trkpt>
      <trkpt lat="42.92865646071732044219970703125" lon="-8.2144107855856418609619140625">
        <ele>404</ele>
        <time>2019-07-26T14:08:16.000Z</time>
      </trkpt>
      <trkpt lat="42.92859527282416820526123046875" lon="-8.214541710913181304931640625">
        <ele>404</ele>
        <time>2019-07-26T14:08:18.000Z</time>
      </trkpt>
      <trkpt lat="42.92840651236474514007568359375" lon="-8.21498653851449489593505859375">
        <ele>404.20001220703125</ele>
        <time>2019-07-26T14:08:24.000Z</time>
      </trkpt>
      <trkpt lat="42.92822127230465412139892578125" lon="-8.2154461182653903961181640625">
        <ele>404.79998779296875</ele>
        <time>2019-07-26T14:08:31.000Z</time>
      </trkpt>
      <trkpt lat="42.92804650962352752685546875" lon="-8.21583495475351810455322265625">
        <ele>405.399993896484375</ele>
        <time>2019-07-26T14:08:36.000Z</time>
      </trkpt>
      <trkpt lat="42.92794366367161273956298828125" lon="-8.216096051037311553955078125">
        <ele>405.399993896484375</ele>
        <time>2019-07-26T14:08:39.000Z</time>
      </trkpt>
      <trkpt lat="42.92785297147929668426513671875" lon="-8.216366283595561981201171875">
        <ele>405.399993896484375</ele>
        <time>2019-07-26T14:08:42.000Z</time>
      </trkpt>
      <trkpt lat="42.92770863510668277740478515625" lon="-8.21672209538519382476806640625">
        <ele>404.79998779296875</ele>
        <time>2019-07-26T14:08:46.000Z</time>
      </trkpt>
      <trkpt lat="42.92764258570969104766845703125" lon="-8.21689928881824016571044921875">
        <ele>404.600006103515625</ele>
        <time>2019-07-26T14:08:48.000Z</time>
      </trkpt>
      <trkpt lat="42.92761241085827350616455078125" lon="-8.2169893942773342132568359375">
        <ele>404.600006103515625</ele>
        <time>2019-07-26T14:08:49.000Z</time>
      </trkpt>
      <trkpt lat="42.92758206836879253387451171875" lon="-8.2170779071748256683349609375">
        <ele>404.399993896484375</ele>
        <time>2019-07-26T14:08:50.000Z</time>
      </trkpt>
      <trkpt lat="42.9274837486445903778076171875" lon="-8.217334561049938201904296875">
        <ele>403.399993896484375</ele>
        <time>2019-07-26T14:08:53.000Z</time>
      </trkpt>
      <trkpt lat="42.92740143835544586181640625" lon="-8.21750479750335216522216796875">
        <ele>402.399993896484375</ele>
        <time>2019-07-26T14:08:55.000Z</time>
      </trkpt>
      <trkpt lat="42.92735860683023929595947265625" lon="-8.21759263984858989715576171875">
        <ele>402</ele>
        <time>2019-07-26T14:08:56.000Z</time>
      </trkpt>
      <trkpt lat="42.9272269271314144134521484375" lon="-8.2178755290806293487548828125">
        <ele>401.399993896484375</ele>
        <time>2019-07-26T14:08:59.000Z</time>
      </trkpt>
      <trkpt lat="42.92717906646430492401123046875" lon="-8.21795658208429813385009765625">
        <ele>401</ele>
        <time>2019-07-26T14:09:00.000Z</time>
      </trkpt>
      <trkpt lat="42.9270733706653118133544921875" lon="-8.21808918379247188568115234375">
        <ele>400.399993896484375</ele>
        <time>2019-07-26T14:09:02.000Z</time>
      </trkpt>
      <trkpt lat="42.92702182196080684661865234375" lon="-8.218162357807159423828125">
        <ele>400</ele>
        <time>2019-07-26T14:09:03.000Z</time>
      </trkpt>
      <trkpt lat="42.9269778169691562652587890625" lon="-8.21824693121016025543212890625">
        <ele>399.600006103515625</ele>
        <time>2019-07-26T14:09:04.000Z</time>
      </trkpt>
      <trkpt lat="42.9269147850573062896728515625" lon="-8.2184528745710849761962890625">
        <ele>398.79998779296875</ele>
        <time>2019-07-26T14:09:06.000Z</time>
      </trkpt>
      <trkpt lat="42.926886789500713348388671875" lon="-8.2185638509690761566162109375">
        <ele>398.399993896484375</ele>
        <time>2019-07-26T14:09:07.000Z</time>
      </trkpt>
      <trkpt lat="42.92685619555413722991943359375" lon="-8.21867759339511394500732421875">
        <ele>397.79998779296875</ele>
        <time>2019-07-26T14:09:08.000Z</time>
      </trkpt>
      <trkpt lat="42.92679131962358951568603515625" lon="-8.21891580708324909210205078125">
        <ele>396.399993896484375</ele>
        <time>2019-07-26T14:09:10.000Z</time>
      </trkpt>
      <trkpt lat="42.92672376148402690887451171875" lon="-8.2191593013703823089599609375">
        <ele>395</ele>
        <time>2019-07-26T14:09:12.000Z</time>
      </trkpt>
      <trkpt lat="42.926693670451641082763671875" lon="-8.219281844794750213623046875">
        <ele>394.600006103515625</ele>
        <time>2019-07-26T14:09:13.000Z</time>
      </trkpt>
      <trkpt lat="42.9266671836376190185546875" lon="-8.21940061636269092559814453125">
        <ele>393.79998779296875</ele>
        <time>2019-07-26T14:09:14.000Z</time>
      </trkpt>
      <trkpt lat="42.92661647312343120574951171875" lon="-8.21962810121476650238037109375">
        <ele>392.399993896484375</ele>
        <time>2019-07-26T14:09:16.000Z</time>
      </trkpt>
      <trkpt lat="42.92657456360757350921630859375" lon="-8.219837062060832977294921875">
        <ele>391.20001220703125</ele>
        <time>2019-07-26T14:09:18.000Z</time>
      </trkpt>
      <trkpt lat="42.9265074245631694793701171875" lon="-8.2201326079666614532470703125">
        <ele>390</ele>
        <time>2019-07-26T14:09:21.000Z</time>
      </trkpt>
      <trkpt lat="42.92641715146601200103759765625" lon="-8.22041063569486141204833984375">
        <ele>389.20001220703125</ele>
        <time>2019-07-26T14:09:24.000Z</time>
      </trkpt>
      <trkpt lat="42.92634272016584873199462890625" lon="-8.22067533619701862335205078125">
        <ele>389</ele>
        <time>2019-07-26T14:09:27.000Z</time>
      </trkpt>
      <trkpt lat="42.92627767659723758697509765625" lon="-8.2209422998130321502685546875">
        <ele>388.79998779296875</ele>
        <time>2019-07-26T14:09:30.000Z</time>
      </trkpt>
      <trkpt lat="42.926163934171199798583984375" lon="-8.22125184349715709686279296875">
        <ele>388.79998779296875</ele>
        <time>2019-07-26T14:09:34.000Z</time>
      </trkpt>
      <trkpt lat="42.92612177319824695587158203125" lon="-8.22139048017561435699462890625">
        <ele>388.79998779296875</ele>
        <time>2019-07-26T14:09:36.000Z</time>
      </trkpt>
      <trkpt lat="42.9260373674333095550537109375" lon="-8.221703208982944488525390625">
        <ele>389.20001220703125</ele>
        <time>2019-07-26T14:09:41.000Z</time>
      </trkpt>
      <trkpt lat="42.926003672182559967041015625" lon="-8.22180856950581073760986328125">
        <ele>389.20001220703125</ele>
        <time>2019-07-26T14:09:43.000Z</time>
      </trkpt>
      <trkpt lat="42.92593770660459995269775390625" lon="-8.2220876030623912811279296875">
        <ele>390</ele>
        <time>2019-07-26T14:09:48.000Z</time>
      </trkpt>
      <trkpt lat="42.9259215295314788818359375" lon="-8.2222575880587100982666015625">
        <ele>390.600006103515625</ele>
        <time>2019-07-26T14:09:51.000Z</time>
      </trkpt>
      <trkpt lat="42.9259213618934154510498046875" lon="-8.22231508791446685791015625">
        <ele>390.600006103515625</ele>
        <time>2019-07-26T14:09:52.000Z</time>
      </trkpt>
      <trkpt lat="42.92592496611177921295166015625" lon="-8.22242447175085544586181640625">
        <ele>391.20001220703125</ele>
        <time>2019-07-26T14:09:54.000Z</time>
      </trkpt>
      <trkpt lat="42.925940640270709991455078125" lon="-8.222652375698089599609375">
        <ele>391.79998779296875</ele>
        <time>2019-07-26T14:09:58.000Z</time>
      </trkpt>
      <trkpt lat="42.925938628613948822021484375" lon="-8.22270912118256092071533203125">
        <ele>392</ele>
        <time>2019-07-26T14:09:59.000Z</time>
      </trkpt>
      <trkpt lat="42.9259230382740497589111328125" lon="-8.2228267192840576171875">
        <ele>392.20001220703125</ele>
        <time>2019-07-26T14:10:01.000Z</time>
      </trkpt>
      <trkpt lat="42.9259025864303112030029296875" lon="-8.222947083413600921630859375">
        <ele>392.79998779296875</ele>
        <time>2019-07-26T14:10:03.000Z</time>
      </trkpt>
      <trkpt lat="42.92582807131111621856689453125" lon="-8.2231916673481464385986328125">
        <ele>393.600006103515625</ele>
        <time>2019-07-26T14:10:07.000Z</time>
      </trkpt>
      <trkpt lat="42.9257681407034397125244140625" lon="-8.22337397374212741851806640625">
        <ele>394.20001220703125</ele>
        <time>2019-07-26T14:10:10.000Z</time>
      </trkpt>
      <trkpt lat="42.92563864029943943023681640625" lon="-8.22376742027699947357177734375">
        <ele>394.399993896484375</ele>
        <time>2019-07-26T14:10:17.000Z</time>
      </trkpt>
      <trkpt lat="42.92560058645904064178466796875" lon="-8.22393857873976230621337890625">
        <ele>394.79998779296875</ele>
        <time>2019-07-26T14:10:20.000Z</time>
      </trkpt>
      <trkpt lat="42.92554794810712337493896484375" lon="-8.22406665422022342681884765625">
        <ele>395.20001220703125</ele>
        <time>2019-07-26T14:10:23.000Z</time>
      </trkpt>
      <trkpt lat="42.92549706995487213134765625" lon="-8.22415315546095371246337890625">
        <ele>395.20001220703125</ele>
        <time>2019-07-26T14:10:25.000Z</time>
      </trkpt>
      <trkpt lat="42.9254673980176448822021484375" lon="-8.22425038553774356842041015625">
        <ele>395.20001220703125</ele>
        <time>2019-07-26T14:10:27.000Z</time>
      </trkpt>
      <trkpt lat="42.92540051043033599853515625" lon="-8.22438902221620082855224609375">
        <ele>395.399993896484375</ele>
        <time>2019-07-26T14:10:30.000Z</time>
      </trkpt>
      <trkpt lat="42.9253383167088031768798828125" lon="-8.2245056144893169403076171875">
        <ele>395.399993896484375</ele>
        <time>2019-07-26T14:10:32.000Z</time>
      </trkpt>
      <trkpt lat="42.9251649789512157440185546875" lon="-8.22493300773203372955322265625">
        <ele>395</ele>
        <time>2019-07-26T14:10:38.000Z</time>
      </trkpt>
      <trkpt lat="42.92501335032284259796142578125" lon="-8.2253354229032993316650390625">
        <ele>394.399993896484375</ele>
        <time>2019-07-26T14:10:44.000Z</time>
      </trkpt>
      <trkpt lat="42.9248749651014804840087890625" lon="-8.22574035264551639556884765625">
        <ele>393.79998779296875</ele>
        <time>2019-07-26T14:10:50.000Z</time>
      </trkpt>
      <trkpt lat="42.9248468019068241119384765625" lon="-8.225818388164043426513671875">
        <ele>393.79998779296875</ele>
        <time>2019-07-26T14:10:51.000Z</time>
      </trkpt>
      <trkpt lat="42.92472685687243938446044921875" lon="-8.2260713540017604827880859375">
        <ele>393.600006103515625</ele>
        <time>2019-07-26T14:10:54.000Z</time>
      </trkpt>
      <trkpt lat="42.92464823462069034576416015625" lon="-8.226228766143321990966796875">
        <ele>393.399993896484375</ele>
        <time>2019-07-26T14:10:56.000Z</time>
      </trkpt>
      <trkpt lat="42.92461068369448184967041015625" lon="-8.22629322297871112823486328125">
        <ele>393.20001220703125</ele>
        <time>2019-07-26T14:10:57.000Z</time>
      </trkpt>
      <trkpt lat="42.92445679195225238800048828125" lon="-8.22650863789021968841552734375">
        <ele>393</ele>
        <time>2019-07-26T14:11:00.000Z</time>
      </trkpt>
      <trkpt lat="42.92432704009115695953369140625" lon="-8.226664960384368896484375">
        <ele>392.600006103515625</ele>
        <time>2019-07-26T14:11:02.000Z</time>
      </trkpt>
      <trkpt lat="42.92414532043039798736572265625" lon="-8.2268870808184146881103515625">
        <ele>392.20001220703125</ele>
        <time>2019-07-26T14:11:05.000Z</time>
      </trkpt>
      <trkpt lat="42.92403417639434337615966796875" lon="-8.22705321013927459716796875">
        <ele>391.79998779296875</ele>
        <time>2019-07-26T14:11:07.000Z</time>
      </trkpt>
      <trkpt lat="42.92388950474560260772705078125" lon="-8.227302990853786468505859375">
        <ele>391.399993896484375</ele>
        <time>2019-07-26T14:11:10.000Z</time>
      </trkpt>
      <trkpt lat="42.92365749366581439971923828125" lon="-8.22774144820868968963623046875">
        <ele>390.79998779296875</ele>
        <time>2019-07-26T14:11:16.000Z</time>
      </trkpt>
      <trkpt lat="42.92354366742074489593505859375" lon="-8.22803364135324954986572265625">
        <ele>390.79998779296875</ele>
        <time>2019-07-26T14:11:21.000Z</time>
      </trkpt>
      <trkpt lat="42.92344660498201847076416015625" lon="-8.2282459549605846405029296875">
        <ele>391</ele>
        <time>2019-07-26T14:11:26.000Z</time>
      </trkpt>
      <trkpt lat="42.92342280037701129913330078125" lon="-8.22828434407711029052734375">
        <ele>391</ele>
        <time>2019-07-26T14:11:27.000Z</time>
      </trkpt>
      <trkpt lat="42.9233722575008869171142578125" lon="-8.22835919447243213653564453125">
        <ele>391.399993896484375</ele>
        <time>2019-07-26T14:11:29.000Z</time>
      </trkpt>
      <trkpt lat="42.923313081264495849609375" lon="-8.2284568436443805694580078125">
        <ele>392</ele>
        <time>2019-07-26T14:11:32.000Z</time>
      </trkpt>
      <trkpt lat="42.92328282259404659271240234375" lon="-8.22848928160965442657470703125">
        <ele>392.20001220703125</ele>
        <time>2019-07-26T14:11:33.000Z</time>
      </trkpt>
      <trkpt lat="42.9232312738895416259765625" lon="-8.22854728437960147857666015625">
        <ele>393</ele>
        <time>2019-07-26T14:11:35.000Z</time>
      </trkpt>
      <trkpt lat="42.9231803119182586669921875" lon="-8.228601850569248199462890625">
        <ele>394.20001220703125</ele>
        <time>2019-07-26T14:11:37.000Z</time>
      </trkpt>
      <trkpt lat="42.92313672602176666259765625" lon="-8.22865985333919525146484375">
        <ele>395</ele>
        <time>2019-07-26T14:11:39.000Z</time>
      </trkpt>
      <trkpt lat="42.9231174476444721221923828125" lon="-8.22868944145739078521728515625">
        <ele>395.20001220703125</ele>
        <time>2019-07-26T14:11:40.000Z</time>
      </trkpt>
      <trkpt lat="42.92302600108087062835693359375" lon="-8.2288407348096370697021484375">
        <ele>396.79998779296875</ele>
        <time>2019-07-26T14:11:45.000Z</time>
      </trkpt>
      <trkpt lat="42.9229389131069183349609375" lon="-8.2289674691855907440185546875">
        <ele>397.79998779296875</ele>
        <time>2019-07-26T14:11:49.000Z</time>
      </trkpt>
      <trkpt lat="42.9229290224611759185791015625" lon="-8.228995464742183685302734375">
        <ele>398</ele>
        <time>2019-07-26T14:11:50.000Z</time>
      </trkpt>
      <trkpt lat="42.92288132943212985992431640625" lon="-8.22909059934318065643310546875">
        <ele>398.79998779296875</ele>
        <time>2019-07-26T14:11:54.000Z</time>
      </trkpt>
      <trkpt lat="42.92283891700208187103271484375" lon="-8.2291595824062824249267578125">
        <ele>399.20001220703125</ele>
        <time>2019-07-26T14:11:56.000Z</time>
      </trkpt>
      <trkpt lat="42.92276029475033283233642578125" lon="-8.22934574447572231292724609375">
        <ele>399.79998779296875</ele>
        <time>2019-07-26T14:12:00.000Z</time>
      </trkpt>
      <trkpt lat="42.922744788229465484619140625" lon="-8.22939477860927581787109375">
        <ele>400</ele>
        <time>2019-07-26T14:12:01.000Z</time>
      </trkpt>
      <trkpt lat="42.92272592894732952117919921875" lon="-8.22945571504533290863037109375">
        <ele>400.20001220703125</ele>
        <time>2019-07-26T14:12:02.000Z</time>
      </trkpt>
      <trkpt lat="42.92265149764716625213623046875" lon="-8.22964531369507312774658203125">
        <ele>401</ele>
        <time>2019-07-26T14:12:06.000Z</time>
      </trkpt>
      <trkpt lat="42.922612689435482025146484375" lon="-8.22974908165633678436279296875">
        <ele>401.399993896484375</ele>
        <time>2019-07-26T14:12:08.000Z</time>
      </trkpt>
      <trkpt lat="42.9225310496985912322998046875" lon="-8.22997011244297027587890625">
        <ele>402</ele>
        <time>2019-07-26T14:12:12.000Z</time>
      </trkpt>
      <trkpt lat="42.9224519245326519012451171875" lon="-8.2301888801157474517822265625">
        <ele>403.20001220703125</ele>
        <time>2019-07-26T14:12:16.000Z</time>
      </trkpt>
      <trkpt lat="42.92230901308357715606689453125" lon="-8.2305677421391010284423828125">
        <ele>403.600006103515625</ele>
        <time>2019-07-26T14:12:22.000Z</time>
      </trkpt>
      <trkpt lat="42.9222289659082889556884765625" lon="-8.2308145053684711456298828125">
        <ele>403.600006103515625</ele>
        <time>2019-07-26T14:12:25.000Z</time>
      </trkpt>
      <trkpt lat="42.92217909358441829681396484375" lon="-8.230995722115039825439453125">
        <ele>403.600006103515625</ele>
        <time>2019-07-26T14:12:27.000Z</time>
      </trkpt>
      <trkpt lat="42.922125868499279022216796875" lon="-8.2311886735260486602783203125">
        <ele>403.600006103515625</ele>
        <time>2019-07-26T14:12:29.000Z</time>
      </trkpt>
      <trkpt lat="42.92206878773868083953857421875" lon="-8.2313787750899791717529296875">
        <ele>403.20001220703125</ele>
        <time>2019-07-26T14:12:31.000Z</time>
      </trkpt>
      <trkpt lat="42.9220361821353435516357421875" lon="-8.2314699701964855194091796875">
        <ele>403</ele>
        <time>2019-07-26T14:12:32.000Z</time>
      </trkpt>
      <trkpt lat="42.92199988849461078643798828125" lon="-8.23155504651367664337158203125">
        <ele>402.79998779296875</ele>
        <time>2019-07-26T14:12:33.000Z</time>
      </trkpt>
      <trkpt lat="42.92195898480713367462158203125" lon="-8.2316423021256923675537109375">
        <ele>402.600006103515625</ele>
        <time>2019-07-26T14:12:34.000Z</time>
      </trkpt>
      <trkpt lat="42.92188019491732120513916015625" lon="-8.23183265514671802520751953125">
        <ele>401.79998779296875</ele>
        <time>2019-07-26T14:12:36.000Z</time>
      </trkpt>
      <trkpt lat="42.921836860477924346923828125" lon="-8.23193256743252277374267578125">
        <ele>401.399993896484375</ele>
        <time>2019-07-26T14:12:37.000Z</time>
      </trkpt>
      <trkpt lat="42.9217454977333545684814453125" lon="-8.23212836869060993194580078125">
        <ele>400.20001220703125</ele>
        <time>2019-07-26T14:12:39.000Z</time>
      </trkpt>
      <trkpt lat="42.92162504978477954864501953125" lon="-8.23241720907390117645263671875">
        <ele>398.79998779296875</ele>
        <time>2019-07-26T14:12:42.000Z</time>
      </trkpt>
      <trkpt lat="42.92158498428761959075927734375" lon="-8.23250505141913890838623046875">
        <ele>398.399993896484375</ele>
        <time>2019-07-26T14:12:43.000Z</time>
      </trkpt>
      <trkpt lat="42.92150837369263172149658203125" lon="-8.232685513794422149658203125">
        <ele>397.600006103515625</ele>
        <time>2019-07-26T14:12:45.000Z</time>
      </trkpt>
      <trkpt lat="42.9213505424559116363525390625" lon="-8.2330578379333019256591796875">
        <ele>396.600006103515625</ele>
        <time>2019-07-26T14:12:49.000Z</time>
      </trkpt>
      <trkpt lat="42.92131290771067142486572265625" lon="-8.23314811103045940399169921875">
        <ele>396.399993896484375</ele>
        <time>2019-07-26T14:12:50.000Z</time>
      </trkpt>
      <trkpt lat="42.92111023329198360443115234375" lon="-8.2335929386317729949951171875">
        <ele>396</ele>
        <time>2019-07-26T14:12:55.000Z</time>
      </trkpt>
      <trkpt lat="42.92103680782020092010498046875" lon="-8.233759067952632904052734375">
        <ele>395.600006103515625</ele>
        <time>2019-07-26T14:12:57.000Z</time>
      </trkpt>
      <trkpt lat="42.92092868126928806304931640625" lon="-8.234133236110210418701171875">
        <ele>394.79998779296875</ele>
        <time>2019-07-26T14:13:01.000Z</time>
      </trkpt>
      <trkpt lat="42.920899093151092529296875" lon="-8.2343266904354095458984375">
        <ele>394.79998779296875</ele>
        <time>2019-07-26T14:13:03.000Z</time>
      </trkpt>
      <trkpt lat="42.92087855748832225799560546875" lon="-8.23451754637062549591064453125">
        <ele>394.600006103515625</ele>
        <time>2019-07-26T14:13:05.000Z</time>
      </trkpt>
      <trkpt lat="42.92085743509232997894287109375" lon="-8.2346083223819732666015625">
        <ele>394</ele>
        <time>2019-07-26T14:13:06.000Z</time>
      </trkpt>
      <trkpt lat="42.92079943232238292694091796875" lon="-8.23477470315992832183837890625">
        <ele>393.600006103515625</ele>
        <time>2019-07-26T14:13:08.000Z</time>
      </trkpt>
      <trkpt lat="42.92076774872839450836181640625" lon="-8.23485433124005794525146484375">
        <ele>393.399993896484375</ele>
        <time>2019-07-26T14:13:09.000Z</time>
      </trkpt>
      <trkpt lat="42.9207014478743076324462890625" lon="-8.234998919069766998291015625">
        <ele>393.20001220703125</ele>
        <time>2019-07-26T14:13:11.000Z</time>
      </trkpt>
      <trkpt lat="42.92063154280185699462890625" lon="-8.2351402379572391510009765625">
        <ele>393.20001220703125</ele>
        <time>2019-07-26T14:13:13.000Z</time>
      </trkpt>
      <trkpt lat="42.9205512441694736480712890625" lon="-8.23535540141165256500244140625">
        <ele>393.20001220703125</ele>
        <time>2019-07-26T14:13:16.000Z</time>
      </trkpt>
      <trkpt lat="42.92053825221955776214599609375" lon="-8.2354183495044708251953125">
        <ele>393.20001220703125</ele>
        <time>2019-07-26T14:13:17.000Z</time>
      </trkpt>
      <trkpt lat="42.92049751617014408111572265625" lon="-8.23571280576288700103759765625">
        <ele>393.20001220703125</ele>
        <time>2019-07-26T14:13:21.000Z</time>
      </trkpt>
      <trkpt lat="42.92049818672239780426025390625" lon="-8.23580752126872539520263671875">
        <ele>393.20001220703125</ele>
        <time>2019-07-26T14:13:22.000Z</time>
      </trkpt>
      <trkpt lat="42.92048628441989421844482421875" lon="-8.23629518039524555206298828125">
        <ele>393.399993896484375</ele>
        <time>2019-07-26T14:13:26.000Z</time>
      </trkpt>
      <trkpt lat="42.9204818420112133026123046875" lon="-8.2365530915558338165283203125">
        <ele>393.399993896484375</ele>
        <time>2019-07-26T14:13:28.000Z</time>
      </trkpt>
      <trkpt lat="42.92047798633575439453125" lon="-8.2368048839271068572998046875">
        <ele>393.20001220703125</ele>
        <time>2019-07-26T14:13:30.000Z</time>
      </trkpt>
      <trkpt lat="42.92046063579618930816650390625" lon="-8.23690923862159252166748046875">
        <ele>393</ele>
        <time>2019-07-26T14:13:31.000Z</time>
      </trkpt>
      <trkpt lat="42.920385114848613739013671875" lon="-8.23708601295948028564453125">
        <ele>392.399993896484375</ele>
        <time>2019-07-26T14:13:33.000Z</time>
      </trkpt>
      <trkpt lat="42.92033507488667964935302734375" lon="-8.23716337792575359344482421875">
        <ele>391.20001220703125</ele>
        <time>2019-07-26T14:13:34.000Z</time>
      </trkpt>
      <trkpt lat="42.92017414234578609466552734375" lon="-8.2373227179050445556640625">
        <ele>390</ele>
        <time>2019-07-26T14:13:36.000Z</time>
      </trkpt>
      <trkpt lat="42.92009107768535614013671875" lon="-8.23738348670303821563720703125">
        <ele>389.399993896484375</ele>
        <time>2019-07-26T14:13:37.000Z</time>
      </trkpt>
      <trkpt lat="42.92000046931207180023193359375" lon="-8.2374362088739871978759765625">
        <ele>388.79998779296875</ele>
        <time>2019-07-26T14:13:38.000Z</time>
      </trkpt>
      <trkpt lat="42.91987859643995761871337890625" lon="-8.23757375590503215789794921875">
        <ele>387.20001220703125</ele>
        <time>2019-07-26T14:13:40.000Z</time>
      </trkpt>
      <trkpt lat="42.91979662142693996429443359375" lon="-8.23776134289801120758056640625">
        <ele>385.79998779296875</ele>
        <time>2019-07-26T14:13:42.000Z</time>
      </trkpt>
      <trkpt lat="42.91975890286266803741455078125" lon="-8.23786117136478424072265625">
        <ele>385</ele>
        <time>2019-07-26T14:13:43.000Z</time>
      </trkpt>
      <trkpt lat="42.91971716098487377166748046875" lon="-8.237973153591156005859375">
        <ele>384.20001220703125</ele>
        <time>2019-07-26T14:13:44.000Z</time>
      </trkpt>
      <trkpt lat="42.91963518597185611724853515625" lon="-8.2382086850702762603759765625">
        <ele>382.399993896484375</ele>
        <time>2019-07-26T14:13:46.000Z</time>
      </trkpt>
      <trkpt lat="42.9195504449307918548583984375" lon="-8.238434828817844390869140625">
        <ele>381.20001220703125</ele>
        <time>2019-07-26T14:13:48.000Z</time>
      </trkpt>
      <trkpt lat="42.91945195756852626800537109375" lon="-8.2386653311550617218017578125">
        <ele>380.399993896484375</ele>
        <time>2019-07-26T14:13:50.000Z</time>
      </trkpt>
      <trkpt lat="42.91940837167203426361083984375" lon="-8.2387722842395305633544921875">
        <ele>380.20001220703125</ele>
        <time>2019-07-26T14:13:51.000Z</time>
      </trkpt>
      <trkpt lat="42.919364534318447113037109375" lon="-8.23887948878109455108642578125">
        <ele>380</ele>
        <time>2019-07-26T14:13:52.000Z</time>
      </trkpt>
      <trkpt lat="42.919228076934814453125" lon="-8.23919632472097873687744140625">
        <ele>379.79998779296875</ele>
        <time>2019-07-26T14:13:55.000Z</time>
      </trkpt>
      <trkpt lat="42.91909572668373584747314453125" lon="-8.239496648311614990234375">
        <ele>379.20001220703125</ele>
        <time>2019-07-26T14:13:58.000Z</time>
      </trkpt>
      <trkpt lat="42.91891249828040599822998046875" lon="-8.23979160748422145843505859375">
        <ele>379.20001220703125</ele>
        <time>2019-07-26T14:14:01.000Z</time>
      </trkpt>
      <trkpt lat="42.918839491903781890869140625" lon="-8.23988330550491809844970703125">
        <ele>379.20001220703125</ele>
        <time>2019-07-26T14:14:02.000Z</time>
      </trkpt>
      <trkpt lat="42.9187595285475254058837890625" lon="-8.2399655319750308990478515625">
        <ele>378.79998779296875</ele>
        <time>2019-07-26T14:14:03.000Z</time>
      </trkpt>
      <trkpt lat="42.91858526878058910369873046875" lon="-8.24013342149555683135986328125">
        <ele>378.20001220703125</ele>
        <time>2019-07-26T14:14:05.000Z</time>
      </trkpt>
      <trkpt lat="42.9185291938483715057373046875" lon="-8.24020701460540294647216796875">
        <ele>377.79998779296875</ele>
        <time>2019-07-26T14:14:06.000Z</time>
      </trkpt>
      <trkpt lat="42.9184309579432010650634765625" lon="-8.24029921554028987884521484375">
        <ele>376.20001220703125</ele>
        <time>2019-07-26T14:14:08.000Z</time>
      </trkpt>
      <trkpt lat="42.91839583776891231536865234375" lon="-8.24031966738402843475341796875">
        <ele>375.79998779296875</ele>
        <time>2019-07-26T14:14:09.000Z</time>
      </trkpt>
      <trkpt lat="42.9183605499565601348876953125" lon="-8.2403428852558135986328125">
        <ele>375.20001220703125</ele>
        <time>2019-07-26T14:14:10.000Z</time>
      </trkpt>
      <trkpt lat="42.91827530600130558013916015625" lon="-8.2404178194701671600341796875">
        <ele>373.399993896484375</ele>
        <time>2019-07-26T14:14:12.000Z</time>
      </trkpt>
      <trkpt lat="42.9182304628193378448486328125" lon="-8.24046886526048183441162109375">
        <ele>372.20001220703125</ele>
        <time>2019-07-26T14:14:13.000Z</time>
      </trkpt>
      <trkpt lat="42.9181902296841144561767578125" lon="-8.240528963506221771240234375">
        <ele>370.399993896484375</ele>
        <time>2019-07-26T14:14:14.000Z</time>
      </trkpt>
      <trkpt lat="42.918156869709491729736328125" lon="-8.24060247279703617095947265625">
        <ele>368.79998779296875</ele>
        <time>2019-07-26T14:14:15.000Z</time>
      </trkpt>
      <trkpt lat="42.91812979616224765777587890625" lon="-8.2406816817820072174072265625">
        <ele>367.600006103515625</ele>
        <time>2019-07-26T14:14:16.000Z</time>
      </trkpt>
      <trkpt lat="42.91810263879597187042236328125" lon="-8.24076709337532520294189453125">
        <ele>366.79998779296875</ele>
        <time>2019-07-26T14:14:17.000Z</time>
      </trkpt>
      <trkpt lat="42.9180707037448883056640625" lon="-8.240859545767307281494140625">
        <ele>366.20001220703125</ele>
        <time>2019-07-26T14:14:18.000Z</time>
      </trkpt>
      <trkpt lat="42.91796869598329067230224609375" lon="-8.24114662595093250274658203125">
        <ele>365</ele>
        <time>2019-07-26T14:14:21.000Z</time>
      </trkpt>
      <trkpt lat="42.91792712174355983734130859375" lon="-8.24123614467680454254150390625">
        <ele>364.600006103515625</ele>
        <time>2019-07-26T14:14:22.000Z</time>
      </trkpt>
      <trkpt lat="42.91782595217227935791015625" lon="-8.24144803918898105621337890625">
        <ele>364.20001220703125</ele>
        <time>2019-07-26T14:14:24.000Z</time>
      </trkpt>
      <trkpt lat="42.91777021251618862152099609375" lon="-8.24154292233288288116455078125">
        <ele>364</ele>
        <time>2019-07-26T14:14:25.000Z</time>
      </trkpt>
      <trkpt lat="42.91770734824240207672119140625" lon="-8.241621963679790496826171875">
        <ele>363.79998779296875</ele>
        <time>2019-07-26T14:14:26.000Z</time>
      </trkpt>
      <trkpt lat="42.9176081903278827667236328125" lon="-8.241721205413341522216796875">
        <ele>362.79998779296875</ele>
        <time>2019-07-26T14:14:28.000Z</time>
      </trkpt>
      <trkpt lat="42.91758530773222446441650390625" lon="-8.24175096116960048675537109375">
        <ele>362.20001220703125</ele>
        <time>2019-07-26T14:14:29.000Z</time>
      </trkpt>
      <trkpt lat="42.9175746627151966094970703125" lon="-8.241769485175609588623046875">
        <ele>361</ele>
        <time>2019-07-26T14:14:30.000Z</time>
      </trkpt>
      <trkpt lat="42.917570136487483978271484375" lon="-8.2417797110974788665771484375">
        <ele>360.79998779296875</ele>
        <time>2019-07-26T14:14:31.000Z</time>
      </trkpt>
      <trkpt lat="42.91756711900234222412109375" lon="-8.24179085902869701385498046875">
        <ele>360.399993896484375</ele>
        <time>2019-07-26T14:14:32.000Z</time>
      </trkpt>
      <trkpt lat="42.917562425136566162109375" lon="-8.24179773218929767608642578125">
        <ele>360</ele>
        <time>2019-07-26T14:14:33.000Z</time>
      </trkpt>
      <trkpt lat="42.9175448231399059295654296875" lon="-8.2417941279709339141845703125">
        <ele>359.20001220703125</ele>
        <time>2019-07-26T14:14:35.000Z</time>
      </trkpt>
      <trkpt lat="42.91753401048481464385986328125" lon="-8.24177987873554229736328125">
        <ele>358.600006103515625</ele>
        <time>2019-07-26T14:14:36.000Z</time>
      </trkpt>
      <trkpt lat="42.9175297357141971588134765625" lon="-8.24176403693854808807373046875">
        <ele>357.79998779296875</ele>
        <time>2019-07-26T14:14:37.000Z</time>
      </trkpt>
      <trkpt lat="42.91753350757062435150146484375" lon="-8.24175364337861537933349609375">
        <ele>357.399993896484375</ele>
        <time>2019-07-26T14:14:38.000Z</time>
      </trkpt>
      <trkpt lat="42.9175610840320587158203125" lon="-8.2417290844023227691650390625">
        <ele>356.79998779296875</ele>
        <time>2019-07-26T14:14:40.000Z</time>
      </trkpt>
      <trkpt lat="42.91757927276194095611572265625" lon="-8.24171978048980236053466796875">
        <ele>356.79998779296875</ele>
        <time>2019-07-26T14:14:41.000Z</time>
      </trkpt>
      <trkpt lat="42.917703576385974884033203125" lon="-8.2417572475969791412353515625">
        <ele>356.79998779296875</ele>
        <time>2019-07-26T14:14:45.000Z</time>
      </trkpt>
      <trkpt lat="42.91781111620366573333740234375" lon="-8.241924382746219635009765625">
        <ele>356.600006103515625</ele>
        <time>2019-07-26T14:14:48.000Z</time>
      </trkpt>
      <trkpt lat="42.91784070432186126708984375" lon="-8.24198900721967220306396484375">
        <ele>356.600006103515625</ele>
        <time>2019-07-26T14:14:49.000Z</time>
      </trkpt>
      <trkpt lat="42.917961739003658294677734375" lon="-8.2423701323568820953369140625">
        <ele>356.399993896484375</ele>
        <time>2019-07-26T14:14:54.000Z</time>
      </trkpt>
      <trkpt lat="42.91799359023571014404296875" lon="-8.24244313873350620269775390625">
        <ele>356</ele>
        <time>2019-07-26T14:14:55.000Z</time>
      </trkpt>
      <trkpt lat="42.91808403097093105316162109375" lon="-8.24264933355152606964111328125">
        <ele>355</ele>
        <time>2019-07-26T14:14:58.000Z</time>
      </trkpt>
      <trkpt lat="42.91810934431850910186767578125" lon="-8.2427211664617061614990234375">
        <ele>354.600006103515625</ele>
        <time>2019-07-26T14:14:59.000Z</time>
      </trkpt>
      <trkpt lat="42.9181902296841144561767578125" lon="-8.242954351007938385009765625">
        <ele>353.79998779296875</ele>
        <time>2019-07-26T14:15:02.000Z</time>
      </trkpt>
      <trkpt lat="42.91823104955255985260009765625" lon="-8.24303054250776767730712890625">
        <ele>353.399993896484375</ele>
        <time>2019-07-26T14:15:03.000Z</time>
      </trkpt>
      <trkpt lat="42.91827580891549587249755859375" lon="-8.24318409897387027740478515625">
        <ele>352.79998779296875</ele>
        <time>2019-07-26T14:15:05.000Z</time>
      </trkpt>
      <trkpt lat="42.9182770662009716033935546875" lon="-8.2432391680777072906494140625">
        <ele>352.399993896484375</ele>
        <time>2019-07-26T14:15:06.000Z</time>
      </trkpt>
      <trkpt lat="42.91827111504971981048583984375" lon="-8.24327764101326465606689453125">
        <ele>352</ele>
        <time>2019-07-26T14:15:07.000Z</time>
      </trkpt>
      <trkpt lat="42.91823859326541423797607421875" lon="-8.24333530850708484649658203125">
        <ele>350.79998779296875</ele>
        <time>2019-07-26T14:15:09.000Z</time>
      </trkpt>
      <trkpt lat="42.91821755468845367431640625" lon="-8.24336011894047260284423828125">
        <ele>350.399993896484375</ele>
        <time>2019-07-26T14:15:10.000Z</time>
      </trkpt>
      <trkpt lat="42.91819048114120960235595703125" lon="-8.24339364655315876007080078125">
        <ele>349.600006103515625</ele>
        <time>2019-07-26T14:15:12.000Z</time>
      </trkpt>
      <trkpt lat="42.9181860387325286865234375" lon="-8.24340437538921833038330078125">
        <ele>348</ele>
        <time>2019-07-26T14:15:14.000Z</time>
      </trkpt>
      <trkpt lat="42.91803005151450634002685546875" lon="-8.24356212280690670013427734375">
        <ele>345.20001220703125</ele>
        <time>2019-07-26T14:16:45.000Z</time>
      </trkpt>
      <trkpt lat="42.91801236569881439208984375" lon="-8.24356757104396820068359375">
        <ele>345.20001220703125</ele>
        <time>2019-07-26T14:16:46.000Z</time>
      </trkpt>
      <trkpt lat="42.91798889636993408203125" lon="-8.243590705096721649169921875">
        <ele>345.20001220703125</ele>
        <time>2019-07-26T14:16:47.000Z</time>
      </trkpt>
      <trkpt lat="42.9179149679839611053466796875" lon="-8.24367159046232700347900390625">
        <ele>345.20001220703125</ele>
        <time>2019-07-26T14:16:49.000Z</time>
      </trkpt>
      <trkpt lat="42.9178623296320438385009765625" lon="-8.24371132068336009979248046875">
        <ele>345.20001220703125</ele>
        <time>2019-07-26T14:16:50.000Z</time>
      </trkpt>
      <trkpt lat="42.91777021251618862152099609375" lon="-8.2437474466860294342041015625">
        <ele>345.20001220703125</ele>
        <time>2019-07-26T14:16:52.000Z</time>
      </trkpt>
      <trkpt lat="42.9177379421889781951904296875" lon="-8.2437694072723388671875">
        <ele>345.20001220703125</ele>
        <time>2019-07-26T14:16:53.000Z</time>
      </trkpt>
      <trkpt lat="42.9177144728600978851318359375" lon="-8.2437994144856929779052734375">
        <ele>345.20001220703125</ele>
        <time>2019-07-26T14:16:54.000Z</time>
      </trkpt>
      <trkpt lat="42.91769854724407196044921875" lon="-8.24393059127032756805419921875">
        <ele>344.79998779296875</ele>
        <time>2019-07-26T14:16:57.000Z</time>
      </trkpt>
      <trkpt lat="42.9176983796060085296630859375" lon="-8.244001083076000213623046875">
        <ele>344.79998779296875</ele>
        <time>2019-07-26T14:16:58.000Z</time>
      </trkpt>
      <trkpt lat="42.9176883213222026824951171875" lon="-8.24412890709936618804931640625">
        <ele>344</ele>
        <time>2019-07-26T14:17:00.000Z</time>
      </trkpt>
      <trkpt lat="42.91765923611819744110107421875" lon="-8.244233764708042144775390625">
        <ele>343.399993896484375</ele>
        <time>2019-07-26T14:17:02.000Z</time>
      </trkpt>
      <trkpt lat="42.917627803981304168701171875" lon="-8.24439528398215770721435546875">
        <ele>343.20001220703125</ele>
        <time>2019-07-26T14:17:05.000Z</time>
      </trkpt>
      <trkpt lat="42.9176254570484161376953125" lon="-8.244503326714038848876953125">
        <ele>343</ele>
        <time>2019-07-26T14:17:07.000Z</time>
      </trkpt>
      <trkpt lat="42.91762151755392551422119140625" lon="-8.2445507682859897613525390625">
        <ele>343</ele>
        <time>2019-07-26T14:17:08.000Z</time>
      </trkpt>
      <trkpt lat="42.9175575636327266693115234375" lon="-8.24471614323556423187255859375">
        <ele>343</ele>
        <time>2019-07-26T14:17:12.000Z</time>
      </trkpt>
      <trkpt lat="42.91755144484341144561767578125" lon="-8.2449054904282093048095703125">
        <ele>343.20001220703125</ele>
        <time>2019-07-26T14:17:16.000Z</time>
      </trkpt>
      <trkpt lat="42.917573489248752593994140625" lon="-8.24504119344055652618408203125">
        <ele>343.399993896484375</ele>
        <time>2019-07-26T14:17:21.000Z</time>
      </trkpt>
      <trkpt lat="42.91756175458431243896484375" lon="-8.24505795724689960479736328125">
        <ele>344</ele>
        <time>2019-07-26T14:17:24.000Z</time>
      </trkpt>
      <trkpt lat="42.91755764745175838470458984375" lon="-8.24504203163087368011474609375">
        <ele>344</ele>
        <time>2019-07-26T14:17:25.000Z</time>
      </trkpt>
      <trkpt lat="42.91752244345843791961669921875" lon="-8.244888894259929656982421875">
        <ele>344.399993896484375</ele>
        <time>2019-07-26T14:17:29.000Z</time>
      </trkpt>
      <trkpt lat="42.91754968464374542236328125" lon="-8.2446583919227123260498046875">
        <ele>344.399993896484375</ele>
        <time>2019-07-26T14:17:33.000Z</time>
      </trkpt>
      <trkpt lat="42.9175770096480846405029296875" lon="-8.24460265226662158966064453125">
        <ele>344.399993896484375</ele>
        <time>2019-07-26T14:17:34.000Z</time>
      </trkpt>
      <trkpt lat="42.91763274930417537689208984375" lon="-8.2445108704268932342529296875">
        <ele>344.399993896484375</ele>
        <time>2019-07-26T14:17:37.000Z</time>
      </trkpt>
      <trkpt lat="42.91765236295759677886962890625" lon="-8.2444840483367443084716796875">
        <ele>344.20001220703125</ele>
        <time>2019-07-26T14:17:39.000Z</time>
      </trkpt>
      <trkpt lat="42.91766476817429065704345703125" lon="-8.24450500309467315673828125">
        <ele>343.79998779296875</ele>
        <time>2019-07-26T14:17:41.000Z</time>
      </trkpt>
      <trkpt lat="42.91765521280467510223388671875" lon="-8.24451581574976444244384765625">
        <ele>343.600006103515625</ele>
        <time>2019-07-26T14:17:42.000Z</time>
      </trkpt>
      <trkpt lat="42.91761380620300769805908203125" lon="-8.24455864727497100830078125">
        <ele>343.20001220703125</ele>
        <time>2019-07-26T14:17:45.000Z</time>
      </trkpt>
      <trkpt lat="42.91764163412153720855712890625" lon="-8.24464037083089351654052734375">
        <ele>343.20001220703125</ele>
        <time>2019-07-26T14:17:49.000Z</time>
      </trkpt>
      <trkpt lat="42.91768991388380527496337890625" lon="-8.2446570508182048797607421875">
        <ele>343</ele>
        <time>2019-07-26T14:17:51.000Z</time>
      </trkpt>
      <trkpt lat="42.917712628841400146484375" lon="-8.244661577045917510986328125">
        <ele>343</ele>
        <time>2019-07-26T14:17:52.000Z</time>
      </trkpt>
      <trkpt lat="42.91777423582971096038818359375" lon="-8.24467943049967288970947265625">
        <ele>343</ele>
        <time>2019-07-26T14:17:54.000Z</time>
      </trkpt>
      <trkpt lat="42.917825616896152496337890625" lon="-8.24482276104390621185302734375">
        <ele>343</ele>
        <time>2019-07-26T14:17:58.000Z</time>
      </trkpt>
      <trkpt lat="42.917836010456085205078125" lon="-8.24495485983788967132568359375">
        <ele>343.20001220703125</ele>
        <time>2019-07-26T14:18:01.000Z</time>
      </trkpt>
      <trkpt lat="42.9178398661315441131591796875" lon="-8.24499861337244510650634765625">
        <ele>343.20001220703125</ele>
        <time>2019-07-26T14:18:02.000Z</time>
      </trkpt>
      <trkpt lat="42.9178361780941486358642578125" lon="-8.24508276768028736114501953125">
        <ele>343.600006103515625</ele>
        <time>2019-07-26T14:18:04.000Z</time>
      </trkpt>
      <trkpt lat="42.91782821528613567352294921875" lon="-8.24512459337711334228515625">
        <ele>343.600006103515625</ele>
        <time>2019-07-26T14:18:05.000Z</time>
      </trkpt>
      <trkpt lat="42.91781765408813953399658203125" lon="-8.245208747684955596923828125">
        <ele>344</ele>
        <time>2019-07-26T14:18:07.000Z</time>
      </trkpt>
      <trkpt lat="42.91781723499298095703125" lon="-8.24524554423987865447998046875">
        <ele>344</ele>
        <time>2019-07-26T14:18:08.000Z</time>
      </trkpt>
      <trkpt lat="42.9178231023252010345458984375" lon="-8.24532098136842250823974609375">
        <ele>344.79998779296875</ele>
        <time>2019-07-26T14:18:10.000Z</time>
      </trkpt>
      <trkpt lat="42.91782000102102756500244140625" lon="-8.24541100300848484039306640625">
        <ele>345.20001220703125</ele>
        <time>2019-07-26T14:18:12.000Z</time>
      </trkpt>
      <trkpt lat="42.9177956096827983856201171875" lon="-8.24559540487825870513916015625">
        <ele>346</ele>
        <time>2019-07-26T14:18:16.000Z</time>
      </trkpt>
      <trkpt lat="42.9177902452647686004638671875" lon="-8.245639912784099578857421875">
        <ele>346.20001220703125</ele>
        <time>2019-07-26T14:18:17.000Z</time>
      </trkpt>
      <trkpt lat="42.9177890717983245849609375" lon="-8.24568375013768672943115234375">
        <ele>346.20001220703125</ele>
        <time>2019-07-26T14:18:18.000Z</time>
      </trkpt>
      <trkpt lat="42.917818240821361541748046875" lon="-8.24583747424185276031494140625">
        <ele>347</ele>
        <time>2019-07-26T14:18:22.000Z</time>
      </trkpt>
      <trkpt lat="42.917830646038055419921875" lon="-8.24587485752999782562255859375">
        <ele>347.399993896484375</ele>
        <time>2019-07-26T14:18:23.000Z</time>
      </trkpt>
      <trkpt lat="42.91792385280132293701171875" lon="-8.2461587525904178619384765625">
        <ele>348</ele>
        <time>2019-07-26T14:18:30.000Z</time>
      </trkpt>
      <trkpt lat="42.9179994575679302215576171875" lon="-8.24647282250225543975830078125">
        <ele>348.20001220703125</ele>
        <time>2019-07-26T14:18:37.000Z</time>
      </trkpt>
      <trkpt lat="42.91802099905908107757568359375" lon="-8.24661581777036190032958984375">
        <ele>348.600006103515625</ele>
        <time>2019-07-26T14:18:40.000Z</time>
      </trkpt>
      <trkpt lat="42.9180631600320339202880859375" lon="-8.2468122057616710662841796875">
        <ele>349.399993896484375</ele>
        <time>2019-07-26T14:18:44.000Z</time>
      </trkpt>
      <trkpt lat="42.91807615198194980621337890625" lon="-8.246855624020099639892578125">
        <ele>349.600006103515625</ele>
        <time>2019-07-26T14:18:45.000Z</time>
      </trkpt>
      <trkpt lat="42.91812895797193050384521484375" lon="-8.24705578386783599853515625">
        <ele>350.399993896484375</ele>
        <time>2019-07-26T14:18:50.000Z</time>
      </trkpt>
      <trkpt lat="42.91817866265773773193359375" lon="-8.24727647937834262847900390625">
        <ele>350.79998779296875</ele>
        <time>2019-07-26T14:18:55.000Z</time>
      </trkpt>
      <trkpt lat="42.91820590384304523468017578125" lon="-8.24739969335496425628662109375">
        <ele>351</ele>
        <time>2019-07-26T14:18:58.000Z</time>
      </trkpt>
      <trkpt lat="42.9182207398116588592529296875" lon="-8.2476514019072055816650390625">
        <ele>351.79998779296875</ele>
        <time>2019-07-26T14:19:04.000Z</time>
      </trkpt>
      <trkpt lat="42.91822048835456371307373046875" lon="-8.2476973347365856170654296875">
        <ele>351.79998779296875</ele>
        <time>2019-07-26T14:19:05.000Z</time>
      </trkpt>
      <trkpt lat="42.91823456995189189910888671875" lon="-8.24791149236261844635009765625">
        <ele>353</ele>
        <time>2019-07-26T14:19:10.000Z</time>
      </trkpt>
      <trkpt lat="42.9182435385882854461669921875" lon="-8.24799480848014354705810546875">
        <ele>353.399993896484375</ele>
        <time>2019-07-26T14:19:12.000Z</time>
      </trkpt>
      <trkpt lat="42.91826725937426090240478515625" lon="-8.2481378875672817230224609375">
        <ele>354.20001220703125</ele>
        <time>2019-07-26T14:19:15.000Z</time>
      </trkpt>
      <trkpt lat="42.9183317162096500396728515625" lon="-8.248387835919857025146484375">
        <ele>355.20001220703125</ele>
        <time>2019-07-26T14:19:20.000Z</time>
      </trkpt>
      <trkpt lat="42.91834403760731220245361328125" lon="-8.24843980371952056884765625">
        <ele>355.399993896484375</ele>
        <time>2019-07-26T14:19:21.000Z</time>
      </trkpt>
      <trkpt lat="42.91841310448944568634033203125" lon="-8.24881221167743206024169921875">
        <ele>355.79998779296875</ele>
        <time>2019-07-26T14:19:29.000Z</time>
      </trkpt>
      <trkpt lat="42.91844151914119720458984375" lon="-8.24893861077725887298583984375">
        <ele>356.399993896484375</ele>
        <time>2019-07-26T14:19:32.000Z</time>
      </trkpt>
      <trkpt lat="42.91847177781164646148681640625" lon="-8.2491091825067996978759765625">
        <ele>357</ele>
        <time>2019-07-26T14:19:36.000Z</time>
      </trkpt>
      <trkpt lat="42.9184891283512115478515625" lon="-8.24921789579093456268310546875">
        <ele>357.399993896484375</ele>
        <time>2019-07-26T14:19:39.000Z</time>
      </trkpt>
      <trkpt lat="42.91851217858493328094482421875" lon="-8.24932602234184741973876953125">
        <ele>358.20001220703125</ele>
        <time>2019-07-26T14:19:42.000Z</time>
      </trkpt>
      <trkpt lat="42.918520979583263397216796875" lon="-8.249365501105785369873046875">
        <ele>358.399993896484375</ele>
        <time>2019-07-26T14:19:43.000Z</time>
      </trkpt>
      <trkpt lat="42.91855274699628353118896484375" lon="-8.249520398676395416259765625">
        <ele>359.600006103515625</ele>
        <time>2019-07-26T14:19:47.000Z</time>
      </trkpt>
      <trkpt lat="42.9185650683939456939697265625" lon="-8.249601535499095916748046875">
        <ele>359.79998779296875</ele>
        <time>2019-07-26T14:19:49.000Z</time>
      </trkpt>
      <trkpt lat="42.91862332262098789215087890625" lon="-8.24987319298088550567626953125">
        <ele>360.600006103515625</ele>
        <time>2019-07-26T14:19:55.000Z</time>
      </trkpt>
      <trkpt lat="42.9186411760747432708740234375" lon="-8.24996975250542163848876953125">
        <ele>361</ele>
        <time>2019-07-26T14:19:57.000Z</time>
      </trkpt>
      <trkpt lat="42.91868291795253753662109375" lon="-8.2502067089080810546875">
        <ele>362</ele>
        <time>2019-07-26T14:20:02.000Z</time>
      </trkpt>
      <trkpt lat="42.91869389824569225311279296875" lon="-8.2502970658242702484130859375">
        <ele>362.20001220703125</ele>
        <time>2019-07-26T14:20:04.000Z</time>
      </trkpt>
      <trkpt lat="42.91872038505971431732177734375" lon="-8.25059236027300357818603515625">
        <ele>363</ele>
        <time>2019-07-26T14:20:11.000Z</time>
      </trkpt>
      <trkpt lat="42.9187412559986114501953125" lon="-8.2508115470409393310546875">
        <ele>363.79998779296875</ele>
        <time>2019-07-26T14:20:17.000Z</time>
      </trkpt>
      <trkpt lat="42.91874871589243412017822265625" lon="-8.2508462481200695037841796875">
        <ele>363.79998779296875</ele>
        <time>2019-07-26T14:20:18.000Z</time>
      </trkpt>
      <trkpt lat="42.91877184994518756866455078125" lon="-8.2509173266589641571044921875">
        <ele>364.20001220703125</ele>
        <time>2019-07-26T14:20:20.000Z</time>
      </trkpt>
      <trkpt lat="42.9188296012580394744873046875" lon="-8.25106493197381496429443359375">
        <ele>365</ele>
        <time>2019-07-26T14:20:25.000Z</time>
      </trkpt>
      <trkpt lat="42.91883924044668674468994140625" lon="-8.25110935606062412261962890625">
        <ele>365.399993896484375</ele>
        <time>2019-07-26T14:20:26.000Z</time>
      </trkpt>
      <trkpt lat="42.918887771666049957275390625" lon="-8.2512717135250568389892578125">
        <ele>366.399993896484375</ele>
        <time>2019-07-26T14:20:30.000Z</time>
      </trkpt>
      <trkpt lat="42.91892423294484615325927734375" lon="-8.2513479888439178466796875">
        <ele>367</ele>
        <time>2019-07-26T14:20:32.000Z</time>
      </trkpt>
      <trkpt lat="42.91896647773683071136474609375" lon="-8.25142786838114261627197265625">
        <ele>367.600006103515625</ele>
        <time>2019-07-26T14:20:34.000Z</time>
      </trkpt>
      <trkpt lat="42.919029258191585540771484375" lon="-8.25159651227295398712158203125">
        <ele>368.79998779296875</ele>
        <time>2019-07-26T14:20:38.000Z</time>
      </trkpt>
      <trkpt lat="42.91917501948773860931396484375" lon="-8.25174705125391483306884765625">
        <ele>369.79998779296875</ele>
        <time>2019-07-26T14:20:44.000Z</time>
      </trkpt>
      <trkpt lat="42.91919597424566745758056640625" lon="-8.25177655555307865142822265625">
        <ele>370</ele>
        <time>2019-07-26T14:20:45.000Z</time>
      </trkpt>
      <trkpt lat="42.9193207807838916778564453125" lon="-8.2519251666963100433349609375">
        <ele>371.20001220703125</ele>
        <time>2019-07-26T14:20:50.000Z</time>
      </trkpt>
      <trkpt lat="42.91933947242796421051025390625" lon="-8.25196179561316967010498046875">
        <ele>371.399993896484375</ele>
        <time>2019-07-26T14:20:51.000Z</time>
      </trkpt>
      <trkpt lat="42.9194233752787113189697265625" lon="-8.25217637233436107635498046875">
        <ele>372</ele>
        <time>2019-07-26T14:20:57.000Z</time>
      </trkpt>
      <trkpt lat="42.919460423290729522705078125" lon="-8.25224158354103565216064453125">
        <ele>372.20001220703125</ele>
        <time>2019-07-26T14:20:59.000Z</time>
      </trkpt>
      <trkpt lat="42.91953912936151027679443359375" lon="-8.25238441117107868194580078125">
        <ele>373</ele>
        <time>2019-07-26T14:21:04.000Z</time>
      </trkpt>
      <trkpt lat="42.9195678792893886566162109375" lon="-8.25244761072099208831787109375">
        <ele>373.399993896484375</ele>
        <time>2019-07-26T14:21:06.000Z</time>
      </trkpt>
      <trkpt lat="42.919654548168182373046875" lon="-8.25263209640979766845703125">
        <ele>374.20001220703125</ele>
        <time>2019-07-26T14:21:12.000Z</time>
      </trkpt>
      <trkpt lat="42.9196895845234394073486328125" lon="-8.2526899315416812896728515625">
        <ele>374.399993896484375</ele>
        <time>2019-07-26T14:21:14.000Z</time>
      </trkpt>
      <trkpt lat="42.91979041881859302520751953125" lon="-8.25279428623616695404052734375">
        <ele>375.20001220703125</ele>
        <time>2019-07-26T14:21:18.000Z</time>
      </trkpt>
      <trkpt lat="42.919842302799224853515625" lon="-8.252836279571056365966796875">
        <ele>375.600006103515625</ele>
        <time>2019-07-26T14:21:20.000Z</time>
      </trkpt>
      <trkpt lat="42.91994900442659854888916015625" lon="-8.25291079469025135040283203125">
        <ele>376.600006103515625</ele>
        <time>2019-07-26T14:21:24.000Z</time>
      </trkpt>
      <trkpt lat="42.919993512332439422607421875" lon="-8.252944909036159515380859375">
        <ele>377</ele>
        <time>2019-07-26T14:21:26.000Z</time>
      </trkpt>
      <trkpt lat="42.92009183205664157867431640625" lon="-8.2529987208545207977294921875">
        <ele>377.79998779296875</ele>
        <time>2019-07-26T14:21:30.000Z</time>
      </trkpt>
      <trkpt lat="42.9201507568359375" lon="-8.25301540084183216094970703125">
        <ele>378.20001220703125</ele>
        <time>2019-07-26T14:21:32.000Z</time>
      </trkpt>
      <trkpt lat="42.92027154006063938140869140625" lon="-8.25306720100343227386474609375">
        <ele>378.79998779296875</ele>
        <time>2019-07-26T14:21:36.000Z</time>
      </trkpt>
      <trkpt lat="42.920345552265644073486328125" lon="-8.25308932922780513763427734375">
        <ele>379.20001220703125</ele>
        <time>2019-07-26T14:21:38.000Z</time>
      </trkpt>
      <trkpt lat="42.92053540237247943878173828125" lon="-8.25325864367187023162841796875">
        <ele>379.600006103515625</ele>
        <time>2019-07-26T14:21:43.000Z</time>
      </trkpt>
      <trkpt lat="42.92061553336679935455322265625" lon="-8.25335620902478694915771484375">
        <ele>379.79998779296875</ele>
        <time>2019-07-26T14:21:45.000Z</time>
      </trkpt>
      <trkpt lat="42.92075081728398799896240234375" lon="-8.25353373773396015167236328125">
        <ele>380.20001220703125</ele>
        <time>2019-07-26T14:21:49.000Z</time>
      </trkpt>
      <trkpt lat="42.9208915494382381439208984375" lon="-8.2537029683589935302734375">
        <ele>380.79998779296875</ele>
        <time>2019-07-26T14:21:53.000Z</time>
      </trkpt>
      <trkpt lat="42.9210253246128559112548828125" lon="-8.2538945786654949188232421875">
        <ele>381.399993896484375</ele>
        <time>2019-07-26T14:21:57.000Z</time>
      </trkpt>
      <trkpt lat="42.92115465737879276275634765625" lon="-8.25407722033560276031494140625">
        <ele>381.79998779296875</ele>
        <time>2019-07-26T14:22:01.000Z</time>
      </trkpt>
      <trkpt lat="42.92117393575608730316162109375" lon="-8.25413086451590061187744140625">
        <ele>382</ele>
        <time>2019-07-26T14:22:02.000Z</time>
      </trkpt>
      <trkpt lat="42.92118784971535205841064453125" lon="-8.25419322587549686431884765625">
        <ele>382.20001220703125</ele>
        <time>2019-07-26T14:22:03.000Z</time>
      </trkpt>
      <trkpt lat="42.9212744347751140594482421875" lon="-8.2544729299843311309814453125">
        <ele>382.79998779296875</ele>
        <time>2019-07-26T14:22:09.000Z</time>
      </trkpt>
      <trkpt lat="42.92130435816943645477294921875" lon="-8.25454392470419406890869140625">
        <ele>383</ele>
        <time>2019-07-26T14:22:11.000Z</time>
      </trkpt>
      <trkpt lat="42.9213998280465602874755859375" lon="-8.25478482060134410858154296875">
        <ele>384.20001220703125</ele>
        <time>2019-07-26T14:22:16.000Z</time>
      </trkpt>
      <trkpt lat="42.92146160267293453216552734375" lon="-8.2549268938601016998291015625">
        <ele>385.20001220703125</ele>
        <time>2019-07-26T14:22:19.000Z</time>
      </trkpt>
      <trkpt lat="42.921514995396137237548828125" lon="-8.2550682127475738525390625">
        <ele>385.600006103515625</ele>
        <time>2019-07-26T14:22:22.000Z</time>
      </trkpt>
      <trkpt lat="42.92156117968261241912841796875" lon="-8.25521933846175670623779296875">
        <ele>386.399993896484375</ele>
        <time>2019-07-26T14:22:25.000Z</time>
      </trkpt>
      <trkpt lat="42.92162454687058925628662109375" lon="-8.255444727838039398193359375">
        <ele>387.20001220703125</ele>
        <time>2019-07-26T14:22:29.000Z</time>
      </trkpt>
      <trkpt lat="42.921641729772090911865234375" lon="-8.25550499372184276580810546875">
        <ele>387.399993896484375</ele>
        <time>2019-07-26T14:22:30.000Z</time>
      </trkpt>
      <trkpt lat="42.921699397265911102294921875" lon="-8.25568419881165027618408203125">
        <ele>387.79998779296875</ele>
        <time>2019-07-26T14:22:33.000Z</time>
      </trkpt>
      <trkpt lat="42.92175672948360443115234375" lon="-8.2558100111782550811767578125">
        <ele>387.79998779296875</ele>
        <time>2019-07-26T14:22:35.000Z</time>
      </trkpt>
      <trkpt lat="42.92179025709629058837890625" lon="-8.2558797486126422882080078125">
        <ele>387.79998779296875</ele>
        <time>2019-07-26T14:22:36.000Z</time>
      </trkpt>
      <trkpt lat="42.921997122466564178466796875" lon="-8.256294988095760345458984375">
        <ele>387.79998779296875</ele>
        <time>2019-07-26T14:22:41.000Z</time>
      </trkpt>
      <trkpt lat="42.92220306582748889923095703125" lon="-8.25672841630876064300537109375">
        <ele>386.79998779296875</ele>
        <time>2019-07-26T14:22:46.000Z</time>
      </trkpt>
      <trkpt lat="42.9222407005727291107177734375" lon="-8.2568143308162689208984375">
        <ele>386.20001220703125</ele>
        <time>2019-07-26T14:22:47.000Z</time>
      </trkpt>
      <trkpt lat="42.9222728870809078216552734375" lon="-8.25689923949539661407470703125">
        <ele>385.79998779296875</ele>
        <time>2019-07-26T14:22:48.000Z</time>
      </trkpt>
      <trkpt lat="42.9222953505814075469970703125" lon="-8.256985656917095184326171875">
        <ele>385.600006103515625</ele>
        <time>2019-07-26T14:22:49.000Z</time>
      </trkpt>
      <trkpt lat="42.92231001891195774078369140625" lon="-8.25707291252911090850830078125">
        <ele>385.20001220703125</ele>
        <time>2019-07-26T14:22:50.000Z</time>
      </trkpt>
      <trkpt lat="42.92233608663082122802734375" lon="-8.257255889475345611572265625">
        <ele>384.79998779296875</ele>
        <time>2019-07-26T14:22:52.000Z</time>
      </trkpt>
      <trkpt lat="42.92237791232764720916748046875" lon="-8.2576308958232402801513671875">
        <ele>384.399993896484375</ele>
        <time>2019-07-26T14:22:56.000Z</time>
      </trkpt>
      <trkpt lat="42.92240791954100131988525390625" lon="-8.2578917406499385833740234375">
        <ele>384.20001220703125</ele>
        <time>2019-07-26T14:22:59.000Z</time>
      </trkpt>
      <trkpt lat="42.92242418043315410614013671875" lon="-8.2580553553998470306396484375">
        <ele>384</ele>
        <time>2019-07-26T14:23:01.000Z</time>
      </trkpt>
      <trkpt lat="42.92245334945619106292724609375" lon="-8.2585884444415569305419921875">
        <ele>384</ele>
        <time>2019-07-26T14:23:08.000Z</time>
      </trkpt>
      <trkpt lat="42.922465503215789794921875" lon="-8.2587279193103313446044921875">
        <ele>384</ele>
        <time>2019-07-26T14:23:10.000Z</time>
      </trkpt>
      <trkpt lat="42.92247748933732509613037109375" lon="-8.2588072121143341064453125">
        <ele>384.20001220703125</ele>
        <time>2019-07-26T14:23:12.000Z</time>
      </trkpt>
      <trkpt lat="42.922410182654857635498046875" lon="-8.258862197399139404296875">
        <ele>384.600006103515625</ele>
        <time>2019-07-26T14:23:15.000Z</time>
      </trkpt>
      <trkpt lat="42.92234756983816623687744140625" lon="-8.25901550240814685821533203125">
        <ele>384.600006103515625</ele>
        <time>2019-07-26T14:23:18.000Z</time>
      </trkpt>
      <trkpt lat="42.922342121601104736328125" lon="-8.25930275022983551025390625">
        <ele>384.600006103515625</ele>
        <time>2019-07-26T14:23:22.000Z</time>
      </trkpt>
      <trkpt lat="42.92233834974467754364013671875" lon="-8.25938229449093341827392578125">
        <ele>384.600006103515625</ele>
        <time>2019-07-26T14:23:23.000Z</time>
      </trkpt>
      <trkpt lat="42.92234119959175586700439453125" lon="-8.25946242548525333404541015625">
        <ele>384.399993896484375</ele>
        <time>2019-07-26T14:23:24.000Z</time>
      </trkpt>
      <trkpt lat="42.92234287597239017486572265625" lon="-8.259885124862194061279296875">
        <ele>384.20001220703125</ele>
        <time>2019-07-26T14:23:29.000Z</time>
      </trkpt>
      <trkpt lat="42.92235813103616237640380859375" lon="-8.26017254032194614410400390625">
        <ele>383.79998779296875</ele>
        <time>2019-07-26T14:23:32.000Z</time>
      </trkpt>
      <trkpt lat="42.922393418848514556884765625" lon="-8.26036951504647731781005859375">
        <ele>383.79998779296875</ele>
        <time>2019-07-26T14:23:34.000Z</time>
      </trkpt>
      <trkpt lat="42.92246039025485515594482421875" lon="-8.26087125577032566070556640625">
        <ele>383.399993896484375</ele>
        <time>2019-07-26T14:23:39.000Z</time>
      </trkpt>
      <trkpt lat="42.9224789142608642578125" lon="-8.261062614619731903076171875">
        <ele>382.79998779296875</ele>
        <time>2019-07-26T14:23:41.000Z</time>
      </trkpt>
      <trkpt lat="42.9225035570561885833740234375" lon="-8.26126319356262683868408203125">
        <ele>382.20001220703125</ele>
        <time>2019-07-26T14:23:43.000Z</time>
      </trkpt>
      <trkpt lat="42.92255326174199581146240234375" lon="-8.26168597675859928131103515625">
        <ele>381.20001220703125</ele>
        <time>2019-07-26T14:23:47.000Z</time>
      </trkpt>
      <trkpt lat="42.9225833527743816375732421875" lon="-8.26178404502570629119873046875">
        <ele>381</ele>
        <time>2019-07-26T14:23:48.000Z</time>
      </trkpt>
      <trkpt lat="42.92268703691661357879638671875" lon="-8.26194363646209239959716796875">
        <ele>380.399993896484375</ele>
        <time>2019-07-26T14:23:50.000Z</time>
      </trkpt>
      <trkpt lat="42.92276733554899692535400390625" lon="-8.26212183572351932525634765625">
        <ele>380</ele>
        <time>2019-07-26T14:23:52.000Z</time>
      </trkpt>
      <trkpt lat="42.92283154092729091644287109375" lon="-8.26232048682868480682373046875">
        <ele>379.20001220703125</ele>
        <time>2019-07-26T14:23:54.000Z</time>
      </trkpt>
      <trkpt lat="42.92286087758839130401611328125" lon="-8.26241972856223583221435546875">
        <ele>378.600006103515625</ele>
        <time>2019-07-26T14:23:55.000Z</time>
      </trkpt>
      <trkpt lat="42.92291787452995777130126953125" lon="-8.26262542046606540679931640625">
        <ele>377.600006103515625</ele>
        <time>2019-07-26T14:23:57.000Z</time>
      </trkpt>
      <trkpt lat="42.923059947788715362548828125" lon="-8.2630638778209686279296875">
        <ele>376.399993896484375</ele>
        <time>2019-07-26T14:24:01.000Z</time>
      </trkpt>
      <trkpt lat="42.92309624142944812774658203125" lon="-8.263180553913116455078125">
        <ele>376</ele>
        <time>2019-07-26T14:24:02.000Z</time>
      </trkpt>
      <trkpt lat="42.92314837686717510223388671875" lon="-8.2634204439818859100341796875">
        <ele>375</ele>
        <time>2019-07-26T14:24:04.000Z</time>
      </trkpt>
      <trkpt lat="42.92319774627685546875" lon="-8.26367131434381008148193359375">
        <ele>373.399993896484375</ele>
        <time>2019-07-26T14:24:06.000Z</time>
      </trkpt>
      <trkpt lat="42.9232274182140827178955078125" lon="-8.2637902535498142242431640625">
        <ele>372.79998779296875</ele>
        <time>2019-07-26T14:24:07.000Z</time>
      </trkpt>
      <trkpt lat="42.92326019145548343658447265625" lon="-8.26390718109905719757080078125">
        <ele>372</ele>
        <time>2019-07-26T14:24:08.000Z</time>
      </trkpt>
      <trkpt lat="42.9233412444591522216796875" lon="-8.2642261125147342681884765625">
        <ele>370.79998779296875</ele>
        <time>2019-07-26T14:24:11.000Z</time>
      </trkpt>
      <trkpt lat="42.9234061203896999359130859375" lon="-8.2645122706890106201171875">
        <ele>370.399993896484375</ele>
        <time>2019-07-26T14:24:14.000Z</time>
      </trkpt>
      <trkpt lat="42.923443503677845001220703125" lon="-8.26468770392239093780517578125">
        <ele>370.20001220703125</ele>
        <time>2019-07-26T14:24:16.000Z</time>
      </trkpt>
      <trkpt lat="42.92348063550889492034912109375" lon="-8.2648547552525997161865234375">
        <ele>370.20001220703125</ele>
        <time>2019-07-26T14:24:18.000Z</time>
      </trkpt>
      <trkpt lat="42.92357400991022586822509765625" lon="-8.26513395644724369049072265625">
        <ele>370.20001220703125</ele>
        <time>2019-07-26T14:24:22.000Z</time>
      </trkpt>
      <trkpt lat="42.92359245009720325469970703125" lon="-8.26520117931067943572998046875">
        <ele>370.20001220703125</ele>
        <time>2019-07-26T14:24:23.000Z</time>
      </trkpt>
      <trkpt lat="42.923607118427753448486328125" lon="-8.2654310949146747589111328125">
        <ele>370.399993896484375</ele>
        <time>2019-07-26T14:24:26.000Z</time>
      </trkpt>
      <trkpt lat="42.9236109741032123565673828125" lon="-8.26557241380214691162109375">
        <ele>370.600006103515625</ele>
        <time>2019-07-26T14:24:28.000Z</time>
      </trkpt>
      <trkpt lat="42.9236035980284214019775390625" lon="-8.26578036881983280181884765625">
        <ele>371</ele>
        <time>2019-07-26T14:24:31.000Z</time>
      </trkpt>
      <trkpt lat="42.9235947132110595703125" lon="-8.265918754041194915771484375">
        <ele>371.399993896484375</ele>
        <time>2019-07-26T14:24:33.000Z</time>
      </trkpt>
      <trkpt lat="42.92355515062808990478515625" lon="-8.26613542623817920684814453125">
        <ele>371.399993896484375</ele>
        <time>2019-07-26T14:24:36.000Z</time>
      </trkpt>
      <trkpt lat="42.9235496185719966888427734375" lon="-8.266260065138339996337890625">
        <ele>371.600006103515625</ele>
        <time>2019-07-26T14:24:38.000Z</time>
      </trkpt>
      <trkpt lat="42.92355841957032680511474609375" lon="-8.266361318528652191162109375">
        <ele>371.600006103515625</ele>
        <time>2019-07-26T14:24:40.000Z</time>
      </trkpt>
      <trkpt lat="42.9235772788524627685546875" lon="-8.26650037430226802825927734375">
        <ele>371.79998779296875</ele>
        <time>2019-07-26T14:24:43.000Z</time>
      </trkpt>
      <trkpt lat="42.92359110899269580841064453125" lon="-8.2666531763970851898193359375">
        <ele>372.399993896484375</ele>
        <time>2019-07-26T14:24:46.000Z</time>
      </trkpt>
      <trkpt lat="42.9235905222594738006591796875" lon="-8.2668028771877288818359375">
        <ele>373</ele>
        <time>2019-07-26T14:24:49.000Z</time>
      </trkpt>
      <trkpt lat="42.92360234074294567108154296875" lon="-8.2669941522181034088134765625">
        <ele>373.600006103515625</ele>
        <time>2019-07-26T14:24:53.000Z</time>
      </trkpt>
      <trkpt lat="42.92360820807516574859619140625" lon="-8.26703279279172420501708984375">
        <ele>373.79998779296875</ele>
        <time>2019-07-26T14:24:54.000Z</time>
      </trkpt>
      <trkpt lat="42.923624217510223388671875" lon="-8.267104625701904296875">
        <ele>374</ele>
        <time>2019-07-26T14:24:56.000Z</time>
      </trkpt>
      <trkpt lat="42.923661433160305023193359375" lon="-8.267231024801731109619140625">
        <ele>374.600006103515625</ele>
        <time>2019-07-26T14:24:59.000Z</time>
      </trkpt>
      <trkpt lat="42.92370610870420932769775390625" lon="-8.26730654574930667877197265625">
        <ele>375.20001220703125</ele>
        <time>2019-07-26T14:25:01.000Z</time>
      </trkpt>
      <trkpt lat="42.923795543611049652099609375" lon="-8.26746546663343906402587890625">
        <ele>375.600006103515625</ele>
        <time>2019-07-26T14:25:05.000Z</time>
      </trkpt>
      <trkpt lat="42.9238785244524478912353515625" lon="-8.26760351657867431640625">
        <ele>376.20001220703125</ele>
        <time>2019-07-26T14:25:09.000Z</time>
      </trkpt>
      <trkpt lat="42.9239271394908428192138671875" lon="-8.2676958851516246795654296875">
        <ele>376.600006103515625</ele>
        <time>2019-07-26T14:25:11.000Z</time>
      </trkpt>
      <trkpt lat="42.92399360798299312591552734375" lon="-8.26780124567449092864990234375">
        <ele>377.20001220703125</ele>
        <time>2019-07-26T14:25:14.000Z</time>
      </trkpt>
      <trkpt lat="42.92408597655594348907470703125" lon="-8.26796201057732105255126953125">
        <ele>377.79998779296875</ele>
        <time>2019-07-26T14:25:19.000Z</time>
      </trkpt>
      <trkpt lat="42.92415521107614040374755859375" lon="-8.26806527562439441680908203125">
        <ele>378.399993896484375</ele>
        <time>2019-07-26T14:25:22.000Z</time>
      </trkpt>
      <trkpt lat="42.9242248646914958953857421875" lon="-8.26815278269350528717041015625">
        <ele>378.79998779296875</ele>
        <time>2019-07-26T14:25:25.000Z</time>
      </trkpt>
      <trkpt lat="42.92437884025275707244873046875" lon="-8.26830516569316387176513671875">
        <ele>379.600006103515625</ele>
        <time>2019-07-26T14:25:31.000Z</time>
      </trkpt>
      <trkpt lat="42.924522422254085540771484375" lon="-8.26839677989482879638671875">
        <ele>380.600006103515625</ele>
        <time>2019-07-26T14:25:37.000Z</time>
      </trkpt>
      <trkpt lat="42.92464949190616607666015625" lon="-8.26854622922837734222412109375">
        <ele>381.79998779296875</ele>
        <time>2019-07-26T14:25:42.000Z</time>
      </trkpt>
      <trkpt lat="42.92480899952352046966552734375" lon="-8.26884948648512363433837890625">
        <ele>382.600006103515625</ele>
        <time>2019-07-26T14:25:48.000Z</time>
      </trkpt>
      <trkpt lat="42.92486800812184810638427734375" lon="-8.26904897578060626983642578125">
        <ele>382.79998779296875</ele>
        <time>2019-07-26T14:25:51.000Z</time>
      </trkpt>
      <trkpt lat="42.924932800233364105224609375" lon="-8.26927721500396728515625">
        <ele>383.20001220703125</ele>
        <time>2019-07-26T14:25:54.000Z</time>
      </trkpt>
      <trkpt lat="42.925023324787616729736328125" lon="-8.269776441156864166259765625">
        <ele>383.20001220703125</ele>
        <time>2019-07-26T14:26:00.000Z</time>
      </trkpt>
      <trkpt lat="42.92509079910814762115478515625" lon="-8.27019662596285343170166015625">
        <ele>382.79998779296875</ele>
        <time>2019-07-26T14:26:05.000Z</time>
      </trkpt>
      <trkpt lat="42.9251394979655742645263671875" lon="-8.2703720591962337493896484375">
        <ele>382.600006103515625</ele>
        <time>2019-07-26T14:26:07.000Z</time>
      </trkpt>
      <trkpt lat="42.92523798532783985137939453125" lon="-8.27098670415580272674560546875">
        <ele>381.79998779296875</ele>
        <time>2019-07-26T14:26:14.000Z</time>
      </trkpt>
      <trkpt lat="42.92525776661932468414306640625" lon="-8.27115618623793125152587890625">
        <ele>381.600006103515625</ele>
        <time>2019-07-26T14:26:16.000Z</time>
      </trkpt>
      <trkpt lat="42.92529850266873836517333984375" lon="-8.27139289118349552154541015625">
        <ele>381.600006103515625</ele>
        <time>2019-07-26T14:26:19.000Z</time>
      </trkpt>
      <trkpt lat="42.92537502944469451904296875" lon="-8.271761275827884674072265625">
        <ele>381.20001220703125</ele>
        <time>2019-07-26T14:26:24.000Z</time>
      </trkpt>
      <trkpt lat="42.92548441328108310699462890625" lon="-8.27219772152602672576904296875">
        <ele>381.20001220703125</ele>
        <time>2019-07-26T14:26:30.000Z</time>
      </trkpt>
      <trkpt lat="42.925504781305789947509765625" lon="-8.27226662077009677886962890625">
        <ele>381.20001220703125</ele>
        <time>2019-07-26T14:26:31.000Z</time>
      </trkpt>
      <trkpt lat="42.92557418346405029296875" lon="-8.2726180739700794219970703125">
        <ele>381</ele>
        <time>2019-07-26T14:26:36.000Z</time>
      </trkpt>
      <trkpt lat="42.9255937971174716949462890625" lon="-8.27269309200346469879150390625">
        <ele>381</ele>
        <time>2019-07-26T14:26:37.000Z</time>
      </trkpt>
      <trkpt lat="42.925699241459369659423828125" lon="-8.27319256961345672607421875">
        <ele>381</ele>
        <time>2019-07-26T14:26:43.000Z</time>
      </trkpt>
      <trkpt lat="42.9257713258266448974609375" lon="-8.27362096868455410003662109375">
        <ele>380.79998779296875</ele>
        <time>2019-07-26T14:26:48.000Z</time>
      </trkpt>
      <trkpt lat="42.92579538188874721527099609375" lon="-8.2737140916287899017333984375">
        <ele>380.79998779296875</ele>
        <time>2019-07-26T14:26:49.000Z</time>
      </trkpt>
      <trkpt lat="42.92582488618791103363037109375" lon="-8.27379849739372730255126953125">
        <ele>380.600006103515625</ele>
        <time>2019-07-26T14:26:50.000Z</time>
      </trkpt>
      <trkpt lat="42.92596771381795406341552734375" lon="-8.2740993238985538482666015625">
        <ele>380</ele>
        <time>2019-07-26T14:26:54.000Z</time>
      </trkpt>
      <trkpt lat="42.9260098747909069061279296875" lon="-8.27415858395397663116455078125">
        <ele>379.600006103515625</ele>
        <time>2019-07-26T14:26:55.000Z</time>
      </trkpt>
      <trkpt lat="42.9261235333979129791259765625" lon="-8.27429872937500476837158203125">
        <ele>379</ele>
        <time>2019-07-26T14:26:58.000Z</time>
      </trkpt>
      <trkpt lat="42.9262060113251209259033203125" lon="-8.274488747119903564453125">
        <ele>378.399993896484375</ele>
        <time>2019-07-26T14:27:01.000Z</time>
      </trkpt>
      <trkpt lat="42.9262579791247844696044921875" lon="-8.27464423142373561859130859375">
        <ele>378</ele>
        <time>2019-07-26T14:27:03.000Z</time>
      </trkpt>
      <trkpt lat="42.92637490667402744293212890625" lon="-8.275144211947917938232421875">
        <ele>377.600006103515625</ele>
        <time>2019-07-26T14:27:09.000Z</time>
      </trkpt>
      <trkpt lat="42.9264391958713531494140625" lon="-8.27538485638797283172607421875">
        <ele>377.399993896484375</ele>
        <time>2019-07-26T14:27:12.000Z</time>
      </trkpt>
      <trkpt lat="42.92646107263863086700439453125" lon="-8.275565989315509796142578125">
        <ele>377</ele>
        <time>2019-07-26T14:27:14.000Z</time>
      </trkpt>
      <trkpt lat="42.926463671028614044189453125" lon="-8.2756556756794452667236328125">
        <ele>377</ele>
        <time>2019-07-26T14:27:15.000Z</time>
      </trkpt>
      <trkpt lat="42.92647046037018299102783203125" lon="-8.2758300192654132843017578125">
        <ele>377</ele>
        <time>2019-07-26T14:27:17.000Z</time>
      </trkpt>
      <trkpt lat="42.9264936782419681549072265625" lon="-8.27610435895621776580810546875">
        <ele>376.79998779296875</ele>
        <time>2019-07-26T14:27:20.000Z</time>
      </trkpt>
      <trkpt lat="42.9265137948095798492431640625" lon="-8.27675043605268001556396484375">
        <ele>376.399993896484375</ele>
        <time>2019-07-26T14:27:27.000Z</time>
      </trkpt>
      <trkpt lat="42.9264982044696807861328125" lon="-8.27693819068372249603271484375">
        <ele>376.399993896484375</ele>
        <time>2019-07-26T14:27:29.000Z</time>
      </trkpt>
      <trkpt lat="42.92645755223929882049560546875" lon="-8.27712410129606723785400390625">
        <ele>376.399993896484375</ele>
        <time>2019-07-26T14:27:31.000Z</time>
      </trkpt>
      <trkpt lat="42.92643626220524311065673828125" lon="-8.27722166664898395538330078125">
        <ele>376.20001220703125</ele>
        <time>2019-07-26T14:27:32.000Z</time>
      </trkpt>
      <trkpt lat="42.92638228274881839752197265625" lon="-8.2775134406983852386474609375">
        <ele>375.79998779296875</ele>
        <time>2019-07-26T14:27:35.000Z</time>
      </trkpt>
      <trkpt lat="42.926352359354496002197265625" lon="-8.27759415842592716217041015625">
        <ele>375.399993896484375</ele>
        <time>2019-07-26T14:27:36.000Z</time>
      </trkpt>
      <trkpt lat="42.92631514370441436767578125" lon="-8.27764176763594150543212890625">
        <ele>375.20001220703125</ele>
        <time>2019-07-26T14:27:37.000Z</time>
      </trkpt>
      <trkpt lat="42.9262809455394744873046875" lon="-8.27773061580955982208251953125">
        <ele>374.600006103515625</ele>
        <time>2019-07-26T14:27:39.000Z</time>
      </trkpt>
      <trkpt lat="42.92629092000424861907958984375" lon="-8.277851901948451995849609375">
        <ele>373.79998779296875</ele>
        <time>2019-07-26T14:27:41.000Z</time>
      </trkpt>
      <trkpt lat="42.9263032414019107818603515625" lon="-8.2779898680746555328369140625">
        <ele>373.399993896484375</ele>
        <time>2019-07-26T14:27:43.000Z</time>
      </trkpt>
      <trkpt lat="42.92630575597286224365234375" lon="-8.27806555666029453277587890625">
        <ele>373.399993896484375</ele>
        <time>2019-07-26T14:27:44.000Z</time>
      </trkpt>
      <trkpt lat="42.926298044621944427490234375" lon="-8.27821458689868450164794921875">
        <ele>372.79998779296875</ele>
        <time>2019-07-26T14:27:46.000Z</time>
      </trkpt>
      <trkpt lat="42.926301062107086181640625" lon="-8.278288431465625762939453125">
        <ele>371.600006103515625</ele>
        <time>2019-07-26T14:27:47.000Z</time>
      </trkpt>
      <trkpt lat="42.92630768381059169769287109375" lon="-8.2783640362322330474853515625">
        <ele>371</ele>
        <time>2019-07-26T14:27:48.000Z</time>
      </trkpt>
      <trkpt lat="42.92635495774447917938232421875" lon="-8.27876829542219638824462890625">
        <ele>370.79998779296875</ele>
        <time>2019-07-26T14:27:53.000Z</time>
      </trkpt>
      <trkpt lat="42.926393933594226837158203125" lon="-8.27903148718178272247314453125">
        <ele>370.399993896484375</ele>
        <time>2019-07-26T14:27:56.000Z</time>
      </trkpt>
      <trkpt lat="42.9264155589044094085693359375" lon="-8.279207088053226470947265625">
        <ele>370.399993896484375</ele>
        <time>2019-07-26T14:27:58.000Z</time>
      </trkpt>
      <trkpt lat="42.92643584311008453369140625" lon="-8.2794677652418613433837890625">
        <ele>370.399993896484375</ele>
        <time>2019-07-26T14:28:01.000Z</time>
      </trkpt>
      <trkpt lat="42.926445566117763519287109375" lon="-8.27955317683517932891845703125">
        <ele>370.399993896484375</ele>
        <time>2019-07-26T14:28:02.000Z</time>
      </trkpt>
      <trkpt lat="42.92649191804230213165283203125" lon="-8.279878981411457061767578125">
        <ele>370.20001220703125</ele>
        <time>2019-07-26T14:28:06.000Z</time>
      </trkpt>
      <trkpt lat="42.92649175040423870086669921875" lon="-8.2799643091857433319091796875">
        <ele>370.20001220703125</ele>
        <time>2019-07-26T14:28:07.000Z</time>
      </trkpt>
      <trkpt lat="42.9264718852937221527099609375" lon="-8.28020813874900341033935546875">
        <ele>370.399993896484375</ele>
        <time>2019-07-26T14:28:10.000Z</time>
      </trkpt>
      <trkpt lat="42.92643575929105281829833984375" lon="-8.28042908571660518646240234375">
        <ele>370.399993896484375</ele>
        <time>2019-07-26T14:28:13.000Z</time>
      </trkpt>
      <trkpt lat="42.926299385726451873779296875" lon="-8.2810775935649871826171875">
        <ele>371</ele>
        <time>2019-07-26T14:28:22.000Z</time>
      </trkpt>
      <trkpt lat="42.92615010403096675872802734375" lon="-8.28156081028282642364501953125">
        <ele>371.399993896484375</ele>
        <time>2019-07-26T14:28:29.000Z</time>
      </trkpt>
      <trkpt lat="42.92607500217854976654052734375" lon="-8.28175292350351810455322265625">
        <ele>371.600006103515625</ele>
        <time>2019-07-26T14:28:32.000Z</time>
      </trkpt>
      <trkpt lat="42.92594474740326404571533203125" lon="-8.28204880468547344207763671875">
        <ele>372</ele>
        <time>2019-07-26T14:28:37.000Z</time>
      </trkpt>
      <trkpt lat="42.925773672759532928466796875" lon="-8.28238223679363727569580078125">
        <ele>372.600006103515625</ele>
        <time>2019-07-26T14:28:43.000Z</time>
      </trkpt>
      <trkpt lat="42.92574643157422542572021484375" lon="-8.282428421080112457275390625">
        <ele>372.600006103515625</ele>
        <time>2019-07-26T14:28:44.000Z</time>
      </trkpt>
      <trkpt lat="42.9256524704396724700927734375" lon="-8.28263469971716403961181640625">
        <ele>373</ele>
        <time>2019-07-26T14:28:48.000Z</time>
      </trkpt>
      <trkpt lat="42.92564568109810352325439453125" lon="-8.28269965946674346923828125">
        <ele>373</ele>
        <time>2019-07-26T14:28:49.000Z</time>
      </trkpt>
      <trkpt lat="42.925622463226318359375" lon="-8.282883726060390472412109375">
        <ele>373.20001220703125</ele>
        <time>2019-07-26T14:28:52.000Z</time>
      </trkpt>
      <trkpt lat="42.92558667249977588653564453125" lon="-8.2830461673438549041748046875">
        <ele>373.600006103515625</ele>
        <time>2019-07-26T14:28:55.000Z</time>
      </trkpt>
      <trkpt lat="42.92557812295854091644287109375" lon="-8.28309402801096439361572265625">
        <ele>373.79998779296875</ele>
        <time>2019-07-26T14:28:56.000Z</time>
      </trkpt>
      <trkpt lat="42.9255163483321666717529296875" lon="-8.28331145457923412322998046875">
        <ele>374.20001220703125</ele>
        <time>2019-07-26T14:29:01.000Z</time>
      </trkpt>
      <trkpt lat="42.92547318153083324432373046875" lon="-8.28344237990677356719970703125">
        <ele>375</ele>
        <time>2019-07-26T14:29:04.000Z</time>
      </trkpt>
      <trkpt lat="42.92542221955955028533935546875" lon="-8.28362627886235713958740234375">
        <ele>375.79998779296875</ele>
        <time>2019-07-26T14:29:08.000Z</time>
      </trkpt>
      <trkpt lat="42.92540662921965122222900390625" lon="-8.28371546231210231781005859375">
        <ele>376.399993896484375</ele>
        <time>2019-07-26T14:29:10.000Z</time>
      </trkpt>
      <trkpt lat="42.92541283182799816131591796875" lon="-8.28390120528638362884521484375">
        <ele>377.399993896484375</ele>
        <time>2019-07-26T14:29:14.000Z</time>
      </trkpt>
      <trkpt lat="42.92541534639894962310791015625" lon="-8.28394412063062191009521484375">
        <ele>377.79998779296875</ele>
        <time>2019-07-26T14:29:15.000Z</time>
      </trkpt>
      <trkpt lat="42.9254429228603839874267578125" lon="-8.284086026251316070556640625">
        <ele>378.79998779296875</ele>
        <time>2019-07-26T14:29:19.000Z</time>
      </trkpt>
      <trkpt lat="42.9254492931067943572998046875" lon="-8.2841227389872074127197265625">
        <ele>379.20001220703125</ele>
        <time>2019-07-26T14:29:20.000Z</time>
      </trkpt>
      <trkpt lat="42.9254754446446895599365234375" lon="-8.2842260040342807769775390625">
        <ele>380</ele>
        <time>2019-07-26T14:29:23.000Z</time>
      </trkpt>
      <trkpt lat="42.92551576159894466400146484375" lon="-8.28433513641357421875">
        <ele>380.79998779296875</ele>
        <time>2019-07-26T14:29:26.000Z</time>
      </trkpt>
      <trkpt lat="42.92552649043500423431396484375" lon="-8.28437126241624355316162109375">
        <ele>381</ele>
        <time>2019-07-26T14:29:27.000Z</time>
      </trkpt>
      <trkpt lat="42.92551643215119838714599609375" lon="-8.28448575921356678009033203125">
        <ele>381.600006103515625</ele>
        <time>2019-07-26T14:29:30.000Z</time>
      </trkpt>
      <trkpt lat="42.92550570331513881683349609375" lon="-8.2845767028629779815673828125">
        <ele>382.20001220703125</ele>
        <time>2019-07-26T14:29:32.000Z</time>
      </trkpt>
      <trkpt lat="42.92544744908809661865234375" lon="-8.2847844064235687255859375">
        <ele>383</ele>
        <time>2019-07-26T14:29:37.000Z</time>
      </trkpt>
      <trkpt lat="42.9254382289946079254150390625" lon="-8.28482606448233127593994140625">
        <ele>383.20001220703125</ele>
        <time>2019-07-26T14:29:38.000Z</time>
      </trkpt>
      <trkpt lat="42.92543496005237102508544921875" lon="-8.28497760929167270660400390625">
        <ele>384</ele>
        <time>2019-07-26T14:29:42.000Z</time>
      </trkpt>
      <trkpt lat="42.92543428950011730194091796875" lon="-8.28500862233340740203857421875">
        <ele>384.20001220703125</ele>
        <time>2019-07-26T14:29:43.000Z</time>
      </trkpt>
      <trkpt lat="42.92542959563434123992919921875" lon="-8.28514038585126399993896484375">
        <ele>385.399993896484375</ele>
        <time>2019-07-26T14:29:47.000Z</time>
      </trkpt>
      <trkpt lat="42.9254333674907684326171875" lon="-8.2851681299507617950439453125">
        <ele>385.79998779296875</ele>
        <time>2019-07-26T14:29:48.000Z</time>
      </trkpt>
      <trkpt lat="42.9254172742366790771484375" lon="-8.2852801121771335601806640625">
        <ele>386.600006103515625</ele>
        <time>2019-07-26T14:29:52.000Z</time>
      </trkpt>
      <trkpt lat="42.92540243826806545257568359375" lon="-8.28537021763622760772705078125">
        <ele>387.399993896484375</ele>
        <time>2019-07-26T14:29:55.000Z</time>
      </trkpt>
      <trkpt lat="42.92538483627140522003173828125" lon="-8.285434506833553314208984375">
        <ele>387.79998779296875</ele>
        <time>2019-07-26T14:29:57.000Z</time>
      </trkpt>
      <trkpt lat="42.9253295995295047760009765625" lon="-8.28563927672803401947021484375">
        <ele>389</ele>
        <time>2019-07-26T14:30:02.000Z</time>
      </trkpt>
      <trkpt lat="42.92526639997959136962890625" lon="-8.285942785441875457763671875">
        <ele>390.20001220703125</ele>
        <time>2019-07-26T14:30:09.000Z</time>
      </trkpt>
      <trkpt lat="42.92525709606707096099853515625" lon="-8.2859838567674160003662109375">
        <ele>390.20001220703125</ele>
        <time>2019-07-26T14:30:10.000Z</time>
      </trkpt>
      <trkpt lat="42.92521971277892589569091796875" lon="-8.28618192113935947418212890625">
        <ele>390.79998779296875</ele>
        <time>2019-07-26T14:30:15.000Z</time>
      </trkpt>
      <trkpt lat="42.925219126045703887939453125" lon="-8.2862269319593906402587890625">
        <ele>390.79998779296875</ele>
        <time>2019-07-26T14:30:16.000Z</time>
      </trkpt>
      <trkpt lat="42.92522189207375049591064453125" lon="-8.286384679377079010009765625">
        <ele>391.20001220703125</ele>
        <time>2019-07-26T14:30:19.000Z</time>
      </trkpt>
      <trkpt lat="42.925233207643032073974609375" lon="-8.28656547702848911285400390625">
        <ele>391.600006103515625</ele>
        <time>2019-07-26T14:30:22.000Z</time>
      </trkpt>
      <trkpt lat="42.9252605326473712921142578125" lon="-8.28681525774300098419189453125">
        <ele>391.79998779296875</ele>
        <time>2019-07-26T14:30:26.000Z</time>
      </trkpt>
      <trkpt lat="42.92526246048510074615478515625" lon="-8.28694752417504787445068359375">
        <ele>392</ele>
        <time>2019-07-26T14:30:28.000Z</time>
      </trkpt>
      <trkpt lat="42.92523010633885860443115234375" lon="-8.28712555579841136932373046875">
        <ele>392</ele>
        <time>2019-07-26T14:30:31.000Z</time>
      </trkpt>
      <trkpt lat="42.92520915158092975616455078125" lon="-8.28722965903580188751220703125">
        <ele>392</ele>
        <time>2019-07-26T14:30:33.000Z</time>
      </trkpt>
      <trkpt lat="42.92515584267675876617431640625" lon="-8.28754196874797344207763671875">
        <ele>392</ele>
        <time>2019-07-26T14:30:39.000Z</time>
      </trkpt>
      <trkpt lat="42.92511644773185253143310546875" lon="-8.2877417095005512237548828125">
        <ele>392</ele>
        <time>2019-07-26T14:30:43.000Z</time>
      </trkpt>
      <trkpt lat="42.92509985156357288360595703125" lon="-8.28779811970889568328857421875">
        <ele>392</ele>
        <time>2019-07-26T14:30:44.000Z</time>
      </trkpt>
      <trkpt lat="42.92499926872551441192626953125" lon="-8.28805142082273960113525390625">
        <ele>392</ele>
        <time>2019-07-26T14:30:49.000Z</time>
      </trkpt>
      <trkpt lat="42.92485509999096393585205078125" lon="-8.28844000585377216339111328125">
        <ele>391.79998779296875</ele>
        <time>2019-07-26T14:30:54.000Z</time>
      </trkpt>
      <trkpt lat="42.92465393431484699249267578125" lon="-8.2888585142791271209716796875">
        <ele>391.79998779296875</ele>
        <time>2019-07-26T14:31:00.000Z</time>
      </trkpt>
      <trkpt lat="42.9246251843869686126708984375" lon="-8.28892498277127742767333984375">
        <ele>391.79998779296875</ele>
        <time>2019-07-26T14:31:01.000Z</time>
      </trkpt>
      <trkpt lat="42.9244813509285449981689453125" lon="-8.2893426530063152313232421875">
        <ele>392.20001220703125</ele>
        <time>2019-07-26T14:31:07.000Z</time>
      </trkpt>
      <trkpt lat="42.92446165345609188079833984375" lon="-8.28940928913652896881103515625">
        <ele>392.20001220703125</ele>
        <time>2019-07-26T14:31:08.000Z</time>
      </trkpt>
      <trkpt lat="42.92434195987880229949951171875" lon="-8.28984238207340240478515625">
        <ele>392.600006103515625</ele>
        <time>2019-07-26T14:31:15.000Z</time>
      </trkpt>
      <trkpt lat="42.92429451830685138702392578125" lon="-8.290029466152191162109375">
        <ele>392.79998779296875</ele>
        <time>2019-07-26T14:31:18.000Z</time>
      </trkpt>
      <trkpt lat="42.9242463223636150360107421875" lon="-8.2902113534510135650634765625">
        <ele>393</ele>
        <time>2019-07-26T14:31:21.000Z</time>
      </trkpt>
      <trkpt lat="42.924220673739910125732421875" lon="-8.29025812447071075439453125">
        <ele>393.20001220703125</ele>
        <time>2019-07-26T14:31:22.000Z</time>
      </trkpt>
      <trkpt lat="42.9240682907402515411376953125" lon="-8.29041503369808197021484375">
        <ele>393.600006103515625</ele>
        <time>2019-07-26T14:31:26.000Z</time>
      </trkpt>
      <trkpt lat="42.9239046759903430938720703125" lon="-8.29063002951443195343017578125">
        <ele>394.20001220703125</ele>
        <time>2019-07-26T14:31:30.000Z</time>
      </trkpt>
      <trkpt lat="42.92386620305478572845458984375" lon="-8.29069800674915313720703125">
        <ele>394.600006103515625</ele>
        <time>2019-07-26T14:31:31.000Z</time>
      </trkpt>
      <trkpt lat="42.92370527051389217376708984375" lon="-8.29093915410339832305908203125">
        <ele>394.79998779296875</ele>
        <time>2019-07-26T14:31:35.000Z</time>
      </trkpt>
      <trkpt lat="42.92363251559436321258544921875" lon="-8.29104795120656490325927734375">
        <ele>395</ele>
        <time>2019-07-26T14:31:37.000Z</time>
      </trkpt>
      <trkpt lat="42.92354308068752288818359375" lon="-8.29118608497083187103271484375">
        <ele>395.20001220703125</ele>
        <time>2019-07-26T14:31:40.000Z</time>
      </trkpt>
      <trkpt lat="42.923492453992366790771484375" lon="-8.2912872545421123504638671875">
        <ele>395.20001220703125</ele>
        <time>2019-07-26T14:31:42.000Z</time>
      </trkpt>
      <trkpt lat="42.9233923740684986114501953125" lon="-8.2914736680686473846435546875">
        <ele>395.600006103515625</ele>
        <time>2019-07-26T14:31:47.000Z</time>
      </trkpt>
      <trkpt lat="42.9232760332524776458740234375" lon="-8.291672654449939727783203125">
        <ele>396.20001220703125</ele>
        <time>2019-07-26T14:31:53.000Z</time>
      </trkpt>
      <trkpt lat="42.92324661277234554290771484375" lon="-8.2917314954102039337158203125">
        <ele>396.600006103515625</ele>
        <time>2019-07-26T14:31:55.000Z</time>
      </trkpt>
      <trkpt lat="42.923197411000728607177734375" lon="-8.2918359339237213134765625">
        <ele>397.399993896484375</ele>
        <time>2019-07-26T14:31:58.000Z</time>
      </trkpt>
      <trkpt lat="42.923191376030445098876953125" lon="-8.2918686233460903167724609375">
        <ele>398.20001220703125</ele>
        <time>2019-07-26T14:31:59.000Z</time>
      </trkpt>
      <trkpt lat="42.92317084036767482757568359375" lon="-8.2919946871697902679443359375">
        <ele>399.600006103515625</ele>
        <time>2019-07-26T14:32:03.000Z</time>
      </trkpt>
      <trkpt lat="42.92315416038036346435546875" lon="-8.292097114026546478271484375">
        <ele>400.79998779296875</ele>
        <time>2019-07-26T14:32:06.000Z</time>
      </trkpt>
      <trkpt lat="42.92311937548220157623291015625" lon="-8.29227908514440059661865234375">
        <ele>401.79998779296875</ele>
        <time>2019-07-26T14:32:10.000Z</time>
      </trkpt>
      <trkpt lat="42.92301476933062076568603515625" lon="-8.29253473319113254547119140625">
        <ele>402.79998779296875</ele>
        <time>2019-07-26T14:32:16.000Z</time>
      </trkpt>
      <trkpt lat="42.922988198697566986083984375" lon="-8.29256750643253326416015625">
        <ele>403</ele>
        <time>2019-07-26T14:32:17.000Z</time>
      </trkpt>
      <trkpt lat="42.92282567359507083892822265625" lon="-8.29280798323452472686767578125">
        <ele>403.600006103515625</ele>
        <time>2019-07-26T14:32:22.000Z</time>
      </trkpt>
      <trkpt lat="42.9227493144571781158447265625" lon="-8.292991630733013153076171875">
        <ele>404</ele>
        <time>2019-07-26T14:32:26.000Z</time>
      </trkpt>
      <trkpt lat="42.9227305389940738677978515625" lon="-8.29305675812065601348876953125">
        <ele>404.20001220703125</ele>
        <time>2019-07-26T14:32:27.000Z</time>
      </trkpt>
      <trkpt lat="42.9226098395884037017822265625" lon="-8.29340980388224124908447265625">
        <ele>405</ele>
        <time>2019-07-26T14:32:34.000Z</time>
      </trkpt>
      <trkpt lat="42.9225917346775531768798828125" lon="-8.29345263540744781494140625">
        <ele>405.20001220703125</ele>
        <time>2019-07-26T14:32:35.000Z</time>
      </trkpt>
      <trkpt lat="42.92250816710293292999267578125" lon="-8.293644748628139495849609375">
        <ele>406.20001220703125</ele>
        <time>2019-07-26T14:32:39.000Z</time>
      </trkpt>
      <trkpt lat="42.92249341495335102081298828125" lon="-8.29369361512362957000732421875">
        <ele>406.399993896484375</ele>
        <time>2019-07-26T14:32:40.000Z</time>
      </trkpt>
      <trkpt lat="42.9223640821874141693115234375" lon="-8.29392009414732456207275390625">
        <ele>407.20001220703125</ele>
        <time>2019-07-26T14:32:45.000Z</time>
      </trkpt>
      <trkpt lat="42.92234572581946849822998046875" lon="-8.29396317712962627410888671875">
        <ele>407.399993896484375</ele>
        <time>2019-07-26T14:32:46.000Z</time>
      </trkpt>
      <trkpt lat="42.9222742281854152679443359375" lon="-8.29415830783545970916748046875">
        <ele>407.600006103515625</ele>
        <time>2019-07-26T14:32:50.000Z</time>
      </trkpt>
      <trkpt lat="42.92218747548758983612060546875" lon="-8.2943811826407909393310546875">
        <ele>408</ele>
        <time>2019-07-26T14:32:54.000Z</time>
      </trkpt>
      <trkpt lat="42.9221260361373424530029296875" lon="-8.2945074141025543212890625">
        <ele>408</ele>
        <time>2019-07-26T14:32:56.000Z</time>
      </trkpt>
      <trkpt lat="42.9220237769186496734619140625" lon="-8.2946986891329288482666015625">
        <ele>408</ele>
        <time>2019-07-26T14:32:59.000Z</time>
      </trkpt>
      <trkpt lat="42.92198337614536285400390625" lon="-8.29475828446447849273681640625">
        <ele>408</ele>
        <time>2019-07-26T14:33:00.000Z</time>
      </trkpt>
      <trkpt lat="42.92193953879177570343017578125" lon="-8.2948158681392669677734375">
        <ele>408</ele>
        <time>2019-07-26T14:33:01.000Z</time>
      </trkpt>
      <trkpt lat="42.92182437144219875335693359375" lon="-8.29501192085444927215576171875">
        <ele>407.79998779296875</ele>
        <time>2019-07-26T14:33:04.000Z</time>
      </trkpt>
      <trkpt lat="42.92176100425422191619873046875" lon="-8.2951653935015201568603515625">
        <ele>407.399993896484375</ele>
        <time>2019-07-26T14:33:06.000Z</time>
      </trkpt>
      <trkpt lat="42.9216251336038112640380859375" lon="-8.29555892385542392730712890625">
        <ele>407</ele>
        <time>2019-07-26T14:33:10.000Z</time>
      </trkpt>
      <trkpt lat="42.92158179916441440582275390625" lon="-8.2956553995609283447265625">
        <ele>406.79998779296875</ele>
        <time>2019-07-26T14:33:11.000Z</time>
      </trkpt>
      <trkpt lat="42.921495549380779266357421875" lon="-8.2958329282701015472412109375">
        <ele>406.399993896484375</ele>
        <time>2019-07-26T14:33:13.000Z</time>
      </trkpt>
      <trkpt lat="42.92145657353103160858154296875" lon="-8.29591951332986354827880859375">
        <ele>406</ele>
        <time>2019-07-26T14:33:14.000Z</time>
      </trkpt>
      <trkpt lat="42.9213780350983142852783203125" lon="-8.29606753773987293243408203125">
        <ele>405.399993896484375</ele>
        <time>2019-07-26T14:33:16.000Z</time>
      </trkpt>
      <trkpt lat="42.9212895222008228302001953125" lon="-8.29619393683969974517822265625">
        <ele>405</ele>
        <time>2019-07-26T14:33:18.000Z</time>
      </trkpt>
      <trkpt lat="42.92117376811802387237548828125" lon="-8.29631346277892589569091796875">
        <ele>404.20001220703125</ele>
        <time>2019-07-26T14:33:20.000Z</time>
      </trkpt>
      <trkpt lat="42.92111274786293506622314453125" lon="-8.29638428986072540283203125">
        <ele>404</ele>
        <time>2019-07-26T14:33:21.000Z</time>
      </trkpt>
      <trkpt lat="42.92099095880985260009765625" lon="-8.29653541557490825653076171875">
        <ele>402.600006103515625</ele>
        <time>2019-07-26T14:33:23.000Z</time>
      </trkpt>
      <trkpt lat="42.92084922082722187042236328125" lon="-8.29669768922030925750732421875">
        <ele>401.79998779296875</ele>
        <time>2019-07-26T14:33:25.000Z</time>
      </trkpt>
      <trkpt lat="42.92078367434442043304443359375" lon="-8.29678519628942012786865234375">
        <ele>401.399993896484375</ele>
        <time>2019-07-26T14:33:26.000Z</time>
      </trkpt>
      <trkpt lat="42.92072399519383907318115234375" lon="-8.29687639139592647552490234375">
        <ele>401.399993896484375</ele>
        <time>2019-07-26T14:33:27.000Z</time>
      </trkpt>
      <trkpt lat="42.9205619730055332183837890625" lon="-8.297173865139484405517578125">
        <ele>400.20001220703125</ele>
        <time>2019-07-26T14:33:30.000Z</time>
      </trkpt>
      <trkpt lat="42.92043750174343585968017578125" lon="-8.29749799333512783050537109375">
        <ele>399.399993896484375</ele>
        <time>2019-07-26T14:33:33.000Z</time>
      </trkpt>
      <trkpt lat="42.9204122722148895263671875" lon="-8.29762372188270092010498046875">
        <ele>399.20001220703125</ele>
        <time>2019-07-26T14:33:34.000Z</time>
      </trkpt>
      <trkpt lat="42.92038788087666034698486328125" lon="-8.29788825474679470062255859375">
        <ele>398.600006103515625</ele>
        <time>2019-07-26T14:33:36.000Z</time>
      </trkpt>
      <trkpt lat="42.92037229053676128387451171875" lon="-8.29811506904661655426025390625">
        <ele>397.79998779296875</ele>
        <time>2019-07-26T14:33:38.000Z</time>
      </trkpt>
      <trkpt lat="42.92034027166664600372314453125" lon="-8.29819335602223873138427734375">
        <ele>397.399993896484375</ele>
        <time>2019-07-26T14:33:39.000Z</time>
      </trkpt>
      <trkpt lat="42.92030607350170612335205078125" lon="-8.29835261218249797821044921875">
        <ele>395.79998779296875</ele>
        <time>2019-07-26T14:33:41.000Z</time>
      </trkpt>
      <trkpt lat="42.92030632495880126953125" lon="-8.29854858107864856719970703125">
        <ele>394.20001220703125</ele>
        <time>2019-07-26T14:33:43.000Z</time>
      </trkpt>
      <trkpt lat="42.920305319130420684814453125" lon="-8.29865972511470317840576171875">
        <ele>393.600006103515625</ele>
        <time>2019-07-26T14:33:44.000Z</time>
      </trkpt>
      <trkpt lat="42.920299284160137176513671875" lon="-8.2987632416188716888427734375">
        <ele>392.600006103515625</ele>
        <time>2019-07-26T14:33:45.000Z</time>
      </trkpt>
      <trkpt lat="42.92028327472507953643798828125" lon="-8.29886457882821559906005859375">
        <ele>391.20001220703125</ele>
        <time>2019-07-26T14:33:46.000Z</time>
      </trkpt>
      <trkpt lat="42.9202612303197383880615234375" lon="-8.29895024187862873077392578125">
        <ele>390.20001220703125</ele>
        <time>2019-07-26T14:33:47.000Z</time>
      </trkpt>
      <trkpt lat="42.92022895999252796173095703125" lon="-8.29902534373104572296142578125">
        <ele>388.600006103515625</ele>
        <time>2019-07-26T14:33:48.000Z</time>
      </trkpt>
      <trkpt lat="42.92019166052341461181640625" lon="-8.29908871091902256011962890625">
        <ele>387.20001220703125</ele>
        <time>2019-07-26T14:33:49.000Z</time>
      </trkpt>
      <trkpt lat="42.9200935922563076019287109375" lon="-8.29920488409698009490966796875">
        <ele>385.600006103515625</ele>
        <time>2019-07-26T14:33:51.000Z</time>
      </trkpt>
      <trkpt lat="42.92003869079053401947021484375" lon="-8.29925836063921451568603515625">
        <ele>384.79998779296875</ele>
        <time>2019-07-26T14:33:52.000Z</time>
      </trkpt>
      <trkpt lat="42.91998018510639667510986328125" lon="-8.299303539097309112548828125">
        <ele>383.79998779296875</ele>
        <time>2019-07-26T14:33:53.000Z</time>
      </trkpt>
      <trkpt lat="42.91986568830907344818115234375" lon="-8.29940085299313068389892578125">
        <ele>382.20001220703125</ele>
        <time>2019-07-26T14:33:55.000Z</time>
      </trkpt>
      <trkpt lat="42.91981020011007785797119140625" lon="-8.29944611527025699615478515625">
        <ele>381.79998779296875</ele>
        <time>2019-07-26T14:33:56.000Z</time>
      </trkpt>
      <trkpt lat="42.91959780268371105194091796875" lon="-8.29963236115872859954833984375">
        <ele>381.399993896484375</ele>
        <time>2019-07-26T14:34:00.000Z</time>
      </trkpt>
      <trkpt lat="42.919500656425952911376953125" lon="-8.299736045300960540771484375">
        <ele>381.399993896484375</ele>
        <time>2019-07-26T14:34:02.000Z</time>
      </trkpt>
      <trkpt lat="42.91934886015951633453369140625" lon="-8.2999826408922672271728515625">
        <ele>381.399993896484375</ele>
        <time>2019-07-26T14:34:06.000Z</time>
      </trkpt>
      <trkpt lat="42.91925825178623199462890625" lon="-8.3002039231359958648681640625">
        <ele>381.399993896484375</ele>
        <time>2019-07-26T14:34:09.000Z</time>
      </trkpt>
      <trkpt lat="42.91921625845134258270263671875" lon="-8.300363011658191680908203125">
        <ele>381.600006103515625</ele>
        <time>2019-07-26T14:34:11.000Z</time>
      </trkpt>
      <trkpt lat="42.91916110552847385406494140625" lon="-8.3006052486598491668701171875">
        <ele>381.600006103515625</ele>
        <time>2019-07-26T14:34:14.000Z</time>
      </trkpt>
      <trkpt lat="42.91913445107638835906982421875" lon="-8.30066752620041370391845703125">
        <ele>381.79998779296875</ele>
        <time>2019-07-26T14:34:15.000Z</time>
      </trkpt>
      <trkpt lat="42.91911534033715724945068359375" lon="-8.300729803740978240966796875">
        <ele>381.79998779296875</ele>
        <time>2019-07-26T14:34:16.000Z</time>
      </trkpt>
      <trkpt lat="42.9191092215478420257568359375" lon="-8.300838433206081390380859375">
        <ele>382</ele>
        <time>2019-07-26T14:34:18.000Z</time>
      </trkpt>
      <trkpt lat="42.919105701148509979248046875" lon="-8.3009894751012325286865234375">
        <ele>382.79998779296875</ele>
        <time>2019-07-26T14:34:21.000Z</time>
      </trkpt>
      <trkpt lat="42.91908969171345233917236328125" lon="-8.3010515011847019195556640625">
        <ele>383.20001220703125</ele>
        <time>2019-07-26T14:34:22.000Z</time>
      </trkpt>
      <trkpt lat="42.9190733470022678375244140625" lon="-8.30111780203878879547119140625">
        <ele>383.399993896484375</ele>
        <time>2019-07-26T14:34:23.000Z</time>
      </trkpt>
      <trkpt lat="42.91905582882463932037353515625" lon="-8.30132885836064815521240234375">
        <ele>383.79998779296875</ele>
        <time>2019-07-26T14:34:26.000Z</time>
      </trkpt>
      <trkpt lat="42.91906823404133319854736328125" lon="-8.3015406690537929534912109375">
        <ele>384.399993896484375</ele>
        <time>2019-07-26T14:34:29.000Z</time>
      </trkpt>
      <trkpt lat="42.9190711677074432373046875" lon="-8.30160629935562610626220703125">
        <ele>384.600006103515625</ele>
        <time>2019-07-26T14:34:30.000Z</time>
      </trkpt>
      <trkpt lat="42.9190765321254730224609375" lon="-8.30166916362941265106201171875">
        <ele>384.79998779296875</ele>
        <time>2019-07-26T14:34:31.000Z</time>
      </trkpt>
      <trkpt lat="42.919084914028644561767578125" lon="-8.30172783695161342620849609375">
        <ele>384.79998779296875</ele>
        <time>2019-07-26T14:34:32.000Z</time>
      </trkpt>
      <trkpt lat="42.91912372224032878875732421875" lon="-8.302031345665454864501953125">
        <ele>385.399993896484375</ele>
        <time>2019-07-26T14:34:37.000Z</time>
      </trkpt>
      <trkpt lat="42.91913093067705631256103515625" lon="-8.3020885102450847625732421875">
        <ele>385.399993896484375</ele>
        <time>2019-07-26T14:34:38.000Z</time>
      </trkpt>
      <trkpt lat="42.91916613467037677764892578125" lon="-8.30233518965542316436767578125">
        <ele>385.600006103515625</ele>
        <time>2019-07-26T14:34:42.000Z</time>
      </trkpt>
      <trkpt lat="42.91918558068573474884033203125" lon="-8.30247080884873867034912109375">
        <ele>386</ele>
        <time>2019-07-26T14:34:44.000Z</time>
      </trkpt>
      <trkpt lat="42.919241152703762054443359375" lon="-8.3029260300099849700927734375">
        <ele>386.79998779296875</ele>
        <time>2019-07-26T14:34:52.000Z</time>
      </trkpt>
      <trkpt lat="42.91924609802663326263427734375" lon="-8.302983529865741729736328125">
        <ele>387</ele>
        <time>2019-07-26T14:34:53.000Z</time>
      </trkpt>
      <trkpt lat="42.91932438500225543975830078125" lon="-8.30335945822298526763916015625">
        <ele>387.79998779296875</ele>
        <time>2019-07-26T14:35:00.000Z</time>
      </trkpt>
      <trkpt lat="42.919343747198581695556640625" lon="-8.303466998040676116943359375">
        <ele>388</ele>
        <time>2019-07-26T14:35:02.000Z</time>
      </trkpt>
      <trkpt lat="42.919335030019283294677734375" lon="-8.3037370629608631134033203125">
        <ele>388.79998779296875</ele>
        <time>2019-07-26T14:35:07.000Z</time>
      </trkpt>
      <trkpt lat="42.91928767226636409759521484375" lon="-8.30389824695885181427001953125">
        <ele>389</ele>
        <time>2019-07-26T14:35:10.000Z</time>
      </trkpt>
      <trkpt lat="42.9192698188126087188720703125" lon="-8.304021544754505157470703125">
        <ele>389.399993896484375</ele>
        <time>2019-07-26T14:35:12.000Z</time>
      </trkpt>
      <trkpt lat="42.91925850324332714080810546875" lon="-8.30408516339957714080810546875">
        <ele>389.399993896484375</ele>
        <time>2019-07-26T14:35:13.000Z</time>
      </trkpt>
      <trkpt lat="42.91920460760593414306640625" lon="-8.30443368293344974517822265625">
        <ele>389.399993896484375</ele>
        <time>2019-07-26T14:35:18.000Z</time>
      </trkpt>
      <trkpt lat="42.91919044218957424163818359375" lon="-8.3045081980526447296142578125">
        <ele>389.399993896484375</ele>
        <time>2019-07-26T14:35:19.000Z</time>
      </trkpt>
      <trkpt lat="42.91917216964066028594970703125" lon="-8.30465890467166900634765625">
        <ele>389.399993896484375</ele>
        <time>2019-07-26T14:35:21.000Z</time>
      </trkpt>
      <trkpt lat="42.91913478635251522064208984375" lon="-8.30488664098083972930908203125">
        <ele>389.20001220703125</ele>
        <time>2019-07-26T14:35:24.000Z</time>
      </trkpt>
      <trkpt lat="42.91913093067705631256103515625" lon="-8.30496258102357387542724609375">
        <ele>389.20001220703125</ele>
        <time>2019-07-26T14:35:25.000Z</time>
      </trkpt>
      <trkpt lat="42.91911701671779155731201171875" lon="-8.30508043058216571807861328125">
        <ele>388.79998779296875</ele>
        <time>2019-07-26T14:35:27.000Z</time>
      </trkpt>
      <trkpt lat="42.9190948046743869781494140625" lon="-8.30512250773608684539794921875">
        <ele>388.79998779296875</ele>
        <time>2019-07-26T14:35:28.000Z</time>
      </trkpt>
      <trkpt lat="42.91902414523065090179443359375" lon="-8.30518755130469799041748046875">
        <ele>388.399993896484375</ele>
        <time>2019-07-26T14:35:30.000Z</time>
      </trkpt>
      <trkpt lat="42.91893714107573032379150390625" lon="-8.3052360825240612030029296875">
        <ele>387.79998779296875</ele>
        <time>2019-07-26T14:35:32.000Z</time>
      </trkpt>
      <trkpt lat="42.91889087297022342681884765625" lon="-8.3052511699497699737548828125">
        <ele>387.600006103515625</ele>
        <time>2019-07-26T14:35:33.000Z</time>
      </trkpt>
      <trkpt lat="42.91885323822498321533203125" lon="-8.30526449717581272125244140625">
        <ele>387</ele>
        <time>2019-07-26T14:35:34.000Z</time>
      </trkpt>
      <trkpt lat="42.91883169673383235931396484375" lon="-8.30529718659818172454833984375">
        <ele>386.79998779296875</ele>
        <time>2019-07-26T14:35:35.000Z</time>
      </trkpt>
      <trkpt lat="42.918827421963214874267578125" lon="-8.30535351298749446868896484375">
        <ele>386.399993896484375</ele>
        <time>2019-07-26T14:35:36.000Z</time>
      </trkpt>
      <trkpt lat="42.91887871921062469482421875" lon="-8.30555786378681659698486328125">
        <ele>385.79998779296875</ele>
        <time>2019-07-26T14:35:39.000Z</time>
      </trkpt>
      <trkpt lat="42.918922640383243560791015625" lon="-8.3056025393307209014892578125">
        <ele>385.600006103515625</ele>
        <time>2019-07-26T14:35:40.000Z</time>
      </trkpt>
      <trkpt lat="42.9189989157021045684814453125" lon="-8.30571829341351985931396484375">
        <ele>385.399993896484375</ele>
        <time>2019-07-26T14:35:42.000Z</time>
      </trkpt>
      <trkpt lat="42.919018529355525970458984375" lon="-8.30598399974405765533447265625">
        <ele>384.399993896484375</ele>
        <time>2019-07-26T14:35:45.000Z</time>
      </trkpt>
      <trkpt lat="42.9190160147845745086669921875" lon="-8.3061765320599079132080078125">
        <ele>383.79998779296875</ele>
        <time>2019-07-26T14:35:47.000Z</time>
      </trkpt>
      <trkpt lat="42.91902246885001659393310546875" lon="-8.3062911964952945709228515625">
        <ele>383.399993896484375</ele>
        <time>2019-07-26T14:35:48.000Z</time>
      </trkpt>
      <trkpt lat="42.91903437115252017974853515625" lon="-8.3065116405487060546875">
        <ele>382.600006103515625</ele>
        <time>2019-07-26T14:35:50.000Z</time>
      </trkpt>
      <trkpt lat="42.91903537698090076446533203125" lon="-8.30662320367991924285888671875">
        <ele>382.20001220703125</ele>
        <time>2019-07-26T14:35:51.000Z</time>
      </trkpt>
      <trkpt lat="42.91902917437255382537841796875" lon="-8.30673568882048130035400390625">
        <ele>382</ele>
        <time>2019-07-26T14:35:52.000Z</time>
      </trkpt>
      <trkpt lat="42.91898458264768123626708984375" lon="-8.306948840618133544921875">
        <ele>381.20001220703125</ele>
        <time>2019-07-26T14:35:54.000Z</time>
      </trkpt>
      <trkpt lat="42.91890629567205905914306640625" lon="-8.30712854862213134765625">
        <ele>379.399993896484375</ele>
        <time>2019-07-26T14:35:56.000Z</time>
      </trkpt>
      <trkpt lat="42.91882373392581939697265625" lon="-8.30729710869491100311279296875">
        <ele>378.600006103515625</ele>
        <time>2019-07-26T14:35:58.000Z</time>
      </trkpt>
      <trkpt lat="42.918779812753200531005859375" lon="-8.30737388692796230316162109375">
        <ele>378</ele>
        <time>2019-07-26T14:35:59.000Z</time>
      </trkpt>
      <trkpt lat="42.9186515696346759796142578125" lon="-8.30758058466017246246337890625">
        <ele>376.79998779296875</ele>
        <time>2019-07-26T14:36:02.000Z</time>
      </trkpt>
      <trkpt lat="42.9186146892607212066650390625" lon="-8.30764512531459331512451171875">
        <ele>376.399993896484375</ele>
        <time>2019-07-26T14:36:03.000Z</time>
      </trkpt>
      <trkpt lat="42.91858476586639881134033203125" lon="-8.3077146112918853759765625">
        <ele>376.20001220703125</ele>
        <time>2019-07-26T14:36:04.000Z</time>
      </trkpt>
      <trkpt lat="42.9185211472213268280029296875" lon="-8.30793061293661594390869140625">
        <ele>376</ele>
        <time>2019-07-26T14:36:07.000Z</time>
      </trkpt>
      <trkpt lat="42.91846423409879207611083984375" lon="-8.30823604948818683624267578125">
        <ele>376</ele>
        <time>2019-07-26T14:36:11.000Z</time>
      </trkpt>
      <trkpt lat="42.9184614680707454681396484375" lon="-8.30839279107749462127685546875">
        <ele>376</ele>
        <time>2019-07-26T14:36:13.000Z</time>
      </trkpt>
      <trkpt lat="42.91847680695354938507080078125" lon="-8.3085412345826625823974609375">
        <ele>376</ele>
        <time>2019-07-26T14:36:15.000Z</time>
      </trkpt>
      <trkpt lat="42.91849943809211254119873046875" lon="-8.30869303084909915924072265625">
        <ele>376</ele>
        <time>2019-07-26T14:36:17.000Z</time>
      </trkpt>
      <trkpt lat="42.91847580112516880035400390625" lon="-8.308922611176967620849609375">
        <ele>376.20001220703125</ele>
        <time>2019-07-26T14:36:20.000Z</time>
      </trkpt>
      <trkpt lat="42.9184346459805965423583984375" lon="-8.309046328067779541015625">
        <ele>376.20001220703125</ele>
        <time>2019-07-26T14:36:22.000Z</time>
      </trkpt>
      <trkpt lat="42.91841645725071430206298828125" lon="-8.30910868942737579345703125">
        <ele>376.20001220703125</ele>
        <time>2019-07-26T14:36:23.000Z</time>
      </trkpt>
      <trkpt lat="42.9184051416814327239990234375" lon="-8.3092354238033294677734375">
        <ele>376.399993896484375</ele>
        <time>2019-07-26T14:36:25.000Z</time>
      </trkpt>
      <trkpt lat="42.91840606369078159332275390625" lon="-8.3093640021979808807373046875">
        <ele>376.399993896484375</ele>
        <time>2019-07-26T14:36:27.000Z</time>
      </trkpt>
      <trkpt lat="42.918412350118160247802734375" lon="-8.3094883896410465240478515625">
        <ele>376.399993896484375</ele>
        <time>2019-07-26T14:36:29.000Z</time>
      </trkpt>
      <trkpt lat="42.9184235818684101104736328125" lon="-8.309609591960906982421875">
        <ele>376.79998779296875</ele>
        <time>2019-07-26T14:36:31.000Z</time>
      </trkpt>
      <trkpt lat="42.9184286110103130340576171875" lon="-8.3097901381552219390869140625">
        <ele>377.399993896484375</ele>
        <time>2019-07-26T14:36:34.000Z</time>
      </trkpt>
      <trkpt lat="42.91843950748443603515625" lon="-8.30996959470212459564208984375">
        <ele>377.79998779296875</ele>
        <time>2019-07-26T14:36:37.000Z</time>
      </trkpt>
      <trkpt lat="42.918443866074085235595703125" lon="-8.3100818283855915069580078125">
        <ele>377.79998779296875</ele>
        <time>2019-07-26T14:36:39.000Z</time>
      </trkpt>
      <trkpt lat="42.91843347251415252685546875" lon="-8.31019707955420017242431640625">
        <ele>378</ele>
        <time>2019-07-26T14:36:41.000Z</time>
      </trkpt>
      <trkpt lat="42.9184205643832683563232421875" lon="-8.3103829063475131988525390625">
        <ele>378</ele>
        <time>2019-07-26T14:36:44.000Z</time>
      </trkpt>
      <trkpt lat="42.9183974303305149078369140625" lon="-8.31055968068540096282958984375">
        <ele>378.600006103515625</ele>
        <time>2019-07-26T14:36:47.000Z</time>
      </trkpt>
      <trkpt lat="42.91838251054286956787109375" lon="-8.31061466597020626068115234375">
        <ele>379</ele>
        <time>2019-07-26T14:36:48.000Z</time>
      </trkpt>
      <trkpt lat="42.9183303751051425933837890625" lon="-8.3106918632984161376953125">
        <ele>379.399993896484375</ele>
        <time>2019-07-26T14:36:50.000Z</time>
      </trkpt>
      <trkpt lat="42.918191738426685333251953125" lon="-8.310682475566864013671875">
        <ele>379.79998779296875</ele>
        <time>2019-07-26T14:36:53.000Z</time>
      </trkpt>
      <trkpt lat="42.91809056885540485382080078125" lon="-8.31065724603831768035888671875">
        <ele>380</ele>
        <time>2019-07-26T14:36:55.000Z</time>
      </trkpt>
      <trkpt lat="42.91787691414356231689453125" lon="-8.31059932708740234375">
        <ele>380.399993896484375</ele>
        <time>2019-07-26T14:36:59.000Z</time>
      </trkpt>
      <trkpt lat="42.91776828467845916748046875" lon="-8.3105673082172870635986328125">
        <ele>380.399993896484375</ele>
        <time>2019-07-26T14:37:01.000Z</time>
      </trkpt>
      <trkpt lat="42.91761045344173908233642578125" lon="-8.3104928769171237945556640625">
        <ele>380.600006103515625</ele>
        <time>2019-07-26T14:37:04.000Z</time>
      </trkpt>
      <trkpt lat="42.91756502352654933929443359375" lon="-8.31047569401562213897705078125">
        <ele>380.399993896484375</ele>
        <time>2019-07-26T14:37:05.000Z</time>
      </trkpt>
      <trkpt lat="42.91752420365810394287109375" lon="-8.310470916330814361572265625">
        <ele>380.399993896484375</ele>
        <time>2019-07-26T14:37:06.000Z</time>
      </trkpt>
      <trkpt lat="42.9174640215933322906494140625" lon="-8.3105324395000934600830078125">
        <ele>380</ele>
        <time>2019-07-26T14:37:09.000Z</time>
      </trkpt>
      <trkpt lat="42.917456813156604766845703125" lon="-8.3106149174273014068603515625">
        <ele>379.79998779296875</ele>
        <time>2019-07-26T14:37:11.000Z</time>
      </trkpt>
      <trkpt lat="42.91744851507246494293212890625" lon="-8.3107161708176136016845703125">
        <ele>379.79998779296875</ele>
        <time>2019-07-26T14:37:13.000Z</time>
      </trkpt>
      <trkpt lat="42.9174087010324001312255859375" lon="-8.31117331981658935546875">
        <ele>379.79998779296875</ele>
        <time>2019-07-26T14:37:21.000Z</time>
      </trkpt>
      <trkpt lat="42.91739009320735931396484375" lon="-8.31135428510606288909912109375">
        <ele>380.399993896484375</ele>
        <time>2019-07-26T14:37:24.000Z</time>
      </trkpt>
      <trkpt lat="42.91737274266779422760009765625" lon="-8.3115942589938640594482421875">
        <ele>381</ele>
        <time>2019-07-26T14:37:28.000Z</time>
      </trkpt>
      <trkpt lat="42.91736670769751071929931640625" lon="-8.3116556145250797271728515625">
        <ele>381.20001220703125</ele>
        <time>2019-07-26T14:37:29.000Z</time>
      </trkpt>
      <trkpt lat="42.91736067272722721099853515625" lon="-8.311717472970485687255859375">
        <ele>381.399993896484375</ele>
        <time>2019-07-26T14:37:30.000Z</time>
      </trkpt>
      <trkpt lat="42.9173369519412517547607421875" lon="-8.311958871781826019287109375">
        <ele>382.600006103515625</ele>
        <time>2019-07-26T14:37:34.000Z</time>
      </trkpt>
      <trkpt lat="42.91730535216629505157470703125" lon="-8.312254585325717926025390625">
        <ele>383.399993896484375</ele>
        <time>2019-07-26T14:37:39.000Z</time>
      </trkpt>
      <trkpt lat="42.9173009097576141357421875" lon="-8.31231351010501384735107421875">
        <ele>383.600006103515625</ele>
        <time>2019-07-26T14:37:40.000Z</time>
      </trkpt>
      <trkpt lat="42.9172729142010211944580078125" lon="-8.312675692141056060791015625">
        <ele>384.399993896484375</ele>
        <time>2019-07-26T14:37:46.000Z</time>
      </trkpt>
      <trkpt lat="42.91726746596395969390869140625" lon="-8.31273444928228855133056640625">
        <ele>384.600006103515625</ele>
        <time>2019-07-26T14:37:47.000Z</time>
      </trkpt>
      <trkpt lat="42.9172204434871673583984375" lon="-8.31320852972567081451416015625">
        <ele>385.399993896484375</ele>
        <time>2019-07-26T14:37:55.000Z</time>
      </trkpt>
      <trkpt lat="42.9171837307512760162353515625" lon="-8.31353031098842620849609375">
        <ele>385.79998779296875</ele>
        <time>2019-07-26T14:38:00.000Z</time>
      </trkpt>
      <trkpt lat="42.91716855950653553009033203125" lon="-8.31371529959142208099365234375">
        <ele>386.399993896484375</ele>
        <time>2019-07-26T14:38:03.000Z</time>
      </trkpt>
      <trkpt lat="42.91713821701705455780029296875" lon="-8.31395099870860576629638671875">
        <ele>386.79998779296875</ele>
        <time>2019-07-26T14:38:07.000Z</time>
      </trkpt>
      <trkpt lat="42.9171133227646350860595703125" lon="-8.31419206224381923675537109375">
        <ele>387.399993896484375</ele>
        <time>2019-07-26T14:38:11.000Z</time>
      </trkpt>
      <trkpt lat="42.917106784880161285400390625" lon="-8.3142536692321300506591796875">
        <ele>387.600006103515625</ele>
        <time>2019-07-26T14:38:12.000Z</time>
      </trkpt>
      <trkpt lat="42.91706361807882785797119140625" lon="-8.31462800502777099609375">
        <ele>388.20001220703125</ele>
        <time>2019-07-26T14:38:18.000Z</time>
      </trkpt>
      <trkpt lat="42.91705741547048091888427734375" lon="-8.3146883547306060791015625">
        <ele>388.399993896484375</ele>
        <time>2019-07-26T14:38:19.000Z</time>
      </trkpt>
      <trkpt lat="42.91701651178300380706787109375" lon="-8.31509747542440891265869140625">
        <ele>388.79998779296875</ele>
        <time>2019-07-26T14:38:26.000Z</time>
      </trkpt>
      <trkpt lat="42.9169979877769947052001953125" lon="-8.3152051828801631927490234375">
        <ele>389.399993896484375</ele>
        <time>2019-07-26T14:38:28.000Z</time>
      </trkpt>
      <trkpt lat="42.91698432527482509613037109375" lon="-8.31525924615561962127685546875">
        <ele>389.600006103515625</ele>
        <time>2019-07-26T14:38:29.000Z</time>
      </trkpt>
      <trkpt lat="42.91692472994327545166015625" lon="-8.3154180832207202911376953125">
        <ele>390</ele>
        <time>2019-07-26T14:38:32.000Z</time>
      </trkpt>
      <trkpt lat="42.916899584233760833740234375" lon="-8.31547231413424015045166015625">
        <ele>390.20001220703125</ele>
        <time>2019-07-26T14:38:33.000Z</time>
      </trkpt>
      <trkpt lat="42.91680805385112762451171875" lon="-8.3156933449208736419677734375">
        <ele>390.399993896484375</ele>
        <time>2019-07-26T14:38:37.000Z</time>
      </trkpt>
      <trkpt lat="42.91679187677800655364990234375" lon="-8.315818570554256439208984375">
        <ele>390.399993896484375</ele>
        <time>2019-07-26T14:38:39.000Z</time>
      </trkpt>
      <trkpt lat="42.91675248183310031890869140625" lon="-8.31606457941234111785888671875">
        <ele>390.600006103515625</ele>
        <time>2019-07-26T14:38:43.000Z</time>
      </trkpt>
      <trkpt lat="42.9166627116501331329345703125" lon="-8.3166093192994594573974609375">
        <ele>391.20001220703125</ele>
        <time>2019-07-26T14:38:52.000Z</time>
      </trkpt>
      <trkpt lat="42.916653156280517578125" lon="-8.31672591157257556915283203125">
        <ele>391.399993896484375</ele>
        <time>2019-07-26T14:38:54.000Z</time>
      </trkpt>
      <trkpt lat="42.91664720512926578521728515625" lon="-8.31691567786037921905517578125">
        <ele>392</ele>
        <time>2019-07-26T14:38:57.000Z</time>
      </trkpt>
      <trkpt lat="42.916621305048465728759765625" lon="-8.31703419797122478485107421875">
        <ele>392</ele>
        <time>2019-07-26T14:38:59.000Z</time>
      </trkpt>
      <trkpt lat="42.91657327674329280853271484375" lon="-8.3172017522156238555908203125">
        <ele>392.399993896484375</ele>
        <time>2019-07-26T14:39:02.000Z</time>
      </trkpt>
      <trkpt lat="42.91654251515865325927734375" lon="-8.3173759281635284423828125">
        <ele>392.79998779296875</ele>
        <time>2019-07-26T14:39:05.000Z</time>
      </trkpt>
      <trkpt lat="42.91649289429187774658203125" lon="-8.31765898503363132476806640625">
        <ele>393.399993896484375</ele>
        <time>2019-07-26T14:39:10.000Z</time>
      </trkpt>
      <trkpt lat="42.9164555110037326812744140625" lon="-8.31789216957986354827880859375">
        <ele>394</ele>
        <time>2019-07-26T14:39:14.000Z</time>
      </trkpt>
      <trkpt lat="42.91641385294497013092041015625" lon="-8.31810909323394298553466796875">
        <ele>394.399993896484375</ele>
        <time>2019-07-26T14:39:18.000Z</time>
      </trkpt>
      <trkpt lat="42.9163901321589946746826171875" lon="-8.31825795583426952362060546875">
        <ele>395</ele>
        <time>2019-07-26T14:39:21.000Z</time>
      </trkpt>
      <trkpt lat="42.91638602502644062042236328125" lon="-8.3183034695684909820556640625">
        <ele>395.399993896484375</ele>
        <time>2019-07-26T14:39:22.000Z</time>
      </trkpt>
      <trkpt lat="42.916351072490215301513671875" lon="-8.31848443485796451568603515625">
        <ele>396.600006103515625</ele>
        <time>2019-07-26T14:39:26.000Z</time>
      </trkpt>
      <trkpt lat="42.9163076542317867279052734375" lon="-8.318624831736087799072265625">
        <ele>397.399993896484375</ele>
        <time>2019-07-26T14:39:29.000Z</time>
      </trkpt>
      <trkpt lat="42.9162737913429737091064453125" lon="-8.31871636211872100830078125">
        <ele>397.79998779296875</ele>
        <time>2019-07-26T14:39:31.000Z</time>
      </trkpt>
      <trkpt lat="42.9161889664828777313232421875" lon="-8.318942673504352569580078125">
        <ele>398.79998779296875</ele>
        <time>2019-07-26T14:39:36.000Z</time>
      </trkpt>
      <trkpt lat="42.91610129177570343017578125" lon="-8.31916806288063526153564453125">
        <ele>400</ele>
        <time>2019-07-26T14:39:41.000Z</time>
      </trkpt>
      <trkpt lat="42.91608192957937717437744140625" lon="-8.31921148113906383514404296875">
        <ele>400.20001220703125</ele>
        <time>2019-07-26T14:39:42.000Z</time>
      </trkpt>
      <trkpt lat="42.91605862788856029510498046875" lon="-8.31925540231168270111083984375">
        <ele>400.20001220703125</ele>
        <time>2019-07-26T14:39:43.000Z</time>
      </trkpt>
      <trkpt lat="42.91595913469791412353515625" lon="-8.31944047473371028900146484375">
        <ele>401</ele>
        <time>2019-07-26T14:39:47.000Z</time>
      </trkpt>
      <trkpt lat="42.91594094596803188323974609375" lon="-8.31948481500148773193359375">
        <ele>401.20001220703125</ele>
        <time>2019-07-26T14:39:48.000Z</time>
      </trkpt>
      <trkpt lat="42.91586550883948802947998046875" lon="-8.31967935897409915924072265625">
        <ele>402.20001220703125</ele>
        <time>2019-07-26T14:39:53.000Z</time>
      </trkpt>
      <trkpt lat="42.9158483259379863739013671875" lon="-8.319718502461910247802734375">
        <ele>402.20001220703125</ele>
        <time>2019-07-26T14:39:54.000Z</time>
      </trkpt>
      <trkpt lat="42.9157862998545169830322265625" lon="-8.319923691451549530029296875">
        <ele>403.399993896484375</ele>
        <time>2019-07-26T14:39:59.000Z</time>
      </trkpt>
      <trkpt lat="42.91570574976503849029541015625" lon="-8.32014069892466068267822265625">
        <ele>404.399993896484375</ele>
        <time>2019-07-26T14:40:05.000Z</time>
      </trkpt>
      <trkpt lat="42.91569753549993038177490234375" lon="-8.3201756514608860015869140625">
        <ele>404.600006103515625</ele>
        <time>2019-07-26T14:40:06.000Z</time>
      </trkpt>
      <trkpt lat="42.91566149331629276275634765625" lon="-8.32029023207724094390869140625">
        <ele>405.399993896484375</ele>
        <time>2019-07-26T14:40:09.000Z</time>
      </trkpt>
      <trkpt lat="42.91560617275536060333251953125" lon="-8.3204509131610393524169921875">
        <ele>405.79998779296875</ele>
        <time>2019-07-26T14:40:13.000Z</time>
      </trkpt>
      <trkpt lat="42.9155656881630420684814453125" lon="-8.3206121809780597686767578125">
        <ele>406.399993896484375</ele>
        <time>2019-07-26T14:40:17.000Z</time>
      </trkpt>
      <trkpt lat="42.91552939452230930328369140625" lon="-8.32077872939407825469970703125">
        <ele>407</ele>
        <time>2019-07-26T14:40:21.000Z</time>
      </trkpt>
      <trkpt lat="42.91551950387656688690185546875" lon="-8.3208170346915721893310546875">
        <ele>407.20001220703125</ele>
        <time>2019-07-26T14:40:22.000Z</time>
      </trkpt>
      <trkpt lat="42.91550290770828723907470703125" lon="-8.32089624367654323577880859375">
        <ele>407.399993896484375</ele>
        <time>2019-07-26T14:40:24.000Z</time>
      </trkpt>
      <trkpt lat="42.915454208850860595703125" lon="-8.32111501134932041168212890625">
        <ele>408.399993896484375</ele>
        <time>2019-07-26T14:40:29.000Z</time>
      </trkpt>
      <trkpt lat="42.91541104204952716827392578125" lon="-8.3213440887629985809326171875">
        <ele>408.600006103515625</ele>
        <time>2019-07-26T14:40:34.000Z</time>
      </trkpt>
      <trkpt lat="42.91538774035871028900146484375" lon="-8.32154265604913234710693359375">
        <ele>408.79998779296875</ele>
        <time>2019-07-26T14:40:38.000Z</time>
      </trkpt>
      <trkpt lat="42.91534356772899627685546875" lon="-8.321899473667144775390625">
        <ele>409.79998779296875</ele>
        <time>2019-07-26T14:40:45.000Z</time>
      </trkpt>
      <trkpt lat="42.91534147225320339202880859375" lon="-8.3219506032764911651611328125">
        <ele>410</ele>
        <time>2019-07-26T14:40:46.000Z</time>
      </trkpt>
      <trkpt lat="42.91534222662448883056640625" lon="-8.32231194712221622467041015625">
        <ele>410.399993896484375</ele>
        <time>2019-07-26T14:40:53.000Z</time>
      </trkpt>
      <trkpt lat="42.915405929088592529296875" lon="-8.32260430790483951568603515625">
        <ele>411</ele>
        <time>2019-07-26T14:40:59.000Z</time>
      </trkpt>
      <trkpt lat="42.9154315777122974395751953125" lon="-8.3227093331515789031982421875">
        <ele>411.399993896484375</ele>
        <time>2019-07-26T14:41:01.000Z</time>
      </trkpt>
      <trkpt lat="42.91543744504451751708984375" lon="-8.32288560457527637481689453125">
        <ele>411.600006103515625</ele>
        <time>2019-07-26T14:41:04.000Z</time>
      </trkpt>
      <trkpt lat="42.915445826947689056396484375" lon="-8.32311795093119144439697265625">
        <ele>411.79998779296875</ele>
        <time>2019-07-26T14:41:08.000Z</time>
      </trkpt>
      <trkpt lat="42.915457226336002349853515625" lon="-8.32322808913886547088623046875">
        <ele>412</ele>
        <time>2019-07-26T14:41:10.000Z</time>
      </trkpt>
      <trkpt lat="42.9154664464294910430908203125" lon="-8.3233379758894443511962890625">
        <ele>412.20001220703125</ele>
        <time>2019-07-26T14:41:12.000Z</time>
      </trkpt>
      <trkpt lat="42.91548765264451503753662109375" lon="-8.32355263642966747283935546875">
        <ele>413.399993896484375</ele>
        <time>2019-07-26T14:41:16.000Z</time>
      </trkpt>
      <trkpt lat="42.9155311547219753265380859375" lon="-8.32375086843967437744140625">
        <ele>414</ele>
        <time>2019-07-26T14:41:20.000Z</time>
      </trkpt>
      <trkpt lat="42.91557247750461101531982421875" lon="-8.32383326254785060882568359375">
        <ele>414.399993896484375</ele>
        <time>2019-07-26T14:41:23.000Z</time>
      </trkpt>
      <trkpt lat="42.91554716415703296661376953125" lon="-8.32380694337189197540283203125">
        <ele>414.399993896484375</ele>
        <time>2019-07-26T14:41:26.000Z</time>
      </trkpt>
      <trkpt lat="42.91560265235602855682373046875" lon="-8.32373536191880702972412109375">
        <ele>414.399993896484375</ele>
        <time>2019-07-26T14:41:29.000Z</time>
      </trkpt>
      <trkpt lat="42.91571999900043010711669921875" lon="-8.32363109104335308074951171875">
        <ele>414.600006103515625</ele>
        <time>2019-07-26T14:41:33.000Z</time>
      </trkpt>
      <trkpt lat="42.91582460515201091766357421875" lon="-8.32355079241096973419189453125">
        <ele>414.600006103515625</ele>
        <time>2019-07-26T14:41:36.000Z</time>
      </trkpt>
      <trkpt lat="42.91599978692829608917236328125" lon="-8.3234305121004581451416015625">
        <ele>414.79998779296875</ele>
        <time>2019-07-26T14:41:41.000Z</time>
      </trkpt>
      <trkpt lat="42.916147895157337188720703125" lon="-8.3234231360256671905517578125">
        <ele>415</ele>
        <time>2019-07-26T14:41:45.000Z</time>
      </trkpt>
      <trkpt lat="42.916304133832454681396484375" lon="-8.32342606969177722930908203125">
        <ele>415.399993896484375</ele>
        <time>2019-07-26T14:41:49.000Z</time>
      </trkpt>
      <trkpt lat="42.91640966199338436126708984375" lon="-8.3234202861785888671875">
        <ele>415.79998779296875</ele>
        <time>2019-07-26T14:41:52.000Z</time>
      </trkpt>
      <trkpt lat="42.9165393300354480743408203125" lon="-8.323422968387603759765625">
        <ele>416.399993896484375</ele>
        <time>2019-07-26T14:41:56.000Z</time>
      </trkpt>
      <trkpt lat="42.91655860841274261474609375" lon="-8.32344585098326206207275390625">
        <ele>416.600006103515625</ele>
        <time>2019-07-26T14:41:57.000Z</time>
      </trkpt>
      <trkpt lat="42.91656925342977046966552734375" lon="-8.32347636111080646514892578125">
        <ele>416.79998779296875</ele>
        <time>2019-07-26T14:41:58.000Z</time>
      </trkpt>
      <trkpt lat="42.91653941385447978973388671875" lon="-8.3236313425004482269287109375">
        <ele>417.20001220703125</ele>
        <time>2019-07-26T14:42:02.000Z</time>
      </trkpt>
      <trkpt lat="42.9165125079452991485595703125" lon="-8.32377559505403041839599609375">
        <ele>417.399993896484375</ele>
        <time>2019-07-26T14:42:05.000Z</time>
      </trkpt>
      <trkpt lat="42.91649398393929004669189453125" lon="-8.3238868229091167449951171875">
        <ele>417.399993896484375</ele>
        <time>2019-07-26T14:42:07.000Z</time>
      </trkpt>
      <trkpt lat="42.9164836741983890533447265625" lon="-8.32394474186003208160400390625">
        <ele>417.399993896484375</ele>
        <time>2019-07-26T14:42:08.000Z</time>
      </trkpt>
      <trkpt lat="42.91641913354396820068359375" lon="-8.32424514926970005035400390625">
        <ele>417.600006103515625</ele>
        <time>2019-07-26T14:42:13.000Z</time>
      </trkpt>
      <trkpt lat="42.9164119251072406768798828125" lon="-8.3243122883141040802001953125">
        <ele>417.600006103515625</ele>
        <time>2019-07-26T14:42:14.000Z</time>
      </trkpt>
      <trkpt lat="42.9163726978003978729248046875" lon="-8.32477002404630184173583984375">
        <ele>417.20001220703125</ele>
        <time>2019-07-26T14:42:20.000Z</time>
      </trkpt>
      <trkpt lat="42.9163924790918827056884765625" lon="-8.3252000994980335235595703125">
        <ele>416.600006103515625</ele>
        <time>2019-07-26T14:42:25.000Z</time>
      </trkpt>
      <trkpt lat="42.9164001904428005218505859375" lon="-8.32529255189001560211181640625">
        <ele>416.399993896484375</ele>
        <time>2019-07-26T14:42:26.000Z</time>
      </trkpt>
      <trkpt lat="42.9164353944361209869384765625" lon="-8.32556496374309062957763671875">
        <ele>415.399993896484375</ele>
        <time>2019-07-26T14:42:29.000Z</time>
      </trkpt>
      <trkpt lat="42.91645132005214691162109375" lon="-8.32566185854375362396240234375">
        <ele>415.20001220703125</ele>
        <time>2019-07-26T14:42:30.000Z</time>
      </trkpt>
      <trkpt lat="42.9164716042578220367431640625" lon="-8.3257579989731311798095703125">
        <ele>415</ele>
        <time>2019-07-26T14:42:31.000Z</time>
      </trkpt>
      <trkpt lat="42.91650823317468166351318359375" lon="-8.3259578235447406768798828125">
        <ele>414.600006103515625</ele>
        <time>2019-07-26T14:42:33.000Z</time>
      </trkpt>
      <trkpt lat="42.9165470413863658905029296875" lon="-8.326266445219516754150390625">
        <ele>414</ele>
        <time>2019-07-26T14:42:36.000Z</time>
      </trkpt>
      <trkpt lat="42.9165809042751789093017578125" lon="-8.3265680260956287384033203125">
        <ele>412.600006103515625</ele>
        <time>2019-07-26T14:42:39.000Z</time>
      </trkpt>
      <trkpt lat="42.91660554707050323486328125" lon="-8.32676977850496768951416015625">
        <ele>412</ele>
        <time>2019-07-26T14:42:41.000Z</time>
      </trkpt>
      <trkpt lat="42.9166249930858612060546875" lon="-8.32687555812299251556396484375">
        <ele>411.399993896484375</ele>
        <time>2019-07-26T14:42:42.000Z</time>
      </trkpt>
      <trkpt lat="42.91669967584311962127685546875" lon="-8.32719222642481327056884765625">
        <ele>410.79998779296875</ele>
        <time>2019-07-26T14:42:45.000Z</time>
      </trkpt>
      <trkpt lat="42.9167354665696620941162109375" lon="-8.32730236463248729705810546875">
        <ele>410.399993896484375</ele>
        <time>2019-07-26T14:42:46.000Z</time>
      </trkpt>
      <trkpt lat="42.91676823981106281280517578125" lon="-8.327412419021129608154296875">
        <ele>410.20001220703125</ele>
        <time>2019-07-26T14:42:47.000Z</time>
      </trkpt>
      <trkpt lat="42.91693151928484439849853515625" lon="-8.327882476150989532470703125">
        <ele>409</ele>
        <time>2019-07-26T14:42:51.000Z</time>
      </trkpt>
      <trkpt lat="42.91696605272591114044189453125" lon="-8.3279979787766933441162109375">
        <ele>408.600006103515625</ele>
        <time>2019-07-26T14:42:52.000Z</time>
      </trkpt>
      <trkpt lat="42.91702665388584136962890625" lon="-8.32825521938502788543701171875">
        <ele>408</ele>
        <time>2019-07-26T14:42:54.000Z</time>
      </trkpt>
      <trkpt lat="42.9170419089496135711669921875" lon="-8.32839050330221652984619140625">
        <ele>407.399993896484375</ele>
        <time>2019-07-26T14:42:55.000Z</time>
      </trkpt>
      <trkpt lat="42.9170630313456058502197265625" lon="-8.32852511666715145111083984375">
        <ele>406.79998779296875</ele>
        <time>2019-07-26T14:42:56.000Z</time>
      </trkpt>
      <trkpt lat="42.91717090643942356109619140625" lon="-8.3289156295359134674072265625">
        <ele>405</ele>
        <time>2019-07-26T14:42:59.000Z</time>
      </trkpt>
      <trkpt lat="42.91721281595528125762939453125" lon="-8.3290564455091953277587890625">
        <ele>404</ele>
        <time>2019-07-26T14:43:00.000Z</time>
      </trkpt>
      <trkpt lat="42.917248271405696868896484375" lon="-8.32920220680534839630126953125">
        <ele>402.79998779296875</ele>
        <time>2019-07-26T14:43:01.000Z</time>
      </trkpt>
      <trkpt lat="42.91730786673724651336669921875" lon="-8.3295023627579212188720703125">
        <ele>401.20001220703125</ele>
        <time>2019-07-26T14:43:03.000Z</time>
      </trkpt>
      <trkpt lat="42.9173372872173786163330078125" lon="-8.32964904606342315673828125">
        <ele>399.79998779296875</ele>
        <time>2019-07-26T14:43:04.000Z</time>
      </trkpt>
      <trkpt lat="42.917369306087493896484375" lon="-8.3297963999211788177490234375">
        <ele>398.600006103515625</ele>
        <time>2019-07-26T14:43:05.000Z</time>
      </trkpt>
      <trkpt lat="42.9173969663679599761962890625" lon="-8.329942412674427032470703125">
        <ele>397.600006103515625</ele>
        <time>2019-07-26T14:43:06.000Z</time>
      </trkpt>
      <trkpt lat="42.917421273887157440185546875" lon="-8.33008348010480403900146484375">
        <ele>396</ele>
        <time>2019-07-26T14:43:07.000Z</time>
      </trkpt>
      <trkpt lat="42.91744650341570377349853515625" lon="-8.33022111095488071441650390625">
        <ele>394.79998779296875</ele>
        <time>2019-07-26T14:43:08.000Z</time>
      </trkpt>
      <trkpt lat="42.91747516952455043792724609375" lon="-8.3303596638143062591552734375">
        <ele>393.600006103515625</ele>
        <time>2019-07-26T14:43:09.000Z</time>
      </trkpt>
      <trkpt lat="42.91749914176762104034423828125" lon="-8.33049855194985866546630859375">
        <ele>392.20001220703125</ele>
        <time>2019-07-26T14:43:10.000Z</time>
      </trkpt>
      <trkpt lat="42.9175193421542644500732421875" lon="-8.33062981255352497100830078125">
        <ele>391</ele>
        <time>2019-07-26T14:43:11.000Z</time>
      </trkpt>
      <trkpt lat="42.91755982674658298492431640625" lon="-8.33086534403264522552490234375">
        <ele>389.20001220703125</ele>
        <time>2019-07-26T14:43:13.000Z</time>
      </trkpt>
      <trkpt lat="42.9175773449242115020751953125" lon="-8.33097942173480987548828125">
        <ele>388.600006103515625</ele>
        <time>2019-07-26T14:43:14.000Z</time>
      </trkpt>
      <trkpt lat="42.91759368963539600372314453125" lon="-8.33109517581760883331298828125">
        <ele>388</ele>
        <time>2019-07-26T14:43:15.000Z</time>
      </trkpt>
      <trkpt lat="42.9176242835819721221923828125" lon="-8.3313279412686824798583984375">
        <ele>386.20001220703125</ele>
        <time>2019-07-26T14:43:17.000Z</time>
      </trkpt>
      <trkpt lat="42.91764532215893268585205078125" lon="-8.331569842994213104248046875">
        <ele>384</ele>
        <time>2019-07-26T14:43:19.000Z</time>
      </trkpt>
      <trkpt lat="42.91765638627111911773681640625" lon="-8.33168945275247097015380859375">
        <ele>382.79998779296875</ele>
        <time>2019-07-26T14:43:20.000Z</time>
      </trkpt>
      <trkpt lat="42.9176779277622699737548828125" lon="-8.33189983852207660675048828125">
        <ele>381.20001220703125</ele>
        <time>2019-07-26T14:43:22.000Z</time>
      </trkpt>
      <trkpt lat="42.91768245398998260498046875" lon="-8.3319644629955291748046875">
        <ele>380.79998779296875</ele>
        <time>2019-07-26T14:43:23.000Z</time>
      </trkpt>
      <trkpt lat="42.9176930151879787445068359375" lon="-8.33205389790236949920654296875">
        <ele>380</ele>
        <time>2019-07-26T14:43:25.000Z</time>
      </trkpt>
      <trkpt lat="42.91769728995859622955322265625" lon="-8.3321393094956874847412109375">
        <ele>379.399993896484375</ele>
        <time>2019-07-26T14:43:27.000Z</time>
      </trkpt>
      <trkpt lat="42.917702235281467437744140625" lon="-8.3322487771511077880859375">
        <ele>379.20001220703125</ele>
        <time>2019-07-26T14:43:29.000Z</time>
      </trkpt>
      <trkpt lat="42.91771405376493930816650390625" lon="-8.332386910915374755859375">
        <ele>378.600006103515625</ele>
        <time>2019-07-26T14:43:31.000Z</time>
      </trkpt>
      <trkpt lat="42.91772210039198398590087890625" lon="-8.33246142603456974029541015625">
        <ele>378.399993896484375</ele>
        <time>2019-07-26T14:43:32.000Z</time>
      </trkpt>
      <trkpt lat="42.91778597049415111541748046875" lon="-8.33293802104890346527099609375">
        <ele>377.600006103515625</ele>
        <time>2019-07-26T14:43:38.000Z</time>
      </trkpt>
      <trkpt lat="42.91779586113989353179931640625" lon="-8.3330220915377140045166015625">
        <ele>377.600006103515625</ele>
        <time>2019-07-26T14:43:39.000Z</time>
      </trkpt>
      <trkpt lat="42.9178516007959842681884765625" lon="-8.333308584988117218017578125">
        <ele>377.600006103515625</ele>
        <time>2019-07-26T14:43:42.000Z</time>
      </trkpt>
      <trkpt lat="42.91786593385040760040283203125" lon="-8.3334048092365264892578125">
        <ele>377.600006103515625</ele>
        <time>2019-07-26T14:43:43.000Z</time>
      </trkpt>
      <trkpt lat="42.91794254444539546966552734375" lon="-8.33373329602181911468505859375">
        <ele>377.399993896484375</ele>
        <time>2019-07-26T14:43:47.000Z</time>
      </trkpt>
      <trkpt lat="42.9179733060300350189208984375" lon="-8.33380973897874355316162109375">
        <ele>376.79998779296875</ele>
        <time>2019-07-26T14:43:48.000Z</time>
      </trkpt>
      <trkpt lat="42.91809417307376861572265625" lon="-8.33413244225084781646728515625">
        <ele>375.600006103515625</ele>
        <time>2019-07-26T14:43:52.000Z</time>
      </trkpt>
      <trkpt lat="42.91814387775957584381103515625" lon="-8.33430293016135692596435546875">
        <ele>375.399993896484375</ele>
        <time>2019-07-26T14:43:54.000Z</time>
      </trkpt>
      <trkpt lat="42.91815720498561859130859375" lon="-8.33438993431627750396728515625">
        <ele>375.20001220703125</ele>
        <time>2019-07-26T14:43:55.000Z</time>
      </trkpt>
      <trkpt lat="42.91818478144705295562744140625" lon="-8.33457584492862224578857421875">
        <ele>374.600006103515625</ele>
        <time>2019-07-26T14:43:57.000Z</time>
      </trkpt>
      <trkpt lat="42.91823021136224269866943359375" lon="-8.33495571278035640716552734375">
        <ele>373.79998779296875</ele>
        <time>2019-07-26T14:44:01.000Z</time>
      </trkpt>
      <trkpt lat="42.91824295185506343841552734375" lon="-8.33505327813327312469482421875">
        <ele>373.20001220703125</ele>
        <time>2019-07-26T14:44:02.000Z</time>
      </trkpt>
      <trkpt lat="42.91831067763268947601318359375" lon="-8.33555736579000949859619140625">
        <ele>372.20001220703125</ele>
        <time>2019-07-26T14:44:07.000Z</time>
      </trkpt>
      <trkpt lat="42.91832257993519306182861328125" lon="-8.33565878681838512420654296875">
        <ele>372</ele>
        <time>2019-07-26T14:44:08.000Z</time>
      </trkpt>
      <trkpt lat="42.9183266870677471160888671875" lon="-8.33576406352221965789794921875">
        <ele>372</ele>
        <time>2019-07-26T14:44:09.000Z</time>
      </trkpt>
      <trkpt lat="42.9183471389114856719970703125" lon="-8.336063884198665618896484375">
        <ele>371.399993896484375</ele>
        <time>2019-07-26T14:44:12.000Z</time>
      </trkpt>
      <trkpt lat="42.918352670967578887939453125" lon="-8.336159102618694305419921875">
        <ele>370.79998779296875</ele>
        <time>2019-07-26T14:44:13.000Z</time>
      </trkpt>
      <trkpt lat="42.91837689466774463653564453125" lon="-8.3364625275135040283203125">
        <ele>369.600006103515625</ele>
        <time>2019-07-26T14:44:16.000Z</time>
      </trkpt>
      <trkpt lat="42.91840421967208385467529296875" lon="-8.3367996476590633392333984375">
        <ele>368.399993896484375</ele>
        <time>2019-07-26T14:44:19.000Z</time>
      </trkpt>
      <trkpt lat="42.91841930709779262542724609375" lon="-8.33691422827541828155517578125">
        <ele>368</ele>
        <time>2019-07-26T14:44:20.000Z</time>
      </trkpt>
      <trkpt lat="42.91845518164336681365966796875" lon="-8.33714607171714305877685546875">
        <ele>367.20001220703125</ele>
        <time>2019-07-26T14:44:22.000Z</time>
      </trkpt>
      <trkpt lat="42.91846741922199726104736328125" lon="-8.33726710639894008636474609375">
        <ele>367</ele>
        <time>2019-07-26T14:44:23.000Z</time>
      </trkpt>
      <trkpt lat="42.9184966720640659332275390625" lon="-8.3376401849091053009033203125">
        <ele>366</ele>
        <time>2019-07-26T14:44:26.000Z</time>
      </trkpt>
      <trkpt lat="42.91851385496556758880615234375" lon="-8.33801896311342716217041015625">
        <ele>364.600006103515625</ele>
        <time>2019-07-26T14:44:29.000Z</time>
      </trkpt>
      <trkpt lat="42.9185186326503753662109375" lon="-8.33813915960490703582763671875">
        <ele>364</ele>
        <time>2019-07-26T14:44:30.000Z</time>
      </trkpt>
      <trkpt lat="42.9185211472213268280029296875" lon="-8.3382574282586574554443359375">
        <ele>363.399993896484375</ele>
        <time>2019-07-26T14:44:31.000Z</time>
      </trkpt>
      <trkpt lat="42.91851955465972423553466796875" lon="-8.33849103190004825592041015625">
        <ele>362.399993896484375</ele>
        <time>2019-07-26T14:44:33.000Z</time>
      </trkpt>
      <trkpt lat="42.91849943809211254119873046875" lon="-8.33871767856180667877197265625">
        <ele>361</ele>
        <time>2019-07-26T14:44:35.000Z</time>
      </trkpt>
      <trkpt lat="42.91848309338092803955078125" lon="-8.33882479928433895111083984375">
        <ele>360.399993896484375</ele>
        <time>2019-07-26T14:44:36.000Z</time>
      </trkpt>
      <trkpt lat="42.9184450395405292510986328125" lon="-8.33903769962489604949951171875">
        <ele>359.79998779296875</ele>
        <time>2019-07-26T14:44:38.000Z</time>
      </trkpt>
      <trkpt lat="42.91838812641799449920654296875" lon="-8.33924087695777416229248046875">
        <ele>358.79998779296875</ele>
        <time>2019-07-26T14:44:40.000Z</time>
      </trkpt>
      <trkpt lat="42.9183571971952915191650390625" lon="-8.33934162743389606475830078125">
        <ele>358.20001220703125</ele>
        <time>2019-07-26T14:44:41.000Z</time>
      </trkpt>
      <trkpt lat="42.9183283634483814239501953125" lon="-8.339446820318698883056640625">
        <ele>357.600006103515625</ele>
        <time>2019-07-26T14:44:42.000Z</time>
      </trkpt>
      <trkpt lat="42.91821244172751903533935546875" lon="-8.339864909648895263671875">
        <ele>356.600006103515625</ele>
        <time>2019-07-26T14:44:46.000Z</time>
      </trkpt>
      <trkpt lat="42.918185032904148101806640625" lon="-8.33996423520147800445556640625">
        <ele>356.20001220703125</ele>
        <time>2019-07-26T14:44:47.000Z</time>
      </trkpt>
      <trkpt lat="42.9181111045181751251220703125" lon="-8.34026095457375049591064453125">
        <ele>355.399993896484375</ele>
        <time>2019-07-26T14:44:50.000Z</time>
      </trkpt>
      <trkpt lat="42.917995937168598175048828125" lon="-8.34066160954535007476806640625">
        <ele>355</ele>
        <time>2019-07-26T14:44:54.000Z</time>
      </trkpt>
      <trkpt lat="42.91787423193454742431640625" lon="-8.341077603399753570556640625">
        <ele>354</ele>
        <time>2019-07-26T14:44:58.000Z</time>
      </trkpt>
      <trkpt lat="42.91780449450016021728515625" lon="-8.3413037471473217010498046875">
        <ele>353.600006103515625</ele>
        <time>2019-07-26T14:45:00.000Z</time>
      </trkpt>
      <trkpt lat="42.91769318282604217529296875" lon="-8.34163893945515155792236328125">
        <ele>352.79998779296875</ele>
        <time>2019-07-26T14:45:03.000Z</time>
      </trkpt>
      <trkpt lat="42.9176262952387332916259765625" lon="-8.34185888059437274932861328125">
        <ele>352.20001220703125</ele>
        <time>2019-07-26T14:45:05.000Z</time>
      </trkpt>
      <trkpt lat="42.9175557196140289306640625" lon="-8.34206725470721721649169921875">
        <ele>351.399993896484375</ele>
        <time>2019-07-26T14:45:07.000Z</time>
      </trkpt>
      <trkpt lat="42.91743141598999500274658203125" lon="-8.34241694770753383636474609375">
        <ele>349.79998779296875</ele>
        <time>2019-07-26T14:45:10.000Z</time>
      </trkpt>
      <trkpt lat="42.9173433221876621246337890625" lon="-8.3426518924534320831298828125">
        <ele>349</ele>
        <time>2019-07-26T14:45:12.000Z</time>
      </trkpt>
      <trkpt lat="42.917307280004024505615234375" lon="-8.342773430049419403076171875">
        <ele>348.600006103515625</ele>
        <time>2019-07-26T14:45:13.000Z</time>
      </trkpt>
      <trkpt lat="42.9172390513122081756591796875" lon="-8.34300988353788852691650390625">
        <ele>348</ele>
        <time>2019-07-26T14:45:15.000Z</time>
      </trkpt>
      <trkpt lat="42.9172031767666339874267578125" lon="-8.34310946054756641387939453125">
        <ele>347.600006103515625</ele>
        <time>2019-07-26T14:45:16.000Z</time>
      </trkpt>
      <trkpt lat="42.9171428270637989044189453125" lon="-8.3432050980627536773681640625">
        <ele>347</ele>
        <time>2019-07-26T14:45:17.000Z</time>
      </trkpt>
      <trkpt lat="42.917072586715221405029296875" lon="-8.3432865701615810394287109375">
        <ele>346.399993896484375</ele>
        <time>2019-07-26T14:45:18.000Z</time>
      </trkpt>
      <trkpt lat="42.9169929586350917816162109375" lon="-8.34333141334354877471923828125">
        <ele>346</ele>
        <time>2019-07-26T14:45:19.000Z</time>
      </trkpt>
      <trkpt lat="42.9169168509542942047119140625" lon="-8.3433516137301921844482421875">
        <ele>345.399993896484375</ele>
        <time>2019-07-26T14:45:20.000Z</time>
      </trkpt>
      <trkpt lat="42.9167663119733333587646484375" lon="-8.34330241195857524871826171875">
        <ele>343.79998779296875</ele>
        <time>2019-07-26T14:45:22.000Z</time>
      </trkpt>
      <trkpt lat="42.91670478880405426025390625" lon="-8.34328246302902698516845703125">
        <ele>342.79998779296875</ele>
        <time>2019-07-26T14:45:23.000Z</time>
      </trkpt>
      <trkpt lat="42.916644103825092315673828125" lon="-8.3432755060493946075439453125">
        <ele>341.79998779296875</ele>
        <time>2019-07-26T14:45:24.000Z</time>
      </trkpt>
      <trkpt lat="42.9165923036634922027587890625" lon="-8.34329335950314998626708984375">
        <ele>341</ele>
        <time>2019-07-26T14:45:25.000Z</time>
      </trkpt>
      <trkpt lat="42.91655835695564746856689453125" lon="-8.34333040751516819000244140625">
        <ele>339.600006103515625</ele>
        <time>2019-07-26T14:45:26.000Z</time>
      </trkpt>
      <trkpt lat="42.91653891094028949737548828125" lon="-8.3434635959565639495849609375">
        <ele>338</ele>
        <time>2019-07-26T14:45:28.000Z</time>
      </trkpt>
      <trkpt lat="42.91654678992927074432373046875" lon="-8.34354364313185214996337890625">
        <ele>337.399993896484375</ele>
        <time>2019-07-26T14:45:29.000Z</time>
      </trkpt>
      <trkpt lat="42.91655584238469600677490234375" lon="-8.3436292223632335662841796875">
        <ele>336.600006103515625</ele>
        <time>2019-07-26T14:45:30.000Z</time>
      </trkpt>
      <trkpt lat="42.91657461784780025482177734375" lon="-8.34379929117858409881591796875">
        <ele>335.20001220703125</ele>
        <time>2019-07-26T14:45:32.000Z</time>
      </trkpt>
      <trkpt lat="42.91657025925815105438232421875" lon="-8.34386182017624378204345703125">
        <ele>334.79998779296875</ele>
        <time>2019-07-26T14:45:33.000Z</time>
      </trkpt>
      <trkpt lat="42.91654142551124095916748046875" lon="-8.34394899196922779083251953125">
        <ele>333.600006103515625</ele>
        <time>2019-07-26T14:45:35.000Z</time>
      </trkpt>
      <trkpt lat="42.91652432642877101898193359375" lon="-8.3439916558563709259033203125">
        <ele>333.20001220703125</ele>
        <time>2019-07-26T14:45:36.000Z</time>
      </trkpt>
      <trkpt lat="42.916494570672512054443359375" lon="-8.344049155712127685546875">
        <ele>333</ele>
        <time>2019-07-26T14:45:37.000Z</time>
      </trkpt>
      <trkpt lat="42.91646347381174564361572265625" lon="-8.3441495709121227264404296875">
        <ele>332</ele>
        <time>2019-07-26T14:45:39.000Z</time>
      </trkpt>
      <trkpt lat="42.9164454527199268341064453125" lon="-8.3441874571144580841064453125">
        <ele>331</ele>
        <time>2019-07-26T14:45:40.000Z</time>
      </trkpt>
      <trkpt lat="42.9164256714284420013427734375" lon="-8.34422794170677661895751953125">
        <ele>329.79998779296875</ele>
        <time>2019-07-26T14:45:41.000Z</time>
      </trkpt>
      <trkpt lat="42.91641133837401866912841796875" lon="-8.34427068941295146942138671875">
        <ele>328.79998779296875</ele>
        <time>2019-07-26T14:45:42.000Z</time>
      </trkpt>
      <trkpt lat="42.9163807444274425506591796875" lon="-8.344419635832309722900390625">
        <ele>328</ele>
        <time>2019-07-26T14:45:45.000Z</time>
      </trkpt>
      <trkpt lat="42.91636875830590724945068359375" lon="-8.3444925583899021148681640625">
        <ele>327.79998779296875</ele>
        <time>2019-07-26T14:45:46.000Z</time>
      </trkpt>
      <trkpt lat="42.91635232977569103240966796875" lon="-8.3445663191378116607666015625">
        <ele>327.600006103515625</ele>
        <time>2019-07-26T14:45:47.000Z</time>
      </trkpt>
      <trkpt lat="42.9163247533142566680908203125" lon="-8.344648294150829315185546875">
        <ele>327.600006103515625</ele>
        <time>2019-07-26T14:45:48.000Z</time>
      </trkpt>
      <trkpt lat="42.91625794954597949981689453125" lon="-8.344838730990886688232421875">
        <ele>327.600006103515625</ele>
        <time>2019-07-26T14:45:50.000Z</time>
      </trkpt>
      <trkpt lat="42.91621520183980464935302734375" lon="-8.3449371345341205596923828125">
        <ele>327.399993896484375</ele>
        <time>2019-07-26T14:45:51.000Z</time>
      </trkpt>
      <trkpt lat="42.91602744720876216888427734375" lon="-8.34550785832107067108154296875">
        <ele>326.79998779296875</ele>
        <time>2019-07-26T14:45:56.000Z</time>
      </trkpt>
      <trkpt lat="42.91596743278205394744873046875" lon="-8.34561162628233432769775390625">
        <ele>326.399993896484375</ele>
        <time>2019-07-26T14:45:57.000Z</time>
      </trkpt>
      <trkpt lat="42.91585578583180904388427734375" lon="-8.34580399096012115478515625">
        <ele>324.79998779296875</ele>
        <time>2019-07-26T14:45:59.000Z</time>
      </trkpt>
      <trkpt lat="42.915806584060192108154296875" lon="-8.34588906727731227874755859375">
        <ele>324.20001220703125</ele>
        <time>2019-07-26T14:46:00.000Z</time>
      </trkpt>
      <trkpt lat="42.91575704701244831085205078125" lon="-8.345969952642917633056640625">
        <ele>323.399993896484375</ele>
        <time>2019-07-26T14:46:01.000Z</time>
      </trkpt>
      <trkpt lat="42.915711700916290283203125" lon="-8.34605469368398189544677734375">
        <ele>322.600006103515625</ele>
        <time>2019-07-26T14:46:02.000Z</time>
      </trkpt>
      <trkpt lat="42.91567473672330379486083984375" lon="-8.34614438004791736602783203125">
        <ele>322</ele>
        <time>2019-07-26T14:46:03.000Z</time>
      </trkpt>
      <trkpt lat="42.91562394239008426666259765625" lon="-8.346334397792816162109375">
        <ele>321</ele>
        <time>2019-07-26T14:46:05.000Z</time>
      </trkpt>
      <trkpt lat="42.91559494100511074066162109375" lon="-8.3464277721941471099853515625">
        <ele>320.399993896484375</ele>
        <time>2019-07-26T14:46:06.000Z</time>
      </trkpt>
      <trkpt lat="42.91551053524017333984375" lon="-8.3466047979891300201416015625">
        <ele>319</ele>
        <time>2019-07-26T14:46:08.000Z</time>
      </trkpt>
      <trkpt lat="42.9154654406011104583740234375" lon="-8.346685431897640228271484375">
        <ele>318.20001220703125</ele>
        <time>2019-07-26T14:46:09.000Z</time>
      </trkpt>
      <trkpt lat="42.91542026214301586151123046875" lon="-8.34676564671099185943603515625">
        <ele>317.600006103515625</ele>
        <time>2019-07-26T14:46:10.000Z</time>
      </trkpt>
      <trkpt lat="42.91525362990796566009521484375" lon="-8.34702850319445133209228515625">
        <ele>316.600006103515625</ele>
        <time>2019-07-26T14:46:13.000Z</time>
      </trkpt>
      <trkpt lat="42.91520216502249240875244140625" lon="-8.34712087176740169525146484375">
        <ele>316.20001220703125</ele>
        <time>2019-07-26T14:46:14.000Z</time>
      </trkpt>
      <trkpt lat="42.91501726023852825164794921875" lon="-8.34739915095269680023193359375">
        <ele>315.20001220703125</ele>
        <time>2019-07-26T14:46:17.000Z</time>
      </trkpt>
      <trkpt lat="42.91490980423986911773681640625" lon="-8.3476116321980953216552734375">
        <ele>314.79998779296875</ele>
        <time>2019-07-26T14:46:19.000Z</time>
      </trkpt>
      <trkpt lat="42.91481290943920612335205078125" lon="-8.34783308207988739013671875">
        <ele>314.20001220703125</ele>
        <time>2019-07-26T14:46:21.000Z</time>
      </trkpt>
      <trkpt lat="42.9147442616522312164306640625" lon="-8.3480387739837169647216796875">
        <ele>313.399993896484375</ele>
        <time>2019-07-26T14:46:23.000Z</time>
      </trkpt>
      <trkpt lat="42.9147201217710971832275390625" lon="-8.348131477832794189453125">
        <ele>313</ele>
        <time>2019-07-26T14:46:24.000Z</time>
      </trkpt>
      <trkpt lat="42.91465558111667633056640625" lon="-8.34833155386149883270263671875">
        <ele>311.600006103515625</ele>
        <time>2019-07-26T14:46:26.000Z</time>
      </trkpt>
      <trkpt lat="42.91461828164756298065185546875" lon="-8.34842643700540065765380859375">
        <ele>311.20001220703125</ele>
        <time>2019-07-26T14:46:27.000Z</time>
      </trkpt>
      <trkpt lat="42.9145390726625919342041015625" lon="-8.348731957376003265380859375">
        <ele>310</ele>
        <time>2019-07-26T14:46:30.000Z</time>
      </trkpt>
      <trkpt lat="42.9144860990345478057861328125" lon="-8.3489420078694820404052734375">
        <ele>309</ele>
        <time>2019-07-26T14:46:32.000Z</time>
      </trkpt>
      <trkpt lat="42.91452792473137378692626953125" lon="-8.34922607056796550750732421875">
        <ele>307.600006103515625</ele>
        <time>2019-07-26T14:46:35.000Z</time>
      </trkpt>
      <trkpt lat="42.91461962275207042694091796875" lon="-8.34934945218265056610107421875">
        <ele>306.399993896484375</ele>
        <time>2019-07-26T14:46:37.000Z</time>
      </trkpt>
      <trkpt lat="42.91467024944722652435302734375" lon="-8.3494122326374053955078125">
        <ele>306</ele>
        <time>2019-07-26T14:46:38.000Z</time>
      </trkpt>
      <trkpt lat="42.91475641541182994842529296875" lon="-8.34952714852988719940185546875">
        <ele>304.79998779296875</ele>
        <time>2019-07-26T14:46:40.000Z</time>
      </trkpt>
      <trkpt lat="42.91478969156742095947265625" lon="-8.349591605365276336669921875">
        <ele>303.79998779296875</ele>
        <time>2019-07-26T14:46:41.000Z</time>
      </trkpt>
      <trkpt lat="42.9148109816014766693115234375" lon="-8.34966863505542278289794921875">
        <ele>303</ele>
        <time>2019-07-26T14:46:42.000Z</time>
      </trkpt>
      <trkpt lat="42.91481710039079189300537109375" lon="-8.3497537113726139068603515625">
        <ele>302.20001220703125</ele>
        <time>2019-07-26T14:46:43.000Z</time>
      </trkpt>
      <trkpt lat="42.9148203693330287933349609375" lon="-8.349842727184295654296875">
        <ele>301.399993896484375</ele>
        <time>2019-07-26T14:46:44.000Z</time>
      </trkpt>
      <trkpt lat="42.91474736295640468597412109375" lon="-8.35009812377393245697021484375">
        <ele>299.600006103515625</ele>
        <time>2019-07-26T14:46:47.000Z</time>
      </trkpt>
      <trkpt lat="42.91471299715340137481689453125" lon="-8.350164256989955902099609375">
        <ele>298.20001220703125</ele>
        <time>2019-07-26T14:46:48.000Z</time>
      </trkpt>
      <trkpt lat="42.91467946954071521759033203125" lon="-8.35023810155689716339111328125">
        <ele>296.79998779296875</ele>
        <time>2019-07-26T14:46:49.000Z</time>
      </trkpt>
      <trkpt lat="42.91464510373771190643310546875" lon="-8.35031622089445590972900390625">
        <ele>295</ele>
        <time>2019-07-26T14:46:50.000Z</time>
      </trkpt>
      <trkpt lat="42.9146141745150089263916015625" lon="-8.35039266385138034820556640625">
        <ele>294.399993896484375</ele>
        <time>2019-07-26T14:46:51.000Z</time>
      </trkpt>
      <trkpt lat="42.91456446982920169830322265625" lon="-8.3505271933972835540771484375">
        <ele>293.20001220703125</ele>
        <time>2019-07-26T14:46:53.000Z</time>
      </trkpt>
      <trkpt lat="42.914518453180789947509765625" lon="-8.350677900016307830810546875">
        <ele>291.79998779296875</ele>
        <time>2019-07-26T14:46:55.000Z</time>
      </trkpt>
      <trkpt lat="42.91449154727160930633544921875" lon="-8.35075668990612030029296875">
        <ele>291.399993896484375</ele>
        <time>2019-07-26T14:46:56.000Z</time>
      </trkpt>
      <trkpt lat="42.91440873406827449798583984375" lon="-8.3509947359561920166015625">
        <ele>290.600006103515625</ele>
        <time>2019-07-26T14:46:59.000Z</time>
      </trkpt>
      <trkpt lat="42.91432290337979793548583984375" lon="-8.35124661214649677276611328125">
        <ele>289.399993896484375</ele>
        <time>2019-07-26T14:47:02.000Z</time>
      </trkpt>
      <trkpt lat="42.914295494556427001953125" lon="-8.35133596323430538177490234375">
        <ele>289.399993896484375</ele>
        <time>2019-07-26T14:47:03.000Z</time>
      </trkpt>
      <trkpt lat="42.9140649922192096710205078125" lon="-8.3519496023654937744140625">
        <ele>288.600006103515625</ele>
        <time>2019-07-26T14:47:10.000Z</time>
      </trkpt>
      <trkpt lat="42.914032973349094390869140625" lon="-8.35204239003360271453857421875">
        <ele>288.399993896484375</ele>
        <time>2019-07-26T14:47:11.000Z</time>
      </trkpt>
      <trkpt lat="42.91381110437214374542236328125" lon="-8.35265074856579303741455078125">
        <ele>287.20001220703125</ele>
        <time>2019-07-26T14:47:18.000Z</time>
      </trkpt>
      <trkpt lat="42.91377858258783817291259765625" lon="-8.35272870026528835296630859375">
        <ele>287.20001220703125</ele>
        <time>2019-07-26T14:47:19.000Z</time>
      </trkpt>
      <trkpt lat="42.913615219295024871826171875" lon="-8.35302089340984821319580078125">
        <ele>286.79998779296875</ele>
        <time>2019-07-26T14:47:23.000Z</time>
      </trkpt>
      <trkpt lat="42.91356937028467655181884765625" lon="-8.3530895411968231201171875">
        <ele>286.79998779296875</ele>
        <time>2019-07-26T14:47:24.000Z</time>
      </trkpt>
      <trkpt lat="42.913419418036937713623046875" lon="-8.3532828278839588165283203125">
        <ele>286.399993896484375</ele>
        <time>2019-07-26T14:47:27.000Z</time>
      </trkpt>
      <trkpt lat="42.91321179829537868499755859375" lon="-8.3535181917250156402587890625">
        <ele>286.20001220703125</ele>
        <time>2019-07-26T14:47:31.000Z</time>
      </trkpt>
      <trkpt lat="42.91301918216049671173095703125" lon="-8.35378264077007770538330078125">
        <ele>285.600006103515625</ele>
        <time>2019-07-26T14:47:35.000Z</time>
      </trkpt>
      <trkpt lat="42.9129840619862079620361328125" lon="-8.35386059246957302093505859375">
        <ele>285.399993896484375</ele>
        <time>2019-07-26T14:47:36.000Z</time>
      </trkpt>
      <trkpt lat="42.9129525460302829742431640625" lon="-8.3539478480815887451171875">
        <ele>285.399993896484375</ele>
        <time>2019-07-26T14:47:37.000Z</time>
      </trkpt>
      <trkpt lat="42.912815250456333160400390625" lon="-8.3543459884822368621826171875">
        <ele>284.600006103515625</ele>
        <time>2019-07-26T14:47:41.000Z</time>
      </trkpt>
      <trkpt lat="42.912750206887722015380859375" lon="-8.354565761983394622802734375">
        <ele>284.399993896484375</ele>
        <time>2019-07-26T14:47:43.000Z</time>
      </trkpt>
      <trkpt lat="42.91264669038355350494384765625" lon="-8.35502366535365581512451171875">
        <ele>283.20001220703125</ele>
        <time>2019-07-26T14:47:47.000Z</time>
      </trkpt>
      <trkpt lat="42.91255046613514423370361328125" lon="-8.35545566864311695098876953125">
        <ele>282</ele>
        <time>2019-07-26T14:47:51.000Z</time>
      </trkpt>
      <trkpt lat="42.9125133343040943145751953125" lon="-8.355683572590351104736328125">
        <ele>281.20001220703125</ele>
        <time>2019-07-26T14:47:53.000Z</time>
      </trkpt>
      <trkpt lat="42.9125069640576839447021484375" lon="-8.35580703802406787872314453125">
        <ele>280.600006103515625</ele>
        <time>2019-07-26T14:47:54.000Z</time>
      </trkpt>
      <trkpt lat="42.91250470094382762908935546875" lon="-8.3560703136026859283447265625">
        <ele>279.20001220703125</ele>
        <time>2019-07-26T14:47:56.000Z</time>
      </trkpt>
      <trkpt lat="42.91250738315284252166748046875" lon="-8.356207273900508880615234375">
        <ele>278.399993896484375</ele>
        <time>2019-07-26T14:47:57.000Z</time>
      </trkpt>
      <trkpt lat="42.9125133343040943145751953125" lon="-8.3563492633402347564697265625">
        <ele>278</ele>
        <time>2019-07-26T14:47:58.000Z</time>
      </trkpt>
      <trkpt lat="42.912510819733142852783203125" lon="-8.35677824914455413818359375">
        <ele>276.600006103515625</ele>
        <time>2019-07-26T14:48:01.000Z</time>
      </trkpt>
      <trkpt lat="42.91249648667871952056884765625" lon="-8.3569036424160003662109375">
        <ele>276.20001220703125</ele>
        <time>2019-07-26T14:48:02.000Z</time>
      </trkpt>
      <trkpt lat="42.9124784655869007110595703125" lon="-8.3570188097655773162841796875">
        <ele>275.399993896484375</ele>
        <time>2019-07-26T14:48:03.000Z</time>
      </trkpt>
      <trkpt lat="42.9124378971755504608154296875" lon="-8.35721117444336414337158203125">
        <ele>274</ele>
        <time>2019-07-26T14:48:05.000Z</time>
      </trkpt>
      <trkpt lat="42.912422306835651397705078125" lon="-8.357283510267734527587890625">
        <ele>273.399993896484375</ele>
        <time>2019-07-26T14:48:06.000Z</time>
      </trkpt>
      <trkpt lat="42.912408895790576934814453125" lon="-8.357335142791271209716796875">
        <ele>272.399993896484375</ele>
        <time>2019-07-26T14:48:07.000Z</time>
      </trkpt>
      <trkpt lat="42.9124033637344837188720703125" lon="-8.357390463352203369140625">
        <ele>271.79998779296875</ele>
        <time>2019-07-26T14:48:09.000Z</time>
      </trkpt>
      <trkpt lat="42.91241233237087726593017578125" lon="-8.35740228183567523956298828125">
        <ele>271.600006103515625</ele>
        <time>2019-07-26T14:48:10.000Z</time>
      </trkpt>
      <trkpt lat="42.9124264977872371673583984375" lon="-8.35744419135153293609619140625">
        <ele>271.600006103515625</ele>
        <time>2019-07-26T14:48:13.000Z</time>
      </trkpt>
      <trkpt lat="42.9124197922646999359130859375" lon="-8.35747302509844303131103515625">
        <ele>271.600006103515625</ele>
        <time>2019-07-26T14:48:14.000Z</time>
      </trkpt>
      <trkpt lat="42.9123359732329845428466796875" lon="-8.3575673215091228485107421875">
        <ele>271.600006103515625</ele>
        <time>2019-07-26T14:48:17.000Z</time>
      </trkpt>
      <trkpt lat="42.9122436046600341796875" lon="-8.3576189540326595306396484375">
        <ele>271.79998779296875</ele>
        <time>2019-07-26T14:48:19.000Z</time>
      </trkpt>
      <trkpt lat="42.91215852834284305572509765625" lon="-8.3576600253582000732421875">
        <ele>271.79998779296875</ele>
        <time>2019-07-26T14:48:21.000Z</time>
      </trkpt>
      <trkpt lat="42.91212181560695171356201171875" lon="-8.35768626071512699127197265625">
        <ele>271.79998779296875</ele>
        <time>2019-07-26T14:48:22.000Z</time>
      </trkpt>
      <trkpt lat="42.911995835602283477783203125" lon="-8.3578345365822315216064453125">
        <ele>272.20001220703125</ele>
        <time>2019-07-26T14:48:26.000Z</time>
      </trkpt>
      <trkpt lat="42.911886870861053466796875" lon="-8.35799706168472766876220703125">
        <ele>273</ele>
        <time>2019-07-26T14:48:30.000Z</time>
      </trkpt>
      <trkpt lat="42.91181654669344425201416015625" lon="-8.35812061093747615814208984375">
        <ele>273.600006103515625</ele>
        <time>2019-07-26T14:48:33.000Z</time>
      </trkpt>
      <trkpt lat="42.91178964078426361083984375" lon="-8.35815832950174808502197265625">
        <ele>273.79998779296875</ele>
        <time>2019-07-26T14:48:34.000Z</time>
      </trkpt>
      <trkpt lat="42.91168478317558765411376953125" lon="-8.3583062700927257537841796875">
        <ele>274.399993896484375</ele>
        <time>2019-07-26T14:48:38.000Z</time>
      </trkpt>
      <trkpt lat="42.911632061004638671875" lon="-8.3583739958703517913818359375">
        <ele>274.79998779296875</ele>
        <time>2019-07-26T14:48:40.000Z</time>
      </trkpt>
      <trkpt lat="42.9115738905966281890869140625" lon="-8.35844130255281925201416015625">
        <ele>275.399993896484375</ele>
        <time>2019-07-26T14:48:42.000Z</time>
      </trkpt>
      <trkpt lat="42.91148428805172443389892578125" lon="-8.358544819056987762451171875">
        <ele>275.79998779296875</ele>
        <time>2019-07-26T14:48:45.000Z</time>
      </trkpt>
      <trkpt lat="42.91136920452117919921875" lon="-8.35872008465230464935302734375">
        <ele>276.399993896484375</ele>
        <time>2019-07-26T14:48:49.000Z</time>
      </trkpt>
      <trkpt lat="42.9113187454640865325927734375" lon="-8.3588138781487941741943359375">
        <ele>276.79998779296875</ele>
        <time>2019-07-26T14:48:51.000Z</time>
      </trkpt>
      <trkpt lat="42.91116242296993732452392578125" lon="-8.3590743876993656158447265625">
        <ele>277.79998779296875</ele>
        <time>2019-07-26T14:48:57.000Z</time>
      </trkpt>
      <trkpt lat="42.91109360754489898681640625" lon="-8.35919315926730632781982421875">
        <ele>278</ele>
        <time>2019-07-26T14:49:00.000Z</time>
      </trkpt>
      <trkpt lat="42.911001741886138916015625" lon="-8.359354175627231597900390625">
        <ele>278.399993896484375</ele>
        <time>2019-07-26T14:49:04.000Z</time>
      </trkpt>
      <trkpt lat="42.91091633029282093048095703125" lon="-8.359498679637908935546875">
        <ele>279.20001220703125</ele>
        <time>2019-07-26T14:49:08.000Z</time>
      </trkpt>
      <trkpt lat="42.91085891425609588623046875" lon="-8.35960923694074153900146484375">
        <ele>279.79998779296875</ele>
        <time>2019-07-26T14:49:11.000Z</time>
      </trkpt>
      <trkpt lat="42.9107320122420787811279296875" lon="-8.3598012663424015045166015625">
        <ele>280.20001220703125</ele>
        <time>2019-07-26T14:49:16.000Z</time>
      </trkpt>
      <trkpt lat="42.91059471666812896728515625" lon="-8.3600579202175140380859375">
        <ele>281.20001220703125</ele>
        <time>2019-07-26T14:49:23.000Z</time>
      </trkpt>
      <trkpt lat="42.91054953821003437042236328125" lon="-8.36018825881183147430419921875">
        <ele>281.399993896484375</ele>
        <time>2019-07-26T14:49:26.000Z</time>
      </trkpt>
      <trkpt lat="42.91049857623875141143798828125" lon="-8.360329829156398773193359375">
        <ele>281.600006103515625</ele>
        <time>2019-07-26T14:49:29.000Z</time>
      </trkpt>
      <trkpt lat="42.9104309342801570892333984375" lon="-8.36052588187158107757568359375">
        <ele>282</ele>
        <time>2019-07-26T14:49:34.000Z</time>
      </trkpt>
      <trkpt lat="42.91035507805645465850830078125" lon="-8.3606428094208240509033203125">
        <ele>282.399993896484375</ele>
        <time>2019-07-26T14:49:37.000Z</time>
      </trkpt>
      <trkpt lat="42.910310737788677215576171875" lon="-8.3607340045273303985595703125">
        <ele>282.79998779296875</ele>
        <time>2019-07-26T14:49:39.000Z</time>
      </trkpt>
      <trkpt lat="42.91026237420737743377685546875" lon="-8.36081220768392086029052734375">
        <ele>283.399993896484375</ele>
        <time>2019-07-26T14:49:41.000Z</time>
      </trkpt>
      <trkpt lat="42.91020847856998443603515625" lon="-8.3609056659042835235595703125">
        <ele>284</ele>
        <time>2019-07-26T14:49:44.000Z</time>
      </trkpt>
      <trkpt lat="42.91014687158167362213134765625" lon="-8.3610954321920871734619140625">
        <ele>284.600006103515625</ele>
        <time>2019-07-26T14:49:49.000Z</time>
      </trkpt>
      <trkpt lat="42.91012776084244251251220703125" lon="-8.36114044301211833953857421875">
        <ele>284.600006103515625</ele>
        <time>2019-07-26T14:49:50.000Z</time>
      </trkpt>
      <trkpt lat="42.91006565093994140625" lon="-8.36135669611394405364990234375">
        <ele>285.600006103515625</ele>
        <time>2019-07-26T14:49:55.000Z</time>
      </trkpt>
      <trkpt lat="42.91005886159837245941162109375" lon="-8.361395336687564849853515625">
        <ele>285.600006103515625</ele>
        <time>2019-07-26T14:49:56.000Z</time>
      </trkpt>
      <trkpt lat="42.9099897108972072601318359375" lon="-8.3615681715309619903564453125">
        <ele>286.600006103515625</ele>
        <time>2019-07-26T14:50:01.000Z</time>
      </trkpt>
      <trkpt lat="42.90996381081640720367431640625" lon="-8.36163732223212718963623046875">
        <ele>287.20001220703125</ele>
        <time>2019-07-26T14:50:03.000Z</time>
      </trkpt>
      <trkpt lat="42.90994034148752689361572265625" lon="-8.36171083152294158935546875">
        <ele>287.600006103515625</ele>
        <time>2019-07-26T14:50:05.000Z</time>
      </trkpt>
      <trkpt lat="42.90991209447383880615234375" lon="-8.36181384511291980743408203125">
        <ele>288.600006103515625</ele>
        <time>2019-07-26T14:50:08.000Z</time>
      </trkpt>
      <trkpt lat="42.90990463458001613616943359375" lon="-8.36184200830757617950439453125">
        <ele>289.20001220703125</ele>
        <time>2019-07-26T14:50:09.000Z</time>
      </trkpt>
      <trkpt lat="42.90990463458001613616943359375" lon="-8.36205474101006984710693359375">
        <ele>290</ele>
        <time>2019-07-26T14:50:15.000Z</time>
      </trkpt>
      <trkpt lat="42.90989038534462451934814453125" lon="-8.3621337823569774627685546875">
        <ele>290.399993896484375</ele>
        <time>2019-07-26T14:50:17.000Z</time>
      </trkpt>
      <trkpt lat="42.9098539240658283233642578125" lon="-8.3622564934194087982177734375">
        <ele>290.79998779296875</ele>
        <time>2019-07-26T14:50:20.000Z</time>
      </trkpt>
      <trkpt lat="42.9098126851022243499755859375" lon="-8.36240946315228939056396484375">
        <ele>291.600006103515625</ele>
        <time>2019-07-26T14:50:24.000Z</time>
      </trkpt>
      <trkpt lat="42.90978980250656604766845703125" lon="-8.362506441771984100341796875">
        <ele>292.399993896484375</ele>
        <time>2019-07-26T14:50:27.000Z</time>
      </trkpt>
      <trkpt lat="42.90977018885314464569091796875" lon="-8.36257710121572017669677734375">
        <ele>292.600006103515625</ele>
        <time>2019-07-26T14:50:29.000Z</time>
      </trkpt>
      <trkpt lat="42.9097053967416286468505859375" lon="-8.36276359856128692626953125">
        <ele>293.79998779296875</ele>
        <time>2019-07-26T14:50:34.000Z</time>
      </trkpt>
      <trkpt lat="42.9095937497913837432861328125" lon="-8.3629303984344005584716796875">
        <ele>295</ele>
        <time>2019-07-26T14:50:39.000Z</time>
      </trkpt>
      <trkpt lat="42.9094864614307880401611328125" lon="-8.3631047420203685760498046875">
        <ele>295.399993896484375</ele>
        <time>2019-07-26T14:50:44.000Z</time>
      </trkpt>
      <trkpt lat="42.9093543626368045806884765625" lon="-8.36323843337595462799072265625">
        <ele>296</ele>
        <time>2019-07-26T14:50:48.000Z</time>
      </trkpt>
      <trkpt lat="42.90932737290859222412109375" lon="-8.363270200788974761962890625">
        <ele>296.399993896484375</ele>
        <time>2019-07-26T14:50:49.000Z</time>
      </trkpt>
      <trkpt lat="42.9091998003423213958740234375" lon="-8.3634514175355434417724609375">
        <ele>297</ele>
        <time>2019-07-26T14:50:55.000Z</time>
      </trkpt>
      <trkpt lat="42.90917591191828250885009765625" lon="-8.3634822629392147064208984375">
        <ele>297.20001220703125</ele>
        <time>2019-07-26T14:50:56.000Z</time>
      </trkpt>
      <trkpt lat="42.90907817892730236053466796875" lon="-8.363534398376941680908203125">
        <ele>297.399993896484375</ele>
        <time>2019-07-26T14:50:59.000Z</time>
      </trkpt>
      <trkpt lat="42.9089594073593616485595703125" lon="-8.3634812571108341217041015625">
        <ele>297.79998779296875</ele>
        <time>2019-07-26T14:51:03.000Z</time>
      </trkpt>
      <trkpt lat="42.90886695496737957000732421875" lon="-8.36339601315557956695556640625">
        <ele>298.399993896484375</ele>
        <time>2019-07-26T14:51:07.000Z</time>
      </trkpt>
      <trkpt lat="42.90884097106754779815673828125" lon="-8.36336583830416202545166015625">
        <ele>298.79998779296875</ele>
        <time>2019-07-26T14:51:09.000Z</time>
      </trkpt>
      <trkpt lat="42.90877944789826869964599609375" lon="-8.36327363736927509307861328125">
        <ele>299.399993896484375</ele>
        <time>2019-07-26T14:51:13.000Z</time>
      </trkpt>
      <trkpt lat="42.9087354429066181182861328125" lon="-8.36324932985007762908935546875">
        <ele>299.600006103515625</ele>
        <time>2019-07-26T14:51:15.000Z</time>
      </trkpt>
      <trkpt lat="42.90864097885787487030029296875" lon="-8.363272212445735931396484375">
        <ele>300.399993896484375</ele>
        <time>2019-07-26T14:51:18.000Z</time>
      </trkpt>
      <trkpt lat="42.9086080379784107208251953125" lon="-8.3632831089198589324951171875">
        <ele>300.399993896484375</ele>
        <time>2019-07-26T14:51:19.000Z</time>
      </trkpt>
      <trkpt lat="42.9085515439510345458984375" lon="-8.36330917663872241973876953125">
        <ele>300.79998779296875</ele>
        <time>2019-07-26T14:51:21.000Z</time>
      </trkpt>
      <trkpt lat="42.908433191478252410888671875" lon="-8.36335645057260990142822265625">
        <ele>301.600006103515625</ele>
        <time>2019-07-26T14:51:25.000Z</time>
      </trkpt>
      <trkpt lat="42.90827821008861064910888671875" lon="-8.36342736147344112396240234375">
        <ele>301.79998779296875</ele>
        <time>2019-07-26T14:51:30.000Z</time>
      </trkpt>
      <trkpt lat="42.90821417234838008880615234375" lon="-8.36343624629080295562744140625">
        <ele>301.79998779296875</ele>
        <time>2019-07-26T14:51:32.000Z</time>
      </trkpt>
      <trkpt lat="42.90815566666424274444580078125" lon="-8.3634375035762786865234375">
        <ele>301.79998779296875</ele>
        <time>2019-07-26T14:51:34.000Z</time>
      </trkpt>
      <trkpt lat="42.90807369165122509002685546875" lon="-8.36346155963838100433349609375">
        <ele>301.79998779296875</ele>
        <time>2019-07-26T14:51:37.000Z</time>
      </trkpt>
      <trkpt lat="42.90779340080916881561279296875" lon="-8.3635831810534000396728515625">
        <ele>302.600006103515625</ele>
        <time>2019-07-26T14:51:45.000Z</time>
      </trkpt>
      <trkpt lat="42.9077517427504062652587890625" lon="-8.36360639892518520355224609375">
        <ele>302.600006103515625</ele>
        <time>2019-07-26T14:51:46.000Z</time>
      </trkpt>
      <trkpt lat="42.9076374135911464691162109375" lon="-8.363717459142208099365234375">
        <ele>302.79998779296875</ele>
        <time>2019-07-26T14:51:49.000Z</time>
      </trkpt>
      <trkpt lat="42.9075988568365573883056640625" lon="-8.36375928483903408050537109375">
        <ele>302.79998779296875</ele>
        <time>2019-07-26T14:51:50.000Z</time>
      </trkpt>
      <trkpt lat="42.90743046440184116363525390625" lon="-8.36396732367575168609619140625">
        <ele>302.600006103515625</ele>
        <time>2019-07-26T14:51:54.000Z</time>
      </trkpt>
      <trkpt lat="42.90740297175943851470947265625" lon="-8.36403706111013889312744140625">
        <ele>302.600006103515625</ele>
        <time>2019-07-26T14:51:55.000Z</time>
      </trkpt>
      <trkpt lat="42.90742945857346057891845703125" lon="-8.3642339520156383514404296875">
        <ele>302.20001220703125</ele>
        <time>2019-07-26T14:51:58.000Z</time>
      </trkpt>
      <trkpt lat="42.90749886073172092437744140625" lon="-8.36432858370244503021240234375">
        <ele>301.79998779296875</ele>
        <time>2019-07-26T14:52:00.000Z</time>
      </trkpt>
      <trkpt lat="42.90753590874373912811279296875" lon="-8.36437066085636615753173828125">
        <ele>301.600006103515625</ele>
        <time>2019-07-26T14:52:01.000Z</time>
      </trkpt>
      <trkpt lat="42.90757186710834503173828125" lon="-8.36441340856254100799560546875">
        <ele>301.20001220703125</ele>
        <time>2019-07-26T14:52:02.000Z</time>
      </trkpt>
      <trkpt lat="42.907681167125701904296875" lon="-8.36455271579325199127197265625">
        <ele>299.399993896484375</ele>
        <time>2019-07-26T14:52:05.000Z</time>
      </trkpt>
      <trkpt lat="42.9078181274235248565673828125" lon="-8.3647422306239604949951171875">
        <ele>299</ele>
        <time>2019-07-26T14:52:09.000Z</time>
      </trkpt>
      <trkpt lat="42.90793119929730892181396484375" lon="-8.3649226091802120208740234375">
        <ele>298.79998779296875</ele>
        <time>2019-07-26T14:52:13.000Z</time>
      </trkpt>
      <trkpt lat="42.90798199363052845001220703125" lon="-8.36499745957553386688232421875">
        <ele>298.79998779296875</ele>
        <time>2019-07-26T14:52:15.000Z</time>
      </trkpt>
      <trkpt lat="42.9080231487751007080078125" lon="-8.36507373489439487457275390625">
        <ele>298.79998779296875</ele>
        <time>2019-07-26T14:52:17.000Z</time>
      </trkpt>
      <trkpt lat="42.90806564502418041229248046875" lon="-8.36514246650040149688720703125">
        <ele>298.79998779296875</ele>
        <time>2019-07-26T14:52:19.000Z</time>
      </trkpt>
      <trkpt lat="42.9081212170422077178955078125" lon="-8.3652126230299472808837890625">
        <ele>298.79998779296875</ele>
        <time>2019-07-26T14:52:21.000Z</time>
      </trkpt>
      <trkpt lat="42.90823730640113353729248046875" lon="-8.3653651736676692962646484375">
        <ele>299</ele>
        <time>2019-07-26T14:52:25.000Z</time>
      </trkpt>
      <trkpt lat="42.9082868434488773345947265625" lon="-8.3654473163187503814697265625">
        <ele>299</ele>
        <time>2019-07-26T14:52:27.000Z</time>
      </trkpt>
      <trkpt lat="42.9083146713674068450927734375" lon="-8.36567723192274570465087890625">
        <ele>299.399993896484375</ele>
        <time>2019-07-26T14:52:32.000Z</time>
      </trkpt>
      <trkpt lat="42.90825809352099895477294921875" lon="-8.36581553332507610321044921875">
        <ele>300</ele>
        <time>2019-07-26T14:52:36.000Z</time>
      </trkpt>
      <trkpt lat="42.90814007632434368133544921875" lon="-8.36604855023324489593505859375">
        <ele>300.399993896484375</ele>
        <time>2019-07-26T14:52:42.000Z</time>
      </trkpt>
      <trkpt lat="42.9080853424966335296630859375" lon="-8.36617813445627689361572265625">
        <ele>300.399993896484375</ele>
        <time>2019-07-26T14:52:45.000Z</time>
      </trkpt>
      <trkpt lat="42.9080687463283538818359375" lon="-8.366217948496341705322265625">
        <ele>300.399993896484375</ele>
        <time>2019-07-26T14:52:47.000Z</time>
      </trkpt>
      <trkpt lat="42.9080746136605739593505859375" lon="-8.3662404119968414306640625">
        <ele>300.399993896484375</ele>
        <time>2019-07-26T14:52:49.000Z</time>
      </trkpt>
      <trkpt lat="42.90811099112033843994140625" lon="-8.366547524929046630859375">
        <ele>300</ele>
        <time>2019-07-26T14:53:43.000Z</time>
      </trkpt>
      <trkpt lat="42.90807637386023998260498046875" lon="-8.36658868007361888885498046875">
        <ele>300</ele>
        <time>2019-07-26T14:53:44.000Z</time>
      </trkpt>
      <trkpt lat="42.9079324565827846527099609375" lon="-8.36681951768696308135986328125">
        <ele>299.79998779296875</ele>
        <time>2019-07-26T14:53:50.000Z</time>
      </trkpt>
      <trkpt lat="42.9078003577888011932373046875" lon="-8.3671019040048122406005859375">
        <ele>299.79998779296875</ele>
        <time>2019-07-26T14:53:55.000Z</time>
      </trkpt>
      <trkpt lat="42.90769801475107669830322265625" lon="-8.3673560433089733123779296875">
        <ele>299.79998779296875</ele>
        <time>2019-07-26T14:53:58.000Z</time>
      </trkpt>
      <trkpt lat="42.90762484073638916015625" lon="-8.367555029690265655517578125">
        <ele>299.399993896484375</ele>
        <time>2019-07-26T14:54:00.000Z</time>
      </trkpt>
      <trkpt lat="42.90748469531536102294921875" lon="-8.368004970252513885498046875">
        <ele>299.20001220703125</ele>
        <time>2019-07-26T14:54:05.000Z</time>
      </trkpt>
      <trkpt lat="42.9074583761394023895263671875" lon="-8.36809608153998851776123046875">
        <ele>299.20001220703125</ele>
        <time>2019-07-26T14:54:06.000Z</time>
      </trkpt>
      <trkpt lat="42.9073420353233814239501953125" lon="-8.36862246505916118621826171875">
        <ele>298.79998779296875</ele>
        <time>2019-07-26T14:54:11.000Z</time>
      </trkpt>
      <trkpt lat="42.9072448052465915679931640625" lon="-8.36886218748986721038818359375">
        <ele>297.79998779296875</ele>
        <time>2019-07-26T14:54:14.000Z</time>
      </trkpt>
      <trkpt lat="42.9071495868265628814697265625" lon="-8.368992023169994354248046875">
        <ele>297.20001220703125</ele>
        <time>2019-07-26T14:54:16.000Z</time>
      </trkpt>
      <trkpt lat="42.90707054547965526580810546875" lon="-8.36913577280938625335693359375">
        <ele>296.79998779296875</ele>
        <time>2019-07-26T14:54:18.000Z</time>
      </trkpt>
      <trkpt lat="42.90703383274376392364501953125" lon="-8.36929637007415294647216796875">
        <ele>296.79998779296875</ele>
        <time>2019-07-26T14:54:20.000Z</time>
      </trkpt>
      <trkpt lat="42.9070070944726467132568359375" lon="-8.3694873936474323272705078125">
        <ele>296.600006103515625</ele>
        <time>2019-07-26T14:54:22.000Z</time>
      </trkpt>
      <trkpt lat="42.90697197429835796356201171875" lon="-8.36958504281938076019287109375">
        <ele>296.600006103515625</ele>
        <time>2019-07-26T14:54:23.000Z</time>
      </trkpt>
      <trkpt lat="42.906935177743434906005859375" lon="-8.369678668677806854248046875">
        <ele>296.399993896484375</ele>
        <time>2019-07-26T14:54:24.000Z</time>
      </trkpt>
      <trkpt lat="42.90678924880921840667724609375" lon="-8.3699671737849712371826171875">
        <ele>296</ele>
        <time>2019-07-26T14:54:27.000Z</time>
      </trkpt>
      <trkpt lat="42.906687073409557342529296875" lon="-8.37009768001735210418701171875">
        <ele>295.600006103515625</ele>
        <time>2019-07-26T14:54:29.000Z</time>
      </trkpt>
      <trkpt lat="42.9066476784646511077880859375" lon="-8.3701435290277004241943359375">
        <ele>295.20001220703125</ele>
        <time>2019-07-26T14:54:30.000Z</time>
      </trkpt>
      <trkpt lat="42.90656268596649169921875" lon="-8.37019122205674648284912109375">
        <ele>294.20001220703125</ele>
        <time>2019-07-26T14:54:32.000Z</time>
      </trkpt>
      <trkpt lat="42.90645229630172252655029296875" lon="-8.37025375105440616607666015625">
        <ele>293.20001220703125</ele>
        <time>2019-07-26T14:54:34.000Z</time>
      </trkpt>
      <trkpt lat="42.9064019210636615753173828125" lon="-8.37031024508178234100341796875">
        <ele>292.79998779296875</ele>
        <time>2019-07-26T14:54:35.000Z</time>
      </trkpt>
      <trkpt lat="42.90637157857418060302734375" lon="-8.37037897668778896331787109375">
        <ele>292</ele>
        <time>2019-07-26T14:54:36.000Z</time>
      </trkpt>
      <trkpt lat="42.9063811339437961578369140625" lon="-8.3704704232513904571533203125">
        <ele>291</ele>
        <time>2019-07-26T14:54:37.000Z</time>
      </trkpt>
      <trkpt lat="42.90639781393110752105712890625" lon="-8.37054560892283916473388671875">
        <ele>290.20001220703125</ele>
        <time>2019-07-26T14:54:38.000Z</time>
      </trkpt>
      <trkpt lat="42.90642790496349334716796875" lon="-8.3706150949001312255859375">
        <ele>289.399993896484375</ele>
        <time>2019-07-26T14:54:39.000Z</time>
      </trkpt>
      <trkpt lat="42.90649739094078540802001953125" lon="-8.37075649760663509368896484375">
        <ele>288.20001220703125</ele>
        <time>2019-07-26T14:54:41.000Z</time>
      </trkpt>
      <trkpt lat="42.90652588941156864166259765625" lon="-8.370831348001956939697265625">
        <ele>288</ele>
        <time>2019-07-26T14:54:42.000Z</time>
      </trkpt>
      <trkpt lat="42.90654097683727741241455078125" lon="-8.3709803782403469085693359375">
        <ele>286.79998779296875</ele>
        <time>2019-07-26T14:54:44.000Z</time>
      </trkpt>
      <trkpt lat="42.90651650168001651763916015625" lon="-8.37106226943433284759521484375">
        <ele>286.600006103515625</ele>
        <time>2019-07-26T14:54:45.000Z</time>
      </trkpt>
      <trkpt lat="42.90636411868035793304443359375" lon="-8.37126678787171840667724609375">
        <ele>286.20001220703125</ele>
        <time>2019-07-26T14:54:48.000Z</time>
      </trkpt>
      <trkpt lat="42.9062805511057376861572265625" lon="-8.37134708650410175323486328125">
        <ele>285.399993896484375</ele>
        <time>2019-07-26T14:54:50.000Z</time>
      </trkpt>
      <trkpt lat="42.90625649504363536834716796875" lon="-8.37137441150844097137451171875">
        <ele>284.600006103515625</ele>
        <time>2019-07-26T14:54:51.000Z</time>
      </trkpt>
      <trkpt lat="42.90623168461024761199951171875" lon="-8.37140458635985851287841796875">
        <ele>283.600006103515625</ele>
        <time>2019-07-26T14:54:52.000Z</time>
      </trkpt>
      <trkpt lat="42.90616764687001705169677734375" lon="-8.3714745752513408660888671875">
        <ele>282.600006103515625</ele>
        <time>2019-07-26T14:54:54.000Z</time>
      </trkpt>
      <trkpt lat="42.90609170682728290557861328125" lon="-8.37156166322529315948486328125">
        <ele>281.399993896484375</ele>
        <time>2019-07-26T14:54:56.000Z</time>
      </trkpt>
      <trkpt lat="42.90600336156785488128662109375" lon="-8.371649421751499176025390625">
        <ele>280.20001220703125</ele>
        <time>2019-07-26T14:54:58.000Z</time>
      </trkpt>
      <trkpt lat="42.90586019866168498992919921875" lon="-8.37177339009940624237060546875">
        <ele>279.399993896484375</ele>
        <time>2019-07-26T14:55:01.000Z</time>
      </trkpt>
      <trkpt lat="42.9058232344686985015869140625" lon="-8.37182485498487949371337890625">
        <ele>279.20001220703125</ele>
        <time>2019-07-26T14:55:02.000Z</time>
      </trkpt>
      <trkpt lat="42.90580001659691333770751953125" lon="-8.3718822710216045379638671875">
        <ele>279.20001220703125</ele>
        <time>2019-07-26T14:55:03.000Z</time>
      </trkpt>
      <trkpt lat="42.90584024973213672637939453125" lon="-8.3719932474195957183837890625">
        <ele>279</ele>
        <time>2019-07-26T14:55:05.000Z</time>
      </trkpt>
      <trkpt lat="42.90596656501293182373046875" lon="-8.3721263520419597625732421875">
        <ele>278.600006103515625</ele>
        <time>2019-07-26T14:55:08.000Z</time>
      </trkpt>
      <trkpt lat="42.90604862384498119354248046875" lon="-8.37224126793444156646728515625">
        <ele>278.79998779296875</ele>
        <time>2019-07-26T14:55:10.000Z</time>
      </trkpt>
      <trkpt lat="42.90610847063362598419189453125" lon="-8.37238694541156291961669921875">
        <ele>278.79998779296875</ele>
        <time>2019-07-26T14:55:12.000Z</time>
      </trkpt>
      <trkpt lat="42.90611936710774898529052734375" lon="-8.37266321294009685516357421875">
        <ele>278.79998779296875</ele>
        <time>2019-07-26T14:55:16.000Z</time>
      </trkpt>
      <trkpt lat="42.9061045311391353607177734375" lon="-8.3728022687137126922607421875">
        <ele>278.79998779296875</ele>
        <time>2019-07-26T14:55:18.000Z</time>
      </trkpt>
      <trkpt lat="42.90608651004731655120849609375" lon="-8.37300905026495456695556640625">
        <ele>279</ele>
        <time>2019-07-26T14:55:21.000Z</time>
      </trkpt>
      <trkpt lat="42.90607980452477931976318359375" lon="-8.37306864559650421142578125">
        <ele>279</ele>
        <time>2019-07-26T14:55:22.000Z</time>
      </trkpt>
      <trkpt lat="42.90606471709907054901123046875" lon="-8.37312572635710239410400390625">
        <ele>279.20001220703125</ele>
        <time>2019-07-26T14:55:23.000Z</time>
      </trkpt>
      <trkpt lat="42.9059979133307933807373046875" lon="-8.37329437024891376495361328125">
        <ele>279.600006103515625</ele>
        <time>2019-07-26T14:55:26.000Z</time>
      </trkpt>
      <trkpt lat="42.9059533216059207916259765625" lon="-8.37346117012202739715576171875">
        <ele>280</ele>
        <time>2019-07-26T14:55:29.000Z</time>
      </trkpt>
      <trkpt lat="42.90592708624899387359619140625" lon="-8.37356560863554477691650390625">
        <ele>280.399993896484375</ele>
        <time>2019-07-26T14:55:31.000Z</time>
      </trkpt>
      <trkpt lat="42.905787527561187744140625" lon="-8.37388479150831699371337890625">
        <ele>281.20001220703125</ele>
        <time>2019-07-26T14:55:37.000Z</time>
      </trkpt>
      <trkpt lat="42.90574469603598117828369140625" lon="-8.37398101575672626495361328125">
        <ele>281.399993896484375</ele>
        <time>2019-07-26T14:55:39.000Z</time>
      </trkpt>
      <trkpt lat="42.9056601226329803466796875" lon="-8.37411210872232913970947265625">
        <ele>281.399993896484375</ele>
        <time>2019-07-26T14:55:42.000Z</time>
      </trkpt>
      <trkpt lat="42.90556557476520538330078125" lon="-8.37430187501013278961181640625">
        <ele>281.79998779296875</ele>
        <time>2019-07-26T14:55:47.000Z</time>
      </trkpt>
      <trkpt lat="42.90545962750911712646484375" lon="-8.37444772012531757354736328125">
        <ele>282</ele>
        <time>2019-07-26T14:55:52.000Z</time>
      </trkpt>
      <trkpt lat="42.90536583401262760162353515625" lon="-8.374535478651523590087890625">
        <ele>282.600006103515625</ele>
        <time>2019-07-26T14:55:55.000Z</time>
      </trkpt>
      <trkpt lat="42.90531621314585208892822265625" lon="-8.374609239399433135986328125">
        <ele>283</ele>
        <time>2019-07-26T14:55:57.000Z</time>
      </trkpt>
      <trkpt lat="42.90524144656956195831298828125" lon="-8.3747086487710475921630859375">
        <ele>283.79998779296875</ele>
        <time>2019-07-26T14:56:00.000Z</time>
      </trkpt>
      <trkpt lat="42.90511655621230602264404296875" lon="-8.374798335134983062744140625">
        <ele>284</ele>
        <time>2019-07-26T14:56:03.000Z</time>
      </trkpt>
      <trkpt lat="42.90495813824236392974853515625" lon="-8.3749466948211193084716796875">
        <ele>284.600006103515625</ele>
        <time>2019-07-26T14:56:07.000Z</time>
      </trkpt>
      <trkpt lat="42.90485613048076629638671875" lon="-8.37507485412061214447021484375">
        <ele>284.79998779296875</ele>
        <time>2019-07-26T14:56:10.000Z</time>
      </trkpt>
      <trkpt lat="42.9046742431819438934326171875" lon="-8.37536838836967945098876953125">
        <ele>285</ele>
        <time>2019-07-26T14:56:16.000Z</time>
      </trkpt>
      <trkpt lat="42.90460391901433467864990234375" lon="-8.37546343915164470672607421875">
        <ele>285</ele>
        <time>2019-07-26T14:56:19.000Z</time>
      </trkpt>
      <trkpt lat="42.9045577347278594970703125" lon="-8.37553133256733417510986328125">
        <ele>285.20001220703125</ele>
        <time>2019-07-26T14:56:22.000Z</time>
      </trkpt>
      <trkpt lat="42.904494367539882659912109375" lon="-8.3756028302013874053955078125">
        <ele>285.399993896484375</ele>
        <time>2019-07-26T14:56:26.000Z</time>
      </trkpt>
      <trkpt lat="42.904454804956912994384765625" lon="-8.37564063258469104766845703125">
        <ele>285.399993896484375</ele>
        <time>2019-07-26T14:56:28.000Z</time>
      </trkpt>
      <trkpt lat="42.90443309582769870758056640625" lon="-8.37565924040973186492919921875">
        <ele>285.399993896484375</ele>
        <time>2019-07-26T14:56:29.000Z</time>
      </trkpt>
      <trkpt lat="42.90440526790916919708251953125" lon="-8.37570852600038051605224609375">
        <ele>285.600006103515625</ele>
        <time>2019-07-26T14:56:31.000Z</time>
      </trkpt>
      <trkpt lat="42.90439034812152385711669921875" lon="-8.375738449394702911376953125">
        <ele>285.600006103515625</ele>
        <time>2019-07-26T14:56:32.000Z</time>
      </trkpt>
      <trkpt lat="42.90436930954456329345703125" lon="-8.37576502002775669097900390625">
        <ele>285.600006103515625</ele>
        <time>2019-07-26T14:56:33.000Z</time>
      </trkpt>
      <trkpt lat="42.9043242149055004119873046875" lon="-8.37582034058868885040283203125">
        <ele>285.79998779296875</ele>
        <time>2019-07-26T14:56:35.000Z</time>
      </trkpt>
      <trkpt lat="42.904264368116855621337890625" lon="-8.3759595640003681182861328125">
        <ele>286.20001220703125</ele>
        <time>2019-07-26T14:56:39.000Z</time>
      </trkpt>
      <trkpt lat="42.90419471450150012969970703125" lon="-8.37615452706813812255859375">
        <ele>286.399993896484375</ele>
        <time>2019-07-26T14:56:44.000Z</time>
      </trkpt>
      <trkpt lat="42.90413729846477508544921875" lon="-8.3764054812490940093994140625">
        <ele>286.79998779296875</ele>
        <time>2019-07-26T14:56:49.000Z</time>
      </trkpt>
      <trkpt lat="42.904086001217365264892578125" lon="-8.3766877837479114532470703125">
        <ele>287.399993896484375</ele>
        <time>2019-07-26T14:56:55.000Z</time>
      </trkpt>
      <trkpt lat="42.904009558260440826416015625" lon="-8.37686472572386264801025390625">
        <ele>287.79998779296875</ele>
        <time>2019-07-26T14:56:59.000Z</time>
      </trkpt>
      <trkpt lat="42.903964631259441375732421875" lon="-8.376942761242389678955078125">
        <ele>287.79998779296875</ele>
        <time>2019-07-26T14:57:01.000Z</time>
      </trkpt>
      <trkpt lat="42.90391978807747364044189453125" lon="-8.3771028555929660797119140625">
        <ele>288.399993896484375</ele>
        <time>2019-07-26T14:57:05.000Z</time>
      </trkpt>
      <trkpt lat="42.90387586690485477447509765625" lon="-8.37717502377927303314208984375">
        <ele>288.600006103515625</ele>
        <time>2019-07-26T14:57:07.000Z</time>
      </trkpt>
      <trkpt lat="42.90381534956395626068115234375" lon="-8.3772937953472137451171875">
        <ele>288.79998779296875</ele>
        <time>2019-07-26T14:57:10.000Z</time>
      </trkpt>
      <trkpt lat="42.9037884436547756195068359375" lon="-8.377365879714488983154296875">
        <ele>289.20001220703125</ele>
        <time>2019-07-26T14:57:12.000Z</time>
      </trkpt>
      <trkpt lat="42.90374577976763248443603515625" lon="-8.37758808396756649017333984375">
        <ele>289.79998779296875</ele>
        <time>2019-07-26T14:57:17.000Z</time>
      </trkpt>
      <trkpt lat="42.90374997071921825408935546875" lon="-8.37769084610044956207275390625">
        <ele>290</ele>
        <time>2019-07-26T14:57:19.000Z</time>
      </trkpt>
      <trkpt lat="42.90374913252890110015869140625" lon="-8.377893604338169097900390625">
        <ele>290.399993896484375</ele>
        <time>2019-07-26T14:57:23.000Z</time>
      </trkpt>
      <trkpt lat="42.903703786432743072509765625" lon="-8.37807498872280120849609375">
        <ele>291</ele>
        <time>2019-07-26T14:57:27.000Z</time>
      </trkpt>
      <trkpt lat="42.903691716492176055908203125" lon="-8.3782699517905712127685546875">
        <ele>291.399993896484375</ele>
        <time>2019-07-26T14:57:30.000Z</time>
      </trkpt>
      <trkpt lat="42.9036231525242328643798828125" lon="-8.3785351552069187164306640625">
        <ele>292.20001220703125</ele>
        <time>2019-07-26T14:57:35.000Z</time>
      </trkpt>
      <trkpt lat="42.90361586026847362518310546875" lon="-8.37863062508404254913330078125">
        <ele>292.399993896484375</ele>
        <time>2019-07-26T14:57:37.000Z</time>
      </trkpt>
      <trkpt lat="42.9036028683185577392578125" lon="-8.37881485931575298309326171875">
        <ele>293.20001220703125</ele>
        <time>2019-07-26T14:57:41.000Z</time>
      </trkpt>
      <trkpt lat="42.90359272621572017669677734375" lon="-8.37891963310539722442626953125">
        <ele>293.399993896484375</ele>
        <time>2019-07-26T14:57:43.000Z</time>
      </trkpt>
      <trkpt lat="42.9035698436200618743896484375" lon="-8.3792415820062160491943359375">
        <ele>293.600006103515625</ele>
        <time>2019-07-26T14:57:49.000Z</time>
      </trkpt>
      <trkpt lat="42.90356506593525409698486328125" lon="-8.37952614761888980865478515625">
        <ele>294</ele>
        <time>2019-07-26T14:57:55.000Z</time>
      </trkpt>
      <trkpt lat="42.9035742022097110748291015625" lon="-8.379736281931400299072265625">
        <ele>294.399993896484375</ele>
        <time>2019-07-26T14:57:59.000Z</time>
      </trkpt>
      <trkpt lat="42.90359004400670528411865234375" lon="-8.37981280870735645294189453125">
        <ele>294.600006103515625</ele>
        <time>2019-07-26T14:58:00.000Z</time>
      </trkpt>
      <trkpt lat="42.90372532792389392852783203125" lon="-8.380198962986469268798828125">
        <ele>295.399993896484375</ele>
        <time>2019-07-26T14:58:05.000Z</time>
      </trkpt>
      <trkpt lat="42.903738655149936676025390625" lon="-8.3802909962832927703857421875">
        <ele>295.600006103515625</ele>
        <time>2019-07-26T14:58:07.000Z</time>
      </trkpt>
      <trkpt lat="42.9037411697208881378173828125" lon="-8.38047212921082973480224609375">
        <ele>296.20001220703125</ele>
        <time>2019-07-26T14:58:10.000Z</time>
      </trkpt>
      <trkpt lat="42.9037394933402538299560546875" lon="-8.3806899748742580413818359375">
        <ele>296.399993896484375</ele>
        <time>2019-07-26T14:58:13.000Z</time>
      </trkpt>
      <trkpt lat="42.90374628268182277679443359375" lon="-8.3807691000401973724365234375">
        <ele>296.399993896484375</ele>
        <time>2019-07-26T14:58:14.000Z</time>
      </trkpt>
      <trkpt lat="42.90374326519668102264404296875" lon="-8.3809223212301731109619140625">
        <ele>296.399993896484375</ele>
        <time>2019-07-26T14:58:16.000Z</time>
      </trkpt>
      <trkpt lat="42.90373002178966999053955078125" lon="-8.38117696344852447509765625">
        <ele>296.399993896484375</ele>
        <time>2019-07-26T14:58:19.000Z</time>
      </trkpt>
      <trkpt lat="42.90365676395595073699951171875" lon="-8.38136413134634494781494140625">
        <ele>296.20001220703125</ele>
        <time>2019-07-26T14:58:22.000Z</time>
      </trkpt>
      <trkpt lat="42.9036431014537811279296875" lon="-8.38143722154200077056884765625">
        <ele>295.79998779296875</ele>
        <time>2019-07-26T14:58:23.000Z</time>
      </trkpt>
      <trkpt lat="42.903647460043430328369140625" lon="-8.38157619349658489227294921875">
        <ele>295.399993896484375</ele>
        <time>2019-07-26T14:58:25.000Z</time>
      </trkpt>
      <trkpt lat="42.9036590270698070526123046875" lon="-8.38162816129624843597412109375">
        <ele>295.20001220703125</ele>
        <time>2019-07-26T14:58:26.000Z</time>
      </trkpt>
      <trkpt lat="42.90368123911321163177490234375" lon="-8.38170401751995086669921875">
        <ele>294.399993896484375</ele>
        <time>2019-07-26T14:58:28.000Z</time>
      </trkpt>
      <trkpt lat="42.9036955721676349639892578125" lon="-8.3817799575626850128173828125">
        <ele>293.399993896484375</ele>
        <time>2019-07-26T14:58:31.000Z</time>
      </trkpt>
      <trkpt lat="42.90369967930018901824951171875" lon="-8.38180770166218280792236328125">
        <ele>293</ele>
        <time>2019-07-26T14:58:32.000Z</time>
      </trkpt>
      <trkpt lat="42.903713844716548919677734375" lon="-8.38189939968287944793701171875">
        <ele>292.399993896484375</ele>
        <time>2019-07-26T14:58:35.000Z</time>
      </trkpt>
      <trkpt lat="42.90372448973357677459716796875" lon="-8.38195757009088993072509765625">
        <ele>292.399993896484375</ele>
        <time>2019-07-26T14:58:37.000Z</time>
      </trkpt>
      <trkpt lat="42.9037700034677982330322265625" lon="-8.382200561463832855224609375">
        <ele>292.399993896484375</ele>
        <time>2019-07-26T14:58:43.000Z</time>
      </trkpt>
      <trkpt lat="42.903819791972637176513671875" lon="-8.3824173174798488616943359375">
        <ele>293</ele>
        <time>2019-07-26T14:58:47.000Z</time>
      </trkpt>
      <trkpt lat="42.90384091436862945556640625" lon="-8.38248847983777523040771484375">
        <ele>293</ele>
        <time>2019-07-26T14:58:48.000Z</time>
      </trkpt>
      <trkpt lat="42.90388676337897777557373046875" lon="-8.382646143436431884765625">
        <ele>293.20001220703125</ele>
        <time>2019-07-26T14:58:50.000Z</time>
      </trkpt>
      <trkpt lat="42.90393504314124584197998046875" lon="-8.38281889446079730987548828125">
        <ele>293.20001220703125</ele>
        <time>2019-07-26T14:58:52.000Z</time>
      </trkpt>
      <trkpt lat="42.90395348332822322845458984375" lon="-8.38291076011955738067626953125">
        <ele>293.399993896484375</ele>
        <time>2019-07-26T14:58:53.000Z</time>
      </trkpt>
      <trkpt lat="42.90399690158665180206298828125" lon="-8.38309516198933124542236328125">
        <ele>293.399993896484375</ele>
        <time>2019-07-26T14:58:55.000Z</time>
      </trkpt>
      <trkpt lat="42.9040442593395709991455078125" lon="-8.3832638897001743316650390625">
        <ele>293.399993896484375</ele>
        <time>2019-07-26T14:58:57.000Z</time>
      </trkpt>
      <trkpt lat="42.9040895216166973114013671875" lon="-8.3834164403378963470458984375">
        <ele>293.600006103515625</ele>
        <time>2019-07-26T14:58:59.000Z</time>
      </trkpt>
      <trkpt lat="42.9041267372667789459228515625" lon="-8.38355599902570247650146484375">
        <ele>294.399993896484375</ele>
        <time>2019-07-26T14:59:01.000Z</time>
      </trkpt>
      <trkpt lat="42.9042202793061733245849609375" lon="-8.3839314244687557220458984375">
        <ele>295.399993896484375</ele>
        <time>2019-07-26T14:59:07.000Z</time>
      </trkpt>
      <trkpt lat="42.904239557683467864990234375" lon="-8.383988924324512481689453125">
        <ele>295.399993896484375</ele>
        <time>2019-07-26T14:59:08.000Z</time>
      </trkpt>
      <trkpt lat="42.90426076389849185943603515625" lon="-8.3840574882924556732177734375">
        <ele>295.399993896484375</ele>
        <time>2019-07-26T14:59:09.000Z</time>
      </trkpt>
      <trkpt lat="42.9043047688901424407958984375" lon="-8.38420274667441844940185546875">
        <ele>295.600006103515625</ele>
        <time>2019-07-26T14:59:11.000Z</time>
      </trkpt>
      <trkpt lat="42.90440208278596401214599609375" lon="-8.38451505638659000396728515625">
        <ele>296</ele>
        <time>2019-07-26T14:59:16.000Z</time>
      </trkpt>
      <trkpt lat="42.90447567589581012725830078125" lon="-8.38469468057155609130859375">
        <ele>296.600006103515625</ele>
        <time>2019-07-26T14:59:20.000Z</time>
      </trkpt>
      <trkpt lat="42.90452026762068271636962890625" lon="-8.38478528894484043121337890625">
        <ele>296.79998779296875</ele>
        <time>2019-07-26T14:59:22.000Z</time>
      </trkpt>
      <trkpt lat="42.904643230140209197998046875" lon="-8.38505133055150508880615234375">
        <ele>297.79998779296875</ele>
        <time>2019-07-26T14:59:28.000Z</time>
      </trkpt>
      <trkpt lat="42.90471942164003849029541015625" lon="-8.385215699672698974609375">
        <ele>298.79998779296875</ele>
        <time>2019-07-26T14:59:32.000Z</time>
      </trkpt>
      <trkpt lat="42.9047483392059803009033203125" lon="-8.38530211709439754486083984375">
        <ele>299.20001220703125</ele>
        <time>2019-07-26T14:59:34.000Z</time>
      </trkpt>
      <trkpt lat="42.9048107005655765533447265625" lon="-8.3854565955698490142822265625">
        <ele>300</ele>
        <time>2019-07-26T14:59:37.000Z</time>
      </trkpt>
      <trkpt lat="42.90485688485205173492431640625" lon="-8.38562599383294582366943359375">
        <ele>300.399993896484375</ele>
        <time>2019-07-26T14:59:40.000Z</time>
      </trkpt>
      <trkpt lat="42.9048814438283443450927734375" lon="-8.385765217244625091552734375">
        <ele>300.20001220703125</ele>
        <time>2019-07-26T14:59:42.000Z</time>
      </trkpt>
      <trkpt lat="42.90489410050213336944580078125" lon="-8.38591852225363254547119140625">
        <ele>300.20001220703125</ele>
        <time>2019-07-26T14:59:44.000Z</time>
      </trkpt>
      <trkpt lat="42.90488387458026409149169921875" lon="-8.38599245063960552215576171875">
        <ele>300.20001220703125</ele>
        <time>2019-07-26T14:59:45.000Z</time>
      </trkpt>
      <trkpt lat="42.90481078438460826873779296875" lon="-8.38613812811672687530517578125">
        <ele>300.20001220703125</ele>
        <time>2019-07-26T14:59:47.000Z</time>
      </trkpt>
      <trkpt lat="42.904767952859401702880859375" lon="-8.38620635680854320526123046875">
        <ele>300.20001220703125</ele>
        <time>2019-07-26T14:59:48.000Z</time>
      </trkpt>
      <trkpt lat="42.9046598263084888458251953125" lon="-8.38631817139685153961181640625">
        <ele>300.20001220703125</ele>
        <time>2019-07-26T14:59:50.000Z</time>
      </trkpt>
      <trkpt lat="42.90454055182635784149169921875" lon="-8.38643920607864856719970703125">
        <ele>300.20001220703125</ele>
        <time>2019-07-26T14:59:52.000Z</time>
      </trkpt>
      <trkpt lat="42.90447165258228778839111328125" lon="-8.386497795581817626953125">
        <ele>300</ele>
        <time>2019-07-26T14:59:53.000Z</time>
      </trkpt>
      <trkpt lat="42.90432195179164409637451171875" lon="-8.38659795932471752166748046875">
        <ele>299.600006103515625</ele>
        <time>2019-07-26T14:59:55.000Z</time>
      </trkpt>
      <trkpt lat="42.90423662401735782623291015625" lon="-8.3866448141634464263916015625">
        <ele>299.399993896484375</ele>
        <time>2019-07-26T14:59:56.000Z</time>
      </trkpt>
      <trkpt lat="42.904051803052425384521484375" lon="-8.3867202512919902801513671875">
        <ele>297.600006103515625</ele>
        <time>2019-07-26T14:59:58.000Z</time>
      </trkpt>
      <trkpt lat="42.90395264513790607452392578125" lon="-8.38675470091402530670166015625">
        <ele>296.600006103515625</ele>
        <time>2019-07-26T14:59:59.000Z</time>
      </trkpt>
      <trkpt lat="42.903850972652435302734375" lon="-8.3867914974689483642578125">
        <ele>295.600006103515625</ele>
        <time>2019-07-26T15:00:00.000Z</time>
      </trkpt>
      <trkpt lat="42.90375030599534511566162109375" lon="-8.38683952577412128448486328125">
        <ele>294.79998779296875</ele>
        <time>2019-07-26T15:00:01.000Z</time>
      </trkpt>
      <trkpt lat="42.903647460043430328369140625" lon="-8.38689065538346767425537109375">
        <ele>294.20001220703125</ele>
        <time>2019-07-26T15:00:02.000Z</time>
      </trkpt>
      <trkpt lat="42.90346515364944934844970703125" lon="-8.38698369450867176055908203125">
        <ele>293</ele>
        <time>2019-07-26T15:00:04.000Z</time>
      </trkpt>
      <trkpt lat="42.90338736958801746368408203125" lon="-8.38702443055808544158935546875">
        <ele>292.399993896484375</ele>
        <time>2019-07-26T15:00:05.000Z</time>
      </trkpt>
      <trkpt lat="42.90332190692424774169921875" lon="-8.387073464691638946533203125">
        <ele>291.399993896484375</ele>
        <time>2019-07-26T15:00:06.000Z</time>
      </trkpt>
      <trkpt lat="42.903277985751628875732421875" lon="-8.38724336586892604827880859375">
        <ele>289.600006103515625</ele>
        <time>2019-07-26T15:00:08.000Z</time>
      </trkpt>
      <trkpt lat="42.90331612341105937957763671875" lon="-8.3874236606061458587646484375">
        <ele>288.399993896484375</ele>
        <time>2019-07-26T15:00:10.000Z</time>
      </trkpt>
      <trkpt lat="42.90334470570087432861328125" lon="-8.38750940747559070587158203125">
        <ele>287.399993896484375</ele>
        <time>2019-07-26T15:00:11.000Z</time>
      </trkpt>
      <trkpt lat="42.90339726023375988006591796875" lon="-8.3876793086528778076171875">
        <ele>285.399993896484375</ele>
        <time>2019-07-26T15:00:13.000Z</time>
      </trkpt>
      <trkpt lat="42.9034473001956939697265625" lon="-8.38785205967724323272705078125">
        <ele>284.20001220703125</ele>
        <time>2019-07-26T15:00:15.000Z</time>
      </trkpt>
      <trkpt lat="42.9035460390150547027587890625" lon="-8.3882129006087779998779296875">
        <ele>283.20001220703125</ele>
        <time>2019-07-26T15:00:19.000Z</time>
      </trkpt>
      <trkpt lat="42.90357361547648906707763671875" lon="-8.38830359280109405517578125">
        <ele>283.20001220703125</ele>
        <time>2019-07-26T15:00:20.000Z</time>
      </trkpt>
      <trkpt lat="42.9037208855152130126953125" lon="-8.38877960108220577239990234375">
        <ele>281.79998779296875</ele>
        <time>2019-07-26T15:00:25.000Z</time>
      </trkpt>
      <trkpt lat="42.90375617332756519317626953125" lon="-8.3888801001012325286865234375">
        <ele>281.600006103515625</ele>
        <time>2019-07-26T15:00:26.000Z</time>
      </trkpt>
      <trkpt lat="42.9038373939692974090576171875" lon="-8.3890802599489688873291015625">
        <ele>281.399993896484375</ele>
        <time>2019-07-26T15:00:28.000Z</time>
      </trkpt>
      <trkpt lat="42.903946526348590850830078125" lon="-8.38926407508552074432373046875">
        <ele>280.600006103515625</ele>
        <time>2019-07-26T15:00:30.000Z</time>
      </trkpt>
      <trkpt lat="42.90408172644674777984619140625" lon="-8.38943414390087127685546875">
        <ele>279.399993896484375</ele>
        <time>2019-07-26T15:00:32.000Z</time>
      </trkpt>
      <trkpt lat="42.9041565768420696258544921875" lon="-8.38951486162841320037841796875">
        <ele>279</ele>
        <time>2019-07-26T15:00:33.000Z</time>
      </trkpt>
      <trkpt lat="42.90422958321869373321533203125" lon="-8.38959951885044574737548828125">
        <ele>278.399993896484375</ele>
        <time>2019-07-26T15:00:34.000Z</time>
      </trkpt>
      <trkpt lat="42.904294542968273162841796875" lon="-8.389691971242427825927734375">
        <ele>278.20001220703125</ele>
        <time>2019-07-26T15:00:35.000Z</time>
      </trkpt>
      <trkpt lat="42.9043922759592533111572265625" lon="-8.38990093208849430084228515625">
        <ele>277.79998779296875</ele>
        <time>2019-07-26T15:00:37.000Z</time>
      </trkpt>
      <trkpt lat="42.90444415993988513946533203125" lon="-8.39025196619331836700439453125">
        <ele>277.20001220703125</ele>
        <time>2019-07-26T15:00:40.000Z</time>
      </trkpt>
      <trkpt lat="42.90444533340632915496826171875" lon="-8.3903690613806247711181640625">
        <ele>276.79998779296875</ele>
        <time>2019-07-26T15:00:41.000Z</time>
      </trkpt>
      <trkpt lat="42.90444097481667995452880859375" lon="-8.39059998281300067901611328125">
        <ele>275.600006103515625</ele>
        <time>2019-07-26T15:00:43.000Z</time>
      </trkpt>
      <trkpt lat="42.90444432757794857025146484375" lon="-8.3907086960971355438232421875">
        <ele>275</ele>
        <time>2019-07-26T15:00:44.000Z</time>
      </trkpt>
      <trkpt lat="42.9044579900801181793212890625" lon="-8.3908129669725894927978515625">
        <ele>274.399993896484375</ele>
        <time>2019-07-26T15:00:45.000Z</time>
      </trkpt>
      <trkpt lat="42.90451859124004840850830078125" lon="-8.3910044096410274505615234375">
        <ele>272.600006103515625</ele>
        <time>2019-07-26T15:00:47.000Z</time>
      </trkpt>
      <trkpt lat="42.9045589081943035125732421875" lon="-8.39107892476022243499755859375">
        <ele>272</ele>
        <time>2019-07-26T15:00:48.000Z</time>
      </trkpt>
      <trkpt lat="42.904591262340545654296875" lon="-8.391147069633007049560546875">
        <ele>271.399993896484375</ele>
        <time>2019-07-26T15:00:49.000Z</time>
      </trkpt>
      <trkpt lat="42.90460777468979358673095703125" lon="-8.3912112750113010406494140625">
        <ele>271</ele>
        <time>2019-07-26T15:00:50.000Z</time>
      </trkpt>
      <trkpt lat="42.90460576303303241729736328125" lon="-8.39127422310411930084228515625">
        <ele>270.20001220703125</ele>
        <time>2019-07-26T15:00:51.000Z</time>
      </trkpt>
      <trkpt lat="42.90455840528011322021484375" lon="-8.39137530885636806488037109375">
        <ele>269.20001220703125</ele>
        <time>2019-07-26T15:00:53.000Z</time>
      </trkpt>
      <trkpt lat="42.90452881716191768646240234375" lon="-8.3914104290306568145751953125">
        <ele>268.79998779296875</ele>
        <time>2019-07-26T15:00:54.000Z</time>
      </trkpt>
      <trkpt lat="42.90450233034789562225341796875" lon="-8.39144219644367694854736328125">
        <ele>266.600006103515625</ele>
        <time>2019-07-26T15:00:55.000Z</time>
      </trkpt>
      <trkpt lat="42.90447886101901531219482421875" lon="-8.39146851561963558197021484375">
        <ele>265.20001220703125</ele>
        <time>2019-07-26T15:00:56.000Z</time>
      </trkpt>
      <trkpt lat="42.9044566489756107330322265625" lon="-8.39148594997823238372802734375">
        <ele>264</ele>
        <time>2019-07-26T15:00:57.000Z</time>
      </trkpt>
      <trkpt lat="42.90443778969347476959228515625" lon="-8.391483016312122344970703125">
        <ele>263</ele>
        <time>2019-07-26T15:00:58.000Z</time>
      </trkpt>
      <trkpt lat="42.90443376637995243072509765625" lon="-8.39146583341062068939208984375">
        <ele>262.399993896484375</ele>
        <time>2019-07-26T15:00:59.000Z</time>
      </trkpt>
      <trkpt lat="42.9044630192220211029052734375" lon="-8.39140950702130794525146484375">
        <ele>262</ele>
        <time>2019-07-26T15:01:01.000Z</time>
      </trkpt>
      <trkpt lat="42.904491014778614044189453125" lon="-8.391380421817302703857421875">
        <ele>261.79998779296875</ele>
        <time>2019-07-26T15:01:02.000Z</time>
      </trkpt>
      <trkpt lat="42.9045589081943035125732421875" lon="-8.39131328277289867401123046875">
        <ele>261.600006103515625</ele>
        <time>2019-07-26T15:01:04.000Z</time>
      </trkpt>
      <trkpt lat="42.90466896258294582366943359375" lon="-8.39120574295520782470703125">
        <ele>261.600006103515625</ele>
        <time>2019-07-26T15:01:07.000Z</time>
      </trkpt>
      <trkpt lat="42.90471288375556468963623046875" lon="-8.39117732830345630645751953125">
        <ele>261.600006103515625</ele>
        <time>2019-07-26T15:01:08.000Z</time>
      </trkpt>
      <trkpt lat="42.9047563858330249786376953125" lon="-8.3911562897264957427978515625">
        <ele>261.399993896484375</ele>
        <time>2019-07-26T15:01:09.000Z</time>
      </trkpt>
      <trkpt lat="42.90484414435923099517822265625" lon="-8.391158469021320343017578125">
        <ele>261.399993896484375</ele>
        <time>2019-07-26T15:01:11.000Z</time>
      </trkpt>
      <trkpt lat="42.90494573302567005157470703125" lon="-8.391215801239013671875">
        <ele>261.399993896484375</ele>
        <time>2019-07-26T15:01:13.000Z</time>
      </trkpt>
      <trkpt lat="42.9050420410931110382080078125" lon="-8.39129366911947727203369140625">
        <ele>261.399993896484375</ele>
        <time>2019-07-26T15:01:15.000Z</time>
      </trkpt>
      <trkpt lat="42.905092500150203704833984375" lon="-8.39134245179593563079833984375">
        <ele>261.399993896484375</ele>
        <time>2019-07-26T15:01:16.000Z</time>
      </trkpt>
      <trkpt lat="42.90534420870244503021240234375" lon="-8.39160363189876079559326171875">
        <ele>261.20001220703125</ele>
        <time>2019-07-26T15:01:21.000Z</time>
      </trkpt>
      <trkpt lat="42.90538427419960498809814453125" lon="-8.3916709385812282562255859375">
        <ele>261</ele>
        <time>2019-07-26T15:01:22.000Z</time>
      </trkpt>
      <trkpt lat="42.90545032359659671783447265625" lon="-8.39182265102863311767578125">
        <ele>260.399993896484375</ele>
        <time>2019-07-26T15:01:24.000Z</time>
      </trkpt>
      <trkpt lat="42.905561886727809906005859375" lon="-8.39214141480624675750732421875">
        <ele>259.79998779296875</ele>
        <time>2019-07-26T15:01:28.000Z</time>
      </trkpt>
      <trkpt lat="42.9057132638990879058837890625" lon="-8.39253880083560943603515625">
        <ele>259.79998779296875</ele>
        <time>2019-07-26T15:01:33.000Z</time>
      </trkpt>
      <trkpt lat="42.90576581843197345733642578125" lon="-8.39268623851239681243896484375">
        <ele>259.79998779296875</ele>
        <time>2019-07-26T15:01:35.000Z</time>
      </trkpt>
      <trkpt lat="42.90589842014014720916748046875" lon="-8.3931236900389194488525390625">
        <ele>260</ele>
        <time>2019-07-26T15:01:41.000Z</time>
      </trkpt>
      <trkpt lat="42.9059766232967376708984375" lon="-8.39341429062187671661376953125">
        <ele>260</ele>
        <time>2019-07-26T15:01:45.000Z</time>
      </trkpt>
      <trkpt lat="42.905974276363849639892578125" lon="-8.39354462921619415283203125">
        <ele>260</ele>
        <time>2019-07-26T15:01:47.000Z</time>
      </trkpt>
      <trkpt lat="42.90594234131276607513427734375" lon="-8.3936604671180248260498046875">
        <ele>260</ele>
        <time>2019-07-26T15:01:49.000Z</time>
      </trkpt>
      <trkpt lat="42.90591451339423656463623046875" lon="-8.39379751123487949371337890625">
        <ele>260</ele>
        <time>2019-07-26T15:01:51.000Z</time>
      </trkpt>
      <trkpt lat="42.9059060476720333099365234375" lon="-8.39393782429397106170654296875">
        <ele>260</ele>
        <time>2019-07-26T15:01:53.000Z</time>
      </trkpt>
      <trkpt lat="42.90594913065433502197265625" lon="-8.39400839991867542266845703125">
        <ele>260</ele>
        <time>2019-07-26T15:01:55.000Z</time>
      </trkpt>
      <trkpt lat="42.90598358027637004852294921875" lon="-8.39410931803286075592041015625">
        <ele>260</ele>
        <time>2019-07-26T15:01:58.000Z</time>
      </trkpt>
      <trkpt lat="42.90599380619823932647705078125" lon="-8.3941781334578990936279296875">
        <ele>260.20001220703125</ele>
        <time>2019-07-26T15:02:00.000Z</time>
      </trkpt>
      <trkpt lat="42.90599196217954158782958984375" lon="-8.394277207553386688232421875">
        <ele>260.20001220703125</ele>
        <time>2019-07-26T15:02:03.000Z</time>
      </trkpt>
      <trkpt lat="42.9059808142483234405517578125" lon="-8.39435038156807422637939453125">
        <ele>260.20001220703125</ele>
        <time>2019-07-26T15:02:05.000Z</time>
      </trkpt>
      <trkpt lat="42.90593169629573822021484375" lon="-8.39455322362482547760009765625">
        <ele>261.79998779296875</ele>
        <time>2019-07-26T15:02:11.000Z</time>
      </trkpt>
      <trkpt lat="42.90592691861093044281005859375" lon="-8.39458532631397247314453125">
        <ele>262.20001220703125</ele>
        <time>2019-07-26T15:02:12.000Z</time>
      </trkpt>
      <trkpt lat="42.90590261109173297882080078125" lon="-8.39466285891830921173095703125">
        <ele>263</ele>
        <time>2019-07-26T15:02:15.000Z</time>
      </trkpt>
      <trkpt lat="42.9058708436787128448486328125" lon="-8.39475673623383045196533203125">
        <ele>263.600006103515625</ele>
        <time>2019-07-26T15:02:18.000Z</time>
      </trkpt>
      <trkpt lat="42.9058483801782131195068359375" lon="-8.39485899545252323150634765625">
        <ele>264</ele>
        <time>2019-07-26T15:02:21.000Z</time>
      </trkpt>
      <trkpt lat="42.90582633577287197113037109375" lon="-8.39496645145118236541748046875">
        <ele>264.399993896484375</ele>
        <time>2019-07-26T15:02:24.000Z</time>
      </trkpt>
      <trkpt lat="42.905816026031970977783203125" lon="-8.3951273001730442047119140625">
        <ele>264.79998779296875</ele>
        <time>2019-07-26T15:02:28.000Z</time>
      </trkpt>
      <trkpt lat="42.90578945539891719818115234375" lon="-8.3951923437416553497314453125">
        <ele>265</ele>
        <time>2019-07-26T15:02:30.000Z</time>
      </trkpt>
      <trkpt lat="42.90577688254415988922119140625" lon="-8.39522511698305606842041015625">
        <ele>265</ele>
        <time>2019-07-26T15:02:31.000Z</time>
      </trkpt>
      <trkpt lat="42.9057749547064304351806640625" lon="-8.39542410336434841156005859375">
        <ele>265.399993896484375</ele>
        <time>2019-07-26T15:02:36.000Z</time>
      </trkpt>
      <trkpt lat="42.9057223163545131683349609375" lon="-8.3956734649837017059326171875">
        <ele>266.20001220703125</ele>
        <time>2019-07-26T15:02:42.000Z</time>
      </trkpt>
      <trkpt lat="42.9056944884359836578369140625" lon="-8.3958756364881992340087890625">
        <ele>267</ele>
        <time>2019-07-26T15:02:49.000Z</time>
      </trkpt>
      <trkpt lat="42.90569021366536617279052734375" lon="-8.39593104086816310882568359375">
        <ele>267.20001220703125</ele>
        <time>2019-07-26T15:02:50.000Z</time>
      </trkpt>
      <trkpt lat="42.90567495860159397125244140625" lon="-8.396174870431423187255859375">
        <ele>268.399993896484375</ele>
        <time>2019-07-26T15:02:55.000Z</time>
      </trkpt>
      <trkpt lat="42.90567554533481597900390625" lon="-8.39640294201672077178955078125">
        <ele>269.399993896484375</ele>
        <time>2019-07-26T15:03:00.000Z</time>
      </trkpt>
      <trkpt lat="42.90567152202129364013671875" lon="-8.39644300751388072967529296875">
        <ele>269.600006103515625</ele>
        <time>2019-07-26T15:03:01.000Z</time>
      </trkpt>
      <trkpt lat="42.9056371562182903289794921875" lon="-8.39666613377630710601806640625">
        <ele>270.600006103515625</ele>
        <time>2019-07-26T15:03:06.000Z</time>
      </trkpt>
      <trkpt lat="42.90562667883932590484619140625" lon="-8.39670686982572078704833984375">
        <ele>270.79998779296875</ele>
        <time>2019-07-26T15:03:07.000Z</time>
      </trkpt>
      <trkpt lat="42.90559214539825916290283203125" lon="-8.3969302475452423095703125">
        <ele>271.79998779296875</ele>
        <time>2019-07-26T15:03:13.000Z</time>
      </trkpt>
      <trkpt lat="42.905568592250347137451171875" lon="-8.3970890007913112640380859375">
        <ele>273</ele>
        <time>2019-07-26T15:03:18.000Z</time>
      </trkpt>
      <trkpt lat="42.9055768065154552459716796875" lon="-8.39715681038796901702880859375">
        <ele>273.20001220703125</ele>
        <time>2019-07-26T15:03:20.000Z</time>
      </trkpt>
      <trkpt lat="42.905576638877391815185546875" lon="-8.39725655503571033477783203125">
        <ele>274.20001220703125</ele>
        <time>2019-07-26T15:03:24.000Z</time>
      </trkpt>
      <trkpt lat="42.905565239489078521728515625" lon="-8.3973344229161739349365234375">
        <ele>275</ele>
        <time>2019-07-26T15:03:27.000Z</time>
      </trkpt>
      <trkpt lat="42.90555593557655811309814453125" lon="-8.39738152921199798583984375">
        <ele>275.399993896484375</ele>
        <time>2019-07-26T15:03:29.000Z</time>
      </trkpt>
      <trkpt lat="42.9055509902536869049072265625" lon="-8.39746199548244476318359375">
        <ele>276.600006103515625</ele>
        <time>2019-07-26T15:03:33.000Z</time>
      </trkpt>
      <trkpt lat="42.90555861778557300567626953125" lon="-8.397510610520839691162109375">
        <ele>277</ele>
        <time>2019-07-26T15:03:35.000Z</time>
      </trkpt>
      <trkpt lat="42.90555845014750957489013671875" lon="-8.39759183116257190704345703125">
        <ele>277.79998779296875</ele>
        <time>2019-07-26T15:03:38.000Z</time>
      </trkpt>
      <trkpt lat="42.9055503197014331817626953125" lon="-8.397650085389614105224609375">
        <ele>279</ele>
        <time>2019-07-26T15:03:41.000Z</time>
      </trkpt>
      <trkpt lat="42.90554705075919628143310546875" lon="-8.397668190300464630126953125">
        <ele>279.20001220703125</ele>
        <time>2019-07-26T15:03:42.000Z</time>
      </trkpt>
      <trkpt lat="42.9055573605000972747802734375" lon="-8.397729881107807159423828125">
        <ele>280.20001220703125</ele>
        <time>2019-07-26T15:03:45.000Z</time>
      </trkpt>
      <trkpt lat="42.9055664129555225372314453125" lon="-8.397782854735851287841796875">
        <ele>281.399993896484375</ele>
        <time>2019-07-26T15:03:49.000Z</time>
      </trkpt>
      <trkpt lat="42.90557001717388629913330078125" lon="-8.39779165573418140411376953125">
        <ele>281.79998779296875</ele>
        <time>2019-07-26T15:03:50.000Z</time>
      </trkpt>
      <trkpt lat="42.90558041073381900787353515625" lon="-8.39780674315989017486572265625">
        <ele>282</ele>
        <time>2019-07-26T15:03:51.000Z</time>
      </trkpt>
      <trkpt lat="42.90558795444667339324951171875" lon="-8.39783624745905399322509765625">
        <ele>282.600006103515625</ele>
        <time>2019-07-26T15:03:53.000Z</time>
      </trkpt>
      <trkpt lat="42.90561209432780742645263671875" lon="-8.39787907898426055908203125">
        <ele>283.399993896484375</ele>
        <time>2019-07-26T15:03:56.000Z</time>
      </trkpt>
      <trkpt lat="42.9056230746209621429443359375" lon="-8.39789173565804958343505859375">
        <ele>283.79998779296875</ele>
        <time>2019-07-26T15:03:57.000Z</time>
      </trkpt>
      <trkpt lat="42.90567210875451564788818359375" lon="-8.39793951250612735748291015625">
        <ele>284.79998779296875</ele>
        <time>2019-07-26T15:04:02.000Z</time>
      </trkpt>
      <trkpt lat="42.90569323115050792694091796875" lon="-8.3979439549148082733154296875">
        <ele>285.20001220703125</ele>
        <time>2019-07-26T15:04:04.000Z</time>
      </trkpt>
      <trkpt lat="42.905752658843994140625" lon="-8.39797756634652614593505859375">
        <ele>286</ele>
        <time>2019-07-26T15:04:09.000Z</time>
      </trkpt>
      <trkpt lat="42.90575978346168994903564453125" lon="-8.39799047447741031646728515625">
        <ele>286.20001220703125</ele>
        <time>2019-07-26T15:04:10.000Z</time>
      </trkpt>
      <trkpt lat="42.90576481260359287261962890625" lon="-8.3980111777782440185546875">
        <ele>286.20001220703125</ele>
        <time>2019-07-26T15:04:11.000Z</time>
      </trkpt>
      <trkpt lat="42.9057880304753780364990234375" lon="-8.39807781390845775604248046875">
        <ele>286.79998779296875</ele>
        <time>2019-07-26T15:04:15.000Z</time>
      </trkpt>
      <trkpt lat="42.90580035187304019927978515625" lon="-8.39809239841997623443603515625">
        <ele>287.20001220703125</ele>
        <time>2019-07-26T15:04:16.000Z</time>
      </trkpt>
      <trkpt lat="42.9058101586997509002685546875" lon="-8.39810580946505069732666015625">
        <ele>287.399993896484375</ele>
        <time>2019-07-26T15:04:17.000Z</time>
      </trkpt>
      <trkpt lat="42.905862629413604736328125" lon="-8.39819398708641529083251953125">
        <ele>288.20001220703125</ele>
        <time>2019-07-26T15:04:21.000Z</time>
      </trkpt>
      <trkpt lat="42.905893810093402862548828125" lon="-8.3982373215258121490478515625">
        <ele>288.399993896484375</ele>
        <time>2019-07-26T15:04:23.000Z</time>
      </trkpt>
      <trkpt lat="42.90593479759991168975830078125" lon="-8.3983251638710498809814453125">
        <ele>289.20001220703125</ele>
        <time>2019-07-26T15:04:27.000Z</time>
      </trkpt>
      <trkpt lat="42.90595876984298229217529296875" lon="-8.39838056825101375579833984375">
        <ele>289.79998779296875</ele>
        <time>2019-07-26T15:04:29.000Z</time>
      </trkpt>
      <trkpt lat="42.905974276363849639892578125" lon="-8.3984197117388248443603515625">
        <ele>290.20001220703125</ele>
        <time>2019-07-26T15:04:31.000Z</time>
      </trkpt>
      <trkpt lat="42.90600704960525035858154296875" lon="-8.398511409759521484375">
        <ele>291.399993896484375</ele>
        <time>2019-07-26T15:04:35.000Z</time>
      </trkpt>
      <trkpt lat="42.90602800436317920684814453125" lon="-8.3985548280179500579833984375">
        <ele>292</ele>
        <time>2019-07-26T15:04:37.000Z</time>
      </trkpt>
      <trkpt lat="42.9060448519885540008544921875" lon="-8.39859162457287311553955078125">
        <ele>292.20001220703125</ele>
        <time>2019-07-26T15:04:39.000Z</time>
      </trkpt>
      <trkpt lat="42.9060649685561656951904296875" lon="-8.39864359237253665924072265625">
        <ele>293.20001220703125</ele>
        <time>2019-07-26T15:04:42.000Z</time>
      </trkpt>
      <trkpt lat="42.9060710035264492034912109375" lon="-8.3986634574830532073974609375">
        <ele>293.399993896484375</ele>
        <time>2019-07-26T15:04:43.000Z</time>
      </trkpt>
      <trkpt lat="42.90608416311442852020263671875" lon="-8.39869103394448757171630859375">
        <ele>293.399993896484375</ele>
        <time>2019-07-26T15:04:44.000Z</time>
      </trkpt>
      <trkpt lat="42.9061162658035755157470703125" lon="-8.39876898564398288726806640625">
        <ele>294.20001220703125</ele>
        <time>2019-07-26T15:04:48.000Z</time>
      </trkpt>
      <trkpt lat="42.906121127307415008544921875" lon="-8.3987915329635143280029296875">
        <ele>294.20001220703125</ele>
        <time>2019-07-26T15:04:49.000Z</time>
      </trkpt>
      <trkpt lat="42.90615909732878208160400390625" lon="-8.3989112265408039093017578125">
        <ele>295.399993896484375</ele>
        <time>2019-07-26T15:04:55.000Z</time>
      </trkpt>
      <trkpt lat="42.906166054308414459228515625" lon="-8.39893318712711334228515625">
        <ele>295.399993896484375</ele>
        <time>2019-07-26T15:04:56.000Z</time>
      </trkpt>
      <trkpt lat="42.9061967320740222930908203125" lon="-8.399058245122432708740234375">
        <ele>296.20001220703125</ele>
        <time>2019-07-26T15:05:02.000Z</time>
      </trkpt>
      <trkpt lat="42.9062218777835369110107421875" lon="-8.39915606193244457244873046875">
        <ele>296.600006103515625</ele>
        <time>2019-07-26T15:05:06.000Z</time>
      </trkpt>
      <trkpt lat="42.90625196881592273712158203125" lon="-8.3992208540439605712890625">
        <ele>296.600006103515625</ele>
        <time>2019-07-26T15:05:09.000Z</time>
      </trkpt>
      <trkpt lat="42.9062989912927150726318359375" lon="-8.399317748844623565673828125">
        <ele>296.79998779296875</ele>
        <time>2019-07-26T15:05:13.000Z</time>
      </trkpt>
      <trkpt lat="42.90632170625030994415283203125" lon="-8.3993883244693279266357421875">
        <ele>297</ele>
        <time>2019-07-26T15:05:16.000Z</time>
      </trkpt>
      <trkpt lat="42.90635682642459869384765625" lon="-8.3994942717254161834716796875">
        <ele>297.399993896484375</ele>
        <time>2019-07-26T15:05:20.000Z</time>
      </trkpt>
      <trkpt lat="42.90636177174746990203857421875" lon="-8.39951899833977222442626953125">
        <ele>297.399993896484375</ele>
        <time>2019-07-26T15:05:21.000Z</time>
      </trkpt>
      <trkpt lat="42.906363196671009063720703125" lon="-8.39954204857349395751953125">
        <ele>297.600006103515625</ele>
        <time>2019-07-26T15:05:22.000Z</time>
      </trkpt>
      <trkpt lat="42.9063559882342815399169921875" lon="-8.399684540927410125732421875">
        <ele>298.399993896484375</ele>
        <time>2019-07-26T15:05:27.000Z</time>
      </trkpt>
      <trkpt lat="42.90635657496750354766845703125" lon="-8.39970893226563930511474609375">
        <ele>298.600006103515625</ele>
        <time>2019-07-26T15:05:28.000Z</time>
      </trkpt>
      <trkpt lat="42.9063271544873714447021484375" lon="-8.399864919483661651611328125">
        <ele>299.20001220703125</ele>
        <time>2019-07-26T15:05:35.000Z</time>
      </trkpt>
      <trkpt lat="42.90631282143294811248779296875" lon="-8.39993172325193881988525390625">
        <ele>299.399993896484375</ele>
        <time>2019-07-26T15:05:38.000Z</time>
      </trkpt>
      <trkpt lat="42.9062862507998943328857421875" lon="-8.40000514872372150421142578125">
        <ele>299.600006103515625</ele>
        <time>2019-07-26T15:05:41.000Z</time>
      </trkpt>
      <trkpt lat="42.90625599212944507598876953125" lon="-8.40009466744959354400634765625">
        <ele>300</ele>
        <time>2019-07-26T15:05:46.000Z</time>
      </trkpt>
      <trkpt lat="42.9062342830002307891845703125" lon="-8.40025559999048709869384765625">
        <ele>300.399993896484375</ele>
        <time>2019-07-26T15:05:51.000Z</time>
      </trkpt>
      <trkpt lat="42.90623746812343597412109375" lon="-8.4002882055938243865966796875">
        <ele>300.399993896484375</ele>
        <time>2019-07-26T15:05:52.000Z</time>
      </trkpt>
      <trkpt lat="42.9062582552433013916015625" lon="-8.4004474617540836334228515625">
        <ele>300.79998779296875</ele>
        <time>2019-07-26T15:05:56.000Z</time>
      </trkpt>
      <trkpt lat="42.90625431574881076812744140625" lon="-8.4005329571664333343505859375">
        <ele>301</ele>
        <time>2019-07-26T15:05:58.000Z</time>
      </trkpt>
      <trkpt lat="42.9062262363731861114501953125" lon="-8.40069648809731006622314453125">
        <ele>301.600006103515625</ele>
        <time>2019-07-26T15:06:02.000Z</time>
      </trkpt>
      <trkpt lat="42.9062072932720184326171875" lon="-8.40080930851399898529052734375">
        <ele>301.79998779296875</ele>
        <time>2019-07-26T15:06:05.000Z</time>
      </trkpt>
      <trkpt lat="42.9061497934162616729736328125" lon="-8.40102572925388813018798828125">
        <ele>302.600006103515625</ele>
        <time>2019-07-26T15:06:11.000Z</time>
      </trkpt>
      <trkpt lat="42.906140573322772979736328125" lon="-8.4010603465139865875244140625">
        <ele>302.79998779296875</ele>
        <time>2019-07-26T15:06:12.000Z</time>
      </trkpt>
      <trkpt lat="42.90609271265566349029541015625" lon="-8.40125069953501224517822265625">
        <ele>303.600006103515625</ele>
        <time>2019-07-26T15:06:17.000Z</time>
      </trkpt>
      <trkpt lat="42.906083576381206512451171875" lon="-8.4013047628104686737060546875">
        <ele>303.600006103515625</ele>
        <time>2019-07-26T15:06:18.000Z</time>
      </trkpt>
      <trkpt lat="42.90605717338621616363525390625" lon="-8.40156443417072296142578125">
        <ele>304</ele>
        <time>2019-07-26T15:06:23.000Z</time>
      </trkpt>
      <trkpt lat="42.90610444732010364532470703125" lon="-8.40179787017405033111572265625">
        <ele>304.20001220703125</ele>
        <time>2019-07-26T15:06:28.000Z</time>
      </trkpt>
      <trkpt lat="42.90617368184030055999755859375" lon="-8.40196651406586170196533203125">
        <ele>304.600006103515625</ele>
        <time>2019-07-26T15:06:33.000Z</time>
      </trkpt>
      <trkpt lat="42.90618239901959896087646484375" lon="-8.40200431644916534423828125">
        <ele>304.600006103515625</ele>
        <time>2019-07-26T15:06:34.000Z</time>
      </trkpt>
      <trkpt lat="42.90618248283863067626953125" lon="-8.40204589068889617919921875">
        <ele>304.79998779296875</ele>
        <time>2019-07-26T15:06:35.000Z</time>
      </trkpt>
      <trkpt lat="42.9061467759311199188232421875" lon="-8.4021734632551670074462890625">
        <ele>305.20001220703125</ele>
        <time>2019-07-26T15:06:38.000Z</time>
      </trkpt>
      <trkpt lat="42.90611115284264087677001953125" lon="-8.40225116349756717681884765625">
        <ele>305.79998779296875</ele>
        <time>2019-07-26T15:06:40.000Z</time>
      </trkpt>
      <trkpt lat="42.9060461930930614471435546875" lon="-8.40234202332794666290283203125">
        <ele>306.79998779296875</ele>
        <time>2019-07-26T15:06:43.000Z</time>
      </trkpt>
      <trkpt lat="42.9060280881822109222412109375" lon="-8.40236767195165157318115234375">
        <ele>307</ele>
        <time>2019-07-26T15:06:44.000Z</time>
      </trkpt>
      <trkpt lat="42.905948460102081298828125" lon="-8.4024685062468051910400390625">
        <ele>307.600006103515625</ele>
        <time>2019-07-26T15:06:49.000Z</time>
      </trkpt>
      <trkpt lat="42.905912585556507110595703125" lon="-8.4025338850915431976318359375">
        <ele>308.20001220703125</ele>
        <time>2019-07-26T15:06:53.000Z</time>
      </trkpt>
      <trkpt lat="42.90590822696685791015625" lon="-8.4025459550321102142333984375">
        <ele>308.20001220703125</ele>
        <time>2019-07-26T15:06:54.000Z</time>
      </trkpt>
      <trkpt lat="42.9058399982750415802001953125" lon="-8.4026713483035564422607421875">
        <ele>309.20001220703125</ele>
        <time>2019-07-26T15:06:59.000Z</time>
      </trkpt>
      <trkpt lat="42.90580269880592823028564453125" lon="-8.4027860127389430999755859375">
        <ele>309.79998779296875</ele>
        <time>2019-07-26T15:07:02.000Z</time>
      </trkpt>
      <trkpt lat="42.905792891979217529296875" lon="-8.40287008322775363922119140625">
        <ele>310.20001220703125</ele>
        <time>2019-07-26T15:07:04.000Z</time>
      </trkpt>
      <trkpt lat="42.90577352978289127349853515625" lon="-8.402981646358966827392578125">
        <ele>311</ele>
        <time>2019-07-26T15:07:07.000Z</time>
      </trkpt>
      <trkpt lat="42.90576942265033721923828125" lon="-8.4030210413038730621337890625">
        <ele>311.399993896484375</ele>
        <time>2019-07-26T15:07:08.000Z</time>
      </trkpt>
      <trkpt lat="42.90574570186436176300048828125" lon="-8.4031595103442668914794921875">
        <ele>312.600006103515625</ele>
        <time>2019-07-26T15:07:12.000Z</time>
      </trkpt>
      <trkpt lat="42.90573949925601482391357421875" lon="-8.4031906910240650177001953125">
        <ele>312.79998779296875</ele>
        <time>2019-07-26T15:07:13.000Z</time>
      </trkpt>
      <trkpt lat="42.9057444445788860321044921875" lon="-8.40327970683574676513671875">
        <ele>313.600006103515625</ele>
        <time>2019-07-26T15:07:15.000Z</time>
      </trkpt>
      <trkpt lat="42.90573128499090671539306640625" lon="-8.40337081812322139739990234375">
        <ele>314.600006103515625</ele>
        <time>2019-07-26T15:07:18.000Z</time>
      </trkpt>
      <trkpt lat="42.9057337157428264617919921875" lon="-8.40340652503073215484619140625">
        <ele>314.600006103515625</ele>
        <time>2019-07-26T15:07:19.000Z</time>
      </trkpt>
      <trkpt lat="42.9057608731091022491455078125" lon="-8.40366485528647899627685546875">
        <ele>316</ele>
        <time>2019-07-26T15:07:25.000Z</time>
      </trkpt>
      <trkpt lat="42.905773110687732696533203125" lon="-8.4037190861999988555908203125">
        <ele>316.20001220703125</ele>
        <time>2019-07-26T15:07:26.000Z</time>
      </trkpt>
      <trkpt lat="42.90582918561995029449462890625" lon="-8.40394749306142330169677734375">
        <ele>317.20001220703125</ele>
        <time>2019-07-26T15:07:32.000Z</time>
      </trkpt>
      <trkpt lat="42.90583706460893154144287109375" lon="-8.40398722328245639801025390625">
        <ele>317.20001220703125</ele>
        <time>2019-07-26T15:07:33.000Z</time>
      </trkpt>
      <trkpt lat="42.90591099299490451812744140625" lon="-8.4041998721659183502197265625">
        <ele>318</ele>
        <time>2019-07-26T15:07:39.000Z</time>
      </trkpt>
      <trkpt lat="42.90594376623630523681640625" lon="-8.40438150800764560699462890625">
        <ele>319.20001220703125</ele>
        <time>2019-07-26T15:07:44.000Z</time>
      </trkpt>
      <trkpt lat="42.90594150312244892120361328125" lon="-8.4044224955141544342041015625">
        <ele>319.399993896484375</ele>
        <time>2019-07-26T15:07:45.000Z</time>
      </trkpt>
      <trkpt lat="42.90593194775283336639404296875" lon="-8.40462307445704936981201171875">
        <ele>320.399993896484375</ele>
        <time>2019-07-26T15:07:50.000Z</time>
      </trkpt>
      <trkpt lat="42.905919961631298065185546875" lon="-8.40474260039627552032470703125">
        <ele>321.20001220703125</ele>
        <time>2019-07-26T15:07:53.000Z</time>
      </trkpt>
      <trkpt lat="42.9059147648513317108154296875" lon="-8.40478241443634033203125">
        <ele>321.79998779296875</ele>
        <time>2019-07-26T15:07:54.000Z</time>
      </trkpt>
      <trkpt lat="42.90591669268906116485595703125" lon="-8.4049887768924236297607421875">
        <ele>323</ele>
        <time>2019-07-26T15:07:59.000Z</time>
      </trkpt>
      <trkpt lat="42.905917279422283172607421875" lon="-8.40502691455185413360595703125">
        <ele>323.20001220703125</ele>
        <time>2019-07-26T15:08:00.000Z</time>
      </trkpt>
      <trkpt lat="42.90589816868305206298828125" lon="-8.405208550393581390380859375">
        <ele>324</ele>
        <time>2019-07-26T15:08:05.000Z</time>
      </trkpt>
      <trkpt lat="42.9058876074850559234619140625" lon="-8.40531793422996997833251953125">
        <ele>324.399993896484375</ele>
        <time>2019-07-26T15:08:08.000Z</time>
      </trkpt>
      <trkpt lat="42.9058943130075931549072265625" lon="-8.405536115169525146484375">
        <ele>325.20001220703125</ele>
        <time>2019-07-26T15:08:13.000Z</time>
      </trkpt>
      <trkpt lat="42.90589087642729282379150390625" lon="-8.40565673075616359710693359375">
        <ele>326</ele>
        <time>2019-07-26T15:08:16.000Z</time>
      </trkpt>
      <trkpt lat="42.90588869713246822357177734375" lon="-8.40569746680557727813720703125">
        <ele>326.20001220703125</ele>
        <time>2019-07-26T15:08:17.000Z</time>
      </trkpt>
      <trkpt lat="42.90587478317320346832275390625" lon="-8.4058960340917110443115234375">
        <ele>327.79998779296875</ele>
        <time>2019-07-26T15:08:22.000Z</time>
      </trkpt>
      <trkpt lat="42.9058827459812164306640625" lon="-8.40601597912609577178955078125">
        <ele>328.79998779296875</ele>
        <time>2019-07-26T15:08:25.000Z</time>
      </trkpt>
      <trkpt lat="42.90588249452412128448486328125" lon="-8.40605705045163631439208984375">
        <ele>329</ele>
        <time>2019-07-26T15:08:26.000Z</time>
      </trkpt>
      <trkpt lat="42.9058973304927349090576171875" lon="-8.40622921474277973175048828125">
        <ele>330</ele>
        <time>2019-07-26T15:08:31.000Z</time>
      </trkpt>
      <trkpt lat="42.90589607320725917816162109375" lon="-8.40625704266130924224853515625">
        <ele>330.20001220703125</ele>
        <time>2019-07-26T15:08:32.000Z</time>
      </trkpt>
      <trkpt lat="42.905889451503753662109375" lon="-8.40640774928033351898193359375">
        <ele>331</ele>
        <time>2019-07-26T15:08:37.000Z</time>
      </trkpt>
      <trkpt lat="42.905889116227626800537109375" lon="-8.40644177980720996856689453125">
        <ele>331.20001220703125</ele>
        <time>2019-07-26T15:08:38.000Z</time>
      </trkpt>
      <trkpt lat="42.90588769130408763885498046875" lon="-8.40661779977381229400634765625">
        <ele>332.20001220703125</ele>
        <time>2019-07-26T15:08:43.000Z</time>
      </trkpt>
      <trkpt lat="42.90588165633380413055419921875" lon="-8.40668753720819950103759765625">
        <ele>332.79998779296875</ele>
        <time>2019-07-26T15:08:45.000Z</time>
      </trkpt>
      <trkpt lat="42.90586103685200214385986328125" lon="-8.40677755884826183319091796875">
        <ele>333.399993896484375</ele>
        <time>2019-07-26T15:08:48.000Z</time>
      </trkpt>
      <trkpt lat="42.9058425128459930419921875" lon="-8.40685383416712284088134765625">
        <ele>334.20001220703125</ele>
        <time>2019-07-26T15:08:51.000Z</time>
      </trkpt>
      <trkpt lat="42.90584561415016651153564453125" lon="-8.4068894572556018829345703125">
        <ele>334.399993896484375</ele>
        <time>2019-07-26T15:08:52.000Z</time>
      </trkpt>
      <trkpt lat="42.9058537445962429046630859375" lon="-8.407054245471954345703125">
        <ele>335.600006103515625</ele>
        <time>2019-07-26T15:08:57.000Z</time>
      </trkpt>
      <trkpt lat="42.9058587737381458282470703125" lon="-8.40708442032337188720703125">
        <ele>335.79998779296875</ele>
        <time>2019-07-26T15:08:58.000Z</time>
      </trkpt>
      <trkpt lat="42.90587495081126689910888671875" lon="-8.40719480998814105987548828125">
        <ele>336.600006103515625</ele>
        <time>2019-07-26T15:09:02.000Z</time>
      </trkpt>
      <trkpt lat="42.9058822430670261383056640625" lon="-8.40725130401551723480224609375">
        <ele>337.20001220703125</ele>
        <time>2019-07-26T15:09:04.000Z</time>
      </trkpt>
      <trkpt lat="42.9058795608580112457275390625" lon="-8.40730226598680019378662109375">
        <ele>337.79998779296875</ele>
        <time>2019-07-26T15:09:06.000Z</time>
      </trkpt>
      <trkpt lat="42.9058746993541717529296875" lon="-8.40741793625056743621826171875">
        <ele>338.79998779296875</ele>
        <time>2019-07-26T15:09:10.000Z</time>
      </trkpt>
      <trkpt lat="42.90585986338555812835693359375" lon="-8.40751759707927703857421875">
        <ele>339.79998779296875</ele>
        <time>2019-07-26T15:09:14.000Z</time>
      </trkpt>
      <trkpt lat="42.90585064329206943511962890625" lon="-8.407605104148387908935546875">
        <ele>340.399993896484375</ele>
        <time>2019-07-26T15:09:17.000Z</time>
      </trkpt>
      <trkpt lat="42.90584661997854709625244140625" lon="-8.407666794955730438232421875">
        <ele>340.79998779296875</ele>
        <time>2019-07-26T15:09:19.000Z</time>
      </trkpt>
      <trkpt lat="42.9058309458196163177490234375" lon="-8.4077755920588970184326171875">
        <ele>342</ele>
        <time>2019-07-26T15:09:23.000Z</time>
      </trkpt>
      <trkpt lat="42.90582449175417423248291015625" lon="-8.40794398449361324310302734375">
        <ele>343.20001220703125</ele>
        <time>2019-07-26T15:09:28.000Z</time>
      </trkpt>
      <trkpt lat="42.9058218933641910552978515625" lon="-8.40797583572566509246826171875">
        <ele>343.600006103515625</ele>
        <time>2019-07-26T15:09:29.000Z</time>
      </trkpt>
      <trkpt lat="42.90579046122729778289794921875" lon="-8.408137857913970947265625">
        <ele>344.399993896484375</ele>
        <time>2019-07-26T15:09:34.000Z</time>
      </trkpt>
      <trkpt lat="42.9057762958109378814697265625" lon="-8.40816132724285125732421875">
        <ele>344.399993896484375</ele>
        <time>2019-07-26T15:09:35.000Z</time>
      </trkpt>
      <trkpt lat="42.90574369020760059356689453125" lon="-8.408347405493259429931640625">
        <ele>345.20001220703125</ele>
        <time>2019-07-26T15:09:40.000Z</time>
      </trkpt>
      <trkpt lat="42.905742265284061431884765625" lon="-8.40843625366687774658203125">
        <ele>345.399993896484375</ele>
        <time>2019-07-26T15:09:42.000Z</time>
      </trkpt>
      <trkpt lat="42.90574721060693264007568359375" lon="-8.40854597277939319610595703125">
        <ele>345.79998779296875</ele>
        <time>2019-07-26T15:09:45.000Z</time>
      </trkpt>
      <trkpt lat="42.90575793944299221038818359375" lon="-8.40858218260109424591064453125">
        <ele>345.79998779296875</ele>
        <time>2019-07-26T15:09:46.000Z</time>
      </trkpt>
      <trkpt lat="42.90583957917988300323486328125" lon="-8.40880312956869602203369140625">
        <ele>346.399993896484375</ele>
        <time>2019-07-26T15:09:52.000Z</time>
      </trkpt>
      <trkpt lat="42.90585734881460666656494140625" lon="-8.408840261399745941162109375">
        <ele>346.399993896484375</ele>
        <time>2019-07-26T15:09:53.000Z</time>
      </trkpt>
      <trkpt lat="42.905923984944820404052734375" lon="-8.40908945538103580474853515625">
        <ele>347.399993896484375</ele>
        <time>2019-07-26T15:09:59.000Z</time>
      </trkpt>
      <trkpt lat="42.9059348814189434051513671875" lon="-8.40912382118403911590576171875">
        <ele>347.600006103515625</ele>
        <time>2019-07-26T15:10:00.000Z</time>
      </trkpt>
      <trkpt lat="42.90599204599857330322265625" lon="-8.4092323668301105499267578125">
        <ele>348.20001220703125</ele>
        <time>2019-07-26T15:10:04.000Z</time>
      </trkpt>
      <trkpt lat="42.90603823028504848480224609375" lon="-8.40930621139705181121826171875">
        <ele>348.79998779296875</ele>
        <time>2019-07-26T15:10:07.000Z</time>
      </trkpt>
      <trkpt lat="42.90608047507703304290771484375" lon="-8.40941584669053554534912109375">
        <ele>349.20001220703125</ele>
        <time>2019-07-26T15:10:10.000Z</time>
      </trkpt>
      <trkpt lat="42.90611282922327518463134765625" lon="-8.40954459272325038909912109375">
        <ele>350</ele>
        <time>2019-07-26T15:10:14.000Z</time>
      </trkpt>
      <trkpt lat="42.9061134159564971923828125" lon="-8.40962841175496578216552734375">
        <ele>350.79998779296875</ele>
        <time>2019-07-26T15:10:17.000Z</time>
      </trkpt>
      <trkpt lat="42.90610411204397678375244140625" lon="-8.409677110612392425537109375">
        <ele>351</ele>
        <time>2019-07-26T15:10:19.000Z</time>
      </trkpt>
      <trkpt lat="42.90610478259623050689697265625" lon="-8.40977869927883148193359375">
        <ele>351.79998779296875</ele>
        <time>2019-07-26T15:10:24.000Z</time>
      </trkpt>
      <trkpt lat="42.90610981173813343048095703125" lon="-8.40979856438934803009033203125">
        <ele>352</ele>
        <time>2019-07-26T15:10:25.000Z</time>
      </trkpt>
      <trkpt lat="42.9061518050730228424072265625" lon="-8.40993158519268035888671875">
        <ele>353.20001220703125</ele>
        <time>2019-07-26T15:10:31.000Z</time>
      </trkpt>
      <trkpt lat="42.90616077370941638946533203125" lon="-8.409949354827404022216796875">
        <ele>353.399993896484375</ele>
        <time>2019-07-26T15:10:32.000Z</time>
      </trkpt>
      <trkpt lat="42.90623956359922885894775390625" lon="-8.41004951857030391693115234375">
        <ele>354.20001220703125</ele>
        <time>2019-07-26T15:10:37.000Z</time>
      </trkpt>
      <trkpt lat="42.90625465102493762969970703125" lon="-8.41007047332823276519775390625">
        <ele>354.399993896484375</ele>
        <time>2019-07-26T15:10:38.000Z</time>
      </trkpt>
      <trkpt lat="42.90630075149238109588623046875" lon="-8.4101446531713008880615234375">
        <ele>355</ele>
        <time>2019-07-26T15:10:41.000Z</time>
      </trkpt>
      <trkpt lat="42.90631181560456752777099609375" lon="-8.4101999737322330474853515625">
        <ele>355.399993896484375</ele>
        <time>2019-07-26T15:10:43.000Z</time>
      </trkpt>
      <trkpt lat="42.90633193217217922210693359375" lon="-8.410251773893833160400390625">
        <ele>355.79998779296875</ele>
        <time>2019-07-26T15:10:45.000Z</time>
      </trkpt>
      <trkpt lat="42.90640904568135738372802734375" lon="-8.41033014468848705291748046875">
        <ele>356.20001220703125</ele>
        <time>2019-07-26T15:10:49.000Z</time>
      </trkpt>
      <trkpt lat="42.90642656385898590087890625" lon="-8.41034154407680034637451171875">
        <ele>356.600006103515625</ele>
        <time>2019-07-26T15:10:50.000Z</time>
      </trkpt>
      <trkpt lat="42.90644324384629726409912109375" lon="-8.41035042889416217803955078125">
        <ele>356.79998779296875</ele>
        <time>2019-07-26T15:10:51.000Z</time>
      </trkpt>
      <trkpt lat="42.90654835291206836700439453125" lon="-8.41044179163873195648193359375">
        <ele>357.79998779296875</ele>
        <time>2019-07-26T15:10:55.000Z</time>
      </trkpt>
      <trkpt lat="42.906679026782512664794921875" lon="-8.41056165285408496856689453125">
        <ele>358.79998779296875</ele>
        <time>2019-07-26T15:11:00.000Z</time>
      </trkpt>
      <trkpt lat="42.90676829405128955841064453125" lon="-8.41062334366142749786376953125">
        <ele>359.20001220703125</ele>
        <time>2019-07-26T15:11:03.000Z</time>
      </trkpt>
      <trkpt lat="42.90691313333809375762939453125" lon="-8.41068821959197521209716796875">
        <ele>359.79998779296875</ele>
        <time>2019-07-26T15:11:08.000Z</time>
      </trkpt>
      <trkpt lat="42.906941212713718414306640625" lon="-8.41069827787578105926513671875">
        <ele>359.79998779296875</ele>
        <time>2019-07-26T15:11:09.000Z</time>
      </trkpt>
      <trkpt lat="42.9071811027824878692626953125" lon="-8.41087614186108112335205078125">
        <ele>360.600006103515625</ele>
        <time>2019-07-26T15:11:16.000Z</time>
      </trkpt>
      <trkpt lat="42.90727389045059680938720703125" lon="-8.410975970327854156494140625">
        <ele>361</ele>
        <time>2019-07-26T15:11:19.000Z</time>
      </trkpt>
      <trkpt lat="42.90735670365393161773681640625" lon="-8.4111300297081470489501953125">
        <ele>361.399993896484375</ele>
        <time>2019-07-26T15:11:23.000Z</time>
      </trkpt>
      <trkpt lat="42.90743549354374408721923828125" lon="-8.4113124199211597442626953125">
        <ele>362.20001220703125</ele>
        <time>2019-07-26T15:11:27.000Z</time>
      </trkpt>
      <trkpt lat="42.9074694402515888214111328125" lon="-8.4114062972366809844970703125">
        <ele>362.399993896484375</ele>
        <time>2019-07-26T15:11:29.000Z</time>
      </trkpt>
      <trkpt lat="42.9075307957828044891357421875" lon="-8.41161676682531833648681640625">
        <ele>363.399993896484375</ele>
        <time>2019-07-26T15:11:33.000Z</time>
      </trkpt>
      <trkpt lat="42.9075552709400653839111328125" lon="-8.41170318424701690673828125">
        <ele>363.79998779296875</ele>
        <time>2019-07-26T15:11:35.000Z</time>
      </trkpt>
      <trkpt lat="42.9075861163437366485595703125" lon="-8.41182128526270389556884765625">
        <ele>364.600006103515625</ele>
        <time>2019-07-26T15:11:38.000Z</time>
      </trkpt>
      <trkpt lat="42.907644622027873992919921875" lon="-8.411968387663364410400390625">
        <ele>365.20001220703125</ele>
        <time>2019-07-26T15:11:42.000Z</time>
      </trkpt>
      <trkpt lat="42.907686866819858551025390625" lon="-8.41207995079457759857177734375">
        <ele>365.79998779296875</ele>
        <time>2019-07-26T15:11:45.000Z</time>
      </trkpt>
      <trkpt lat="42.90771964006125926971435546875" lon="-8.41219495050609111785888671875">
        <ele>366.399993896484375</ele>
        <time>2019-07-26T15:11:48.000Z</time>
      </trkpt>
      <trkpt lat="42.90773271583020687103271484375" lon="-8.4122679568827152252197265625">
        <ele>366.79998779296875</ele>
        <time>2019-07-26T15:11:50.000Z</time>
      </trkpt>
      <trkpt lat="42.90774377994239330291748046875" lon="-8.41241455636918544769287109375">
        <ele>367.600006103515625</ele>
        <time>2019-07-26T15:11:54.000Z</time>
      </trkpt>
      <trkpt lat="42.9077497310936450958251953125" lon="-8.41245428659021854400634765625">
        <ele>367.600006103515625</ele>
        <time>2019-07-26T15:11:55.000Z</time>
      </trkpt>
      <trkpt lat="42.9077872820198535919189453125" lon="-8.41266207396984100341796875">
        <ele>368.79998779296875</ele>
        <time>2019-07-26T15:12:01.000Z</time>
      </trkpt>
      <trkpt lat="42.9078301973640918731689453125" lon="-8.4127812646329402923583984375">
        <ele>369.79998779296875</ele>
        <time>2019-07-26T15:12:05.000Z</time>
      </trkpt>
      <trkpt lat="42.90786548517644405364990234375" lon="-8.41289282776415348052978515625">
        <ele>370.79998779296875</ele>
        <time>2019-07-26T15:12:08.000Z</time>
      </trkpt>
      <trkpt lat="42.90787202306091785430908203125" lon="-8.41293289326131343841552734375">
        <ele>370.79998779296875</ele>
        <time>2019-07-26T15:12:09.000Z</time>
      </trkpt>
      <trkpt lat="42.90790722705423831939697265625" lon="-8.41314998455345630645751953125">
        <ele>372</ele>
        <time>2019-07-26T15:12:14.000Z</time>
      </trkpt>
      <trkpt lat="42.90797956287860870361328125" lon="-8.413459025323390960693359375">
        <ele>373</ele>
        <time>2019-07-26T15:12:20.000Z</time>
      </trkpt>
      <trkpt lat="42.9079949855804443359375" lon="-8.41351124458014965057373046875">
        <ele>373.20001220703125</ele>
        <time>2019-07-26T15:12:21.000Z</time>
      </trkpt>
      <trkpt lat="42.908056341111660003662109375" lon="-8.413753397762775421142578125">
        <ele>374</ele>
        <time>2019-07-26T15:12:26.000Z</time>
      </trkpt>
      <trkpt lat="42.90808525867760181427001953125" lon="-8.41386102139949798583984375">
        <ele>374.399993896484375</ele>
        <time>2019-07-26T15:12:28.000Z</time>
      </trkpt>
      <trkpt lat="42.9081483744084835052490234375" lon="-8.414053134620189666748046875">
        <ele>374.79998779296875</ele>
        <time>2019-07-26T15:12:32.000Z</time>
      </trkpt>
      <trkpt lat="42.9082201234996318817138671875" lon="-8.41427215375006198883056640625">
        <ele>375.20001220703125</ele>
        <time>2019-07-26T15:12:36.000Z</time>
      </trkpt>
      <trkpt lat="42.90824233554303646087646484375" lon="-8.414387069642543792724609375">
        <ele>375.20001220703125</ele>
        <time>2019-07-26T15:12:38.000Z</time>
      </trkpt>
      <trkpt lat="42.9082938842475414276123046875" lon="-8.41456401161849498748779296875">
        <ele>375.399993896484375</ele>
        <time>2019-07-26T15:12:41.000Z</time>
      </trkpt>
      <trkpt lat="42.90835649706423282623291015625" lon="-8.41466526500880718231201171875">
        <ele>375.399993896484375</ele>
        <time>2019-07-26T15:12:43.000Z</time>
      </trkpt>
      <trkpt lat="42.90853452868759632110595703125" lon="-8.414766602218151092529296875">
        <ele>375.20001220703125</ele>
        <time>2019-07-26T15:12:47.000Z</time>
      </trkpt>
      <trkpt lat="42.90858171880245208740234375" lon="-8.41477624140679836273193359375">
        <ele>375.20001220703125</ele>
        <time>2019-07-26T15:12:48.000Z</time>
      </trkpt>
      <trkpt lat="42.908630333840847015380859375" lon="-8.41478462330996990203857421875">
        <ele>375.20001220703125</ele>
        <time>2019-07-26T15:12:49.000Z</time>
      </trkpt>
      <trkpt lat="42.90884633548557758331298828125" lon="-8.414789736270904541015625">
        <ele>374.79998779296875</ele>
        <time>2019-07-26T15:12:53.000Z</time>
      </trkpt>
      <trkpt lat="42.90912193246185779571533203125" lon="-8.41473969630897045135498046875">
        <ele>374.79998779296875</ele>
        <time>2019-07-26T15:12:58.000Z</time>
      </trkpt>
      <trkpt lat="42.9093479923903942108154296875" lon="-8.41469191946089267730712890625">
        <ele>374.79998779296875</ele>
        <time>2019-07-26T15:13:02.000Z</time>
      </trkpt>
      <trkpt lat="42.90953549556434154510498046875" lon="-8.4146423824131488800048828125">
        <ele>375</ele>
        <time>2019-07-26T15:13:06.000Z</time>
      </trkpt>
      <trkpt lat="42.909794747829437255859375" lon="-8.414556719362735748291015625">
        <ele>375.79998779296875</ele>
        <time>2019-07-26T15:13:12.000Z</time>
      </trkpt>
      <trkpt lat="42.9100906290113925933837890625" lon="-8.41451950371265411376953125">
        <ele>376.20001220703125</ele>
        <time>2019-07-26T15:13:18.000Z</time>
      </trkpt>
      <trkpt lat="42.91033714078366756439208984375" lon="-8.4144915081560611724853515625">
        <ele>376.20001220703125</ele>
        <time>2019-07-26T15:13:22.000Z</time>
      </trkpt>
      <trkpt lat="42.91039480827748775482177734375" lon="-8.41447549872100353240966796875">
        <ele>376.20001220703125</ele>
        <time>2019-07-26T15:13:23.000Z</time>
      </trkpt>
      <trkpt lat="42.91045264340937137603759765625" lon="-8.41445974074304103851318359375">
        <ele>376.20001220703125</ele>
        <time>2019-07-26T15:13:24.000Z</time>
      </trkpt>
      <trkpt lat="42.910772077739238739013671875" lon="-8.41442671604454517364501953125">
        <ele>376.20001220703125</ele>
        <time>2019-07-26T15:13:29.000Z</time>
      </trkpt>
      <trkpt lat="42.91117751039564609527587890625" lon="-8.4143674559891223907470703125">
        <ele>376</ele>
        <time>2019-07-26T15:13:35.000Z</time>
      </trkpt>
      <trkpt lat="42.911657877266407012939453125" lon="-8.41429780237376689910888671875">
        <ele>375.600006103515625</ele>
        <time>2019-07-26T15:13:42.000Z</time>
      </trkpt>
      <trkpt lat="42.91198384948074817657470703125" lon="-8.41424332000315189361572265625">
        <ele>375.399993896484375</ele>
        <time>2019-07-26T15:13:47.000Z</time>
      </trkpt>
      <trkpt lat="42.91233354248106479644775390625" lon="-8.41417123563587665557861328125">
        <ele>375.399993896484375</ele>
        <time>2019-07-26T15:13:52.000Z</time>
      </trkpt>
      <trkpt lat="42.91280326433479785919189453125" lon="-8.41408993117511272430419921875">
        <ele>375.20001220703125</ele>
        <time>2019-07-26T15:13:59.000Z</time>
      </trkpt>
      <trkpt lat="42.91325471363961696624755859375" lon="-8.414059169590473175048828125">
        <ele>375</ele>
        <time>2019-07-26T15:14:06.000Z</time>
      </trkpt>
      <trkpt lat="42.9134879820048809051513671875" lon="-8.41405640356242656707763671875">
        <ele>374.79998779296875</ele>
        <time>2019-07-26T15:14:10.000Z</time>
      </trkpt>
      <trkpt lat="42.913611866533756256103515625" lon="-8.41405975632369518280029296875">
        <ele>374.79998779296875</ele>
        <time>2019-07-26T15:14:12.000Z</time>
      </trkpt>
      <trkpt lat="42.9137106053531169891357421875" lon="-8.414081968367099761962890625">
        <ele>374.79998779296875</ele>
        <time>2019-07-26T15:14:14.000Z</time>
      </trkpt>
      <trkpt lat="42.91378252208232879638671875" lon="-8.4141082875430583953857421875">
        <ele>374.79998779296875</ele>
        <time>2019-07-26T15:14:16.000Z</time>
      </trkpt>
      <trkpt lat="42.91384094394743442535400390625" lon="-8.4141361154615879058837890625">
        <ele>374.600006103515625</ele>
        <time>2019-07-26T15:14:20.000Z</time>
      </trkpt>
      <trkpt lat="42.91384111158549785614013671875" lon="-8.41418749652802944183349609375">
        <ele>372.20001220703125</ele>
        <time>2019-07-26T15:14:35.000Z</time>
      </trkpt>
      <trkpt lat="42.91381747461855411529541015625" lon="-8.41426737606525421142578125">
        <ele>372.20001220703125</ele>
        <time>2019-07-26T15:14:38.000Z</time>
      </trkpt>
      <trkpt lat="42.9138222523033618927001953125" lon="-8.4143926016986370086669921875">
        <ele>372.20001220703125</ele>
        <time>2019-07-26T15:14:41.000Z</time>
      </trkpt>
      <trkpt lat="42.9138272814452648162841796875" lon="-8.4144884906709194183349609375">
        <ele>372.20001220703125</ele>
        <time>2019-07-26T15:14:43.000Z</time>
      </trkpt>
      <trkpt lat="42.9138276167213916778564453125" lon="-8.41459452174603939056396484375">
        <ele>372.20001220703125</ele>
        <time>2019-07-26T15:14:45.000Z</time>
      </trkpt>
      <trkpt lat="42.91382652707397937774658203125" lon="-8.41470549814403057098388671875">
        <ele>372.20001220703125</ele>
        <time>2019-07-26T15:14:47.000Z</time>
      </trkpt>
      <trkpt lat="42.91382552124559879302978515625" lon="-8.41485268436372280120849609375">
        <ele>372.20001220703125</ele>
        <time>2019-07-26T15:14:50.000Z</time>
      </trkpt>
      <trkpt lat="42.91382786817848682403564453125" lon="-8.41490582562983036041259765625">
        <ele>372.20001220703125</ele>
        <time>2019-07-26T15:14:53.000Z</time>
      </trkpt>
      <trkpt lat="42.9138272814452648162841796875" lon="-8.41490683145821094512939453125">
        <ele>372.20001220703125</ele>
        <time>2019-07-26T15:14:54.000Z</time>
      </trkpt>
      <trkpt lat="42.9137743078172206878662109375" lon="-8.41483927331864833831787109375">
        <ele>371.20001220703125</ele>
        <time>2019-07-26T15:15:28.000Z</time>
      </trkpt>
      <trkpt lat="42.91373684071004390716552734375" lon="-8.414833657443523406982421875">
        <ele>371.399993896484375</ele>
        <time>2019-07-26T15:15:30.000Z</time>
      </trkpt>
      <trkpt lat="42.91372292675077915191650390625" lon="-8.4149117767810821533203125">
        <ele>371.399993896484375</ele>
        <time>2019-07-26T15:15:33.000Z</time>
      </trkpt>
      <trkpt lat="42.9137334041297435760498046875" lon="-8.41492116451263427734375">
        <ele>371.600006103515625</ele>
        <time>2019-07-26T15:15:36.000Z</time>
      </trkpt>
      <trkpt lat="42.91373164393007755279541015625" lon="-8.4149890579283237457275390625">
        <ele>372.20001220703125</ele>
        <time>2019-07-26T15:15:44.000Z</time>
      </trkpt>
      <trkpt lat="42.91372795589268207550048828125" lon="-8.41503071598708629608154296875">
        <ele>372.20001220703125</ele>
        <time>2019-07-26T15:15:45.000Z</time>
      </trkpt>
      <trkpt lat="42.9137174785137176513671875" lon="-8.415185697376728057861328125">
        <ele>372.20001220703125</ele>
        <time>2019-07-26T15:15:48.000Z</time>
      </trkpt>
      <trkpt lat="42.91371035389602184295654296875" lon="-8.41530631296336650848388671875">
        <ele>372.20001220703125</ele>
        <time>2019-07-26T15:15:50.000Z</time>
      </trkpt>
      <trkpt lat="42.913703732192516326904296875" lon="-8.415519632399082183837890625">
        <ele>372.20001220703125</ele>
        <time>2019-07-26T15:15:53.000Z</time>
      </trkpt>
      <trkpt lat="42.913701049983501434326171875" lon="-8.41567813418805599212646484375">
        <ele>371.79998779296875</ele>
        <time>2019-07-26T15:15:55.000Z</time>
      </trkpt>
      <trkpt lat="42.913705743849277496337890625" lon="-8.41575910337269306182861328125">
        <ele>371.600006103515625</ele>
        <time>2019-07-26T15:15:56.000Z</time>
      </trkpt>
      <trkpt lat="42.9137163050472736358642578125" lon="-8.41609924100339412689208984375">
        <ele>370.20001220703125</ele>
        <time>2019-07-26T15:16:00.000Z</time>
      </trkpt>
      <trkpt lat="42.9137226752936840057373046875" lon="-8.41637156903743743896484375">
        <ele>369.600006103515625</ele>
        <time>2019-07-26T15:16:03.000Z</time>
      </trkpt>
      <trkpt lat="42.91372108273208141326904296875" lon="-8.41666216962039470672607421875">
        <ele>368.79998779296875</ele>
        <time>2019-07-26T15:16:06.000Z</time>
      </trkpt>
      <trkpt lat="42.9137290455400943756103515625" lon="-8.417096436023712158203125">
        <ele>367.79998779296875</ele>
        <time>2019-07-26T15:16:10.000Z</time>
      </trkpt>
      <trkpt lat="42.91373030282557010650634765625" lon="-8.417210765182971954345703125">
        <ele>367.399993896484375</ele>
        <time>2019-07-26T15:16:11.000Z</time>
      </trkpt>
      <trkpt lat="42.91373332031071186065673828125" lon="-8.4176759608089923858642578125">
        <ele>366</ele>
        <time>2019-07-26T15:16:15.000Z</time>
      </trkpt>
      <trkpt lat="42.913729883730411529541015625" lon="-8.417906463146209716796875">
        <ele>365.399993896484375</ele>
        <time>2019-07-26T15:16:17.000Z</time>
      </trkpt>
      <trkpt lat="42.91372351348400115966796875" lon="-8.41801886446774005889892578125">
        <ele>364.399993896484375</ele>
        <time>2019-07-26T15:16:18.000Z</time>
      </trkpt>
      <trkpt lat="42.913677580654621124267578125" lon="-8.41834525577723979949951171875">
        <ele>363.399993896484375</ele>
        <time>2019-07-26T15:16:21.000Z</time>
      </trkpt>
      <trkpt lat="42.91366584599018096923828125" lon="-8.4184424020349979400634765625">
        <ele>363.20001220703125</ele>
        <time>2019-07-26T15:16:22.000Z</time>
      </trkpt>
      <trkpt lat="42.91366542689502239227294921875" lon="-8.4185315854847431182861328125">
        <ele>362.79998779296875</ele>
        <time>2019-07-26T15:16:23.000Z</time>
      </trkpt>
      <trkpt lat="42.913672216236591339111328125" lon="-8.41861926019191741943359375">
        <ele>362.20001220703125</ele>
        <time>2019-07-26T15:16:24.000Z</time>
      </trkpt>
      <trkpt lat="42.913699038326740264892578125" lon="-8.41879092156887054443359375">
        <ele>361</ele>
        <time>2019-07-26T15:16:26.000Z</time>
      </trkpt>
      <trkpt lat="42.91370951570570468902587890625" lon="-8.41887750662863254547119140625">
        <ele>360.399993896484375</ele>
        <time>2019-07-26T15:16:27.000Z</time>
      </trkpt>
      <trkpt lat="42.91371504776179790496826171875" lon="-8.41896434314548969268798828125">
        <ele>360</ele>
        <time>2019-07-26T15:16:28.000Z</time>
      </trkpt>
      <trkpt lat="42.9137241840362548828125" lon="-8.4192303009331226348876953125">
        <ele>359</ele>
        <time>2019-07-26T15:16:31.000Z</time>
      </trkpt>
      <trkpt lat="42.91372376494109630584716796875" lon="-8.419321663677692413330078125">
        <ele>358.600006103515625</ele>
        <time>2019-07-26T15:16:32.000Z</time>
      </trkpt>
      <trkpt lat="42.91372510604560375213623046875" lon="-8.41950841248035430908203125">
        <ele>357.399993896484375</ele>
        <time>2019-07-26T15:16:34.000Z</time>
      </trkpt>
      <trkpt lat="42.91370901279151439666748046875" lon="-8.4198093228042125701904296875">
        <ele>356.399993896484375</ele>
        <time>2019-07-26T15:16:37.000Z</time>
      </trkpt>
      <trkpt lat="42.91369576938450336456298828125" lon="-8.419909738004207611083984375">
        <ele>356.20001220703125</ele>
        <time>2019-07-26T15:16:38.000Z</time>
      </trkpt>
      <trkpt lat="42.91361111216247081756591796875" lon="-8.42015071772038936614990234375">
        <ele>356</ele>
        <time>2019-07-26T15:16:41.000Z</time>
      </trkpt>
      <trkpt lat="42.91354707442224025726318359375" lon="-8.420238979160785675048828125">
        <ele>355.600006103515625</ele>
        <time>2019-07-26T15:16:43.000Z</time>
      </trkpt>
      <trkpt lat="42.91352461092174053192138671875" lon="-8.42028432525694370269775390625">
        <ele>355.399993896484375</ele>
        <time>2019-07-26T15:16:44.000Z</time>
      </trkpt>
      <trkpt lat="42.91350013576447963714599609375" lon="-8.42051164247095584869384765625">
        <ele>354.600006103515625</ele>
        <time>2019-07-26T15:16:47.000Z</time>
      </trkpt>
      <trkpt lat="42.9135097749531269073486328125" lon="-8.42070861719548702239990234375">
        <ele>354.20001220703125</ele>
        <time>2019-07-26T15:16:49.000Z</time>
      </trkpt>
      <trkpt lat="42.9135104455053806304931640625" lon="-8.4209314920008182525634765625">
        <ele>354</ele>
        <time>2019-07-26T15:16:51.000Z</time>
      </trkpt>
      <trkpt lat="42.913495860993862152099609375" lon="-8.4213955141603946685791015625">
        <ele>353.20001220703125</ele>
        <time>2019-07-26T15:16:55.000Z</time>
      </trkpt>
      <trkpt lat="42.913487143814563751220703125" lon="-8.4216295368969440460205078125">
        <ele>351.79998779296875</ele>
        <time>2019-07-26T15:16:57.000Z</time>
      </trkpt>
      <trkpt lat="42.91349460370838642120361328125" lon="-8.42174562625586986541748046875">
        <ele>351.20001220703125</ele>
        <time>2019-07-26T15:16:58.000Z</time>
      </trkpt>
      <trkpt lat="42.913503237068653106689453125" lon="-8.42185727320611476898193359375">
        <ele>350.399993896484375</ele>
        <time>2019-07-26T15:16:59.000Z</time>
      </trkpt>
      <trkpt lat="42.9135091044008731842041015625" lon="-8.4219646453857421875">
        <ele>349.600006103515625</ele>
        <time>2019-07-26T15:17:00.000Z</time>
      </trkpt>
      <trkpt lat="42.91350298561155796051025390625" lon="-8.42206195928156375885009765625">
        <ele>349.20001220703125</ele>
        <time>2019-07-26T15:17:01.000Z</time>
      </trkpt>
      <trkpt lat="42.91345470584928989410400390625" lon="-8.42222280800342559814453125">
        <ele>347.399993896484375</ele>
        <time>2019-07-26T15:17:03.000Z</time>
      </trkpt>
      <trkpt lat="42.9133951105177402496337890625" lon="-8.42235557734966278076171875">
        <ele>346</ele>
        <time>2019-07-26T15:17:05.000Z</time>
      </trkpt>
      <trkpt lat="42.91330668143928050994873046875" lon="-8.42247233726084232330322265625">
        <ele>344.79998779296875</ele>
        <time>2019-07-26T15:17:07.000Z</time>
      </trkpt>
      <trkpt lat="42.9132583178579807281494140625" lon="-8.42253528535366058349609375">
        <ele>344</ele>
        <time>2019-07-26T15:17:08.000Z</time>
      </trkpt>
      <trkpt lat="42.91320593096315860748291015625" lon="-8.422601334750652313232421875">
        <ele>343.20001220703125</ele>
        <time>2019-07-26T15:17:09.000Z</time>
      </trkpt>
      <trkpt lat="42.91309478692710399627685546875" lon="-8.4227376244962215423583984375">
        <ele>342.20001220703125</ele>
        <time>2019-07-26T15:17:11.000Z</time>
      </trkpt>
      <trkpt lat="42.91304265148937702178955078125" lon="-8.42281079851090908050537109375">
        <ele>342</ele>
        <time>2019-07-26T15:17:12.000Z</time>
      </trkpt>
      <trkpt lat="42.91284911334514617919921875" lon="-8.4230946935713291168212890625">
        <ele>341.20001220703125</ele>
        <time>2019-07-26T15:17:16.000Z</time>
      </trkpt>
      <trkpt lat="42.91280527599155902862548828125" lon="-8.4231805242598056793212890625">
        <ele>340.79998779296875</ele>
        <time>2019-07-26T15:17:17.000Z</time>
      </trkpt>
      <trkpt lat="42.912707962095737457275390625" lon="-8.42335713095963001251220703125">
        <ele>340.20001220703125</ele>
        <time>2019-07-26T15:17:19.000Z</time>
      </trkpt>
      <trkpt lat="42.9126045294106006622314453125" lon="-8.4234916605055332183837890625">
        <ele>339.79998779296875</ele>
        <time>2019-07-26T15:17:21.000Z</time>
      </trkpt>
      <trkpt lat="42.91255013085901737213134765625" lon="-8.42355695553123950958251953125">
        <ele>339.600006103515625</ele>
        <time>2019-07-26T15:17:22.000Z</time>
      </trkpt>
      <trkpt lat="42.912432365119457244873046875" lon="-8.423674218356609344482421875">
        <ele>339</ele>
        <time>2019-07-26T15:17:24.000Z</time>
      </trkpt>
      <trkpt lat="42.9122776351869106292724609375" lon="-8.42382433824241161346435546875">
        <ele>338.600006103515625</ele>
        <time>2019-07-26T15:17:27.000Z</time>
      </trkpt>
      <trkpt lat="42.9121287725865840911865234375" lon="-8.4239191375672817230224609375">
        <ele>338.399993896484375</ele>
        <time>2019-07-26T15:17:31.000Z</time>
      </trkpt>
      <trkpt lat="42.91206448338925838470458984375" lon="-8.42397638596594333648681640625">
        <ele>338.399993896484375</ele>
        <time>2019-07-26T15:17:34.000Z</time>
      </trkpt>
      <trkpt lat="42.91200220584869384765625" lon="-8.42402785085141658782958984375">
        <ele>338.399993896484375</ele>
        <time>2019-07-26T15:17:37.000Z</time>
      </trkpt>
      <trkpt lat="42.9119809158146381378173828125" lon="-8.42404176481068134307861328125">
        <ele>338.600006103515625</ele>
        <time>2019-07-26T15:17:38.000Z</time>
      </trkpt>
      <trkpt lat="42.9119420237839221954345703125" lon="-8.42406573705375194549560546875">
        <ele>339.399993896484375</ele>
        <time>2019-07-26T15:17:40.000Z</time>
      </trkpt>
      <trkpt lat="42.91192903183400630950927734375" lon="-8.4240747056901454925537109375">
        <ele>340.399993896484375</ele>
        <time>2019-07-26T15:17:41.000Z</time>
      </trkpt>
      <trkpt lat="42.91190908290445804595947265625" lon="-8.424096666276454925537109375">
        <ele>341.399993896484375</ele>
        <time>2019-07-26T15:17:43.000Z</time>
      </trkpt>
      <trkpt lat="42.91189047507941722869873046875" lon="-8.424110747873783111572265625">
        <ele>341.79998779296875</ele>
        <time>2019-07-26T15:17:44.000Z</time>
      </trkpt>
      <trkpt lat="42.9118350706994533538818359375" lon="-8.4241531603038311004638671875">
        <ele>343.20001220703125</ele>
        <time>2019-07-26T15:17:47.000Z</time>
      </trkpt>
      <trkpt lat="42.9118032194674015045166015625" lon="-8.4241653978824615478515625">
        <ele>344.399993896484375</ele>
        <time>2019-07-26T15:17:49.000Z</time>
      </trkpt>
      <trkpt lat="42.91177514009177684783935546875" lon="-8.4241840057075023651123046875">
        <ele>345.20001220703125</ele>
        <time>2019-07-26T15:17:51.000Z</time>
      </trkpt>
      <trkpt lat="42.91175837628543376922607421875" lon="-8.4241997636854648590087890625">
        <ele>345.399993896484375</ele>
        <time>2019-07-26T15:17:52.000Z</time>
      </trkpt>
      <trkpt lat="42.9117385111749172210693359375" lon="-8.42421158216893672943115234375">
        <ele>345.600006103515625</ele>
        <time>2019-07-26T15:17:53.000Z</time>
      </trkpt>
      <trkpt lat="42.9116573743522167205810546875" lon="-8.42422231100499629974365234375">
        <ele>346.600006103515625</ele>
        <time>2019-07-26T15:17:56.000Z</time>
      </trkpt>
      <trkpt lat="42.91155637241899967193603515625" lon="-8.424222059547901153564453125">
        <ele>347.79998779296875</ele>
        <time>2019-07-26T15:18:00.000Z</time>
      </trkpt>
      <trkpt lat="42.911476828157901763916015625" lon="-8.42421862296760082244873046875">
        <ele>348.399993896484375</ele>
        <time>2019-07-26T15:18:03.000Z</time>
      </trkpt>
      <trkpt lat="42.91142209433019161224365234375" lon="-8.424215018749237060546875">
        <ele>349</ele>
        <time>2019-07-26T15:18:05.000Z</time>
      </trkpt>
      <trkpt lat="42.91127356700599193572998046875" lon="-8.424196578562259674072265625">
        <ele>349.600006103515625</ele>
        <time>2019-07-26T15:18:10.000Z</time>
      </trkpt>
      <trkpt lat="42.9111651889979839324951171875" lon="-8.4242661483585834503173828125">
        <ele>350</ele>
        <time>2019-07-26T15:18:14.000Z</time>
      </trkpt>
      <trkpt lat="42.91113945655524730682373046875" lon="-8.4242926351726055145263671875">
        <ele>350.20001220703125</ele>
        <time>2019-07-26T15:18:15.000Z</time>
      </trkpt>
      <trkpt lat="42.91103996336460113525390625" lon="-8.42439481057226657867431640625">
        <ele>350.399993896484375</ele>
        <time>2019-07-26T15:18:19.000Z</time>
      </trkpt>
      <trkpt lat="42.91100886650383472442626953125" lon="-8.42440118081867694854736328125">
        <ele>350.399993896484375</ele>
        <time>2019-07-26T15:18:20.000Z</time>
      </trkpt>
      <trkpt lat="42.910856567323207855224609375" lon="-8.42436413280665874481201171875">
        <ele>350.399993896484375</ele>
        <time>2019-07-26T15:18:24.000Z</time>
      </trkpt>
      <trkpt lat="42.91081599891185760498046875" lon="-8.42434871010482311248779296875">
        <ele>350.399993896484375</ele>
        <time>2019-07-26T15:18:25.000Z</time>
      </trkpt>
      <trkpt lat="42.91072991676628589630126953125" lon="-8.4243137575685977935791015625">
        <ele>350.399993896484375</ele>
        <time>2019-07-26T15:18:27.000Z</time>
      </trkpt>
      <trkpt lat="42.91065364144742488861083984375" lon="-8.42429053969681262969970703125">
        <ele>350.399993896484375</ele>
        <time>2019-07-26T15:18:29.000Z</time>
      </trkpt>
      <trkpt lat="42.91061751544475555419921875" lon="-8.42427511699497699737548828125">
        <ele>350.399993896484375</ele>
        <time>2019-07-26T15:18:30.000Z</time>
      </trkpt>
      <trkpt lat="42.9105801321566104888916015625" lon="-8.42426103539764881134033203125">
        <ele>350.399993896484375</ele>
        <time>2019-07-26T15:18:31.000Z</time>
      </trkpt>
      <trkpt lat="42.91039631702005863189697265625" lon="-8.4242071397602558135986328125">
        <ele>350.399993896484375</ele>
        <time>2019-07-26T15:18:35.000Z</time>
      </trkpt>
      <trkpt lat="42.91034418158233165740966796875" lon="-8.4241977520287036895751953125">
        <ele>350.399993896484375</ele>
        <time>2019-07-26T15:18:36.000Z</time>
      </trkpt>
      <trkpt lat="42.91023974306881427764892578125" lon="-8.4241719357669353485107421875">
        <ele>350.20001220703125</ele>
        <time>2019-07-26T15:18:38.000Z</time>
      </trkpt>
      <trkpt lat="42.9100296087563037872314453125" lon="-8.4240804053843021392822265625">
        <ele>350</ele>
        <time>2019-07-26T15:18:42.000Z</time>
      </trkpt>
      <trkpt lat="42.90997521020472049713134765625" lon="-8.4240478835999965667724609375">
        <ele>350</ele>
        <time>2019-07-26T15:18:43.000Z</time>
      </trkpt>
      <trkpt lat="42.909864820539951324462890625" lon="-8.4239935688674449920654296875">
        <ele>349.79998779296875</ele>
        <time>2019-07-26T15:18:45.000Z</time>
      </trkpt>
      <trkpt lat="42.90969885885715484619140625" lon="-8.423957526683807373046875">
        <ele>349.79998779296875</ele>
        <time>2019-07-26T15:18:48.000Z</time>
      </trkpt>
      <trkpt lat="42.9095753096044063568115234375" lon="-8.4239047206938266754150390625">
        <ele>349.79998779296875</ele>
        <time>2019-07-26T15:18:50.000Z</time>
      </trkpt>
      <trkpt lat="42.90929342620074748992919921875" lon="-8.4237957559525966644287109375">
        <ele>349.600006103515625</ele>
        <time>2019-07-26T15:18:55.000Z</time>
      </trkpt>
      <trkpt lat="42.90913484059274196624755859375" lon="-8.4237246774137020111083984375">
        <ele>349.399993896484375</ele>
        <time>2019-07-26T15:18:58.000Z</time>
      </trkpt>
      <trkpt lat="42.90898866020143032073974609375" lon="-8.42366659082472324371337890625">
        <ele>349.20001220703125</ele>
        <time>2019-07-26T15:19:01.000Z</time>
      </trkpt>
      <trkpt lat="42.90894289501011371612548828125" lon="-8.42366005294024944305419921875">
        <ele>349.20001220703125</ele>
        <time>2019-07-26T15:19:02.000Z</time>
      </trkpt>
      <trkpt lat="42.90885304100811481475830078125" lon="-8.4236566163599491119384765625">
        <ele>349</ele>
        <time>2019-07-26T15:19:04.000Z</time>
      </trkpt>
      <trkpt lat="42.908809371292591094970703125" lon="-8.42364630661904811859130859375">
        <ele>349</ele>
        <time>2019-07-26T15:19:05.000Z</time>
      </trkpt>
      <trkpt lat="42.90877081453800201416015625" lon="-8.4236264415085315704345703125">
        <ele>349</ele>
        <time>2019-07-26T15:19:06.000Z</time>
      </trkpt>
      <trkpt lat="42.90869973599910736083984375" lon="-8.42350968159735202789306640625">
        <ele>348.79998779296875</ele>
        <time>2019-07-26T15:19:10.000Z</time>
      </trkpt>
      <trkpt lat="42.9087377898395061492919921875" lon="-8.42353843152523040771484375">
        <ele>348.79998779296875</ele>
        <time>2019-07-26T15:19:13.000Z</time>
      </trkpt>
      <trkpt lat="42.90874022059142589569091796875" lon="-8.42360724695026874542236328125">
        <ele>348.79998779296875</ele>
        <time>2019-07-26T15:19:15.000Z</time>
      </trkpt>
      <trkpt lat="42.9087384603917598724365234375" lon="-8.4236442111432552337646484375">
        <ele>348.79998779296875</ele>
        <time>2019-07-26T15:19:16.000Z</time>
      </trkpt>
      <trkpt lat="42.90874491445720195770263671875" lon="-8.42378611676394939422607421875">
        <ele>348.79998779296875</ele>
        <time>2019-07-26T15:19:19.000Z</time>
      </trkpt>
      <trkpt lat="42.908800654113292694091796875" lon="-8.42413262464106082916259765625">
        <ele>348.600006103515625</ele>
        <time>2019-07-26T15:19:24.000Z</time>
      </trkpt>
      <trkpt lat="42.90882554836571216583251953125" lon="-8.42430126853287220001220703125">
        <ele>348.600006103515625</ele>
        <time>2019-07-26T15:19:26.000Z</time>
      </trkpt>
      <trkpt lat="42.90883652865886688232421875" lon="-8.42438793741166591644287109375">
        <ele>348.600006103515625</ele>
        <time>2019-07-26T15:19:27.000Z</time>
      </trkpt>
      <trkpt lat="42.9088591597974300384521484375" lon="-8.4245712496340274810791015625">
        <ele>348.20001220703125</ele>
        <time>2019-07-26T15:19:29.000Z</time>
      </trkpt>
      <trkpt lat="42.9088729061186313629150390625" lon="-8.42466588132083415985107421875">
        <ele>348</ele>
        <time>2019-07-26T15:19:30.000Z</time>
      </trkpt>
      <trkpt lat="42.90891774930059909820556640625" lon="-8.42496343888342380523681640625">
        <ele>347.20001220703125</ele>
        <time>2019-07-26T15:19:33.000Z</time>
      </trkpt>
      <trkpt lat="42.90897223167121410369873046875" lon="-8.4251603297889232635498046875">
        <ele>346.399993896484375</ele>
        <time>2019-07-26T15:19:35.000Z</time>
      </trkpt>
      <trkpt lat="42.9090046696364879608154296875" lon="-8.42525864951312541961669921875">
        <ele>346.20001220703125</ele>
        <time>2019-07-26T15:19:36.000Z</time>
      </trkpt>
      <trkpt lat="42.909029982984066009521484375" lon="-8.4253625012934207916259765625">
        <ele>346</ele>
        <time>2019-07-26T15:19:37.000Z</time>
      </trkpt>
      <trkpt lat="42.9090504348278045654296875" lon="-8.42546819709241390228271484375">
        <ele>345.79998779296875</ele>
        <time>2019-07-26T15:19:38.000Z</time>
      </trkpt>
      <trkpt lat="42.90905839763581752777099609375" lon="-8.42557950876653194427490234375">
        <ele>345.600006103515625</ele>
        <time>2019-07-26T15:19:39.000Z</time>
      </trkpt>
      <trkpt lat="42.9090579785406589508056640625" lon="-8.42568092979490756988525390625">
        <ele>345</ele>
        <time>2019-07-26T15:19:40.000Z</time>
      </trkpt>
      <trkpt lat="42.909004501998424530029296875" lon="-8.4259582869708538055419921875">
        <ele>343.79998779296875</ele>
        <time>2019-07-26T15:19:43.000Z</time>
      </trkpt>
      <trkpt lat="42.90898941457271575927734375" lon="-8.4260370768606662750244140625">
        <ele>343.399993896484375</ele>
        <time>2019-07-26T15:19:44.000Z</time>
      </trkpt>
      <trkpt lat="42.9089691303670406341552734375" lon="-8.4261071495711803436279296875">
        <ele>343.20001220703125</ele>
        <time>2019-07-26T15:19:45.000Z</time>
      </trkpt>
      <trkpt lat="42.90890433825552463531494140625" lon="-8.42621301300823688507080078125">
        <ele>342.600006103515625</ele>
        <time>2019-07-26T15:19:47.000Z</time>
      </trkpt>
      <trkpt lat="42.90874742902815341949462890625" lon="-8.42626816593110561370849609375">
        <ele>342</ele>
        <time>2019-07-26T15:19:50.000Z</time>
      </trkpt>
      <trkpt lat="42.9086412303149700164794921875" lon="-8.42628610320389270782470703125">
        <ele>341.399993896484375</ele>
        <time>2019-07-26T15:19:52.000Z</time>
      </trkpt>
      <trkpt lat="42.9085433296859264373779296875" lon="-8.4263529069721698760986328125">
        <ele>341</ele>
        <time>2019-07-26T15:19:54.000Z</time>
      </trkpt>
      <trkpt lat="42.9084444232285022735595703125" lon="-8.42650629580020904541015625">
        <ele>340.79998779296875</ele>
        <time>2019-07-26T15:19:57.000Z</time>
      </trkpt>
      <trkpt lat="42.90837812237441539764404296875" lon="-8.42665054835379123687744140625">
        <ele>340.79998779296875</ele>
        <time>2019-07-26T15:20:00.000Z</time>
      </trkpt>
      <trkpt lat="42.90835699997842311859130859375" lon="-8.42672196216881275177001953125">
        <ele>340.79998779296875</ele>
        <time>2019-07-26T15:20:02.000Z</time>
      </trkpt>
      <trkpt lat="42.90835180319845676422119140625" lon="-8.42677242122590541839599609375">
        <ele>340.79998779296875</ele>
        <time>2019-07-26T15:20:04.000Z</time>
      </trkpt>
      <trkpt lat="42.9083180241286754608154296875" lon="-8.42680628411471843719482421875">
        <ele>341.20001220703125</ele>
        <time>2019-07-26T15:20:06.000Z</time>
      </trkpt>
      <trkpt lat="42.90829547680914402008056640625" lon="-8.42683662660419940948486328125">
        <ele>341.600006103515625</ele>
        <time>2019-07-26T15:20:08.000Z</time>
      </trkpt>
      <trkpt lat="42.908280305564403533935546875" lon="-8.42686428688466548919677734375">
        <ele>342.20001220703125</ele>
        <time>2019-07-26T15:20:10.000Z</time>
      </trkpt>
      <trkpt lat="42.90826882235705852508544921875" lon="-8.42687719501554965972900390625">
        <ele>342.600006103515625</ele>
        <time>2019-07-26T15:20:11.000Z</time>
      </trkpt>
      <trkpt lat="42.90823009796440601348876953125" lon="-8.4269171766936779022216796875">
        <ele>343.79998779296875</ele>
        <time>2019-07-26T15:20:14.000Z</time>
      </trkpt>
      <trkpt lat="42.90820528753101825714111328125" lon="-8.42694223858416080474853515625">
        <ele>344.399993896484375</ele>
        <time>2019-07-26T15:20:16.000Z</time>
      </trkpt>
      <trkpt lat="42.90819740854203701019287109375" lon="-8.42695824801921844482421875">
        <ele>344.79998779296875</ele>
        <time>2019-07-26T15:20:17.000Z</time>
      </trkpt>
      <trkpt lat="42.90814326144754886627197265625" lon="-8.4269922785460948944091796875">
        <ele>346.20001220703125</ele>
        <time>2019-07-26T15:20:21.000Z</time>
      </trkpt>
      <trkpt lat="42.9081143438816070556640625" lon="-8.42703795991837978363037109375">
        <ele>347.399993896484375</ele>
        <time>2019-07-26T15:20:24.000Z</time>
      </trkpt>
      <trkpt lat="42.9080917127430438995361328125" lon="-8.42705841176211833953857421875">
        <ele>348</ele>
        <time>2019-07-26T15:20:26.000Z</time>
      </trkpt>
      <trkpt lat="42.90806212462484836578369140625" lon="-8.42706779949367046356201171875">
        <ele>348.600006103515625</ele>
        <time>2019-07-26T15:20:28.000Z</time>
      </trkpt>
      <trkpt lat="42.9080350510776042938232421875" lon="-8.42712110839784145355224609375">
        <ele>349.600006103515625</ele>
        <time>2019-07-26T15:20:31.000Z</time>
      </trkpt>
      <trkpt lat="42.9080276750028133392333984375" lon="-8.42714323662221431732177734375">
        <ele>350</ele>
        <time>2019-07-26T15:20:32.000Z</time>
      </trkpt>
      <trkpt lat="42.90798199363052845001220703125" lon="-8.4271947853267192840576171875">
        <ele>351</ele>
        <time>2019-07-26T15:20:36.000Z</time>
      </trkpt>
      <trkpt lat="42.90793455205857753753662109375" lon="-8.427223451435565948486328125">
        <ele>351.600006103515625</ele>
        <time>2019-07-26T15:20:39.000Z</time>
      </trkpt>
      <trkpt lat="42.90790605358779430389404296875" lon="-8.42724264599382877349853515625">
        <ele>352</ele>
        <time>2019-07-26T15:20:41.000Z</time>
      </trkpt>
      <trkpt lat="42.90783514268696308135986328125" lon="-8.42728707008063793182373046875">
        <ele>353.20001220703125</ele>
        <time>2019-07-26T15:20:46.000Z</time>
      </trkpt>
      <trkpt lat="42.907778732478618621826171875" lon="-8.4273258782923221588134765625">
        <ele>354.399993896484375</ele>
        <time>2019-07-26T15:20:50.000Z</time>
      </trkpt>
      <trkpt lat="42.90773816406726837158203125" lon="-8.427365608513355255126953125">
        <ele>354.79998779296875</ele>
        <time>2019-07-26T15:20:53.000Z</time>
      </trkpt>
      <trkpt lat="42.90771645493805408477783203125" lon="-8.4273832105100154876708984375">
        <ele>355.399993896484375</ele>
        <time>2019-07-26T15:20:55.000Z</time>
      </trkpt>
      <trkpt lat="42.90761034004390239715576171875" lon="-8.4274435602128505706787109375">
        <ele>356.600006103515625</ele>
        <time>2019-07-26T15:21:01.000Z</time>
      </trkpt>
      <trkpt lat="42.90751964785158634185791015625" lon="-8.42750717885792255401611328125">
        <ele>357.79998779296875</ele>
        <time>2019-07-26T15:21:05.000Z</time>
      </trkpt>
      <trkpt lat="42.90747757069766521453857421875" lon="-8.427550680935382843017578125">
        <ele>358</ele>
        <time>2019-07-26T15:21:07.000Z</time>
      </trkpt>
      <trkpt lat="42.90741772390902042388916015625" lon="-8.4276554547250270843505859375">
        <ele>358.79998779296875</ele>
        <time>2019-07-26T15:21:11.000Z</time>
      </trkpt>
      <trkpt lat="42.90736131370067596435546875" lon="-8.4277198277413845062255859375">
        <ele>359.399993896484375</ele>
        <time>2019-07-26T15:21:14.000Z</time>
      </trkpt>
      <trkpt lat="42.9072880558669567108154296875" lon="-8.427772633731365203857421875">
        <ele>359.79998779296875</ele>
        <time>2019-07-26T15:21:17.000Z</time>
      </trkpt>
      <trkpt lat="42.9072439670562744140625" lon="-8.42784882523119449615478515625">
        <ele>360</ele>
        <time>2019-07-26T15:21:20.000Z</time>
      </trkpt>
      <trkpt lat="42.907159142196178436279296875" lon="-8.42792862094938755035400390625">
        <ele>360.20001220703125</ele>
        <time>2019-07-26T15:21:23.000Z</time>
      </trkpt>
      <trkpt lat="42.90711991488933563232421875" lon="-8.42797773890197277069091796875">
        <ele>360.399993896484375</ele>
        <time>2019-07-26T15:21:24.000Z</time>
      </trkpt>
      <trkpt lat="42.90704556740820407867431640625" lon="-8.42813573777675628662109375">
        <ele>360.399993896484375</ele>
        <time>2019-07-26T15:21:26.000Z</time>
      </trkpt>
      <trkpt lat="42.9070092737674713134765625" lon="-8.42823238112032413482666015625">
        <ele>360.399993896484375</ele>
        <time>2019-07-26T15:21:27.000Z</time>
      </trkpt>
      <trkpt lat="42.90688865818083286285400390625" lon="-8.428548462688922882080078125">
        <ele>360.399993896484375</ele>
        <time>2019-07-26T15:21:30.000Z</time>
      </trkpt>
      <trkpt lat="42.90680953301489353179931640625" lon="-8.42878072522580623626708984375">
        <ele>360.20001220703125</ele>
        <time>2019-07-26T15:21:32.000Z</time>
      </trkpt>
      <trkpt lat="42.9066386260092258453369140625" lon="-8.42925396747887134552001953125">
        <ele>359.600006103515625</ele>
        <time>2019-07-26T15:21:36.000Z</time>
      </trkpt>
      <trkpt lat="42.9065947048366069793701171875" lon="-8.429359160363674163818359375">
        <ele>359</ele>
        <time>2019-07-26T15:21:37.000Z</time>
      </trkpt>
      <trkpt lat="42.9065450839698314666748046875" lon="-8.42946477234363555908203125">
        <ele>358.600006103515625</ele>
        <time>2019-07-26T15:21:38.000Z</time>
      </trkpt>
      <trkpt lat="42.9064341075718402862548828125" lon="-8.4296671114861965179443359375">
        <ele>357.79998779296875</ele>
        <time>2019-07-26T15:21:40.000Z</time>
      </trkpt>
      <trkpt lat="42.906366549432277679443359375" lon="-8.42974699102342128753662109375">
        <ele>357.20001220703125</ele>
        <time>2019-07-26T15:21:41.000Z</time>
      </trkpt>
      <trkpt lat="42.90629647672176361083984375" lon="-8.42981924302875995635986328125">
        <ele>356.20001220703125</ele>
        <time>2019-07-26T15:21:42.000Z</time>
      </trkpt>
      <trkpt lat="42.9062285833060741424560546875" lon="-8.42988814227283000946044921875">
        <ele>355.79998779296875</ele>
        <time>2019-07-26T15:21:43.000Z</time>
      </trkpt>
      <trkpt lat="42.90608969517052173614501953125" lon="-8.4300349093973636627197265625">
        <ele>354</ele>
        <time>2019-07-26T15:21:45.000Z</time>
      </trkpt>
      <trkpt lat="42.9060408286750316619873046875" lon="-8.4301100112497806549072265625">
        <ele>352.79998779296875</ele>
        <time>2019-07-26T15:21:46.000Z</time>
      </trkpt>
      <trkpt lat="42.90598668158054351806640625" lon="-8.4301723726093769073486328125">
        <ele>351.79998779296875</ele>
        <time>2019-07-26T15:21:47.000Z</time>
      </trkpt>
      <trkpt lat="42.90586656890809535980224609375" lon="-8.43028552830219268798828125">
        <ele>349.79998779296875</ele>
        <time>2019-07-26T15:21:49.000Z</time>
      </trkpt>
      <trkpt lat="42.90577151812613010406494140625" lon="-8.43041318468749523162841796875">
        <ele>348.79998779296875</ele>
        <time>2019-07-26T15:21:51.000Z</time>
      </trkpt>
      <trkpt lat="42.90573455393314361572265625" lon="-8.43047998845577239990234375">
        <ele>348.600006103515625</ele>
        <time>2019-07-26T15:21:52.000Z</time>
      </trkpt>
      <trkpt lat="42.90558569133281707763671875" lon="-8.43077997677028179168701171875">
        <ele>348.399993896484375</ele>
        <time>2019-07-26T15:21:57.000Z</time>
      </trkpt>
      <trkpt lat="42.905535735189914703369140625" lon="-8.43088810332119464874267578125">
        <ele>348.399993896484375</ele>
        <time>2019-07-26T15:21:59.000Z</time>
      </trkpt>
      <trkpt lat="42.90545686148107051849365234375" lon="-8.4311644546687602996826171875">
        <ele>349</ele>
        <time>2019-07-26T15:22:04.000Z</time>
      </trkpt>
      <trkpt lat="42.90544780902564525604248046875" lon="-8.43139252625405788421630859375">
        <ele>349.79998779296875</ele>
        <time>2019-07-26T15:22:08.000Z</time>
      </trkpt>
      <trkpt lat="42.90544847957789897918701171875" lon="-8.4314584918320178985595703125">
        <ele>349.79998779296875</ele>
        <time>2019-07-26T15:22:09.000Z</time>
      </trkpt>
      <trkpt lat="42.9054286144673824310302734375" lon="-8.4316023252904415130615234375">
        <ele>349.79998779296875</ele>
        <time>2019-07-26T15:22:11.000Z</time>
      </trkpt>
      <trkpt lat="42.90538812987506389617919921875" lon="-8.4317662753164768218994140625">
        <ele>349.79998779296875</ele>
        <time>2019-07-26T15:22:13.000Z</time>
      </trkpt>
      <trkpt lat="42.90527933277189731597900390625" lon="-8.4320603124797344207763671875">
        <ele>349.79998779296875</ele>
        <time>2019-07-26T15:22:16.000Z</time>
      </trkpt>
      <trkpt lat="42.905234992504119873046875" lon="-8.4321689419448375701904296875">
        <ele>349.600006103515625</ele>
        <time>2019-07-26T15:22:17.000Z</time>
      </trkpt>
      <trkpt lat="42.9050123691558837890625" lon="-8.43257688917219638824462890625">
        <ele>348.600006103515625</ele>
        <time>2019-07-26T15:22:21.000Z</time>
      </trkpt>
      <trkpt lat="42.90494523011147975921630859375" lon="-8.43266841955482959747314453125">
        <ele>347.20001220703125</ele>
        <time>2019-07-26T15:22:22.000Z</time>
      </trkpt>
      <trkpt lat="42.904879264533519744873046875" lon="-8.432757854461669921875">
        <ele>346.20001220703125</ele>
        <time>2019-07-26T15:22:23.000Z</time>
      </trkpt>
      <trkpt lat="42.904753200709819793701171875" lon="-8.43293479643762111663818359375">
        <ele>344.600006103515625</ele>
        <time>2019-07-26T15:22:25.000Z</time>
      </trkpt>
      <trkpt lat="42.904568798840045928955078125" lon="-8.43319446779787540435791015625">
        <ele>343.20001220703125</ele>
        <time>2019-07-26T15:22:28.000Z</time>
      </trkpt>
      <trkpt lat="42.90452395565807819366455078125" lon="-8.43329002149403095245361328125">
        <ele>342.79998779296875</ele>
        <time>2019-07-26T15:22:29.000Z</time>
      </trkpt>
      <trkpt lat="42.90440090931951999664306640625" lon="-8.43355455435812473297119140625">
        <ele>341.79998779296875</ele>
        <time>2019-07-26T15:22:32.000Z</time>
      </trkpt>
      <trkpt lat="42.9043765179812908172607421875" lon="-8.43364189378917217254638671875">
        <ele>341.600006103515625</ele>
        <time>2019-07-26T15:22:33.000Z</time>
      </trkpt>
      <trkpt lat="42.90435715578496456146240234375" lon="-8.43373895622789859771728515625">
        <ele>341.20001220703125</ele>
        <time>2019-07-26T15:22:34.000Z</time>
      </trkpt>
      <trkpt lat="42.90430225431919097900390625" lon="-8.4339301474392414093017578125">
        <ele>340.79998779296875</ele>
        <time>2019-07-26T15:22:36.000Z</time>
      </trkpt>
      <trkpt lat="42.90427652187645435333251953125" lon="-8.43402511440217494964599609375">
        <ele>340.600006103515625</ele>
        <time>2019-07-26T15:22:37.000Z</time>
      </trkpt>
      <trkpt lat="42.90424265898764133453369140625" lon="-8.43421672470867633819580078125">
        <ele>340.20001220703125</ele>
        <time>2019-07-26T15:22:39.000Z</time>
      </trkpt>
      <trkpt lat="42.9042008332908153533935546875" lon="-8.4344203211367130279541015625">
        <ele>339.600006103515625</ele>
        <time>2019-07-26T15:22:41.000Z</time>
      </trkpt>
      <trkpt lat="42.90413537062704563140869140625" lon="-8.43470689840614795684814453125">
        <ele>339</ele>
        <time>2019-07-26T15:22:44.000Z</time>
      </trkpt>
      <trkpt lat="42.9041258990764617919921875" lon="-8.4347928129136562347412109375">
        <ele>339</ele>
        <time>2019-07-26T15:22:45.000Z</time>
      </trkpt>
      <trkpt lat="42.90412849746644496917724609375" lon="-8.434955589473247528076171875">
        <ele>338.79998779296875</ele>
        <time>2019-07-26T15:22:47.000Z</time>
      </trkpt>
      <trkpt lat="42.90412732400000095367431640625" lon="-8.435086347162723541259765625">
        <ele>338.600006103515625</ele>
        <time>2019-07-26T15:22:49.000Z</time>
      </trkpt>
      <trkpt lat="42.90402925573289394378662109375" lon="-8.43524384312331676483154296875">
        <ele>338.399993896484375</ele>
        <time>2019-07-26T15:22:52.000Z</time>
      </trkpt>
      <trkpt lat="42.90398181416094303131103515625" lon="-8.43529379926621913909912109375">
        <ele>338.399993896484375</ele>
        <time>2019-07-26T15:22:53.000Z</time>
      </trkpt>
      <trkpt lat="42.9039356298744678497314453125" lon="-8.43534878455102443695068359375">
        <ele>338.20001220703125</ele>
        <time>2019-07-26T15:22:54.000Z</time>
      </trkpt>
      <trkpt lat="42.90380193851888179779052734375" lon="-8.43554408289492130279541015625">
        <ele>337.399993896484375</ele>
        <time>2019-07-26T15:22:57.000Z</time>
      </trkpt>
      <trkpt lat="42.90370839647948741912841796875" lon="-8.4356854856014251708984375">
        <ele>337.20001220703125</ele>
        <time>2019-07-26T15:22:59.000Z</time>
      </trkpt>
      <trkpt lat="42.90348443202674388885498046875" lon="-8.43595026992261409759521484375">
        <ele>336.79998779296875</ele>
        <time>2019-07-26T15:23:03.000Z</time>
      </trkpt>
      <trkpt lat="42.9033944942057132720947265625" lon="-8.4361067600548267364501953125">
        <ele>336.600006103515625</ele>
        <time>2019-07-26T15:23:05.000Z</time>
      </trkpt>
      <trkpt lat="42.903350405395030975341796875" lon="-8.4361872263252735137939453125">
        <ele>336.399993896484375</ele>
        <time>2019-07-26T15:23:06.000Z</time>
      </trkpt>
      <trkpt lat="42.90325493551790714263916015625" lon="-8.43635695986449718475341796875">
        <ele>336</ele>
        <time>2019-07-26T15:23:08.000Z</time>
      </trkpt>
      <trkpt lat="42.90310422889888286590576171875" lon="-8.4366277791559696197509765625">
        <ele>335.20001220703125</ele>
        <time>2019-07-26T15:23:11.000Z</time>
      </trkpt>
      <trkpt lat="42.902901135385036468505859375" lon="-8.43697923235595226287841796875">
        <ele>334.399993896484375</ele>
        <time>2019-07-26T15:23:15.000Z</time>
      </trkpt>
      <trkpt lat="42.90285193361341953277587890625" lon="-8.4370743669569492340087890625">
        <ele>334</ele>
        <time>2019-07-26T15:23:16.000Z</time>
      </trkpt>
      <trkpt lat="42.9027115367352962493896484375" lon="-8.4373752772808074951171875">
        <ele>333</ele>
        <time>2019-07-26T15:23:19.000Z</time>
      </trkpt>
      <trkpt lat="42.90265613235533237457275390625" lon="-8.437484912574291229248046875">
        <ele>332.79998779296875</ele>
        <time>2019-07-26T15:23:20.000Z</time>
      </trkpt>
      <trkpt lat="42.9024466685950756072998046875" lon="-8.4377358667552471160888671875">
        <ele>332</ele>
        <time>2019-07-26T15:23:23.000Z</time>
      </trkpt>
      <trkpt lat="42.90238606743514537811279296875" lon="-8.43782345764338970184326171875">
        <ele>331.600006103515625</ele>
        <time>2019-07-26T15:23:24.000Z</time>
      </trkpt>
      <trkpt lat="42.90233393199741840362548828125" lon="-8.43791431747376918792724609375">
        <ele>331.399993896484375</ele>
        <time>2019-07-26T15:23:25.000Z</time>
      </trkpt>
      <trkpt lat="42.9022441618144512176513671875" lon="-8.43809955753386020660400390625">
        <ele>330.600006103515625</ele>
        <time>2019-07-26T15:23:27.000Z</time>
      </trkpt>
      <trkpt lat="42.90215455926954746246337890625" lon="-8.4382773377001285552978515625">
        <ele>329.399993896484375</ele>
        <time>2019-07-26T15:23:29.000Z</time>
      </trkpt>
      <trkpt lat="42.90207778103649616241455078125" lon="-8.4384543634951114654541015625">
        <ele>329</ele>
        <time>2019-07-26T15:23:31.000Z</time>
      </trkpt>
      <trkpt lat="42.90202262811362743377685546875" lon="-8.4387450478971004486083984375">
        <ele>328.399993896484375</ele>
        <time>2019-07-26T15:23:34.000Z</time>
      </trkpt>
      <trkpt lat="42.90201709605753421783447265625" lon="-8.43884772621095180511474609375">
        <ele>328.399993896484375</ele>
        <time>2019-07-26T15:23:35.000Z</time>
      </trkpt>
      <trkpt lat="42.90201173163950443267822265625" lon="-8.43894906342029571533203125">
        <ele>328.20001220703125</ele>
        <time>2019-07-26T15:23:36.000Z</time>
      </trkpt>
      <trkpt lat="42.9019927047193050384521484375" lon="-8.43944787047803401947021484375">
        <ele>327.399993896484375</ele>
        <time>2019-07-26T15:23:41.000Z</time>
      </trkpt>
      <trkpt lat="42.90197543799877166748046875" lon="-8.4397424943745136260986328125">
        <ele>327</ele>
        <time>2019-07-26T15:23:44.000Z</time>
      </trkpt>
      <trkpt lat="42.90195976383984088897705078125" lon="-8.43983863480389118194580078125">
        <ele>327</ele>
        <time>2019-07-26T15:23:45.000Z</time>
      </trkpt>
      <trkpt lat="42.90193025954067707061767578125" lon="-8.4400254674255847930908203125">
        <ele>326.79998779296875</ele>
        <time>2019-07-26T15:23:47.000Z</time>
      </trkpt>
      <trkpt lat="42.9019023478031158447265625" lon="-8.440209366381168365478515625">
        <ele>326.399993896484375</ele>
        <time>2019-07-26T15:23:49.000Z</time>
      </trkpt>
      <trkpt lat="42.90189354680478572845458984375" lon="-8.4403024055063724517822265625">
        <ele>326.399993896484375</ele>
        <time>2019-07-26T15:23:50.000Z</time>
      </trkpt>
      <trkpt lat="42.90185247547924518585205078125" lon="-8.44076449982821941375732421875">
        <ele>326</ele>
        <time>2019-07-26T15:23:55.000Z</time>
      </trkpt>
      <trkpt lat="42.90176765061914920806884765625" lon="-8.4413464553654193878173828125">
        <ele>325.20001220703125</ele>
        <time>2019-07-26T15:24:02.000Z</time>
      </trkpt>
      <trkpt lat="42.90169573388993740081787109375" lon="-8.44183822162449359893798828125">
        <ele>324.79998779296875</ele>
        <time>2019-07-26T15:24:07.000Z</time>
      </trkpt>
      <trkpt lat="42.9016285948455333709716796875" lon="-8.4423432312905788421630859375">
        <ele>324</ele>
        <time>2019-07-26T15:24:11.000Z</time>
      </trkpt>
      <trkpt lat="42.9016021080315113067626953125" lon="-8.4424783475697040557861328125">
        <ele>323.600006103515625</ele>
        <time>2019-07-26T15:24:12.000Z</time>
      </trkpt>
      <trkpt lat="42.901565730571746826171875" lon="-8.44260835088789463043212890625">
        <ele>322.79998779296875</ele>
        <time>2019-07-26T15:24:13.000Z</time>
      </trkpt>
      <trkpt lat="42.90148115716874599456787109375" lon="-8.44286106526851654052734375">
        <ele>321.600006103515625</ele>
        <time>2019-07-26T15:24:15.000Z</time>
      </trkpt>
      <trkpt lat="42.901380322873592376708984375" lon="-8.4430858679115772247314453125">
        <ele>320.20001220703125</ele>
        <time>2019-07-26T15:24:17.000Z</time>
      </trkpt>
      <trkpt lat="42.90127898566424846649169921875" lon="-8.44329063780605792999267578125">
        <ele>318.79998779296875</ele>
        <time>2019-07-26T15:24:19.000Z</time>
      </trkpt>
      <trkpt lat="42.90119416080415248870849609375" lon="-8.44349783845245838165283203125">
        <ele>317.600006103515625</ele>
        <time>2019-07-26T15:24:21.000Z</time>
      </trkpt>
      <trkpt lat="42.90109240449965000152587890625" lon="-8.44380796886980533599853515625">
        <ele>316.399993896484375</ele>
        <time>2019-07-26T15:24:24.000Z</time>
      </trkpt>
      <trkpt lat="42.90106357075273990631103515625" lon="-8.44391073100268840789794921875">
        <ele>316.20001220703125</ele>
        <time>2019-07-26T15:24:25.000Z</time>
      </trkpt>
      <trkpt lat="42.90097656659781932830810546875" lon="-8.4442110545933246612548828125">
        <ele>315.20001220703125</ele>
        <time>2019-07-26T15:24:28.000Z</time>
      </trkpt>
      <trkpt lat="42.90087061934173107147216796875" lon="-8.4445917606353759765625">
        <ele>314.399993896484375</ele>
        <time>2019-07-26T15:24:32.000Z</time>
      </trkpt>
      <trkpt lat="42.90084765292704105377197265625" lon="-8.444685973227024078369140625">
        <ele>314.399993896484375</ele>
        <time>2019-07-26T15:24:33.000Z</time>
      </trkpt>
      <trkpt lat="42.900814376771450042724609375" lon="-8.4448769129812717437744140625">
        <ele>314.20001220703125</ele>
        <time>2019-07-26T15:24:35.000Z</time>
      </trkpt>
      <trkpt lat="42.9007779993116855621337890625" lon="-8.445163071155548095703125">
        <ele>314</ele>
        <time>2019-07-26T15:24:38.000Z</time>
      </trkpt>
      <trkpt lat="42.90071186609566211700439453125" lon="-8.44559951685369014739990234375">
        <ele>313.79998779296875</ele>
        <time>2019-07-26T15:24:43.000Z</time>
      </trkpt>
      <trkpt lat="42.90068806149065494537353515625" lon="-8.445755504071712493896484375">
        <ele>313.600006103515625</ele>
        <time>2019-07-26T15:24:45.000Z</time>
      </trkpt>
      <trkpt lat="42.9005827009677886962890625" lon="-8.44619815237820148468017578125">
        <ele>313</ele>
        <time>2019-07-26T15:24:51.000Z</time>
      </trkpt>
      <trkpt lat="42.900562919676303863525390625" lon="-8.4462669678032398223876953125">
        <ele>313</ele>
        <time>2019-07-26T15:24:52.000Z</time>
      </trkpt>
      <trkpt lat="42.9005252011120319366455078125" lon="-8.44640904106199741363525390625">
        <ele>312.79998779296875</ele>
        <time>2019-07-26T15:24:54.000Z</time>
      </trkpt>
      <trkpt lat="42.90047382004559040069580078125" lon="-8.44666066579520702362060546875">
        <ele>312.79998779296875</ele>
        <time>2019-07-26T15:24:57.000Z</time>
      </trkpt>
      <trkpt lat="42.9004467464983463287353515625" lon="-8.4467400424182415008544921875">
        <ele>312.600006103515625</ele>
        <time>2019-07-26T15:24:58.000Z</time>
      </trkpt>
      <trkpt lat="42.900363095104694366455078125" lon="-8.4468550421297550201416015625">
        <ele>312.399993896484375</ele>
        <time>2019-07-26T15:25:00.000Z</time>
      </trkpt>
      <trkpt lat="42.90016570128500461578369140625" lon="-8.4469277970492839813232421875">
        <ele>312</ele>
        <time>2019-07-26T15:25:03.000Z</time>
      </trkpt>
      <trkpt lat="42.900094203650951385498046875" lon="-8.44692863523960113525390625">
        <ele>311.79998779296875</ele>
        <time>2019-07-26T15:25:04.000Z</time>
      </trkpt>
      <trkpt lat="42.89996855892241001129150390625" lon="-8.44691094942390918731689453125">
        <ele>311.399993896484375</ele>
        <time>2019-07-26T15:25:06.000Z</time>
      </trkpt>
      <trkpt lat="42.8999227099120616912841796875" lon="-8.446891419589519500732421875">
        <ele>311</ele>
        <time>2019-07-26T15:25:07.000Z</time>
      </trkpt>
      <trkpt lat="42.89986680261790752410888671875" lon="-8.44679410569369792938232421875">
        <ele>309.399993896484375</ele>
        <time>2019-07-26T15:25:10.000Z</time>
      </trkpt>
      <trkpt lat="42.8998625278472900390625" lon="-8.44673627056181430816650390625">
        <ele>308.20001220703125</ele>
        <time>2019-07-26T15:25:12.000Z</time>
      </trkpt>
      <trkpt lat="42.8998499549925327301025390625" lon="-8.4466793574392795562744140625">
        <ele>308</ele>
        <time>2019-07-26T15:25:14.000Z</time>
      </trkpt>
      <trkpt lat="42.8998315148055553436279296875" lon="-8.44665228389203548431396484375">
        <ele>307.79998779296875</ele>
        <time>2019-07-26T15:25:15.000Z</time>
      </trkpt>
      <trkpt lat="42.89969128556549549102783203125" lon="-8.446576930582523345947265625">
        <ele>307.79998779296875</ele>
        <time>2019-07-26T15:25:20.000Z</time>
      </trkpt>
      <trkpt lat="42.8995807282626628875732421875" lon="-8.44647358171641826629638671875">
        <ele>307.79998779296875</ele>
        <time>2019-07-26T15:25:25.000Z</time>
      </trkpt>
      <trkpt lat="42.899566479027271270751953125" lon="-8.44642840325832366943359375">
        <ele>308</ele>
        <time>2019-07-26T15:25:26.000Z</time>
      </trkpt>
      <trkpt lat="42.8995321132242679595947265625" lon="-8.44616563059389591217041015625">
        <ele>308</ele>
        <time>2019-07-26T15:25:31.000Z</time>
      </trkpt>
      <trkpt lat="42.89951727725565433502197265625" lon="-8.446000926196575164794921875">
        <ele>308.20001220703125</ele>
        <time>2019-07-26T15:25:34.000Z</time>
      </trkpt>
      <trkpt lat="42.899514175951480865478515625" lon="-8.44583052210509777069091796875">
        <ele>308.20001220703125</ele>
        <time>2019-07-26T15:25:37.000Z</time>
      </trkpt>
      <trkpt lat="42.899518199265003204345703125" lon="-8.445614688098430633544921875">
        <ele>308.79998779296875</ele>
        <time>2019-07-26T15:25:41.000Z</time>
      </trkpt>
      <trkpt lat="42.89950847625732421875" lon="-8.4454388357698917388916015625">
        <ele>309.20001220703125</ele>
        <time>2019-07-26T15:25:44.000Z</time>
      </trkpt>
      <trkpt lat="42.89946732111275196075439453125" lon="-8.445135913789272308349609375">
        <ele>309.79998779296875</ele>
        <time>2019-07-26T15:25:50.000Z</time>
      </trkpt>
      <trkpt lat="42.89930420927703380584716796875" lon="-8.444861657917499542236328125">
        <ele>310</ele>
        <time>2019-07-26T15:25:55.000Z</time>
      </trkpt>
      <trkpt lat="42.89907286874949932098388671875" lon="-8.44473056495189666748046875">
        <ele>310</ele>
        <time>2019-07-26T15:25:59.000Z</time>
      </trkpt>
      <trkpt lat="42.898936159908771514892578125" lon="-8.444696366786956787109375">
        <ele>309.79998779296875</ele>
        <time>2019-07-26T15:26:01.000Z</time>
      </trkpt>
      <trkpt lat="42.89880238473415374755859375" lon="-8.44464079476892948150634765625">
        <ele>309.600006103515625</ele>
        <time>2019-07-26T15:26:03.000Z</time>
      </trkpt>
      <trkpt lat="42.898744046688079833984375" lon="-8.4445949457585811614990234375">
        <ele>309.600006103515625</ele>
        <time>2019-07-26T15:26:04.000Z</time>
      </trkpt>
      <trkpt lat="42.89860381744801998138427734375" lon="-8.4443495236337184906005859375">
        <ele>309.399993896484375</ele>
        <time>2019-07-26T15:26:07.000Z</time>
      </trkpt>
      <trkpt lat="42.89845663122832775115966796875" lon="-8.44421482644975185394287109375">
        <ele>308.399993896484375</ele>
        <time>2019-07-26T15:26:09.000Z</time>
      </trkpt>
      <trkpt lat="42.8983847983181476593017578125" lon="-8.4441845677793025970458984375">
        <ele>308</ele>
        <time>2019-07-26T15:26:10.000Z</time>
      </trkpt>
      <trkpt lat="42.89823635481297969818115234375" lon="-8.44416671432554721832275390625">
        <ele>307.20001220703125</ele>
        <time>2019-07-26T15:26:12.000Z</time>
      </trkpt>
      <trkpt lat="42.8981775976717472076416015625" lon="-8.44420015811920166015625">
        <ele>306.79998779296875</ele>
        <time>2019-07-26T15:26:13.000Z</time>
      </trkpt>
      <trkpt lat="42.8981460817158222198486328125" lon="-8.44432898797094821929931640625">
        <ele>305.600006103515625</ele>
        <time>2019-07-26T15:26:15.000Z</time>
      </trkpt>
      <trkpt lat="42.89823853410780429840087890625" lon="-8.44453015364706516265869140625">
        <ele>304.600006103515625</ele>
        <time>2019-07-26T15:26:18.000Z</time>
      </trkpt>
      <trkpt lat="42.89827139116823673248291015625" lon="-8.44459854997694492340087890625">
        <ele>304.600006103515625</ele>
        <time>2019-07-26T15:26:19.000Z</time>
      </trkpt>
      <trkpt lat="42.8982962854206562042236328125" lon="-8.44467381946742534637451171875">
        <ele>304.600006103515625</ele>
        <time>2019-07-26T15:26:20.000Z</time>
      </trkpt>
      <trkpt lat="42.89831581525504589080810546875" lon="-8.44484196044504642486572265625">
        <ele>304.399993896484375</ele>
        <time>2019-07-26T15:26:22.000Z</time>
      </trkpt>
      <trkpt lat="42.898285053670406341552734375" lon="-8.4450951777398586273193359375">
        <ele>304.20001220703125</ele>
        <time>2019-07-26T15:26:25.000Z</time>
      </trkpt>
      <trkpt lat="42.898258231580257415771484375" lon="-8.44516382552683353424072265625">
        <ele>304.20001220703125</ele>
        <time>2019-07-26T15:26:26.000Z</time>
      </trkpt>
      <trkpt lat="42.89819159545004367828369140625" lon="-8.4452661685645580291748046875">
        <ele>304.20001220703125</ele>
        <time>2019-07-26T15:26:28.000Z</time>
      </trkpt>
      <trkpt lat="42.898122780025005340576171875" lon="-8.445347808301448822021484375">
        <ele>304.20001220703125</ele>
        <time>2019-07-26T15:26:30.000Z</time>
      </trkpt>
      <trkpt lat="42.89800702594220638275146484375" lon="-8.44550547190010547637939453125">
        <ele>304.20001220703125</ele>
        <time>2019-07-26T15:26:34.000Z</time>
      </trkpt>
      <trkpt lat="42.89795815944671630859375" lon="-8.44558459706604480743408203125">
        <ele>304.600006103515625</ele>
        <time>2019-07-26T15:26:36.000Z</time>
      </trkpt>
      <trkpt lat="42.89790778420865535736083984375" lon="-8.44569037668406963348388671875">
        <ele>305</ele>
        <time>2019-07-26T15:26:39.000Z</time>
      </trkpt>
      <trkpt lat="42.89786989800631999969482421875" lon="-8.44575525261461734771728515625">
        <ele>305.600006103515625</ele>
        <time>2019-07-26T15:26:41.000Z</time>
      </trkpt>
      <trkpt lat="42.897850535809993743896484375" lon="-8.4457898698747158050537109375">
        <ele>305.79998779296875</ele>
        <time>2019-07-26T15:26:42.000Z</time>
      </trkpt>
      <trkpt lat="42.89779328741133213043212890625" lon="-8.4458978287875652313232421875">
        <ele>306.79998779296875</ele>
        <time>2019-07-26T15:26:45.000Z</time>
      </trkpt>
      <trkpt lat="42.89774098433554172515869140625" lon="-8.44600939191877841949462890625">
        <ele>307.399993896484375</ele>
        <time>2019-07-26T15:26:48.000Z</time>
      </trkpt>
      <trkpt lat="42.8977102227509021759033203125" lon="-8.4460862539708614349365234375">
        <ele>308</ele>
        <time>2019-07-26T15:26:50.000Z</time>
      </trkpt>
      <trkpt lat="42.89769857190549373626708984375" lon="-8.44612506218254566192626953125">
        <ele>308.399993896484375</ele>
        <time>2019-07-26T15:26:51.000Z</time>
      </trkpt>
      <trkpt lat="42.89766470901668071746826171875" lon="-8.446194715797901153564453125">
        <ele>309.20001220703125</ele>
        <time>2019-07-26T15:26:53.000Z</time>
      </trkpt>
      <trkpt lat="42.897609807550907135009765625" lon="-8.446339555084705352783203125">
        <ele>310.399993896484375</ele>
        <time>2019-07-26T15:26:57.000Z</time>
      </trkpt>
      <trkpt lat="42.89755918085575103759765625" lon="-8.44648699276149272918701171875">
        <ele>311.79998779296875</ele>
        <time>2019-07-26T15:27:01.000Z</time>
      </trkpt>
      <trkpt lat="42.89752556942403316497802734375" lon="-8.446595035493373870849609375">
        <ele>313</ele>
        <time>2019-07-26T15:27:04.000Z</time>
      </trkpt>
      <trkpt lat="42.89751299656927585601806640625" lon="-8.44662998802959918975830078125">
        <ele>313.20001220703125</ele>
        <time>2019-07-26T15:27:05.000Z</time>
      </trkpt>
      <trkpt lat="42.897491455078125" lon="-8.44674280844628810882568359375">
        <ele>314.20001220703125</ele>
        <time>2019-07-26T15:27:08.000Z</time>
      </trkpt>
      <trkpt lat="42.89745591580867767333984375" lon="-8.44684054143726825714111328125">
        <ele>315.20001220703125</ele>
        <time>2019-07-26T15:27:11.000Z</time>
      </trkpt>
      <trkpt lat="42.89741274900734424591064453125" lon="-8.44695403240621089935302734375">
        <ele>316.399993896484375</ele>
        <time>2019-07-26T15:27:15.000Z</time>
      </trkpt>
      <trkpt lat="42.89737670682370662689208984375" lon="-8.4470231831073760986328125">
        <ele>317.399993896484375</ele>
        <time>2019-07-26T15:27:18.000Z</time>
      </trkpt>
      <trkpt lat="42.8973357193171977996826171875" lon="-8.4471433795988559722900390625">
        <ele>318.600006103515625</ele>
        <time>2019-07-26T15:27:22.000Z</time>
      </trkpt>
      <trkpt lat="42.8973293490707874298095703125" lon="-8.447177074849605560302734375">
        <ele>318.79998779296875</ele>
        <time>2019-07-26T15:27:23.000Z</time>
      </trkpt>
      <trkpt lat="42.8972995094954967498779296875" lon="-8.4472278691828250885009765625">
        <ele>319.600006103515625</ele>
        <time>2019-07-26T15:27:25.000Z</time>
      </trkpt>
      <trkpt lat="42.89725282229483127593994140625" lon="-8.447314202785491943359375">
        <ele>320.79998779296875</ele>
        <time>2019-07-26T15:27:28.000Z</time>
      </trkpt>
      <trkpt lat="42.8972004354000091552734375" lon="-8.44740816392004489898681640625">
        <ele>322</ele>
        <time>2019-07-26T15:27:31.000Z</time>
      </trkpt>
      <trkpt lat="42.89714151062071323394775390625" lon="-8.447456695139408111572265625">
        <ele>323.20001220703125</ele>
        <time>2019-07-26T15:27:33.000Z</time>
      </trkpt>
      <trkpt lat="42.89708971045911312103271484375" lon="-8.447493575513362884521484375">
        <ele>324</ele>
        <time>2019-07-26T15:27:35.000Z</time>
      </trkpt>
      <trkpt lat="42.8970617987215518951416015625" lon="-8.44750799238681793212890625">
        <ele>324.399993896484375</ele>
        <time>2019-07-26T15:27:36.000Z</time>
      </trkpt>
      <trkpt lat="42.897006981074810028076171875" lon="-8.4475209005177021026611328125">
        <ele>325.600006103515625</ele>
        <time>2019-07-26T15:27:38.000Z</time>
      </trkpt>
      <trkpt lat="42.89697940461337566375732421875" lon="-8.44752140343189239501953125">
        <ele>326</ele>
        <time>2019-07-26T15:27:39.000Z</time>
      </trkpt>
      <trkpt lat="42.89692659862339496612548828125" lon="-8.44751796685159206390380859375">
        <ele>326.79998779296875</ele>
        <time>2019-07-26T15:27:41.000Z</time>
      </trkpt>
      <trkpt lat="42.8968468867242336273193359375" lon="-8.44752752222120761871337890625">
        <ele>328</ele>
        <time>2019-07-26T15:27:44.000Z</time>
      </trkpt>
      <trkpt lat="42.89680858142673969268798828125" lon="-8.44754445366561412811279296875">
        <ele>329</ele>
        <time>2019-07-26T15:27:46.000Z</time>
      </trkpt>
      <trkpt lat="42.89679030887782573699951171875" lon="-8.44755551777780055999755859375">
        <ele>329.399993896484375</ele>
        <time>2019-07-26T15:27:47.000Z</time>
      </trkpt>
      <trkpt lat="42.89671990089118480682373046875" lon="-8.44760145060718059539794921875">
        <ele>330.399993896484375</ele>
        <time>2019-07-26T15:27:51.000Z</time>
      </trkpt>
      <trkpt lat="42.89666810072958469390869140625" lon="-8.44762056134641170501708984375">
        <ele>331</ele>
        <time>2019-07-26T15:27:53.000Z</time>
      </trkpt>
      <trkpt lat="42.89658713154494762420654296875" lon="-8.4476241655647754669189453125">
        <ele>331.600006103515625</ele>
        <time>2019-07-26T15:27:56.000Z</time>
      </trkpt>
      <trkpt lat="42.896522842347621917724609375" lon="-8.44760882668197154998779296875">
        <ele>332.20001220703125</ele>
        <time>2019-07-26T15:27:58.000Z</time>
      </trkpt>
      <trkpt lat="42.896404154598712921142578125" lon="-8.44759373925626277923583984375">
        <ele>333</ele>
        <time>2019-07-26T15:28:01.000Z</time>
      </trkpt>
      <trkpt lat="42.89626928977668285369873046875" lon="-8.4475849382579326629638671875">
        <ele>333.600006103515625</ele>
        <time>2019-07-26T15:28:04.000Z</time>
      </trkpt>
      <trkpt lat="42.896067537367343902587890625" lon="-8.44767672009766101837158203125">
        <ele>333.79998779296875</ele>
        <time>2019-07-26T15:28:08.000Z</time>
      </trkpt>
      <trkpt lat="42.89584768004715442657470703125" lon="-8.44781653024256229400634765625">
        <ele>333.79998779296875</ele>
        <time>2019-07-26T15:28:12.000Z</time>
      </trkpt>
      <trkpt lat="42.89574894122779369354248046875" lon="-8.44786749221384525299072265625">
        <ele>333.399993896484375</ele>
        <time>2019-07-26T15:28:14.000Z</time>
      </trkpt>
      <trkpt lat="42.89570217020809650421142578125" lon="-8.4478829987347126007080078125">
        <ele>333.20001220703125</ele>
        <time>2019-07-26T15:28:15.000Z</time>
      </trkpt>
      <trkpt lat="42.89559655822813510894775390625" lon="-8.44788760878145694732666015625">
        <ele>333</ele>
        <time>2019-07-26T15:28:17.000Z</time>
      </trkpt>
      <trkpt lat="42.8955490328371524810791015625" lon="-8.4478886984288692474365234375">
        <ele>333</ele>
        <time>2019-07-26T15:28:18.000Z</time>
      </trkpt>
      <trkpt lat="42.89541416801512241363525390625" lon="-8.44788014888763427734375">
        <ele>333</ele>
        <time>2019-07-26T15:28:21.000Z</time>
      </trkpt>
      <trkpt lat="42.89535683579742908477783203125" lon="-8.44786397181451320648193359375">
        <ele>333</ele>
        <time>2019-07-26T15:28:23.000Z</time>
      </trkpt>
      <trkpt lat="42.89531760849058628082275390625" lon="-8.44784251414239406585693359375">
        <ele>333</ele>
        <time>2019-07-26T15:28:25.000Z</time>
      </trkpt>
      <trkpt lat="42.8952593542635440826416015625" lon="-8.44779758714139461517333984375">
        <ele>333.20001220703125</ele>
        <time>2019-07-26T15:28:28.000Z</time>
      </trkpt>
      <trkpt lat="42.89520344696938991546630859375" lon="-8.44763405621051788330078125">
        <ele>333.79998779296875</ele>
        <time>2019-07-26T15:28:33.000Z</time>
      </trkpt>
      <trkpt lat="42.8951775468885898590087890625" lon="-8.44757412560284137725830078125">
        <ele>334.20001220703125</ele>
        <time>2019-07-26T15:28:35.000Z</time>
      </trkpt>
      <trkpt lat="42.89509012363851070404052734375" lon="-8.4474853612482547760009765625">
        <ele>335.20001220703125</ele>
        <time>2019-07-26T15:28:38.000Z</time>
      </trkpt>
      <trkpt lat="42.8950380720198154449462890625" lon="-8.4473938308656215667724609375">
        <ele>336.600006103515625</ele>
        <time>2019-07-26T15:28:41.000Z</time>
      </trkpt>
      <trkpt lat="42.8949742019176483154296875" lon="-8.44729869626462459564208984375">
        <ele>337.79998779296875</ele>
        <time>2019-07-26T15:28:44.000Z</time>
      </trkpt>
      <trkpt lat="42.89495182223618030548095703125" lon="-8.44726868905127048492431640625">
        <ele>338.20001220703125</ele>
        <time>2019-07-26T15:28:45.000Z</time>
      </trkpt>
      <trkpt lat="42.8949076496064662933349609375" lon="-8.44721965491771697998046875">
        <ele>338.79998779296875</ele>
        <time>2019-07-26T15:28:47.000Z</time>
      </trkpt>
      <trkpt lat="42.894816957414150238037109375" lon="-8.44716743566095829010009765625">
        <ele>339.79998779296875</ele>
        <time>2019-07-26T15:28:50.000Z</time>
      </trkpt>
      <trkpt lat="42.89478401653468608856201171875" lon="-8.44715662300586700439453125">
        <ele>340</ele>
        <time>2019-07-26T15:28:51.000Z</time>
      </trkpt>
      <trkpt lat="42.89462727494537830352783203125" lon="-8.447154946625232696533203125">
        <ele>341.20001220703125</ele>
        <time>2019-07-26T15:28:56.000Z</time>
      </trkpt>
      <trkpt lat="42.8944966010749340057373046875" lon="-8.44723197631537914276123046875">
        <ele>342</ele>
        <time>2019-07-26T15:29:01.000Z</time>
      </trkpt>
      <trkpt lat="42.8944136202335357666015625" lon="-8.44729182310402393341064453125">
        <ele>342.399993896484375</ele>
        <time>2019-07-26T15:29:04.000Z</time>
      </trkpt>
      <trkpt lat="42.89434111677110195159912109375" lon="-8.44739844091236591339111328125">
        <ele>343.20001220703125</ele>
        <time>2019-07-26T15:29:08.000Z</time>
      </trkpt>
      <trkpt lat="42.89430406875908374786376953125" lon="-8.44745191745460033416748046875">
        <ele>343.600006103515625</ele>
        <time>2019-07-26T15:29:10.000Z</time>
      </trkpt>
      <trkpt lat="42.89424623362720012664794921875" lon="-8.4475386701524257659912109375">
        <ele>344.79998779296875</ele>
        <time>2019-07-26T15:29:13.000Z</time>
      </trkpt>
      <trkpt lat="42.894197367131710052490234375" lon="-8.447632379829883575439453125">
        <ele>345.79998779296875</ele>
        <time>2019-07-26T15:29:16.000Z</time>
      </trkpt>
      <trkpt lat="42.89414715953171253204345703125" lon="-8.44772198237478733062744140625">
        <ele>347</ele>
        <time>2019-07-26T15:29:19.000Z</time>
      </trkpt>
      <trkpt lat="42.89407541044056415557861328125" lon="-8.44777948223054409027099609375">
        <ele>348</ele>
        <time>2019-07-26T15:29:22.000Z</time>
      </trkpt>
      <trkpt lat="42.89401019923388957977294921875" lon="-8.447831533849239349365234375">
        <ele>349.20001220703125</ele>
        <time>2019-07-26T15:29:25.000Z</time>
      </trkpt>
      <trkpt lat="42.89394934661686420440673828125" lon="-8.447888530790805816650390625">
        <ele>350.399993896484375</ele>
        <time>2019-07-26T15:29:28.000Z</time>
      </trkpt>
      <trkpt lat="42.89385127834975719451904296875" lon="-8.4479259140789508819580078125">
        <ele>351.600006103515625</ele>
        <time>2019-07-26T15:29:32.000Z</time>
      </trkpt>
      <trkpt lat="42.8937653638422489166259765625" lon="-8.44798835925757884979248046875">
        <ele>352.79998779296875</ele>
        <time>2019-07-26T15:29:36.000Z</time>
      </trkpt>
      <trkpt lat="42.8937452472746372222900390625" lon="-8.44799690879881381988525390625">
        <ele>353</ele>
        <time>2019-07-26T15:29:37.000Z</time>
      </trkpt>
      <trkpt lat="42.8936724923551082611083984375" lon="-8.4480355493724346160888671875">
        <ele>354</ele>
        <time>2019-07-26T15:29:40.000Z</time>
      </trkpt>
      <trkpt lat="42.8936020843684673309326171875" lon="-8.4480663947761058807373046875">
        <ele>354.79998779296875</ele>
        <time>2019-07-26T15:29:43.000Z</time>
      </trkpt>
      <trkpt lat="42.8935794532299041748046875" lon="-8.44808072783052921295166015625">
        <ele>355</ele>
        <time>2019-07-26T15:29:44.000Z</time>
      </trkpt>
      <trkpt lat="42.8935110569000244140625" lon="-8.44813152216374874114990234375">
        <ele>356</ele>
        <time>2019-07-26T15:29:47.000Z</time>
      </trkpt>
      <trkpt lat="42.89343796670436859130859375" lon="-8.44819120131433010101318359375">
        <ele>356.600006103515625</ele>
        <time>2019-07-26T15:29:50.000Z</time>
      </trkpt>
      <trkpt lat="42.8933858312666416168212890625" lon="-8.44823461957275867462158203125">
        <ele>357.20001220703125</ele>
        <time>2019-07-26T15:29:52.000Z</time>
      </trkpt>
      <trkpt lat="42.89325733669102191925048828125" lon="-8.4483911097049713134765625">
        <ele>358.20001220703125</ele>
        <time>2019-07-26T15:29:57.000Z</time>
      </trkpt>
      <trkpt lat="42.8932312689721584320068359375" lon="-8.44842539168894290924072265625">
        <ele>358.20001220703125</ele>
        <time>2019-07-26T15:29:58.000Z</time>
      </trkpt>
      <trkpt lat="42.89309271611273288726806640625" lon="-8.4485947899520397186279296875">
        <ele>358.399993896484375</ele>
        <time>2019-07-26T15:30:03.000Z</time>
      </trkpt>
      <trkpt lat="42.89306740276515483856201171875" lon="-8.44863728620111942291259765625">
        <ele>358.399993896484375</ele>
        <time>2019-07-26T15:30:04.000Z</time>
      </trkpt>
      <trkpt lat="42.89297218434512615203857421875" lon="-8.4487691335380077362060546875">
        <ele>358.600006103515625</ele>
        <time>2019-07-26T15:30:07.000Z</time>
      </trkpt>
      <trkpt lat="42.89291032589972019195556640625" lon="-8.44885177910327911376953125">
        <ele>358.399993896484375</ele>
        <time>2019-07-26T15:30:09.000Z</time>
      </trkpt>
      <trkpt lat="42.89287604391574859619140625" lon="-8.44888865947723388671875">
        <ele>358.399993896484375</ele>
        <time>2019-07-26T15:30:10.000Z</time>
      </trkpt>
      <trkpt lat="42.892807312309741973876953125" lon="-8.4489624202251434326171875">
        <ele>358.399993896484375</ele>
        <time>2019-07-26T15:30:12.000Z</time>
      </trkpt>
      <trkpt lat="42.89264646358788013458251953125" lon="-8.44918579794466495513916015625">
        <ele>358.600006103515625</ele>
        <time>2019-07-26T15:30:17.000Z</time>
      </trkpt>
      <trkpt lat="42.89261830039322376251220703125" lon="-8.44923793338239192962646484375">
        <ele>358.600006103515625</ele>
        <time>2019-07-26T15:30:18.000Z</time>
      </trkpt>
      <trkpt lat="42.89252660237252712249755859375" lon="-8.44939433969557285308837890625">
        <ele>358.79998779296875</ele>
        <time>2019-07-26T15:30:21.000Z</time>
      </trkpt>
      <trkpt lat="42.89249424822628498077392578125" lon="-8.449448905885219573974609375">
        <ele>358.79998779296875</ele>
        <time>2019-07-26T15:30:22.000Z</time>
      </trkpt>
      <trkpt lat="42.89245418272912502288818359375" lon="-8.4495007060468196868896484375">
        <ele>358.79998779296875</ele>
        <time>2019-07-26T15:30:23.000Z</time>
      </trkpt>
      <trkpt lat="42.8923421166837215423583984375" lon="-8.44967261888086795806884765625">
        <ele>358.79998779296875</ele>
        <time>2019-07-26T15:30:26.000Z</time>
      </trkpt>
      <trkpt lat="42.89227581582963466644287109375" lon="-8.4497893787920475006103515625">
        <ele>358.79998779296875</ele>
        <time>2019-07-26T15:30:28.000Z</time>
      </trkpt>
      <trkpt lat="42.8921362571418285369873046875" lon="-8.4498869441449642181396484375">
        <ele>358.600006103515625</ele>
        <time>2019-07-26T15:30:31.000Z</time>
      </trkpt>
      <trkpt lat="42.892058305442333221435546875" lon="-8.449892140924930572509765625">
        <ele>358.600006103515625</ele>
        <time>2019-07-26T15:30:33.000Z</time>
      </trkpt>
      <trkpt lat="42.89202284999191761016845703125" lon="-8.4498832561075687408447265625">
        <ele>358.600006103515625</ele>
        <time>2019-07-26T15:30:34.000Z</time>
      </trkpt>
      <trkpt lat="42.89195998571813106536865234375" lon="-8.44985215924680233001708984375">
        <ele>358.600006103515625</ele>
        <time>2019-07-26T15:30:36.000Z</time>
      </trkpt>
      <trkpt lat="42.8918395377695560455322265625" lon="-8.4497940726578235626220703125">
        <ele>358.600006103515625</ele>
        <time>2019-07-26T15:30:40.000Z</time>
      </trkpt>
      <trkpt lat="42.89181120693683624267578125" lon="-8.44977688975632190704345703125">
        <ele>358.79998779296875</ele>
        <time>2019-07-26T15:30:41.000Z</time>
      </trkpt>
      <trkpt lat="42.8917211852967739105224609375" lon="-8.4497229941189289093017578125">
        <ele>359.600006103515625</ele>
        <time>2019-07-26T15:30:44.000Z</time>
      </trkpt>
      <trkpt lat="42.891664020717144012451171875" lon="-8.44972173683345317840576171875">
        <ele>360.399993896484375</ele>
        <time>2019-07-26T15:30:46.000Z</time>
      </trkpt>
      <trkpt lat="42.8916427306830883026123046875" lon="-8.44974671490490436553955078125">
        <ele>360.79998779296875</ele>
        <time>2019-07-26T15:30:47.000Z</time>
      </trkpt>
      <trkpt lat="42.891609370708465576171875" lon="-8.44988166354596614837646484375">
        <ele>361.79998779296875</ele>
        <time>2019-07-26T15:30:50.000Z</time>
      </trkpt>
      <trkpt lat="42.8915973007678985595703125" lon="-8.4499352239072322845458984375">
        <ele>362</ele>
        <time>2019-07-26T15:30:51.000Z</time>
      </trkpt>
      <trkpt lat="42.89151457138359546661376953125" lon="-8.45030109398066997528076171875">
        <ele>363</ele>
        <time>2019-07-26T15:30:57.000Z</time>
      </trkpt>
      <trkpt lat="42.8915019147098064422607421875" lon="-8.4503670595586299896240234375">
        <ele>363</ele>
        <time>2019-07-26T15:30:58.000Z</time>
      </trkpt>
      <trkpt lat="42.891448102891445159912109375" lon="-8.4508465044200420379638671875">
        <ele>363</ele>
        <time>2019-07-26T15:31:05.000Z</time>
      </trkpt>
      <trkpt lat="42.89145137183368206024169921875" lon="-8.4510114602744579315185546875">
        <ele>363</ele>
        <time>2019-07-26T15:31:07.000Z</time>
      </trkpt>
      <trkpt lat="42.89144617505371570587158203125" lon="-8.45120751298964023590087890625">
        <ele>363</ele>
        <time>2019-07-26T15:31:09.000Z</time>
      </trkpt>
      <trkpt lat="42.89144910871982574462890625" lon="-8.45132217742502689361572265625">
        <ele>363</ele>
        <time>2019-07-26T15:31:10.000Z</time>
      </trkpt>
      <trkpt lat="42.8914077021181583404541015625" lon="-8.4517195634543895721435546875">
        <ele>362.79998779296875</ele>
        <time>2019-07-26T15:31:14.000Z</time>
      </trkpt>
      <trkpt lat="42.89138029329478740692138671875" lon="-8.45196247100830078125">
        <ele>362</ele>
        <time>2019-07-26T15:31:18.000Z</time>
      </trkpt>
      <trkpt lat="42.89134718477725982666015625" lon="-8.4521651454269886016845703125">
        <ele>361.79998779296875</ele>
        <time>2019-07-26T15:31:23.000Z</time>
      </trkpt>
      <trkpt lat="42.89134374819695949554443359375" lon="-8.4522902034223079681396484375">
        <ele>361.79998779296875</ele>
        <time>2019-07-26T15:31:26.000Z</time>
      </trkpt>
      <trkpt lat="42.89133938960731029510498046875" lon="-8.45241299830377101898193359375">
        <ele>362.20001220703125</ele>
        <time>2019-07-26T15:31:29.000Z</time>
      </trkpt>
      <trkpt lat="42.89132899604737758636474609375" lon="-8.45253520645201206207275390625">
        <ele>362.79998779296875</ele>
        <time>2019-07-26T15:31:32.000Z</time>
      </trkpt>
      <trkpt lat="42.891320027410984039306640625" lon="-8.4525753557682037353515625">
        <ele>363</ele>
        <time>2019-07-26T15:31:33.000Z</time>
      </trkpt>
      <trkpt lat="42.8912611864507198333740234375" lon="-8.45272011123597621917724609375">
        <ele>364.20001220703125</ele>
        <time>2019-07-26T15:31:37.000Z</time>
      </trkpt>
      <trkpt lat="42.89123930968344211578369140625" lon="-8.452748693525791168212890625">
        <ele>364.399993896484375</ele>
        <time>2019-07-26T15:31:38.000Z</time>
      </trkpt>
      <trkpt lat="42.8911730088293552398681640625" lon="-8.45283494330942630767822265625">
        <ele>365.20001220703125</ele>
        <time>2019-07-26T15:31:41.000Z</time>
      </trkpt>
      <trkpt lat="42.89110536687076091766357421875" lon="-8.4529698081314563751220703125">
        <ele>366.600006103515625</ele>
        <time>2019-07-26T15:31:45.000Z</time>
      </trkpt>
      <trkpt lat="42.8910742700099945068359375" lon="-8.453047089278697967529296875">
        <ele>367.399993896484375</ele>
        <time>2019-07-26T15:31:47.000Z</time>
      </trkpt>
      <trkpt lat="42.89105541072785854339599609375" lon="-8.4530858136713504791259765625">
        <ele>367.600006103515625</ele>
        <time>2019-07-26T15:31:48.000Z</time>
      </trkpt>
      <trkpt lat="42.89101920090615749359130859375" lon="-8.4532467462122440338134765625">
        <ele>368.600006103515625</ele>
        <time>2019-07-26T15:31:52.000Z</time>
      </trkpt>
      <trkpt lat="42.89101727306842803955078125" lon="-8.45328639261424541473388671875">
        <ele>368.600006103515625</ele>
        <time>2019-07-26T15:31:53.000Z</time>
      </trkpt>
      <trkpt lat="42.8909949772059917449951171875" lon="-8.45351748168468475341796875">
        <ele>369.79998779296875</ele>
        <time>2019-07-26T15:31:59.000Z</time>
      </trkpt>
      <trkpt lat="42.89099313318729400634765625" lon="-8.45359518192708492279052734375">
        <ele>370.20001220703125</ele>
        <time>2019-07-26T15:32:01.000Z</time>
      </trkpt>
      <trkpt lat="42.89098642766475677490234375" lon="-8.45371537841856479644775390625">
        <ele>371</ele>
        <time>2019-07-26T15:32:04.000Z</time>
      </trkpt>
      <trkpt lat="42.8909745253622531890869140625" lon="-8.4539602138102054595947265625">
        <ele>372.20001220703125</ele>
        <time>2019-07-26T15:32:10.000Z</time>
      </trkpt>
      <trkpt lat="42.8909661434590816497802734375" lon="-8.45415593124926090240478515625">
        <ele>373.20001220703125</ele>
        <time>2019-07-26T15:32:14.000Z</time>
      </trkpt>
      <trkpt lat="42.89095834828913211822509765625" lon="-8.4543498046696186065673828125">
        <ele>373.79998779296875</ele>
        <time>2019-07-26T15:32:18.000Z</time>
      </trkpt>
      <trkpt lat="42.8909497149288654327392578125" lon="-8.4545052051544189453125">
        <ele>374.20001220703125</ele>
        <time>2019-07-26T15:32:21.000Z</time>
      </trkpt>
      <trkpt lat="42.89090872742235660552978515625" lon="-8.4547694027423858642578125">
        <ele>374.600006103515625</ele>
        <time>2019-07-26T15:32:26.000Z</time>
      </trkpt>
      <trkpt lat="42.890871427953243255615234375" lon="-8.45486772246658802032470703125">
        <ele>374.79998779296875</ele>
        <time>2019-07-26T15:32:28.000Z</time>
      </trkpt>
      <trkpt lat="42.890777550637722015380859375" lon="-8.45504374243319034576416015625">
        <ele>375.20001220703125</ele>
        <time>2019-07-26T15:32:32.000Z</time>
      </trkpt>
      <trkpt lat="42.89067705161869525909423828125" lon="-8.455221019685268402099609375">
        <ele>375.600006103515625</ele>
        <time>2019-07-26T15:32:36.000Z</time>
      </trkpt>
      <trkpt lat="42.890626676380634307861328125" lon="-8.45532034523785114288330078125">
        <ele>376</ele>
        <time>2019-07-26T15:32:38.000Z</time>
      </trkpt>
      <trkpt lat="42.89057596586644649505615234375" lon="-8.4554183296859264373779296875">
        <ele>376.20001220703125</ele>
        <time>2019-07-26T15:32:40.000Z</time>
      </trkpt>
      <trkpt lat="42.890452332794666290283203125" lon="-8.45566861331462860107421875">
        <ele>377</ele>
        <time>2019-07-26T15:32:45.000Z</time>
      </trkpt>
      <trkpt lat="42.89041302166879177093505859375" lon="-8.45577481202781200408935546875">
        <ele>377</ele>
        <time>2019-07-26T15:32:47.000Z</time>
      </trkpt>
      <trkpt lat="42.8903425298631191253662109375" lon="-8.4560010395944118499755859375">
        <ele>377.399993896484375</ele>
        <time>2019-07-26T15:32:51.000Z</time>
      </trkpt>
      <trkpt lat="42.8902737982571125030517578125" lon="-8.456226177513599395751953125">
        <ele>378.20001220703125</ele>
        <time>2019-07-26T15:32:55.000Z</time>
      </trkpt>
      <trkpt lat="42.89025879465043544769287109375" lon="-8.45628342591226100921630859375">
        <ele>378.399993896484375</ele>
        <time>2019-07-26T15:32:56.000Z</time>
      </trkpt>
      <trkpt lat="42.89019475691020488739013671875" lon="-8.45664091408252716064453125">
        <ele>379.600006103515625</ele>
        <time>2019-07-26T15:33:02.000Z</time>
      </trkpt>
      <trkpt lat="42.89015435613691806793212890625" lon="-8.45699773170053958892822265625">
        <ele>380.600006103515625</ele>
        <time>2019-07-26T15:33:08.000Z</time>
      </trkpt>
      <trkpt lat="42.89015988819301128387451171875" lon="-8.457060344517230987548828125">
        <ele>380.79998779296875</ele>
        <time>2019-07-26T15:33:09.000Z</time>
      </trkpt>
      <trkpt lat="42.89018754847347736358642578125" lon="-8.4574816189706325531005859375">
        <ele>381.399993896484375</ele>
        <time>2019-07-26T15:33:16.000Z</time>
      </trkpt>
      <trkpt lat="42.89020833559334278106689453125" lon="-8.45765956677496433258056640625">
        <ele>381.600006103515625</ele>
        <time>2019-07-26T15:33:19.000Z</time>
      </trkpt>
      <trkpt lat="42.89022090844810009002685546875" lon="-8.45771153457462787628173828125">
        <ele>381.79998779296875</ele>
        <time>2019-07-26T15:33:20.000Z</time>
      </trkpt>
      <trkpt lat="42.890238426625728607177734375" lon="-8.45775847323238849639892578125">
        <ele>381.79998779296875</ele>
        <time>2019-07-26T15:33:21.000Z</time>
      </trkpt>
      <trkpt lat="42.89037798531353473663330078125" lon="-8.4580951742827892303466796875">
        <ele>382.79998779296875</ele>
        <time>2019-07-26T15:33:28.000Z</time>
      </trkpt>
      <trkpt lat="42.89038854651153087615966796875" lon="-8.45814370550215244293212890625">
        <ele>383</ele>
        <time>2019-07-26T15:33:29.000Z</time>
      </trkpt>
      <trkpt lat="42.89045945741236209869384765625" lon="-8.45837621949613094329833984375">
        <ele>384.20001220703125</ele>
        <time>2019-07-26T15:33:34.000Z</time>
      </trkpt>
      <trkpt lat="42.8904672525823116302490234375" lon="-8.45842768438160419464111328125">
        <ele>384.79998779296875</ele>
        <time>2019-07-26T15:33:35.000Z</time>
      </trkpt>
      <trkpt lat="42.8904853574931621551513671875" lon="-8.458533547818660736083984375">
        <ele>385.399993896484375</ele>
        <time>2019-07-26T15:33:37.000Z</time>
      </trkpt>
      <trkpt lat="42.890498600900173187255859375" lon="-8.4586795605719089508056640625">
        <ele>386.399993896484375</ele>
        <time>2019-07-26T15:33:40.000Z</time>
      </trkpt>
      <trkpt lat="42.8905255906283855438232421875" lon="-8.45876949839293956756591796875">
        <ele>386.79998779296875</ele>
        <time>2019-07-26T15:33:42.000Z</time>
      </trkpt>
      <trkpt lat="42.89057009853422641754150390625" lon="-8.458998911082744598388671875">
        <ele>387.600006103515625</ele>
        <time>2019-07-26T15:33:47.000Z</time>
      </trkpt>
      <trkpt lat="42.89057998917996883392333984375" lon="-8.45903989858925342559814453125">
        <ele>387.600006103515625</ele>
        <time>2019-07-26T15:33:48.000Z</time>
      </trkpt>
      <trkpt lat="42.89064620621502399444580078125" lon="-8.4592404775321483612060546875">
        <ele>388.79998779296875</ele>
        <time>2019-07-26T15:33:53.000Z</time>
      </trkpt>
      <trkpt lat="42.89067269302904605865478515625" lon="-8.45933544449508190155029296875">
        <ele>389.20001220703125</ele>
        <time>2019-07-26T15:33:55.000Z</time>
      </trkpt>
      <trkpt lat="42.8906871937215328216552734375" lon="-8.45955136232078075408935546875">
        <ele>390</ele>
        <time>2019-07-26T15:33:59.000Z</time>
      </trkpt>
      <trkpt lat="42.890685014426708221435546875" lon="-8.459669463336467742919921875">
        <ele>390.399993896484375</ele>
        <time>2019-07-26T15:34:01.000Z</time>
      </trkpt>
      <trkpt lat="42.890686355531215667724609375" lon="-8.4597314894199371337890625">
        <ele>390.600006103515625</ele>
        <time>2019-07-26T15:34:02.000Z</time>
      </trkpt>
      <trkpt lat="42.890680320560932159423828125" lon="-8.46009023487567901611328125">
        <ele>391</ele>
        <time>2019-07-26T15:34:08.000Z</time>
      </trkpt>
      <trkpt lat="42.8906477987766265869140625" lon="-8.46025259234011173248291015625">
        <ele>391.20001220703125</ele>
        <time>2019-07-26T15:34:11.000Z</time>
      </trkpt>
      <trkpt lat="42.89062743075191974639892578125" lon="-8.460381589829921722412109375">
        <ele>391.20001220703125</ele>
        <time>2019-07-26T15:34:13.000Z</time>
      </trkpt>
      <trkpt lat="42.890590131282806396484375" lon="-8.4605120122432708740234375">
        <ele>391.20001220703125</ele>
        <time>2019-07-26T15:34:15.000Z</time>
      </trkpt>
      <trkpt lat="42.89055149070918560028076171875" lon="-8.46064151264727115631103515625">
        <ele>391.20001220703125</ele>
        <time>2019-07-26T15:34:17.000Z</time>
      </trkpt>
      <trkpt lat="42.8905064798891544342041015625" lon="-8.4608380682766437530517578125">
        <ele>391.20001220703125</ele>
        <time>2019-07-26T15:34:20.000Z</time>
      </trkpt>
      <trkpt lat="42.8904427774250507354736328125" lon="-8.46116580069065093994140625">
        <ele>391.20001220703125</ele>
        <time>2019-07-26T15:34:25.000Z</time>
      </trkpt>
      <trkpt lat="42.8904354013502597808837890625" lon="-8.46129546873271465301513671875">
        <ele>391.20001220703125</ele>
        <time>2019-07-26T15:34:27.000Z</time>
      </trkpt>
      <trkpt lat="42.89042224176228046417236328125" lon="-8.46149713732302188873291015625">
        <ele>391.20001220703125</ele>
        <time>2019-07-26T15:34:30.000Z</time>
      </trkpt>
      <trkpt lat="42.890326268970966339111328125" lon="-8.4618717245757579803466796875">
        <ele>391</ele>
        <time>2019-07-26T15:34:35.000Z</time>
      </trkpt>
      <trkpt lat="42.89031629450619220733642578125" lon="-8.461956046521663665771484375">
        <ele>390.79998779296875</ele>
        <time>2019-07-26T15:34:36.000Z</time>
      </trkpt>
      <trkpt lat="42.89027388207614421844482421875" lon="-8.46242375671863555908203125">
        <ele>391.20001220703125</ele>
        <time>2019-07-26T15:34:42.000Z</time>
      </trkpt>
      <trkpt lat="42.89027673192322254180908203125" lon="-8.46250346861779689788818359375">
        <ele>391.20001220703125</ele>
        <time>2019-07-26T15:34:43.000Z</time>
      </trkpt>
      <trkpt lat="42.890359126031398773193359375" lon="-8.463043682277202606201171875">
        <ele>391.20001220703125</ele>
        <time>2019-07-26T15:34:49.000Z</time>
      </trkpt>
      <trkpt lat="42.89043330587446689605712890625" lon="-8.4636191837489604949951171875">
        <ele>391.20001220703125</ele>
        <time>2019-07-26T15:34:56.000Z</time>
      </trkpt>
      <trkpt lat="42.89053288288414478302001953125" lon="-8.46409468911588191986083984375">
        <ele>391.399993896484375</ele>
        <time>2019-07-26T15:35:02.000Z</time>
      </trkpt>
      <trkpt lat="42.89062567055225372314453125" lon="-8.46451059915125370025634765625">
        <ele>391.79998779296875</ele>
        <time>2019-07-26T15:35:08.000Z</time>
      </trkpt>
      <trkpt lat="42.89063774049282073974609375" lon="-8.46457966603338718414306640625">
        <ele>392</ele>
        <time>2019-07-26T15:35:09.000Z</time>
      </trkpt>
      <trkpt lat="42.89067017845809459686279296875" lon="-8.4650937281548976898193359375">
        <ele>392.399993896484375</ele>
        <time>2019-07-26T15:35:16.000Z</time>
      </trkpt>
      <trkpt lat="42.89080579765141010284423828125" lon="-8.4657937847077846527099609375">
        <ele>392.79998779296875</ele>
        <time>2019-07-26T15:35:25.000Z</time>
      </trkpt>
      <trkpt lat="42.89083764888346195220947265625" lon="-8.46601397730410099029541015625">
        <ele>393</ele>
        <time>2019-07-26T15:35:28.000Z</time>
      </trkpt>
      <trkpt lat="42.89086296223104000091552734375" lon="-8.46623877994716167449951171875">
        <ele>393</ele>
        <time>2019-07-26T15:35:31.000Z</time>
      </trkpt>
      <trkpt lat="42.8908776305615901947021484375" lon="-8.466760553419589996337890625">
        <ele>393.20001220703125</ele>
        <time>2019-07-26T15:35:38.000Z</time>
      </trkpt>
      <trkpt lat="42.89095021784305572509765625" lon="-8.46720219589769840240478515625">
        <ele>393.20001220703125</ele>
        <time>2019-07-26T15:35:44.000Z</time>
      </trkpt>
      <trkpt lat="42.8909782133996486663818359375" lon="-8.4674238972365856170654296875">
        <ele>393.79998779296875</ele>
        <time>2019-07-26T15:35:47.000Z</time>
      </trkpt>
      <trkpt lat="42.89098533801734447479248046875" lon="-8.467498160898685455322265625">
        <ele>394</ele>
        <time>2019-07-26T15:35:48.000Z</time>
      </trkpt>
      <trkpt lat="42.89101182483136653900146484375" lon="-8.46765414811670780181884765625">
        <ele>394</ele>
        <time>2019-07-26T15:35:50.000Z</time>
      </trkpt>
      <trkpt lat="42.89110553450882434844970703125" lon="-8.4682959504425525665283203125">
        <ele>394.600006103515625</ele>
        <time>2019-07-26T15:35:59.000Z</time>
      </trkpt>
      <trkpt lat="42.8911287523806095123291015625" lon="-8.46842813305556774139404296875">
        <ele>395</ele>
        <time>2019-07-26T15:36:01.000Z</time>
      </trkpt>
      <trkpt lat="42.89114107377827167510986328125" lon="-8.46849284134805202484130859375">
        <ele>395.20001220703125</ele>
        <time>2019-07-26T15:36:02.000Z</time>
      </trkpt>
      <trkpt lat="42.891168482601642608642578125" lon="-8.46867539919912815093994140625">
        <ele>396</ele>
        <time>2019-07-26T15:36:05.000Z</time>
      </trkpt>
      <trkpt lat="42.89118088781833648681640625" lon="-8.46873457543551921844482421875">
        <ele>396.20001220703125</ele>
        <time>2019-07-26T15:36:06.000Z</time>
      </trkpt>
      <trkpt lat="42.8912192769348621368408203125" lon="-8.468965999782085418701171875">
        <ele>396.79998779296875</ele>
        <time>2019-07-26T15:36:10.000Z</time>
      </trkpt>
      <trkpt lat="42.89122112095355987548828125" lon="-8.4690902195870876312255859375">
        <ele>397</ele>
        <time>2019-07-26T15:36:12.000Z</time>
      </trkpt>
      <trkpt lat="42.8912300057709217071533203125" lon="-8.46915199421346187591552734375">
        <ele>397.20001220703125</ele>
        <time>2019-07-26T15:36:13.000Z</time>
      </trkpt>
      <trkpt lat="42.89126831106841564178466796875" lon="-8.46934477798640727996826171875">
        <ele>397.20001220703125</ele>
        <time>2019-07-26T15:36:16.000Z</time>
      </trkpt>
      <trkpt lat="42.8913275711238384246826171875" lon="-8.4695612825453281402587890625">
        <ele>397.399993896484375</ele>
        <time>2019-07-26T15:36:19.000Z</time>
      </trkpt>
      <trkpt lat="42.89136805571615695953369140625" lon="-8.46985925920307636260986328125">
        <ele>397.600006103515625</ele>
        <time>2019-07-26T15:36:23.000Z</time>
      </trkpt>
      <trkpt lat="42.891404516994953155517578125" lon="-8.47027919255197048187255859375">
        <ele>397.79998779296875</ele>
        <time>2019-07-26T15:36:29.000Z</time>
      </trkpt>
      <trkpt lat="42.89141558110713958740234375" lon="-8.470345325767993927001953125">
        <ele>397.79998779296875</ele>
        <time>2019-07-26T15:36:30.000Z</time>
      </trkpt>
      <trkpt lat="42.891515158116817474365234375" lon="-8.4708063304424285888671875">
        <ele>397.399993896484375</ele>
        <time>2019-07-26T15:36:36.000Z</time>
      </trkpt>
      <trkpt lat="42.89157022722065448760986328125" lon="-8.4710750542581081390380859375">
        <ele>397</ele>
        <time>2019-07-26T15:36:39.000Z</time>
      </trkpt>
      <trkpt lat="42.89162336848676204681396484375" lon="-8.47137588076293468475341796875">
        <ele>396.600006103515625</ele>
        <time>2019-07-26T15:36:42.000Z</time>
      </trkpt>
      <trkpt lat="42.8916782699525356292724609375" lon="-8.47179472446441650390625">
        <ele>396</ele>
        <time>2019-07-26T15:36:46.000Z</time>
      </trkpt>
      <trkpt lat="42.89170484058558940887451171875" lon="-8.4720014221966266632080078125">
        <ele>395.79998779296875</ele>
        <time>2019-07-26T15:36:48.000Z</time>
      </trkpt>
      <trkpt lat="42.89177642203867435455322265625" lon="-8.47242261283099651336669921875">
        <ele>394.79998779296875</ele>
        <time>2019-07-26T15:36:52.000Z</time>
      </trkpt>
      <trkpt lat="42.8918120451271533966064453125" lon="-8.472636602818965911865234375">
        <ele>394.399993896484375</ele>
        <time>2019-07-26T15:36:54.000Z</time>
      </trkpt>
      <trkpt lat="42.8918955288827419281005859375" lon="-8.47315351478755474090576171875">
        <ele>393.600006103515625</ele>
        <time>2019-07-26T15:36:59.000Z</time>
      </trkpt>
      <trkpt lat="42.89194623939692974090576171875" lon="-8.47343883477151393890380859375">
        <ele>392.399993896484375</ele>
        <time>2019-07-26T15:37:02.000Z</time>
      </trkpt>
      <trkpt lat="42.89200826548039913177490234375" lon="-8.47407066263258457183837890625">
        <ele>391.600006103515625</ele>
        <time>2019-07-26T15:37:09.000Z</time>
      </trkpt>
      <trkpt lat="42.89202000014483928680419921875" lon="-8.47423947416245937347412109375">
        <ele>391.20001220703125</ele>
        <time>2019-07-26T15:37:11.000Z</time>
      </trkpt>
      <trkpt lat="42.89205486886203289031982421875" lon="-8.474649600684642791748046875">
        <ele>390.600006103515625</ele>
        <time>2019-07-26T15:37:16.000Z</time>
      </trkpt>
      <trkpt lat="42.89206643588840961456298828125" lon="-8.47473107278347015380859375">
        <ele>390.600006103515625</ele>
        <time>2019-07-26T15:37:17.000Z</time>
      </trkpt>
      <trkpt lat="42.89212209172546863555908203125" lon="-8.47519467584788799285888671875">
        <ele>390.399993896484375</ele>
        <time>2019-07-26T15:37:23.000Z</time>
      </trkpt>
      <trkpt lat="42.8921456448733806610107421875" lon="-8.47543724812567234039306640625">
        <ele>390.20001220703125</ele>
        <time>2019-07-26T15:37:26.000Z</time>
      </trkpt>
      <trkpt lat="42.892147488892078399658203125" lon="-8.47557823173701763153076171875">
        <ele>390</ele>
        <time>2019-07-26T15:37:28.000Z</time>
      </trkpt>
      <trkpt lat="42.89223155938088893890380859375" lon="-8.4761474467813968658447265625">
        <ele>389.399993896484375</ele>
        <time>2019-07-26T15:37:36.000Z</time>
      </trkpt>
      <trkpt lat="42.8922713734209537506103515625" lon="-8.47626655362546443939208984375">
        <ele>389.20001220703125</ele>
        <time>2019-07-26T15:37:38.000Z</time>
      </trkpt>
      <trkpt lat="42.89232979528605937957763671875" lon="-8.47645045258104801177978515625">
        <ele>388.79998779296875</ele>
        <time>2019-07-26T15:37:41.000Z</time>
      </trkpt>
      <trkpt lat="42.89230314083397388458251953125" lon="-8.47657299600541591644287109375">
        <ele>388.600006103515625</ele>
        <time>2019-07-26T15:37:44.000Z</time>
      </trkpt>
      <trkpt lat="42.8922153823077678680419921875" lon="-8.476598896086215972900390625">
        <ele>388.399993896484375</ele>
        <time>2019-07-26T15:37:47.000Z</time>
      </trkpt>
      <trkpt lat="42.89217330515384674072265625" lon="-8.4765993990004062652587890625">
        <ele>388.399993896484375</ele>
        <time>2019-07-26T15:37:48.000Z</time>
      </trkpt>
      <trkpt lat="42.892125360667705535888671875" lon="-8.4765920229256153106689453125">
        <ele>388.20001220703125</ele>
        <time>2019-07-26T15:37:49.000Z</time>
      </trkpt>
      <trkpt lat="42.892026789486408233642578125" lon="-8.47656444646418094635009765625">
        <ele>388.20001220703125</ele>
        <time>2019-07-26T15:37:51.000Z</time>
      </trkpt>
      <trkpt lat="42.89193986915051937103271484375" lon="-8.47653410397469997406005859375">
        <ele>388.20001220703125</ele>
        <time>2019-07-26T15:37:53.000Z</time>
      </trkpt>
      <trkpt lat="42.8916474245488643646240234375" lon="-8.47646134905517101287841796875">
        <ele>388.20001220703125</ele>
        <time>2019-07-26T15:37:59.000Z</time>
      </trkpt>
      <trkpt lat="42.8914536349475383758544921875" lon="-8.47641021944582462310791015625">
        <ele>388.399993896484375</ele>
        <time>2019-07-26T15:38:03.000Z</time>
      </trkpt>
      <trkpt lat="42.8913030959665775299072265625" lon="-8.476362861692905426025390625">
        <ele>388.399993896484375</ele>
        <time>2019-07-26T15:38:06.000Z</time>
      </trkpt>
      <trkpt lat="42.891155071556568145751953125" lon="-8.47632220946252346038818359375">
        <ele>388.600006103515625</ele>
        <time>2019-07-26T15:38:09.000Z</time>
      </trkpt>
      <trkpt lat="42.89094678126275539398193359375" lon="-8.476271331310272216796875">
        <ele>388.600006103515625</ele>
        <time>2019-07-26T15:38:13.000Z</time>
      </trkpt>
      <trkpt lat="42.89089732803404331207275390625" lon="-8.47625792026519775390625">
        <ele>388.79998779296875</ele>
        <time>2019-07-26T15:38:14.000Z</time>
      </trkpt>
      <trkpt lat="42.8907438553869724273681640625" lon="-8.4762272424995899200439453125">
        <ele>389</ele>
        <time>2019-07-26T15:38:17.000Z</time>
      </trkpt>
      <trkpt lat="42.8906600363552570343017578125" lon="-8.47629614174365997314453125">
        <ele>389.20001220703125</ele>
        <time>2019-07-26T15:38:19.000Z</time>
      </trkpt>
      <trkpt lat="42.8906357288360595703125" lon="-8.47652873955667018890380859375">
        <ele>389.20001220703125</ele>
        <time>2019-07-26T15:38:22.000Z</time>
      </trkpt>
      <trkpt lat="42.89063916541635990142822265625" lon="-8.4766134805977344512939453125">
        <ele>389.20001220703125</ele>
        <time>2019-07-26T15:38:23.000Z</time>
      </trkpt>
      <trkpt lat="42.89064754731953144073486328125" lon="-8.47698907367885112762451171875">
        <ele>389.20001220703125</ele>
        <time>2019-07-26T15:38:27.000Z</time>
      </trkpt>
      <trkpt lat="42.89064620621502399444580078125" lon="-8.47708596847951412200927734375">
        <ele>389.20001220703125</ele>
        <time>2019-07-26T15:38:28.000Z</time>
      </trkpt>
      <trkpt lat="42.89067017845809459686279296875" lon="-8.47778518684208393096923828125">
        <ele>388</ele>
        <time>2019-07-26T15:38:35.000Z</time>
      </trkpt>
      <trkpt lat="42.8906791470944881439208984375" lon="-8.478527404367923736572265625">
        <ele>387</ele>
        <time>2019-07-26T15:38:42.000Z</time>
      </trkpt>
      <trkpt lat="42.8906788118183612823486328125" lon="-8.47863544709980487823486328125">
        <ele>386.79998779296875</ele>
        <time>2019-07-26T15:38:43.000Z</time>
      </trkpt>
      <trkpt lat="42.89068526588380336761474609375" lon="-8.47905387170612812042236328125">
        <ele>385.399993896484375</ele>
        <time>2019-07-26T15:38:47.000Z</time>
      </trkpt>
      <trkpt lat="42.89068593643605709075927734375" lon="-8.4793496690690517425537109375">
        <ele>384.399993896484375</ele>
        <time>2019-07-26T15:38:50.000Z</time>
      </trkpt>
      <trkpt lat="42.8906878642737865447998046875" lon="-8.4795454703271389007568359375">
        <ele>383.399993896484375</ele>
        <time>2019-07-26T15:38:52.000Z</time>
      </trkpt>
      <trkpt lat="42.89071443490684032440185546875" lon="-8.47996515221893787384033203125">
        <ele>382.79998779296875</ele>
        <time>2019-07-26T15:38:57.000Z</time>
      </trkpt>
      <trkpt lat="42.89071762003004550933837890625" lon="-8.48015181720256805419921875">
        <ele>382.79998779296875</ele>
        <time>2019-07-26T15:39:00.000Z</time>
      </trkpt>
      <trkpt lat="42.89071979932487010955810546875" lon="-8.48026254214346408843994140625">
        <ele>382.79998779296875</ele>
        <time>2019-07-26T15:39:02.000Z</time>
      </trkpt>
      <trkpt lat="42.89072935469448566436767578125" lon="-8.48040889017283916473388671875">
        <ele>383.20001220703125</ele>
        <time>2019-07-26T15:39:05.000Z</time>
      </trkpt>
      <trkpt lat="42.89073421619832515716552734375" lon="-8.48055490292608737945556640625">
        <ele>383.79998779296875</ele>
        <time>2019-07-26T15:39:08.000Z</time>
      </trkpt>
      <trkpt lat="42.89073991589248180389404296875" lon="-8.48065565340220928192138671875">
        <ele>384.399993896484375</ele>
        <time>2019-07-26T15:39:10.000Z</time>
      </trkpt>
      <trkpt lat="42.8907475434243679046630859375" lon="-8.480810634791851043701171875">
        <ele>385.20001220703125</ele>
        <time>2019-07-26T15:39:13.000Z</time>
      </trkpt>
      <trkpt lat="42.89074712432920932769775390625" lon="-8.4809123910963535308837890625">
        <ele>385.79998779296875</ele>
        <time>2019-07-26T15:39:15.000Z</time>
      </trkpt>
      <trkpt lat="42.8907592780888080596923828125" lon="-8.4811175800859928131103515625">
        <ele>387</ele>
        <time>2019-07-26T15:39:19.000Z</time>
      </trkpt>
      <trkpt lat="42.8907612897455692291259765625" lon="-8.48117097280919551849365234375">
        <ele>387.399993896484375</ele>
        <time>2019-07-26T15:39:20.000Z</time>
      </trkpt>
      <trkpt lat="42.8907604515552520751953125" lon="-8.4812776744365692138671875">
        <ele>388</ele>
        <time>2019-07-26T15:39:22.000Z</time>
      </trkpt>
      <trkpt lat="42.8907669894397258758544921875" lon="-8.48148286342620849609375">
        <ele>389.20001220703125</ele>
        <time>2019-07-26T15:39:26.000Z</time>
      </trkpt>
      <trkpt lat="42.89076908491551876068115234375" lon="-8.48167673684656620025634765625">
        <ele>389.79998779296875</ele>
        <time>2019-07-26T15:39:30.000Z</time>
      </trkpt>
      <trkpt lat="42.89076925255358219146728515625" lon="-8.481825180351734161376953125">
        <ele>390.399993896484375</ele>
        <time>2019-07-26T15:39:33.000Z</time>
      </trkpt>
      <trkpt lat="42.8907757066190242767333984375" lon="-8.48202961497008800506591796875">
        <ele>391</ele>
        <time>2019-07-26T15:39:37.000Z</time>
      </trkpt>
      <trkpt lat="42.89077629335224628448486328125" lon="-8.48213422112166881561279296875">
        <ele>391.600006103515625</ele>
        <time>2019-07-26T15:39:39.000Z</time>
      </trkpt>
      <trkpt lat="42.8907891176640987396240234375" lon="-8.48248642869293689727783203125">
        <ele>392.399993896484375</ele>
        <time>2019-07-26T15:39:45.000Z</time>
      </trkpt>
      <trkpt lat="42.8907904587686061859130859375" lon="-8.48262288607656955718994140625">
        <ele>392.600006103515625</ele>
        <time>2019-07-26T15:39:47.000Z</time>
      </trkpt>
      <trkpt lat="42.8907921351492404937744140625" lon="-8.482694216072559356689453125">
        <ele>392.600006103515625</ele>
        <time>2019-07-26T15:39:48.000Z</time>
      </trkpt>
      <trkpt lat="42.89079758338630199432373046875" lon="-8.4828512929379940032958984375">
        <ele>392.600006103515625</ele>
        <time>2019-07-26T15:39:50.000Z</time>
      </trkpt>
      <trkpt lat="42.89081451483070850372314453125" lon="-8.48326041363179683685302734375">
        <ele>392.600006103515625</ele>
        <time>2019-07-26T15:39:55.000Z</time>
      </trkpt>
      <trkpt lat="42.89081887342035770416259765625" lon="-8.48341782577335834503173828125">
        <ele>392.20001220703125</ele>
        <time>2019-07-26T15:39:57.000Z</time>
      </trkpt>
      <trkpt lat="42.89082608185708522796630859375" lon="-8.48364631645381450653076171875">
        <ele>392</ele>
        <time>2019-07-26T15:40:00.000Z</time>
      </trkpt>
      <trkpt lat="42.89083396084606647491455078125" lon="-8.48395477049052715301513671875">
        <ele>391.399993896484375</ele>
        <time>2019-07-26T15:40:04.000Z</time>
      </trkpt>
      <trkpt lat="42.8908370621502399444580078125" lon="-8.48403909243643283843994140625">
        <ele>391.399993896484375</ele>
        <time>2019-07-26T15:40:05.000Z</time>
      </trkpt>
      <trkpt lat="42.890840582549571990966796875" lon="-8.48433195613324642181396484375">
        <ele>391</ele>
        <time>2019-07-26T15:40:08.000Z</time>
      </trkpt>
      <trkpt lat="42.89084536023437976837158203125" lon="-8.484559021890163421630859375">
        <ele>390.79998779296875</ele>
        <time>2019-07-26T15:40:10.000Z</time>
      </trkpt>
      <trkpt lat="42.89085122756659984588623046875" lon="-8.48491533659398555755615234375">
        <ele>390.600006103515625</ele>
        <time>2019-07-26T15:40:13.000Z</time>
      </trkpt>
      <trkpt lat="42.89085307158529758453369140625" lon="-8.48503318615257740020751953125">
        <ele>390.399993896484375</ele>
        <time>2019-07-26T15:40:14.000Z</time>
      </trkpt>
      <trkpt lat="42.8908578492701053619384765625" lon="-8.485374413430690765380859375">
        <ele>389.20001220703125</ele>
        <time>2019-07-26T15:40:17.000Z</time>
      </trkpt>
      <trkpt lat="42.890864051878452301025390625" lon="-8.48548404872417449951171875">
        <ele>388</ele>
        <time>2019-07-26T15:40:18.000Z</time>
      </trkpt>
      <trkpt lat="42.8908682428300380706787109375" lon="-8.48570357076823711395263671875">
        <ele>386.79998779296875</ele>
        <time>2019-07-26T15:40:20.000Z</time>
      </trkpt>
      <trkpt lat="42.89086983539164066314697265625" lon="-8.4859180636703968048095703125">
        <ele>386.399993896484375</ele>
        <time>2019-07-26T15:40:22.000Z</time>
      </trkpt>
      <trkpt lat="42.8908541612327098846435546875" lon="-8.48601370118558406829833984375">
        <ele>386.20001220703125</ele>
        <time>2019-07-26T15:40:23.000Z</time>
      </trkpt>
      <trkpt lat="42.89081149734556674957275390625" lon="-8.4860887192189693450927734375">
        <ele>385.79998779296875</ele>
        <time>2019-07-26T15:40:24.000Z</time>
      </trkpt>
      <trkpt lat="42.890765480697154998779296875" lon="-8.4861520864069461822509765625">
        <ele>385.600006103515625</ele>
        <time>2019-07-26T15:40:25.000Z</time>
      </trkpt>
      <trkpt lat="42.890708148479461669921875" lon="-8.4863103367388248443603515625">
        <ele>385</ele>
        <time>2019-07-26T15:40:27.000Z</time>
      </trkpt>
      <trkpt lat="42.89071745239198207855224609375" lon="-8.48640513606369495391845703125">
        <ele>384.600006103515625</ele>
        <time>2019-07-26T15:40:28.000Z</time>
      </trkpt>
      <trkpt lat="42.89074234664440155029296875" lon="-8.48661049269139766693115234375">
        <ele>383.600006103515625</ele>
        <time>2019-07-26T15:40:30.000Z</time>
      </trkpt>
      <trkpt lat="42.8907606191933155059814453125" lon="-8.4867203794419765472412109375">
        <ele>383.20001220703125</ele>
        <time>2019-07-26T15:40:31.000Z</time>
      </trkpt>
      <trkpt lat="42.89082415401935577392578125" lon="-8.4870730899274349212646484375">
        <ele>381.600006103515625</ele>
        <time>2019-07-26T15:40:34.000Z</time>
      </trkpt>
      <trkpt lat="42.89088207297027111053466796875" lon="-8.4873208589851856231689453125">
        <ele>380.600006103515625</ele>
        <time>2019-07-26T15:40:37.000Z</time>
      </trkpt>
      <trkpt lat="42.89090755395591259002685546875" lon="-8.4873768500983715057373046875">
        <ele>380.20001220703125</ele>
        <time>2019-07-26T15:40:38.000Z</time>
      </trkpt>
      <trkpt lat="42.8909876011312007904052734375" lon="-8.487448431551456451416015625">
        <ele>378.79998779296875</ele>
        <time>2019-07-26T15:40:40.000Z</time>
      </trkpt>
      <trkpt lat="42.89104141294956207275390625" lon="-8.48746444098651409149169921875">
        <ele>377.79998779296875</ele>
        <time>2019-07-26T15:40:41.000Z</time>
      </trkpt>
      <trkpt lat="42.891112156212329864501953125" lon="-8.48747986368834972381591796875">
        <ele>377</ele>
        <time>2019-07-26T15:40:42.000Z</time>
      </trkpt>
      <trkpt lat="42.8911735117435455322265625" lon="-8.48749008961021900177001953125">
        <ele>375.600006103515625</ele>
        <time>2019-07-26T15:40:43.000Z</time>
      </trkpt>
      <trkpt lat="42.89123327471315860748291015625" lon="-8.48750182427465915679931640625">
        <ele>374</ele>
        <time>2019-07-26T15:40:44.000Z</time>
      </trkpt>
      <trkpt lat="42.8912920318543910980224609375" lon="-8.487519510090351104736328125">
        <ele>372.399993896484375</ele>
        <time>2019-07-26T15:40:45.000Z</time>
      </trkpt>
      <trkpt lat="42.8913483582437038421630859375" lon="-8.48754524253308773040771484375">
        <ele>370.600006103515625</ele>
        <time>2019-07-26T15:40:46.000Z</time>
      </trkpt>
      <trkpt lat="42.89150350727140903472900390625" lon="-8.48766359500586986541748046875">
        <ele>369.600006103515625</ele>
        <time>2019-07-26T15:40:49.000Z</time>
      </trkpt>
      <trkpt lat="42.89160710759460926055908203125" lon="-8.48785637877881526947021484375">
        <ele>369.600006103515625</ele>
        <time>2019-07-26T15:40:52.000Z</time>
      </trkpt>
      <trkpt lat="42.8915994800627231597900390625" lon="-8.48809174261987209320068359375">
        <ele>369.399993896484375</ele>
        <time>2019-07-26T15:40:55.000Z</time>
      </trkpt>
      <trkpt lat="42.89159017615020275115966796875" lon="-8.48816625773906707763671875">
        <ele>369.399993896484375</ele>
        <time>2019-07-26T15:40:56.000Z</time>
      </trkpt>
      <trkpt lat="42.8915575705468654632568359375" lon="-8.4883882105350494384765625">
        <ele>369.399993896484375</ele>
        <time>2019-07-26T15:40:59.000Z</time>
      </trkpt>
      <trkpt lat="42.8915133140981197357177734375" lon="-8.4886753745377063751220703125">
        <ele>369.399993896484375</ele>
        <time>2019-07-26T15:41:03.000Z</time>
      </trkpt>
      <trkpt lat="42.89146386086940765380859375" lon="-8.488965891301631927490234375">
        <ele>369.20001220703125</ele>
        <time>2019-07-26T15:41:07.000Z</time>
      </trkpt>
      <trkpt lat="42.89139546453952789306640625" lon="-8.4892490319907665252685546875">
        <ele>369</ele>
        <time>2019-07-26T15:41:11.000Z</time>
      </trkpt>
      <trkpt lat="42.89130963385105133056640625" lon="-8.489505685865879058837890625">
        <ele>369.20001220703125</ele>
        <time>2019-07-26T15:41:15.000Z</time>
      </trkpt>
      <trkpt lat="42.8912432491779327392578125" lon="-8.4896858967840671539306640625">
        <ele>369.20001220703125</ele>
        <time>2019-07-26T15:41:18.000Z</time>
      </trkpt>
      <trkpt lat="42.8912008367478847503662109375" lon="-8.489806093275547027587890625">
        <ele>369.20001220703125</ele>
        <time>2019-07-26T15:41:20.000Z</time>
      </trkpt>
      <trkpt lat="42.89108273573219776153564453125" lon="-8.4902843646705150604248046875">
        <ele>369.399993896484375</ele>
        <time>2019-07-26T15:41:28.000Z</time>
      </trkpt>
      <trkpt lat="42.8910140879452228546142578125" lon="-8.4905998595058917999267578125">
        <ele>370.20001220703125</ele>
        <time>2019-07-26T15:41:34.000Z</time>
      </trkpt>
      <trkpt lat="42.89098433218896389007568359375" lon="-8.4907458722591400146484375">
        <ele>370.600006103515625</ele>
        <time>2019-07-26T15:41:37.000Z</time>
      </trkpt>
      <trkpt lat="42.89094057865440845489501953125" lon="-8.49092432297766208648681640625">
        <ele>371.399993896484375</ele>
        <time>2019-07-26T15:41:41.000Z</time>
      </trkpt>
      <trkpt lat="42.8909322805702686309814453125" lon="-8.49096958525478839874267578125">
        <ele>371.600006103515625</ele>
        <time>2019-07-26T15:41:42.000Z</time>
      </trkpt>
      <trkpt lat="42.89092616178095340728759765625" lon="-8.49101803265511989593505859375">
        <ele>371.600006103515625</ele>
        <time>2019-07-26T15:41:43.000Z</time>
      </trkpt>
      <trkpt lat="42.89088995195925235748291015625" lon="-8.49117360077798366546630859375">
        <ele>372.79998779296875</ele>
        <time>2019-07-26T15:41:46.000Z</time>
      </trkpt>
      <trkpt lat="42.8908588550984859466552734375" lon="-8.491287343204021453857421875">
        <ele>373.399993896484375</ele>
        <time>2019-07-26T15:41:48.000Z</time>
      </trkpt>
      <trkpt lat="42.89082054980099201202392578125" lon="-8.491404354572296142578125">
        <ele>374</ele>
        <time>2019-07-26T15:41:50.000Z</time>
      </trkpt>
      <trkpt lat="42.89070320315659046173095703125" lon="-8.49170434288680553436279296875">
        <ele>374.600006103515625</ele>
        <time>2019-07-26T15:41:55.000Z</time>
      </trkpt>
      <trkpt lat="42.89053807966411113739013671875" lon="-8.49212327040731906890869140625">
        <ele>374.600006103515625</ele>
        <time>2019-07-26T15:42:02.000Z</time>
      </trkpt>
      <trkpt lat="42.89048896171152591705322265625" lon="-8.49223910830914974212646484375">
        <ele>374.600006103515625</ele>
        <time>2019-07-26T15:42:04.000Z</time>
      </trkpt>
      <trkpt lat="42.8903904743492603302001953125" lon="-8.492461144924163818359375">
        <ele>374.600006103515625</ele>
        <time>2019-07-26T15:42:08.000Z</time>
      </trkpt>
      <trkpt lat="42.890310175716876983642578125" lon="-8.4926100075244903564453125">
        <ele>374.79998779296875</ele>
        <time>2019-07-26T15:42:11.000Z</time>
      </trkpt>
      <trkpt lat="42.8902320563793182373046875" lon="-8.49276063032448291778564453125">
        <ele>375.399993896484375</ele>
        <time>2019-07-26T15:42:14.000Z</time>
      </trkpt>
      <trkpt lat="42.89014756679534912109375" lon="-8.4929732792079448699951171875">
        <ele>375.79998779296875</ele>
        <time>2019-07-26T15:42:18.000Z</time>
      </trkpt>
      <trkpt lat="42.89013155736029148101806640625" lon="-8.49302315153181552886962890625">
        <ele>376</ele>
        <time>2019-07-26T15:42:19.000Z</time>
      </trkpt>
      <trkpt lat="42.8900779969990253448486328125" lon="-8.4931067191064357757568359375">
        <ele>376</ele>
        <time>2019-07-26T15:42:22.000Z</time>
      </trkpt>
      <trkpt lat="42.8900605626404285430908203125" lon="-8.493016026914119720458984375">
        <ele>376.20001220703125</ele>
        <time>2019-07-26T15:42:25.000Z</time>
      </trkpt>
      <trkpt lat="42.89003198035061359405517578125" lon="-8.49289725534617900848388671875">
        <ele>376.399993896484375</ele>
        <time>2019-07-26T15:42:28.000Z</time>
      </trkpt>
      <trkpt lat="42.89001186378300189971923828125" lon="-8.49287479184567928314208984375">
        <ele>376.399993896484375</ele>
        <time>2019-07-26T15:42:29.000Z</time>
      </trkpt>
      <trkpt lat="42.88999803364276885986328125" lon="-8.492800779640674591064453125">
        <ele>376.600006103515625</ele>
        <time>2019-07-26T15:42:32.000Z</time>
      </trkpt>
      <trkpt lat="42.890055365860462188720703125" lon="-8.4928153641521930694580078125">
        <ele>376.600006103515625</ele>
        <time>2019-07-26T15:42:34.000Z</time>
      </trkpt>
      <trkpt lat="42.8900800086557865142822265625" lon="-8.4928492270410060882568359375">
        <ele>376.600006103515625</ele>
        <time>2019-07-26T15:42:35.000Z</time>
      </trkpt>
      <trkpt lat="42.89011781103909015655517578125" lon="-8.49304360337555408477783203125">
        <ele>376.600006103515625</ele>
        <time>2019-07-26T15:42:39.000Z</time>
      </trkpt>
      <trkpt lat="42.89011009968817234039306640625" lon="-8.4931432642042636871337890625">
        <ele>376.600006103515625</ele>
        <time>2019-07-26T15:42:41.000Z</time>
      </trkpt>
      <trkpt lat="42.8900796733796596527099609375" lon="-8.49326672963798046112060546875">
        <ele>376.79998779296875</ele>
        <time>2019-07-26T15:42:44.000Z</time>
      </trkpt>
      <trkpt lat="42.890067435801029205322265625" lon="-8.49330679513514041900634765625">
        <ele>377</ele>
        <time>2019-07-26T15:42:45.000Z</time>
      </trkpt>
      <trkpt lat="42.8899951837956905364990234375" lon="-8.49355104379355907440185546875">
        <ele>377.399993896484375</ele>
        <time>2019-07-26T15:42:51.000Z</time>
      </trkpt>
      <trkpt lat="42.8899670206010341644287109375" lon="-8.4936290793120861053466796875">
        <ele>377.600006103515625</ele>
        <time>2019-07-26T15:42:53.000Z</time>
      </trkpt>
      <trkpt lat="42.88990390487015247344970703125" lon="-8.49378506653010845184326171875">
        <ele>378.600006103515625</ele>
        <time>2019-07-26T15:42:57.000Z</time>
      </trkpt>
      <trkpt lat="42.8898208402097225189208984375" lon="-8.4939854778349399566650390625">
        <ele>379</ele>
        <time>2019-07-26T15:43:02.000Z</time>
      </trkpt>
      <trkpt lat="42.88968421518802642822265625" lon="-8.49416770040988922119140625">
        <ele>379.600006103515625</ele>
        <time>2019-07-26T15:43:08.000Z</time>
      </trkpt>
      <trkpt lat="42.88965663872659206390380859375" lon="-8.49418790079653263092041015625">
        <ele>379.600006103515625</ele>
        <time>2019-07-26T15:43:09.000Z</time>
      </trkpt>
      <trkpt lat="42.8895127214491367340087890625" lon="-8.49427230656147003173828125">
        <ele>380</ele>
        <time>2019-07-26T15:43:14.000Z</time>
      </trkpt>
      <trkpt lat="42.8893749229609966278076171875" lon="-8.4942997992038726806640625">
        <ele>380.399993896484375</ele>
        <time>2019-07-26T15:43:19.000Z</time>
      </trkpt>
      <trkpt lat="42.88934759795665740966796875" lon="-8.49428462795913219451904296875">
        <ele>380.399993896484375</ele>
        <time>2019-07-26T15:43:20.000Z</time>
      </trkpt>
      <trkpt lat="42.8893222846090793609619140625" lon="-8.4942627511918544769287109375">
        <ele>380.79998779296875</ele>
        <time>2019-07-26T15:43:21.000Z</time>
      </trkpt>
      <trkpt lat="42.8892786987125873565673828125" lon="-8.49418245255947113037109375">
        <ele>381</ele>
        <time>2019-07-26T15:43:24.000Z</time>
      </trkpt>
      <trkpt lat="42.8892666287720203399658203125" lon="-8.4941568039357662200927734375">
        <ele>381.20001220703125</ele>
        <time>2019-07-26T15:43:25.000Z</time>
      </trkpt>
      <trkpt lat="42.88923083804547786712646484375" lon="-8.49406443536281585693359375">
        <ele>381.600006103515625</ele>
        <time>2019-07-26T15:43:29.000Z</time>
      </trkpt>
      <trkpt lat="42.889226563274860382080078125" lon="-8.4940391220152378082275390625">
        <ele>381.79998779296875</ele>
        <time>2019-07-26T15:43:30.000Z</time>
      </trkpt>
      <trkpt lat="42.8892196901142597198486328125" lon="-8.4940112940967082977294921875">
        <ele>382</ele>
        <time>2019-07-26T15:43:31.000Z</time>
      </trkpt>
      <trkpt lat="42.8891821391880512237548828125" lon="-8.49387399852275848388671875">
        <ele>383</ele>
        <time>2019-07-26T15:43:36.000Z</time>
      </trkpt>
      <trkpt lat="42.88917736150324344635009765625" lon="-8.4938560612499713897705078125">
        <ele>383</ele>
        <time>2019-07-26T15:43:37.000Z</time>
      </trkpt>
      <trkpt lat="42.8891573287546634674072265625" lon="-8.4938143193721771240234375">
        <ele>383.79998779296875</ele>
        <time>2019-07-26T15:43:40.000Z</time>
      </trkpt>
      <trkpt lat="42.88912807591259479522705078125" lon="-8.493813313543796539306640625">
        <ele>384.20001220703125</ele>
        <time>2019-07-26T15:43:42.000Z</time>
      </trkpt>
      <trkpt lat="42.88908449001610279083251953125" lon="-8.49388145841658115386962890625">
        <ele>385.20001220703125</ele>
        <time>2019-07-26T15:43:46.000Z</time>
      </trkpt>
      <trkpt lat="42.8890733420848846435546875" lon="-8.49388472735881805419921875">
        <ele>385.79998779296875</ele>
        <time>2019-07-26T15:43:49.000Z</time>
      </trkpt>
      <trkpt lat="42.889077700674533843994140625" lon="-8.4938751719892024993896484375">
        <ele>385.399993896484375</ele>
        <time>2019-07-26T15:47:56.000Z</time>
      </trkpt>
      <trkpt lat="42.889078371226787567138671875" lon="-8.49387533962726593017578125">
        <ele>385.399993896484375</ele>
        <time>2019-07-26T15:47:57.000Z</time>
      </trkpt>
      <trkpt lat="42.8890840709209442138671875" lon="-8.49394918419420719146728515625">
        <ele>385</ele>
        <time>2019-07-26T15:48:15.000Z</time>
      </trkpt>
      <trkpt lat="42.88908449001610279083251953125" lon="-8.49400668404996395111083984375">
        <ele>385</ele>
        <time>2019-07-26T15:48:16.000Z</time>
      </trkpt>
      <trkpt lat="42.88902665488421916961669921875" lon="-8.494295775890350341796875">
        <ele>385</ele>
        <time>2019-07-26T15:48:20.000Z</time>
      </trkpt>
      <trkpt lat="42.88899715058505535125732421875" lon="-8.49437582306563854217529296875">
        <ele>385</ele>
        <time>2019-07-26T15:48:21.000Z</time>
      </trkpt>
      <trkpt lat="42.88886924274265766143798828125" lon="-8.4947220794856548309326171875">
        <ele>384.20001220703125</ele>
        <time>2019-07-26T15:48:25.000Z</time>
      </trkpt>
      <trkpt lat="42.88884845562279224395751953125" lon="-8.4948209859430789947509765625">
        <ele>383.79998779296875</ele>
        <time>2019-07-26T15:48:26.000Z</time>
      </trkpt>
      <trkpt lat="42.8888166882097721099853515625" lon="-8.49503262899816036224365234375">
        <ele>383.20001220703125</ele>
        <time>2019-07-26T15:48:28.000Z</time>
      </trkpt>
      <trkpt lat="42.8888096474111080169677734375" lon="-8.49513824097812175750732421875">
        <ele>383</ele>
        <time>2019-07-26T15:48:29.000Z</time>
      </trkpt>
      <trkpt lat="42.8888019360601902008056640625" lon="-8.4952439367771148681640625">
        <ele>382</ele>
        <time>2019-07-26T15:48:30.000Z</time>
      </trkpt>
      <trkpt lat="42.88879967294633388519287109375" lon="-8.49545381963253021240234375">
        <ele>381.20001220703125</ele>
        <time>2019-07-26T15:48:32.000Z</time>
      </trkpt>
      <trkpt lat="42.8888113237917423248291015625" lon="-8.49555700086057186126708984375">
        <ele>380.600006103515625</ele>
        <time>2019-07-26T15:48:33.000Z</time>
      </trkpt>
      <trkpt lat="42.8888404928147792816162109375" lon="-8.49564618431031703948974609375">
        <ele>380.20001220703125</ele>
        <time>2019-07-26T15:48:34.000Z</time>
      </trkpt>
      <trkpt lat="42.88887376897037029266357421875" lon="-8.4957168437540531158447265625">
        <ele>379.399993896484375</ele>
        <time>2019-07-26T15:48:35.000Z</time>
      </trkpt>
      <trkpt lat="42.88895909674465656280517578125" lon="-8.49578440189361572265625">
        <ele>378.399993896484375</ele>
        <time>2019-07-26T15:48:37.000Z</time>
      </trkpt>
      <trkpt lat="42.888996563851833343505859375" lon="-8.4958072006702423095703125">
        <ele>377.79998779296875</ele>
        <time>2019-07-26T15:48:38.000Z</time>
      </trkpt>
      <trkpt lat="42.88905481807887554168701171875" lon="-8.49585589952766895294189453125">
        <ele>376.79998779296875</ele>
        <time>2019-07-26T15:48:40.000Z</time>
      </trkpt>
      <trkpt lat="42.88907359354197978973388671875" lon="-8.4958811290562152862548828125">
        <ele>376.20001220703125</ele>
        <time>2019-07-26T15:48:41.000Z</time>
      </trkpt>
      <trkpt lat="42.88908214308321475982666015625" lon="-8.4959092922508716583251953125">
        <ele>375.79998779296875</ele>
        <time>2019-07-26T15:48:42.000Z</time>
      </trkpt>
      <trkpt lat="42.88908164016902446746826171875" lon="-8.495938964188098907470703125">
        <ele>375.600006103515625</ele>
        <time>2019-07-26T15:48:43.000Z</time>
      </trkpt>
      <trkpt lat="42.889058589935302734375" lon="-8.49601062946021556854248046875">
        <ele>375.20001220703125</ele>
        <time>2019-07-26T15:48:45.000Z</time>
      </trkpt>
      <trkpt lat="42.88904777728021144866943359375" lon="-8.4960608370602130889892578125">
        <ele>375.20001220703125</ele>
        <time>2019-07-26T15:48:46.000Z</time>
      </trkpt>
      <trkpt lat="42.88900838233530521392822265625" lon="-8.4962576441466808319091796875">
        <ele>375</ele>
        <time>2019-07-26T15:48:49.000Z</time>
      </trkpt>
      <trkpt lat="42.8889848291873931884765625" lon="-8.496333248913288116455078125">
        <ele>375</ele>
        <time>2019-07-26T15:48:50.000Z</time>
      </trkpt>
      <trkpt lat="42.88888617418706417083740234375" lon="-8.49658168852329254150390625">
        <ele>374.79998779296875</ele>
        <time>2019-07-26T15:48:53.000Z</time>
      </trkpt>
      <trkpt lat="42.8887794725596904754638671875" lon="-8.49685317836701869964599609375">
        <ele>374.399993896484375</ele>
        <time>2019-07-26T15:48:56.000Z</time>
      </trkpt>
      <trkpt lat="42.88874150253832340240478515625" lon="-8.49694806151092052459716796875">
        <ele>374.20001220703125</ele>
        <time>2019-07-26T15:48:57.000Z</time>
      </trkpt>
      <trkpt lat="42.88866204209625720977783203125" lon="-8.4971536695957183837890625">
        <ele>373.79998779296875</ele>
        <time>2019-07-26T15:48:59.000Z</time>
      </trkpt>
      <trkpt lat="42.88857989944517612457275390625" lon="-8.4973744489252567291259765625">
        <ele>373</ele>
        <time>2019-07-26T15:49:01.000Z</time>
      </trkpt>
      <trkpt lat="42.8884931467473506927490234375" lon="-8.49761224351823329925537109375">
        <ele>371.79998779296875</ele>
        <time>2019-07-26T15:49:03.000Z</time>
      </trkpt>
      <trkpt lat="42.88841477595269680023193359375" lon="-8.497839979827404022216796875">
        <ele>370.79998779296875</ele>
        <time>2019-07-26T15:49:05.000Z</time>
      </trkpt>
      <trkpt lat="42.88838334381580352783203125" lon="-8.49794022738933563232421875">
        <ele>369.20001220703125</ele>
        <time>2019-07-26T15:49:06.000Z</time>
      </trkpt>
      <trkpt lat="42.8883328847587108612060546875" lon="-8.49812529981136322021484375">
        <ele>367.600006103515625</ele>
        <time>2019-07-26T15:49:08.000Z</time>
      </trkpt>
      <trkpt lat="42.88831335492432117462158203125" lon="-8.49820978939533233642578125">
        <ele>367</ele>
        <time>2019-07-26T15:49:09.000Z</time>
      </trkpt>
      <trkpt lat="42.88829944096505641937255859375" lon="-8.498293273150920867919921875">
        <ele>366.20001220703125</ele>
        <time>2019-07-26T15:49:10.000Z</time>
      </trkpt>
      <trkpt lat="42.88827178068459033966064453125" lon="-8.4984523616731166839599609375">
        <ele>364.399993896484375</ele>
        <time>2019-07-26T15:49:12.000Z</time>
      </trkpt>
      <trkpt lat="42.8882323019206523895263671875" lon="-8.4986146353185176849365234375">
        <ele>362.20001220703125</ele>
        <time>2019-07-26T15:49:14.000Z</time>
      </trkpt>
      <trkpt lat="42.88820858113467693328857421875" lon="-8.49869417957961559295654296875">
        <ele>361.20001220703125</ele>
        <time>2019-07-26T15:49:15.000Z</time>
      </trkpt>
      <trkpt lat="42.88817773573100566864013671875" lon="-8.4987802617251873016357421875">
        <ele>360</ele>
        <time>2019-07-26T15:49:16.000Z</time>
      </trkpt>
      <trkpt lat="42.8881431184709072113037109375" lon="-8.49887631833553314208984375">
        <ele>359</ele>
        <time>2019-07-26T15:49:17.000Z</time>
      </trkpt>
      <trkpt lat="42.888108752667903900146484375" lon="-8.498985283076763153076171875">
        <ele>357.79998779296875</ele>
        <time>2019-07-26T15:49:18.000Z</time>
      </trkpt>
      <trkpt lat="42.8880740515887737274169921875" lon="-8.4991081617772579193115234375">
        <ele>356.79998779296875</ele>
        <time>2019-07-26T15:49:19.000Z</time>
      </trkpt>
      <trkpt lat="42.8880351595580577850341796875" lon="-8.49925174377858638763427734375">
        <ele>355.79998779296875</ele>
        <time>2019-07-26T15:49:20.000Z</time>
      </trkpt>
      <trkpt lat="42.88799350149929523468017578125" lon="-8.49940798245370388031005859375">
        <ele>355</ele>
        <time>2019-07-26T15:49:21.000Z</time>
      </trkpt>
      <trkpt lat="42.8879548609256744384765625" lon="-8.499568663537502288818359375">
        <ele>354.399993896484375</ele>
        <time>2019-07-26T15:49:22.000Z</time>
      </trkpt>
      <trkpt lat="42.88791789673268795013427734375" lon="-8.49973051808774471282958984375">
        <ele>353.399993896484375</ele>
        <time>2019-07-26T15:49:23.000Z</time>
      </trkpt>
      <trkpt lat="42.887878082692623138427734375" lon="-8.49989815615117549896240234375">
        <ele>352.79998779296875</ele>
        <time>2019-07-26T15:49:24.000Z</time>
      </trkpt>
      <trkpt lat="42.8878462314605712890625" lon="-8.50006646476686000823974609375">
        <ele>352.399993896484375</ele>
        <time>2019-07-26T15:49:25.000Z</time>
      </trkpt>
      <trkpt lat="42.88782301358878612518310546875" lon="-8.5002383776009082794189453125">
        <ele>352</ele>
        <time>2019-07-26T15:49:26.000Z</time>
      </trkpt>
      <trkpt lat="42.8878127038478851318359375" lon="-8.50041163153946399688720703125">
        <ele>351.600006103515625</ele>
        <time>2019-07-26T15:49:27.000Z</time>
      </trkpt>
      <trkpt lat="42.88782049901783466339111328125" lon="-8.50058798678219318389892578125">
        <ele>351.399993896484375</ele>
        <time>2019-07-26T15:49:28.000Z</time>
      </trkpt>
      <trkpt lat="42.88784396834671497344970703125" lon="-8.50076861679553985595703125">
        <ele>350.600006103515625</ele>
        <time>2019-07-26T15:49:29.000Z</time>
      </trkpt>
      <trkpt lat="42.8878748975694179534912109375" lon="-8.50095427595078945159912109375">
        <ele>350</ele>
        <time>2019-07-26T15:49:30.000Z</time>
      </trkpt>
      <trkpt lat="42.88791404105722904205322265625" lon="-8.5011421144008636474609375">
        <ele>349.20001220703125</ele>
        <time>2019-07-26T15:49:31.000Z</time>
      </trkpt>
      <trkpt lat="42.8879771567881107330322265625" lon="-8.5014970041811466217041015625">
        <ele>347</ele>
        <time>2019-07-26T15:49:33.000Z</time>
      </trkpt>
      <trkpt lat="42.887992076575756072998046875" lon="-8.50166983902454376220703125">
        <ele>346</ele>
        <time>2019-07-26T15:49:34.000Z</time>
      </trkpt>
      <trkpt lat="42.887993752956390380859375" lon="-8.501847200095653533935546875">
        <ele>345</ele>
        <time>2019-07-26T15:49:35.000Z</time>
      </trkpt>
      <trkpt lat="42.8879422880709171295166015625" lon="-8.502197228372097015380859375">
        <ele>342.600006103515625</ele>
        <time>2019-07-26T15:49:37.000Z</time>
      </trkpt>
      <trkpt lat="42.88789124228060245513916015625" lon="-8.502356819808483123779296875">
        <ele>341</ele>
        <time>2019-07-26T15:49:38.000Z</time>
      </trkpt>
      <trkpt lat="42.8878410346806049346923828125" lon="-8.5025115497410297393798828125">
        <ele>339.20001220703125</ele>
        <time>2019-07-26T15:49:39.000Z</time>
      </trkpt>
      <trkpt lat="42.88779233582317829132080078125" lon="-8.50266066379845142364501953125">
        <ele>337</ele>
        <time>2019-07-26T15:49:40.000Z</time>
      </trkpt>
      <trkpt lat="42.88775159977376461029052734375" lon="-8.5028059221804141998291015625">
        <ele>335</ele>
        <time>2019-07-26T15:49:41.000Z</time>
      </trkpt>
      <trkpt lat="42.887709103524684906005859375" lon="-8.502944223582744598388671875">
        <ele>332.79998779296875</ele>
        <time>2019-07-26T15:49:42.000Z</time>
      </trkpt>
      <trkpt lat="42.8876673616468906402587890625" lon="-8.50307808257639408111572265625">
        <ele>330.399993896484375</ele>
        <time>2019-07-26T15:49:43.000Z</time>
      </trkpt>
      <trkpt lat="42.8876241110265254974365234375" lon="-8.50320481695234775543212890625">
        <ele>328.79998779296875</ele>
        <time>2019-07-26T15:49:44.000Z</time>
      </trkpt>
      <trkpt lat="42.88758027367293834686279296875" lon="-8.50332207977771759033203125">
        <ele>327.20001220703125</ele>
        <time>2019-07-26T15:49:45.000Z</time>
      </trkpt>
      <trkpt lat="42.88754624314606189727783203125" lon="-8.50343481637537479400634765625">
        <ele>325.399993896484375</ele>
        <time>2019-07-26T15:49:46.000Z</time>
      </trkpt>
      <trkpt lat="42.8875191695988178253173828125" lon="-8.503544367849826812744140625">
        <ele>323.79998779296875</ele>
        <time>2019-07-26T15:49:47.000Z</time>
      </trkpt>
      <trkpt lat="42.88749762810766696929931640625" lon="-8.5036494769155979156494140625">
        <ele>322.399993896484375</ele>
        <time>2019-07-26T15:49:48.000Z</time>
      </trkpt>
      <trkpt lat="42.88748488761484622955322265625" lon="-8.50374779663980007171630859375">
        <ele>321.399993896484375</ele>
        <time>2019-07-26T15:49:49.000Z</time>
      </trkpt>
      <trkpt lat="42.88748086430132389068603515625" lon="-8.503833375871181488037109375">
        <ele>320.600006103515625</ele>
        <time>2019-07-26T15:49:50.000Z</time>
      </trkpt>
      <trkpt lat="42.8874893300235271453857421875" lon="-8.50390613079071044921875">
        <ele>320</ele>
        <time>2019-07-26T15:49:51.000Z</time>
      </trkpt>
      <trkpt lat="42.887562252581119537353515625" lon="-8.5040172748267650604248046875">
        <ele>319.20001220703125</ele>
        <time>2019-07-26T15:49:53.000Z</time>
      </trkpt>
      <trkpt lat="42.8876217640936374664306640625" lon="-8.504043258726596832275390625">
        <ele>318.399993896484375</ele>
        <time>2019-07-26T15:49:54.000Z</time>
      </trkpt>
      <trkpt lat="42.8877548687160015106201171875" lon="-8.50400269031524658203125">
        <ele>316.79998779296875</ele>
        <time>2019-07-26T15:49:56.000Z</time>
      </trkpt>
      <trkpt lat="42.88788042962551116943359375" lon="-8.503903448581695556640625">
        <ele>315.399993896484375</ele>
        <time>2019-07-26T15:49:58.000Z</time>
      </trkpt>
      <trkpt lat="42.8879320621490478515625" lon="-8.5038637183606624603271484375">
        <ele>314.399993896484375</ele>
        <time>2019-07-26T15:49:59.000Z</time>
      </trkpt>
      <trkpt lat="42.88798159919679164886474609375" lon="-8.50382742471992969512939453125">
        <ele>313.20001220703125</ele>
        <time>2019-07-26T15:50:00.000Z</time>
      </trkpt>
      <trkpt lat="42.88803256116807460784912109375" lon="-8.50379171781241893768310546875">
        <ele>311.399993896484375</ele>
        <time>2019-07-26T15:50:01.000Z</time>
      </trkpt>
      <trkpt lat="42.8880834393203258514404296875" lon="-8.5037621296942234039306640625">
        <ele>310.399993896484375</ele>
        <time>2019-07-26T15:50:02.000Z</time>
      </trkpt>
      <trkpt lat="42.88813414983451366424560546875" lon="-8.50373916327953338623046875">
        <ele>309.79998779296875</ele>
        <time>2019-07-26T15:50:03.000Z</time>
      </trkpt>
      <trkpt lat="42.88821595720946788787841796875" lon="-8.50372483022511005401611328125">
        <ele>308</ele>
        <time>2019-07-26T15:50:05.000Z</time>
      </trkpt>
      <trkpt lat="42.88823984563350677490234375" lon="-8.5037275962531566619873046875">
        <ele>307.20001220703125</ele>
        <time>2019-07-26T15:50:06.000Z</time>
      </trkpt>
      <trkpt lat="42.88825535215437412261962890625" lon="-8.503731787204742431640625">
        <ele>306.399993896484375</ele>
        <time>2019-07-26T15:50:07.000Z</time>
      </trkpt>
      <trkpt lat="42.88827312178909778594970703125" lon="-8.50374318659305572509765625">
        <ele>305</ele>
        <time>2019-07-26T15:50:09.000Z</time>
      </trkpt>
      <trkpt lat="42.8882765583693981170654296875" lon="-8.50374519824981689453125">
        <ele>304.600006103515625</ele>
        <time>2019-07-26T15:50:10.000Z</time>
      </trkpt>
      <trkpt lat="42.888284437358379364013671875" lon="-8.50380043499171733856201171875">
        <ele>303.600006103515625</ele>
        <time>2019-07-26T15:50:13.000Z</time>
      </trkpt>
      <trkpt lat="42.88826876319944858551025390625" lon="-8.5038754530251026153564453125">
        <ele>302.79998779296875</ele>
        <time>2019-07-26T15:50:15.000Z</time>
      </trkpt>
      <trkpt lat="42.88825099356472492218017578125" lon="-8.5039193741977214813232421875">
        <ele>302.399993896484375</ele>
        <time>2019-07-26T15:50:16.000Z</time>
      </trkpt>
      <trkpt lat="42.88819424808025360107421875" lon="-8.5040048696100711822509765625">
        <ele>302.20001220703125</ele>
        <time>2019-07-26T15:50:18.000Z</time>
      </trkpt>
      <trkpt lat="42.8881578706204891204833984375" lon="-8.5040491260588169097900390625">
        <ele>302</ele>
        <time>2019-07-26T15:50:19.000Z</time>
      </trkpt>
      <trkpt lat="42.888067178428173065185546875" lon="-8.50414074026048183441162109375">
        <ele>302</ele>
        <time>2019-07-26T15:50:21.000Z</time>
      </trkpt>
      <trkpt lat="42.887906916439533233642578125" lon="-8.5042811371386051177978515625">
        <ele>302</ele>
        <time>2019-07-26T15:50:24.000Z</time>
      </trkpt>
      <trkpt lat="42.8877912461757659912109375" lon="-8.50436889566481113433837890625">
        <ele>302</ele>
        <time>2019-07-26T15:50:26.000Z</time>
      </trkpt>
      <trkpt lat="42.88762184791266918182373046875" lon="-8.50448607467114925384521484375">
        <ele>302.20001220703125</ele>
        <time>2019-07-26T15:50:29.000Z</time>
      </trkpt>
      <trkpt lat="42.8875627554953098297119140625" lon="-8.5045225359499454498291015625">
        <ele>302.20001220703125</ele>
        <time>2019-07-26T15:50:30.000Z</time>
      </trkpt>
      <trkpt lat="42.8871439956128597259521484375" lon="-8.50482654757797718048095703125">
        <ele>302.20001220703125</ele>
        <time>2019-07-26T15:50:37.000Z</time>
      </trkpt>
      <trkpt lat="42.8869039379060268402099609375" lon="-8.50521496497094631195068359375">
        <ele>302</ele>
        <time>2019-07-26T15:50:42.000Z</time>
      </trkpt>
      <trkpt lat="42.88681366480886936187744140625" lon="-8.5055263526737689971923828125">
        <ele>302</ele>
        <time>2019-07-26T15:50:45.000Z</time>
      </trkpt>
      <trkpt lat="42.8867919556796550750732421875" lon="-8.50563858635723590850830078125">
        <ele>302</ele>
        <time>2019-07-26T15:50:46.000Z</time>
      </trkpt>
      <trkpt lat="42.88671509362757205963134765625" lon="-8.5062364675104618072509765625">
        <ele>301.20001220703125</ele>
        <time>2019-07-26T15:50:51.000Z</time>
      </trkpt>
      <trkpt lat="42.88670117966830730438232421875" lon="-8.50636370480060577392578125">
        <ele>301</ele>
        <time>2019-07-26T15:50:52.000Z</time>
      </trkpt>
      <trkpt lat="42.8866605274379253387451171875" lon="-8.50677383132278919219970703125">
        <ele>300</ele>
        <time>2019-07-26T15:50:55.000Z</time>
      </trkpt>
      <trkpt lat="42.88663730956614017486572265625" lon="-8.50707004778087139129638671875">
        <ele>298.600006103515625</ele>
        <time>2019-07-26T15:50:57.000Z</time>
      </trkpt>
      <trkpt lat="42.88662691600620746612548828125" lon="-8.50722335278987884521484375">
        <ele>298.20001220703125</ele>
        <time>2019-07-26T15:50:58.000Z</time>
      </trkpt>
      <trkpt lat="42.88660830818116664886474609375" lon="-8.507535494863986968994140625">
        <ele>297.399993896484375</ele>
        <time>2019-07-26T15:51:00.000Z</time>
      </trkpt>
      <trkpt lat="42.8865985013544559478759765625" lon="-8.50785727612674236297607421875">
        <ele>296.399993896484375</ele>
        <time>2019-07-26T15:51:02.000Z</time>
      </trkpt>
      <trkpt lat="42.886591292917728424072265625" lon="-8.50817075930535793304443359375">
        <ele>294.79998779296875</ele>
        <time>2019-07-26T15:51:04.000Z</time>
      </trkpt>
      <trkpt lat="42.8865834139287471771240234375" lon="-8.508460521697998046875">
        <ele>294</ele>
        <time>2019-07-26T15:51:06.000Z</time>
      </trkpt>
      <trkpt lat="42.88658165372908115386962890625" lon="-8.5085959732532501220703125">
        <ele>293.399993896484375</ele>
        <time>2019-07-26T15:51:07.000Z</time>
      </trkpt>
      <trkpt lat="42.886575870215892791748046875" lon="-8.50885539315640926361083984375">
        <ele>291.600006103515625</ele>
        <time>2019-07-26T15:51:09.000Z</time>
      </trkpt>
      <trkpt lat="42.886572182178497314453125" lon="-8.50897885859012603759765625">
        <ele>290.600006103515625</ele>
        <time>2019-07-26T15:51:10.000Z</time>
      </trkpt>
      <trkpt lat="42.88656556047499179840087890625" lon="-8.50920642726123332977294921875">
        <ele>289</ele>
        <time>2019-07-26T15:51:12.000Z</time>
      </trkpt>
      <trkpt lat="42.8865579329431056976318359375" lon="-8.50941077806055545806884765625">
        <ele>288</ele>
        <time>2019-07-26T15:51:14.000Z</time>
      </trkpt>
      <trkpt lat="42.88655541837215423583984375" lon="-8.50950364954769611358642578125">
        <ele>287.399993896484375</ele>
        <time>2019-07-26T15:51:15.000Z</time>
      </trkpt>
      <trkpt lat="42.8865515626966953277587890625" lon="-8.5096680186688899993896484375">
        <ele>287</ele>
        <time>2019-07-26T15:51:17.000Z</time>
      </trkpt>
      <trkpt lat="42.8865495510399341583251953125" lon="-8.5097437910735607147216796875">
        <ele>286.79998779296875</ele>
        <time>2019-07-26T15:51:18.000Z</time>
      </trkpt>
      <trkpt lat="42.88655013777315616607666015625" lon="-8.5098148696124553680419921875">
        <ele>286.600006103515625</ele>
        <time>2019-07-26T15:51:19.000Z</time>
      </trkpt>
      <trkpt lat="42.88655701093375682830810546875" lon="-8.5099426098167896270751953125">
        <ele>286</ele>
        <time>2019-07-26T15:51:21.000Z</time>
      </trkpt>
      <trkpt lat="42.88655952550470829010009765625" lon="-8.50999952293932437896728515625">
        <ele>285.79998779296875</ele>
        <time>2019-07-26T15:51:22.000Z</time>
      </trkpt>
      <trkpt lat="42.88657863624393939971923828125" lon="-8.51015903055667877197265625">
        <ele>285.600006103515625</ele>
        <time>2019-07-26T15:51:25.000Z</time>
      </trkpt>
      <trkpt lat="42.886640913784503936767578125" lon="-8.5102752037346363067626953125">
        <ele>285.399993896484375</ele>
        <time>2019-07-26T15:51:29.000Z</time>
      </trkpt>
      <trkpt lat="42.88664233870804309844970703125" lon="-8.51027838885784149169921875">
        <ele>285.600006103515625</ele>
        <time>2019-07-26T15:51:31.000Z</time>
      </trkpt>
      <trkpt lat="42.88666329346597194671630859375" lon="-8.510313928127288818359375">
        <ele>285.79998779296875</ele>
        <time>2019-07-26T15:51:37.000Z</time>
      </trkpt>
      <trkpt lat="42.88667670451104640960693359375" lon="-8.51032943464815616607666015625">
        <ele>285.79998779296875</ele>
        <time>2019-07-26T15:51:38.000Z</time>
      </trkpt>
      <trkpt lat="42.8867118246853351593017578125" lon="-8.51037536747753620147705078125">
        <ele>285.79998779296875</ele>
        <time>2019-07-26T15:51:40.000Z</time>
      </trkpt>
      <trkpt lat="42.88676102645695209503173828125" lon="-8.5104612819850444793701171875">
        <ele>285.79998779296875</ele>
        <time>2019-07-26T15:51:42.000Z</time>
      </trkpt>
      <trkpt lat="42.8868134133517742156982421875" lon="-8.51056999526917934417724609375">
        <ele>285.79998779296875</ele>
        <time>2019-07-26T15:51:44.000Z</time>
      </trkpt>
      <trkpt lat="42.88684082217514514923095703125" lon="-8.5106979869306087493896484375">
        <ele>285.79998779296875</ele>
        <time>2019-07-26T15:51:46.000Z</time>
      </trkpt>
      <trkpt lat="42.8868435882031917572021484375" lon="-8.51076613180339336395263671875">
        <ele>285.79998779296875</ele>
        <time>2019-07-26T15:51:47.000Z</time>
      </trkpt>
      <trkpt lat="42.88676706142723560333251953125" lon="-8.51101289503276348114013671875">
        <ele>286</ele>
        <time>2019-07-26T15:51:51.000Z</time>
      </trkpt>
      <trkpt lat="42.88666404783725738525390625" lon="-8.51116209290921688079833984375">
        <ele>286.600006103515625</ele>
        <time>2019-07-26T15:51:54.000Z</time>
      </trkpt>
      <trkpt lat="42.88662850856781005859375" lon="-8.5112116299569606781005859375">
        <ele>286.600006103515625</ele>
        <time>2019-07-26T15:51:55.000Z</time>
      </trkpt>
      <trkpt lat="42.88659757934510707855224609375" lon="-8.5112676210701465606689453125">
        <ele>286.79998779296875</ele>
        <time>2019-07-26T15:51:56.000Z</time>
      </trkpt>
      <trkpt lat="42.88654577918350696563720703125" lon="-8.5114627517759799957275390625">
        <ele>287</ele>
        <time>2019-07-26T15:51:59.000Z</time>
      </trkpt>
      <trkpt lat="42.8865408338606357574462890625" lon="-8.51153156720101833343505859375">
        <ele>287</ele>
        <time>2019-07-26T15:52:00.000Z</time>
      </trkpt>
      <trkpt lat="42.8865441866219043731689453125" lon="-8.51173910312354564666748046875">
        <ele>287.20001220703125</ele>
        <time>2019-07-26T15:52:03.000Z</time>
      </trkpt>
      <trkpt lat="42.8865351341664791107177734375" lon="-8.511933647096157073974609375">
        <ele>287.20001220703125</ele>
        <time>2019-07-26T15:52:06.000Z</time>
      </trkpt>
      <trkpt lat="42.8865145146846771240234375" lon="-8.51233555935323238372802734375">
        <ele>287.79998779296875</ele>
        <time>2019-07-26T15:52:13.000Z</time>
      </trkpt>
      <trkpt lat="42.8865103237330913543701171875" lon="-8.51244888268411159515380859375">
        <ele>287.79998779296875</ele>
        <time>2019-07-26T15:52:15.000Z</time>
      </trkpt>
      <trkpt lat="42.8865133412182331085205078125" lon="-8.512678630650043487548828125">
        <ele>288</ele>
        <time>2019-07-26T15:52:19.000Z</time>
      </trkpt>
      <trkpt lat="42.8865539096295833587646484375" lon="-8.512784577906131744384765625">
        <ele>288</ele>
        <time>2019-07-26T15:52:21.000Z</time>
      </trkpt>
      <trkpt lat="42.8866534866392612457275390625" lon="-8.5129885934293270111083984375">
        <ele>288</ele>
        <time>2019-07-26T15:52:25.000Z</time>
      </trkpt>
      <trkpt lat="42.88665927015244960784912109375" lon="-8.51304952986538410186767578125">
        <ele>288.20001220703125</ele>
        <time>2019-07-26T15:52:26.000Z</time>
      </trkpt>
      <trkpt lat="42.88659875281155109405517578125" lon="-8.5132098756730556488037109375">
        <ele>288.600006103515625</ele>
        <time>2019-07-26T15:52:29.000Z</time>
      </trkpt>
      <trkpt lat="42.88650982081890106201171875" lon="-8.5133744962513446807861328125">
        <ele>289</ele>
        <time>2019-07-26T15:52:32.000Z</time>
      </trkpt>
      <trkpt lat="42.8865006007254123687744140625" lon="-8.5134415514767169952392578125">
        <ele>289</ele>
        <time>2019-07-26T15:52:33.000Z</time>
      </trkpt>
      <trkpt lat="42.8864979185163974761962890625" lon="-8.51350734941661357879638671875">
        <ele>289.20001220703125</ele>
        <time>2019-07-26T15:52:34.000Z</time>
      </trkpt>
      <trkpt lat="42.88648190908133983612060546875" lon="-8.51388084702193737030029296875">
        <ele>289.600006103515625</ele>
        <time>2019-07-26T15:52:40.000Z</time>
      </trkpt>
      <trkpt lat="42.88647972978651523590087890625" lon="-8.51393834687769412994384765625">
        <ele>290</ele>
        <time>2019-07-26T15:52:41.000Z</time>
      </trkpt>
      <trkpt lat="42.8864741139113903045654296875" lon="-8.5141667537391185760498046875">
        <ele>291.20001220703125</ele>
        <time>2019-07-26T15:52:45.000Z</time>
      </trkpt>
      <trkpt lat="42.886484004557132720947265625" lon="-8.51423959247767925262451171875">
        <ele>291.600006103515625</ele>
        <time>2019-07-26T15:52:47.000Z</time>
      </trkpt>
      <trkpt lat="42.8865145146846771240234375" lon="-8.5142954997718334197998046875">
        <ele>291.79998779296875</ele>
        <time>2019-07-26T15:52:51.000Z</time>
      </trkpt>
      <trkpt lat="42.886514179408550262451171875" lon="-8.5142948292195796966552734375">
        <ele>291.79998779296875</ele>
        <time>2019-07-26T15:52:52.000Z</time>
      </trkpt>
      <trkpt lat="42.88652398623526096343994140625" lon="-8.51434285752475261688232421875">
        <ele>292</ele>
        <time>2019-07-26T15:52:59.000Z</time>
      </trkpt>
      <trkpt lat="42.886536307632923126220703125" lon="-8.514410667121410369873046875">
        <ele>292</ele>
        <time>2019-07-26T15:53:01.000Z</time>
      </trkpt>
      <trkpt lat="42.88654334843158721923828125" lon="-8.51448300294578075408935546875">
        <ele>292</ele>
        <time>2019-07-26T15:53:03.000Z</time>
      </trkpt>
      <trkpt lat="42.88653127849102020263671875" lon="-8.514621555805206298828125">
        <ele>292</ele>
        <time>2019-07-26T15:53:07.000Z</time>
      </trkpt>
      <trkpt lat="42.8865270875394344329833984375" lon="-8.5146539099514484405517578125">
        <ele>292.20001220703125</ele>
        <time>2019-07-26T15:53:08.000Z</time>
      </trkpt>
      <trkpt lat="42.88652331568300724029541015625" lon="-8.51475424133241176605224609375">
        <ele>292.399993896484375</ele>
        <time>2019-07-26T15:53:12.000Z</time>
      </trkpt>
      <trkpt lat="42.88652180694043636322021484375" lon="-8.51477653719484806060791015625">
        <ele>292.399993896484375</ele>
        <time>2019-07-26T15:53:13.000Z</time>
      </trkpt>
      <trkpt lat="42.8865217231214046478271484375" lon="-8.51479615084826946258544921875">
        <ele>292.600006103515625</ele>
        <time>2019-07-26T15:53:14.000Z</time>
      </trkpt>
      <trkpt lat="42.886517532169818878173828125" lon="-8.51481978781521320343017578125">
        <ele>292.79998779296875</ele>
        <time>2019-07-26T15:53:17.000Z</time>
      </trkpt>
      <trkpt lat="42.8865130059421062469482421875" lon="-8.5148731805384159088134765625">
        <ele>293.20001220703125</ele>
        <time>2019-07-26T15:53:24.000Z</time>
      </trkpt>
      <trkpt lat="42.8865042887628078460693359375" lon="-8.51496957242488861083984375">
        <ele>293.20001220703125</ele>
        <time>2019-07-26T15:53:28.000Z</time>
      </trkpt>
      <trkpt lat="42.8864945657551288604736328125" lon="-8.5150840692222118377685546875">
        <ele>293.20001220703125</ele>
        <time>2019-07-26T15:53:31.000Z</time>
      </trkpt>
      <trkpt lat="42.88650604896247386932373046875" lon="-8.515152633190155029296875">
        <ele>293.20001220703125</ele>
        <time>2019-07-26T15:53:33.000Z</time>
      </trkpt>
      <trkpt lat="42.88653890602290630340576171875" lon="-8.51522035896778106689453125">
        <ele>293.20001220703125</ele>
        <time>2019-07-26T15:53:35.000Z</time>
      </trkpt>
      <trkpt lat="42.8865565918385982513427734375" lon="-8.51531348191201686859130859375">
        <ele>293.399993896484375</ele>
        <time>2019-07-26T15:53:37.000Z</time>
      </trkpt>
      <trkpt lat="42.88655332289636135101318359375" lon="-8.515435270965099334716796875">
        <ele>293.79998779296875</ele>
        <time>2019-07-26T15:53:39.000Z</time>
      </trkpt>
      <trkpt lat="42.88654066622257232666015625" lon="-8.51562310941517353057861328125">
        <ele>294</ele>
        <time>2019-07-26T15:53:42.000Z</time>
      </trkpt>
      <trkpt lat="42.88653689436614513397216796875" lon="-8.515742719173431396484375">
        <ele>294.20001220703125</ele>
        <time>2019-07-26T15:53:44.000Z</time>
      </trkpt>
      <trkpt lat="42.8865358047187328338623046875" lon="-8.5159179009497165679931640625">
        <ele>294.600006103515625</ele>
        <time>2019-07-26T15:53:47.000Z</time>
      </trkpt>
      <trkpt lat="42.8865284286439418792724609375" lon="-8.5162535123527050018310546875">
        <ele>295.399993896484375</ele>
        <time>2019-07-26T15:53:53.000Z</time>
      </trkpt>
      <trkpt lat="42.88650906644761562347412109375" lon="-8.5163507424294948577880859375">
        <ele>295.600006103515625</ele>
        <time>2019-07-26T15:53:55.000Z</time>
      </trkpt>
      <trkpt lat="42.8864771313965320587158203125" lon="-8.5165683366358280181884765625">
        <ele>296.20001220703125</ele>
        <time>2019-07-26T15:54:00.000Z</time>
      </trkpt>
      <trkpt lat="42.88647830486297607421875" lon="-8.516680486500263214111328125">
        <ele>296.399993896484375</ele>
        <time>2019-07-26T15:54:02.000Z</time>
      </trkpt>
      <trkpt lat="42.8864943981170654296875" lon="-8.51684653200209140777587890625">
        <ele>296.399993896484375</ele>
        <time>2019-07-26T15:54:05.000Z</time>
      </trkpt>
      <trkpt lat="42.88653136231005191802978515625" lon="-8.51695516146719455718994140625">
        <ele>296.600006103515625</ele>
        <time>2019-07-26T15:54:07.000Z</time>
      </trkpt>
      <trkpt lat="42.8865458630025386810302734375" lon="-8.51700779981911182403564453125">
        <ele>296.79998779296875</ele>
        <time>2019-07-26T15:54:08.000Z</time>
      </trkpt>
      <trkpt lat="42.88655181415379047393798828125" lon="-8.51721994578838348388671875">
        <ele>297.399993896484375</ele>
        <time>2019-07-26T15:54:12.000Z</time>
      </trkpt>
      <trkpt lat="42.88654075004160404205322265625" lon="-8.51727417670190334320068359375">
        <ele>297.399993896484375</ele>
        <time>2019-07-26T15:54:13.000Z</time>
      </trkpt>
      <trkpt lat="42.886534966528415679931640625" lon="-8.5174558125436305999755859375">
        <ele>297.79998779296875</ele>
        <time>2019-07-26T15:54:16.000Z</time>
      </trkpt>
      <trkpt lat="42.8865373134613037109375" lon="-8.51751725189387798309326171875">
        <ele>297.79998779296875</ele>
        <time>2019-07-26T15:54:17.000Z</time>
      </trkpt>
      <trkpt lat="42.88655198179185390472412109375" lon="-8.51770316250622272491455078125">
        <ele>298.20001220703125</ele>
        <time>2019-07-26T15:54:20.000Z</time>
      </trkpt>
      <trkpt lat="42.88656388409435749053955078125" lon="-8.51788907311856746673583984375">
        <ele>298.600006103515625</ele>
        <time>2019-07-26T15:54:23.000Z</time>
      </trkpt>
      <trkpt lat="42.8866083920001983642578125" lon="-8.51833079941570758819580078125">
        <ele>299.399993896484375</ele>
        <time>2019-07-26T15:54:30.000Z</time>
      </trkpt>
      <trkpt lat="42.88662113249301910400390625" lon="-8.518454097211360931396484375">
        <ele>299.79998779296875</ele>
        <time>2019-07-26T15:54:32.000Z</time>
      </trkpt>
      <trkpt lat="42.8866544924676418304443359375" lon="-8.51877638138830661773681640625">
        <ele>300.399993896484375</ele>
        <time>2019-07-26T15:54:37.000Z</time>
      </trkpt>
      <trkpt lat="42.8866682387888431549072265625" lon="-8.51891183294355869293212890625">
        <ele>300.79998779296875</ele>
        <time>2019-07-26T15:54:39.000Z</time>
      </trkpt>
      <trkpt lat="42.8867044486105442047119140625" lon="-8.519290946424007415771484375">
        <ele>301.399993896484375</ele>
        <time>2019-07-26T15:54:45.000Z</time>
      </trkpt>
      <trkpt lat="42.88671174086630344390869140625" lon="-8.51940083317458629608154296875">
        <ele>301.600006103515625</ele>
        <time>2019-07-26T15:54:47.000Z</time>
      </trkpt>
      <trkpt lat="42.88673806004226207733154296875" lon="-8.519599400460720062255859375">
        <ele>301.79998779296875</ele>
        <time>2019-07-26T15:54:51.000Z</time>
      </trkpt>
      <trkpt lat="42.8867574222385883331298828125" lon="-8.51978950202465057373046875">
        <ele>301.79998779296875</ele>
        <time>2019-07-26T15:54:54.000Z</time>
      </trkpt>
      <trkpt lat="42.8867748565971851348876953125" lon="-8.51986996829509735107421875">
        <ele>301.79998779296875</ele>
        <time>2019-07-26T15:54:55.000Z</time>
      </trkpt>
      <trkpt lat="42.88685322739183902740478515625" lon="-8.52032418362796306610107421875">
        <ele>301.600006103515625</ele>
        <time>2019-07-26T15:55:01.000Z</time>
      </trkpt>
      <trkpt lat="42.88689731620252132415771484375" lon="-8.52057874202728271484375">
        <ele>301.600006103515625</ele>
        <time>2019-07-26T15:55:04.000Z</time>
      </trkpt>
      <trkpt lat="42.8869237191975116729736328125" lon="-8.520748727023601531982421875">
        <ele>301.20001220703125</ele>
        <time>2019-07-26T15:55:06.000Z</time>
      </trkpt>
      <trkpt lat="42.88693838752806186676025390625" lon="-8.520833551883697509765625">
        <ele>301</ele>
        <time>2019-07-26T15:55:07.000Z</time>
      </trkpt>
      <trkpt lat="42.8869535587728023529052734375" lon="-8.5209180414676666259765625">
        <ele>301</ele>
        <time>2019-07-26T15:55:08.000Z</time>
      </trkpt>
      <trkpt lat="42.88700762204825878143310546875" lon="-8.52116270922124385833740234375">
        <ele>300.600006103515625</ele>
        <time>2019-07-26T15:55:11.000Z</time>
      </trkpt>
      <trkpt lat="42.8870568238198757171630859375" lon="-8.5213337838649749755859375">
        <ele>300.399993896484375</ele>
        <time>2019-07-26T15:55:13.000Z</time>
      </trkpt>
      <trkpt lat="42.88707618601620197296142578125" lon="-8.521421961486339569091796875">
        <ele>300.20001220703125</ele>
        <time>2019-07-26T15:55:14.000Z</time>
      </trkpt>
      <trkpt lat="42.887146510183811187744140625" lon="-8.52179721929132938385009765625">
        <ele>299.79998779296875</ele>
        <time>2019-07-26T15:55:18.000Z</time>
      </trkpt>
      <trkpt lat="42.88719235919415950775146484375" lon="-8.52211003191769123077392578125">
        <ele>299.79998779296875</ele>
        <time>2019-07-26T15:55:21.000Z</time>
      </trkpt>
      <trkpt lat="42.88729310967028141021728515625" lon="-8.52271713316440582275390625">
        <ele>299.399993896484375</ele>
        <time>2019-07-26T15:55:27.000Z</time>
      </trkpt>
      <trkpt lat="42.88738933391869068145751953125" lon="-8.52315969765186309814453125">
        <ele>298.79998779296875</ele>
        <time>2019-07-26T15:55:32.000Z</time>
      </trkpt>
      <trkpt lat="42.88742973469197750091552734375" lon="-8.52332507260143756866455078125">
        <ele>298.399993896484375</ele>
        <time>2019-07-26T15:55:34.000Z</time>
      </trkpt>
      <trkpt lat="42.8874581493437290191650390625" lon="-8.52346152998507022857666015625">
        <ele>297.600006103515625</ele>
        <time>2019-07-26T15:55:36.000Z</time>
      </trkpt>
      <trkpt lat="42.8874678723514080047607421875" lon="-8.52357678115367889404296875">
        <ele>297.399993896484375</ele>
        <time>2019-07-26T15:55:38.000Z</time>
      </trkpt>
      <trkpt lat="42.88739268667995929718017578125" lon="-8.52378867566585540771484375">
        <ele>297.20001220703125</ele>
        <time>2019-07-26T15:55:41.000Z</time>
      </trkpt>
      <trkpt lat="42.887333929538726806640625" lon="-8.524155803024768829345703125">
        <ele>297</ele>
        <time>2019-07-26T15:55:45.000Z</time>
      </trkpt>
      <trkpt lat="42.887332253158092498779296875" lon="-8.524244986474514007568359375">
        <ele>297</ele>
        <time>2019-07-26T15:55:46.000Z</time>
      </trkpt>
      <trkpt lat="42.88734122179448604583740234375" lon="-8.52451178245246410369873046875">
        <ele>296.600006103515625</ele>
        <time>2019-07-26T15:55:49.000Z</time>
      </trkpt>
      <trkpt lat="42.8873397968709468841552734375" lon="-8.52459610439836978912353515625">
        <ele>296.399993896484375</ele>
        <time>2019-07-26T15:55:50.000Z</time>
      </trkpt>
      <trkpt lat="42.88731356151401996612548828125" lon="-8.52492450736463069915771484375">
        <ele>295.600006103515625</ele>
        <time>2019-07-26T15:55:54.000Z</time>
      </trkpt>
      <trkpt lat="42.88730568252503871917724609375" lon="-8.52500497363507747650146484375">
        <ele>295.399993896484375</ele>
        <time>2019-07-26T15:55:55.000Z</time>
      </trkpt>
      <trkpt lat="42.88728824816644191741943359375" lon="-8.52517646737396717071533203125">
        <ele>295</ele>
        <time>2019-07-26T15:55:57.000Z</time>
      </trkpt>
      <trkpt lat="42.8872601687908172607421875" lon="-8.5253435187041759490966796875">
        <ele>294.79998779296875</ele>
        <time>2019-07-26T15:55:59.000Z</time>
      </trkpt>
      <trkpt lat="42.88724097423255443572998046875" lon="-8.5254122503101825714111328125">
        <ele>294.600006103515625</ele>
        <time>2019-07-26T15:56:00.000Z</time>
      </trkpt>
      <trkpt lat="42.88722052238881587982177734375" lon="-8.5254850052297115325927734375">
        <ele>294.600006103515625</ele>
        <time>2019-07-26T15:56:01.000Z</time>
      </trkpt>
      <trkpt lat="42.8871394693851470947265625" lon="-8.525812067091464996337890625">
        <ele>294</ele>
        <time>2019-07-26T15:56:06.000Z</time>
      </trkpt>
      <trkpt lat="42.8870883397758007049560546875" lon="-8.52601264603435993194580078125">
        <ele>293.600006103515625</ele>
        <time>2019-07-26T15:56:09.000Z</time>
      </trkpt>
      <trkpt lat="42.887034527957439422607421875" lon="-8.52620542980730533599853515625">
        <ele>293.600006103515625</ele>
        <time>2019-07-26T15:56:12.000Z</time>
      </trkpt>
      <trkpt lat="42.88697409443557262420654296875" lon="-8.52639921940863132476806640625">
        <ele>293.399993896484375</ele>
        <time>2019-07-26T15:56:15.000Z</time>
      </trkpt>
      <trkpt lat="42.8869280777871608734130859375" lon="-8.5265337489545345306396484375">
        <ele>293.399993896484375</ele>
        <time>2019-07-26T15:56:17.000Z</time>
      </trkpt>
      <trkpt lat="42.88689698092639446258544921875" lon="-8.5265991277992725372314453125">
        <ele>293.399993896484375</ele>
        <time>2019-07-26T15:56:18.000Z</time>
      </trkpt>
      <trkpt lat="42.8867912851274013519287109375" lon="-8.526788391172885894775390625">
        <ele>293.399993896484375</ele>
        <time>2019-07-26T15:56:21.000Z</time>
      </trkpt>
      <trkpt lat="42.8866950608789920806884765625" lon="-8.52697840891778469085693359375">
        <ele>293.600006103515625</ele>
        <time>2019-07-26T15:56:24.000Z</time>
      </trkpt>
      <trkpt lat="42.886436395347118377685546875" lon="-8.52746355347335338592529296875">
        <ele>293.79998779296875</ele>
        <time>2019-07-26T15:56:32.000Z</time>
      </trkpt>
      <trkpt lat="42.88628627546131610870361328125" lon="-8.52778525091707706451416015625">
        <ele>293.600006103515625</ele>
        <time>2019-07-26T15:56:37.000Z</time>
      </trkpt>
      <trkpt lat="42.8862488083541393280029296875" lon="-8.52792355231940746307373046875">
        <ele>293.600006103515625</ele>
        <time>2019-07-26T15:56:39.000Z</time>
      </trkpt>
      <trkpt lat="42.88620865903794765472412109375" lon="-8.5282362811267375946044921875">
        <ele>293.399993896484375</ele>
        <time>2019-07-26T15:56:43.000Z</time>
      </trkpt>
      <trkpt lat="42.8861995227634906768798828125" lon="-8.5283211059868335723876953125">
        <ele>293.399993896484375</ele>
        <time>2019-07-26T15:56:44.000Z</time>
      </trkpt>
      <trkpt lat="42.8861871175467967987060546875" lon="-8.52850542403757572174072265625">
        <ele>293.20001220703125</ele>
        <time>2019-07-26T15:56:46.000Z</time>
      </trkpt>
      <trkpt lat="42.88616716861724853515625" lon="-8.52889652363955974578857421875">
        <ele>292.399993896484375</ele>
        <time>2019-07-26T15:56:50.000Z</time>
      </trkpt>
      <trkpt lat="42.88616037927567958831787109375" lon="-8.52899258024990558624267578125">
        <ele>292.20001220703125</ele>
        <time>2019-07-26T15:56:51.000Z</time>
      </trkpt>
      <trkpt lat="42.88614260964095592498779296875" lon="-8.5294181294739246368408203125">
        <ele>290.79998779296875</ele>
        <time>2019-07-26T15:56:55.000Z</time>
      </trkpt>
      <trkpt lat="42.88613037206232547760009765625" lon="-8.5295247472822666168212890625">
        <ele>290.600006103515625</ele>
        <time>2019-07-26T15:56:56.000Z</time>
      </trkpt>
      <trkpt lat="42.886078320443630218505859375" lon="-8.5298288427293300628662109375">
        <ele>289.600006103515625</ele>
        <time>2019-07-26T15:56:59.000Z</time>
      </trkpt>
      <trkpt lat="42.8860385902225971221923828125" lon="-8.53001232258975505828857421875">
        <ele>289</ele>
        <time>2019-07-26T15:57:01.000Z</time>
      </trkpt>
      <trkpt lat="42.88598955608904361724853515625" lon="-8.53019689209759235382080078125">
        <ele>288.399993896484375</ele>
        <time>2019-07-26T15:57:03.000Z</time>
      </trkpt>
      <trkpt lat="42.88593138568103313446044921875" lon="-8.53035883046686649322509765625">
        <ele>288</ele>
        <time>2019-07-26T15:57:05.000Z</time>
      </trkpt>
      <trkpt lat="42.88589467294514179229736328125" lon="-8.5304318368434906005859375">
        <ele>287.79998779296875</ele>
        <time>2019-07-26T15:57:06.000Z</time>
      </trkpt>
      <trkpt lat="42.885776571929454803466796875" lon="-8.5306378640234470367431640625">
        <ele>287.399993896484375</ele>
        <time>2019-07-26T15:57:09.000Z</time>
      </trkpt>
      <trkpt lat="42.885606586933135986328125" lon="-8.53086794726550579071044921875">
        <ele>286.600006103515625</ele>
        <time>2019-07-26T15:57:13.000Z</time>
      </trkpt>
      <trkpt lat="42.88552788086235523223876953125" lon="-8.53095545433461666107177734375">
        <ele>286.399993896484375</ele>
        <time>2019-07-26T15:57:15.000Z</time>
      </trkpt>
      <trkpt lat="42.885343730449676513671875" lon="-8.53119014762341976165771484375">
        <ele>286</ele>
        <time>2019-07-26T15:57:20.000Z</time>
      </trkpt>
      <trkpt lat="42.88526368327438831329345703125" lon="-8.53137203492224216461181640625">
        <ele>285.79998779296875</ele>
        <time>2019-07-26T15:57:23.000Z</time>
      </trkpt>
      <trkpt lat="42.88515605963766574859619140625" lon="-8.53161611594259738922119140625">
        <ele>285.79998779296875</ele>
        <time>2019-07-26T15:57:27.000Z</time>
      </trkpt>
      <trkpt lat="42.885114066302776336669921875" lon="-8.5317442752420902252197265625">
        <ele>285.79998779296875</ele>
        <time>2019-07-26T15:57:29.000Z</time>
      </trkpt>
      <trkpt lat="42.8850864060223102569580078125" lon="-8.531873859465122222900390625">
        <ele>285.600006103515625</ele>
        <time>2019-07-26T15:57:31.000Z</time>
      </trkpt>
      <trkpt lat="42.885082550346851348876953125" lon="-8.53194334544241428375244140625">
        <ele>285.399993896484375</ele>
        <time>2019-07-26T15:57:32.000Z</time>
      </trkpt>
      <trkpt lat="42.8850894235074520111083984375" lon="-8.53201559744775295257568359375">
        <ele>285.399993896484375</ele>
        <time>2019-07-26T15:57:33.000Z</time>
      </trkpt>
      <trkpt lat="42.88514055311679840087890625" lon="-8.5321576707065105438232421875">
        <ele>285</ele>
        <time>2019-07-26T15:57:35.000Z</time>
      </trkpt>
      <trkpt lat="42.885232083499431610107421875" lon="-8.5323898494243621826171875">
        <ele>284.600006103515625</ele>
        <time>2019-07-26T15:57:38.000Z</time>
      </trkpt>
      <trkpt lat="42.88526066578924655914306640625" lon="-8.53247576393187046051025390625">
        <ele>284.20001220703125</ele>
        <time>2019-07-26T15:57:39.000Z</time>
      </trkpt>
      <trkpt lat="42.88528941571712493896484375" lon="-8.532564528286457061767578125">
        <ele>284</ele>
        <time>2019-07-26T15:57:40.000Z</time>
      </trkpt>
      <trkpt lat="42.8853113763034343719482421875" lon="-8.53265815414488315582275390625">
        <ele>283.79998779296875</ele>
        <time>2019-07-26T15:57:41.000Z</time>
      </trkpt>
      <trkpt lat="42.8853271342813968658447265625" lon="-8.5328458249568939208984375">
        <ele>283.399993896484375</ele>
        <time>2019-07-26T15:57:43.000Z</time>
      </trkpt>
      <trkpt lat="42.88531296886503696441650390625" lon="-8.5329358465969562530517578125">
        <ele>283.20001220703125</ele>
        <time>2019-07-26T15:57:44.000Z</time>
      </trkpt>
      <trkpt lat="42.885244823992252349853515625" lon="-8.53308965452015399932861328125">
        <ele>282.600006103515625</ele>
        <time>2019-07-26T15:57:46.000Z</time>
      </trkpt>
      <trkpt lat="42.88515798747539520263671875" lon="-8.53318705223500728607177734375">
        <ele>282.399993896484375</ele>
        <time>2019-07-26T15:57:48.000Z</time>
      </trkpt>
      <trkpt lat="42.8851222805678844451904296875" lon="-8.53322125039994716644287109375">
        <ele>281.79998779296875</ele>
        <time>2019-07-26T15:57:49.000Z</time>
      </trkpt>
      <trkpt lat="42.88503167219460010528564453125" lon="-8.53332803584635257720947265625">
        <ele>280.79998779296875</ele>
        <time>2019-07-26T15:57:53.000Z</time>
      </trkpt>
      <trkpt lat="42.88502228446304798126220703125" lon="-8.53333557955920696258544921875">
        <ele>280.20001220703125</ele>
        <time>2019-07-26T15:57:55.000Z</time>
      </trkpt>
      <trkpt lat="42.88506419397890567779541015625" lon="-8.53340833447873592376708984375">
        <ele>280</ele>
        <time>2019-07-26T15:59:12.000Z</time>
      </trkpt>
      <trkpt lat="42.88512856699526309967041015625" lon="-8.53339358232915401458740234375">
        <ele>280</ele>
        <time>2019-07-26T15:59:14.000Z</time>
      </trkpt>
      <trkpt lat="42.8851921856403350830078125" lon="-8.53337564505636692047119140625">
        <ele>280.20001220703125</ele>
        <time>2019-07-26T15:59:16.000Z</time>
      </trkpt>
      <trkpt lat="42.88522261194884777069091796875" lon="-8.53336122818291187286376953125">
        <ele>280.20001220703125</ele>
        <time>2019-07-26T15:59:17.000Z</time>
      </trkpt>
      <trkpt lat="42.88528296165168285369873046875" lon="-8.5333264432847499847412109375">
        <ele>280.399993896484375</ele>
        <time>2019-07-26T15:59:19.000Z</time>
      </trkpt>
      <trkpt lat="42.885370887815952301025390625" lon="-8.533269278705120086669921875">
        <ele>281</ele>
        <time>2019-07-26T15:59:22.000Z</time>
      </trkpt>
      <trkpt lat="42.8854565508663654327392578125" lon="-8.5332159698009490966796875">
        <ele>281.79998779296875</ele>
        <time>2019-07-26T15:59:25.000Z</time>
      </trkpt>
      <trkpt lat="42.88557909429073333740234375" lon="-8.53314287960529327392578125">
        <ele>283</ele>
        <time>2019-07-26T15:59:29.000Z</time>
      </trkpt>
      <trkpt lat="42.8856744803488254547119140625" lon="-8.53308093734085559844970703125">
        <ele>283.79998779296875</ele>
        <time>2019-07-26T15:59:32.000Z</time>
      </trkpt>
      <trkpt lat="42.8857071697711944580078125" lon="-8.53306048549711704254150390625">
        <ele>284</ele>
        <time>2019-07-26T15:59:33.000Z</time>
      </trkpt>
      <trkpt lat="42.88583449088037014007568359375" lon="-8.53299275971949100494384765625">
        <ele>285</ele>
        <time>2019-07-26T15:59:37.000Z</time>
      </trkpt>
      <trkpt lat="42.88586650975048542022705078125" lon="-8.53297985158860683441162109375">
        <ele>285.20001220703125</ele>
        <time>2019-07-26T15:59:38.000Z</time>
      </trkpt>
      <trkpt lat="42.8859856165945529937744140625" lon="-8.53291623294353485107421875">
        <ele>286.20001220703125</ele>
        <time>2019-07-26T15:59:42.000Z</time>
      </trkpt>
      <trkpt lat="42.8861041367053985595703125" lon="-8.5328480042517185211181640625">
        <ele>287.20001220703125</ele>
        <time>2019-07-26T15:59:46.000Z</time>
      </trkpt>
      <trkpt lat="42.8862585313618183135986328125" lon="-8.53277130983769893646240234375">
        <ele>288.399993896484375</ele>
        <time>2019-07-26T15:59:51.000Z</time>
      </trkpt>
      <trkpt lat="42.8863527439534664154052734375" lon="-8.532730825245380401611328125">
        <ele>289</ele>
        <time>2019-07-26T15:59:54.000Z</time>
      </trkpt>
      <trkpt lat="42.886416278779506683349609375" lon="-8.53270324878394603729248046875">
        <ele>289.399993896484375</ele>
        <time>2019-07-26T15:59:56.000Z</time>
      </trkpt>
      <trkpt lat="42.886564470827579498291015625" lon="-8.532647006213665008544921875">
        <ele>290.600006103515625</ele>
        <time>2019-07-26T16:00:01.000Z</time>
      </trkpt>
      <trkpt lat="42.88660294376313686370849609375" lon="-8.53264323435723781585693359375">
        <ele>290.79998779296875</ele>
        <time>2019-07-26T16:00:02.000Z</time>
      </trkpt>
      <trkpt lat="42.88680830039083957672119140625" lon="-8.53262345306575298309326171875">
        <ele>291.600006103515625</ele>
        <time>2019-07-26T16:00:07.000Z</time>
      </trkpt>
      <trkpt lat="42.88688742555677890777587890625" lon="-8.53261674754321575164794921875">
        <ele>292</ele>
        <time>2019-07-26T16:00:09.000Z</time>
      </trkpt>
      <trkpt lat="42.88703762926161289215087890625" lon="-8.5325856506824493408203125">
        <ele>292.600006103515625</ele>
        <time>2019-07-26T16:00:13.000Z</time>
      </trkpt>
      <trkpt lat="42.887125723063945770263671875" lon="-8.532592356204986572265625">
        <ele>293</ele>
        <time>2019-07-26T16:00:16.000Z</time>
      </trkpt>
      <trkpt lat="42.887308783829212188720703125" lon="-8.53260216303169727325439453125">
        <ele>293.79998779296875</ele>
        <time>2019-07-26T16:00:21.000Z</time>
      </trkpt>
      <trkpt lat="42.8873870708048343658447265625" lon="-8.532600067555904388427734375">
        <ele>294</ele>
        <time>2019-07-26T16:00:23.000Z</time>
      </trkpt>
      <trkpt lat="42.88750433363020420074462890625" lon="-8.53259059600532054901123046875">
        <ele>294.79998779296875</ele>
        <time>2019-07-26T16:00:26.000Z</time>
      </trkpt>
      <trkpt lat="42.88766442798078060150146484375" lon="-8.53256796486675739288330078125">
        <ele>296</ele>
        <time>2019-07-26T16:00:30.000Z</time>
      </trkpt>
      <trkpt lat="42.887843213975429534912109375" lon="-8.53253024630248546600341796875">
        <ele>297.20001220703125</ele>
        <time>2019-07-26T16:00:35.000Z</time>
      </trkpt>
      <trkpt lat="42.88798729889094829559326171875" lon="-8.5325070284307003021240234375">
        <ele>298</ele>
        <time>2019-07-26T16:00:39.000Z</time>
      </trkpt>
      <trkpt lat="42.888053767383098602294921875" lon="-8.53249588049948215484619140625">
        <ele>298.399993896484375</ele>
        <time>2019-07-26T16:00:41.000Z</time>
      </trkpt>
      <trkpt lat="42.88821662776172161102294921875" lon="-8.5324721597135066986083984375">
        <ele>299.600006103515625</ele>
        <time>2019-07-26T16:00:46.000Z</time>
      </trkpt>
      <trkpt lat="42.88841041736304759979248046875" lon="-8.5324275679886341094970703125">
        <ele>300.600006103515625</ele>
        <time>2019-07-26T16:00:52.000Z</time>
      </trkpt>
      <trkpt lat="42.88846774958074092864990234375" lon="-8.532418347895145416259765625">
        <ele>301</ele>
        <time>2019-07-26T16:00:54.000Z</time>
      </trkpt>
      <trkpt lat="42.88861962966620922088623046875" lon="-8.5323776118457317352294921875">
        <ele>301.79998779296875</ele>
        <time>2019-07-26T16:00:59.000Z</time>
      </trkpt>
      <trkpt lat="42.88868241012096405029296875" lon="-8.53236696682870388031005859375">
        <ele>302.20001220703125</ele>
        <time>2019-07-26T16:01:01.000Z</time>
      </trkpt>
      <trkpt lat="42.88877251558005809783935546875" lon="-8.53233528323471546173095703125">
        <ele>303</ele>
        <time>2019-07-26T16:01:04.000Z</time>
      </trkpt>
      <trkpt lat="42.88886169902980327606201171875" lon="-8.53231114335358142852783203125">
        <ele>303.399993896484375</ele>
        <time>2019-07-26T16:01:07.000Z</time>
      </trkpt>
      <trkpt lat="42.88888684473931789398193359375" lon="-8.53230577893555164337158203125">
        <ele>303.600006103515625</ele>
        <time>2019-07-26T16:01:08.000Z</time>
      </trkpt>
      <trkpt lat="42.888956330716609954833984375" lon="-8.5322857461869716644287109375">
        <ele>304</ele>
        <time>2019-07-26T16:01:11.000Z</time>
      </trkpt>
      <trkpt lat="42.8890034370124340057373046875" lon="-8.532237298786640167236328125">
        <ele>304.600006103515625</ele>
        <time>2019-07-26T16:01:14.000Z</time>
      </trkpt>
      <trkpt lat="42.8890101425349712371826171875" lon="-8.5322156734764575958251953125">
        <ele>304.79998779296875</ele>
        <time>2019-07-26T16:01:15.000Z</time>
      </trkpt>
      <trkpt lat="42.889015339314937591552734375" lon="-8.53215440176427364349365234375">
        <ele>305.20001220703125</ele>
        <time>2019-07-26T16:01:18.000Z</time>
      </trkpt>
      <trkpt lat="42.88901726715266704559326171875" lon="-8.53214015252888202667236328125">
        <ele>305.399993896484375</ele>
        <time>2019-07-26T16:01:20.000Z</time>
      </trkpt>
      <trkpt lat="42.88901609368622303009033203125" lon="-8.53213881142437458038330078125">
        <ele>305.600006103515625</ele>
        <time>2019-07-26T16:01:21.000Z</time>
      </trkpt>
      <trkpt lat="42.88902229629456996917724609375" lon="-8.532216846942901611328125">
        <ele>306.399993896484375</ele>
        <time>2019-07-26T16:01:31.000Z</time>
      </trkpt>
      <trkpt lat="42.88904450833797454833984375" lon="-8.53227728046476840972900390625">
        <ele>306.399993896484375</ele>
        <time>2019-07-26T16:01:33.000Z</time>
      </trkpt>
      <trkpt lat="42.88914986886084079742431640625" lon="-8.532268814742565155029296875">
        <ele>306.20001220703125</ele>
        <time>2019-07-26T16:01:37.000Z</time>
      </trkpt>
      <trkpt lat="42.8891752660274505615234375" lon="-8.53225247003138065338134765625">
        <ele>306.20001220703125</ele>
        <time>2019-07-26T16:01:38.000Z</time>
      </trkpt>
      <trkpt lat="42.88925774395465850830078125" lon="-8.5321305133402347564697265625">
        <ele>306.20001220703125</ele>
        <time>2019-07-26T16:01:43.000Z</time>
      </trkpt>
      <trkpt lat="42.88930476643145084381103515625" lon="-8.5320222191512584686279296875">
        <ele>306.20001220703125</ele>
        <time>2019-07-26T16:01:46.000Z</time>
      </trkpt>
      <trkpt lat="42.88938037119805812835693359375" lon="-8.531931526958942413330078125">
        <ele>306.600006103515625</ele>
        <time>2019-07-26T16:01:49.000Z</time>
      </trkpt>
      <trkpt lat="42.88952152244746685028076171875" lon="-8.531847707927227020263671875">
        <ele>307.20001220703125</ele>
        <time>2019-07-26T16:01:53.000Z</time>
      </trkpt>
      <trkpt lat="42.88956292904913425445556640625" lon="-8.53184712119400501251220703125">
        <ele>307.399993896484375</ele>
        <time>2019-07-26T16:01:54.000Z</time>
      </trkpt>
      <trkpt lat="42.88972553797066211700439453125" lon="-8.5319417528808116912841796875">
        <ele>309.20001220703125</ele>
        <time>2019-07-26T16:01:58.000Z</time>
      </trkpt>
      <trkpt lat="42.8899234347045421600341796875" lon="-8.53200905956327915191650390625">
        <ele>309.79998779296875</ele>
        <time>2019-07-26T16:02:02.000Z</time>
      </trkpt>
      <trkpt lat="42.8900347463786602020263671875" lon="-8.53204007260501384735107421875">
        <ele>310</ele>
        <time>2019-07-26T16:02:04.000Z</time>
      </trkpt>
      <trkpt lat="42.8901980258524417877197265625" lon="-8.53211634792387485504150390625">
        <ele>310.20001220703125</ele>
        <time>2019-07-26T16:02:07.000Z</time>
      </trkpt>
      <trkpt lat="42.89025192148983478546142578125" lon="-8.53214149363338947296142578125">
        <ele>310.20001220703125</ele>
        <time>2019-07-26T16:02:08.000Z</time>
      </trkpt>
      <trkpt lat="42.89057797752320766448974609375" lon="-8.5323145799338817596435546875">
        <ele>310.600006103515625</ele>
        <time>2019-07-26T16:02:14.000Z</time>
      </trkpt>
      <trkpt lat="42.89103294722735881805419921875" lon="-8.53255539201200008392333984375">
        <ele>311.20001220703125</ele>
        <time>2019-07-26T16:02:23.000Z</time>
      </trkpt>
      <trkpt lat="42.89107351563870906829833984375" lon="-8.532580621540546417236328125">
        <ele>311.399993896484375</ele>
        <time>2019-07-26T16:02:24.000Z</time>
      </trkpt>
      <trkpt lat="42.89126646704971790313720703125" lon="-8.53266620077192783355712890625">
        <ele>311.79998779296875</ele>
        <time>2019-07-26T16:02:29.000Z</time>
      </trkpt>
      <trkpt lat="42.8913624398410320281982421875" lon="-8.5326917655766010284423828125">
        <ele>311.79998779296875</ele>
        <time>2019-07-26T16:02:32.000Z</time>
      </trkpt>
      <trkpt lat="42.89142723195254802703857421875" lon="-8.53274281136691570281982421875">
        <ele>311.79998779296875</ele>
        <time>2019-07-26T16:02:34.000Z</time>
      </trkpt>
      <trkpt lat="42.891625799238681793212890625" lon="-8.53298722766339778900146484375">
        <ele>311.600006103515625</ele>
        <time>2019-07-26T16:02:40.000Z</time>
      </trkpt>
      <trkpt lat="42.8917057625949382781982421875" lon="-8.533052019774913787841796875">
        <ele>311.600006103515625</ele>
        <time>2019-07-26T16:02:42.000Z</time>
      </trkpt>
      <trkpt lat="42.891782037913799285888671875" lon="-8.5330934263765811920166015625">
        <ele>311.600006103515625</ele>
        <time>2019-07-26T16:02:44.000Z</time>
      </trkpt>
      <trkpt lat="42.8918184153735637664794921875" lon="-8.5331068374216556549072265625">
        <ele>311.600006103515625</ele>
        <time>2019-07-26T16:02:45.000Z</time>
      </trkpt>
      <trkpt lat="42.89187616668641567230224609375" lon="-8.53308697231113910675048828125">
        <ele>311.399993896484375</ele>
        <time>2019-07-26T16:02:47.000Z</time>
      </trkpt>
      <trkpt lat="42.89190064184367656707763671875" lon="-8.5330545343458652496337890625">
        <ele>311.399993896484375</ele>
        <time>2019-07-26T16:02:48.000Z</time>
      </trkpt>
      <trkpt lat="42.891937606036663055419921875" lon="-8.53296761400997638702392578125">
        <ele>311.399993896484375</ele>
        <time>2019-07-26T16:02:50.000Z</time>
      </trkpt>
      <trkpt lat="42.8919632546603679656982421875" lon="-8.53286418132483959197998046875">
        <ele>311.399993896484375</ele>
        <time>2019-07-26T16:02:52.000Z</time>
      </trkpt>
      <trkpt lat="42.89197490550577640533447265625" lon="-8.53281028568744659423828125">
        <ele>311.399993896484375</ele>
        <time>2019-07-26T16:02:53.000Z</time>
      </trkpt>
      <trkpt lat="42.8920350037515163421630859375" lon="-8.53258632123470306396484375">
        <ele>311.600006103515625</ele>
        <time>2019-07-26T16:02:58.000Z</time>
      </trkpt>
      <trkpt lat="42.8921007178723812103271484375" lon="-8.53250292129814624786376953125">
        <ele>312.399993896484375</ele>
        <time>2019-07-26T16:03:02.000Z</time>
      </trkpt>
      <trkpt lat="42.89211052469909191131591796875" lon="-8.53252119384706020355224609375">
        <ele>313.20001220703125</ele>
        <time>2019-07-26T16:03:06.000Z</time>
      </trkpt>
      <trkpt lat="42.8921124525368213653564453125" lon="-8.53252907283604145050048828125">
        <ele>313.20001220703125</ele>
        <time>2019-07-26T16:03:07.000Z</time>
      </trkpt>
      <trkpt lat="42.89209644310176372528076171875" lon="-8.532578945159912109375">
        <ele>313.399993896484375</ele>
        <time>2019-07-26T16:03:11.000Z</time>
      </trkpt>
      <trkpt lat="42.8920909948647022247314453125" lon="-8.5325703956186771392822265625">
        <ele>313.399993896484375</ele>
        <time>2019-07-26T16:03:12.000Z</time>
      </trkpt>
      <trkpt lat="42.89209124632179737091064453125" lon="-8.53254248388111591339111328125">
        <ele>313.399993896484375</ele>
        <time>2019-07-26T16:03:15.000Z</time>
      </trkpt>
      <trkpt lat="42.89208881556987762451171875" lon="-8.53254164569079875946044921875">
        <ele>313.399993896484375</ele>
        <time>2019-07-26T16:03:16.000Z</time>
      </trkpt>
      <trkpt lat="42.89211831986904144287109375" lon="-8.53273023851215839385986328125">
        <ele>313.20001220703125</ele>
        <time>2019-07-26T16:04:00.000Z</time>
      </trkpt>
      <trkpt lat="42.89210968650877475738525390625" lon="-8.53275270201265811920166015625">
        <ele>313.399993896484375</ele>
        <time>2019-07-26T16:04:01.000Z</time>
      </trkpt>
      <trkpt lat="42.89210247807204723358154296875" lon="-8.53278346359729766845703125">
        <ele>313.399993896484375</ele>
        <time>2019-07-26T16:04:02.000Z</time>
      </trkpt>
      <trkpt lat="42.89209258742630481719970703125" lon="-8.53282948024570941925048828125">
        <ele>313.399993896484375</ele>
        <time>2019-07-26T16:04:04.000Z</time>
      </trkpt>
      <trkpt lat="42.89209074340760707855224609375" lon="-8.532853536307811737060546875">
        <ele>313.399993896484375</ele>
        <time>2019-07-26T16:04:05.000Z</time>
      </trkpt>
      <trkpt lat="42.89210046641528606414794921875" lon="-8.53286971338093280792236328125">
        <ele>313.399993896484375</ele>
        <time>2019-07-26T16:04:06.000Z</time>
      </trkpt>
      <trkpt lat="42.892117984592914581298828125" lon="-8.532875664532184600830078125">
        <ele>313.399993896484375</ele>
        <time>2019-07-26T16:04:07.000Z</time>
      </trkpt>
      <trkpt lat="42.89216131903231143951416015625" lon="-8.5328761674463748931884765625">
        <ele>313.399993896484375</ele>
        <time>2019-07-26T16:04:10.000Z</time>
      </trkpt>
      <trkpt lat="42.89217858575284481048583984375" lon="-8.53288614191114902496337890625">
        <ele>313.20001220703125</ele>
        <time>2019-07-26T16:04:12.000Z</time>
      </trkpt>
      <trkpt lat="42.89218730293214321136474609375" lon="-8.5328982956707477569580078125">
        <ele>312.79998779296875</ele>
        <time>2019-07-26T16:04:14.000Z</time>
      </trkpt>
      <trkpt lat="42.8921164758503437042236328125" lon="-8.5326511971652507781982421875">
        <ele>301.600006103515625</ele>
        <time>2019-07-26T16:13:48.000Z</time>
      </trkpt>
      <trkpt lat="42.89211102761328220367431640625" lon="-8.5326713137328624725341796875">
        <ele>301.600006103515625</ele>
        <time>2019-07-26T16:13:49.000Z</time>
      </trkpt>
      <trkpt lat="42.8920745663344860076904296875" lon="-8.5326706431806087493896484375">
        <ele>301.79998779296875</ele>
        <time>2019-07-26T16:15:10.000Z</time>
      </trkpt>
      <trkpt lat="42.8920578025281429290771484375" lon="-8.53268967010080814361572265625">
        <ele>301.79998779296875</ele>
        <time>2019-07-26T16:15:12.000Z</time>
      </trkpt>
      <trkpt lat="42.89200876839458942413330078125" lon="-8.53272520937025547027587890625">
        <ele>301.600006103515625</ele>
        <time>2019-07-26T16:15:15.000Z</time>
      </trkpt>
      <trkpt lat="42.89200390689074993133544921875" lon="-8.53275471366941928863525390625">
        <ele>301.600006103515625</ele>
        <time>2019-07-26T16:15:16.000Z</time>
      </trkpt>
      <trkpt lat="42.8920034877955913543701171875" lon="-8.5328372754156589508056640625">
        <ele>301.600006103515625</ele>
        <time>2019-07-26T16:15:18.000Z</time>
      </trkpt>
      <trkpt lat="42.8919766657054424285888671875" lon="-8.5329697094857692718505859375">
        <ele>301.600006103515625</ele>
        <time>2019-07-26T16:15:21.000Z</time>
      </trkpt>
      <trkpt lat="42.89184699766337871551513671875" lon="-8.533038608729839324951171875">
        <ele>301.399993896484375</ele>
        <time>2019-07-26T16:15:25.000Z</time>
      </trkpt>
      <trkpt lat="42.89178463630378246307373046875" lon="-8.5330246947705745697021484375">
        <ele>301.20001220703125</ele>
        <time>2019-07-26T16:15:27.000Z</time>
      </trkpt>
      <trkpt lat="42.89175060577690601348876953125" lon="-8.533015139400959014892578125">
        <ele>301.20001220703125</ele>
        <time>2019-07-26T16:15:28.000Z</time>
      </trkpt>
      <trkpt lat="42.8916789405047893524169921875" lon="-8.532980270683765411376953125">
        <ele>300.79998779296875</ele>
        <time>2019-07-26T16:15:30.000Z</time>
      </trkpt>
      <trkpt lat="42.89164449088275432586669921875" lon="-8.5329562984406948089599609375">
        <ele>300.600006103515625</ele>
        <time>2019-07-26T16:15:31.000Z</time>
      </trkpt>
      <trkpt lat="42.89154089055955410003662109375" lon="-8.53284322656691074371337890625">
        <ele>300.20001220703125</ele>
        <time>2019-07-26T16:15:35.000Z</time>
      </trkpt>
      <trkpt lat="42.8915495239198207855224609375" lon="-8.53270224295556545257568359375">
        <ele>300.20001220703125</ele>
        <time>2019-07-26T16:15:39.000Z</time>
      </trkpt>
      <trkpt lat="42.89161808788776397705078125" lon="-8.53266083635389804840087890625">
        <ele>300.399993896484375</ele>
        <time>2019-07-26T16:15:43.000Z</time>
      </trkpt>
      <trkpt lat="42.89162822999060153961181640625" lon="-8.532662428915500640869140625">
        <ele>300.399993896484375</ele>
        <time>2019-07-26T16:15:44.000Z</time>
      </trkpt>
      <trkpt lat="42.8916697204113006591796875" lon="-8.53267424739897251129150390625">
        <ele>300.600006103515625</ele>
        <time>2019-07-26T16:15:48.000Z</time>
      </trkpt>
      <trkpt lat="42.89169964380562305450439453125" lon="-8.53264130651950836181640625">
        <ele>300.600006103515625</ele>
        <time>2019-07-26T16:15:51.000Z</time>
      </trkpt>
      <trkpt lat="42.8916903398931026458740234375" lon="-8.53261180222034454345703125">
        <ele>300.79998779296875</ele>
        <time>2019-07-26T16:15:52.000Z</time>
      </trkpt>
      <trkpt lat="42.89159285835921764373779296875" lon="-8.53255840949714183807373046875">
        <ele>300.79998779296875</ele>
        <time>2019-07-26T16:15:56.000Z</time>
      </trkpt>
      <trkpt lat="42.8914744220674037933349609375" lon="-8.53257249109447002410888671875">
        <ele>301</ele>
        <time>2019-07-26T16:16:00.000Z</time>
      </trkpt>
      <trkpt lat="42.89139253087341785430908203125" lon="-8.532619513571262359619140625">
        <ele>301.20001220703125</ele>
        <time>2019-07-26T16:16:03.000Z</time>
      </trkpt>
      <trkpt lat="42.89133938960731029510498046875" lon="-8.53265765123069286346435546875">
        <ele>301.20001220703125</ele>
        <time>2019-07-26T16:16:05.000Z</time>
      </trkpt>
      <trkpt lat="42.8912286646664142608642578125" lon="-8.532646000385284423828125">
        <ele>301.20001220703125</ele>
        <time>2019-07-26T16:16:09.000Z</time>
      </trkpt>
      <trkpt lat="42.89117510430514812469482421875" lon="-8.5326169990003108978271484375">
        <ele>300.79998779296875</ele>
        <time>2019-07-26T16:16:12.000Z</time>
      </trkpt>
      <trkpt lat="42.89112984202802181243896484375" lon="-8.5325931943953037261962890625">
        <ele>300.600006103515625</ele>
        <time>2019-07-26T16:16:14.000Z</time>
      </trkpt>
      <trkpt lat="42.8908873535692691802978515625" lon="-8.53243167512118816375732421875">
        <ele>300.20001220703125</ele>
        <time>2019-07-26T16:16:22.000Z</time>
      </trkpt>
      <trkpt lat="42.89071493782103061676025390625" lon="-8.5323447547852993011474609375">
        <ele>300</ele>
        <time>2019-07-26T16:16:26.000Z</time>
      </trkpt>
      <trkpt lat="42.89058099500834941864013671875" lon="-8.5322837345302104949951171875">
        <ele>300</ele>
        <time>2019-07-26T16:16:29.000Z</time>
      </trkpt>
      <trkpt lat="42.89043389260768890380859375" lon="-8.53217401541769504547119140625">
        <ele>300</ele>
        <time>2019-07-26T16:16:33.000Z</time>
      </trkpt>
      <trkpt lat="42.89022040553390979766845703125" lon="-8.53208474814891815185546875">
        <ele>299.79998779296875</ele>
        <time>2019-07-26T16:16:38.000Z</time>
      </trkpt>
      <trkpt lat="42.890127785503864288330078125" lon="-8.5320544056594371795654296875">
        <ele>299.600006103515625</ele>
        <time>2019-07-26T16:16:40.000Z</time>
      </trkpt>
      <trkpt lat="42.89003768004477024078369140625" lon="-8.53202062658965587615966796875">
        <ele>299.600006103515625</ele>
        <time>2019-07-26T16:16:42.000Z</time>
      </trkpt>
      <trkpt lat="42.8899173997342586517333984375" lon="-8.5319687426090240478515625">
        <ele>299.399993896484375</ele>
        <time>2019-07-26T16:16:45.000Z</time>
      </trkpt>
      <trkpt lat="42.8898959420621395111083984375" lon="-8.531937897205352783203125">
        <ele>299.399993896484375</ele>
        <time>2019-07-26T16:16:46.000Z</time>
      </trkpt>
      <trkpt lat="42.88990424014627933502197265625" lon="-8.53188165463507175445556640625">
        <ele>299.399993896484375</ele>
        <time>2019-07-26T16:16:49.000Z</time>
      </trkpt>
      <trkpt lat="42.8899106942117214202880859375" lon="-8.5318817384541034698486328125">
        <ele>299.399993896484375</ele>
        <time>2019-07-26T16:16:51.000Z</time>
      </trkpt>
      <trkpt lat="42.889865934848785400390625" lon="-8.5319839976727962493896484375">
        <ele>299</ele>
        <time>2019-07-26T16:17:28.000Z</time>
      </trkpt>
      <trkpt lat="42.8898580558598041534423828125" lon="-8.53201710619032382965087890625">
        <ele>298.79998779296875</ele>
        <time>2019-07-26T16:17:29.000Z</time>
      </trkpt>
      <trkpt lat="42.88984456099569797515869140625" lon="-8.53209237568080425262451171875">
        <ele>299.20001220703125</ele>
        <time>2019-07-26T16:17:31.000Z</time>
      </trkpt>
      <trkpt lat="42.88980466313660144805908203125" lon="-8.53224190883338451385498046875">
        <ele>299</ele>
        <time>2019-07-26T16:17:35.000Z</time>
      </trkpt>
      <trkpt lat="42.88974045775830745697021484375" lon="-8.53229974396526813507080078125">
        <ele>299</ele>
        <time>2019-07-26T16:17:38.000Z</time>
      </trkpt>
      <trkpt lat="42.8896904177963733673095703125" lon="-8.5323202796280384063720703125">
        <ele>299</ele>
        <time>2019-07-26T16:17:39.000Z</time>
      </trkpt>
      <trkpt lat="42.88956024684011936187744140625" lon="-8.53237576782703399658203125">
        <ele>299</ele>
        <time>2019-07-26T16:17:41.000Z</time>
      </trkpt>
      <trkpt lat="42.8894872404634952545166015625" lon="-8.53239186108112335205078125">
        <ele>299</ele>
        <time>2019-07-26T16:17:42.000Z</time>
      </trkpt>
      <trkpt lat="42.88941004313528537750244140625" lon="-8.53239043615758419036865234375">
        <ele>299</ele>
        <time>2019-07-26T16:17:43.000Z</time>
      </trkpt>
      <trkpt lat="42.88924760185182094573974609375" lon="-8.53239856660366058349609375">
        <ele>299</ele>
        <time>2019-07-26T16:17:45.000Z</time>
      </trkpt>
      <trkpt lat="42.88916395045816898345947265625" lon="-8.5324198566377162933349609375">
        <ele>299</ele>
        <time>2019-07-26T16:17:46.000Z</time>
      </trkpt>
      <trkpt lat="42.889077030122280120849609375" lon="-8.532441817224025726318359375">
        <ele>298.79998779296875</ele>
        <time>2019-07-26T16:17:47.000Z</time>
      </trkpt>
      <trkpt lat="42.88889623247087001800537109375" lon="-8.5324775241315364837646484375">
        <ele>298.600006103515625</ele>
        <time>2019-07-26T16:17:49.000Z</time>
      </trkpt>
      <trkpt lat="42.8886185400187969207763671875" lon="-8.53251683525741100311279296875">
        <ele>298.20001220703125</ele>
        <time>2019-07-26T16:17:52.000Z</time>
      </trkpt>
      <trkpt lat="42.88852508179843425750732421875" lon="-8.53252856992185115814208984375">
        <ele>298</ele>
        <time>2019-07-26T16:17:53.000Z</time>
      </trkpt>
      <trkpt lat="42.88824579678475856781005859375" lon="-8.5325677134096622467041015625">
        <ele>296.79998779296875</ele>
        <time>2019-07-26T16:17:56.000Z</time>
      </trkpt>
      <trkpt lat="42.88779267109930515289306640625" lon="-8.532673157751560211181640625">
        <ele>295.20001220703125</ele>
        <time>2019-07-26T16:18:01.000Z</time>
      </trkpt>
      <trkpt lat="42.8876093588769435882568359375" lon="-8.53270777501165866851806640625">
        <ele>294</ele>
        <time>2019-07-26T16:18:03.000Z</time>
      </trkpt>
      <trkpt lat="42.88733057677745819091796875" lon="-8.53274197317659854888916015625">
        <ele>292.600006103515625</ele>
        <time>2019-07-26T16:18:06.000Z</time>
      </trkpt>
      <trkpt lat="42.8871460072696208953857421875" lon="-8.53275789879262447357177734375">
        <ele>291.20001220703125</ele>
        <time>2019-07-26T16:18:08.000Z</time>
      </trkpt>
      <trkpt lat="42.88696856237947940826416015625" lon="-8.53277281858026981353759765625">
        <ele>290.600006103515625</ele>
        <time>2019-07-26T16:18:10.000Z</time>
      </trkpt>
      <trkpt lat="42.88679623045027256011962890625" lon="-8.5327906720340251922607421875">
        <ele>290</ele>
        <time>2019-07-26T16:18:12.000Z</time>
      </trkpt>
      <trkpt lat="42.886711657047271728515625" lon="-8.5327997244894504547119140625">
        <ele>289.600006103515625</ele>
        <time>2019-07-26T16:18:13.000Z</time>
      </trkpt>
      <trkpt lat="42.88662842474877834320068359375" lon="-8.532809279859066009521484375">
        <ele>289.20001220703125</ele>
        <time>2019-07-26T16:18:14.000Z</time>
      </trkpt>
      <trkpt lat="42.886546365916728973388671875" lon="-8.53282210417091846466064453125">
        <ele>288.600006103515625</ele>
        <time>2019-07-26T16:18:15.000Z</time>
      </trkpt>
      <trkpt lat="42.8863909654319286346435546875" lon="-8.53286351077258586883544921875">
        <ele>287.600006103515625</ele>
        <time>2019-07-26T16:18:17.000Z</time>
      </trkpt>
      <trkpt lat="42.886315025389194488525390625" lon="-8.53289435617625713348388671875">
        <ele>287</ele>
        <time>2019-07-26T16:18:18.000Z</time>
      </trkpt>
      <trkpt lat="42.88623816333711147308349609375" lon="-8.53293274529278278350830078125">
        <ele>286.399993896484375</ele>
        <time>2019-07-26T16:18:19.000Z</time>
      </trkpt>
      <trkpt lat="42.886159457266330718994140625" lon="-8.532976247370243072509765625">
        <ele>285.600006103515625</ele>
        <time>2019-07-26T16:18:20.000Z</time>
      </trkpt>
      <trkpt lat="42.8859956748783588409423828125" lon="-8.53306869976222515106201171875">
        <ele>284</ele>
        <time>2019-07-26T16:18:22.000Z</time>
      </trkpt>
      <trkpt lat="42.88583063520491123199462890625" lon="-8.53316375054419040679931640625">
        <ele>282</ele>
        <time>2019-07-26T16:18:24.000Z</time>
      </trkpt>
      <trkpt lat="42.88574832491576671600341796875" lon="-8.5332094319164752960205078125">
        <ele>281.600006103515625</ele>
        <time>2019-07-26T16:18:25.000Z</time>
      </trkpt>
      <trkpt lat="42.8856671042740345001220703125" lon="-8.5332557000219821929931640625">
        <ele>281</ele>
        <time>2019-07-26T16:18:26.000Z</time>
      </trkpt>
      <trkpt lat="42.8854226879775524139404296875" lon="-8.533400706946849822998046875">
        <ele>279.79998779296875</ele>
        <time>2019-07-26T16:18:29.000Z</time>
      </trkpt>
      <trkpt lat="42.8852516971528530120849609375" lon="-8.53349902667105197906494140625">
        <ele>278.600006103515625</ele>
        <time>2019-07-26T16:18:31.000Z</time>
      </trkpt>
      <trkpt lat="42.88516108877956867218017578125" lon="-8.533536829054355621337890625">
        <ele>278.20001220703125</ele>
        <time>2019-07-26T16:18:32.000Z</time>
      </trkpt>
      <trkpt lat="42.88496914319694042205810546875" lon="-8.53356876410543918609619140625">
        <ele>277.399993896484375</ele>
        <time>2019-07-26T16:18:34.000Z</time>
      </trkpt>
      <trkpt lat="42.8848703205585479736328125" lon="-8.533564992249011993408203125">
        <ele>277</ele>
        <time>2019-07-26T16:18:35.000Z</time>
      </trkpt>
      <trkpt lat="42.8847705759108066558837890625" lon="-8.53355501778423786163330078125">
        <ele>276.20001220703125</ele>
        <time>2019-07-26T16:18:36.000Z</time>
      </trkpt>
      <trkpt lat="42.88457871414721012115478515625" lon="-8.533532135188579559326171875">
        <ele>275</ele>
        <time>2019-07-26T16:18:38.000Z</time>
      </trkpt>
      <trkpt lat="42.88450528867542743682861328125" lon="-8.53352668695151805877685546875">
        <ele>274.600006103515625</ele>
        <time>2019-07-26T16:18:39.000Z</time>
      </trkpt>
      <trkpt lat="42.8844560869038105010986328125" lon="-8.5335297882556915283203125">
        <ele>274.20001220703125</ele>
        <time>2019-07-26T16:18:40.000Z</time>
      </trkpt>
      <trkpt lat="42.88442700169980525970458984375" lon="-8.5335333086550235748291015625">
        <ele>273.79998779296875</ele>
        <time>2019-07-26T16:18:41.000Z</time>
      </trkpt>
      <trkpt lat="42.88439163006842136383056640625" lon="-8.5335366614162921905517578125">
        <ele>273.20001220703125</ele>
        <time>2019-07-26T16:18:43.000Z</time>
      </trkpt>
      <trkpt lat="42.884378470480442047119140625" lon="-8.533535487949848175048828125">
        <ele>272.79998779296875</ele>
        <time>2019-07-26T16:18:44.000Z</time>
      </trkpt>
      <trkpt lat="42.8843665681779384613037109375" lon="-8.53353188373148441314697265625">
        <ele>271</ele>
        <time>2019-07-26T16:18:47.000Z</time>
      </trkpt>
      <trkpt lat="42.88433178327977657318115234375" lon="-8.5335386730730533599853515625">
        <ele>267.79998779296875</ele>
        <time>2019-07-26T16:19:52.000Z</time>
      </trkpt>
      <trkpt lat="42.88425751961767673492431640625" lon="-8.5335403494536876678466796875">
        <ele>267.79998779296875</ele>
        <time>2019-07-26T16:19:54.000Z</time>
      </trkpt>
      <trkpt lat="42.88421091623604297637939453125" lon="-8.53354898281395435333251953125">
        <ele>267.600006103515625</ele>
        <time>2019-07-26T16:19:55.000Z</time>
      </trkpt>
      <trkpt lat="42.8841130994260311126708984375" lon="-8.5335691832005977630615234375">
        <ele>267.600006103515625</ele>
        <time>2019-07-26T16:19:57.000Z</time>
      </trkpt>
      <trkpt lat="42.88388335146009922027587890625" lon="-8.53356138803064823150634765625">
        <ele>267.600006103515625</ele>
        <time>2019-07-26T16:20:01.000Z</time>
      </trkpt>
      <trkpt lat="42.88344816304743289947509765625" lon="-8.5335299558937549591064453125">
        <ele>266.79998779296875</ele>
        <time>2019-07-26T16:20:07.000Z</time>
      </trkpt>
      <trkpt lat="42.8833634220063686370849609375" lon="-8.53351796977221965789794921875">
        <ele>266.600006103515625</ele>
        <time>2019-07-26T16:20:08.000Z</time>
      </trkpt>
      <trkpt lat="42.8830281458795070648193359375" lon="-8.53349634446203708648681640625">
        <ele>265.79998779296875</ele>
        <time>2019-07-26T16:20:12.000Z</time>
      </trkpt>
      <trkpt lat="42.88294105790555477142333984375" lon="-8.5334863699972629547119140625">
        <ele>265.600006103515625</ele>
        <time>2019-07-26T16:20:13.000Z</time>
      </trkpt>
      <trkpt lat="42.88267853669822216033935546875" lon="-8.53346566669642925262451171875">
        <ele>264.20001220703125</ele>
        <time>2019-07-26T16:20:16.000Z</time>
      </trkpt>
      <trkpt lat="42.88241601549088954925537109375" lon="-8.53345267474651336669921875">
        <ele>263</ele>
        <time>2019-07-26T16:20:19.000Z</time>
      </trkpt>
      <trkpt lat="42.88213958032429218292236328125" lon="-8.53342694230377674102783203125">
        <ele>262</ele>
        <time>2019-07-26T16:20:22.000Z</time>
      </trkpt>
      <trkpt lat="42.88195786066353321075439453125" lon="-8.53340900503098964691162109375">
        <ele>261</ele>
        <time>2019-07-26T16:20:24.000Z</time>
      </trkpt>
      <trkpt lat="42.88177848793566226959228515625" lon="-8.533391989767551422119140625">
        <ele>260.20001220703125</ele>
        <time>2019-07-26T16:20:26.000Z</time>
      </trkpt>
      <trkpt lat="42.88159442134201526641845703125" lon="-8.5333728790283203125">
        <ele>259.600006103515625</ele>
        <time>2019-07-26T16:20:28.000Z</time>
      </trkpt>
      <trkpt lat="42.881407923996448516845703125" lon="-8.53335636667907238006591796875">
        <ele>258.399993896484375</ele>
        <time>2019-07-26T16:20:30.000Z</time>
      </trkpt>
      <trkpt lat="42.881228886544704437255859375" lon="-8.5333405248820781707763671875">
        <ele>257.600006103515625</ele>
        <time>2019-07-26T16:20:32.000Z</time>
      </trkpt>
      <trkpt lat="42.88114028982818126678466796875" lon="-8.53332619182765483856201171875">
        <ele>257</ele>
        <time>2019-07-26T16:20:33.000Z</time>
      </trkpt>
      <trkpt lat="42.880878187716007232666015625" lon="-8.53329869918525218963623046875">
        <ele>256</ele>
        <time>2019-07-26T16:20:36.000Z</time>
      </trkpt>
      <trkpt lat="42.88066034205257892608642578125" lon="-8.53328612633049488067626953125">
        <ele>255</ele>
        <time>2019-07-26T16:20:39.000Z</time>
      </trkpt>
      <trkpt lat="42.8805761039257049560546875" lon="-8.5332717932760715484619140625">
        <ele>253.8000030517578125</ele>
        <time>2019-07-26T16:20:41.000Z</time>
      </trkpt>
      <trkpt lat="42.88050343282520771026611328125" lon="-8.53327439166605472564697265625">
        <ele>253</ele>
        <time>2019-07-26T16:20:43.000Z</time>
      </trkpt>
      <trkpt lat="42.8804663009941577911376953125" lon="-8.53326148353517055511474609375">
        <ele>252.600006103515625</ele>
        <time>2019-07-26T16:20:44.000Z</time>
      </trkpt>
      <trkpt lat="42.880385331809520721435546875" lon="-8.53322527371346950531005859375">
        <ele>251.600006103515625</ele>
        <time>2019-07-26T16:20:46.000Z</time>
      </trkpt>
      <trkpt lat="42.880300171673297882080078125" lon="-8.533207587897777557373046875">
        <ele>250</ele>
        <time>2019-07-26T16:20:48.000Z</time>
      </trkpt>
      <trkpt lat="42.880263626575469970703125" lon="-8.5332094319164752960205078125">
        <ele>249.600006103515625</ele>
        <time>2019-07-26T16:20:49.000Z</time>
      </trkpt>
      <trkpt lat="42.8802141733467578887939453125" lon="-8.53320532478392124176025390625">
        <ele>249</ele>
        <time>2019-07-26T16:20:51.000Z</time>
      </trkpt>
      <trkpt lat="42.88020797073841094970703125" lon="-8.53320297785103321075439453125">
        <ele>248.8000030517578125</ele>
        <time>2019-07-26T16:20:52.000Z</time>
      </trkpt>
      <trkpt lat="42.88020931184291839599609375" lon="-8.53320649825036525726318359375">
        <ele>248.600006103515625</ele>
        <time>2019-07-26T16:20:54.000Z</time>
      </trkpt>
      <trkpt lat="42.8801353834569454193115234375" lon="-8.53314866311848163604736328125">
        <ele>246.600006103515625</ele>
        <time>2019-07-26T16:22:44.000Z</time>
      </trkpt>
      <trkpt lat="42.88010261021554470062255859375" lon="-8.533145226538181304931640625">
        <ele>246.600006103515625</ele>
        <time>2019-07-26T16:22:45.000Z</time>
      </trkpt>
      <trkpt lat="42.87994620390236377716064453125" lon="-8.53317565284669399261474609375">
        <ele>246.600006103515625</ele>
        <time>2019-07-26T16:22:49.000Z</time>
      </trkpt>
      <trkpt lat="42.8799063898622989654541015625" lon="-8.53319677524268627166748046875">
        <ele>246.600006103515625</ele>
        <time>2019-07-26T16:22:50.000Z</time>
      </trkpt>
      <trkpt lat="42.8798319585621356964111328125" lon="-8.53325075469911098480224609375">
        <ele>246.600006103515625</ele>
        <time>2019-07-26T16:22:52.000Z</time>
      </trkpt>
      <trkpt lat="42.87980019114911556243896484375" lon="-8.53328101336956024169921875">
        <ele>246.600006103515625</ele>
        <time>2019-07-26T16:22:53.000Z</time>
      </trkpt>
      <trkpt lat="42.879750318825244903564453125" lon="-8.533332645893096923828125">
        <ele>246.600006103515625</ele>
        <time>2019-07-26T16:22:55.000Z</time>
      </trkpt>
      <trkpt lat="42.87974621169269084930419921875" lon="-8.53337346576154232025146484375">
        <ele>246.1999969482421875</ele>
        <time>2019-07-26T16:22:56.000Z</time>
      </trkpt>
      <trkpt lat="42.87976599298417568206787109375" lon="-8.533434234559535980224609375">
        <ele>246</ele>
        <time>2019-07-26T16:22:58.000Z</time>
      </trkpt>
      <trkpt lat="42.87979222834110260009765625" lon="-8.53347404859960079193115234375">
        <ele>246</ele>
        <time>2019-07-26T16:23:00.000Z</time>
      </trkpt>
      <trkpt lat="42.87983606569468975067138671875" lon="-8.53352450765669345855712890625">
        <ele>246</ele>
        <time>2019-07-26T16:23:03.000Z</time>
      </trkpt>
      <trkpt lat="42.8798658214509487152099609375" lon="-8.53353976272046566009521484375">
        <ele>246</ele>
        <time>2019-07-26T16:23:05.000Z</time>
      </trkpt>
      <trkpt lat="42.87990010343492031097412109375" lon="-8.533540852367877960205078125">
        <ele>246.399993896484375</ele>
        <time>2019-07-26T16:23:07.000Z</time>
      </trkpt>
      <trkpt lat="42.879970259964466094970703125" lon="-8.53352685458958148956298828125">
        <ele>247</ele>
        <time>2019-07-26T16:23:10.000Z</time>
      </trkpt>
      <trkpt lat="42.88005466572940349578857421875" lon="-8.53352702222764492034912109375">
        <ele>247.8000030517578125</ele>
        <time>2019-07-26T16:23:13.000Z</time>
      </trkpt>
      <trkpt lat="42.88013965822756290435791015625" lon="-8.5335219092667102813720703125">
        <ele>248.399993896484375</ele>
        <time>2019-07-26T16:23:16.000Z</time>
      </trkpt>
      <trkpt lat="42.8801648877561092376708984375" lon="-8.53352584876120090484619140625">
        <ele>248.600006103515625</ele>
        <time>2019-07-26T16:23:17.000Z</time>
      </trkpt>
      <trkpt lat="42.8802135027945041656494140625" lon="-8.53352551348507404327392578125">
        <ele>248.8000030517578125</ele>
        <time>2019-07-26T16:23:19.000Z</time>
      </trkpt>
      <trkpt lat="42.880301512777805328369140625" lon="-8.5335326381027698516845703125">
        <ele>249.399993896484375</ele>
        <time>2019-07-26T16:23:22.000Z</time>
      </trkpt>
      <trkpt lat="42.880333699285984039306640625" lon="-8.53354060091078281402587890625">
        <ele>249.600006103515625</ele>
        <time>2019-07-26T16:23:23.000Z</time>
      </trkpt>
      <trkpt lat="42.880365215241909027099609375" lon="-8.5335445404052734375">
        <ele>250</ele>
        <time>2019-07-26T16:23:24.000Z</time>
      </trkpt>
      <trkpt lat="42.8804716654121875762939453125" lon="-8.53356608189642429351806640625">
        <ele>251</ele>
        <time>2019-07-26T16:23:28.000Z</time>
      </trkpt>
      <trkpt lat="42.88049236871302127838134765625" lon="-8.53356800973415374755859375">
        <ele>251.1999969482421875</ele>
        <time>2019-07-26T16:23:29.000Z</time>
      </trkpt>
      <trkpt lat="42.880548946559429168701171875" lon="-8.53359273634850978851318359375">
        <ele>251.600006103515625</ele>
        <time>2019-07-26T16:23:32.000Z</time>
      </trkpt>
      <trkpt lat="42.8805883415043354034423828125" lon="-8.5336074046790599822998046875">
        <ele>252.399993896484375</ele>
        <time>2019-07-26T16:23:34.000Z</time>
      </trkpt>
      <trkpt lat="42.8806567378342151641845703125" lon="-8.5336479730904102325439453125">
        <ele>253.600006103515625</ele>
        <time>2019-07-26T16:23:38.000Z</time>
      </trkpt>
      <trkpt lat="42.88067811168730258941650390625" lon="-8.53368141688406467437744140625">
        <ele>254</ele>
        <time>2019-07-26T16:23:40.000Z</time>
      </trkpt>
      <trkpt lat="42.88072136230766773223876953125" lon="-8.53372047655284404754638671875">
        <ele>255</ele>
        <time>2019-07-26T16:23:43.000Z</time>
      </trkpt>
      <trkpt lat="42.88079529069364070892333984375" lon="-8.53378334082663059234619140625">
        <ele>256.20001220703125</ele>
        <time>2019-07-26T16:23:47.000Z</time>
      </trkpt>
      <trkpt lat="42.88081607781350612640380859375" lon="-8.53380328975617885589599609375">
        <ele>256.600006103515625</ele>
        <time>2019-07-26T16:23:48.000Z</time>
      </trkpt>
      <trkpt lat="42.8808505274355411529541015625" lon="-8.5338382422924041748046875">
        <ele>257.20001220703125</ele>
        <time>2019-07-26T16:23:50.000Z</time>
      </trkpt>
      <trkpt lat="42.8809118829667568206787109375" lon="-8.53390269912779331207275390625">
        <ele>258.600006103515625</ele>
        <time>2019-07-26T16:23:54.000Z</time>
      </trkpt>
      <trkpt lat="42.8809390403330326080322265625" lon="-8.5339416749775409698486328125">
        <ele>259.20001220703125</ele>
        <time>2019-07-26T16:23:56.000Z</time>
      </trkpt>
      <trkpt lat="42.88095488213002681732177734375" lon="-8.53395667858421802520751953125">
        <ele>259.399993896484375</ele>
        <time>2019-07-26T16:23:57.000Z</time>
      </trkpt>
      <trkpt lat="42.8810014016926288604736328125" lon="-8.534035719931125640869140625">
        <ele>260.600006103515625</ele>
        <time>2019-07-26T16:24:01.000Z</time>
      </trkpt>
      <trkpt lat="42.88101472891867160797119140625" lon="-8.53407628834247589111328125">
        <ele>261.20001220703125</ele>
        <time>2019-07-26T16:24:03.000Z</time>
      </trkpt>
      <trkpt lat="42.881031744182109832763671875" lon="-8.53413999080657958984375">
        <ele>261.79998779296875</ele>
        <time>2019-07-26T16:24:06.000Z</time>
      </trkpt>
      <trkpt lat="42.88105697371065616607666015625" lon="-8.53420042432844638824462890625">
        <ele>262.79998779296875</ele>
        <time>2019-07-26T16:24:09.000Z</time>
      </trkpt>
      <trkpt lat="42.88106627762317657470703125" lon="-8.53422087617218494415283203125">
        <ele>263.20001220703125</ele>
        <time>2019-07-26T16:24:10.000Z</time>
      </trkpt>
      <trkpt lat="42.8810959495604038238525390625" lon="-8.5342719219624996185302734375">
        <ele>264.20001220703125</ele>
        <time>2019-07-26T16:24:13.000Z</time>
      </trkpt>
      <trkpt lat="42.88110290654003620147705078125" lon="-8.53428793139755725860595703125">
        <ele>264.79998779296875</ele>
        <time>2019-07-26T16:24:14.000Z</time>
      </trkpt>
      <trkpt lat="42.881118245422840118408203125" lon="-8.5343225486576557159423828125">
        <ele>265.20001220703125</ele>
        <time>2019-07-26T16:24:16.000Z</time>
      </trkpt>
      <trkpt lat="42.88112394511699676513671875" lon="-8.53433956392109394073486328125">
        <ele>265.399993896484375</ele>
        <time>2019-07-26T16:24:17.000Z</time>
      </trkpt>
      <trkpt lat="42.881141714751720428466796875" lon="-8.5343934595584869384765625">
        <ele>266.600006103515625</ele>
        <time>2019-07-26T16:24:20.000Z</time>
      </trkpt>
      <trkpt lat="42.8811774216592311859130859375" lon="-8.5344388894736766815185546875">
        <ele>267</ele>
        <time>2019-07-26T16:24:23.000Z</time>
      </trkpt>
      <trkpt lat="42.88119628094136714935302734375" lon="-8.5344693996012210845947265625">
        <ele>267.600006103515625</ele>
        <time>2019-07-26T16:24:25.000Z</time>
      </trkpt>
      <trkpt lat="42.88123793900012969970703125" lon="-8.53452287614345550537109375">
        <ele>268.600006103515625</ele>
        <time>2019-07-26T16:24:29.000Z</time>
      </trkpt>
      <trkpt lat="42.881257049739360809326171875" lon="-8.53455179370939731597900390625">
        <ele>269.20001220703125</ele>
        <time>2019-07-26T16:24:31.000Z</time>
      </trkpt>
      <trkpt lat="42.8812816925346851348876953125" lon="-8.5345917753875255584716796875">
        <ele>270</ele>
        <time>2019-07-26T16:24:34.000Z</time>
      </trkpt>
      <trkpt lat="42.8813427127897739410400390625" lon="-8.53465120308101177215576171875">
        <ele>271</ele>
        <time>2019-07-26T16:24:40.000Z</time>
      </trkpt>
      <trkpt lat="42.88139007054269313812255859375" lon="-8.5346992313861846923828125">
        <ele>272.20001220703125</ele>
        <time>2019-07-26T16:24:44.000Z</time>
      </trkpt>
      <trkpt lat="42.88139996118843555450439453125" lon="-8.53471599519252777099609375">
        <ele>273.600006103515625</ele>
        <time>2019-07-26T16:24:45.000Z</time>
      </trkpt>
      <trkpt lat="42.88142058067023754119873046875" lon="-8.53473770432174205780029296875">
        <ele>274</ele>
        <time>2019-07-26T16:24:47.000Z</time>
      </trkpt>
      <trkpt lat="42.88144136779010295867919921875" lon="-8.5347537137567996978759765625">
        <ele>274.399993896484375</ele>
        <time>2019-07-26T16:24:49.000Z</time>
      </trkpt>
      <trkpt lat="42.88145176135003566741943359375" lon="-8.53476368822157382965087890625">
        <ele>274.600006103515625</ele>
        <time>2019-07-26T16:24:50.000Z</time>
      </trkpt>
      <trkpt lat="42.88148738443851470947265625" lon="-8.53479201905429363250732421875">
        <ele>274.79998779296875</ele>
        <time>2019-07-26T16:24:53.000Z</time>
      </trkpt>
      <trkpt lat="42.881516553461551666259765625" lon="-8.5348237864673137664794921875">
        <ele>275.600006103515625</ele>
        <time>2019-07-26T16:24:56.000Z</time>
      </trkpt>
      <trkpt lat="42.88153742440044879913330078125" lon="-8.53488371707499027252197265625">
        <ele>276.399993896484375</ele>
        <time>2019-07-26T16:25:00.000Z</time>
      </trkpt>
      <trkpt lat="42.8815318085253238677978515625" lon="-8.53490701876580715179443359375">
        <ele>276.399993896484375</ele>
        <time>2019-07-26T16:25:01.000Z</time>
      </trkpt>
      <trkpt lat="42.8815308026969432830810546875" lon="-8.53494373150169849395751953125">
        <ele>276.600006103515625</ele>
        <time>2019-07-26T16:25:03.000Z</time>
      </trkpt>
      <trkpt lat="42.88153105415403842926025390625" lon="-8.53497642092406749725341796875">
        <ele>277</ele>
        <time>2019-07-26T16:25:04.000Z</time>
      </trkpt>
      <trkpt lat="42.881551422178745269775390625" lon="-8.5350182466208934783935546875">
        <ele>277.399993896484375</ele>
        <time>2019-07-26T16:25:06.000Z</time>
      </trkpt>
      <trkpt lat="42.88159458898007869720458984375" lon="-8.53505873121321201324462890625">
        <ele>277.79998779296875</ele>
        <time>2019-07-26T16:25:09.000Z</time>
      </trkpt>
      <trkpt lat="42.88161286152899265289306640625" lon="-8.53507717140018939971923828125">
        <ele>278</ele>
        <time>2019-07-26T16:25:10.000Z</time>
      </trkpt>
      <trkpt lat="42.88168075494468212127685546875" lon="-8.5351563803851604461669921875">
        <ele>278.399993896484375</ele>
        <time>2019-07-26T16:25:14.000Z</time>
      </trkpt>
      <trkpt lat="42.88170640356838703155517578125" lon="-8.535210192203521728515625">
        <ele>278.600006103515625</ele>
        <time>2019-07-26T16:25:16.000Z</time>
      </trkpt>
      <trkpt lat="42.881737835705280303955078125" lon="-8.535291664302349090576171875">
        <ele>278.600006103515625</ele>
        <time>2019-07-26T16:25:19.000Z</time>
      </trkpt>
      <trkpt lat="42.88173993118107318878173828125" lon="-8.53534555993974208831787109375">
        <ele>278.600006103515625</ele>
        <time>2019-07-26T16:25:21.000Z</time>
      </trkpt>
      <trkpt lat="42.881735153496265411376953125" lon="-8.535375483334064483642578125">
        <ele>278.600006103515625</ele>
        <time>2019-07-26T16:25:22.000Z</time>
      </trkpt>
      <trkpt lat="42.8817319683730602264404296875" lon="-8.53540222160518169403076171875">
        <ele>278.79998779296875</ele>
        <time>2019-07-26T16:25:23.000Z</time>
      </trkpt>
      <trkpt lat="42.88172953762114048004150390625" lon="-8.535429127514362335205078125">
        <ele>278.79998779296875</ele>
        <time>2019-07-26T16:25:24.000Z</time>
      </trkpt>
      <trkpt lat="42.88172744214534759521484375" lon="-8.5354529321193695068359375">
        <ele>278.600006103515625</ele>
        <time>2019-07-26T16:25:25.000Z</time>
      </trkpt>
      <trkpt lat="42.88172383792698383331298828125" lon="-8.5354797542095184326171875">
        <ele>278.600006103515625</ele>
        <time>2019-07-26T16:25:26.000Z</time>
      </trkpt>
      <trkpt lat="42.8817205689847469329833984375" lon="-8.53550632484257221221923828125">
        <ele>278.600006103515625</ele>
        <time>2019-07-26T16:25:27.000Z</time>
      </trkpt>
      <trkpt lat="42.88171403110027313232421875" lon="-8.535546474158763885498046875">
        <ele>278.600006103515625</ele>
        <time>2019-07-26T16:25:28.000Z</time>
      </trkpt>
      <trkpt lat="42.8816934116184711456298828125" lon="-8.53575057350099086761474609375">
        <ele>278.600006103515625</ele>
        <time>2019-07-26T16:25:32.000Z</time>
      </trkpt>
      <trkpt lat="42.8816786594688892364501953125" lon="-8.53589138947427272796630859375">
        <ele>278.600006103515625</ele>
        <time>2019-07-26T16:25:35.000Z</time>
      </trkpt>
      <trkpt lat="42.88166415877640247344970703125" lon="-8.5359732806682586669921875">
        <ele>278.399993896484375</ele>
        <time>2019-07-26T16:25:37.000Z</time>
      </trkpt>
      <trkpt lat="42.881653010845184326171875" lon="-8.53604343719780445098876953125">
        <ele>278</ele>
        <time>2019-07-26T16:25:39.000Z</time>
      </trkpt>
      <trkpt lat="42.881633229553699493408203125" lon="-8.53609867393970489501953125">
        <ele>277.600006103515625</ele>
        <time>2019-07-26T16:25:42.000Z</time>
      </trkpt>
      <trkpt lat="42.88159375078976154327392578125" lon="-8.53627159260213375091552734375">
        <ele>275.79998779296875</ele>
        <time>2019-07-26T16:26:14.000Z</time>
      </trkpt>
      <trkpt lat="42.88159123621881008148193359375" lon="-8.536296822130680084228515625">
        <ele>275.79998779296875</ele>
        <time>2019-07-26T16:26:15.000Z</time>
      </trkpt>
      <trkpt lat="42.881583608686923980712890625" lon="-8.53634770028293132781982421875">
        <ele>275.79998779296875</ele>
        <time>2019-07-26T16:26:17.000Z</time>
      </trkpt>
      <trkpt lat="42.8815827704966068267822265625" lon="-8.5363720916211605072021484375">
        <ele>275.79998779296875</ele>
        <time>2019-07-26T16:26:18.000Z</time>
      </trkpt>
      <trkpt lat="42.8815629892051219940185546875" lon="-8.536450378596782684326171875">
        <ele>275.79998779296875</ele>
        <time>2019-07-26T16:26:21.000Z</time>
      </trkpt>
      <trkpt lat="42.88150087930262088775634765625" lon="-8.5366362892091274261474609375">
        <ele>275.399993896484375</ele>
        <time>2019-07-26T16:26:26.000Z</time>
      </trkpt>
      <trkpt lat="42.88147321902215480804443359375" lon="-8.53671382181346416473388671875">
        <ele>275</ele>
        <time>2019-07-26T16:26:28.000Z</time>
      </trkpt>
      <trkpt lat="42.881438098847866058349609375" lon="-8.5368575714528560638427734375">
        <ele>274.79998779296875</ele>
        <time>2019-07-26T16:26:31.000Z</time>
      </trkpt>
      <trkpt lat="42.8814245201647281646728515625" lon="-8.53690811432898044586181640625">
        <ele>274.79998779296875</ele>
        <time>2019-07-26T16:26:32.000Z</time>
      </trkpt>
      <trkpt lat="42.8814188204705715179443359375" lon="-8.5369628481566905975341796875">
        <ele>274.79998779296875</ele>
        <time>2019-07-26T16:26:33.000Z</time>
      </trkpt>
      <trkpt lat="42.8813802637159824371337890625" lon="-8.53715554811060428619384765625">
        <ele>274.399993896484375</ele>
        <time>2019-07-26T16:26:36.000Z</time>
      </trkpt>
      <trkpt lat="42.8813718818128108978271484375" lon="-8.537289239466190338134765625">
        <ele>274.399993896484375</ele>
        <time>2019-07-26T16:26:38.000Z</time>
      </trkpt>
      <trkpt lat="42.88135754875838756561279296875" lon="-8.5374295525252819061279296875">
        <ele>274.20001220703125</ele>
        <time>2019-07-26T16:26:40.000Z</time>
      </trkpt>
      <trkpt lat="42.88135386072099208831787109375" lon="-8.53750306181609630584716796875">
        <ele>273.79998779296875</ele>
        <time>2019-07-26T16:26:41.000Z</time>
      </trkpt>
      <trkpt lat="42.8813175670802593231201171875" lon="-8.53777463547885417938232421875">
        <ele>273.399993896484375</ele>
        <time>2019-07-26T16:26:45.000Z</time>
      </trkpt>
      <trkpt lat="42.88129552267491817474365234375" lon="-8.53791494853794574737548828125">
        <ele>272.79998779296875</ele>
        <time>2019-07-26T16:26:48.000Z</time>
      </trkpt>
      <trkpt lat="42.88129451684653759002685546875" lon="-8.53802357800304889678955078125">
        <ele>272.399993896484375</ele>
        <time>2019-07-26T16:26:50.000Z</time>
      </trkpt>
      <trkpt lat="42.88129250518977642059326171875" lon="-8.53813924826681613922119140625">
        <ele>271.399993896484375</ele>
        <time>2019-07-26T16:26:52.000Z</time>
      </trkpt>
      <trkpt lat="42.8813286311924457550048828125" lon="-8.538319878280162811279296875">
        <ele>270.399993896484375</ele>
        <time>2019-07-26T16:26:55.000Z</time>
      </trkpt>
      <trkpt lat="42.88135268725454807281494140625" lon="-8.5383830778300762176513671875">
        <ele>270.20001220703125</ele>
        <time>2019-07-26T16:26:56.000Z</time>
      </trkpt>
      <trkpt lat="42.881402559578418731689453125" lon="-8.5385186970233917236328125">
        <ele>269.79998779296875</ele>
        <time>2019-07-26T16:26:58.000Z</time>
      </trkpt>
      <trkpt lat="42.8814573772251605987548828125" lon="-8.5386586748063564300537109375">
        <ele>269</ele>
        <time>2019-07-26T16:27:00.000Z</time>
      </trkpt>
      <trkpt lat="42.88149082101881504058837890625" lon="-8.53872346691787242889404296875">
        <ele>269</ele>
        <time>2019-07-26T16:27:01.000Z</time>
      </trkpt>
      <trkpt lat="42.88159064948558807373046875" lon="-8.539007864892482757568359375">
        <ele>268</ele>
        <time>2019-07-26T16:27:05.000Z</time>
      </trkpt>
      <trkpt lat="42.88161939941346645355224609375" lon="-8.53906058706343173980712890625">
        <ele>267.600006103515625</ele>
        <time>2019-07-26T16:27:06.000Z</time>
      </trkpt>
      <trkpt lat="42.88167589344084262847900390625" lon="-8.53917357511818408966064453125">
        <ele>266.79998779296875</ele>
        <time>2019-07-26T16:27:08.000Z</time>
      </trkpt>
      <trkpt lat="42.88180380128324031829833984375" lon="-8.53942201472818851470947265625">
        <ele>266</ele>
        <time>2019-07-26T16:27:12.000Z</time>
      </trkpt>
      <trkpt lat="42.88183397613465785980224609375" lon="-8.539487980306148529052734375">
        <ele>265.79998779296875</ele>
        <time>2019-07-26T16:27:13.000Z</time>
      </trkpt>
      <trkpt lat="42.88189449347555637359619140625" lon="-8.539606668055057525634765625">
        <ele>265.20001220703125</ele>
        <time>2019-07-26T16:27:15.000Z</time>
      </trkpt>
      <trkpt lat="42.8819415159523487091064453125" lon="-8.53970825672149658203125">
        <ele>264.600006103515625</ele>
        <time>2019-07-26T16:27:17.000Z</time>
      </trkpt>
      <trkpt lat="42.8819586150348186492919921875" lon="-8.53975779376924037933349609375">
        <ele>264.600006103515625</ele>
        <time>2019-07-26T16:27:18.000Z</time>
      </trkpt>
      <trkpt lat="42.88197479210793972015380859375" lon="-8.53987597860395908355712890625">
        <ele>263.79998779296875</ele>
        <time>2019-07-26T16:27:21.000Z</time>
      </trkpt>
      <trkpt lat="42.88196490146219730377197265625" lon="-8.53990732692182064056396484375">
        <ele>263.600006103515625</ele>
        <time>2019-07-26T16:27:22.000Z</time>
      </trkpt>
      <trkpt lat="42.8819628059864044189453125" lon="-8.5399300418794155120849609375">
        <ele>263.600006103515625</ele>
        <time>2019-07-26T16:27:23.000Z</time>
      </trkpt>
      <trkpt lat="42.88196481764316558837890625" lon="-8.539967425167560577392578125">
        <ele>263.399993896484375</ele>
        <time>2019-07-26T16:27:25.000Z</time>
      </trkpt>
      <trkpt lat="42.88196255452930927276611328125" lon="-8.540013693273067474365234375">
        <ele>263.20001220703125</ele>
        <time>2019-07-26T16:27:27.000Z</time>
      </trkpt>
      <trkpt lat="42.88194109685719013214111328125" lon="-8.5400675050914287567138671875">
        <ele>263.20001220703125</ele>
        <time>2019-07-26T16:27:30.000Z</time>
      </trkpt>
      <trkpt lat="42.8819264285266399383544921875" lon="-8.54009172879159450531005859375">
        <ele>263.20001220703125</ele>
        <time>2019-07-26T16:27:32.000Z</time>
      </trkpt>
      <trkpt lat="42.8819311223924160003662109375" lon="-8.540100194513797760009765625">
        <ele>263.20001220703125</ele>
        <time>2019-07-26T16:27:33.000Z</time>
      </trkpt>
      <trkpt lat="42.8819405101239681243896484375" lon="-8.540119640529155731201171875">
        <ele>263.20001220703125</ele>
        <time>2019-07-26T16:27:34.000Z</time>
      </trkpt>
      <trkpt lat="42.88195383735001087188720703125" lon="-8.540184684097766876220703125">
        <ele>263.20001220703125</ele>
        <time>2019-07-26T16:27:36.000Z</time>
      </trkpt>
      <trkpt lat="42.88195140659809112548828125" lon="-8.54023120366036891937255859375">
        <ele>263.20001220703125</ele>
        <time>2019-07-26T16:27:37.000Z</time>
      </trkpt>
      <trkpt lat="42.88193975575268268585205078125" lon="-8.54032449424266815185546875">
        <ele>263.20001220703125</ele>
        <time>2019-07-26T16:27:39.000Z</time>
      </trkpt>
      <trkpt lat="42.88193841464817523956298828125" lon="-8.5403628833591938018798828125">
        <ele>263.20001220703125</ele>
        <time>2019-07-26T16:27:40.000Z</time>
      </trkpt>
      <trkpt lat="42.881935648620128631591796875" lon="-8.54043253697454929351806640625">
        <ele>263.20001220703125</ele>
        <time>2019-07-26T16:27:42.000Z</time>
      </trkpt>
      <trkpt lat="42.8819388337433338165283203125" lon="-8.54047193191945552825927734375">
        <ele>263.600006103515625</ele>
        <time>2019-07-26T16:27:45.000Z</time>
      </trkpt>
      <trkpt lat="42.8819371573626995086669921875" lon="-8.5404832474887371063232421875">
        <ele>263.79998779296875</ele>
        <time>2019-07-26T16:27:46.000Z</time>
      </trkpt>
      <trkpt lat="42.8819203935563564300537109375" lon="-8.54050747118890285491943359375">
        <ele>264</ele>
        <time>2019-07-26T16:27:48.000Z</time>
      </trkpt>
      <trkpt lat="42.88188812322914600372314453125" lon="-8.54054510593414306640625">
        <ele>264.399993896484375</ele>
        <time>2019-07-26T16:27:51.000Z</time>
      </trkpt>
      <trkpt lat="42.88188024424016475677490234375" lon="-8.54059397242963314056396484375">
        <ele>264.79998779296875</ele>
        <time>2019-07-26T16:27:54.000Z</time>
      </trkpt>
      <trkpt lat="42.881871275603771209716796875" lon="-8.5406592674553394317626953125">
        <ele>265</ele>
        <time>2019-07-26T16:27:57.000Z</time>
      </trkpt>
      <trkpt lat="42.88183607161045074462890625" lon="-8.54083679616451263427734375">
        <ele>265.79998779296875</ele>
        <time>2019-07-26T16:28:04.000Z</time>
      </trkpt>
      <trkpt lat="42.88177966140210628509521484375" lon="-8.5409636981785297393798828125">
        <ele>266.399993896484375</ele>
        <time>2019-07-26T16:28:08.000Z</time>
      </trkpt>
      <trkpt lat="42.88174982182681560516357421875" lon="-8.5410361178219318389892578125">
        <ele>266.79998779296875</ele>
        <time>2019-07-26T16:28:11.000Z</time>
      </trkpt>
      <trkpt lat="42.88170330226421356201171875" lon="-8.54120367206633090972900390625">
        <ele>267.79998779296875</ele>
        <time>2019-07-26T16:28:18.000Z</time>
      </trkpt>
      <trkpt lat="42.88169433362782001495361328125" lon="-8.54122437536716461181640625">
        <ele>267.79998779296875</ele>
        <time>2019-07-26T16:28:19.000Z</time>
      </trkpt>
      <trkpt lat="42.8816897235810756683349609375" lon="-8.5413925163447856903076171875">
        <ele>268.79998779296875</ele>
        <time>2019-07-26T16:28:24.000Z</time>
      </trkpt>
      <trkpt lat="42.88165879435837268829345703125" lon="-8.54142663069069385528564453125">
        <ele>269</ele>
        <time>2019-07-26T16:28:26.000Z</time>
      </trkpt>
      <trkpt lat="42.88159911520779132843017578125" lon="-8.541521094739437103271484375">
        <ele>269.600006103515625</ele>
        <time>2019-07-26T16:28:31.000Z</time>
      </trkpt>
      <trkpt lat="42.8815911523997783660888671875" lon="-8.54154833592474460601806640625">
        <ele>269.600006103515625</ele>
        <time>2019-07-26T16:28:32.000Z</time>
      </trkpt>
      <trkpt lat="42.881575562059879302978515625" lon="-8.5416013933718204498291015625">
        <ele>270</ele>
        <time>2019-07-26T16:28:34.000Z</time>
      </trkpt>
      <trkpt lat="42.88154664449393749237060546875" lon="-8.5416925884783267974853515625">
        <ele>270.600006103515625</ele>
        <time>2019-07-26T16:28:38.000Z</time>
      </trkpt>
      <trkpt lat="42.881527282297611236572265625" lon="-8.54174883104860782623291015625">
        <ele>271</ele>
        <time>2019-07-26T16:28:41.000Z</time>
      </trkpt>
      <trkpt lat="42.8815006278455257415771484375" lon="-8.5417697019875049591064453125">
        <ele>271.20001220703125</ele>
        <time>2019-07-26T16:28:43.000Z</time>
      </trkpt>
      <trkpt lat="42.881478331983089447021484375" lon="-8.54186500422656536102294921875">
        <ele>271.399993896484375</ele>
        <time>2019-07-26T16:28:47.000Z</time>
      </trkpt>
      <trkpt lat="42.881474979221820831298828125" lon="-8.54190775193274021148681640625">
        <ele>271.79998779296875</ele>
        <time>2019-07-26T16:28:48.000Z</time>
      </trkpt>
      <trkpt lat="42.88147355429828166961669921875" lon="-8.54194815270602703094482421875">
        <ele>272</ele>
        <time>2019-07-26T16:28:49.000Z</time>
      </trkpt>
      <trkpt lat="42.8814523480832576751708984375" lon="-8.54205988347530364990234375">
        <ele>272.79998779296875</ele>
        <time>2019-07-26T16:28:53.000Z</time>
      </trkpt>
      <trkpt lat="42.8814518451690673828125" lon="-8.5420754738152027130126953125">
        <ele>273</ele>
        <time>2019-07-26T16:28:54.000Z</time>
      </trkpt>
      <trkpt lat="42.8814493305981159210205078125" lon="-8.54208762757480144500732421875">
        <ele>273.20001220703125</ele>
        <time>2019-07-26T16:28:55.000Z</time>
      </trkpt>
      <trkpt lat="42.8814443014562129974365234375" lon="-8.5421177186071872711181640625">
        <ele>273.399993896484375</ele>
        <time>2019-07-26T16:28:57.000Z</time>
      </trkpt>
      <trkpt lat="42.8814181499183177947998046875" lon="-8.54214278049767017364501953125">
        <ele>273.79998779296875</ele>
        <time>2019-07-26T16:28:59.000Z</time>
      </trkpt>
      <trkpt lat="42.8813941776752471923828125" lon="-8.54215954430401325225830078125">
        <ele>273.79998779296875</ele>
        <time>2019-07-26T16:29:00.000Z</time>
      </trkpt>
      <trkpt lat="42.88126082159578800201416015625" lon="-8.54226046241819858551025390625">
        <ele>274</ele>
        <time>2019-07-26T16:29:04.000Z</time>
      </trkpt>
      <trkpt lat="42.88122653961181640625" lon="-8.54234310798346996307373046875">
        <ele>274</ele>
        <time>2019-07-26T16:29:06.000Z</time>
      </trkpt>
      <trkpt lat="42.88121237419545650482177734375" lon="-8.54238384403288364410400390625">
        <ele>274</ele>
        <time>2019-07-26T16:29:07.000Z</time>
      </trkpt>
      <trkpt lat="42.88119443692266941070556640625" lon="-8.54244302026927471160888671875">
        <ele>273.79998779296875</ele>
        <time>2019-07-26T16:29:09.000Z</time>
      </trkpt>
      <trkpt lat="42.88118789903819561004638671875" lon="-8.542486689984798431396484375">
        <ele>273.600006103515625</ele>
        <time>2019-07-26T16:29:11.000Z</time>
      </trkpt>
      <trkpt lat="42.8811849653720855712890625" lon="-8.5425307787954807281494140625">
        <ele>273.399993896484375</ele>
        <time>2019-07-26T16:29:13.000Z</time>
      </trkpt>
      <trkpt lat="42.88117750547826290130615234375" lon="-8.542575873434543609619140625">
        <ele>273</ele>
        <time>2019-07-26T16:29:15.000Z</time>
      </trkpt>
      <trkpt lat="42.88118429481983184814453125" lon="-8.5427574254572391510009765625">
        <ele>272.79998779296875</ele>
        <time>2019-07-26T16:29:20.000Z</time>
      </trkpt>
      <trkpt lat="42.88116577081382274627685546875" lon="-8.54304148815572261810302734375">
        <ele>272.600006103515625</ele>
        <time>2019-07-26T16:29:26.000Z</time>
      </trkpt>
      <trkpt lat="42.881147749722003936767578125" lon="-8.54312472045421600341796875">
        <ele>272.600006103515625</ele>
        <time>2019-07-26T16:29:28.000Z</time>
      </trkpt>
      <trkpt lat="42.8811167366802692413330078125" lon="-8.5431607626378536224365234375">
        <ele>272.600006103515625</ele>
        <time>2019-07-26T16:29:29.000Z</time>
      </trkpt>
      <trkpt lat="42.88111380301415920257568359375" lon="-8.54322002269327640533447265625">
        <ele>272.399993896484375</ele>
        <time>2019-07-26T16:29:31.000Z</time>
      </trkpt>
      <trkpt lat="42.88111447356641292572021484375" lon="-8.54325053282082080841064453125">
        <ele>272.20001220703125</ele>
        <time>2019-07-26T16:29:32.000Z</time>
      </trkpt>
      <trkpt lat="42.88111480884253978729248046875" lon="-8.54336167685687541961669921875">
        <ele>271.399993896484375</ele>
        <time>2019-07-26T16:29:36.000Z</time>
      </trkpt>
      <trkpt lat="42.881116233766078948974609375" lon="-8.5433864034712314605712890625">
        <ele>271.399993896484375</ele>
        <time>2019-07-26T16:29:37.000Z</time>
      </trkpt>
      <trkpt lat="42.88112168200314044952392578125" lon="-8.54342705570161342620849609375">
        <ele>271</ele>
        <time>2019-07-26T16:29:39.000Z</time>
      </trkpt>
      <trkpt lat="42.88113794289529323577880859375" lon="-8.54352545924484729766845703125">
        <ele>270</ele>
        <time>2019-07-26T16:29:42.000Z</time>
      </trkpt>
      <trkpt lat="42.88119091652333736419677734375" lon="-8.54360374622046947479248046875">
        <ele>269.399993896484375</ele>
        <time>2019-07-26T16:29:43.000Z</time>
      </trkpt>
      <trkpt lat="42.8812397830188274383544921875" lon="-8.5438383556902408599853515625">
        <ele>268.79998779296875</ele>
        <time>2019-07-26T16:29:47.000Z</time>
      </trkpt>
      <trkpt lat="42.88124673999845981597900390625" lon="-8.5438884794712066650390625">
        <ele>268.600006103515625</ele>
        <time>2019-07-26T16:29:48.000Z</time>
      </trkpt>
      <trkpt lat="42.88126400671899318695068359375" lon="-8.543996103107929229736328125">
        <ele>268.399993896484375</ele>
        <time>2019-07-26T16:29:52.000Z</time>
      </trkpt>
      <trkpt lat="42.88122628815472126007080078125" lon="-8.544111438095569610595703125">
        <ele>267.600006103515625</ele>
        <time>2019-07-26T16:29:56.000Z</time>
      </trkpt>
      <trkpt lat="42.8811797685921192169189453125" lon="-8.5441702790558338165283203125">
        <ele>266.79998779296875</ele>
        <time>2019-07-26T16:29:58.000Z</time>
      </trkpt>
      <trkpt lat="42.88116275332868099212646484375" lon="-8.54424328543245792388916015625">
        <ele>266.399993896484375</ele>
        <time>2019-07-26T16:30:00.000Z</time>
      </trkpt>
      <trkpt lat="42.88115755654871463775634765625" lon="-8.544285781681537628173828125">
        <ele>266.20001220703125</ele>
        <time>2019-07-26T16:30:01.000Z</time>
      </trkpt>
      <trkpt lat="42.88115403614938259124755859375" lon="-8.54432727210223674774169921875">
        <ele>266</ele>
        <time>2019-07-26T16:30:02.000Z</time>
      </trkpt>
      <trkpt lat="42.881177924573421478271484375" lon="-8.54440958239138126373291015625">
        <ele>265.79998779296875</ele>
        <time>2019-07-26T16:30:04.000Z</time>
      </trkpt>
      <trkpt lat="42.881179265677928924560546875" lon="-8.54451837949454784393310546875">
        <ele>265.600006103515625</ele>
        <time>2019-07-26T16:30:06.000Z</time>
      </trkpt>
      <trkpt lat="42.881159149110317230224609375" lon="-8.544566743075847625732421875">
        <ele>265.20001220703125</ele>
        <time>2019-07-26T16:30:07.000Z</time>
      </trkpt>
      <trkpt lat="42.88111179135739803314208984375" lon="-8.5446782223880290985107421875">
        <ele>265</ele>
        <time>2019-07-26T16:30:09.000Z</time>
      </trkpt>
      <trkpt lat="42.88108396343886852264404296875" lon="-8.5447918809950351715087890625">
        <ele>264.20001220703125</ele>
        <time>2019-07-26T16:30:11.000Z</time>
      </trkpt>
      <trkpt lat="42.881039120256900787353515625" lon="-8.54489455930888652801513671875">
        <ele>263.79998779296875</ele>
        <time>2019-07-26T16:30:14.000Z</time>
      </trkpt>
      <trkpt lat="42.88099293597042560577392578125" lon="-8.54492154903709888458251953125">
        <ele>263</ele>
        <time>2019-07-26T16:30:17.000Z</time>
      </trkpt>
      <trkpt lat="42.88097918964922428131103515625" lon="-8.54492657817900180816650390625">
        <ele>262.399993896484375</ele>
        <time>2019-07-26T16:30:18.000Z</time>
      </trkpt>
      <trkpt lat="42.88097181357443332672119140625" lon="-8.54492674581706523895263671875">
        <ele>261.600006103515625</ele>
        <time>2019-07-26T16:30:19.000Z</time>
      </trkpt>
      <trkpt lat="42.8809889964759349822998046875" lon="-8.544918783009052276611328125">
        <ele>260.600006103515625</ele>
        <time>2019-07-26T16:30:21.000Z</time>
      </trkpt>
      <trkpt lat="42.88077517412602901458740234375" lon="-8.5453035123646259307861328125">
        <ele>256</ele>
        <time>2019-07-26T16:30:42.000Z</time>
      </trkpt>
      <trkpt lat="42.88077056407928466796875" lon="-8.54535925202071666717529296875">
        <ele>256</ele>
        <time>2019-07-26T16:30:43.000Z</time>
      </trkpt>
      <trkpt lat="42.880784980952739715576171875" lon="-8.545472323894500732421875">
        <ele>256</ele>
        <time>2019-07-26T16:30:44.000Z</time>
      </trkpt>
      <trkpt lat="42.8807692229747772216796875" lon="-8.545583970844745635986328125">
        <ele>255.399993896484375</ele>
        <time>2019-07-26T16:30:46.000Z</time>
      </trkpt>
      <trkpt lat="42.880746759474277496337890625" lon="-8.5456786863505840301513671875">
        <ele>254.8000030517578125</ele>
        <time>2019-07-26T16:30:48.000Z</time>
      </trkpt>
      <trkpt lat="42.88068942725658416748046875" lon="-8.54570877738296985626220703125">
        <ele>254.1999969482421875</ele>
        <time>2019-07-26T16:30:50.000Z</time>
      </trkpt>
      <trkpt lat="42.88063687272369861602783203125" lon="-8.54574129916727542877197265625">
        <ele>254.1999969482421875</ele>
        <time>2019-07-26T16:30:52.000Z</time>
      </trkpt>
      <trkpt lat="42.8806128166615962982177734375" lon="-8.545760326087474822998046875">
        <ele>254</ele>
        <time>2019-07-26T16:30:53.000Z</time>
      </trkpt>
      <trkpt lat="42.88058389909565448760986328125" lon="-8.54577449150383472442626953125">
        <ele>254</ele>
        <time>2019-07-26T16:30:54.000Z</time>
      </trkpt>
      <trkpt lat="42.880518101155757904052734375" lon="-8.545785807073116302490234375">
        <ele>253.600006103515625</ele>
        <time>2019-07-26T16:30:56.000Z</time>
      </trkpt>
      <trkpt lat="42.88045079447329044342041015625" lon="-8.545793183147907257080078125">
        <ele>253.399993896484375</ele>
        <time>2019-07-26T16:30:58.000Z</time>
      </trkpt>
      <trkpt lat="42.88031433708965778350830078125" lon="-8.545888401567935943603515625">
        <ele>253.1999969482421875</ele>
        <time>2019-07-26T16:31:03.000Z</time>
      </trkpt>
      <trkpt lat="42.88021425716578960418701171875" lon="-8.54590977542102336883544921875">
        <ele>253.1999969482421875</ele>
        <time>2019-07-26T16:31:07.000Z</time>
      </trkpt>
      <trkpt lat="42.8802017681300640106201171875" lon="-8.54588597081601619720458984375">
        <ele>253.1999969482421875</ele>
        <time>2019-07-26T16:31:08.000Z</time>
      </trkpt>
      <trkpt lat="42.8801960684359073638916015625" lon="-8.5458188317716121673583984375">
        <ele>253.1999969482421875</ele>
        <time>2019-07-26T16:31:10.000Z</time>
      </trkpt>
      <trkpt lat="42.88022942841053009033203125" lon="-8.54577113874256610870361328125">
        <ele>253.1999969482421875</ele>
        <time>2019-07-26T16:31:12.000Z</time>
      </trkpt>
      <trkpt lat="42.88033545948565006256103515625" lon="-8.5457930155098438262939453125">
        <ele>253.399993896484375</ele>
        <time>2019-07-26T16:31:16.000Z</time>
      </trkpt>
      <trkpt lat="42.88033797405660152435302734375" lon="-8.5458076000213623046875">
        <ele>253.399993896484375</ele>
        <time>2019-07-26T16:31:19.000Z</time>
      </trkpt>
    </trkseg>
  </trk>
</gpx>
